<?xml version="1.0" encoding="UTF-8" standalone="no" ?>
<gpx xmlns="http://www.topografix.com/GPX/1/1" creator="MapSource 6.16.3" version="1.1" xmlns:xsi="http://www.w3.org/2001/XMLSchema-instance" xsi:schemaLocation="http://www.topografix.com/GPX/1/1 http://www.topografix.com/GPX/1/1/gpx.xsd">

  <metadata>
    <link href="http://www.garmin.com">
      <text>Garmin International</text>
    </link>
    <time>2012-01-23T18:29:24Z</time>
    <bounds maxlat="40.448920028284192" maxlon="-2.134638978168368" minlat="30.6678272690624" minlon="-5.577834025025368"/>
  </metadata>

  <trk>
    <name>101225-España</name>
    <extensions>
      <gpxx:TrackExtension xmlns:gpxx="http://www.garmin.com/xmlschemas/GpxExtensions/v3">
        <gpxx:DisplayColor>Red</gpxx:DisplayColor>
      </gpxx:TrackExtension>
    </extensions>
    <trkseg>
      <trkpt lat="40.409708730876446" lon="-3.722482239827514">
        <ele>574.04443360000005</ele>
        <time>2010-12-25T15:53:34Z</time>
      </trkpt>
      <trkpt lat="40.406671883538365" lon="-3.721523936837912">
        <ele>617.78417969999998</ele>
        <time>2010-12-25T15:54:03Z</time>
      </trkpt>
      <trkpt lat="40.402552178129554" lon="-3.722871411591768">
        <ele>563.46997069999998</ele>
        <time>2010-12-25T15:54:31Z</time>
      </trkpt>
      <trkpt lat="40.402273898944259" lon="-3.722175126895309">
        <ele>548.08886719999998</ele>
        <time>2010-12-25T15:54:33Z</time>
      </trkpt>
      <trkpt lat="40.4020921792835" lon="-3.72236916795373">
        <ele>528.38183590000006</ele>
        <time>2010-12-25T15:54:38Z</time>
      </trkpt>
      <trkpt lat="40.399755388498306" lon="-3.721092939376831">
        <ele>612.49707030000002</ele>
        <time>2010-12-25T15:55:28Z</time>
      </trkpt>
      <trkpt lat="40.395343573763967" lon="-3.706367360427976">
        <ele>568.27636719999998</ele>
        <time>2010-12-25T15:56:03Z</time>
      </trkpt>
      <trkpt lat="40.394825069233775" lon="-3.706165691837668">
        <ele>578.37036130000001</ele>
        <time>2010-12-25T15:56:22Z</time>
      </trkpt>
      <trkpt lat="40.394662963226438" lon="-3.706118082627654">
        <ele>573.08325200000002</ele>
        <time>2010-12-25T15:56:26Z</time>
      </trkpt>
      <trkpt lat="40.394369931891561" lon="-3.706215815618634">
        <ele>566.83447269999999</ele>
        <time>2010-12-25T15:56:34Z</time>
      </trkpt>
      <trkpt lat="40.3907276596874" lon="-3.701681373640895">
        <ele>569.71850589999997</ele>
        <time>2010-12-25T15:56:53Z</time>
      </trkpt>
      <trkpt lat="40.388551130890846" lon="-3.697956036776304">
        <ele>585.09960939999996</ele>
        <time>2010-12-25T15:57:01Z</time>
      </trkpt>
      <trkpt lat="40.388575019314885" lon="-3.697805665433407">
        <ele>588.46435550000001</ele>
        <time>2010-12-25T15:57:04Z</time>
      </trkpt>
      <trkpt lat="40.386761175468564" lon="-3.696456262841821">
        <ele>559.14404300000001</ele>
        <time>2010-12-25T15:57:08Z</time>
      </trkpt>
      <trkpt lat="40.386114176362753" lon="-3.695348175242543">
        <ele>573.56396480000001</ele>
        <time>2010-12-25T15:57:13Z</time>
      </trkpt>
      <trkpt lat="40.384656228125095" lon="-3.693556040525436">
        <ele>569.71850589999997</ele>
        <time>2010-12-25T15:57:24Z</time>
      </trkpt>
      <trkpt lat="40.381568921729922" lon="-3.690080232918263">
        <ele>576.44775389999995</ele>
        <time>2010-12-25T15:57:44Z</time>
      </trkpt>
      <trkpt lat="40.380954779684544" lon="-3.688800735399127">
        <ele>575.96704099999999</ele>
        <time>2010-12-25T15:57:50Z</time>
      </trkpt>
      <trkpt lat="40.380164785310626" lon="-3.686958393082023">
        <ele>570.6796875</ele>
        <time>2010-12-25T15:57:59Z</time>
      </trkpt>
      <trkpt lat="40.379639491438866" lon="-3.686273340135813">
        <ele>569.23779300000001</ele>
        <time>2010-12-25T15:58:03Z</time>
      </trkpt>
      <trkpt lat="40.376929538324475" lon="-3.684352040290833">
        <ele>565.39257810000004</ele>
        <time>2010-12-25T15:58:18Z</time>
      </trkpt>
      <trkpt lat="40.372369363903999" lon="-3.680404331535101">
        <ele>570.6796875</ele>
        <time>2010-12-25T15:58:41Z</time>
      </trkpt>
      <trkpt lat="40.370431384071708" lon="-3.679293477907777">
        <ele>571.64086910000003</ele>
        <time>2010-12-25T15:58:50Z</time>
      </trkpt>
      <trkpt lat="40.368518298491836" lon="-3.67862518876791">
        <ele>574.52514650000001</ele>
        <time>2010-12-25T15:58:58Z</time>
      </trkpt>
      <trkpt lat="40.366535978391767" lon="-3.678314974531531">
        <ele>581.25439449999999</ele>
        <time>2010-12-25T15:59:06Z</time>
      </trkpt>
      <trkpt lat="40.363672887906432" lon="-3.678228640928865">
        <ele>579.81225589999997</ele>
        <time>2010-12-25T15:59:17Z</time>
      </trkpt>
      <trkpt lat="40.362165486440063" lon="-3.678450677543879">
        <ele>574.04443360000005</ele>
        <time>2010-12-25T15:59:23Z</time>
      </trkpt>
      <trkpt lat="40.359273226931691" lon="-3.679839223623276">
        <ele>567.79565430000002</ele>
        <time>2010-12-25T15:59:35Z</time>
      </trkpt>
      <trkpt lat="40.357752833515406" lon="-3.680038461461663">
        <ele>566.83447269999999</ele>
        <time>2010-12-25T15:59:41Z</time>
      </trkpt>
      <trkpt lat="40.355926919728518" lon="-3.679891359061003">
        <ele>566.83447269999999</ele>
        <time>2010-12-25T15:59:48Z</time>
      </trkpt>
      <trkpt lat="40.354953361675143" lon="-3.679450638592243">
        <ele>566.35375980000003</ele>
        <time>2010-12-25T15:59:52Z</time>
      </trkpt>
      <trkpt lat="40.353898918256164" lon="-3.678491078317165">
        <ele>565.39257810000004</ele>
        <time>2010-12-25T15:59:57Z</time>
      </trkpt>
      <trkpt lat="40.352657977491617" lon="-3.676767172291875">
        <ele>562.98925780000002</ele>
        <time>2010-12-25T16:00:04Z</time>
      </trkpt>
      <trkpt lat="40.35157679580152" lon="-3.675749441608787">
        <ele>562.98925780000002</ele>
        <time>2010-12-25T16:00:09Z</time>
      </trkpt>
      <trkpt lat="40.348901459947228" lon="-3.674102565273643">
        <ele>570.19897460000004</ele>
        <time>2010-12-25T16:00:20Z</time>
      </trkpt>
      <trkpt lat="40.346879661083221" lon="-3.673254568129778">
        <ele>577.88964840000006</ele>
        <time>2010-12-25T16:00:28Z</time>
      </trkpt>
      <trkpt lat="40.344757698476315" lon="-3.67283639498055">
        <ele>582.69628909999994</ele>
        <time>2010-12-25T16:00:36Z</time>
      </trkpt>
      <trkpt lat="40.342761380597949" lon="-3.672845279797912">
        <ele>580.77368160000003</ele>
        <time>2010-12-25T16:00:43Z</time>
      </trkpt>
      <trkpt lat="40.340933036059141" lon="-3.67319162003696">
        <ele>576.44775389999995</ele>
        <time>2010-12-25T16:00:49Z</time>
      </trkpt>
      <trkpt lat="40.339126735925674" lon="-3.673878684639931">
        <ele>574.04443360000005</ele>
        <time>2010-12-25T16:00:55Z</time>
      </trkpt>
      <trkpt lat="40.337493773549795" lon="-3.674836233258247">
        <ele>574.52514650000001</ele>
        <time>2010-12-25T16:01:01Z</time>
      </trkpt>
      <trkpt lat="40.335771460086107" lon="-3.676291331648827">
        <ele>575.00585939999996</ele>
        <time>2010-12-25T16:01:08Z</time>
      </trkpt>
      <trkpt lat="40.334226172417402" lon="-3.678073072806001">
        <ele>577.40917969999998</ele>
        <time>2010-12-25T16:01:15Z</time>
      </trkpt>
      <trkpt lat="40.332902334630489" lon="-3.68014776147902">
        <ele>581.25439449999999</ele>
        <time>2010-12-25T16:01:22Z</time>
      </trkpt>
      <trkpt lat="40.330574261024594" lon="-3.685442274436355">
        <ele>588.94506839999997</ele>
        <time>2010-12-25T16:01:38Z</time>
      </trkpt>
      <trkpt lat="40.329347485676408" lon="-3.687429372221232">
        <ele>593.27075200000002</ele>
        <time>2010-12-25T16:01:45Z</time>
      </trkpt>
      <trkpt lat="40.327942259609699" lon="-3.689045319333673">
        <ele>598.07739260000005</ele>
        <time>2010-12-25T16:01:52Z</time>
      </trkpt>
      <trkpt lat="40.326165799051523" lon="-3.690521540120244">
        <ele>602.40307619999999</ele>
        <time>2010-12-25T16:02:00Z</time>
      </trkpt>
      <trkpt lat="40.323940236121416" lon="-3.6917878780514">
        <ele>607.20996090000006</ele>
        <time>2010-12-25T16:02:09Z</time>
      </trkpt>
      <trkpt lat="40.322427470237017" lon="-3.692341586574912">
        <ele>609.13256839999997</ele>
        <time>2010-12-25T16:02:15Z</time>
      </trkpt>
      <trkpt lat="40.230178171768785" lon="-3.689494337886572">
        <ele>633.16528319999998</ele>
        <time>2010-12-25T16:07:28Z</time>
      </trkpt>
      <trkpt lat="40.228343959897757" lon="-3.689122432842851">
        <ele>633.64599610000005</ele>
        <time>2010-12-25T16:07:34Z</time>
      </trkpt>
      <trkpt lat="40.211075060069561" lon="-3.682064199820161">
        <ele>623.55249019999997</ele>
        <time>2010-12-25T16:08:30Z</time>
      </trkpt>
      <trkpt lat="40.19584053196013" lon="-3.675791937857866">
        <ele>609.61328130000004</ele>
        <time>2010-12-25T16:09:20Z</time>
      </trkpt>
      <trkpt lat="40.194537481293082" lon="-3.674815865233541">
        <ele>608.17138669999997</ele>
        <time>2010-12-25T16:09:25Z</time>
      </trkpt>
      <trkpt lat="40.192655241116881" lon="-3.67292239330709">
        <ele>602.40307619999999</ele>
        <time>2010-12-25T16:09:33Z</time>
      </trkpt>
      <trkpt lat="40.191585291177034" lon="-3.672306826338172">
        <ele>599.51928710000004</ele>
        <time>2010-12-25T16:09:37Z</time>
      </trkpt>
      <trkpt lat="40.190389025956392" lon="-3.672128794714809">
        <ele>596.63549799999998</ele>
        <time>2010-12-25T16:09:41Z</time>
      </trkpt>
      <trkpt lat="40.188201935961843" lon="-3.67232384160161">
        <ele>593.75146480000001</ele>
        <time>2010-12-25T16:09:48Z</time>
      </trkpt>
      <trkpt lat="40.186677686870098" lon="-3.672123765572906">
        <ele>596.63549799999998</ele>
        <time>2010-12-25T16:09:53Z</time>
      </trkpt>
      <trkpt lat="40.184712968766689" lon="-3.671410633251071">
        <ele>607.20996090000006</ele>
        <time>2010-12-25T16:10:00Z</time>
      </trkpt>
      <trkpt lat="40.173167986795306" lon="-3.666728418320417">
        <ele>621.62963869999999</ele>
        <time>2010-12-25T16:10:40Z</time>
      </trkpt>
      <trkpt lat="40.156201422214508" lon="-3.659907560795546">
        <ele>627.39770510000005</ele>
        <time>2010-12-25T16:11:35Z</time>
      </trkpt>
      <trkpt lat="40.154307028278708" lon="-3.659646464511752">
        <ele>628.83959960000004</ele>
        <time>2010-12-25T16:11:41Z</time>
      </trkpt>
      <trkpt lat="40.135625693947077" lon="-3.657611589878798">
        <ele>622.59106450000002</ele>
        <time>2010-12-25T16:12:40Z</time>
      </trkpt>
      <trkpt lat="40.122202159836888" lon="-3.655774360522628">
        <ele>612.97778319999998</ele>
        <time>2010-12-25T16:13:41Z</time>
      </trkpt>
      <trkpt lat="40.120791736990213" lon="-3.655177066102624">
        <ele>612.01660159999994</ele>
        <time>2010-12-25T16:13:49Z</time>
      </trkpt>
      <trkpt lat="40.106356339529157" lon="-3.646831372752786">
        <ele>605.76806639999995</ele>
        <time>2010-12-25T16:15:03Z</time>
      </trkpt>
      <trkpt lat="40.105443298816681" lon="-3.646176159381867">
        <ele>606.24853519999999</ele>
        <time>2010-12-25T16:15:10Z</time>
      </trkpt>
      <trkpt lat="40.104380138218403" lon="-3.645064635202289">
        <ele>605.28735349999999</ele>
        <time>2010-12-25T16:15:20Z</time>
      </trkpt>
      <trkpt lat="40.104231862351298" lon="-3.645073268562555">
        <ele>604.80664060000004</ele>
        <time>2010-12-25T16:15:25Z</time>
      </trkpt>
      <trkpt lat="40.104095740243793" lon="-3.645695289596915">
        <ele>604.32617189999996</ele>
        <time>2010-12-25T16:15:33Z</time>
      </trkpt>
      <trkpt lat="40.104210739955306" lon="-3.646709164604545">
        <ele>603.84521480000001</ele>
        <time>2010-12-25T16:15:41Z</time>
      </trkpt>
      <trkpt lat="40.10489453561604" lon="-3.648794917389751">
        <ele>604.80664060000004</ele>
        <time>2010-12-25T16:15:55Z</time>
      </trkpt>
      <trkpt lat="40.105104334652424" lon="-3.650228390470147">
        <ele>607.20996090000006</ele>
        <time>2010-12-25T16:16:08Z</time>
      </trkpt>
      <trkpt lat="40.1051901653409" lon="-3.650361662730575">
        <ele>606.72924799999998</ele>
        <time>2010-12-25T16:16:14Z</time>
      </trkpt>
      <trkpt lat="40.105506498366594" lon="-3.647744581103325">
        <ele>602.88378909999994</ele>
        <time>2010-12-25T16:16:46Z</time>
      </trkpt>
      <trkpt lat="40.105942524969578" lon="-3.64747853949666">
        <ele>600.96118160000003</ele>
        <time>2010-12-25T16:16:53Z</time>
      </trkpt>
      <trkpt lat="40.106491288170218" lon="-3.646508837118745">
        <ele>598.55786130000001</ele>
        <time>2010-12-25T16:17:01Z</time>
      </trkpt>
      <trkpt lat="40.107256975024939" lon="-3.645597221329808">
        <ele>601.92260739999995</ele>
        <time>2010-12-25T16:17:10Z</time>
      </trkpt>
      <trkpt lat="40.107582276687026" lon="-3.64545313641429">
        <ele>601.44189449999999</ele>
        <time>2010-12-25T16:17:16Z</time>
      </trkpt>
      <trkpt lat="40.107394689694047" lon="-3.646276658400893">
        <ele>602.88378909999994</ele>
        <time>2010-12-25T16:17:24Z</time>
      </trkpt>
      <trkpt lat="40.107557717710733" lon="-3.646935727447271">
        <ele>604.32617189999996</ele>
        <time>2010-12-25T16:17:29Z</time>
      </trkpt>
      <trkpt lat="40.1079220790416" lon="-3.647365467622876">
        <ele>604.80664060000004</ele>
        <time>2010-12-25T16:17:33Z</time>
      </trkpt>
      <trkpt lat="40.121711734682322" lon="-3.655342189595103">
        <ele>610.09375</ele>
        <time>2010-12-25T16:18:33Z</time>
      </trkpt>
      <trkpt lat="40.123430276289582" lon="-3.655802439898253">
        <ele>608.17138669999997</ele>
        <time>2010-12-25T16:18:39Z</time>
      </trkpt>
      <trkpt lat="40.135322520509362" lon="-3.657419560477138">
        <ele>619.22631839999997</ele>
        <time>2010-12-25T16:19:19Z</time>
      </trkpt>
      <trkpt lat="40.156016685068607" lon="-3.659713268280029">
        <ele>627.39770510000005</ele>
        <time>2010-12-25T16:20:25Z</time>
      </trkpt>
      <trkpt lat="40.157563732936978" lon="-3.660138063132763">
        <ele>625.95556639999995</ele>
        <time>2010-12-25T16:20:30Z</time>
      </trkpt>
      <trkpt lat="40.176513874903321" lon="-3.667881516739726">
        <ele>618.74560550000001</ele>
        <time>2010-12-25T16:21:35Z</time>
      </trkpt>
      <trkpt lat="40.183754581958055" lon="-3.670810321345925">
        <ele>608.17138669999997</ele>
        <time>2010-12-25T16:21:59Z</time>
      </trkpt>
      <trkpt lat="40.187119580805302" lon="-3.672097278758884">
        <ele>595.67407230000003</ele>
        <time>2010-12-25T16:22:10Z</time>
      </trkpt>
      <trkpt lat="40.188735276460648" lon="-3.672281596809626">
        <ele>591.82885739999995</ele>
        <time>2010-12-25T16:22:15Z</time>
      </trkpt>
      <trkpt lat="40.190650289878249" lon="-3.672076324000955">
        <ele>593.27075200000002</ele>
        <time>2010-12-25T16:22:21Z</time>
      </trkpt>
      <trkpt lat="40.191881339997053" lon="-3.672267934307456">
        <ele>596.15478519999999</ele>
        <time>2010-12-25T16:22:25Z</time>
      </trkpt>
      <trkpt lat="40.193006359040737" lon="-3.672878639772534">
        <ele>600</ele>
        <time>2010-12-25T16:22:29Z</time>
      </trkpt>
      <trkpt lat="40.195652777329087" lon="-3.675456326454878">
        <ele>607.20996090000006</ele>
        <time>2010-12-25T16:22:40Z</time>
      </trkpt>
      <trkpt lat="40.197037383913994" lon="-3.676204159855843">
        <ele>608.65185550000001</ele>
        <time>2010-12-25T16:22:45Z</time>
      </trkpt>
      <trkpt lat="40.22823759354651" lon="-3.688876340165734">
        <ele>632.20410159999994</ele>
        <time>2010-12-25T16:24:28Z</time>
      </trkpt>
      <trkpt lat="40.230077672749758" lon="-3.689391240477562">
        <ele>632.20410159999994</ele>
        <time>2010-12-25T16:24:34Z</time>
      </trkpt>
      <trkpt lat="40.302746761590242" lon="-3.691495433449745">
        <ele>604.80664060000004</ele>
        <time>2010-12-25T16:28:19Z</time>
      </trkpt>
      <trkpt lat="40.304455328732729" lon="-3.691471125930548">
        <ele>606.24853519999999</ele>
        <time>2010-12-25T16:28:31Z</time>
      </trkpt>
      <trkpt lat="40.304841734468937" lon="-3.691160241141915">
        <ele>607.20996090000006</ele>
        <time>2010-12-25T16:28:36Z</time>
      </trkpt>
      <trkpt lat="40.304716592654586" lon="-3.6906429938972">
        <ele>608.65185550000001</ele>
        <time>2010-12-25T16:28:40Z</time>
      </trkpt>
      <trkpt lat="40.304401684552431" lon="-3.690455574542284">
        <ele>610.09375</ele>
        <time>2010-12-25T16:28:43Z</time>
      </trkpt>
      <trkpt lat="40.304107563570142" lon="-3.690344598144293">
        <ele>610.57446289999996</ele>
        <time>2010-12-25T16:28:46Z</time>
      </trkpt>
      <trkpt lat="40.303882425650954" lon="-3.690484324470162">
        <ele>611.53588869999999</ele>
        <time>2010-12-25T16:28:51Z</time>
      </trkpt>
      <trkpt lat="40.304029360413551" lon="-3.691602637991309">
        <ele>612.49707030000002</ele>
        <time>2010-12-25T16:29:00Z</time>
      </trkpt>
      <trkpt lat="40.3039266820997" lon="-3.692876016721129">
        <ele>609.61328130000004</ele>
        <time>2010-12-25T16:29:09Z</time>
      </trkpt>
      <trkpt lat="40.303473388776183" lon="-3.694701427593827">
        <ele>607.69067380000001</ele>
        <time>2010-12-25T16:29:19Z</time>
      </trkpt>
      <trkpt lat="40.303749991580844" lon="-3.696849290281534">
        <ele>663.92749019999997</ele>
        <time>2010-12-25T16:38:38Z</time>
      </trkpt>
      <trkpt lat="40.303661981597543" lon="-3.696885416284204">
        <ele>610.09375</ele>
        <time>2010-12-25T16:38:40Z</time>
      </trkpt>
      <trkpt lat="40.303756780922413" lon="-3.696862617507577">
        <ele>609.13256839999997</ele>
        <time>2010-12-25T16:41:51Z</time>
      </trkpt>
      <trkpt lat="40.304271681234241" lon="-3.700877465307713">
        <ele>608.65185550000001</ele>
        <time>2010-12-25T16:42:18Z</time>
      </trkpt>
      <trkpt lat="40.304481480270624" lon="-3.701583137735724">
        <ele>608.65185550000001</ele>
        <time>2010-12-25T16:42:24Z</time>
      </trkpt>
      <trkpt lat="40.304415766149759" lon="-3.702047327533364">
        <ele>608.17138669999997</ele>
        <time>2010-12-25T16:42:29Z</time>
      </trkpt>
      <trkpt lat="40.304089123383164" lon="-3.701966861262918">
        <ele>606.72924799999998</ele>
        <time>2010-12-25T16:42:33Z</time>
      </trkpt>
      <trkpt lat="40.304132038727403" lon="-3.700789120048285">
        <ele>605.28735349999999</ele>
        <time>2010-12-25T16:42:42Z</time>
      </trkpt>
      <trkpt lat="40.303580174222589" lon="-3.696719789877534">
        <ele>606.24853519999999</ele>
        <time>2010-12-25T16:42:59Z</time>
      </trkpt>
      <trkpt lat="40.303382277488708" lon="-3.693868182599545">
        <ele>609.61328130000004</ele>
        <time>2010-12-25T16:43:11Z</time>
      </trkpt>
      <trkpt lat="40.303162587806582" lon="-3.693172819912434">
        <ele>612.01660159999994</ele>
        <time>2010-12-25T16:43:16Z</time>
      </trkpt>
      <trkpt lat="40.302520198747516" lon="-3.692582231014967">
        <ele>610.09375</ele>
        <time>2010-12-25T16:43:22Z</time>
      </trkpt>
      <trkpt lat="40.301841264590621" lon="-3.691931460052729">
        <ele>604.32617189999996</ele>
        <time>2010-12-25T16:43:28Z</time>
      </trkpt>
      <trkpt lat="40.284651489928365" lon="-3.691164935007691">
        <ele>595.19335939999996</ele>
        <time>2010-12-25T16:44:32Z</time>
      </trkpt>
      <trkpt lat="40.230694161728024" lon="-3.689486458897591">
        <ele>634.60742189999996</ele>
        <time>2010-12-25T16:47:20Z</time>
      </trkpt>
      <trkpt lat="40.228576390072703" lon="-3.689165432006121">
        <ele>636.04956049999998</ele>
        <time>2010-12-25T16:47:27Z</time>
      </trkpt>
      <trkpt lat="40.196568164974451" lon="-3.676173398271203">
        <ele>605.76806639999995</ele>
        <time>2010-12-25T16:49:13Z</time>
      </trkpt>
      <trkpt lat="40.194892287254333" lon="-3.675167737528682">
        <ele>604.80664060000004</ele>
        <time>2010-12-25T16:49:19Z</time>
      </trkpt>
      <trkpt lat="40.192268416285515" lon="-3.67265366949141">
        <ele>597.11596680000002</ele>
        <time>2010-12-25T16:49:30Z</time>
      </trkpt>
      <trkpt lat="40.191185558214784" lon="-3.672200376167893">
        <ele>593.75146480000001</ele>
        <time>2010-12-25T16:49:34Z</time>
      </trkpt>
      <trkpt lat="40.187924327328801" lon="-3.672351920977235">
        <ele>587.50268549999998</ele>
        <time>2010-12-25T16:49:45Z</time>
      </trkpt>
      <trkpt lat="40.186440479010344" lon="-3.672069534659386">
        <ele>590.86743160000003</ele>
        <time>2010-12-25T16:49:50Z</time>
      </trkpt>
      <trkpt lat="40.184219358488917" lon="-3.671175939962268">
        <ele>603.36450200000002</ele>
        <time>2010-12-25T16:49:58Z</time>
      </trkpt>
      <trkpt lat="40.176802128553391" lon="-3.668165663257241">
        <ele>613.45849610000005</ele>
        <time>2010-12-25T16:50:23Z</time>
      </trkpt>
      <trkpt lat="40.17291946336627" lon="-3.666619788855314">
        <ele>616.34228519999999</ele>
        <time>2010-12-25T16:50:36Z</time>
      </trkpt>
      <trkpt lat="40.157915269955993" lon="-3.660499826073647">
        <ele>620.66845699999999</ele>
        <time>2010-12-25T16:51:23Z</time>
      </trkpt>
      <trkpt lat="40.155737567692995" lon="-3.65980957634747">
        <ele>621.62963869999999</ele>
        <time>2010-12-25T16:51:30Z</time>
      </trkpt>
      <trkpt lat="40.152822928503156" lon="-3.659422835335136">
        <ele>621.14916989999995</ele>
        <time>2010-12-25T16:51:39Z</time>
      </trkpt>
      <trkpt lat="40.140802022069693" lon="-3.658168399706483">
        <ele>618.26489260000005</ele>
        <time>2010-12-25T16:52:15Z</time>
      </trkpt>
      <trkpt lat="40.12831692583859" lon="-3.656623782590032">
        <ele>610.57446289999996</ele>
        <time>2010-12-25T16:52:53Z</time>
      </trkpt>
      <trkpt lat="40.121784321963787" lon="-3.655557185411453">
        <ele>608.17138669999997</ele>
        <time>2010-12-25T16:53:13Z</time>
      </trkpt>
      <trkpt lat="40.107889724895358" lon="-3.647613739594817">
        <ele>599.51928710000004</ele>
        <time>2010-12-25T16:54:01Z</time>
      </trkpt>
      <trkpt lat="40.105390660464764" lon="-3.646001983433962">
        <ele>601.92260739999995</ele>
        <time>2010-12-25T16:54:10Z</time>
      </trkpt>
      <trkpt lat="40.10421778075397" lon="-3.644729275256395">
        <ele>600.48071289999996</ele>
        <time>2010-12-25T16:54:15Z</time>
      </trkpt>
      <trkpt lat="40.103289065882564" lon="-3.643194381147623">
        <ele>597.59667969999998</ele>
        <time>2010-12-25T16:54:20Z</time>
      </trkpt>
      <trkpt lat="40.102131860330701" lon="-3.640529522672296">
        <ele>588.46435550000001</ele>
        <time>2010-12-25T16:54:28Z</time>
      </trkpt>
      <trkpt lat="40.101656690239906" lon="-3.639018768444657">
        <ele>580.29296880000004</ele>
        <time>2010-12-25T16:54:33Z</time>
      </trkpt>
      <trkpt lat="40.101234661415219" lon="-3.636861769482493">
        <ele>567.79565430000002</ele>
        <time>2010-12-25T16:54:41Z</time>
      </trkpt>
      <trkpt lat="40.100693358108401" lon="-3.635288067162037">
        <ele>558.66333010000005</ele>
        <time>2010-12-25T16:54:47Z</time>
      </trkpt>
      <trkpt lat="40.099865226075053" lon="-3.63413262180984">
        <ele>550.4921875</ele>
        <time>2010-12-25T16:54:52Z</time>
      </trkpt>
      <trkpt lat="40.098783122375607" lon="-3.633337765932083">
        <ele>542.80151369999999</ele>
        <time>2010-12-25T16:54:57Z</time>
      </trkpt>
      <trkpt lat="40.097535140812397" lon="-3.633033586665988">
        <ele>534.14965819999998</ele>
        <time>2010-12-25T16:55:02Z</time>
      </trkpt>
      <trkpt lat="40.096489163115621" lon="-3.63317389972508">
        <ele>526.93981929999995</ele>
        <time>2010-12-25T16:55:06Z</time>
      </trkpt>
      <trkpt lat="40.094559397548437" lon="-3.633806817233563">
        <ele>515.8846436</ele>
        <time>2010-12-25T16:55:13Z</time>
      </trkpt>
      <trkpt lat="40.090805981308222" lon="-3.63406422547996">
        <ele>505.31018069999999</ele>
        <time>2010-12-25T16:55:26Z</time>
      </trkpt>
      <trkpt lat="40.089465631172061" lon="-3.634551716968417">
        <ele>504.34887700000002</ele>
        <time>2010-12-25T16:55:31Z</time>
      </trkpt>
      <trkpt lat="40.085465535521507" lon="-3.637149184942246">
        <ele>502.90673829999997</ele>
        <time>2010-12-25T16:55:46Z</time>
      </trkpt>
      <trkpt lat="40.083970036357641" lon="-3.637589821591973">
        <ele>501.46484379999998</ele>
        <time>2010-12-25T16:55:51Z</time>
      </trkpt>
      <trkpt lat="40.079585378989577" lon="-3.638090724125505">
        <ele>498.10034180000002</ele>
        <time>2010-12-25T16:56:05Z</time>
      </trkpt>
      <trkpt lat="40.078135058283806" lon="-3.638803940266371">
        <ele>498.10034180000002</ele>
        <time>2010-12-25T16:56:10Z</time>
      </trkpt>
      <trkpt lat="40.074482141062617" lon="-3.641206277534366">
        <ele>498.58093259999998</ele>
        <time>2010-12-25T16:56:23Z</time>
      </trkpt>
      <trkpt lat="40.069148819893599" lon="-3.644239939749241">
        <ele>496.17773440000002</ele>
        <time>2010-12-25T16:56:41Z</time>
      </trkpt>
      <trkpt lat="40.065734870731831" lon="-3.647185927256942">
        <ele>496.17773440000002</ele>
        <time>2010-12-25T16:56:54Z</time>
      </trkpt>
      <trkpt lat="40.063909962773323" lon="-3.648283621296287">
        <ele>495.21618649999999</ele>
        <time>2010-12-25T16:57:01Z</time>
      </trkpt>
      <trkpt lat="40.059504266828299" lon="-3.649894623085856">
        <ele>497.13891599999999</ele>
        <time>2010-12-25T16:57:16Z</time>
      </trkpt>
      <trkpt lat="40.057536782696843" lon="-3.651164565235376">
        <ele>498.58093259999998</ele>
        <time>2010-12-25T16:57:23Z</time>
      </trkpt>
      <trkpt lat="40.054135071113706" lon="-3.653507139533758">
        <ele>498.58093259999998</ele>
        <time>2010-12-25T16:57:35Z</time>
      </trkpt>
      <trkpt lat="40.050931759178638" lon="-3.655845187604427">
        <ele>495.21618649999999</ele>
        <time>2010-12-25T16:57:46Z</time>
      </trkpt>
      <trkpt lat="40.046711135655642" lon="-3.659932035952807">
        <ele>502.42614750000001</ele>
        <time>2010-12-25T16:58:02Z</time>
      </trkpt>
      <trkpt lat="40.044962922111154" lon="-3.660969464108348">
        <ele>501.46484379999998</ele>
        <time>2010-12-25T16:58:08Z</time>
      </trkpt>
      <trkpt lat="40.041643772274256" lon="-3.662755228579044">
        <ele>497.13891599999999</ele>
        <time>2010-12-25T16:58:19Z</time>
      </trkpt>
      <trkpt lat="40.040174592286348" lon="-3.663129564374685">
        <ele>492.81298829999997</ele>
        <time>2010-12-25T16:58:24Z</time>
      </trkpt>
      <trkpt lat="40.039001293480396" lon="-3.662970559671521">
        <ele>490.40978999999999</ele>
        <time>2010-12-25T16:58:28Z</time>
      </trkpt>
      <trkpt lat="40.034604230895638" lon="-3.661296358332038">
        <ele>487.52563479999998</ele>
        <time>2010-12-25T16:58:43Z</time>
      </trkpt>
      <trkpt lat="40.031053572893143" lon="-3.658399572595954">
        <ele>484.16113280000002</ele>
        <time>2010-12-25T16:58:57Z</time>
      </trkpt>
      <trkpt lat="40.027536693960428" lon="-3.655841834843159">
        <ele>485.60302730000001</ele>
        <time>2010-12-25T16:59:10Z</time>
      </trkpt>
      <trkpt lat="40.026079835370183" lon="-3.654560660943389">
        <ele>486.08374020000002</ele>
        <time>2010-12-25T16:59:16Z</time>
      </trkpt>
      <trkpt lat="40.025129830464721" lon="-3.653228860348463">
        <ele>486.56445309999998</ele>
        <time>2010-12-25T16:59:21Z</time>
      </trkpt>
      <trkpt lat="40.021190335974097" lon="-3.645556569099426">
        <ele>488.00646970000003</ele>
        <time>2010-12-25T16:59:46Z</time>
      </trkpt>
      <trkpt lat="40.020520789548755" lon="-3.643416166305542">
        <ele>496.17773440000002</ele>
        <time>2010-12-25T16:59:52Z</time>
      </trkpt>
      <trkpt lat="40.01910156570375" lon="-3.638830259442329">
        <ele>502.90673829999997</ele>
        <time>2010-12-25T17:00:05Z</time>
      </trkpt>
      <trkpt lat="40.018154159188271" lon="-3.63674433901906">
        <ele>502.90673829999997</ele>
        <time>2010-12-25T17:00:11Z</time>
      </trkpt>
      <trkpt lat="40.01691497862339" lon="-3.63493443466723">
        <ele>508.19409180000002</ele>
        <time>2010-12-25T17:00:17Z</time>
      </trkpt>
      <trkpt lat="40.015008430927992" lon="-3.632535869255662">
        <ele>515.40405269999997</ele>
        <time>2010-12-25T17:00:26Z</time>
      </trkpt>
      <trkpt lat="40.013822978362441" lon="-3.631570274010301">
        <ele>519.72985840000001</ele>
        <time>2010-12-25T17:00:31Z</time>
      </trkpt>
      <trkpt lat="40.012469636276364" lon="-3.630317933857441">
        <ele>523.09460449999995</ele>
        <time>2010-12-25T17:00:37Z</time>
      </trkpt>
      <trkpt lat="40.011795395985246" lon="-3.629166427999735">
        <ele>524.05578609999998</ele>
        <time>2010-12-25T17:00:41Z</time>
      </trkpt>
      <trkpt lat="40.011386191472411" lon="-3.62782976590097">
        <ele>525.01721190000001</ele>
        <time>2010-12-25T17:00:45Z</time>
      </trkpt>
      <trkpt lat="40.01072502695024" lon="-3.621036065742374">
        <ele>546.64685059999999</ele>
        <time>2010-12-25T17:01:04Z</time>
      </trkpt>
      <trkpt lat="40.010339627042413" lon="-3.618590394034982">
        <ele>553.37597659999994</ele>
        <time>2010-12-25T17:01:11Z</time>
      </trkpt>
      <trkpt lat="40.009728670120239" lon="-3.617028677836061">
        <ele>562.02807619999999</ele>
        <time>2010-12-25T17:01:16Z</time>
      </trkpt>
      <trkpt lat="40.008890479803085" lon="-3.615741217508912">
        <ele>571.16040039999996</ele>
        <time>2010-12-25T17:01:21Z</time>
      </trkpt>
      <trkpt lat="40.007685162127018" lon="-3.614517962560058">
        <ele>581.73486330000003</ele>
        <time>2010-12-25T17:01:27Z</time>
      </trkpt>
      <trkpt lat="40.005065565928817" lon="-3.612152421846986">
        <ele>594.71264650000001</ele>
        <time>2010-12-25T17:01:39Z</time>
      </trkpt>
      <trkpt lat="40.002868166193366" lon="-3.610172616317868">
        <ele>594.71264650000001</ele>
        <time>2010-12-25T17:01:48Z</time>
      </trkpt>
      <trkpt lat="39.998560035601258" lon="-3.605729369446635">
        <ele>600.48071289999996</ele>
        <time>2010-12-25T17:02:06Z</time>
      </trkpt>
      <trkpt lat="39.996035574004054" lon="-3.603593241423369">
        <ele>602.88378909999994</ele>
        <time>2010-12-25T17:02:16Z</time>
      </trkpt>
      <trkpt lat="39.995058663189411" lon="-3.602550867944956">
        <ele>603.84521480000001</ele>
        <time>2010-12-25T17:02:21Z</time>
      </trkpt>
      <trkpt lat="39.994321558624506" lon="-3.601225018501282">
        <ele>604.32617189999996</ele>
        <time>2010-12-25T17:02:26Z</time>
      </trkpt>
      <trkpt lat="39.979008240625262" lon="-3.570456393063068">
        <ele>626.91699219999998</ele>
        <time>2010-12-25T17:03:56Z</time>
      </trkpt>
      <trkpt lat="39.977176962420344" lon="-3.566190339624882">
        <ele>629.80078130000004</ele>
        <time>2010-12-25T17:04:08Z</time>
      </trkpt>
      <trkpt lat="39.964931337162852" lon="-3.537202281877399">
        <ele>637.97216800000001</ele>
        <time>2010-12-25T17:05:27Z</time>
      </trkpt>
      <trkpt lat="39.96399063616991" lon="-3.535634698346257">
        <ele>640.85595699999999</ele>
        <time>2010-12-25T17:05:32Z</time>
      </trkpt>
      <trkpt lat="39.958132775500417" lon="-3.527727881446481">
        <ele>660.56298830000003</ele>
        <time>2010-12-25T17:06:00Z</time>
      </trkpt>
      <trkpt lat="39.954086663201451" lon="-3.521689893677831">
        <ele>698.53491210000004</ele>
        <time>2010-12-25T17:06:23Z</time>
      </trkpt>
      <trkpt lat="39.952164273709059" lon="-3.518532095476985">
        <ele>717.76147460000004</ele>
        <time>2010-12-25T17:06:35Z</time>
      </trkpt>
      <trkpt lat="39.951550886034966" lon="-3.516658069565892">
        <ele>726.89404300000001</ele>
        <time>2010-12-25T17:06:41Z</time>
      </trkpt>
      <trkpt lat="39.951323317363858" lon="-3.514946065843105">
        <ele>732.18139650000001</ele>
        <time>2010-12-25T17:06:46Z</time>
      </trkpt>
      <trkpt lat="39.951353995129466" lon="-3.508899277076125">
        <ele>734.58471680000002</ele>
        <time>2010-12-25T17:07:02Z</time>
      </trkpt>
      <trkpt lat="39.951118463650346" lon="-3.507389025762677">
        <ele>735.06542969999998</ele>
        <time>2010-12-25T17:07:06Z</time>
      </trkpt>
      <trkpt lat="39.948701290413737" lon="-3.500504717230797">
        <ele>735.54589840000006</ele>
        <time>2010-12-25T17:07:25Z</time>
      </trkpt>
      <trkpt lat="39.94793426245451" lon="-3.498972672969103">
        <ele>735.54589840000006</ele>
        <time>2010-12-25T17:07:30Z</time>
      </trkpt>
      <trkpt lat="39.944737739861012" lon="-3.494680719450116">
        <ele>735.06542969999998</ele>
        <time>2010-12-25T17:07:46Z</time>
      </trkpt>
      <trkpt lat="39.943492691963911" lon="-3.493623258545995">
        <ele>734.58471680000002</ele>
        <time>2010-12-25T17:07:51Z</time>
      </trkpt>
      <trkpt lat="39.938443684950471" lon="-3.490187264978886">
        <ele>736.02661130000001</ele>
        <time>2010-12-25T17:08:09Z</time>
      </trkpt>
      <trkpt lat="39.934870898723602" lon="-3.487959690392017">
        <ele>735.06542969999998</ele>
        <time>2010-12-25T17:08:21Z</time>
      </trkpt>
      <trkpt lat="39.928478272631764" lon="-3.484120862558484">
        <ele>735.06542969999998</ele>
        <time>2010-12-25T17:08:42Z</time>
      </trkpt>
      <trkpt lat="39.925444861873984" lon="-3.482663668692112">
        <ele>732.66210939999996</ele>
        <time>2010-12-25T17:08:52Z</time>
      </trkpt>
      <trkpt lat="39.923929497599602" lon="-3.482360495254397">
        <ele>734.10400389999995</ele>
        <time>2010-12-25T17:08:57Z</time>
      </trkpt>
      <trkpt lat="39.922148426994681" lon="-3.482418833300471">
        <ele>738.91064449999999</ele>
        <time>2010-12-25T17:09:03Z</time>
      </trkpt>
      <trkpt lat="39.920692993327975" lon="-3.482234263792634">
        <ele>739.87182619999999</ele>
        <time>2010-12-25T17:09:08Z</time>
      </trkpt>
      <trkpt lat="39.919271841645241" lon="-3.481566561385989">
        <ele>738.91064449999999</ele>
        <time>2010-12-25T17:09:13Z</time>
      </trkpt>
      <trkpt lat="39.91795496083796" lon="-3.480438776314259">
        <ele>735.06542969999998</ele>
        <time>2010-12-25T17:09:18Z</time>
      </trkpt>
      <trkpt lat="39.916829271242023" lon="-3.478950737044215">
        <ele>732.66210939999996</ele>
        <time>2010-12-25T17:09:23Z</time>
      </trkpt>
      <trkpt lat="39.91565739735961" lon="-3.477682135999203">
        <ele>731.70043950000002</ele>
        <time>2010-12-25T17:09:28Z</time>
      </trkpt>
      <trkpt lat="39.914563139900565" lon="-3.477032538503408">
        <ele>731.70043950000002</ele>
        <time>2010-12-25T17:09:32Z</time>
      </trkpt>
      <trkpt lat="39.912456097081304" lon="-3.476256541907787">
        <ele>729.29711910000003</ele>
        <time>2010-12-25T17:09:39Z</time>
      </trkpt>
      <trkpt lat="39.89889258518815" lon="-3.472989862784743">
        <ele>722.08740230000001</ele>
        <time>2010-12-25T17:10:21Z</time>
      </trkpt>
      <trkpt lat="39.89587283693254" lon="-3.472932362928987">
        <ele>727.85522460000004</ele>
        <time>2010-12-25T17:10:31Z</time>
      </trkpt>
      <trkpt lat="39.892782177776098" lon="-3.47283236682415">
        <ele>727.85522460000004</ele>
        <time>2010-12-25T17:10:41Z</time>
      </trkpt>
      <trkpt lat="39.890959532931447" lon="-3.47262323834002">
        <ele>725.93261719999998</ele>
        <time>2010-12-25T17:10:47Z</time>
      </trkpt>
      <trkpt lat="39.887554468587041" lon="-3.470990778878331">
        <ele>718.2421875</ele>
        <time>2010-12-25T17:10:59Z</time>
      </trkpt>
      <trkpt lat="39.886020831763744" lon="-3.470760276541114">
        <ele>716.80029300000001</ele>
        <time>2010-12-25T17:11:04Z</time>
      </trkpt>
      <trkpt lat="39.884447464719415" lon="-3.471029838547111">
        <ele>714.87744139999995</ele>
        <time>2010-12-25T17:11:09Z</time>
      </trkpt>
      <trkpt lat="39.874659664928913" lon="-3.476343797519803">
        <ele>722.08740230000001</ele>
        <time>2010-12-25T17:11:42Z</time>
      </trkpt>
      <trkpt lat="39.87318336032331" lon="-3.476724335923791">
        <ele>724.97143549999998</ele>
        <time>2010-12-25T17:11:47Z</time>
      </trkpt>
      <trkpt lat="39.869842668995261" lon="-3.477392876520753">
        <ele>726.41333010000005</ele>
        <time>2010-12-25T17:11:58Z</time>
      </trkpt>
      <trkpt lat="39.867375120520592" lon="-3.477639136835933">
        <ele>723.04882810000004</ele>
        <time>2010-12-25T17:12:06Z</time>
      </trkpt>
      <trkpt lat="39.864896172657609" lon="-3.477402264252305">
        <ele>722.56811519999997</ele>
        <time>2010-12-25T17:12:14Z</time>
      </trkpt>
      <trkpt lat="39.863081993535161" lon="-3.476878982037306">
        <ele>719.20361330000003</ele>
        <time>2010-12-25T17:12:20Z</time>
      </trkpt>
      <trkpt lat="39.856365993618965" lon="-3.474378660321236">
        <ele>716.31958010000005</ele>
        <time>2010-12-25T17:12:42Z</time>
      </trkpt>
      <trkpt lat="39.854447124525905" lon="-3.47319102846086">
        <ele>715.83886719999998</ele>
        <time>2010-12-25T17:12:49Z</time>
      </trkpt>
      <trkpt lat="39.852765882387757" lon="-3.472443530336022">
        <ele>711.51293950000002</ele>
        <time>2010-12-25T17:12:55Z</time>
      </trkpt>
      <trkpt lat="39.85096788033843" lon="-3.472159299999476">
        <ele>709.10961910000003</ele>
        <time>2010-12-25T17:13:01Z</time>
      </trkpt>
      <trkpt lat="39.84879688359797" lon="-3.472303217276931">
        <ele>706.22558590000006</ele>
        <time>2010-12-25T17:13:08Z</time>
      </trkpt>
      <trkpt lat="39.840881181880832" lon="-3.474117061123252">
        <ele>703.82250980000003</ele>
        <time>2010-12-25T17:13:33Z</time>
      </trkpt>
      <trkpt lat="39.839161885902286" lon="-3.474754923954606">
        <ele>699.49633789999996</ele>
        <time>2010-12-25T17:13:39Z</time>
      </trkpt>
      <trkpt lat="39.838152620941401" lon="-3.475557491183281">
        <ele>696.61254880000001</ele>
        <time>2010-12-25T17:13:43Z</time>
      </trkpt>
      <trkpt lat="39.837296241894364" lon="-3.476659040898085">
        <ele>693.72851560000004</ele>
        <time>2010-12-25T17:13:47Z</time>
      </trkpt>
      <trkpt lat="39.836453441530466" lon="-3.478357382118702">
        <ele>689.40258789999996</ele>
        <time>2010-12-25T17:13:52Z</time>
      </trkpt>
      <trkpt lat="39.835016867145896" lon="-3.48135257139802">
        <ele>678.828125</ele>
        <time>2010-12-25T17:14:01Z</time>
      </trkpt>
      <trkpt lat="39.834043392911553" lon="-3.482650760561228">
        <ele>672.57958980000001</ele>
        <time>2010-12-25T17:14:06Z</time>
      </trkpt>
      <trkpt lat="39.833074361085892" lon="-3.483364060521126">
        <ele>667.29223630000001</ele>
        <time>2010-12-25T17:14:10Z</time>
      </trkpt>
      <trkpt lat="39.831955879926682" lon="-3.483767565339804">
        <ele>661.52441409999994</ele>
        <time>2010-12-25T17:14:14Z</time>
      </trkpt>
      <trkpt lat="39.825598374009132" lon="-3.484772220253944">
        <ele>645.66259769999999</ele>
        <time>2010-12-25T17:14:34Z</time>
      </trkpt>
      <trkpt lat="39.824094073846936" lon="-3.484688987955451">
        <ele>642.77880860000005</ele>
        <time>2010-12-25T17:14:39Z</time>
      </trkpt>
      <trkpt lat="39.822981292381883" lon="-3.484186492860317">
        <ele>640.37548830000003</ele>
        <time>2010-12-25T17:14:43Z</time>
      </trkpt>
      <trkpt lat="39.819731041789055" lon="-3.481474360451102">
        <ele>626.43627930000002</ele>
        <time>2010-12-25T17:14:56Z</time>
      </trkpt>
      <trkpt lat="39.818411227315664" lon="-3.480796935036779">
        <ele>619.70703130000004</ele>
        <time>2010-12-25T17:15:01Z</time>
      </trkpt>
      <trkpt lat="39.809477962553501" lon="-3.479032125324011">
        <ele>604.80664060000004</ele>
        <time>2010-12-25T17:15:30Z</time>
      </trkpt>
      <trkpt lat="39.807507293298841" lon="-3.47878972068429">
        <ele>606.24853519999999</ele>
        <time>2010-12-25T17:15:37Z</time>
      </trkpt>
      <trkpt lat="39.805121216922998" lon="-3.478943528607488">
        <ele>617.30371090000006</ele>
        <time>2010-12-25T17:35:04Z</time>
      </trkpt>
      <trkpt lat="39.802043465897441" lon="-3.479203367605805">
        <ele>623.55249019999997</ele>
        <time>2010-12-25T17:35:21Z</time>
      </trkpt>
      <trkpt lat="39.799369387328625" lon="-3.479510480538011">
        <ele>631.72338869999999</ele>
        <time>2010-12-25T17:35:33Z</time>
      </trkpt>
      <trkpt lat="39.788046190515161" lon="-3.483551982790232">
        <ele>669.21508789999996</ele>
        <time>2010-12-25T17:36:19Z</time>
      </trkpt>
      <trkpt lat="39.786322368308902" lon="-3.483640495687723">
        <ele>678.34741210000004</ele>
        <time>2010-12-25T17:36:26Z</time>
      </trkpt>
      <trkpt lat="39.784640120342374" lon="-3.483306225389242">
        <ele>687.96069339999997</ele>
        <time>2010-12-25T17:36:33Z</time>
      </trkpt>
      <trkpt lat="39.783022832125425" lon="-3.482554284855723">
        <ele>695.17041019999999</ele>
        <time>2010-12-25T17:36:40Z</time>
      </trkpt>
      <trkpt lat="39.781468827277422" lon="-3.48139263689518">
        <ele>699.49633789999996</ele>
        <time>2010-12-25T17:36:47Z</time>
      </trkpt>
      <trkpt lat="39.779556076973677" lon="-3.479964695870876">
        <ele>699.49633789999996</ele>
        <time>2010-12-25T17:36:55Z</time>
      </trkpt>
      <trkpt lat="39.777881959453225" lon="-3.479275032877922">
        <ele>698.53491210000004</ele>
        <time>2010-12-25T17:37:01Z</time>
      </trkpt>
      <trkpt lat="39.776372127234936" lon="-3.479071771726012">
        <ele>697.57373050000001</ele>
        <time>2010-12-25T17:37:06Z</time>
      </trkpt>
      <trkpt lat="39.774500364437699" lon="-3.479257263243198">
        <ele>697.09301760000005</ele>
        <time>2010-12-25T17:37:12Z</time>
      </trkpt>
      <trkpt lat="39.764674594625831" lon="-3.480961890891194">
        <ele>695.17041019999999</ele>
        <time>2010-12-25T17:37:45Z</time>
      </trkpt>
      <trkpt lat="39.75990797393024" lon="-3.481840481981635">
        <ele>682.67333980000001</ele>
        <time>2010-12-25T17:38:01Z</time>
      </trkpt>
      <trkpt lat="39.740598499774933" lon="-3.488546339794993">
        <ele>669.21508789999996</ele>
        <time>2010-12-25T17:39:03Z</time>
      </trkpt>
      <trkpt lat="39.715618165209889" lon="-3.495021024718881">
        <ele>654.79516599999999</ele>
        <time>2010-12-25T17:40:21Z</time>
      </trkpt>
      <trkpt lat="39.703103732317686" lon="-3.49819952622056">
        <ele>640.37548830000003</ele>
        <time>2010-12-25T17:40:59Z</time>
      </trkpt>
      <trkpt lat="39.700183728709817" lon="-3.498773099854589">
        <ele>640.37548830000003</ele>
        <time>2010-12-25T17:41:08Z</time>
      </trkpt>
      <trkpt lat="39.698607260361314" lon="-3.498679222539067">
        <ele>639.89477539999996</ele>
        <time>2010-12-25T17:41:13Z</time>
      </trkpt>
      <trkpt lat="39.694470372051001" lon="-3.497291430830956">
        <ele>641.33666989999995</ele>
        <time>2010-12-25T17:41:27Z</time>
      </trkpt>
      <trkpt lat="39.693024158477783" lon="-3.497224459424615">
        <ele>641.81738280000002</ele>
        <time>2010-12-25T17:41:32Z</time>
      </trkpt>
      <trkpt lat="39.69157911837101" lon="-3.497544731944799">
        <ele>641.81738280000002</ele>
        <time>2010-12-25T17:41:37Z</time>
      </trkpt>
      <trkpt lat="39.690187973901629" lon="-3.498275885358453">
        <ele>642.77880860000005</ele>
        <time>2010-12-25T17:41:42Z</time>
      </trkpt>
      <trkpt lat="39.688915936276317" lon="-3.499378692358732">
        <ele>642.77880860000005</ele>
        <time>2010-12-25T17:41:47Z</time>
      </trkpt>
      <trkpt lat="39.685674486681819" lon="-3.502682922407985">
        <ele>645.66259769999999</ele>
        <time>2010-12-25T17:42:00Z</time>
      </trkpt>
      <trkpt lat="39.682545773684978" lon="-3.505636034533382">
        <ele>653.35327150000001</ele>
        <time>2010-12-25T17:42:12Z</time>
      </trkpt>
      <trkpt lat="39.681078437715769" lon="-3.506348328664899">
        <ele>656.23706049999998</ele>
        <time>2010-12-25T17:42:17Z</time>
      </trkpt>
      <trkpt lat="39.669941235333681" lon="-3.510561576113105">
        <ele>699.49633789999996</ele>
        <time>2010-12-25T17:42:55Z</time>
      </trkpt>
      <trkpt lat="39.666952081024647" lon="-3.511585341766477">
        <ele>706.22558590000006</ele>
        <time>2010-12-25T17:43:06Z</time>
      </trkpt>
      <trkpt lat="39.654283672571182" lon="-3.514412641525269">
        <ele>709.59033199999999</ele>
        <time>2010-12-25T17:43:46Z</time>
      </trkpt>
      <trkpt lat="39.60478643886745" lon="-3.52548798546195">
        <ele>708.1484375</ele>
        <time>2010-12-25T17:46:20Z</time>
      </trkpt>
      <trkpt lat="39.603293035179377" lon="-3.52541858330369">
        <ele>711.51293950000002</ele>
        <time>2010-12-25T17:46:25Z</time>
      </trkpt>
      <trkpt lat="39.601893424987793" lon="-3.524907873943448">
        <ele>715.83886719999998</ele>
        <time>2010-12-25T17:46:30Z</time>
      </trkpt>
      <trkpt lat="39.594366475939751" lon="-3.521880079060793">
        <ele>719.20361330000003</ele>
        <time>2010-12-25T17:46:55Z</time>
      </trkpt>
      <trkpt lat="39.57132319919765" lon="-3.514213236048818">
        <ele>703.34179689999996</ele>
        <time>2010-12-25T17:48:09Z</time>
      </trkpt>
      <trkpt lat="39.56950893625617" lon="-3.514194460585713">
        <ele>702.86108400000001</ele>
        <time>2010-12-25T17:48:15Z</time>
      </trkpt>
      <trkpt lat="39.531208584085107" lon="-3.52120952680707">
        <ele>715.35815430000002</ele>
        <time>2010-12-25T17:50:13Z</time>
      </trkpt>
      <trkpt lat="39.508048966526985" lon="-3.525900458917022">
        <ele>702.38037110000005</ele>
        <time>2010-12-25T17:51:22Z</time>
      </trkpt>
      <trkpt lat="39.497762275859714" lon="-3.52774104103446">
        <ele>703.34179689999996</ele>
        <time>2010-12-25T17:51:54Z</time>
      </trkpt>
      <trkpt lat="39.496177760884166" lon="-3.527530487626791">
        <ele>703.34179689999996</ele>
        <time>2010-12-25T17:51:59Z</time>
      </trkpt>
      <trkpt lat="39.491753960028291" lon="-3.526419382542372">
        <ele>702.86108400000001</ele>
        <time>2010-12-25T17:52:13Z</time>
      </trkpt>
      <trkpt lat="39.488509241491556" lon="-3.525993665680289">
        <ele>702.86108400000001</ele>
        <time>2010-12-25T17:52:23Z</time>
      </trkpt>
      <trkpt lat="39.48301088064909" lon="-3.5252402164042">
        <ele>701.41918950000002</ele>
        <time>2010-12-25T17:52:40Z</time>
      </trkpt>
      <trkpt lat="39.481159234419465" lon="-3.524674437940121">
        <ele>700.93847659999994</ele>
        <time>2010-12-25T17:52:46Z</time>
      </trkpt>
      <trkpt lat="39.479064680635929" lon="-3.523504072800279">
        <ele>700.45800780000002</ele>
        <time>2010-12-25T17:52:53Z</time>
      </trkpt>
      <trkpt lat="39.475659029558301" lon="-3.521604984998703">
        <ele>699.015625</ele>
        <time>2010-12-25T17:53:04Z</time>
      </trkpt>
      <trkpt lat="39.470683699473739" lon="-3.518778691068292">
        <ele>691.80590819999998</ele>
        <time>2010-12-25T17:53:20Z</time>
      </trkpt>
      <trkpt lat="39.467924796044827" lon="-3.517404980957508">
        <ele>688.44140630000004</ele>
        <time>2010-12-25T17:53:29Z</time>
      </trkpt>
      <trkpt lat="39.466336090117693" lon="-3.517136676236987">
        <ele>686.51879880000001</ele>
        <time>2010-12-25T17:53:34Z</time>
      </trkpt>
      <trkpt lat="39.464752078056335" lon="-3.517330884933472">
        <ele>684.11547849999999</ele>
        <time>2010-12-25T17:53:39Z</time>
      </trkpt>
      <trkpt lat="39.463264038786292" lon="-3.517959360033274">
        <ele>681.71191409999994</ele>
        <time>2010-12-25T17:53:44Z</time>
      </trkpt>
      <trkpt lat="39.452314926311374" lon="-3.526024259626865">
        <ele>688.44140630000004</ele>
        <time>2010-12-25T17:54:23Z</time>
      </trkpt>
      <trkpt lat="39.450788162648678" lon="-3.526681987568736">
        <ele>691.32519530000002</ele>
        <time>2010-12-25T17:54:28Z</time>
      </trkpt>
      <trkpt lat="39.449173137545586" lon="-3.526896983385086">
        <ele>691.32519530000002</ele>
        <time>2010-12-25T17:54:33Z</time>
      </trkpt>
      <trkpt lat="39.447552664205432" lon="-3.526630187407136">
        <ele>688.92211910000003</ele>
        <time>2010-12-25T17:54:38Z</time>
      </trkpt>
      <trkpt lat="39.445989690721035" lon="-3.525929460301995">
        <ele>685.55737299999998</ele>
        <time>2010-12-25T17:54:43Z</time>
      </trkpt>
      <trkpt lat="39.437258597463369" lon="-3.520908365026116">
        <ele>701.89990230000001</ele>
        <time>2010-12-25T17:55:12Z</time>
      </trkpt>
      <trkpt lat="39.434403134509921" lon="-3.519470533356071">
        <ele>693.72851560000004</ele>
        <time>2010-12-25T17:55:21Z</time>
      </trkpt>
      <trkpt lat="39.367252858355641" lon="-3.492210824042559">
        <ele>710.55151369999999</ele>
        <time>2010-12-25T17:58:50Z</time>
      </trkpt>
      <trkpt lat="39.364255489781499" lon="-3.491142466664314">
        <ele>710.55151369999999</ele>
        <time>2010-12-25T17:59:00Z</time>
      </trkpt>
      <trkpt lat="39.342938465997577" lon="-3.485995726659894">
        <ele>691.80590819999998</ele>
        <time>2010-12-25T18:00:06Z</time>
      </trkpt>
      <trkpt lat="39.337541358545423" lon="-3.48500213585794">
        <ele>690.36401369999999</ele>
        <time>2010-12-25T18:00:23Z</time>
      </trkpt>
      <trkpt lat="39.336146274581552" lon="-3.484346671029925">
        <ele>690.36401369999999</ele>
        <time>2010-12-25T18:00:28Z</time>
      </trkpt>
      <trkpt lat="39.334854539483786" lon="-3.483277894556522">
        <ele>688.92211910000003</ele>
        <time>2010-12-25T18:00:33Z</time>
      </trkpt>
      <trkpt lat="39.33371476829052" lon="-3.48184802569449">
        <ele>687.47998050000001</ele>
        <time>2010-12-25T18:00:38Z</time>
      </trkpt>
      <trkpt lat="39.332309458404779" lon="-3.479640567675233">
        <ele>685.55737299999998</ele>
        <time>2010-12-25T18:00:45Z</time>
      </trkpt>
      <trkpt lat="39.331352161243558" lon="-3.478747392073274">
        <ele>686.51879880000001</ele>
        <time>2010-12-25T18:00:49Z</time>
      </trkpt>
      <trkpt lat="39.330299478024244" lon="-3.478246992453933">
        <ele>687.96069339999997</ele>
        <time>2010-12-25T18:00:53Z</time>
      </trkpt>
      <trkpt lat="39.329168759286404" lon="-3.478124365210533">
        <ele>685.55737299999998</ele>
        <time>2010-12-25T18:00:57Z</time>
      </trkpt>
      <trkpt lat="39.326226375997066" lon="-3.478422677144408">
        <ele>678.828125</ele>
        <time>2010-12-25T18:01:07Z</time>
      </trkpt>
      <trkpt lat="39.324780162423849" lon="-3.477963265031576">
        <ele>677.86669919999997</ele>
        <time>2010-12-25T18:01:12Z</time>
      </trkpt>
      <trkpt lat="39.323701495304704" lon="-3.477216940373182">
        <ele>676.42480469999998</ele>
        <time>2010-12-25T18:01:16Z</time>
      </trkpt>
      <trkpt lat="39.322188561782241" lon="-3.475725129246712">
        <ele>674.50219730000003</ele>
        <time>2010-12-25T18:01:22Z</time>
      </trkpt>
      <trkpt lat="39.320510420948267" lon="-3.474390478804708">
        <ele>672.57958980000001</ele>
        <time>2010-12-25T18:01:28Z</time>
      </trkpt>
      <trkpt lat="39.319208292290568" lon="-3.4731475263834">
        <ele>670.65698239999995</ele>
        <time>2010-12-25T18:01:33Z</time>
      </trkpt>
      <trkpt lat="39.317565523087978" lon="-3.470501862466335">
        <ele>667.77270510000005</ele>
        <time>2010-12-25T18:01:42Z</time>
      </trkpt>
      <trkpt lat="39.31656246073544" lon="-3.46948086284101">
        <ele>666.81152340000006</ele>
        <time>2010-12-25T18:01:47Z</time>
      </trkpt>
      <trkpt lat="39.31555487215519" lon="-3.468931932002306">
        <ele>665.85034180000002</ele>
        <time>2010-12-25T18:01:51Z</time>
      </trkpt>
      <trkpt lat="39.314401941373944" lon="-3.468745686113834">
        <ele>664.88891599999999</ele>
        <time>2010-12-25T18:01:55Z</time>
      </trkpt>
      <trkpt lat="39.313230318948627" lon="-3.468949533998966">
        <ele>663.92749019999997</ele>
        <time>2010-12-25T18:01:59Z</time>
      </trkpt>
      <trkpt lat="39.311811095103621" lon="-3.469621175900102">
        <ele>664.88891599999999</ele>
        <time>2010-12-25T18:02:04Z</time>
      </trkpt>
      <trkpt lat="39.310649279505014" lon="-3.469946393743157">
        <ele>666.33081049999998</ele>
        <time>2010-12-25T18:02:08Z</time>
      </trkpt>
      <trkpt lat="39.309486960992217" lon="-3.46982141956687">
        <ele>666.81152340000006</ele>
        <time>2010-12-25T18:02:12Z</time>
      </trkpt>
      <trkpt lat="39.308356661349535" lon="-3.469294784590602">
        <ele>666.81152340000006</ele>
        <time>2010-12-25T18:02:16Z</time>
      </trkpt>
      <trkpt lat="39.289701981469989" lon="-3.45685176551342">
        <ele>653.35327150000001</ele>
        <time>2010-12-25T18:03:19Z</time>
      </trkpt>
      <trkpt lat="39.264838490635157" lon="-3.440879294648767">
        <ele>639.89477539999996</ele>
        <time>2010-12-25T18:04:41Z</time>
      </trkpt>
      <trkpt lat="39.25199406221509" lon="-3.432715488597751">
        <ele>623.55249019999997</ele>
        <time>2010-12-25T18:05:24Z</time>
      </trkpt>
      <trkpt lat="39.249028461053967" lon="-3.430614732205868">
        <ele>624.03295900000001</ele>
        <time>2010-12-25T18:05:34Z</time>
      </trkpt>
      <trkpt lat="39.247791459783912" lon="-3.429234735667706">
        <ele>624.03295900000001</ele>
        <time>2010-12-25T18:05:39Z</time>
      </trkpt>
      <trkpt lat="39.246805161237717" lon="-3.427593726664782">
        <ele>624.03295900000001</ele>
        <time>2010-12-25T18:05:44Z</time>
      </trkpt>
      <trkpt lat="39.246100494638085" lon="-3.42574954032898">
        <ele>624.03295900000001</ele>
        <time>2010-12-25T18:05:49Z</time>
      </trkpt>
      <trkpt lat="39.245670083910227" lon="-3.423766633495688">
        <ele>624.03295900000001</ele>
        <time>2010-12-25T18:05:54Z</time>
      </trkpt>
      <trkpt lat="39.245044961571693" lon="-3.419733680784702">
        <ele>622.59106450000002</ele>
        <time>2010-12-25T18:06:04Z</time>
      </trkpt>
      <trkpt lat="39.24435923807323" lon="-3.417428825050592">
        <ele>622.11035159999994</ele>
        <time>2010-12-25T18:06:10Z</time>
      </trkpt>
      <trkpt lat="39.24348852597177" lon="-3.415719335898757">
        <ele>623.55249019999997</ele>
        <time>2010-12-25T18:06:15Z</time>
      </trkpt>
      <trkpt lat="39.24236468039453" lon="-3.414284186437726">
        <ele>625.47485349999999</ele>
        <time>2010-12-25T18:06:20Z</time>
      </trkpt>
      <trkpt lat="39.24103463999927" lon="-3.413157491013408">
        <ele>625.95556639999995</ele>
        <time>2010-12-25T18:06:25Z</time>
      </trkpt>
      <trkpt lat="39.239555737003684" lon="-3.412402532994747">
        <ele>627.39770510000005</ele>
        <time>2010-12-25T18:06:30Z</time>
      </trkpt>
      <trkpt lat="39.237707024440169" lon="-3.411962566897273">
        <ele>631.24291989999995</ele>
        <time>2010-12-25T18:06:36Z</time>
      </trkpt>
      <trkpt lat="39.229792160913348" lon="-3.411033935844898">
        <ele>639.4140625</ele>
        <time>2010-12-25T18:07:01Z</time>
      </trkpt>
      <trkpt lat="39.227949483320117" lon="-3.411133177578449">
        <ele>640.85595699999999</ele>
        <time>2010-12-25T18:07:07Z</time>
      </trkpt>
      <trkpt lat="39.226172184571624" lon="-3.411705158650875">
        <ele>641.81738280000002</ele>
        <time>2010-12-25T18:07:13Z</time>
      </trkpt>
      <trkpt lat="39.223600616678596" lon="-3.413010220974684">
        <ele>643.25927730000001</ele>
        <time>2010-12-25T18:07:22Z</time>
      </trkpt>
      <trkpt lat="39.221807392314076" lon="-3.413673816248775">
        <ele>644.22070310000004</ele>
        <time>2010-12-25T18:07:28Z</time>
      </trkpt>
      <trkpt lat="39.220247939229012" lon="-3.41385486535728">
        <ele>644.70117189999996</ele>
        <time>2010-12-25T18:07:33Z</time>
      </trkpt>
      <trkpt lat="39.218707261607051" lon="-3.413673564791679">
        <ele>643.73999019999997</ele>
        <time>2010-12-25T18:07:38Z</time>
      </trkpt>
      <trkpt lat="39.216906828805804" lon="-3.413053723052144">
        <ele>643.73999019999997</ele>
        <time>2010-12-25T18:07:44Z</time>
      </trkpt>
      <trkpt lat="39.197356123477221" lon="-3.404616080224514">
        <ele>649.5078125</ele>
        <time>2010-12-25T18:08:48Z</time>
      </trkpt>
      <trkpt lat="39.19335619546473" lon="-3.403068780899048">
        <ele>649.02709960000004</ele>
        <time>2010-12-25T18:09:01Z</time>
      </trkpt>
      <trkpt lat="39.129579719156027" lon="-3.379114558920264">
        <ele>651.43041989999995</ele>
        <time>2010-12-25T18:12:26Z</time>
      </trkpt>
      <trkpt lat="39.126319661736488" lon="-3.378157177940011">
        <ele>651.43041989999995</ele>
        <time>2010-12-25T18:12:36Z</time>
      </trkpt>
      <trkpt lat="39.119563428685069" lon="-3.3777432795614">
        <ele>653.83398439999996</ele>
        <time>2010-12-25T18:12:56Z</time>
      </trkpt>
      <trkpt lat="39.037849176675081" lon="-3.374438881874085">
        <ele>658.64038089999997</ele>
        <time>2010-12-25T18:16:59Z</time>
      </trkpt>
      <trkpt lat="39.028106722980738" lon="-3.374073682352901">
        <ele>657.67919919999997</ele>
        <time>2010-12-25T18:17:28Z</time>
      </trkpt>
      <trkpt lat="39.018333926796913" lon="-3.37370621971786">
        <ele>649.02709960000004</ele>
        <time>2010-12-25T18:17:57Z</time>
      </trkpt>
      <trkpt lat="39.015711564570665" lon="-3.373822560533881">
        <ele>645.66259769999999</ele>
        <time>2010-12-25T18:18:05Z</time>
      </trkpt>
      <trkpt lat="39.01417164131999" lon="-3.374446760863066">
        <ele>644.22070310000004</ele>
        <time>2010-12-25T18:18:10Z</time>
      </trkpt>
      <trkpt lat="39.012752836570144" lon="-3.375455271452665">
        <ele>643.25927730000001</ele>
        <time>2010-12-25T18:18:15Z</time>
      </trkpt>
      <trkpt lat="39.002275289967656" lon="-3.386980472132564">
        <ele>660.08227539999996</ele>
        <time>2010-12-25T18:18:58Z</time>
      </trkpt>
      <trkpt lat="39.000861765816808" lon="-3.388324761763215">
        <ele>659.60180660000003</ele>
        <time>2010-12-25T18:19:04Z</time>
      </trkpt>
      <trkpt lat="38.999232072383165" lon="-3.389327991753817">
        <ele>654.31469730000003</ele>
        <time>2010-12-25T18:19:10Z</time>
      </trkpt>
      <trkpt lat="38.997731460258365" lon="-3.389826379716396">
        <ele>649.02709960000004</ele>
        <time>2010-12-25T18:19:15Z</time>
      </trkpt>
      <trkpt lat="38.995869923382998" lon="-3.389982366934419">
        <ele>646.62402340000006</ele>
        <time>2010-12-25T18:19:21Z</time>
      </trkpt>
      <trkpt lat="38.994342740625143" lon="-3.389739794656634">
        <ele>644.70117189999996</ele>
        <time>2010-12-25T18:19:26Z</time>
      </trkpt>
      <trkpt lat="38.992611961439252" lon="-3.389035128057003">
        <ele>641.33666989999995</ele>
        <time>2010-12-25T18:19:32Z</time>
      </trkpt>
      <trkpt lat="38.991001378744841" lon="-3.387897284701467">
        <ele>639.89477539999996</ele>
        <time>2010-12-25T18:19:38Z</time>
      </trkpt>
      <trkpt lat="38.989342767745256" lon="-3.38619357906282">
        <ele>645.18188480000003</ele>
        <time>2010-12-25T18:19:45Z</time>
      </trkpt>
      <trkpt lat="38.986746473237872" lon="-3.383474741131067">
        <ele>646.62402340000006</ele>
        <time>2010-12-25T18:19:56Z</time>
      </trkpt>
      <trkpt lat="38.985221637412906" lon="-3.38232952170074">
        <ele>649.02709960000004</ele>
        <time>2010-12-25T18:20:02Z</time>
      </trkpt>
      <trkpt lat="38.983460934832692" lon="-3.381632482632995">
        <ele>650.94970699999999</ele>
        <time>2010-12-25T18:20:08Z</time>
      </trkpt>
      <trkpt lat="38.981890166178346" lon="-3.381459480151534">
        <ele>653.35327150000001</ele>
        <time>2010-12-25T18:20:13Z</time>
      </trkpt>
      <trkpt lat="38.979682959616184" lon="-3.381674978882074">
        <ele>658.15991210000004</ele>
        <time>2010-12-25T18:20:20Z</time>
      </trkpt>
      <trkpt lat="38.962008124217391" lon="-3.383735921233892">
        <ele>682.67333980000001</ele>
        <time>2010-12-25T18:21:14Z</time>
      </trkpt>
      <trkpt lat="38.956934558227658" lon="-3.384346039965749">
        <ele>685.07690430000002</ele>
        <time>2010-12-25T18:21:29Z</time>
      </trkpt>
      <trkpt lat="38.887391667813063" lon="-3.392302477732301">
        <ele>683.63452150000001</ele>
        <time>2010-12-25T18:25:07Z</time>
      </trkpt>
      <trkpt lat="38.807774735614657" lon="-3.39647532440722">
        <ele>692.76733400000001</ele>
        <time>2010-12-25T18:29:05Z</time>
      </trkpt>
      <trkpt lat="38.805881766602397" lon="-3.39630626142025">
        <ele>693.72851560000004</ele>
        <time>2010-12-25T18:29:11Z</time>
      </trkpt>
      <trkpt lat="38.792798286303878" lon="-3.3933109883219">
        <ele>711.51293950000002</ele>
        <time>2010-12-25T18:29:54Z</time>
      </trkpt>
      <trkpt lat="38.786760382354259" lon="-3.392164679244161">
        <ele>697.09301760000005</ele>
        <time>2010-12-25T18:30:13Z</time>
      </trkpt>
      <trkpt lat="38.785560680553317" lon="-3.392306584864855">
        <ele>693.24780269999997</ele>
        <time>2010-12-25T18:30:17Z</time>
      </trkpt>
      <trkpt lat="38.784445635974407" lon="-3.392810337245464">
        <ele>689.88330080000003</ele>
        <time>2010-12-25T18:30:21Z</time>
      </trkpt>
      <trkpt lat="38.782888781279325" lon="-3.394022025167942">
        <ele>687.96069339999997</ele>
        <time>2010-12-25T18:30:27Z</time>
      </trkpt>
      <trkpt lat="38.773960880935192" lon="-3.401494659483433">
        <ele>702.86108400000001</ele>
        <time>2010-12-25T18:31:02Z</time>
      </trkpt>
      <trkpt lat="38.766191862523556" lon="-3.407918466255069">
        <ele>700.45800780000002</ele>
        <time>2010-12-25T18:31:30Z</time>
      </trkpt>
      <trkpt lat="38.758100224658847" lon="-3.41455265879631">
        <ele>693.72851560000004</ele>
        <time>2010-12-25T18:31:58Z</time>
      </trkpt>
      <trkpt lat="38.753785137087107" lon="-3.418045062571764">
        <ele>691.32519530000002</ele>
        <time>2010-12-25T18:32:13Z</time>
      </trkpt>
      <trkpt lat="38.751180879771709" lon="-3.419954460114241">
        <ele>690.84448239999995</ele>
        <time>2010-12-25T18:32:22Z</time>
      </trkpt>
      <trkpt lat="38.749912362545729" lon="-3.420390821993351">
        <ele>688.44140630000004</ele>
        <time>2010-12-25T18:32:26Z</time>
      </trkpt>
      <trkpt lat="38.748297672718763" lon="-3.4204469807446">
        <ele>688.92211910000003</ele>
        <time>2010-12-25T18:32:31Z</time>
      </trkpt>
      <trkpt lat="38.729767883196473" lon="-3.41733293607831">
        <ele>687.47998050000001</ele>
        <time>2010-12-25T18:33:28Z</time>
      </trkpt>
      <trkpt lat="38.727886397391558" lon="-3.417197987437248">
        <ele>688.44140630000004</ele>
        <time>2010-12-25T18:33:34Z</time>
      </trkpt>
      <trkpt lat="38.71139919385314" lon="-3.418439766392112">
        <ele>691.80590819999998</ele>
        <time>2010-12-25T18:34:24Z</time>
      </trkpt>
      <trkpt lat="38.709607562050223" lon="-3.419014178216457">
        <ele>685.07690430000002</ele>
        <time>2010-12-25T18:34:30Z</time>
      </trkpt>
      <trkpt lat="38.708195965737104" lon="-3.41986795887351">
        <ele>681.23144530000002</ele>
        <time>2010-12-25T18:34:35Z</time>
      </trkpt>
      <trkpt lat="38.704628879204392" lon="-3.42258763499558">
        <ele>687.96069339999997</ele>
        <time>2010-12-25T18:34:48Z</time>
      </trkpt>
      <trkpt lat="38.69898609817028" lon="-3.427110929042101">
        <ele>692.76733400000001</ele>
        <time>2010-12-25T18:35:08Z</time>
      </trkpt>
      <trkpt lat="38.68786096572876" lon="-3.435542369261384">
        <ele>711.51293950000002</ele>
        <time>2010-12-25T18:35:47Z</time>
      </trkpt>
      <trkpt lat="38.675396991893649" lon="-3.444957593455911">
        <ele>729.77783199999999</ele>
        <time>2010-12-25T18:36:31Z</time>
      </trkpt>
      <trkpt lat="38.670861041173339" lon="-3.448385624215007">
        <ele>734.10400389999995</ele>
        <time>2010-12-25T18:36:47Z</time>
      </trkpt>
      <trkpt lat="38.659585537388921" lon="-3.456882778555155">
        <ele>736.02661130000001</ele>
        <time>2010-12-25T18:37:29Z</time>
      </trkpt>
      <trkpt lat="38.65493182092905" lon="-3.460428323596716">
        <ele>739.87182619999999</ele>
        <time>2010-12-25T18:37:46Z</time>
      </trkpt>
      <trkpt lat="38.653729939833283" lon="-3.461703378707171">
        <ele>736.98779300000001</ele>
        <time>2010-12-25T18:37:51Z</time>
      </trkpt>
      <trkpt lat="38.652735594660044" lon="-3.463313039392233">
        <ele>732.18139650000001</ele>
        <time>2010-12-25T18:37:56Z</time>
      </trkpt>
      <trkpt lat="38.648119177669287" lon="-3.475620858371258">
        <ele>698.05444339999997</ele>
        <time>2010-12-25T18:38:28Z</time>
      </trkpt>
      <trkpt lat="38.647371679544449" lon="-3.476800778880715">
        <ele>699.015625</ele>
        <time>2010-12-25T18:38:32Z</time>
      </trkpt>
      <trkpt lat="38.646439863368869" lon="-3.477706359699369">
        <ele>700.45800780000002</ele>
        <time>2010-12-25T18:38:36Z</time>
      </trkpt>
      <trkpt lat="38.645380139350891" lon="-3.478301223367453">
        <ele>699.97705080000003</ele>
        <time>2010-12-25T18:38:40Z</time>
      </trkpt>
      <trkpt lat="38.643968040123582" lon="-3.47860406152904">
        <ele>699.49633789999996</ele>
        <time>2010-12-25T18:38:45Z</time>
      </trkpt>
      <trkpt lat="38.642550325021148" lon="-3.478395435959101">
        <ele>699.49633789999996</ele>
        <time>2010-12-25T18:38:50Z</time>
      </trkpt>
      <trkpt lat="38.641232438385487" lon="-3.477686997503042">
        <ele>698.53491210000004</ele>
        <time>2010-12-25T18:38:55Z</time>
      </trkpt>
      <trkpt lat="38.640086464583874" lon="-3.476565163582563">
        <ele>698.53491210000004</ele>
        <time>2010-12-25T18:39:00Z</time>
      </trkpt>
      <trkpt lat="38.630450125783682" lon="-3.466209741309285">
        <ele>702.86108400000001</ele>
        <time>2010-12-25T18:39:41Z</time>
      </trkpt>
      <trkpt lat="38.628964768722653" lon="-3.464939463883638">
        <ele>705.26440430000002</ele>
        <time>2010-12-25T18:39:47Z</time>
      </trkpt>
      <trkpt lat="38.627552334219217" lon="-3.464286765083671">
        <ele>708.62890630000004</ele>
        <time>2010-12-25T18:39:52Z</time>
      </trkpt>
      <trkpt lat="38.62570445984602" lon="-3.46401309594512">
        <ele>710.55151369999999</ele>
        <time>2010-12-25T18:39:58Z</time>
      </trkpt>
      <trkpt lat="38.618784779682755" lon="-3.463487634435296">
        <ele>716.31958010000005</ele>
        <time>2010-12-25T18:40:20Z</time>
      </trkpt>
      <trkpt lat="38.617602260783315" lon="-3.463722663000226">
        <ele>715.35815430000002</ele>
        <time>2010-12-25T18:40:24Z</time>
      </trkpt>
      <trkpt lat="38.61648696474731" lon="-3.464314928278327">
        <ele>715.83886719999998</ele>
        <time>2010-12-25T18:40:28Z</time>
      </trkpt>
      <trkpt lat="38.614113964140415" lon="-3.465936239808798">
        <ele>726.41333010000005</ele>
        <time>2010-12-25T18:40:37Z</time>
      </trkpt>
      <trkpt lat="38.61300059594214" lon="-3.466238658875227">
        <ele>732.18139650000001</ele>
        <time>2010-12-25T18:40:41Z</time>
      </trkpt>
      <trkpt lat="38.611602075397968" lon="-3.466113517060876">
        <ele>742.27514650000001</ele>
        <time>2010-12-25T18:40:46Z</time>
      </trkpt>
      <trkpt lat="38.608607891947031" lon="-3.465643459931016">
        <ele>747.56225589999997</ele>
        <time>2010-12-25T18:40:57Z</time>
      </trkpt>
      <trkpt lat="38.60735303722322" lon="-3.465915871784091">
        <ele>746.12036130000001</ele>
        <time>2010-12-25T18:41:02Z</time>
      </trkpt>
      <trkpt lat="38.60440269112587" lon="-3.467857539653778">
        <ele>742.27514650000001</ele>
        <time>2010-12-25T18:41:14Z</time>
      </trkpt>
      <trkpt lat="38.592265695333481" lon="-3.472326099872589">
        <ele>743.71704099999999</ele>
        <time>2010-12-25T18:42:00Z</time>
      </trkpt>
      <trkpt lat="38.591111339628696" lon="-3.472391562536359">
        <ele>745.15893549999998</ele>
        <time>2010-12-25T18:42:07Z</time>
      </trkpt>
      <trkpt lat="38.590073492377996" lon="-3.473035292699933">
        <ele>773.03735349999999</ele>
        <time>2010-12-25T18:42:34Z</time>
      </trkpt>
      <trkpt lat="38.59013082459569" lon="-3.47283429466188">
        <ele>785.05395510000005</ele>
        <time>2010-12-25T18:43:21Z</time>
      </trkpt>
      <trkpt lat="38.590279771015048" lon="-3.472807724028826">
        <ele>787.93774410000003</ele>
        <time>2010-12-25T18:44:33Z</time>
      </trkpt>
      <trkpt lat="38.589846761897206" lon="-3.472747625783086">
        <ele>771.11474610000005</ele>
        <time>2010-12-25T18:47:27Z</time>
      </trkpt>
      <trkpt lat="38.58872308395803" lon="-3.473069239407778">
        <ele>771.59521480000001</ele>
        <time>2010-12-25T18:47:39Z</time>
      </trkpt>
      <trkpt lat="38.587971897795796" lon="-3.473834339529276">
        <ele>773.03735349999999</ele>
        <time>2010-12-25T18:47:47Z</time>
      </trkpt>
      <trkpt lat="38.585779862478375" lon="-3.477925462648273">
        <ele>786.97631839999997</ele>
        <time>2010-12-25T18:48:12Z</time>
      </trkpt>
      <trkpt lat="38.584243627265096" lon="-3.480916293337941">
        <ele>793.70556639999995</ele>
        <time>2010-12-25T18:48:27Z</time>
      </trkpt>
      <trkpt lat="38.583766529336572" lon="-3.481953721493483">
        <ele>795.14746090000006</ele>
        <time>2010-12-25T18:48:33Z</time>
      </trkpt>
      <trkpt lat="38.583050966262817" lon="-3.482767939567566">
        <ele>799.47363280000002</ele>
        <time>2010-12-25T18:48:39Z</time>
      </trkpt>
      <trkpt lat="38.582277987152338" lon="-3.483349559828639">
        <ele>805.24145510000005</ele>
        <time>2010-12-25T18:48:47Z</time>
      </trkpt>
      <trkpt lat="38.582235826179385" lon="-3.483627839013934">
        <ele>805.72216800000001</ele>
        <time>2010-12-25T18:48:52Z</time>
      </trkpt>
      <trkpt lat="38.582231635227799" lon="-3.484047940000892">
        <ele>804.28027340000006</ele>
        <time>2010-12-25T18:48:57Z</time>
      </trkpt>
      <trkpt lat="38.581396881490946" lon="-3.484082724899054">
        <ele>806.20263669999997</ele>
        <time>2010-12-25T18:49:09Z</time>
      </trkpt>
      <trkpt lat="38.580132890492678" lon="-3.483954230323434">
        <ele>800.91552730000001</ele>
        <time>2010-12-25T18:49:18Z</time>
      </trkpt>
      <trkpt lat="38.5796101950109" lon="-3.483540834859014">
        <ele>799.95434569999998</ele>
        <time>2010-12-25T18:49:23Z</time>
      </trkpt>
      <trkpt lat="38.579232841730118" lon="-3.483201870694757">
        <ele>798.03173830000003</ele>
        <time>2010-12-25T18:49:28Z</time>
      </trkpt>
      <trkpt lat="38.577819988131523" lon="-3.483229363337159">
        <ele>784.57324219999998</ele>
        <time>2010-12-25T18:49:37Z</time>
      </trkpt>
      <trkpt lat="38.572665117681026" lon="-3.484438620507717">
        <ele>757.65625</ele>
        <time>2010-12-25T18:49:57Z</time>
      </trkpt>
      <trkpt lat="38.568854788318276" lon="-3.485766733065248">
        <ele>756.69482419999997</ele>
        <time>2010-12-25T18:50:10Z</time>
      </trkpt>
      <trkpt lat="38.567250994965434" lon="-3.486755294725299">
        <ele>760.54003909999994</ele>
        <time>2010-12-25T18:50:16Z</time>
      </trkpt>
      <trkpt lat="38.564372817054391" lon="-3.488623537123203">
        <ele>760.05932619999999</ele>
        <time>2010-12-25T18:50:27Z</time>
      </trkpt>
      <trkpt lat="38.563067922368646" lon="-3.489102562889457">
        <ele>761.02075200000002</ele>
        <time>2010-12-25T18:50:32Z</time>
      </trkpt>
      <trkpt lat="38.545520827174187" lon="-3.492055758833885">
        <ele>776.40185550000001</ele>
        <time>2010-12-25T18:51:28Z</time>
      </trkpt>
      <trkpt lat="38.534331237897277" lon="-3.493940681219101">
        <ele>777.36328130000004</ele>
        <time>2010-12-25T18:52:01Z</time>
      </trkpt>
      <trkpt lat="38.530156631022692" lon="-3.494713073596358">
        <ele>784.57324219999998</ele>
        <time>2010-12-25T18:52:15Z</time>
      </trkpt>
      <trkpt lat="38.528569266200066" lon="-3.494894793257117">
        <ele>787.93774410000003</ele>
        <time>2010-12-25T18:52:22Z</time>
      </trkpt>
      <trkpt lat="38.5276401322335" lon="-3.494625817984343">
        <ele>788.41845699999999</ele>
        <time>2010-12-25T18:52:26Z</time>
      </trkpt>
      <trkpt lat="38.524579899385571" lon="-3.49267166107893">
        <ele>792.26367189999996</ele>
        <time>2010-12-25T18:52:39Z</time>
      </trkpt>
      <trkpt lat="38.522087540477514" lon="-3.491720063611865">
        <ele>795.14746090000006</ele>
        <time>2010-12-25T18:52:48Z</time>
      </trkpt>
      <trkpt lat="38.519747229292989" lon="-3.49108706228435">
        <ele>797.55102539999996</ele>
        <time>2010-12-25T18:52:56Z</time>
      </trkpt>
      <trkpt lat="38.517734985798597" lon="-3.490992682054639">
        <ele>802.35742189999996</ele>
        <time>2010-12-25T18:53:03Z</time>
      </trkpt>
      <trkpt lat="38.516033040359616" lon="-3.491301974281669">
        <ele>807.64477539999996</ele>
        <time>2010-12-25T18:53:09Z</time>
      </trkpt>
      <trkpt lat="38.514115428552032" lon="-3.492105463519692">
        <ele>813.89331049999998</ele>
        <time>2010-12-25T18:53:16Z</time>
      </trkpt>
      <trkpt lat="38.512305524200201" lon="-3.493291921913624">
        <ele>818.69995119999999</ele>
        <time>2010-12-25T18:53:23Z</time>
      </trkpt>
      <trkpt lat="38.510063029825687" lon="-3.495214898139238">
        <ele>817.73852539999996</ele>
        <time>2010-12-25T18:53:32Z</time>
      </trkpt>
      <trkpt lat="38.506915541365743" lon="-3.497960222885013">
        <ele>809.08666989999995</ele>
        <time>2010-12-25T18:53:44Z</time>
      </trkpt>
      <trkpt lat="38.504695175215602" lon="-3.499586395919323">
        <ele>799.95434569999998</ele>
        <time>2010-12-25T18:53:52Z</time>
      </trkpt>
      <trkpt lat="38.49793148227036" lon="-3.503664862364531">
        <ele>780.72802730000001</ele>
        <time>2010-12-25T18:54:15Z</time>
      </trkpt>
      <trkpt lat="38.49674703553319" lon="-3.503997540101409">
        <ele>780.72802730000001</ele>
        <time>2010-12-25T18:54:19Z</time>
      </trkpt>
      <trkpt lat="38.495549764484167" lon="-3.503902237862349">
        <ele>779.76635739999995</ele>
        <time>2010-12-25T18:54:23Z</time>
      </trkpt>
      <trkpt lat="38.48639152944088" lon="-3.500963961705566">
        <ele>772.55664060000004</ele>
        <time>2010-12-25T18:54:54Z</time>
      </trkpt>
      <trkpt lat="38.484926959499717" lon="-3.50095734000206">
        <ele>773.03735349999999</ele>
        <time>2010-12-25T18:54:59Z</time>
      </trkpt>
      <trkpt lat="38.483560038730502" lon="-3.501396887004376">
        <ele>771.11474610000005</ele>
        <time>2010-12-25T18:55:04Z</time>
      </trkpt>
      <trkpt lat="38.47930102609098" lon="-3.503772066906095">
        <ele>763.90454099999999</ele>
        <time>2010-12-25T18:55:26Z</time>
      </trkpt>
      <trkpt lat="38.477847436442971" lon="-3.504157131537795">
        <ele>770.15332030000002</ele>
        <time>2010-12-25T18:55:32Z</time>
      </trkpt>
      <trkpt lat="38.476343639194965" lon="-3.50413927808404">
        <ele>777.36328130000004</ele>
        <time>2010-12-25T18:55:38Z</time>
      </trkpt>
      <trkpt lat="38.475053831934929" lon="-3.503998378291726">
        <ele>781.20874019999997</ele>
        <time>2010-12-25T18:55:44Z</time>
      </trkpt>
      <trkpt lat="38.473959993571043" lon="-3.503795536234975">
        <ele>781.20874019999997</ele>
        <time>2010-12-25T18:55:50Z</time>
      </trkpt>
      <trkpt lat="38.467759061604738" lon="-3.502051178365946">
        <ele>769.19213869999999</ele>
        <time>2010-12-25T18:56:20Z</time>
      </trkpt>
      <trkpt lat="38.464100863784552" lon="-3.502213535830379">
        <ele>765.34692380000001</ele>
        <time>2010-12-25T18:56:35Z</time>
      </trkpt>
      <trkpt lat="38.462896216660738" lon="-3.501840122044087">
        <ele>761.98217769999997</ele>
        <time>2010-12-25T18:56:40Z</time>
      </trkpt>
      <trkpt lat="38.45494681969285" lon="-3.49823959171772">
        <ele>730.25854489999995</ele>
        <time>2010-12-25T18:57:11Z</time>
      </trkpt>
      <trkpt lat="38.452734583988786" lon="-3.497380362823606">
        <ele>717.76147460000004</ele>
        <time>2010-12-25T18:57:18Z</time>
      </trkpt>
      <trkpt lat="38.451073626056314" lon="-3.497086996212602">
        <ele>708.1484375</ele>
        <time>2010-12-25T18:57:23Z</time>
      </trkpt>
      <trkpt lat="38.445485662668943" lon="-3.497112561017275">
        <ele>696.13183590000006</ele>
        <time>2010-12-25T18:57:40Z</time>
      </trkpt>
      <trkpt lat="38.441797541454434" lon="-3.496292559430003">
        <ele>691.32519530000002</ele>
        <time>2010-12-25T18:57:52Z</time>
      </trkpt>
      <trkpt lat="38.438739236444235" lon="-3.496907539665699">
        <ele>689.88330080000003</ele>
        <time>2010-12-25T18:58:02Z</time>
      </trkpt>
      <trkpt lat="38.434356758370996" lon="-3.496569916605949">
        <ele>699.015625</ele>
        <time>2010-12-25T18:58:17Z</time>
      </trkpt>
      <trkpt lat="38.427731534466147" lon="-3.498410498723388">
        <ele>702.38037110000005</ele>
        <time>2010-12-25T18:58:42Z</time>
      </trkpt>
      <trkpt lat="38.426050459966063" lon="-3.498693723231554">
        <ele>696.61254880000001</ele>
        <time>2010-12-25T18:58:49Z</time>
      </trkpt>
      <trkpt lat="38.423673184588552" lon="-3.498748624697328">
        <ele>685.07690430000002</ele>
        <time>2010-12-25T18:58:58Z</time>
      </trkpt>
      <trkpt lat="38.42265042476356" lon="-3.499142490327358">
        <ele>679.78930660000003</ele>
        <time>2010-12-25T18:59:02Z</time>
      </trkpt>
      <trkpt lat="38.421462373808026" lon="-3.500032732263207">
        <ele>675.46337889999995</ele>
        <time>2010-12-25T18:59:07Z</time>
      </trkpt>
      <trkpt lat="38.42019553296268" lon="-3.500692388042808">
        <ele>673.54101560000004</ele>
        <time>2010-12-25T18:59:12Z</time>
      </trkpt>
      <trkpt lat="38.419061377644539" lon="-3.500814093276858">
        <ele>673.54101560000004</ele>
        <time>2010-12-25T18:59:16Z</time>
      </trkpt>
      <trkpt lat="38.417901489883661" lon="-3.500519888475537">
        <ele>674.02148439999996</ele>
        <time>2010-12-25T18:59:20Z</time>
      </trkpt>
      <trkpt lat="38.414648892357945" lon="-3.498623818159103">
        <ele>680.27001949999999</ele>
        <time>2010-12-25T18:59:32Z</time>
      </trkpt>
      <trkpt lat="38.413182562217116" lon="-3.49836272187531">
        <ele>680.27001949999999</ele>
        <time>2010-12-25T18:59:37Z</time>
      </trkpt>
      <trkpt lat="38.411728721112013" lon="-3.498570593073964">
        <ele>677.86669919999997</ele>
        <time>2010-12-25T18:59:42Z</time>
      </trkpt>
      <trkpt lat="38.408271269872785" lon="-3.499748669564724">
        <ele>671.61816409999994</ele>
        <time>2010-12-25T18:59:55Z</time>
      </trkpt>
      <trkpt lat="38.406603522598743" lon="-3.500003563240171">
        <ele>672.09887700000002</ele>
        <time>2010-12-25T19:00:03Z</time>
      </trkpt>
      <trkpt lat="38.405827358365059" lon="-3.500459538772702">
        <ele>671.61816409999994</ele>
        <time>2010-12-25T19:00:08Z</time>
      </trkpt>
      <trkpt lat="38.405284462496638" lon="-3.500989861786366">
        <ele>671.13769530000002</ele>
        <time>2010-12-25T19:00:12Z</time>
      </trkpt>
      <trkpt lat="38.40455649420619" lon="-3.501272834837437">
        <ele>672.57958980000001</ele>
        <time>2010-12-25T19:00:17Z</time>
      </trkpt>
      <trkpt lat="38.403190076351166" lon="-3.500594738870859">
        <ele>676.90551760000005</ele>
        <time>2010-12-25T19:00:26Z</time>
      </trkpt>
      <trkpt lat="38.402193887159228" lon="-3.500345963984728">
        <ele>679.30859380000004</ele>
        <time>2010-12-25T19:00:32Z</time>
      </trkpt>
      <trkpt lat="38.401458123698831" lon="-3.500567581504583">
        <ele>679.78930660000003</ele>
        <time>2010-12-25T19:00:37Z</time>
      </trkpt>
      <trkpt lat="38.401013296097517" lon="-3.501328825950623">
        <ele>679.78930660000003</ele>
        <time>2010-12-25T19:00:42Z</time>
      </trkpt>
      <trkpt lat="38.400486661121249" lon="-3.503708783537149">
        <ele>674.50219730000003</ele>
        <time>2010-12-25T19:00:55Z</time>
      </trkpt>
      <trkpt lat="38.400764018297195" lon="-3.505493877455592">
        <ele>677.38623050000001</ele>
        <time>2010-12-25T19:01:04Z</time>
      </trkpt>
      <trkpt lat="38.400681875646114" lon="-3.506328882649541">
        <ele>679.78930660000003</ele>
        <time>2010-12-25T19:01:09Z</time>
      </trkpt>
      <trkpt lat="38.400231096893549" lon="-3.506628284230828">
        <ele>680.75073239999995</ele>
        <time>2010-12-25T19:01:13Z</time>
      </trkpt>
      <trkpt lat="38.399847038090229" lon="-3.506493838503957">
        <ele>682.67333980000001</ele>
        <time>2010-12-25T19:01:16Z</time>
      </trkpt>
      <trkpt lat="38.39941612444818" lon="-3.505816161632538">
        <ele>683.15380860000005</ele>
        <time>2010-12-25T19:01:21Z</time>
      </trkpt>
      <trkpt lat="38.398719588294625" lon="-3.505491279065609">
        <ele>687.96069339999997</ele>
        <time>2010-12-25T19:01:27Z</time>
      </trkpt>
      <trkpt lat="38.397920792922378" lon="-3.505784226581454">
        <ele>692.76733400000001</ele>
        <time>2010-12-25T19:01:33Z</time>
      </trkpt>
      <trkpt lat="38.39689283631742" lon="-3.506737165153027">
        <ele>698.53491210000004</ele>
        <time>2010-12-25T19:01:41Z</time>
      </trkpt>
      <trkpt lat="38.395185777917504" lon="-3.507515592500567">
        <ele>708.62890630000004</ele>
        <time>2010-12-25T19:01:53Z</time>
      </trkpt>
      <trkpt lat="38.393714418634772" lon="-3.50855746306479">
        <ele>709.59033199999999</ele>
        <time>2010-12-25T19:02:04Z</time>
      </trkpt>
      <trkpt lat="38.393201697617769" lon="-3.508586632087827">
        <ele>707.18701169999997</ele>
        <time>2010-12-25T19:02:08Z</time>
      </trkpt>
      <trkpt lat="38.392639188095927" lon="-3.508308436721563">
        <ele>703.82250980000003</ele>
        <time>2010-12-25T19:02:12Z</time>
      </trkpt>
      <trkpt lat="38.392181536182761" lon="-3.507852964103222">
        <ele>699.97705080000003</ele>
        <time>2010-12-25T19:02:16Z</time>
      </trkpt>
      <trkpt lat="38.39150863699615" lon="-3.50688636302948">
        <ele>697.57373050000001</ele>
        <time>2010-12-25T19:02:22Z</time>
      </trkpt>
      <trkpt lat="38.390805898234248" lon="-3.506508925929666">
        <ele>696.61254880000001</ele>
        <time>2010-12-25T19:02:27Z</time>
      </trkpt>
      <trkpt lat="38.39064228348434" lon="-3.506536921486259">
        <ele>696.13183590000006</ele>
        <time>2010-12-25T19:02:28Z</time>
      </trkpt>
      <trkpt lat="38.389180060476065" lon="-3.506901282817125">
        <ele>688.92211910000003</ele>
        <time>2010-12-25T19:02:37Z</time>
      </trkpt>
      <trkpt lat="38.388663064688444" lon="-3.507396234199405">
        <ele>685.07690430000002</ele>
        <time>2010-12-25T19:02:42Z</time>
      </trkpt>
      <trkpt lat="38.38844446465373" lon="-3.508073659613729">
        <ele>681.71191409999994</ele>
        <time>2010-12-25T19:02:46Z</time>
      </trkpt>
      <trkpt lat="38.387024821713567" lon="-3.509985823184252">
        <ele>669.69580080000003</ele>
        <time>2010-12-25T19:02:59Z</time>
      </trkpt>
      <trkpt lat="38.386405566707253" lon="-3.50996763445437">
        <ele>664.40820310000004</ele>
        <time>2010-12-25T19:03:04Z</time>
      </trkpt>
      <trkpt lat="38.385490430518985" lon="-3.508866420015693">
        <ele>656.71777340000006</ele>
        <time>2010-12-25T19:03:12Z</time>
      </trkpt>
      <trkpt lat="38.38485105894506" lon="-3.508660895749927">
        <ele>652.87255860000005</ele>
        <time>2010-12-25T19:03:17Z</time>
      </trkpt>
      <trkpt lat="38.383665941655636" lon="-3.509631939232349">
        <ele>645.18188480000003</ele>
        <time>2010-12-25T19:03:26Z</time>
      </trkpt>
      <trkpt lat="38.383038220927119" lon="-3.509922120720148">
        <ele>640.85595699999999</ele>
        <time>2010-12-25T19:03:30Z</time>
      </trkpt>
      <trkpt lat="38.382391138002276" lon="-3.51054229773581">
        <ele>635.56860349999999</ele>
        <time>2010-12-25T19:03:35Z</time>
      </trkpt>
      <trkpt lat="38.382192319259048" lon="-3.511329777538776">
        <ele>631.72338869999999</ele>
        <time>2010-12-25T19:03:39Z</time>
      </trkpt>
      <trkpt lat="38.382477974519134" lon="-3.513369262218475">
        <ele>621.14916989999995</ele>
        <time>2010-12-25T19:03:49Z</time>
      </trkpt>
      <trkpt lat="38.382402034476399" lon="-3.51395096629858">
        <ele>620.18774410000003</ele>
        <time>2010-12-25T19:03:52Z</time>
      </trkpt>
      <trkpt lat="38.382022585719824" lon="-3.514594361186028">
        <ele>617.30371090000006</ele>
        <time>2010-12-25T19:03:57Z</time>
      </trkpt>
      <trkpt lat="38.381637437269092" lon="-3.514535184949637">
        <ele>614.90039060000004</ele>
        <time>2010-12-25T19:04:00Z</time>
      </trkpt>
      <trkpt lat="38.381444234400988" lon="-3.514028331264854">
        <ele>613.45849610000005</ele>
        <time>2010-12-25T19:04:03Z</time>
      </trkpt>
      <trkpt lat="38.381411377340555" lon="-3.513482669368386">
        <ele>608.17138669999997</ele>
        <time>2010-12-25T19:04:06Z</time>
      </trkpt>
      <trkpt lat="38.381044920533895" lon="-3.512593936175108">
        <ele>605.28735349999999</ele>
        <time>2010-12-25T19:04:11Z</time>
      </trkpt>
      <trkpt lat="38.380792792886496" lon="-3.512288918718696">
        <ele>604.32617189999996</ele>
        <time>2010-12-25T19:04:13Z</time>
      </trkpt>
      <trkpt lat="38.380037164315581" lon="-3.511865297332406">
        <ele>601.92260739999995</ele>
        <time>2010-12-25T19:04:18Z</time>
      </trkpt>
      <trkpt lat="38.378207981586456" lon="-3.512283638119698">
        <ele>597.59667969999998</ele>
        <time>2010-12-25T19:04:29Z</time>
      </trkpt>
      <trkpt lat="38.377112969756126" lon="-3.512234268710017">
        <ele>596.63549799999998</ele>
        <time>2010-12-25T19:04:35Z</time>
      </trkpt>
      <trkpt lat="38.37419992312789" lon="-3.513401029631496">
        <ele>600.48071289999996</ele>
        <time>2010-12-25T19:04:50Z</time>
      </trkpt>
      <trkpt lat="38.373628528788686" lon="-3.514018524438143">
        <ele>597.59667969999998</ele>
        <time>2010-12-25T19:04:56Z</time>
      </trkpt>
      <trkpt lat="38.373846625909209" lon="-3.515748465433717">
        <ele>588.94506839999997</ele>
        <time>2010-12-25T19:05:05Z</time>
      </trkpt>
      <trkpt lat="38.373627858236432" lon="-3.516620937734842">
        <ele>585.58007810000004</ele>
        <time>2010-12-25T19:05:10Z</time>
      </trkpt>
      <trkpt lat="38.3704140689224" lon="-3.517718128859997">
        <ele>578.85107419999997</ele>
        <time>2010-12-25T19:05:26Z</time>
      </trkpt>
      <trkpt lat="38.369421232491732" lon="-3.518609460443258">
        <ele>580.77368160000003</ele>
        <time>2010-12-25T19:05:31Z</time>
      </trkpt>
      <trkpt lat="38.367668241262436" lon="-3.521181028336287">
        <ele>585.58007810000004</ele>
        <time>2010-12-25T19:05:42Z</time>
      </trkpt>
      <trkpt lat="38.366664759814739" lon="-3.521832134574652">
        <ele>587.98339840000006</ele>
        <time>2010-12-25T19:05:47Z</time>
      </trkpt>
      <trkpt lat="38.364852759987116" lon="-3.522492880001664">
        <ele>590.86743160000003</ele>
        <time>2010-12-25T19:05:55Z</time>
      </trkpt>
      <trkpt lat="38.362691821530461" lon="-3.523402567952871">
        <ele>593.75146480000001</ele>
        <time>2010-12-25T19:06:04Z</time>
      </trkpt>
      <trkpt lat="38.361708540469408" lon="-3.524302868172526">
        <ele>595.19335939999996</ele>
        <time>2010-12-25T19:06:09Z</time>
      </trkpt>
      <trkpt lat="38.360961880534887" lon="-3.525505336001515">
        <ele>595.67407230000003</ele>
        <time>2010-12-25T19:06:14Z</time>
      </trkpt>
      <trkpt lat="38.360066441819072" lon="-3.528515864163637">
        <ele>601.92260739999995</ele>
        <time>2010-12-25T19:06:24Z</time>
      </trkpt>
      <trkpt lat="38.359204865992069" lon="-3.529579360038042">
        <ele>608.17138669999997</ele>
        <time>2010-12-25T19:06:29Z</time>
      </trkpt>
      <trkpt lat="38.358024694025517" lon="-3.529945816844702">
        <ele>615.38110349999999</ele>
        <time>2010-12-25T19:06:34Z</time>
      </trkpt>
      <trkpt lat="38.357086759060621" lon="-3.529996359720826">
        <ele>619.22631839999997</ele>
        <time>2010-12-25T19:06:38Z</time>
      </trkpt>
      <trkpt lat="38.356251418590546" lon="-3.530363822355866">
        <ele>624.51367189999996</ele>
        <time>2010-12-25T19:06:42Z</time>
      </trkpt>
      <trkpt lat="38.355718832463026" lon="-3.531218441203237">
        <ele>629.80078130000004</ele>
        <time>2010-12-25T19:06:46Z</time>
      </trkpt>
      <trkpt lat="38.355528060346842" lon="-3.532327031716704">
        <ele>635.08813480000003</ele>
        <time>2010-12-25T19:06:50Z</time>
      </trkpt>
      <trkpt lat="38.355192029848695" lon="-3.533377535641193">
        <ele>640.37548830000003</ele>
        <time>2010-12-25T19:06:54Z</time>
      </trkpt>
      <trkpt lat="38.354827584698796" lon="-3.534042723476887">
        <ele>644.22070310000004</ele>
        <time>2010-12-25T19:06:57Z</time>
      </trkpt>
      <trkpt lat="38.354569589719176" lon="-3.535264637321234">
        <ele>649.5078125</ele>
        <time>2010-12-25T19:07:02Z</time>
      </trkpt>
      <trkpt lat="38.354803025722504" lon="-3.536251690238714">
        <ele>652.87255860000005</ele>
        <time>2010-12-25T19:07:06Z</time>
      </trkpt>
      <trkpt lat="38.355416329577565" lon="-3.536978820338845">
        <ele>656.71777340000006</ele>
        <time>2010-12-25T19:07:10Z</time>
      </trkpt>
      <trkpt lat="38.357429662719369" lon="-3.538141641765833">
        <ele>667.29223630000001</ele>
        <time>2010-12-25T19:07:20Z</time>
      </trkpt>
      <trkpt lat="38.358078170567751" lon="-3.538894923403859">
        <ele>671.61816409999994</ele>
        <time>2010-12-25T19:07:24Z</time>
      </trkpt>
      <trkpt lat="38.358612433075905" lon="-3.540391931310296">
        <ele>677.86669919999997</ele>
        <time>2010-12-25T19:07:30Z</time>
      </trkpt>
      <trkpt lat="38.358579659834504" lon="-3.541797995567322">
        <ele>683.15380860000005</ele>
        <time>2010-12-25T19:07:35Z</time>
      </trkpt>
      <trkpt lat="38.358232565224171" lon="-3.542863419279456">
        <ele>687.47998050000001</ele>
        <time>2010-12-25T19:07:39Z</time>
      </trkpt>
      <trkpt lat="38.357614064589143" lon="-3.543766066431999">
        <ele>691.32519530000002</ele>
        <time>2010-12-25T19:07:43Z</time>
      </trkpt>
      <trkpt lat="38.356551490724087" lon="-3.54458648711443">
        <ele>694.68969730000003</ele>
        <time>2010-12-25T19:07:48Z</time>
      </trkpt>
      <trkpt lat="38.355528227984905" lon="-3.544856971129775">
        <ele>695.65112299999998</ele>
        <time>2010-12-25T19:07:52Z</time>
      </trkpt>
      <trkpt lat="38.354450399056077" lon="-3.544712886214256">
        <ele>699.49633789999996</ele>
        <time>2010-12-25T19:07:56Z</time>
      </trkpt>
      <trkpt lat="38.353033941239119" lon="-3.543821219354868">
        <ele>709.10961910000003</ele>
        <time>2010-12-25T19:08:02Z</time>
      </trkpt>
      <trkpt lat="38.351214481517673" lon="-3.541913917288184">
        <ele>721.60668950000002</ele>
        <time>2010-12-25T19:08:11Z</time>
      </trkpt>
      <trkpt lat="38.349919728934765" lon="-3.541228026151657">
        <ele>728.3359375</ele>
        <time>2010-12-25T19:08:16Z</time>
      </trkpt>
      <trkpt lat="38.348521292209625" lon="-3.541039098054171">
        <ele>736.02661130000001</ele>
        <time>2010-12-25T19:08:21Z</time>
      </trkpt>
      <trkpt lat="38.34719686768949" lon="-3.541392898187041">
        <ele>740.35253909999994</ele>
        <time>2010-12-25T19:08:26Z</time>
      </trkpt>
      <trkpt lat="38.346239989623427" lon="-3.542055739089847">
        <ele>745.15893549999998</ele>
        <time>2010-12-25T19:08:30Z</time>
      </trkpt>
      <trkpt lat="38.344221962615848" lon="-3.543926831334829">
        <ele>750.44653319999998</ele>
        <time>2010-12-25T19:08:39Z</time>
      </trkpt>
      <trkpt lat="38.34272151812911" lon="-3.544807434082031">
        <ele>751.40771480000001</ele>
        <time>2010-12-25T19:08:45Z</time>
      </trkpt>
      <trkpt lat="38.341034241020679" lon="-3.545287884771824">
        <ele>748.04321289999996</ele>
        <time>2010-12-25T19:08:51Z</time>
      </trkpt>
      <trkpt lat="38.339582579210401" lon="-3.54530137963593">
        <ele>743.71704099999999</ele>
        <time>2010-12-25T19:08:56Z</time>
      </trkpt>
      <trkpt lat="38.3379265666008" lon="-3.544876836240292">
        <ele>738.42993160000003</ele>
        <time>2010-12-25T19:09:02Z</time>
      </trkpt>
      <trkpt lat="38.333748858422041" lon="-3.542752275243402">
        <ele>732.66210939999996</ele>
        <time>2010-12-25T19:09:19Z</time>
      </trkpt>
      <trkpt lat="38.332550916820765" lon="-3.542544236406684">
        <ele>732.66210939999996</ele>
        <time>2010-12-25T19:09:24Z</time>
      </trkpt>
      <trkpt lat="38.331566294655204" lon="-3.542775325477123">
        <ele>730.73925780000002</ele>
        <time>2010-12-25T19:09:28Z</time>
      </trkpt>
      <trkpt lat="38.330646967515349" lon="-3.543381337076426">
        <ele>724.49072269999999</ele>
        <time>2010-12-25T19:09:32Z</time>
      </trkpt>
      <trkpt lat="38.329870719462633" lon="-3.544331090524793">
        <ele>719.68432619999999</ele>
        <time>2010-12-25T19:09:36Z</time>
      </trkpt>
      <trkpt lat="38.323344234377146" lon="-3.55463613756001">
        <ele>732.66210939999996</ele>
        <time>2010-12-25T19:10:11Z</time>
      </trkpt>
      <trkpt lat="38.322403784841299" lon="-3.555828463286161">
        <ele>731.70043950000002</ele>
        <time>2010-12-25T19:10:16Z</time>
      </trkpt>
      <trkpt lat="38.321053376421332" lon="-3.55695616453886">
        <ele>728.3359375</ele>
        <time>2010-12-25T19:10:22Z</time>
      </trkpt>
      <trkpt lat="38.320056265220046" lon="-3.558120662346482">
        <ele>726.41333010000005</ele>
        <time>2010-12-25T19:10:27Z</time>
      </trkpt>
      <trkpt lat="38.318372927606106" lon="-3.560763727873564">
        <ele>717.76147460000004</ele>
        <time>2010-12-25T19:10:36Z</time>
      </trkpt>
      <trkpt lat="38.316310560330749" lon="-3.56527897529304">
        <ele>715.83886719999998</ele>
        <time>2010-12-25T19:10:49Z</time>
      </trkpt>
      <trkpt lat="38.314183987677097" lon="-3.567978534847498">
        <ele>722.56811519999997</ele>
        <time>2010-12-25T19:11:00Z</time>
      </trkpt>
      <trkpt lat="38.313672859221697" lon="-3.569283597171307">
        <ele>723.04882810000004</ele>
        <time>2010-12-25T19:11:04Z</time>
      </trkpt>
      <trkpt lat="38.313109092414379" lon="-3.571457695215941">
        <ele>720.64550780000002</ele>
        <time>2010-12-25T19:11:10Z</time>
      </trkpt>
      <trkpt lat="38.312451196834445" lon="-3.572779772803187">
        <ele>717.28100589999997</ele>
        <time>2010-12-25T19:11:14Z</time>
      </trkpt>
      <trkpt lat="38.308980334550142" lon="-3.576832758262754">
        <ele>700.93847659999994</ele>
        <time>2010-12-25T19:11:29Z</time>
      </trkpt>
      <trkpt lat="38.308003759011626" lon="-3.577517559751868">
        <ele>696.61254880000001</ele>
        <time>2010-12-25T19:11:33Z</time>
      </trkpt>
      <trkpt lat="38.306945879012346" lon="-3.577859289944172">
        <ele>691.80590819999998</ele>
        <time>2010-12-25T19:11:37Z</time>
      </trkpt>
      <trkpt lat="38.301446260884404" lon="-3.579326290637255">
        <ele>661.04370119999999</ele>
        <time>2010-12-25T19:11:58Z</time>
      </trkpt>
      <trkpt lat="38.300348734483123" lon="-3.580246036872268">
        <ele>653.83398439999996</ele>
        <time>2010-12-25T19:12:03Z</time>
      </trkpt>
      <trkpt lat="38.294614674523473" lon="-3.588473377749324">
        <ele>625.95556639999995</ele>
        <time>2010-12-25T19:12:32Z</time>
      </trkpt>
      <trkpt lat="38.293614629656076" lon="-3.589290780946612">
        <ele>621.62963869999999</ele>
        <time>2010-12-25T19:12:36Z</time>
      </trkpt>
      <trkpt lat="38.292506961151958" lon="-3.58972898684442">
        <ele>615.38110349999999</ele>
        <time>2010-12-25T19:12:40Z</time>
      </trkpt>
      <trkpt lat="38.290997464209795" lon="-3.589783385396004">
        <ele>605.76806639999995</ele>
        <time>2010-12-25T19:12:45Z</time>
      </trkpt>
      <trkpt lat="38.285258458927274" lon="-3.589309137314558">
        <ele>587.02197269999999</ele>
        <time>2010-12-25T19:13:03Z</time>
      </trkpt>
      <trkpt lat="38.284121621400118" lon="-3.589688669890165">
        <ele>588.94506839999997</ele>
        <time>2010-12-25T19:13:07Z</time>
      </trkpt>
      <trkpt lat="38.283146470785141" lon="-3.590449495241046">
        <ele>591.34814449999999</ele>
        <time>2010-12-25T19:13:11Z</time>
      </trkpt>
      <trkpt lat="38.282389082014561" lon="-3.591521624475718">
        <ele>593.75146480000001</ele>
        <time>2010-12-25T19:13:15Z</time>
      </trkpt>
      <trkpt lat="38.281743759289384" lon="-3.593143941834569">
        <ele>596.63549799999998</ele>
        <time>2010-12-25T19:13:20Z</time>
      </trkpt>
      <trkpt lat="38.280820325016975" lon="-3.596303164958954">
        <ele>597.59667969999998</ele>
        <time>2010-12-25T19:13:29Z</time>
      </trkpt>
      <trkpt lat="38.279946930706501" lon="-3.598354635760188">
        <ele>598.07739260000005</ele>
        <time>2010-12-25T19:13:35Z</time>
      </trkpt>
      <trkpt lat="38.278285972774029" lon="-3.601180426776409">
        <ele>600.48071289999996</ele>
        <time>2010-12-25T19:13:44Z</time>
      </trkpt>
      <trkpt lat="38.276691986247897" lon="-3.603797676041722">
        <ele>593.75146480000001</ele>
        <time>2010-12-25T19:13:53Z</time>
      </trkpt>
      <trkpt lat="38.27550183981657" lon="-3.605355117470026">
        <ele>587.50268549999998</ele>
        <time>2010-12-25T19:13:59Z</time>
      </trkpt>
      <trkpt lat="38.27422603033483" lon="-3.606287520378828">
        <ele>582.21557619999999</ele>
        <time>2010-12-25T19:14:04Z</time>
      </trkpt>
      <trkpt lat="38.269501235336065" lon="-3.60832859762013">
        <ele>575.48632810000004</ele>
        <time>2010-12-25T19:14:20Z</time>
      </trkpt>
      <trkpt lat="38.26847679913044" lon="-3.609178690239787">
        <ele>578.37036130000001</ele>
        <time>2010-12-25T19:14:24Z</time>
      </trkpt>
      <trkpt lat="38.267641039565206" lon="-3.610293986275792">
        <ele>580.77368160000003</ele>
        <time>2010-12-25T19:14:28Z</time>
      </trkpt>
      <trkpt lat="38.266869066283107" lon="-3.61197086982429">
        <ele>581.73486330000003</ele>
        <time>2010-12-25T19:14:33Z</time>
      </trkpt>
      <trkpt lat="38.265101658180356" lon="-3.617134541273117">
        <ele>571.64086910000003</ele>
        <time>2010-12-25T19:14:47Z</time>
      </trkpt>
      <trkpt lat="38.264011340215802" lon="-3.620297620072961">
        <ele>562.98925780000002</ele>
        <time>2010-12-25T19:14:56Z</time>
      </trkpt>
      <trkpt lat="38.26316686347127" lon="-3.622197965160012">
        <ele>558.18286130000001</ele>
        <time>2010-12-25T19:15:02Z</time>
      </trkpt>
      <trkpt lat="38.262293888255954" lon="-3.623179737478495">
        <ele>554.33740230000001</ele>
        <time>2010-12-25T19:15:06Z</time>
      </trkpt>
      <trkpt lat="38.26117523945868" lon="-3.623779127374291">
        <ele>550.01147460000004</ele>
        <time>2010-12-25T19:15:10Z</time>
      </trkpt>
      <trkpt lat="38.259013462811708" lon="-3.624334260821343">
        <ele>537.99499509999998</ele>
        <time>2010-12-25T19:15:17Z</time>
      </trkpt>
      <trkpt lat="38.255663719028234" lon="-3.625107491388917">
        <ele>515.8846436</ele>
        <time>2010-12-25T19:15:28Z</time>
      </trkpt>
      <trkpt lat="38.252690238878131" lon="-3.626395538449287">
        <ele>496.17773440000002</ele>
        <time>2010-12-25T19:15:39Z</time>
      </trkpt>
      <trkpt lat="38.249620534479618" lon="-3.626745734363794">
        <ele>479.35449219999998</ele>
        <time>2010-12-25T19:15:50Z</time>
      </trkpt>
      <trkpt lat="38.248569360002875" lon="-3.62732651643455">
        <ele>475.02868649999999</ele>
        <time>2010-12-25T19:15:54Z</time>
      </trkpt>
      <trkpt lat="38.247102275490761" lon="-3.628503838554025">
        <ele>468.78002930000002</ele>
        <time>2010-12-25T19:16:00Z</time>
      </trkpt>
      <trkpt lat="38.245983459055424" lon="-3.628912959247828">
        <ele>463.01208500000001</ele>
        <time>2010-12-25T19:16:04Z</time>
      </trkpt>
      <trkpt lat="38.244192833080888" lon="-3.629151424393058">
        <ele>452.4376221</ele>
        <time>2010-12-25T19:16:10Z</time>
      </trkpt>
      <trkpt lat="38.242386197671294" lon="-3.629649225622416">
        <ele>441.86315919999998</ele>
        <time>2010-12-25T19:16:16Z</time>
      </trkpt>
      <trkpt lat="38.24054486118257" lon="-3.63008039072156">
        <ele>429.36596680000002</ele>
        <time>2010-12-25T19:16:22Z</time>
      </trkpt>
      <trkpt lat="38.228644737973809" lon="-3.629217641428113">
        <ele>397.16174319999999</ele>
        <time>2010-12-25T19:16:59Z</time>
      </trkpt>
      <trkpt lat="38.227512175217271" lon="-3.629558365792036">
        <ele>394.7585449</ele>
        <time>2010-12-25T19:17:03Z</time>
      </trkpt>
      <trkpt lat="38.226502323523164" lon="-3.630318436771631">
        <ele>392.8359375</ele>
        <time>2010-12-25T19:17:07Z</time>
      </trkpt>
      <trkpt lat="38.225708724930882" lon="-3.631446473300457">
        <ele>390.913208</ele>
        <time>2010-12-25T19:17:11Z</time>
      </trkpt>
      <trkpt lat="38.225042531266809" lon="-3.633173564448953">
        <ele>389.47119140000001</ele>
        <time>2010-12-25T19:17:16Z</time>
      </trkpt>
      <trkpt lat="38.224111637100577" lon="-3.636520458385348">
        <ele>386.58740230000001</ele>
        <time>2010-12-25T19:17:25Z</time>
      </trkpt>
      <trkpt lat="38.223350727930665" lon="-3.638259032741189">
        <ele>385.14538570000002</ele>
        <time>2010-12-25T19:17:30Z</time>
      </trkpt>
      <trkpt lat="38.222278682515025" lon="-3.639741623774171">
        <ele>383.22265629999998</ele>
        <time>2010-12-25T19:17:35Z</time>
      </trkpt>
      <trkpt lat="38.215633928775787" lon="-3.646211698651314">
        <ele>375.5321045</ele>
        <time>2010-12-25T19:18:00Z</time>
      </trkpt>
      <trkpt lat="38.21392972022295" lon="-3.647536626085639">
        <ele>371.68688959999997</ele>
        <time>2010-12-25T19:18:06Z</time>
      </trkpt>
      <trkpt lat="38.211490921676159" lon="-3.650349341332912">
        <ele>369.76428220000003</ele>
        <time>2010-12-25T19:18:16Z</time>
      </trkpt>
      <trkpt lat="38.20973876863718" lon="-3.652087580412626">
        <ele>367.84155270000002</ele>
        <time>2010-12-25T19:18:23Z</time>
      </trkpt>
      <trkpt lat="38.208966376259923" lon="-3.653349559754133">
        <ele>366.88024899999999</ele>
        <time>2010-12-25T19:18:27Z</time>
      </trkpt>
      <trkpt lat="38.208285933360457" lon="-3.655160721391439">
        <ele>365.91894530000002</ele>
        <time>2010-12-25T19:18:32Z</time>
      </trkpt>
      <trkpt lat="38.206665962934494" lon="-3.660491863265634">
        <ele>363.5157471</ele>
        <time>2010-12-25T19:18:46Z</time>
      </trkpt>
      <trkpt lat="38.205815618857741" lon="-3.662574766203761">
        <ele>362.55432130000003</ele>
        <time>2010-12-25T19:18:52Z</time>
      </trkpt>
      <trkpt lat="38.204846167936921" lon="-3.664034390822053">
        <ele>362.07373050000001</ele>
        <time>2010-12-25T19:18:57Z</time>
      </trkpt>
      <trkpt lat="38.203626433387399" lon="-3.665204588323832">
        <ele>360.15112299999998</ele>
        <time>2010-12-25T19:19:02Z</time>
      </trkpt>
      <trkpt lat="38.199569592252374" lon="-3.667355887591839">
        <ele>350.05725100000001</ele>
        <time>2010-12-25T19:19:16Z</time>
      </trkpt>
      <trkpt lat="38.198530236259103" lon="-3.668201621621847">
        <ele>348.1346436</ele>
        <time>2010-12-25T19:19:20Z</time>
      </trkpt>
      <trkpt lat="38.196110967546701" lon="-3.671729480847716">
        <ele>347.65393069999999</ele>
        <time>2010-12-25T19:19:32Z</time>
      </trkpt>
      <trkpt lat="38.191629163920879" lon="-3.675875924527645">
        <ele>352.94116209999999</ele>
        <time>2010-12-25T19:19:50Z</time>
      </trkpt>
      <trkpt lat="38.189989663660526" lon="-3.677661521360278">
        <ele>350.53784180000002</ele>
        <time>2010-12-25T19:19:57Z</time>
      </trkpt>
      <trkpt lat="38.189109563827515" lon="-3.679241761565208">
        <ele>349.57653809999999</ele>
        <time>2010-12-25T19:20:02Z</time>
      </trkpt>
      <trkpt lat="38.188699437305331" lon="-3.680649837478995">
        <ele>350.05725100000001</ele>
        <time>2010-12-25T19:20:06Z</time>
      </trkpt>
      <trkpt lat="38.188540684059262" lon="-3.682494023814797">
        <ele>351.97985840000001</ele>
        <time>2010-12-25T19:20:11Z</time>
      </trkpt>
      <trkpt lat="38.188727097585797" lon="-3.685509664937854">
        <ele>354.86376949999999</ele>
        <time>2010-12-25T19:20:19Z</time>
      </trkpt>
      <trkpt lat="38.188713099807501" lon="-3.687845868989825">
        <ele>354.38317869999997</ele>
        <time>2010-12-25T19:20:25Z</time>
      </trkpt>
      <trkpt lat="38.188297441229224" lon="-3.689716625958681">
        <ele>352.46057130000003</ele>
        <time>2010-12-25T19:20:30Z</time>
      </trkpt>
      <trkpt lat="38.187674330547452" lon="-3.691047336906195">
        <ele>351.4991455</ele>
        <time>2010-12-25T19:20:34Z</time>
      </trkpt>
      <trkpt lat="38.186829937621951" lon="-3.692160537466407">
        <ele>351.4991455</ele>
        <time>2010-12-25T19:20:38Z</time>
      </trkpt>
      <trkpt lat="38.185540633276105" lon="-3.693188158795238">
        <ele>352.46057130000003</ele>
        <time>2010-12-25T19:20:43Z</time>
      </trkpt>
      <trkpt lat="38.18409257568419" lon="-3.693751841783524">
        <ele>353.421875</ele>
        <time>2010-12-25T19:20:48Z</time>
      </trkpt>
      <trkpt lat="38.181807920336723" lon="-3.694342598319054">
        <ele>354.86376949999999</ele>
        <time>2010-12-25T19:20:56Z</time>
      </trkpt>
      <trkpt lat="38.180500259622931" lon="-3.694998063147068">
        <ele>355.82519530000002</ele>
        <time>2010-12-25T19:21:01Z</time>
      </trkpt>
      <trkpt lat="38.179337773472071" lon="-3.69608293287456">
        <ele>357.26708980000001</ele>
        <time>2010-12-25T19:21:06Z</time>
      </trkpt>
      <trkpt lat="38.1762779597193" lon="-3.700661798939109">
        <ele>360.63171390000002</ele>
        <time>2010-12-25T19:21:22Z</time>
      </trkpt>
      <trkpt lat="38.174321036785841" lon="-3.704571537673473">
        <ele>357.74780270000002</ele>
        <time>2010-12-25T19:21:35Z</time>
      </trkpt>
      <trkpt lat="38.173296516761184" lon="-3.705732598900795">
        <ele>354.38317869999997</ele>
        <time>2010-12-25T19:21:40Z</time>
      </trkpt>
      <trkpt lat="38.17204006947577" lon="-3.706617895513773">
        <ele>351.01843259999998</ele>
        <time>2010-12-25T19:21:45Z</time>
      </trkpt>
      <trkpt lat="38.167010759934783" lon="-3.708710270002484">
        <ele>344.28942869999997</ele>
        <time>2010-12-25T19:22:05Z</time>
      </trkpt>
      <trkpt lat="38.165925219655037" lon="-3.709715595468879">
        <ele>342.36669920000003</ele>
        <time>2010-12-25T19:22:10Z</time>
      </trkpt>
      <trkpt lat="38.164008278399706" lon="-3.711379738524556">
        <ele>334.67614750000001</ele>
        <time>2010-12-25T19:22:18Z</time>
      </trkpt>
      <trkpt lat="38.153477171435952" lon="-3.718788167461753">
        <ele>361.11242679999998</ele>
        <time>2010-12-25T19:22:59Z</time>
      </trkpt>
      <trkpt lat="38.151117162778974" lon="-3.720760764554143">
        <ele>361.11242679999998</ele>
        <time>2010-12-25T19:23:08Z</time>
      </trkpt>
      <trkpt lat="38.145504388958216" lon="-3.72409014031291">
        <ele>369.76428220000003</ele>
        <time>2010-12-25T19:23:28Z</time>
      </trkpt>
      <trkpt lat="38.144300160929561" lon="-3.725134022533894">
        <ele>368.32226559999998</ele>
        <time>2010-12-25T19:23:33Z</time>
      </trkpt>
      <trkpt lat="38.143399776890874" lon="-3.726533465087414">
        <ele>366.39953609999998</ele>
        <time>2010-12-25T19:23:38Z</time>
      </trkpt>
      <trkpt lat="38.142817234620452" lon="-3.728188639506698">
        <ele>364.95764159999999</ele>
        <time>2010-12-25T19:23:43Z</time>
      </trkpt>
      <trkpt lat="38.141260463744402" lon="-3.734735492616892">
        <ele>368.80297849999999</ele>
        <time>2010-12-25T19:24:01Z</time>
      </trkpt>
      <trkpt lat="38.140255138278008" lon="-3.736960971727967">
        <ele>367.84155270000002</ele>
        <time>2010-12-25T19:24:08Z</time>
      </trkpt>
      <trkpt lat="38.137621460482478" lon="-3.74320138245821">
        <ele>353.421875</ele>
        <time>2010-12-25T19:24:27Z</time>
      </trkpt>
      <trkpt lat="38.136651674285531" lon="-3.744610464200378">
        <ele>351.97985840000001</ele>
        <time>2010-12-25T19:24:32Z</time>
      </trkpt>
      <trkpt lat="38.135362537577748" lon="-3.746028263121843">
        <ele>353.90258790000001</ele>
        <time>2010-12-25T19:24:38Z</time>
      </trkpt>
      <trkpt lat="38.134233662858605" lon="-3.747500460594893">
        <ele>357.26708980000001</ele>
        <time>2010-12-25T19:24:44Z</time>
      </trkpt>
      <trkpt lat="38.132387464866042" lon="-3.750063059851527">
        <ele>358.70898440000002</ele>
        <time>2010-12-25T19:24:54Z</time>
      </trkpt>
      <trkpt lat="38.130667079240084" lon="-3.751823091879487">
        <ele>362.07373050000001</ele>
        <time>2010-12-25T19:25:02Z</time>
      </trkpt>
      <trkpt lat="38.128278739750385" lon="-3.753833575174213">
        <ele>366.39953609999998</ele>
        <time>2010-12-25T19:25:12Z</time>
      </trkpt>
      <trkpt lat="38.126140432432294" lon="-3.755714641883969">
        <ele>369.76428220000003</ele>
        <time>2010-12-25T19:25:21Z</time>
      </trkpt>
      <trkpt lat="38.125450685620308" lon="-3.756673028692603">
        <ele>371.20629880000001</ele>
        <time>2010-12-25T19:25:25Z</time>
      </trkpt>
      <trkpt lat="38.125015497207642" lon="-3.757845237851143">
        <ele>373.6094971</ele>
        <time>2010-12-25T19:25:29Z</time>
      </trkpt>
      <trkpt lat="38.124636132270098" lon="-3.760026795789599">
        <ele>379.37744140000001</ele>
        <time>2010-12-25T19:25:36Z</time>
      </trkpt>
      <trkpt lat="38.124002460390329" lon="-3.761275364086032">
        <ele>381.78063959999997</ele>
        <time>2010-12-25T19:25:41Z</time>
      </trkpt>
      <trkpt lat="38.123142728582025" lon="-3.761888835579157">
        <ele>382.7420654</ele>
        <time>2010-12-25T19:25:45Z</time>
      </trkpt>
      <trkpt lat="38.122129188850522" lon="-3.761883638799191">
        <ele>382.26135249999999</ele>
        <time>2010-12-25T19:25:49Z</time>
      </trkpt>
      <trkpt lat="38.120964439585805" lon="-3.761054584756494">
        <ele>382.26135249999999</ele>
        <time>2010-12-25T19:25:54Z</time>
      </trkpt>
      <trkpt lat="38.118971139192581" lon="-3.758688038215041">
        <ele>378.41613769999998</ele>
        <time>2010-12-25T19:26:04Z</time>
      </trkpt>
      <trkpt lat="38.114343741908669" lon="-3.753148438408971">
        <ele>350.53784180000002</ele>
        <time>2010-12-25T19:26:25Z</time>
      </trkpt>
      <trkpt lat="38.111426085233688" lon="-3.749981839209795">
        <ele>344.28942869999997</ele>
        <time>2010-12-25T19:26:37Z</time>
      </trkpt>
      <trkpt lat="38.108866419643164" lon="-3.747654017060995">
        <ele>345.73132320000002</ele>
        <time>2010-12-25T19:26:47Z</time>
      </trkpt>
      <trkpt lat="38.106102989986539" lon="-3.74558444134891">
        <ele>339.00207519999998</ele>
        <time>2010-12-25T19:26:57Z</time>
      </trkpt>
      <trkpt lat="38.09936486184597" lon="-3.741226438432932">
        <ele>329.38891599999999</ele>
        <time>2010-12-25T19:27:21Z</time>
      </trkpt>
      <trkpt lat="38.097433336079121" lon="-3.740282636135817">
        <ele>331.79211429999998</ele>
        <time>2010-12-25T19:27:28Z</time>
      </trkpt>
      <trkpt lat="38.095115320757031" lon="-3.739475039765239">
        <ele>332.75353999999999</ele>
        <time>2010-12-25T19:27:36Z</time>
      </trkpt>
      <trkpt lat="38.087486699223518" lon="-3.737733783200383">
        <ele>338.04077150000001</ele>
        <time>2010-12-25T19:28:01Z</time>
      </trkpt>
      <trkpt lat="38.08403997682035" lon="-3.736747233197093">
        <ele>335.15673829999997</ele>
        <time>2010-12-25T19:28:13Z</time>
      </trkpt>
      <trkpt lat="38.080880334600806" lon="-3.736074166372418">
        <ele>327.94677730000001</ele>
        <time>2010-12-25T19:28:24Z</time>
      </trkpt>
      <trkpt lat="38.078816458582878" lon="-3.736013816669583">
        <ele>322.65966800000001</ele>
        <time>2010-12-25T19:28:31Z</time>
      </trkpt>
      <trkpt lat="38.076720060780644" lon="-3.736338028684259">
        <ele>316.41101070000002</ele>
        <time>2010-12-25T19:28:38Z</time>
      </trkpt>
      <trkpt lat="38.074601870030165" lon="-3.737051161006093">
        <ele>309.68188479999998</ele>
        <time>2010-12-25T19:28:45Z</time>
      </trkpt>
      <trkpt lat="38.07253179140389" lon="-3.738184561952949">
        <ele>305.8366699</ele>
        <time>2010-12-25T19:28:52Z</time>
      </trkpt>
      <trkpt lat="38.066717265173793" lon="-3.742622779682279">
        <ele>313.04650880000003</ele>
        <time>2010-12-25T19:29:14Z</time>
      </trkpt>
      <trkpt lat="38.062959238886833" lon="-3.745284033939242">
        <ele>301.991333</ele>
        <time>2010-12-25T19:29:28Z</time>
      </trkpt>
      <trkpt lat="38.060597889125347" lon="-3.747116234153509">
        <ele>290.45556640000001</ele>
        <time>2010-12-25T19:29:37Z</time>
      </trkpt>
      <trkpt lat="38.05864398367703" lon="-3.749060668051243">
        <ele>280.84240720000003</ele>
        <time>2010-12-25T19:29:45Z</time>
      </trkpt>
      <trkpt lat="38.048457959666848" lon="-3.761491365730763">
        <ele>273.15185550000001</ele>
        <time>2010-12-25T19:30:29Z</time>
      </trkpt>
      <trkpt lat="38.045403258875012" lon="-3.764871284365654">
        <ele>276.03564449999999</ele>
        <time>2010-12-25T19:30:42Z</time>
      </trkpt>
      <trkpt lat="38.042621724307537" lon="-3.767440672963858">
        <ele>276.99707030000002</ele>
        <time>2010-12-25T19:30:53Z</time>
      </trkpt>
      <trkpt lat="38.039613626897335" lon="-3.769811158999801">
        <ele>273.63244630000003</ele>
        <time>2010-12-25T19:31:04Z</time>
      </trkpt>
      <trkpt lat="38.036618269979954" lon="-3.771735979244113">
        <ele>268.34509279999997</ele>
        <time>2010-12-25T19:31:14Z</time>
      </trkpt>
      <trkpt lat="38.022339195013046" lon="-3.779308693483472">
        <ele>277.47766109999998</ele>
        <time>2010-12-25T19:32:03Z</time>
      </trkpt>
      <trkpt lat="38.014039769768715" lon="-3.784656934440136">
        <ele>306.7978516</ele>
        <time>2010-12-25T19:32:35Z</time>
      </trkpt>
      <trkpt lat="38.011766681447625" lon="-3.785881279036403">
        <ele>306.31726070000002</ele>
        <time>2010-12-25T19:32:43Z</time>
      </trkpt>
      <trkpt lat="38.00991402938962" lon="-3.786317138001323">
        <ele>301.51062009999998</ele>
        <time>2010-12-25T19:32:49Z</time>
      </trkpt>
      <trkpt lat="38.007228467613459" lon="-3.786920718848705">
        <ele>288.53295900000001</ele>
        <time>2010-12-25T19:32:58Z</time>
      </trkpt>
      <trkpt lat="38.005510177463293" lon="-3.787834765389562">
        <ele>280.36169430000001</ele>
        <time>2010-12-25T19:33:04Z</time>
      </trkpt>
      <trkpt lat="38.004190865904093" lon="-3.788955761119723">
        <ele>276.5163574</ele>
        <time>2010-12-25T19:33:09Z</time>
      </trkpt>
      <trkpt lat="38.000088762491941" lon="-3.793772840872407">
        <ele>270.74841309999999</ele>
        <time>2010-12-25T19:33:27Z</time>
      </trkpt>
      <trkpt lat="37.998543223366141" lon="-3.795048398897052">
        <ele>269.3065186</ele>
        <time>2010-12-25T19:33:33Z</time>
      </trkpt>
      <trkpt lat="37.996935658156872" lon="-3.79589656367898">
        <ele>264.98059080000002</ele>
        <time>2010-12-25T19:33:39Z</time>
      </trkpt>
      <trkpt lat="37.995282998308539" lon="-3.796377265825868">
        <ele>257.77075200000002</ele>
        <time>2010-12-25T19:33:45Z</time>
      </trkpt>
      <trkpt lat="37.99358113668859" lon="-3.796475669369102">
        <ele>252.96398930000001</ele>
        <time>2010-12-25T19:33:51Z</time>
      </trkpt>
      <trkpt lat="37.991846585646272" lon="-3.796197641640902">
        <ele>252.4833984</ele>
        <time>2010-12-25T19:33:57Z</time>
      </trkpt>
      <trkpt lat="37.989860493689775" lon="-3.795516025274992">
        <ele>254.88659670000001</ele>
        <time>2010-12-25T19:34:04Z</time>
      </trkpt>
      <trkpt lat="37.982888175174594" lon="-3.792549669742584">
        <ele>249.59948729999999</ele>
        <time>2010-12-25T19:34:29Z</time>
      </trkpt>
      <trkpt lat="37.981158317998052" lon="-3.792182123288512">
        <ele>250.56079099999999</ele>
        <time>2010-12-25T19:34:35Z</time>
      </trkpt>
      <trkpt lat="37.974510798230767" lon="-3.79182337783277">
        <ele>287.57141109999998</ele>
        <time>2010-12-25T19:34:58Z</time>
      </trkpt>
      <trkpt lat="37.972110221162438" lon="-3.791305040940642">
        <ele>301.991333</ele>
        <time>2010-12-25T19:35:07Z</time>
      </trkpt>
      <trkpt lat="37.969405129551888" lon="-3.79048939794302">
        <ele>312.0852051</ele>
        <time>2010-12-25T19:35:17Z</time>
      </trkpt>
      <trkpt lat="37.966787293553352" lon="-3.789862263947725">
        <ele>317.85302730000001</ele>
        <time>2010-12-25T19:35:26Z</time>
      </trkpt>
      <trkpt lat="37.964119836688042" lon="-3.789595384150744">
        <ele>324.1015625</ele>
        <time>2010-12-25T19:35:35Z</time>
      </trkpt>
      <trkpt lat="37.961748596280813" lon="-3.789790431037545">
        <ele>329.86950680000001</ele>
        <time>2010-12-25T19:35:43Z</time>
      </trkpt>
      <trkpt lat="37.959057670086622" lon="-3.790393089875579">
        <ele>332.75353999999999</ele>
        <time>2010-12-25T19:35:52Z</time>
      </trkpt>
      <trkpt lat="37.955877324566245" lon="-3.791403025388718">
        <ele>328.42761230000002</ele>
        <time>2010-12-25T19:36:03Z</time>
      </trkpt>
      <trkpt lat="37.952763782814145" lon="-3.792273234575987">
        <ele>315.44982909999999</ele>
        <time>2010-12-25T19:36:14Z</time>
      </trkpt>
      <trkpt lat="37.950388435274363" lon="-3.79254749044776">
        <ele>302.47192380000001</ele>
        <time>2010-12-25T19:36:22Z</time>
      </trkpt>
      <trkpt lat="37.94823638163507" lon="-3.79241606220603">
        <ele>291.8974609</ele>
        <time>2010-12-25T19:36:29Z</time>
      </trkpt>
      <trkpt lat="37.946140235289931" lon="-3.791938126087189">
        <ele>288.05224609999999</ele>
        <time>2010-12-25T19:36:36Z</time>
      </trkpt>
      <trkpt lat="37.943902937695384" lon="-3.790999939665198">
        <ele>291.8974609</ele>
        <time>2010-12-25T19:36:44Z</time>
      </trkpt>
      <trkpt lat="37.940898276865482" lon="-3.789068078622222">
        <ele>306.7978516</ele>
        <time>2010-12-25T19:36:57Z</time>
      </trkpt>
      <trkpt lat="37.938278261572123" lon="-3.787215175107122">
        <ele>314.48840330000002</ele>
        <time>2010-12-25T19:37:08Z</time>
      </trkpt>
      <trkpt lat="37.935617174953222" lon="-3.785226065665484">
        <ele>318.33361819999999</ele>
        <time>2010-12-25T19:37:19Z</time>
      </trkpt>
      <trkpt lat="37.933616498485208" lon="-3.783945478498936">
        <ele>315.9304199</ele>
        <time>2010-12-25T19:37:27Z</time>
      </trkpt>
      <trkpt lat="37.931763762608171" lon="-3.783208541572094">
        <ele>313.52722169999998</ele>
        <time>2010-12-25T19:37:34Z</time>
      </trkpt>
      <trkpt lat="37.930128620937467" lon="-3.782911570742726">
        <ele>315.44982909999999</ele>
        <time>2010-12-25T19:37:40Z</time>
      </trkpt>
      <trkpt lat="37.928460789844394" lon="-3.782979296520352">
        <ele>319.2950439</ele>
        <time>2010-12-25T19:37:46Z</time>
      </trkpt>
      <trkpt lat="37.926784828305244" lon="-3.783414233475924">
        <ele>321.69836429999998</ele>
        <time>2010-12-25T19:37:52Z</time>
      </trkpt>
      <trkpt lat="37.92486822232604" lon="-3.784382930025458">
        <ele>321.69836429999998</ele>
        <time>2010-12-25T19:37:59Z</time>
      </trkpt>
      <trkpt lat="37.919587288051844" lon="-3.78787281922996">
        <ele>305.35595699999999</ele>
        <time>2010-12-25T19:38:19Z</time>
      </trkpt>
      <trkpt lat="37.917833123356104" lon="-3.788461564108729">
        <ele>305.35595699999999</ele>
        <time>2010-12-25T19:38:25Z</time>
      </trkpt>
      <trkpt lat="37.916047694161534" lon="-3.788594920188189">
        <ele>309.20117190000002</ele>
        <time>2010-12-25T19:38:31Z</time>
      </trkpt>
      <trkpt lat="37.914312221109867" lon="-3.78828763961792">
        <ele>312.56579590000001</ele>
        <time>2010-12-25T19:38:37Z</time>
      </trkpt>
      <trkpt lat="37.912654196843505" lon="-3.787562940269709">
        <ele>312.0852051</ele>
        <time>2010-12-25T19:38:43Z</time>
      </trkpt>
      <trkpt lat="37.910814620554447" lon="-3.786301799118519">
        <ele>309.20117190000002</ele>
        <time>2010-12-25T19:38:50Z</time>
      </trkpt>
      <trkpt lat="37.90818982757628" lon="-3.784446129575372">
        <ele>301.991333</ele>
        <time>2010-12-25T19:39:00Z</time>
      </trkpt>
      <trkpt lat="37.906221086159348" lon="-3.783466871827841">
        <ele>299.10729980000002</ele>
        <time>2010-12-25T19:39:07Z</time>
      </trkpt>
      <trkpt lat="37.890136633068323" lon="-3.779002167284489">
        <ele>312.0852051</ele>
        <time>2010-12-25T19:40:01Z</time>
      </trkpt>
      <trkpt lat="37.888145176693797" lon="-3.77807823009789">
        <ele>317.85302730000001</ele>
        <time>2010-12-25T19:40:08Z</time>
      </trkpt>
      <trkpt lat="37.886606426909566" lon="-3.776863776147366">
        <ele>318.8143311</ele>
        <time>2010-12-25T19:40:14Z</time>
      </trkpt>
      <trkpt lat="37.882960634306073" lon="-3.772664275020361">
        <ele>311.60449219999998</ele>
        <time>2010-12-25T19:40:30Z</time>
      </trkpt>
      <trkpt lat="37.881665965542197" lon="-3.771675126627088">
        <ele>312.56579590000001</ele>
        <time>2010-12-25T19:40:35Z</time>
      </trkpt>
      <trkpt lat="37.871375838294625" lon="-3.766507096588612">
        <ele>327.46618649999999</ele>
        <time>2010-12-25T19:41:12Z</time>
      </trkpt>
      <trkpt lat="37.86793272010982" lon="-3.764757458120585">
        <ele>327.46618649999999</ele>
        <time>2010-12-25T19:41:24Z</time>
      </trkpt>
      <trkpt lat="37.865938162431121" lon="-3.76405849121511">
        <ele>335.15673829999997</ele>
        <time>2010-12-25T19:41:31Z</time>
      </trkpt>
      <trkpt lat="37.863971181213856" lon="-3.763815332204104">
        <ele>343.32788090000003</ele>
        <time>2010-12-25T19:41:38Z</time>
      </trkpt>
      <trkpt lat="37.861965140327811" lon="-3.764000320807099">
        <ele>346.69262700000002</ele>
        <time>2010-12-25T19:41:45Z</time>
      </trkpt>
      <trkpt lat="37.856759224087" lon="-3.765268418937922">
        <ele>341.88598630000001</ele>
        <time>2010-12-25T19:42:02Z</time>
      </trkpt>
      <trkpt lat="37.854484962299466" lon="-3.765443433076143">
        <ele>347.17321779999997</ele>
        <time>2010-12-25T19:42:09Z</time>
      </trkpt>
      <trkpt lat="37.852260237559676" lon="-3.765261378139257">
        <ele>353.421875</ele>
        <time>2010-12-25T19:42:16Z</time>
      </trkpt>
      <trkpt lat="37.845860235393047" lon="-3.763853637501597">
        <ele>368.32226559999998</ele>
        <time>2010-12-25T19:42:37Z</time>
      </trkpt>
      <trkpt lat="37.842461625114083" lon="-3.763578627258539">
        <ele>372.64819340000003</ele>
        <time>2010-12-25T19:42:48Z</time>
      </trkpt>
      <trkpt lat="37.839322434738278" lon="-3.763777697458863">
        <ele>376.49353029999997</ele>
        <time>2010-12-25T19:42:58Z</time>
      </trkpt>
      <trkpt lat="37.836826974526048" lon="-3.764265021309257">
        <ele>376.49353029999997</ele>
        <time>2010-12-25T19:43:06Z</time>
      </trkpt>
      <trkpt lat="37.83035522326827" lon="-3.765984065830708">
        <ele>377.93542480000002</ele>
        <time>2010-12-25T19:43:27Z</time>
      </trkpt>
      <trkpt lat="37.827586764469743" lon="-3.766238121315837">
        <ele>382.26135249999999</ele>
        <time>2010-12-25T19:43:36Z</time>
      </trkpt>
      <trkpt lat="37.824816964566708" lon="-3.766109375283122">
        <ele>386.10668950000002</ele>
        <time>2010-12-25T19:43:45Z</time>
      </trkpt>
      <trkpt lat="37.820440521463752" lon="-3.765886919572949">
        <ele>385.6259766</ele>
        <time>2010-12-25T19:43:59Z</time>
      </trkpt>
      <trkpt lat="37.816052259877324" lon="-3.76581609249115">
        <ele>387.06799319999999</ele>
        <time>2010-12-25T19:44:13Z</time>
      </trkpt>
      <trkpt lat="37.813620334491134" lon="-3.765478217974305">
        <ele>389.95190430000002</ele>
        <time>2010-12-25T19:44:21Z</time>
      </trkpt>
      <trkpt lat="37.811511363834143" lon="-3.764815125614405">
        <ele>388.51000979999998</ele>
        <time>2010-12-25T19:44:28Z</time>
      </trkpt>
      <trkpt lat="37.809461485594511" lon="-3.763824719935656">
        <ele>386.58740230000001</ele>
        <time>2010-12-25T19:44:35Z</time>
      </trkpt>
      <trkpt lat="37.807217733934522" lon="-3.762327460572124">
        <ele>385.6259766</ele>
        <time>2010-12-25T19:44:43Z</time>
      </trkpt>
      <trkpt lat="37.803971758112311" lon="-3.759851530194283">
        <ele>388.02929690000002</ele>
        <time>2010-12-25T19:44:55Z</time>
      </trkpt>
      <trkpt lat="37.801976362243295" lon="-3.758830530568957">
        <ele>390.913208</ele>
        <time>2010-12-25T19:45:02Z</time>
      </trkpt>
      <trkpt lat="37.799893878400326" lon="-3.758204486221075">
        <ele>393.31652830000002</ele>
        <time>2010-12-25T19:45:09Z</time>
      </trkpt>
      <trkpt lat="37.797764874994755" lon="-3.757969541475177">
        <ele>395.23913570000002</ele>
        <time>2010-12-25T19:45:16Z</time>
      </trkpt>
      <trkpt lat="37.79198513366282" lon="-3.758222758769989">
        <ele>402.44909669999998</ele>
        <time>2010-12-25T19:45:35Z</time>
      </trkpt>
      <trkpt lat="37.789557985961437" lon="-3.757822522893548">
        <ele>406.29431149999999</ele>
        <time>2010-12-25T19:45:43Z</time>
      </trkpt>
      <trkpt lat="37.787484722211957" lon="-3.757120622321963">
        <ele>408.21704099999999</ele>
        <time>2010-12-25T19:45:50Z</time>
      </trkpt>
      <trkpt lat="37.785469461232424" lon="-3.756097862496972">
        <ele>405.33300780000002</ele>
        <time>2010-12-25T19:45:57Z</time>
      </trkpt>
      <trkpt lat="37.78328899294138" lon="-3.754576463252306">
        <ele>401.48779300000001</ele>
        <time>2010-12-25T19:46:05Z</time>
      </trkpt>
      <trkpt lat="37.780709294602275" lon="-3.752290969714522">
        <ele>397.6424561</ele>
        <time>2010-12-25T19:46:15Z</time>
      </trkpt>
      <trkpt lat="37.778321793302894" lon="-3.749668691307306">
        <ele>391.87451170000003</ele>
        <time>2010-12-25T19:46:25Z</time>
      </trkpt>
      <trkpt lat="37.776325475424528" lon="-3.746996959671378">
        <ele>388.51000979999998</ele>
        <time>2010-12-25T19:46:34Z</time>
      </trkpt>
      <trkpt lat="37.77455379255116" lon="-3.744112076237798">
        <ele>393.31652830000002</ele>
        <time>2010-12-25T19:46:43Z</time>
      </trkpt>
      <trkpt lat="37.773085869848728" lon="-3.741212775930762">
        <ele>405.33300780000002</ele>
        <time>2010-12-25T19:46:52Z</time>
      </trkpt>
      <trkpt lat="37.771757841110229" lon="-3.737999238073826">
        <ele>417.34960940000002</ele>
        <time>2010-12-25T19:47:02Z</time>
      </trkpt>
      <trkpt lat="37.770828036591411" lon="-3.734944285824895">
        <ele>423.11743159999997</ele>
        <time>2010-12-25T19:47:11Z</time>
      </trkpt>
      <trkpt lat="37.769714165478945" lon="-3.728987434878945">
        <ele>434.65332030000002</ele>
        <time>2010-12-25T19:47:27Z</time>
      </trkpt>
      <trkpt lat="37.768884440883994" lon="-3.726442186161876">
        <ele>437.0565186</ele>
        <time>2010-12-25T19:47:34Z</time>
      </trkpt>
      <trkpt lat="37.767735365778208" lon="-3.724121488630772">
        <ele>443.30505369999997</ele>
        <time>2010-12-25T19:47:41Z</time>
      </trkpt>
      <trkpt lat="37.766353525221348" lon="-3.722135564312339">
        <ele>454.84082030000002</ele>
        <time>2010-12-25T19:47:48Z</time>
      </trkpt>
      <trkpt lat="37.762875538319349" lon="-3.718523718416691">
        <ele>481.27722169999998</ele>
        <time>2010-12-25T19:48:04Z</time>
      </trkpt>
      <trkpt lat="37.761852778494358" lon="-3.716961331665516">
        <ele>489.92907709999997</ele>
        <time>2010-12-25T19:48:10Z</time>
      </trkpt>
      <trkpt lat="37.761049959808588" lon="-3.715168861672282">
        <ele>498.10034180000002</ele>
        <time>2010-12-25T19:48:16Z</time>
      </trkpt>
      <trkpt lat="37.760512763634324" lon="-3.713198695331812">
        <ele>507.71350100000001</ele>
        <time>2010-12-25T19:48:22Z</time>
      </trkpt>
      <trkpt lat="37.760015297681093" lon="-3.710110299289227">
        <ele>523.09460449999995</ele>
        <time>2010-12-25T19:48:31Z</time>
      </trkpt>
      <trkpt lat="37.759432923048735" lon="-3.707737466320396">
        <ele>530.78515630000004</ele>
        <time>2010-12-25T19:48:38Z</time>
      </trkpt>
      <trkpt lat="37.758547039702535" lon="-3.705425737425685">
        <ele>535.11096190000001</ele>
        <time>2010-12-25T19:48:45Z</time>
      </trkpt>
      <trkpt lat="37.757321521639824" lon="-3.703234288841486">
        <ele>537.03369139999995</ele>
        <time>2010-12-25T19:48:52Z</time>
      </trkpt>
      <trkpt lat="37.75579827837646" lon="-3.701249370351434">
        <ele>537.03369139999995</ele>
        <time>2010-12-25T19:48:59Z</time>
      </trkpt>
      <trkpt lat="37.753429217264056" lon="-3.698459789156914">
        <ele>535.59155269999997</ele>
        <time>2010-12-25T19:49:09Z</time>
      </trkpt>
      <trkpt lat="37.752419868484139" lon="-3.696798076853156">
        <ele>534.63037110000005</ele>
        <time>2010-12-25T19:49:14Z</time>
      </trkpt>
      <trkpt lat="37.751119583845139" lon="-3.693814035505056">
        <ele>531.2657471</ele>
        <time>2010-12-25T19:49:22Z</time>
      </trkpt>
      <trkpt lat="37.750018872320652" lon="-3.690730836242437">
        <ele>526.93981929999995</ele>
        <time>2010-12-25T19:49:30Z</time>
      </trkpt>
      <trkpt lat="37.748904330655932" lon="-3.688635779544711">
        <ele>524.53649900000005</ele>
        <time>2010-12-25T19:49:36Z</time>
      </trkpt>
      <trkpt lat="37.747713094577193" lon="-3.68713122792542">
        <ele>523.09460449999995</ele>
        <time>2010-12-25T19:49:41Z</time>
      </trkpt>
      <trkpt lat="37.746316837146878" lon="-3.685889029875398">
        <ele>522.61389159999999</ele>
        <time>2010-12-25T19:49:46Z</time>
      </trkpt>
      <trkpt lat="37.744750929996371" lon="-3.684981185942888">
        <ele>522.13317870000003</ele>
        <time>2010-12-25T19:49:51Z</time>
      </trkpt>
      <trkpt lat="37.743143029510975" lon="-3.684440888464451">
        <ele>521.1719971</ele>
        <time>2010-12-25T19:49:56Z</time>
      </trkpt>
      <trkpt lat="37.741157775744796" lon="-3.684221534058452">
        <ele>513.96203609999998</ele>
        <time>2010-12-25T19:50:02Z</time>
      </trkpt>
      <trkpt lat="37.739199427887797" lon="-3.684524120762944">
        <ele>500.50353999999999</ele>
        <time>2010-12-25T19:50:08Z</time>
      </trkpt>
      <trkpt lat="37.737038992345333" lon="-3.685242785140872">
        <ele>486.08374020000002</ele>
        <time>2010-12-25T19:50:15Z</time>
      </trkpt>
      <trkpt lat="37.735444838181138" lon="-3.685398520901799">
        <ele>480.31591800000001</ele>
        <time>2010-12-25T19:50:20Z</time>
      </trkpt>
      <trkpt lat="37.733836099505424" lon="-3.685110183432698">
        <ele>481.27722169999998</ele>
        <time>2010-12-25T19:50:25Z</time>
      </trkpt>
      <trkpt lat="37.732310928404331" lon="-3.684385316446424">
        <ele>482.71923829999997</ele>
        <time>2010-12-25T19:50:30Z</time>
      </trkpt>
      <trkpt lat="37.72086326032877" lon="-3.676680838689208">
        <ele>497.61962890000001</ele>
        <time>2010-12-25T19:51:10Z</time>
      </trkpt>
      <trkpt lat="37.718697460368276" lon="-3.675049971789122">
        <ele>499.54223630000001</ele>
        <time>2010-12-25T19:51:18Z</time>
      </trkpt>
      <trkpt lat="37.717820461839437" lon="-3.673944566398859">
        <ele>502.90673829999997</ele>
        <time>2010-12-25T19:51:22Z</time>
      </trkpt>
      <trkpt lat="37.717189891263843" lon="-3.672635732218623">
        <ele>509.1553955</ele>
        <time>2010-12-25T19:51:26Z</time>
      </trkpt>
      <trkpt lat="37.716736765578389" lon="-3.670872934162617">
        <ele>518.28784180000002</ele>
        <time>2010-12-25T19:51:31Z</time>
      </trkpt>
      <trkpt lat="37.716571977362037" lon="-3.668709229677916">
        <ele>527.42041019999999</ele>
        <time>2010-12-25T19:51:37Z</time>
      </trkpt>
      <trkpt lat="37.716413475573063" lon="-3.664452061057091">
        <ele>543.76281740000002</ele>
        <time>2010-12-25T19:51:49Z</time>
      </trkpt>
      <trkpt lat="37.716630734503269" lon="-3.661957522854209">
        <ele>549.53076169999997</ele>
        <time>2010-12-25T19:51:56Z</time>
      </trkpt>
      <trkpt lat="37.717115376144648" lon="-3.659812258556485">
        <ele>551.45336910000003</ele>
        <time>2010-12-25T19:52:02Z</time>
      </trkpt>
      <trkpt lat="37.718783458694816" lon="-3.65523842163384">
        <ele>563.95043950000002</ele>
        <time>2010-12-25T19:52:15Z</time>
      </trkpt>
      <trkpt lat="37.718959059566259" lon="-3.653798159211874">
        <ele>570.6796875</ele>
        <time>2010-12-25T19:52:19Z</time>
      </trkpt>
      <trkpt lat="37.71882033906877" lon="-3.652023123577237">
        <ele>578.85107419999997</ele>
        <time>2010-12-25T19:52:24Z</time>
      </trkpt>
      <trkpt lat="37.718300158157945" lon="-3.650344898924232">
        <ele>579.81225589999997</ele>
        <time>2010-12-25T19:52:29Z</time>
      </trkpt>
      <trkpt lat="37.717409916222095" lon="-3.648856859654188">
        <ele>577.88964840000006</ele>
        <time>2010-12-25T19:52:34Z</time>
      </trkpt>
      <trkpt lat="37.714026561006904" lon="-3.645357498899102">
        <ele>551.93408199999999</ele>
        <time>2010-12-25T19:52:48Z</time>
      </trkpt>
      <trkpt lat="37.710153199732304" lon="-3.640468334779143">
        <ele>525.01721190000001</ele>
        <time>2010-12-25T19:53:05Z</time>
      </trkpt>
      <trkpt lat="37.708583520725369" lon="-3.63916302099824">
        <ele>529.82373050000001</ele>
        <time>2010-12-25T19:53:11Z</time>
      </trkpt>
      <trkpt lat="37.703203679993749" lon="-3.636178895831108">
        <ele>559.14404300000001</ele>
        <time>2010-12-25T19:53:31Z</time>
      </trkpt>
      <trkpt lat="37.700742334127426" lon="-3.634957065805793">
        <ele>567.31518549999998</ele>
        <time>2010-12-25T19:53:40Z</time>
      </trkpt>
      <trkpt lat="37.698436640202999" lon="-3.634139159694314">
        <ele>579.33154300000001</ele>
        <time>2010-12-25T19:53:48Z</time>
      </trkpt>
      <trkpt lat="37.696465132758021" lon="-3.633265262469649">
        <ele>584.61889650000001</ele>
        <time>2010-12-25T19:53:55Z</time>
      </trkpt>
      <trkpt lat="37.694588759914041" lon="-3.632114427164197">
        <ele>584.13818360000005</ele>
        <time>2010-12-25T19:54:02Z</time>
      </trkpt>
      <trkpt lat="37.693223934620619" lon="-3.631631964817643">
        <ele>582.21557619999999</ele>
        <time>2010-12-25T19:54:07Z</time>
      </trkpt>
      <trkpt lat="37.690084492787719" lon="-3.631034335121512">
        <ele>577.40917969999998</ele>
        <time>2010-12-25T19:54:18Z</time>
      </trkpt>
      <trkpt lat="37.687957836315036" lon="-3.629783838987351">
        <ele>576.44775389999995</ele>
        <time>2010-12-25T19:54:26Z</time>
      </trkpt>
      <trkpt lat="37.6853106636554" lon="-3.629482677206397">
        <ele>577.88964840000006</ele>
        <time>2010-12-25T19:54:35Z</time>
      </trkpt>
      <trkpt lat="37.6824423763901" lon="-3.627636060118675">
        <ele>569.23779300000001</ele>
        <time>2010-12-25T19:54:46Z</time>
      </trkpt>
      <trkpt lat="37.679910622537136" lon="-3.626338876783848">
        <ele>568.27636719999998</ele>
        <time>2010-12-25T19:54:55Z</time>
      </trkpt>
      <trkpt lat="37.674036836251616" lon="-3.623858168721199">
        <ele>576.44775389999995</ele>
        <time>2010-12-25T19:55:15Z</time>
      </trkpt>
      <trkpt lat="37.672784328460693" lon="-3.622790733352304">
        <ele>580.29296880000004</ele>
        <time>2010-12-25T19:55:20Z</time>
      </trkpt>
      <trkpt lat="37.671159580349922" lon="-3.620988037437201">
        <ele>583.65747069999998</ele>
        <time>2010-12-25T19:55:27Z</time>
      </trkpt>
      <trkpt lat="37.670050738379359" lon="-3.620265685021877">
        <ele>585.58007810000004</ele>
        <time>2010-12-25T19:55:31Z</time>
      </trkpt>
      <trkpt lat="37.663967236876488" lon="-3.61744006164372">
        <ele>600</ele>
        <time>2010-12-25T19:55:52Z</time>
      </trkpt>
      <trkpt lat="37.662865184247494" lon="-3.616225188598037">
        <ele>603.84521480000001</ele>
        <time>2010-12-25T19:55:57Z</time>
      </trkpt>
      <trkpt lat="37.662012660875916" lon="-3.614789787679911">
        <ele>607.69067380000001</ele>
        <time>2010-12-25T19:56:02Z</time>
      </trkpt>
      <trkpt lat="37.659474285319448" lon="-3.61196206882596">
        <ele>612.97778319999998</ele>
        <time>2010-12-25T19:56:14Z</time>
      </trkpt>
      <trkpt lat="37.658675322309136" lon="-3.610440921038389">
        <ele>614.41967769999997</ele>
        <time>2010-12-25T19:56:19Z</time>
      </trkpt>
      <trkpt lat="37.657886669039726" lon="-3.608073787763715">
        <ele>616.82299799999998</ele>
        <time>2010-12-25T19:56:26Z</time>
      </trkpt>
      <trkpt lat="37.657180661335588" lon="-3.606662778183818">
        <ele>618.74560550000001</ele>
        <time>2010-12-25T19:56:31Z</time>
      </trkpt>
      <trkpt lat="37.656363593414426" lon="-3.605789383873344">
        <ele>621.14916989999995</ele>
        <time>2010-12-25T19:56:35Z</time>
      </trkpt>
      <trkpt lat="37.655368829146028" lon="-3.605212792754173">
        <ele>621.14916989999995</ele>
        <time>2010-12-25T19:56:39Z</time>
      </trkpt>
      <trkpt lat="37.654271973297" lon="-3.605031240731478">
        <ele>622.11035159999994</ele>
        <time>2010-12-25T19:56:43Z</time>
      </trkpt>
      <trkpt lat="37.653160197660327" lon="-3.605211535468698">
        <ele>622.11035159999994</ele>
        <time>2010-12-25T19:56:47Z</time>
      </trkpt>
      <trkpt lat="37.647548094391823" lon="-3.606880120933056">
        <ele>626.43627930000002</ele>
        <time>2010-12-25T19:57:07Z</time>
      </trkpt>
      <trkpt lat="37.645163694396615" lon="-3.607153370976448">
        <ele>638.45288089999997</ele>
        <time>2010-12-25T19:57:15Z</time>
      </trkpt>
      <trkpt lat="37.642237236723304" lon="-3.60707676038146">
        <ele>653.83398439999996</ele>
        <time>2010-12-25T19:57:25Z</time>
      </trkpt>
      <trkpt lat="37.639665836468339" lon="-3.606630759313703">
        <ele>661.04370119999999</ele>
        <time>2010-12-25T19:57:34Z</time>
      </trkpt>
      <trkpt lat="37.637475896626711" lon="-3.605919973924756">
        <ele>660.08227539999996</ele>
        <time>2010-12-25T19:57:42Z</time>
      </trkpt>
      <trkpt lat="37.634453382343054" lon="-3.605498364195228">
        <ele>662.96630860000005</ele>
        <time>2010-12-25T19:57:54Z</time>
      </trkpt>
      <trkpt lat="37.6331368368119" lon="-3.604952031746507">
        <ele>665.85034180000002</ele>
        <time>2010-12-25T19:58:00Z</time>
      </trkpt>
      <trkpt lat="37.631374290212989" lon="-3.603926841169596">
        <ele>671.61816409999994</ele>
        <time>2010-12-25T19:58:08Z</time>
      </trkpt>
      <trkpt lat="37.630196632817388" lon="-3.603625595569611">
        <ele>677.86669919999997</ele>
        <time>2010-12-25T19:58:13Z</time>
      </trkpt>
      <trkpt lat="37.621121797710657" lon="-3.60310566611588">
        <ele>699.97705080000003</ele>
        <time>2010-12-25T19:58:47Z</time>
      </trkpt>
      <trkpt lat="37.619834672659636" lon="-3.602549275383353">
        <ele>704.78369139999995</ele>
        <time>2010-12-25T19:58:52Z</time>
      </trkpt>
      <trkpt lat="37.618670258671045" lon="-3.601616537198424">
        <ele>709.10961910000003</ele>
        <time>2010-12-25T19:58:57Z</time>
      </trkpt>
      <trkpt lat="37.617274336516857" lon="-3.600615067407489">
        <ele>712.95483400000001</ele>
        <time>2010-12-25T19:59:03Z</time>
      </trkpt>
      <trkpt lat="37.616230538114905" lon="-3.600352797657251">
        <ele>714.87744139999995</ele>
        <time>2010-12-25T19:59:07Z</time>
      </trkpt>
      <trkpt lat="37.615155139937997" lon="-3.600465366616845">
        <ele>716.31958010000005</ele>
        <time>2010-12-25T19:59:11Z</time>
      </trkpt>
      <trkpt lat="37.610719269141555" lon="-3.602448524907231">
        <ele>724.49072269999999</ele>
        <time>2010-12-25T19:59:28Z</time>
      </trkpt>
      <trkpt lat="37.609399789944291" lon="-3.602547599002719">
        <ele>729.77783199999999</ele>
        <time>2010-12-25T19:59:33Z</time>
      </trkpt>
      <trkpt lat="37.608081987127662" lon="-3.602154739201069">
        <ele>731.70043950000002</ele>
        <time>2010-12-25T19:59:38Z</time>
      </trkpt>
      <trkpt lat="37.606550194323063" lon="-3.601328283548355">
        <ele>733.14257810000004</ele>
        <time>2010-12-25T19:59:44Z</time>
      </trkpt>
      <trkpt lat="37.604675497859716" lon="-3.600651863962412">
        <ele>736.02661130000001</ele>
        <time>2010-12-25T19:59:51Z</time>
      </trkpt>
      <trkpt lat="37.603068687021732" lon="-3.600331339985132">
        <ele>738.91064449999999</ele>
        <time>2010-12-25T19:59:57Z</time>
      </trkpt>
      <trkpt lat="37.601770916953683" lon="-3.600507359951735">
        <ele>742.75585939999996</ele>
        <time>2010-12-25T20:00:02Z</time>
      </trkpt>
      <trkpt lat="37.600272484123707" lon="-3.601197693496943">
        <ele>747.08154300000001</ele>
        <time>2010-12-25T20:00:08Z</time>
      </trkpt>
      <trkpt lat="37.597636459395289" lon="-3.602456739172339">
        <ele>748.04321289999996</ele>
        <time>2010-12-25T20:00:18Z</time>
      </trkpt>
      <trkpt lat="37.59621312841773" lon="-3.60276653431356">
        <ele>748.04321289999996</ele>
        <time>2010-12-25T20:00:23Z</time>
      </trkpt>
      <trkpt lat="37.591794189065695" lon="-3.602417260408402">
        <ele>759.57885739999995</ele>
        <time>2010-12-25T20:00:38Z</time>
      </trkpt>
      <trkpt lat="37.58882699534297" lon="-3.602393371984363">
        <ele>768.23071289999996</ele>
        <time>2010-12-25T20:00:48Z</time>
      </trkpt>
      <trkpt lat="37.586723724380136" lon="-3.602058934047818">
        <ele>770.63403319999998</ele>
        <time>2010-12-25T20:00:55Z</time>
      </trkpt>
      <trkpt lat="37.585272481665015" lon="-3.602021718397737">
        <ele>774.47924799999998</ele>
        <time>2010-12-25T20:01:00Z</time>
      </trkpt>
      <trkpt lat="37.584194736555219" lon="-3.602438634261489">
        <ele>776.88256839999997</ele>
        <time>2010-12-25T20:01:04Z</time>
      </trkpt>
      <trkpt lat="37.583280187100172" lon="-3.603194262832403">
        <ele>779.28564449999999</ele>
        <time>2010-12-25T20:01:08Z</time>
      </trkpt>
      <trkpt lat="37.582170758396387" lon="-3.604610217735171">
        <ele>784.09252930000002</ele>
        <time>2010-12-25T20:01:14Z</time>
      </trkpt>
      <trkpt lat="37.581152692437172" lon="-3.605579417198896">
        <ele>787.93774410000003</ele>
        <time>2010-12-25T20:01:19Z</time>
      </trkpt>
      <trkpt lat="37.579926839098334" lon="-3.606172269210219">
        <ele>792.26367189999996</ele>
        <time>2010-12-25T20:01:24Z</time>
      </trkpt>
      <trkpt lat="37.57857852615416" lon="-3.606322640553117">
        <ele>798.03173830000003</ele>
        <time>2010-12-25T20:01:29Z</time>
      </trkpt>
      <trkpt lat="37.576951682567596" lon="-3.606587760150433">
        <ele>803.31884769999999</ele>
        <time>2010-12-25T20:01:35Z</time>
      </trkpt>
      <trkpt lat="37.575931521132588" lon="-3.607133673503995">
        <ele>806.68334960000004</ele>
        <time>2010-12-25T20:01:39Z</time>
      </trkpt>
      <trkpt lat="37.575036836788058" lon="-3.608006564900279">
        <ele>809.08666989999995</ele>
        <time>2010-12-25T20:01:43Z</time>
      </trkpt>
      <trkpt lat="37.573696067556739" lon="-3.609942616894841">
        <ele>812.45141599999999</ele>
        <time>2010-12-25T20:01:50Z</time>
      </trkpt>
      <trkpt lat="37.57165658287704" lon="-3.614565320312977">
        <ele>822.06445310000004</ele>
        <time>2010-12-25T20:02:04Z</time>
      </trkpt>
      <trkpt lat="37.570829037576914" lon="-3.615654464811087">
        <ele>825.42895510000005</ele>
        <time>2010-12-25T20:02:08Z</time>
      </trkpt>
      <trkpt lat="37.569304285570979" lon="-3.617333695292473">
        <ele>829.27441409999994</ele>
        <time>2010-12-25T20:02:15Z</time>
      </trkpt>
      <trkpt lat="37.568046664819121" lon="-3.619371587410569">
        <ele>833.11962889999995</ele>
        <time>2010-12-25T20:02:22Z</time>
      </trkpt>
      <trkpt lat="37.566772364079952" lon="-3.620940092951059">
        <ele>838.40698239999995</ele>
        <time>2010-12-25T20:02:28Z</time>
      </trkpt>
      <trkpt lat="37.562446128576994" lon="-3.625058373436332">
        <ele>869.64990230000001</ele>
        <time>2010-12-25T20:02:47Z</time>
      </trkpt>
      <trkpt lat="37.561201918870211" lon="-3.625713167712092">
        <ele>877.82104489999995</ele>
        <time>2010-12-25T20:02:52Z</time>
      </trkpt>
      <trkpt lat="37.559884367510676" lon="-3.625943334773183">
        <ele>885.9921875</ele>
        <time>2010-12-25T20:02:57Z</time>
      </trkpt>
      <trkpt lat="37.557522431015968" lon="-3.626157240942121">
        <ele>898.96997069999998</ele>
        <time>2010-12-25T20:03:06Z</time>
      </trkpt>
      <trkpt lat="37.556305630132556" lon="-3.62672058865428">
        <ele>906.66040039999996</ele>
        <time>2010-12-25T20:03:11Z</time>
      </trkpt>
      <trkpt lat="37.553340280428529" lon="-3.629184532910585">
        <ele>927.80957030000002</ele>
        <time>2010-12-25T20:03:25Z</time>
      </trkpt>
      <trkpt lat="37.551343962550163" lon="-3.630560589954257">
        <ele>939.34521480000001</ele>
        <time>2010-12-25T20:03:34Z</time>
      </trkpt>
      <trkpt lat="37.548645995557308" lon="-3.633529962971807">
        <ele>961.45581049999998</ele>
        <time>2010-12-25T20:03:48Z</time>
      </trkpt>
      <trkpt lat="37.547237332910299" lon="-3.634478040039539">
        <ele>970.10742189999996</ele>
        <time>2010-12-25T20:03:54Z</time>
      </trkpt>
      <trkpt lat="37.54566254094243" lon="-3.634991934522986">
        <ele>979.23999019999997</ele>
        <time>2010-12-25T20:04:00Z</time>
      </trkpt>
      <trkpt lat="37.54208036698401" lon="-3.635088661685586">
        <ele>998.46630860000005</ele>
        <time>2010-12-25T20:04:13Z</time>
      </trkpt>
      <trkpt lat="37.538585783913732" lon="-3.636047383770347">
        <ele>1021.5380859000001</ele>
        <time>2010-12-25T20:04:26Z</time>
      </trkpt>
      <trkpt lat="37.532968819141388" lon="-3.636137992143631">
        <ele>1049.4162598</ele>
        <time>2010-12-25T20:04:46Z</time>
      </trkpt>
      <trkpt lat="37.530551394447684" lon="-3.636451223865151">
        <ele>1047.0129394999999</ele>
        <time>2010-12-25T20:04:54Z</time>
      </trkpt>
      <trkpt lat="37.52797856926918" lon="-3.63688993267715">
        <ele>1034.0351562999999</ele>
        <time>2010-12-25T20:05:02Z</time>
      </trkpt>
      <trkpt lat="37.516926527023315" lon="-3.638076474890113">
        <ele>994.140625</ele>
        <time>2010-12-25T20:05:36Z</time>
      </trkpt>
      <trkpt lat="37.515373192727566" lon="-3.637831639498472">
        <ele>990.77587889999995</ele>
        <time>2010-12-25T20:05:41Z</time>
      </trkpt>
      <trkpt lat="37.513859337195754" lon="-3.637099396437407">
        <ele>987.89184569999998</ele>
        <time>2010-12-25T20:05:46Z</time>
      </trkpt>
      <trkpt lat="37.511214260011911" lon="-3.635394684970379">
        <ele>985.00805660000003</ele>
        <time>2010-12-25T20:05:55Z</time>
      </trkpt>
      <trkpt lat="37.50868602655828" lon="-3.633373472839594">
        <ele>980.20141599999999</ele>
        <time>2010-12-25T20:06:04Z</time>
      </trkpt>
      <trkpt lat="37.506013959646225" lon="-3.631400037556887">
        <ele>973.47241210000004</ele>
        <time>2010-12-25T20:06:13Z</time>
      </trkpt>
      <trkpt lat="37.503244578838348" lon="-3.629631958901882">
        <ele>961.93652340000006</ele>
        <time>2010-12-25T20:06:22Z</time>
      </trkpt>
      <trkpt lat="37.491458365693688" lon="-3.622592836618424">
        <ele>952.80371090000006</ele>
        <time>2010-12-25T20:07:01Z</time>
      </trkpt>
      <trkpt lat="37.490217760205269" lon="-3.62122792750597">
        <ele>952.32299799999998</ele>
        <time>2010-12-25T20:07:06Z</time>
      </trkpt>
      <trkpt lat="37.489493060857058" lon="-3.619881961494684">
        <ele>951.84252930000002</ele>
        <time>2010-12-25T20:07:10Z</time>
      </trkpt>
      <trkpt lat="37.489032140001655" lon="-3.618370536714792">
        <ele>952.80371090000006</ele>
        <time>2010-12-25T20:07:14Z</time>
      </trkpt>
      <trkpt lat="37.488867938518524" lon="-3.616762636229396">
        <ele>952.80371090000006</ele>
        <time>2010-12-25T20:07:18Z</time>
      </trkpt>
      <trkpt lat="37.48928502202034" lon="-3.610853059217334">
        <ele>952.80371090000006</ele>
        <time>2010-12-25T20:07:33Z</time>
      </trkpt>
      <trkpt lat="37.4890470597893" lon="-3.608974423259497">
        <ele>954.24584960000004</ele>
        <time>2010-12-25T20:07:38Z</time>
      </trkpt>
      <trkpt lat="37.48849293217063" lon="-3.607188323512673">
        <ele>955.20703130000004</ele>
        <time>2010-12-25T20:07:43Z</time>
      </trkpt>
      <trkpt lat="37.486466439440846" lon="-3.603370534256101">
        <ele>959.05249019999997</ele>
        <time>2010-12-25T20:07:55Z</time>
      </trkpt>
      <trkpt lat="37.486038375645876" lon="-3.601588374003768">
        <ele>960.97509769999999</ele>
        <time>2010-12-25T20:08:00Z</time>
      </trkpt>
      <trkpt lat="37.486000992357731" lon="-3.600093461573124">
        <ele>962.89770510000005</ele>
        <time>2010-12-25T20:08:04Z</time>
      </trkpt>
      <trkpt lat="37.486306596547365" lon="-3.598259082064033">
        <ele>965.78173830000003</ele>
        <time>2010-12-25T20:08:09Z</time>
      </trkpt>
      <trkpt lat="37.486942363902926" lon="-3.596575660631061">
        <ele>968.66552730000001</ele>
        <time>2010-12-25T20:08:14Z</time>
      </trkpt>
      <trkpt lat="37.490179622545838" lon="-3.589337468147278">
        <ele>993.17919919999997</ele>
        <time>2010-12-25T20:08:37Z</time>
      </trkpt>
      <trkpt lat="37.490638196468353" lon="-3.587338635697961">
        <ele>1000.3891602</ele>
        <time>2010-12-25T20:08:43Z</time>
      </trkpt>
      <trkpt lat="37.490714890882373" lon="-3.585620932281017">
        <ele>1005.6765137</ele>
        <time>2010-12-25T20:08:48Z</time>
      </trkpt>
      <trkpt lat="37.49046016484499" lon="-3.583596870303154">
        <ele>1011.9250488</ele>
        <time>2010-12-25T20:08:54Z</time>
      </trkpt>
      <trkpt lat="37.489843340590596" lon="-3.581706918776035">
        <ele>1018.1733398</ele>
        <time>2010-12-25T20:09:00Z</time>
      </trkpt>
      <trkpt lat="37.488895934075117" lon="-3.580041937530041">
        <ele>1024.902832</ele>
        <time>2010-12-25T20:09:06Z</time>
      </trkpt>
      <trkpt lat="37.487343186512589" lon="-3.578114099800587">
        <ele>1034.0351562999999</ele>
        <time>2010-12-25T20:09:14Z</time>
      </trkpt>
      <trkpt lat="37.485842490568757" lon="-3.576001776382327">
        <ele>1036.9191894999999</ele>
        <time>2010-12-25T20:09:22Z</time>
      </trkpt>
      <trkpt lat="37.48417348600924" lon="-3.573320740833879">
        <ele>1031.1513672000001</ele>
        <time>2010-12-25T20:09:31Z</time>
      </trkpt>
      <trkpt lat="37.482976634055376" lon="-3.571986090391874">
        <ele>1024.4221190999999</ele>
        <time>2010-12-25T20:09:36Z</time>
      </trkpt>
      <trkpt lat="37.48160133138299" lon="-3.570930222049356">
        <ele>1018.1733398</ele>
        <time>2010-12-25T20:09:41Z</time>
      </trkpt>
      <trkpt lat="37.480100132524967" lon="-3.570203762501478">
        <ele>1011.9250488</ele>
        <time>2010-12-25T20:09:46Z</time>
      </trkpt>
      <trkpt lat="37.47853179462254" lon="-3.569820793345571">
        <ele>1005.6765137</ele>
        <time>2010-12-25T20:09:51Z</time>
      </trkpt>
      <trkpt lat="37.476611165329814" lon="-3.569838982075453">
        <ele>998.94702150000001</ele>
        <time>2010-12-25T20:09:57Z</time>
      </trkpt>
      <trkpt lat="37.471509268507361" lon="-3.571147732436657">
        <ele>992.21801760000005</ele>
        <time>2010-12-25T20:10:13Z</time>
      </trkpt>
      <trkpt lat="37.470239158719778" lon="-3.571037678048015">
        <ele>997.02441409999994</ele>
        <time>2010-12-25T20:10:17Z</time>
      </trkpt>
      <trkpt lat="37.469025794416666" lon="-3.570579020306468">
        <ele>999.42773439999996</ele>
        <time>2010-12-25T20:10:21Z</time>
      </trkpt>
      <trkpt lat="37.467923238873482" lon="-3.569755665957928">
        <ele>998.46630860000005</ele>
        <time>2010-12-25T20:10:25Z</time>
      </trkpt>
      <trkpt lat="37.466979520395398" lon="-3.568622265011072">
        <ele>997.50512700000002</ele>
        <time>2010-12-25T20:10:29Z</time>
      </trkpt>
      <trkpt lat="37.466055080294609" lon="-3.566854521632195">
        <ele>992.69873050000001</ele>
        <time>2010-12-25T20:10:34Z</time>
      </trkpt>
      <trkpt lat="37.464706683531404" lon="-3.564425865188241">
        <ele>982.12402340000006</ele>
        <time>2010-12-25T20:10:41Z</time>
      </trkpt>
      <trkpt lat="37.46367109939456" lon="-3.563422467559576">
        <ele>975.87548830000003</ele>
        <time>2010-12-25T20:10:45Z</time>
      </trkpt>
      <trkpt lat="37.462468799203634" lon="-3.562755435705185">
        <ele>968.66552730000001</ele>
        <time>2010-12-25T20:10:49Z</time>
      </trkpt>
      <trkpt lat="37.461181087419391" lon="-3.562495093792677">
        <ele>962.41699219999998</ele>
        <time>2010-12-25T20:10:53Z</time>
      </trkpt>
      <trkpt lat="37.456157393753529" lon="-3.563243430107832">
        <ele>941.74877930000002</ele>
        <time>2010-12-25T20:11:08Z</time>
      </trkpt>
      <trkpt lat="37.454057475551963" lon="-3.563170926645398">
        <ele>935.98071289999996</ele>
        <time>2010-12-25T20:11:14Z</time>
      </trkpt>
      <trkpt lat="37.452306160703301" lon="-3.562775384634733">
        <ele>935.01953130000004</ele>
        <time>2010-12-25T20:11:19Z</time>
      </trkpt>
      <trkpt lat="37.450302466750145" lon="-3.561909534037113">
        <ele>936.46142580000003</ele>
        <time>2010-12-25T20:11:25Z</time>
      </trkpt>
      <trkpt lat="37.445676159113646" lon="-3.559169573709369">
        <ele>947.03588869999999</ele>
        <time>2010-12-25T20:11:40Z</time>
      </trkpt>
      <trkpt lat="37.444091141223907" lon="-3.558780234307051">
        <ele>954.24584960000004</ele>
        <time>2010-12-25T20:11:45Z</time>
      </trkpt>
      <trkpt lat="37.442513834685087" lon="-3.558795992285013">
        <ele>960.97509769999999</ele>
        <time>2010-12-25T20:11:50Z</time>
      </trkpt>
      <trkpt lat="37.440996039658785" lon="-3.559184577316046">
        <ele>963.85888669999997</ele>
        <time>2010-12-25T20:11:55Z</time>
      </trkpt>
      <trkpt lat="37.439579330384731" lon="-3.559935763478279">
        <ele>968.66552730000001</ele>
        <time>2010-12-25T20:12:00Z</time>
      </trkpt>
      <trkpt lat="37.438288265839219" lon="-3.561021387577057">
        <ele>972.03027340000006</ele>
        <time>2010-12-25T20:12:05Z</time>
      </trkpt>
      <trkpt lat="37.436314160004258" lon="-3.563009994104505">
        <ele>970.10742189999996</ele>
        <time>2010-12-25T20:12:13Z</time>
      </trkpt>
      <trkpt lat="37.435218058526516" lon="-3.563746260479093">
        <ele>967.22363280000002</ele>
        <time>2010-12-25T20:12:17Z</time>
      </trkpt>
      <trkpt lat="37.433980470523238" lon="-3.564166696742177">
        <ele>964.33959960000004</ele>
        <time>2010-12-25T20:12:21Z</time>
      </trkpt>
      <trkpt lat="37.432670965790749" lon="-3.564209025353193">
        <ele>961.45581049999998</ele>
        <time>2010-12-25T20:12:25Z</time>
      </trkpt>
      <trkpt lat="37.431377721950412" lon="-3.563847681507468">
        <ele>959.53320310000004</ele>
        <time>2010-12-25T20:12:29Z</time>
      </trkpt>
      <trkpt lat="37.429886665195227" lon="-3.562875464558601">
        <ele>954.72631839999997</ele>
        <time>2010-12-25T20:12:34Z</time>
      </trkpt>
      <trkpt lat="37.428535670042038" lon="-3.561502927914262">
        <ele>948.47778319999998</ele>
        <time>2010-12-25T20:12:39Z</time>
      </trkpt>
      <trkpt lat="37.424901863560081" lon="-3.556993799284101">
        <ele>930.69360349999999</ele>
        <time>2010-12-25T20:12:54Z</time>
      </trkpt>
      <trkpt lat="37.423567632213235" lon="-3.555886298418045">
        <ele>924.44506839999997</ele>
        <time>2010-12-25T20:12:59Z</time>
      </trkpt>
      <trkpt lat="37.422088477760553" lon="-3.555164532735944">
        <ele>918.19628909999994</ele>
        <time>2010-12-25T20:13:04Z</time>
      </trkpt>
      <trkpt lat="37.420521061867476" lon="-3.554939227178693">
        <ele>914.35107419999997</ele>
        <time>2010-12-25T20:13:09Z</time>
      </trkpt>
      <trkpt lat="37.418966386467218" lon="-3.555220691487193">
        <ele>908.58325200000002</ele>
        <time>2010-12-25T20:13:14Z</time>
      </trkpt>
      <trkpt lat="37.417574236169457" lon="-3.555949917063117">
        <ele>902.81518549999998</ele>
        <time>2010-12-25T20:13:19Z</time>
      </trkpt>
      <trkpt lat="37.416404373943806" lon="-3.55703336186707">
        <ele>897.52807619999999</ele>
        <time>2010-12-25T20:13:24Z</time>
      </trkpt>
      <trkpt lat="37.415483118966222" lon="-3.558395337313414">
        <ele>892.72167969999998</ele>
        <time>2010-12-25T20:13:29Z</time>
      </trkpt>
      <trkpt lat="37.413681177422404" lon="-3.562220837920904">
        <ele>883.58886719999998</ele>
        <time>2010-12-25T20:13:42Z</time>
      </trkpt>
      <trkpt lat="37.41278582252562" lon="-3.563278969377279">
        <ele>882.14697269999999</ele>
        <time>2010-12-25T20:13:47Z</time>
      </trkpt>
      <trkpt lat="37.411506995558739" lon="-3.564172899350524">
        <ele>878.30175780000002</ele>
        <time>2010-12-25T20:13:53Z</time>
      </trkpt>
      <trkpt lat="37.410330763086677" lon="-3.564568441361189">
        <ele>875.41748050000001</ele>
        <time>2010-12-25T20:13:58Z</time>
      </trkpt>
      <trkpt lat="37.409221418201923" lon="-3.564680926501751">
        <ele>874.45629880000001</ele>
        <time>2010-12-25T20:14:03Z</time>
      </trkpt>
      <trkpt lat="37.409026036038995" lon="-3.564716465771198">
        <ele>873.97558590000006</ele>
        <time>2010-12-25T20:14:04Z</time>
      </trkpt>
      <trkpt lat="37.407550485804677" lon="-3.565633529797196">
        <ele>866.28515630000004</ele>
        <time>2010-12-25T20:14:13Z</time>
      </trkpt>
      <trkpt lat="37.406219774857163" lon="-3.566118339076638">
        <ele>860.99804689999996</ele>
        <time>2010-12-25T20:14:23Z</time>
      </trkpt>
      <trkpt lat="37.405877290293574" lon="-3.56606611981988">
        <ele>860.99804689999996</ele>
        <time>2010-12-25T20:14:28Z</time>
      </trkpt>
      <trkpt lat="37.406056579202414" lon="-3.564864741638303">
        <ele>858.11401369999999</ele>
        <time>2010-12-25T20:14:42Z</time>
      </trkpt>
      <trkpt lat="37.405466074123979" lon="-3.563843658193946">
        <ele>857.63330080000003</ele>
        <time>2010-12-25T20:14:48Z</time>
      </trkpt>
      <trkpt lat="37.404731987044215" lon="-3.562365593388677">
        <ele>854.74926760000005</ele>
        <time>2010-12-25T20:14:55Z</time>
      </trkpt>
      <trkpt lat="37.40086323581636" lon="-3.554497165605426">
        <ele>837.44555660000003</ele>
        <time>2010-12-25T20:15:28Z</time>
      </trkpt>
      <trkpt lat="37.399749783799052" lon="-3.551984941586852">
        <ele>833.11962889999995</ele>
        <time>2010-12-25T20:15:38Z</time>
      </trkpt>
      <trkpt lat="37.399468738585711" lon="-3.550352398306131">
        <ele>829.75512700000002</ele>
        <time>2010-12-25T20:15:44Z</time>
      </trkpt>
      <trkpt lat="37.399547779932618" lon="-3.548866789788008">
        <ele>826.39038089999997</ele>
        <time>2010-12-25T20:15:49Z</time>
      </trkpt>
      <trkpt lat="37.402480859309435" lon="-3.535755984485149">
        <ele>834.08105469999998</ele>
        <time>2010-12-25T20:16:30Z</time>
      </trkpt>
      <trkpt lat="37.402550177648664" lon="-3.533555818721652">
        <ele>827.83227539999996</ele>
        <time>2010-12-25T20:16:37Z</time>
      </trkpt>
      <trkpt lat="37.401287024840713" lon="-3.525149021297693">
        <ele>798.99291989999995</ele>
        <time>2010-12-25T20:17:02Z</time>
      </trkpt>
      <trkpt lat="37.401454830542207" lon="-3.523697694763541">
        <ele>796.58984380000004</ele>
        <time>2010-12-25T20:17:07Z</time>
      </trkpt>
      <trkpt lat="37.403441341593862" lon="-3.518632929772139">
        <ele>785.05395510000005</ele>
        <time>2010-12-25T20:17:25Z</time>
      </trkpt>
      <trkpt lat="37.404140140861273" lon="-3.513198690488935">
        <ele>791.30224610000005</ele>
        <time>2010-12-25T20:17:42Z</time>
      </trkpt>
      <trkpt lat="37.404549261555076" lon="-3.512074677273631">
        <ele>792.74438480000003</ele>
        <time>2010-12-25T20:17:46Z</time>
      </trkpt>
      <trkpt lat="37.405312936753035" lon="-3.510850835591555">
        <ele>792.26367189999996</ele>
        <time>2010-12-25T20:17:51Z</time>
      </trkpt>
      <trkpt lat="37.405891958624125" lon="-3.509758338332176">
        <ele>791.30224610000005</ele>
        <time>2010-12-25T20:17:56Z</time>
      </trkpt>
      <trkpt lat="37.406094297766685" lon="-3.50877589546144">
        <ele>789.37963869999999</ele>
        <time>2010-12-25T20:18:00Z</time>
      </trkpt>
      <trkpt lat="37.405684338882565" lon="-3.50511115975678">
        <ele>788.89916989999995</ele>
        <time>2010-12-25T20:18:13Z</time>
      </trkpt>
      <trkpt lat="37.40567771717906" lon="-3.503531087189913">
        <ele>791.30224610000005</ele>
        <time>2010-12-25T20:18:19Z</time>
      </trkpt>
      <trkpt lat="37.406009724363685" lon="-3.502282099798322">
        <ele>793.22485349999999</ele>
        <time>2010-12-25T20:18:24Z</time>
      </trkpt>
      <trkpt lat="37.406710535287857" lon="-3.501050462946296">
        <ele>794.66674799999998</ele>
        <time>2010-12-25T20:18:30Z</time>
      </trkpt>
      <trkpt lat="37.409527776762843" lon="-3.49792686291039">
        <ele>800.91552730000001</ele>
        <time>2010-12-25T20:18:47Z</time>
      </trkpt>
      <trkpt lat="37.410289691761136" lon="-3.496469166129828">
        <ele>802.83813480000003</ele>
        <time>2010-12-25T20:18:53Z</time>
      </trkpt>
      <trkpt lat="37.410648185759783" lon="-3.494799993932247">
        <ele>809.56738280000002</ele>
        <time>2010-12-25T20:18:59Z</time>
      </trkpt>
      <trkpt lat="37.410616083070636" lon="-3.493315223604441">
        <ele>817.73852539999996</ele>
        <time>2010-12-25T20:19:04Z</time>
      </trkpt>
      <trkpt lat="37.410265216603875" lon="-3.491870267316699">
        <ele>824.94848630000001</ele>
        <time>2010-12-25T20:19:09Z</time>
      </trkpt>
      <trkpt lat="37.409627521410584" lon="-3.490610718727112">
        <ele>833.11962889999995</ele>
        <time>2010-12-25T20:19:14Z</time>
      </trkpt>
      <trkpt lat="37.407670766115189" lon="-3.488066140562296">
        <ele>845.13623050000001</ele>
        <time>2010-12-25T20:19:26Z</time>
      </trkpt>
      <trkpt lat="37.407197523862123" lon="-3.486797288060188">
        <ele>852.34594730000003</ele>
        <time>2010-12-25T20:19:31Z</time>
      </trkpt>
      <trkpt lat="37.407018737867475" lon="-3.485377058386803">
        <ele>859.55590819999998</ele>
        <time>2010-12-25T20:19:36Z</time>
      </trkpt>
      <trkpt lat="37.407112196087837" lon="-3.483609985560179">
        <ele>868.68847659999994</ele>
        <time>2010-12-25T20:19:42Z</time>
      </trkpt>
      <trkpt lat="37.406995436176658" lon="-3.482426879927516">
        <ele>875.41748050000001</ele>
        <time>2010-12-25T20:19:46Z</time>
      </trkpt>
      <trkpt lat="37.406203094869852" lon="-3.48060691729188">
        <ele>885.9921875</ele>
        <time>2010-12-25T20:19:53Z</time>
      </trkpt>
      <trkpt lat="37.405069274827838" lon="-3.479537637904286">
        <ele>894.64404300000001</ele>
        <time>2010-12-25T20:19:59Z</time>
      </trkpt>
      <trkpt lat="37.40233987569809" lon="-3.477515168488026">
        <ele>909.06396480000001</ele>
        <time>2010-12-25T20:20:12Z</time>
      </trkpt>
      <trkpt lat="37.39993586204946" lon="-3.475682884454727">
        <ele>912.90917969999998</ele>
        <time>2010-12-25T20:20:23Z</time>
      </trkpt>
      <trkpt lat="37.397603765130043" lon="-3.473882619291544">
        <ele>912.90917969999998</ele>
        <time>2010-12-25T20:20:34Z</time>
      </trkpt>
      <trkpt lat="37.396232569590211" lon="-3.472498683258891">
        <ele>914.83178710000004</ele>
        <time>2010-12-25T20:20:41Z</time>
      </trkpt>
      <trkpt lat="37.395131019875407" lon="-3.470850717276335">
        <ele>916.27368160000003</ele>
        <time>2010-12-25T20:20:48Z</time>
      </trkpt>
      <trkpt lat="37.394277071580291" lon="-3.468900499865413">
        <ele>918.19628909999994</ele>
        <time>2010-12-25T20:20:55Z</time>
      </trkpt>
      <trkpt lat="37.393064461648464" lon="-3.463256964460015">
        <ele>925.40625</ele>
        <time>2010-12-25T20:21:13Z</time>
      </trkpt>
      <trkpt lat="37.392345378175378" lon="-3.459272878244519">
        <ele>929.25146480000001</ele>
        <time>2010-12-25T20:21:25Z</time>
      </trkpt>
      <trkpt lat="37.392065841704607" lon="-3.457057038322091">
        <ele>928.77099610000005</ele>
        <time>2010-12-25T20:21:32Z</time>
      </trkpt>
      <trkpt lat="37.392190480604768" lon="-3.455481659621">
        <ele>932.13549799999998</ele>
        <time>2010-12-25T20:21:37Z</time>
      </trkpt>
      <trkpt lat="37.393127325922251" lon="-3.451379640027881">
        <ele>937.42260739999995</ele>
        <time>2010-12-25T20:21:52Z</time>
      </trkpt>
      <trkpt lat="37.393257999792695" lon="-3.449720358476043">
        <ele>941.26806639999995</ele>
        <time>2010-12-25T20:21:58Z</time>
      </trkpt>
      <trkpt lat="37.393608782440424" lon="-3.448347318917513">
        <ele>946.55541989999995</ele>
        <time>2010-12-25T20:22:03Z</time>
      </trkpt>
      <trkpt lat="37.394506316632032" lon="-3.445843141525984">
        <ele>954.24584960000004</ele>
        <time>2010-12-25T20:22:12Z</time>
      </trkpt>
      <trkpt lat="37.39662098698318" lon="-3.439636258408427">
        <ele>963.85888669999997</ele>
        <time>2010-12-25T20:22:32Z</time>
      </trkpt>
      <trkpt lat="37.396823577582836" lon="-3.437632732093334">
        <ele>965.78173830000003</ele>
        <time>2010-12-25T20:22:38Z</time>
      </trkpt>
      <trkpt lat="37.396677732467651" lon="-3.435415299609304">
        <ele>968.18481450000002</ele>
        <time>2010-12-25T20:22:45Z</time>
      </trkpt>
      <trkpt lat="37.39632192067802" lon="-3.431884674355388">
        <ele>971.54931639999995</ele>
        <time>2010-12-25T20:22:56Z</time>
      </trkpt>
      <trkpt lat="37.396412277594209" lon="-3.43031826429069">
        <ele>973.47241210000004</ele>
        <time>2010-12-25T20:23:01Z</time>
      </trkpt>
      <trkpt lat="37.397430678829551" lon="-3.42657926492393">
        <ele>981.16284180000002</ele>
        <time>2010-12-25T20:23:14Z</time>
      </trkpt>
      <trkpt lat="37.397408885881305" lon="-3.425173368304968">
        <ele>984.04663089999997</ele>
        <time>2010-12-25T20:23:19Z</time>
      </trkpt>
      <trkpt lat="37.397123733535409" lon="-3.422215227037668">
        <ele>988.85351560000004</ele>
        <time>2010-12-25T20:23:29Z</time>
      </trkpt>
      <trkpt lat="37.397191040217876" lon="-3.420366682112217">
        <ele>992.21801760000005</ele>
        <time>2010-12-25T20:23:35Z</time>
      </trkpt>
      <trkpt lat="37.397631593048573" lon="-3.418531799688935">
        <ele>995.58251949999999</ele>
        <time>2010-12-25T20:23:41Z</time>
      </trkpt>
      <trkpt lat="37.398612862452865" lon="-3.416190398856998">
        <ele>999.90844730000003</ele>
        <time>2010-12-25T20:23:49Z</time>
      </trkpt>
      <trkpt lat="37.399296574294567" lon="-3.41413389891386">
        <ele>1003.2729492</ele>
        <time>2010-12-25T20:23:56Z</time>
      </trkpt>
      <trkpt lat="37.400312125682831" lon="-3.40720902197063">
        <ele>1015.7702637</ele>
        <time>2010-12-25T20:24:17Z</time>
      </trkpt>
      <trkpt lat="37.400900535285473" lon="-3.405410768464208">
        <ele>1018.6540527</ele>
        <time>2010-12-25T20:24:23Z</time>
      </trkpt>
      <trkpt lat="37.402780428528786" lon="-3.401323836296797">
        <ele>1021.0576172</ele>
        <time>2010-12-25T20:24:37Z</time>
      </trkpt>
      <trkpt lat="37.40300489589572" lon="-3.400087337940931">
        <ele>1021.5380859000001</ele>
        <time>2010-12-25T20:24:41Z</time>
      </trkpt>
      <trkpt lat="37.402882520109415" lon="-3.396673388779163">
        <ele>1023.4609375</ele>
        <time>2010-12-25T20:24:52Z</time>
      </trkpt>
      <trkpt lat="37.403334472328424" lon="-3.395246621221304">
        <ele>1027.3061522999999</ele>
        <time>2010-12-25T20:24:57Z</time>
      </trkpt>
      <trkpt lat="37.403627084568143" lon="-3.394758375361562">
        <ele>1029.2285156</ele>
        <time>2010-12-25T20:24:59Z</time>
      </trkpt>
      <trkpt lat="37.405070280656219" lon="-3.392630964517593">
        <ele>1033.5544434000001</ele>
        <time>2010-12-25T20:25:08Z</time>
      </trkpt>
      <trkpt lat="37.405596999451518" lon="-3.391205286607146">
        <ele>1035.4770507999999</ele>
        <time>2010-12-25T20:25:13Z</time>
      </trkpt>
      <trkpt lat="37.405812330543995" lon="-3.389663016423583">
        <ele>1037.3999022999999</ele>
        <time>2010-12-25T20:25:18Z</time>
      </trkpt>
      <trkpt lat="37.406082982197404" lon="-3.38217169046402">
        <ele>1056.6262207</ele>
        <time>2010-12-25T20:25:41Z</time>
      </trkpt>
      <trkpt lat="37.406337037682533" lon="-3.379430137574673">
        <ele>1064.7973632999999</ele>
        <time>2010-12-25T20:25:50Z</time>
      </trkpt>
      <trkpt lat="37.406834168359637" lon="-3.376585738733411">
        <ele>1072.96875</ele>
        <time>2010-12-25T20:26:00Z</time>
      </trkpt>
      <trkpt lat="37.407120075076818" lon="-3.374007465317845">
        <ele>1079.2170410000001</ele>
        <time>2010-12-25T20:26:09Z</time>
      </trkpt>
      <trkpt lat="37.407533638179302" lon="-3.372599640861154">
        <ele>1083.5429687999999</ele>
        <time>2010-12-25T20:26:14Z</time>
      </trkpt>
      <trkpt lat="37.408254230394959" lon="-3.37136272341013">
        <ele>1087.8691406</ele>
        <time>2010-12-25T20:26:19Z</time>
      </trkpt>
      <trkpt lat="37.409776886925101" lon="-3.369250735267997">
        <ele>1093.6369629000001</ele>
        <time>2010-12-25T20:26:28Z</time>
      </trkpt>
      <trkpt lat="37.410314418375492" lon="-3.367794463410974">
        <ele>1095.5595702999999</ele>
        <time>2010-12-25T20:26:33Z</time>
      </trkpt>
      <trkpt lat="37.411064431071281" lon="-3.363866284489632">
        <ele>1093.6369629000001</ele>
        <time>2010-12-25T20:26:45Z</time>
      </trkpt>
      <trkpt lat="37.411876134574413" lon="-3.361557489261031">
        <ele>1088.8305664</ele>
        <time>2010-12-25T20:26:53Z</time>
      </trkpt>
      <trkpt lat="37.412062380462885" lon="-3.360299784690142">
        <ele>1086.4272461</ele>
        <time>2010-12-25T20:26:57Z</time>
      </trkpt>
      <trkpt lat="37.412033379077911" lon="-3.358252085745335">
        <ele>1084.5046387</ele>
        <time>2010-12-25T20:27:03Z</time>
      </trkpt>
      <trkpt lat="37.411612523719668" lon="-3.35058918222785">
        <ele>1082.5817870999999</ele>
        <time>2010-12-25T20:27:24Z</time>
      </trkpt>
      <trkpt lat="37.411468019708991" lon="-3.346437960863113">
        <ele>1071.5266113</ele>
        <time>2010-12-25T20:27:36Z</time>
      </trkpt>
      <trkpt lat="37.411561394110322" lon="-3.342012567445636">
        <ele>1064.3166504000001</ele>
        <time>2010-12-25T20:27:49Z</time>
      </trkpt>
      <trkpt lat="37.410722197964787" lon="-3.338013561442494">
        <ele>1065.2780762</ele>
        <time>2010-12-25T20:28:02Z</time>
      </trkpt>
      <trkpt lat="37.411097539588809" lon="-3.334247739985585">
        <ele>1064.7973632999999</ele>
        <time>2010-12-25T20:28:14Z</time>
      </trkpt>
      <trkpt lat="37.41048926487565" lon="-3.327377680689097">
        <ele>1066.2392577999999</ele>
        <time>2010-12-25T20:28:35Z</time>
      </trkpt>
      <trkpt lat="37.409517634660006" lon="-3.323184382170439">
        <ele>1069.1235352000001</ele>
        <time>2010-12-25T20:28:49Z</time>
      </trkpt>
      <trkpt lat="37.409298699349165" lon="-3.320681294426322">
        <ele>1066.2392577999999</ele>
        <time>2010-12-25T20:28:57Z</time>
      </trkpt>
      <trkpt lat="37.409376734867692" lon="-3.318150462582707">
        <ele>1061.4328613</ele>
        <time>2010-12-25T20:29:05Z</time>
      </trkpt>
      <trkpt lat="37.409765990450978" lon="-3.315656930208206">
        <ele>1052.300293</ele>
        <time>2010-12-25T20:29:13Z</time>
      </trkpt>
      <trkpt lat="37.410472836345434" lon="-3.313179574906826">
        <ele>1042.206543</ele>
        <time>2010-12-25T20:29:21Z</time>
      </trkpt>
      <trkpt lat="37.411471623927355" lon="-3.310808334499598">
        <ele>1033.0737305</ele>
        <time>2010-12-25T20:29:29Z</time>
      </trkpt>
      <trkpt lat="37.412042263895273" lon="-3.309027599170804">
        <ele>1027.7866211</ele>
        <time>2010-12-25T20:29:35Z</time>
      </trkpt>
      <trkpt lat="37.412176793441176" lon="-3.307473426684737">
        <ele>1023.9414063</ele>
        <time>2010-12-25T20:29:40Z</time>
      </trkpt>
      <trkpt lat="37.412031535059214" lon="-3.305926127359271">
        <ele>1021.0576172</ele>
        <time>2010-12-25T20:29:45Z</time>
      </trkpt>
      <trkpt lat="37.411582684144378" lon="-3.304449487477541">
        <ele>1018.6540527</ele>
        <time>2010-12-25T20:29:50Z</time>
      </trkpt>
      <trkpt lat="37.406107122078538" lon="-3.294651797041297">
        <ele>1018.1733398</ele>
        <time>2010-12-25T20:30:25Z</time>
      </trkpt>
      <trkpt lat="37.403948027640581" lon="-3.290966022759676">
        <ele>1028.7480469</ele>
        <time>2010-12-25T20:30:38Z</time>
      </trkpt>
      <trkpt lat="37.402227222919464" lon="-3.288443321362138">
        <ele>1041.7258300999999</ele>
        <time>2010-12-25T20:30:48Z</time>
      </trkpt>
      <trkpt lat="37.400342719629407" lon="-3.286208622157574">
        <ele>1054.7036132999999</ele>
        <time>2010-12-25T20:30:58Z</time>
      </trkpt>
      <trkpt lat="37.398074995726347" lon="-3.284038463607431">
        <ele>1067.2006836</ele>
        <time>2010-12-25T20:31:09Z</time>
      </trkpt>
      <trkpt lat="37.3960189986974" lon="-3.282460570335388">
        <ele>1073.9299315999999</ele>
        <time>2010-12-25T20:31:18Z</time>
      </trkpt>
      <trkpt lat="37.393257832154632" lon="-3.280700035393238">
        <ele>1078.2558594</ele>
        <time>2010-12-25T20:31:29Z</time>
      </trkpt>
      <trkpt lat="37.382154995575547" lon="-3.275031019002199">
        <ele>1077.7751464999999</ele>
        <time>2010-12-25T20:32:09Z</time>
      </trkpt>
      <trkpt lat="37.37956297583878" lon="-3.273932989686728">
        <ele>1075.3718262</ele>
        <time>2010-12-25T20:32:18Z</time>
      </trkpt>
      <trkpt lat="37.378200078383088" lon="-3.2736961171031">
        <ele>1071.0461425999999</ele>
        <time>2010-12-25T20:32:23Z</time>
      </trkpt>
      <trkpt lat="37.376585137099028" lon="-3.273814888671041">
        <ele>1065.7587891000001</ele>
        <time>2010-12-25T20:32:29Z</time>
      </trkpt>
      <trkpt lat="37.374954773113132" lon="-3.274376392364502">
        <ele>1063.8359375</ele>
        <time>2010-12-25T20:32:35Z</time>
      </trkpt>
      <trkpt lat="37.346822340041399" lon="-3.288820758461952">
        <ele>1108.5373535000001</ele>
        <time>2010-12-25T20:34:28Z</time>
      </trkpt>
      <trkpt lat="37.346007619053125" lon="-3.288652533665299">
        <ele>1108.0568848</ele>
        <time>2010-12-25T20:34:35Z</time>
      </trkpt>
      <trkpt lat="37.343168836086988" lon="-3.286883365362883">
        <ele>1104.6921387</ele>
        <time>2010-12-25T20:34:51Z</time>
      </trkpt>
      <trkpt lat="37.341140666976571" lon="-3.285412760451436">
        <ele>1102.7695312999999</ele>
        <time>2010-12-25T20:35:01Z</time>
      </trkpt>
      <trkpt lat="37.339619435369968" lon="-3.283902760595083">
        <ele>1101.3276367000001</ele>
        <time>2010-12-25T20:35:09Z</time>
      </trkpt>
      <trkpt lat="37.338168863207102" lon="-3.282088497653604">
        <ele>1099.8854980000001</ele>
        <time>2010-12-25T20:35:18Z</time>
      </trkpt>
      <trkpt lat="37.336868662387133" lon="-3.280796175822616">
        <ele>1098.9240723</ele>
        <time>2010-12-25T20:35:25Z</time>
      </trkpt>
      <trkpt lat="37.324427990242839" lon="-3.269864162430167">
        <ele>1077.7751464999999</ele>
        <time>2010-12-25T20:36:27Z</time>
      </trkpt>
      <trkpt lat="37.323713935911655" lon="-3.269713539630175">
        <ele>1077.7751464999999</ele>
        <time>2010-12-25T20:36:32Z</time>
      </trkpt>
      <trkpt lat="37.323457365855575" lon="-3.269995423033834">
        <ele>1078.2558594</ele>
        <time>2010-12-25T20:36:36Z</time>
      </trkpt>
      <trkpt lat="37.323115468025208" lon="-3.269988466054201">
        <ele>1078.7365723</ele>
        <time>2010-12-25T20:36:40Z</time>
      </trkpt>
      <trkpt lat="37.32254927046597" lon="-3.269489072263241">
        <ele>1081.1398925999999</ele>
        <time>2010-12-25T20:36:49Z</time>
      </trkpt>
      <trkpt lat="37.321465825662017" lon="-3.269339790567756">
        <ele>1085.4658202999999</ele>
        <time>2010-12-25T20:36:58Z</time>
      </trkpt>
      <trkpt lat="37.32104136608541" lon="-3.269487731158733">
        <ele>1085.4658202999999</ele>
        <time>2010-12-25T20:37:04Z</time>
      </trkpt>
      <trkpt lat="37.320854784920812" lon="-3.269265862181783">
        <ele>1085.4658202999999</ele>
        <time>2010-12-25T20:37:08Z</time>
      </trkpt>
      <trkpt lat="37.320957463234663" lon="-3.268758924677968">
        <ele>1084.9853516000001</ele>
        <time>2010-12-25T20:37:13Z</time>
      </trkpt>
      <trkpt lat="37.321381336078048" lon="-3.26801922172308">
        <ele>1079.6977539</ele>
        <time>2010-12-25T20:37:19Z</time>
      </trkpt>
      <trkpt lat="37.321764640510082" lon="-3.266952959820628">
        <ele>1072.0073242000001</ele>
        <time>2010-12-25T20:37:25Z</time>
      </trkpt>
      <trkpt lat="37.322321282699704" lon="-3.263311861082912">
        <ele>1066.2392577999999</ele>
        <time>2010-12-25T20:37:39Z</time>
      </trkpt>
      <trkpt lat="37.322914134711027" lon="-3.260009475052357">
        <ele>1057.5876464999999</ele>
        <time>2010-12-25T20:37:50Z</time>
      </trkpt>
      <trkpt lat="37.323535736650229" lon="-3.256472898647189">
        <ele>1043.6484375</ele>
        <time>2010-12-25T20:38:02Z</time>
      </trkpt>
      <trkpt lat="37.323757521808147" lon="-3.254085816442967">
        <ele>1032.5932617000001</ele>
        <time>2010-12-25T20:38:10Z</time>
      </trkpt>
      <trkpt lat="37.323890794068575" lon="-3.248677477240562">
        <ele>1001.8310547</ele>
        <time>2010-12-25T20:38:28Z</time>
      </trkpt>
      <trkpt lat="37.324326233938336" lon="-3.246412016451359">
        <ele>988.85351560000004</ele>
        <time>2010-12-25T20:38:36Z</time>
      </trkpt>
      <trkpt lat="37.32565057463944" lon="-3.241418497636914">
        <ele>960.49438480000003</ele>
        <time>2010-12-25T20:38:54Z</time>
      </trkpt>
      <trkpt lat="37.326240241527557" lon="-3.238602681085467">
        <ele>944.15209960000004</ele>
        <time>2010-12-25T20:39:04Z</time>
      </trkpt>
      <trkpt lat="37.327405661344528" lon="-3.232524124905467">
        <ele>910.02514650000001</ele>
        <time>2010-12-25T20:39:24Z</time>
      </trkpt>
      <trkpt lat="37.328069424256682" lon="-3.227811232209206">
        <ele>886.95336910000003</ele>
        <time>2010-12-25T20:39:38Z</time>
      </trkpt>
      <trkpt lat="37.328708041459322" lon="-3.226345740258694">
        <ele>879.74365230000001</ele>
        <time>2010-12-25T20:39:43Z</time>
      </trkpt>
      <trkpt lat="37.329902295023203" lon="-3.224521419033408">
        <ele>868.68847659999994</ele>
        <time>2010-12-25T20:39:50Z</time>
      </trkpt>
      <trkpt lat="37.330517275258899" lon="-3.223060620948672">
        <ele>861.95947269999999</ele>
        <time>2010-12-25T20:39:55Z</time>
      </trkpt>
      <trkpt lat="37.330757835879922" lon="-3.221390778198838">
        <ele>858.11401369999999</ele>
        <time>2010-12-25T20:40:00Z</time>
      </trkpt>
      <trkpt lat="37.33064828440547" lon="-3.220063168555498">
        <ele>857.15258789999996</ele>
        <time>2010-12-25T20:40:04Z</time>
      </trkpt>
      <trkpt lat="37.330179819837213" lon="-3.218541936948896">
        <ele>856.671875</ele>
        <time>2010-12-25T20:40:09Z</time>
      </trkpt>
      <trkpt lat="37.328817760571837" lon="-3.215335523709655">
        <ele>854.74926760000005</ele>
        <time>2010-12-25T20:40:20Z</time>
      </trkpt>
      <trkpt lat="37.327185971662402" lon="-3.206283319741488">
        <ele>848.98144530000002</ele>
        <time>2010-12-25T20:40:45Z</time>
      </trkpt>
      <trkpt lat="37.325211362913251" lon="-3.202786641195417">
        <ele>857.63330080000003</ele>
        <time>2010-12-25T20:40:57Z</time>
      </trkpt>
      <trkpt lat="37.324523879215121" lon="-3.200814379379153">
        <ele>863.88183590000006</ele>
        <time>2010-12-25T20:41:03Z</time>
      </trkpt>
      <trkpt lat="37.324205534532666" lon="-3.198682023212314">
        <ele>869.16918950000002</ele>
        <time>2010-12-25T20:41:09Z</time>
      </trkpt>
      <trkpt lat="37.324270494282246" lon="-3.19685242138803">
        <ele>873.49511719999998</ele>
        <time>2010-12-25T20:41:14Z</time>
      </trkpt>
      <trkpt lat="37.324644159525633" lon="-3.195034973323345">
        <ele>876.37915039999996</ele>
        <time>2010-12-25T20:41:19Z</time>
      </trkpt>
      <trkpt lat="37.325329631567001" lon="-3.193302936851978">
        <ele>877.34057619999999</ele>
        <time>2010-12-25T20:41:24Z</time>
      </trkpt>
      <trkpt lat="37.326460769400001" lon="-3.191420529037714">
        <ele>875.89819339999997</ele>
        <time>2010-12-25T20:41:30Z</time>
      </trkpt>
      <trkpt lat="37.327444469556212" lon="-3.189436784014106">
        <ele>873.01440430000002</ele>
        <time>2010-12-25T20:41:36Z</time>
      </trkpt>
      <trkpt lat="37.328130025416613" lon="-3.1871956307441">
        <ele>873.97558590000006</ele>
        <time>2010-12-25T20:41:42Z</time>
      </trkpt>
      <trkpt lat="37.328449040651321" lon="-3.184870323166251">
        <ele>878.30175780000002</ele>
        <time>2010-12-25T20:41:48Z</time>
      </trkpt>
      <trkpt lat="37.32843873091042" lon="-3.182648783549666">
        <ele>882.14697269999999</ele>
        <time>2010-12-25T20:41:54Z</time>
      </trkpt>
      <trkpt lat="37.328089121729136" lon="-3.18050678819418">
        <ele>885.03100589999997</ele>
        <time>2010-12-25T20:42:00Z</time>
      </trkpt>
      <trkpt lat="37.327414462342858" lon="-3.178432937711477">
        <ele>887.91479489999995</ele>
        <time>2010-12-25T20:42:06Z</time>
      </trkpt>
      <trkpt lat="37.324870890006423" lon="-3.173633962869644">
        <ele>897.52807619999999</ele>
        <time>2010-12-25T20:42:21Z</time>
      </trkpt>
      <trkpt lat="37.323141619563103" lon="-3.169433539733291">
        <ele>898.96997069999998</ele>
        <time>2010-12-25T20:42:33Z</time>
      </trkpt>
      <trkpt lat="37.322217095643282" lon="-3.166371965780854">
        <ele>896.56689449999999</ele>
        <time>2010-12-25T20:42:41Z</time>
      </trkpt>
      <trkpt lat="37.321553165093064" lon="-3.163240989670157">
        <ele>891.27929689999996</ele>
        <time>2010-12-25T20:42:49Z</time>
      </trkpt>
      <trkpt lat="37.319565061479807" lon="-3.151245061308146">
        <ele>881.18579099999999</ele>
        <time>2010-12-25T20:43:19Z</time>
      </trkpt>
      <trkpt lat="37.319498341530561" lon="-3.143145628273487">
        <ele>884.55029300000001</ele>
        <time>2010-12-25T20:43:39Z</time>
      </trkpt>
      <trkpt lat="37.318841116502881" lon="-3.133118273690343">
        <ele>913.87036130000001</ele>
        <time>2010-12-25T20:44:06Z</time>
      </trkpt>
      <trkpt lat="37.318962989374995" lon="-3.131030173972249">
        <ele>925.88696289999996</ele>
        <time>2010-12-25T20:44:12Z</time>
      </trkpt>
      <trkpt lat="37.319472441449761" lon="-3.127435091882944">
        <ele>946.07470699999999</ele>
        <time>2010-12-25T20:44:23Z</time>
      </trkpt>
      <trkpt lat="37.320139221847057" lon="-3.123969677835703">
        <ele>966.26220699999999</ele>
        <time>2010-12-25T20:44:34Z</time>
      </trkpt>
      <trkpt lat="37.320707682520151" lon="-3.120767958462238">
        <ele>983.56591800000001</ele>
        <time>2010-12-25T20:44:44Z</time>
      </trkpt>
      <trkpt lat="37.32073207385838" lon="-3.118765186518431">
        <ele>992.69873050000001</ele>
        <time>2010-12-25T20:44:50Z</time>
      </trkpt>
      <trkpt lat="37.320432420819998" lon="-3.117111185565591">
        <ele>999.42773439999996</ele>
        <time>2010-12-25T20:44:55Z</time>
      </trkpt>
      <trkpt lat="37.319827917963266" lon="-3.115572016686201">
        <ele>1006.6376953</ele>
        <time>2010-12-25T20:45:00Z</time>
      </trkpt>
      <trkpt lat="37.31893734075129" lon="-3.114251531660557">
        <ele>1013.8474121</ele>
        <time>2010-12-25T20:45:05Z</time>
      </trkpt>
      <trkpt lat="37.3178022634238" lon="-3.113213265314698">
        <ele>1018.6540527</ele>
        <time>2010-12-25T20:45:10Z</time>
      </trkpt>
      <trkpt lat="37.316484460607171" lon="-3.112542126327753">
        <ele>1020.0961914</ele>
        <time>2010-12-25T20:45:15Z</time>
      </trkpt>
      <trkpt lat="37.315075127407908" lon="-3.112240461632609">
        <ele>1019.1347656</ele>
        <time>2010-12-25T20:45:20Z</time>
      </trkpt>
      <trkpt lat="37.313019968569279" lon="-3.112227972596884">
        <ele>1011.4443359000001</ele>
        <time>2010-12-25T20:45:27Z</time>
      </trkpt>
      <trkpt lat="37.309702327474952" lon="-3.112379685044289">
        <ele>994.62109380000004</ele>
        <time>2010-12-25T20:45:38Z</time>
      </trkpt>
      <trkpt lat="37.307442482560873" lon="-3.11224197037518">
        <ele>984.52734380000004</ele>
        <time>2010-12-25T20:45:45Z</time>
      </trkpt>
      <trkpt lat="37.305231168866158" lon="-3.111762525513768">
        <ele>981.16284180000002</ele>
        <time>2010-12-25T20:45:52Z</time>
      </trkpt>
      <trkpt lat="37.299840180203319" lon="-3.109836699441075">
        <ele>990.77587889999995</ele>
        <time>2010-12-25T20:46:10Z</time>
      </trkpt>
      <trkpt lat="37.298603430390358" lon="-3.109839465469122">
        <ele>988.85351560000004</ele>
        <time>2010-12-25T20:46:14Z</time>
      </trkpt>
      <trkpt lat="37.297104159370065" lon="-3.110319161787629">
        <ele>982.60473630000001</ele>
        <time>2010-12-25T20:46:19Z</time>
      </trkpt>
      <trkpt lat="37.294396134093404" lon="-3.111518360674381">
        <ele>968.18481450000002</ele>
        <time>2010-12-25T20:46:28Z</time>
      </trkpt>
      <trkpt lat="37.29278102517128" lon="-3.111881883814931">
        <ele>965.78173830000003</ele>
        <time>2010-12-25T20:46:33Z</time>
      </trkpt>
      <trkpt lat="37.291467664763331" lon="-3.111790688708425">
        <ele>966.26220699999999</ele>
        <time>2010-12-25T20:46:37Z</time>
      </trkpt>
      <trkpt lat="37.290229070931673" lon="-3.111321469768882">
        <ele>971.06884769999999</ele>
        <time>2010-12-25T20:46:41Z</time>
      </trkpt>
      <trkpt lat="37.289144117385149" lon="-3.110505072399974">
        <ele>978.27880860000005</ele>
        <time>2010-12-25T20:46:45Z</time>
      </trkpt>
      <trkpt lat="37.288040220737457" lon="-3.109157765284181">
        <ele>986.44995119999999</ele>
        <time>2010-12-25T20:46:50Z</time>
      </trkpt>
      <trkpt lat="37.286987118422985" lon="-3.10731366276741">
        <ele>995.58251949999999</ele>
        <time>2010-12-25T20:46:56Z</time>
      </trkpt>
      <trkpt lat="37.285508466884494" lon="-3.104105070233345">
        <ele>1009.5217285</ele>
        <time>2010-12-25T20:47:06Z</time>
      </trkpt>
      <trkpt lat="37.284064264968038" lon="-3.101403079926968">
        <ele>1020.5769043</ele>
        <time>2010-12-25T20:47:15Z</time>
      </trkpt>
      <trkpt lat="37.282736236229539" lon="-3.099553361535072">
        <ele>1030.1899414</ele>
        <time>2010-12-25T20:47:22Z</time>
      </trkpt>
      <trkpt lat="37.281202264130116" lon="-3.098030872642994">
        <ele>1038.8420410000001</ele>
        <time>2010-12-25T20:47:29Z</time>
      </trkpt>
      <trkpt lat="37.27975663729012" lon="-3.097009370103478">
        <ele>1046.5324707</ele>
        <time>2010-12-25T20:47:35Z</time>
      </trkpt>
      <trkpt lat="37.277956288307905" lon="-3.096161959692836">
        <ele>1055.1843262</ele>
        <time>2010-12-25T20:47:42Z</time>
      </trkpt>
      <trkpt lat="37.276086788624525" lon="-3.095674384385347">
        <ele>1063.3554687999999</ele>
        <time>2010-12-25T20:47:49Z</time>
      </trkpt>
      <trkpt lat="37.273611361160874" lon="-3.095408761873841">
        <ele>1069.6042480000001</ele>
        <time>2010-12-25T20:47:58Z</time>
      </trkpt>
      <trkpt lat="37.270639641210437" lon="-3.095316141843796">
        <ele>1067.2006836</ele>
        <time>2010-12-25T20:48:08Z</time>
      </trkpt>
      <trkpt lat="37.268803333863616" lon="-3.094918085262179">
        <ele>1064.3166504000001</ele>
        <time>2010-12-25T20:48:14Z</time>
      </trkpt>
      <trkpt lat="37.26736307144165" lon="-3.094098335132003">
        <ele>1064.3166504000001</ele>
        <time>2010-12-25T20:48:19Z</time>
      </trkpt>
      <trkpt lat="37.26615565828979" lon="-3.092853371053934">
        <ele>1068.6428223</ele>
        <time>2010-12-25T20:48:24Z</time>
      </trkpt>
      <trkpt lat="37.265225434675813" lon="-3.091304982081056">
        <ele>1073.4494629000001</ele>
        <time>2010-12-25T20:48:29Z</time>
      </trkpt>
      <trkpt lat="37.264365199953318" lon="-3.089243369176984">
        <ele>1076.8139647999999</ele>
        <time>2010-12-25T20:48:35Z</time>
      </trkpt>
      <trkpt lat="37.263085534796119" lon="-3.086554287001491">
        <ele>1078.2558594</ele>
        <time>2010-12-25T20:48:43Z</time>
      </trkpt>
      <trkpt lat="37.262026397511363" lon="-3.085074629634619">
        <ele>1078.7365723</ele>
        <time>2010-12-25T20:48:48Z</time>
      </trkpt>
      <trkpt lat="37.26054229773581" lon="-3.083599666133523">
        <ele>1081.1398925999999</ele>
        <time>2010-12-25T20:48:54Z</time>
      </trkpt>
      <trkpt lat="37.258909083902836" lon="-3.082529464736581">
        <ele>1084.5046387</ele>
        <time>2010-12-25T20:49:00Z</time>
      </trkpt>
      <trkpt lat="37.257168162614107" lon="-3.081827396526933">
        <ele>1085.4658202999999</ele>
        <time>2010-12-25T20:49:06Z</time>
      </trkpt>
      <trkpt lat="37.255309894680977" lon="-3.081533275544643">
        <ele>1085.4658202999999</ele>
        <time>2010-12-25T20:49:12Z</time>
      </trkpt>
      <trkpt lat="37.246688520535827" lon="-3.08184826746583">
        <ele>1089.3110352000001</ele>
        <time>2010-12-25T20:49:39Z</time>
      </trkpt>
      <trkpt lat="37.230568863451481" lon="-3.082449166104198">
        <ele>1095.0788574000001</ele>
        <time>2010-12-25T20:50:30Z</time>
      </trkpt>
      <trkpt lat="37.228622166439891" lon="-3.082229560241103">
        <ele>1095.5595702999999</ele>
        <time>2010-12-25T20:50:36Z</time>
      </trkpt>
      <trkpt lat="37.226740764454007" lon="-3.081534365192056">
        <ele>1096.0402832</ele>
        <time>2010-12-25T20:50:42Z</time>
      </trkpt>
      <trkpt lat="37.225289940834045" lon="-3.080612858757377">
        <ele>1097.0014647999999</ele>
        <time>2010-12-25T20:50:47Z</time>
      </trkpt>
      <trkpt lat="37.213598024100065" lon="-3.070979034528136">
        <ele>1111.4213867000001</ele>
        <time>2010-12-25T20:51:31Z</time>
      </trkpt>
      <trkpt lat="37.212216183543205" lon="-3.069383958354592">
        <ele>1113.8244629000001</ele>
        <time>2010-12-25T20:51:37Z</time>
      </trkpt>
      <trkpt lat="37.211278835311532" lon="-3.067781170830131">
        <ele>1114.3051757999999</ele>
        <time>2010-12-25T20:51:42Z</time>
      </trkpt>
      <trkpt lat="37.21044659614563" lon="-3.06559014134109">
        <ele>1114.3051757999999</ele>
        <time>2010-12-25T20:51:48Z</time>
      </trkpt>
      <trkpt lat="37.204883778467774" lon="-3.038562359288335">
        <ele>1139.7802733999999</ele>
        <time>2010-12-25T20:52:56Z</time>
      </trkpt>
      <trkpt lat="37.18961488455534" lon="-2.963876333087683">
        <ele>1161.890625</ele>
        <time>2010-12-25T20:56:00Z</time>
      </trkpt>
      <trkpt lat="37.188855316489935" lon="-2.961243325844407">
        <ele>1165.7360839999999</ele>
        <time>2010-12-25T20:56:07Z</time>
      </trkpt>
      <trkpt lat="37.187793664634228" lon="-2.958772927522659">
        <ele>1170.0617675999999</ele>
        <time>2010-12-25T20:56:14Z</time>
      </trkpt>
      <trkpt lat="37.186876181513071" lon="-2.956261793151498">
        <ele>1173.9069824000001</ele>
        <time>2010-12-25T20:56:21Z</time>
      </trkpt>
      <trkpt lat="37.183965733274817" lon="-2.943413592875004">
        <ele>1158.5258789</ele>
        <time>2010-12-25T20:56:53Z</time>
      </trkpt>
      <trkpt lat="37.183365924283862" lon="-2.94201347976923">
        <ele>1153.7194824000001</ele>
        <time>2010-12-25T20:56:57Z</time>
      </trkpt>
      <trkpt lat="37.182493535801768" lon="-2.940904889255762">
        <ele>1148.9128418</ele>
        <time>2010-12-25T20:57:01Z</time>
      </trkpt>
      <trkpt lat="37.181368097662926" lon="-2.940167365595698">
        <ele>1143.6254882999999</ele>
        <time>2010-12-25T20:57:05Z</time>
      </trkpt>
      <trkpt lat="37.177207740023732" lon="-2.938830368220806">
        <ele>1142.1835937999999</ele>
        <time>2010-12-25T20:57:19Z</time>
      </trkpt>
      <trkpt lat="37.1762406360358" lon="-2.938145734369755">
        <ele>1143.6254882999999</ele>
        <time>2010-12-25T20:57:23Z</time>
      </trkpt>
      <trkpt lat="37.175250817090273" lon="-2.93691267259419">
        <ele>1144.5866699000001</ele>
        <time>2010-12-25T20:57:28Z</time>
      </trkpt>
      <trkpt lat="37.174694258719683" lon="-2.935631582513452">
        <ele>1145.0673827999999</ele>
        <time>2010-12-25T20:57:32Z</time>
      </trkpt>
      <trkpt lat="37.174438862130046" lon="-2.934150416404009">
        <ele>1143.6254882999999</ele>
        <time>2010-12-25T20:57:36Z</time>
      </trkpt>
      <trkpt lat="37.174357641488314" lon="-2.93052339926362">
        <ele>1146.5095214999999</ele>
        <time>2010-12-25T20:57:46Z</time>
      </trkpt>
      <trkpt lat="37.173968134447932" lon="-2.929227137938142">
        <ele>1147.4707031</ele>
        <time>2010-12-25T20:57:50Z</time>
      </trkpt>
      <trkpt lat="37.173323063179851" lon="-2.928062723949552">
        <ele>1148.4321289</ele>
        <time>2010-12-25T20:57:54Z</time>
      </trkpt>
      <trkpt lat="37.169111324474216" lon="-2.921711336821318">
        <ele>1155.1613769999999</ele>
        <time>2010-12-25T20:58:17Z</time>
      </trkpt>
      <trkpt lat="37.168237091973424" lon="-2.920024730265141">
        <ele>1155.6420897999999</ele>
        <time>2010-12-25T20:58:23Z</time>
      </trkpt>
      <trkpt lat="37.167783798649907" lon="-2.918319599702954">
        <ele>1153.2387695</ele>
        <time>2010-12-25T20:58:28Z</time>
      </trkpt>
      <trkpt lat="37.16766276396811" lon="-2.916400898247957">
        <ele>1148.4321289</ele>
        <time>2010-12-25T20:58:33Z</time>
      </trkpt>
      <trkpt lat="37.168694324791431" lon="-2.909849686548114">
        <ele>1133.0510254000001</ele>
        <time>2010-12-25T20:58:49Z</time>
      </trkpt>
      <trkpt lat="37.168840169906616" lon="-2.907358836382628">
        <ele>1133.5317382999999</ele>
        <time>2010-12-25T20:58:55Z</time>
      </trkpt>
      <trkpt lat="37.168622659519315" lon="-2.90530476719141">
        <ele>1134.9738769999999</ele>
        <time>2010-12-25T20:59:00Z</time>
      </trkpt>
      <trkpt lat="37.167981527745724" lon="-2.902495069429278">
        <ele>1134.9738769999999</ele>
        <time>2010-12-25T20:59:07Z</time>
      </trkpt>
      <trkpt lat="37.167506860569119" lon="-2.899597194045782">
        <ele>1129.6862793</ele>
        <time>2010-12-25T20:59:14Z</time>
      </trkpt>
      <trkpt lat="37.167064882814884" lon="-2.894967198371887">
        <ele>1120.0732422000001</ele>
        <time>2010-12-25T20:59:25Z</time>
      </trkpt>
      <trkpt lat="37.167248362675309" lon="-2.892892761155963">
        <ele>1111.9020995999999</ele>
        <time>2010-12-25T20:59:30Z</time>
      </trkpt>
      <trkpt lat="37.168525764718652" lon="-2.888195458799601">
        <ele>1091.2336425999999</ele>
        <time>2010-12-25T20:59:42Z</time>
      </trkpt>
      <trkpt lat="37.168812090530992" lon="-2.885898565873504">
        <ele>1081.6203613</ele>
        <time>2010-12-25T20:59:48Z</time>
      </trkpt>
      <trkpt lat="37.16873724013567" lon="-2.880413280799985">
        <ele>1058.0683594</ele>
        <time>2010-12-25T21:00:02Z</time>
      </trkpt>
      <trkpt lat="37.169086430221796" lon="-2.878070035949349">
        <ele>1048.9355469</ele>
        <time>2010-12-25T21:00:08Z</time>
      </trkpt>
      <trkpt lat="37.16943696141243" lon="-2.875356059521437">
        <ele>1037.3999022999999</ele>
        <time>2010-12-25T21:00:15Z</time>
      </trkpt>
      <trkpt lat="37.169241663068533" lon="-2.873476920649409">
        <ele>1028.7480469</ele>
        <time>2010-12-25T21:00:20Z</time>
      </trkpt>
      <trkpt lat="37.168393163010478" lon="-2.869870522990823">
        <ele>1013.8474121</ele>
        <time>2010-12-25T21:00:30Z</time>
      </trkpt>
      <trkpt lat="37.168380673974752" lon="-2.867946792393923">
        <ele>1006.1569823999999</ele>
        <time>2010-12-25T21:00:35Z</time>
      </trkpt>
      <trkpt lat="37.168694492429495" lon="-2.866023229435086">
        <ele>998.46630860000005</ele>
        <time>2010-12-25T21:00:40Z</time>
      </trkpt>
      <trkpt lat="37.168925832957029" lon="-2.86368677392602">
        <ele>988.37280269999997</ele>
        <time>2010-12-25T21:00:46Z</time>
      </trkpt>
      <trkpt lat="37.168679991737008" lon="-2.861727168783546">
        <ele>980.20141599999999</ele>
        <time>2010-12-25T21:00:51Z</time>
      </trkpt>
      <trkpt lat="37.168046738952398" lon="-2.859885161742568">
        <ele>972.99169919999997</ele>
        <time>2010-12-25T21:00:56Z</time>
      </trkpt>
      <trkpt lat="37.16704317368567" lon="-2.857847521081567">
        <ele>967.22363280000002</ele>
        <time>2010-12-25T21:01:02Z</time>
      </trkpt>
      <trkpt lat="37.166510671377182" lon="-2.856005681678653">
        <ele>965.30102539999996</ele>
        <time>2010-12-25T21:01:07Z</time>
      </trkpt>
      <trkpt lat="37.16593055985868" lon="-2.851592190563679">
        <ele>961.93652340000006</ele>
        <time>2010-12-25T21:01:19Z</time>
      </trkpt>
      <trkpt lat="37.165284566581249" lon="-2.849492440000176">
        <ele>960.49438480000003</ele>
        <time>2010-12-25T21:01:25Z</time>
      </trkpt>
      <trkpt lat="37.16429952532053" lon="-2.847538031637669">
        <ele>959.05249019999997</ele>
        <time>2010-12-25T21:01:31Z</time>
      </trkpt>
      <trkpt lat="37.163014663383365" lon="-2.845818065106869">
        <ele>957.12988280000002</ele>
        <time>2010-12-25T21:01:37Z</time>
      </trkpt>
      <trkpt lat="37.161160334944725" lon="-2.843749159947038">
        <ele>955.68774410000003</ele>
        <time>2010-12-25T21:01:45Z</time>
      </trkpt>
      <trkpt lat="37.160215023905039" lon="-2.842229185625911">
        <ele>953.76513669999997</ele>
        <time>2010-12-25T21:01:50Z</time>
      </trkpt>
      <trkpt lat="37.159513123333454" lon="-2.840516762807965">
        <ele>951.84252930000002</ele>
        <time>2010-12-25T21:01:55Z</time>
      </trkpt>
      <trkpt lat="37.158646518364549" lon="-2.835590383037925">
        <ele>946.07470699999999</ele>
        <time>2010-12-25T21:02:08Z</time>
      </trkpt>
      <trkpt lat="37.158082332462072" lon="-2.833760865032673">
        <ele>943.67138669999997</ele>
        <time>2010-12-25T21:02:13Z</time>
      </trkpt>
      <trkpt lat="37.156152818351984" lon="-2.828690819442272">
        <ele>933.57739260000005</ele>
        <time>2010-12-25T21:02:27Z</time>
      </trkpt>
      <trkpt lat="37.154628820717335" lon="-2.824141122400761">
        <ele>923.48364260000005</ele>
        <time>2010-12-25T21:02:39Z</time>
      </trkpt>
      <trkpt lat="37.153415959328413" lon="-2.819765266031027">
        <ele>913.87036130000001</ele>
        <time>2010-12-25T21:02:50Z</time>
      </trkpt>
      <trkpt lat="37.151163490489125" lon="-2.810041420161724">
        <ele>886.95336910000003</ele>
        <time>2010-12-25T21:03:14Z</time>
      </trkpt>
      <trkpt lat="37.148830387741327" lon="-2.803092319518328">
        <ele>870.13037110000005</ele>
        <time>2010-12-25T21:03:32Z</time>
      </trkpt>
      <trkpt lat="37.148234518244863" lon="-2.800744296982884">
        <ele>865.32397460000004</ele>
        <time>2010-12-25T21:03:38Z</time>
      </trkpt>
      <trkpt lat="37.145645935088396" lon="-2.783303065225482">
        <ele>836.00366210000004</ele>
        <time>2010-12-25T21:04:20Z</time>
      </trkpt>
      <trkpt lat="37.145958663895726" lon="-2.775763794779778">
        <ele>830.71655269999997</ele>
        <time>2010-12-25T21:04:39Z</time>
      </trkpt>
      <trkpt lat="37.146247671917081" lon="-2.77271487750113">
        <ele>824.46777340000006</ele>
        <time>2010-12-25T21:04:47Z</time>
      </trkpt>
      <trkpt lat="37.146779922768474" lon="-2.771023325622082">
        <ele>822.06445310000004</ele>
        <time>2010-12-25T21:04:52Z</time>
      </trkpt>
      <trkpt lat="37.147597493603826" lon="-2.769519360736013">
        <ele>820.14184569999998</ele>
        <time>2010-12-25T21:04:57Z</time>
      </trkpt>
      <trkpt lat="37.148666437715292" lon="-2.768279258161783">
        <ele>819.18066409999994</ele>
        <time>2010-12-25T21:05:02Z</time>
      </trkpt>
      <trkpt lat="37.150279367342591" lon="-2.766823237761855">
        <ele>815.81616210000004</ele>
        <time>2010-12-25T21:05:09Z</time>
      </trkpt>
      <trkpt lat="37.151219733059406" lon="-2.765567963942885">
        <ele>814.85473630000001</ele>
        <time>2010-12-25T21:05:14Z</time>
      </trkpt>
      <trkpt lat="37.151931272819638" lon="-2.764072297140956">
        <ele>813.41284180000002</ele>
        <time>2010-12-25T21:05:19Z</time>
      </trkpt>
      <trkpt lat="37.152366628870368" lon="-2.762382673099637">
        <ele>811.48999019999997</ele>
        <time>2010-12-25T21:05:24Z</time>
      </trkpt>
      <trkpt lat="37.152498140931129" lon="-2.760580563917756">
        <ele>808.12548830000003</ele>
        <time>2010-12-25T21:05:29Z</time>
      </trkpt>
      <trkpt lat="37.152273338288069" lon="-2.75873813778162">
        <ele>803.79956049999998</ele>
        <time>2010-12-25T21:05:34Z</time>
      </trkpt>
      <trkpt lat="37.15169976465404" lon="-2.756930664181709">
        <ele>798.51220699999999</ele>
        <time>2010-12-25T21:05:39Z</time>
      </trkpt>
      <trkpt lat="37.15096727013588" lon="-2.755622416734695">
        <ele>794.18627930000002</ele>
        <time>2010-12-25T21:05:43Z</time>
      </trkpt>
      <trkpt lat="37.14977896772325" lon="-2.754267565906048">
        <ele>788.89916989999995</ele>
        <time>2010-12-25T21:05:48Z</time>
      </trkpt>
      <trkpt lat="37.148363767191768" lon="-2.753309179097414">
        <ele>783.61181639999995</ele>
        <time>2010-12-25T21:05:53Z</time>
      </trkpt>
      <trkpt lat="37.146607590839267" lon="-2.75249051861465">
        <ele>777.36328130000004</ele>
        <time>2010-12-25T21:05:59Z</time>
      </trkpt>
      <trkpt lat="37.1452865190804" lon="-2.751507489010692">
        <ele>772.07592769999997</ele>
        <time>2010-12-25T21:06:04Z</time>
      </trkpt>
      <trkpt lat="37.144180862233043" lon="-2.750124977901578">
        <ele>766.30810550000001</ele>
        <time>2010-12-25T21:06:09Z</time>
      </trkpt>
      <trkpt lat="37.143328590318561" lon="-2.748468881472945">
        <ele>761.98217769999997</ele>
        <time>2010-12-25T21:06:14Z</time>
      </trkpt>
      <trkpt lat="37.142217820510268" lon="-2.746694181114435">
        <ele>759.09814449999999</ele>
        <time>2010-12-25T21:06:20Z</time>
      </trkpt>
      <trkpt lat="37.139242580160499" lon="-2.743914825841785">
        <ele>758.61743160000003</ele>
        <time>2010-12-25T21:06:32Z</time>
      </trkpt>
      <trkpt lat="37.138283522799611" lon="-2.742347829043865">
        <ele>756.69482419999997</ele>
        <time>2010-12-25T21:06:37Z</time>
      </trkpt>
      <trkpt lat="37.137753870338202" lon="-2.740899017080665">
        <ele>753.33032230000003</ele>
        <time>2010-12-25T21:06:41Z</time>
      </trkpt>
      <trkpt lat="37.136826999485493" lon="-2.736503379419446">
        <ele>743.71704099999999</ele>
        <time>2010-12-25T21:06:52Z</time>
      </trkpt>
      <trkpt lat="37.136063827201724" lon="-2.73426272906363">
        <ele>742.27514650000001</ele>
        <time>2010-12-25T21:06:58Z</time>
      </trkpt>
      <trkpt lat="37.135797534137964" lon="-2.732303375378251">
        <ele>740.83300780000002</ele>
        <time>2010-12-25T21:07:03Z</time>
      </trkpt>
      <trkpt lat="37.135869199410081" lon="-2.730731936171651">
        <ele>739.87182619999999</ele>
        <time>2010-12-25T21:07:07Z</time>
      </trkpt>
      <trkpt lat="37.136303633451462" lon="-2.72885849699378">
        <ele>737.94921880000004</ele>
        <time>2010-12-25T21:07:12Z</time>
      </trkpt>
      <trkpt lat="37.140146316960454" lon="-2.71983009763062">
        <ele>731.70043950000002</ele>
        <time>2010-12-25T21:07:38Z</time>
      </trkpt>
      <trkpt lat="37.140881577506661" lon="-2.717117965221405">
        <ele>729.77783199999999</ele>
        <time>2010-12-25T21:07:45Z</time>
      </trkpt>
      <trkpt lat="37.141317520290613" lon="-2.714351937174797">
        <ele>727.85522460000004</ele>
        <time>2010-12-25T21:07:52Z</time>
      </trkpt>
      <trkpt lat="37.141484739258885" lon="-2.711612898856401">
        <ele>725.45190430000002</ele>
        <time>2010-12-25T21:07:59Z</time>
      </trkpt>
      <trkpt lat="37.141369571909308" lon="-2.70888869650662">
        <ele>726.41333010000005</ele>
        <time>2010-12-25T21:08:06Z</time>
      </trkpt>
      <trkpt lat="37.140913931652904" lon="-2.705829385668039">
        <ele>730.73925780000002</ele>
        <time>2010-12-25T21:08:14Z</time>
      </trkpt>
      <trkpt lat="37.139633260667324" lon="-2.699246993288398">
        <ele>736.98779300000001</ele>
        <time>2010-12-25T21:08:31Z</time>
      </trkpt>
      <trkpt lat="37.138423416763544" lon="-2.692939527332783">
        <ele>741.31372069999998</ele>
        <time>2010-12-25T21:08:47Z</time>
      </trkpt>
      <trkpt lat="37.138025024905801" lon="-2.689796816557646">
        <ele>744.19775389999995</ele>
        <time>2010-12-25T21:08:55Z</time>
      </trkpt>
      <trkpt lat="37.138461889699101" lon="-2.667406322434545">
        <ele>761.50146480000001</ele>
        <time>2010-12-25T21:09:50Z</time>
      </trkpt>
      <trkpt lat="37.138212779536843" lon="-2.665467420592904">
        <ele>762.46264650000001</ele>
        <time>2010-12-25T21:09:55Z</time>
      </trkpt>
      <trkpt lat="37.13769469410181" lon="-2.663642261177301">
        <ele>765.82763669999997</ele>
        <time>2010-12-25T21:10:00Z</time>
      </trkpt>
      <trkpt lat="37.135624783113599" lon="-2.659322479739785">
        <ele>782.65063480000003</ele>
        <time>2010-12-25T21:10:14Z</time>
      </trkpt>
      <trkpt lat="37.135209962725639" lon="-2.657686164602637">
        <ele>786.97631839999997</ele>
        <time>2010-12-25T21:10:19Z</time>
      </trkpt>
      <trkpt lat="37.135086832568049" lon="-2.655928982421756">
        <ele>790.82153319999998</ele>
        <time>2010-12-25T21:10:24Z</time>
      </trkpt>
      <trkpt lat="37.135296799242496" lon="-2.654100134968758">
        <ele>790.34106450000002</ele>
        <time>2010-12-25T21:10:29Z</time>
      </trkpt>
      <trkpt lat="37.136452328413725" lon="-2.650239262729883">
        <ele>784.09252930000002</ele>
        <time>2010-12-25T21:10:40Z</time>
      </trkpt>
      <trkpt lat="37.136594988405704" lon="-2.648393986746669">
        <ele>779.76635739999995</ele>
        <time>2010-12-25T21:10:45Z</time>
      </trkpt>
      <trkpt lat="37.136365659534931" lon="-2.646513339132071">
        <ele>773.51806639999995</ele>
        <time>2010-12-25T21:10:50Z</time>
      </trkpt>
      <trkpt lat="37.135744392871857" lon="-2.644736040383577">
        <ele>767.26953130000004</ele>
        <time>2010-12-25T21:10:55Z</time>
      </trkpt>
      <trkpt lat="37.134824730455875" lon="-2.643242385238409">
        <ele>761.50146480000001</ele>
        <time>2010-12-25T21:11:00Z</time>
      </trkpt>
      <trkpt lat="37.133714966475964" lon="-2.642130274325609">
        <ele>756.69482419999997</ele>
        <time>2010-12-25T21:11:05Z</time>
      </trkpt>
      <trkpt lat="37.129374984651804" lon="-2.638983791694045">
        <ele>750.44653319999998</ele>
        <time>2010-12-25T21:11:23Z</time>
      </trkpt>
      <trkpt lat="37.12800663895905" lon="-2.637664983049035">
        <ele>756.69482419999997</ele>
        <time>2010-12-25T21:11:36Z</time>
      </trkpt>
      <trkpt lat="37.127558123320341" lon="-2.637094091624022">
        <ele>761.50146480000001</ele>
        <time>2010-12-25T21:12:54Z</time>
      </trkpt>
      <trkpt lat="37.126867538318038" lon="-2.636167388409376">
        <ele>767.26953130000004</ele>
        <time>2010-12-25T21:13:01Z</time>
      </trkpt>
      <trkpt lat="37.126044938340783" lon="-2.634907839819789">
        <ele>774.47924799999998</ele>
        <time>2010-12-25T21:13:08Z</time>
      </trkpt>
      <trkpt lat="37.125091161578894" lon="-2.633116459473968">
        <ele>781.68920900000001</ele>
        <time>2010-12-25T21:13:16Z</time>
      </trkpt>
      <trkpt lat="37.124102767556906" lon="-2.631036825478077">
        <ele>786.49584960000004</ele>
        <time>2010-12-25T21:13:24Z</time>
      </trkpt>
      <trkpt lat="37.122961990535259" lon="-2.628573384135962">
        <ele>786.01513669999997</ele>
        <time>2010-12-25T21:13:33Z</time>
      </trkpt>
      <trkpt lat="37.121826997026801" lon="-2.62619761750102">
        <ele>779.28564449999999</ele>
        <time>2010-12-25T21:13:41Z</time>
      </trkpt>
      <trkpt lat="37.120733661577106" lon="-2.623530328273773">
        <ele>767.26953130000004</ele>
        <time>2010-12-25T21:13:49Z</time>
      </trkpt>
      <trkpt lat="37.120181377977133" lon="-2.621250618249178">
        <ele>759.09814449999999</ele>
        <time>2010-12-25T21:13:55Z</time>
      </trkpt>
      <trkpt lat="37.119949283078313" lon="-2.618845934048295">
        <ele>755.73364260000005</ele>
        <time>2010-12-25T21:14:01Z</time>
      </trkpt>
      <trkpt lat="37.119821039959788" lon="-2.610591435804963">
        <ele>759.09814449999999</ele>
        <time>2010-12-25T21:14:22Z</time>
      </trkpt>
      <trkpt lat="37.1193818282336" lon="-2.607875028625131">
        <ele>757.65625</ele>
        <time>2010-12-25T21:14:29Z</time>
      </trkpt>
      <trkpt lat="37.118145078420639" lon="-2.602849490940571">
        <ele>757.17553710000004</ele>
        <time>2010-12-25T21:14:42Z</time>
      </trkpt>
      <trkpt lat="37.117629172280431" lon="-2.600167030468583">
        <ele>762.46264650000001</ele>
        <time>2010-12-25T21:14:49Z</time>
      </trkpt>
      <trkpt lat="37.117459438741207" lon="-2.597390776500106">
        <ele>765.34692380000001</ele>
        <time>2010-12-25T21:14:56Z</time>
      </trkpt>
      <trkpt lat="37.117223823443055" lon="-2.592018898576498">
        <ele>764.86621090000006</ele>
        <time>2010-12-25T21:15:09Z</time>
      </trkpt>
      <trkpt lat="37.117347875609994" lon="-2.589914370328188">
        <ele>764.38549799999998</ele>
        <time>2010-12-25T21:15:14Z</time>
      </trkpt>
      <trkpt lat="37.117846263572574" lon="-2.587926937267184">
        <ele>765.34692380000001</ele>
        <time>2010-12-25T21:15:19Z</time>
      </trkpt>
      <trkpt lat="37.11928996257484" lon="-2.584080565720797">
        <ele>770.15332030000002</ele>
        <time>2010-12-25T21:15:30Z</time>
      </trkpt>
      <trkpt lat="37.119523733854294" lon="-2.582175526767969">
        <ele>772.07592769999997</ele>
        <time>2010-12-25T21:15:35Z</time>
      </trkpt>
      <trkpt lat="37.119413679465652" lon="-2.580194463953376">
        <ele>773.03735349999999</ele>
        <time>2010-12-25T21:15:40Z</time>
      </trkpt>
      <trkpt lat="37.118969690054655" lon="-2.578238965943456">
        <ele>773.51806639999995</ele>
        <time>2010-12-25T21:15:45Z</time>
      </trkpt>
      <trkpt lat="37.11769999936223" lon="-2.573129273951054">
        <ele>771.11474610000005</ele>
        <time>2010-12-25T21:15:58Z</time>
      </trkpt>
      <trkpt lat="37.117448458448052" lon="-2.570655271410942">
        <ele>769.19213869999999</ele>
        <time>2010-12-25T21:16:04Z</time>
      </trkpt>
      <trkpt lat="37.117326837033033" lon="-2.561048185452819">
        <ele>761.50146480000001</ele>
        <time>2010-12-25T21:16:28Z</time>
      </trkpt>
      <trkpt lat="37.117130029946566" lon="-2.55500927567482">
        <ele>755.25292969999998</ele>
        <time>2010-12-25T21:16:43Z</time>
      </trkpt>
      <trkpt lat="37.116778660565615" lon="-2.552305860444903">
        <ele>751.88842769999997</ele>
        <time>2010-12-25T21:16:50Z</time>
      </trkpt>
      <trkpt lat="37.115705525502563" lon="-2.547510322183371">
        <ele>744.67822269999999</ele>
        <time>2010-12-25T21:17:03Z</time>
      </trkpt>
      <trkpt lat="37.115646684542298" lon="-2.545666135847569">
        <ele>741.79443360000005</ele>
        <time>2010-12-25T21:17:08Z</time>
      </trkpt>
      <trkpt lat="37.116283876821399" lon="-2.540886271744967">
        <ele>732.66210939999996</ele>
        <time>2010-12-25T21:17:21Z</time>
      </trkpt>
      <trkpt lat="37.116140462458134" lon="-2.53903403878212">
        <ele>730.25854489999995</ele>
        <time>2010-12-25T21:17:26Z</time>
      </trkpt>
      <trkpt lat="37.115642996504903" lon="-2.537240562960506">
        <ele>731.21997069999998</ele>
        <time>2010-12-25T21:17:31Z</time>
      </trkpt>
      <trkpt lat="37.112511936575174" lon="-2.531042480841279">
        <ele>749.00439449999999</ele>
        <time>2010-12-25T21:17:51Z</time>
      </trkpt>
      <trkpt lat="37.111521866172552" lon="-2.529787961393595">
        <ele>751.88842769999997</ele>
        <time>2010-12-25T21:17:56Z</time>
      </trkpt>
      <trkpt lat="37.110327025875449" lon="-2.52878406085074">
        <ele>755.25292969999998</ele>
        <time>2010-12-25T21:18:01Z</time>
      </trkpt>
      <trkpt lat="37.108959266915917" lon="-2.528086937963963">
        <ele>757.17553710000004</ele>
        <time>2010-12-25T21:18:06Z</time>
      </trkpt>
      <trkpt lat="37.107468293979764" lon="-2.527748141437769">
        <ele>756.69482419999997</ele>
        <time>2010-12-25T21:18:11Z</time>
      </trkpt>
      <trkpt lat="37.105911271646619" lon="-2.527829362079501">
        <ele>754.29174799999998</ele>
        <time>2010-12-25T21:18:16Z</time>
      </trkpt>
      <trkpt lat="37.098983963951468" lon="-2.529611438512802">
        <ele>752.36889650000001</ele>
        <time>2010-12-25T21:18:38Z</time>
      </trkpt>
      <trkpt lat="37.0974350720644" lon="-2.529583862051368">
        <ele>756.69482419999997</ele>
        <time>2010-12-25T21:18:43Z</time>
      </trkpt>
      <trkpt lat="37.095930939540267" lon="-2.529085222631693">
        <ele>758.13696289999996</ele>
        <time>2010-12-25T21:18:48Z</time>
      </trkpt>
      <trkpt lat="37.094564940780401" lon="-2.528122058138251">
        <ele>755.73364260000005</ele>
        <time>2010-12-25T21:18:53Z</time>
      </trkpt>
      <trkpt lat="37.093406394124031" lon="-2.526745162904263">
        <ele>753.81103519999999</ele>
        <time>2010-12-25T21:18:58Z</time>
      </trkpt>
      <trkpt lat="37.092308616265655" lon="-2.524951435625553">
        <ele>745.15893549999998</ele>
        <time>2010-12-25T21:19:04Z</time>
      </trkpt>
      <trkpt lat="37.091226764023304" lon="-2.523689791560173">
        <ele>736.98779300000001</ele>
        <time>2010-12-25T21:19:09Z</time>
      </trkpt>
      <trkpt lat="37.088088076561689" lon="-2.521408321335912">
        <ele>715.35815430000002</ele>
        <time>2010-12-25T21:19:21Z</time>
      </trkpt>
      <trkpt lat="37.086992980912328" lon="-2.520023295655847">
        <ele>704.78369139999995</ele>
        <time>2010-12-25T21:19:26Z</time>
      </trkpt>
      <trkpt lat="37.085163882002234" lon="-2.517113434150815">
        <ele>686.99926760000005</ele>
        <time>2010-12-25T21:19:35Z</time>
      </trkpt>
      <trkpt lat="37.083910033106804" lon="-2.514835065230727">
        <ele>672.57958980000001</ele>
        <time>2010-12-25T21:19:42Z</time>
      </trkpt>
      <trkpt lat="37.082730866968632" lon="-2.510013291612268">
        <ele>645.66259769999999</ele>
        <time>2010-12-25T21:19:55Z</time>
      </trkpt>
      <trkpt lat="37.08189276047051" lon="-2.507840283215046">
        <ele>635.08813480000003</ele>
        <time>2010-12-25T21:20:01Z</time>
      </trkpt>
      <trkpt lat="37.080755084753036" lon="-2.505902135744691">
        <ele>624.99438480000003</ele>
        <time>2010-12-25T21:20:07Z</time>
      </trkpt>
      <trkpt lat="37.079368634149432" lon="-2.504260959103704">
        <ele>614.90039060000004</ele>
        <time>2010-12-25T21:20:13Z</time>
      </trkpt>
      <trkpt lat="37.074263636022806" lon="-2.500024493783712">
        <ele>592.79028319999998</ele>
        <time>2010-12-25T21:20:32Z</time>
      </trkpt>
      <trkpt lat="37.072765873745084" lon="-2.498600827530026">
        <ele>584.61889650000001</ele>
        <time>2010-12-25T21:20:38Z</time>
      </trkpt>
      <trkpt lat="37.071764320135117" lon="-2.497068783268333">
        <ele>577.40917969999998</ele>
        <time>2010-12-25T21:20:43Z</time>
      </trkpt>
      <trkpt lat="37.070927890017629" lon="-2.495035165920854">
        <ele>566.35375980000003</ele>
        <time>2010-12-25T21:20:49Z</time>
      </trkpt>
      <trkpt lat="37.070095567032695" lon="-2.49349482357502">
        <ele>558.66333010000005</ele>
        <time>2010-12-25T21:20:54Z</time>
      </trkpt>
      <trkpt lat="37.068955125287175" lon="-2.492214320227504">
        <ele>551.93408199999999</ele>
        <time>2010-12-25T21:20:59Z</time>
      </trkpt>
      <trkpt lat="37.064319932833314" lon="-2.488960884511471">
        <ele>533.18835449999995</ele>
        <time>2010-12-25T21:21:16Z</time>
      </trkpt>
      <trkpt lat="37.062237868085504" lon="-2.487245695665479">
        <ele>525.9783936</ele>
        <time>2010-12-25T21:21:24Z</time>
      </trkpt>
      <trkpt lat="37.060822835192084" lon="-2.485640477389097">
        <ele>520.21057129999997</ele>
        <time>2010-12-25T21:21:30Z</time>
      </trkpt>
      <trkpt lat="37.059422135353088" lon="-2.483486076816917">
        <ele>513.48144530000002</ele>
        <time>2010-12-25T21:21:37Z</time>
      </trkpt>
      <trkpt lat="37.057623630389571" lon="-2.480373540893197">
        <ele>503.38745119999999</ele>
        <time>2010-12-25T21:21:47Z</time>
      </trkpt>
      <trkpt lat="37.056082617491484" lon="-2.478448133915663">
        <ele>496.65832519999998</ele>
        <time>2010-12-25T21:21:54Z</time>
      </trkpt>
      <trkpt lat="37.05454763956368" lon="-2.477052295580506">
        <ele>490.89038090000003</ele>
        <time>2010-12-25T21:22:00Z</time>
      </trkpt>
      <trkpt lat="37.043640436604619" lon="-2.470309222117066">
        <ele>451.95703129999998</ele>
        <time>2010-12-25T21:22:40Z</time>
      </trkpt>
      <trkpt lat="37.040651617571712" lon="-2.468264540657401">
        <ele>443.30505369999997</ele>
        <time>2010-12-25T21:22:51Z</time>
      </trkpt>
      <trkpt lat="37.038658568635583" lon="-2.466407530009747">
        <ele>436.57592770000002</ele>
        <time>2010-12-25T21:22:59Z</time>
      </trkpt>
      <trkpt lat="37.036875234916806" lon="-2.464235695078969">
        <ele>428.40466309999999</ele>
        <time>2010-12-25T21:23:07Z</time>
      </trkpt>
      <trkpt lat="37.035308824852109" lon="-2.46175741776824">
        <ele>416.86889650000001</ele>
        <time>2010-12-25T21:23:15Z</time>
      </trkpt>
      <trkpt lat="37.032946636900306" lon="-2.456412361934781">
        <ele>383.7032471</ele>
        <time>2010-12-25T21:23:31Z</time>
      </trkpt>
      <trkpt lat="37.031818935647607" lon="-2.454180093482137">
        <ele>368.80297849999999</ele>
        <time>2010-12-25T21:23:39Z</time>
      </trkpt>
      <trkpt lat="37.030576569959521" lon="-2.45240556076169">
        <ele>354.38317869999997</ele>
        <time>2010-12-25T21:23:46Z</time>
      </trkpt>
      <trkpt lat="37.028829865157604" lon="-2.45049498975277">
        <ele>337.56005859999999</ele>
        <time>2010-12-25T21:23:54Z</time>
      </trkpt>
      <trkpt lat="37.027342664077878" lon="-2.448638565838337">
        <ele>321.69836429999998</ele>
        <time>2010-12-25T21:24:01Z</time>
      </trkpt>
      <trkpt lat="37.026073476299644" lon="-2.446427922695875">
        <ele>304.87524409999997</ele>
        <time>2010-12-25T21:24:08Z</time>
      </trkpt>
      <trkpt lat="37.025008136406541" lon="-2.445078687742353">
        <ele>294.7813721</ele>
        <time>2010-12-25T21:24:13Z</time>
      </trkpt>
      <trkpt lat="37.023954363539815" lon="-2.444303277879953">
        <ele>288.53295900000001</ele>
        <time>2010-12-25T21:24:17Z</time>
      </trkpt>
      <trkpt lat="37.022776873782277" lon="-2.443850236013532">
        <ele>282.28430179999998</ele>
        <time>2010-12-25T21:24:21Z</time>
      </trkpt>
      <trkpt lat="37.02158136293292" lon="-2.443738086149097">
        <ele>277.47766109999998</ele>
        <time>2010-12-25T21:24:25Z</time>
      </trkpt>
      <trkpt lat="37.020115284249187" lon="-2.444043690338731">
        <ele>273.63244630000003</ele>
        <time>2010-12-25T21:24:30Z</time>
      </trkpt>
      <trkpt lat="37.018452566117048" lon="-2.444819938391447">
        <ele>272.6711426</ele>
        <time>2010-12-25T21:24:36Z</time>
      </trkpt>
      <trkpt lat="37.014981117099524" lon="-2.445679334923625">
        <ele>265.46130369999997</ele>
        <time>2010-12-25T21:24:48Z</time>
      </trkpt>
      <trkpt lat="37.013622662052512" lon="-2.446494726464152">
        <ele>260.17395019999998</ele>
        <time>2010-12-25T21:24:53Z</time>
      </trkpt>
      <trkpt lat="37.012714985758066" lon="-2.447470128536224">
        <ele>255.84802250000001</ele>
        <time>2010-12-25T21:24:57Z</time>
      </trkpt>
      <trkpt lat="37.009677886962891" lon="-2.452789032831788">
        <ele>237.58288569999999</ele>
        <time>2010-12-25T21:25:14Z</time>
      </trkpt>
      <trkpt lat="37.008377937600017" lon="-2.454536659643054">
        <ele>233.2570801</ele>
        <time>2010-12-25T21:25:20Z</time>
      </trkpt>
      <trkpt lat="37.000794159248471" lon="-2.46156832203269">
        <ele>237.58288569999999</ele>
        <time>2010-12-25T21:25:51Z</time>
      </trkpt>
      <trkpt lat="36.999539136886597" lon="-2.462308863177896">
        <ele>236.62170409999999</ele>
        <time>2010-12-25T21:25:56Z</time>
      </trkpt>
      <trkpt lat="36.996582839637995" lon="-2.463534465059638">
        <ele>227.9697266</ele>
        <time>2010-12-25T21:26:08Z</time>
      </trkpt>
      <trkpt lat="36.994937472045422" lon="-2.464265283197165">
        <ele>219.31799319999999</ele>
        <time>2010-12-25T21:26:15Z</time>
      </trkpt>
      <trkpt lat="36.993658980354667" lon="-2.464414061978459">
        <ele>211.14672849999999</ele>
        <time>2010-12-25T21:26:20Z</time>
      </trkpt>
      <trkpt lat="36.990415519103408" lon="-2.463714173063636">
        <ele>195.765625</ele>
        <time>2010-12-25T21:26:32Z</time>
      </trkpt>
      <trkpt lat="36.987323435023427" lon="-2.463696822524071">
        <ele>194.32373050000001</ele>
        <time>2010-12-25T21:26:43Z</time>
      </trkpt>
      <trkpt lat="36.985370116308331" lon="-2.463345285505056">
        <ele>192.40112300000001</ele>
        <time>2010-12-25T21:26:50Z</time>
      </trkpt>
      <trkpt lat="36.984034292399883" lon="-2.463538236916065">
        <ele>190.95898439999999</ele>
        <time>2010-12-25T21:26:55Z</time>
      </trkpt>
      <trkpt lat="36.982434689998627" lon="-2.464168472215533">
        <ele>189.99768069999999</ele>
        <time>2010-12-25T21:27:01Z</time>
      </trkpt>
      <trkpt lat="36.980414064601064" lon="-2.464731317013502">
        <ele>186.6331787</ele>
        <time>2010-12-25T21:27:08Z</time>
      </trkpt>
      <trkpt lat="36.969680534675717" lon="-2.465278068557382">
        <ele>162.60009769999999</ele>
        <time>2010-12-25T21:27:43Z</time>
      </trkpt>
      <trkpt lat="36.967152887955308" lon="-2.465553833171725">
        <ele>159.71618649999999</ele>
        <time>2010-12-25T21:27:51Z</time>
      </trkpt>
      <trkpt lat="36.963793588802218" lon="-2.46651372872293">
        <ele>164.5227051</ele>
        <time>2010-12-25T21:28:02Z</time>
      </trkpt>
      <trkpt lat="36.962257940322161" lon="-2.466392358765006">
        <ele>166.92602539999999</ele>
        <time>2010-12-25T21:28:07Z</time>
      </trkpt>
      <trkpt lat="36.960148131474853" lon="-2.465795064345002">
        <ele>170.77136229999999</ele>
        <time>2010-12-25T21:28:14Z</time>
      </trkpt>
      <trkpt lat="36.956220790743828" lon="-2.465506894513965">
        <ele>181.34582520000001</ele>
        <time>2010-12-25T21:28:27Z</time>
      </trkpt>
      <trkpt lat="36.954744821414351" lon="-2.464962238445878">
        <ele>182.7878418</ele>
        <time>2010-12-25T21:28:32Z</time>
      </trkpt>
      <trkpt lat="36.953356862068176" lon="-2.4640544783324">
        <ele>182.7878418</ele>
        <time>2010-12-25T21:28:37Z</time>
      </trkpt>
      <trkpt lat="36.952114161103964" lon="-2.46282166801393">
        <ele>181.82641599999999</ele>
        <time>2010-12-25T21:28:42Z</time>
      </trkpt>
      <trkpt lat="36.951096598058939" lon="-2.461313931271434">
        <ele>179.4232178</ele>
        <time>2010-12-25T21:28:47Z</time>
      </trkpt>
      <trkpt lat="36.948672970756888" lon="-2.456251094117761">
        <ele>165.4841309</ele>
        <time>2010-12-25T21:29:02Z</time>
      </trkpt>
      <trkpt lat="36.947205131873488" lon="-2.454095436260104">
        <ele>160.67749019999999</ele>
        <time>2010-12-25T21:29:09Z</time>
      </trkpt>
      <trkpt lat="36.945471167564392" lon="-2.452192241325975">
        <ele>154.90954590000001</ele>
        <time>2010-12-25T21:29:16Z</time>
      </trkpt>
      <trkpt lat="36.943531595170498" lon="-2.450614683330059">
        <ele>149.62231449999999</ele>
        <time>2010-12-25T21:29:23Z</time>
      </trkpt>
      <trkpt lat="36.941416841000319" lon="-2.449404336512089">
        <ele>144.81579590000001</ele>
        <time>2010-12-25T21:29:30Z</time>
      </trkpt>
      <trkpt lat="36.939164288341999" lon="-2.448572097346187">
        <ele>138.56726069999999</ele>
        <time>2010-12-25T21:29:37Z</time>
      </trkpt>
      <trkpt lat="36.935906829312444" lon="-2.447670036926866">
        <ele>130.87670900000001</ele>
        <time>2010-12-25T21:29:47Z</time>
      </trkpt>
      <trkpt lat="36.933999862521887" lon="-2.44678876362741">
        <ele>129.43469239999999</ele>
        <time>2010-12-25T21:29:53Z</time>
      </trkpt>
      <trkpt lat="36.932231783866882" lon="-2.445580596104264">
        <ele>131.35729979999999</ele>
        <time>2010-12-25T21:29:59Z</time>
      </trkpt>
      <trkpt lat="36.930428417399526" lon="-2.443883260712028">
        <ele>134.2412109</ele>
        <time>2010-12-25T21:30:06Z</time>
      </trkpt>
      <trkpt lat="36.92886846140027" lon="-2.441874537616968">
        <ele>135.2025146</ele>
        <time>2010-12-25T21:30:13Z</time>
      </trkpt>
      <trkpt lat="36.926140571013093" lon="-2.437069192528725">
        <ele>134.72192380000001</ele>
        <time>2010-12-25T21:30:28Z</time>
      </trkpt>
      <trkpt lat="36.925040362402797" lon="-2.435763375833631">
        <ele>136.64465329999999</ele>
        <time>2010-12-25T21:30:33Z</time>
      </trkpt>
      <trkpt lat="36.923257280141115" lon="-2.43424273096025">
        <ele>137.1252441</ele>
        <time>2010-12-25T21:30:40Z</time>
      </trkpt>
      <trkpt lat="36.921558519825339" lon="-2.43253106251359">
        <ele>140.48986819999999</ele>
        <time>2010-12-25T21:30:47Z</time>
      </trkpt>
      <trkpt lat="36.920580435544252" lon="-2.430998180061579">
        <ele>141.45104979999999</ele>
        <time>2010-12-25T21:30:52Z</time>
      </trkpt>
      <trkpt lat="36.919852886348963" lon="-2.429221216589212">
        <ele>140.0091553</ele>
        <time>2010-12-25T21:30:57Z</time>
      </trkpt>
      <trkpt lat="36.919413758441806" lon="-2.427275693044066">
        <ele>138.56726069999999</ele>
        <time>2010-12-25T21:31:02Z</time>
      </trkpt>
      <trkpt lat="36.918922662734985" lon="-2.424583761021495">
        <ele>135.2025146</ele>
        <time>2010-12-25T21:31:09Z</time>
      </trkpt>
      <trkpt lat="36.91822168417275" lon="-2.422883827239275">
        <ele>134.2412109</ele>
        <time>2010-12-25T21:31:14Z</time>
      </trkpt>
      <trkpt lat="36.917206216603518" lon="-2.421464938670397">
        <ele>131.35729979999999</ele>
        <time>2010-12-25T21:31:19Z</time>
      </trkpt>
      <trkpt lat="36.915949182584882" lon="-2.420410830527544">
        <ele>128.9541016</ele>
        <time>2010-12-25T21:31:24Z</time>
      </trkpt>
      <trkpt lat="36.914514536038041" lon="-2.419764921069145">
        <ele>127.0313721</ele>
        <time>2010-12-25T21:31:29Z</time>
      </trkpt>
      <trkpt lat="36.912961537018418" lon="-2.419571718201041">
        <ele>123.666748</ele>
        <time>2010-12-25T21:31:34Z</time>
      </trkpt>
      <trkpt lat="36.909354636445642" lon="-2.420338494703174">
        <ele>117.4182129</ele>
        <time>2010-12-25T21:31:46Z</time>
      </trkpt>
      <trkpt lat="36.907788561657071" lon="-2.420200277119875">
        <ele>114.05358889999999</ele>
        <time>2010-12-25T21:31:51Z</time>
      </trkpt>
      <trkpt lat="36.904450636357069" lon="-2.419018261134625">
        <ele>110.6888428</ele>
        <time>2010-12-25T21:32:02Z</time>
      </trkpt>
      <trkpt lat="36.900838874280453" lon="-2.418983140960336">
        <ele>116.9375</ele>
        <time>2010-12-25T21:32:14Z</time>
      </trkpt>
      <trkpt lat="36.899424763396382" lon="-2.418501265347004">
        <ele>119.82141110000001</ele>
        <time>2010-12-25T21:32:19Z</time>
      </trkpt>
      <trkpt lat="36.898139985278249" lon="-2.41764647886157">
        <ele>120.30212400000001</ele>
        <time>2010-12-25T21:32:24Z</time>
      </trkpt>
      <trkpt lat="36.896107876673341" lon="-2.416300177574158">
        <ele>117.8988037</ele>
        <time>2010-12-25T21:32:32Z</time>
      </trkpt>
      <trkpt lat="36.894468795508146" lon="-2.415674384683371">
        <ele>115.0148926</ele>
        <time>2010-12-25T21:32:38Z</time>
      </trkpt>
      <trkpt lat="36.892849579453468" lon="-2.415426196530461">
        <ele>110.6888428</ele>
        <time>2010-12-25T21:32:44Z</time>
      </trkpt>
      <trkpt lat="36.890797270461917" lon="-2.415617639198899">
        <ele>105.4017334</ele>
        <time>2010-12-25T21:32:55Z</time>
      </trkpt>
      <trkpt lat="36.890216739848256" lon="-2.415867419913411">
        <ele>103.4790039</ele>
        <time>2010-12-25T21:32:59Z</time>
      </trkpt>
      <trkpt lat="36.889644674956799" lon="-2.416577618569136">
        <ele>102.03710940000001</ele>
        <time>2010-12-25T21:33:04Z</time>
      </trkpt>
      <trkpt lat="36.889539565891027" lon="-2.417314136400819">
        <ele>103.9597168</ele>
        <time>2010-12-25T21:33:08Z</time>
      </trkpt>
      <trkpt lat="36.889907782897353" lon="-2.41827679798007">
        <ele>104.9210205</ele>
        <time>2010-12-25T21:33:14Z</time>
      </trkpt>
      <trkpt lat="36.892410283908248" lon="-2.422011941671372">
        <ele>102.51770019999999</ele>
        <time>2010-12-25T21:33:33Z</time>
      </trkpt>
      <trkpt lat="36.892952928319573" lon="-2.423309041187167">
        <ele>101.0756836</ele>
        <time>2010-12-25T21:33:38Z</time>
      </trkpt>
      <trkpt lat="36.893300525844097" lon="-2.425114838406444">
        <ele>95.307739299999994</ele>
        <time>2010-12-25T21:33:44Z</time>
      </trkpt>
      <trkpt lat="36.893270434811711" lon="-2.426722319796681">
        <ele>89.059326200000001</ele>
        <time>2010-12-25T21:33:49Z</time>
      </trkpt>
      <trkpt lat="36.892905235290527" lon="-2.4283117800951">
        <ele>81.849365199999994</ele>
        <time>2010-12-25T21:33:54Z</time>
      </trkpt>
      <trkpt lat="36.892064278945327" lon="-2.43043533526361">
        <ele>77.042846699999998</ele>
        <time>2010-12-25T21:34:01Z</time>
      </trkpt>
      <trkpt lat="36.891517024487257" lon="-2.432328723371029">
        <ele>75.600830099999996</ele>
        <time>2010-12-25T21:34:07Z</time>
      </trkpt>
      <trkpt lat="36.891324324533343" lon="-2.434269636869431">
        <ele>76.562133799999998</ele>
        <time>2010-12-25T21:34:13Z</time>
      </trkpt>
      <trkpt lat="36.891443431377411" lon="-2.436235193163157">
        <ele>80.407470700000005</ele>
        <time>2010-12-25T21:34:19Z</time>
      </trkpt>
      <trkpt lat="36.89187727868557" lon="-2.438079882413149">
        <ele>89.539917000000003</ele>
        <time>2010-12-25T21:34:25Z</time>
      </trkpt>
      <trkpt lat="36.892646485939622" lon="-2.440051641315222">
        <ele>101.0756836</ele>
        <time>2010-12-25T21:34:32Z</time>
      </trkpt>
      <trkpt lat="36.893106568604708" lon="-2.441833969205618">
        <ele>108.2856445</ele>
        <time>2010-12-25T21:34:38Z</time>
      </trkpt>
      <trkpt lat="36.893199440091848" lon="-2.443397361785173">
        <ele>113.572998</ele>
        <time>2010-12-25T21:34:43Z</time>
      </trkpt>
      <trkpt lat="36.892965920269489" lon="-2.44523786008358">
        <ele>119.82141110000001</ele>
        <time>2010-12-25T21:34:49Z</time>
      </trkpt>
      <trkpt lat="36.891425661742687" lon="-2.449140390381217">
        <ele>134.72192380000001</ele>
        <time>2010-12-25T21:35:03Z</time>
      </trkpt>
      <trkpt lat="36.89094252884388" lon="-2.451266963034868">
        <ele>143.3736572</ele>
        <time>2010-12-25T21:35:10Z</time>
      </trkpt>
      <trkpt lat="36.890402063727379" lon="-2.452695490792394">
        <ele>150.10302730000001</ele>
        <time>2010-12-25T21:35:15Z</time>
      </trkpt>
      <trkpt lat="36.889588935300708" lon="-2.453956296667457">
        <ele>155.3902588</ele>
        <time>2010-12-25T21:35:20Z</time>
      </trkpt>
      <trkpt lat="36.88852627761662" lon="-2.454950641840696">
        <ele>160.19689940000001</ele>
        <time>2010-12-25T21:35:25Z</time>
      </trkpt>
      <trkpt lat="36.883768541738391" lon="-2.45699817314744">
        <ele>179.90380859999999</ele>
        <time>2010-12-25T21:35:43Z</time>
      </trkpt>
      <trkpt lat="36.880070026963949" lon="-2.458451092243195">
        <ele>189.99768069999999</ele>
        <time>2010-12-25T21:35:57Z</time>
      </trkpt>
      <trkpt lat="36.877218335866928" lon="-2.459580134600401">
        <ele>184.7105713</ele>
        <time>2010-12-25T21:36:07Z</time>
      </trkpt>
      <trkpt lat="36.872633770108223" lon="-2.461386183276773">
        <ele>166.4453125</ele>
        <time>2010-12-25T21:36:22Z</time>
      </trkpt>
      <trkpt lat="36.865468081086874" lon="-2.46434566564858">
        <ele>140.0091553</ele>
        <time>2010-12-25T21:36:47Z</time>
      </trkpt>
      <trkpt lat="36.863620458170772" lon="-2.465540925040841">
        <ele>135.2025146</ele>
        <time>2010-12-25T21:36:54Z</time>
      </trkpt>
      <trkpt lat="36.862104590982199" lon="-2.466916730627418">
        <ele>130.87670900000001</ele>
        <time>2010-12-25T21:37:00Z</time>
      </trkpt>
      <trkpt lat="36.859742738306522" lon="-2.469556527212262">
        <ele>120.30212400000001</ele>
        <time>2010-12-25T21:37:10Z</time>
      </trkpt>
      <trkpt lat="36.857712641358376" lon="-2.471427535638213">
        <ele>108.2856445</ele>
        <time>2010-12-25T21:37:18Z</time>
      </trkpt>
      <trkpt lat="36.852418463677168" lon="-2.474858835339546">
        <ele>90.981933600000005</ele>
        <time>2010-12-25T21:37:37Z</time>
      </trkpt>
      <trkpt lat="36.850761193782091" lon="-2.476399596780539">
        <ele>95.788452100000001</ele>
        <time>2010-12-25T21:37:44Z</time>
      </trkpt>
      <trkpt lat="36.849408186972141" lon="-2.478092070668936">
        <ele>105.8824463</ele>
        <time>2010-12-25T21:37:51Z</time>
      </trkpt>
      <trkpt lat="36.847758628427982" lon="-2.480617789551616">
        <ele>119.82141110000001</ele>
        <time>2010-12-25T21:38:01Z</time>
      </trkpt>
      <trkpt lat="36.84630042873323" lon="-2.482411684468389">
        <ele>129.43469239999999</ele>
        <time>2010-12-25T21:38:09Z</time>
      </trkpt>
      <trkpt lat="36.844677440822124" lon="-2.483870973810554">
        <ele>137.60583500000001</ele>
        <time>2010-12-25T21:38:17Z</time>
      </trkpt>
      <trkpt lat="36.84266653843224" lon="-2.485191794112325">
        <ele>142.41247559999999</ele>
        <time>2010-12-25T21:38:26Z</time>
      </trkpt>
      <trkpt lat="36.839172290638089" lon="-2.487275199964643">
        <ele>146.2578125</ele>
        <time>2010-12-25T21:38:41Z</time>
      </trkpt>
      <trkpt lat="36.836899789050221" lon="-2.488635834306479">
        <ele>137.60583500000001</ele>
        <time>2010-12-25T21:38:50Z</time>
      </trkpt>
      <trkpt lat="36.834689565002918" lon="-2.490030666813254">
        <ele>123.1861572</ele>
        <time>2010-12-25T21:38:59Z</time>
      </trkpt>
      <trkpt lat="36.833514841273427" lon="-2.491173874586821">
        <ele>115.0148926</ele>
        <time>2010-12-25T21:39:05Z</time>
      </trkpt>
      <trkpt lat="36.832577576860785" lon="-2.492562336847186">
        <ele>107.3243408</ele>
        <time>2010-12-25T21:39:11Z</time>
      </trkpt>
      <trkpt lat="36.831887159496546" lon="-2.494173841550946">
        <ele>100.5950928</ele>
        <time>2010-12-25T21:39:17Z</time>
      </trkpt>
      <trkpt lat="36.831502765417099" lon="-2.495860867202282">
        <ele>98.191894500000004</ele>
        <time>2010-12-25T21:39:23Z</time>
      </trkpt>
      <trkpt lat="36.831388436257839" lon="-2.497719889506698">
        <ele>102.03710940000001</ele>
        <time>2010-12-25T21:39:30Z</time>
      </trkpt>
      <trkpt lat="36.831715498119593" lon="-2.501717386767268">
        <ele>115.0148926</ele>
        <time>2010-12-25T21:39:48Z</time>
      </trkpt>
      <trkpt lat="36.831842735409737" lon="-2.502138828858733">
        <ele>116.9375</ele>
        <time>2010-12-25T21:39:52Z</time>
      </trkpt>
      <trkpt lat="36.832303237169981" lon="-2.502795970067382">
        <ele>125.1087646</ele>
        <time>2010-12-25T21:40:04Z</time>
      </trkpt>
      <trkpt lat="36.832644799724221" lon="-2.502863528206945">
        <ele>125.1087646</ele>
        <time>2010-12-25T21:40:10Z</time>
      </trkpt>
      <trkpt lat="36.833098595961928" lon="-2.502527665346861">
        <ele>122.2247314</ele>
        <time>2010-12-25T21:40:15Z</time>
      </trkpt>
      <trkpt lat="36.83422302827239" lon="-2.499445471912623">
        <ele>99.153076200000001</ele>
        <time>2010-12-25T21:40:32Z</time>
      </trkpt>
      <trkpt lat="36.834259238094091" lon="-2.498363284394145">
        <ele>92.423950199999993</ele>
        <time>2010-12-25T21:40:37Z</time>
      </trkpt>
      <trkpt lat="36.833843663334846" lon="-2.495340937748551">
        <ele>76.081420899999998</ele>
        <time>2010-12-25T21:40:50Z</time>
      </trkpt>
      <trkpt lat="36.833230191841722" lon="-2.494287835434079">
        <ele>65.026367199999996</ele>
        <time>2010-12-25T21:40:56Z</time>
      </trkpt>
      <trkpt lat="36.830827435478568" lon="-2.492519337683916">
        <ele>42.4354248</ele>
        <time>2010-12-25T21:41:11Z</time>
      </trkpt>
      <trkpt lat="36.83037749491632" lon="-2.491774018853903">
        <ele>35.225463900000001</ele>
        <time>2010-12-25T21:41:17Z</time>
      </trkpt>
      <trkpt lat="36.83038386516273" lon="-2.491104891523719">
        <ele>31.8607178</ele>
        <time>2010-12-25T21:41:21Z</time>
      </trkpt>
      <trkpt lat="36.83114318177104" lon="-2.489091558381915">
        <ele>21.7669678</ele>
        <time>2010-12-25T21:41:35Z</time>
      </trkpt>
      <trkpt lat="36.831376533955336" lon="-2.488631224259734">
        <ele>18.8830566</ele>
        <time>2010-12-25T21:41:39Z</time>
      </trkpt>
      <trkpt lat="36.83230516500771" lon="-2.48764886520803">
        <ele>13.5958252</ele>
        <time>2010-12-25T21:41:47Z</time>
      </trkpt>
      <trkpt lat="36.833459185436368" lon="-2.486844789236784">
        <ele>9.750610399999999</ele>
        <time>2010-12-25T21:41:56Z</time>
      </trkpt>
      <trkpt lat="36.834146333858371" lon="-2.486060494557023">
        <ele>7.8278809</ele>
        <time>2010-12-25T21:42:02Z</time>
      </trkpt>
      <trkpt lat="36.836231583729386" lon="-2.482930524274707">
        <ele>6.3858643</ele>
        <time>2010-12-25T21:42:25Z</time>
      </trkpt>
      <trkpt lat="36.837174464017153" lon="-2.47978831641376">
        <ele>7.8278809</ele>
        <time>2010-12-25T21:42:53Z</time>
      </trkpt>
      <trkpt lat="36.836883360520005" lon="-2.478971835225821">
        <ele>4.9438477</ele>
        <time>2010-12-25T21:43:08Z</time>
      </trkpt>
      <trkpt lat="36.836377261206508" lon="-2.47890536673367">
        <ele>-2.2659912</ele>
        <time>2010-12-25T21:43:18Z</time>
      </trkpt>
      <trkpt lat="36.836793422698975" lon="-2.478254679590464">
        <ele>-0.8240967</ele>
        <time>2010-12-25T21:43:27Z</time>
      </trkpt>
      <trkpt lat="36.836979081854224" lon="-2.477294616401196">
        <ele>0.618042</ele>
        <time>2010-12-25T21:43:35Z</time>
      </trkpt>
      <trkpt lat="36.837260378524661" lon="-2.474978528916836">
        <ele>4.4632568</ele>
        <time>2010-12-25T21:43:52Z</time>
      </trkpt>
      <trkpt lat="36.837018141523004" lon="-2.474087867885828">
        <ele>6.8664551</ele>
        <time>2010-12-25T21:44:04Z</time>
      </trkpt>
      <trkpt lat="36.837257528677583" lon="-2.473933137953281">
        <ele>7.347168</ele>
        <time>2010-12-25T21:44:08Z</time>
      </trkpt>
      <trkpt lat="36.837313938885927" lon="-2.473459476605058">
        <ele>7.8278809</ele>
        <time>2010-12-25T21:44:13Z</time>
      </trkpt>
      <trkpt lat="36.836106358096004" lon="-2.469370784237981">
        <ele>6.3858643</ele>
        <time>2010-12-25T21:44:43Z</time>
      </trkpt>
      <trkpt lat="36.83502484112978" lon="-2.466890998184681">
        <ele>8.308593800000001</ele>
        <time>2010-12-25T21:45:07Z</time>
      </trkpt>
      <trkpt lat="36.833862438797951" lon="-2.464935081079602">
        <ele>7.8278809</ele>
        <time>2010-12-25T21:45:26Z</time>
      </trkpt>
      <trkpt lat="36.83364694006741" lon="-2.464706841856241">
        <ele>4.9438477</ele>
        <time>2010-12-25T21:45:32Z</time>
      </trkpt>
      <trkpt lat="36.833467734977603" lon="-2.464760737493634">
        <ele>1.5793457</ele>
        <time>2010-12-25T21:45:38Z</time>
      </trkpt>
      <trkpt lat="36.833492964506149" lon="-2.465136162936688">
        <ele>0.618042</ele>
        <time>2010-12-25T21:45:44Z</time>
      </trkpt>
      <trkpt lat="36.833700416609645" lon="-2.465505637228489">
        <ele>0.618042</ele>
        <time>2010-12-25T21:45:50Z</time>
      </trkpt>
      <trkpt lat="36.833649035543203" lon="-2.465823059901595">
        <ele>1.0986328</ele>
        <time>2010-12-25T21:45:58Z</time>
      </trkpt>
      <trkpt lat="36.833326919004321" lon="-2.466131262481213">
        <ele>-1.7852783</ele>
        <time>2010-12-25T21:46:09Z</time>
      </trkpt>
      <trkpt lat="36.833282327279449" lon="-2.466430580243468">
        <ele>-1.3046875</ele>
        <time>2010-12-25T21:46:15Z</time>
      </trkpt>
      <trkpt lat="36.833925973623991" lon="-2.467415034770966">
        <ele>2.5406494</ele>
        <time>2010-12-25T21:46:38Z</time>
      </trkpt>
      <trkpt lat="36.834213640540838" lon="-2.46739181689918">
        <ele>11.192504899999999</ele>
        <time>2010-12-25T21:49:07Z</time>
      </trkpt>
      <trkpt lat="36.834073830395937" lon="-2.467467337846756">
        <ele>15.9990234</ele>
        <time>2010-12-25T22:02:01Z</time>
      </trkpt>
      <trkpt lat="36.834330568090081" lon="-2.467134241014719">
        <ele>9.750610399999999</ele>
        <time>2010-12-25T22:04:10Z</time>
      </trkpt>
      <trkpt lat="36.834567440673709" lon="-2.467098198831081">
        <ele>9.750610399999999</ele>
        <time>2010-12-25T22:11:35Z</time>
      </trkpt>
      <trkpt lat="36.835270933806896" lon="-2.468394376337528">
        <ele>2.0600586</ele>
        <time>2010-12-25T22:14:05Z</time>
      </trkpt>
      <trkpt lat="36.835175631567836" lon="-2.468539886176586">
        <ele>10.231201199999999</ele>
        <time>2010-12-25T22:14:55Z</time>
      </trkpt>
      <trkpt lat="36.834707837551832" lon="-2.467986680567265">
        <ele>7.8278809</ele>
        <time>2010-12-25T22:17:05Z</time>
      </trkpt>
      <trkpt lat="36.834273487329483" lon="-2.467974694445729">
        <ele>18.402343800000001</ele>
        <time>2010-12-25T22:20:53Z</time>
      </trkpt>
      <trkpt lat="36.834129737690091" lon="-2.467833794653416">
        <ele>14.5570068</ele>
        <time>2010-12-25T22:20:59Z</time>
      </trkpt>
      <trkpt lat="36.834151279181242" lon="-2.467506565153599">
        <ele>-3.7078857</ele>
        <time>2010-12-25T22:21:54Z</time>
      </trkpt>
      <trkpt lat="36.833672085776925" lon="-2.467095935717225">
        <ele>-0.3433838</ele>
        <time>2010-12-25T22:23:14Z</time>
      </trkpt>
      <trkpt lat="36.834160163998604" lon="-2.467881990596652">
        <ele>18.8830566</ele>
        <time>2010-12-25T22:27:16Z</time>
      </trkpt>
      <trkpt lat="36.834584958851337" lon="-2.46821416541934">
        <ele>4.9438477</ele>
        <time>2010-12-25T22:29:20Z</time>
      </trkpt>
      <trkpt lat="36.834425032138824" lon="-2.468805760145187">
        <ele>14.5570068</ele>
        <time>2010-12-25T22:30:03Z</time>
      </trkpt>
      <trkpt lat="36.834585964679718" lon="-2.468829564750195">
        <ele>16.479736299999999</ele>
        <time>2010-12-25T22:30:11Z</time>
      </trkpt>
      <trkpt lat="36.834628293290734" lon="-2.468692185357213">
        <ele>65.026367199999996</ele>
        <time>2010-12-25T22:30:44Z</time>
      </trkpt>
      <trkpt lat="36.834628293290734" lon="-2.468692185357213">
        <ele>65.026367199999996</ele>
        <time>2010-12-25T22:31:15Z</time>
      </trkpt>
    </trkseg>
  </trk>

  <trk>
    <name>101226</name>
    <extensions>
      <gpxx:TrackExtension xmlns:gpxx="http://www.garmin.com/xmlschemas/GpxExtensions/v3">
        <gpxx:DisplayColor>Green</gpxx:DisplayColor>
      </gpxx:TrackExtension>
    </extensions>
    <trkseg>
      <trkpt lat="35.292089972645044" lon="-2.936546970158815">
        <ele>-17.199999999999999</ele>
        <time>2010-12-26T09:19:50Z</time>
      </trkpt>
      <trkpt lat="35.29205895960331" lon="-2.936711004003882">
        <ele>-45.5</ele>
        <time>2010-12-26T09:21:21Z</time>
      </trkpt>
      <trkpt lat="35.292054014280438" lon="-2.936321999877691">
        <ele>14.6</ele>
        <time>2010-12-26T09:22:58Z</time>
      </trkpt>
      <trkpt lat="35.292129032313824" lon="-2.93642501346767">
        <ele>5.4</ele>
        <time>2010-12-26T09:25:12Z</time>
      </trkpt>
      <trkpt lat="35.292130960151553" lon="-2.936032991856337">
        <ele>51.100000000000001</ele>
        <time>2010-12-26T09:27:16Z</time>
      </trkpt>
      <trkpt lat="35.292125009000301" lon="-2.936411015689373">
        <ele>7.3</ele>
        <time>2010-12-26T09:28:24Z</time>
      </trkpt>
      <trkpt lat="35.29209902510047" lon="-2.936303978785873">
        <ele>14.6</ele>
        <time>2010-12-26T09:29:06Z</time>
      </trkpt>
      <trkpt lat="35.291916970163584" lon="-2.93649198487401">
        <ele>13.6</ele>
        <time>2010-12-26T09:35:09Z</time>
      </trkpt>
      <trkpt lat="35.29173600487411" lon="-2.936853999271989">
        <ele>10.699999999999999</ele>
        <time>2010-12-26T09:35:19Z</time>
      </trkpt>
      <trkpt lat="35.291647994890809" lon="-2.937193969264627">
        <ele>9.300000000000001</ele>
        <time>2010-12-26T09:35:25Z</time>
      </trkpt>
      <trkpt lat="35.291544981300831" lon="-2.937341993674636">
        <ele>8.800000000000001</ele>
        <time>2010-12-26T09:35:28Z</time>
      </trkpt>
      <trkpt lat="35.291378013789654" lon="-2.937892014160752">
        <ele>8.800000000000001</ele>
        <time>2010-12-26T09:35:36Z</time>
      </trkpt>
      <trkpt lat="35.29104801826179" lon="-2.938701035454869">
        <ele>8.800000000000001</ele>
        <time>2010-12-26T09:35:45Z</time>
      </trkpt>
      <trkpt lat="35.29057402163744" lon="-2.93939296156168">
        <ele>8.300000000000001</ele>
        <time>2010-12-26T09:35:54Z</time>
      </trkpt>
      <trkpt lat="35.290262969210744" lon="-2.939809961244464">
        <ele>6.9</ele>
        <time>2010-12-26T09:36:01Z</time>
      </trkpt>
      <trkpt lat="35.290089966729283" lon="-2.939948011189699">
        <ele>6.9</ele>
        <time>2010-12-26T09:36:51Z</time>
      </trkpt>
      <trkpt lat="35.289573976770043" lon="-2.940125958994031">
        <ele>6.9</ele>
        <time>2010-12-26T09:36:58Z</time>
      </trkpt>
      <trkpt lat="35.288854977115989" lon="-2.940361993387342">
        <ele>6.9</ele>
        <time>2010-12-26T09:37:07Z</time>
      </trkpt>
      <trkpt lat="35.288131032139063" lon="-2.940864991396666">
        <ele>8.800000000000001</ele>
        <time>2010-12-26T09:37:17Z</time>
      </trkpt>
      <trkpt lat="35.286990003660321" lon="-2.941736960783601">
        <ele>10.199999999999999</ele>
        <time>2010-12-26T09:37:31Z</time>
      </trkpt>
      <trkpt lat="35.286383992061019" lon="-2.942122025415301">
        <ele>9.800000000000001</ele>
        <time>2010-12-26T09:37:38Z</time>
      </trkpt>
      <trkpt lat="35.285497019067407" lon="-2.942278012633324">
        <ele>6.4</ele>
        <time>2010-12-26T09:37:47Z</time>
      </trkpt>
      <trkpt lat="35.284641981124878" lon="-2.942295027896762">
        <ele>4.5</ele>
        <time>2010-12-26T09:37:57Z</time>
      </trkpt>
      <trkpt lat="35.283920969814062" lon="-2.942067040130496">
        <ele>9.300000000000001</ele>
        <time>2010-12-26T09:38:09Z</time>
      </trkpt>
      <trkpt lat="35.2830970287323" lon="-2.941825976595283">
        <ele>9.800000000000001</ele>
        <time>2010-12-26T09:38:21Z</time>
      </trkpt>
      <trkpt lat="35.281709991395473" lon="-2.941366983577609">
        <ele>6.4</ele>
        <time>2010-12-26T09:38:38Z</time>
      </trkpt>
      <trkpt lat="35.281073972582817" lon="-2.940902039408684">
        <ele>10.699999999999999</ele>
        <time>2010-12-26T09:38:47Z</time>
      </trkpt>
      <trkpt lat="35.280082980170846" lon="-2.940166024491191">
        <ele>15</ele>
        <time>2010-12-26T09:39:01Z</time>
      </trkpt>
      <trkpt lat="35.278928959742188" lon="-2.939418023452163">
        <ele>15</ele>
        <time>2010-12-26T09:39:17Z</time>
      </trkpt>
      <trkpt lat="35.278567029163241" lon="-2.939174026250839">
        <ele>15</ele>
        <time>2010-12-26T09:39:25Z</time>
      </trkpt>
      <trkpt lat="35.278489999473095" lon="-2.939023990184069">
        <ele>16.5</ele>
        <time>2010-12-26T09:40:08Z</time>
      </trkpt>
      <trkpt lat="35.278064031153917" lon="-2.938817040994763">
        <ele>11.699999999999999</ele>
        <time>2010-12-26T09:40:16Z</time>
      </trkpt>
      <trkpt lat="35.277336984872818" lon="-2.93848997913301">
        <ele>5.4</ele>
        <time>2010-12-26T09:40:25Z</time>
      </trkpt>
      <trkpt lat="35.276629971340299" lon="-2.938133999705315">
        <ele>2.5</ele>
        <time>2010-12-26T09:40:34Z</time>
      </trkpt>
      <trkpt lat="35.275550968945026" lon="-2.937599988654256">
        <ele>-1.8</ele>
        <time>2010-12-26T09:40:48Z</time>
      </trkpt>
      <trkpt lat="35.275173028931022" lon="-2.937422962859273">
        <ele>-4.2</ele>
        <time>2010-12-26T09:40:56Z</time>
      </trkpt>
      <trkpt lat="35.27459098957479" lon="-2.937044017016888">
        <ele>-0.3</ele>
        <time>2010-12-26T09:41:06Z</time>
      </trkpt>
      <trkpt lat="35.27409796603024" lon="-2.936768000945449">
        <ele>3</ele>
        <time>2010-12-26T09:41:16Z</time>
      </trkpt>
      <trkpt lat="35.273611983284354" lon="-2.936549987643957">
        <ele>8.800000000000001</ele>
        <time>2010-12-26T09:41:25Z</time>
      </trkpt>
      <trkpt lat="35.273058023303747" lon="-2.936357036232948">
        <ele>7.3</ele>
        <time>2010-12-26T09:41:33Z</time>
      </trkpt>
      <trkpt lat="35.272063007578254" lon="-2.935966020449996">
        <ele>2.5</ele>
        <time>2010-12-26T09:41:45Z</time>
      </trkpt>
      <trkpt lat="35.271178968250751" lon="-2.935638036578894">
        <ele>0.1</ele>
        <time>2010-12-26T09:41:57Z</time>
      </trkpt>
      <trkpt lat="35.271028010174632" lon="-2.935512978583574">
        <ele>11.699999999999999</ele>
        <time>2010-12-26T09:42:03Z</time>
      </trkpt>
      <trkpt lat="35.270843021571636" lon="-2.935706013813615">
        <ele>2.1</ele>
        <time>2010-12-26T09:42:19Z</time>
      </trkpt>
      <trkpt lat="35.270804967731237" lon="-2.935979012399912">
        <ele>0.1</ele>
        <time>2010-12-26T09:42:28Z</time>
      </trkpt>
      <trkpt lat="35.271451966837049" lon="-2.936271959915757">
        <ele>0.1</ele>
        <time>2010-12-26T09:42:39Z</time>
      </trkpt>
      <trkpt lat="35.272066025063396" lon="-2.936522997915745">
        <ele>7.8</ele>
        <time>2010-12-26T09:42:48Z</time>
      </trkpt>
      <trkpt lat="35.272352015599608" lon="-2.936711004003882">
        <ele>10.699999999999999</ele>
        <time>2010-12-26T09:42:56Z</time>
      </trkpt>
      <trkpt lat="35.272239027544856" lon="-2.936861040070653">
        <ele>10.199999999999999</ele>
        <time>2010-12-26T09:43:02Z</time>
      </trkpt>
      <trkpt lat="35.27209896594286" lon="-2.936776969581842">
        <ele>10.199999999999999</ele>
        <time>2010-12-26T09:43:05Z</time>
      </trkpt>
      <trkpt lat="35.271505024284124" lon="-2.936493996530771">
        <ele>9.300000000000001</ele>
        <time>2010-12-26T09:43:13Z</time>
      </trkpt>
      <trkpt lat="35.270834974944592" lon="-2.936162995174527">
        <ele>6.4</ele>
        <time>2010-12-26T09:43:22Z</time>
      </trkpt>
      <trkpt lat="35.270665995776653" lon="-2.935954034328461">
        <ele>4.5</ele>
        <time>2010-12-26T09:43:28Z</time>
      </trkpt>
      <trkpt lat="35.27065996080637" lon="-2.935728980228305">
        <ele>-0.3</ele>
        <time>2010-12-26T09:43:36Z</time>
      </trkpt>
      <trkpt lat="35.270606987178326" lon="-2.935842974111438">
        <ele>-35</ele>
        <time>2010-12-26T09:44:16Z</time>
      </trkpt>
      <trkpt lat="35.27052903547883" lon="-2.935945987701416">
        <ele>-60.399999999999999</ele>
        <time>2010-12-26T09:44:43Z</time>
      </trkpt>
      <trkpt lat="35.270395008847117" lon="-2.936182022094727">
        <ele>-109.90000000000001</ele>
        <time>2010-12-26T09:45:34Z</time>
      </trkpt>
      <trkpt lat="35.27035997249186" lon="-2.936042966321111">
        <ele>-99.400000000000006</ele>
        <time>2010-12-26T09:45:43Z</time>
      </trkpt>
      <trkpt lat="35.270176995545626" lon="-2.935907011851668">
        <ele>-78.700000000000003</ele>
        <time>2010-12-26T09:45:54Z</time>
      </trkpt>
      <trkpt lat="35.270039029419422" lon="-2.935745995491743">
        <ele>-57.100000000000001</ele>
        <time>2010-12-26T09:46:07Z</time>
      </trkpt>
      <trkpt lat="35.269989995285869" lon="-2.93548196554184">
        <ele>-20.5</ele>
        <time>2010-12-26T09:46:27Z</time>
      </trkpt>
      <trkpt lat="35.270084962248802" lon="-2.935360008850694">
        <ele>11.699999999999999</ele>
        <time>2010-12-26T09:47:29Z</time>
      </trkpt>
      <trkpt lat="35.270001981407404" lon="-2.935285996645689">
        <ele>11.199999999999999</ele>
        <time>2010-12-26T09:50:57Z</time>
      </trkpt>
      <trkpt lat="35.269836019724607" lon="-2.935186000540853">
        <ele>12.6</ele>
        <time>2010-12-26T09:51:08Z</time>
      </trkpt>
      <trkpt lat="35.269613983109593" lon="-2.935149958357215">
        <ele>4.9</ele>
        <time>2010-12-26T09:51:43Z</time>
      </trkpt>
      <trkpt lat="35.269488003104925" lon="-2.934891041368246">
        <ele>27.5</ele>
        <time>2010-12-26T09:53:21Z</time>
      </trkpt>
      <trkpt lat="35.269349031150341" lon="-2.934835972264409">
        <ele>20.300000000000001</ele>
        <time>2010-12-26T09:54:19Z</time>
      </trkpt>
      <trkpt lat="35.269277030602098" lon="-2.934924988076091">
        <ele>-18.600000000000001</ele>
        <time>2010-12-26T09:57:16Z</time>
      </trkpt>
      <trkpt lat="35.269187008962035" lon="-2.934868996962905">
        <ele>-11.4</ele>
        <time>2010-12-26T09:57:30Z</time>
      </trkpt>
      <trkpt lat="35.268957009539008" lon="-2.934715021401644">
        <ele>-2.7</ele>
        <time>2010-12-26T09:57:42Z</time>
      </trkpt>
      <trkpt lat="35.268675964325666" lon="-2.934544030576944">
        <ele>-1.8</ele>
        <time>2010-12-26T09:57:54Z</time>
      </trkpt>
      <trkpt lat="35.268392991274595" lon="-2.934361975640059">
        <ele>0.6</ele>
        <time>2010-12-26T09:58:06Z</time>
      </trkpt>
      <trkpt lat="35.268212025985122" lon="-2.934208000078797">
        <ele>-1.8</ele>
        <time>2010-12-26T09:58:21Z</time>
      </trkpt>
      <trkpt lat="35.268057966604829" lon="-2.93412602506578">
        <ele>1.1</ele>
        <time>2010-12-26T09:59:11Z</time>
      </trkpt>
      <trkpt lat="35.267956964671612" lon="-2.934001972898841">
        <ele>3.5</ele>
        <time>2010-12-26T09:59:21Z</time>
      </trkpt>
      <trkpt lat="35.267663011327386" lon="-2.933766022324562">
        <ele>3.5</ele>
        <time>2010-12-26T09:59:30Z</time>
      </trkpt>
      <trkpt lat="35.267369979992509" lon="-2.933671977370977">
        <ele>4.9</ele>
        <time>2010-12-26T09:59:40Z</time>
      </trkpt>
      <trkpt lat="35.267224973067641" lon="-2.933753030374646">
        <ele>-44.600000000000001</ele>
        <time>2010-12-26T10:17:35Z</time>
      </trkpt>
      <trkpt lat="35.267338966950774" lon="-2.933707013726234">
        <ele>-8.5</ele>
        <time>2010-12-26T10:21:37Z</time>
      </trkpt>
      <trkpt lat="35.267212986946106" lon="-2.933581033721566">
        <ele>-4.7</ele>
        <time>2010-12-26T10:25:44Z</time>
      </trkpt>
      <trkpt lat="35.267003020271659" lon="-2.933399984613061">
        <ele>-2.3</ele>
        <time>2010-12-26T10:26:15Z</time>
      </trkpt>
      <trkpt lat="35.26655400171876" lon="-2.933064037933946">
        <ele>2.1</ele>
        <time>2010-12-26T10:26:26Z</time>
      </trkpt>
      <trkpt lat="35.265988977625966" lon="-2.932695988565683">
        <ele>6.4</ele>
        <time>2010-12-26T10:26:41Z</time>
      </trkpt>
      <trkpt lat="35.265536019578576" lon="-2.93242902494967">
        <ele>-4.2</ele>
        <time>2010-12-26T10:26:55Z</time>
      </trkpt>
      <trkpt lat="35.26528699323535" lon="-2.93234403245151">
        <ele>-3.2</ele>
        <time>2010-12-26T10:27:07Z</time>
      </trkpt>
      <trkpt lat="35.265085995197296" lon="-2.93225803412497">
        <ele>-2.7</ele>
        <time>2010-12-26T10:27:15Z</time>
      </trkpt>
      <trkpt lat="35.265119019895792" lon="-2.93202199973166">
        <ele>-1.8</ele>
        <time>2010-12-26T10:27:20Z</time>
      </trkpt>
      <trkpt lat="35.265421019867063" lon="-2.931412970647216">
        <ele>-0.3</ele>
        <time>2010-12-26T10:27:29Z</time>
      </trkpt>
      <trkpt lat="35.265808012336493" lon="-2.930599004030228">
        <ele>0.6</ele>
        <time>2010-12-26T10:27:40Z</time>
      </trkpt>
      <trkpt lat="35.265870038419962" lon="-2.930504959076643">
        <ele>1.1</ele>
        <time>2010-12-26T10:27:49Z</time>
      </trkpt>
      <trkpt lat="35.265959976240993" lon="-2.930260039865971">
        <ele>1.6</ele>
        <time>2010-12-26T10:27:56Z</time>
      </trkpt>
      <trkpt lat="35.266238003969193" lon="-2.929653022438288">
        <ele>1.6</ele>
        <time>2010-12-26T10:28:04Z</time>
      </trkpt>
      <trkpt lat="35.266623990610242" lon="-2.928778035566211">
        <ele>2.1</ele>
        <time>2010-12-26T10:28:15Z</time>
      </trkpt>
      <trkpt lat="35.266719041392207" lon="-2.928818017244339">
        <ele>2.1</ele>
        <time>2010-12-26T10:28:24Z</time>
      </trkpt>
      <trkpt lat="35.266503039747477" lon="-2.929346999153495">
        <ele>2.5</ele>
        <time>2010-12-26T10:28:33Z</time>
      </trkpt>
      <trkpt lat="35.266250995919108" lon="-2.929875981062651">
        <ele>2.5</ele>
        <time>2010-12-26T10:28:42Z</time>
      </trkpt>
      <trkpt lat="35.266010016202927" lon="-2.9304329585284">
        <ele>3.5</ele>
        <time>2010-12-26T10:28:52Z</time>
      </trkpt>
      <trkpt lat="35.265944972634315" lon="-2.930236989632249">
        <ele>7.8</ele>
        <time>2010-12-26T10:31:13Z</time>
      </trkpt>
      <trkpt lat="35.265859980136156" lon="-2.930200025439262">
        <ele>3</ele>
        <time>2010-12-26T10:32:01Z</time>
      </trkpt>
      <trkpt lat="35.265709022060037" lon="-2.930530020967126">
        <ele>-9</ele>
        <time>2010-12-26T10:32:15Z</time>
      </trkpt>
      <trkpt lat="35.265495032072067" lon="-2.931079035624862">
        <ele>-17.600000000000001</ele>
        <time>2010-12-26T10:32:30Z</time>
      </trkpt>
      <trkpt lat="35.265484973788261" lon="-2.931366031989455">
        <ele>-25.800000000000001</ele>
        <time>2010-12-26T10:32:42Z</time>
      </trkpt>
      <trkpt lat="35.265571977943182" lon="-2.931540962308645">
        <ele>-31.600000000000001</ele>
        <time>2010-12-26T10:32:53Z</time>
      </trkpt>
      <trkpt lat="35.265790997073054" lon="-2.931727962568402">
        <ele>-36.399999999999999</ele>
        <time>2010-12-26T10:33:04Z</time>
      </trkpt>
      <trkpt lat="35.265954025089741" lon="-2.931804992258549">
        <ele>-37.799999999999997</ele>
        <time>2010-12-26T10:33:14Z</time>
      </trkpt>
      <trkpt lat="35.266076987609267" lon="-2.931749001145363">
        <ele>-34.5</ele>
        <time>2010-12-26T10:33:59Z</time>
      </trkpt>
      <trkpt lat="35.266040023416281" lon="-2.931940024718642">
        <ele>-6.1</ele>
        <time>2010-12-26T10:36:13Z</time>
      </trkpt>
      <trkpt lat="35.266065001487732" lon="-2.93234596028924">
        <ele>-10.4</ele>
        <time>2010-12-26T10:38:04Z</time>
      </trkpt>
      <trkpt lat="35.265930974856019" lon="-2.93251502327621">
        <ele>6.4</ele>
        <time>2010-12-26T11:16:09Z</time>
      </trkpt>
      <trkpt lat="35.265629980713129" lon="-2.932392982766032">
        <ele>4</ele>
        <time>2010-12-26T11:16:23Z</time>
      </trkpt>
      <trkpt lat="35.265332004055381" lon="-2.932315031066537">
        <ele>0.1</ele>
        <time>2010-12-26T11:16:39Z</time>
      </trkpt>
      <trkpt lat="35.265084989368916" lon="-2.932484010234475">
        <ele>-1.8</ele>
        <time>2010-12-26T11:16:52Z</time>
      </trkpt>
      <trkpt lat="35.264810984954238" lon="-2.933080969378352">
        <ele>2.5</ele>
        <time>2010-12-26T11:17:02Z</time>
      </trkpt>
      <trkpt lat="35.264288038015366" lon="-2.934237001463771">
        <ele>9.300000000000001</ele>
        <time>2010-12-26T11:17:15Z</time>
      </trkpt>
      <trkpt lat="35.263808006420732" lon="-2.935342993587256">
        <ele>14.6</ele>
        <time>2010-12-26T11:17:26Z</time>
      </trkpt>
      <trkpt lat="35.263337027281523" lon="-2.936357958242297">
        <ele>19.399999999999999</ele>
        <time>2010-12-26T11:17:36Z</time>
      </trkpt>
      <trkpt lat="35.262678964063525" lon="-2.937484988942742">
        <ele>24.199999999999999</ele>
        <time>2010-12-26T11:17:46Z</time>
      </trkpt>
      <trkpt lat="35.26230001822114" lon="-2.937911963090301">
        <ele>26.100000000000001</ele>
        <time>2010-12-26T11:17:52Z</time>
      </trkpt>
      <trkpt lat="35.262147970497608" lon="-2.938030986115336">
        <ele>25.600000000000001</ele>
        <time>2010-12-26T11:17:58Z</time>
      </trkpt>
      <trkpt lat="35.261971028521657" lon="-2.937877010554075">
        <ele>23.699999999999999</ele>
        <time>2010-12-26T11:18:12Z</time>
      </trkpt>
      <trkpt lat="35.261971028521657" lon="-2.937710965052247">
        <ele>24.199999999999999</ele>
        <time>2010-12-26T11:18:21Z</time>
      </trkpt>
      <trkpt lat="35.262145036831498" lon="-2.937614992260933">
        <ele>25.100000000000001</ele>
        <time>2010-12-26T11:19:46Z</time>
      </trkpt>
      <trkpt lat="35.262261964380741" lon="-2.937681041657925">
        <ele>27.100000000000001</ele>
        <time>2010-12-26T11:19:57Z</time>
      </trkpt>
      <trkpt lat="35.262197004631162" lon="-2.938003996387124">
        <ele>28</ele>
        <time>2010-12-26T11:20:43Z</time>
      </trkpt>
      <trkpt lat="35.261538019403815" lon="-2.938554016873241">
        <ele>30.899999999999999</ele>
        <time>2010-12-26T11:20:51Z</time>
      </trkpt>
      <trkpt lat="35.260652974247932" lon="-2.939018961042166">
        <ele>34.299999999999997</ele>
        <time>2010-12-26T11:20:58Z</time>
      </trkpt>
      <trkpt lat="35.259439023211598" lon="-2.939229011535645">
        <ele>36.700000000000003</ele>
        <time>2010-12-26T11:21:06Z</time>
      </trkpt>
      <trkpt lat="35.258302018046379" lon="-2.939101019874215">
        <ele>38.100000000000001</ele>
        <time>2010-12-26T11:21:14Z</time>
      </trkpt>
      <trkpt lat="35.257215974852443" lon="-2.93898400850594">
        <ele>35.700000000000003</ele>
        <time>2010-12-26T11:21:23Z</time>
      </trkpt>
      <trkpt lat="35.256101014092565" lon="-2.939172014594078">
        <ele>33.299999999999997</ele>
        <time>2010-12-26T11:21:32Z</time>
      </trkpt>
      <trkpt lat="35.255072973668575" lon="-2.939662020653486">
        <ele>32.799999999999997</ele>
        <time>2010-12-26T11:21:41Z</time>
      </trkpt>
      <trkpt lat="35.253650983795524" lon="-2.940427958965302">
        <ele>31.899999999999999</ele>
        <time>2010-12-26T11:21:54Z</time>
      </trkpt>
      <trkpt lat="35.252432003617287" lon="-2.940753009170294">
        <ele>27.5</ele>
        <time>2010-12-26T11:22:03Z</time>
      </trkpt>
      <trkpt lat="35.251186033710837" lon="-2.940651001408696">
        <ele>21.300000000000001</ele>
        <time>2010-12-26T11:22:12Z</time>
      </trkpt>
      <trkpt lat="35.250539034605026" lon="-2.940547987818718">
        <ele>17.399999999999999</ele>
        <time>2010-12-26T11:22:18Z</time>
      </trkpt>
      <trkpt lat="35.250192023813725" lon="-2.940371967852116">
        <ele>13.1</ele>
        <time>2010-12-26T11:22:22Z</time>
      </trkpt>
      <trkpt lat="35.249357018619776" lon="-2.939652968198061">
        <ele>6.4</ele>
        <time>2010-12-26T11:22:30Z</time>
      </trkpt>
      <trkpt lat="35.248121023178101" lon="-2.938520992174745">
        <ele>0.6</ele>
        <time>2010-12-26T11:22:41Z</time>
      </trkpt>
      <trkpt lat="35.247718021273613" lon="-2.938140034675598">
        <ele>0.1</ele>
        <time>2010-12-26T11:22:47Z</time>
      </trkpt>
      <trkpt lat="35.247620036825538" lon="-2.938083959743381">
        <ele>0.1</ele>
        <time>2010-12-26T11:22:53Z</time>
      </trkpt>
      <trkpt lat="35.247504031285644" lon="-2.938115978613496">
        <ele>0.1</ele>
        <time>2010-12-26T11:23:09Z</time>
      </trkpt>
      <trkpt lat="35.247393976897001" lon="-2.937879022210836">
        <ele>0.6</ele>
        <time>2010-12-26T11:23:15Z</time>
      </trkpt>
      <trkpt lat="35.24726296775043" lon="-2.937668971717358">
        <ele>2.1</ele>
        <time>2010-12-26T11:23:19Z</time>
      </trkpt>
      <trkpt lat="35.24665997363627" lon="-2.937105959281325">
        <ele>1.6</ele>
        <time>2010-12-26T11:23:27Z</time>
      </trkpt>
      <trkpt lat="35.245790015906096" lon="-2.936300039291382">
        <ele>1.6</ele>
        <time>2010-12-26T11:23:35Z</time>
      </trkpt>
      <trkpt lat="35.244428962469101" lon="-2.93511601164937">
        <ele>0.1</ele>
        <time>2010-12-26T11:23:46Z</time>
      </trkpt>
      <trkpt lat="35.243376027792692" lon="-2.934591975063086">
        <ele>-1.3</ele>
        <time>2010-12-26T11:23:53Z</time>
      </trkpt>
      <trkpt lat="35.241247024387121" lon="-2.933951010927558">
        <ele>-5.1</ele>
        <time>2010-12-26T11:24:07Z</time>
      </trkpt>
      <trkpt lat="35.240627015009522" lon="-2.933851014822722">
        <ele>-5.6</ele>
        <time>2010-12-26T11:24:13Z</time>
      </trkpt>
      <trkpt lat="35.23995403200388" lon="-2.933573992922902">
        <ele>-6.1</ele>
        <time>2010-12-26T11:24:21Z</time>
      </trkpt>
      <trkpt lat="35.239036967977881" lon="-2.933309962972999">
        <ele>-7.6</ele>
        <time>2010-12-26T11:24:28Z</time>
      </trkpt>
      <trkpt lat="35.237750010564923" lon="-2.932935962453485">
        <ele>-9</ele>
        <time>2010-12-26T11:24:38Z</time>
      </trkpt>
      <trkpt lat="35.236648041754961" lon="-2.932620970532298">
        <ele>-9.5</ele>
        <time>2010-12-26T11:24:47Z</time>
      </trkpt>
      <trkpt lat="35.234913993626833" lon="-2.932062987238169">
        <ele>-8</ele>
        <time>2010-12-26T11:24:59Z</time>
      </trkpt>
      <trkpt lat="35.233786962926388" lon="-2.931365026161075">
        <ele>-8</ele>
        <time>2010-12-26T11:25:07Z</time>
      </trkpt>
      <trkpt lat="35.23209298029542" lon="-2.929781014099717">
        <ele>-8.5</ele>
        <time>2010-12-26T11:25:20Z</time>
      </trkpt>
      <trkpt lat="35.230512991547585" lon="-2.928304960951209">
        <ele>-9</ele>
        <time>2010-12-26T11:25:31Z</time>
      </trkpt>
      <trkpt lat="35.22921203635633" lon="-2.92723098769784">
        <ele>-8</ele>
        <time>2010-12-26T11:25:40Z</time>
      </trkpt>
      <trkpt lat="35.227792980149388" lon="-2.926434958353639">
        <ele>-7.1</ele>
        <time>2010-12-26T11:25:49Z</time>
      </trkpt>
      <trkpt lat="35.225489968433976" lon="-2.925422005355358">
        <ele>-7.1</ele>
        <time>2010-12-26T11:26:02Z</time>
      </trkpt>
      <trkpt lat="35.223946021869779" lon="-2.92456797324121">
        <ele>-8</ele>
        <time>2010-12-26T11:26:11Z</time>
      </trkpt>
      <trkpt lat="35.222958968952298" lon="-2.923461981117725">
        <ele>-5.6</ele>
        <time>2010-12-26T11:26:18Z</time>
      </trkpt>
      <trkpt lat="35.221562040969729" lon="-2.921683005988598">
        <ele>0.1</ele>
        <time>2010-12-26T11:26:29Z</time>
      </trkpt>
      <trkpt lat="35.220504999160767" lon="-2.92091597802937">
        <ele>1.6</ele>
        <time>2010-12-26T11:26:36Z</time>
      </trkpt>
      <trkpt lat="35.218731975182891" lon="-2.920083990320563">
        <ele>-3.2</ele>
        <time>2010-12-26T11:26:46Z</time>
      </trkpt>
      <trkpt lat="35.217490028589964" lon="-2.919288966804743">
        <ele>-2.7</ele>
        <time>2010-12-26T11:26:53Z</time>
      </trkpt>
      <trkpt lat="35.216286974027753" lon="-2.918075015768409">
        <ele>1.1</ele>
        <time>2010-12-26T11:27:01Z</time>
      </trkpt>
      <trkpt lat="35.214090999215841" lon="-2.915763035416603">
        <ele>5.4</ele>
        <time>2010-12-26T11:27:16Z</time>
      </trkpt>
      <trkpt lat="35.213131019845605" lon="-2.915077982470393">
        <ele>5.9</ele>
        <time>2010-12-26T11:27:22Z</time>
      </trkpt>
      <trkpt lat="35.21209099330008" lon="-2.91470498777926">
        <ele>4.9</ele>
        <time>2010-12-26T11:27:28Z</time>
      </trkpt>
      <trkpt lat="35.210911994799972" lon="-2.914625024423003">
        <ele>3.5</ele>
        <time>2010-12-26T11:27:35Z</time>
      </trkpt>
      <trkpt lat="35.209165038540959" lon="-2.914732983335853">
        <ele>1.6</ele>
        <time>2010-12-26T11:27:45Z</time>
      </trkpt>
      <trkpt lat="35.207992997020483" lon="-2.91526397690177">
        <ele>2.5</ele>
        <time>2010-12-26T11:27:52Z</time>
      </trkpt>
      <trkpt lat="35.207025976851583" lon="-2.916094036772847">
        <ele>2.5</ele>
        <time>2010-12-26T11:27:59Z</time>
      </trkpt>
      <trkpt lat="35.205316990613937" lon="-2.917746026068926">
        <ele>-2.3</ele>
        <time>2010-12-26T11:28:13Z</time>
      </trkpt>
      <trkpt lat="35.204090969637036" lon="-2.918900968506932">
        <ele>-8</ele>
        <time>2010-12-26T11:28:22Z</time>
      </trkpt>
      <trkpt lat="35.202242005616426" lon="-2.920746998861432">
        <ele>-3.7</ele>
        <time>2010-12-26T11:28:35Z</time>
      </trkpt>
      <trkpt lat="35.201032999902964" lon="-2.922303015366197">
        <ele>1.6</ele>
        <time>2010-12-26T11:28:45Z</time>
      </trkpt>
      <trkpt lat="35.199934970587492" lon="-2.924151979386807">
        <ele>-1.3</ele>
        <time>2010-12-26T11:28:55Z</time>
      </trkpt>
      <trkpt lat="35.198111990466714" lon="-2.927159992977977">
        <ele>-15.699999999999999</ele>
        <time>2010-12-26T11:29:12Z</time>
      </trkpt>
      <trkpt lat="35.197154022753239" lon="-2.928727995604277">
        <ele>-24.899999999999999</ele>
        <time>2010-12-26T11:29:22Z</time>
      </trkpt>
      <trkpt lat="35.196021040901542" lon="-2.930500013753772">
        <ele>-29.199999999999999</ele>
        <time>2010-12-26T11:29:36Z</time>
      </trkpt>
      <trkpt lat="35.195527011528611" lon="-2.930948026478291">
        <ele>-27.300000000000001</ele>
        <time>2010-12-26T11:29:41Z</time>
      </trkpt>
      <trkpt lat="35.195299023762345" lon="-2.931180959567428">
        <ele>-22.899999999999999</ele>
        <time>2010-12-26T11:29:46Z</time>
      </trkpt>
      <trkpt lat="35.194926029071212" lon="-2.931280033662915">
        <ele>-19.600000000000001</ele>
        <time>2010-12-26T11:29:52Z</time>
      </trkpt>
      <trkpt lat="35.194155983626842" lon="-2.931238962337375">
        <ele>-18.600000000000001</ele>
        <time>2010-12-26T11:30:01Z</time>
      </trkpt>
      <trkpt lat="35.193190975114703" lon="-2.931218007579446">
        <ele>-18.100000000000001</ele>
        <time>2010-12-26T11:30:09Z</time>
      </trkpt>
      <trkpt lat="35.19202396273613" lon="-2.931195041164756">
        <ele>-17.199999999999999</ele>
        <time>2010-12-26T11:30:17Z</time>
      </trkpt>
      <trkpt lat="35.19127001054585" lon="-2.931180959567428">
        <ele>-15.199999999999999</ele>
        <time>2010-12-26T11:30:23Z</time>
      </trkpt>
      <trkpt lat="35.191075969487429" lon="-2.931208033114672">
        <ele>-13.800000000000001</ele>
        <time>2010-12-26T11:30:25Z</time>
      </trkpt>
      <trkpt lat="35.190450008958578" lon="-2.931097978726029">
        <ele>-10</ele>
        <time>2010-12-26T11:30:32Z</time>
      </trkpt>
      <trkpt lat="35.189421968534589" lon="-2.930761026218534">
        <ele>-6.1</ele>
        <time>2010-12-26T11:30:41Z</time>
      </trkpt>
      <trkpt lat="35.188549999147654" lon="-2.930081002414227">
        <ele>-3.2</ele>
        <time>2010-12-26T11:30:49Z</time>
      </trkpt>
      <trkpt lat="35.187656991183758" lon="-2.929166033864021">
        <ele>0.6</ele>
        <time>2010-12-26T11:30:58Z</time>
      </trkpt>
      <trkpt lat="35.186646971851587" lon="-2.928589023649693">
        <ele>-3.2</ele>
        <time>2010-12-26T11:31:06Z</time>
      </trkpt>
      <trkpt lat="35.185445006936789" lon="-2.92822097428143">
        <ele>-10.4</ele>
        <time>2010-12-26T11:31:14Z</time>
      </trkpt>
      <trkpt lat="35.184345971792936" lon="-2.928290963172913">
        <ele>-16.699999999999999</ele>
        <time>2010-12-26T11:31:21Z</time>
      </trkpt>
      <trkpt lat="35.182386031374335" lon="-2.928549963980913">
        <ele>-21.5</ele>
        <time>2010-12-26T11:31:33Z</time>
      </trkpt>
      <trkpt lat="35.181306023150682" lon="-2.92851903475821">
        <ele>-22</ele>
        <time>2010-12-26T11:31:41Z</time>
      </trkpt>
      <trkpt lat="35.180629016831517" lon="-2.928514005616307">
        <ele>-22.5</ele>
        <time>2010-12-26T11:31:48Z</time>
      </trkpt>
      <trkpt lat="35.179972965270281" lon="-2.928603021427989">
        <ele>-24.399999999999999</ele>
        <time>2010-12-26T11:31:57Z</time>
      </trkpt>
      <trkpt lat="35.179483965039253" lon="-2.928680973127484">
        <ele>-24.899999999999999</ele>
        <time>2010-12-26T11:32:03Z</time>
      </trkpt>
      <trkpt lat="35.179145000874996" lon="-2.928874008357525">
        <ele>-20.100000000000001</ele>
        <time>2010-12-26T11:32:08Z</time>
      </trkpt>
      <trkpt lat="35.178406974300742" lon="-2.929820995777845">
        <ele>-15.699999999999999</ele>
        <time>2010-12-26T11:32:18Z</time>
      </trkpt>
      <trkpt lat="35.177675988525152" lon="-2.930607972666621">
        <ele>-10.9</ele>
        <time>2010-12-26T11:32:27Z</time>
      </trkpt>
      <trkpt lat="35.176993031054735" lon="-2.931107031181455">
        <ele>-5.6</ele>
        <time>2010-12-26T11:32:37Z</time>
      </trkpt>
      <trkpt lat="35.17691801302135" lon="-2.931178025901318">
        <ele>-3.7</ele>
        <time>2010-12-26T11:32:42Z</time>
      </trkpt>
      <trkpt lat="35.176578965038061" lon="-2.931606005877256">
        <ele>4.9</ele>
        <time>2010-12-26T11:33:02Z</time>
      </trkpt>
      <trkpt lat="35.175890978425741" lon="-2.932364987209439">
        <ele>11.699999999999999</ele>
        <time>2010-12-26T11:33:13Z</time>
      </trkpt>
      <trkpt lat="35.175349004566669" lon="-2.932941997423768">
        <ele>16</ele>
        <time>2010-12-26T11:33:22Z</time>
      </trkpt>
      <trkpt lat="35.17481298185885" lon="-2.933700978755951">
        <ele>19.399999999999999</ele>
        <time>2010-12-26T11:33:31Z</time>
      </trkpt>
      <trkpt lat="35.174564961344004" lon="-2.934066010639072">
        <ele>20.300000000000001</ele>
        <time>2010-12-26T11:33:38Z</time>
      </trkpt>
      <trkpt lat="35.174371004104614" lon="-2.93434202671051">
        <ele>20.300000000000001</ele>
        <time>2010-12-26T11:33:48Z</time>
      </trkpt>
      <trkpt lat="35.174072021618485" lon="-2.934398017823696">
        <ele>21.300000000000001</ele>
        <time>2010-12-26T11:33:55Z</time>
      </trkpt>
      <trkpt lat="35.173839004710317" lon="-2.934190984815359">
        <ele>21.300000000000001</ele>
        <time>2010-12-26T11:34:03Z</time>
      </trkpt>
      <trkpt lat="35.173375988379121" lon="-2.934031980112195">
        <ele>18.399999999999999</ele>
        <time>2010-12-26T11:34:11Z</time>
      </trkpt>
      <trkpt lat="35.172501001507044" lon="-2.93380600400269">
        <ele>16.5</ele>
        <time>2010-12-26T11:34:22Z</time>
      </trkpt>
      <trkpt lat="35.171679994091392" lon="-2.933594025671482">
        <ele>14.6</ele>
        <time>2010-12-26T11:34:32Z</time>
      </trkpt>
      <trkpt lat="35.171001981943846" lon="-2.933416999876499">
        <ele>12.199999999999999</ele>
        <time>2010-12-26T11:34:42Z</time>
      </trkpt>
      <trkpt lat="35.170576013624668" lon="-2.93330904096365">
        <ele>9.800000000000001</ele>
        <time>2010-12-26T11:34:51Z</time>
      </trkpt>
      <trkpt lat="35.170412985607982" lon="-2.933254977688193">
        <ele>9.800000000000001</ele>
        <time>2010-12-26T11:35:01Z</time>
      </trkpt>
      <trkpt lat="35.170184997841716" lon="-2.933228993788362">
        <ele>10.199999999999999</ele>
        <time>2010-12-26T11:35:09Z</time>
      </trkpt>
      <trkpt lat="35.169933959841728" lon="-2.933134026825428">
        <ele>10.699999999999999</ele>
        <time>2010-12-26T11:35:17Z</time>
      </trkpt>
      <trkpt lat="35.169777972623706" lon="-2.933085998520255">
        <ele>8.800000000000001</ele>
        <time>2010-12-26T11:35:28Z</time>
      </trkpt>
      <trkpt lat="35.169245973229408" lon="-2.932930011302233">
        <ele>8.300000000000001</ele>
        <time>2010-12-26T11:35:35Z</time>
      </trkpt>
      <trkpt lat="35.168317006900907" lon="-2.932723984122276">
        <ele>7.8</ele>
        <time>2010-12-26T11:35:45Z</time>
      </trkpt>
      <trkpt lat="35.167067013680935" lon="-2.932426007464528">
        <ele>6.9</ele>
        <time>2010-12-26T11:35:55Z</time>
      </trkpt>
      <trkpt lat="35.165599007159472" lon="-2.932045971974731">
        <ele>4</ele>
        <time>2010-12-26T11:36:07Z</time>
      </trkpt>
      <trkpt lat="35.164239965379238" lon="-2.931712036952376">
        <ele>1.6</ele>
        <time>2010-12-26T11:36:19Z</time>
      </trkpt>
      <trkpt lat="35.162661988288164" lon="-2.931314986199141">
        <ele>1.6</ele>
        <time>2010-12-26T11:36:32Z</time>
      </trkpt>
      <trkpt lat="35.161434961482882" lon="-2.930997982621193">
        <ele>0.6</ele>
        <time>2010-12-26T11:36:43Z</time>
      </trkpt>
      <trkpt lat="35.160109028220177" lon="-2.930664969608188">
        <ele>0.1</ele>
        <time>2010-12-26T11:36:56Z</time>
      </trkpt>
      <trkpt lat="35.159035976976156" lon="-2.930413009598851">
        <ele>-1.8</ele>
        <time>2010-12-26T11:37:07Z</time>
      </trkpt>
      <trkpt lat="35.158510012552142" lon="-2.930278982967138">
        <ele>-2.3</ele>
        <time>2010-12-26T11:37:15Z</time>
      </trkpt>
      <trkpt lat="35.158135006204247" lon="-2.930251993238926">
        <ele>-2.7</ele>
        <time>2010-12-26T11:37:27Z</time>
      </trkpt>
      <trkpt lat="35.157974995672703" lon="-2.93023799546063">
        <ele>10.199999999999999</ele>
        <time>2010-12-26T11:38:04Z</time>
      </trkpt>
      <trkpt lat="35.157900983467698" lon="-2.930142022669315">
        <ele>13.6</ele>
        <time>2010-12-26T11:38:18Z</time>
      </trkpt>
      <trkpt lat="35.157790007069707" lon="-2.930095000192523">
        <ele>34.700000000000003</ele>
        <time>2010-12-26T11:38:49Z</time>
      </trkpt>
      <trkpt lat="35.157656986266375" lon="-2.930142022669315">
        <ele>8.800000000000001</ele>
        <time>2010-12-26T11:42:25Z</time>
      </trkpt>
      <trkpt lat="35.157522959634662" lon="-2.930177981033921">
        <ele>-7.1</ele>
        <time>2010-12-26T11:43:48Z</time>
      </trkpt>
      <trkpt lat="35.157569982111454" lon="-2.930287029594183">
        <ele>-1.3</ele>
        <time>2010-12-26T11:44:05Z</time>
      </trkpt>
      <trkpt lat="35.15762303955853" lon="-2.930398005992174">
        <ele>-4.7</ele>
        <time>2010-12-26T11:44:46Z</time>
      </trkpt>
      <trkpt lat="35.15773301012814" lon="-2.930452991276979">
        <ele>-58</ele>
        <time>2010-12-26T11:46:19Z</time>
      </trkpt>
      <trkpt lat="35.157617004588246" lon="-2.93039096519351">
        <ele>-5.6</ele>
        <time>2010-12-26T11:47:02Z</time>
      </trkpt>
      <trkpt lat="35.157652040943503" lon="-2.930515017360449">
        <ele>4.5</ele>
        <time>2010-12-26T11:47:15Z</time>
      </trkpt>
      <trkpt lat="35.157765028998256" lon="-2.930514011532068">
        <ele>-0.3</ele>
        <time>2010-12-26T11:47:42Z</time>
      </trkpt>
      <trkpt lat="35.157757988199592" lon="-2.930636974051595">
        <ele>-12.4</ele>
        <time>2010-12-26T11:48:17Z</time>
      </trkpt>
      <trkpt lat="35.157763017341495" lon="-2.930763037875295">
        <ele>-24.399999999999999</ele>
        <time>2010-12-26T11:49:09Z</time>
      </trkpt>
      <trkpt lat="35.157824959605932" lon="-2.930533960461617">
        <ele>-4.7</ele>
        <time>2010-12-26T11:51:39Z</time>
      </trkpt>
      <trkpt lat="35.157865025103092" lon="-2.930338997393847">
        <ele>14.6</ele>
        <time>2010-12-26T11:52:59Z</time>
      </trkpt>
      <trkpt lat="35.157677019014955" lon="-2.930399011820555">
        <ele>12.199999999999999</ele>
        <time>2010-12-26T11:54:39Z</time>
      </trkpt>
      <trkpt lat="35.157637959346175" lon="-2.930523985996842">
        <ele>-17.600000000000001</ele>
        <time>2010-12-26T11:55:26Z</time>
      </trkpt>
      <trkpt lat="35.15771297737956" lon="-2.930314019322395">
        <ele>14.1</ele>
        <time>2010-12-26T11:56:17Z</time>
      </trkpt>
      <trkpt lat="35.157834012061357" lon="-2.930351989343762">
        <ele>19.399999999999999</ele>
        <time>2010-12-26T12:02:59Z</time>
      </trkpt>
      <trkpt lat="35.15779503621161" lon="-2.930235983803868">
        <ele>17</ele>
        <time>2010-12-26T12:06:32Z</time>
      </trkpt>
      <trkpt lat="35.157250966876745" lon="-2.929947981610894">
        <ele>18.399999999999999</ele>
        <time>2010-12-26T12:17:28Z</time>
      </trkpt>
      <trkpt lat="35.15622996725142" lon="-2.929674983024597">
        <ele>17.399999999999999</ele>
        <time>2010-12-26T12:17:37Z</time>
      </trkpt>
      <trkpt lat="35.154879977926612" lon="-2.929329983890057">
        <ele>17</ele>
        <time>2010-12-26T12:17:47Z</time>
      </trkpt>
      <trkpt lat="35.153197981417179" lon="-2.928878031671047">
        <ele>16</ele>
        <time>2010-12-26T12:18:00Z</time>
      </trkpt>
      <trkpt lat="35.152676040306687" lon="-2.928746016696096">
        <ele>15</ele>
        <time>2010-12-26T12:18:06Z</time>
      </trkpt>
      <trkpt lat="35.152392983436584" lon="-2.928729001432657">
        <ele>15</ele>
        <time>2010-12-26T12:18:13Z</time>
      </trkpt>
      <trkpt lat="35.152169018983841" lon="-2.928763031959534">
        <ele>15.5</ele>
        <time>2010-12-26T12:18:18Z</time>
      </trkpt>
      <trkpt lat="35.151830976828933" lon="-2.928620958700776">
        <ele>15</ele>
        <time>2010-12-26T12:18:24Z</time>
      </trkpt>
      <trkpt lat="35.151516990736127" lon="-2.928433958441019">
        <ele>15</ele>
        <time>2010-12-26T12:18:29Z</time>
      </trkpt>
      <trkpt lat="35.150461960583925" lon="-2.928162971511483">
        <ele>15</ele>
        <time>2010-12-26T12:18:39Z</time>
      </trkpt>
      <trkpt lat="35.149026978760958" lon="-2.927801040932536">
        <ele>14.1</ele>
        <time>2010-12-26T12:18:51Z</time>
      </trkpt>
      <trkpt lat="35.147738009691238" lon="-2.927470039576292">
        <ele>14.1</ele>
        <time>2010-12-26T12:19:01Z</time>
      </trkpt>
      <trkpt lat="35.145241040736437" lon="-2.926823040470481">
        <ele>12.6</ele>
        <time>2010-12-26T12:19:17Z</time>
      </trkpt>
      <trkpt lat="35.143137015402317" lon="-2.92628601193428">
        <ele>11.199999999999999</ele>
        <time>2010-12-26T12:19:31Z</time>
      </trkpt>
      <trkpt lat="35.142644997686148" lon="-2.926159026101232">
        <ele>11.699999999999999</ele>
        <time>2010-12-26T12:19:36Z</time>
      </trkpt>
      <trkpt lat="35.141843017190695" lon="-2.925952998921275">
        <ele>11.699999999999999</ele>
        <time>2010-12-26T12:19:45Z</time>
      </trkpt>
      <trkpt lat="35.140820005908608" lon="-2.925704978406429">
        <ele>11.699999999999999</ele>
        <time>2010-12-26T12:19:54Z</time>
      </trkpt>
      <trkpt lat="35.139476973563433" lon="-2.925359979271889">
        <ele>10.699999999999999</ele>
        <time>2010-12-26T12:20:04Z</time>
      </trkpt>
      <trkpt lat="35.137991029769182" lon="-2.924980027601123">
        <ele>9.800000000000001</ele>
        <time>2010-12-26T12:20:15Z</time>
      </trkpt>
      <trkpt lat="35.136886965483427" lon="-2.924623964354396">
        <ele>9.800000000000001</ele>
        <time>2010-12-26T12:20:23Z</time>
      </trkpt>
      <trkpt lat="35.135468998923898" lon="-2.924007978290319">
        <ele>8.800000000000001</ele>
        <time>2010-12-26T12:20:32Z</time>
      </trkpt>
      <trkpt lat="35.133530013263226" lon="-2.9228709731251">
        <ele>10.699999999999999</ele>
        <time>2010-12-26T12:20:44Z</time>
      </trkpt>
      <trkpt lat="35.132288988679647" lon="-2.922364035621285">
        <ele>11.199999999999999</ele>
        <time>2010-12-26T12:20:52Z</time>
      </trkpt>
      <trkpt lat="35.131693035364151" lon="-2.922266973182559">
        <ele>11.199999999999999</ele>
        <time>2010-12-26T12:20:57Z</time>
      </trkpt>
      <trkpt lat="35.130730038508773" lon="-2.92226898483932">
        <ele>12.6</ele>
        <time>2010-12-26T12:21:06Z</time>
      </trkpt>
      <trkpt lat="35.129914982244372" lon="-2.922341991215944">
        <ele>15.5</ele>
        <time>2010-12-26T12:21:14Z</time>
      </trkpt>
      <trkpt lat="35.128861963748932" lon="-2.922593029215932">
        <ele>15.5</ele>
        <time>2010-12-26T12:21:22Z</time>
      </trkpt>
      <trkpt lat="35.127250961959362" lon="-2.923078006133437">
        <ele>13.1</ele>
        <time>2010-12-26T12:21:34Z</time>
      </trkpt>
      <trkpt lat="35.126859024167061" lon="-2.923261988908052">
        <ele>14.1</ele>
        <time>2010-12-26T12:21:39Z</time>
      </trkpt>
      <trkpt lat="35.126697001978755" lon="-2.923418981954455">
        <ele>15.5</ele>
        <time>2010-12-26T12:21:45Z</time>
      </trkpt>
      <trkpt lat="35.126459961757064" lon="-2.923368019983172">
        <ele>14.1</ele>
        <time>2010-12-26T12:21:50Z</time>
      </trkpt>
      <trkpt lat="35.126445963978767" lon="-2.923138020560145">
        <ele>13.6</ele>
        <time>2010-12-26T12:21:53Z</time>
      </trkpt>
      <trkpt lat="35.126414028927684" lon="-2.922119032591581">
        <ele>10.699999999999999</ele>
        <time>2010-12-26T12:22:01Z</time>
      </trkpt>
      <trkpt lat="35.126199033111334" lon="-2.920428989455104">
        <ele>9.300000000000001</ele>
        <time>2010-12-26T12:22:11Z</time>
      </trkpt>
      <trkpt lat="35.125898960977793" lon="-2.918130001053214">
        <ele>8.300000000000001</ele>
        <time>2010-12-26T12:22:24Z</time>
      </trkpt>
      <trkpt lat="35.125537030398846" lon="-2.916328981518745">
        <ele>7.8</ele>
        <time>2010-12-26T12:22:34Z</time>
      </trkpt>
      <trkpt lat="35.124950967729092" lon="-2.914846977218986">
        <ele>6.9</ele>
        <time>2010-12-26T12:22:42Z</time>
      </trkpt>
      <trkpt lat="35.123697035014629" lon="-2.912331987172365">
        <ele>5.9</ele>
        <time>2010-12-26T12:22:55Z</time>
      </trkpt>
      <trkpt lat="35.122522981837392" lon="-2.909954963251948">
        <ele>7.8</ele>
        <time>2010-12-26T12:23:06Z</time>
      </trkpt>
      <trkpt lat="35.120875015854836" lon="-2.906646961346269">
        <ele>9.300000000000001</ele>
        <time>2010-12-26T12:23:21Z</time>
      </trkpt>
      <trkpt lat="35.11957498267293" lon="-2.904035998508334">
        <ele>10.199999999999999</ele>
        <time>2010-12-26T12:23:32Z</time>
      </trkpt>
      <trkpt lat="35.118206972256303" lon="-2.901287991553545">
        <ele>11.199999999999999</ele>
        <time>2010-12-26T12:23:44Z</time>
      </trkpt>
      <trkpt lat="35.116436965763569" lon="-2.897755019366741">
        <ele>11.699999999999999</ele>
        <time>2010-12-26T12:24:00Z</time>
      </trkpt>
      <trkpt lat="35.115144979208708" lon="-2.895169034600258">
        <ele>11.699999999999999</ele>
        <time>2010-12-26T12:24:12Z</time>
      </trkpt>
      <trkpt lat="35.113506987690926" lon="-2.891913000494242">
        <ele>10.699999999999999</ele>
        <time>2010-12-26T12:24:28Z</time>
      </trkpt>
      <trkpt lat="35.11285001412034" lon="-2.890580026432872">
        <ele>9.800000000000001</ele>
        <time>2010-12-26T12:24:36Z</time>
      </trkpt>
      <trkpt lat="35.111891040578485" lon="-2.888673981651664">
        <ele>8.800000000000001</ele>
        <time>2010-12-26T12:24:48Z</time>
      </trkpt>
      <trkpt lat="35.111100962385535" lon="-2.887090975418687">
        <ele>8.800000000000001</ele>
        <time>2010-12-26T12:24:59Z</time>
      </trkpt>
      <trkpt lat="35.110131008550525" lon="-2.885158024728298">
        <ele>8.300000000000001</ele>
        <time>2010-12-26T12:25:11Z</time>
      </trkpt>
      <trkpt lat="35.10900397785008" lon="-2.882889965549111">
        <ele>8.300000000000001</ele>
        <time>2010-12-26T12:25:25Z</time>
      </trkpt>
      <trkpt lat="35.107964035123587" lon="-2.880805972963572">
        <ele>7.8</ele>
        <time>2010-12-26T12:25:39Z</time>
      </trkpt>
      <trkpt lat="35.106902970001101" lon="-2.878691973164678">
        <ele>11.699999999999999</ele>
        <time>2010-12-26T12:25:52Z</time>
      </trkpt>
      <trkpt lat="35.105924969539046" lon="-2.876737983897328">
        <ele>15</ele>
        <time>2010-12-26T12:26:02Z</time>
      </trkpt>
      <trkpt lat="35.104528963565826" lon="-2.873949995264411">
        <ele>17.899999999999999</ele>
        <time>2010-12-26T12:26:16Z</time>
      </trkpt>
      <trkpt lat="35.103065986186266" lon="-2.871010964736342">
        <ele>20.300000000000001</ele>
        <time>2010-12-26T12:26:30Z</time>
      </trkpt>
      <trkpt lat="35.101908026263118" lon="-2.868678029626608">
        <ele>22.199999999999999</ele>
        <time>2010-12-26T12:26:42Z</time>
      </trkpt>
      <trkpt lat="35.100536998361349" lon="-2.865928011015058">
        <ele>23.199999999999999</ele>
        <time>2010-12-26T12:26:57Z</time>
      </trkpt>
      <trkpt lat="35.099201006814837" lon="-2.863242030143738">
        <ele>23.699999999999999</ele>
        <time>2010-12-26T12:27:12Z</time>
      </trkpt>
      <trkpt lat="35.098183024674654" lon="-2.861216962337494">
        <ele>24.699999999999999</ele>
        <time>2010-12-26T12:27:25Z</time>
      </trkpt>
      <trkpt lat="35.097160013392568" lon="-2.859172029420734">
        <ele>25.100000000000001</ele>
        <time>2010-12-26T12:27:37Z</time>
      </trkpt>
      <trkpt lat="35.095993001013994" lon="-2.856820989400148">
        <ele>23.699999999999999</ele>
        <time>2010-12-26T12:27:49Z</time>
      </trkpt>
      <trkpt lat="35.094675030559301" lon="-2.85418001934886">
        <ele>23.199999999999999</ele>
        <time>2010-12-26T12:28:01Z</time>
      </trkpt>
      <trkpt lat="35.093443980440497" lon="-2.851685984060168">
        <ele>23.699999999999999</ele>
        <time>2010-12-26T12:28:12Z</time>
      </trkpt>
      <trkpt lat="35.092431027442217" lon="-2.849693018943071">
        <ele>26.100000000000001</ele>
        <time>2010-12-26T12:28:20Z</time>
      </trkpt>
      <trkpt lat="35.091269966214895" lon="-2.847363017499447">
        <ele>28.5</ele>
        <time>2010-12-26T12:28:30Z</time>
      </trkpt>
      <trkpt lat="35.090477038174868" lon="-2.845766013488174">
        <ele>29.899999999999999</ele>
        <time>2010-12-26T12:28:38Z</time>
      </trkpt>
      <trkpt lat="35.089890975505114" lon="-2.844589026644826">
        <ele>30.899999999999999</ele>
        <time>2010-12-26T12:28:46Z</time>
      </trkpt>
      <trkpt lat="35.088788000866771" lon="-2.84236597828567">
        <ele>32.299999999999997</ele>
        <time>2010-12-26T12:29:00Z</time>
      </trkpt>
      <trkpt lat="35.08732401765883" lon="-2.839373974129558">
        <ele>34.299999999999997</ele>
        <time>2010-12-26T12:29:17Z</time>
      </trkpt>
      <trkpt lat="35.086967032402754" lon="-2.838159017264843">
        <ele>34.700000000000003</ele>
        <time>2010-12-26T12:29:24Z</time>
      </trkpt>
      <trkpt lat="35.08685203269124" lon="-2.837127959355712">
        <ele>36.200000000000003</ele>
        <time>2010-12-26T12:29:31Z</time>
      </trkpt>
      <trkpt lat="35.086856978014112" lon="-2.836610963568091">
        <ele>37.100000000000001</ele>
        <time>2010-12-26T12:29:37Z</time>
      </trkpt>
      <trkpt lat="35.08676502853632" lon="-2.836632002145052">
        <ele>38.600000000000001</ele>
        <time>2010-12-26T12:29:50Z</time>
      </trkpt>
      <trkpt lat="35.086777014657855" lon="-2.837308002635837">
        <ele>35.700000000000003</ele>
        <time>2010-12-26T12:30:00Z</time>
      </trkpt>
      <trkpt lat="35.086767040193081" lon="-2.837691977620125">
        <ele>35.700000000000003</ele>
        <time>2010-12-26T12:30:05Z</time>
      </trkpt>
      <trkpt lat="35.086656985804439" lon="-2.838101014494896">
        <ele>36.200000000000003</ele>
        <time>2010-12-26T12:30:14Z</time>
      </trkpt>
      <trkpt lat="35.086590014398098" lon="-2.838234035298228">
        <ele>36.700000000000003</ele>
        <time>2010-12-26T12:30:18Z</time>
      </trkpt>
      <trkpt lat="35.086383987218142" lon="-2.83821601420641">
        <ele>36.700000000000003</ele>
        <time>2010-12-26T12:30:23Z</time>
      </trkpt>
      <trkpt lat="35.085817035287619" lon="-2.837902028113604">
        <ele>37.600000000000001</ele>
        <time>2010-12-26T12:30:34Z</time>
      </trkpt>
      <trkpt lat="35.085535990074277" lon="-2.837774036452174">
        <ele>38.600000000000001</ele>
        <time>2010-12-26T12:30:41Z</time>
      </trkpt>
      <trkpt lat="35.085007008165121" lon="-2.837458960711956">
        <ele>40</ele>
        <time>2010-12-26T12:30:54Z</time>
      </trkpt>
      <trkpt lat="35.084753958508372" lon="-2.837319988757372">
        <ele>41</ele>
        <time>2010-12-26T12:31:02Z</time>
      </trkpt>
      <trkpt lat="35.084254983812571" lon="-2.837061993777752">
        <ele>41.5</ele>
        <time>2010-12-26T12:31:13Z</time>
      </trkpt>
      <trkpt lat="35.083717033267021" lon="-2.836764017120004">
        <ele>42</ele>
        <time>2010-12-26T12:31:22Z</time>
      </trkpt>
      <trkpt lat="35.082926033064723" lon="-2.836339976638556">
        <ele>43.399999999999999</ele>
        <time>2010-12-26T12:31:34Z</time>
      </trkpt>
      <trkpt lat="35.081857005134225" lon="-2.835786016657949">
        <ele>45.299999999999997</ele>
        <time>2010-12-26T12:31:48Z</time>
      </trkpt>
      <trkpt lat="35.080610029399395" lon="-2.835105992853642">
        <ele>47.200000000000003</ele>
        <time>2010-12-26T12:32:04Z</time>
      </trkpt>
      <trkpt lat="35.079706041142344" lon="-2.834620010107756">
        <ele>49.600000000000001</ele>
        <time>2010-12-26T12:32:17Z</time>
      </trkpt>
      <trkpt lat="35.078747989609838" lon="-2.834117012098432">
        <ele>51.100000000000001</ele>
        <time>2010-12-26T12:32:30Z</time>
      </trkpt>
      <trkpt lat="35.07821599021554" lon="-2.833846025168896">
        <ele>51.600000000000001</ele>
        <time>2010-12-26T12:32:41Z</time>
      </trkpt>
      <trkpt lat="35.077672004699707" lon="-2.833541007712483">
        <ele>53</ele>
        <time>2010-12-26T12:32:50Z</time>
      </trkpt>
      <trkpt lat="35.076753012835979" lon="-2.833059970289469">
        <ele>55.399999999999999</ele>
        <time>2010-12-26T12:33:02Z</time>
      </trkpt>
      <trkpt lat="35.076206009835005" lon="-2.832751013338566">
        <ele>56.399999999999999</ele>
        <time>2010-12-26T12:33:11Z</time>
      </trkpt>
      <trkpt lat="35.075630005449057" lon="-2.832453958690167">
        <ele>57.799999999999997</ele>
        <time>2010-12-26T12:33:19Z</time>
      </trkpt>
      <trkpt lat="35.074130985885859" lon="-2.831620965152979">
        <ele>59.700000000000003</ele>
        <time>2010-12-26T12:33:36Z</time>
      </trkpt>
      <trkpt lat="35.072932038456202" lon="-2.830988969653845">
        <ele>63.100000000000001</ele>
        <time>2010-12-26T12:33:48Z</time>
      </trkpt>
      <trkpt lat="35.072389980778098" lon="-2.830644976347685">
        <ele>63.600000000000001</ele>
        <time>2010-12-26T12:33:55Z</time>
      </trkpt>
      <trkpt lat="35.072131985798478" lon="-2.830655034631491">
        <ele>64.5</ele>
        <time>2010-12-26T12:34:02Z</time>
      </trkpt>
      <trkpt lat="35.071966024115682" lon="-2.830660985782743">
        <ele>64.5</ele>
        <time>2010-12-26T12:34:08Z</time>
      </trkpt>
      <trkpt lat="35.071697970852256" lon="-2.830626033246517">
        <ele>66</ele>
        <time>2010-12-26T12:34:16Z</time>
      </trkpt>
      <trkpt lat="35.071610966697335" lon="-2.8305699583143">
        <ele>67.400000000000006</ele>
        <time>2010-12-26T12:34:31Z</time>
      </trkpt>
      <trkpt lat="35.071510970592499" lon="-2.830429980531335">
        <ele>67.400000000000006</ele>
        <time>2010-12-26T12:34:42Z</time>
      </trkpt>
      <trkpt lat="35.071393037214875" lon="-2.830043993890286">
        <ele>66.5</ele>
        <time>2010-12-26T12:34:51Z</time>
      </trkpt>
      <trkpt lat="35.071393037214875" lon="-2.829725984483957">
        <ele>66</ele>
        <time>2010-12-26T12:34:57Z</time>
      </trkpt>
      <trkpt lat="35.071350038051605" lon="-2.82934301532805">
        <ele>65.5</ele>
        <time>2010-12-26T12:35:04Z</time>
      </trkpt>
      <trkpt lat="35.071267979219556" lon="-2.82904202118516">
        <ele>65</ele>
        <time>2010-12-26T12:35:10Z</time>
      </trkpt>
      <trkpt lat="35.071236966177821" lon="-2.828875975683332">
        <ele>64.099999999999994</ele>
        <time>2010-12-26T12:35:13Z</time>
      </trkpt>
      <trkpt lat="35.071089025586843" lon="-2.8286790009588">
        <ele>65</ele>
        <time>2010-12-26T12:35:18Z</time>
      </trkpt>
      <trkpt lat="35.070601031184196" lon="-2.828653017058969">
        <ele>65</ele>
        <time>2010-12-26T12:35:30Z</time>
      </trkpt>
      <trkpt lat="35.069953026250005" lon="-2.828585039824247">
        <ele>66.900000000000006</ele>
        <time>2010-12-26T12:35:43Z</time>
      </trkpt>
      <trkpt lat="35.069421026855707" lon="-2.828497029840946">
        <ele>68.400000000000006</ele>
        <time>2010-12-26T12:35:51Z</time>
      </trkpt>
      <trkpt lat="35.069078039377928" lon="-2.82848303206265">
        <ele>70.299999999999997</ele>
        <time>2010-12-26T12:35:59Z</time>
      </trkpt>
      <trkpt lat="35.06839700974524" lon="-2.828451013192534">
        <ele>72.700000000000003</ele>
        <time>2010-12-26T12:36:12Z</time>
      </trkpt>
      <trkpt lat="35.068174973130226" lon="-2.82846400514245">
        <ele>73.200000000000003</ele>
        <time>2010-12-26T12:36:16Z</time>
      </trkpt>
      <trkpt lat="35.067685972899199" lon="-2.828372977674007">
        <ele>74.200000000000003</ele>
        <time>2010-12-26T12:36:24Z</time>
      </trkpt>
      <trkpt lat="35.067508025094867" lon="-2.828345987945795">
        <ele>75.099999999999994</ele>
        <time>2010-12-26T12:36:27Z</time>
      </trkpt>
      <trkpt lat="35.066619962453842" lon="-2.828029990196228">
        <ele>76.599999999999994</ele>
        <time>2010-12-26T12:36:40Z</time>
      </trkpt>
      <trkpt lat="35.065842038020492" lon="-2.827674010768533">
        <ele>78</ele>
        <time>2010-12-26T12:36:49Z</time>
      </trkpt>
      <trkpt lat="35.064911982044578" lon="-2.827314008027315">
        <ele>80.400000000000006</ele>
        <time>2010-12-26T12:37:00Z</time>
      </trkpt>
      <trkpt lat="35.064605036750436" lon="-2.827141005545855">
        <ele>80.400000000000006</ele>
        <time>2010-12-26T12:37:05Z</time>
      </trkpt>
      <trkpt lat="35.064232964068651" lon="-2.827027011662722">
        <ele>80.900000000000006</ele>
        <time>2010-12-26T12:37:11Z</time>
      </trkpt>
      <trkpt lat="35.063680009916425" lon="-2.826796006411314">
        <ele>82.299999999999997</ele>
        <time>2010-12-26T12:37:19Z</time>
      </trkpt>
      <trkpt lat="35.062955981120467" lon="-2.826578998938203">
        <ele>83.799999999999997</ele>
        <time>2010-12-26T12:37:29Z</time>
      </trkpt>
      <trkpt lat="35.062363967299461" lon="-2.826359979808331">
        <ele>84.299999999999997</ele>
        <time>2010-12-26T12:37:39Z</time>
      </trkpt>
      <trkpt lat="35.062104966491461" lon="-2.826252020895481">
        <ele>84.700000000000003</ele>
        <time>2010-12-26T12:37:44Z</time>
      </trkpt>
      <trkpt lat="35.061815958470106" lon="-2.8259920142591">
        <ele>85.200000000000003</ele>
        <time>2010-12-26T12:37:51Z</time>
      </trkpt>
      <trkpt lat="35.061096036806703" lon="-2.825679033994675">
        <ele>86.700000000000003</ele>
        <time>2010-12-26T12:38:02Z</time>
      </trkpt>
      <trkpt lat="35.060263965278864" lon="-2.825426990166307">
        <ele>88.599999999999994</ele>
        <time>2010-12-26T12:38:14Z</time>
      </trkpt>
      <trkpt lat="35.059817964211106" lon="-2.825362030416727">
        <ele>89.099999999999994</ele>
        <time>2010-12-26T12:38:20Z</time>
      </trkpt>
      <trkpt lat="35.058882962912321" lon="-2.825079979375005">
        <ele>91</ele>
        <time>2010-12-26T12:38:34Z</time>
      </trkpt>
      <trkpt lat="35.05849102512002" lon="-2.825007978826761">
        <ele>91.5</ele>
        <time>2010-12-26T12:38:41Z</time>
      </trkpt>
      <trkpt lat="35.057916026562452" lon="-2.824948970228434">
        <ele>92.900000000000006</ele>
        <time>2010-12-26T12:38:51Z</time>
      </trkpt>
      <trkpt lat="35.057180011644959" lon="-2.824976965785027">
        <ele>94.299999999999997</ele>
        <time>2010-12-26T12:39:02Z</time>
      </trkpt>
      <trkpt lat="35.05655899643898" lon="-2.82500202767551">
        <ele>95.799999999999997</ele>
        <time>2010-12-26T12:39:11Z</time>
      </trkpt>
      <trkpt lat="35.056384988129139" lon="-2.825023988261819">
        <ele>95.299999999999997</ele>
        <time>2010-12-26T12:39:14Z</time>
      </trkpt>
      <trkpt lat="35.056133028119802" lon="-2.824932960793376">
        <ele>95.299999999999997</ele>
        <time>2010-12-26T12:39:19Z</time>
      </trkpt>
      <trkpt lat="35.055899005383253" lon="-2.824819972738624">
        <ele>95.299999999999997</ele>
        <time>2010-12-26T12:39:24Z</time>
      </trkpt>
      <trkpt lat="35.055259969085455" lon="-2.824866995215416">
        <ele>96.299999999999997</ele>
        <time>2010-12-26T12:39:34Z</time>
      </trkpt>
      <trkpt lat="35.054721012711525" lon="-2.82489599660039">
        <ele>97.700000000000003</ele>
        <time>2010-12-26T12:39:41Z</time>
      </trkpt>
      <trkpt lat="35.054539041593671" lon="-2.8248730301857">
        <ele>97.700000000000003</ele>
        <time>2010-12-26T12:39:44Z</time>
      </trkpt>
      <trkpt lat="35.054035959765315" lon="-2.824972020462155">
        <ele>99.200000000000003</ele>
        <time>2010-12-26T12:39:52Z</time>
      </trkpt>
      <trkpt lat="35.053211012855172" lon="-2.825140999630094">
        <ele>100.59999999999999</ele>
        <time>2010-12-26T12:40:02Z</time>
      </trkpt>
      <trkpt lat="35.052378019317985" lon="-2.825183998793364">
        <ele>102</ele>
        <time>2010-12-26T12:40:13Z</time>
      </trkpt>
      <trkpt lat="35.052157994359732" lon="-2.825193973258138">
        <ele>102.5</ele>
        <time>2010-12-26T12:40:16Z</time>
      </trkpt>
      <trkpt lat="35.051400018855929" lon="-2.825398994609714">
        <ele>104.40000000000001</ele>
        <time>2010-12-26T12:40:27Z</time>
      </trkpt>
      <trkpt lat="35.050752013921738" lon="-2.825526986271143">
        <ele>105.90000000000001</ele>
        <time>2010-12-26T12:40:36Z</time>
      </trkpt>
      <trkpt lat="35.050511034205556" lon="-2.825487004593015">
        <ele>105.90000000000001</ele>
        <time>2010-12-26T12:40:40Z</time>
      </trkpt>
      <trkpt lat="35.050158994272351" lon="-2.825411986559629">
        <ele>106.40000000000001</ele>
        <time>2010-12-26T12:40:45Z</time>
      </trkpt>
      <trkpt lat="35.049739982932806" lon="-2.825405029579997">
        <ele>106.8</ele>
        <time>2010-12-26T12:40:50Z</time>
      </trkpt>
      <trkpt lat="35.049427002668381" lon="-2.825330011546612">
        <ele>108.3</ele>
        <time>2010-12-26T12:40:54Z</time>
      </trkpt>
      <trkpt lat="35.049212006852031" lon="-2.825339986011386">
        <ele>109.2</ele>
        <time>2010-12-26T12:40:57Z</time>
      </trkpt>
      <trkpt lat="35.0490150321275" lon="-2.825397988781333">
        <ele>109.7</ele>
        <time>2010-12-26T12:41:00Z</time>
      </trkpt>
      <trkpt lat="35.04876097664237" lon="-2.825430007651448">
        <ele>110.2</ele>
        <time>2010-12-26T12:41:04Z</time>
      </trkpt>
      <trkpt lat="35.048240963369608" lon="-2.825314002111554">
        <ele>111.2</ele>
        <time>2010-12-26T12:41:12Z</time>
      </trkpt>
      <trkpt lat="35.047797979786992" lon="-2.825181987136602">
        <ele>112.09999999999999</ele>
        <time>2010-12-26T12:41:19Z</time>
      </trkpt>
      <trkpt lat="35.047544008120894" lon="-2.825028011575341">
        <ele>112.59999999999999</ele>
        <time>2010-12-26T12:41:23Z</time>
      </trkpt>
      <trkpt lat="35.047150980681181" lon="-2.824834976345301">
        <ele>112.59999999999999</ele>
        <time>2010-12-26T12:41:29Z</time>
      </trkpt>
      <trkpt lat="35.047030029818416" lon="-2.824771022424102">
        <ele>112.59999999999999</ele>
        <time>2010-12-26T12:41:31Z</time>
      </trkpt>
      <trkpt lat="35.046430975198746" lon="-2.824257966130972">
        <ele>113.59999999999999</ele>
        <time>2010-12-26T12:41:41Z</time>
      </trkpt>
      <trkpt lat="35.046100979670882" lon="-2.824008017778397">
        <ele>114.09999999999999</ele>
        <time>2010-12-26T12:41:47Z</time>
      </trkpt>
      <trkpt lat="35.045906016603112" lon="-2.823571991175413">
        <ele>115</ele>
        <time>2010-12-26T12:41:54Z</time>
      </trkpt>
      <trkpt lat="35.045919008553028" lon="-2.823408041149378">
        <ele>115</ele>
        <time>2010-12-26T12:41:56Z</time>
      </trkpt>
      <trkpt lat="35.045930994674563" lon="-2.822944018989801">
        <ele>116</ele>
        <time>2010-12-26T12:42:02Z</time>
      </trkpt>
      <trkpt lat="35.045706024393439" lon="-2.822272041812539">
        <ele>116</ele>
        <time>2010-12-26T12:42:13Z</time>
      </trkpt>
      <trkpt lat="35.045662019401789" lon="-2.822139021009207">
        <ele>116.5</ele>
        <time>2010-12-26T12:42:15Z</time>
      </trkpt>
      <trkpt lat="35.045596975833178" lon="-2.82165496610105">
        <ele>119.3</ele>
        <time>2010-12-26T12:42:21Z</time>
      </trkpt>
      <trkpt lat="35.045437971130013" lon="-2.821360006928444">
        <ele>121.3</ele>
        <time>2010-12-26T12:42:26Z</time>
      </trkpt>
      <trkpt lat="35.045213000848889" lon="-2.821055995300412">
        <ele>122.7</ele>
        <time>2010-12-26T12:42:31Z</time>
      </trkpt>
      <trkpt lat="35.045076040551066" lon="-2.820784002542496">
        <ele>123.2</ele>
        <time>2010-12-26T12:42:35Z</time>
      </trkpt>
      <trkpt lat="35.044661974534392" lon="-2.820505974814296">
        <ele>124.59999999999999</ele>
        <time>2010-12-26T12:42:44Z</time>
      </trkpt>
      <trkpt lat="35.044106002897024" lon="-2.820200035348535">
        <ele>124.59999999999999</ele>
        <time>2010-12-26T12:42:53Z</time>
      </trkpt>
      <trkpt lat="35.043987985700369" lon="-2.820152007043362">
        <ele>125.09999999999999</ele>
        <time>2010-12-26T12:42:55Z</time>
      </trkpt>
      <trkpt lat="35.043813977390528" lon="-2.819929970428348">
        <ele>126.09999999999999</ele>
        <time>2010-12-26T12:43:00Z</time>
      </trkpt>
      <trkpt lat="35.043417010456324" lon="-2.819358995184302">
        <ele>127</ele>
        <time>2010-12-26T12:43:10Z</time>
      </trkpt>
      <trkpt lat="35.043160021305084" lon="-2.818662961944938">
        <ele>128.5</ele>
        <time>2010-12-26T12:43:19Z</time>
      </trkpt>
      <trkpt lat="35.042861038818955" lon="-2.8177410364151">
        <ele>129.90000000000001</ele>
        <time>2010-12-26T12:43:31Z</time>
      </trkpt>
      <trkpt lat="35.042567001655698" lon="-2.817068975418806">
        <ele>130.90000000000001</ele>
        <time>2010-12-26T12:43:42Z</time>
      </trkpt>
      <trkpt lat="35.042395005002618" lon="-2.81668902374804">
        <ele>131.40000000000001</ele>
        <time>2010-12-26T12:43:48Z</time>
      </trkpt>
      <trkpt lat="35.042150001972914" lon="-2.816140009090304">
        <ele>129.40000000000001</ele>
        <time>2010-12-26T12:43:58Z</time>
      </trkpt>
      <trkpt lat="35.042107002809644" lon="-2.816033978015184">
        <ele>129</ele>
        <time>2010-12-26T12:44:00Z</time>
      </trkpt>
      <trkpt lat="35.042084036394954" lon="-2.81572200357914">
        <ele>128.5</ele>
        <time>2010-12-26T12:44:05Z</time>
      </trkpt>
      <trkpt lat="35.04201496951282" lon="-2.815449004992843">
        <ele>129.90000000000001</ele>
        <time>2010-12-26T12:44:09Z</time>
      </trkpt>
      <trkpt lat="35.041894018650055" lon="-2.815184975042939">
        <ele>132.80000000000001</ele>
        <time>2010-12-26T12:44:17Z</time>
      </trkpt>
      <trkpt lat="35.041846996173263" lon="-2.814934020861983">
        <ele>135.19999999999999</ele>
        <time>2010-12-26T12:44:24Z</time>
      </trkpt>
      <trkpt lat="35.041787987574935" lon="-2.814357010647655">
        <ele>138.59999999999999</ele>
        <time>2010-12-26T12:44:35Z</time>
      </trkpt>
      <trkpt lat="35.041767032817006" lon="-2.813992984592915">
        <ele>139.5</ele>
        <time>2010-12-26T12:44:44Z</time>
      </trkpt>
      <trkpt lat="35.041739959269762" lon="-2.813491998240352">
        <ele>139.5</ele>
        <time>2010-12-26T12:44:53Z</time>
      </trkpt>
      <trkpt lat="35.04169000312686" lon="-2.813284965232015">
        <ele>139.5</ele>
        <time>2010-12-26T12:44:57Z</time>
      </trkpt>
      <trkpt lat="35.041527980938554" lon="-2.812889004126191">
        <ele>139.5</ele>
        <time>2010-12-26T12:45:05Z</time>
      </trkpt>
      <trkpt lat="35.041578020900488" lon="-2.812482984736562">
        <ele>137.59999999999999</ele>
        <time>2010-12-26T12:45:14Z</time>
      </trkpt>
      <trkpt lat="35.041680028662086" lon="-2.812359016388655">
        <ele>136.59999999999999</ele>
        <time>2010-12-26T12:45:18Z</time>
      </trkpt>
      <trkpt lat="35.041711963713169" lon="-2.812172016128898">
        <ele>137.59999999999999</ele>
        <time>2010-12-26T12:45:25Z</time>
      </trkpt>
      <trkpt lat="35.041291024535894" lon="-2.812012005597353">
        <ele>138.59999999999999</ele>
        <time>2010-12-26T12:45:35Z</time>
      </trkpt>
      <trkpt lat="35.040814010426402" lon="-2.811686033383012">
        <ele>139.5</ele>
        <time>2010-12-26T12:45:47Z</time>
      </trkpt>
      <trkpt lat="35.040705967694521" lon="-2.811474977061153">
        <ele>140</ele>
        <time>2010-12-26T12:45:52Z</time>
      </trkpt>
      <trkpt lat="35.040609994903207" lon="-2.81123198568821">
        <ele>141</ele>
        <time>2010-12-26T12:45:57Z</time>
      </trkpt>
      <trkpt lat="35.040319981053472" lon="-2.810767963528633">
        <ele>141.90000000000001</ele>
        <time>2010-12-26T12:46:06Z</time>
      </trkpt>
      <trkpt lat="35.040060980245471" lon="-2.810411984100938">
        <ele>143.40000000000001</ele>
        <time>2010-12-26T12:46:13Z</time>
      </trkpt>
      <trkpt lat="35.039876997470856" lon="-2.810283992439508">
        <ele>143.90000000000001</ele>
        <time>2010-12-26T12:46:17Z</time>
      </trkpt>
      <trkpt lat="35.039625959470868" lon="-2.810204029083252">
        <ele>144.80000000000001</ele>
        <time>2010-12-26T12:46:22Z</time>
      </trkpt>
      <trkpt lat="35.039052972570062" lon="-2.809800021350384">
        <ele>145.80000000000001</ele>
        <time>2010-12-26T12:46:35Z</time>
      </trkpt>
      <trkpt lat="35.038590040057898" lon="-2.809483017772436">
        <ele>148.19999999999999</ele>
        <time>2010-12-26T12:46:46Z</time>
      </trkpt>
      <trkpt lat="35.038431035354733" lon="-2.809346979483962">
        <ele>149.59999999999999</ele>
        <time>2010-12-26T12:46:50Z</time>
      </trkpt>
      <trkpt lat="35.038125012069941" lon="-2.808752031996846">
        <ele>152.5</ele>
        <time>2010-12-26T12:47:01Z</time>
      </trkpt>
      <trkpt lat="35.038008000701666" lon="-2.808448020368815">
        <ele>153</ele>
        <time>2010-12-26T12:47:07Z</time>
      </trkpt>
      <trkpt lat="35.037829969078302" lon="-2.808279041200876">
        <ele>153</ele>
        <time>2010-12-26T12:47:12Z</time>
      </trkpt>
      <trkpt lat="35.037738019600511" lon="-2.808245010674">
        <ele>153</ele>
        <time>2010-12-26T12:47:14Z</time>
      </trkpt>
      <trkpt lat="35.037579014897346" lon="-2.808130010962486">
        <ele>153.5</ele>
        <time>2010-12-26T12:47:18Z</time>
      </trkpt>
      <trkpt lat="35.037457980215549" lon="-2.808077959343791">
        <ele>153.5</ele>
        <time>2010-12-26T12:47:21Z</time>
      </trkpt>
      <trkpt lat="35.037320014089346" lon="-2.807973017916083">
        <ele>153</ele>
        <time>2010-12-26T12:47:25Z</time>
      </trkpt>
      <trkpt lat="35.036933021619916" lon="-2.807889031246305">
        <ele>154.40000000000001</ele>
        <time>2010-12-26T12:47:35Z</time>
      </trkpt>
      <trkpt lat="35.036833025515079" lon="-2.807975029572845">
        <ele>154.90000000000001</ele>
        <time>2010-12-26T12:47:38Z</time>
      </trkpt>
      <trkpt lat="35.036661028862" lon="-2.808106038719416">
        <ele>155.90000000000001</ele>
        <time>2010-12-26T12:47:43Z</time>
      </trkpt>
      <trkpt lat="35.036538988351822" lon="-2.80831097625196">
        <ele>156.40000000000001</ele>
        <time>2010-12-26T12:47:48Z</time>
      </trkpt>
      <trkpt lat="35.036441003903747" lon="-2.808796036988497">
        <ele>155.40000000000001</ele>
        <time>2010-12-26T12:47:56Z</time>
      </trkpt>
      <trkpt lat="35.036413008347154" lon="-2.808973984792829">
        <ele>154.90000000000001</ele>
        <time>2010-12-26T12:47:59Z</time>
      </trkpt>
      <trkpt lat="35.036222990602255" lon="-2.809499027207494">
        <ele>154.40000000000001</ele>
        <time>2010-12-26T12:48:07Z</time>
      </trkpt>
      <trkpt lat="35.035950997844338" lon="-2.809929018840194">
        <ele>155.40000000000001</ele>
        <time>2010-12-26T12:48:15Z</time>
      </trkpt>
      <trkpt lat="35.035765003412962" lon="-2.810185002163053">
        <ele>155.40000000000001</ele>
        <time>2010-12-26T12:48:20Z</time>
      </trkpt>
      <trkpt lat="35.035405000671744" lon="-2.810497982427478">
        <ele>155.40000000000001</ele>
        <time>2010-12-26T12:48:27Z</time>
      </trkpt>
      <trkpt lat="35.034898985177279" lon="-2.811020007357001">
        <ele>156.40000000000001</ele>
        <time>2010-12-26T12:48:38Z</time>
      </trkpt>
      <trkpt lat="35.034793959930539" lon="-2.811142969876528">
        <ele>156.80000000000001</ele>
        <time>2010-12-26T12:48:42Z</time>
      </trkpt>
      <trkpt lat="35.034703016281128" lon="-2.811053032055497">
        <ele>156.80000000000001</ele>
        <time>2010-12-26T12:48:46Z</time>
      </trkpt>
      <trkpt lat="35.034596985206008" lon="-2.810698980465531">
        <ele>157.80000000000001</ele>
        <time>2010-12-26T12:48:52Z</time>
      </trkpt>
      <trkpt lat="35.034282999113202" lon="-2.810124987736344">
        <ele>159.19999999999999</ele>
        <time>2010-12-26T12:49:04Z</time>
      </trkpt>
      <trkpt lat="35.034187026321888" lon="-2.810019040480256">
        <ele>159.69999999999999</ele>
        <time>2010-12-26T12:49:07Z</time>
      </trkpt>
      <trkpt lat="35.03370095975697" lon="-2.809722991660237">
        <ele>161.19999999999999</ele>
        <time>2010-12-26T12:49:19Z</time>
      </trkpt>
      <trkpt lat="35.033197961747646" lon="-2.809608997777104">
        <ele>162.09999999999999</ele>
        <time>2010-12-26T12:49:29Z</time>
      </trkpt>
      <trkpt lat="35.032986989244819" lon="-2.809625007212162">
        <ele>163.09999999999999</ele>
        <time>2010-12-26T12:49:36Z</time>
      </trkpt>
      <trkpt lat="35.032749027013779" lon="-2.81065103597939">
        <ele>161.59999999999999</ele>
        <time>2010-12-26T12:49:52Z</time>
      </trkpt>
      <trkpt lat="35.032448032870889" lon="-2.81168301589787">
        <ele>160.69999999999999</ele>
        <time>2010-12-26T12:50:07Z</time>
      </trkpt>
      <trkpt lat="35.032375026494265" lon="-2.812278969213367">
        <ele>159.69999999999999</ele>
        <time>2010-12-26T12:50:17Z</time>
      </trkpt>
      <trkpt lat="35.032353987917304" lon="-2.812999980524182">
        <ele>158.80000000000001</ele>
        <time>2010-12-26T12:50:29Z</time>
      </trkpt>
      <trkpt lat="35.032340995967388" lon="-2.814045958220959">
        <ele>157.30000000000001</ele>
        <time>2010-12-26T12:50:44Z</time>
      </trkpt>
      <trkpt lat="35.032316017895937" lon="-2.814342007040978">
        <ele>156.80000000000001</ele>
        <time>2010-12-26T12:50:49Z</time>
      </trkpt>
      <trkpt lat="35.032038995996118" lon="-2.814966039732099">
        <ele>157.30000000000001</ele>
        <time>2010-12-26T12:51:01Z</time>
      </trkpt>
      <trkpt lat="35.03187102265656" lon="-2.815758967772126">
        <ele>158.30000000000001</ele>
        <time>2010-12-26T12:51:13Z</time>
      </trkpt>
      <trkpt lat="35.031860964372754" lon="-2.816372020170093">
        <ele>154.90000000000001</ele>
        <time>2010-12-26T12:51:24Z</time>
      </trkpt>
      <trkpt lat="35.031835986301303" lon="-2.816662034019828">
        <ele>152</ele>
        <time>2010-12-26T12:51:29Z</time>
      </trkpt>
      <trkpt lat="35.031583020463586" lon="-2.817351026460528">
        <ele>148.69999999999999</ele>
        <time>2010-12-26T12:51:41Z</time>
      </trkpt>
      <trkpt lat="35.031311027705669" lon="-2.817905992269516">
        <ele>149.09999999999999</ele>
        <time>2010-12-26T12:51:51Z</time>
      </trkpt>
      <trkpt lat="35.030959993600845" lon="-2.818593978881836">
        <ele>148.69999999999999</ele>
        <time>2010-12-26T12:52:05Z</time>
      </trkpt>
      <trkpt lat="35.030546011403203" lon="-2.819113992154598">
        <ele>147.19999999999999</ele>
        <time>2010-12-26T12:52:17Z</time>
      </trkpt>
      <trkpt lat="35.029998002573848" lon="-2.819697037339211">
        <ele>149.09999999999999</ele>
        <time>2010-12-26T12:52:29Z</time>
      </trkpt>
      <trkpt lat="35.029676975682378" lon="-2.819828968495131">
        <ele>149.59999999999999</ele>
        <time>2010-12-26T12:52:34Z</time>
      </trkpt>
      <trkpt lat="35.02946600317955" lon="-2.819828968495131">
        <ele>150.09999999999999</ele>
        <time>2010-12-26T12:52:37Z</time>
      </trkpt>
      <trkpt lat="35.028724037110806" lon="-2.819873979315162">
        <ele>152</ele>
        <time>2010-12-26T12:52:46Z</time>
      </trkpt>
      <trkpt lat="35.028354981914163" lon="-2.81995402649045">
        <ele>153.90000000000001</ele>
        <time>2010-12-26T12:52:50Z</time>
      </trkpt>
      <trkpt lat="35.027521988376975" lon="-2.820369014516473">
        <ele>157.80000000000001</ele>
        <time>2010-12-26T12:52:59Z</time>
      </trkpt>
      <trkpt lat="35.026878006756306" lon="-2.820997992530465">
        <ele>160.69999999999999</ele>
        <time>2010-12-26T12:53:08Z</time>
      </trkpt>
      <trkpt lat="35.026571983471513" lon="-2.82132999971509">
        <ele>162.09999999999999</ele>
        <time>2010-12-26T12:53:13Z</time>
      </trkpt>
      <trkpt lat="35.026405015960336" lon="-2.821475006639957">
        <ele>163.09999999999999</ele>
        <time>2010-12-26T12:53:16Z</time>
      </trkpt>
      <trkpt lat="35.026004025712609" lon="-2.822204986587167">
        <ele>166</ele>
        <time>2010-12-26T12:53:25Z</time>
      </trkpt>
      <trkpt lat="35.025535980239511" lon="-2.823020964860916">
        <ele>168.40000000000001</ele>
        <time>2010-12-26T12:53:34Z</time>
      </trkpt>
      <trkpt lat="35.025031976401806" lon="-2.823767960071564">
        <ele>169.80000000000001</ele>
        <time>2010-12-26T12:53:43Z</time>
      </trkpt>
      <trkpt lat="35.024913959205151" lon="-2.824029978364706">
        <ele>168.80000000000001</ele>
        <time>2010-12-26T12:53:48Z</time>
      </trkpt>
      <trkpt lat="35.024535013362765" lon="-2.824437003582716">
        <ele>167.40000000000001</ele>
        <time>2010-12-26T12:53:55Z</time>
      </trkpt>
      <trkpt lat="35.024150032550097" lon="-2.824694998562336">
        <ele>166</ele>
        <time>2010-12-26T12:54:01Z</time>
      </trkpt>
      <trkpt lat="35.023458022624254" lon="-2.824922986328602">
        <ele>162.59999999999999</ele>
        <time>2010-12-26T12:54:13Z</time>
      </trkpt>
      <trkpt lat="35.023007998242974" lon="-2.824967997148633">
        <ele>159.19999999999999</ele>
        <time>2010-12-26T12:54:20Z</time>
      </trkpt>
      <trkpt lat="35.022362004965544" lon="-2.825081991031766">
        <ele>153.5</ele>
        <time>2010-12-26T12:54:30Z</time>
      </trkpt>
      <trkpt lat="35.022132005542517" lon="-2.825094982981682">
        <ele>151.5</ele>
        <time>2010-12-26T12:54:33Z</time>
      </trkpt>
      <trkpt lat="35.021643005311489" lon="-2.824985012412071">
        <ele>149.59999999999999</ele>
        <time>2010-12-26T12:54:41Z</time>
      </trkpt>
      <trkpt lat="35.020971028134227" lon="-2.825049972161651">
        <ele>150.09999999999999</ele>
        <time>2010-12-26T12:54:52Z</time>
      </trkpt>
      <trkpt lat="35.020498959347606" lon="-2.825148962438107">
        <ele>150.09999999999999</ele>
        <time>2010-12-26T12:54:59Z</time>
      </trkpt>
      <trkpt lat="35.020071985200047" lon="-2.825475018471479">
        <ele>149.59999999999999</ele>
        <time>2010-12-26T12:55:06Z</time>
      </trkpt>
      <trkpt lat="35.01977602019906" lon="-2.825719015672803">
        <ele>148.19999999999999</ele>
        <time>2010-12-26T12:55:12Z</time>
      </trkpt>
      <trkpt lat="35.019701002165675" lon="-2.825846001505852">
        <ele>148.69999999999999</ele>
        <time>2010-12-26T12:55:14Z</time>
      </trkpt>
      <trkpt lat="35.019457004964352" lon="-2.826126040890813">
        <ele>151.09999999999999</ele>
        <time>2010-12-26T12:55:19Z</time>
      </trkpt>
      <trkpt lat="35.019350973889232" lon="-2.826301977038384">
        <ele>152</ele>
        <time>2010-12-26T12:55:22Z</time>
      </trkpt>
      <trkpt lat="35.018932968378067" lon="-2.826711013913155">
        <ele>155.90000000000001</ele>
        <time>2010-12-26T12:55:30Z</time>
      </trkpt>
      <trkpt lat="35.018651001155376" lon="-2.827034974470735">
        <ele>157.80000000000001</ele>
        <time>2010-12-26T12:55:38Z</time>
      </trkpt>
      <trkpt lat="35.018480010330677" lon="-2.827150980010629">
        <ele>158.80000000000001</ele>
        <time>2010-12-26T12:55:42Z</time>
      </trkpt>
      <trkpt lat="35.017818007618189" lon="-2.827447028830648">
        <ele>161.19999999999999</ele>
        <time>2010-12-26T12:55:53Z</time>
      </trkpt>
      <trkpt lat="35.017028013244271" lon="-2.827759003266692">
        <ele>165.5</ele>
        <time>2010-12-26T12:56:05Z</time>
      </trkpt>
      <trkpt lat="35.016289986670017" lon="-2.827955977991223">
        <ele>171.69999999999999</ele>
        <time>2010-12-26T12:56:14Z</time>
      </trkpt>
      <trkpt lat="35.016039032489061" lon="-2.828095033764839">
        <ele>174.09999999999999</ele>
        <time>2010-12-26T12:56:20Z</time>
      </trkpt>
      <trkpt lat="35.015537962317467" lon="-2.828407008200884">
        <ele>178</ele>
        <time>2010-12-26T12:56:27Z</time>
      </trkpt>
      <trkpt lat="35.014929017052054" lon="-2.829098012298346">
        <ele>182.80000000000001</ele>
        <time>2010-12-26T12:56:35Z</time>
      </trkpt>
      <trkpt lat="35.014575971290469" lon="-2.829549964517355">
        <ele>186.19999999999999</ele>
        <time>2010-12-26T12:56:40Z</time>
      </trkpt>
      <trkpt lat="35.014432976022363" lon="-2.829975010827184">
        <ele>188.59999999999999</ele>
        <time>2010-12-26T12:56:44Z</time>
      </trkpt>
      <trkpt lat="35.014248993247747" lon="-2.831767983734608">
        <ele>195.80000000000001</ele>
        <time>2010-12-26T12:56:58Z</time>
      </trkpt>
      <trkpt lat="35.014050006866455" lon="-2.833144962787628">
        <ele>192.90000000000001</ele>
        <time>2010-12-26T12:57:08Z</time>
      </trkpt>
      <trkpt lat="35.013658991083503" lon="-2.834060015156865">
        <ele>191</ele>
        <time>2010-12-26T12:57:15Z</time>
      </trkpt>
      <trkpt lat="35.012988019734621" lon="-2.834755964577198">
        <ele>190</ele>
        <time>2010-12-26T12:57:22Z</time>
      </trkpt>
      <trkpt lat="35.011946987360716" lon="-2.835410004481673">
        <ele>189.5</ele>
        <time>2010-12-26T12:57:32Z</time>
      </trkpt>
      <trkpt lat="35.010727001354098" lon="-2.83596103079617">
        <ele>191.90000000000001</ele>
        <time>2010-12-26T12:57:44Z</time>
      </trkpt>
      <trkpt lat="35.010527009144425" lon="-2.836044011637569">
        <ele>192.40000000000001</ele>
        <time>2010-12-26T12:57:48Z</time>
      </trkpt>
      <trkpt lat="35.010176980867982" lon="-2.835929011926055">
        <ele>194.80000000000001</ele>
        <time>2010-12-26T12:58:02Z</time>
      </trkpt>
      <trkpt lat="35.009599970653653" lon="-2.835413021966815">
        <ele>198.19999999999999</ele>
        <time>2010-12-26T12:58:10Z</time>
      </trkpt>
      <trkpt lat="35.008499007672071" lon="-2.83441498875618">
        <ele>202</ele>
        <time>2010-12-26T12:58:23Z</time>
      </trkpt>
      <trkpt lat="35.007452024146914" lon="-2.833721973001957">
        <ele>202.5</ele>
        <time>2010-12-26T12:58:33Z</time>
      </trkpt>
      <trkpt lat="35.006055012345314" lon="-2.832879004999995">
        <ele>200.59999999999999</ele>
        <time>2010-12-26T12:58:45Z</time>
      </trkpt>
      <trkpt lat="35.004895962774754" lon="-2.832157993689179">
        <ele>192.40000000000001</ele>
        <time>2010-12-26T12:58:53Z</time>
      </trkpt>
      <trkpt lat="35.003546979278326" lon="-2.831335980445147">
        <ele>184.69999999999999</ele>
        <time>2010-12-26T12:59:02Z</time>
      </trkpt>
      <trkpt lat="35.002791015431285" lon="-2.830904982984066">
        <ele>185.69999999999999</ele>
        <time>2010-12-26T12:59:09Z</time>
      </trkpt>
      <trkpt lat="35.002454984933138" lon="-2.830728041008115">
        <ele>187.09999999999999</ele>
        <time>2010-12-26T12:59:14Z</time>
      </trkpt>
      <trkpt lat="35.00230997800827" lon="-2.830401984974742">
        <ele>189</ele>
        <time>2010-12-26T12:59:20Z</time>
      </trkpt>
      <trkpt lat="35.002522962167859" lon="-2.829457009211183">
        <ele>191.40000000000001</ele>
        <time>2010-12-26T12:59:28Z</time>
      </trkpt>
      <trkpt lat="35.002809958532453" lon="-2.82801297493279">
        <ele>195.80000000000001</ele>
        <time>2010-12-26T12:59:37Z</time>
      </trkpt>
      <trkpt lat="35.002828985452652" lon="-2.826433992013335">
        <ele>186.59999999999999</ele>
        <time>2010-12-26T12:59:46Z</time>
      </trkpt>
      <trkpt lat="35.002664029598236" lon="-2.825053995475173">
        <ele>187.59999999999999</ele>
        <time>2010-12-26T12:59:53Z</time>
      </trkpt>
      <trkpt lat="35.002117026597261" lon="-2.822872018441558">
        <ele>199.09999999999999</ele>
        <time>2010-12-26T13:00:04Z</time>
      </trkpt>
      <trkpt lat="35.00192298553884" lon="-2.821421027183533">
        <ele>205.90000000000001</ele>
        <time>2010-12-26T13:00:12Z</time>
      </trkpt>
      <trkpt lat="35.001890966668725" lon="-2.819455973803997">
        <ele>211.09999999999999</ele>
        <time>2010-12-26T13:00:22Z</time>
      </trkpt>
      <trkpt lat="35.001785019412637" lon="-2.815623013302684">
        <ele>236.59999999999999</ele>
        <time>2010-12-26T13:00:41Z</time>
      </trkpt>
      <trkpt lat="35.001871017739177" lon="-2.814035983756185">
        <ele>247.69999999999999</ele>
        <time>2010-12-26T13:00:50Z</time>
      </trkpt>
      <trkpt lat="35.002122977748513" lon="-2.812785990536213">
        <ele>253.90000000000001</ele>
        <time>2010-12-26T13:00:58Z</time>
      </trkpt>
      <trkpt lat="35.002549029886723" lon="-2.811416974291205">
        <ele>256.80000000000001</ele>
        <time>2010-12-26T13:01:06Z</time>
      </trkpt>
      <trkpt lat="35.003085974603891" lon="-2.810263959690929">
        <ele>255.80000000000001</ele>
        <time>2010-12-26T13:01:13Z</time>
      </trkpt>
      <trkpt lat="35.003030989319086" lon="-2.809668006375432">
        <ele>253</ele>
        <time>2010-12-26T13:01:18Z</time>
      </trkpt>
      <trkpt lat="35.002956977114081" lon="-2.809585025534034">
        <ele>252</ele>
        <time>2010-12-26T13:01:19Z</time>
      </trkpt>
      <trkpt lat="35.002249963581562" lon="-2.808834007009864">
        <ele>243.80000000000001</ele>
        <time>2010-12-26T13:01:26Z</time>
      </trkpt>
      <trkpt lat="35.001151012256742" lon="-2.807573033496738">
        <ele>239</ele>
        <time>2010-12-26T13:01:35Z</time>
      </trkpt>
      <trkpt lat="35.000768965110183" lon="-2.806724030524492">
        <ele>240.90000000000001</ele>
        <time>2010-12-26T13:01:40Z</time>
      </trkpt>
      <trkpt lat="35.000537037849426" lon="-2.805620972067118">
        <ele>244.30000000000001</ele>
        <time>2010-12-26T13:01:46Z</time>
      </trkpt>
      <trkpt lat="35.000235959887505" lon="-2.805048990994692">
        <ele>246.69999999999999</ele>
        <time>2010-12-26T13:01:50Z</time>
      </trkpt>
      <trkpt lat="34.999370025470853" lon="-2.804160006344318">
        <ele>250.59999999999999</ele>
        <time>2010-12-26T13:01:59Z</time>
      </trkpt>
      <trkpt lat="34.998609032481909" lon="-2.803299017250538">
        <ele>255.40000000000001</ele>
        <time>2010-12-26T13:02:07Z</time>
      </trkpt>
      <trkpt lat="34.997918028384447" lon="-2.8021249640733">
        <ele>256.80000000000001</ele>
        <time>2010-12-26T13:02:15Z</time>
      </trkpt>
      <trkpt lat="34.996817987412214" lon="-2.800140967592597">
        <ele>267.39999999999998</ele>
        <time>2010-12-26T13:02:28Z</time>
      </trkpt>
      <trkpt lat="34.996027993038297" lon="-2.798887034878135">
        <ele>276</ele>
        <time>2010-12-26T13:02:37Z</time>
      </trkpt>
      <trkpt lat="34.995859013870358" lon="-2.79829602688551">
        <ele>274.10000000000002</ele>
        <time>2010-12-26T13:02:41Z</time>
      </trkpt>
      <trkpt lat="34.995924979448318" lon="-2.797604016959667">
        <ele>269.80000000000001</ele>
        <time>2010-12-26T13:02:46Z</time>
      </trkpt>
      <trkpt lat="34.99620602466166" lon="-2.797337975353003">
        <ele>265.5</ele>
        <time>2010-12-26T13:02:51Z</time>
      </trkpt>
      <trkpt lat="34.996609026566148" lon="-2.797226998955011">
        <ele>260.19999999999999</ele>
        <time>2010-12-26T13:02:59Z</time>
      </trkpt>
      <trkpt lat="34.996961988508701" lon="-2.797148963436484">
        <ele>258.69999999999999</ele>
        <time>2010-12-26T13:03:08Z</time>
      </trkpt>
      <trkpt lat="34.997317967936397" lon="-2.796798013150692">
        <ele>256.80000000000001</ele>
        <time>2010-12-26T13:03:16Z</time>
      </trkpt>
      <trkpt lat="34.997363984584808" lon="-2.796672033146024">
        <ele>257.30000000000001</ele>
        <time>2010-12-26T13:03:18Z</time>
      </trkpt>
      <trkpt lat="34.997513014823198" lon="-2.796495007351041">
        <ele>258.30000000000001</ele>
        <time>2010-12-26T13:03:23Z</time>
      </trkpt>
      <trkpt lat="34.997664978727698" lon="-2.796433987095952">
        <ele>257.80000000000001</ele>
        <time>2010-12-26T13:03:31Z</time>
      </trkpt>
      <trkpt lat="34.997810991480947" lon="-2.796399034559727">
        <ele>257.80000000000001</ele>
        <time>2010-12-26T13:03:38Z</time>
      </trkpt>
      <trkpt lat="34.997642012313008" lon="-2.796490984037519">
        <ele>259.69999999999999</ele>
        <time>2010-12-26T13:03:54Z</time>
      </trkpt>
      <trkpt lat="34.99753799289465" lon="-2.796533983200789">
        <ele>259.19999999999999</ele>
        <time>2010-12-26T13:03:56Z</time>
      </trkpt>
      <trkpt lat="34.997351998463273" lon="-2.796778986230493">
        <ele>258.69999999999999</ele>
        <time>2010-12-26T13:04:01Z</time>
      </trkpt>
      <trkpt lat="34.99702300876379" lon="-2.797172013670206">
        <ele>261.10000000000002</ele>
        <time>2010-12-26T13:04:07Z</time>
      </trkpt>
      <trkpt lat="34.996339967474341" lon="-2.797355996444821">
        <ele>262.60000000000002</ele>
        <time>2010-12-26T13:04:15Z</time>
      </trkpt>
      <trkpt lat="34.995931014418602" lon="-2.797742988914251">
        <ele>267.89999999999998</ele>
        <time>2010-12-26T13:04:21Z</time>
      </trkpt>
      <trkpt lat="34.995902013033628" lon="-2.798365009948611">
        <ele>272.19999999999999</ele>
        <time>2010-12-26T13:04:26Z</time>
      </trkpt>
      <trkpt lat="34.995966972783208" lon="-2.798612024635077">
        <ele>273.19999999999999</ele>
        <time>2010-12-26T13:04:28Z</time>
      </trkpt>
      <trkpt lat="34.996106028556824" lon="-2.799004968255758">
        <ele>275.10000000000002</ele>
        <time>2010-12-26T13:04:32Z</time>
      </trkpt>
      <trkpt lat="34.996074009686708" lon="-2.799182999879122">
        <ele>277</ele>
        <time>2010-12-26T13:04:37Z</time>
      </trkpt>
      <trkpt lat="34.99588399194181" lon="-2.799178976565599">
        <ele>278.89999999999998</ele>
        <time>2010-12-26T13:04:41Z</time>
      </trkpt>
      <trkpt lat="34.995185025036335" lon="-2.799147963523865">
        <ele>282.80000000000001</ele>
        <time>2010-12-26T13:04:52Z</time>
      </trkpt>
      <trkpt lat="34.994527967646718" lon="-2.799175959080458">
        <ele>285.60000000000002</ele>
        <time>2010-12-26T13:05:02Z</time>
      </trkpt>
      <trkpt lat="34.994173999875784" lon="-2.799173025414348">
        <ele>285.60000000000002</ele>
        <time>2010-12-26T13:05:08Z</time>
      </trkpt>
      <trkpt lat="34.993913993239403" lon="-2.799109993502498">
        <ele>283.19999999999999</ele>
        <time>2010-12-26T13:05:12Z</time>
      </trkpt>
      <trkpt lat="34.993302030488849" lon="-2.798818973824382">
        <ele>276</ele>
        <time>2010-12-26T13:05:21Z</time>
      </trkpt>
      <trkpt lat="34.992669029161334" lon="-2.798638008534908">
        <ele>274.10000000000002</ele>
        <time>2010-12-26T13:05:31Z</time>
      </trkpt>
      <trkpt lat="34.992507006973028" lon="-2.798568019643426">
        <ele>273.60000000000002</ele>
        <time>2010-12-26T13:05:35Z</time>
      </trkpt>
      <trkpt lat="34.99212303198874" lon="-2.79836299829185">
        <ele>272.19999999999999</ele>
        <time>2010-12-26T13:05:42Z</time>
      </trkpt>
      <trkpt lat="34.991474021226168" lon="-2.79817096889019">
        <ele>280.80000000000001</ele>
        <time>2010-12-26T13:05:53Z</time>
      </trkpt>
      <trkpt lat="34.991192976012826" lon="-2.798016993328929">
        <ele>283.19999999999999</ele>
        <time>2010-12-26T13:05:58Z</time>
      </trkpt>
      <trkpt lat="34.990903967991471" lon="-2.79799503274262">
        <ele>284.69999999999999</ele>
        <time>2010-12-26T13:06:04Z</time>
      </trkpt>
      <trkpt lat="34.990194020792842" lon="-2.798179015517235">
        <ele>283.19999999999999</ele>
        <time>2010-12-26T13:06:15Z</time>
      </trkpt>
      <trkpt lat="34.989408971741796" lon="-2.798266019672155">
        <ele>283.19999999999999</ele>
        <time>2010-12-26T13:06:26Z</time>
      </trkpt>
      <trkpt lat="34.988434994593263" lon="-2.798452014103532">
        <ele>291.89999999999998</ele>
        <time>2010-12-26T13:06:39Z</time>
      </trkpt>
      <trkpt lat="34.987968038767576" lon="-2.798567013815045">
        <ele>297.69999999999999</ele>
        <time>2010-12-26T13:06:47Z</time>
      </trkpt>
      <trkpt lat="34.987857984378934" lon="-2.798608001321554">
        <ele>298.10000000000002</ele>
        <time>2010-12-26T13:06:49Z</time>
      </trkpt>
      <trkpt lat="34.987510973587632" lon="-2.798441033810377">
        <ele>297.69999999999999</ele>
        <time>2010-12-26T13:06:55Z</time>
      </trkpt>
      <trkpt lat="34.987016022205353" lon="-2.797994026914239">
        <ele>292.39999999999998</ele>
        <time>2010-12-26T13:07:05Z</time>
      </trkpt>
      <trkpt lat="34.986526016145945" lon="-2.797806020826101">
        <ele>292.39999999999998</ele>
        <time>2010-12-26T13:07:15Z</time>
      </trkpt>
      <trkpt lat="34.986417973414063" lon="-2.797778025269508">
        <ele>293.80000000000001</ele>
        <time>2010-12-26T13:07:17Z</time>
      </trkpt>
      <trkpt lat="34.985643988475204" lon="-2.797434031963348">
        <ele>295.30000000000001</ele>
        <time>2010-12-26T13:07:30Z</time>
      </trkpt>
      <trkpt lat="34.985405020415783" lon="-2.797311991453171">
        <ele>295.69999999999999</ele>
        <time>2010-12-26T13:07:34Z</time>
      </trkpt>
      <trkpt lat="34.985149959102273" lon="-2.797277960926294">
        <ele>297.69999999999999</ele>
        <time>2010-12-26T13:07:38Z</time>
      </trkpt>
      <trkpt lat="34.98482096940279" lon="-2.797305034473538">
        <ele>300.10000000000002</ele>
        <time>2010-12-26T13:07:43Z</time>
      </trkpt>
      <trkpt lat="34.984550988301635" lon="-2.797071011736989">
        <ele>300.10000000000002</ele>
        <time>2010-12-26T13:07:49Z</time>
      </trkpt>
      <trkpt lat="34.984334986656904" lon="-2.79668795876205">
        <ele>301</ele>
        <time>2010-12-26T13:07:55Z</time>
      </trkpt>
      <trkpt lat="34.984311014413834" lon="-2.796339020133019">
        <ele>303</ele>
        <time>2010-12-26T13:08:00Z</time>
      </trkpt>
      <trkpt lat="34.984357031062245" lon="-2.796041965484619">
        <ele>304.89999999999998</ele>
        <time>2010-12-26T13:08:04Z</time>
      </trkpt>
      <trkpt lat="34.984353007748723" lon="-2.795739965513349">
        <ele>305.80000000000001</ele>
        <time>2010-12-26T13:08:08Z</time>
      </trkpt>
      <trkpt lat="34.984197020530701" lon="-2.795320032164455">
        <ele>306.80000000000001</ele>
        <time>2010-12-26T13:08:14Z</time>
      </trkpt>
      <trkpt lat="34.983743978664279" lon="-2.794878976419568">
        <ele>306.30000000000001</ele>
        <time>2010-12-26T13:08:24Z</time>
      </trkpt>
      <trkpt lat="34.983181972056627" lon="-2.794404979795218">
        <ele>305.80000000000001</ele>
        <time>2010-12-26T13:08:34Z</time>
      </trkpt>
      <trkpt lat="34.982889024540782" lon="-2.793848002329469">
        <ele>309.69999999999999</ele>
        <time>2010-12-26T13:08:41Z</time>
      </trkpt>
      <trkpt lat="34.982764972373843" lon="-2.793408036231995">
        <ele>311.60000000000002</ele>
        <time>2010-12-26T13:08:46Z</time>
      </trkpt>
      <trkpt lat="34.982532039284706" lon="-2.792420983314514">
        <ele>315.39999999999998</ele>
        <time>2010-12-26T13:08:56Z</time>
      </trkpt>
      <trkpt lat="34.982372028753161" lon="-2.791782030835748">
        <ele>317.39999999999998</ele>
        <time>2010-12-26T13:09:04Z</time>
      </trkpt>
      <trkpt lat="34.982335986569524" lon="-2.791501991450787">
        <ele>319.30000000000001</ele>
        <time>2010-12-26T13:09:09Z</time>
      </trkpt>
      <trkpt lat="34.982186034321785" lon="-2.791488999500871">
        <ele>320.30000000000001</ele>
        <time>2010-12-26T13:09:13Z</time>
      </trkpt>
      <trkpt lat="34.981893002986908" lon="-2.791306022554636">
        <ele>321.19999999999999</ele>
        <time>2010-12-26T13:09:19Z</time>
      </trkpt>
      <trkpt lat="34.981730980798602" lon="-2.791069988161326">
        <ele>321.19999999999999</ele>
        <time>2010-12-26T13:09:23Z</time>
      </trkpt>
      <trkpt lat="34.981549009680748" lon="-2.79086303897202">
        <ele>322.69999999999999</ele>
        <time>2010-12-26T13:09:28Z</time>
      </trkpt>
      <trkpt lat="34.981369972229004" lon="-2.79080000706017">
        <ele>323.60000000000002</ele>
        <time>2010-12-26T13:09:31Z</time>
      </trkpt>
      <trkpt lat="34.980848031118512" lon="-2.79052197933197">
        <ele>324.60000000000002</ele>
        <time>2010-12-26T13:09:40Z</time>
      </trkpt>
      <trkpt lat="34.980322988703847" lon="-2.790009006857872">
        <ele>326</ele>
        <time>2010-12-26T13:09:49Z</time>
      </trkpt>
      <trkpt lat="34.980210000649095" lon="-2.789785964414477">
        <ele>327.5</ele>
        <time>2010-12-26T13:09:52Z</time>
      </trkpt>
      <trkpt lat="34.979784032329917" lon="-2.789308028295636">
        <ele>334.19999999999999</ele>
        <time>2010-12-26T13:10:00Z</time>
      </trkpt>
      <trkpt lat="34.979480020701885" lon="-2.788666980341077">
        <ele>339.5</ele>
        <time>2010-12-26T13:10:09Z</time>
      </trkpt>
      <trkpt lat="34.979399973526597" lon="-2.788423988968134">
        <ele>341.39999999999998</ele>
        <time>2010-12-26T13:10:12Z</time>
      </trkpt>
      <trkpt lat="34.979392010718584" lon="-2.788046970963478">
        <ele>344.80000000000001</ele>
        <time>2010-12-26T13:10:18Z</time>
      </trkpt>
      <trkpt lat="34.979354040697217" lon="-2.787838010117412">
        <ele>345.30000000000001</ele>
        <time>2010-12-26T13:10:21Z</time>
      </trkpt>
      <trkpt lat="34.979409025982022" lon="-2.787477001547813">
        <ele>346.19999999999999</ele>
        <time>2010-12-26T13:10:27Z</time>
      </trkpt>
      <trkpt lat="34.979156982153654" lon="-2.787164021283388">
        <ele>347.69999999999999</ele>
        <time>2010-12-26T13:10:34Z</time>
      </trkpt>
      <trkpt lat="34.979023039340973" lon="-2.786950031295419">
        <ele>348.10000000000002</ele>
        <time>2010-12-26T13:10:39Z</time>
      </trkpt>
      <trkpt lat="34.978773007169366" lon="-2.786564966663718">
        <ele>349.60000000000002</ele>
        <time>2010-12-26T13:10:46Z</time>
      </trkpt>
      <trkpt lat="34.978677034378052" lon="-2.786451978608966">
        <ele>350.5</ele>
        <time>2010-12-26T13:10:48Z</time>
      </trkpt>
      <trkpt lat="34.978198008611798" lon="-2.785764997825027">
        <ele>356.30000000000001</ele>
        <time>2010-12-26T13:10:59Z</time>
      </trkpt>
      <trkpt lat="34.977862983942032" lon="-2.785436008125544">
        <ele>358.69999999999999</ele>
        <time>2010-12-26T13:11:07Z</time>
      </trkpt>
      <trkpt lat="34.97747297398746" lon="-2.785189999267459">
        <ele>362.10000000000002</ele>
        <time>2010-12-26T13:11:15Z</time>
      </trkpt>
      <trkpt lat="34.977134009823203" lon="-2.784896967932582">
        <ele>370.69999999999999</ele>
        <time>2010-12-26T13:11:22Z</time>
      </trkpt>
      <trkpt lat="34.976759003475308" lon="-2.784279976040125">
        <ele>380.80000000000001</ele>
        <time>2010-12-26T13:11:31Z</time>
      </trkpt>
      <trkpt lat="34.976493967697024" lon="-2.783939000219107">
        <ele>377.5</ele>
        <time>2010-12-26T13:11:37Z</time>
      </trkpt>
      <trkpt lat="34.976233039051294" lon="-2.783325025811791">
        <ele>369.80000000000001</ele>
        <time>2010-12-26T13:11:46Z</time>
      </trkpt>
      <trkpt lat="34.97592399828136" lon="-2.782401004806161">
        <ele>356.80000000000001</ele>
        <time>2010-12-26T13:11:59Z</time>
      </trkpt>
      <trkpt lat="34.975736998021603" lon="-2.781460974365473">
        <ele>345.69999999999999</ele>
        <time>2010-12-26T13:12:11Z</time>
      </trkpt>
      <trkpt lat="34.975639013573527" lon="-2.781236004084349">
        <ele>343.30000000000001</ele>
        <time>2010-12-26T13:12:15Z</time>
      </trkpt>
      <trkpt lat="34.975379006937146" lon="-2.781040035188198">
        <ele>342.80000000000001</ele>
        <time>2010-12-26T13:12:22Z</time>
      </trkpt>
      <trkpt lat="34.974811971187592" lon="-2.780710961669684">
        <ele>339</ele>
        <time>2010-12-26T13:12:31Z</time>
      </trkpt>
      <trkpt lat="34.973913012072444" lon="-2.780111990869045">
        <ele>330.80000000000001</ele>
        <time>2010-12-26T13:12:43Z</time>
      </trkpt>
      <trkpt lat="34.973050011321902" lon="-2.779850978404284">
        <ele>328.89999999999998</ele>
        <time>2010-12-26T13:12:53Z</time>
      </trkpt>
      <trkpt lat="34.972672993317246" lon="-2.779570017009974">
        <ele>329.89999999999998</ele>
        <time>2010-12-26T13:12:59Z</time>
      </trkpt>
      <trkpt lat="34.972548019140959" lon="-2.779460968449712">
        <ele>330.39999999999998</ele>
        <time>2010-12-26T13:13:01Z</time>
      </trkpt>
      <trkpt lat="34.971887022256851" lon="-2.779249995946884">
        <ele>331.80000000000001</ele>
        <time>2010-12-26T13:13:10Z</time>
      </trkpt>
      <trkpt lat="34.971652999520302" lon="-2.779185958206654">
        <ele>331.30000000000001</ele>
        <time>2010-12-26T13:13:13Z</time>
      </trkpt>
      <trkpt lat="34.971359968185425" lon="-2.779153017327189">
        <ele>330.80000000000001</ele>
        <time>2010-12-26T13:13:17Z</time>
      </trkpt>
      <trkpt lat="34.970941040664911" lon="-2.778931986540556">
        <ele>328.39999999999998</ele>
        <time>2010-12-26T13:13:23Z</time>
      </trkpt>
      <trkpt lat="34.970203014090657" lon="-2.778351958841085">
        <ele>321.19999999999999</ele>
        <time>2010-12-26T13:13:35Z</time>
      </trkpt>
      <trkpt lat="34.969534976407886" lon="-2.777935964986682">
        <ele>315.39999999999998</ele>
        <time>2010-12-26T13:13:44Z</time>
      </trkpt>
      <trkpt lat="34.969401033595204" lon="-2.777833035215735">
        <ele>314</ele>
        <time>2010-12-26T13:13:46Z</time>
      </trkpt>
      <trkpt lat="34.969055028632283" lon="-2.777746031060815">
        <ele>313.5</ele>
        <time>2010-12-26T13:13:51Z</time>
      </trkpt>
      <trkpt lat="34.968635011464357" lon="-2.77741402387619">
        <ele>310.19999999999999</ele>
        <time>2010-12-26T13:13:58Z</time>
      </trkpt>
      <trkpt lat="34.968439964577556" lon="-2.777429027482867">
        <ele>308.69999999999999</ele>
        <time>2010-12-26T13:14:03Z</time>
      </trkpt>
      <trkpt lat="34.968195967376232" lon="-2.777824988588691">
        <ele>307.30000000000001</ele>
        <time>2010-12-26T13:14:09Z</time>
      </trkpt>
      <trkpt lat="34.967929003760219" lon="-2.77801601216197">
        <ele>306.80000000000001</ele>
        <time>2010-12-26T13:14:13Z</time>
      </trkpt>
      <trkpt lat="34.967682994902134" lon="-2.778134029358625">
        <ele>305.39999999999998</ele>
        <time>2010-12-26T13:14:17Z</time>
      </trkpt>
      <trkpt lat="34.967272030189633" lon="-2.77859402820468">
        <ele>304.89999999999998</ele>
        <time>2010-12-26T13:14:25Z</time>
      </trkpt>
      <trkpt lat="34.967165999114513" lon="-2.778713973239064">
        <ele>304.89999999999998</ele>
        <time>2010-12-26T13:14:27Z</time>
      </trkpt>
      <trkpt lat="34.96700900606811" lon="-2.778959982097149">
        <ele>305.39999999999998</ele>
        <time>2010-12-26T13:14:31Z</time>
      </trkpt>
      <trkpt lat="34.966918984428048" lon="-2.779082022607327">
        <ele>305.39999999999998</ele>
        <time>2010-12-26T13:14:33Z</time>
      </trkpt>
      <trkpt lat="34.966626036912203" lon="-2.779671018943191">
        <ele>304.89999999999998</ele>
        <time>2010-12-26T13:14:42Z</time>
      </trkpt>
      <trkpt lat="34.96629998087883" lon="-2.780108973383904">
        <ele>304.39999999999998</ele>
        <time>2010-12-26T13:14:51Z</time>
      </trkpt>
      <trkpt lat="34.965903013944626" lon="-2.780360011383891">
        <ele>302.5</ele>
        <time>2010-12-26T13:14:57Z</time>
      </trkpt>
      <trkpt lat="34.965443015098572" lon="-2.780662011355162">
        <ele>300.10000000000002</ele>
        <time>2010-12-26T13:15:04Z</time>
      </trkpt>
      <trkpt lat="34.965115031227469" lon="-2.780979014933109">
        <ele>297.19999999999999</ele>
        <time>2010-12-26T13:15:10Z</time>
      </trkpt>
      <trkpt lat="34.964722003787756" lon="-2.781261987984181">
        <ele>293.80000000000001</ele>
        <time>2010-12-26T13:15:17Z</time>
      </trkpt>
      <trkpt lat="34.964619996026158" lon="-2.781456029042602">
        <ele>293.80000000000001</ele>
        <time>2010-12-26T13:15:20Z</time>
      </trkpt>
      <trkpt lat="34.964554030448198" lon="-2.781589971855283">
        <ele>293.30000000000001</ele>
        <time>2010-12-26T13:15:22Z</time>
      </trkpt>
      <trkpt lat="34.964069975540042" lon="-2.782093975692987">
        <ele>293.30000000000001</ele>
        <time>2010-12-26T13:15:30Z</time>
      </trkpt>
      <trkpt lat="34.963496988639235" lon="-2.782835019752383">
        <ele>291.89999999999998</ele>
        <time>2010-12-26T13:15:40Z</time>
      </trkpt>
      <trkpt lat="34.962752005085349" lon="-2.78360296972096">
        <ele>290.5</ele>
        <time>2010-12-26T13:15:51Z</time>
      </trkpt>
      <trkpt lat="34.962244983762503" lon="-2.783981999382377">
        <ele>287.60000000000002</ele>
        <time>2010-12-26T13:15:58Z</time>
      </trkpt>
      <trkpt lat="34.961712984368205" lon="-2.784650959074497">
        <ele>282.30000000000001</ele>
        <time>2010-12-26T13:16:08Z</time>
      </trkpt>
      <trkpt lat="34.961607037112117" lon="-2.784823039546609">
        <ele>281.30000000000001</ele>
        <time>2010-12-26T13:16:10Z</time>
      </trkpt>
      <trkpt lat="34.961147960275412" lon="-2.785369958728552">
        <ele>278.39999999999998</ele>
        <time>2010-12-26T13:16:17Z</time>
      </trkpt>
      <trkpt lat="34.960981998592615" lon="-2.785763991996646">
        <ele>277</ele>
        <time>2010-12-26T13:16:21Z</time>
      </trkpt>
      <trkpt lat="34.960471959784627" lon="-2.786744004115462">
        <ele>272.19999999999999</ele>
        <time>2010-12-26T13:16:30Z</time>
      </trkpt>
      <trkpt lat="34.959986982867122" lon="-2.787655033171177">
        <ele>268.30000000000001</ele>
        <time>2010-12-26T13:16:39Z</time>
      </trkpt>
      <trkpt lat="34.959498988464475" lon="-2.788404040038586">
        <ele>265.89999999999998</ele>
        <time>2010-12-26T13:16:47Z</time>
      </trkpt>
      <trkpt lat="34.959084000438452" lon="-2.789098983630538">
        <ele>263.10000000000002</ele>
        <time>2010-12-26T13:16:55Z</time>
      </trkpt>
      <trkpt lat="34.958856012672186" lon="-2.789572980254889">
        <ele>260.69999999999999</ele>
        <time>2010-12-26T13:17:02Z</time>
      </trkpt>
      <trkpt lat="34.958731960505247" lon="-2.789711030200124">
        <ele>259.69999999999999</ele>
        <time>2010-12-26T13:17:08Z</time>
      </trkpt>
      <trkpt lat="34.958772026002407" lon="-2.790034990757704">
        <ele>258.69999999999999</ele>
        <time>2010-12-26T13:17:13Z</time>
      </trkpt>
      <trkpt lat="34.958689967170358" lon="-2.790273958817124">
        <ele>257.30000000000001</ele>
        <time>2010-12-26T13:17:17Z</time>
      </trkpt>
      <trkpt lat="34.95850196108222" lon="-2.790489038452506">
        <ele>256.80000000000001</ele>
        <time>2010-12-26T13:17:22Z</time>
      </trkpt>
      <trkpt lat="34.958128966391087" lon="-2.791382968425751">
        <ele>254.90000000000001</ele>
        <time>2010-12-26T13:17:34Z</time>
      </trkpt>
      <trkpt lat="34.957676008343697" lon="-2.791833998635411">
        <ele>250.59999999999999</ele>
        <time>2010-12-26T13:17:44Z</time>
      </trkpt>
      <trkpt lat="34.957540975883603" lon="-2.791926031932235">
        <ele>249.59999999999999</ele>
        <time>2010-12-26T13:17:47Z</time>
      </trkpt>
      <trkpt lat="34.957295972853899" lon="-2.792075984179974">
        <ele>247.69999999999999</ele>
        <time>2010-12-26T13:17:52Z</time>
      </trkpt>
      <trkpt lat="34.957089023664594" lon="-2.792350994423032">
        <ele>246.19999999999999</ele>
        <time>2010-12-26T13:17:57Z</time>
      </trkpt>
      <trkpt lat="34.956707982346416" lon="-2.793284989893436">
        <ele>244.30000000000001</ele>
        <time>2010-12-26T13:18:09Z</time>
      </trkpt>
      <trkpt lat="34.956340016797185" lon="-2.794138016179204">
        <ele>240.5</ele>
        <time>2010-12-26T13:18:20Z</time>
      </trkpt>
      <trkpt lat="34.95589803904295" lon="-2.795048961415887">
        <ele>236.09999999999999</ele>
        <time>2010-12-26T13:18:33Z</time>
      </trkpt>
      <trkpt lat="34.955652030184865" lon="-2.795345010235906">
        <ele>235.19999999999999</ele>
        <time>2010-12-26T13:18:39Z</time>
      </trkpt>
      <trkpt lat="34.955516997724771" lon="-2.795545002445579">
        <ele>234.69999999999999</ele>
        <time>2010-12-26T13:18:43Z</time>
      </trkpt>
      <trkpt lat="34.955452959984541" lon="-2.795638963580132">
        <ele>234.69999999999999</ele>
        <time>2010-12-26T13:18:45Z</time>
      </trkpt>
      <trkpt lat="34.955309964716434" lon="-2.795771984383464">
        <ele>233.30000000000001</ele>
        <time>2010-12-26T13:18:49Z</time>
      </trkpt>
      <trkpt lat="34.954860024154186" lon="-2.796261990442872">
        <ele>229.90000000000001</ele>
        <time>2010-12-26T13:19:00Z</time>
      </trkpt>
      <trkpt lat="34.954780982807279" lon="-2.796400040388107">
        <ele>229.40000000000001</ele>
        <time>2010-12-26T13:19:04Z</time>
      </trkpt>
      <trkpt lat="34.954562969505787" lon="-2.796650994569063">
        <ele>228.5</ele>
        <time>2010-12-26T13:19:11Z</time>
      </trkpt>
      <trkpt lat="34.954475965350866" lon="-2.796692987903953">
        <ele>228.5</ele>
        <time>2010-12-26T13:19:13Z</time>
      </trkpt>
      <trkpt lat="34.954172037541866" lon="-2.797034969553351">
        <ele>227</ele>
        <time>2010-12-26T13:19:22Z</time>
      </trkpt>
      <trkpt lat="34.95398998260498" lon="-2.797336969524622">
        <ele>226</ele>
        <time>2010-12-26T13:19:29Z</time>
      </trkpt>
      <trkpt lat="34.953850004822016" lon="-2.797512989491224">
        <ele>225.59999999999999</ele>
        <time>2010-12-26T13:19:33Z</time>
      </trkpt>
      <trkpt lat="34.953166041523218" lon="-2.798021016642451">
        <ele>222.19999999999999</ele>
        <time>2010-12-26T13:19:44Z</time>
      </trkpt>
      <trkpt lat="34.952941993251443" lon="-2.798559973016381">
        <ele>220.80000000000001</ele>
        <time>2010-12-26T13:19:51Z</time>
      </trkpt>
      <trkpt lat="34.952839985489845" lon="-2.79879198409617">
        <ele>220.30000000000001</ele>
        <time>2010-12-26T13:19:54Z</time>
      </trkpt>
      <trkpt lat="34.952692966908216" lon="-2.798997005447745">
        <ele>220.30000000000001</ele>
        <time>2010-12-26T13:19:57Z</time>
      </trkpt>
      <trkpt lat="34.952561035752296" lon="-2.799433032050729">
        <ele>219.30000000000001</ele>
        <time>2010-12-26T13:20:04Z</time>
      </trkpt>
      <trkpt lat="34.952282002195716" lon="-2.799776019528508">
        <ele>219.80000000000001</ele>
        <time>2010-12-26T13:20:12Z</time>
      </trkpt>
      <trkpt lat="34.952082009986043" lon="-2.800157982856035">
        <ele>219.30000000000001</ele>
        <time>2010-12-26T13:20:17Z</time>
      </trkpt>
      <trkpt lat="34.951787972822785" lon="-2.800643965601921">
        <ele>219.30000000000001</ele>
        <time>2010-12-26T13:20:24Z</time>
      </trkpt>
      <trkpt lat="34.951692000031471" lon="-2.800748990848661">
        <ele>219.80000000000001</ele>
        <time>2010-12-26T13:20:26Z</time>
      </trkpt>
      <trkpt lat="34.951089005917311" lon="-2.801172025501728">
        <ele>219.30000000000001</ele>
        <time>2010-12-26T13:20:36Z</time>
      </trkpt>
      <trkpt lat="34.950955985113978" lon="-2.801330024376512">
        <ele>218.40000000000001</ele>
        <time>2010-12-26T13:20:39Z</time>
      </trkpt>
      <trkpt lat="34.950726991519332" lon="-2.801520964130759">
        <ele>217.90000000000001</ele>
        <time>2010-12-26T13:20:43Z</time>
      </trkpt>
      <trkpt lat="34.95022701099515" lon="-2.801761021837592">
        <ele>216.40000000000001</ele>
        <time>2010-12-26T13:20:50Z</time>
      </trkpt>
      <trkpt lat="34.949756031855941" lon="-2.801839979365468">
        <ele>216.40000000000001</ele>
        <time>2010-12-26T13:20:57Z</time>
      </trkpt>
      <trkpt lat="34.949317993596196" lon="-2.802054975181818">
        <ele>216.40000000000001</ele>
        <time>2010-12-26T13:21:04Z</time>
      </trkpt>
      <trkpt lat="34.94919603690505" lon="-2.802179027348757">
        <ele>216.40000000000001</ele>
        <time>2010-12-26T13:21:06Z</time>
      </trkpt>
      <trkpt lat="34.949084976688027" lon="-2.802326967939735">
        <ele>216</ele>
        <time>2010-12-26T13:21:08Z</time>
      </trkpt>
      <trkpt lat="34.948492040857673" lon="-2.802818985655904">
        <ele>211.09999999999999</ele>
        <time>2010-12-26T13:21:17Z</time>
      </trkpt>
      <trkpt lat="34.947638008743525" lon="-2.803587019443512">
        <ele>204.40000000000001</ele>
        <time>2010-12-26T13:21:29Z</time>
      </trkpt>
      <trkpt lat="34.947260990738869" lon="-2.803887007758021">
        <ele>201.09999999999999</ele>
        <time>2010-12-26T13:21:35Z</time>
      </trkpt>
      <trkpt lat="34.946958990767598" lon="-2.804019022732973">
        <ele>199.59999999999999</ele>
        <time>2010-12-26T13:21:40Z</time>
      </trkpt>
      <trkpt lat="34.946577027440071" lon="-2.804016005247831">
        <ele>200.09999999999999</ele>
        <time>2010-12-26T13:21:45Z</time>
      </trkpt>
      <trkpt lat="34.94631702080369" lon="-2.80412002466619">
        <ele>200.59999999999999</ele>
        <time>2010-12-26T13:21:49Z</time>
      </trkpt>
      <trkpt lat="34.945872025564313" lon="-2.804338037967682">
        <ele>202</ele>
        <time>2010-12-26T13:21:55Z</time>
      </trkpt>
      <trkpt lat="34.945239024236798" lon="-2.80480700545013">
        <ele>200.59999999999999</ele>
        <time>2010-12-26T13:22:06Z</time>
      </trkpt>
      <trkpt lat="34.945045989006758" lon="-2.804706003516913">
        <ele>200.59999999999999</ele>
        <time>2010-12-26T13:22:12Z</time>
      </trkpt>
      <trkpt lat="34.944863012060523" lon="-2.803786005824804">
        <ele>196.69999999999999</ele>
        <time>2010-12-26T13:22:21Z</time>
      </trkpt>
      <trkpt lat="34.944582972675562" lon="-2.802456971257925">
        <ele>193.40000000000001</ele>
        <time>2010-12-26T13:22:29Z</time>
      </trkpt>
      <trkpt lat="34.944345010444522" lon="-2.801294988021255">
        <ele>189.5</ele>
        <time>2010-12-26T13:22:37Z</time>
      </trkpt>
      <trkpt lat="34.94410302489996" lon="-2.799964025616646">
        <ele>183.30000000000001</ele>
        <time>2010-12-26T13:22:47Z</time>
      </trkpt>
      <trkpt lat="34.943976039066911" lon="-2.798482021316886">
        <ele>176.09999999999999</ele>
        <time>2010-12-26T13:22:57Z</time>
      </trkpt>
      <trkpt lat="34.943809993565083" lon="-2.797710970044136">
        <ele>173.69999999999999</ele>
        <time>2010-12-26T13:23:03Z</time>
      </trkpt>
      <trkpt lat="34.943648977205157" lon="-2.796972021460533">
        <ele>171.30000000000001</ele>
        <time>2010-12-26T13:23:10Z</time>
      </trkpt>
      <trkpt lat="34.94354403577745" lon="-2.795959990471602">
        <ele>166.90000000000001</ele>
        <time>2010-12-26T13:23:20Z</time>
      </trkpt>
      <trkpt lat="34.943572031334043" lon="-2.795743988826871">
        <ele>166.40000000000001</ele>
        <time>2010-12-26T13:23:23Z</time>
      </trkpt>
      <trkpt lat="34.943549986928701" lon="-2.795494962483645">
        <ele>166</ele>
        <time>2010-12-26T13:23:27Z</time>
      </trkpt>
      <trkpt lat="34.943385031074286" lon="-2.794631961733103">
        <ele>167.90000000000001</ele>
        <time>2010-12-26T13:23:36Z</time>
      </trkpt>
      <trkpt lat="34.94337203912437" lon="-2.793935006484389">
        <ele>168.40000000000001</ele>
        <time>2010-12-26T13:23:43Z</time>
      </trkpt>
      <trkpt lat="34.943251004442573" lon="-2.793547008186579">
        <ele>169.30000000000001</ele>
        <time>2010-12-26T13:23:48Z</time>
      </trkpt>
      <trkpt lat="34.943066015839577" lon="-2.792520979419351">
        <ele>169.80000000000001</ele>
        <time>2010-12-26T13:23:57Z</time>
      </trkpt>
      <trkpt lat="34.943019999191165" lon="-2.792020998895168">
        <ele>168.40000000000001</ele>
        <time>2010-12-26T13:24:03Z</time>
      </trkpt>
      <trkpt lat="34.943151008337736" lon="-2.791559994220734">
        <ele>161.59999999999999</ele>
        <time>2010-12-26T13:24:52Z</time>
      </trkpt>
      <trkpt lat="34.943342031911016" lon="-2.791323959827423">
        <ele>166</ele>
        <time>2010-12-26T13:24:57Z</time>
      </trkpt>
      <trkpt lat="34.943507993593812" lon="-2.790990024805069">
        <ele>166.40000000000001</ele>
        <time>2010-12-26T13:25:02Z</time>
      </trkpt>
      <trkpt lat="34.94367303326726" lon="-2.790203969925642">
        <ele>167.40000000000001</ele>
        <time>2010-12-26T13:25:12Z</time>
      </trkpt>
      <trkpt lat="34.943935973569751" lon="-2.789714969694614">
        <ele>171.30000000000001</ele>
        <time>2010-12-26T13:25:23Z</time>
      </trkpt>
      <trkpt lat="34.94425599463284" lon="-2.789387991651893">
        <ele>182.30000000000001</ele>
        <time>2010-12-26T13:25:35Z</time>
      </trkpt>
      <trkpt lat="34.944626977667212" lon="-2.789174001663923">
        <ele>184.69999999999999</ele>
        <time>2010-12-26T13:25:42Z</time>
      </trkpt>
      <trkpt lat="34.9447709787637" lon="-2.78908297419548">
        <ele>185.19999999999999</ele>
        <time>2010-12-26T13:25:46Z</time>
      </trkpt>
      <trkpt lat="34.944769972935319" lon="-2.788935033604503">
        <ele>183.30000000000001</ele>
        <time>2010-12-26T13:25:50Z</time>
      </trkpt>
      <trkpt lat="34.944696966558695" lon="-2.78873797506094">
        <ele>180.90000000000001</ele>
        <time>2010-12-26T13:25:53Z</time>
      </trkpt>
      <trkpt lat="34.944299999624491" lon="-2.788321981206536">
        <ele>179.40000000000001</ele>
        <time>2010-12-26T13:26:01Z</time>
      </trkpt>
      <trkpt lat="34.944165972992778" lon="-2.788234977051616">
        <ele>180.90000000000001</ele>
        <time>2010-12-26T13:26:03Z</time>
      </trkpt>
      <trkpt lat="34.943905966356397" lon="-2.78803096152842">
        <ele>181.80000000000001</ele>
        <time>2010-12-26T13:26:07Z</time>
      </trkpt>
      <trkpt lat="34.943649983033538" lon="-2.787763997912407">
        <ele>182.30000000000001</ele>
        <time>2010-12-26T13:26:11Z</time>
      </trkpt>
      <trkpt lat="34.943360975012183" lon="-2.787578003481031">
        <ele>182.30000000000001</ele>
        <time>2010-12-26T13:26:15Z</time>
      </trkpt>
      <trkpt lat="34.942693021148443" lon="-2.787334006279707">
        <ele>182.30000000000001</ele>
        <time>2010-12-26T13:26:24Z</time>
      </trkpt>
      <trkpt lat="34.942565029487014" lon="-2.787221018224955">
        <ele>186.59999999999999</ele>
        <time>2010-12-26T13:26:38Z</time>
      </trkpt>
      <trkpt lat="34.942504009231925" lon="-2.786624981090426">
        <ele>185.19999999999999</ele>
        <time>2010-12-26T13:26:46Z</time>
      </trkpt>
      <trkpt lat="34.942393032833934" lon="-2.785703977569938">
        <ele>184.69999999999999</ele>
        <time>2010-12-26T13:26:55Z</time>
      </trkpt>
      <trkpt lat="34.942351039499044" lon="-2.785521000623703">
        <ele>184.19999999999999</ele>
        <time>2010-12-26T13:27:00Z</time>
      </trkpt>
      <trkpt lat="34.94223696179688" lon="-2.785259988158941">
        <ele>188.59999999999999</ele>
        <time>2010-12-26T13:27:40Z</time>
      </trkpt>
      <trkpt lat="34.942068988457322" lon="-2.784602008759975">
        <ele>187.09999999999999</ele>
        <time>2010-12-26T13:27:48Z</time>
      </trkpt>
      <trkpt lat="34.94184703566134" lon="-2.783716963604093">
        <ele>186.59999999999999</ele>
        <time>2010-12-26T13:27:57Z</time>
      </trkpt>
      <trkpt lat="34.941681995987892" lon="-2.78302101418376">
        <ele>185.69999999999999</ele>
        <time>2010-12-26T13:28:05Z</time>
      </trkpt>
      <trkpt lat="34.941467000171542" lon="-2.782629998400807">
        <ele>184.69999999999999</ele>
        <time>2010-12-26T13:28:12Z</time>
      </trkpt>
      <trkpt lat="34.941324004903436" lon="-2.782473005354404">
        <ele>184.69999999999999</ele>
        <time>2010-12-26T13:28:15Z</time>
      </trkpt>
      <trkpt lat="34.941200958564878" lon="-2.782122977077961">
        <ele>185.19999999999999</ele>
        <time>2010-12-26T13:28:20Z</time>
      </trkpt>
      <trkpt lat="34.941252004355192" lon="-2.781787030398846">
        <ele>185.19999999999999</ele>
        <time>2010-12-26T13:28:25Z</time>
      </trkpt>
      <trkpt lat="34.941352000460029" lon="-2.781526017934084">
        <ele>184.69999999999999</ele>
        <time>2010-12-26T13:28:29Z</time>
      </trkpt>
      <trkpt lat="34.941331967711449" lon="-2.780977003276348">
        <ele>183.69999999999999</ele>
        <time>2010-12-26T13:28:35Z</time>
      </trkpt>
      <trkpt lat="34.941111020743847" lon="-2.779896995052695">
        <ele>178.90000000000001</ele>
        <time>2010-12-26T13:28:43Z</time>
      </trkpt>
      <trkpt lat="34.94073199108243" lon="-2.778450027108192">
        <ele>176.5</ele>
        <time>2010-12-26T13:28:55Z</time>
      </trkpt>
      <trkpt lat="34.940427979454398" lon="-2.77737395837903">
        <ele>174.09999999999999</ele>
        <time>2010-12-26T13:29:06Z</time>
      </trkpt>
      <trkpt lat="34.94028196670115" lon="-2.776247011497617">
        <ele>167.90000000000001</ele>
        <time>2010-12-26T13:29:18Z</time>
      </trkpt>
      <trkpt lat="34.940133020281792" lon="-2.775188041850925">
        <ele>162.59999999999999</ele>
        <time>2010-12-26T13:29:28Z</time>
      </trkpt>
      <trkpt lat="34.940011985599995" lon="-2.774004014208913">
        <ele>155.40000000000001</ele>
        <time>2010-12-26T13:29:40Z</time>
      </trkpt>
      <trkpt lat="34.940011985599995" lon="-2.773604029789567">
        <ele>153</ele>
        <time>2010-12-26T13:29:45Z</time>
      </trkpt>
      <trkpt lat="34.939819034188986" lon="-2.772475993260741">
        <ele>153</ele>
        <time>2010-12-26T13:29:57Z</time>
      </trkpt>
      <trkpt lat="34.939610995352268" lon="-2.771525988355279">
        <ele>153</ele>
        <time>2010-12-26T13:30:07Z</time>
      </trkpt>
      <trkpt lat="34.9396369792521" lon="-2.771009998396039">
        <ele>152.5</ele>
        <time>2010-12-26T13:30:14Z</time>
      </trkpt>
      <trkpt lat="34.939558021724224" lon="-2.770951995626092">
        <ele>151.09999999999999</ele>
        <time>2010-12-26T13:30:16Z</time>
      </trkpt>
      <trkpt lat="34.939366998150945" lon="-2.770664999261499">
        <ele>151.5</ele>
        <time>2010-12-26T13:30:21Z</time>
      </trkpt>
      <trkpt lat="34.939107997342944" lon="-2.769460016861558">
        <ele>159.69999999999999</ele>
        <time>2010-12-26T13:30:32Z</time>
      </trkpt>
      <trkpt lat="34.938844973221421" lon="-2.768268026411533">
        <ele>166.40000000000001</ele>
        <time>2010-12-26T13:30:41Z</time>
      </trkpt>
      <trkpt lat="34.938567029312253" lon="-2.766966987401247">
        <ele>170.30000000000001</ele>
        <time>2010-12-26T13:30:52Z</time>
      </trkpt>
      <trkpt lat="34.938414981588721" lon="-2.766039026901126">
        <ele>168.40000000000001</ele>
        <time>2010-12-26T13:31:02Z</time>
      </trkpt>
      <trkpt lat="34.93834599852562" lon="-2.765590008348227">
        <ele>168.80000000000001</ele>
        <time>2010-12-26T13:31:07Z</time>
      </trkpt>
      <trkpt lat="34.938474996015429" lon="-2.764663975685835">
        <ele>166.90000000000001</ele>
        <time>2010-12-26T13:31:17Z</time>
      </trkpt>
      <trkpt lat="34.938658978790045" lon="-2.763582961633802">
        <ele>162.59999999999999</ele>
        <time>2010-12-26T13:31:29Z</time>
      </trkpt>
      <trkpt lat="34.938787976279855" lon="-2.762432964518666">
        <ele>156.40000000000001</ele>
        <time>2010-12-26T13:31:41Z</time>
      </trkpt>
      <trkpt lat="34.938936000689864" lon="-2.760991025716066">
        <ele>149.09999999999999</ele>
        <time>2010-12-26T13:31:56Z</time>
      </trkpt>
      <trkpt lat="34.939019987359643" lon="-2.76052700355649">
        <ele>147.19999999999999</ele>
        <time>2010-12-26T13:32:03Z</time>
      </trkpt>
      <trkpt lat="34.93907799012959" lon="-2.760243024677038">
        <ele>152</ele>
        <time>2010-12-26T13:32:09Z</time>
      </trkpt>
      <trkpt lat="34.93890599347651" lon="-2.759973965585232">
        <ele>145.30000000000001</ele>
        <time>2010-12-26T13:32:16Z</time>
      </trkpt>
      <trkpt lat="34.938254971057177" lon="-2.759849997237325">
        <ele>128</ele>
        <time>2010-12-26T13:32:28Z</time>
      </trkpt>
      <trkpt lat="34.93778700940311" lon="-2.759513966739178">
        <ele>124.59999999999999</ele>
        <time>2010-12-26T13:32:37Z</time>
      </trkpt>
      <trkpt lat="34.937697993591428" lon="-2.759415982291102">
        <ele>123.7</ele>
        <time>2010-12-26T13:32:39Z</time>
      </trkpt>
      <trkpt lat="34.937476962804794" lon="-2.759311962872744">
        <ele>121.3</ele>
        <time>2010-12-26T13:32:43Z</time>
      </trkpt>
      <trkpt lat="34.93731502443552" lon="-2.759192017838359">
        <ele>119.8</ele>
        <time>2010-12-26T13:32:49Z</time>
      </trkpt>
      <trkpt lat="34.937305971980095" lon="-2.759053967893124">
        <ele>120.8</ele>
        <time>2010-12-26T13:32:53Z</time>
      </trkpt>
      <trkpt lat="34.937331033870578" lon="-2.758818017318845">
        <ele>120.3</ele>
        <time>2010-12-26T13:32:57Z</time>
      </trkpt>
      <trkpt lat="34.937263978645205" lon="-2.758534960448742">
        <ele>119.8</ele>
        <time>2010-12-26T13:33:02Z</time>
      </trkpt>
      <trkpt lat="34.936742037534714" lon="-2.757709007710218">
        <ele>114.5</ele>
        <time>2010-12-26T13:33:15Z</time>
      </trkpt>
      <trkpt lat="34.936270974576473" lon="-2.757115988060832">
        <ele>105.90000000000001</ele>
        <time>2010-12-26T13:33:24Z</time>
      </trkpt>
      <trkpt lat="34.935692036524415" lon="-2.756532020866871">
        <ele>95.799999999999997</ele>
        <time>2010-12-26T13:33:35Z</time>
      </trkpt>
      <trkpt lat="34.935592962428927" lon="-2.756434036418796">
        <ele>94.299999999999997</ele>
        <time>2010-12-26T13:33:37Z</time>
      </trkpt>
      <trkpt lat="34.935432029888034" lon="-2.756132036447525">
        <ele>91.5</ele>
        <time>2010-12-26T13:33:43Z</time>
      </trkpt>
      <trkpt lat="34.935390036553144" lon="-2.755783013999462">
        <ele>92.900000000000006</ele>
        <time>2010-12-26T13:33:52Z</time>
      </trkpt>
      <trkpt lat="34.935321975499392" lon="-2.75562996044755">
        <ele>96.299999999999997</ele>
        <time>2010-12-26T13:33:56Z</time>
      </trkpt>
      <trkpt lat="34.934997009113431" lon="-2.754838038235903">
        <ele>104.40000000000001</ele>
        <time>2010-12-26T13:34:12Z</time>
      </trkpt>
      <trkpt lat="34.934574980288744" lon="-2.753998003900051">
        <ele>113.09999999999999</ele>
        <time>2010-12-26T13:34:22Z</time>
      </trkpt>
      <trkpt lat="34.934312039986253" lon="-2.753605982288718">
        <ele>108.8</ele>
        <time>2010-12-26T13:34:27Z</time>
      </trkpt>
      <trkpt lat="34.934014985337853" lon="-2.753314962610602">
        <ele>104.40000000000001</ele>
        <time>2010-12-26T13:34:32Z</time>
      </trkpt>
      <trkpt lat="34.933541994541883" lon="-2.752757985144854">
        <ele>94.799999999999997</ele>
        <time>2010-12-26T13:34:41Z</time>
      </trkpt>
      <trkpt lat="34.933382989838719" lon="-2.752500995993614">
        <ele>93.400000000000006</ele>
        <time>2010-12-26T13:34:46Z</time>
      </trkpt>
      <trkpt lat="34.933190960437059" lon="-2.75171997025609">
        <ele>91.900000000000006</ele>
        <time>2010-12-26T13:34:55Z</time>
      </trkpt>
      <trkpt lat="34.93314603343606" lon="-2.751601031050086">
        <ele>92.400000000000006</ele>
        <time>2010-12-26T13:34:57Z</time>
      </trkpt>
      <trkpt lat="34.933004966005683" lon="-2.751421993598342">
        <ele>92.400000000000006</ele>
        <time>2010-12-26T13:35:01Z</time>
      </trkpt>
      <trkpt lat="34.932686034590006" lon="-2.751113958656788">
        <ele>88.599999999999994</ele>
        <time>2010-12-26T13:35:07Z</time>
      </trkpt>
      <trkpt lat="34.932541027665138" lon="-2.75094497948885">
        <ele>87.599999999999994</ele>
        <time>2010-12-26T13:35:11Z</time>
      </trkpt>
      <trkpt lat="34.932286972180009" lon="-2.750530997291207">
        <ele>86.200000000000003</ele>
        <time>2010-12-26T13:35:20Z</time>
      </trkpt>
      <trkpt lat="34.932264005765319" lon="-2.750381967052817">
        <ele>91.900000000000006</ele>
        <time>2010-12-26T13:35:50Z</time>
      </trkpt>
      <trkpt lat="34.932500040158629" lon="-2.75002003647387">
        <ele>95.299999999999997</ele>
        <time>2010-12-26T13:35:58Z</time>
      </trkpt>
      <trkpt lat="34.932728027924895" lon="-2.749716024845839">
        <ele>100.09999999999999</ele>
        <time>2010-12-26T13:36:06Z</time>
      </trkpt>
      <trkpt lat="34.933018041774631" lon="-2.749316962435842">
        <ele>104.40000000000001</ele>
        <time>2010-12-26T13:36:12Z</time>
      </trkpt>
      <trkpt lat="34.933073027059436" lon="-2.748832991346717">
        <ele>107.3</ele>
        <time>2010-12-26T13:36:18Z</time>
      </trkpt>
      <trkpt lat="34.93301996961236" lon="-2.748639034107328">
        <ele>107.3</ele>
        <time>2010-12-26T13:36:20Z</time>
      </trkpt>
      <trkpt lat="34.932594001293182" lon="-2.747748959809542">
        <ele>107.8</ele>
        <time>2010-12-26T13:36:27Z</time>
      </trkpt>
      <trkpt lat="34.931859998032451" lon="-2.746278019621968">
        <ele>106.40000000000001</ele>
        <time>2010-12-26T13:36:36Z</time>
      </trkpt>
      <trkpt lat="34.93074000813067" lon="-2.743997974321246">
        <ele>103</ele>
        <time>2010-12-26T13:36:49Z</time>
      </trkpt>
      <trkpt lat="34.930217983201146" lon="-2.742941016331315">
        <ele>102.5</ele>
        <time>2010-12-26T13:36:56Z</time>
      </trkpt>
      <trkpt lat="34.930122010409832" lon="-2.742746975272894">
        <ele>102.5</ele>
        <time>2010-12-26T13:36:58Z</time>
      </trkpt>
      <trkpt lat="34.930061995983124" lon="-2.742148004472256">
        <ele>102.5</ele>
        <time>2010-12-26T13:37:04Z</time>
      </trkpt>
      <trkpt lat="34.930121004581451" lon="-2.741812979802489">
        <ele>102.5</ele>
        <time>2010-12-26T13:37:07Z</time>
      </trkpt>
      <trkpt lat="34.930122010409832" lon="-2.740730037912726">
        <ele>104.40000000000001</ele>
        <time>2010-12-26T13:37:15Z</time>
      </trkpt>
      <trkpt lat="34.93009502068162" lon="-2.739849016070366">
        <ele>104.90000000000001</ele>
        <time>2010-12-26T13:37:22Z</time>
      </trkpt>
      <trkpt lat="34.93007498793304" lon="-2.739656986668706">
        <ele>106.8</ele>
        <time>2010-12-26T13:37:25Z</time>
      </trkpt>
      <trkpt lat="34.930089991539717" lon="-2.739347023889422">
        <ele>108.8</ele>
        <time>2010-12-26T13:37:30Z</time>
      </trkpt>
      <trkpt lat="34.930056966841221" lon="-2.738452004268765">
        <ele>111.2</ele>
        <time>2010-12-26T13:37:39Z</time>
      </trkpt>
      <trkpt lat="34.930169032886624" lon="-2.73745397105813">
        <ele>112.09999999999999</ele>
        <time>2010-12-26T13:37:49Z</time>
      </trkpt>
      <trkpt lat="34.930501040071249" lon="-2.736096018925309">
        <ele>116</ele>
        <time>2010-12-26T13:38:02Z</time>
      </trkpt>
      <trkpt lat="34.930556025356054" lon="-2.735823020339012">
        <ele>116.90000000000001</ele>
        <time>2010-12-26T13:38:05Z</time>
      </trkpt>
      <trkpt lat="34.930451000109315" lon="-2.735494030639529">
        <ele>119.3</ele>
        <time>2010-12-26T13:38:11Z</time>
      </trkpt>
      <trkpt lat="34.929913971573114" lon="-2.735578017309308">
        <ele>114.5</ele>
        <time>2010-12-26T13:38:20Z</time>
      </trkpt>
      <trkpt lat="34.929020963609219" lon="-2.735719000920653">
        <ele>110.2</ele>
        <time>2010-12-26T13:38:31Z</time>
      </trkpt>
      <trkpt lat="34.928892971947789" lon="-2.735749008134008">
        <ele>109.7</ele>
        <time>2010-12-26T13:38:33Z</time>
      </trkpt>
      <trkpt lat="34.928242033347487" lon="-2.735641971230507">
        <ele>106.8</ele>
        <time>2010-12-26T13:38:42Z</time>
      </trkpt>
      <trkpt lat="34.927533008158207" lon="-2.735514985397458">
        <ele>103.5</ele>
        <time>2010-12-26T13:38:53Z</time>
      </trkpt>
      <trkpt lat="34.926865976303816" lon="-2.735394034534693">
        <ele>100.59999999999999</ele>
        <time>2010-12-26T13:39:04Z</time>
      </trkpt>
      <trkpt lat="34.926311010494828" lon="-2.735077030956745">
        <ele>97.200000000000003</ele>
        <time>2010-12-26T13:39:14Z</time>
      </trkpt>
      <trkpt lat="34.925770964473486" lon="-2.734747035428882">
        <ele>91.5</ele>
        <time>2010-12-26T13:39:23Z</time>
      </trkpt>
      <trkpt lat="34.924937970936298" lon="-2.734236996620894">
        <ele>89.5</ele>
        <time>2010-12-26T13:39:35Z</time>
      </trkpt>
      <trkpt lat="34.924197010695934" lon="-2.733796024695039">
        <ele>88.599999999999994</ele>
        <time>2010-12-26T13:39:46Z</time>
      </trkpt>
      <trkpt lat="34.923545988276601" lon="-2.733398973941803">
        <ele>86.700000000000003</ele>
        <time>2010-12-26T13:39:58Z</time>
      </trkpt>
      <trkpt lat="34.923042990267277" lon="-2.733129998669028">
        <ele>80.900000000000006</ele>
        <time>2010-12-26T13:40:07Z</time>
      </trkpt>
      <trkpt lat="34.922509985044599" lon="-2.732860017567873">
        <ele>73.700000000000003</ele>
        <time>2010-12-26T13:40:16Z</time>
      </trkpt>
      <trkpt lat="34.921769024804235" lon="-2.732482999563217">
        <ele>65</ele>
        <time>2010-12-26T13:40:28Z</time>
      </trkpt>
      <trkpt lat="34.921043990179896" lon="-2.732136994600296">
        <ele>61.200000000000003</ele>
        <time>2010-12-26T13:40:40Z</time>
      </trkpt>
      <trkpt lat="34.920732015743852" lon="-2.731958040967584">
        <ele>60.200000000000003</ele>
        <time>2010-12-26T13:40:45Z</time>
      </trkpt>
      <trkpt lat="34.920562030747533" lon="-2.73184304125607">
        <ele>59.299999999999997</ele>
        <time>2010-12-26T13:40:48Z</time>
      </trkpt>
      <trkpt lat="34.920097002759576" lon="-2.73167297244072">
        <ele>60.700000000000003</ele>
        <time>2010-12-26T13:40:55Z</time>
      </trkpt>
      <trkpt lat="34.919395018368959" lon="-2.731473986059427">
        <ele>68.900000000000006</ele>
        <time>2010-12-26T13:41:06Z</time>
      </trkpt>
      <trkpt lat="34.918733015656471" lon="-2.731282962486148">
        <ele>73.700000000000003</ele>
        <time>2010-12-26T13:41:16Z</time>
      </trkpt>
      <trkpt lat="34.91780698299408" lon="-2.730882978066802">
        <ele>76.099999999999994</ele>
        <time>2010-12-26T13:41:27Z</time>
      </trkpt>
      <trkpt lat="34.916869970038533" lon="-2.730371011421084">
        <ele>74.599999999999994</ele>
        <time>2010-12-26T13:41:38Z</time>
      </trkpt>
      <trkpt lat="34.915497014299035" lon="-2.729636002331972">
        <ele>73.200000000000003</ele>
        <time>2010-12-26T13:41:53Z</time>
      </trkpt>
      <trkpt lat="34.914302006363869" lon="-2.729001995176077">
        <ele>66</ele>
        <time>2010-12-26T13:42:07Z</time>
      </trkpt>
      <trkpt lat="34.913663975894451" lon="-2.728340998291969">
        <ele>56.399999999999999</ele>
        <time>2010-12-26T13:42:17Z</time>
      </trkpt>
      <trkpt lat="34.913055030629039" lon="-2.727730041369796">
        <ele>46.799999999999997</ele>
        <time>2010-12-26T13:42:28Z</time>
      </trkpt>
      <trkpt lat="34.912367966026068" lon="-2.727014981210232">
        <ele>37.600000000000001</ele>
        <time>2010-12-26T13:42:41Z</time>
      </trkpt>
      <trkpt lat="34.911618959158659" lon="-2.726223981007934">
        <ele>27.100000000000001</ele>
        <time>2010-12-26T13:42:55Z</time>
      </trkpt>
      <trkpt lat="34.911431958898902" lon="-2.7260219771415">
        <ele>24.699999999999999</ele>
        <time>2010-12-26T13:42:59Z</time>
      </trkpt>
      <trkpt lat="34.910856960341334" lon="-2.725453013554215">
        <ele>17.399999999999999</ele>
        <time>2010-12-26T13:43:10Z</time>
      </trkpt>
      <trkpt lat="34.910186994820833" lon="-2.724768966436386">
        <ele>19.399999999999999</ele>
        <time>2010-12-26T13:43:21Z</time>
      </trkpt>
      <trkpt lat="34.909676034003496" lon="-2.724058013409376">
        <ele>22.699999999999999</ele>
        <time>2010-12-26T13:43:31Z</time>
      </trkpt>
      <trkpt lat="34.90912601351738" lon="-2.723200041800737">
        <ele>25.600000000000001</ele>
        <time>2010-12-26T13:43:44Z</time>
      </trkpt>
      <trkpt lat="34.908598037436604" lon="-2.722462015226483">
        <ele>58.299999999999997</ele>
        <time>2010-12-26T13:43:55Z</time>
      </trkpt>
      <trkpt lat="34.908364014700055" lon="-2.722121961414814">
        <ele>71.299999999999997</ele>
        <time>2010-12-26T13:44:00Z</time>
      </trkpt>
      <trkpt lat="34.908167961984873" lon="-2.721494995057583">
        <ele>83.799999999999997</ele>
        <time>2010-12-26T13:44:07Z</time>
      </trkpt>
      <trkpt lat="34.907976016402245" lon="-2.720582960173488">
        <ele>89.099999999999994</ele>
        <time>2010-12-26T13:44:17Z</time>
      </trkpt>
      <trkpt lat="34.907792033627629" lon="-2.719805035740137">
        <ele>94.799999999999997</ele>
        <time>2010-12-26T13:44:28Z</time>
      </trkpt>
      <trkpt lat="34.90766697563231" lon="-2.719391975551844">
        <ele>99.599999999999994</ele>
        <time>2010-12-26T13:44:35Z</time>
      </trkpt>
      <trkpt lat="34.907351983711123" lon="-2.71927303634584">
        <ele>95.799999999999997</ele>
        <time>2010-12-26T13:44:44Z</time>
      </trkpt>
      <trkpt lat="34.906944036483765" lon="-2.719142027199268">
        <ele>92.900000000000006</ele>
        <time>2010-12-26T13:44:54Z</time>
      </trkpt>
      <trkpt lat="34.906607000157237" lon="-2.718998026102781">
        <ele>89.5</ele>
        <time>2010-12-26T13:45:04Z</time>
      </trkpt>
      <trkpt lat="34.906255966052413" lon="-2.718871962279081">
        <ele>82.799999999999997</ele>
        <time>2010-12-26T13:45:13Z</time>
      </trkpt>
      <trkpt lat="34.906061002984643" lon="-2.718786969780922">
        <ele>79.400000000000006</ele>
        <time>2010-12-26T13:45:17Z</time>
      </trkpt>
      <trkpt lat="34.905908033251762" lon="-2.7187380194664">
        <ele>77</ele>
        <time>2010-12-26T13:45:20Z</time>
      </trkpt>
      <trkpt lat="34.905436970293522" lon="-2.718509025871754">
        <ele>71.299999999999997</ele>
        <time>2010-12-26T13:45:29Z</time>
      </trkpt>
      <trkpt lat="34.905114015564322" lon="-2.71839695982635">
        <ele>66.900000000000006</ele>
        <time>2010-12-26T13:45:36Z</time>
      </trkpt>
      <trkpt lat="34.904560977593064" lon="-2.718219012022018">
        <ele>62.600000000000001</ele>
        <time>2010-12-26T13:45:45Z</time>
      </trkpt>
      <trkpt lat="34.903815994039178" lon="-2.717957999557257">
        <ele>57.799999999999997</ele>
        <time>2010-12-26T13:45:56Z</time>
      </trkpt>
      <trkpt lat="34.903302015736699" lon="-2.717761024832726">
        <ele>54</ele>
        <time>2010-12-26T13:46:06Z</time>
      </trkpt>
      <trkpt lat="34.902991969138384" lon="-2.717971997335553">
        <ele>53.5</ele>
        <time>2010-12-26T13:46:15Z</time>
      </trkpt>
      <trkpt lat="34.902221001684666" lon="-2.717481991276145">
        <ele>47.200000000000003</ele>
        <time>2010-12-26T13:46:28Z</time>
      </trkpt>
      <trkpt lat="34.901568973436952" lon="-2.717237994074822">
        <ele>45.799999999999997</ele>
        <time>2010-12-26T13:46:37Z</time>
      </trkpt>
      <trkpt lat="34.901111992076039" lon="-2.717446032911539">
        <ele>47.200000000000003</ele>
        <time>2010-12-26T13:46:44Z</time>
      </trkpt>
      <trkpt lat="34.900444960221648" lon="-2.71783503703773">
        <ele>48.200000000000003</ele>
        <time>2010-12-26T13:46:54Z</time>
      </trkpt>
      <trkpt lat="34.900070959702134" lon="-2.717898990958929">
        <ele>49.200000000000003</ele>
        <time>2010-12-26T13:46:59Z</time>
      </trkpt>
      <trkpt lat="34.899874990805984" lon="-2.717882981523871">
        <ele>49.600000000000001</ele>
        <time>2010-12-26T13:47:02Z</time>
      </trkpt>
      <trkpt lat="34.899670975282788" lon="-2.717743003740907">
        <ele>46.799999999999997</ele>
        <time>2010-12-26T13:47:06Z</time>
      </trkpt>
      <trkpt lat="34.899173006415367" lon="-2.717264983803034">
        <ele>42</ele>
        <time>2010-12-26T13:47:15Z</time>
      </trkpt>
      <trkpt lat="34.898790037259459" lon="-2.716941023245454">
        <ele>43.899999999999999</ele>
        <time>2010-12-26T13:47:21Z</time>
      </trkpt>
      <trkpt lat="34.897982021793723" lon="-2.716048015281558">
        <ele>41</ele>
        <time>2010-12-26T13:47:34Z</time>
      </trkpt>
      <trkpt lat="34.897413980215788" lon="-2.715424988418818">
        <ele>42.899999999999999</ele>
        <time>2010-12-26T13:47:43Z</time>
      </trkpt>
      <trkpt lat="34.896672014147043" lon="-2.714758962392807">
        <ele>43.899999999999999</ele>
        <time>2010-12-26T13:47:54Z</time>
      </trkpt>
      <trkpt lat="34.896242022514343" lon="-2.714215982705355">
        <ele>37.100000000000001</ele>
        <time>2010-12-26T13:48:04Z</time>
      </trkpt>
      <trkpt lat="34.896158035844564" lon="-2.714117998257279">
        <ele>37.100000000000001</ele>
        <time>2010-12-26T13:48:06Z</time>
      </trkpt>
      <trkpt lat="34.895498966798186" lon="-2.713709967210889">
        <ele>38.100000000000001</ele>
        <time>2010-12-26T13:48:16Z</time>
      </trkpt>
      <trkpt lat="34.894661027938128" lon="-2.713157013058662">
        <ele>40.5</ele>
        <time>2010-12-26T13:48:30Z</time>
      </trkpt>
      <trkpt lat="34.894016962498426" lon="-2.712987028062344">
        <ele>58.799999999999997</ele>
        <time>2010-12-26T13:48:39Z</time>
      </trkpt>
      <trkpt lat="34.893740024417639" lon="-2.712913015857339">
        <ele>64.5</ele>
        <time>2010-12-26T13:48:43Z</time>
      </trkpt>
      <trkpt lat="34.893196960911155" lon="-2.7125299628824">
        <ele>76.099999999999994</ele>
        <time>2010-12-26T13:48:52Z</time>
      </trkpt>
      <trkpt lat="34.89297098480165" lon="-2.712311027571559">
        <ele>79.400000000000006</ele>
        <time>2010-12-26T13:48:56Z</time>
      </trkpt>
      <trkpt lat="34.892840981483459" lon="-2.712117992341518">
        <ele>81.799999999999997</ele>
        <time>2010-12-26T13:48:59Z</time>
      </trkpt>
      <trkpt lat="34.892523977905512" lon="-2.712070969864726">
        <ele>82.299999999999997</ele>
        <time>2010-12-26T13:49:06Z</time>
      </trkpt>
      <trkpt lat="34.892409984022379" lon="-2.712008021771908">
        <ele>82.299999999999997</ele>
        <time>2010-12-26T13:49:08Z</time>
      </trkpt>
      <trkpt lat="34.891666006296873" lon="-2.711417013779283">
        <ele>75.599999999999994</ele>
        <time>2010-12-26T13:49:22Z</time>
      </trkpt>
      <trkpt lat="34.891183041036129" lon="-2.71117402240634">
        <ele>76.099999999999994</ele>
        <time>2010-12-26T13:49:31Z</time>
      </trkpt>
      <trkpt lat="34.891002997756004" lon="-2.711033960804343">
        <ele>75.599999999999994</ele>
        <time>2010-12-26T13:49:35Z</time>
      </trkpt>
      <trkpt lat="34.890449959784746" lon="-2.710850983858109">
        <ele>72.700000000000003</ele>
        <time>2010-12-26T13:49:46Z</time>
      </trkpt>
      <trkpt lat="34.890021979808807" lon="-2.710717963054776">
        <ele>70.799999999999997</ele>
        <time>2010-12-26T13:49:54Z</time>
      </trkpt>
      <trkpt lat="34.889591988176107" lon="-2.710469020530582">
        <ele>68.900000000000006</ele>
        <time>2010-12-26T13:50:04Z</time>
      </trkpt>
      <trkpt lat="34.889419991523027" lon="-2.710279002785683">
        <ele>66.5</ele>
        <time>2010-12-26T13:50:09Z</time>
      </trkpt>
      <trkpt lat="34.889182029291987" lon="-2.709764018654823">
        <ele>64.099999999999994</ele>
        <time>2010-12-26T13:50:20Z</time>
      </trkpt>
      <trkpt lat="34.889127966016531" lon="-2.709638960659504">
        <ele>62.100000000000001</ele>
        <time>2010-12-26T13:50:28Z</time>
      </trkpt>
      <trkpt lat="34.889064012095332" lon="-2.70949998870492">
        <ele>62.600000000000001</ele>
        <time>2010-12-26T13:50:37Z</time>
      </trkpt>
      <trkpt lat="34.889027969911695" lon="-2.709382977336645">
        <ele>64.099999999999994</ele>
        <time>2010-12-26T13:50:50Z</time>
      </trkpt>
      <trkpt lat="34.88888799212873" lon="-2.709137974306941">
        <ele>69.799999999999997</ele>
        <time>2010-12-26T13:50:58Z</time>
      </trkpt>
      <trkpt lat="34.888722030445933" lon="-2.709050970152021">
        <ele>68.900000000000006</ele>
        <time>2010-12-26T13:51:02Z</time>
      </trkpt>
      <trkpt lat="34.888217020779848" lon="-2.708655009046197">
        <ele>69.799999999999997</ele>
        <time>2010-12-26T13:51:13Z</time>
      </trkpt>
      <trkpt lat="34.887688960880041" lon="-2.708067018538714">
        <ele>73.200000000000003</ele>
        <time>2010-12-26T13:51:23Z</time>
      </trkpt>
      <trkpt lat="34.887093007564545" lon="-2.707461006939411">
        <ele>76.099999999999994</ele>
        <time>2010-12-26T13:51:33Z</time>
      </trkpt>
      <trkpt lat="34.886556984856725" lon="-2.706661960110068">
        <ele>76.099999999999994</ele>
        <time>2010-12-26T13:51:44Z</time>
      </trkpt>
      <trkpt lat="34.886038983240724" lon="-2.706135995686054">
        <ele>75.099999999999994</ele>
        <time>2010-12-26T13:51:53Z</time>
      </trkpt>
      <trkpt lat="34.885795991867781" lon="-2.705873977392912">
        <ele>76.599999999999994</ele>
        <time>2010-12-26T13:51:57Z</time>
      </trkpt>
      <trkpt lat="34.88542802631855" lon="-2.705149026587606">
        <ele>84.700000000000003</ele>
        <time>2010-12-26T13:52:06Z</time>
      </trkpt>
      <trkpt lat="34.885269021615386" lon="-2.704979963600636">
        <ele>85.700000000000003</ele>
        <time>2010-12-26T13:52:10Z</time>
      </trkpt>
      <trkpt lat="34.885158967226744" lon="-2.704895976930857">
        <ele>85.700000000000003</ele>
        <time>2010-12-26T13:52:12Z</time>
      </trkpt>
      <trkpt lat="34.884730987250805" lon="-2.704710988327861">
        <ele>86.700000000000003</ele>
        <time>2010-12-26T13:52:19Z</time>
      </trkpt>
      <trkpt lat="34.884523032233119" lon="-2.704546032473445">
        <ele>86.700000000000003</ele>
        <time>2010-12-26T13:52:26Z</time>
      </trkpt>
      <trkpt lat="34.884141990914941" lon="-2.704478977248073">
        <ele>86.200000000000003</ele>
        <time>2010-12-26T13:52:33Z</time>
      </trkpt>
      <trkpt lat="34.883789028972387" lon="-2.704461961984634">
        <ele>85.700000000000003</ele>
        <time>2010-12-26T13:52:39Z</time>
      </trkpt>
      <trkpt lat="34.883592976257205" lon="-2.704374035820365">
        <ele>85.200000000000003</ele>
        <time>2010-12-26T13:52:44Z</time>
      </trkpt>
      <trkpt lat="34.883026024326682" lon="-2.703831978142262">
        <ele>84.700000000000003</ele>
        <time>2010-12-26T13:52:54Z</time>
      </trkpt>
      <trkpt lat="34.882557978853583" lon="-2.703374996781349">
        <ele>84.700000000000003</ele>
        <time>2010-12-26T13:53:02Z</time>
      </trkpt>
      <trkpt lat="34.882108038291335" lon="-2.702980963513255">
        <ele>85.700000000000003</ele>
        <time>2010-12-26T13:53:13Z</time>
      </trkpt>
      <trkpt lat="34.88192799501121" lon="-2.702828999608755">
        <ele>85.700000000000003</ele>
        <time>2010-12-26T13:53:21Z</time>
      </trkpt>
      <trkpt lat="34.881792962551117" lon="-2.702155010774732">
        <ele>86.200000000000003</ele>
        <time>2010-12-26T13:53:33Z</time>
      </trkpt>
      <trkpt lat="34.881837973371148" lon="-2.701250016689301">
        <ele>87.599999999999994</ele>
        <time>2010-12-26T13:53:46Z</time>
      </trkpt>
      <trkpt lat="34.881936041638255" lon="-2.700914992019534">
        <ele>89.5</ele>
        <time>2010-12-26T13:53:51Z</time>
      </trkpt>
      <trkpt lat="34.881937969475985" lon="-2.700533028692007">
        <ele>91</ele>
        <time>2010-12-26T13:53:58Z</time>
      </trkpt>
      <trkpt lat="34.881834033876657" lon="-2.700506960973144">
        <ele>89.5</ele>
        <time>2010-12-26T13:54:05Z</time>
      </trkpt>
      <trkpt lat="34.881691038608551" lon="-2.700566975399852">
        <ele>90.5</ele>
        <time>2010-12-26T13:54:18Z</time>
      </trkpt>
      <trkpt lat="34.881567992269993" lon="-2.700429009273648">
        <ele>90.5</ele>
        <time>2010-12-26T13:54:24Z</time>
      </trkpt>
      <trkpt lat="34.881566986441612" lon="-2.699914025142789">
        <ele>89.5</ele>
        <time>2010-12-26T13:54:33Z</time>
      </trkpt>
      <trkpt lat="34.881600011140108" lon="-2.699515968561173">
        <ele>90.5</ele>
        <time>2010-12-26T13:54:40Z</time>
      </trkpt>
      <trkpt lat="34.881452992558479" lon="-2.699244981631637">
        <ele>90.5</ele>
        <time>2010-12-26T13:54:44Z</time>
      </trkpt>
      <trkpt lat="34.88123900257051" lon="-2.69877802580595">
        <ele>91</ele>
        <time>2010-12-26T13:54:50Z</time>
      </trkpt>
      <trkpt lat="34.880891991779208" lon="-2.698109988123179">
        <ele>92.400000000000006</ele>
        <time>2010-12-26T13:54:59Z</time>
      </trkpt>
      <trkpt lat="34.880762994289398" lon="-2.697843024507165">
        <ele>92.900000000000006</ele>
        <time>2010-12-26T13:55:03Z</time>
      </trkpt>
      <trkpt lat="34.880701974034309" lon="-2.697615958750248">
        <ele>92.900000000000006</ele>
        <time>2010-12-26T13:55:06Z</time>
      </trkpt>
      <trkpt lat="34.880572976544499" lon="-2.697272971272469">
        <ele>92.900000000000006</ele>
        <time>2010-12-26T13:55:11Z</time>
      </trkpt>
      <trkpt lat="34.880082970485091" lon="-2.696404019370675">
        <ele>94.299999999999997</ele>
        <time>2010-12-26T13:55:24Z</time>
      </trkpt>
      <trkpt lat="34.879764961078763" lon="-2.695617964491248">
        <ele>92.900000000000006</ele>
        <time>2010-12-26T13:55:34Z</time>
      </trkpt>
      <trkpt lat="34.879266992211342" lon="-2.694644993171096">
        <ele>92.900000000000006</ele>
        <time>2010-12-26T13:55:47Z</time>
      </trkpt>
      <trkpt lat="34.878930961713195" lon="-2.693938985466957">
        <ele>92.900000000000006</ele>
        <time>2010-12-26T13:55:57Z</time>
      </trkpt>
      <trkpt lat="34.878408014774323" lon="-2.693068021908402">
        <ele>92.900000000000006</ele>
        <time>2010-12-26T13:56:08Z</time>
      </trkpt>
      <trkpt lat="34.878069972619414" lon="-2.692317003384233">
        <ele>92.400000000000006</ele>
        <time>2010-12-26T13:56:17Z</time>
      </trkpt>
      <trkpt lat="34.877727990970016" lon="-2.691551987081766">
        <ele>91</ele>
        <time>2010-12-26T13:56:26Z</time>
      </trkpt>
      <trkpt lat="34.87735197879374" lon="-2.690770039334893">
        <ele>89.099999999999994</ele>
        <time>2010-12-26T13:56:35Z</time>
      </trkpt>
      <trkpt lat="34.877097001299262" lon="-2.690350022166967">
        <ele>89.099999999999994</ele>
        <time>2010-12-26T13:56:41Z</time>
      </trkpt>
      <trkpt lat="34.87674999050796" lon="-2.68956103362143">
        <ele>87.099999999999994</ele>
        <time>2010-12-26T13:56:51Z</time>
      </trkpt>
      <trkpt lat="34.876457965001464" lon="-2.688971031457186">
        <ele>87.099999999999994</ele>
        <time>2010-12-26T13:56:59Z</time>
      </trkpt>
      <trkpt lat="34.876338019967079" lon="-2.688705995678902">
        <ele>86.700000000000003</ele>
        <time>2010-12-26T13:57:02Z</time>
      </trkpt>
      <trkpt lat="34.876045994460583" lon="-2.687654988840222">
        <ele>84.299999999999997</ele>
        <time>2010-12-26T13:57:14Z</time>
      </trkpt>
      <trkpt lat="34.87569403834641" lon="-2.687054006382823">
        <ele>85.200000000000003</ele>
        <time>2010-12-26T13:57:22Z</time>
      </trkpt>
      <trkpt lat="34.875497985631227" lon="-2.686729962006211">
        <ele>85.200000000000003</ele>
        <time>2010-12-26T13:57:26Z</time>
      </trkpt>
      <trkpt lat="34.875415004789829" lon="-2.686453023925424">
        <ele>84.299999999999997</ele>
        <time>2010-12-26T13:57:29Z</time>
      </trkpt>
      <trkpt lat="34.875036980956793" lon="-2.685568984597921">
        <ele>82.299999999999997</ele>
        <time>2010-12-26T13:57:39Z</time>
      </trkpt>
      <trkpt lat="34.874644037336111" lon="-2.684786031022668">
        <ele>83.799999999999997</ele>
        <time>2010-12-26T13:57:48Z</time>
      </trkpt>
      <trkpt lat="34.874159982427955" lon="-2.683962006121874">
        <ele>84.700000000000003</ele>
        <time>2010-12-26T13:57:57Z</time>
      </trkpt>
      <trkpt lat="34.874045988544822" lon="-2.6835030131042">
        <ele>84.700000000000003</ele>
        <time>2010-12-26T13:58:03Z</time>
      </trkpt>
      <trkpt lat="34.873596969991922" lon="-2.682612016797066">
        <ele>85.700000000000003</ele>
        <time>2010-12-26T13:58:14Z</time>
      </trkpt>
      <trkpt lat="34.873134959489107" lon="-2.681670980527997">
        <ele>85.700000000000003</ele>
        <time>2010-12-26T13:58:25Z</time>
      </trkpt>
      <trkpt lat="34.872541017830372" lon="-2.680661967024207">
        <ele>84.700000000000003</ele>
        <time>2010-12-26T13:58:38Z</time>
      </trkpt>
      <trkpt lat="34.871952021494508" lon="-2.679810030385852">
        <ele>85.200000000000003</ele>
        <time>2010-12-26T13:58:49Z</time>
      </trkpt>
      <trkpt lat="34.871693020686507" lon="-2.679501995444298">
        <ele>84.700000000000003</ele>
        <time>2010-12-26T13:58:54Z</time>
      </trkpt>
      <trkpt lat="34.871335029602051" lon="-2.679375009611249">
        <ele>84.700000000000003</ele>
        <time>2010-12-26T13:59:01Z</time>
      </trkpt>
      <trkpt lat="34.871282977983356" lon="-2.679265961050987">
        <ele>84.700000000000003</ele>
        <time>2010-12-26T13:59:03Z</time>
      </trkpt>
      <trkpt lat="34.871059013530612" lon="-2.678729016333818">
        <ele>84.299999999999997</ele>
        <time>2010-12-26T13:59:10Z</time>
      </trkpt>
      <trkpt lat="34.870846029371023" lon="-2.678383011370897">
        <ele>84.700000000000003</ele>
        <time>2010-12-26T13:59:15Z</time>
      </trkpt>
      <trkpt lat="34.870635978877544" lon="-2.678115963935852">
        <ele>84.700000000000003</ele>
        <time>2010-12-26T13:59:20Z</time>
      </trkpt>
      <trkpt lat="34.870407991111279" lon="-2.677742969244719">
        <ele>84.299999999999997</ele>
        <time>2010-12-26T13:59:26Z</time>
      </trkpt>
      <trkpt lat="34.870111020281911" lon="-2.6774019934237">
        <ele>83.799999999999997</ele>
        <time>2010-12-26T13:59:32Z</time>
      </trkpt>
      <trkpt lat="34.86968002282083" lon="-2.67671400681138">
        <ele>83.299999999999997</ele>
        <time>2010-12-26T13:59:42Z</time>
      </trkpt>
      <trkpt lat="34.86918699927628" lon="-2.676071031019092">
        <ele>84.700000000000003</ele>
        <time>2010-12-26T13:59:51Z</time>
      </trkpt>
      <trkpt lat="34.869055990129709" lon="-2.675791997462511">
        <ele>84.700000000000003</ele>
        <time>2010-12-26T13:59:58Z</time>
      </trkpt>
      <trkpt lat="34.868797995150089" lon="-2.675537019968033">
        <ele>88.099999999999994</ele>
        <time>2010-12-26T14:00:04Z</time>
      </trkpt>
      <trkpt lat="34.868476968258619" lon="-2.675128988921642">
        <ele>87.099999999999994</ele>
        <time>2010-12-26T14:00:11Z</time>
      </trkpt>
      <trkpt lat="34.868275970220566" lon="-2.674928996711969">
        <ele>87.099999999999994</ele>
        <time>2010-12-26T14:00:15Z</time>
      </trkpt>
      <trkpt lat="34.868167005479336" lon="-2.674614004790783">
        <ele>86.700000000000003</ele>
        <time>2010-12-26T14:00:20Z</time>
      </trkpt>
      <trkpt lat="34.867980005219579" lon="-2.674257019534707">
        <ele>85.700000000000003</ele>
        <time>2010-12-26T14:00:26Z</time>
      </trkpt>
      <trkpt lat="34.867821000516415" lon="-2.674114024266601">
        <ele>85.700000000000003</ele>
        <time>2010-12-26T14:00:30Z</time>
      </trkpt>
      <trkpt lat="34.867631988599896" lon="-2.673921994864941">
        <ele>84.700000000000003</ele>
        <time>2010-12-26T14:00:34Z</time>
      </trkpt>
      <trkpt lat="34.867492010816932" lon="-2.673644972965121">
        <ele>84.299999999999997</ele>
        <time>2010-12-26T14:00:38Z</time>
      </trkpt>
      <trkpt lat="34.867342980578542" lon="-2.673480017110705">
        <ele>84.700000000000003</ele>
        <time>2010-12-26T14:00:42Z</time>
      </trkpt>
      <trkpt lat="34.867236027494073" lon="-2.673412961885333">
        <ele>85.200000000000003</ele>
        <time>2010-12-26T14:00:44Z</time>
      </trkpt>
      <trkpt lat="34.866733029484749" lon="-2.67297400161624">
        <ele>83.299999999999997</ele>
        <time>2010-12-26T14:00:53Z</time>
      </trkpt>
      <trkpt lat="34.866295997053385" lon="-2.672557001933456">
        <ele>81.799999999999997</ele>
        <time>2010-12-26T14:01:01Z</time>
      </trkpt>
      <trkpt lat="34.865742959082127" lon="-2.672043023630977">
        <ele>85.700000000000003</ele>
        <time>2010-12-26T14:01:11Z</time>
      </trkpt>
      <trkpt lat="34.865541039034724" lon="-2.671715961769223">
        <ele>85.200000000000003</ele>
        <time>2010-12-26T14:01:16Z</time>
      </trkpt>
      <trkpt lat="34.865310033783317" lon="-2.671484034508467">
        <ele>84.299999999999997</ele>
        <time>2010-12-26T14:01:20Z</time>
      </trkpt>
      <trkpt lat="34.864792032167315" lon="-2.670916998758912">
        <ele>82.299999999999997</ele>
        <time>2010-12-26T14:01:29Z</time>
      </trkpt>
      <trkpt lat="34.864421971142292" lon="-2.670628996565938">
        <ele>80.900000000000006</ele>
        <time>2010-12-26T14:01:36Z</time>
      </trkpt>
      <trkpt lat="34.864323986694217" lon="-2.670693034306169">
        <ele>81.400000000000006</ele>
        <time>2010-12-26T14:01:43Z</time>
      </trkpt>
      <trkpt lat="34.864195995032787" lon="-2.670781966298819">
        <ele>83.799999999999997</ele>
        <time>2010-12-26T14:01:51Z</time>
      </trkpt>
      <trkpt lat="34.863849990069866" lon="-2.670704014599323">
        <ele>79</ele>
        <time>2010-12-26T14:02:06Z</time>
      </trkpt>
      <trkpt lat="34.863379010930657" lon="-2.670608963817358">
        <ele>70.299999999999997</ele>
        <time>2010-12-26T14:02:23Z</time>
      </trkpt>
      <trkpt lat="34.863124033436179" lon="-2.670478038489819">
        <ele>66.900000000000006</ele>
        <time>2010-12-26T14:02:34Z</time>
      </trkpt>
      <trkpt lat="34.862886993214488" lon="-2.670337976887822">
        <ele>62.600000000000001</ele>
        <time>2010-12-26T14:02:46Z</time>
      </trkpt>
      <trkpt lat="34.862795965746045" lon="-2.670281985774636">
        <ele>67.900000000000006</ele>
        <time>2010-12-26T14:03:25Z</time>
      </trkpt>
      <trkpt lat="34.8627620190382" lon="-2.670394973829389">
        <ele>64.099999999999994</ele>
        <time>2010-12-26T14:03:54Z</time>
      </trkpt>
      <trkpt lat="34.862811975181103" lon="-2.670487007126212">
        <ele>61.700000000000003</ele>
        <time>2010-12-26T14:04:08Z</time>
      </trkpt>
      <trkpt lat="34.862940972670913" lon="-2.670580968260765">
        <ele>62.600000000000001</ele>
        <time>2010-12-26T14:04:52Z</time>
      </trkpt>
      <trkpt lat="34.862823039293289" lon="-2.670429004356265">
        <ele>63.600000000000001</ele>
        <time>2010-12-26T14:06:05Z</time>
      </trkpt>
      <trkpt lat="34.862875007092953" lon="-2.67026798799634">
        <ele>65</ele>
        <time>2010-12-26T14:06:18Z</time>
      </trkpt>
      <trkpt lat="34.862615000456572" lon="-2.670167991891503">
        <ele>62.100000000000001</ele>
        <time>2010-12-26T14:06:50Z</time>
      </trkpt>
      <trkpt lat="34.862336972728372" lon="-2.670120969414711">
        <ele>59.700000000000003</ele>
        <time>2010-12-26T14:07:00Z</time>
      </trkpt>
      <trkpt lat="34.862158019095659" lon="-2.669981997460127">
        <ele>59.299999999999997</ele>
        <time>2010-12-26T14:07:06Z</time>
      </trkpt>
      <trkpt lat="34.861994991078973" lon="-2.669653007760644">
        <ele>57.799999999999997</ele>
        <time>2010-12-26T14:07:13Z</time>
      </trkpt>
      <trkpt lat="34.861879991367459" lon="-2.669520992785692">
        <ele>56.399999999999999</ele>
        <time>2010-12-26T14:07:17Z</time>
      </trkpt>
      <trkpt lat="34.861682010814548" lon="-2.669181022793055">
        <ele>52.5</ele>
        <time>2010-12-26T14:07:26Z</time>
      </trkpt>
      <trkpt lat="34.861612021923065" lon="-2.668974995613098">
        <ele>51.600000000000001</ele>
        <time>2010-12-26T14:07:30Z</time>
      </trkpt>
      <trkpt lat="34.861532980576158" lon="-2.668594960123301">
        <ele>49.200000000000003</ele>
        <time>2010-12-26T14:07:37Z</time>
      </trkpt>
      <trkpt lat="34.861535998061299" lon="-2.668164968490601">
        <ele>46.799999999999997</ele>
        <time>2010-12-26T14:07:47Z</time>
      </trkpt>
      <trkpt lat="34.86155703663826" lon="-2.667964976280928">
        <ele>56.899999999999999</ele>
        <time>2010-12-26T14:07:52Z</time>
      </trkpt>
      <trkpt lat="34.861661978065968" lon="-2.667347984388471">
        <ele>59.700000000000003</ele>
        <time>2010-12-26T14:08:03Z</time>
      </trkpt>
      <trkpt lat="34.861798016354442" lon="-2.667062999680638">
        <ele>61.200000000000003</ele>
        <time>2010-12-26T14:08:11Z</time>
      </trkpt>
      <trkpt lat="34.86207403242588" lon="-2.666992004960775">
        <ele>59.299999999999997</ele>
        <time>2010-12-26T14:08:22Z</time>
      </trkpt>
      <trkpt lat="34.862234964966774" lon="-2.667003991082311">
        <ele>61.200000000000003</ele>
        <time>2010-12-26T14:08:32Z</time>
      </trkpt>
      <trkpt lat="34.862400004640222" lon="-2.667036009952426">
        <ele>64.5</ele>
        <time>2010-12-26T14:08:56Z</time>
      </trkpt>
      <trkpt lat="34.862508969381452" lon="-2.66691598109901">
        <ele>64.5</ele>
        <time>2010-12-26T14:09:05Z</time>
      </trkpt>
      <trkpt lat="34.862441997975111" lon="-2.666759993880987">
        <ele>62.100000000000001</ele>
        <time>2010-12-26T14:09:15Z</time>
      </trkpt>
      <trkpt lat="34.862290034070611" lon="-2.666755970567465">
        <ele>61.700000000000003</ele>
        <time>2010-12-26T14:09:27Z</time>
      </trkpt>
      <trkpt lat="34.861746970564127" lon="-2.66639999113977">
        <ele>34.299999999999997</ele>
        <time>2010-12-26T14:16:15Z</time>
      </trkpt>
      <trkpt lat="34.86168703995645" lon="-2.666582968086004">
        <ele>21.300000000000001</ele>
        <time>2010-12-26T14:16:42Z</time>
      </trkpt>
      <trkpt lat="34.861613027751446" lon="-2.666758988052607">
        <ele>-3.7</ele>
        <time>2010-12-26T14:17:29Z</time>
      </trkpt>
      <trkpt lat="34.861364001408219" lon="-2.666839035227895">
        <ele>-3.7</ele>
        <time>2010-12-26T14:17:39Z</time>
      </trkpt>
      <trkpt lat="34.861256964504719" lon="-2.667359970510006">
        <ele>-1.3</ele>
        <time>2010-12-26T14:17:49Z</time>
      </trkpt>
      <trkpt lat="34.861227963119745" lon="-2.667576977983117">
        <ele>-1.3</ele>
        <time>2010-12-26T14:17:53Z</time>
      </trkpt>
      <trkpt lat="34.861160991713405" lon="-2.667904039844871">
        <ele>-0.8</ele>
        <time>2010-12-26T14:18:01Z</time>
      </trkpt>
      <trkpt lat="34.861190998926759" lon="-2.66807796433568">
        <ele>2.5</ele>
        <time>2010-12-26T14:18:10Z</time>
      </trkpt>
      <trkpt lat="34.861350003629923" lon="-2.668301006779075">
        <ele>21.800000000000001</ele>
        <time>2010-12-26T14:18:34Z</time>
      </trkpt>
      <trkpt lat="34.861525017768145" lon="-2.668809033930302">
        <ele>29.5</ele>
        <time>2010-12-26T14:18:44Z</time>
      </trkpt>
      <trkpt lat="34.861671030521393" lon="-2.669155038893223">
        <ele>33.299999999999997</ele>
        <time>2010-12-26T14:18:50Z</time>
      </trkpt>
      <trkpt lat="34.861875968053937" lon="-2.669376991689205">
        <ele>37.600000000000001</ele>
        <time>2010-12-26T14:18:56Z</time>
      </trkpt>
      <trkpt lat="34.862006977200508" lon="-2.669569021090865">
        <ele>40</ele>
        <time>2010-12-26T14:19:00Z</time>
      </trkpt>
      <trkpt lat="34.862129017710686" lon="-2.669802037999034">
        <ele>43.899999999999999</ele>
        <time>2010-12-26T14:19:04Z</time>
      </trkpt>
      <trkpt lat="34.862475022673607" lon="-2.670015022158623">
        <ele>49.600000000000001</ele>
        <time>2010-12-26T14:19:12Z</time>
      </trkpt>
      <trkpt lat="34.862868972122669" lon="-2.670180983841419">
        <ele>55.399999999999999</ele>
        <time>2010-12-26T14:19:20Z</time>
      </trkpt>
      <trkpt lat="34.863310027867556" lon="-2.670435039326549">
        <ele>66</ele>
        <time>2010-12-26T14:19:30Z</time>
      </trkpt>
      <trkpt lat="34.863574979826808" lon="-2.670549033209682">
        <ele>72.700000000000003</ele>
        <time>2010-12-26T14:19:36Z</time>
      </trkpt>
      <trkpt lat="34.864280987530947" lon="-2.670720024034381">
        <ele>87.099999999999994</ele>
        <time>2010-12-26T14:19:52Z</time>
      </trkpt>
      <trkpt lat="34.864528002217412" lon="-2.670649029314518">
        <ele>89.099999999999994</ele>
        <time>2010-12-26T14:19:58Z</time>
      </trkpt>
      <trkpt lat="34.864697987213731" lon="-2.670668978244066">
        <ele>90</ele>
        <time>2010-12-26T14:20:02Z</time>
      </trkpt>
      <trkpt lat="34.864879958331585" lon="-2.670824965462089">
        <ele>90.5</ele>
        <time>2010-12-26T14:20:09Z</time>
      </trkpt>
      <trkpt lat="34.865337023511529" lon="-2.6713200006634">
        <ele>91</ele>
        <time>2010-12-26T14:20:18Z</time>
      </trkpt>
      <trkpt lat="34.865635000169277" lon="-2.671627029776573">
        <ele>91.900000000000006</ele>
        <time>2010-12-26T14:20:25Z</time>
      </trkpt>
      <trkpt lat="34.865933982655406" lon="-2.672074036672711">
        <ele>92.400000000000006</ele>
        <time>2010-12-26T14:20:34Z</time>
      </trkpt>
      <trkpt lat="34.86600698903203" lon="-2.672159029170871">
        <ele>92.400000000000006</ele>
        <time>2010-12-26T14:20:42Z</time>
      </trkpt>
      <trkpt lat="34.866128023713827" lon="-2.67226698808372">
        <ele>93.400000000000006</ele>
        <time>2010-12-26T14:20:59Z</time>
      </trkpt>
      <trkpt lat="34.866461036726832" lon="-2.672529006376863">
        <ele>94.799999999999997</ele>
        <time>2010-12-26T14:21:07Z</time>
      </trkpt>
      <trkpt lat="34.866605959832668" lon="-2.672703014686704">
        <ele>95.299999999999997</ele>
        <time>2010-12-26T14:21:11Z</time>
      </trkpt>
      <trkpt lat="34.867129996418953" lon="-2.67312697134912">
        <ele>96.700000000000003</ele>
        <time>2010-12-26T14:21:23Z</time>
      </trkpt>
      <trkpt lat="34.867344992235303" lon="-2.673353031277657">
        <ele>97.200000000000003</ele>
        <time>2010-12-26T14:21:32Z</time>
      </trkpt>
      <trkpt lat="34.867449011653662" lon="-2.67342402599752">
        <ele>97.200000000000003</ele>
        <time>2010-12-26T14:21:40Z</time>
      </trkpt>
      <trkpt lat="34.8676179908216" lon="-2.673612032085657">
        <ele>97.200000000000003</ele>
        <time>2010-12-26T14:21:45Z</time>
      </trkpt>
      <trkpt lat="34.867761991918087" lon="-2.673885030671954">
        <ele>97.200000000000003</ele>
        <time>2010-12-26T14:21:49Z</time>
      </trkpt>
      <trkpt lat="34.86796198412776" lon="-2.674084017053247">
        <ele>98.200000000000003</ele>
        <time>2010-12-26T14:21:53Z</time>
      </trkpt>
      <trkpt lat="34.868233976885676" lon="-2.674444019794464">
        <ele>99.200000000000003</ele>
        <time>2010-12-26T14:21:59Z</time>
      </trkpt>
      <trkpt lat="34.86841200850904" lon="-2.674924973398447">
        <ele>99.200000000000003</ele>
        <time>2010-12-26T14:22:06Z</time>
      </trkpt>
      <trkpt lat="34.868508987128735" lon="-2.675026981160045">
        <ele>99.200000000000003</ele>
        <time>2010-12-26T14:22:08Z</time>
      </trkpt>
      <trkpt lat="34.868946019560099" lon="-2.675551017746329">
        <ele>100.09999999999999</ele>
        <time>2010-12-26T14:22:17Z</time>
      </trkpt>
      <trkpt lat="34.86912103369832" lon="-2.675707004964352">
        <ele>100.09999999999999</ele>
        <time>2010-12-26T14:22:21Z</time>
      </trkpt>
      <trkpt lat="34.86931499093771" lon="-2.676055021584034">
        <ele>99.599999999999994</ele>
        <time>2010-12-26T14:22:28Z</time>
      </trkpt>
      <trkpt lat="34.869827963411808" lon="-2.676731022074819">
        <ele>97.700000000000003</ele>
        <time>2010-12-26T14:22:37Z</time>
      </trkpt>
      <trkpt lat="34.869942963123322" lon="-2.676878962665796">
        <ele>97.700000000000003</ele>
        <time>2010-12-26T14:22:39Z</time>
      </trkpt>
      <trkpt lat="34.870203975588083" lon="-2.677352959290147">
        <ele>97.200000000000003</ele>
        <time>2010-12-26T14:22:45Z</time>
      </trkpt>
      <trkpt lat="34.870513016358018" lon="-2.677730983123183">
        <ele>97.200000000000003</ele>
        <time>2010-12-26T14:22:51Z</time>
      </trkpt>
      <trkpt lat="34.870789032429457" lon="-2.678186958655715">
        <ele>96.700000000000003</ele>
        <time>2010-12-26T14:22:57Z</time>
      </trkpt>
      <trkpt lat="34.870930016040802" lon="-2.678364990279079">
        <ele>96.700000000000003</ele>
        <time>2010-12-26T14:23:00Z</time>
      </trkpt>
      <trkpt lat="34.871339974924922" lon="-2.679057000204921">
        <ele>96.299999999999997</ele>
        <time>2010-12-26T14:23:11Z</time>
      </trkpt>
      <trkpt lat="34.871513983234763" lon="-2.679491015151143">
        <ele>97.200000000000003</ele>
        <time>2010-12-26T14:23:18Z</time>
      </trkpt>
      <trkpt lat="34.871788993477821" lon="-2.679556980729103">
        <ele>97.200000000000003</ele>
        <time>2010-12-26T14:23:23Z</time>
      </trkpt>
      <trkpt lat="34.872439010068774" lon="-2.680425010621548">
        <ele>97.200000000000003</ele>
        <time>2010-12-26T14:23:36Z</time>
      </trkpt>
      <trkpt lat="34.872841006144881" lon="-2.680992968380451">
        <ele>97.200000000000003</ele>
        <time>2010-12-26T14:23:46Z</time>
      </trkpt>
      <trkpt lat="34.873148035258055" lon="-2.681563021615148">
        <ele>97.700000000000003</ele>
        <time>2010-12-26T14:23:55Z</time>
      </trkpt>
      <trkpt lat="34.873534021899104" lon="-2.682271962985396">
        <ele>98.200000000000003</ele>
        <time>2010-12-26T14:24:04Z</time>
      </trkpt>
      <trkpt lat="34.873780030757189" lon="-2.682821983471513">
        <ele>98.200000000000003</ele>
        <time>2010-12-26T14:24:11Z</time>
      </trkpt>
      <trkpt lat="34.874140033498406" lon="-2.683505024760962">
        <ele>98.200000000000003</ele>
        <time>2010-12-26T14:24:19Z</time>
      </trkpt>
      <trkpt lat="34.874236006289721" lon="-2.684009028598666">
        <ele>98.700000000000003</ele>
        <time>2010-12-26T14:24:25Z</time>
      </trkpt>
      <trkpt lat="34.874345976859331" lon="-2.684136014431715">
        <ele>98.200000000000003</ele>
        <time>2010-12-26T14:24:27Z</time>
      </trkpt>
      <trkpt lat="34.874603971838951" lon="-2.684523006901145">
        <ele>98.700000000000003</ele>
        <time>2010-12-26T14:24:33Z</time>
      </trkpt>
      <trkpt lat="34.874831959605217" lon="-2.685032961890101">
        <ele>98.700000000000003</ele>
        <time>2010-12-26T14:24:39Z</time>
      </trkpt>
      <trkpt lat="34.875306962057948" lon="-2.685975003987551">
        <ele>99.200000000000003</ele>
        <time>2010-12-26T14:24:50Z</time>
      </trkpt>
      <trkpt lat="34.875575015321374" lon="-2.686709007248282">
        <ele>99.599999999999994</ele>
        <time>2010-12-26T14:24:59Z</time>
      </trkpt>
      <trkpt lat="34.875699989497662" lon="-2.68698301166296">
        <ele>99.599999999999994</ele>
        <time>2010-12-26T14:25:03Z</time>
      </trkpt>
      <trkpt lat="34.876114977523685" lon="-2.68760796636343">
        <ele>99.599999999999994</ele>
        <time>2010-12-26T14:25:11Z</time>
      </trkpt>
      <trkpt lat="34.876337014138699" lon="-2.688360996544361">
        <ele>100.09999999999999</ele>
        <time>2010-12-26T14:25:20Z</time>
      </trkpt>
      <trkpt lat="34.876439021900296" lon="-2.688774978742003">
        <ele>99.599999999999994</ele>
        <time>2010-12-26T14:25:24Z</time>
      </trkpt>
      <trkpt lat="34.876827020198107" lon="-2.689551981166005">
        <ele>99.599999999999994</ele>
        <time>2010-12-26T14:25:32Z</time>
      </trkpt>
      <trkpt lat="34.877220969647169" lon="-2.6903569791466">
        <ele>100.09999999999999</ele>
        <time>2010-12-26T14:25:41Z</time>
      </trkpt>
      <trkpt lat="34.877718016505241" lon="-2.691412009298801">
        <ele>101.59999999999999</ele>
        <time>2010-12-26T14:25:51Z</time>
      </trkpt>
      <trkpt lat="34.878320004791021" lon="-2.692658985033631">
        <ele>103.5</ele>
        <time>2010-12-26T14:26:02Z</time>
      </trkpt>
      <trkpt lat="34.878418995067477" lon="-2.69287096336484">
        <ele>104</ele>
        <time>2010-12-26T14:26:04Z</time>
      </trkpt>
      <trkpt lat="34.87891897559166" lon="-2.693799007683992">
        <ele>104</ele>
        <time>2010-12-26T14:26:14Z</time>
      </trkpt>
      <trkpt lat="34.879051996394992" lon="-2.694107964634895">
        <ele>104.40000000000001</ele>
        <time>2010-12-26T14:26:18Z</time>
      </trkpt>
      <trkpt lat="34.879150986671448" lon="-2.694249032065272">
        <ele>104.40000000000001</ele>
        <time>2010-12-26T14:26:25Z</time>
      </trkpt>
      <trkpt lat="34.87943303771317" lon="-2.694182982668281">
        <ele>103</ele>
        <time>2010-12-26T14:26:33Z</time>
      </trkpt>
      <trkpt lat="34.879755992442369" lon="-2.694092039018869">
        <ele>103</ele>
        <time>2010-12-26T14:26:38Z</time>
      </trkpt>
      <trkpt lat="34.880237029865384" lon="-2.69379498437047">
        <ele>103</ele>
        <time>2010-12-26T14:26:45Z</time>
      </trkpt>
      <trkpt lat="34.881039010360837" lon="-2.693667998537421">
        <ele>103</ele>
        <time>2010-12-26T14:26:55Z</time>
      </trkpt>
      <trkpt lat="34.881682991981506" lon="-2.693757014349103">
        <ele>102.5</ele>
        <time>2010-12-26T14:27:03Z</time>
      </trkpt>
      <trkpt lat="34.882478015497327" lon="-2.693822979927063">
        <ele>101.09999999999999</ele>
        <time>2010-12-26T14:27:13Z</time>
      </trkpt>
      <trkpt lat="34.883137000724673" lon="-2.69375097937882">
        <ele>100.59999999999999</ele>
        <time>2010-12-26T14:27:21Z</time>
      </trkpt>
      <trkpt lat="34.883891958743334" lon="-2.694067982956767">
        <ele>100.09999999999999</ele>
        <time>2010-12-26T14:27:30Z</time>
      </trkpt>
      <trkpt lat="34.885120997205377" lon="-2.694579027593136">
        <ele>99.599999999999994</ele>
        <time>2010-12-26T14:27:44Z</time>
      </trkpt>
      <trkpt lat="34.885717034339905" lon="-2.694841967895627">
        <ele>100.09999999999999</ele>
        <time>2010-12-26T14:27:52Z</time>
      </trkpt>
      <trkpt lat="34.885963965207338" lon="-2.694700984284282">
        <ele>99.200000000000003</ele>
        <time>2010-12-26T14:27:58Z</time>
      </trkpt>
      <trkpt lat="34.886184995993972" lon="-2.694533010944724">
        <ele>97.200000000000003</ele>
        <time>2010-12-26T14:28:02Z</time>
      </trkpt>
      <trkpt lat="34.886977002024651" lon="-2.694144006818533">
        <ele>90</ele>
        <time>2010-12-26T14:28:13Z</time>
      </trkpt>
      <trkpt lat="34.887927006930113" lon="-2.693623993545771">
        <ele>80.900000000000006</ele>
        <time>2010-12-26T14:28:25Z</time>
      </trkpt>
      <trkpt lat="34.88813403993845" lon="-2.693539001047611">
        <ele>80.400000000000006</ele>
        <time>2010-12-26T14:28:28Z</time>
      </trkpt>
      <trkpt lat="34.888691017404199" lon="-2.693125018849969">
        <ele>80.400000000000006</ele>
        <time>2010-12-26T14:28:36Z</time>
      </trkpt>
      <trkpt lat="34.889270039275289" lon="-2.692740960046649">
        <ele>81.400000000000006</ele>
        <time>2010-12-26T14:28:44Z</time>
      </trkpt>
      <trkpt lat="34.889696007594466" lon="-2.692674994468689">
        <ele>82.799999999999997</ele>
        <time>2010-12-26T14:28:50Z</time>
      </trkpt>
      <trkpt lat="34.889835985377431" lon="-2.692668959498406">
        <ele>81.799999999999997</ele>
        <time>2010-12-26T14:28:52Z</time>
      </trkpt>
      <trkpt lat="34.890657998621464" lon="-2.692495035007596">
        <ele>77.5</ele>
        <time>2010-12-26T14:29:02Z</time>
      </trkpt>
      <trkpt lat="34.890981037169695" lon="-2.692403001710773">
        <ele>76.599999999999994</ele>
        <time>2010-12-26T14:29:06Z</time>
      </trkpt>
      <trkpt lat="34.891320001333952" lon="-2.692536022514105">
        <ele>74.200000000000003</ele>
        <time>2010-12-26T14:29:13Z</time>
      </trkpt>
      <trkpt lat="34.89166097715497" lon="-2.692796029150486">
        <ele>71.799999999999997</ele>
        <time>2010-12-26T14:29:21Z</time>
      </trkpt>
      <trkpt lat="34.892274029552937" lon="-2.692755041643977">
        <ele>72.700000000000003</ele>
        <time>2010-12-26T14:29:33Z</time>
      </trkpt>
      <trkpt lat="34.892691029235721" lon="-2.692746995016933">
        <ele>79</ele>
        <time>2010-12-26T14:29:41Z</time>
      </trkpt>
      <trkpt lat="34.893130995333195" lon="-2.692478019744158">
        <ele>81.799999999999997</ele>
        <time>2010-12-26T14:29:50Z</time>
      </trkpt>
      <trkpt lat="34.893499966710806" lon="-2.692108964547515">
        <ele>81.799999999999997</ele>
        <time>2010-12-26T14:29:59Z</time>
      </trkpt>
      <trkpt lat="34.893710017204285" lon="-2.691801013424993">
        <ele>81.799999999999997</ele>
        <time>2010-12-26T14:30:04Z</time>
      </trkpt>
      <trkpt lat="34.894137997180223" lon="-2.691487027332187">
        <ele>80.900000000000006</ele>
        <time>2010-12-26T14:30:12Z</time>
      </trkpt>
      <trkpt lat="34.894465981051326" lon="-2.691186033189297">
        <ele>84.299999999999997</ele>
        <time>2010-12-26T14:30:18Z</time>
      </trkpt>
      <trkpt lat="34.894675025716424" lon="-2.690860982984304">
        <ele>87.599999999999994</ele>
        <time>2010-12-26T14:30:23Z</time>
      </trkpt>
      <trkpt lat="34.894727999344468" lon="-2.690712958574295">
        <ele>89.5</ele>
        <time>2010-12-26T14:30:25Z</time>
      </trkpt>
      <trkpt lat="34.894942995160818" lon="-2.690479019656777">
        <ele>92.400000000000006</ele>
        <time>2010-12-26T14:30:31Z</time>
      </trkpt>
      <trkpt lat="34.895056989043951" lon="-2.690434008836746">
        <ele>92.900000000000006</ele>
        <time>2010-12-26T14:30:33Z</time>
      </trkpt>
      <trkpt lat="34.895559987053275" lon="-2.690107030794025">
        <ele>93.900000000000006</ele>
        <time>2010-12-26T14:30:42Z</time>
      </trkpt>
      <trkpt lat="34.896163986995816" lon="-2.689769994467497">
        <ele>94.299999999999997</ele>
        <time>2010-12-26T14:30:51Z</time>
      </trkpt>
      <trkpt lat="34.897140981629491" lon="-2.689242018386722">
        <ele>94.299999999999997</ele>
        <time>2010-12-26T14:31:03Z</time>
      </trkpt>
      <trkpt lat="34.898404972627759" lon="-2.688710018992424">
        <ele>94.299999999999997</ele>
        <time>2010-12-26T14:31:18Z</time>
      </trkpt>
      <trkpt lat="34.899553041905165" lon="-2.688253037631512">
        <ele>93.900000000000006</ele>
        <time>2010-12-26T14:31:31Z</time>
      </trkpt>
      <trkpt lat="34.900119993835688" lon="-2.687893034890294">
        <ele>94.299999999999997</ele>
        <time>2010-12-26T14:31:38Z</time>
      </trkpt>
      <trkpt lat="34.900424005463719" lon="-2.687764037400484">
        <ele>93.900000000000006</ele>
        <time>2010-12-26T14:31:42Z</time>
      </trkpt>
      <trkpt lat="34.901095982640982" lon="-2.687804019078612">
        <ele>93.400000000000006</ele>
        <time>2010-12-26T14:31:50Z</time>
      </trkpt>
      <trkpt lat="34.901426983997226" lon="-2.687854981049895">
        <ele>92.900000000000006</ele>
        <time>2010-12-26T14:31:54Z</time>
      </trkpt>
      <trkpt lat="34.902153024449944" lon="-2.687707962468267">
        <ele>92.900000000000006</ele>
        <time>2010-12-26T14:32:02Z</time>
      </trkpt>
      <trkpt lat="34.903322970494628" lon="-2.687468994408846">
        <ele>93.400000000000006</ele>
        <time>2010-12-26T14:32:14Z</time>
      </trkpt>
      <trkpt lat="34.903538972139359" lon="-2.687337985262275">
        <ele>93.900000000000006</ele>
        <time>2010-12-26T14:32:17Z</time>
      </trkpt>
      <trkpt lat="34.904005005955696" lon="-2.687307978048921">
        <ele>93.400000000000006</ele>
        <time>2010-12-26T14:32:23Z</time>
      </trkpt>
      <trkpt lat="34.904171973466873" lon="-2.68728400580585">
        <ele>93.400000000000006</ele>
        <time>2010-12-26T14:32:25Z</time>
      </trkpt>
      <trkpt lat="34.904424017295241" lon="-2.687100023031235">
        <ele>93.900000000000006</ele>
        <time>2010-12-26T14:32:29Z</time>
      </trkpt>
      <trkpt lat="34.904789971187711" lon="-2.686673970893025">
        <ele>94.299999999999997</ele>
        <time>2010-12-26T14:32:35Z</time>
      </trkpt>
      <trkpt lat="34.905034974217415" lon="-2.686220007017255">
        <ele>94.299999999999997</ele>
        <time>2010-12-26T14:32:41Z</time>
      </trkpt>
      <trkpt lat="34.90506699308753" lon="-2.686056979000568">
        <ele>92.900000000000006</ele>
        <time>2010-12-26T14:32:43Z</time>
      </trkpt>
      <trkpt lat="34.905348038300872" lon="-2.685791021212935">
        <ele>90.5</ele>
        <time>2010-12-26T14:32:49Z</time>
      </trkpt>
      <trkpt lat="34.906111964955926" lon="-2.685882970690727">
        <ele>90</ele>
        <time>2010-12-26T14:32:59Z</time>
      </trkpt>
      <trkpt lat="34.906622003763914" lon="-2.685641990974546">
        <ele>90</ele>
        <time>2010-12-26T14:33:06Z</time>
      </trkpt>
      <trkpt lat="34.907088959589601" lon="-2.685174029320478">
        <ele>91.5</ele>
        <time>2010-12-26T14:33:13Z</time>
      </trkpt>
      <trkpt lat="34.907352989539504" lon="-2.684734985232353">
        <ele>93.400000000000006</ele>
        <time>2010-12-26T14:33:18Z</time>
      </trkpt>
      <trkpt lat="34.907587012276053" lon="-2.68389000557363">
        <ele>93.900000000000006</ele>
        <time>2010-12-26T14:33:27Z</time>
      </trkpt>
      <trkpt lat="34.907719027251005" lon="-2.683578031137586">
        <ele>93.400000000000006</ele>
        <time>2010-12-26T14:33:31Z</time>
      </trkpt>
      <trkpt lat="34.90790200419724" lon="-2.682822989299893">
        <ele>92.400000000000006</ele>
        <time>2010-12-26T14:33:38Z</time>
      </trkpt>
      <trkpt lat="34.90803200751543" lon="-2.681750021874905">
        <ele>88.599999999999994</ele>
        <time>2010-12-26T14:33:47Z</time>
      </trkpt>
      <trkpt lat="34.908101996406913" lon="-2.681007971987128">
        <ele>85.700000000000003</ele>
        <time>2010-12-26T14:33:55Z</time>
      </trkpt>
      <trkpt lat="34.90824700333178" lon="-2.680017985403538">
        <ele>82.799999999999997</ele>
        <time>2010-12-26T14:34:05Z</time>
      </trkpt>
      <trkpt lat="34.908386981114745" lon="-2.679736018180847">
        <ele>82.799999999999997</ele>
        <time>2010-12-26T14:34:12Z</time>
      </trkpt>
      <trkpt lat="34.908360997214913" lon="-2.679625041782856">
        <ele>82.799999999999997</ele>
        <time>2010-12-26T14:34:21Z</time>
      </trkpt>
      <trkpt lat="34.908296037465334" lon="-2.679524961858988">
        <ele>80.400000000000006</ele>
        <time>2010-12-26T14:34:32Z</time>
      </trkpt>
      <trkpt lat="34.908072995021939" lon="-2.679296974092722">
        <ele>78.5</ele>
        <time>2010-12-26T14:34:38Z</time>
      </trkpt>
      <trkpt lat="34.907548036426306" lon="-2.6788180321455">
        <ele>76.099999999999994</ele>
        <time>2010-12-26T14:34:45Z</time>
      </trkpt>
      <trkpt lat="34.906695010140538" lon="-2.678041029721499">
        <ele>73.200000000000003</ele>
        <time>2010-12-26T14:34:53Z</time>
      </trkpt>
      <trkpt lat="34.905308978632092" lon="-2.676761029288173">
        <ele>71.799999999999997</ele>
        <time>2010-12-26T14:35:04Z</time>
      </trkpt>
      <trkpt lat="34.904597019776702" lon="-2.675785962492228">
        <ele>72.200000000000003</ele>
        <time>2010-12-26T14:35:10Z</time>
      </trkpt>
      <trkpt lat="34.90405404008925" lon="-2.674525994807482">
        <ele>72.200000000000003</ele>
        <time>2010-12-26T14:35:16Z</time>
      </trkpt>
      <trkpt lat="34.903616001829505" lon="-2.672595977783203">
        <ele>70.799999999999997</ele>
        <time>2010-12-26T14:35:24Z</time>
      </trkpt>
      <trkpt lat="34.903353983536363" lon="-2.671369034796953">
        <ele>69.400000000000006</ele>
        <time>2010-12-26T14:35:30Z</time>
      </trkpt>
      <trkpt lat="34.903180981054902" lon="-2.670564958825707">
        <ele>69.400000000000006</ele>
        <time>2010-12-26T14:35:36Z</time>
      </trkpt>
      <trkpt lat="34.902934972196817" lon="-2.669381015002728">
        <ele>66.900000000000006</ele>
        <time>2010-12-26T14:35:48Z</time>
      </trkpt>
      <trkpt lat="34.902771022170782" lon="-2.668603006750345">
        <ele>64.099999999999994</ele>
        <time>2010-12-26T14:35:58Z</time>
      </trkpt>
      <trkpt lat="34.902646970003843" lon="-2.668043011799455">
        <ele>63.100000000000001</ele>
        <time>2010-12-26T14:36:03Z</time>
      </trkpt>
      <trkpt lat="34.902383023872972" lon="-2.666767034679651">
        <ele>64.099999999999994</ele>
        <time>2010-12-26T14:36:11Z</time>
      </trkpt>
      <trkpt lat="34.90195102058351" lon="-2.664570976048708">
        <ele>67.900000000000006</ele>
        <time>2010-12-26T14:36:23Z</time>
      </trkpt>
      <trkpt lat="34.901925958693027" lon="-2.663084026426077">
        <ele>69.400000000000006</ele>
        <time>2010-12-26T14:36:30Z</time>
      </trkpt>
      <trkpt lat="34.902280010282993" lon="-2.661572014912963">
        <ele>70.799999999999997</ele>
        <time>2010-12-26T14:36:37Z</time>
      </trkpt>
      <trkpt lat="34.903232026845217" lon="-2.65868604183197">
        <ele>69.799999999999997</ele>
        <time>2010-12-26T14:36:51Z</time>
      </trkpt>
      <trkpt lat="34.904089998453856" lon="-2.656062003225088">
        <ele>68.400000000000006</ele>
        <time>2010-12-26T14:37:03Z</time>
      </trkpt>
      <trkpt lat="34.90493799559772" lon="-2.653482975438237">
        <ele>66.900000000000006</ele>
        <time>2010-12-26T14:37:15Z</time>
      </trkpt>
      <trkpt lat="34.906028984114528" lon="-2.650166004896164">
        <ele>64.5</ele>
        <time>2010-12-26T14:37:31Z</time>
      </trkpt>
      <trkpt lat="34.907163977622986" lon="-2.646710984408855">
        <ele>63.600000000000001</ele>
        <time>2010-12-26T14:37:47Z</time>
      </trkpt>
      <trkpt lat="34.907739982008934" lon="-2.644880963489413">
        <ele>62.100000000000001</ele>
        <time>2010-12-26T14:37:56Z</time>
      </trkpt>
      <trkpt lat="34.907935028895736" lon="-2.643495015799999">
        <ele>61.200000000000003</ele>
        <time>2010-12-26T14:38:03Z</time>
      </trkpt>
      <trkpt lat="34.907835032790899" lon="-2.642135974019766">
        <ele>59.700000000000003</ele>
        <time>2010-12-26T14:38:10Z</time>
      </trkpt>
      <trkpt lat="34.907481987029314" lon="-2.640929985791445">
        <ele>54</ele>
        <time>2010-12-26T14:38:16Z</time>
      </trkpt>
      <trkpt lat="34.906787965446711" lon="-2.639625007286668">
        <ele>49.600000000000001</ele>
        <time>2010-12-26T14:38:23Z</time>
      </trkpt>
      <trkpt lat="34.905878026038408" lon="-2.638121964409947">
        <ele>43.399999999999999</ele>
        <time>2010-12-26T14:38:32Z</time>
      </trkpt>
      <trkpt lat="34.905352983623743" lon="-2.637264998629689">
        <ele>42.399999999999999</ele>
        <time>2010-12-26T14:38:39Z</time>
      </trkpt>
      <trkpt lat="34.904882004484534" lon="-2.636484978720546">
        <ele>40</ele>
        <time>2010-12-26T14:38:48Z</time>
      </trkpt>
      <trkpt lat="34.90470196120441" lon="-2.636179039254785">
        <ele>39.100000000000001</ele>
        <time>2010-12-26T14:38:54Z</time>
      </trkpt>
      <trkpt lat="34.904628032818437" lon="-2.636083988472819">
        <ele>40.5</ele>
        <time>2010-12-26T14:39:01Z</time>
      </trkpt>
      <trkpt lat="34.904372971504927" lon="-2.635621977970004">
        <ele>40</ele>
        <time>2010-12-26T14:39:08Z</time>
      </trkpt>
      <trkpt lat="34.904044987633824" lon="-2.634741039946675">
        <ele>39.100000000000001</ele>
        <time>2010-12-26T14:39:16Z</time>
      </trkpt>
      <trkpt lat="34.903896041214466" lon="-2.633662037551403">
        <ele>43.399999999999999</ele>
        <time>2010-12-26T14:39:23Z</time>
      </trkpt>
      <trkpt lat="34.90386301651597" lon="-2.631732020527124">
        <ele>50.100000000000001</ele>
        <time>2010-12-26T14:39:33Z</time>
      </trkpt>
      <trkpt lat="34.90384298376739" lon="-2.629288025200367">
        <ele>55.899999999999999</ele>
        <time>2010-12-26T14:39:44Z</time>
      </trkpt>
      <trkpt lat="34.903781963512301" lon="-2.626659963279963">
        <ele>61.200000000000003</ele>
        <time>2010-12-26T14:39:56Z</time>
      </trkpt>
      <trkpt lat="34.903766959905624" lon="-2.625876003876329">
        <ele>62.600000000000001</ele>
        <time>2010-12-26T14:40:01Z</time>
      </trkpt>
      <trkpt lat="34.903728989884257" lon="-2.624380001798272">
        <ele>65</ele>
        <time>2010-12-26T14:40:12Z</time>
      </trkpt>
      <trkpt lat="34.903680039569736" lon="-2.624041959643364">
        <ele>64.5</ele>
        <time>2010-12-26T14:40:17Z</time>
      </trkpt>
      <trkpt lat="34.903493039309978" lon="-2.623939029872417">
        <ele>60.200000000000003</ele>
        <time>2010-12-26T14:40:31Z</time>
      </trkpt>
      <trkpt lat="34.903180981054902" lon="-2.624214962124825">
        <ele>53.5</ele>
        <time>2010-12-26T14:40:39Z</time>
      </trkpt>
      <trkpt lat="34.903008984401822" lon="-2.624360974878073">
        <ele>50.600000000000001</ele>
        <time>2010-12-26T14:40:43Z</time>
      </trkpt>
      <trkpt lat="34.902757024392486" lon="-2.62461201287806">
        <ele>44.399999999999999</ele>
        <time>2010-12-26T14:40:51Z</time>
      </trkpt>
      <trkpt lat="34.902438009157777" lon="-2.62491300702095">
        <ele>38.100000000000001</ele>
        <time>2010-12-26T14:41:00Z</time>
      </trkpt>
      <trkpt lat="34.902161993086338" lon="-2.625152980908752">
        <ele>31.399999999999999</ele>
        <time>2010-12-26T14:41:11Z</time>
      </trkpt>
      <trkpt lat="34.901840966194868" lon="-2.625455986708403">
        <ele>30.899999999999999</ele>
        <time>2010-12-26T14:41:20Z</time>
      </trkpt>
      <trkpt lat="34.901248030364513" lon="-2.625977005809546">
        <ele>32.799999999999997</ele>
        <time>2010-12-26T14:41:32Z</time>
      </trkpt>
      <trkpt lat="34.900890961289406" lon="-2.62633097358048">
        <ele>41</ele>
        <time>2010-12-26T14:41:40Z</time>
      </trkpt>
      <trkpt lat="34.900793982669711" lon="-2.626433987170458">
        <ele>46.799999999999997</ele>
        <time>2010-12-26T14:41:47Z</time>
      </trkpt>
      <trkpt lat="34.900446971878409" lon="-2.626345977187157">
        <ele>45.299999999999997</ele>
        <time>2010-12-26T14:41:53Z</time>
      </trkpt>
      <trkpt lat="34.899606015533209" lon="-2.626289986073971">
        <ele>44.799999999999997</ele>
        <time>2010-12-26T14:42:02Z</time>
      </trkpt>
      <trkpt lat="34.898655004799366" lon="-2.626218991354108">
        <ele>46.799999999999997</ele>
        <time>2010-12-26T14:42:11Z</time>
      </trkpt>
      <trkpt lat="34.897408029064536" lon="-2.6261589769274">
        <ele>39.100000000000001</ele>
        <time>2010-12-26T14:42:21Z</time>
      </trkpt>
      <trkpt lat="34.896694980561733" lon="-2.62611597776413">
        <ele>32.299999999999997</ele>
        <time>2010-12-26T14:42:28Z</time>
      </trkpt>
      <trkpt lat="34.896028032526374" lon="-2.626318987458944">
        <ele>35.200000000000003</ele>
        <time>2010-12-26T14:42:35Z</time>
      </trkpt>
      <trkpt lat="34.895621007308364" lon="-2.626441027969122">
        <ele>37.600000000000001</ele>
        <time>2010-12-26T14:42:41Z</time>
      </trkpt>
      <trkpt lat="34.89509797655046" lon="-2.626627022400498">
        <ele>41.5</ele>
        <time>2010-12-26T14:42:47Z</time>
      </trkpt>
      <trkpt lat="34.894158029928803" lon="-2.626895997673273">
        <ele>45.299999999999997</ele>
        <time>2010-12-26T14:42:57Z</time>
      </trkpt>
      <trkpt lat="34.893425032496452" lon="-2.626817040145397">
        <ele>42.899999999999999</ele>
        <time>2010-12-26T14:43:04Z</time>
      </trkpt>
      <trkpt lat="34.892742997035384" lon="-2.626722995191813">
        <ele>35.700000000000003</ele>
        <time>2010-12-26T14:43:12Z</time>
      </trkpt>
      <trkpt lat="34.892648030072451" lon="-2.626732969656587">
        <ele>33.799999999999997</ele>
        <time>2010-12-26T14:43:17Z</time>
      </trkpt>
      <trkpt lat="34.892227007076144" lon="-2.627192968502641">
        <ele>38.100000000000001</ele>
        <time>2010-12-26T14:43:42Z</time>
      </trkpt>
      <trkpt lat="34.891898017376661" lon="-2.627571998164058">
        <ele>39.100000000000001</ele>
        <time>2010-12-26T14:43:53Z</time>
      </trkpt>
      <trkpt lat="34.891842026263475" lon="-2.627675011754036">
        <ele>46.299999999999997</ele>
        <time>2010-12-26T14:44:03Z</time>
      </trkpt>
      <trkpt lat="34.891749992966652" lon="-2.627908028662205">
        <ele>73.700000000000003</ele>
        <time>2010-12-26T14:48:10Z</time>
      </trkpt>
      <trkpt lat="34.891352020204067" lon="-2.628439022228122">
        <ele>68.900000000000006</ele>
        <time>2010-12-26T14:48:21Z</time>
      </trkpt>
      <trkpt lat="34.891099976375699" lon="-2.628778992220759">
        <ele>67.900000000000006</ele>
        <time>2010-12-26T14:48:28Z</time>
      </trkpt>
      <trkpt lat="34.890622962266207" lon="-2.629506038501859">
        <ele>66.5</ele>
        <time>2010-12-26T14:48:40Z</time>
      </trkpt>
      <trkpt lat="34.890357004478574" lon="-2.629862017929554">
        <ele>63.600000000000001</ele>
        <time>2010-12-26T14:48:49Z</time>
      </trkpt>
      <trkpt lat="34.89026103168726" lon="-2.629995038732886">
        <ele>60.200000000000003</ele>
        <time>2010-12-26T14:48:58Z</time>
      </trkpt>
      <trkpt lat="34.890099009498954" lon="-2.630222020670772">
        <ele>59.299999999999997</ele>
        <time>2010-12-26T14:49:06Z</time>
      </trkpt>
      <trkpt lat="34.889740012586117" lon="-2.630397034808993">
        <ele>60.700000000000003</ele>
        <time>2010-12-26T14:49:14Z</time>
      </trkpt>
      <trkpt lat="34.889290994033217" lon="-2.630479009822011">
        <ele>62.600000000000001</ele>
        <time>2010-12-26T14:49:24Z</time>
      </trkpt>
      <trkpt lat="34.88873896189034" lon="-2.630714038386941">
        <ele>65.5</ele>
        <time>2010-12-26T14:49:34Z</time>
      </trkpt>
      <trkpt lat="34.887982998043299" lon="-2.631028024479747">
        <ele>68.400000000000006</ele>
        <time>2010-12-26T14:49:51Z</time>
      </trkpt>
      <trkpt lat="34.887646967545152" lon="-2.631232040002942">
        <ele>68.400000000000006</ele>
        <time>2010-12-26T14:50:03Z</time>
      </trkpt>
      <trkpt lat="34.887430965900421" lon="-2.631415016949177">
        <ele>67.900000000000006</ele>
        <time>2010-12-26T14:50:08Z</time>
      </trkpt>
      <trkpt lat="34.887193003669381" lon="-2.631513001397252">
        <ele>68.400000000000006</ele>
        <time>2010-12-26T14:50:13Z</time>
      </trkpt>
      <trkpt lat="34.88648003898561" lon="-2.631646022200584">
        <ele>71.799999999999997</ele>
        <time>2010-12-26T14:50:26Z</time>
      </trkpt>
      <trkpt lat="34.885477982461452" lon="-2.631973000243306">
        <ele>75.099999999999994</ele>
        <time>2010-12-26T14:50:42Z</time>
      </trkpt>
      <trkpt lat="34.884865013882518" lon="-2.632206017151475">
        <ele>76.099999999999994</ele>
        <time>2010-12-26T14:50:53Z</time>
      </trkpt>
      <trkpt lat="34.884627973660827" lon="-2.63232596218586">
        <ele>76.099999999999994</ele>
        <time>2010-12-26T14:50:58Z</time>
      </trkpt>
      <trkpt lat="34.883992960676551" lon="-2.632522014901042">
        <ele>77</ele>
        <time>2010-12-26T14:51:09Z</time>
      </trkpt>
      <trkpt lat="34.883567998185754" lon="-2.632635002955794">
        <ele>78</ele>
        <time>2010-12-26T14:51:17Z</time>
      </trkpt>
      <trkpt lat="34.883234985172749" lon="-2.632759977132082">
        <ele>78</ele>
        <time>2010-12-26T14:51:26Z</time>
      </trkpt>
      <trkpt lat="34.882976990193129" lon="-2.632853016257286">
        <ele>78</ele>
        <time>2010-12-26T14:51:31Z</time>
      </trkpt>
      <trkpt lat="34.882570970803499" lon="-2.632987964898348">
        <ele>77.5</ele>
        <time>2010-12-26T14:51:40Z</time>
      </trkpt>
      <trkpt lat="34.882251033559442" lon="-2.633093995973468">
        <ele>77.5</ele>
        <time>2010-12-26T14:51:52Z</time>
      </trkpt>
      <trkpt lat="34.881801009178162" lon="-2.6332270167768">
        <ele>78</ele>
        <time>2010-12-26T14:52:01Z</time>
      </trkpt>
      <trkpt lat="34.881120985373855" lon="-2.633459027856588">
        <ele>78.5</ele>
        <time>2010-12-26T14:52:15Z</time>
      </trkpt>
      <trkpt lat="34.880181038752198" lon="-2.633771002292633">
        <ele>79</ele>
        <time>2010-12-26T14:52:33Z</time>
      </trkpt>
      <trkpt lat="34.879676029086113" lon="-2.633949033915997">
        <ele>79.400000000000006</ele>
        <time>2010-12-26T14:52:41Z</time>
      </trkpt>
      <trkpt lat="34.878913024440408" lon="-2.634239969775081">
        <ele>79.900000000000006</ele>
        <time>2010-12-26T14:52:52Z</time>
      </trkpt>
      <trkpt lat="34.878404997289181" lon="-2.634400986135006">
        <ele>79.400000000000006</ele>
        <time>2010-12-26T14:52:59Z</time>
      </trkpt>
      <trkpt lat="34.878047006204724" lon="-2.634521014988422">
        <ele>79.400000000000006</ele>
        <time>2010-12-26T14:53:08Z</time>
      </trkpt>
      <trkpt lat="34.877880038693547" lon="-2.634566025808454">
        <ele>75.599999999999994</ele>
        <time>2010-12-26T14:55:02Z</time>
      </trkpt>
      <trkpt lat="34.877769984304905" lon="-2.634716983884573">
        <ele>73.700000000000003</ele>
        <time>2010-12-26T14:55:13Z</time>
      </trkpt>
      <trkpt lat="34.877516012638807" lon="-2.6346879824996">
        <ele>73.200000000000003</ele>
        <time>2010-12-26T14:55:22Z</time>
      </trkpt>
      <trkpt lat="34.877223987132311" lon="-2.634548004716635">
        <ele>71.799999999999997</ele>
        <time>2010-12-26T14:55:29Z</time>
      </trkpt>
      <trkpt lat="34.877056013792753" lon="-2.634484972804785">
        <ele>70.799999999999997</ele>
        <time>2010-12-26T14:55:33Z</time>
      </trkpt>
      <trkpt lat="34.876925004646182" lon="-2.634468041360378">
        <ele>69.799999999999997</ele>
        <time>2010-12-26T14:55:36Z</time>
      </trkpt>
      <trkpt lat="34.876744961366057" lon="-2.634498970583081">
        <ele>70.799999999999997</ele>
        <time>2010-12-26T14:55:40Z</time>
      </trkpt>
      <trkpt lat="34.876604983583093" lon="-2.634596033021808">
        <ele>71.299999999999997</ele>
        <time>2010-12-26T14:55:44Z</time>
      </trkpt>
      <trkpt lat="34.876314969733357" lon="-2.634912030771375">
        <ele>68.400000000000006</ele>
        <time>2010-12-26T14:55:53Z</time>
      </trkpt>
      <trkpt lat="34.875921020284295" lon="-2.634928962215781">
        <ele>71.799999999999997</ele>
        <time>2010-12-26T14:56:02Z</time>
      </trkpt>
      <trkpt lat="34.875501003116369" lon="-2.63496701605618">
        <ele>74.200000000000003</ele>
        <time>2010-12-26T14:56:12Z</time>
      </trkpt>
      <trkpt lat="34.875152986496687" lon="-2.63490398414433">
        <ele>74.599999999999994</ele>
        <time>2010-12-26T14:56:21Z</time>
      </trkpt>
      <trkpt lat="34.874959029257298" lon="-2.634682031348348">
        <ele>74.200000000000003</ele>
        <time>2010-12-26T14:56:29Z</time>
      </trkpt>
      <trkpt lat="34.874496012926102" lon="-2.634716983884573">
        <ele>75.099999999999994</ele>
        <time>2010-12-26T14:56:38Z</time>
      </trkpt>
      <trkpt lat="34.873998966068029" lon="-2.634660992771387">
        <ele>75.099999999999994</ele>
        <time>2010-12-26T14:56:49Z</time>
      </trkpt>
      <trkpt lat="34.873480964452028" lon="-2.634522020816803">
        <ele>74.599999999999994</ele>
        <time>2010-12-26T14:57:01Z</time>
      </trkpt>
      <trkpt lat="34.873155998066068" lon="-2.634506011381745">
        <ele>75.599999999999994</ele>
        <time>2010-12-26T14:57:09Z</time>
      </trkpt>
      <trkpt lat="34.872927004471421" lon="-2.634568959474564">
        <ele>76.599999999999994</ele>
        <time>2010-12-26T14:57:14Z</time>
      </trkpt>
      <trkpt lat="34.872745033353567" lon="-2.634576000273228">
        <ele>77.5</ele>
        <time>2010-12-26T14:57:18Z</time>
      </trkpt>
      <trkpt lat="34.872119994834065" lon="-2.63464498333633">
        <ele>80.400000000000006</ele>
        <time>2010-12-26T14:57:30Z</time>
      </trkpt>
      <trkpt lat="34.871861999854445" lon="-2.634694017469883">
        <ele>81.400000000000006</ele>
        <time>2010-12-26T14:57:38Z</time>
      </trkpt>
      <trkpt lat="34.871552037075162" lon="-2.634895015507937">
        <ele>83.299999999999997</ele>
        <time>2010-12-26T14:57:47Z</time>
      </trkpt>
      <trkpt lat="34.871106036007404" lon="-2.635458027943969">
        <ele>80.400000000000006</ele>
        <time>2010-12-26T14:58:01Z</time>
      </trkpt>
      <trkpt lat="34.870704961940646" lon="-2.635979969054461">
        <ele>79.900000000000006</ele>
        <time>2010-12-26T14:58:12Z</time>
      </trkpt>
      <trkpt lat="34.870338002219796" lon="-2.636434016749263">
        <ele>81.799999999999997</ele>
        <time>2010-12-26T14:58:23Z</time>
      </trkpt>
      <trkpt lat="34.870233982801437" lon="-2.636530995368958">
        <ele>78</ele>
        <time>2010-12-26T14:58:33Z</time>
      </trkpt>
      <trkpt lat="34.870090987533331" lon="-2.636393029242754">
        <ele>74.599999999999994</ele>
        <time>2010-12-26T14:58:41Z</time>
      </trkpt>
      <trkpt lat="34.869720004498959" lon="-2.635980974882841">
        <ele>71.799999999999997</ele>
        <time>2010-12-26T14:58:50Z</time>
      </trkpt>
      <trkpt lat="34.869073005393147" lon="-2.635254012420774">
        <ele>65</ele>
        <time>2010-12-26T14:59:05Z</time>
      </trkpt>
      <trkpt lat="34.868534971028566" lon="-2.634650012478232">
        <ele>59.299999999999997</ele>
        <time>2010-12-26T14:59:18Z</time>
      </trkpt>
      <trkpt lat="34.867951003834605" lon="-2.634019022807479">
        <ele>55.399999999999999</ele>
        <time>2010-12-26T14:59:31Z</time>
      </trkpt>
      <trkpt lat="34.867751011624932" lon="-2.63380796648562">
        <ele>28.5</ele>
        <time>2010-12-26T15:00:14Z</time>
      </trkpt>
      <trkpt lat="34.867272991687059" lon="-2.633254006505013">
        <ele>30.399999999999999</ele>
        <time>2010-12-26T15:00:25Z</time>
      </trkpt>
      <trkpt lat="34.866671003401279" lon="-2.632527966052294">
        <ele>33.299999999999997</ele>
        <time>2010-12-26T15:00:37Z</time>
      </trkpt>
      <trkpt lat="34.866305971518159" lon="-2.632047012448311">
        <ele>35.200000000000003</ele>
        <time>2010-12-26T15:00:45Z</time>
      </trkpt>
      <trkpt lat="34.866046970710158" lon="-2.631691033020616">
        <ele>36.200000000000003</ele>
        <time>2010-12-26T15:00:54Z</time>
      </trkpt>
      <trkpt lat="34.865914033725858" lon="-2.631516018882394">
        <ele>36.200000000000003</ele>
        <time>2010-12-26T15:01:02Z</time>
      </trkpt>
      <trkpt lat="34.865610022097826" lon="-2.631089966744185">
        <ele>38.100000000000001</ele>
        <time>2010-12-26T15:01:53Z</time>
      </trkpt>
      <trkpt lat="34.865031000226736" lon="-2.630321010947228">
        <ele>41.5</ele>
        <time>2010-12-26T15:02:07Z</time>
      </trkpt>
      <trkpt lat="34.864376038312912" lon="-2.629458010196686">
        <ele>40.5</ele>
        <time>2010-12-26T15:02:18Z</time>
      </trkpt>
      <trkpt lat="34.863566011190414" lon="-2.628387976437807">
        <ele>50.100000000000001</ele>
        <time>2010-12-26T15:02:31Z</time>
      </trkpt>
      <trkpt lat="34.862720025703311" lon="-2.627258012071252">
        <ele>57.299999999999997</ele>
        <time>2010-12-26T15:02:44Z</time>
      </trkpt>
      <trkpt lat="34.862168999388814" lon="-2.626513028517366">
        <ele>61.200000000000003</ele>
        <time>2010-12-26T15:02:54Z</time>
      </trkpt>
      <trkpt lat="34.862036984413862" lon="-2.626377996057272">
        <ele>63.600000000000001</ele>
        <time>2010-12-26T15:02:57Z</time>
      </trkpt>
      <trkpt lat="34.861561981961131" lon="-2.625755975022912">
        <ele>70.299999999999997</ele>
        <time>2010-12-26T15:03:06Z</time>
      </trkpt>
      <trkpt lat="34.860809035599232" lon="-2.624742016196251">
        <ele>82.299999999999997</ele>
        <time>2010-12-26T15:03:19Z</time>
      </trkpt>
      <trkpt lat="34.85994603484869" lon="-2.623606016859412">
        <ele>92.400000000000006</ele>
        <time>2010-12-26T15:03:32Z</time>
      </trkpt>
      <trkpt lat="34.859210019931197" lon="-2.62263597920537">
        <ele>104</ele>
        <time>2010-12-26T15:03:44Z</time>
      </trkpt>
      <trkpt lat="34.859017990529537" lon="-2.622373960912228">
        <ele>101.59999999999999</ele>
        <time>2010-12-26T15:03:48Z</time>
      </trkpt>
      <trkpt lat="34.858853034675121" lon="-2.622330039739609">
        <ele>99.599999999999994</ele>
        <time>2010-12-26T15:03:54Z</time>
      </trkpt>
      <trkpt lat="34.858493031933904" lon="-2.622696999460459">
        <ele>98.700000000000003</ele>
        <time>2010-12-26T15:04:02Z</time>
      </trkpt>
      <trkpt lat="34.857814013957977" lon="-2.623394038528204">
        <ele>96.700000000000003</ele>
        <time>2010-12-26T15:04:11Z</time>
      </trkpt>
      <trkpt lat="34.856986971572042" lon="-2.624271959066391">
        <ele>96.700000000000003</ele>
        <time>2010-12-26T15:04:21Z</time>
      </trkpt>
      <trkpt lat="34.856451032683253" lon="-2.624815022572875">
        <ele>96.299999999999997</ele>
        <time>2010-12-26T15:04:29Z</time>
      </trkpt>
      <trkpt lat="34.856309965252876" lon="-2.62480303645134">
        <ele>95.799999999999997</ele>
        <time>2010-12-26T15:04:43Z</time>
      </trkpt>
      <trkpt lat="34.855803027749062" lon="-2.624269025400281">
        <ele>99.599999999999994</ele>
        <time>2010-12-26T15:04:54Z</time>
      </trkpt>
      <trkpt lat="34.855087967589498" lon="-2.623461009934545">
        <ele>107.3</ele>
        <time>2010-12-26T15:05:07Z</time>
      </trkpt>
      <trkpt lat="34.854410039260983" lon="-2.622716026380658">
        <ele>108.3</ele>
        <time>2010-12-26T15:05:18Z</time>
      </trkpt>
      <trkpt lat="34.854183979332447" lon="-2.622448978945613">
        <ele>106.8</ele>
        <time>2010-12-26T15:05:23Z</time>
      </trkpt>
      <trkpt lat="34.854035032913089" lon="-2.622373038902879">
        <ele>104.90000000000001</ele>
        <time>2010-12-26T15:05:30Z</time>
      </trkpt>
      <trkpt lat="34.85367301851511" lon="-2.622847035527229">
        <ele>104.90000000000001</ele>
        <time>2010-12-26T15:05:39Z</time>
      </trkpt>
      <trkpt lat="34.853062983602285" lon="-2.623696038499475">
        <ele>105.40000000000001</ele>
        <time>2010-12-26T15:05:47Z</time>
      </trkpt>
      <trkpt lat="34.852339960634708" lon="-2.624714020639658">
        <ele>106.40000000000001</ele>
        <time>2010-12-26T15:05:55Z</time>
      </trkpt>
      <trkpt lat="34.850660981610417" lon="-2.627021977677941">
        <ele>111.7</ele>
        <time>2010-12-26T15:06:12Z</time>
      </trkpt>
      <trkpt lat="34.849524982273579" lon="-2.628551004454494">
        <ele>115</ele>
        <time>2010-12-26T15:06:24Z</time>
      </trkpt>
      <trkpt lat="34.848171975463629" lon="-2.630428969860077">
        <ele>116.90000000000001</ele>
        <time>2010-12-26T15:06:38Z</time>
      </trkpt>
      <trkpt lat="34.846665998920798" lon="-2.632467029616237">
        <ele>113.09999999999999</ele>
        <time>2010-12-26T15:06:53Z</time>
      </trkpt>
      <trkpt lat="34.845203021541238" lon="-2.634467035531998">
        <ele>109.2</ele>
        <time>2010-12-26T15:07:08Z</time>
      </trkpt>
      <trkpt lat="34.84387599863112" lon="-2.636280963197351">
        <ele>107.3</ele>
        <time>2010-12-26T15:07:21Z</time>
      </trkpt>
      <trkpt lat="34.842531038448215" lon="-2.638151971623302">
        <ele>107.8</ele>
        <time>2010-12-26T15:07:33Z</time>
      </trkpt>
      <trkpt lat="34.841387998312712" lon="-2.639760039746761">
        <ele>110.7</ele>
        <time>2010-12-26T15:07:44Z</time>
      </trkpt>
      <trkpt lat="34.839850002899766" lon="-2.641898011788726">
        <ele>117.90000000000001</ele>
        <time>2010-12-26T15:07:59Z</time>
      </trkpt>
      <trkpt lat="34.839546997100115" lon="-2.642322974279523">
        <ele>118.90000000000001</ele>
        <time>2010-12-26T15:08:03Z</time>
      </trkpt>
      <trkpt lat="34.83945001848042" lon="-2.642459012567997">
        <ele>118.90000000000001</ele>
        <time>2010-12-26T15:08:08Z</time>
      </trkpt>
      <trkpt lat="34.839269975200295" lon="-2.642694041132927">
        <ele>116.90000000000001</ele>
        <time>2010-12-26T15:08:15Z</time>
      </trkpt>
      <trkpt lat="34.838876025751233" lon="-2.643198966979981">
        <ele>115</ele>
        <time>2010-12-26T15:08:22Z</time>
      </trkpt>
      <trkpt lat="34.837954016402364" lon="-2.644543005153537">
        <ele>114.5</ele>
        <time>2010-12-26T15:08:37Z</time>
      </trkpt>
      <trkpt lat="34.837249014526606" lon="-2.645910009741783">
        <ele>121.7</ele>
        <time>2010-12-26T15:08:50Z</time>
      </trkpt>
      <trkpt lat="34.836427001282573" lon="-2.647704994305968">
        <ele>130.90000000000001</ele>
        <time>2010-12-26T15:09:06Z</time>
      </trkpt>
      <trkpt lat="34.835782013833523" lon="-2.649529986083508">
        <ele>134.69999999999999</ele>
        <time>2010-12-26T15:09:19Z</time>
      </trkpt>
      <trkpt lat="34.83502403832972" lon="-2.651569973677397">
        <ele>136.19999999999999</ele>
        <time>2010-12-26T15:09:32Z</time>
      </trkpt>
      <trkpt lat="34.834289029240608" lon="-2.652893979102373">
        <ele>139.5</ele>
        <time>2010-12-26T15:09:41Z</time>
      </trkpt>
      <trkpt lat="34.833468021824956" lon="-2.654199963435531">
        <ele>146.30000000000001</ele>
        <time>2010-12-26T15:09:51Z</time>
      </trkpt>
      <trkpt lat="34.832686996087432" lon="-2.655513994395733">
        <ele>153.90000000000001</ele>
        <time>2010-12-26T15:10:01Z</time>
      </trkpt>
      <trkpt lat="34.832114009186625" lon="-2.65675401315093">
        <ele>155.40000000000001</ele>
        <time>2010-12-26T15:10:10Z</time>
      </trkpt>
      <trkpt lat="34.831819972023368" lon="-2.657819017767906">
        <ele>153</ele>
        <time>2010-12-26T15:10:18Z</time>
      </trkpt>
      <trkpt lat="34.831395009532571" lon="-2.659483999013901">
        <ele>153.5</ele>
        <time>2010-12-26T15:10:30Z</time>
      </trkpt>
      <trkpt lat="34.831290990114212" lon="-2.66057699918747">
        <ele>152</ele>
        <time>2010-12-26T15:10:37Z</time>
      </trkpt>
      <trkpt lat="34.831152018159628" lon="-2.662397967651486">
        <ele>153.5</ele>
        <time>2010-12-26T15:10:48Z</time>
      </trkpt>
      <trkpt lat="34.831014974042773" lon="-2.664221031591296">
        <ele>153</ele>
        <time>2010-12-26T15:10:58Z</time>
      </trkpt>
      <trkpt lat="34.830839959904552" lon="-2.666490012779832">
        <ele>151.09999999999999</ele>
        <time>2010-12-26T15:11:10Z</time>
      </trkpt>
      <trkpt lat="34.830689001828432" lon="-2.668490018695593">
        <ele>152</ele>
        <time>2010-12-26T15:11:21Z</time>
      </trkpt>
      <trkpt lat="34.830506024882197" lon="-2.670778026804328">
        <ele>150.59999999999999</ele>
        <time>2010-12-26T15:11:32Z</time>
      </trkpt>
      <trkpt lat="34.83031801879406" lon="-2.67329603433609">
        <ele>155.40000000000001</ele>
        <time>2010-12-26T15:11:44Z</time>
      </trkpt>
      <trkpt lat="34.830244006589055" lon="-2.674275040626526">
        <ele>155.40000000000001</ele>
        <time>2010-12-26T15:11:50Z</time>
      </trkpt>
      <trkpt lat="34.830206958577037" lon="-2.674760017544031">
        <ele>155.90000000000001</ele>
        <time>2010-12-26T15:11:56Z</time>
      </trkpt>
      <trkpt lat="34.830171000212431" lon="-2.67503896728158">
        <ele>154.40000000000001</ele>
        <time>2010-12-26T15:12:06Z</time>
      </trkpt>
      <trkpt lat="34.830033034086227" lon="-2.675049025565386">
        <ele>149.09999999999999</ele>
        <time>2010-12-26T15:12:14Z</time>
      </trkpt>
      <trkpt lat="34.82982499524951" lon="-2.675051037222147">
        <ele>146.30000000000001</ele>
        <time>2010-12-26T15:12:25Z</time>
      </trkpt>
      <trkpt lat="34.82974000275135" lon="-2.675185985863209">
        <ele>147.19999999999999</ele>
        <time>2010-12-26T15:12:32Z</time>
      </trkpt>
      <trkpt lat="34.82980496250093" lon="-2.675012983381748">
        <ele>148.19999999999999</ele>
        <time>2010-12-26T15:13:01Z</time>
      </trkpt>
      <trkpt lat="34.829580998048186" lon="-2.674764040857554">
        <ele>140</ele>
        <time>2010-12-26T16:07:13Z</time>
      </trkpt>
      <trkpt lat="34.829748971387744" lon="-2.674714000895619">
        <ele>125.59999999999999</ele>
        <time>2010-12-26T16:08:20Z</time>
      </trkpt>
      <trkpt lat="34.829948963597417" lon="-2.674766974523664">
        <ele>131.40000000000001</ele>
        <time>2010-12-26T16:08:33Z</time>
      </trkpt>
      <trkpt lat="34.830044014379382" lon="-2.674868982285261">
        <ele>127</ele>
        <time>2010-12-26T16:08:43Z</time>
      </trkpt>
      <trkpt lat="34.830071004107594" lon="-2.675090013071895">
        <ele>125.09999999999999</ele>
        <time>2010-12-26T16:08:47Z</time>
      </trkpt>
      <trkpt lat="34.82988802716136" lon="-2.675742041319609">
        <ele>121.7</ele>
        <time>2010-12-26T16:08:56Z</time>
      </trkpt>
      <trkpt lat="34.829373965039849" lon="-2.676624990999699">
        <ele>116</ele>
        <time>2010-12-26T16:09:07Z</time>
      </trkpt>
      <trkpt lat="34.829118987545371" lon="-2.676921961829066">
        <ele>113.59999999999999</ele>
        <time>2010-12-26T16:09:11Z</time>
      </trkpt>
      <trkpt lat="34.828937016427517" lon="-2.677323035895824">
        <ele>111.7</ele>
        <time>2010-12-26T16:09:15Z</time>
      </trkpt>
      <trkpt lat="34.828634010627866" lon="-2.678557019680738">
        <ele>99.200000000000003</ele>
        <time>2010-12-26T16:09:26Z</time>
      </trkpt>
      <trkpt lat="34.828498978167772" lon="-2.679074015468359">
        <ele>95.299999999999997</ele>
        <time>2010-12-26T16:09:31Z</time>
      </trkpt>
      <trkpt lat="34.828096982091665" lon="-2.679524961858988">
        <ele>92.400000000000006</ele>
        <time>2010-12-26T16:09:38Z</time>
      </trkpt>
      <trkpt lat="34.827947029843926" lon="-2.679573995992541">
        <ele>90.5</ele>
        <time>2010-12-26T16:09:40Z</time>
      </trkpt>
      <trkpt lat="34.827264994382858" lon="-2.679725037887693">
        <ele>80.400000000000006</ele>
        <time>2010-12-26T16:09:50Z</time>
      </trkpt>
      <trkpt lat="34.826840031892061" lon="-2.679873984307051">
        <ele>73.700000000000003</ele>
        <time>2010-12-26T16:09:57Z</time>
      </trkpt>
      <trkpt lat="34.826655965298414" lon="-2.679938022047281">
        <ele>71.799999999999997</ele>
        <time>2010-12-26T16:09:59Z</time>
      </trkpt>
      <trkpt lat="34.826059006154537" lon="-2.679817993193865">
        <ele>69.400000000000006</ele>
        <time>2010-12-26T16:10:05Z</time>
      </trkpt>
      <trkpt lat="34.825432961806655" lon="-2.679324969649315">
        <ele>71.299999999999997</ele>
        <time>2010-12-26T16:10:11Z</time>
      </trkpt>
      <trkpt lat="34.824952008202672" lon="-2.679191026836634">
        <ele>75.599999999999994</ele>
        <time>2010-12-26T16:10:15Z</time>
      </trkpt>
      <trkpt lat="34.824137035757303" lon="-2.679151967167854">
        <ele>82.299999999999997</ele>
        <time>2010-12-26T16:10:21Z</time>
      </trkpt>
      <trkpt lat="34.823609981685877" lon="-2.678918028250337">
        <ele>87.599999999999994</ele>
        <time>2010-12-26T16:10:25Z</time>
      </trkpt>
      <trkpt lat="34.82297396287322" lon="-2.678336994722486">
        <ele>97.700000000000003</ele>
        <time>2010-12-26T16:10:31Z</time>
      </trkpt>
      <trkpt lat="34.822507007047534" lon="-2.67808897420764">
        <ele>103</ele>
        <time>2010-12-26T16:10:35Z</time>
      </trkpt>
      <trkpt lat="34.821559013798833" lon="-2.678125016391277">
        <ele>110.7</ele>
        <time>2010-12-26T16:10:42Z</time>
      </trkpt>
      <trkpt lat="34.820423014461994" lon="-2.678158041089773">
        <ele>119.8</ele>
        <time>2010-12-26T16:10:50Z</time>
      </trkpt>
      <trkpt lat="34.820033004507422" lon="-2.678073970600963">
        <ele>123.2</ele>
        <time>2010-12-26T16:10:53Z</time>
      </trkpt>
      <trkpt lat="34.81955498456955" lon="-2.678168015554547">
        <ele>126.59999999999999</ele>
        <time>2010-12-26T16:10:57Z</time>
      </trkpt>
      <trkpt lat="34.81856600381434" lon="-2.678865976631641">
        <ele>130.90000000000001</ele>
        <time>2010-12-26T16:11:06Z</time>
      </trkpt>
      <trkpt lat="34.817818002775311" lon="-2.679778011515737">
        <ele>134.69999999999999</ele>
        <time>2010-12-26T16:11:14Z</time>
      </trkpt>
      <trkpt lat="34.816529033705592" lon="-2.681437041610479">
        <ele>137.59999999999999</ele>
        <time>2010-12-26T16:11:28Z</time>
      </trkpt>
      <trkpt lat="34.81532203964889" lon="-2.682974031195045">
        <ele>140.5</ele>
        <time>2010-12-26T16:11:41Z</time>
      </trkpt>
      <trkpt lat="34.813743978738785" lon="-2.684983005747199">
        <ele>141</ele>
        <time>2010-12-26T16:11:56Z</time>
      </trkpt>
      <trkpt lat="34.813051968812943" lon="-2.685892023146153">
        <ele>142.40000000000001</ele>
        <time>2010-12-26T16:12:03Z</time>
      </trkpt>
      <trkpt lat="34.8129160143435" lon="-2.686601970344782">
        <ele>137.09999999999999</ele>
        <time>2010-12-26T16:12:08Z</time>
      </trkpt>
      <trkpt lat="34.813179960474372" lon="-2.687363969162107">
        <ele>129.90000000000001</ele>
        <time>2010-12-26T16:12:13Z</time>
      </trkpt>
      <trkpt lat="34.813443990424275" lon="-2.688138037919998">
        <ele>123.2</ele>
        <time>2010-12-26T16:12:18Z</time>
      </trkpt>
      <trkpt lat="34.813649011775851" lon="-2.689725989475846">
        <ele>115</ele>
        <time>2010-12-26T16:12:28Z</time>
      </trkpt>
      <trkpt lat="34.813685975968838" lon="-2.689877031370997">
        <ele>115.5</ele>
        <time>2010-12-26T16:12:29Z</time>
      </trkpt>
      <trkpt lat="34.813597965985537" lon="-2.690629977732897">
        <ele>116</ele>
        <time>2010-12-26T16:12:34Z</time>
      </trkpt>
      <trkpt lat="34.813230000436306" lon="-2.691552992910147">
        <ele>119.8</ele>
        <time>2010-12-26T16:12:42Z</time>
      </trkpt>
      <trkpt lat="34.813050962984562" lon="-2.691993964836001">
        <ele>120.8</ele>
        <time>2010-12-26T16:12:49Z</time>
      </trkpt>
      <trkpt lat="34.81289497576654" lon="-2.692553037777543">
        <ele>118.90000000000001</ele>
        <time>2010-12-26T16:12:58Z</time>
      </trkpt>
      <trkpt lat="34.812849964946508" lon="-2.692756969481707">
        <ele>117.90000000000001</ele>
        <time>2010-12-26T16:13:04Z</time>
      </trkpt>
      <trkpt lat="34.812713004648685" lon="-2.692748000845313">
        <ele>117.90000000000001</ele>
        <time>2010-12-26T16:13:08Z</time>
      </trkpt>
      <trkpt lat="34.812302961945534" lon="-2.692568963393569">
        <ele>117.40000000000001</ele>
        <time>2010-12-26T16:13:15Z</time>
      </trkpt>
      <trkpt lat="34.811509028077126" lon="-2.692555971443653">
        <ele>121.7</ele>
        <time>2010-12-26T16:13:26Z</time>
      </trkpt>
      <trkpt lat="34.811236029490829" lon="-2.692629983648658">
        <ele>122.7</ele>
        <time>2010-12-26T16:13:30Z</time>
      </trkpt>
      <trkpt lat="34.810771001502872" lon="-2.692722016945481">
        <ele>126.09999999999999</ele>
        <time>2010-12-26T16:13:37Z</time>
      </trkpt>
      <trkpt lat="34.809943959116936" lon="-2.692581033334136">
        <ele>129.40000000000001</ele>
        <time>2010-12-26T16:13:48Z</time>
      </trkpt>
      <trkpt lat="34.809181038290262" lon="-2.692308034747839">
        <ele>130.40000000000001</ele>
        <time>2010-12-26T16:13:58Z</time>
      </trkpt>
      <trkpt lat="34.808809971436858" lon="-2.69220401532948">
        <ele>131.80000000000001</ele>
        <time>2010-12-26T16:14:03Z</time>
      </trkpt>
      <trkpt lat="34.808007990941405" lon="-2.691964041441679">
        <ele>134.69999999999999</ele>
        <time>2010-12-26T16:14:13Z</time>
      </trkpt>
      <trkpt lat="34.807777991518378" lon="-2.691864967346191">
        <ele>136.19999999999999</ele>
        <time>2010-12-26T16:14:16Z</time>
      </trkpt>
      <trkpt lat="34.807622004300356" lon="-2.691822974011302">
        <ele>136.59999999999999</ele>
        <time>2010-12-26T16:14:18Z</time>
      </trkpt>
      <trkpt lat="34.807241968810558" lon="-2.691706968471408">
        <ele>139</ele>
        <time>2010-12-26T16:14:25Z</time>
      </trkpt>
      <trkpt lat="34.80670502409339" lon="-2.69162398763001">
        <ele>141.90000000000001</ele>
        <time>2010-12-26T16:14:33Z</time>
      </trkpt>
      <trkpt lat="34.806527998298407" lon="-2.691619964316487">
        <ele>141.5</ele>
        <time>2010-12-26T16:14:36Z</time>
      </trkpt>
      <trkpt lat="34.806164978072047" lon="-2.69147302955389">
        <ele>143.40000000000001</ele>
        <time>2010-12-26T16:14:42Z</time>
      </trkpt>
      <trkpt lat="34.805817967280746" lon="-2.691446961835027">
        <ele>144.80000000000001</ele>
        <time>2010-12-26T16:14:48Z</time>
      </trkpt>
      <trkpt lat="34.805623004212976" lon="-2.691553998738527">
        <ele>145.30000000000001</ele>
        <time>2010-12-26T16:14:52Z</time>
      </trkpt>
      <trkpt lat="34.805252021178603" lon="-2.691701017320156">
        <ele>144.80000000000001</ele>
        <time>2010-12-26T16:14:59Z</time>
      </trkpt>
      <trkpt lat="34.805164011195302" lon="-2.691728007048369">
        <ele>143.90000000000001</ele>
        <time>2010-12-26T16:15:01Z</time>
      </trkpt>
      <trkpt lat="34.804940968751907" lon="-2.691834038123488">
        <ele>141.90000000000001</ele>
        <time>2010-12-26T16:15:05Z</time>
      </trkpt>
      <trkpt lat="34.804826974868774" lon="-2.692121034488082">
        <ele>140</ele>
        <time>2010-12-26T16:15:10Z</time>
      </trkpt>
      <trkpt lat="34.804806020110846" lon="-2.692594025284052">
        <ele>136.19999999999999</ele>
        <time>2010-12-26T16:15:15Z</time>
      </trkpt>
      <trkpt lat="34.80473100207746" lon="-2.692861994728446">
        <ele>135.19999999999999</ele>
        <time>2010-12-26T16:15:18Z</time>
      </trkpt>
      <trkpt lat="34.804561017081141" lon="-2.693203976377845">
        <ele>134.69999999999999</ele>
        <time>2010-12-26T16:15:23Z</time>
      </trkpt>
      <trkpt lat="34.804466972127557" lon="-2.693502036854625">
        <ele>132.80000000000001</ele>
        <time>2010-12-26T16:15:27Z</time>
      </trkpt>
      <trkpt lat="34.804337974637747" lon="-2.693890035152435">
        <ele>132.30000000000001</ele>
        <time>2010-12-26T16:15:32Z</time>
      </trkpt>
      <trkpt lat="34.80391401797533" lon="-2.694134032353759">
        <ele>134.19999999999999</ele>
        <time>2010-12-26T16:15:39Z</time>
      </trkpt>
      <trkpt lat="34.803692987188697" lon="-2.694423962384462">
        <ele>133.80000000000001</ele>
        <time>2010-12-26T16:15:45Z</time>
      </trkpt>
      <trkpt lat="34.80367798358202" lon="-2.694560000672936">
        <ele>133.30000000000001</ele>
        <time>2010-12-26T16:15:47Z</time>
      </trkpt>
      <trkpt lat="34.803616963326931" lon="-2.694778013974428">
        <ele>133.30000000000001</ele>
        <time>2010-12-26T16:15:50Z</time>
      </trkpt>
      <trkpt lat="34.803516967222095" lon="-2.695241030305624">
        <ele>134.69999999999999</ele>
        <time>2010-12-26T16:15:56Z</time>
      </trkpt>
      <trkpt lat="34.803385036066175" lon="-2.695401962846518">
        <ele>135.69999999999999</ele>
        <time>2010-12-26T16:15:59Z</time>
      </trkpt>
      <trkpt lat="34.803031990304589" lon="-2.695617964491248">
        <ele>138.09999999999999</ele>
        <time>2010-12-26T16:16:05Z</time>
      </trkpt>
      <trkpt lat="34.802707023918629" lon="-2.695517968386412">
        <ele>138.09999999999999</ele>
        <time>2010-12-26T16:16:09Z</time>
      </trkpt>
      <trkpt lat="34.802404018118978" lon="-2.695455020293593">
        <ele>138.59999999999999</ele>
        <time>2010-12-26T16:16:13Z</time>
      </trkpt>
      <trkpt lat="34.80195801705122" lon="-2.695389976724982">
        <ele>139</ele>
        <time>2010-12-26T16:16:19Z</time>
      </trkpt>
      <trkpt lat="34.801706979051232" lon="-2.695267014205456">
        <ele>140</ele>
        <time>2010-12-26T16:16:23Z</time>
      </trkpt>
      <trkpt lat="34.801375977694988" lon="-2.695112032815814">
        <ele>140.5</ele>
        <time>2010-12-26T16:16:28Z</time>
      </trkpt>
      <trkpt lat="34.801130974665284" lon="-2.694802992045879">
        <ele>142.90000000000001</ele>
        <time>2010-12-26T16:16:34Z</time>
      </trkpt>
      <trkpt lat="34.800852024927735" lon="-2.694604005664587">
        <ele>146.69999999999999</ele>
        <time>2010-12-26T16:16:39Z</time>
      </trkpt>
      <trkpt lat="34.800798967480659" lon="-2.694495962932706">
        <ele>147.19999999999999</ele>
        <time>2010-12-26T16:16:41Z</time>
      </trkpt>
      <trkpt lat="34.800677010789514" lon="-2.694304017350078">
        <ele>149.09999999999999</ele>
        <time>2010-12-26T16:16:46Z</time>
      </trkpt>
      <trkpt lat="34.800539966672659" lon="-2.694058008491993">
        <ele>150.59999999999999</ele>
        <time>2010-12-26T16:16:50Z</time>
      </trkpt>
      <trkpt lat="34.800289012491703" lon="-2.693900009617209">
        <ele>152.5</ele>
        <time>2010-12-26T16:16:55Z</time>
      </trkpt>
      <trkpt lat="34.799792971462011" lon="-2.693593986332417">
        <ele>155.90000000000001</ele>
        <time>2010-12-26T16:17:04Z</time>
      </trkpt>
      <trkpt lat="34.799456018954515" lon="-2.693215040490031">
        <ele>158.30000000000001</ele>
        <time>2010-12-26T16:17:11Z</time>
      </trkpt>
      <trkpt lat="34.799038013443351" lon="-2.69321596249938">
        <ele>159.19999999999999</ele>
        <time>2010-12-26T16:17:17Z</time>
      </trkpt>
      <trkpt lat="34.798379028216004" lon="-2.692940030246973">
        <ele>160.19999999999999</ele>
        <time>2010-12-26T16:17:25Z</time>
      </trkpt>
      <trkpt lat="34.797572018578649" lon="-2.692672982811928">
        <ele>162.59999999999999</ele>
        <time>2010-12-26T16:17:34Z</time>
      </trkpt>
      <trkpt lat="34.797337995842099" lon="-2.69252697005868">
        <ele>163.59999999999999</ele>
        <time>2010-12-26T16:17:37Z</time>
      </trkpt>
      <trkpt lat="34.796808008104563" lon="-2.692301999777556">
        <ele>163.59999999999999</ele>
        <time>2010-12-26T16:17:44Z</time>
      </trkpt>
      <trkpt lat="34.796147011220455" lon="-2.691990025341511">
        <ele>165.5</ele>
        <time>2010-12-26T16:17:53Z</time>
      </trkpt>
      <trkpt lat="34.795950036495924" lon="-2.692018020898104">
        <ele>166.90000000000001</ele>
        <time>2010-12-26T16:17:56Z</time>
      </trkpt>
      <trkpt lat="34.795525996014476" lon="-2.691867984831333">
        <ele>167.90000000000001</ele>
        <time>2010-12-26T16:18:02Z</time>
      </trkpt>
      <trkpt lat="34.794812025502324" lon="-2.691662041470408">
        <ele>170.30000000000001</ele>
        <time>2010-12-26T16:18:10Z</time>
      </trkpt>
      <trkpt lat="34.794095037505031" lon="-2.691465988755226">
        <ele>173.69999999999999</ele>
        <time>2010-12-26T16:18:19Z</time>
      </trkpt>
      <trkpt lat="34.793626992031932" lon="-2.691204976290464">
        <ele>175.59999999999999</ele>
        <time>2010-12-26T16:18:25Z</time>
      </trkpt>
      <trkpt lat="34.792522005736828" lon="-2.69080700352788">
        <ele>178</ele>
        <time>2010-12-26T16:18:37Z</time>
      </trkpt>
      <trkpt lat="34.791996963322163" lon="-2.690626960247755">
        <ele>179.90000000000001</ele>
        <time>2010-12-26T16:18:43Z</time>
      </trkpt>
      <trkpt lat="34.791657999157906" lon="-2.690554037690163">
        <ele>180.90000000000001</ele>
        <time>2010-12-26T16:18:47Z</time>
      </trkpt>
      <trkpt lat="34.790792986750603" lon="-2.690488994121552">
        <ele>184.19999999999999</ele>
        <time>2010-12-26T16:18:57Z</time>
      </trkpt>
      <trkpt lat="34.79042200371623" lon="-2.690531993284822">
        <ele>184.69999999999999</ele>
        <time>2010-12-26T16:19:02Z</time>
      </trkpt>
      <trkpt lat="34.789761006832123" lon="-2.690358990803361">
        <ele>188.59999999999999</ele>
        <time>2010-12-26T16:19:10Z</time>
      </trkpt>
      <trkpt lat="34.788777977228165" lon="-2.69005598500371">
        <ele>194.80000000000001</ele>
        <time>2010-12-26T16:19:21Z</time>
      </trkpt>
      <trkpt lat="34.787955963984132" lon="-2.689846018329263">
        <ele>199.59999999999999</ele>
        <time>2010-12-26T16:19:30Z</time>
      </trkpt>
      <trkpt lat="34.787375014275312" lon="-2.689675027504563">
        <ele>201.5</ele>
        <time>2010-12-26T16:19:37Z</time>
      </trkpt>
      <trkpt lat="34.78715498931706" lon="-2.689693970605731">
        <ele>198.59999999999999</ele>
        <time>2010-12-26T16:19:40Z</time>
      </trkpt>
      <trkpt lat="34.786485023796558" lon="-2.689579976722598">
        <ele>200.09999999999999</ele>
        <time>2010-12-26T16:19:48Z</time>
      </trkpt>
      <trkpt lat="34.785628980025649" lon="-2.689084019511938">
        <ele>202.5</ele>
        <time>2010-12-26T16:19:59Z</time>
      </trkpt>
      <trkpt lat="34.785322034731507" lon="-2.688842033967376">
        <ele>204.90000000000001</ele>
        <time>2010-12-26T16:20:04Z</time>
      </trkpt>
      <trkpt lat="34.785067979246378" lon="-2.688593007624149">
        <ele>203</ele>
        <time>2010-12-26T16:20:09Z</time>
      </trkpt>
      <trkpt lat="34.78483303450048" lon="-2.688408019021154">
        <ele>198.59999999999999</ele>
        <time>2010-12-26T16:20:13Z</time>
      </trkpt>
      <trkpt lat="34.784676041454077" lon="-2.688167039304972">
        <ele>196.69999999999999</ele>
        <time>2010-12-26T16:20:17Z</time>
      </trkpt>
      <trkpt lat="34.784480994567275" lon="-2.687969980761409">
        <ele>196.69999999999999</ele>
        <time>2010-12-26T16:20:21Z</time>
      </trkpt>
      <trkpt lat="34.783800970762968" lon="-2.687625987455249">
        <ele>197.19999999999999</ele>
        <time>2010-12-26T16:20:33Z</time>
      </trkpt>
      <trkpt lat="34.783319011330605" lon="-2.687170011922717">
        <ele>200.59999999999999</ele>
        <time>2010-12-26T16:20:44Z</time>
      </trkpt>
      <trkpt lat="34.7832449991256" lon="-2.687076972797513">
        <ele>201.09999999999999</ele>
        <time>2010-12-26T16:20:47Z</time>
      </trkpt>
      <trkpt lat="34.783195964992046" lon="-2.686859965324402">
        <ele>199.59999999999999</ele>
        <time>2010-12-26T16:20:51Z</time>
      </trkpt>
      <trkpt lat="34.782909974455833" lon="-2.68614498898387">
        <ele>197.69999999999999</ele>
        <time>2010-12-26T16:21:04Z</time>
      </trkpt>
      <trkpt lat="34.782620966434479" lon="-2.685766965150833">
        <ele>199.09999999999999</ele>
        <time>2010-12-26T16:21:14Z</time>
      </trkpt>
      <trkpt lat="34.782369006425142" lon="-2.685489021241665">
        <ele>202</ele>
        <time>2010-12-26T16:21:21Z</time>
      </trkpt>
      <trkpt lat="34.782240008935332" lon="-2.685412997379899">
        <ele>205.90000000000001</ele>
        <time>2010-12-26T16:21:24Z</time>
      </trkpt>
      <trkpt lat="34.781858967617154" lon="-2.684959033504129">
        <ele>208.69999999999999</ele>
        <time>2010-12-26T16:21:33Z</time>
      </trkpt>
      <trkpt lat="34.781752014532685" lon="-2.684773039072752">
        <ele>209.19999999999999</ele>
        <time>2010-12-26T16:21:36Z</time>
      </trkpt>
      <trkpt lat="34.781543975695968" lon="-2.684612022712827">
        <ele>210.19999999999999</ele>
        <time>2010-12-26T16:21:41Z</time>
      </trkpt>
      <trkpt lat="34.781370973214507" lon="-2.684549996629357">
        <ele>210.19999999999999</ele>
        <time>2010-12-26T16:21:44Z</time>
      </trkpt>
      <trkpt lat="34.781119013205171" lon="-2.684283033013344">
        <ele>214</ele>
        <time>2010-12-26T16:21:50Z</time>
      </trkpt>
      <trkpt lat="34.780893037095666" lon="-2.684055967256427">
        <ele>216.40000000000001</ele>
        <time>2010-12-26T16:21:56Z</time>
      </trkpt>
      <trkpt lat="34.78051501326263" lon="-2.683819010853767">
        <ele>216.40000000000001</ele>
        <time>2010-12-26T16:22:04Z</time>
      </trkpt>
      <trkpt lat="34.780398001894355" lon="-2.683693030849099">
        <ele>217.40000000000001</ele>
        <time>2010-12-26T16:22:07Z</time>
      </trkpt>
      <trkpt lat="34.779993994161487" lon="-2.683563027530909">
        <ele>216.90000000000001</ele>
        <time>2010-12-26T16:22:15Z</time>
      </trkpt>
      <trkpt lat="34.779662992805243" lon="-2.683580964803696">
        <ele>216</ele>
        <time>2010-12-26T16:22:20Z</time>
      </trkpt>
      <trkpt lat="34.779024040326476" lon="-2.683627987280488">
        <ele>215</ele>
        <time>2010-12-26T16:22:30Z</time>
      </trkpt>
      <trkpt lat="34.778812984004617" lon="-2.683678027242422">
        <ele>216</ele>
        <time>2010-12-26T16:22:34Z</time>
      </trkpt>
      <trkpt lat="34.778215019032359" lon="-2.683560010045767">
        <ele>218.80000000000001</ele>
        <time>2010-12-26T16:22:44Z</time>
      </trkpt>
      <trkpt lat="34.777876976877451" lon="-2.683478035032749">
        <ele>220.80000000000001</ele>
        <time>2010-12-26T16:22:50Z</time>
      </trkpt>
      <trkpt lat="34.777524014934897" lon="-2.683292962610722">
        <ele>226</ele>
        <time>2010-12-26T16:22:57Z</time>
      </trkpt>
      <trkpt lat="34.776674006134272" lon="-2.683444004505873">
        <ele>233.69999999999999</ele>
        <time>2010-12-26T16:23:14Z</time>
      </trkpt>
      <trkpt lat="34.776375023648143" lon="-2.683511981740594">
        <ele>234.69999999999999</ele>
        <time>2010-12-26T16:23:20Z</time>
      </trkpt>
      <trkpt lat="34.776109987869859" lon="-2.683477029204369">
        <ele>234.69999999999999</ele>
        <time>2010-12-26T16:23:25Z</time>
      </trkpt>
      <trkpt lat="34.775922987610102" lon="-2.683367980644107">
        <ele>234.69999999999999</ele>
        <time>2010-12-26T16:23:29Z</time>
      </trkpt>
      <trkpt lat="34.775443039834499" lon="-2.682932037860155">
        <ele>240.90000000000001</ele>
        <time>2010-12-26T16:23:40Z</time>
      </trkpt>
      <trkpt lat="34.775311024859548" lon="-2.68277102150023">
        <ele>245.80000000000001</ele>
        <time>2010-12-26T16:23:47Z</time>
      </trkpt>
      <trkpt lat="34.77523198351264" lon="-2.682848973199725">
        <ele>250.59999999999999</ele>
        <time>2010-12-26T16:23:55Z</time>
      </trkpt>
      <trkpt lat="34.775225026533008" lon="-2.683415003120899">
        <ele>254.90000000000001</ele>
        <time>2010-12-26T16:24:05Z</time>
      </trkpt>
      <trkpt lat="34.775034002959728" lon="-2.684131991118193">
        <ele>259.69999999999999</ele>
        <time>2010-12-26T16:24:16Z</time>
      </trkpt>
      <trkpt lat="34.774687997996807" lon="-2.684997003525496">
        <ele>262.60000000000002</ele>
        <time>2010-12-26T16:24:28Z</time>
      </trkpt>
      <trkpt lat="34.774237973615527" lon="-2.685490027070046">
        <ele>262.60000000000002</ele>
        <time>2010-12-26T16:24:38Z</time>
      </trkpt>
      <trkpt lat="34.774043010547757" lon="-2.685623969882727">
        <ele>261.60000000000002</ele>
        <time>2010-12-26T16:24:42Z</time>
      </trkpt>
      <trkpt lat="34.773643026128411" lon="-2.686064019799233">
        <ele>263.10000000000002</ele>
        <time>2010-12-26T16:24:50Z</time>
      </trkpt>
      <trkpt lat="34.773387964814901" lon="-2.686260994523764">
        <ele>265</ele>
        <time>2010-12-26T16:24:55Z</time>
      </trkpt>
      <trkpt lat="34.77323298342526" lon="-2.686554025858641">
        <ele>266.89999999999998</ele>
        <time>2010-12-26T16:25:00Z</time>
      </trkpt>
      <trkpt lat="34.773202976211905" lon="-2.686705989763141">
        <ele>268.30000000000001</ele>
        <time>2010-12-26T16:25:02Z</time>
      </trkpt>
      <trkpt lat="34.772870969027281" lon="-2.68728400580585">
        <ele>272.19999999999999</ele>
        <time>2010-12-26T16:25:12Z</time>
      </trkpt>
      <trkpt lat="34.772514989599586" lon="-2.687696982175112">
        <ele>270.30000000000001</ele>
        <time>2010-12-26T16:25:20Z</time>
      </trkpt>
      <trkpt lat="34.772269986569881" lon="-2.688178019598126">
        <ele>275.10000000000002</ele>
        <time>2010-12-26T16:25:28Z</time>
      </trkpt>
      <trkpt lat="34.772162027657032" lon="-2.688439032062888">
        <ele>278</ele>
        <time>2010-12-26T16:25:33Z</time>
      </trkpt>
      <trkpt lat="34.771954994648695" lon="-2.688676994293928">
        <ele>279.89999999999998</ele>
        <time>2010-12-26T16:25:38Z</time>
      </trkpt>
      <trkpt lat="34.771727006882429" lon="-2.688759975135326">
        <ele>280.39999999999998</ele>
        <time>2010-12-26T16:25:42Z</time>
      </trkpt>
      <trkpt lat="34.770974982529879" lon="-2.688885033130646">
        <ele>277</ele>
        <time>2010-12-26T16:25:54Z</time>
      </trkpt>
      <trkpt lat="34.770335024222732" lon="-2.689250987023115">
        <ele>283.69999999999999</ele>
        <time>2010-12-26T16:26:05Z</time>
      </trkpt>
      <trkpt lat="34.769721971824765" lon="-2.689486015588045">
        <ele>293.80000000000001</ele>
        <time>2010-12-26T16:26:15Z</time>
      </trkpt>
      <trkpt lat="34.768855031579733" lon="-2.689619036391377">
        <ele>310.60000000000002</ele>
        <time>2010-12-26T16:26:29Z</time>
      </trkpt>
      <trkpt lat="34.768546996638179" lon="-2.689743004739285">
        <ele>315.89999999999998</ele>
        <time>2010-12-26T16:26:34Z</time>
      </trkpt>
      <trkpt lat="34.767998987808824" lon="-2.690014997497201">
        <ele>322.69999999999999</ele>
        <time>2010-12-26T16:26:43Z</time>
      </trkpt>
      <trkpt lat="34.767455002292991" lon="-2.690199986100197">
        <ele>327</ele>
        <time>2010-12-26T16:26:51Z</time>
      </trkpt>
      <trkpt lat="34.766799034550786" lon="-2.690423028543592">
        <ele>328.39999999999998</ele>
        <time>2010-12-26T16:27:01Z</time>
      </trkpt>
      <trkpt lat="34.765851963311434" lon="-2.690712958574295">
        <ele>327</ele>
        <time>2010-12-26T16:27:14Z</time>
      </trkpt>
      <trkpt lat="34.76551802828908" lon="-2.690789988264442">
        <ele>327.5</ele>
        <time>2010-12-26T16:27:19Z</time>
      </trkpt>
      <trkpt lat="34.765356006100774" lon="-2.690773978829384">
        <ele>327.5</ele>
        <time>2010-12-26T16:27:22Z</time>
      </trkpt>
      <trkpt lat="34.765151990577579" lon="-2.690838016569614">
        <ele>326.5</ele>
        <time>2010-12-26T16:27:26Z</time>
      </trkpt>
      <trkpt lat="34.76459501311183" lon="-2.691089976578951">
        <ele>324.60000000000002</ele>
        <time>2010-12-26T16:27:36Z</time>
      </trkpt>
      <trkpt lat="34.763985984027386" lon="-2.691206987947226">
        <ele>322.19999999999999</ele>
        <time>2010-12-26T16:27:46Z</time>
      </trkpt>
      <trkpt lat="34.763473011553288" lon="-2.691243030130863">
        <ele>320.30000000000001</ele>
        <time>2010-12-26T16:27:54Z</time>
      </trkpt>
      <trkpt lat="34.76337200962007" lon="-2.691269014030695">
        <ele>320.30000000000001</ele>
        <time>2010-12-26T16:27:56Z</time>
      </trkpt>
      <trkpt lat="34.762706989422441" lon="-2.6913430262357">
        <ele>320.30000000000001</ele>
        <time>2010-12-26T16:28:07Z</time>
      </trkpt>
      <trkpt lat="34.761793026700616" lon="-2.691650977358222">
        <ele>323.10000000000002</ele>
        <time>2010-12-26T16:28:19Z</time>
      </trkpt>
      <trkpt lat="34.761246023699641" lon="-2.691656006500125">
        <ele>324.10000000000002</ele>
        <time>2010-12-26T16:28:26Z</time>
      </trkpt>
      <trkpt lat="34.760886020958424" lon="-2.691575037315488">
        <ele>323.10000000000002</ele>
        <time>2010-12-26T16:28:31Z</time>
      </trkpt>
      <trkpt lat="34.760583015158772" lon="-2.69153798930347">
        <ele>325.5</ele>
        <time>2010-12-26T16:28:35Z</time>
      </trkpt>
      <trkpt lat="34.76008303463459" lon="-2.691202964633703">
        <ele>328.39999999999998</ele>
        <time>2010-12-26T16:28:43Z</time>
      </trkpt>
      <trkpt lat="34.759352970868349" lon="-2.690783031284809">
        <ele>332.80000000000001</ele>
        <time>2010-12-26T16:28:52Z</time>
      </trkpt>
      <trkpt lat="34.759040996432304" lon="-2.690649004653096">
        <ele>333.19999999999999</ele>
        <time>2010-12-26T16:28:57Z</time>
      </trkpt>
      <trkpt lat="34.758874028921127" lon="-2.690354967489839">
        <ele>333.69999999999999</ele>
        <time>2010-12-26T16:29:02Z</time>
      </trkpt>
      <trkpt lat="34.758791970089078" lon="-2.690094960853458">
        <ele>334.69999999999999</ele>
        <time>2010-12-26T16:29:05Z</time>
      </trkpt>
      <trkpt lat="34.758706977590919" lon="-2.68990502692759">
        <ele>335.19999999999999</ele>
        <time>2010-12-26T16:29:07Z</time>
      </trkpt>
      <trkpt lat="34.758422998711467" lon="-2.68930496647954">
        <ele>336.60000000000002</ele>
        <time>2010-12-26T16:29:14Z</time>
      </trkpt>
      <trkpt lat="34.757725037634373" lon="-2.688774978742003">
        <ele>338.5</ele>
        <time>2010-12-26T16:29:23Z</time>
      </trkpt>
      <trkpt lat="34.757438963279128" lon="-2.688490999862552">
        <ele>339.5</ele>
        <time>2010-12-26T16:29:27Z</time>
      </trkpt>
      <trkpt lat="34.757107039913535" lon="-2.688270974904299">
        <ele>340.39999999999998</ele>
        <time>2010-12-26T16:29:32Z</time>
      </trkpt>
      <trkpt lat="34.756865976378322" lon="-2.688052961602807">
        <ele>341.39999999999998</ele>
        <time>2010-12-26T16:29:36Z</time>
      </trkpt>
      <trkpt lat="34.756609993055463" lon="-2.687871996313334">
        <ele>341.39999999999998</ele>
        <time>2010-12-26T16:29:40Z</time>
      </trkpt>
      <trkpt lat="34.756162986159325" lon="-2.687807036563754">
        <ele>341.89999999999998</ele>
        <time>2010-12-26T16:29:47Z</time>
      </trkpt>
      <trkpt lat="34.755831984803081" lon="-2.687795972451568">
        <ele>342.80000000000001</ele>
        <time>2010-12-26T16:29:52Z</time>
      </trkpt>
      <trkpt lat="34.755130000412464" lon="-2.687401017174125">
        <ele>345.69999999999999</ele>
        <time>2010-12-26T16:30:01Z</time>
      </trkpt>
      <trkpt lat="34.75441100075841" lon="-2.687199013307691">
        <ele>349.60000000000002</ele>
        <time>2010-12-26T16:30:10Z</time>
      </trkpt>
      <trkpt lat="34.753689989447594" lon="-2.686930038034916">
        <ele>352</ele>
        <time>2010-12-26T16:30:19Z</time>
      </trkpt>
      <trkpt lat="34.75342302583158" lon="-2.686857031658292">
        <ele>352.89999999999998</ele>
        <time>2010-12-26T16:30:22Z</time>
      </trkpt>
      <trkpt lat="34.752996973693371" lon="-2.686640024185181">
        <ele>353.89999999999998</ele>
        <time>2010-12-26T16:30:27Z</time>
      </trkpt>
      <trkpt lat="34.752571005374193" lon="-2.68633802421391">
        <ele>354.89999999999998</ele>
        <time>2010-12-26T16:30:33Z</time>
      </trkpt>
      <trkpt lat="34.752358021214604" lon="-2.686065025627613">
        <ele>354.39999999999998</ele>
        <time>2010-12-26T16:30:37Z</time>
      </trkpt>
      <trkpt lat="34.752118969336152" lon="-2.68537200987339">
        <ele>354.89999999999998</ele>
        <time>2010-12-26T16:30:44Z</time>
      </trkpt>
      <trkpt lat="34.752163980156183" lon="-2.684615962207317">
        <ele>355.30000000000001</ele>
        <time>2010-12-26T16:30:52Z</time>
      </trkpt>
      <trkpt lat="34.752291971817613" lon="-2.683591023087502">
        <ele>358.19999999999999</ele>
        <time>2010-12-26T16:31:01Z</time>
      </trkpt>
      <trkpt lat="34.752365984022617" lon="-2.682977970689535">
        <ele>360.60000000000002</ele>
        <time>2010-12-26T16:31:08Z</time>
      </trkpt>
      <trkpt lat="34.752275040373206" lon="-2.682689968496561">
        <ele>361.60000000000002</ele>
        <time>2010-12-26T16:31:13Z</time>
      </trkpt>
      <trkpt lat="34.751803977414966" lon="-2.682053027674556">
        <ele>362.60000000000002</ele>
        <time>2010-12-26T16:31:23Z</time>
      </trkpt>
      <trkpt lat="34.751607002690434" lon="-2.681841971352696">
        <ele>362.10000000000002</ele>
        <time>2010-12-26T16:31:27Z</time>
      </trkpt>
      <trkpt lat="34.751481022685766" lon="-2.681632004678249">
        <ele>361.60000000000002</ele>
        <time>2010-12-26T16:31:31Z</time>
      </trkpt>
      <trkpt lat="34.751272983849049" lon="-2.681339979171753">
        <ele>362.60000000000002</ele>
        <time>2010-12-26T16:31:36Z</time>
      </trkpt>
      <trkpt lat="34.750662026926875" lon="-2.680751988664269">
        <ele>365</ele>
        <time>2010-12-26T16:31:46Z</time>
      </trkpt>
      <trkpt lat="34.750178977847099" lon="-2.680017985403538">
        <ele>367.39999999999998</ele>
        <time>2010-12-26T16:31:56Z</time>
      </trkpt>
      <trkpt lat="34.749912014231086" lon="-2.679596040397883">
        <ele>367.80000000000001</ele>
        <time>2010-12-26T16:32:04Z</time>
      </trkpt>
      <trkpt lat="34.749743035063148" lon="-2.67929102294147">
        <ele>367.80000000000001</ele>
        <time>2010-12-26T16:32:10Z</time>
      </trkpt>
      <trkpt lat="34.749678997322917" lon="-2.679195972159505">
        <ele>367.39999999999998</ele>
        <time>2010-12-26T16:32:12Z</time>
      </trkpt>
      <trkpt lat="34.749649995937943" lon="-2.678821971639991">
        <ele>367.80000000000001</ele>
        <time>2010-12-26T16:32:18Z</time>
      </trkpt>
      <trkpt lat="34.749524015933275" lon="-2.678461968898773">
        <ele>367.80000000000001</ele>
        <time>2010-12-26T16:32:23Z</time>
      </trkpt>
      <trkpt lat="34.748815996572375" lon="-2.677720002830029">
        <ele>370.19999999999999</ele>
        <time>2010-12-26T16:32:35Z</time>
      </trkpt>
      <trkpt lat="34.748609969392419" lon="-2.677469970658422">
        <ele>371.19999999999999</ele>
        <time>2010-12-26T16:32:39Z</time>
      </trkpt>
      <trkpt lat="34.74848298355937" lon="-2.677180040627718">
        <ele>371.69999999999999</ele>
        <time>2010-12-26T16:32:43Z</time>
      </trkpt>
      <trkpt lat="34.748248960822821" lon="-2.676545027643442">
        <ele>372.19999999999999</ele>
        <time>2010-12-26T16:32:51Z</time>
      </trkpt>
      <trkpt lat="34.747865991666913" lon="-2.676084022969008">
        <ele>375.10000000000002</ele>
        <time>2010-12-26T16:32:58Z</time>
      </trkpt>
      <trkpt lat="34.747251011431217" lon="-2.675616983324289">
        <ele>379.39999999999998</ele>
        <time>2010-12-26T16:33:07Z</time>
      </trkpt>
      <trkpt lat="34.74702000617981" lon="-2.675358988344669">
        <ele>380.80000000000001</ele>
        <time>2010-12-26T16:33:11Z</time>
      </trkpt>
      <trkpt lat="34.746887991204858" lon="-2.675068974494934">
        <ele>382.30000000000001</ele>
        <time>2010-12-26T16:33:15Z</time>
      </trkpt>
      <trkpt lat="34.746812973171473" lon="-2.674471009522677">
        <ele>384.69999999999999</ele>
        <time>2010-12-26T16:33:22Z</time>
      </trkpt>
      <trkpt lat="34.747014977037907" lon="-2.674073036760092">
        <ele>385.60000000000002</ele>
        <time>2010-12-26T16:33:28Z</time>
      </trkpt>
      <trkpt lat="34.747297028079629" lon="-2.673709010705352">
        <ele>386.10000000000002</ele>
        <time>2010-12-26T16:33:35Z</time>
      </trkpt>
      <trkpt lat="34.747497020289302" lon="-2.673024041578174">
        <ele>385.60000000000002</ele>
        <time>2010-12-26T16:33:43Z</time>
      </trkpt>
      <trkpt lat="34.747673962265253" lon="-2.672578040510416">
        <ele>386.10000000000002</ele>
        <time>2010-12-26T16:33:50Z</time>
      </trkpt>
      <trkpt lat="34.747650995850563" lon="-2.672332031652331">
        <ele>386.60000000000002</ele>
        <time>2010-12-26T16:33:53Z</time>
      </trkpt>
      <trkpt lat="34.74755896255374" lon="-2.672049980610609">
        <ele>387.10000000000002</ele>
        <time>2010-12-26T16:33:57Z</time>
      </trkpt>
      <trkpt lat="34.747538007795811" lon="-2.671408010646701">
        <ele>387.5</ele>
        <time>2010-12-26T16:34:05Z</time>
      </trkpt>
      <trkpt lat="34.747586036100984" lon="-2.670724969357252">
        <ele>390</ele>
        <time>2010-12-26T16:34:14Z</time>
      </trkpt>
      <trkpt lat="34.747586958110332" lon="-2.670365972444415">
        <ele>390.39999999999998</ele>
        <time>2010-12-26T16:34:21Z</time>
      </trkpt>
      <trkpt lat="34.747658036649227" lon="-2.67016002908349">
        <ele>390.89999999999998</ele>
        <time>2010-12-26T16:34:25Z</time>
      </trkpt>
      <trkpt lat="34.747639009729028" lon="-2.669955007731915">
        <ele>391.89999999999998</ele>
        <time>2010-12-26T16:34:28Z</time>
      </trkpt>
      <trkpt lat="34.747587963938713" lon="-2.669750992208719">
        <ele>392.80000000000001</ele>
        <time>2010-12-26T16:34:31Z</time>
      </trkpt>
      <trkpt lat="34.747658036649227" lon="-2.669358970597386">
        <ele>394.30000000000001</ele>
        <time>2010-12-26T16:34:37Z</time>
      </trkpt>
      <trkpt lat="34.748096996918321" lon="-2.668753964826465">
        <ele>396.69999999999999</ele>
        <time>2010-12-26T16:34:47Z</time>
      </trkpt>
      <trkpt lat="34.748382987454534" lon="-2.668237974867225">
        <ele>398.10000000000002</ele>
        <time>2010-12-26T16:34:55Z</time>
      </trkpt>
      <trkpt lat="34.74846001714468" lon="-2.667876966297627">
        <ele>399.10000000000002</ele>
        <time>2010-12-26T16:35:00Z</time>
      </trkpt>
      <trkpt lat="34.748571999371052" lon="-2.667656019330025">
        <ele>400</ele>
        <time>2010-12-26T16:35:04Z</time>
      </trkpt>
      <trkpt lat="34.748677024617791" lon="-2.667573038488627">
        <ele>400.5</ele>
        <time>2010-12-26T16:35:06Z</time>
      </trkpt>
      <trkpt lat="34.749203994870186" lon="-2.66693701967597">
        <ele>402.39999999999998</ele>
        <time>2010-12-26T16:35:18Z</time>
      </trkpt>
      <trkpt lat="34.749614959582686" lon="-2.666706014424563">
        <ele>403.89999999999998</ele>
        <time>2010-12-26T16:35:25Z</time>
      </trkpt>
      <trkpt lat="34.749758038669825" lon="-2.666489006951451">
        <ele>404.39999999999998</ele>
        <time>2010-12-26T16:35:29Z</time>
      </trkpt>
      <trkpt lat="34.750014021992683" lon="-2.666091034188867">
        <ele>405.80000000000001</ele>
        <time>2010-12-26T16:35:35Z</time>
      </trkpt>
      <trkpt lat="34.750160034745932" lon="-2.66582096926868">
        <ele>407.30000000000001</ele>
        <time>2010-12-26T16:35:39Z</time>
      </trkpt>
      <trkpt lat="34.750443007797003" lon="-2.665671017020941">
        <ele>408.19999999999999</ele>
        <time>2010-12-26T16:35:45Z</time>
      </trkpt>
      <trkpt lat="34.750691028311849" lon="-2.665878972038627">
        <ele>408.19999999999999</ele>
        <time>2010-12-26T16:35:50Z</time>
      </trkpt>
      <trkpt lat="34.750835029408336" lon="-2.666058009490371">
        <ele>408.69999999999999</ele>
        <time>2010-12-26T16:35:53Z</time>
      </trkpt>
      <trkpt lat="34.751138035207987" lon="-2.666273005306721">
        <ele>409.69999999999999</ele>
        <time>2010-12-26T16:35:58Z</time>
      </trkpt>
      <trkpt lat="34.751975974068046" lon="-2.666527982801199">
        <ele>413</ele>
        <time>2010-12-26T16:36:11Z</time>
      </trkpt>
      <trkpt lat="34.752057027071714" lon="-2.666373001411557">
        <ele>414.5</ele>
        <time>2010-12-26T16:37:21Z</time>
      </trkpt>
      <trkpt lat="34.751971028745174" lon="-2.666299995034933">
        <ele>415.39999999999998</ele>
        <time>2010-12-26T16:37:24Z</time>
      </trkpt>
      <trkpt lat="34.751651007682085" lon="-2.666060021147132">
        <ele>418.80000000000001</ele>
        <time>2010-12-26T16:37:32Z</time>
      </trkpt>
      <trkpt lat="34.75155302323401" lon="-2.665812000632286">
        <ele>421.19999999999999</ele>
        <time>2010-12-26T16:37:37Z</time>
      </trkpt>
      <trkpt lat="34.751656958833337" lon="-2.665407992899418">
        <ele>424.60000000000002</ele>
        <time>2010-12-26T16:37:43Z</time>
      </trkpt>
      <trkpt lat="34.75179098546505" lon="-2.665157038718462">
        <ele>426.5</ele>
        <time>2010-12-26T16:37:47Z</time>
      </trkpt>
      <trkpt lat="34.751872960478067" lon="-2.6648960262537">
        <ele>428.39999999999998</ele>
        <time>2010-12-26T16:37:51Z</time>
      </trkpt>
      <trkpt lat="34.75187698379159" lon="-2.66474699601531">
        <ele>429.39999999999998</ele>
        <time>2010-12-26T16:37:53Z</time>
      </trkpt>
      <trkpt lat="34.751801965758204" lon="-2.66438196413219">
        <ele>430.30000000000001</ele>
        <time>2010-12-26T16:37:58Z</time>
      </trkpt>
      <trkpt lat="34.751778999343514" lon="-2.663759021088481">
        <ele>434.69999999999999</ele>
        <time>2010-12-26T16:38:06Z</time>
      </trkpt>
      <trkpt lat="34.751670034602284" lon="-2.663276977837086">
        <ele>438</ele>
        <time>2010-12-26T16:38:13Z</time>
      </trkpt>
      <trkpt lat="34.751569032669067" lon="-2.663124008104205">
        <ele>438.5</ele>
        <time>2010-12-26T16:38:16Z</time>
      </trkpt>
      <trkpt lat="34.751463001593947" lon="-2.662730980664492">
        <ele>440.39999999999998</ele>
        <time>2010-12-26T16:38:23Z</time>
      </trkpt>
      <trkpt lat="34.751398963853717" lon="-2.662520008161664">
        <ele>441.39999999999998</ele>
        <time>2010-12-26T16:38:27Z</time>
      </trkpt>
      <trkpt lat="34.751379014924169" lon="-2.662278022617102">
        <ele>441.89999999999998</ele>
        <time>2010-12-26T16:38:31Z</time>
      </trkpt>
      <trkpt lat="34.751249011605978" lon="-2.661460032686591">
        <ele>442.80000000000001</ele>
        <time>2010-12-26T16:38:42Z</time>
      </trkpt>
      <trkpt lat="34.751220010221004" lon="-2.661208994686604">
        <ele>443.30000000000001</ele>
        <time>2010-12-26T16:38:45Z</time>
      </trkpt>
      <trkpt lat="34.751238031312823" lon="-2.660609018057585">
        <ele>444.69999999999999</ele>
        <time>2010-12-26T16:38:52Z</time>
      </trkpt>
      <trkpt lat="34.751201989129186" lon="-2.659742999821901">
        <ele>447.19999999999999</ele>
        <time>2010-12-26T16:39:01Z</time>
      </trkpt>
      <trkpt lat="34.750935025513172" lon="-2.659280989319086">
        <ele>447.60000000000002</ele>
        <time>2010-12-26T16:39:09Z</time>
      </trkpt>
      <trkpt lat="34.750833017751575" lon="-2.658809004351497">
        <ele>449.10000000000002</ele>
        <time>2010-12-26T16:39:15Z</time>
      </trkpt>
      <trkpt lat="34.750939970836043" lon="-2.658310029655695">
        <ele>450.5</ele>
        <time>2010-12-26T16:39:22Z</time>
      </trkpt>
      <trkpt lat="34.75095497444272" lon="-2.658155970275402">
        <ele>450.5</ele>
        <time>2010-12-26T16:39:24Z</time>
      </trkpt>
      <trkpt lat="34.750956986099482" lon="-2.656974038109183">
        <ele>453.39999999999998</ele>
        <time>2010-12-26T16:39:36Z</time>
      </trkpt>
      <trkpt lat="34.750977018848062" lon="-2.655862011015415">
        <ele>455.80000000000001</ele>
        <time>2010-12-26T16:39:48Z</time>
      </trkpt>
      <trkpt lat="34.751006020233035" lon="-2.654764987528324">
        <ele>459.60000000000002</ele>
        <time>2010-12-26T16:39:59Z</time>
      </trkpt>
      <trkpt lat="34.751019012182951" lon="-2.653491022065282">
        <ele>464.89999999999998</ele>
        <time>2010-12-26T16:40:13Z</time>
      </trkpt>
      <trkpt lat="34.751053964719176" lon="-2.652275981381536">
        <ele>468.80000000000001</ele>
        <time>2010-12-26T16:40:25Z</time>
      </trkpt>
      <trkpt lat="34.751114984974265" lon="-2.65114601701498">
        <ele>472.10000000000002</ele>
        <time>2010-12-26T16:40:35Z</time>
      </trkpt>
      <trkpt lat="34.750972995534539" lon="-2.650717031210661">
        <ele>471.69999999999999</ele>
        <time>2010-12-26T16:40:41Z</time>
      </trkpt>
      <trkpt lat="34.750405959784985" lon="-2.650226019322872">
        <ele>469.69999999999999</ele>
        <time>2010-12-26T16:40:52Z</time>
      </trkpt>
      <trkpt lat="34.749896004796028" lon="-2.649819999933243">
        <ele>467.80000000000001</ele>
        <time>2010-12-26T16:41:02Z</time>
      </trkpt>
      <trkpt lat="34.749444974586368" lon="-2.649292023852468">
        <ele>464.5</ele>
        <time>2010-12-26T16:41:11Z</time>
      </trkpt>
      <trkpt lat="34.749202989041805" lon="-2.649124972522259">
        <ele>463</ele>
        <time>2010-12-26T16:41:15Z</time>
      </trkpt>
      <trkpt lat="34.749030992388725" lon="-2.648867983371019">
        <ele>460.60000000000002</ele>
        <time>2010-12-26T16:41:20Z</time>
      </trkpt>
      <trkpt lat="34.749154960736632" lon="-2.648764969781041">
        <ele>459.19999999999999</ele>
        <time>2010-12-26T16:41:23Z</time>
      </trkpt>
      <trkpt lat="34.749271972104907" lon="-2.648728005588055">
        <ele>459.19999999999999</ele>
        <time>2010-12-26T16:41:25Z</time>
      </trkpt>
      <trkpt lat="34.749580007046461" lon="-2.648427011445165">
        <ele>458.69999999999999</ele>
        <time>2010-12-26T16:41:32Z</time>
      </trkpt>
      <trkpt lat="34.749697018414736" lon="-2.648147977888584">
        <ele>458.19999999999999</ele>
        <time>2010-12-26T16:41:36Z</time>
      </trkpt>
      <trkpt lat="34.749948978424072" lon="-2.647941028699279">
        <ele>457.69999999999999</ele>
        <time>2010-12-26T16:41:42Z</time>
      </trkpt>
      <trkpt lat="34.750061966478825" lon="-2.647978998720646">
        <ele>457.69999999999999</ele>
        <time>2010-12-26T16:41:44Z</time>
      </trkpt>
      <trkpt lat="34.75060997530818" lon="-2.64835299924016">
        <ele>457.69999999999999</ele>
        <time>2010-12-26T16:41:52Z</time>
      </trkpt>
      <trkpt lat="34.751026974990964" lon="-2.64850496314466">
        <ele>457.19999999999999</ele>
        <time>2010-12-26T16:41:59Z</time>
      </trkpt>
      <trkpt lat="34.751643966883421" lon="-2.648643013089895">
        <ele>457.19999999999999</ele>
        <time>2010-12-26T16:42:08Z</time>
      </trkpt>
      <trkpt lat="34.751862986013293" lon="-2.648533964529634">
        <ele>457.19999999999999</ele>
        <time>2010-12-26T16:42:14Z</time>
      </trkpt>
      <trkpt lat="34.75170498713851" lon="-2.647776994854212">
        <ele>455.80000000000001</ele>
        <time>2010-12-26T16:42:27Z</time>
      </trkpt>
      <trkpt lat="34.751527961343527" lon="-2.647355971857905">
        <ele>455.80000000000001</ele>
        <time>2010-12-26T16:42:33Z</time>
      </trkpt>
      <trkpt lat="34.751438023522496" lon="-2.64684702269733">
        <ele>455.80000000000001</ele>
        <time>2010-12-26T16:42:39Z</time>
      </trkpt>
      <trkpt lat="34.751311037689447" lon="-2.64652700163424">
        <ele>455.80000000000001</ele>
        <time>2010-12-26T16:42:44Z</time>
      </trkpt>
      <trkpt lat="34.751106016337872" lon="-2.646196000277996">
        <ele>455.80000000000001</ele>
        <time>2010-12-26T16:42:50Z</time>
      </trkpt>
      <trkpt lat="34.75112403742969" lon="-2.645884025841951">
        <ele>455.30000000000001</ele>
        <time>2010-12-26T16:42:55Z</time>
      </trkpt>
      <trkpt lat="34.751141974702477" lon="-2.645701970905066">
        <ele>454.80000000000001</ele>
        <time>2010-12-26T16:42:58Z</time>
      </trkpt>
      <trkpt lat="34.751033009961247" lon="-2.645415980368853">
        <ele>454.39999999999998</ele>
        <time>2010-12-26T16:43:04Z</time>
      </trkpt>
      <trkpt lat="34.750964026898146" lon="-2.645187992602587">
        <ele>453.89999999999998</ele>
        <time>2010-12-26T16:43:07Z</time>
      </trkpt>
      <trkpt lat="34.750924967229366" lon="-2.644567983224988">
        <ele>452.39999999999998</ele>
        <time>2010-12-26T16:43:14Z</time>
      </trkpt>
      <trkpt lat="34.751042984426022" lon="-2.643943028524518">
        <ele>450.5</ele>
        <time>2010-12-26T16:43:22Z</time>
      </trkpt>
      <trkpt lat="34.750819019973278" lon="-2.643436007201672">
        <ele>447.19999999999999</ele>
        <time>2010-12-26T16:43:31Z</time>
      </trkpt>
      <trkpt lat="34.750658003613353" lon="-2.643243977800012">
        <ele>443.80000000000001</ele>
        <time>2010-12-26T16:43:35Z</time>
      </trkpt>
      <trkpt lat="34.750590026378632" lon="-2.643034011125565">
        <ele>442.80000000000001</ele>
        <time>2010-12-26T16:43:39Z</time>
      </trkpt>
      <trkpt lat="34.750578962266445" lon="-2.642919011414051">
        <ele>441.89999999999998</ele>
        <time>2010-12-26T16:43:41Z</time>
      </trkpt>
      <trkpt lat="34.750455999746919" lon="-2.642598990350962">
        <ele>438</ele>
        <time>2010-12-26T16:43:46Z</time>
      </trkpt>
      <trkpt lat="34.750409983098507" lon="-2.642467981204391">
        <ele>436.60000000000002</ele>
        <time>2010-12-26T16:43:48Z</time>
      </trkpt>
      <trkpt lat="34.750230023637414" lon="-2.642326997593045">
        <ele>434.69999999999999</ele>
        <time>2010-12-26T16:43:54Z</time>
      </trkpt>
      <trkpt lat="34.750135978683829" lon="-2.642544005066156">
        <ele>432.19999999999999</ele>
        <time>2010-12-26T16:44:00Z</time>
      </trkpt>
      <trkpt lat="34.749947972595692" lon="-2.642635032534599">
        <ele>429.39999999999998</ele>
        <time>2010-12-26T16:44:05Z</time>
      </trkpt>
      <trkpt lat="34.749846970662475" lon="-2.642582980915904">
        <ele>428.39999999999998</ele>
        <time>2010-12-26T16:44:07Z</time>
      </trkpt>
      <trkpt lat="34.749476993456483" lon="-2.642400003969669">
        <ele>424.60000000000002</ele>
        <time>2010-12-26T16:44:14Z</time>
      </trkpt>
      <trkpt lat="34.749253029003739" lon="-2.642388017848134">
        <ele>423.10000000000002</ele>
        <time>2010-12-26T16:44:18Z</time>
      </trkpt>
      <trkpt lat="34.749088995158672" lon="-2.642266983166337">
        <ele>421.19999999999999</ele>
        <time>2010-12-26T16:44:22Z</time>
      </trkpt>
      <trkpt lat="34.748934013769031" lon="-2.641998007893562">
        <ele>418.80000000000001</ele>
        <time>2010-12-26T16:44:27Z</time>
      </trkpt>
      <trkpt lat="34.748739972710609" lon="-2.641774965450168">
        <ele>416.39999999999998</ele>
        <time>2010-12-26T16:44:31Z</time>
      </trkpt>
      <trkpt lat="34.748607035726309" lon="-2.64139199629426">
        <ele>413.5</ele>
        <time>2010-12-26T16:44:36Z</time>
      </trkpt>
      <trkpt lat="34.748453982174397" lon="-2.641107011586428">
        <ele>411.60000000000002</ele>
        <time>2010-12-26T16:44:40Z</time>
      </trkpt>
      <trkpt lat="34.74835398606956" lon="-2.640990000218153">
        <ele>410.60000000000002</ele>
        <time>2010-12-26T16:44:42Z</time>
      </trkpt>
      <trkpt lat="34.748038994148374" lon="-2.64080903492868">
        <ele>408.69999999999999</ele>
        <time>2010-12-26T16:44:47Z</time>
      </trkpt>
      <trkpt lat="34.747331980615854" lon="-2.640469986945391">
        <ele>403.39999999999998</ele>
        <time>2010-12-26T16:44:58Z</time>
      </trkpt>
      <trkpt lat="34.747130982577801" lon="-2.640540981665254">
        <ele>400</ele>
        <time>2010-12-26T16:45:04Z</time>
      </trkpt>
      <trkpt lat="34.746972983703017" lon="-2.640584986656904">
        <ele>398.10000000000002</ele>
        <time>2010-12-26T16:45:10Z</time>
      </trkpt>
      <trkpt lat="34.74693400785327" lon="-2.640456994995475">
        <ele>397.19999999999999</ele>
        <time>2010-12-26T16:45:13Z</time>
      </trkpt>
      <trkpt lat="34.74684901535511" lon="-2.640056004747748">
        <ele>394.30000000000001</ele>
        <time>2010-12-26T16:45:22Z</time>
      </trkpt>
      <trkpt lat="34.746652040630579" lon="-2.640025997534394">
        <ele>392.80000000000001</ele>
        <time>2010-12-26T16:45:29Z</time>
      </trkpt>
      <trkpt lat="34.746610969305038" lon="-2.63980002142489">
        <ele>391.89999999999998</ele>
        <time>2010-12-26T16:45:35Z</time>
      </trkpt>
      <trkpt lat="34.746726974844933" lon="-2.639468014240265">
        <ele>392.80000000000001</ele>
        <time>2010-12-26T16:45:42Z</time>
      </trkpt>
      <trkpt lat="34.746826970949769" lon="-2.639267016202211">
        <ele>393.30000000000001</ele>
        <time>2010-12-26T16:45:46Z</time>
      </trkpt>
      <trkpt lat="34.746962003409863" lon="-2.63881498016417">
        <ele>392.80000000000001</ele>
        <time>2010-12-26T16:45:54Z</time>
      </trkpt>
      <trkpt lat="34.746886985376477" lon="-2.638547010719776">
        <ele>391.89999999999998</ele>
        <time>2010-12-26T16:46:01Z</time>
      </trkpt>
      <trkpt lat="34.746706020087004" lon="-2.638463024049997">
        <ele>390.89999999999998</ele>
        <time>2010-12-26T16:46:07Z</time>
      </trkpt>
      <trkpt lat="34.746770979836583" lon="-2.638292033225298">
        <ele>390.39999999999998</ele>
        <time>2010-12-26T16:46:12Z</time>
      </trkpt>
      <trkpt lat="34.746943982318044" lon="-2.638170998543501">
        <ele>389.5</ele>
        <time>2010-12-26T16:46:16Z</time>
      </trkpt>
      <trkpt lat="34.74708303809166" lon="-2.637914009392262">
        <ele>388</ele>
        <time>2010-12-26T16:46:22Z</time>
      </trkpt>
      <trkpt lat="34.747163001447916" lon="-2.637253012508154">
        <ele>385.10000000000002</ele>
        <time>2010-12-26T16:46:34Z</time>
      </trkpt>
      <trkpt lat="34.747159983962774" lon="-2.637056037783623">
        <ele>384.19999999999999</ele>
        <time>2010-12-26T16:46:37Z</time>
      </trkpt>
      <trkpt lat="34.747287975624204" lon="-2.636576006188989">
        <ele>382.30000000000001</ele>
        <time>2010-12-26T16:46:44Z</time>
      </trkpt>
      <trkpt lat="34.74738403223455" lon="-2.636398980394006">
        <ele>381.80000000000001</ele>
        <time>2010-12-26T16:46:47Z</time>
      </trkpt>
      <trkpt lat="34.747425019741058" lon="-2.636065967381001">
        <ele>381.30000000000001</ele>
        <time>2010-12-26T16:46:53Z</time>
      </trkpt>
      <trkpt lat="34.747287975624204" lon="-2.635303968563676">
        <ele>378.39999999999998</ele>
        <time>2010-12-26T16:47:04Z</time>
      </trkpt>
      <trkpt lat="34.746991004794836" lon="-2.634113989770412">
        <ele>377.89999999999998</ele>
        <time>2010-12-26T16:47:19Z</time>
      </trkpt>
      <trkpt lat="34.746908023953438" lon="-2.63387099839747">
        <ele>376.5</ele>
        <time>2010-12-26T16:47:22Z</time>
      </trkpt>
      <trkpt lat="34.746779026463628" lon="-2.63357101008296">
        <ele>375.10000000000002</ele>
        <time>2010-12-26T16:47:27Z</time>
      </trkpt>
      <trkpt lat="34.746663020923734" lon="-2.633198015391827">
        <ele>373.60000000000002</ele>
        <time>2010-12-26T16:47:33Z</time>
      </trkpt>
      <trkpt lat="34.746340988203883" lon="-2.632638020440936">
        <ele>372.19999999999999</ele>
        <time>2010-12-26T16:47:43Z</time>
      </trkpt>
      <trkpt lat="34.746155999600887" lon="-2.632466023787856">
        <ele>372.60000000000002</ele>
        <time>2010-12-26T16:47:48Z</time>
      </trkpt>
      <trkpt lat="34.745467007160187" lon="-2.632127981632948">
        <ele>371.19999999999999</ele>
        <time>2010-12-26T16:48:05Z</time>
      </trkpt>
      <trkpt lat="34.74530297331512" lon="-2.632005019113421">
        <ele>372.19999999999999</ele>
        <time>2010-12-26T16:48:13Z</time>
      </trkpt>
      <trkpt lat="34.745229966938496" lon="-2.631882978603244">
        <ele>372.60000000000002</ele>
        <time>2010-12-26T16:48:22Z</time>
      </trkpt>
      <trkpt lat="34.74513198249042" lon="-2.631391966715455">
        <ele>376</ele>
        <time>2010-12-26T16:48:37Z</time>
      </trkpt>
      <trkpt lat="34.745082026347518" lon="-2.631045961752534">
        <ele>379.89999999999998</ele>
        <time>2010-12-26T16:48:48Z</time>
      </trkpt>
      <trkpt lat="34.744967026636004" lon="-2.630495019257069">
        <ele>382.69999999999999</ele>
        <time>2010-12-26T16:49:01Z</time>
      </trkpt>
      <trkpt lat="34.744794024154544" lon="-2.629835028201342">
        <ele>386.10000000000002</ele>
        <time>2010-12-26T16:49:18Z</time>
      </trkpt>
      <trkpt lat="34.74468195810914" lon="-2.629377963021398">
        <ele>388.5</ele>
        <time>2010-12-26T16:49:33Z</time>
      </trkpt>
      <trkpt lat="34.744667960330844" lon="-2.629265980795026">
        <ele>390</ele>
        <time>2010-12-26T16:49:44Z</time>
      </trkpt>
      <trkpt lat="34.744620015844703" lon="-2.629153998568654">
        <ele>389</ele>
        <time>2010-12-26T16:50:43Z</time>
      </trkpt>
      <trkpt lat="34.744388004764915" lon="-2.628953000530601">
        <ele>387.10000000000002</ele>
        <time>2010-12-26T16:50:58Z</time>
      </trkpt>
      <trkpt lat="34.744210978969932" lon="-2.628756025806069">
        <ele>385.60000000000002</ele>
        <time>2010-12-26T16:51:09Z</time>
      </trkpt>
      <trkpt lat="34.744053985923529" lon="-2.628621999174357">
        <ele>387.10000000000002</ele>
        <time>2010-12-26T16:51:20Z</time>
      </trkpt>
      <trkpt lat="34.743905961513519" lon="-2.628427036106587">
        <ele>368.80000000000001</ele>
        <time>2010-12-26T16:56:41Z</time>
      </trkpt>
      <trkpt lat="34.743945021182299" lon="-2.62824397534132">
        <ele>367.80000000000001</ele>
        <time>2010-12-26T16:56:53Z</time>
      </trkpt>
      <trkpt lat="34.744049962610006" lon="-2.628008024767041">
        <ele>368.80000000000001</ele>
        <time>2010-12-26T16:57:04Z</time>
      </trkpt>
      <trkpt lat="34.744338970631361" lon="-2.627657996490598">
        <ele>377.89999999999998</ele>
        <time>2010-12-26T16:57:21Z</time>
      </trkpt>
      <trkpt lat="34.744283985346556" lon="-2.627451969310641">
        <ele>378.39999999999998</ele>
        <time>2010-12-26T16:57:30Z</time>
      </trkpt>
      <trkpt lat="34.744394961744547" lon="-2.627359014004469">
        <ele>380.80000000000001</ele>
        <time>2010-12-26T16:57:37Z</time>
      </trkpt>
      <trkpt lat="34.744692016392946" lon="-2.627441994845867">
        <ele>387.5</ele>
        <time>2010-12-26T16:57:50Z</time>
      </trkpt>
      <trkpt lat="34.745050007477403" lon="-2.627234039828181">
        <ele>395.19999999999999</ele>
        <time>2010-12-26T16:58:04Z</time>
      </trkpt>
      <trkpt lat="34.744644993916154" lon="-2.627302017062903">
        <ele>403.89999999999998</ele>
        <time>2010-12-26T16:58:37Z</time>
      </trkpt>
      <trkpt lat="34.744373001158237" lon="-2.627029018476605">
        <ele>394.80000000000001</ele>
        <time>2010-12-26T16:58:45Z</time>
      </trkpt>
      <trkpt lat="34.74390797317028" lon="-2.626425018534064">
        <ele>395.19999999999999</ele>
        <time>2010-12-26T16:59:02Z</time>
      </trkpt>
      <trkpt lat="34.743461972102523" lon="-2.625995026901364">
        <ele>399.10000000000002</ele>
        <time>2010-12-26T16:59:18Z</time>
      </trkpt>
      <trkpt lat="34.743145974352956" lon="-2.625597976148129">
        <ele>401</ele>
        <time>2010-12-26T16:59:31Z</time>
      </trkpt>
      <trkpt lat="34.742701984941959" lon="-2.625388009473681">
        <ele>402.39999999999998</ele>
        <time>2010-12-26T16:59:43Z</time>
      </trkpt>
      <trkpt lat="34.742425968870521" lon="-2.625216012820602">
        <ele>405.30000000000001</ele>
        <time>2010-12-26T16:59:53Z</time>
      </trkpt>
      <trkpt lat="34.742341982200742" lon="-2.624658029526472">
        <ele>409.69999999999999</ele>
        <time>2010-12-26T17:00:04Z</time>
      </trkpt>
      <trkpt lat="34.742365032434464" lon="-2.624403974041343">
        <ele>411.10000000000002</ele>
        <time>2010-12-26T17:00:10Z</time>
      </trkpt>
      <trkpt lat="34.742417000234127" lon="-2.62422502040863">
        <ele>409.69999999999999</ele>
        <time>2010-12-26T17:00:15Z</time>
      </trkpt>
      <trkpt lat="34.742329996079206" lon="-2.624165005981922">
        <ele>411.60000000000002</ele>
        <time>2010-12-26T17:00:19Z</time>
      </trkpt>
      <trkpt lat="34.742145007476211" lon="-2.624113960191608">
        <ele>413</ele>
        <time>2010-12-26T17:00:24Z</time>
      </trkpt>
      <trkpt lat="34.741871003061533" lon="-2.623710036277771">
        <ele>414</ele>
        <time>2010-12-26T17:00:35Z</time>
      </trkpt>
      <trkpt lat="34.741777963936329" lon="-2.623264035210013">
        <ele>417.30000000000001</ele>
        <time>2010-12-26T17:00:46Z</time>
      </trkpt>
      <trkpt lat="34.741651983931661" lon="-2.623123973608017">
        <ele>419.80000000000001</ele>
        <time>2010-12-26T17:00:52Z</time>
      </trkpt>
      <trkpt lat="34.741347972303629" lon="-2.622945019975305">
        <ele>423.10000000000002</ele>
        <time>2010-12-26T17:01:02Z</time>
      </trkpt>
      <trkpt lat="34.741203971207142" lon="-2.62265601195395">
        <ele>423.60000000000002</ele>
        <time>2010-12-26T17:01:12Z</time>
      </trkpt>
      <trkpt lat="34.741049995645881" lon="-2.622761959210038">
        <ele>427</ele>
        <time>2010-12-26T17:01:21Z</time>
      </trkpt>
      <trkpt lat="34.741343026980758" lon="-2.622534977272153">
        <ele>442.80000000000001</ele>
        <time>2010-12-26T17:01:39Z</time>
      </trkpt>
      <trkpt lat="34.741629017516971" lon="-2.622787021100521">
        <ele>452.89999999999998</ele>
        <time>2010-12-26T17:01:49Z</time>
      </trkpt>
      <trkpt lat="34.741934034973383" lon="-2.622729018330574">
        <ele>460.10000000000002</ele>
        <time>2010-12-26T17:01:59Z</time>
      </trkpt>
      <trkpt lat="34.742106031626463" lon="-2.622704962268472">
        <ele>463.5</ele>
        <time>2010-12-26T17:02:05Z</time>
      </trkpt>
      <trkpt lat="34.741863962262869" lon="-2.622616030275822">
        <ele>464.89999999999998</ele>
        <time>2010-12-26T17:02:26Z</time>
      </trkpt>
      <trkpt lat="34.741662964224815" lon="-2.622392987832427">
        <ele>461.60000000000002</ele>
        <time>2010-12-26T17:02:34Z</time>
      </trkpt>
      <trkpt lat="34.741445034742355" lon="-2.62192795984447">
        <ele>460.60000000000002</ele>
        <time>2010-12-26T17:02:45Z</time>
      </trkpt>
      <trkpt lat="34.741337997838855" lon="-2.621887978166342">
        <ele>461.60000000000002</ele>
        <time>2010-12-26T17:02:48Z</time>
      </trkpt>
      <trkpt lat="34.741425001993775" lon="-2.621724028140307">
        <ele>466.89999999999998</ele>
        <time>2010-12-26T17:02:54Z</time>
      </trkpt>
      <trkpt lat="34.741546958684921" lon="-2.621508026495576">
        <ele>469.30000000000001</ele>
        <time>2010-12-26T17:03:01Z</time>
      </trkpt>
      <trkpt lat="34.741465989500284" lon="-2.62119303457439">
        <ele>465.39999999999998</ele>
        <time>2010-12-26T17:03:12Z</time>
      </trkpt>
      <trkpt lat="34.741400023922324" lon="-2.621034029871225">
        <ele>462.10000000000002</ele>
        <time>2010-12-26T17:03:48Z</time>
      </trkpt>
      <trkpt lat="34.741144962608814" lon="-2.620502030476928">
        <ele>459.19999999999999</ele>
        <time>2010-12-26T17:04:04Z</time>
      </trkpt>
      <trkpt lat="34.740954022854567" lon="-2.620069021359086">
        <ele>456.80000000000001</ele>
        <time>2010-12-26T17:04:18Z</time>
      </trkpt>
      <trkpt lat="34.741051001474261" lon="-2.620027028024197">
        <ele>457.19999999999999</ele>
        <time>2010-12-26T17:04:28Z</time>
      </trkpt>
      <trkpt lat="34.741304973140359" lon="-2.620385019108653">
        <ele>459.60000000000002</ele>
        <time>2010-12-26T17:04:42Z</time>
      </trkpt>
      <trkpt lat="34.741696994751692" lon="-2.620714008808136">
        <ele>460.10000000000002</ele>
        <time>2010-12-26T17:04:58Z</time>
      </trkpt>
      <trkpt lat="34.741991031914949" lon="-2.621032018214464">
        <ele>457.69999999999999</ele>
        <time>2010-12-26T17:05:10Z</time>
      </trkpt>
      <trkpt lat="34.742372995242476" lon="-2.62128196656704">
        <ele>454.39999999999998</ele>
        <time>2010-12-26T17:05:23Z</time>
      </trkpt>
      <trkpt lat="34.742197981104255" lon="-2.621040986850858">
        <ele>440.89999999999998</ele>
        <time>2010-12-26T17:05:59Z</time>
      </trkpt>
      <trkpt lat="34.741923976689577" lon="-2.620665980502963">
        <ele>439.5</ele>
        <time>2010-12-26T17:06:08Z</time>
      </trkpt>
      <trkpt lat="34.741492979228497" lon="-2.620126018300653">
        <ele>436.60000000000002</ele>
        <time>2010-12-26T17:06:21Z</time>
      </trkpt>
      <trkpt lat="34.741446040570736" lon="-2.61997003108263">
        <ele>436.10000000000002</ele>
        <time>2010-12-26T17:06:25Z</time>
      </trkpt>
      <trkpt lat="34.741593981161714" lon="-2.619919991120696">
        <ele>436.10000000000002</ele>
        <time>2010-12-26T17:06:31Z</time>
      </trkpt>
      <trkpt lat="34.741849964484572" lon="-2.620118977501988">
        <ele>437.5</ele>
        <time>2010-12-26T17:06:38Z</time>
      </trkpt>
      <trkpt lat="34.742324966937304" lon="-2.62022802606225">
        <ele>443.30000000000001</ele>
        <time>2010-12-26T17:06:47Z</time>
      </trkpt>
      <trkpt lat="34.742468968033791" lon="-2.620321987196803">
        <ele>445.19999999999999</ele>
        <time>2010-12-26T17:06:50Z</time>
      </trkpt>
      <trkpt lat="34.742721011862159" lon="-2.620344031602144">
        <ele>447.60000000000002</ele>
        <time>2010-12-26T17:06:56Z</time>
      </trkpt>
      <trkpt lat="34.743445040658116" lon="-2.61994899250567">
        <ele>450.5</ele>
        <time>2010-12-26T17:07:10Z</time>
      </trkpt>
      <trkpt lat="34.74364897236228" lon="-2.61988403275609">
        <ele>451</ele>
        <time>2010-12-26T17:07:14Z</time>
      </trkpt>
      <trkpt lat="34.743825998157263" lon="-2.619696026667953">
        <ele>452</ele>
        <time>2010-12-26T17:07:19Z</time>
      </trkpt>
      <trkpt lat="34.74416303448379" lon="-2.619102001190186">
        <ele>452.89999999999998</ele>
        <time>2010-12-26T17:07:30Z</time>
      </trkpt>
      <trkpt lat="34.744215002283454" lon="-2.61898297816515">
        <ele>453.39999999999998</ele>
        <time>2010-12-26T17:07:32Z</time>
      </trkpt>
      <trkpt lat="34.744218019768596" lon="-2.618686007335782">
        <ele>454.39999999999998</ele>
        <time>2010-12-26T17:07:39Z</time>
      </trkpt>
      <trkpt lat="34.743889030069113" lon="-2.61855298653245">
        <ele>455.80000000000001</ele>
        <time>2010-12-26T17:07:48Z</time>
      </trkpt>
      <trkpt lat="34.743645032867789" lon="-2.618285017088056">
        <ele>456.30000000000001</ele>
        <time>2010-12-26T17:07:54Z</time>
      </trkpt>
      <trkpt lat="34.743315959349275" lon="-2.617426039651036">
        <ele>455.30000000000001</ele>
        <time>2010-12-26T17:08:07Z</time>
      </trkpt>
      <trkpt lat="34.743160977959633" lon="-2.616937039420009">
        <ele>454.80000000000001</ele>
        <time>2010-12-26T17:08:15Z</time>
      </trkpt>
      <trkpt lat="34.742829976603389" lon="-2.616409985348582">
        <ele>455.30000000000001</ele>
        <time>2010-12-26T17:08:26Z</time>
      </trkpt>
      <trkpt lat="34.742738027125597" lon="-2.616073032841086">
        <ele>457.19999999999999</ele>
        <time>2010-12-26T17:08:34Z</time>
      </trkpt>
      <trkpt lat="34.74272302351892" lon="-2.615857031196356">
        <ele>458.19999999999999</ele>
        <time>2010-12-26T17:08:38Z</time>
      </trkpt>
      <trkpt lat="34.742818996310234" lon="-2.615355961024761">
        <ele>457.69999999999999</ele>
        <time>2010-12-26T17:08:49Z</time>
      </trkpt>
      <trkpt lat="34.742894014343619" lon="-2.615163009613752">
        <ele>456.80000000000001</ele>
        <time>2010-12-26T17:08:54Z</time>
      </trkpt>
      <trkpt lat="34.743263991549611" lon="-2.614806024357677">
        <ele>455.30000000000001</ele>
        <time>2010-12-26T17:09:04Z</time>
      </trkpt>
      <trkpt lat="34.743591975420713" lon="-2.614647019654512">
        <ele>453.89999999999998</ele>
        <time>2010-12-26T17:09:11Z</time>
      </trkpt>
      <trkpt lat="34.743731031194329" lon="-2.614363040775061">
        <ele>452.89999999999998</ele>
        <time>2010-12-26T17:09:18Z</time>
      </trkpt>
      <trkpt lat="34.743620976805687" lon="-2.613398032262921">
        <ele>452.39999999999998</ele>
        <time>2010-12-26T17:09:34Z</time>
      </trkpt>
      <trkpt lat="34.743537995964289" lon="-2.61285899206996">
        <ele>452.89999999999998</ele>
        <time>2010-12-26T17:09:44Z</time>
      </trkpt>
      <trkpt lat="34.743546964600682" lon="-2.612653970718384">
        <ele>453.39999999999998</ele>
        <time>2010-12-26T17:09:48Z</time>
      </trkpt>
      <trkpt lat="34.743586024269462" lon="-2.612412991002202">
        <ele>452</ele>
        <time>2010-12-26T17:09:52Z</time>
      </trkpt>
      <trkpt lat="34.743673028424382" lon="-2.612206041812897">
        <ele>451.5</ele>
        <time>2010-12-26T17:09:56Z</time>
      </trkpt>
      <trkpt lat="34.743850976228714" lon="-2.611971013247967">
        <ele>451.5</ele>
        <time>2010-12-26T17:10:01Z</time>
      </trkpt>
      <trkpt lat="34.74405599758029" lon="-2.61157002300024">
        <ele>451</ele>
        <time>2010-12-26T17:10:08Z</time>
      </trkpt>
      <trkpt lat="34.744460005313158" lon="-2.611322002485395">
        <ele>450</ele>
        <time>2010-12-26T17:10:16Z</time>
      </trkpt>
      <trkpt lat="34.744720011949539" lon="-2.611256958916783">
        <ele>449.60000000000002</ele>
        <time>2010-12-26T17:10:23Z</time>
      </trkpt>
      <trkpt lat="34.745079008862376" lon="-2.611266011372209">
        <ele>446.69999999999999</ele>
        <time>2010-12-26T17:10:33Z</time>
      </trkpt>
      <trkpt lat="34.74523700773716" lon="-2.611201973631978">
        <ele>446.19999999999999</ele>
        <time>2010-12-26T17:10:37Z</time>
      </trkpt>
      <trkpt lat="34.745525009930134" lon="-2.610843982547522">
        <ele>447.19999999999999</ele>
        <time>2010-12-26T17:10:48Z</time>
      </trkpt>
      <trkpt lat="34.745632968842983" lon="-2.610831996425986">
        <ele>447.19999999999999</ele>
        <time>2010-12-26T17:10:56Z</time>
      </trkpt>
      <trkpt lat="34.745760038495064" lon="-2.610724959522486">
        <ele>447.60000000000002</ele>
        <time>2010-12-26T17:11:03Z</time>
      </trkpt>
    </trkseg>
  </trk>

  <trk>
    <name>101227</name>
    <extensions>
      <gpxx:TrackExtension xmlns:gpxx="http://www.garmin.com/xmlschemas/GpxExtensions/v3">
        <gpxx:DisplayColor>Yellow</gpxx:DisplayColor>
      </gpxx:TrackExtension>
    </extensions>
    <trkseg>
      <trkpt lat="34.745602961629629" lon="-2.610612977296114">
        <ele>491.85199999999998</ele>
        <time>2010-12-27T08:34:17Z</time>
      </trkpt>
      <trkpt lat="34.745729025453329" lon="-2.610650025308132">
        <ele>441.863</ele>
        <time>2010-12-27T08:35:51Z</time>
      </trkpt>
      <trkpt lat="34.745814017951488" lon="-2.610701993107796">
        <ele>443.30500000000001</ele>
        <time>2010-12-27T08:37:41Z</time>
      </trkpt>
      <trkpt lat="34.745756015181541" lon="-2.610607026144862">
        <ele>475.99000000000001</ele>
        <time>2010-12-27T08:56:03Z</time>
      </trkpt>
      <trkpt lat="34.745593992993236" lon="-2.610653964802623">
        <ele>444.26600000000002</ele>
        <time>2010-12-27T09:00:21Z</time>
      </trkpt>
      <trkpt lat="34.745769007131457" lon="-2.610681960359216">
        <ele>450.99599999999998</ele>
        <time>2010-12-27T09:16:32Z</time>
      </trkpt>
      <trkpt lat="34.745491985231638" lon="-2.610507030040026">
        <ele>442.34399999999999</ele>
        <time>2010-12-27T09:19:29Z</time>
      </trkpt>
      <trkpt lat="34.745286963880062" lon="-2.610493032261729">
        <ele>441.863</ele>
        <time>2010-12-27T09:19:36Z</time>
      </trkpt>
      <trkpt lat="34.745133994147182" lon="-2.610656982287765">
        <ele>436.57600000000002</ele>
        <time>2010-12-27T09:19:44Z</time>
      </trkpt>
      <trkpt lat="34.7450449783355" lon="-2.610893016681075">
        <ele>426.96300000000002</ele>
        <time>2010-12-27T09:19:55Z</time>
      </trkpt>
      <trkpt lat="34.745036009699106" lon="-2.611131984740496">
        <ele>425.04000000000002</ele>
        <time>2010-12-27T09:20:03Z</time>
      </trkpt>
      <trkpt lat="34.744753036648035" lon="-2.61135796085">
        <ele>416.86900000000003</ele>
        <time>2010-12-27T09:20:12Z</time>
      </trkpt>
      <trkpt lat="34.744610963389277" lon="-2.611415963619947">
        <ele>409.178</ele>
        <time>2010-12-27T09:20:20Z</time>
      </trkpt>
      <trkpt lat="34.744322961196303" lon="-2.611453011631966">
        <ele>405.33300000000003</ele>
        <time>2010-12-27T09:20:31Z</time>
      </trkpt>
      <trkpt lat="34.744217013940215" lon="-2.611429039388895">
        <ele>397.642</ele>
        <time>2010-12-27T09:20:51Z</time>
      </trkpt>
      <trkpt lat="34.744354980066419" lon="-2.61118596419692">
        <ele>389.471</ele>
        <time>2010-12-27T09:21:05Z</time>
      </trkpt>
      <trkpt lat="34.744745995849371" lon="-2.610437963157892">
        <ele>388.50999999999999</ele>
        <time>2010-12-27T09:21:21Z</time>
      </trkpt>
      <trkpt lat="34.744941964745522" lon="-2.609994979575276">
        <ele>394.75900000000001</ele>
        <time>2010-12-27T09:21:30Z</time>
      </trkpt>
      <trkpt lat="34.74508898332715" lon="-2.609260976314545">
        <ele>406.77499999999998</ele>
        <time>2010-12-27T09:21:43Z</time>
      </trkpt>
      <trkpt lat="34.745086971670389" lon="-2.609051009640098">
        <ele>409.178</ele>
        <time>2010-12-27T09:21:47Z</time>
      </trkpt>
      <trkpt lat="34.744998961687088" lon="-2.60877700522542">
        <ele>410.13999999999999</ele>
        <time>2010-12-27T09:21:52Z</time>
      </trkpt>
      <trkpt lat="34.744910029694438" lon="-2.608405016362667">
        <ele>404.85199999999998</ele>
        <time>2010-12-27T09:21:58Z</time>
      </trkpt>
      <trkpt lat="34.744759993627667" lon="-2.607991034165025">
        <ele>401.96899999999999</ele>
        <time>2010-12-27T09:22:07Z</time>
      </trkpt>
      <trkpt lat="34.744783965870738" lon="-2.607642011716962">
        <ele>404.85199999999998</ele>
        <time>2010-12-27T09:22:12Z</time>
      </trkpt>
      <trkpt lat="34.74480802193284" lon="-2.606956036761403">
        <ele>392.83600000000001</ele>
        <time>2010-12-27T09:22:23Z</time>
      </trkpt>
      <trkpt lat="34.745014971122146" lon="-2.606383971869946">
        <ele>385.62599999999998</ele>
        <time>2010-12-27T09:22:31Z</time>
      </trkpt>
      <trkpt lat="34.74521798081696" lon="-2.606136035174131">
        <ele>384.66500000000002</ele>
        <time>2010-12-27T09:22:36Z</time>
      </trkpt>
      <trkpt lat="34.745311019942164" lon="-2.60589798912406">
        <ele>386.58699999999999</ele>
        <time>2010-12-27T09:22:40Z</time>
      </trkpt>
      <trkpt lat="34.745325017720461" lon="-2.605474032461643">
        <ele>386.58699999999999</ele>
        <time>2010-12-27T09:22:47Z</time>
      </trkpt>
      <trkpt lat="34.745347984135151" lon="-2.60529700666666">
        <ele>387.06799999999998</ele>
        <time>2010-12-27T09:22:55Z</time>
      </trkpt>
      <trkpt lat="34.745341027155519" lon="-2.604868020862341">
        <ele>387.06799999999998</ele>
        <time>2010-12-27T09:23:15Z</time>
      </trkpt>
      <trkpt lat="34.745084038004279" lon="-2.60428799316287">
        <ele>386.58699999999999</ele>
        <time>2010-12-27T09:23:25Z</time>
      </trkpt>
      <trkpt lat="34.745040033012629" lon="-2.604185985401273">
        <ele>388.029</ele>
        <time>2010-12-27T09:23:27Z</time>
      </trkpt>
      <trkpt lat="34.744801986962557" lon="-2.603476038202643">
        <ele>392.83600000000001</ele>
        <time>2010-12-27T09:23:37Z</time>
      </trkpt>
      <trkpt lat="34.744431003928185" lon="-2.602730970829725">
        <ele>401.00700000000001</ele>
        <time>2010-12-27T09:23:47Z</time>
      </trkpt>
      <trkpt lat="34.744140990078449" lon="-2.602164018899202">
        <ele>408.69799999999998</ele>
        <time>2010-12-27T09:23:57Z</time>
      </trkpt>
      <trkpt lat="34.743989026173949" lon="-2.601886996999383">
        <ele>411.101</ele>
        <time>2010-12-27T09:24:02Z</time>
      </trkpt>
      <trkpt lat="34.743957007303834" lon="-2.601481983438134">
        <ele>413.50400000000002</ele>
        <time>2010-12-27T09:24:08Z</time>
      </trkpt>
      <trkpt lat="34.74418600089848" lon="-2.601202027872205">
        <ele>415.42700000000002</ele>
        <time>2010-12-27T09:24:13Z</time>
      </trkpt>
      <trkpt lat="34.744860995560884" lon="-2.600759966298938">
        <ele>427.92399999999998</ele>
        <time>2010-12-27T09:24:24Z</time>
      </trkpt>
      <trkpt lat="34.745390983298421" lon="-2.600452015176415">
        <ele>426.48200000000003</ele>
        <time>2010-12-27T09:24:33Z</time>
      </trkpt>
      <trkpt lat="34.745832961052656" lon="-2.600021017715335">
        <ele>418.31099999999998</ele>
        <time>2010-12-27T09:24:42Z</time>
      </trkpt>
      <trkpt lat="34.745999006554484" lon="-2.599815996363759">
        <ele>414.46499999999997</ele>
        <time>2010-12-27T09:24:46Z</time>
      </trkpt>
      <trkpt lat="34.746111994609237" lon="-2.599334036931396">
        <ele>411.101</ele>
        <time>2010-12-27T09:24:53Z</time>
      </trkpt>
      <trkpt lat="34.746038988232613" lon="-2.599070006981492">
        <ele>411.101</ele>
        <time>2010-12-27T09:24:57Z</time>
      </trkpt>
      <trkpt lat="34.745611008256674" lon="-2.598342038691044">
        <ele>411.58199999999999</ele>
        <time>2010-12-27T09:25:08Z</time>
      </trkpt>
      <trkpt lat="34.745193002745509" lon="-2.597792018204927">
        <ele>417.35000000000002</ele>
        <time>2010-12-27T09:25:19Z</time>
      </trkpt>
      <trkpt lat="34.745111027732491" lon="-2.597736027091742">
        <ele>416.86900000000003</ele>
        <time>2010-12-27T09:25:22Z</time>
      </trkpt>
      <trkpt lat="34.745017988607287" lon="-2.597457999363542">
        <ele>413.50400000000002</ele>
        <time>2010-12-27T09:25:29Z</time>
      </trkpt>
      <trkpt lat="34.74521798081696" lon="-2.597066983580589">
        <ele>413.50400000000002</ele>
        <time>2010-12-27T09:25:40Z</time>
      </trkpt>
      <trkpt lat="34.745319988578558" lon="-2.596876965835691">
        <ele>418.79199999999997</ele>
        <time>2010-12-27T09:25:58Z</time>
      </trkpt>
      <trkpt lat="34.745213035494089" lon="-2.596814017742872">
        <ele>426.96300000000002</ele>
        <time>2010-12-27T09:26:05Z</time>
      </trkpt>
      <trkpt lat="34.745097029954195" lon="-2.596947960555553">
        <ele>428.40499999999997</ele>
        <time>2010-12-27T09:26:10Z</time>
      </trkpt>
      <trkpt lat="34.7448739875108" lon="-2.597139989957213">
        <ele>425.04000000000002</ele>
        <time>2010-12-27T09:26:17Z</time>
      </trkpt>
      <trkpt lat="34.744735015556216" lon="-2.597197992727161">
        <ele>422.637</ele>
        <time>2010-12-27T09:26:20Z</time>
      </trkpt>
      <trkpt lat="34.744453970342875" lon="-2.597087016329169">
        <ele>422.15600000000001</ele>
        <time>2010-12-27T09:26:26Z</time>
      </trkpt>
      <trkpt lat="34.744172003120184" lon="-2.596682002767921">
        <ele>426.48200000000003</ele>
        <time>2010-12-27T09:26:39Z</time>
      </trkpt>
      <trkpt lat="34.743878971785307" lon="-2.596207000315189">
        <ele>432.25</ele>
        <time>2010-12-27T09:26:52Z</time>
      </trkpt>
      <trkpt lat="34.743779981508851" lon="-2.595856972038746">
        <ele>433.69200000000001</ele>
        <time>2010-12-27T09:27:00Z</time>
      </trkpt>
      <trkpt lat="34.743890035897493" lon="-2.59522195905447">
        <ele>438.01799999999997</ele>
        <time>2010-12-27T09:27:12Z</time>
      </trkpt>
      <trkpt lat="34.744022972881794" lon="-2.594880983233452">
        <ele>437.05700000000002</ele>
        <time>2010-12-27T09:27:19Z</time>
      </trkpt>
      <trkpt lat="34.744154987856746" lon="-2.594734970480204">
        <ele>437.05700000000002</ele>
        <time>2010-12-27T09:27:23Z</time>
      </trkpt>
      <trkpt lat="34.744839034974575" lon="-2.594396006315947">
        <ele>445.70800000000003</ele>
        <time>2010-12-27T09:27:38Z</time>
      </trkpt>
      <trkpt lat="34.745011031627655" lon="-2.594286035746336">
        <ele>447.14999999999998</ele>
        <time>2010-12-27T09:27:42Z</time>
      </trkpt>
      <trkpt lat="34.745234996080399" lon="-2.594048995524645">
        <ele>452.91800000000001</ele>
        <time>2010-12-27T09:27:48Z</time>
      </trkpt>
      <trkpt lat="34.745267014950514" lon="-2.593781026080251">
        <ele>453.88</ele>
        <time>2010-12-27T09:27:54Z</time>
      </trkpt>
      <trkpt lat="34.745215969160199" lon="-2.593626966699958">
        <ele>454.36000000000001</ele>
        <time>2010-12-27T09:27:57Z</time>
      </trkpt>
      <trkpt lat="34.745296016335487" lon="-2.593238968402147">
        <ele>453.88</ele>
        <time>2010-12-27T09:28:04Z</time>
      </trkpt>
      <trkpt lat="34.745462983846664" lon="-2.593015003949404">
        <ele>455.322</ele>
        <time>2010-12-27T09:28:09Z</time>
      </trkpt>
      <trkpt lat="34.745861040428281" lon="-2.592668998986483">
        <ele>468.29899999999998</ele>
        <time>2010-12-27T09:28:20Z</time>
      </trkpt>
      <trkpt lat="34.746005041524768" lon="-2.592567997053266">
        <ele>470.70299999999997</ele>
        <time>2010-12-27T09:28:24Z</time>
      </trkpt>
      <trkpt lat="34.746154993772507" lon="-2.592563973739743">
        <ele>470.70299999999997</ele>
        <time>2010-12-27T09:28:28Z</time>
      </trkpt>
      <trkpt lat="34.746319027617574" lon="-2.592590041458607">
        <ele>472.14499999999998</ele>
        <time>2010-12-27T09:28:32Z</time>
      </trkpt>
      <trkpt lat="34.746576016768813" lon="-2.592493984848261">
        <ele>465.89600000000002</ele>
        <time>2010-12-27T09:28:38Z</time>
      </trkpt>
      <trkpt lat="34.746752036735415" lon="-2.592173041775823">
        <ele>451.95699999999999</ele>
        <time>2010-12-27T09:28:48Z</time>
      </trkpt>
      <trkpt lat="34.746733009815216" lon="-2.592014037072659">
        <ele>449.55399999999997</ele>
        <time>2010-12-27T09:28:51Z</time>
      </trkpt>
      <trkpt lat="34.74682898260653" lon="-2.591412970796228">
        <ele>457.24400000000003</ele>
        <time>2010-12-27T09:29:01Z</time>
      </trkpt>
      <trkpt lat="34.746912969276309" lon="-2.590993959456682">
        <ele>466.85700000000003</ele>
        <time>2010-12-27T09:29:08Z</time>
      </trkpt>
      <trkpt lat="34.746986981481314" lon="-2.590200025588274">
        <ele>486.56400000000002</ele>
        <time>2010-12-27T09:29:21Z</time>
      </trkpt>
      <trkpt lat="34.747073985636234" lon="-2.589522013440728">
        <ele>503.387</ele>
        <time>2010-12-27T09:29:32Z</time>
      </trkpt>
      <trkpt lat="34.747087983414531" lon="-2.589407013729215">
        <ele>505.791</ele>
        <time>2010-12-27T09:29:34Z</time>
      </trkpt>
      <trkpt lat="34.747132994234562" lon="-2.589081041514874">
        <ele>516.846</ele>
        <time>2010-12-27T09:29:42Z</time>
      </trkpt>
      <trkpt lat="34.747058982029557" lon="-2.588822040706873">
        <ele>524.53599999999994</ele>
        <time>2010-12-27T09:29:50Z</time>
      </trkpt>
      <trkpt lat="34.746998967602849" lon="-2.588173029944301">
        <ele>513.96199999999999</ele>
        <time>2010-12-27T09:30:03Z</time>
      </trkpt>
      <trkpt lat="34.747007014229894" lon="-2.587950993329287">
        <ele>503.387</ele>
        <time>2010-12-27T09:30:07Z</time>
      </trkpt>
      <trkpt lat="34.746963009238243" lon="-2.587519995868206">
        <ele>489.92899999999997</ele>
        <time>2010-12-27T09:30:16Z</time>
      </trkpt>
      <trkpt lat="34.747141962870955" lon="-2.587150018662214">
        <ele>480.31599999999997</ele>
        <time>2010-12-27T09:30:26Z</time>
      </trkpt>
      <trkpt lat="34.747240031138062" lon="-2.586938962340355">
        <ele>477.91199999999998</ele>
        <time>2010-12-27T09:30:32Z</time>
      </trkpt>
      <trkpt lat="34.74712997674942" lon="-2.586803007870913">
        <ele>476.471</ele>
        <time>2010-12-27T09:30:36Z</time>
      </trkpt>
      <trkpt lat="34.746940964832902" lon="-2.586630005389452">
        <ele>473.58699999999999</ele>
        <time>2010-12-27T09:30:45Z</time>
      </trkpt>
      <trkpt lat="34.746888997033238" lon="-2.586511988192797">
        <ele>488.96800000000002</ele>
        <time>2010-12-27T09:31:19Z</time>
      </trkpt>
      <trkpt lat="34.746988993138075" lon="-2.586204037070274">
        <ele>475.029</ele>
        <time>2010-12-27T09:31:29Z</time>
      </trkpt>
      <trkpt lat="34.747019000351429" lon="-2.58585199713707">
        <ele>469.26100000000002</ele>
        <time>2010-12-27T09:31:38Z</time>
      </trkpt>
      <trkpt lat="34.747166018933058" lon="-2.585295019671321">
        <ele>468.29899999999998</ele>
        <time>2010-12-27T09:31:49Z</time>
      </trkpt>
      <trkpt lat="34.747259980067611" lon="-2.585034007206559">
        <ele>471.18299999999999</ele>
        <time>2010-12-27T09:31:54Z</time>
      </trkpt>
      <trkpt lat="34.747348995879292" lon="-2.584517011418939">
        <ele>472.14499999999998</ele>
        <time>2010-12-27T09:32:05Z</time>
      </trkpt>
      <trkpt lat="34.747592993080616" lon="-2.584454985335469">
        <ele>479.35399999999998</ele>
        <time>2010-12-27T09:32:13Z</time>
      </trkpt>
      <trkpt lat="34.747771024703979" lon="-2.584449034184218">
        <ele>484.161</ele>
        <time>2010-12-27T09:32:17Z</time>
      </trkpt>
      <trkpt lat="34.748259019106627" lon="-2.584237977862358">
        <ele>483.68000000000001</ele>
        <time>2010-12-27T09:32:29Z</time>
      </trkpt>
      <trkpt lat="34.748409977182746" lon="-2.58413496427238">
        <ele>479.83499999999998</ele>
        <time>2010-12-27T09:32:35Z</time>
      </trkpt>
      <trkpt lat="34.748791018500924" lon="-2.583672031760216">
        <ele>486.56400000000002</ele>
        <time>2010-12-27T09:32:48Z</time>
      </trkpt>
      <trkpt lat="34.749158984050155" lon="-2.583127040416002">
        <ele>476.471</ele>
        <time>2010-12-27T09:33:00Z</time>
      </trkpt>
      <trkpt lat="34.749332992359996" lon="-2.582995025441051">
        <ele>479.35399999999998</ele>
        <time>2010-12-27T09:33:04Z</time>
      </trkpt>
      <trkpt lat="34.749864991754293" lon="-2.582827974110842">
        <ele>490.88999999999999</ele>
        <time>2010-12-27T09:33:17Z</time>
      </trkpt>
      <trkpt lat="34.750439990311861" lon="-2.582667041569948">
        <ele>495.697</ele>
        <time>2010-12-27T09:33:30Z</time>
      </trkpt>
      <trkpt lat="34.750993028283119" lon="-2.582336040213704">
        <ele>495.21600000000001</ele>
        <time>2010-12-27T09:33:42Z</time>
      </trkpt>
      <trkpt lat="34.751315983012319" lon="-2.582151973620057">
        <ele>491.37099999999998</ele>
        <time>2010-12-27T09:33:50Z</time>
      </trkpt>
      <trkpt lat="34.751484040170908" lon="-2.582102017477155">
        <ele>490.88999999999999</ele>
        <time>2010-12-27T09:33:54Z</time>
      </trkpt>
      <trkpt lat="34.75172895938158" lon="-2.581968996673822">
        <ele>488.48700000000002</ele>
        <time>2010-12-27T09:34:00Z</time>
      </trkpt>
      <trkpt lat="34.75189701654017" lon="-2.58179197087884">
        <ele>482.71899999999999</ele>
        <time>2010-12-27T09:34:05Z</time>
      </trkpt>
      <trkpt lat="34.752075970172882" lon="-2.581482008099556">
        <ele>475.99000000000001</ele>
        <time>2010-12-27T09:34:13Z</time>
      </trkpt>
      <trkpt lat="34.752251990139484" lon="-2.581215966492891">
        <ele>469.74099999999999</ele>
        <time>2010-12-27T09:34:19Z</time>
      </trkpt>
      <trkpt lat="34.752231035381556" lon="-2.580917989835143">
        <ele>479.35399999999998</ele>
        <time>2010-12-27T09:34:25Z</time>
      </trkpt>
      <trkpt lat="34.751887964084744" lon="-2.58075999096036">
        <ele>472.625</ele>
        <time>2010-12-27T09:34:35Z</time>
      </trkpt>
      <trkpt lat="34.751754021272063" lon="-2.58065203204751">
        <ele>469.26100000000002</ele>
        <time>2010-12-27T09:34:39Z</time>
      </trkpt>
      <trkpt lat="34.751398963853717" lon="-2.580327987670898">
        <ele>462.53100000000001</ele>
        <time>2010-12-27T09:34:50Z</time>
      </trkpt>
      <trkpt lat="34.751270972192287" lon="-2.580207036808133">
        <ele>459.64800000000002</ele>
        <time>2010-12-27T09:34:58Z</time>
      </trkpt>
      <trkpt lat="34.751173993572593" lon="-2.580121960490942">
        <ele>455.322</ele>
        <time>2010-12-27T09:35:10Z</time>
      </trkpt>
      <trkpt lat="34.750814996659756" lon="-2.579863965511322">
        <ele>449.55399999999997</ele>
        <time>2010-12-27T09:35:21Z</time>
      </trkpt>
      <trkpt lat="34.75069597363472" lon="-2.579828007146716">
        <ele>448.11200000000002</ele>
        <time>2010-12-27T09:35:24Z</time>
      </trkpt>
      <trkpt lat="34.750543003901839" lon="-2.579706972464919">
        <ele>447.14999999999998</ele>
        <time>2010-12-27T09:35:28Z</time>
      </trkpt>
      <trkpt lat="34.750101026147604" lon="-2.579095009714365">
        <ele>445.22800000000001</ele>
        <time>2010-12-27T09:35:40Z</time>
      </trkpt>
      <trkpt lat="34.749587969854474" lon="-2.578514982014895">
        <ele>441.38200000000001</ele>
        <time>2010-12-27T09:35:52Z</time>
      </trkpt>
      <trkpt lat="34.749252023175359" lon="-2.577935960143805">
        <ele>442.82400000000001</ele>
        <time>2010-12-27T09:36:02Z</time>
      </trkpt>
      <trkpt lat="34.74919100292027" lon="-2.577678970992565">
        <ele>443.786</ele>
        <time>2010-12-27T09:36:06Z</time>
      </trkpt>
      <trkpt lat="34.749143980443478" lon="-2.577190976589918">
        <ele>451.476</ele>
        <time>2010-12-27T09:36:15Z</time>
      </trkpt>
      <trkpt lat="34.748891014605761" lon="-2.576811024919152">
        <ele>449.55399999999997</ele>
        <time>2010-12-27T09:36:27Z</time>
      </trkpt>
      <trkpt lat="34.748737039044499" lon="-2.576520005241036">
        <ele>453.88</ele>
        <time>2010-12-27T09:36:37Z</time>
      </trkpt>
      <trkpt lat="34.748622961342335" lon="-2.576336022466421">
        <ele>457.24400000000003</ele>
        <time>2010-12-27T09:36:45Z</time>
      </trkpt>
      <trkpt lat="34.748791018500924" lon="-2.576300986111164">
        <ele>459.16699999999997</ele>
        <time>2010-12-27T09:36:51Z</time>
      </trkpt>
      <trkpt lat="34.748895037919283" lon="-2.576351026073098">
        <ele>458.68599999999998</ele>
        <time>2010-12-27T09:36:54Z</time>
      </trkpt>
      <trkpt lat="34.749306002631783" lon="-2.576694013550878">
        <ele>463.97300000000001</ele>
        <time>2010-12-27T09:37:08Z</time>
      </trkpt>
      <trkpt lat="34.749440029263496" lon="-2.576869027689099">
        <ele>467.81900000000002</ele>
        <time>2010-12-27T09:37:13Z</time>
      </trkpt>
      <trkpt lat="34.749481016770005" lon="-2.577006993815303">
        <ele>467.81900000000002</ele>
        <time>2010-12-27T09:37:16Z</time>
      </trkpt>
      <trkpt lat="34.749714033678174" lon="-2.577170021831989">
        <ele>467.33800000000002</ele>
        <time>2010-12-27T09:37:23Z</time>
      </trkpt>
      <trkpt lat="34.749800032004714" lon="-2.577061979100108">
        <ele>467.81900000000002</ele>
        <time>2010-12-27T09:37:26Z</time>
      </trkpt>
      <trkpt lat="34.749990971758962" lon="-2.576391007751226">
        <ele>460.60899999999998</ele>
        <time>2010-12-27T09:37:40Z</time>
      </trkpt>
      <trkpt lat="34.750097002834082" lon="-2.575977025553584">
        <ele>456.28300000000002</ele>
        <time>2010-12-27T09:37:51Z</time>
      </trkpt>
      <trkpt lat="34.750195993110538" lon="-2.575679970905185">
        <ele>457.24400000000003</ele>
        <time>2010-12-27T09:38:00Z</time>
      </trkpt>
      <trkpt lat="34.750333959236741" lon="-2.575241010636091">
        <ele>454.36000000000001</ele>
        <time>2010-12-27T09:38:09Z</time>
      </trkpt>
      <trkpt lat="34.75045901723206" lon="-2.575062979012728">
        <ele>458.68599999999998</ele>
        <time>2010-12-27T09:38:13Z</time>
      </trkpt>
      <trkpt lat="34.750952962785959" lon="-2.574756033718586">
        <ele>467.33800000000002</ele>
        <time>2010-12-27T09:38:26Z</time>
      </trkpt>
      <trkpt lat="34.751108027994633" lon="-2.574558975175023">
        <ele>474.548</ele>
        <time>2010-12-27T09:38:32Z</time>
      </trkpt>
      <trkpt lat="34.751130994409323" lon="-2.574003003537655">
        <ele>474.06700000000001</ele>
        <time>2010-12-27T09:38:42Z</time>
      </trkpt>
      <trkpt lat="34.751139963045716" lon="-2.573430016636848">
        <ele>468.29899999999998</ele>
        <time>2010-12-27T09:38:52Z</time>
      </trkpt>
      <trkpt lat="34.751153038814664" lon="-2.573191970586777">
        <ele>465.89600000000002</ele>
        <time>2010-12-27T09:38:57Z</time>
      </trkpt>
      <trkpt lat="34.751364011317492" lon="-2.572769019752741">
        <ele>464.935</ele>
        <time>2010-12-27T09:39:08Z</time>
      </trkpt>
      <trkpt lat="34.751743962988257" lon="-2.572730965912342">
        <ele>465.89600000000002</ele>
        <time>2010-12-27T09:39:18Z</time>
      </trkpt>
      <trkpt lat="34.752248972654343" lon="-2.572818975895643">
        <ele>468.29899999999998</ele>
        <time>2010-12-27T09:39:30Z</time>
      </trkpt>
      <trkpt lat="34.752626996487379" lon="-2.572758039459586">
        <ele>469.74099999999999</ele>
        <time>2010-12-27T09:39:40Z</time>
      </trkpt>
      <trkpt lat="34.752781977877021" lon="-2.572657959535718">
        <ele>471.18299999999999</ele>
        <time>2010-12-27T09:39:45Z</time>
      </trkpt>
      <trkpt lat="34.752704026177526" lon="-2.572565004229546">
        <ele>469.26100000000002</ele>
        <time>2010-12-27T09:39:50Z</time>
      </trkpt>
      <trkpt lat="34.752324996516109" lon="-2.572461990639567">
        <ele>466.85700000000003</ele>
        <time>2010-12-27T09:40:01Z</time>
      </trkpt>
      <trkpt lat="34.752058032900095" lon="-2.572022024542093">
        <ele>464.45400000000001</ele>
        <time>2010-12-27T09:40:14Z</time>
      </trkpt>
      <trkpt lat="34.751961976289749" lon="-2.571847010403872">
        <ele>461.089</ele>
        <time>2010-12-27T09:40:20Z</time>
      </trkpt>
      <trkpt lat="34.751935992389917" lon="-2.57154299877584">
        <ele>462.05099999999999</ele>
        <time>2010-12-27T09:40:26Z</time>
      </trkpt>
      <trkpt lat="34.7521130181849" lon="-2.571123987436295">
        <ele>466.37700000000001</ele>
        <time>2010-12-27T09:40:34Z</time>
      </trkpt>
      <trkpt lat="34.752369001507759" lon="-2.570903040468693">
        <ele>469.74099999999999</ele>
        <time>2010-12-27T09:40:41Z</time>
      </trkpt>
      <trkpt lat="34.752729004248977" lon="-2.570655019953847">
        <ele>479.35399999999998</ele>
        <time>2010-12-27T09:40:50Z</time>
      </trkpt>
      <trkpt lat="34.753025975078344" lon="-2.570617971941829">
        <ele>474.548</ele>
        <time>2010-12-27T09:40:56Z</time>
      </trkpt>
      <trkpt lat="34.753555040806532" lon="-2.570768008008599">
        <ele>482.71899999999999</ele>
        <time>2010-12-27T09:41:07Z</time>
      </trkpt>
      <trkpt lat="34.753738017752767" lon="-2.570843026041985">
        <ele>479.35399999999998</ele>
        <time>2010-12-27T09:41:12Z</time>
      </trkpt>
      <trkpt lat="34.75374598056078" lon="-2.570624006912112">
        <ele>475.029</ele>
        <time>2010-12-27T09:41:18Z</time>
      </trkpt>
      <trkpt lat="34.753419002518058" lon="-2.569800987839699">
        <ele>460.12799999999999</ele>
        <time>2010-12-27T09:41:34Z</time>
      </trkpt>
      <trkpt lat="34.753158995881677" lon="-2.568881995975971">
        <ele>450.03399999999999</ele>
        <time>2010-12-27T09:41:50Z</time>
      </trkpt>
      <trkpt lat="34.753112979233265" lon="-2.568659037351608">
        <ele>449.55399999999997</ele>
        <time>2010-12-27T09:41:54Z</time>
      </trkpt>
      <trkpt lat="34.753239965066314" lon="-2.568318983539939">
        <ele>460.60899999999998</ele>
        <time>2010-12-27T09:42:00Z</time>
      </trkpt>
      <trkpt lat="34.753518998622894" lon="-2.568175988271833">
        <ele>465.416</ele>
        <time>2010-12-27T09:42:07Z</time>
      </trkpt>
      <trkpt lat="34.754052003845572" lon="-2.568046990782023">
        <ele>479.35399999999998</ele>
        <time>2010-12-27T09:42:18Z</time>
      </trkpt>
      <trkpt lat="34.754729010164738" lon="-2.567965015769005">
        <ele>478.39299999999997</ele>
        <time>2010-12-27T09:42:32Z</time>
      </trkpt>
      <trkpt lat="34.754903018474579" lon="-2.567794024944305">
        <ele>477.43200000000002</ele>
        <time>2010-12-27T09:42:37Z</time>
      </trkpt>
      <trkpt lat="34.755021035671234" lon="-2.567511973902583">
        <ele>473.58699999999999</ele>
        <time>2010-12-27T09:42:42Z</time>
      </trkpt>
      <trkpt lat="34.755255980417132" lon="-2.567402003332973">
        <ele>473.10599999999999</ele>
        <time>2010-12-27T09:42:49Z</time>
      </trkpt>
      <trkpt lat="34.755344996228814" lon="-2.567452965304256">
        <ele>472.625</ele>
        <time>2010-12-27T09:42:51Z</time>
      </trkpt>
      <trkpt lat="34.755810024216771" lon="-2.567659998312593">
        <ele>483.68000000000001</ele>
        <time>2010-12-27T09:43:01Z</time>
      </trkpt>
      <trkpt lat="34.756292989477515" lon="-2.567622028291225">
        <ele>483.19999999999999</ele>
        <time>2010-12-27T09:43:13Z</time>
      </trkpt>
      <trkpt lat="34.756799004971981" lon="-2.567386999726296">
        <ele>485.12200000000001</ele>
        <time>2010-12-27T09:43:25Z</time>
      </trkpt>
      <trkpt lat="34.756979970261455" lon="-2.566962037235498">
        <ele>486.084</ele>
        <time>2010-12-27T09:43:34Z</time>
      </trkpt>
      <trkpt lat="34.756967984139919" lon="-2.566842008382082">
        <ele>485.12200000000001</ele>
        <time>2010-12-27T09:43:36Z</time>
      </trkpt>
      <trkpt lat="34.756876034662127" lon="-2.566246977075934">
        <ele>479.35399999999998</ele>
        <time>2010-12-27T09:43:46Z</time>
      </trkpt>
      <trkpt lat="34.75686103105545" lon="-2.565882029011846">
        <ele>478.39299999999997</ele>
        <time>2010-12-27T09:43:52Z</time>
      </trkpt>
      <trkpt lat="34.756815014407039" lon="-2.565624034032226">
        <ele>474.548</ele>
        <time>2010-12-27T09:43:57Z</time>
      </trkpt>
      <trkpt lat="34.756787018850446" lon="-2.565451031550765">
        <ele>474.06700000000001</ele>
        <time>2010-12-27T09:44:00Z</time>
      </trkpt>
      <trkpt lat="34.756936971098185" lon="-2.565077031031251">
        <ele>475.50900000000001</ele>
        <time>2010-12-27T09:44:07Z</time>
      </trkpt>
      <trkpt lat="34.757035039365292" lon="-2.565009975805879">
        <ele>475.99000000000001</ele>
        <time>2010-12-27T09:44:09Z</time>
      </trkpt>
      <trkpt lat="34.757553962990642" lon="-2.564761033281684">
        <ele>481.27699999999999</ele>
        <time>2010-12-27T09:44:18Z</time>
      </trkpt>
      <trkpt lat="34.757725959643722" lon="-2.564575038850308">
        <ele>486.084</ele>
        <time>2010-12-27T09:44:22Z</time>
      </trkpt>
      <trkpt lat="34.757775999605656" lon="-2.564460961148143">
        <ele>488.00599999999997</ele>
        <time>2010-12-27T09:44:24Z</time>
      </trkpt>
      <trkpt lat="34.757817992940545" lon="-2.564235990867019">
        <ele>486.56400000000002</ele>
        <time>2010-12-27T09:44:28Z</time>
      </trkpt>
      <trkpt lat="34.757823022082448" lon="-2.564073968678713">
        <ele>486.084</ele>
        <time>2010-12-27T09:44:31Z</time>
      </trkpt>
      <trkpt lat="34.757665023207664" lon="-2.563545992597938">
        <ele>478.87400000000002</ele>
        <time>2010-12-27T09:44:41Z</time>
      </trkpt>
      <trkpt lat="34.757584976032376" lon="-2.563217002898455">
        <ele>475.99000000000001</ele>
        <time>2010-12-27T09:44:50Z</time>
      </trkpt>
      <trkpt lat="34.75772101432085" lon="-2.562916008755565">
        <ele>516.36500000000001</ele>
        <time>2010-12-27T09:45:48Z</time>
      </trkpt>
      <trkpt lat="34.757836014032364" lon="-2.562581989914179">
        <ele>537.51400000000001</ele>
        <time>2010-12-27T09:45:59Z</time>
      </trkpt>
      <trkpt lat="34.758103983476758" lon="-2.562131965532899">
        <ele>579.81200000000001</ele>
        <time>2010-12-27T09:46:13Z</time>
      </trkpt>
      <trkpt lat="34.758288972079754" lon="-2.561721000820398">
        <ele>594.71299999999997</ele>
        <time>2010-12-27T09:46:25Z</time>
      </trkpt>
      <trkpt lat="34.75810800679028" lon="-2.561326967552304">
        <ele>598.077</ele>
        <time>2010-12-27T09:46:36Z</time>
      </trkpt>
      <trkpt lat="34.758019996806979" lon="-2.561149019747973">
        <ele>596.63499999999999</ele>
        <time>2010-12-27T09:46:41Z</time>
      </trkpt>
      <trkpt lat="34.757992001250386" lon="-2.56086302921176">
        <ele>596.15499999999997</ele>
        <time>2010-12-27T09:46:46Z</time>
      </trkpt>
      <trkpt lat="34.758209008723497" lon="-2.560080997645855">
        <ele>597.59699999999998</ele>
        <time>2010-12-27T09:46:59Z</time>
      </trkpt>
      <trkpt lat="34.758508997038007" lon="-2.55940499715507">
        <ele>596.63499999999999</ele>
        <time>2010-12-27T09:47:09Z</time>
      </trkpt>
      <trkpt lat="34.759135041385889" lon="-2.558596981689334">
        <ele>597.59699999999998</ele>
        <time>2010-12-27T09:47:21Z</time>
      </trkpt>
      <trkpt lat="34.759339978918433" lon="-2.558210995048285">
        <ele>598.55799999999999</ele>
        <time>2010-12-27T09:47:26Z</time>
      </trkpt>
      <trkpt lat="34.759421031922102" lon="-2.557894997298718">
        <ele>598.55799999999999</ele>
        <time>2010-12-27T09:47:31Z</time>
      </trkpt>
      <trkpt lat="34.759531002491713" lon="-2.557295020669699">
        <ele>599.51900000000001</ele>
        <time>2010-12-27T09:47:38Z</time>
      </trkpt>
      <trkpt lat="34.759541982784867" lon="-2.556522963568568">
        <ele>603.36500000000001</ele>
        <time>2010-12-27T09:47:46Z</time>
      </trkpt>
      <trkpt lat="34.75937501527369" lon="-2.556188022717834">
        <ele>602.40300000000002</ele>
        <time>2010-12-27T09:47:52Z</time>
      </trkpt>
      <trkpt lat="34.758919961750507" lon="-2.555955005809665">
        <ele>594.23199999999997</ele>
        <time>2010-12-27T09:48:02Z</time>
      </trkpt>
      <trkpt lat="34.758754000067711" lon="-2.555841011926532">
        <ele>597.11599999999999</ele>
        <time>2010-12-27T09:48:06Z</time>
      </trkpt>
      <trkpt lat="34.758605975657701" lon="-2.555672032758594">
        <ele>599.51900000000001</ele>
        <time>2010-12-27T09:48:10Z</time>
      </trkpt>
      <trkpt lat="34.758415035903454" lon="-2.55536500364542">
        <ele>604.80700000000002</ele>
        <time>2010-12-27T09:48:17Z</time>
      </trkpt>
      <trkpt lat="34.758352003991604" lon="-2.554981028661132">
        <ele>607.69100000000003</ele>
        <time>2010-12-27T09:48:23Z</time>
      </trkpt>
      <trkpt lat="34.758457029238343" lon="-2.554770978167653">
        <ele>607.21000000000004</ele>
        <time>2010-12-27T09:48:30Z</time>
      </trkpt>
      <trkpt lat="34.75858099758625" lon="-2.554599987342954">
        <ele>611.05499999999995</ele>
        <time>2010-12-27T09:48:38Z</time>
      </trkpt>
      <trkpt lat="34.758827006444335" lon="-2.554194973781705">
        <ele>616.82299999999998</ele>
        <time>2010-12-27T09:48:45Z</time>
      </trkpt>
      <trkpt lat="34.758994979783893" lon="-2.554029012098908">
        <ele>618.26499999999999</ele>
        <time>2010-12-27T09:48:49Z</time>
      </trkpt>
      <trkpt lat="34.759506024420261" lon="-2.553801024332643">
        <ele>612.97799999999995</ele>
        <time>2010-12-27T09:48:59Z</time>
      </trkpt>
      <trkpt lat="34.759710039943457" lon="-2.553447978571057">
        <ele>614.41999999999996</ele>
        <time>2010-12-27T09:49:06Z</time>
      </trkpt>
      <trkpt lat="34.759691013023257" lon="-2.553334990516305">
        <ele>613.93899999999996</ele>
        <time>2010-12-27T09:49:08Z</time>
      </trkpt>
      <trkpt lat="34.759643990546465" lon="-2.553068026900291">
        <ele>615.38099999999997</ele>
        <time>2010-12-27T09:49:13Z</time>
      </trkpt>
      <trkpt lat="34.759696964174509" lon="-2.552798967808485">
        <ele>617.30399999999997</ele>
        <time>2010-12-27T09:49:17Z</time>
      </trkpt>
      <trkpt lat="34.759812969714403" lon="-2.552519012242556">
        <ele>618.74599999999998</ele>
        <time>2010-12-27T09:49:21Z</time>
      </trkpt>
      <trkpt lat="34.760380005463958" lon="-2.551751984283328">
        <ele>619.70699999999999</ele>
        <time>2010-12-27T09:49:33Z</time>
      </trkpt>
      <trkpt lat="34.760510008782148" lon="-2.551506981253624">
        <ele>621.149</ele>
        <time>2010-12-27T09:49:37Z</time>
      </trkpt>
      <trkpt lat="34.760677982121706" lon="-2.550803991034627">
        <ele>623.072</ele>
        <time>2010-12-27T09:49:48Z</time>
      </trkpt>
      <trkpt lat="34.760860959067941" lon="-2.550443988293409">
        <ele>622.11000000000001</ele>
        <time>2010-12-27T09:49:55Z</time>
      </trkpt>
      <trkpt lat="34.761364040896297" lon="-2.550198985263705">
        <ele>618.74599999999998</ele>
        <time>2010-12-27T09:50:05Z</time>
      </trkpt>
      <trkpt lat="34.761688001453876" lon="-2.550032017752528">
        <ele>618.26499999999999</ele>
        <time>2010-12-27T09:50:14Z</time>
      </trkpt>
      <trkpt lat="34.761752039194107" lon="-2.549893967807293">
        <ele>619.226</ele>
        <time>2010-12-27T09:50:21Z</time>
      </trkpt>
      <trkpt lat="34.761865027248859" lon="-2.549573024734855">
        <ele>620.18799999999999</ele>
        <time>2010-12-27T09:50:31Z</time>
      </trkpt>
      <trkpt lat="34.76206099614501" lon="-2.549207992851734">
        <ele>620.66800000000001</ele>
        <time>2010-12-27T09:50:43Z</time>
      </trkpt>
      <trkpt lat="34.762233998626471" lon="-2.548913033679128">
        <ele>622.59100000000001</ele>
        <time>2010-12-27T09:50:54Z</time>
      </trkpt>
      <trkpt lat="34.762419993057847" lon="-2.548454040661454">
        <ele>624.99400000000003</ele>
        <time>2010-12-27T09:51:06Z</time>
      </trkpt>
      <trkpt lat="34.762604981660843" lon="-2.548025976866484">
        <ele>628.35900000000004</ele>
        <time>2010-12-27T09:51:17Z</time>
      </trkpt>
      <trkpt lat="34.762654015794396" lon="-2.547513004392386">
        <ele>629.80100000000004</ele>
        <time>2010-12-27T09:51:29Z</time>
      </trkpt>
      <trkpt lat="34.762546978890896" lon="-2.547177979722619">
        <ele>629.32000000000005</ele>
        <time>2010-12-27T09:51:39Z</time>
      </trkpt>
      <trkpt lat="34.762302981689572" lon="-2.546926019713283">
        <ele>624.03300000000002</ele>
        <time>2010-12-27T09:51:48Z</time>
      </trkpt>
      <trkpt lat="34.76221296004951" lon="-2.54681596532464">
        <ele>624.51400000000001</ele>
        <time>2010-12-27T09:51:51Z</time>
      </trkpt>
      <trkpt lat="34.762192005291581" lon="-2.546456968411803">
        <ele>624.99400000000003</ele>
        <time>2010-12-27T09:51:58Z</time>
      </trkpt>
      <trkpt lat="34.762136014178395" lon="-2.546003004536033">
        <ele>625.47500000000002</ele>
        <time>2010-12-27T09:52:07Z</time>
      </trkpt>
      <trkpt lat="34.762165015563369" lon="-2.545703016221523">
        <ele>626.43600000000004</ele>
        <time>2010-12-27T09:52:12Z</time>
      </trkpt>
      <trkpt lat="34.762155041098595" lon="-2.545403027907014">
        <ele>628.35900000000004</ele>
        <time>2010-12-27T09:52:17Z</time>
      </trkpt>
      <trkpt lat="34.762208014726639" lon="-2.545145032927394">
        <ele>629.80100000000004</ele>
        <time>2010-12-27T09:52:21Z</time>
      </trkpt>
      <trkpt lat="34.762405995279551" lon="-2.544365013018251">
        <ele>631.72299999999996</ele>
        <time>2010-12-27T09:52:31Z</time>
      </trkpt>
      <trkpt lat="34.762501968070865" lon="-2.543363962322474">
        <ele>633.16499999999996</ele>
        <time>2010-12-27T09:52:43Z</time>
      </trkpt>
      <trkpt lat="34.762412030249834" lon="-2.542576985433698">
        <ele>630.28099999999995</ele>
        <time>2010-12-27T09:52:54Z</time>
      </trkpt>
      <trkpt lat="34.762270962819457" lon="-2.541879024356604">
        <ele>631.24300000000005</ele>
        <time>2010-12-27T09:53:04Z</time>
      </trkpt>
      <trkpt lat="34.762329971417785" lon="-2.541504018008709">
        <ele>634.60699999999997</ele>
        <time>2010-12-27T09:53:09Z</time>
      </trkpt>
      <trkpt lat="34.762557037174702" lon="-2.540941005572677">
        <ele>630.28099999999995</ele>
        <time>2010-12-27T09:53:21Z</time>
      </trkpt>
      <trkpt lat="34.762845039367676" lon="-2.540501961484551">
        <ele>637.01099999999997</ele>
        <time>2010-12-27T09:53:32Z</time>
      </trkpt>
      <trkpt lat="34.763043019920588" lon="-2.540219994261861">
        <ele>639.89499999999998</ele>
        <time>2010-12-27T09:53:40Z</time>
      </trkpt>
      <trkpt lat="34.763181991875172" lon="-2.539774999022484">
        <ele>645.66300000000001</ele>
        <time>2010-12-27T09:53:48Z</time>
      </trkpt>
      <trkpt lat="34.763210993260145" lon="-2.539642984047532">
        <ele>649.50800000000004</ele>
        <time>2010-12-27T09:53:57Z</time>
      </trkpt>
      <trkpt lat="34.763363040983677" lon="-2.539546005427837">
        <ele>654.79499999999996</ele>
        <time>2010-12-27T09:55:18Z</time>
      </trkpt>
      <trkpt lat="34.763459013774991" lon="-2.539238976314664">
        <ele>660.08199999999999</ele>
        <time>2010-12-27T09:55:30Z</time>
      </trkpt>
      <trkpt lat="34.763463037088513" lon="-2.539112996309996">
        <ele>661.04399999999998</ele>
        <time>2010-12-27T09:55:33Z</time>
      </trkpt>
      <trkpt lat="34.76339497603476" lon="-2.538919961079955">
        <ele>663.92700000000002</ele>
        <time>2010-12-27T09:55:38Z</time>
      </trkpt>
      <trkpt lat="34.763174029067159" lon="-2.538502961397171">
        <ele>665.37</ele>
        <time>2010-12-27T09:55:50Z</time>
      </trkpt>
      <trkpt lat="34.76309398189187" lon="-2.538140024989843">
        <ele>669.21500000000003</ele>
        <time>2010-12-27T09:56:00Z</time>
      </trkpt>
      <trkpt lat="34.763012006878853" lon="-2.537571983411908">
        <ele>676.90599999999995</ele>
        <time>2010-12-27T09:56:11Z</time>
      </trkpt>
      <trkpt lat="34.763024998828769" lon="-2.537461007013917">
        <ele>676.42499999999995</ele>
        <time>2010-12-27T09:56:20Z</time>
      </trkpt>
      <trkpt lat="34.763022987172008" lon="-2.536943005397916">
        <ele>668.73400000000004</ele>
        <time>2010-12-27T09:57:33Z</time>
      </trkpt>
      <trkpt lat="34.762882003560662" lon="-2.536400025710464">
        <ele>672.09900000000005</ele>
        <time>2010-12-27T09:57:45Z</time>
      </trkpt>
      <trkpt lat="34.762684023007751" lon="-2.535781022161245">
        <ele>669.21500000000003</ele>
        <time>2010-12-27T09:57:58Z</time>
      </trkpt>
      <trkpt lat="34.762462992221117" lon="-2.534967977553606">
        <ele>663.447</ele>
        <time>2010-12-27T09:58:12Z</time>
      </trkpt>
      <trkpt lat="34.762255037203431" lon="-2.534150993451476">
        <ele>664.40800000000002</ele>
        <time>2010-12-27T09:58:28Z</time>
      </trkpt>
      <trkpt lat="34.762226035818458" lon="-2.533995006233454">
        <ele>664.40800000000002</ele>
        <time>2010-12-27T09:58:31Z</time>
      </trkpt>
      <trkpt lat="34.762101983651519" lon="-2.533756038174033">
        <ele>671.13800000000003</ele>
        <time>2010-12-27T09:58:37Z</time>
      </trkpt>
      <trkpt lat="34.761856980621815" lon="-2.533534001559019">
        <ele>675.46299999999997</ele>
        <time>2010-12-27T09:58:47Z</time>
      </trkpt>
      <trkpt lat="34.761680038645864" lon="-2.533359993249178">
        <ele>677.86699999999996</ele>
        <time>2010-12-27T09:58:57Z</time>
      </trkpt>
      <trkpt lat="34.761301008984447" lon="-2.533023962751031">
        <ele>681.23099999999999</ele>
        <time>2010-12-27T09:59:12Z</time>
      </trkpt>
      <trkpt lat="34.761089030653238" lon="-2.532769991084933">
        <ele>682.673</ele>
        <time>2010-12-27T09:59:21Z</time>
      </trkpt>
      <trkpt lat="34.761053994297981" lon="-2.532443013042212">
        <ele>680.75099999999998</ele>
        <time>2010-12-27T09:59:31Z</time>
      </trkpt>
      <trkpt lat="34.761161031201482" lon="-2.532315021380782">
        <ele>679.78899999999999</ele>
        <time>2010-12-27T09:59:36Z</time>
      </trkpt>
      <trkpt lat="34.761272007599473" lon="-2.532068006694317">
        <ele>676.90599999999995</ele>
        <time>2010-12-27T09:59:41Z</time>
      </trkpt>
      <trkpt lat="34.761249041184783" lon="-2.531471969559789">
        <ele>676.90599999999995</ele>
        <time>2010-12-27T09:59:53Z</time>
      </trkpt>
      <trkpt lat="34.761009989306331" lon="-2.530829999595881">
        <ele>679.30899999999997</ele>
        <time>2010-12-27T10:00:05Z</time>
      </trkpt>
      <trkpt lat="34.760774038732052" lon="-2.530201021581888">
        <ele>681.23099999999999</ele>
        <time>2010-12-27T10:00:16Z</time>
      </trkpt>
      <trkpt lat="34.760648980736732" lon="-2.529908996075392">
        <ele>682.19299999999998</ele>
        <time>2010-12-27T10:00:21Z</time>
      </trkpt>
      <trkpt lat="34.760195016860962" lon="-2.529100980609655">
        <ele>680.75099999999998</ele>
        <time>2010-12-27T10:00:35Z</time>
      </trkpt>
      <trkpt lat="34.759921012446284" lon="-2.528395978733897">
        <ele>678.34699999999998</ele>
        <time>2010-12-27T10:00:47Z</time>
      </trkpt>
      <trkpt lat="34.759881030768156" lon="-2.528095990419388">
        <ele>677.86699999999996</ele>
        <time>2010-12-27T10:00:52Z</time>
      </trkpt>
      <trkpt lat="34.759699981659651" lon="-2.527399035170674">
        <ele>679.30899999999997</ele>
        <time>2010-12-27T10:01:04Z</time>
      </trkpt>
      <trkpt lat="34.759496971964836" lon="-2.527095023542643">
        <ele>681.23099999999999</ele>
        <time>2010-12-27T10:01:10Z</time>
      </trkpt>
      <trkpt lat="34.758787024766207" lon="-2.526783971115947">
        <ele>686.03800000000001</ele>
        <time>2010-12-27T10:01:23Z</time>
      </trkpt>
      <trkpt lat="34.758490975946188" lon="-2.526346016675234">
        <ele>686.03800000000001</ele>
        <time>2010-12-27T10:01:32Z</time>
      </trkpt>
      <trkpt lat="34.758094009011984" lon="-2.525816028937697">
        <ele>685.55700000000002</ele>
        <time>2010-12-27T10:01:44Z</time>
      </trkpt>
      <trkpt lat="34.757787985727191" lon="-2.52550195902586">
        <ele>686.99900000000002</ele>
        <time>2010-12-27T10:01:54Z</time>
      </trkpt>
      <trkpt lat="34.757304014638066" lon="-2.524793017655611">
        <ele>694.20899999999995</ele>
        <time>2010-12-27T10:02:08Z</time>
      </trkpt>
      <trkpt lat="34.757021963596344" lon="-2.524129003286362">
        <ele>696.13199999999995</ele>
        <time>2010-12-27T10:02:19Z</time>
      </trkpt>
      <trkpt lat="34.7567979991436" lon="-2.523803031072021">
        <ele>693.72900000000004</ele>
        <time>2010-12-27T10:02:28Z</time>
      </trkpt>
      <trkpt lat="34.756427016109228" lon="-2.523591974750161">
        <ele>696.61300000000006</ele>
        <time>2010-12-27T10:02:37Z</time>
      </trkpt>
      <trkpt lat="34.756242027506232" lon="-2.523162988945842">
        <ele>699.01599999999996</ele>
        <time>2010-12-27T10:02:44Z</time>
      </trkpt>
      <trkpt lat="34.756402960047126" lon="-2.523002978414297">
        <ele>699.49599999999998</ele>
        <time>2010-12-27T10:02:49Z</time>
      </trkpt>
      <trkpt lat="34.756492981687188" lon="-2.522984035313129">
        <ele>699.97699999999998</ele>
        <time>2010-12-27T10:02:51Z</time>
      </trkpt>
      <trkpt lat="34.756638994440436" lon="-2.522717993706465">
        <ele>702.38</ele>
        <time>2010-12-27T10:02:58Z</time>
      </trkpt>
      <trkpt lat="34.756526006385684" lon="-2.522333012893796">
        <ele>701.89999999999998</ele>
        <time>2010-12-27T10:03:05Z</time>
      </trkpt>
      <trkpt lat="34.756277985870838" lon="-2.521943002939224">
        <ele>702.86099999999999</ele>
        <time>2010-12-27T10:03:14Z</time>
      </trkpt>
      <trkpt lat="34.75612903945148" lon="-2.52180302515626">
        <ele>702.86099999999999</ele>
        <time>2010-12-27T10:03:18Z</time>
      </trkpt>
      <trkpt lat="34.755252962931991" lon="-2.521276976913214">
        <ele>703.82299999999998</ele>
        <time>2010-12-27T10:03:37Z</time>
      </trkpt>
      <trkpt lat="34.755131006240845" lon="-2.521163988858461">
        <ele>704.303</ele>
        <time>2010-12-27T10:03:40Z</time>
      </trkpt>
      <trkpt lat="34.755026986822486" lon="-2.520942036062479">
        <ele>703.82299999999998</ele>
        <time>2010-12-27T10:03:45Z</time>
      </trkpt>
      <trkpt lat="34.754976024851203" lon="-2.520618997514248">
        <ele>703.82299999999998</ele>
        <time>2010-12-27T10:03:56Z</time>
      </trkpt>
      <trkpt lat="34.755105022341013" lon="-2.520294031128287">
        <ele>705.745</ele>
        <time>2010-12-27T10:04:04Z</time>
      </trkpt>
      <trkpt lat="34.755362011492252" lon="-2.51959296874702">
        <ele>709.59000000000003</ele>
        <time>2010-12-27T10:04:17Z</time>
      </trkpt>
      <trkpt lat="34.755441974848509" lon="-2.519161971285939">
        <ele>712.47400000000005</ele>
        <time>2010-12-27T10:04:27Z</time>
      </trkpt>
      <trkpt lat="34.755645990371704" lon="-2.518504997715354">
        <ele>714.87699999999995</ele>
        <time>2010-12-27T10:04:44Z</time>
      </trkpt>
      <trkpt lat="34.755735006183386" lon="-2.518274998292327">
        <ele>715.83900000000006</ele>
        <time>2010-12-27T10:04:53Z</time>
      </trkpt>
      <trkpt lat="34.755776999518275" lon="-2.517965035513043">
        <ele>717.76099999999997</ele>
        <time>2010-12-27T10:05:11Z</time>
      </trkpt>
      <trkpt lat="34.755713967606425" lon="-2.517785998061299">
        <ele>717.76099999999997</ele>
        <time>2010-12-27T10:05:19Z</time>
      </trkpt>
      <trkpt lat="34.755622018128633" lon="-2.517731012776494">
        <ele>716.79999999999995</ele>
        <time>2010-12-27T10:05:29Z</time>
      </trkpt>
      <trkpt lat="34.755439963191748" lon="-2.517675021663308">
        <ele>717.76099999999997</ele>
        <time>2010-12-27T10:05:33Z</time>
      </trkpt>
      <trkpt lat="34.755214992910624" lon="-2.517454996705055">
        <ele>719.20399999999995</ele>
        <time>2010-12-27T10:05:39Z</time>
      </trkpt>
      <trkpt lat="34.755170987918973" lon="-2.517201025038958">
        <ele>719.68399999999997</ele>
        <time>2010-12-27T10:05:44Z</time>
      </trkpt>
      <trkpt lat="34.755311971530318" lon="-2.516689980402589">
        <ele>721.12599999999998</ele>
        <time>2010-12-27T10:05:55Z</time>
      </trkpt>
      <trkpt lat="34.755427977070212" lon="-2.516312040388584">
        <ele>723.04899999999998</ele>
        <time>2010-12-27T10:06:04Z</time>
      </trkpt>
      <trkpt lat="34.755689995363355" lon="-2.516055973246694">
        <ele>725.93299999999999</ele>
        <time>2010-12-27T10:06:12Z</time>
      </trkpt>
      <trkpt lat="34.755908008664846" lon="-2.516094027087092">
        <ele>729.77800000000002</ele>
        <time>2010-12-27T10:06:23Z</time>
      </trkpt>
      <trkpt lat="34.75608897395432" lon="-2.516101989895105">
        <ele>728.33600000000001</ele>
        <time>2010-12-27T10:06:38Z</time>
      </trkpt>
      <trkpt lat="34.756470015272498" lon="-2.516116993501782">
        <ele>732.66200000000003</ele>
        <time>2010-12-27T10:06:48Z</time>
      </trkpt>
      <trkpt lat="34.756505973637104" lon="-2.515909038484097">
        <ele>735.06500000000005</ele>
        <time>2010-12-27T10:06:54Z</time>
      </trkpt>
      <trkpt lat="34.756472026929259" lon="-2.51576797105372">
        <ele>736.50699999999995</ele>
        <time>2010-12-27T10:06:57Z</time>
      </trkpt>
      <trkpt lat="34.75649700500071" lon="-2.515512993559241">
        <ele>738.42999999999995</ele>
        <time>2010-12-27T10:07:02Z</time>
      </trkpt>
      <trkpt lat="34.756593983620405" lon="-2.515178974717856">
        <ele>741.31399999999996</ele>
        <time>2010-12-27T10:07:08Z</time>
      </trkpt>
      <trkpt lat="34.756951974704862" lon="-2.514605987817049">
        <ele>741.31399999999996</ele>
        <time>2010-12-27T10:07:19Z</time>
      </trkpt>
      <trkpt lat="34.757151966914535" lon="-2.514346987009049">
        <ele>742.27499999999998</ele>
        <time>2010-12-27T10:07:25Z</time>
      </trkpt>
      <trkpt lat="34.757305020466447" lon="-2.514245985075831">
        <ele>742.27499999999998</ele>
        <time>2010-12-27T10:07:29Z</time>
      </trkpt>
      <trkpt lat="34.75789200514555" lon="-2.514036018401384">
        <ele>744.19799999999998</ele>
        <time>2010-12-27T10:07:42Z</time>
      </trkpt>
      <trkpt lat="34.7581070009619" lon="-2.513925964012742">
        <ele>745.15899999999999</ele>
        <time>2010-12-27T10:07:47Z</time>
      </trkpt>
      <trkpt lat="34.758318979293108" lon="-2.513562021777034">
        <ele>744.678</ele>
        <time>2010-12-27T10:07:56Z</time>
      </trkpt>
      <trkpt lat="34.75830296985805" lon="-2.51293396577239">
        <ele>747.08199999999999</ele>
        <time>2010-12-27T10:08:09Z</time>
      </trkpt>
      <trkpt lat="34.758242033421993" lon="-2.512740008533001">
        <ele>747.08199999999999</ele>
        <time>2010-12-27T10:08:14Z</time>
      </trkpt>
      <trkpt lat="34.757908014580607" lon="-2.512452006340027">
        <ele>743.23599999999999</ele>
        <time>2010-12-27T10:08:25Z</time>
      </trkpt>
      <trkpt lat="34.757794020697474" lon="-2.512274980545044">
        <ele>742.75599999999997</ele>
        <time>2010-12-27T10:08:29Z</time>
      </trkpt>
      <trkpt lat="34.757375009357929" lon="-2.511763013899326">
        <ele>740.83299999999997</ele>
        <time>2010-12-27T10:08:40Z</time>
      </trkpt>
      <trkpt lat="34.756982987746596" lon="-2.511308966204524">
        <ele>741.79399999999998</ele>
        <time>2010-12-27T10:08:51Z</time>
      </trkpt>
      <trkpt lat="34.756877962499857" lon="-2.511004032567143">
        <ele>744.678</ele>
        <time>2010-12-27T10:08:57Z</time>
      </trkpt>
      <trkpt lat="34.756779978051782" lon="-2.510835975408554">
        <ele>745.15899999999999</ele>
        <time>2010-12-27T10:09:01Z</time>
      </trkpt>
      <trkpt lat="34.756471021100879" lon="-2.510584015399218">
        <ele>746.601</ele>
        <time>2010-12-27T10:09:10Z</time>
      </trkpt>
      <trkpt lat="34.75632400251925" lon="-2.510545961558819">
        <ele>747.08199999999999</ele>
        <time>2010-12-27T10:09:14Z</time>
      </trkpt>
      <trkpt lat="34.756114035844803" lon="-2.510232981294394">
        <ele>749.00400000000002</ele>
        <time>2010-12-27T10:09:21Z</time>
      </trkpt>
      <trkpt lat="34.756099032238126" lon="-2.510094009339809">
        <ele>749.48500000000001</ele>
        <time>2010-12-27T10:09:23Z</time>
      </trkpt>
      <trkpt lat="34.756186036393046" lon="-2.509685978293419">
        <ele>751.40800000000002</ele>
        <time>2010-12-27T10:09:29Z</time>
      </trkpt>
      <trkpt lat="34.756253007799387" lon="-2.50955899246037">
        <ele>751.88800000000003</ele>
        <time>2010-12-27T10:09:31Z</time>
      </trkpt>
      <trkpt lat="34.756334982812405" lon="-2.509185997769237">
        <ele>753.33000000000004</ele>
        <time>2010-12-27T10:09:36Z</time>
      </trkpt>
      <trkpt lat="34.756350992247462" lon="-2.508156029507518">
        <ele>758.13699999999994</ele>
        <time>2010-12-27T10:09:47Z</time>
      </trkpt>
      <trkpt lat="34.756593983620405" lon="-2.507428983226419">
        <ele>762.46299999999997</ele>
        <time>2010-12-27T10:09:55Z</time>
      </trkpt>
      <trkpt lat="34.75666900165379" lon="-2.507254974916577">
        <ele>762.46299999999997</ele>
        <time>2010-12-27T10:09:57Z</time>
      </trkpt>
      <trkpt lat="34.756790036335588" lon="-2.506327014416456">
        <ele>764.38499999999999</ele>
        <time>2010-12-27T10:10:05Z</time>
      </trkpt>
      <trkpt lat="34.756805039942265" lon="-2.506125010550022">
        <ele>764.86599999999999</ele>
        <time>2010-12-27T10:10:07Z</time>
      </trkpt>
      <trkpt lat="34.75699002854526" lon="-2.505684960633516">
        <ele>764.38499999999999</ele>
        <time>2010-12-27T10:10:13Z</time>
      </trkpt>
      <trkpt lat="34.757126988843083" lon="-2.504737973213196">
        <ele>767.26999999999998</ele>
        <time>2010-12-27T10:10:23Z</time>
      </trkpt>
      <trkpt lat="34.757167976349592" lon="-2.50453001819551">
        <ele>767.75</ele>
        <time>2010-12-27T10:10:25Z</time>
      </trkpt>
      <trkpt lat="34.757547006011009" lon="-2.503755027428269">
        <ele>772.07600000000002</ele>
        <time>2010-12-27T10:10:34Z</time>
      </trkpt>
      <trkpt lat="34.757638033479452" lon="-2.503631981089711">
        <ele>772.55700000000002</ele>
        <time>2010-12-27T10:10:36Z</time>
      </trkpt>
      <trkpt lat="34.757840959355235" lon="-2.503447998315096">
        <ele>773.03700000000003</ele>
        <time>2010-12-27T10:10:40Z</time>
      </trkpt>
      <trkpt lat="34.758009016513824" lon="-2.503022029995918">
        <ele>773.99900000000002</ele>
        <time>2010-12-27T10:10:46Z</time>
      </trkpt>
      <trkpt lat="34.757982026785612" lon="-2.502838969230652">
        <ele>774.47900000000004</ele>
        <time>2010-12-27T10:10:48Z</time>
      </trkpt>
      <trkpt lat="34.757408034056425" lon="-2.501818975433707">
        <ele>778.80499999999995</ele>
        <time>2010-12-27T10:11:01Z</time>
      </trkpt>
      <trkpt lat="34.757142998278141" lon="-2.501519992947578">
        <ele>778.80499999999995</ele>
        <time>2010-12-27T10:11:08Z</time>
      </trkpt>
      <trkpt lat="34.756835969164968" lon="-2.501259986311197">
        <ele>777.84400000000005</ele>
        <time>2010-12-27T10:11:15Z</time>
      </trkpt>
      <trkpt lat="34.756706971675158" lon="-2.501004002988339">
        <ele>777.36300000000006</ele>
        <time>2010-12-27T10:11:20Z</time>
      </trkpt>
      <trkpt lat="34.756659027189016" lon="-2.500587003305554">
        <ele>776.88300000000004</ele>
        <time>2010-12-27T10:11:25Z</time>
      </trkpt>
      <trkpt lat="34.756831023842096" lon="-2.500051986426115">
        <ele>779.28599999999994</ele>
        <time>2010-12-27T10:11:32Z</time>
      </trkpt>
      <trkpt lat="34.757110979408026" lon="-2.499746968969703">
        <ele>778.32399999999996</ele>
        <time>2010-12-27T10:11:38Z</time>
      </trkpt>
      <trkpt lat="34.757607020437717" lon="-2.49948201701045">
        <ele>780.72799999999995</ele>
        <time>2010-12-27T10:11:47Z</time>
      </trkpt>
      <trkpt lat="34.757716991007328" lon="-2.499416973441839">
        <ele>781.20899999999995</ele>
        <time>2010-12-27T10:11:50Z</time>
      </trkpt>
      <trkpt lat="34.757877001538873" lon="-2.499063005670905">
        <ele>781.68899999999996</ele>
        <time>2010-12-27T10:11:58Z</time>
      </trkpt>
      <trkpt lat="34.757970040664077" lon="-2.498382981866598">
        <ele>786.01499999999999</ele>
        <time>2010-12-27T10:12:07Z</time>
      </trkpt>
      <trkpt lat="34.757853029295802" lon="-2.497627018019557">
        <ele>786.49599999999998</ele>
        <time>2010-12-27T10:12:15Z</time>
      </trkpt>
      <trkpt lat="34.757757978513837" lon="-2.496680030599237">
        <ele>788.899</ele>
        <time>2010-12-27T10:12:24Z</time>
      </trkpt>
      <trkpt lat="34.757984038442373" lon="-2.496219025924802">
        <ele>791.30200000000002</ele>
        <time>2010-12-27T10:12:31Z</time>
      </trkpt>
      <trkpt lat="34.758347980678082" lon="-2.495949966832995">
        <ele>795.14700000000005</ele>
        <time>2010-12-27T10:12:37Z</time>
      </trkpt>
      <trkpt lat="34.75845099426806" lon="-2.495546964928508">
        <ele>793.22500000000002</ele>
        <time>2010-12-27T10:12:43Z</time>
      </trkpt>
      <trkpt lat="34.758387040346861" lon="-2.49539801850915">
        <ele>793.22500000000002</ele>
        <time>2010-12-27T10:12:45Z</time>
      </trkpt>
      <trkpt lat="34.757974985986948" lon="-2.494533006101847">
        <ele>794.66700000000003</ele>
        <time>2010-12-27T10:12:56Z</time>
      </trkpt>
      <trkpt lat="34.757900973781943" lon="-2.494384981691837">
        <ele>795.14700000000005</ele>
        <time>2010-12-27T10:12:58Z</time>
      </trkpt>
      <trkpt lat="34.757865015417337" lon="-2.493815012276173">
        <ele>796.10900000000004</ele>
        <time>2010-12-27T10:13:05Z</time>
      </trkpt>
      <trkpt lat="34.758156035095453" lon="-2.493549976497889">
        <ele>798.03200000000004</ele>
        <time>2010-12-27T10:13:10Z</time>
      </trkpt>
      <trkpt lat="34.758296012878418" lon="-2.493499014526606">
        <ele>799.47400000000005</ele>
        <time>2010-12-27T10:13:12Z</time>
      </trkpt>
      <trkpt lat="34.75860002450645" lon="-2.49314496293664">
        <ele>800.43499999999995</ele>
        <time>2010-12-27T10:13:19Z</time>
      </trkpt>
      <trkpt lat="34.75855803117156" lon="-2.49284497462213">
        <ele>801.39599999999996</ele>
        <time>2010-12-27T10:13:23Z</time>
      </trkpt>
      <trkpt lat="34.758079005405307" lon="-2.491934029385448">
        <ele>800.43499999999995</ele>
        <time>2010-12-27T10:13:35Z</time>
      </trkpt>
      <trkpt lat="34.757583970203996" lon="-2.491306979209185">
        <ele>803.31899999999996</ele>
        <time>2010-12-27T10:13:45Z</time>
      </trkpt>
      <trkpt lat="34.757487997412682" lon="-2.490775985643268">
        <ele>806.20299999999997</ele>
        <time>2010-12-27T10:13:54Z</time>
      </trkpt>
      <trkpt lat="34.757546000182629" lon="-2.490687975659967">
        <ele>806.68299999999999</ele>
        <time>2010-12-27T10:13:56Z</time>
      </trkpt>
      <trkpt lat="34.758010022342205" lon="-2.490189000964165">
        <ele>809.56700000000001</ele>
        <time>2010-12-27T10:14:09Z</time>
      </trkpt>
      <trkpt lat="34.758490975946188" lon="-2.489859005436301">
        <ele>812.45100000000002</ele>
        <time>2010-12-27T10:14:18Z</time>
      </trkpt>
      <trkpt lat="34.759077038615942" lon="-2.48944896273315">
        <ele>819.18100000000004</ele>
        <time>2010-12-27T10:14:29Z</time>
      </trkpt>
      <trkpt lat="34.759312989190221" lon="-2.488876981660724">
        <ele>824.46799999999996</ele>
        <time>2010-12-27T10:14:37Z</time>
      </trkpt>
      <trkpt lat="34.759232020005584" lon="-2.488418994471431">
        <ele>821.58399999999995</ele>
        <time>2010-12-27T10:14:42Z</time>
      </trkpt>
      <trkpt lat="34.758989028632641" lon="-2.487894035875797">
        <ele>818.70000000000005</ele>
        <time>2010-12-27T10:14:48Z</time>
      </trkpt>
      <trkpt lat="34.758792975917459" lon="-2.486980995163322">
        <ele>818.70000000000005</ele>
        <time>2010-12-27T10:14:58Z</time>
      </trkpt>
      <trkpt lat="34.758800016716123" lon="-2.486702967435122">
        <ele>818.70000000000005</ele>
        <time>2010-12-27T10:15:02Z</time>
      </trkpt>
      <trkpt lat="34.758731033653021" lon="-2.486362997442484">
        <ele>821.10299999999995</ele>
        <time>2010-12-27T10:15:08Z</time>
      </trkpt>
      <trkpt lat="34.758655009791255" lon="-2.485766960307956">
        <ele>824.46799999999996</ele>
        <time>2010-12-27T10:15:17Z</time>
      </trkpt>
      <trkpt lat="34.758615028113127" lon="-2.485618013888598">
        <ele>831.678</ele>
        <time>2010-12-27T10:17:47Z</time>
      </trkpt>
      <trkpt lat="34.758545961230993" lon="-2.48517201282084">
        <ele>830.71699999999998</ele>
        <time>2010-12-27T10:18:01Z</time>
      </trkpt>
      <trkpt lat="34.758531963452697" lon="-2.484994987025857">
        <ele>831.197</ele>
        <time>2010-12-27T10:18:05Z</time>
      </trkpt>
      <trkpt lat="34.758574040606618" lon="-2.484787032008171">
        <ele>831.678</ele>
        <time>2010-12-27T10:18:09Z</time>
      </trkpt>
      <trkpt lat="34.758856007829309" lon="-2.484272969886661">
        <ele>836.00400000000002</ele>
        <time>2010-12-27T10:18:22Z</time>
      </trkpt>
      <trkpt lat="34.759399993345141" lon="-2.483831997960806">
        <ele>839.36800000000005</ele>
        <time>2010-12-27T10:18:35Z</time>
      </trkpt>
      <trkpt lat="34.759773993864655" lon="-2.483192961663008">
        <ele>843.69399999999996</ele>
        <time>2010-12-27T10:18:46Z</time>
      </trkpt>
      <trkpt lat="34.759819004684687" lon="-2.483048038557172">
        <ele>844.17499999999995</ele>
        <time>2010-12-27T10:18:48Z</time>
      </trkpt>
      <trkpt lat="34.759815987199545" lon="-2.482202975079417">
        <ele>844.17499999999995</ele>
        <time>2010-12-27T10:18:58Z</time>
      </trkpt>
      <trkpt lat="34.759865021333098" lon="-2.481835009530187">
        <ele>842.73299999999995</ele>
        <time>2010-12-27T10:19:05Z</time>
      </trkpt>
      <trkpt lat="34.759941967204213" lon="-2.481694025918841">
        <ele>842.73299999999995</ele>
        <time>2010-12-27T10:19:08Z</time>
      </trkpt>
      <trkpt lat="34.760130979120731" lon="-2.481109974905849">
        <ele>842.25199999999995</ele>
        <time>2010-12-27T10:19:18Z</time>
      </trkpt>
      <trkpt lat="34.760322002694011" lon="-2.480785008519888">
        <ele>839.84900000000005</ele>
        <time>2010-12-27T10:19:27Z</time>
      </trkpt>
      <trkpt lat="34.760156041011214" lon="-2.480669002979994">
        <ele>840.33000000000004</ele>
        <time>2010-12-27T10:19:33Z</time>
      </trkpt>
      <trkpt lat="34.760057972744107" lon="-2.480690963566303">
        <ele>840.33000000000004</ele>
        <time>2010-12-27T10:19:35Z</time>
      </trkpt>
      <trkpt lat="34.759901985526085" lon="-2.480741003528237">
        <ele>841.29100000000005</ele>
        <time>2010-12-27T10:19:38Z</time>
      </trkpt>
      <trkpt lat="34.759637033566833" lon="-2.480958011001349">
        <ele>842.25199999999995</ele>
        <time>2010-12-27T10:19:45Z</time>
      </trkpt>
      <trkpt lat="34.759558998048306" lon="-2.480850974097848">
        <ele>844.17499999999995</ele>
        <time>2010-12-27T10:19:51Z</time>
      </trkpt>
      <trkpt lat="34.759603003039956" lon="-2.480733962729573">
        <ele>845.61699999999996</ele>
        <time>2010-12-27T10:19:54Z</time>
      </trkpt>
      <trkpt lat="34.759831996634603" lon="-2.480258960276842">
        <ele>851.86500000000001</ele>
        <time>2010-12-27T10:20:06Z</time>
      </trkpt>
      <trkpt lat="34.759892011061311" lon="-2.480114959180355">
        <ele>853.78800000000001</ele>
        <time>2010-12-27T10:20:09Z</time>
      </trkpt>
      <trkpt lat="34.759897040203214" lon="-2.479788986966014">
        <ele>857.15300000000002</ele>
        <time>2010-12-27T10:20:15Z</time>
      </trkpt>
      <trkpt lat="34.759857980534434" lon="-2.479538032785058">
        <ele>860.03700000000003</ele>
        <time>2010-12-27T10:20:21Z</time>
      </trkpt>
      <trkpt lat="34.759853035211563" lon="-2.479002010077238">
        <ele>863.88199999999995</ele>
        <time>2010-12-27T10:20:30Z</time>
      </trkpt>
      <trkpt lat="34.759924029931426" lon="-2.478370014578104">
        <ele>868.20799999999997</ele>
        <time>2010-12-27T10:20:38Z</time>
      </trkpt>
      <trkpt lat="34.7601049952209" lon="-2.477423027157784">
        <ele>874.93700000000001</ele>
        <time>2010-12-27T10:20:47Z</time>
      </trkpt>
      <trkpt lat="34.760118992999196" lon="-2.477091019973159">
        <ele>877.34100000000001</ele>
        <time>2010-12-27T10:20:50Z</time>
      </trkpt>
      <trkpt lat="34.760230975225568" lon="-2.476540999487042">
        <ele>881.18600000000004</ele>
        <time>2010-12-27T10:20:55Z</time>
      </trkpt>
      <trkpt lat="34.760245978832245" lon="-2.475453028455377">
        <ele>887.43399999999997</ele>
        <time>2010-12-27T10:21:03Z</time>
      </trkpt>
      <trkpt lat="34.760051015764475" lon="-2.47449598275125">
        <ele>893.202</ele>
        <time>2010-12-27T10:21:11Z</time>
      </trkpt>
      <trkpt lat="34.759854963049293" lon="-2.473498033359647">
        <ele>897.04700000000003</ele>
        <time>2010-12-27T10:21:19Z</time>
      </trkpt>
      <trkpt lat="34.759794026613235" lon="-2.473156973719597">
        <ele>897.52800000000002</ele>
        <time>2010-12-27T10:21:22Z</time>
      </trkpt>
      <trkpt lat="34.759648013859987" lon="-2.472613994032145">
        <ele>895.125</ele>
        <time>2010-12-27T10:21:29Z</time>
      </trkpt>
      <trkpt lat="34.759825961664319" lon="-2.472467981278896">
        <ele>894.64400000000001</ele>
        <time>2010-12-27T10:21:33Z</time>
      </trkpt>
      <trkpt lat="34.75989100523293" lon="-2.472198000177741">
        <ele>895.125</ele>
        <time>2010-12-27T10:21:37Z</time>
      </trkpt>
      <trkpt lat="34.759724959731102" lon="-2.47103501111269">
        <ele>900.41200000000003</ele>
        <time>2010-12-27T10:21:48Z</time>
      </trkpt>
      <trkpt lat="34.759696964174509" lon="-2.470832001417875">
        <ele>901.85400000000004</ele>
        <time>2010-12-27T10:21:50Z</time>
      </trkpt>
      <trkpt lat="34.759567966684699" lon="-2.470464035868645">
        <ele>903.29600000000005</ele>
        <time>2010-12-27T10:21:54Z</time>
      </trkpt>
      <trkpt lat="34.759512981399894" lon="-2.469861041754484">
        <ele>903.77700000000004</ele>
        <time>2010-12-27T10:22:00Z</time>
      </trkpt>
      <trkpt lat="34.759630998596549" lon="-2.468889998272061">
        <ele>904.73800000000006</ele>
        <time>2010-12-27T10:22:09Z</time>
      </trkpt>
      <trkpt lat="34.759707022458315" lon="-2.468073014169931">
        <ele>904.25699999999995</ele>
        <time>2010-12-27T10:22:18Z</time>
      </trkpt>
      <trkpt lat="34.759690007194877" lon="-2.467379998415709">
        <ele>903.77700000000004</ele>
        <time>2010-12-27T10:22:25Z</time>
      </trkpt>
      <trkpt lat="34.759672991931438" lon="-2.467215964570642">
        <ele>903.29600000000005</ele>
        <time>2010-12-27T10:22:27Z</time>
      </trkpt>
      <trkpt lat="34.759828979149461" lon="-2.466797037050128">
        <ele>903.77700000000004</ele>
        <time>2010-12-27T10:22:33Z</time>
      </trkpt>
      <trkpt lat="34.759773993864655" lon="-2.466434016823769">
        <ele>906.65999999999997</ele>
        <time>2010-12-27T10:22:37Z</time>
      </trkpt>
      <trkpt lat="34.759627981111407" lon="-2.466044006869197">
        <ele>910.50599999999997</ele>
        <time>2010-12-27T10:22:41Z</time>
      </trkpt>
      <trkpt lat="34.759690007194877" lon="-2.465758016332984">
        <ele>914.83199999999999</ele>
        <time>2010-12-27T10:22:46Z</time>
      </trkpt>
      <trkpt lat="34.759831996634603" lon="-2.465918026864529">
        <ele>917.23500000000001</ele>
        <time>2010-12-27T10:22:49Z</time>
      </trkpt>
      <trkpt lat="34.760290989652276" lon="-2.466715984046459">
        <ele>926.36800000000005</ele>
        <time>2010-12-27T10:22:58Z</time>
      </trkpt>
      <trkpt lat="34.760648980736732" lon="-2.467689961194992">
        <ele>938.86500000000001</ele>
        <time>2010-12-27T10:23:10Z</time>
      </trkpt>
      <trkpt lat="34.761002026498318" lon="-2.468140991404653">
        <ele>946.55499999999995</ele>
        <time>2010-12-27T10:23:18Z</time>
      </trkpt>
      <trkpt lat="34.761360017582774" lon="-2.468233024701476">
        <ele>952.32299999999998</ele>
        <time>2010-12-27T10:23:24Z</time>
      </trkpt>
      <trkpt lat="34.761805012822151" lon="-2.468057004734874">
        <ele>956.649</ele>
        <time>2010-12-27T10:23:31Z</time>
      </trkpt>
      <trkpt lat="34.762284038588405" lon="-2.467217976227403">
        <ele>959.53300000000002</ele>
        <time>2010-12-27T10:23:44Z</time>
      </trkpt>
      <trkpt lat="34.762546978890896" lon="-2.466280041262507">
        <ele>956.16800000000001</ele>
        <time>2010-12-27T10:23:56Z</time>
      </trkpt>
      <trkpt lat="34.762753006070852" lon="-2.46532098390162">
        <ele>957.61099999999999</ele>
        <time>2010-12-27T10:24:07Z</time>
      </trkpt>
      <trkpt lat="34.763203030452132" lon="-2.464667027816176">
        <ele>960.97500000000002</ele>
        <time>2010-12-27T10:24:15Z</time>
      </trkpt>
      <trkpt lat="34.763795966282487" lon="-2.464128993451595">
        <ele>967.22400000000005</ele>
        <time>2010-12-27T10:24:23Z</time>
      </trkpt>
      <trkpt lat="34.764159992337227" lon="-2.464054981246591">
        <ele>970.10699999999997</ele>
        <time>2010-12-27T10:24:27Z</time>
      </trkpt>
      <trkpt lat="34.764392003417015" lon="-2.464064033702016">
        <ele>971.54899999999998</ele>
        <time>2010-12-27T10:24:30Z</time>
      </trkpt>
      <trkpt lat="34.764735996723175" lon="-2.463780976831913">
        <ele>973.47199999999998</ele>
        <time>2010-12-27T10:24:36Z</time>
      </trkpt>
      <trkpt lat="34.764770027250051" lon="-2.463448969647288">
        <ele>974.91399999999999</ele>
        <time>2010-12-27T10:24:39Z</time>
      </trkpt>
      <trkpt lat="34.764569029211998" lon="-2.462575994431973">
        <ele>980.68200000000002</ele>
        <time>2010-12-27T10:24:47Z</time>
      </trkpt>
      <trkpt lat="34.764516977593303" lon="-2.462477004155517">
        <ele>981.64300000000003</ele>
        <time>2010-12-27T10:24:48Z</time>
      </trkpt>
      <trkpt lat="34.763981960713863" lon="-2.4619460105896">
        <ele>982.12400000000002</ele>
        <time>2010-12-27T10:24:55Z</time>
      </trkpt>
      <trkpt lat="34.763901997357607" lon="-2.461854983121157">
        <ele>982.12400000000002</ele>
        <time>2010-12-27T10:24:56Z</time>
      </trkpt>
      <trkpt lat="34.763689013198018" lon="-2.46140998788178">
        <ele>984.52700000000004</ele>
        <time>2010-12-27T10:25:00Z</time>
      </trkpt>
      <trkpt lat="34.763421965762973" lon="-2.460068967193365">
        <ele>990.77599999999995</ele>
        <time>2010-12-27T10:25:10Z</time>
      </trkpt>
      <trkpt lat="34.76335097104311" lon="-2.459679041057825">
        <ele>992.21799999999996</ele>
        <time>2010-12-27T10:25:13Z</time>
      </trkpt>
      <trkpt lat="34.763419032096863" lon="-2.458446985110641">
        <ele>995.10199999999998</ele>
        <time>2010-12-27T10:25:23Z</time>
      </trkpt>
      <trkpt lat="34.76363000459969" lon="-2.457245020195842">
        <ele>996.06299999999999</ele>
        <time>2010-12-27T10:25:33Z</time>
      </trkpt>
      <trkpt lat="34.763895040377975" lon="-2.455692021176219">
        <ele>998.46600000000001</ele>
        <time>2010-12-27T10:25:44Z</time>
      </trkpt>
      <trkpt lat="34.764026971533895" lon="-2.453930983319879">
        <ele>1005.677</ele>
        <time>2010-12-27T10:25:55Z</time>
      </trkpt>
      <trkpt lat="34.764291001483798" lon="-2.45204103179276">
        <ele>1015.77</ele>
        <time>2010-12-27T10:26:07Z</time>
      </trkpt>
      <trkpt lat="34.764397032558918" lon="-2.451314991340041">
        <ele>1020.577</ele>
        <time>2010-12-27T10:26:12Z</time>
      </trkpt>
      <trkpt lat="34.76425495930016" lon="-2.450840994715691">
        <ele>1022.98</ele>
        <time>2010-12-27T10:26:17Z</time>
      </trkpt>
      <trkpt lat="34.763841982930899" lon="-2.45027999393642">
        <ele>1048.4549999999999</ele>
        <time>2010-12-27T10:26:25Z</time>
      </trkpt>
      <trkpt lat="34.763533025979996" lon="-2.449474995955825">
        <ele>1077.7750000000001</ele>
        <time>2010-12-27T10:26:35Z</time>
      </trkpt>
      <trkpt lat="34.763411991298199" lon="-2.448590034618974">
        <ele>1096.04</ele>
        <time>2010-12-27T10:26:44Z</time>
      </trkpt>
      <trkpt lat="34.763147961348295" lon="-2.447210038080812">
        <ele>1097.963</ele>
        <time>2010-12-27T10:26:57Z</time>
      </trkpt>
      <trkpt lat="34.762947969138622" lon="-2.445817971602082">
        <ele>1088.8309999999999</ele>
        <time>2010-12-27T10:27:09Z</time>
      </trkpt>
      <trkpt lat="34.762704977765679" lon="-2.444997970014811">
        <ele>1082.1010000000001</ele>
        <time>2010-12-27T10:27:16Z</time>
      </trkpt>
      <trkpt lat="34.762439019978046" lon="-2.444335967302322">
        <ele>1076.3330000000001</ele>
        <time>2010-12-27T10:27:23Z</time>
      </trkpt>
      <trkpt lat="34.762230981141329" lon="-2.444106973707676">
        <ele>1072.9690000000001</ele>
        <time>2010-12-27T10:27:29Z</time>
      </trkpt>
      <trkpt lat="34.762388980016112" lon="-2.444127006456256">
        <ele>1079.2170000000001</ele>
        <time>2010-12-27T10:30:01Z</time>
      </trkpt>
      <trkpt lat="34.762433990836143" lon="-2.444405034184456">
        <ele>994.14099999999996</ele>
        <time>2010-12-27T10:33:24Z</time>
      </trkpt>
      <trkpt lat="34.761981032788754" lon="-2.444719020277262">
        <ele>989.33399999999995</ele>
        <time>2010-12-27T10:46:25Z</time>
      </trkpt>
      <trkpt lat="34.761251974850893" lon="-2.44516896083951">
        <ele>984.04700000000003</ele>
        <time>2010-12-27T10:46:33Z</time>
      </trkpt>
      <trkpt lat="34.761059023439884" lon="-2.44529795832932">
        <ele>982.60500000000002</ele>
        <time>2010-12-27T10:46:36Z</time>
      </trkpt>
      <trkpt lat="34.760948969051242" lon="-2.445170972496271">
        <ele>980.20100000000002</ele>
        <time>2010-12-27T10:46:41Z</time>
      </trkpt>
      <trkpt lat="34.761134041473269" lon="-2.445005010813475">
        <ele>978.279</ele>
        <time>2010-12-27T10:46:44Z</time>
      </trkpt>
      <trkpt lat="34.761688001453876" lon="-2.444452978670597">
        <ele>972.99199999999996</ele>
        <time>2010-12-27T10:46:51Z</time>
      </trkpt>
      <trkpt lat="34.761867038905621" lon="-2.44396397843957">
        <ele>963.85900000000004</ele>
        <time>2010-12-27T10:46:55Z</time>
      </trkpt>
      <trkpt lat="34.761878019198775" lon="-2.44299796409905">
        <ele>951.84299999999996</ele>
        <time>2010-12-27T10:47:02Z</time>
      </trkpt>
      <trkpt lat="34.762149006128311" lon="-2.442434029653668">
        <ele>944.15200000000004</ele>
        <time>2010-12-27T10:47:08Z</time>
      </trkpt>
      <trkpt lat="34.762508003041148" lon="-2.442448027431965">
        <ele>939.34500000000003</ele>
        <time>2010-12-27T10:47:12Z</time>
      </trkpt>
      <trkpt lat="34.762712018564343" lon="-2.442517010495067">
        <ele>936.94200000000001</ele>
        <time>2010-12-27T10:47:14Z</time>
      </trkpt>
      <trkpt lat="34.763524979352951" lon="-2.443116987124085">
        <ele>928.77099999999996</ele>
        <time>2010-12-27T10:47:22Z</time>
      </trkpt>
      <trkpt lat="34.764417987316847" lon="-2.443843027576804">
        <ele>916.75400000000002</ele>
        <time>2010-12-27T10:47:31Z</time>
      </trkpt>
      <trkpt lat="34.765508975833654" lon="-2.444727988913655">
        <ele>901.37300000000005</ele>
        <time>2010-12-27T10:47:42Z</time>
      </trkpt>
      <trkpt lat="34.765972997993231" lon="-2.444942984730005">
        <ele>896.08600000000001</ele>
        <time>2010-12-27T10:47:48Z</time>
      </trkpt>
      <trkpt lat="34.766073999926448" lon="-2.444985983893275">
        <ele>894.64400000000001</ele>
        <time>2010-12-27T10:47:50Z</time>
      </trkpt>
      <trkpt lat="34.766219006851315" lon="-2.444791020825505">
        <ele>889.83699999999999</ele>
        <time>2010-12-27T10:47:56Z</time>
      </trkpt>
      <trkpt lat="34.76597199216485" lon="-2.444475023075938">
        <ele>889.35699999999997</ele>
        <time>2010-12-27T10:48:01Z</time>
      </trkpt>
      <trkpt lat="34.765878031030297" lon="-2.444190038368106">
        <ele>890.31799999999998</ele>
        <time>2010-12-27T10:48:04Z</time>
      </trkpt>
      <trkpt lat="34.765977021306753" lon="-2.443713024258614">
        <ele>888.87599999999998</ele>
        <time>2010-12-27T10:48:09Z</time>
      </trkpt>
      <trkpt lat="34.766042986884713" lon="-2.443627025932074">
        <ele>888.39599999999996</ele>
        <time>2010-12-27T10:48:10Z</time>
      </trkpt>
      <trkpt lat="34.7661869879812" lon="-2.443452011793852">
        <ele>886.95299999999997</ele>
        <time>2010-12-27T10:48:12Z</time>
      </trkpt>
      <trkpt lat="34.766365019604564" lon="-2.44301900267601">
        <ele>885.51099999999997</ele>
        <time>2010-12-27T10:48:16Z</time>
      </trkpt>
      <trkpt lat="34.766469039022923" lon="-2.44254500605166">
        <ele>884.07000000000005</ele>
        <time>2010-12-27T10:48:20Z</time>
      </trkpt>
      <trkpt lat="34.766602981835604" lon="-2.441518977284432">
        <ele>879.74400000000003</ele>
        <time>2010-12-27T10:48:29Z</time>
      </trkpt>
      <trkpt lat="34.766538022086024" lon="-2.441118992865086">
        <ele>877.82100000000003</ele>
        <time>2010-12-27T10:48:33Z</time>
      </trkpt>
      <trkpt lat="34.766162009909749" lon="-2.440630998462439">
        <ele>873.976</ele>
        <time>2010-12-27T10:48:39Z</time>
      </trkpt>
      <trkpt lat="34.76607701741159" lon="-2.440216010436416">
        <ele>870.61099999999999</ele>
        <time>2010-12-27T10:48:44Z</time>
      </trkpt>
      <trkpt lat="34.766350015997887" lon="-2.439959021285176">
        <ele>867.24699999999996</ele>
        <time>2010-12-27T10:48:49Z</time>
      </trkpt>
      <trkpt lat="34.766510026529431" lon="-2.439746959134936">
        <ele>865.80499999999995</ele>
        <time>2010-12-27T10:48:54Z</time>
      </trkpt>
      <trkpt lat="34.766448000445962" lon="-2.43960396386683">
        <ele>865.80499999999995</ele>
        <time>2010-12-27T10:48:56Z</time>
      </trkpt>
      <trkpt lat="34.7663579788059" lon="-2.439463986083865">
        <ele>865.80499999999995</ele>
        <time>2010-12-27T10:48:58Z</time>
      </trkpt>
      <trkpt lat="34.76629201322794" lon="-2.439055033028126">
        <ele>866.76599999999996</ele>
        <time>2010-12-27T10:49:04Z</time>
      </trkpt>
      <trkpt lat="34.766086991876364" lon="-2.438783962279558">
        <ele>865.32399999999996</ele>
        <time>2010-12-27T10:49:11Z</time>
      </trkpt>
      <trkpt lat="34.765869984403253" lon="-2.438720008358359">
        <ele>863.88199999999995</ele>
        <time>2010-12-27T10:49:14Z</time>
      </trkpt>
      <trkpt lat="34.765117960050702" lon="-2.438251040875912">
        <ele>854.74900000000002</ele>
        <time>2010-12-27T10:49:24Z</time>
      </trkpt>
      <trkpt lat="34.76440298371017" lon="-2.437764974310994">
        <ele>844.65599999999995</ele>
        <time>2010-12-27T10:49:33Z</time>
      </trkpt>
      <trkpt lat="34.763486003503203" lon="-2.436523027718067">
        <ele>832.63900000000001</ele>
        <time>2010-12-27T10:49:45Z</time>
      </trkpt>
      <trkpt lat="34.762227041646838" lon="-2.436309959739447">
        <ele>823.50699999999995</ele>
        <time>2010-12-27T10:49:56Z</time>
      </trkpt>
      <trkpt lat="34.761544000357389" lon="-2.435533041134477">
        <ele>817.73900000000003</ele>
        <time>2010-12-27T10:50:04Z</time>
      </trkpt>
      <trkpt lat="34.760987022891641" lon="-2.434909008443356">
        <ele>813.41300000000001</ele>
        <time>2010-12-27T10:50:11Z</time>
      </trkpt>
      <trkpt lat="34.760787030681968" lon="-2.434443980455399">
        <ele>811.49000000000001</ele>
        <time>2010-12-27T10:50:15Z</time>
      </trkpt>
      <trkpt lat="34.760576980188489" lon="-2.43266299366951">
        <ele>805.24099999999999</ele>
        <time>2010-12-27T10:50:26Z</time>
      </trkpt>
      <trkpt lat="34.759773993864655" lon="-2.431202027946711">
        <ele>797.55100000000004</ele>
        <time>2010-12-27T10:50:37Z</time>
      </trkpt>
      <trkpt lat="34.759385995566845" lon="-2.430281024426222">
        <ele>791.78300000000002</ele>
        <time>2010-12-27T10:50:45Z</time>
      </trkpt>
      <trkpt lat="34.759292034432292" lon="-2.430057981982827">
        <ele>789.38</ele>
        <time>2010-12-27T10:50:51Z</time>
      </trkpt>
      <trkpt lat="34.759208969771862" lon="-2.429861007258296">
        <ele>789.86000000000001</ele>
        <time>2010-12-27T10:51:46Z</time>
      </trkpt>
      <trkpt lat="34.759304020553827" lon="-2.430228972807527">
        <ele>790.822</ele>
        <time>2010-12-27T10:51:52Z</time>
      </trkpt>
      <trkpt lat="34.759186003357172" lon="-2.430336009711027">
        <ele>793.22500000000002</ele>
        <time>2010-12-27T10:52:03Z</time>
      </trkpt>
      <trkpt lat="34.759087013080716" lon="-2.430427959188819">
        <ele>796.10900000000004</ele>
        <time>2010-12-27T10:52:14Z</time>
      </trkpt>
      <trkpt lat="34.758878974243999" lon="-2.430618982762098">
        <ele>796.10900000000004</ele>
        <time>2010-12-27T10:52:23Z</time>
      </trkpt>
      <trkpt lat="34.758675964549184" lon="-2.430841019377112">
        <ele>797.55100000000004</ele>
        <time>2010-12-27T10:52:33Z</time>
      </trkpt>
      <trkpt lat="34.758455017581582" lon="-2.431093985214829">
        <ele>797.55100000000004</ele>
        <time>2010-12-27T10:52:45Z</time>
      </trkpt>
      <trkpt lat="34.75830196402967" lon="-2.431270005181432">
        <ele>798.03200000000004</ele>
        <time>2010-12-27T10:53:05Z</time>
      </trkpt>
      <trkpt lat="34.757985966280103" lon="-2.430761978030205">
        <ele>796.10900000000004</ele>
        <time>2010-12-27T10:53:12Z</time>
      </trkpt>
      <trkpt lat="34.758304981514812" lon="-2.430538013577461">
        <ele>791.30200000000002</ele>
        <time>2010-12-27T10:58:04Z</time>
      </trkpt>
      <trkpt lat="34.758962960913777" lon="-2.430541031062603">
        <ele>790.34100000000001</ele>
        <time>2010-12-27T10:58:14Z</time>
      </trkpt>
      <trkpt lat="34.759120959788561" lon="-2.430396024137735">
        <ele>789.86000000000001</ele>
        <time>2010-12-27T10:58:20Z</time>
      </trkpt>
      <trkpt lat="34.759210981428623" lon="-2.430313965305686">
        <ele>772.07600000000002</ele>
        <time>2010-12-27T11:27:49Z</time>
      </trkpt>
      <trkpt lat="34.759233025833964" lon="-2.429916998371482">
        <ele>778.32399999999996</ele>
        <time>2010-12-27T11:28:01Z</time>
      </trkpt>
      <trkpt lat="34.759078966453671" lon="-2.429551966488361">
        <ele>780.24699999999996</ele>
        <time>2010-12-27T11:28:10Z</time>
      </trkpt>
      <trkpt lat="34.758919961750507" lon="-2.429174026474357">
        <ele>783.13099999999997</ele>
        <time>2010-12-27T11:28:19Z</time>
      </trkpt>
      <trkpt lat="34.758584015071392" lon="-2.428375985473394">
        <ele>780.72799999999995</ele>
        <time>2010-12-27T11:28:31Z</time>
      </trkpt>
      <trkpt lat="34.758115969598293" lon="-2.427428998053074">
        <ele>774.96000000000004</ele>
        <time>2010-12-27T11:28:46Z</time>
      </trkpt>
      <trkpt lat="34.757586987689137" lon="-2.42660597898066">
        <ele>773.51800000000003</ele>
        <time>2010-12-27T11:28:59Z</time>
      </trkpt>
      <trkpt lat="34.757019029930234" lon="-2.425723029300571">
        <ele>770.63400000000001</ele>
        <time>2010-12-27T11:29:12Z</time>
      </trkpt>
      <trkpt lat="34.756444031372666" lon="-2.424964969977737">
        <ele>768.23099999999999</ele>
        <time>2010-12-27T11:29:23Z</time>
      </trkpt>
      <trkpt lat="34.755501989275217" lon="-2.42389602586627">
        <ele>763.42399999999998</ele>
        <time>2010-12-27T11:29:40Z</time>
      </trkpt>
      <trkpt lat="34.755011983215809" lon="-2.423337958753109">
        <ele>759.57899999999995</ele>
        <time>2010-12-27T11:29:48Z</time>
      </trkpt>
      <trkpt lat="34.754376970231533" lon="-2.422809982672334">
        <ele>752.36900000000003</ele>
        <time>2010-12-27T11:29:59Z</time>
      </trkpt>
      <trkpt lat="34.753598961979151" lon="-2.42222098633647">
        <ele>747.56200000000001</ele>
        <time>2010-12-27T11:30:13Z</time>
      </trkpt>
      <trkpt lat="34.753296039998531" lon="-2.421991992741823">
        <ele>744.678</ele>
        <time>2010-12-27T11:30:21Z</time>
      </trkpt>
      <trkpt lat="34.75359401665628" lon="-2.421272993087769">
        <ele>744.678</ele>
        <time>2010-12-27T11:30:28Z</time>
      </trkpt>
      <trkpt lat="34.753857040777802" lon="-2.420452991500497">
        <ele>744.19799999999998</ele>
        <time>2010-12-27T11:30:39Z</time>
      </trkpt>
      <trkpt lat="34.755113990977407" lon="-2.419597031548619">
        <ele>746.601</ele>
        <time>2010-12-27T11:30:55Z</time>
      </trkpt>
      <trkpt lat="34.75576501339674" lon="-2.419083975255489">
        <ele>747.08199999999999</ele>
        <time>2010-12-27T11:31:05Z</time>
      </trkpt>
      <trkpt lat="34.755879007279873" lon="-2.418715003877878">
        <ele>746.601</ele>
        <time>2010-12-27T11:31:11Z</time>
      </trkpt>
      <trkpt lat="34.755812035873532" lon="-2.418580977246165">
        <ele>746.601</ele>
        <time>2010-12-27T11:31:13Z</time>
      </trkpt>
      <trkpt lat="34.755122037604451" lon="-2.417418994009495">
        <ele>742.27499999999998</ele>
        <time>2010-12-27T11:31:29Z</time>
      </trkpt>
      <trkpt lat="34.754479983821511" lon="-2.416386008262634">
        <ele>737.46900000000005</ele>
        <time>2010-12-27T11:31:43Z</time>
      </trkpt>
      <trkpt lat="34.754344029352069" lon="-2.41581603884697">
        <ele>736.02700000000004</ele>
        <time>2010-12-27T11:31:51Z</time>
      </trkpt>
      <trkpt lat="34.754373030737042" lon="-2.415650999173522">
        <ele>735.06500000000005</ele>
        <time>2010-12-27T11:31:53Z</time>
      </trkpt>
      <trkpt lat="34.754259036853909" lon="-2.41491699591279">
        <ele>733.14300000000003</ele>
        <time>2010-12-27T11:32:02Z</time>
      </trkpt>
      <trkpt lat="34.75398100912571" lon="-2.413843022659421">
        <ele>730.25900000000001</ele>
        <time>2010-12-27T11:32:13Z</time>
      </trkpt>
      <trkpt lat="34.753558980301023" lon="-2.412672992795706">
        <ele>728.33600000000001</ele>
        <time>2010-12-27T11:32:24Z</time>
      </trkpt>
      <trkpt lat="34.752937965095043" lon="-2.411104990169406">
        <ele>725.93299999999999</ele>
        <time>2010-12-27T11:32:39Z</time>
      </trkpt>
      <trkpt lat="34.75252197124064" lon="-2.410064963623881">
        <ele>723.52999999999997</ele>
        <time>2010-12-27T11:32:50Z</time>
      </trkpt>
      <trkpt lat="34.752232041209936" lon="-2.409263988956809">
        <ele>722.08699999999999</ele>
        <time>2010-12-27T11:32:59Z</time>
      </trkpt>
      <trkpt lat="34.752174038439989" lon="-2.408990990370512">
        <ele>721.60699999999997</ele>
        <time>2010-12-27T11:33:02Z</time>
      </trkpt>
      <trkpt lat="34.751844964921474" lon="-2.408670969307423">
        <ele>719.68399999999997</ele>
        <time>2010-12-27T11:33:08Z</time>
      </trkpt>
      <trkpt lat="34.75056798197329" lon="-2.408343991264701">
        <ele>714.39700000000005</ele>
        <time>2010-12-27T11:33:23Z</time>
      </trkpt>
      <trkpt lat="34.749364005401731" lon="-2.408582959324122">
        <ele>709.59000000000003</ele>
        <time>2010-12-27T11:33:36Z</time>
      </trkpt>
      <trkpt lat="34.748289026319981" lon="-2.407399015501142">
        <ele>708.62900000000002</ele>
        <time>2010-12-27T11:33:51Z</time>
      </trkpt>
      <trkpt lat="34.747246988117695" lon="-2.406713040545583">
        <ele>714.39700000000005</ele>
        <time>2010-12-27T11:34:04Z</time>
      </trkpt>
      <trkpt lat="34.746425980702043" lon="-2.406337028369308">
        <ele>714.87699999999995</ele>
        <time>2010-12-27T11:34:13Z</time>
      </trkpt>
      <trkpt lat="34.745483016595244" lon="-2.406049026176333">
        <ele>714.39700000000005</ele>
        <time>2010-12-27T11:34:23Z</time>
      </trkpt>
      <trkpt lat="34.744639964774251" lon="-2.405694974586368">
        <ele>713.43600000000004</ele>
        <time>2010-12-27T11:34:32Z</time>
      </trkpt>
      <trkpt lat="34.743930017575622" lon="-2.40541803650558">
        <ele>711.99400000000003</ele>
        <time>2010-12-27T11:34:39Z</time>
      </trkpt>
      <trkpt lat="34.742844980210066" lon="-2.405081000179052">
        <ele>710.55200000000002</ele>
        <time>2010-12-27T11:34:50Z</time>
      </trkpt>
      <trkpt lat="34.742018021643162" lon="-2.40481898188591">
        <ele>709.11000000000001</ele>
        <time>2010-12-27T11:34:58Z</time>
      </trkpt>
      <trkpt lat="34.741089977324009" lon="-2.404488986358047">
        <ele>707.18700000000001</ele>
        <time>2010-12-27T11:35:07Z</time>
      </trkpt>
      <trkpt lat="34.739911984652281" lon="-2.404096964746714">
        <ele>705.26400000000001</ele>
        <time>2010-12-27T11:35:18Z</time>
      </trkpt>
      <trkpt lat="34.738594014197588" lon="-2.403619028627873">
        <ele>702.86099999999999</ele>
        <time>2010-12-27T11:35:30Z</time>
      </trkpt>
      <trkpt lat="34.737150985747576" lon="-2.403143020346761">
        <ele>699.97699999999998</ele>
        <time>2010-12-27T11:35:43Z</time>
      </trkpt>
      <trkpt lat="34.736696016043425" lon="-2.402571961283684">
        <ele>698.53499999999997</ele>
        <time>2010-12-27T11:35:50Z</time>
      </trkpt>
      <trkpt lat="34.735821029171348" lon="-2.402326036244631">
        <ele>698.53499999999997</ele>
        <time>2010-12-27T11:35:57Z</time>
      </trkpt>
      <trkpt lat="34.735373016446829" lon="-2.40183100104332">
        <ele>698.05399999999997</ele>
        <time>2010-12-27T11:36:03Z</time>
      </trkpt>
      <trkpt lat="34.734921986237168" lon="-2.400870015844703">
        <ele>696.61300000000006</ele>
        <time>2010-12-27T11:36:12Z</time>
      </trkpt>
      <trkpt lat="34.734442038461566" lon="-2.399499993771315">
        <ele>693.72900000000004</ele>
        <time>2010-12-27T11:36:23Z</time>
      </trkpt>
      <trkpt lat="34.734352016821504" lon="-2.398065011948347">
        <ele>692.28700000000003</ele>
        <time>2010-12-27T11:36:33Z</time>
      </trkpt>
      <trkpt lat="34.733822029083967" lon="-2.397088017314673">
        <ele>689.88300000000004</ele>
        <time>2010-12-27T11:36:44Z</time>
      </trkpt>
      <trkpt lat="34.733608039095998" lon="-2.396693984046578">
        <ele>687.48000000000002</ele>
        <time>2010-12-27T11:36:49Z</time>
      </trkpt>
      <trkpt lat="34.733483986929059" lon="-2.396465996280313">
        <ele>686.03800000000001</ele>
        <time>2010-12-27T11:36:52Z</time>
      </trkpt>
      <trkpt lat="34.733193973079324" lon="-2.395930979400873">
        <ele>684.596</ele>
        <time>2010-12-27T11:37:00Z</time>
      </trkpt>
      <trkpt lat="34.732999010011554" lon="-2.395572988316417">
        <ele>682.673</ele>
        <time>2010-12-27T11:37:08Z</time>
      </trkpt>
      <trkpt lat="34.732603970915079" lon="-2.394845020025969">
        <ele>680.26999999999998</ele>
        <time>2010-12-27T11:37:18Z</time>
      </trkpt>
      <trkpt lat="34.732121005654335" lon="-2.393914964050055">
        <ele>678.82799999999997</ele>
        <time>2010-12-27T11:37:28Z</time>
      </trkpt>
      <trkpt lat="34.731677016243339" lon="-2.392979040741921">
        <ele>678.82799999999997</ele>
        <time>2010-12-27T11:37:39Z</time>
      </trkpt>
      <trkpt lat="34.730660961940885" lon="-2.392461961135268">
        <ele>676.90599999999995</ele>
        <time>2010-12-27T11:37:49Z</time>
      </trkpt>
      <trkpt lat="34.730345970019698" lon="-2.391564007848501">
        <ele>675.94399999999996</ele>
        <time>2010-12-27T11:37:58Z</time>
      </trkpt>
      <trkpt lat="34.730233987793326" lon="-2.391310958191752">
        <ele>676.90599999999995</ele>
        <time>2010-12-27T11:38:03Z</time>
      </trkpt>
      <trkpt lat="34.730119993910193" lon="-2.391092022880912">
        <ele>677.86699999999996</ele>
        <time>2010-12-27T11:38:09Z</time>
      </trkpt>
      <trkpt lat="34.729688996449113" lon="-2.390374029055238">
        <ele>680.26999999999998</ele>
        <time>2010-12-27T11:38:18Z</time>
      </trkpt>
      <trkpt lat="34.729034034535289" lon="-2.389245992526412">
        <ele>681.71199999999999</ele>
        <time>2010-12-27T11:38:28Z</time>
      </trkpt>
      <trkpt lat="34.72845702432096" lon="-2.388227004557848">
        <ele>679.78899999999999</ele>
        <time>2010-12-27T11:38:38Z</time>
      </trkpt>
      <trkpt lat="34.727782029658556" lon="-2.387060998007655">
        <ele>679.30899999999997</ele>
        <time>2010-12-27T11:38:49Z</time>
      </trkpt>
      <trkpt lat="34.72738103941083" lon="-2.385577987879515">
        <ele>678.82799999999997</ele>
        <time>2010-12-27T11:39:00Z</time>
      </trkpt>
      <trkpt lat="34.727165037766099" lon="-2.385314041748643">
        <ele>678.34699999999998</ele>
        <time>2010-12-27T11:39:03Z</time>
      </trkpt>
      <trkpt lat="34.726528013125062" lon="-2.384626977145672">
        <ele>679.30899999999997</ele>
        <time>2010-12-27T11:39:11Z</time>
      </trkpt>
      <trkpt lat="34.725196966901422" lon="-2.383745033293963">
        <ele>679.78899999999999</ele>
        <time>2010-12-27T11:39:24Z</time>
      </trkpt>
      <trkpt lat="34.724840987473726" lon="-2.383564990013838">
        <ele>679.30899999999997</ele>
        <time>2010-12-27T11:39:28Z</time>
      </trkpt>
      <trkpt lat="34.724474027752876" lon="-2.38341998308897">
        <ele>677.38599999999997</ele>
        <time>2010-12-27T11:39:32Z</time>
      </trkpt>
      <trkpt lat="34.723367029801011" lon="-2.382983034476638">
        <ele>672.58000000000004</ele>
        <time>2010-12-27T11:39:42Z</time>
      </trkpt>
      <trkpt lat="34.722601007670164" lon="-2.381967986002564">
        <ele>671.13800000000003</ele>
        <time>2010-12-27T11:39:50Z</time>
      </trkpt>
      <trkpt lat="34.721355037763715" lon="-2.381056034937501">
        <ele>666.81200000000001</ele>
        <time>2010-12-27T11:40:01Z</time>
      </trkpt>
      <trkpt lat="34.720238987356424" lon="-2.380356984212995">
        <ele>663.447</ele>
        <time>2010-12-27T11:40:11Z</time>
      </trkpt>
      <trkpt lat="34.718972984701395" lon="-2.379514016211033">
        <ele>660.56299999999999</ele>
        <time>2010-12-27T11:40:22Z</time>
      </trkpt>
      <trkpt lat="34.717975035309792" lon="-2.379018981009722">
        <ele>658.63999999999999</ele>
        <time>2010-12-27T11:40:30Z</time>
      </trkpt>
      <trkpt lat="34.716912964358926" lon="-2.378409029915929">
        <ele>657.67899999999997</ele>
        <time>2010-12-27T11:40:39Z</time>
      </trkpt>
      <trkpt lat="34.716206034645438" lon="-2.378656966611743">
        <ele>655.75699999999995</ele>
        <time>2010-12-27T11:40:47Z</time>
      </trkpt>
      <trkpt lat="34.715740000829101" lon="-2.377665974199772">
        <ele>653.83399999999995</ele>
        <time>2010-12-27T11:40:53Z</time>
      </trkpt>
      <trkpt lat="34.714828971773386" lon="-2.377074966207147">
        <ele>651.42999999999995</ele>
        <time>2010-12-27T11:41:03Z</time>
      </trkpt>
      <trkpt lat="34.714476009830832" lon="-2.376785036176443">
        <ele>650.46900000000005</ele>
        <time>2010-12-27T11:41:07Z</time>
      </trkpt>
      <trkpt lat="34.714183984324336" lon="-2.376348003745079">
        <ele>649.98900000000003</ele>
        <time>2010-12-27T11:41:12Z</time>
      </trkpt>
      <trkpt lat="34.71380302682519" lon="-2.376149017363787">
        <ele>649.98900000000003</ele>
        <time>2010-12-27T11:41:18Z</time>
      </trkpt>
      <trkpt lat="34.712908007204533" lon="-2.375548034906387">
        <ele>650.46900000000005</ele>
        <time>2010-12-27T11:41:28Z</time>
      </trkpt>
      <trkpt lat="34.711708975955844" lon="-2.374723004177213">
        <ele>649.98900000000003</ele>
        <time>2010-12-27T11:41:39Z</time>
      </trkpt>
      <trkpt lat="34.709922960028052" lon="-2.37338500097394">
        <ele>649.50800000000004</ele>
        <time>2010-12-27T11:41:55Z</time>
      </trkpt>
      <trkpt lat="34.709020983427763" lon="-2.372797010466456">
        <ele>648.54600000000005</ele>
        <time>2010-12-27T11:42:03Z</time>
      </trkpt>
      <trkpt lat="34.707894958555698" lon="-2.371878018602729">
        <ele>647.10400000000004</ele>
        <time>2010-12-27T11:42:14Z</time>
      </trkpt>
      <trkpt lat="34.707232033833861" lon="-2.371028009802103">
        <ele>647.10400000000004</ele>
        <time>2010-12-27T11:42:22Z</time>
      </trkpt>
      <trkpt lat="34.707115022465587" lon="-2.370820976793766">
        <ele>646.62400000000002</ele>
        <time>2010-12-27T11:42:24Z</time>
      </trkpt>
      <trkpt lat="34.706609006971121" lon="-2.370322002097964">
        <ele>642.779</ele>
        <time>2010-12-27T11:42:31Z</time>
      </trkpt>
      <trkpt lat="34.706045994535089" lon="-2.369822021573782">
        <ele>642.298</ele>
        <time>2010-12-27T11:42:38Z</time>
      </trkpt>
      <trkpt lat="34.70514896325767" lon="-2.369212992489338">
        <ele>642.298</ele>
        <time>2010-12-27T11:42:48Z</time>
      </trkpt>
      <trkpt lat="34.704365003854036" lon="-2.368631958961487">
        <ele>642.298</ele>
        <time>2010-12-27T11:42:57Z</time>
      </trkpt>
      <trkpt lat="34.703505020588636" lon="-2.36805897206068">
        <ele>642.298</ele>
        <time>2010-12-27T11:43:07Z</time>
      </trkpt>
      <trkpt lat="34.703240990638733" lon="-2.367908013984561">
        <ele>641.81700000000001</ele>
        <time>2010-12-27T11:43:10Z</time>
      </trkpt>
      <trkpt lat="34.702615030109882" lon="-2.367323040962219">
        <ele>641.33699999999999</ele>
        <time>2010-12-27T11:43:18Z</time>
      </trkpt>
      <trkpt lat="34.701935006305575" lon="-2.366914004087448">
        <ele>640.85599999999999</ele>
        <time>2010-12-27T11:43:26Z</time>
      </trkpt>
      <trkpt lat="34.701153980568051" lon="-2.366286031901836">
        <ele>640.375</ele>
        <time>2010-12-27T11:43:35Z</time>
      </trkpt>
      <trkpt lat="34.700795989483595" lon="-2.366101965308189">
        <ele>640.375</ele>
        <time>2010-12-27T11:43:39Z</time>
      </trkpt>
      <trkpt lat="34.700276982039213" lon="-2.365843970328569">
        <ele>639.89499999999998</ele>
        <time>2010-12-27T11:43:45Z</time>
      </trkpt>
      <trkpt lat="34.699976993724704" lon="-2.365641966462135">
        <ele>639.89499999999998</ele>
        <time>2010-12-27T11:43:49Z</time>
      </trkpt>
      <trkpt lat="34.699741965159774" lon="-2.365342983976007">
        <ele>639.41399999999999</ele>
        <time>2010-12-27T11:43:53Z</time>
      </trkpt>
      <trkpt lat="34.699426973238587" lon="-2.364508984610438">
        <ele>638.93399999999997</ele>
        <time>2010-12-27T11:44:02Z</time>
      </trkpt>
      <trkpt lat="34.699401995167136" lon="-2.36414403654635">
        <ele>639.41399999999999</ele>
        <time>2010-12-27T11:44:07Z</time>
      </trkpt>
      <trkpt lat="34.699471984058619" lon="-2.363518998026848">
        <ele>639.89499999999998</ele>
        <time>2010-12-27T11:44:15Z</time>
      </trkpt>
      <trkpt lat="34.699277020990849" lon="-2.362903011962771">
        <ele>640.85599999999999</ele>
        <time>2010-12-27T11:44:22Z</time>
      </trkpt>
      <trkpt lat="34.699113992974162" lon="-2.362439995631576">
        <ele>641.33699999999999</ele>
        <time>2010-12-27T11:44:27Z</time>
      </trkpt>
      <trkpt lat="34.699011985212564" lon="-2.362241009250283">
        <ele>641.81700000000001</ele>
        <time>2010-12-27T11:44:30Z</time>
      </trkpt>
      <trkpt lat="34.698804030194879" lon="-2.362160040065646">
        <ele>643.25900000000001</ele>
        <time>2010-12-27T11:44:36Z</time>
      </trkpt>
      <trkpt lat="34.698255015537143" lon="-2.362304963171482">
        <ele>645.66300000000001</ele>
        <time>2010-12-27T11:44:48Z</time>
      </trkpt>
      <trkpt lat="34.697915967553854" lon="-2.362260036170483">
        <ele>646.62400000000002</ele>
        <time>2010-12-27T11:44:54Z</time>
      </trkpt>
      <trkpt lat="34.697277015075088" lon="-2.362284008413553">
        <ele>647.58500000000004</ele>
        <time>2010-12-27T11:45:04Z</time>
      </trkpt>
      <trkpt lat="34.696759013459086" lon="-2.362353997305036">
        <ele>648.06600000000003</ele>
        <time>2010-12-27T11:45:13Z</time>
      </trkpt>
      <trkpt lat="34.69597396440804" lon="-2.36238400451839">
        <ele>649.02700000000004</ele>
        <time>2010-12-27T11:45:23Z</time>
      </trkpt>
      <trkpt lat="34.695348003879189" lon="-2.362303035333753">
        <ele>649.98900000000003</ele>
        <time>2010-12-27T11:45:32Z</time>
      </trkpt>
      <trkpt lat="34.694648031145334" lon="-2.362110000103712">
        <ele>647.58500000000004</ele>
        <time>2010-12-27T11:45:41Z</time>
      </trkpt>
      <trkpt lat="34.694088036194444" lon="-2.361899027600884">
        <ele>646.14300000000003</ele>
        <time>2010-12-27T11:45:48Z</time>
      </trkpt>
      <trkpt lat="34.693207014352083" lon="-2.361671961843967">
        <ele>647.10400000000004</ele>
        <time>2010-12-27T11:45:58Z</time>
      </trkpt>
      <trkpt lat="34.692018963396549" lon="-2.361107021570206">
        <ele>646.62400000000002</ele>
        <time>2010-12-27T11:46:11Z</time>
      </trkpt>
      <trkpt lat="34.691682010889053" lon="-2.360921027138829">
        <ele>646.62400000000002</ele>
        <time>2010-12-27T11:46:15Z</time>
      </trkpt>
      <trkpt lat="34.691269034519792" lon="-2.360843997448683">
        <ele>646.14300000000003</ele>
        <time>2010-12-27T11:46:20Z</time>
      </trkpt>
      <trkpt lat="34.690681966021657" lon="-2.360642999410629">
        <ele>645.66300000000001</ele>
        <time>2010-12-27T11:46:28Z</time>
      </trkpt>
      <trkpt lat="34.690533019602299" lon="-2.360596982762218">
        <ele>645.66300000000001</ele>
        <time>2010-12-27T11:46:30Z</time>
      </trkpt>
      <trkpt lat="34.689751993864775" lon="-2.360209990292788">
        <ele>644.221</ele>
        <time>2010-12-27T11:46:40Z</time>
      </trkpt>
      <trkpt lat="34.689045986160636" lon="-2.35991301946342">
        <ele>645.18200000000002</ele>
        <time>2010-12-27T11:46:48Z</time>
      </trkpt>
      <trkpt lat="34.688595961779356" lon="-2.359711015596986">
        <ele>645.66300000000001</ele>
        <time>2010-12-27T11:46:53Z</time>
      </trkpt>
      <trkpt lat="34.688405022025108" lon="-2.359562991186976">
        <ele>645.18200000000002</ele>
        <time>2010-12-27T11:46:56Z</time>
      </trkpt>
      <trkpt lat="34.687932031229138" lon="-2.359413038939238">
        <ele>646.14300000000003</ele>
        <time>2010-12-27T11:47:02Z</time>
      </trkpt>
      <trkpt lat="34.687478989362717" lon="-2.359193013980985">
        <ele>646.62400000000002</ele>
        <time>2010-12-27T11:47:07Z</time>
      </trkpt>
      <trkpt lat="34.686443991959095" lon="-2.358978018164635">
        <ele>647.58500000000004</ele>
        <time>2010-12-27T11:47:17Z</time>
      </trkpt>
      <trkpt lat="34.686338966712356" lon="-2.358972989022732">
        <ele>647.58500000000004</ele>
        <time>2010-12-27T11:47:18Z</time>
      </trkpt>
      <trkpt lat="34.685833035036922" lon="-2.358908029273152">
        <ele>647.58500000000004</ele>
        <time>2010-12-27T11:47:23Z</time>
      </trkpt>
      <trkpt lat="34.684767024591565" lon="-2.358835022896528">
        <ele>647.10400000000004</ele>
        <time>2010-12-27T11:47:34Z</time>
      </trkpt>
      <trkpt lat="34.684559991583228" lon="-2.358655985444784">
        <ele>645.66300000000001</ele>
        <time>2010-12-27T11:47:38Z</time>
      </trkpt>
      <trkpt lat="34.684271989390254" lon="-2.357799019664526">
        <ele>644.221</ele>
        <time>2010-12-27T11:47:47Z</time>
      </trkpt>
      <trkpt lat="34.684103010222316" lon="-2.356951022520661">
        <ele>643.25900000000001</ele>
        <time>2010-12-27T11:47:55Z</time>
      </trkpt>
      <trkpt lat="34.683976024389267" lon="-2.35641298815608">
        <ele>643.25900000000001</ele>
        <time>2010-12-27T11:48:00Z</time>
      </trkpt>
      <trkpt lat="34.683903018012643" lon="-2.356211990118027">
        <ele>643.25900000000001</ele>
        <time>2010-12-27T11:48:02Z</time>
      </trkpt>
      <trkpt lat="34.683777038007975" lon="-2.355347983539105">
        <ele>643.74000000000001</ele>
        <time>2010-12-27T11:48:10Z</time>
      </trkpt>
      <trkpt lat="34.683427009731531" lon="-2.354167979210615">
        <ele>643.25900000000001</ele>
        <time>2010-12-27T11:48:21Z</time>
      </trkpt>
      <trkpt lat="34.682980002835393" lon="-2.353077996522188">
        <ele>643.25900000000001</ele>
        <time>2010-12-27T11:48:31Z</time>
      </trkpt>
      <trkpt lat="34.682934992015362" lon="-2.352970037609339">
        <ele>642.779</ele>
        <time>2010-12-27T11:48:32Z</time>
      </trkpt>
      <trkpt lat="34.682772969827056" lon="-2.352476008236408">
        <ele>642.779</ele>
        <time>2010-12-27T11:48:37Z</time>
      </trkpt>
      <trkpt lat="34.68220098875463" lon="-2.351729013025761">
        <ele>642.298</ele>
        <time>2010-12-27T11:48:46Z</time>
      </trkpt>
      <trkpt lat="34.681922039017081" lon="-2.351446961984038">
        <ele>641.81700000000001</ele>
        <time>2010-12-27T11:48:50Z</time>
      </trkpt>
      <trkpt lat="34.681134978309274" lon="-2.351115038618445">
        <ele>640.375</ele>
        <time>2010-12-27T11:48:58Z</time>
      </trkpt>
      <trkpt lat="34.680090006440878" lon="-2.350544985383749">
        <ele>638.93399999999997</ele>
        <time>2010-12-27T11:49:08Z</time>
      </trkpt>
      <trkpt lat="34.67902097851038" lon="-2.349813999608159">
        <ele>637.49099999999999</ele>
        <time>2010-12-27T11:49:19Z</time>
      </trkpt>
      <trkpt lat="34.678336009383202" lon="-2.348776990547776">
        <ele>637.49099999999999</ele>
        <time>2010-12-27T11:49:28Z</time>
      </trkpt>
      <trkpt lat="34.677352979779243" lon="-2.347123995423317">
        <ele>628.35900000000004</ele>
        <time>2010-12-27T11:49:41Z</time>
      </trkpt>
      <trkpt lat="34.676459971815348" lon="-2.345724971964955">
        <ele>625.47500000000002</ele>
        <time>2010-12-27T11:49:53Z</time>
      </trkpt>
      <trkpt lat="34.675900982692838" lon="-2.34481000341475">
        <ele>625.95600000000002</ele>
        <time>2010-12-27T11:50:02Z</time>
      </trkpt>
      <trkpt lat="34.675276027992368" lon="-2.343853041529656">
        <ele>624.03300000000002</ele>
        <time>2010-12-27T11:50:13Z</time>
      </trkpt>
      <trkpt lat="34.675149964168668" lon="-2.343699987977743">
        <ele>624.03300000000002</ele>
        <time>2010-12-27T11:50:15Z</time>
      </trkpt>
      <trkpt lat="34.674712009727955" lon="-2.342865988612175">
        <ele>624.03300000000002</ele>
        <time>2010-12-27T11:50:23Z</time>
      </trkpt>
      <trkpt lat="34.674016982316971" lon="-2.341732000932097">
        <ele>624.03300000000002</ele>
        <time>2010-12-27T11:50:34Z</time>
      </trkpt>
      <trkpt lat="34.673736020922661" lon="-2.341250041499734">
        <ele>624.03300000000002</ele>
        <time>2010-12-27T11:50:39Z</time>
      </trkpt>
      <trkpt lat="34.673622027039528" lon="-2.341082990169525">
        <ele>624.03300000000002</ele>
        <time>2010-12-27T11:50:41Z</time>
      </trkpt>
      <trkpt lat="34.673028001561761" lon="-2.340126028284431">
        <ele>623.55200000000002</ele>
        <time>2010-12-27T11:50:51Z</time>
      </trkpt>
      <trkpt lat="34.67212401330471" lon="-2.338608987629414">
        <ele>622.59100000000001</ele>
        <time>2010-12-27T11:51:05Z</time>
      </trkpt>
      <trkpt lat="34.672071961686015" lon="-2.338517960160971">
        <ele>622.59100000000001</ele>
        <time>2010-12-27T11:51:06Z</time>
      </trkpt>
      <trkpt lat="34.671681029722095" lon="-2.338261976838112">
        <ele>626.91700000000003</ele>
        <time>2010-12-27T11:51:12Z</time>
      </trkpt>
      <trkpt lat="34.670910984277725" lon="-2.337972968816757">
        <ele>628.35900000000004</ele>
        <time>2010-12-27T11:51:21Z</time>
      </trkpt>
      <trkpt lat="34.669569041579962" lon="-2.337436024099588">
        <ele>625.47500000000002</ele>
        <time>2010-12-27T11:51:34Z</time>
      </trkpt>
      <trkpt lat="34.668092988431454" lon="-2.336862031370401">
        <ele>623.55200000000002</ele>
        <time>2010-12-27T11:51:48Z</time>
      </trkpt>
      <trkpt lat="34.667371977120638" lon="-2.336563970893621">
        <ele>622.59100000000001</ele>
        <time>2010-12-27T11:51:56Z</time>
      </trkpt>
      <trkpt lat="34.667133009061217" lon="-2.336658015847206">
        <ele>622.11000000000001</ele>
        <time>2010-12-27T11:52:01Z</time>
      </trkpt>
      <trkpt lat="34.666874008253217" lon="-2.33763299882412">
        <ele>620.18799999999999</ele>
        <time>2010-12-27T11:52:10Z</time>
      </trkpt>
      <trkpt lat="34.666573014110327" lon="-2.338776038959622">
        <ele>619.226</ele>
        <time>2010-12-27T11:52:21Z</time>
      </trkpt>
      <trkpt lat="34.666357012465596" lon="-2.338896989822388">
        <ele>620.66800000000001</ele>
        <time>2010-12-27T11:52:27Z</time>
      </trkpt>
      <trkpt lat="34.665767010301352" lon="-2.338818032294512">
        <ele>623.55200000000002</ele>
        <time>2010-12-27T11:52:35Z</time>
      </trkpt>
      <trkpt lat="34.665210032835603" lon="-2.338784001767635">
        <ele>623.072</ele>
        <time>2010-12-27T11:52:42Z</time>
      </trkpt>
      <trkpt lat="34.665093021467328" lon="-2.338554002344608">
        <ele>624.99400000000003</ele>
        <time>2010-12-27T11:52:47Z</time>
      </trkpt>
      <trkpt lat="34.665125962346792" lon="-2.337756967172027">
        <ele>627.39800000000002</ele>
        <time>2010-12-27T11:52:54Z</time>
      </trkpt>
      <trkpt lat="34.66512001119554" lon="-2.336132973432541">
        <ele>631.24300000000005</ele>
        <time>2010-12-27T11:53:06Z</time>
      </trkpt>
      <trkpt lat="34.66544296592474" lon="-2.33518498018384">
        <ele>632.68499999999995</ele>
        <time>2010-12-27T11:53:14Z</time>
      </trkpt>
      <trkpt lat="34.666204964742064" lon="-2.333254041150212">
        <ele>633.16499999999996</ele>
        <time>2010-12-27T11:53:30Z</time>
      </trkpt>
      <trkpt lat="34.666312001645565" lon="-2.332123992964625">
        <ele>633.64599999999996</ele>
        <time>2010-12-27T11:53:39Z</time>
      </trkpt>
      <trkpt lat="34.666315019130707" lon="-2.331632981076837">
        <ele>633.64599999999996</ele>
        <time>2010-12-27T11:53:43Z</time>
      </trkpt>
      <trkpt lat="34.666350977495313" lon="-2.331411028280854">
        <ele>634.12699999999995</ele>
        <time>2010-12-27T11:53:45Z</time>
      </trkpt>
      <trkpt lat="34.66638701967895" lon="-2.330961003899574">
        <ele>634.60699999999997</ele>
        <time>2010-12-27T11:53:49Z</time>
      </trkpt>
      <trkpt lat="34.666337985545397" lon="-2.33047803863883">
        <ele>634.60699999999997</ele>
        <time>2010-12-27T11:53:53Z</time>
      </trkpt>
      <trkpt lat="34.666334968060255" lon="-2.329997001215816">
        <ele>634.60699999999997</ele>
        <time>2010-12-27T11:53:57Z</time>
      </trkpt>
      <trkpt lat="34.666406968608499" lon="-2.329671029001474">
        <ele>634.60699999999997</ele>
        <time>2010-12-27T11:54:00Z</time>
      </trkpt>
      <trkpt lat="34.666371010243893" lon="-2.329283030703664">
        <ele>635.08799999999997</ele>
        <time>2010-12-27T11:54:05Z</time>
      </trkpt>
      <trkpt lat="34.666218962520361" lon="-2.329230979084969">
        <ele>632.20399999999995</ele>
        <time>2010-12-27T11:54:10Z</time>
      </trkpt>
      <trkpt lat="34.665947975590825" lon="-2.329201977699995">
        <ele>630.28099999999995</ele>
        <time>2010-12-27T11:54:15Z</time>
      </trkpt>
      <trkpt lat="34.665735997259617" lon="-2.329054959118366">
        <ele>632.20399999999995</ele>
        <time>2010-12-27T11:54:18Z</time>
      </trkpt>
      <trkpt lat="34.664736036211252" lon="-2.32848197221756">
        <ele>634.12699999999995</ele>
        <time>2010-12-27T11:54:29Z</time>
      </trkpt>
      <trkpt lat="34.663484031334519" lon="-2.327739000320435">
        <ele>637.01099999999997</ele>
        <time>2010-12-27T11:54:41Z</time>
      </trkpt>
      <trkpt lat="34.662494966760278" lon="-2.327154027298093">
        <ele>638.45299999999997</ele>
        <time>2010-12-27T11:54:50Z</time>
      </trkpt>
      <trkpt lat="34.661053027957678" lon="-2.326320027932525">
        <ele>637.49099999999999</ele>
        <time>2010-12-27T11:55:02Z</time>
      </trkpt>
      <trkpt lat="34.660662012174726" lon="-2.326086005195975">
        <ele>636.52999999999997</ele>
        <time>2010-12-27T11:55:06Z</time>
      </trkpt>
      <trkpt lat="34.660081984475255" lon="-2.325681997463107">
        <ele>634.60699999999997</ele>
        <time>2010-12-27T11:55:14Z</time>
      </trkpt>
      <trkpt lat="34.659364996477962" lon="-2.324437033385038">
        <ele>633.64599999999996</ele>
        <time>2010-12-27T11:55:24Z</time>
      </trkpt>
      <trkpt lat="34.658490009605885" lon="-2.324006035923958">
        <ele>633.16499999999996</ele>
        <time>2010-12-27T11:55:33Z</time>
      </trkpt>
      <trkpt lat="34.657690040767193" lon="-2.323612002655864">
        <ele>633.64599999999996</ele>
        <time>2010-12-27T11:55:41Z</time>
      </trkpt>
      <trkpt lat="34.656952014192939" lon="-2.323254011571407">
        <ele>634.60699999999997</ele>
        <time>2010-12-27T11:55:48Z</time>
      </trkpt>
      <trkpt lat="34.656553035601974" lon="-2.323059970512986">
        <ele>634.60699999999997</ele>
        <time>2010-12-27T11:55:52Z</time>
      </trkpt>
      <trkpt lat="34.655811991542578" lon="-2.322700973600149">
        <ele>637.01099999999997</ele>
        <time>2010-12-27T11:55:59Z</time>
      </trkpt>
      <trkpt lat="34.654363011941314" lon="-2.321968981996179">
        <ele>638.93399999999997</ele>
        <time>2010-12-27T11:56:11Z</time>
      </trkpt>
      <trkpt lat="34.653101032599807" lon="-2.321270015090704">
        <ele>638.93399999999997</ele>
        <time>2010-12-27T11:56:22Z</time>
      </trkpt>
      <trkpt lat="34.651813991367817" lon="-2.320446996018291">
        <ele>639.89499999999998</ele>
        <time>2010-12-27T11:56:33Z</time>
      </trkpt>
      <trkpt lat="34.650905979797244" lon="-2.319450974464417">
        <ele>640.375</ele>
        <time>2010-12-27T11:56:43Z</time>
      </trkpt>
      <trkpt lat="34.650243977084756" lon="-2.31872501783073">
        <ele>640.85599999999999</ele>
        <time>2010-12-27T11:56:50Z</time>
      </trkpt>
      <trkpt lat="34.64986402541399" lon="-2.318355040624738">
        <ele>640.85599999999999</ele>
        <time>2010-12-27T11:56:55Z</time>
      </trkpt>
      <trkpt lat="34.64937100186944" lon="-2.317872997373343">
        <ele>640.85599999999999</ele>
        <time>2010-12-27T11:57:03Z</time>
      </trkpt>
      <trkpt lat="34.648966994136572" lon="-2.317478964105249">
        <ele>640.85599999999999</ele>
        <time>2010-12-27T11:57:10Z</time>
      </trkpt>
      <trkpt lat="34.64872601442039" lon="-2.317245025187731">
        <ele>641.33699999999999</ele>
        <time>2010-12-27T11:57:14Z</time>
      </trkpt>
      <trkpt lat="34.647895032539964" lon="-2.31679298914969">
        <ele>642.779</ele>
        <time>2010-12-27T11:57:24Z</time>
      </trkpt>
      <trkpt lat="34.647191036492586" lon="-2.316527031362057">
        <ele>642.779</ele>
        <time>2010-12-27T11:57:32Z</time>
      </trkpt>
      <trkpt lat="34.645900977775455" lon="-2.315953960642219">
        <ele>644.221</ele>
        <time>2010-12-27T11:57:45Z</time>
      </trkpt>
      <trkpt lat="34.645092962309718" lon="-2.315579038113356">
        <ele>643.74000000000001</ele>
        <time>2010-12-27T11:57:53Z</time>
      </trkpt>
      <trkpt lat="34.644461972638965" lon="-2.315191039815545">
        <ele>644.70100000000002</ele>
        <time>2010-12-27T11:58:01Z</time>
      </trkpt>
      <trkpt lat="34.644318977370858" lon="-2.315018037334085">
        <ele>644.221</ele>
        <time>2010-12-27T11:58:04Z</time>
      </trkpt>
      <trkpt lat="34.644114039838314" lon="-2.314771022647619">
        <ele>644.221</ele>
        <time>2010-12-27T11:58:08Z</time>
      </trkpt>
      <trkpt lat="34.643652029335499" lon="-2.31421303935349">
        <ele>645.18200000000002</ele>
        <time>2010-12-27T11:58:17Z</time>
      </trkpt>
      <trkpt lat="34.643149031326175" lon="-2.313626976683736">
        <ele>644.70100000000002</ele>
        <time>2010-12-27T11:58:25Z</time>
      </trkpt>
      <trkpt lat="34.642747035250068" lon="-2.313182987272739">
        <ele>645.66300000000001</ele>
        <time>2010-12-27T11:58:34Z</time>
      </trkpt>
      <trkpt lat="34.642610996961594" lon="-2.313033035025001">
        <ele>646.14300000000003</ele>
        <time>2010-12-27T11:58:41Z</time>
      </trkpt>
      <trkpt lat="34.642155021429062" lon="-2.312530959025025">
        <ele>646.14300000000003</ele>
        <time>2010-12-27T11:58:51Z</time>
      </trkpt>
      <trkpt lat="34.64152897708118" lon="-2.311880020424724">
        <ele>648.06600000000003</ele>
        <time>2010-12-27T11:59:03Z</time>
      </trkpt>
      <trkpt lat="34.640951966866851" lon="-2.311404012143612">
        <ele>649.50800000000004</ele>
        <time>2010-12-27T11:59:14Z</time>
      </trkpt>
      <trkpt lat="34.640803020447493" lon="-2.311280965805054">
        <ele>649.50800000000004</ele>
        <time>2010-12-27T11:59:17Z</time>
      </trkpt>
      <trkpt lat="34.640605039894581" lon="-2.311117015779018">
        <ele>649.02700000000004</ele>
        <time>2010-12-27T11:59:21Z</time>
      </trkpt>
      <trkpt lat="34.640404963865876" lon="-2.31095097027719">
        <ele>649.02700000000004</ele>
        <time>2010-12-27T11:59:25Z</time>
      </trkpt>
      <trkpt lat="34.639844968914986" lon="-2.310489965602756">
        <ele>648.54600000000005</ele>
        <time>2010-12-27T11:59:35Z</time>
      </trkpt>
      <trkpt lat="34.639684958383441" lon="-2.310359962284565">
        <ele>648.06600000000003</ele>
        <time>2010-12-27T11:59:38Z</time>
      </trkpt>
      <trkpt lat="34.639547998085618" lon="-2.310275975614786">
        <ele>647.10400000000004</ele>
        <time>2010-12-27T11:59:43Z</time>
      </trkpt>
      <trkpt lat="34.639245998114347" lon="-2.310698004439473">
        <ele>645.18200000000002</ele>
        <time>2010-12-27T11:59:51Z</time>
      </trkpt>
      <trkpt lat="34.639108031988144" lon="-2.310642013326287">
        <ele>647.10400000000004</ele>
        <time>2010-12-27T11:59:55Z</time>
      </trkpt>
      <trkpt lat="34.63899303227663" lon="-2.310576969757676">
        <ele>648.06600000000003</ele>
        <time>2010-12-27T12:00:02Z</time>
      </trkpt>
      <trkpt lat="34.638999989256263" lon="-2.31034797616303">
        <ele>648.06600000000003</ele>
        <time>2010-12-27T12:00:08Z</time>
      </trkpt>
      <trkpt lat="34.639025973156095" lon="-2.31017698533833">
        <ele>648.06600000000003</ele>
        <time>2010-12-27T12:00:13Z</time>
      </trkpt>
      <trkpt lat="34.638898987323046" lon="-2.310324003919959">
        <ele>645.66300000000001</ele>
        <time>2010-12-27T12:00:28Z</time>
      </trkpt>
      <trkpt lat="34.638840984553099" lon="-2.310236999765039">
        <ele>645.18200000000002</ele>
        <time>2010-12-27T12:00:34Z</time>
      </trkpt>
      <trkpt lat="34.638968976214528" lon="-2.309865010902286">
        <ele>644.70100000000002</ele>
        <time>2010-12-27T12:00:42Z</time>
      </trkpt>
      <trkpt lat="34.638922959566116" lon="-2.309576002880931">
        <ele>644.70100000000002</ele>
        <time>2010-12-27T12:00:50Z</time>
      </trkpt>
      <trkpt lat="34.638538984581828" lon="-2.309655966237187">
        <ele>646.14300000000003</ele>
        <time>2010-12-27T12:00:58Z</time>
      </trkpt>
      <trkpt lat="34.637996004894376" lon="-2.309323037043214">
        <ele>647.10400000000004</ele>
        <time>2010-12-27T12:01:10Z</time>
      </trkpt>
      <trkpt lat="34.637399967759848" lon="-2.308956999331713">
        <ele>647.58500000000004</ele>
        <time>2010-12-27T12:01:21Z</time>
      </trkpt>
      <trkpt lat="34.636711981147528" lon="-2.308550979942083">
        <ele>649.50800000000004</ele>
        <time>2010-12-27T12:01:31Z</time>
      </trkpt>
      <trkpt lat="34.636117033660412" lon="-2.308204974979162">
        <ele>651.42999999999995</ele>
        <time>2010-12-27T12:01:39Z</time>
      </trkpt>
      <trkpt lat="34.635327961295843" lon="-2.307874979451299">
        <ele>651.42999999999995</ele>
        <time>2010-12-27T12:01:49Z</time>
      </trkpt>
      <trkpt lat="34.634314002469182" lon="-2.307633999735117">
        <ele>653.83399999999995</ele>
        <time>2010-12-27T12:02:00Z</time>
      </trkpt>
      <trkpt lat="34.633254026994109" lon="-2.30650101788342">
        <ele>656.71799999999996</ele>
        <time>2010-12-27T12:02:13Z</time>
      </trkpt>
      <trkpt lat="34.632927970960736" lon="-2.30630898848176">
        <ele>658.15999999999997</ele>
        <time>2010-12-27T12:02:17Z</time>
      </trkpt>
      <trkpt lat="34.63207796216011" lon="-2.305704988539219">
        <ele>659.60199999999998</ele>
        <time>2010-12-27T12:02:27Z</time>
      </trkpt>
      <trkpt lat="34.630929976701736" lon="-2.304947013035417">
        <ele>662.005</ele>
        <time>2010-12-27T12:02:39Z</time>
      </trkpt>
      <trkpt lat="34.630230003967881" lon="-2.304320968687534">
        <ele>663.447</ele>
        <time>2010-12-27T12:02:47Z</time>
      </trkpt>
      <trkpt lat="34.62999296374619" lon="-2.3041189648211">
        <ele>663.447</ele>
        <time>2010-12-27T12:02:50Z</time>
      </trkpt>
      <trkpt lat="34.629207998514175" lon="-2.303376998752356">
        <ele>659.12099999999998</ele>
        <time>2010-12-27T12:03:01Z</time>
      </trkpt>
      <trkpt lat="34.628802984952927" lon="-2.302986988797784">
        <ele>657.19799999999998</ele>
        <time>2010-12-27T12:03:09Z</time>
      </trkpt>
      <trkpt lat="34.62835899554193" lon="-2.30254802852869">
        <ele>657.67899999999997</ele>
        <time>2010-12-27T12:03:17Z</time>
      </trkpt>
      <trkpt lat="34.627503035590053" lon="-2.301791980862618">
        <ele>661.04399999999998</ele>
        <time>2010-12-27T12:03:29Z</time>
      </trkpt>
      <trkpt lat="34.62666199542582" lon="-2.300980025902391">
        <ele>663.92700000000002</ele>
        <time>2010-12-27T12:03:39Z</time>
      </trkpt>
      <trkpt lat="34.625945007428527" lon="-2.300348030403256">
        <ele>663.92700000000002</ele>
        <time>2010-12-27T12:03:48Z</time>
      </trkpt>
      <trkpt lat="34.625503029674292" lon="-2.29990697465837">
        <ele>664.88900000000001</ele>
        <time>2010-12-27T12:03:55Z</time>
      </trkpt>
      <trkpt lat="34.624474989250302" lon="-2.298961998894811">
        <ele>665.85000000000002</ele>
        <time>2010-12-27T12:04:08Z</time>
      </trkpt>
      <trkpt lat="34.623615005984902" lon="-2.298117019236088">
        <ele>666.81200000000001</ele>
        <time>2010-12-27T12:04:19Z</time>
      </trkpt>
      <trkpt lat="34.622593000531197" lon="-2.297137007117271">
        <ele>669.21500000000003</ele>
        <time>2010-12-27T12:04:31Z</time>
      </trkpt>
      <trkpt lat="34.621796971186996" lon="-2.296415995806456">
        <ele>669.69600000000003</ele>
        <time>2010-12-27T12:04:40Z</time>
      </trkpt>
      <trkpt lat="34.621143015101552" lon="-2.29575902223587">
        <ele>668.73400000000004</ele>
        <time>2010-12-27T12:04:48Z</time>
      </trkpt>
      <trkpt lat="34.6206000354141" lon="-2.29532903060317">
        <ele>668.25400000000002</ele>
        <time>2010-12-27T12:04:55Z</time>
      </trkpt>
      <trkpt lat="34.620353020727634" lon="-2.295025018975139">
        <ele>667.77300000000002</ele>
        <time>2010-12-27T12:04:59Z</time>
      </trkpt>
      <trkpt lat="34.619767041876912" lon="-2.294701980426908">
        <ele>666.81200000000001</ele>
        <time>2010-12-27T12:05:06Z</time>
      </trkpt>
      <trkpt lat="34.619134962558746" lon="-2.294528977945447">
        <ele>666.33100000000002</ele>
        <time>2010-12-27T12:05:13Z</time>
      </trkpt>
      <trkpt lat="34.618794992566109" lon="-2.294197976589203">
        <ele>667.77300000000002</ele>
        <time>2010-12-27T12:05:19Z</time>
      </trkpt>
      <trkpt lat="34.618622995913029" lon="-2.294153971597552">
        <ele>666.81200000000001</ele>
        <time>2010-12-27T12:05:25Z</time>
      </trkpt>
      <trkpt lat="34.618534985929728" lon="-2.294209040701389">
        <ele>666.33100000000002</ele>
        <time>2010-12-27T12:05:29Z</time>
      </trkpt>
      <trkpt lat="34.618032993748784" lon="-2.294171992689371">
        <ele>665.85000000000002</ele>
        <time>2010-12-27T12:05:38Z</time>
      </trkpt>
      <trkpt lat="34.617887986823916" lon="-2.294125976040959">
        <ele>665.85000000000002</ele>
        <time>2010-12-27T12:05:40Z</time>
      </trkpt>
      <trkpt lat="34.617058010771871" lon="-2.294077025726438">
        <ele>666.33100000000002</ele>
        <time>2010-12-27T12:05:51Z</time>
      </trkpt>
      <trkpt lat="34.616707982495427" lon="-2.294033020734787">
        <ele>666.81200000000001</ele>
        <time>2010-12-27T12:05:56Z</time>
      </trkpt>
      <trkpt lat="34.616487035527825" lon="-2.294042995199561">
        <ele>667.29200000000003</ele>
        <time>2010-12-27T12:05:59Z</time>
      </trkpt>
      <trkpt lat="34.616162991151214" lon="-2.293906034901738">
        <ele>668.73400000000004</ele>
        <time>2010-12-27T12:06:05Z</time>
      </trkpt>
      <trkpt lat="34.616072969511151" lon="-2.293901005759835">
        <ele>668.73400000000004</ele>
        <time>2010-12-27T12:06:07Z</time>
      </trkpt>
      <trkpt lat="34.615580029785633" lon="-2.293719034641981">
        <ele>671.61800000000005</ele>
        <time>2010-12-27T12:06:14Z</time>
      </trkpt>
      <trkpt lat="34.615439968183637" lon="-2.293673017993569">
        <ele>671.61800000000005</ele>
        <time>2010-12-27T12:06:16Z</time>
      </trkpt>
      <trkpt lat="34.615097986534238" lon="-2.293618032708764">
        <ele>671.61800000000005</ele>
        <time>2010-12-27T12:06:20Z</time>
      </trkpt>
      <trkpt lat="34.614943005144596" lon="-2.293562041595578">
        <ele>671.61800000000005</ele>
        <time>2010-12-27T12:06:22Z</time>
      </trkpt>
      <trkpt lat="34.614283014088869" lon="-2.293440001085401">
        <ele>671.13800000000003</ele>
        <time>2010-12-27T12:06:30Z</time>
      </trkpt>
      <trkpt lat="34.613375002518296" lon="-2.293159039691091">
        <ele>672.58000000000004</ele>
        <time>2010-12-27T12:06:41Z</time>
      </trkpt>
      <trkpt lat="34.612763961777091" lon="-2.292908001691103">
        <ele>674.50199999999995</ele>
        <time>2010-12-27T12:06:49Z</time>
      </trkpt>
      <trkpt lat="34.612435977905989" lon="-2.292866008356214">
        <ele>674.02099999999996</ele>
        <time>2010-12-27T12:06:54Z</time>
      </trkpt>
      <trkpt lat="34.611894004046917" lon="-2.292698035016656">
        <ele>674.50199999999995</ele>
        <time>2010-12-27T12:07:02Z</time>
      </trkpt>
      <trkpt lat="34.611037960276008" lon="-2.292480021715164">
        <ele>674.50199999999995</ele>
        <time>2010-12-27T12:07:11Z</time>
      </trkpt>
      <trkpt lat="34.610622972249985" lon="-2.292297966778278">
        <ele>674.98299999999995</ele>
        <time>2010-12-27T12:07:17Z</time>
      </trkpt>
      <trkpt lat="34.609929034486413" lon="-2.291948022320867">
        <ele>675.94399999999996</ele>
        <time>2010-12-27T12:07:26Z</time>
      </trkpt>
      <trkpt lat="34.609455959871411" lon="-2.291673012077808">
        <ele>679.78899999999999</ele>
        <time>2010-12-27T12:07:34Z</time>
      </trkpt>
      <trkpt lat="34.608877021819353" lon="-2.291151992976666">
        <ele>681.71199999999999</ele>
        <time>2010-12-27T12:07:44Z</time>
      </trkpt>
      <trkpt lat="34.608238991349936" lon="-2.290755026042461">
        <ele>682.19299999999998</ele>
        <time>2010-12-27T12:07:55Z</time>
      </trkpt>
      <trkpt lat="34.60812097415328" lon="-2.290669027715921">
        <ele>681.71199999999999</ele>
        <time>2010-12-27T12:07:57Z</time>
      </trkpt>
      <trkpt lat="34.607702968642116" lon="-2.290471969172359">
        <ele>680.75099999999998</ele>
        <time>2010-12-27T12:08:05Z</time>
      </trkpt>
      <trkpt lat="34.607527032494545" lon="-2.290378008037806">
        <ele>680.75099999999998</ele>
        <time>2010-12-27T12:08:08Z</time>
      </trkpt>
      <trkpt lat="34.607096035033464" lon="-2.290185978636146">
        <ele>679.78899999999999</ele>
        <time>2010-12-27T12:08:15Z</time>
      </trkpt>
      <trkpt lat="34.606536040082574" lon="-2.289949022233486">
        <ele>679.30899999999997</ele>
        <time>2010-12-27T12:08:24Z</time>
      </trkpt>
      <trkpt lat="34.606182994320989" lon="-2.289750035852194">
        <ele>679.30899999999997</ele>
        <time>2010-12-27T12:08:30Z</time>
      </trkpt>
      <trkpt lat="34.605773035436869" lon="-2.289488017559052">
        <ele>679.78899999999999</ele>
        <time>2010-12-27T12:08:41Z</time>
      </trkpt>
      <trkpt lat="34.605414038524032" lon="-2.289244020357728">
        <ele>680.75099999999998</ele>
        <time>2010-12-27T12:08:55Z</time>
      </trkpt>
      <trkpt lat="34.605254027992487" lon="-2.289132038131356">
        <ele>681.23099999999999</ele>
        <time>2010-12-27T12:09:00Z</time>
      </trkpt>
      <trkpt lat="34.605021011084318" lon="-2.289011003449559">
        <ele>680.75099999999998</ele>
        <time>2010-12-27T12:09:07Z</time>
      </trkpt>
      <trkpt lat="34.604737032204866" lon="-2.288683019578457">
        <ele>680.75099999999998</ele>
        <time>2010-12-27T12:09:15Z</time>
      </trkpt>
      <trkpt lat="34.604592025279999" lon="-2.288553016260266">
        <ele>681.23099999999999</ele>
        <time>2010-12-27T12:09:19Z</time>
      </trkpt>
      <trkpt lat="34.604409970343113" lon="-2.288263002410531">
        <ele>682.673</ele>
        <time>2010-12-27T12:09:25Z</time>
      </trkpt>
      <trkpt lat="34.604255994781852" lon="-2.288103997707367">
        <ele>682.19299999999998</ele>
        <time>2010-12-27T12:09:29Z</time>
      </trkpt>
      <trkpt lat="34.604006968438625" lon="-2.287829993292689">
        <ele>680.75099999999998</ele>
        <time>2010-12-27T12:09:35Z</time>
      </trkpt>
      <trkpt lat="34.603923987597227" lon="-2.28776796720922">
        <ele>681.71199999999999</ele>
        <time>2010-12-27T12:09:37Z</time>
      </trkpt>
      <trkpt lat="34.603790966793895" lon="-2.287608040496707">
        <ele>681.23099999999999</ele>
        <time>2010-12-27T12:09:41Z</time>
      </trkpt>
      <trkpt lat="34.603737993165851" lon="-2.287387009710074">
        <ele>680.75099999999998</ele>
        <time>2010-12-27T12:09:45Z</time>
      </trkpt>
      <trkpt lat="34.603742016479373" lon="-2.287216018885374">
        <ele>681.23099999999999</ele>
        <time>2010-12-27T12:09:48Z</time>
      </trkpt>
      <trkpt lat="34.603725001215935" lon="-2.287043016403914">
        <ele>681.23099999999999</ele>
        <time>2010-12-27T12:09:51Z</time>
      </trkpt>
      <trkpt lat="34.603747967630625" lon="-2.286338014528155">
        <ele>682.19299999999998</ele>
        <time>2010-12-27T12:10:02Z</time>
      </trkpt>
      <trkpt lat="34.603793984279037" lon="-2.285538967698813">
        <ele>683.63499999999999</ele>
        <time>2010-12-27T12:10:14Z</time>
      </trkpt>
      <trkpt lat="34.603794990107417" lon="-2.285289019346237">
        <ele>684.11500000000001</ele>
        <time>2010-12-27T12:10:19Z</time>
      </trkpt>
      <trkpt lat="34.603674039244652" lon="-2.285146024078131">
        <ele>684.11500000000001</ele>
        <time>2010-12-27T12:10:23Z</time>
      </trkpt>
      <trkpt lat="34.603428030386567" lon="-2.28458502329886">
        <ele>684.596</ele>
        <time>2010-12-27T12:10:32Z</time>
      </trkpt>
      <trkpt lat="34.603101974353194" lon="-2.283552037551999">
        <ele>685.55700000000002</ele>
        <time>2010-12-27T12:10:42Z</time>
      </trkpt>
      <trkpt lat="34.602663014084101" lon="-2.282607983797789">
        <ele>686.51900000000001</ele>
        <time>2010-12-27T12:10:51Z</time>
      </trkpt>
      <trkpt lat="34.602321032434702" lon="-2.281888984143734">
        <ele>686.99900000000002</ele>
        <time>2010-12-27T12:11:00Z</time>
      </trkpt>
      <trkpt lat="34.602046022191644" lon="-2.281301999464631">
        <ele>687.96100000000001</ele>
        <time>2010-12-27T12:11:10Z</time>
      </trkpt>
      <trkpt lat="34.601624999195337" lon="-2.280563972890377">
        <ele>687.48000000000002</ele>
        <time>2010-12-27T12:11:21Z</time>
      </trkpt>
      <trkpt lat="34.601111020892859" lon="-2.279871040955186">
        <ele>686.03800000000001</ele>
        <time>2010-12-27T12:11:32Z</time>
      </trkpt>
      <trkpt lat="34.600668959319592" lon="-2.279376005753875">
        <ele>684.596</ele>
        <time>2010-12-27T12:11:42Z</time>
      </trkpt>
      <trkpt lat="34.600457986816764" lon="-2.279178025200963">
        <ele>685.55700000000002</ele>
        <time>2010-12-27T12:11:50Z</time>
      </trkpt>
      <trkpt lat="34.60036301985383" lon="-2.279160004109144">
        <ele>686.51900000000001</ele>
        <time>2010-12-27T12:34:28Z</time>
      </trkpt>
      <trkpt lat="34.599963035434484" lon="-2.278825985267758">
        <ele>685.55700000000002</ele>
        <time>2010-12-27T12:34:37Z</time>
      </trkpt>
      <trkpt lat="34.599988013505936" lon="-2.278198013082147">
        <ele>684.596</ele>
        <time>2010-12-27T12:34:47Z</time>
      </trkpt>
      <trkpt lat="34.599999999627471" lon="-2.277892995625734">
        <ele>684.596</ele>
        <time>2010-12-27T12:34:52Z</time>
      </trkpt>
      <trkpt lat="34.600005028769374" lon="-2.277755029499531">
        <ele>684.596</ele>
        <time>2010-12-27T12:34:55Z</time>
      </trkpt>
      <trkpt lat="34.600013997405767" lon="-2.277543973177671">
        <ele>684.596</ele>
        <time>2010-12-27T12:34:59Z</time>
      </trkpt>
      <trkpt lat="34.599168011918664" lon="-2.276920024305582">
        <ele>685.077</ele>
        <time>2010-12-27T12:35:10Z</time>
      </trkpt>
      <trkpt lat="34.598717987537384" lon="-2.276169005781412">
        <ele>685.55700000000002</ele>
        <time>2010-12-27T12:35:21Z</time>
      </trkpt>
      <trkpt lat="34.598333006724715" lon="-2.275452017784119">
        <ele>685.55700000000002</ele>
        <time>2010-12-27T12:35:31Z</time>
      </trkpt>
      <trkpt lat="34.597830008715391" lon="-2.274435041472316">
        <ele>685.077</ele>
        <time>2010-12-27T12:35:44Z</time>
      </trkpt>
      <trkpt lat="34.597206981852651" lon="-2.273661978542805">
        <ele>683.63499999999999</ele>
        <time>2010-12-27T12:35:55Z</time>
      </trkpt>
      <trkpt lat="34.596442971378565" lon="-2.272957982495427">
        <ele>682.673</ele>
        <time>2010-12-27T12:36:06Z</time>
      </trkpt>
      <trkpt lat="34.5963029935956" lon="-2.272767964750528">
        <ele>682.673</ele>
        <time>2010-12-27T12:36:09Z</time>
      </trkpt>
      <trkpt lat="34.595745010301471" lon="-2.272220961749554">
        <ele>682.673</ele>
        <time>2010-12-27T12:36:17Z</time>
      </trkpt>
      <trkpt lat="34.59524704143405" lon="-2.27180496789515">
        <ele>682.19299999999998</ele>
        <time>2010-12-27T12:36:24Z</time>
      </trkpt>
      <trkpt lat="34.593949019908905" lon="-2.270811041817069">
        <ele>680.26999999999998</ele>
        <time>2010-12-27T12:36:39Z</time>
      </trkpt>
      <trkpt lat="34.593585999682546" lon="-2.2704709880054">
        <ele>680.26999999999998</ele>
        <time>2010-12-27T12:36:45Z</time>
      </trkpt>
      <trkpt lat="34.593063974753022" lon="-2.270016018301249">
        <ele>680.75099999999998</ele>
        <time>2010-12-27T12:36:53Z</time>
      </trkpt>
      <trkpt lat="34.592496016994119" lon="-2.269570017233491">
        <ele>681.23099999999999</ele>
        <time>2010-12-27T12:37:01Z</time>
      </trkpt>
      <trkpt lat="34.591890005394816" lon="-2.268805000931025">
        <ele>682.19299999999998</ele>
        <time>2010-12-27T12:37:10Z</time>
      </trkpt>
      <trkpt lat="34.591319030150771" lon="-2.267920961603522">
        <ele>683.63499999999999</ele>
        <time>2010-12-27T12:37:21Z</time>
      </trkpt>
      <trkpt lat="34.591183997690678" lon="-2.267701020464301">
        <ele>685.077</ele>
        <time>2010-12-27T12:37:27Z</time>
      </trkpt>
      <trkpt lat="34.590985011309385" lon="-2.267478983849287">
        <ele>684.596</ele>
        <time>2010-12-27T12:37:34Z</time>
      </trkpt>
      <trkpt lat="34.590817037969828" lon="-2.267305981367827">
        <ele>685.077</ele>
        <time>2010-12-27T12:37:38Z</time>
      </trkpt>
      <trkpt lat="34.590240027755499" lon="-2.266858974471688">
        <ele>685.077</ele>
        <time>2010-12-27T12:37:48Z</time>
      </trkpt>
      <trkpt lat="34.589511975646019" lon="-2.26623703725636">
        <ele>686.03800000000001</ele>
        <time>2010-12-27T12:37:59Z</time>
      </trkpt>
      <trkpt lat="34.58848100155592" lon="-2.265154011547566">
        <ele>686.99900000000002</ele>
        <time>2010-12-27T12:38:14Z</time>
      </trkpt>
      <trkpt lat="34.58772998303175" lon="-2.26436804048717">
        <ele>688.44100000000003</ele>
        <time>2010-12-27T12:38:25Z</time>
      </trkpt>
      <trkpt lat="34.587208963930607" lon="-2.263845009729266">
        <ele>688.92200000000003</ele>
        <time>2010-12-27T12:38:33Z</time>
      </trkpt>
      <trkpt lat="34.586543021723628" lon="-2.263127015903592">
        <ele>689.40300000000002</ele>
        <time>2010-12-27T12:38:43Z</time>
      </trkpt>
      <trkpt lat="34.585973974317312" lon="-2.262512035667896">
        <ele>689.88300000000004</ele>
        <time>2010-12-27T12:38:53Z</time>
      </trkpt>
      <trkpt lat="34.585297973826528" lon="-2.262107022106648">
        <ele>689.88300000000004</ele>
        <time>2010-12-27T12:39:02Z</time>
      </trkpt>
      <trkpt lat="34.584603030234575" lon="-2.261464968323708">
        <ele>690.84400000000005</ele>
        <time>2010-12-27T12:39:11Z</time>
      </trkpt>
      <trkpt lat="34.584164991974831" lon="-2.260977979749441">
        <ele>692.28700000000003</ele>
        <time>2010-12-27T12:39:19Z</time>
      </trkpt>
      <trkpt lat="34.584056027233601" lon="-2.260886030271649">
        <ele>691.80600000000004</ele>
        <time>2010-12-27T12:39:23Z</time>
      </trkpt>
      <trkpt lat="34.583670040592551" lon="-2.260570032522082">
        <ele>692.28700000000003</ele>
        <time>2010-12-27T12:39:31Z</time>
      </trkpt>
      <trkpt lat="34.583158995956182" lon="-2.260039960965514">
        <ele>693.24800000000005</ele>
        <time>2010-12-27T12:39:40Z</time>
      </trkpt>
      <trkpt lat="34.582369001582265" lon="-2.259317021816969">
        <ele>694.69000000000005</ele>
        <time>2010-12-27T12:39:53Z</time>
      </trkpt>
      <trkpt lat="34.581792997196317" lon="-2.258831039071083">
        <ele>695.65099999999995</ele>
        <time>2010-12-27T12:40:03Z</time>
      </trkpt>
      <trkpt lat="34.581040972843766" lon="-2.258109021931887">
        <ele>697.09299999999996</ele>
        <time>2010-12-27T12:40:16Z</time>
      </trkpt>
      <trkpt lat="34.580163974314928" lon="-2.257287008687854">
        <ele>699.01599999999996</ele>
        <time>2010-12-27T12:40:30Z</time>
      </trkpt>
      <trkpt lat="34.579490991309285" lon="-2.256714021787047">
        <ele>699.49599999999998</ele>
        <time>2010-12-27T12:40:40Z</time>
      </trkpt>
      <trkpt lat="34.578487006947398" lon="-2.255852026864886">
        <ele>701.41899999999998</ele>
        <time>2010-12-27T12:40:54Z</time>
      </trkpt>
      <trkpt lat="34.577615037560463" lon="-2.255075024440885">
        <ele>702.86099999999999</ele>
        <time>2010-12-27T12:41:06Z</time>
      </trkpt>
      <trkpt lat="34.576948005706072" lon="-2.254563979804516">
        <ele>703.82299999999998</ele>
        <time>2010-12-27T12:41:15Z</time>
      </trkpt>
      <trkpt lat="34.576059021055698" lon="-2.253867024555802">
        <ele>705.26400000000001</ele>
        <time>2010-12-27T12:41:27Z</time>
      </trkpt>
      <trkpt lat="34.575047995895147" lon="-2.253225976601243">
        <ele>706.226</ele>
        <time>2010-12-27T12:41:39Z</time>
      </trkpt>
      <trkpt lat="34.574153982102871" lon="-2.25257596001029">
        <ele>707.66800000000001</ele>
        <time>2010-12-27T12:41:50Z</time>
      </trkpt>
      <trkpt lat="34.573419978842139" lon="-2.252147980034351">
        <ele>708.62900000000002</ele>
        <time>2010-12-27T12:41:58Z</time>
      </trkpt>
      <trkpt lat="34.572468968108296" lon="-2.251634001731873">
        <ele>709.59000000000003</ele>
        <time>2010-12-27T12:42:08Z</time>
      </trkpt>
      <trkpt lat="34.571384014561772" lon="-2.250873008742929">
        <ele>711.51300000000003</ele>
        <time>2010-12-27T12:42:20Z</time>
      </trkpt>
      <trkpt lat="34.570381036028266" lon="-2.250197008252144">
        <ele>712.95500000000004</ele>
        <time>2010-12-27T12:42:31Z</time>
      </trkpt>
      <trkpt lat="34.569621970877051" lon="-2.249570041894913">
        <ele>714.39700000000005</ele>
        <time>2010-12-27T12:42:40Z</time>
      </trkpt>
      <trkpt lat="34.568687975406647" lon="-2.248869985342026">
        <ele>715.83900000000006</ele>
        <time>2010-12-27T12:42:51Z</time>
      </trkpt>
      <trkpt lat="34.567722966894507" lon="-2.248199013993144">
        <ele>717.28099999999995</ele>
        <time>2010-12-27T12:43:02Z</time>
      </trkpt>
      <trkpt lat="34.567643003538251" lon="-2.248140005394816">
        <ele>717.28099999999995</ele>
        <time>2010-12-27T12:43:03Z</time>
      </trkpt>
      <trkpt lat="34.567208988592029" lon="-2.247629966586828">
        <ele>717.76099999999997</ele>
        <time>2010-12-27T12:43:11Z</time>
      </trkpt>
      <trkpt lat="34.566605994477868" lon="-2.246955977752805">
        <ele>718.72299999999996</ele>
        <time>2010-12-27T12:43:20Z</time>
      </trkpt>
      <trkpt lat="34.565928988158703" lon="-2.246092977002263">
        <ele>720.64599999999996</ele>
        <time>2010-12-27T12:43:31Z</time>
      </trkpt>
      <trkpt lat="34.565507965162396" lon="-2.245540022850037">
        <ele>722.56799999999998</ele>
        <time>2010-12-27T12:43:39Z</time>
      </trkpt>
      <trkpt lat="34.56527897156775" lon="-2.245245985686779">
        <ele>723.52999999999997</ele>
        <time>2010-12-27T12:43:47Z</time>
      </trkpt>
      <trkpt lat="34.565199008211493" lon="-2.245163004845381">
        <ele>723.52999999999997</ele>
        <time>2010-12-27T12:43:49Z</time>
      </trkpt>
      <trkpt lat="34.564851997420192" lon="-2.244465965777636">
        <ele>724.00999999999999</ele>
        <time>2010-12-27T12:44:00Z</time>
      </trkpt>
      <trkpt lat="34.564530970528722" lon="-2.244107974693179">
        <ele>724.00999999999999</ele>
        <time>2010-12-27T12:44:07Z</time>
      </trkpt>
      <trkpt lat="34.56394599750638" lon="-2.243211027234793">
        <ele>724.49099999999999</ele>
        <time>2010-12-27T12:44:20Z</time>
      </trkpt>
      <trkpt lat="34.563892018049955" lon="-2.243093010038137">
        <ele>724.971</ele>
        <time>2010-12-27T12:44:22Z</time>
      </trkpt>
      <trkpt lat="34.56340997479856" lon="-2.242387002333999">
        <ele>726.41300000000001</ele>
        <time>2010-12-27T12:44:34Z</time>
      </trkpt>
      <trkpt lat="34.563032034784555" lon="-2.241713013499975">
        <ele>728.81700000000001</ele>
        <time>2010-12-27T12:44:44Z</time>
      </trkpt>
      <trkpt lat="34.562830030918121" lon="-2.241267012432218">
        <ele>730.25900000000001</ele>
        <time>2010-12-27T12:44:50Z</time>
      </trkpt>
      <trkpt lat="34.562285961583257" lon="-2.240669969469309">
        <ele>731.22000000000003</ele>
        <time>2010-12-27T12:45:00Z</time>
      </trkpt>
      <trkpt lat="34.561896035447717" lon="-2.239889027550817">
        <ele>731.22000000000003</ele>
        <time>2010-12-27T12:45:10Z</time>
      </trkpt>
      <trkpt lat="34.561813976615667" lon="-2.239729017019272">
        <ele>731.22000000000003</ele>
        <time>2010-12-27T12:45:12Z</time>
      </trkpt>
      <trkpt lat="34.561581965535879" lon="-2.239350993186235">
        <ele>731.22000000000003</ele>
        <time>2010-12-27T12:45:17Z</time>
      </trkpt>
      <trkpt lat="34.561488004401326" lon="-2.239090986549854">
        <ele>731.70000000000005</ele>
        <time>2010-12-27T12:45:20Z</time>
      </trkpt>
      <trkpt lat="34.561089025810361" lon="-2.23809102550149">
        <ele>733.14300000000003</ele>
        <time>2010-12-27T12:45:31Z</time>
      </trkpt>
      <trkpt lat="34.560602959245443" lon="-2.236875984817743">
        <ele>735.54600000000005</ele>
        <time>2010-12-27T12:45:44Z</time>
      </trkpt>
      <trkpt lat="34.56035602837801" lon="-2.23587803542614">
        <ele>737.46900000000005</ele>
        <time>2010-12-27T12:45:55Z</time>
      </trkpt>
      <trkpt lat="34.560062997043133" lon="-2.235019979998469">
        <ele>737.94899999999996</ele>
        <time>2010-12-27T12:46:07Z</time>
      </trkpt>
      <trkpt lat="34.559681033715606" lon="-2.234201990067959">
        <ele>739.39099999999996</ele>
        <time>2010-12-27T12:46:20Z</time>
      </trkpt>
      <trkpt lat="34.559295969083905" lon="-2.233417024835944">
        <ele>741.31399999999996</ele>
        <time>2010-12-27T12:46:34Z</time>
      </trkpt>
      <trkpt lat="34.559168983250856" lon="-2.233148971572518">
        <ele>741.79399999999998</ele>
        <time>2010-12-27T12:46:38Z</time>
      </trkpt>
      <trkpt lat="34.559061024338007" lon="-2.23287396132946">
        <ele>742.75599999999997</ele>
        <time>2010-12-27T12:46:42Z</time>
      </trkpt>
      <trkpt lat="34.558872012421489" lon="-2.232539020478725">
        <ele>744.19799999999998</ele>
        <time>2010-12-27T12:46:47Z</time>
      </trkpt>
      <trkpt lat="34.55876799300313" lon="-2.232177006080747">
        <ele>744.678</ele>
        <time>2010-12-27T12:46:52Z</time>
      </trkpt>
      <trkpt lat="34.558674031868577" lon="-2.231954969465733">
        <ele>744.678</ele>
        <time>2010-12-27T12:46:55Z</time>
      </trkpt>
      <trkpt lat="34.558490971103311" lon="-2.231718013063073">
        <ele>744.19799999999998</ele>
        <time>2010-12-27T12:46:59Z</time>
      </trkpt>
      <trkpt lat="34.558030972257257" lon="-2.23106699064374">
        <ele>746.12</ele>
        <time>2010-12-27T12:47:09Z</time>
      </trkpt>
      <trkpt lat="34.557527974247932" lon="-2.230202984064817">
        <ele>748.524</ele>
        <time>2010-12-27T12:47:19Z</time>
      </trkpt>
      <trkpt lat="34.557383973151445" lon="-2.229884974658489">
        <ele>749.00400000000002</ele>
        <time>2010-12-27T12:47:23Z</time>
      </trkpt>
      <trkpt lat="34.557383973151445" lon="-2.229603007435799">
        <ele>750.447</ele>
        <time>2010-12-27T12:47:29Z</time>
      </trkpt>
      <trkpt lat="34.557276014238596" lon="-2.229394968599081">
        <ele>751.40800000000002</ele>
        <time>2010-12-27T12:47:36Z</time>
      </trkpt>
      <trkpt lat="34.556865971535444" lon="-2.228679992258549">
        <ele>752.36900000000003</ele>
        <time>2010-12-27T12:47:47Z</time>
      </trkpt>
      <trkpt lat="34.55629700794816" lon="-2.227808022871614">
        <ele>753.81100000000004</ele>
        <time>2010-12-27T12:47:58Z</time>
      </trkpt>
      <trkpt lat="34.555542971938848" lon="-2.226774031296372">
        <ele>757.65599999999995</ele>
        <time>2010-12-27T12:48:10Z</time>
      </trkpt>
      <trkpt lat="34.554850962013006" lon="-2.225828971713781">
        <ele>760.53999999999996</ele>
        <time>2010-12-27T12:48:20Z</time>
      </trkpt>
      <trkpt lat="34.554629009217024" lon="-2.225280040875077">
        <ele>761.50099999999998</ele>
        <time>2010-12-27T12:48:25Z</time>
      </trkpt>
      <trkpt lat="34.553929958492517" lon="-2.224302040413022">
        <ele>763.42399999999998</ele>
        <time>2010-12-27T12:48:35Z</time>
      </trkpt>
      <trkpt lat="34.553399970754981" lon="-2.223420012742281">
        <ele>765.82799999999997</ele>
        <time>2010-12-27T12:48:43Z</time>
      </trkpt>
      <trkpt lat="34.552659010514617" lon="-2.222435977309942">
        <ele>767.75</ele>
        <time>2010-12-27T12:48:53Z</time>
      </trkpt>
      <trkpt lat="34.552028020843863" lon="-2.221423024311662">
        <ele>770.63400000000001</ele>
        <time>2010-12-27T12:49:03Z</time>
      </trkpt>
      <trkpt lat="34.551491998136044" lon="-2.220833022147417">
        <ele>773.03700000000003</ele>
        <time>2010-12-27T12:49:10Z</time>
      </trkpt>
      <trkpt lat="34.550819015130401" lon="-2.220145035535097">
        <ele>775.44000000000005</ele>
        <time>2010-12-27T12:49:19Z</time>
      </trkpt>
      <trkpt lat="34.550190037116408" lon="-2.21929200924933">
        <ele>778.32399999999996</ele>
        <time>2010-12-27T12:49:28Z</time>
      </trkpt>
      <trkpt lat="34.549428038299084" lon="-2.21834602765739">
        <ele>782.16999999999996</ele>
        <time>2010-12-27T12:49:38Z</time>
      </trkpt>
      <trkpt lat="34.548738040030003" lon="-2.217568019405007">
        <ele>784.57299999999998</ele>
        <time>2010-12-27T12:49:47Z</time>
      </trkpt>
      <trkpt lat="34.54808902926743" lon="-2.216883972287178">
        <ele>784.57299999999998</ele>
        <time>2010-12-27T12:49:56Z</time>
      </trkpt>
      <trkpt lat="34.547156961634755" lon="-2.215721989050508">
        <ele>787.45699999999999</ele>
        <time>2010-12-27T12:50:08Z</time>
      </trkpt>
      <trkpt lat="34.546145014464855" lon="-2.214597975835204">
        <ele>791.30200000000002</ele>
        <time>2010-12-27T12:50:20Z</time>
      </trkpt>
      <trkpt lat="34.545166008174419" lon="-2.213454013690352">
        <ele>795.14700000000005</ele>
        <time>2010-12-27T12:50:32Z</time>
      </trkpt>
      <trkpt lat="34.544141991063952" lon="-2.212097989395261">
        <ele>799.47400000000005</ele>
        <time>2010-12-27T12:50:45Z</time>
      </trkpt>
      <trkpt lat="34.543248983100057" lon="-2.210713969543576">
        <ele>805.24099999999999</ele>
        <time>2010-12-27T12:50:58Z</time>
      </trkpt>
      <trkpt lat="34.5420500356704" lon="-2.209443021565676">
        <ele>810.048</ele>
        <time>2010-12-27T12:51:13Z</time>
      </trkpt>
      <trkpt lat="34.541539996862411" lon="-2.208918984979391">
        <ele>812.45100000000002</ele>
        <time>2010-12-27T12:51:22Z</time>
      </trkpt>
      <trkpt lat="34.541154010221362" lon="-2.208424033597112">
        <ele>812.93200000000002</ele>
        <time>2010-12-27T12:51:32Z</time>
      </trkpt>
      <trkpt lat="34.540619999170303" lon="-2.207888010889292">
        <ele>812.45100000000002</ele>
        <time>2010-12-27T12:51:42Z</time>
      </trkpt>
      <trkpt lat="34.54035697504878" lon="-2.207597997039557">
        <ele>811.971</ele>
        <time>2010-12-27T12:51:50Z</time>
      </trkpt>
      <trkpt lat="34.540221020579338" lon="-2.207450978457928">
        <ele>811.00900000000001</ele>
        <time>2010-12-27T12:51:53Z</time>
      </trkpt>
      <trkpt lat="34.540128987282515" lon="-2.207021992653608">
        <ele>811.971</ele>
        <time>2010-12-27T12:51:58Z</time>
      </trkpt>
      <trkpt lat="34.540056986734271" lon="-2.206406006589532">
        <ele>815.33500000000004</ele>
        <time>2010-12-27T12:52:04Z</time>
      </trkpt>
      <trkpt lat="34.540125969797373" lon="-2.205873001366854">
        <ele>818.70000000000005</ele>
        <time>2010-12-27T12:52:09Z</time>
      </trkpt>
      <trkpt lat="34.540219008922577" lon="-2.205698993057013">
        <ele>818.70000000000005</ele>
        <time>2010-12-27T12:52:11Z</time>
      </trkpt>
      <trkpt lat="34.540329985320568" lon="-2.205208986997604">
        <ele>819.18100000000004</ele>
        <time>2010-12-27T12:52:16Z</time>
      </trkpt>
      <trkpt lat="34.540256978943944" lon="-2.204955015331507">
        <ele>820.14200000000005</ele>
        <time>2010-12-27T12:52:21Z</time>
      </trkpt>
      <trkpt lat="34.54013803973794" lon="-2.204972030594945">
        <ele>820.14200000000005</ele>
        <time>2010-12-27T12:52:24Z</time>
      </trkpt>
      <trkpt lat="34.53977501951158" lon="-2.20506900921464">
        <ele>821.10299999999995</ele>
        <time>2010-12-27T12:52:30Z</time>
      </trkpt>
      <trkpt lat="34.539190968498588" lon="-2.204843033105135">
        <ele>823.02599999999995</ele>
        <time>2010-12-27T12:52:38Z</time>
      </trkpt>
      <trkpt lat="34.53904302790761" lon="-2.204715963453054">
        <ele>824.46799999999996</ele>
        <time>2010-12-27T12:52:43Z</time>
      </trkpt>
      <trkpt lat="34.538768017664552" lon="-2.204464003443718">
        <ele>825.90999999999997</ele>
        <time>2010-12-27T12:52:49Z</time>
      </trkpt>
      <trkpt lat="34.537922032177448" lon="-2.203613994643092">
        <ele>829.274</ele>
        <time>2010-12-27T12:53:02Z</time>
      </trkpt>
      <trkpt lat="34.537467984482646" lon="-2.203018963336945">
        <ele>832.15800000000002</ele>
        <time>2010-12-27T12:53:10Z</time>
      </trkpt>
      <trkpt lat="34.536901032552123" lon="-2.202633982524276">
        <ele>833.12</ele>
        <time>2010-12-27T12:53:18Z</time>
      </trkpt>
      <trkpt lat="34.53622997738421" lon="-2.20223399810493">
        <ele>835.52300000000002</ele>
        <time>2010-12-27T12:53:27Z</time>
      </trkpt>
      <trkpt lat="34.535376029089093" lon="-2.201823033392429">
        <ele>836.48400000000004</ele>
        <time>2010-12-27T12:53:38Z</time>
      </trkpt>
      <trkpt lat="34.534992976114154" lon="-2.201723037287593">
        <ele>835.52300000000002</ele>
        <time>2010-12-27T12:53:42Z</time>
      </trkpt>
      <trkpt lat="34.53386896289885" lon="-2.201791014522314">
        <ele>839.36800000000005</ele>
        <time>2010-12-27T12:53:53Z</time>
      </trkpt>
      <trkpt lat="34.532798007130623" lon="-2.202010033652186">
        <ele>845.61699999999996</ele>
        <time>2010-12-27T12:54:04Z</time>
      </trkpt>
      <trkpt lat="34.531519012525678" lon="-2.202269034460187">
        <ele>848.98099999999999</ele>
        <time>2010-12-27T12:54:16Z</time>
      </trkpt>
      <trkpt lat="34.530603960156441" lon="-2.202414041385055">
        <ele>850.42399999999998</ele>
        <time>2010-12-27T12:54:25Z</time>
      </trkpt>
      <trkpt lat="34.530216967687011" lon="-2.202531974762678">
        <ele>848.01999999999998</ele>
        <time>2010-12-27T12:54:30Z</time>
      </trkpt>
      <trkpt lat="34.529888983815908" lon="-2.202960960566998">
        <ele>850.42399999999998</ele>
        <time>2010-12-27T12:54:36Z</time>
      </trkpt>
      <trkpt lat="34.52973903156817" lon="-2.203162964433432">
        <ele>850.904</ele>
        <time>2010-12-27T12:54:39Z</time>
      </trkpt>
      <trkpt lat="34.529450023546815" lon="-2.203219961374998">
        <ele>852.346</ele>
        <time>2010-12-27T12:54:45Z</time>
      </trkpt>
      <trkpt lat="34.528822973370552" lon="-2.202820982784033">
        <ele>857.63300000000004</ele>
        <time>2010-12-27T12:54:58Z</time>
      </trkpt>
      <trkpt lat="34.528291979804635" lon="-2.202453017234802">
        <ele>858.59400000000005</ele>
        <time>2010-12-27T12:55:07Z</time>
      </trkpt>
      <trkpt lat="34.527556970715523" lon="-2.201711973175407">
        <ele>860.51700000000005</ele>
        <time>2010-12-27T12:55:18Z</time>
      </trkpt>
      <trkpt lat="34.526851968839765" lon="-2.200906975194812">
        <ele>863.40099999999995</ele>
        <time>2010-12-27T12:55:29Z</time>
      </trkpt>
      <trkpt lat="34.526398004963994" lon="-2.199724037200213">
        <ele>864.84299999999996</ele>
        <time>2010-12-27T12:55:37Z</time>
      </trkpt>
      <trkpt lat="34.526208993047476" lon="-2.199675003066659">
        <ele>866.76599999999996</ele>
        <time>2010-12-27T12:55:42Z</time>
      </trkpt>
      <trkpt lat="34.526127018034458" lon="-2.199619011953473">
        <ele>867.24699999999996</ele>
        <time>2010-12-27T12:55:44Z</time>
      </trkpt>
      <trkpt lat="34.525849996134639" lon="-2.199426982551813">
        <ele>870.13</ele>
        <time>2010-12-27T12:55:49Z</time>
      </trkpt>
      <trkpt lat="34.525565011426806" lon="-2.199230007827282">
        <ele>871.572</ele>
        <time>2010-12-27T12:55:53Z</time>
      </trkpt>
      <trkpt lat="34.524629004299641" lon="-2.198583008721471">
        <ele>877.82100000000003</ele>
        <time>2010-12-27T12:56:04Z</time>
      </trkpt>
      <trkpt lat="34.523743959143758" lon="-2.197970962151885">
        <ele>884.07000000000005</ele>
        <time>2010-12-27T12:56:15Z</time>
      </trkpt>
      <trkpt lat="34.523023031651974" lon="-2.197471987456083">
        <ele>888.87599999999998</ele>
        <time>2010-12-27T12:56:24Z</time>
      </trkpt>
      <trkpt lat="34.522196995094419" lon="-2.196901012212038">
        <ele>892.72199999999998</ele>
        <time>2010-12-27T12:56:35Z</time>
      </trkpt>
      <trkpt lat="34.521359978243709" lon="-2.19656003639102">
        <ele>897.04700000000003</ele>
        <time>2010-12-27T12:56:46Z</time>
      </trkpt>
      <trkpt lat="34.520680960267782" lon="-2.195301996544004">
        <ele>900.89300000000003</ele>
        <time>2010-12-27T12:56:57Z</time>
      </trkpt>
      <trkpt lat="34.520207969471812" lon="-2.195110972970724">
        <ele>907.14099999999996</ele>
        <time>2010-12-27T12:57:03Z</time>
      </trkpt>
      <trkpt lat="34.519967995584011" lon="-2.194937970489264">
        <ele>907.14099999999996</ele>
        <time>2010-12-27T12:57:07Z</time>
      </trkpt>
      <trkpt lat="34.519700026139617" lon="-2.194595988839865">
        <ele>908.58299999999997</ele>
        <time>2010-12-27T12:57:12Z</time>
      </trkpt>
      <trkpt lat="34.519501039758325" lon="-2.194444024935365">
        <ele>907.62199999999996</ele>
        <time>2010-12-27T12:57:16Z</time>
      </trkpt>
      <trkpt lat="34.519309010356665" lon="-2.194274961948395">
        <ele>908.58299999999997</ele>
        <time>2010-12-27T12:57:23Z</time>
      </trkpt>
      <trkpt lat="34.519308004528284" lon="-2.194040017202497">
        <ele>913.87</ele>
        <time>2010-12-27T12:57:29Z</time>
      </trkpt>
      <trkpt lat="34.519084040075541" lon="-2.193952007219195">
        <ele>915.79300000000001</ele>
        <time>2010-12-27T12:57:35Z</time>
      </trkpt>
      <trkpt lat="34.518989995121956" lon="-2.193963993340731">
        <ele>917.23500000000001</ele>
        <time>2010-12-27T12:57:37Z</time>
      </trkpt>
      <trkpt lat="34.518886981531978" lon="-2.193987965583801">
        <ele>918.67700000000002</ele>
        <time>2010-12-27T12:57:39Z</time>
      </trkpt>
      <trkpt lat="34.518443997949362" lon="-2.19378998503089">
        <ele>920.11900000000003</ele>
        <time>2010-12-27T12:57:46Z</time>
      </trkpt>
      <trkpt lat="34.518278958275914" lon="-2.193611031398177">
        <ele>920.60000000000002</ele>
        <time>2010-12-27T12:57:49Z</time>
      </trkpt>
      <trkpt lat="34.517933959141374" lon="-2.19346895813942">
        <ele>922.04200000000003</ele>
        <time>2010-12-27T12:57:54Z</time>
      </trkpt>
      <trkpt lat="34.516971968114376" lon="-2.19338103197515">
        <ele>930.21299999999997</ele>
        <time>2010-12-27T12:58:06Z</time>
      </trkpt>
      <trkpt lat="34.516831990331411" lon="-2.193354964256287">
        <ele>931.65499999999997</ele>
        <time>2010-12-27T12:58:08Z</time>
      </trkpt>
      <trkpt lat="34.516265960410237" lon="-2.193442974239588">
        <ele>938.38400000000001</ele>
        <time>2010-12-27T12:58:16Z</time>
      </trkpt>
      <trkpt lat="34.516116008162498" lon="-2.19346703030169">
        <ele>940.30700000000002</ele>
        <time>2010-12-27T12:58:18Z</time>
      </trkpt>
      <trkpt lat="34.515402959659696" lon="-2.193713039159775">
        <ele>950.88099999999997</ele>
        <time>2010-12-27T12:58:29Z</time>
      </trkpt>
      <trkpt lat="34.514664011076093" lon="-2.193956030532718">
        <ele>957.13</ele>
        <time>2010-12-27T12:58:39Z</time>
      </trkpt>
      <trkpt lat="34.51399496756494" lon="-2.194150993600488">
        <ele>963.37800000000004</ele>
        <time>2010-12-27T12:58:48Z</time>
      </trkpt>
      <trkpt lat="34.51358500868082" lon="-2.194288959726691">
        <ele>967.70399999999995</ele>
        <time>2010-12-27T12:58:54Z</time>
      </trkpt>
      <trkpt lat="34.513052003458142" lon="-2.195128994062543">
        <ele>975.875</ele>
        <time>2010-12-27T12:59:04Z</time>
      </trkpt>
      <trkpt lat="34.512824015691876" lon="-2.195135029032826">
        <ele>977.798</ele>
        <time>2010-12-27T12:59:08Z</time>
      </trkpt>
      <trkpt lat="34.512628968805075" lon="-2.195139974355698">
        <ele>979.721</ele>
        <time>2010-12-27T12:59:11Z</time>
      </trkpt>
      <trkpt lat="34.512213980779052" lon="-2.195151038467884">
        <ele>982.60500000000002</ele>
        <time>2010-12-27T12:59:18Z</time>
      </trkpt>
      <trkpt lat="34.511766973882914" lon="-2.195163024589419">
        <ele>986.45000000000005</ele>
        <time>2010-12-27T12:59:26Z</time>
      </trkpt>
      <trkpt lat="34.511616015806794" lon="-2.19516696408391">
        <ele>985.00800000000004</ele>
        <time>2010-12-27T12:59:30Z</time>
      </trkpt>
      <trkpt lat="34.51141401194036" lon="-2.195171993225813">
        <ele>984.04700000000003</ele>
        <time>2010-12-27T12:59:36Z</time>
      </trkpt>
      <trkpt lat="34.511088961735368" lon="-2.195180039852858">
        <ele>985.00800000000004</ele>
        <time>2010-12-27T12:59:43Z</time>
      </trkpt>
      <trkpt lat="34.510996006429195" lon="-2.195182973518968">
        <ele>985.00800000000004</ele>
        <time>2010-12-27T12:59:45Z</time>
      </trkpt>
      <trkpt lat="34.510752009227872" lon="-2.195189008489251">
        <ele>984.04700000000003</ele>
        <time>2010-12-27T12:59:51Z</time>
      </trkpt>
      <trkpt lat="34.510631980374455" lon="-2.195192025974393">
        <ele>984.04700000000003</ele>
        <time>2010-12-27T12:59:54Z</time>
      </trkpt>
      <trkpt lat="34.510395023971796" lon="-2.195197977125645">
        <ele>984.04700000000003</ele>
        <time>2010-12-27T12:59:59Z</time>
      </trkpt>
      <trkpt lat="34.509838968515396" lon="-2.195212980732322">
        <ele>989.81500000000005</ele>
        <time>2010-12-27T13:00:08Z</time>
      </trkpt>
      <trkpt lat="34.50941601768136" lon="-2.195223961025477">
        <ele>992.21799999999996</ele>
        <time>2010-12-27T13:00:15Z</time>
      </trkpt>
      <trkpt lat="34.509181994944811" lon="-2.195246005430818">
        <ele>990.29499999999996</ele>
        <time>2010-12-27T13:00:19Z</time>
      </trkpt>
      <trkpt lat="34.508959036320448" lon="-2.195289004594088">
        <ele>991.73699999999997</ele>
        <time>2010-12-27T13:00:22Z</time>
      </trkpt>
      <trkpt lat="34.508397029712796" lon="-2.195396041497588">
        <ele>995.10199999999998</ele>
        <time>2010-12-27T13:00:30Z</time>
      </trkpt>
      <trkpt lat="34.508199971169233" lon="-2.195434011518955">
        <ele>997.505</ele>
        <time>2010-12-27T13:00:34Z</time>
      </trkpt>
      <trkpt lat="34.508109027519822" lon="-2.195451026782394">
        <ele>998.46600000000001</ele>
        <time>2010-12-27T13:00:36Z</time>
      </trkpt>
      <trkpt lat="34.507780959829688" lon="-2.195513974875212">
        <ele>1005.196</ele>
        <time>2010-12-27T13:00:42Z</time>
      </trkpt>
      <trkpt lat="34.507681969553232" lon="-2.195533001795411">
        <ele>1007.1180000000001</ele>
        <time>2010-12-27T13:00:44Z</time>
      </trkpt>
      <trkpt lat="34.507210990414023" lon="-2.195623023435473">
        <ele>1017.212</ele>
        <time>2010-12-27T13:00:54Z</time>
      </trkpt>
      <trkpt lat="34.506931034848094" lon="-2.195677002891898">
        <ele>1022.5</ele>
        <time>2010-12-27T13:00:59Z</time>
      </trkpt>
      <trkpt lat="34.506610007956624" lon="-2.195738023146987">
        <ele>1027.306</ele>
        <time>2010-12-27T13:01:04Z</time>
      </trkpt>
      <trkpt lat="34.506484027951956" lon="-2.195761995390058">
        <ele>1029.229</ele>
        <time>2010-12-27T13:01:06Z</time>
      </trkpt>
      <trkpt lat="34.50621304102242" lon="-2.195813963189721">
        <ele>1032.5930000000001</ele>
        <time>2010-12-27T13:01:10Z</time>
      </trkpt>
      <trkpt lat="34.505928978323936" lon="-2.195869032293558">
        <ele>1034.9970000000001</ele>
        <time>2010-12-27T13:01:14Z</time>
      </trkpt>
      <trkpt lat="34.505646005272865" lon="-2.195923011749983">
        <ele>1036.4390000000001</ele>
        <time>2010-12-27T13:01:18Z</time>
      </trkpt>
      <trkpt lat="34.50526999309659" lon="-2.195995012298226">
        <ele>1039.3230000000001</ele>
        <time>2010-12-27T13:01:23Z</time>
      </trkpt>
      <trkpt lat="34.504769006744027" lon="-2.196090985089541">
        <ele>1042.6869999999999</ele>
        <time>2010-12-27T13:01:29Z</time>
      </trkpt>
      <trkpt lat="34.504381008446217" lon="-2.196164997294545">
        <ele>1045.5709999999999</ele>
        <time>2010-12-27T13:01:34Z</time>
      </trkpt>
      <trkpt lat="34.504229966551065" lon="-2.196193998679519">
        <ele>1046.5319999999999</ele>
        <time>2010-12-27T13:01:36Z</time>
      </trkpt>
      <trkpt lat="34.504012959077954" lon="-2.196235992014408">
        <ele>1047.9739999999999</ele>
        <time>2010-12-27T13:01:39Z</time>
      </trkpt>
      <trkpt lat="34.503811961039901" lon="-2.196273962035775">
        <ele>1050.3779999999999</ele>
        <time>2010-12-27T13:01:42Z</time>
      </trkpt>
      <trkpt lat="34.503461010754108" lon="-2.196341017261148">
        <ele>1052.3</ele>
        <time>2010-12-27T13:01:49Z</time>
      </trkpt>
      <trkpt lat="34.503236962482333" lon="-2.196384016424418">
        <ele>1053.2619999999999</ele>
        <time>2010-12-27T13:01:53Z</time>
      </trkpt>
      <trkpt lat="34.503148030489683" lon="-2.195824021473527">
        <ele>1055.184</ele>
        <time>2010-12-27T13:01:57Z</time>
      </trkpt>
      <trkpt lat="34.502229038625956" lon="-2.194976024329662">
        <ele>1060.471</ele>
        <time>2010-12-27T13:02:08Z</time>
      </trkpt>
      <trkpt lat="34.501770967617631" lon="-2.19460504129529">
        <ele>1058.068</ele>
        <time>2010-12-27T13:02:17Z</time>
      </trkpt>
      <trkpt lat="34.50150903314352" lon="-2.194399014115334">
        <ele>1055.665</ele>
        <time>2010-12-27T13:02:22Z</time>
      </trkpt>
      <trkpt lat="34.501329995691776" lon="-2.194309998303652">
        <ele>1054.704</ele>
        <time>2010-12-27T13:02:26Z</time>
      </trkpt>
      <trkpt lat="34.500871002674103" lon="-2.193825021386147">
        <ele>1050.8579999999999</ele>
        <time>2010-12-27T13:02:36Z</time>
      </trkpt>
      <trkpt lat="34.500670004636049" lon="-2.193522015586495">
        <ele>1049.4159999999999</ele>
        <time>2010-12-27T13:02:43Z</time>
      </trkpt>
      <trkpt lat="34.500647038221359" lon="-2.193680014461279">
        <ele>1049.8969999999999</ele>
        <time>2010-12-27T13:02:51Z</time>
      </trkpt>
      <trkpt lat="34.500830015167594" lon="-2.19432701356709">
        <ele>1048.4549999999999</ele>
        <time>2010-12-27T13:03:00Z</time>
      </trkpt>
      <trkpt lat="34.500921964645386" lon="-2.195042995736003">
        <ele>1046.0519999999999</ele>
        <time>2010-12-27T13:03:06Z</time>
      </trkpt>
      <trkpt lat="34.501120029017329" lon="-2.196851978078485">
        <ele>1043.6479999999999</ele>
        <time>2010-12-27T13:03:19Z</time>
      </trkpt>
      <trkpt lat="34.501205021515489" lon="-2.197253974154592">
        <ele>1041.2449999999999</ele>
        <time>2010-12-27T13:03:22Z</time>
      </trkpt>
      <trkpt lat="34.501135032624006" lon="-2.19804497435689">
        <ele>1035.9580000000001</ele>
        <time>2010-12-27T13:03:28Z</time>
      </trkpt>
      <trkpt lat="34.500820962712169" lon="-2.199374008923769">
        <ele>1021.538</ele>
        <time>2010-12-27T13:03:37Z</time>
      </trkpt>
      <trkpt lat="34.500722978264093" lon="-2.200219994410873">
        <ele>1015.29</ele>
        <time>2010-12-27T13:03:42Z</time>
      </trkpt>
      <trkpt lat="34.500315031036735" lon="-2.201321963220835">
        <ele>1011.925</ele>
        <time>2010-12-27T13:03:50Z</time>
      </trkpt>
      <trkpt lat="34.499814966693521" lon="-2.202324019744992">
        <ele>1006.638</ele>
        <time>2010-12-27T13:03:58Z</time>
      </trkpt>
      <trkpt lat="34.498734036460519" lon="-2.203815998509526">
        <ele>997.98599999999999</ele>
        <time>2010-12-27T13:04:10Z</time>
      </trkpt>
      <trkpt lat="34.497564006596804" lon="-2.20509298145771">
        <ele>987.41099999999994</ele>
        <time>2010-12-27T13:04:20Z</time>
      </trkpt>
      <trkpt lat="34.496820028871298" lon="-2.206258988007903">
        <ele>980.20100000000002</ele>
        <time>2010-12-27T13:04:28Z</time>
      </trkpt>
      <trkpt lat="34.495464004576206" lon="-2.208671970292926">
        <ele>967.70399999999995</ele>
        <time>2010-12-27T13:04:44Z</time>
      </trkpt>
      <trkpt lat="34.495019009336829" lon="-2.209470011293888">
        <ele>964.34000000000003</ele>
        <time>2010-12-27T13:04:51Z</time>
      </trkpt>
      <trkpt lat="34.494647020474076" lon="-2.210089014843106">
        <ele>961.45600000000002</ele>
        <time>2010-12-27T13:04:59Z</time>
      </trkpt>
      <trkpt lat="34.49398803524673" lon="-2.211073972284794">
        <ele>957.61099999999999</ele>
        <time>2010-12-27T13:05:08Z</time>
      </trkpt>
      <trkpt lat="34.493068037554622" lon="-2.21252303570509">
        <ele>949.91999999999996</ele>
        <time>2010-12-27T13:05:19Z</time>
      </trkpt>
      <trkpt lat="34.492046032100916" lon="-2.214157003909349">
        <ele>942.22900000000004</ele>
        <time>2010-12-27T13:05:31Z</time>
      </trkpt>
      <trkpt lat="34.490955965593457" lon="-2.215571030974388">
        <ele>936.94200000000001</ele>
        <time>2010-12-27T13:05:41Z</time>
      </trkpt>
      <trkpt lat="34.489884003996849" lon="-2.216727985069156">
        <ele>933.577</ele>
        <time>2010-12-27T13:05:50Z</time>
      </trkpt>
      <trkpt lat="34.489160981029272" lon="-2.217816961929202">
        <ele>930.69399999999996</ele>
        <time>2010-12-27T13:05:57Z</time>
      </trkpt>
      <trkpt lat="34.489043969660997" lon="-2.217946965247393">
        <ele>930.69399999999996</ele>
        <time>2010-12-27T13:05:58Z</time>
      </trkpt>
      <trkpt lat="34.48850903660059" lon="-2.218339992687106">
        <ele>931.17399999999998</ele>
        <time>2010-12-27T13:06:02Z</time>
      </trkpt>
      <trkpt lat="34.487764975056052" lon="-2.218689015135169">
        <ele>934.05799999999999</ele>
        <time>2010-12-27T13:06:08Z</time>
      </trkpt>
      <trkpt lat="34.487669002264738" lon="-2.218745006248355">
        <ele>934.53899999999999</ele>
        <time>2010-12-27T13:06:12Z</time>
      </trkpt>
      <trkpt lat="34.487799005582929" lon="-2.218659007921815">
        <ele>936.94200000000001</ele>
        <time>2010-12-27T13:06:23Z</time>
      </trkpt>
      <trkpt lat="34.487661039456725" lon="-2.218526992946863">
        <ele>936.94200000000001</ele>
        <time>2010-12-27T13:06:28Z</time>
      </trkpt>
      <trkpt lat="34.487368008121848" lon="-2.218156009912491">
        <ele>933.09699999999998</ele>
        <time>2010-12-27T13:06:34Z</time>
      </trkpt>
      <trkpt lat="34.487134991213679" lon="-2.21768100745976">
        <ele>926.84799999999996</ele>
        <time>2010-12-27T13:06:40Z</time>
      </trkpt>
      <trkpt lat="34.487056033685803" lon="-2.217308012768626">
        <ele>924.44500000000005</ele>
        <time>2010-12-27T13:06:44Z</time>
      </trkpt>
      <trkpt lat="34.486769959330559" lon="-2.217001989483833">
        <ele>922.04200000000003</ele>
        <time>2010-12-27T13:06:51Z</time>
      </trkpt>
      <trkpt lat="34.486652025952935" lon="-2.217026967555285">
        <ele>921.56100000000004</ele>
        <time>2010-12-27T13:06:53Z</time>
      </trkpt>
      <trkpt lat="34.485981976613402" lon="-2.217044988647103">
        <ele>922.52200000000005</ele>
        <time>2010-12-27T13:07:02Z</time>
      </trkpt>
      <trkpt lat="34.485546033829451" lon="-2.217103997245431">
        <ele>924.44500000000005</ele>
        <time>2010-12-27T13:07:08Z</time>
      </trkpt>
      <trkpt lat="34.485245039686561" lon="-2.217063009738922">
        <ele>925.40599999999995</ele>
        <time>2010-12-27T13:07:12Z</time>
      </trkpt>
      <trkpt lat="34.48472703807056" lon="-2.216964019462466">
        <ele>930.21299999999997</ele>
        <time>2010-12-27T13:07:19Z</time>
      </trkpt>
      <trkpt lat="34.484603991732001" lon="-2.216867040842772">
        <ele>931.17399999999998</ele>
        <time>2010-12-27T13:07:21Z</time>
      </trkpt>
      <trkpt lat="34.484270978718996" lon="-2.216719016432762">
        <ele>933.577</ele>
        <time>2010-12-27T13:07:27Z</time>
      </trkpt>
      <trkpt lat="34.483964033424854" lon="-2.216878021135926">
        <ele>935.98099999999999</ele>
        <time>2010-12-27T13:07:32Z</time>
      </trkpt>
      <trkpt lat="34.483436979353428" lon="-2.217020010575652">
        <ele>940.30700000000002</ele>
        <time>2010-12-27T13:07:40Z</time>
      </trkpt>
      <trkpt lat="34.482588982209563" lon="-2.216602005064488">
        <ele>934.53899999999999</ele>
        <time>2010-12-27T13:07:51Z</time>
      </trkpt>
      <trkpt lat="34.481802005320787" lon="-2.216164972633123">
        <ele>932.13499999999999</ele>
        <time>2010-12-27T13:08:02Z</time>
      </trkpt>
      <trkpt lat="34.480946967378259" lon="-2.215770017355681">
        <ele>931.17399999999998</ele>
        <time>2010-12-27T13:08:13Z</time>
      </trkpt>
      <trkpt lat="34.480354031547904" lon="-2.215472962707281">
        <ele>930.21299999999997</ele>
        <time>2010-12-27T13:08:22Z</time>
      </trkpt>
      <trkpt lat="34.480010038241744" lon="-2.215277999639511">
        <ele>932.61599999999999</ele>
        <time>2010-12-27T13:08:27Z</time>
      </trkpt>
      <trkpt lat="34.479603013023734" lon="-2.215098040178418">
        <ele>934.53899999999999</ele>
        <time>2010-12-27T13:08:34Z</time>
      </trkpt>
      <trkpt lat="34.479454988613725" lon="-2.215071972459555">
        <ele>935.5</ele>
        <time>2010-12-27T13:08:36Z</time>
      </trkpt>
      <trkpt lat="34.479158017784357" lon="-2.214939035475254">
        <ele>938.38400000000001</ele>
        <time>2010-12-27T13:08:40Z</time>
      </trkpt>
      <trkpt lat="34.478831039741635" lon="-2.214532010257244">
        <ele>939.34500000000003</ele>
        <time>2010-12-27T13:08:46Z</time>
      </trkpt>
      <trkpt lat="34.478722997009754" lon="-2.214425979182124">
        <ele>938.86500000000001</ele>
        <time>2010-12-27T13:08:48Z</time>
      </trkpt>
      <trkpt lat="34.47807096876204" lon="-2.213859027251601">
        <ele>939.82600000000002</ele>
        <time>2010-12-27T13:08:57Z</time>
      </trkpt>
      <trkpt lat="34.477599989622831" lon="-2.213527020066977">
        <ele>941.26800000000003</ele>
        <time>2010-12-27T13:09:03Z</time>
      </trkpt>
      <trkpt lat="34.47718701325357" lon="-2.213214039802551">
        <ele>940.30700000000002</ele>
        <time>2010-12-27T13:09:09Z</time>
      </trkpt>
      <trkpt lat="34.476942010223866" lon="-2.213081018999219">
        <ele>941.74900000000002</ele>
        <time>2010-12-27T13:09:12Z</time>
      </trkpt>
      <trkpt lat="34.476242959499359" lon="-2.212498979642987">
        <ele>943.19100000000003</ele>
        <time>2010-12-27T13:09:21Z</time>
      </trkpt>
      <trkpt lat="34.475565031170845" lon="-2.211920041590929">
        <ele>945.11300000000006</ele>
        <time>2010-12-27T13:09:30Z</time>
      </trkpt>
      <trkpt lat="34.47488802485168" lon="-2.211445039138198">
        <ele>946.07500000000005</ele>
        <time>2010-12-27T13:09:40Z</time>
      </trkpt>
      <trkpt lat="34.47467302903533" lon="-2.211229959502816">
        <ele>946.07500000000005</ele>
        <time>2010-12-27T13:09:44Z</time>
      </trkpt>
      <trkpt lat="34.474388966336846" lon="-2.210809020325542">
        <ele>948.47799999999995</ele>
        <time>2010-12-27T13:09:51Z</time>
      </trkpt>
      <trkpt lat="34.473924022167921" lon="-2.210292024537921">
        <ele>949.43899999999996</ele>
        <time>2010-12-27T13:10:01Z</time>
      </trkpt>
      <trkpt lat="34.47317099198699" lon="-2.209836971014738">
        <ele>954.24599999999998</ele>
        <time>2010-12-27T13:10:12Z</time>
      </trkpt>
      <trkpt lat="34.472866980358958" lon="-2.209543017670512">
        <ele>956.16800000000001</ele>
        <time>2010-12-27T13:10:17Z</time>
      </trkpt>
      <trkpt lat="34.472620971500874" lon="-2.208827035501599">
        <ele>959.05200000000002</ele>
        <time>2010-12-27T13:10:25Z</time>
      </trkpt>
      <trkpt lat="34.472513012588024" lon="-2.208584966138005">
        <ele>960.01400000000001</ele>
        <time>2010-12-27T13:10:28Z</time>
      </trkpt>
      <trkpt lat="34.472155021503568" lon="-2.208259999752045">
        <ele>960.97500000000002</ele>
        <time>2010-12-27T13:10:34Z</time>
      </trkpt>
      <trkpt lat="34.471895014867187" lon="-2.207989012822509">
        <ele>962.41700000000003</ele>
        <time>2010-12-27T13:10:39Z</time>
      </trkpt>
      <trkpt lat="34.471671972423792" lon="-2.207610988989472">
        <ele>966.74300000000005</ele>
        <time>2010-12-27T13:10:45Z</time>
      </trkpt>
      <trkpt lat="34.471237035468221" lon="-2.207129029557109">
        <ele>967.22400000000005</ele>
        <time>2010-12-27T13:10:54Z</time>
      </trkpt>
      <trkpt lat="34.470798997208476" lon="-2.206568028777838">
        <ele>967.22400000000005</ele>
        <time>2010-12-27T13:11:02Z</time>
      </trkpt>
      <trkpt lat="34.470105981454253" lon="-2.20571500249207">
        <ele>969.14599999999996</ele>
        <time>2010-12-27T13:11:13Z</time>
      </trkpt>
      <trkpt lat="34.469471974298358" lon="-2.204959960654378">
        <ele>971.54899999999998</ele>
        <time>2010-12-27T13:11:23Z</time>
      </trkpt>
      <trkpt lat="34.469206016510725" lon="-2.204615967348218">
        <ele>972.99199999999996</ele>
        <time>2010-12-27T13:11:27Z</time>
      </trkpt>
      <trkpt lat="34.468563040718436" lon="-2.203965028747916">
        <ele>976.35599999999999</ele>
        <time>2010-12-27T13:11:36Z</time>
      </trkpt>
      <trkpt lat="34.46827202104032" lon="-2.203849023208022">
        <ele>978.279</ele>
        <time>2010-12-27T13:11:43Z</time>
      </trkpt>
      <trkpt lat="34.467887962237" lon="-2.203548029065132">
        <ele>981.64300000000003</ele>
        <time>2010-12-27T13:11:53Z</time>
      </trkpt>
      <trkpt lat="34.467504993081093" lon="-2.203182997182012">
        <ele>987.89200000000005</ele>
        <time>2010-12-27T13:12:00Z</time>
      </trkpt>
      <trkpt lat="34.466767972335219" lon="-2.202902035787702">
        <ele>999.90800000000002</ele>
        <time>2010-12-27T13:12:11Z</time>
      </trkpt>
      <trkpt lat="34.466055007651448" lon="-2.202551001682878">
        <ele>1008.08</ele>
        <time>2010-12-27T13:12:20Z</time>
      </trkpt>
      <trkpt lat="34.465767005458474" lon="-2.202373975887895">
        <ele>1011.925</ele>
        <time>2010-12-27T13:12:24Z</time>
      </trkpt>
      <trkpt lat="34.465095028281212" lon="-2.202161997556686">
        <ele>1017.693</ele>
        <time>2010-12-27T13:12:33Z</time>
      </trkpt>
      <trkpt lat="34.46489897556603" lon="-2.202014978975058">
        <ele>1020.096</ele>
        <time>2010-12-27T13:12:36Z</time>
      </trkpt>
      <trkpt lat="34.464407041668892" lon="-2.201234959065914">
        <ele>1027.787</ele>
        <time>2010-12-27T13:12:45Z</time>
      </trkpt>
      <trkpt lat="34.464114010334015" lon="-2.200776971876621">
        <ele>1032.1130000000001</ele>
        <time>2010-12-27T13:12:50Z</time>
      </trkpt>
      <trkpt lat="34.4639110006392" lon="-2.200146988034248">
        <ele>1037.4000000000001</ele>
        <time>2010-12-27T13:12:56Z</time>
      </trkpt>
      <trkpt lat="34.463870013132691" lon="-2.199936015531421">
        <ele>1039.3230000000001</ele>
        <time>2010-12-27T13:12:58Z</time>
      </trkpt>
      <trkpt lat="34.463729029521346" lon="-2.199620017781854">
        <ele>1042.2070000000001</ele>
        <time>2010-12-27T13:13:02Z</time>
      </trkpt>
      <trkpt lat="34.463515961542726" lon="-2.199322963133454">
        <ele>1042.6869999999999</ele>
        <time>2010-12-27T13:13:09Z</time>
      </trkpt>
      <trkpt lat="34.46345997042954" lon="-2.199196983128786">
        <ele>1021.538</ele>
        <time>2010-12-27T13:13:59Z</time>
      </trkpt>
      <trkpt lat="34.463089993223548" lon="-2.19866800121963">
        <ele>1013.847</ele>
        <time>2010-12-27T13:14:10Z</time>
      </trkpt>
      <trkpt lat="34.462579032406211" lon="-2.197984959930182">
        <ele>1002.792</ele>
        <time>2010-12-27T13:14:22Z</time>
      </trkpt>
      <trkpt lat="34.46247098967433" lon="-2.197797959670425">
        <ele>1002.792</ele>
        <time>2010-12-27T13:14:25Z</time>
      </trkpt>
      <trkpt lat="34.462268985807896" lon="-2.197521021589637">
        <ele>999.428</ele>
        <time>2010-12-27T13:14:30Z</time>
      </trkpt>
      <trkpt lat="34.46174000389874" lon="-2.196634970605373">
        <ele>1004.715</ele>
        <time>2010-12-27T13:14:44Z</time>
      </trkpt>
      <trkpt lat="34.461197024211287" lon="-2.196028959006071">
        <ele>1002.792</ele>
        <time>2010-12-27T13:14:54Z</time>
      </trkpt>
      <trkpt lat="34.460504008457065" lon="-2.195270983502269">
        <ele>1004.715</ele>
        <time>2010-12-27T13:15:06Z</time>
      </trkpt>
      <trkpt lat="34.460095977410674" lon="-2.194795981049538">
        <ele>1005.677</ele>
        <time>2010-12-27T13:15:13Z</time>
      </trkpt>
      <trkpt lat="34.459548974409699" lon="-2.194092990830541">
        <ele>1004.715</ele>
        <time>2010-12-27T13:15:23Z</time>
      </trkpt>
      <trkpt lat="34.459257032722235" lon="-2.193521009758115">
        <ele>1000.389</ele>
        <time>2010-12-27T13:15:30Z</time>
      </trkpt>
      <trkpt lat="34.458790998905897" lon="-2.192590031772852">
        <ele>994.62099999999998</ele>
        <time>2010-12-27T13:15:40Z</time>
      </trkpt>
      <trkpt lat="34.45827903226018" lon="-2.191389994695783">
        <ele>990.77599999999995</ele>
        <time>2010-12-27T13:15:51Z</time>
      </trkpt>
      <trkpt lat="34.458101000636816" lon="-2.190817007794976">
        <ele>990.77599999999995</ele>
        <time>2010-12-27T13:15:56Z</time>
      </trkpt>
      <trkpt lat="34.45778701454401" lon="-2.190265981480479">
        <ele>988.37300000000005</ele>
        <time>2010-12-27T13:16:02Z</time>
      </trkpt>
      <trkpt lat="34.457532037049532" lon="-2.190149975940585">
        <ele>986.92999999999995</ele>
        <time>2010-12-27T13:16:06Z</time>
      </trkpt>
      <trkpt lat="34.456719998270273" lon="-2.190261036157608">
        <ele>985.48900000000003</ele>
        <time>2010-12-27T13:16:15Z</time>
      </trkpt>
      <trkpt lat="34.455956993624568" lon="-2.190377041697502">
        <ele>985.96900000000005</ele>
        <time>2010-12-27T13:16:25Z</time>
      </trkpt>
      <trkpt lat="34.455645019188523" lon="-2.190388021990657">
        <ele>985.48900000000003</ele>
        <time>2010-12-27T13:16:29Z</time>
      </trkpt>
      <trkpt lat="34.455054011195898" lon="-2.190042017027736">
        <ele>983.56600000000003</ele>
        <time>2010-12-27T13:16:36Z</time>
      </trkpt>
      <trkpt lat="34.454773971810937" lon="-2.189692994579673">
        <ele>981.16300000000001</ele>
        <time>2010-12-27T13:16:40Z</time>
      </trkpt>
      <trkpt lat="34.4545220118016" lon="-2.189350007101893">
        <ele>979.24000000000001</ele>
        <time>2010-12-27T13:16:44Z</time>
      </trkpt>
      <trkpt lat="34.453771999105811" lon="-2.188304029405117">
        <ele>973.47199999999998</ele>
        <time>2010-12-27T13:16:55Z</time>
      </trkpt>
      <trkpt lat="34.453295990824699" lon="-2.187326028943062">
        <ele>968.18499999999995</ele>
        <time>2010-12-27T13:17:04Z</time>
      </trkpt>
      <trkpt lat="34.452861975878477" lon="-2.186157004907727">
        <ele>965.30100000000004</ele>
        <time>2010-12-27T13:17:14Z</time>
      </trkpt>
      <trkpt lat="34.452721998095512" lon="-2.185809994116426">
        <ele>964.82000000000005</ele>
        <time>2010-12-27T13:17:17Z</time>
      </trkpt>
      <trkpt lat="34.452414968982339" lon="-2.184610962867737">
        <ele>965.30100000000004</ele>
        <time>2010-12-27T13:17:27Z</time>
      </trkpt>
      <trkpt lat="34.452240038663149" lon="-2.184319021180272">
        <ele>964.82000000000005</ele>
        <time>2010-12-27T13:17:30Z</time>
      </trkpt>
      <trkpt lat="34.45162296295166" lon="-2.183678979054093">
        <ele>964.82000000000005</ele>
        <time>2010-12-27T13:17:39Z</time>
      </trkpt>
      <trkpt lat="34.450999014079571" lon="-2.183019993826747">
        <ele>966.26199999999994</ele>
        <time>2010-12-27T13:17:50Z</time>
      </trkpt>
      <trkpt lat="34.45046097971499" lon="-2.18251196667552">
        <ele>968.66600000000005</ele>
        <time>2010-12-27T13:17:59Z</time>
      </trkpt>
      <trkpt lat="34.450038028880954" lon="-2.182395961135626">
        <ele>969.62699999999995</ele>
        <time>2010-12-27T13:18:06Z</time>
      </trkpt>
      <trkpt lat="34.449412990361452" lon="-2.182506015524268">
        <ele>966.74300000000005</ele>
        <time>2010-12-27T13:18:15Z</time>
      </trkpt>
      <trkpt lat="34.44904301315546" lon="-2.182825030758977">
        <ele>963.85900000000004</ele>
        <time>2010-12-27T13:18:23Z</time>
      </trkpt>
      <trkpt lat="34.448571028187871" lon="-2.183195007964969">
        <ele>961.93700000000001</ele>
        <time>2010-12-27T13:18:32Z</time>
      </trkpt>
      <trkpt lat="34.447784973308444" lon="-2.183626005426049">
        <ele>967.22400000000005</ele>
        <time>2010-12-27T13:18:42Z</time>
      </trkpt>
      <trkpt lat="34.447275018319488" lon="-2.183906966820359">
        <ele>972.99199999999996</ele>
        <time>2010-12-27T13:18:49Z</time>
      </trkpt>
      <trkpt lat="34.446968995034695" lon="-2.184130009263754">
        <ele>976.35599999999999</ele>
        <time>2010-12-27T13:18:55Z</time>
      </trkpt>
      <trkpt lat="34.44663698785007" lon="-2.184635018929839">
        <ele>979.721</ele>
        <time>2010-12-27T13:19:03Z</time>
      </trkpt>
      <trkpt lat="34.446453005075455" lon="-2.184927966445684">
        <ele>982.12400000000002</ele>
        <time>2010-12-27T13:19:08Z</time>
      </trkpt>
      <trkpt lat="34.445846993476152" lon="-2.18534798361361">
        <ele>985.96900000000005</ele>
        <time>2010-12-27T13:19:17Z</time>
      </trkpt>
      <trkpt lat="34.44554197601974" lon="-2.185498019680381">
        <ele>990.29499999999996</ele>
        <time>2010-12-27T13:19:21Z</time>
      </trkpt>
      <trkpt lat="34.445081977173686" lon="-2.185557028278709">
        <ele>990.29499999999996</ele>
        <time>2010-12-27T13:19:29Z</time>
      </trkpt>
      <trkpt lat="34.444692973047495" lon="-2.185693988576531">
        <ele>989.33399999999995</ele>
        <time>2010-12-27T13:19:39Z</time>
      </trkpt>
      <trkpt lat="34.44436096586287" lon="-2.185728019103408">
        <ele>988.85400000000004</ele>
        <time>2010-12-27T13:19:50Z</time>
      </trkpt>
      <trkpt lat="34.444006998091936" lon="-2.185887023806572">
        <ele>995.58299999999997</ele>
        <time>2010-12-27T13:19:58Z</time>
      </trkpt>
      <trkpt lat="34.443398974835873" lon="-2.186083998531103">
        <ele>998.46600000000001</ele>
        <time>2010-12-27T13:20:12Z</time>
      </trkpt>
      <trkpt lat="34.443087000399828" lon="-2.186298994347453">
        <ele>990.29499999999996</ele>
        <time>2010-12-27T13:20:23Z</time>
      </trkpt>
      <trkpt lat="34.44266103208065" lon="-2.186498986557126">
        <ele>1002.792</ele>
        <time>2010-12-27T13:20:36Z</time>
      </trkpt>
      <trkpt lat="34.442148981615901" lon="-2.186747007071972">
        <ele>1008.5599999999999</ele>
        <time>2010-12-27T13:20:46Z</time>
      </trkpt>
      <trkpt lat="34.441718989983201" lon="-2.186998967081308">
        <ele>1010.9640000000001</ele>
        <time>2010-12-27T13:20:54Z</time>
      </trkpt>
      <trkpt lat="34.441507011651993" lon="-2.187110027298331">
        <ele>1011.925</ele>
        <time>2010-12-27T13:20:58Z</time>
      </trkpt>
      <trkpt lat="34.440966965630651" lon="-2.187356036156416">
        <ele>1014.328</ele>
        <time>2010-12-27T13:21:10Z</time>
      </trkpt>
      <trkpt lat="34.440452987328172" lon="-2.187503976747394">
        <ele>1010.9640000000001</ele>
        <time>2010-12-27T13:21:20Z</time>
      </trkpt>
      <trkpt lat="34.439806994050741" lon="-2.187736993655562">
        <ele>1007.599</ele>
        <time>2010-12-27T13:21:31Z</time>
      </trkpt>
      <trkpt lat="34.439234007149935" lon="-2.18790396116674">
        <ele>1007.1180000000001</ele>
        <time>2010-12-27T13:21:41Z</time>
      </trkpt>
      <trkpt lat="34.439128981903195" lon="-2.187912007793784">
        <ele>1005.677</ele>
        <time>2010-12-27T13:21:43Z</time>
      </trkpt>
      <trkpt lat="34.438465973362327" lon="-2.188069000840187">
        <ele>1000.389</ele>
        <time>2010-12-27T13:21:54Z</time>
      </trkpt>
      <trkpt lat="34.437957024201751" lon="-2.188176037743688">
        <ele>1000.389</ele>
        <time>2010-12-27T13:22:03Z</time>
      </trkpt>
      <trkpt lat="34.437840012833476" lon="-2.188186012208462">
        <ele>1000.87</ele>
        <time>2010-12-27T13:22:05Z</time>
      </trkpt>
      <trkpt lat="34.43748596124351" lon="-2.188077969476581">
        <ele>1000.87</ele>
        <time>2010-12-27T13:22:11Z</time>
      </trkpt>
      <trkpt lat="34.436941975727677" lon="-2.187547981739044">
        <ele>993.65999999999997</ele>
        <time>2010-12-27T13:22:21Z</time>
      </trkpt>
      <trkpt lat="34.436596976593137" lon="-2.187136011198163">
        <ele>990.29499999999996</ele>
        <time>2010-12-27T13:22:31Z</time>
      </trkpt>
      <trkpt lat="34.436528999358416" lon="-2.187025034800172">
        <ele>993.17899999999997</ele>
        <time>2010-12-27T13:22:41Z</time>
      </trkpt>
      <trkpt lat="34.436355996876955" lon="-2.186812972649932">
        <ele>988.37300000000005</ele>
        <time>2010-12-27T13:22:48Z</time>
      </trkpt>
      <trkpt lat="34.435798013582826" lon="-2.18618399463594">
        <ele>989.33399999999995</ele>
        <time>2010-12-27T13:23:02Z</time>
      </trkpt>
      <trkpt lat="34.435202982276678" lon="-2.185489973053336">
        <ele>1000.389</ele>
        <time>2010-12-27T13:23:15Z</time>
      </trkpt>
      <trkpt lat="34.434120040386915" lon="-2.184463022276759">
        <ele>1003.754</ele>
        <time>2010-12-27T13:23:30Z</time>
      </trkpt>
      <trkpt lat="34.433683007955551" lon="-2.183674033731222">
        <ele>1002.312</ele>
        <time>2010-12-27T13:23:44Z</time>
      </trkpt>
      <trkpt lat="34.433026034384966" lon="-2.183431964367628">
        <ele>998.947</ele>
        <time>2010-12-27T13:23:56Z</time>
      </trkpt>
      <trkpt lat="34.432887984439731" lon="-2.183374967426062">
        <ele>996.54399999999998</ele>
        <time>2010-12-27T13:24:00Z</time>
      </trkpt>
      <trkpt lat="34.432753035798669" lon="-2.183298021554947">
        <ele>986.45000000000005</ele>
        <time>2010-12-27T13:24:09Z</time>
      </trkpt>
      <trkpt lat="34.432842973619699" lon="-2.183126024901867">
        <ele>946.07500000000005</ele>
        <time>2010-12-27T13:25:54Z</time>
      </trkpt>
      <trkpt lat="34.432912040501833" lon="-2.183013036847115">
        <ele>938.38400000000001</ele>
        <time>2010-12-27T13:26:37Z</time>
      </trkpt>
      <trkpt lat="34.433008013293147" lon="-2.183042960241437">
        <ele>929.25099999999998</ele>
        <time>2010-12-27T13:28:51Z</time>
      </trkpt>
      <trkpt lat="34.43299300968647" lon="-2.182932989671826">
        <ele>930.21299999999997</ele>
        <time>2010-12-27T13:28:56Z</time>
      </trkpt>
      <trkpt lat="34.432958979159594" lon="-2.182803992182016">
        <ele>930.69399999999996</ele>
        <time>2010-12-27T13:29:13Z</time>
      </trkpt>
      <trkpt lat="34.432845991104841" lon="-2.182872975245118">
        <ele>960.01400000000001</ele>
        <time>2010-12-27T13:29:47Z</time>
      </trkpt>
      <trkpt lat="34.433030979707837" lon="-2.182976994663477">
        <ele>973.47199999999998</ele>
        <time>2010-12-27T13:33:14Z</time>
      </trkpt>
      <trkpt lat="34.433113960549235" lon="-2.183063998818398">
        <ele>972.51099999999997</ele>
        <time>2010-12-27T13:34:14Z</time>
      </trkpt>
      <trkpt lat="34.432838028296828" lon="-2.183013958856463">
        <ele>942.22900000000004</ele>
        <time>2010-12-27T14:01:21Z</time>
      </trkpt>
      <trkpt lat="34.432996027171612" lon="-2.183066010475159">
        <ele>960.49400000000003</ele>
        <time>2010-12-27T14:14:04Z</time>
      </trkpt>
      <trkpt lat="34.433132987469435" lon="-2.18309098854661">
        <ele>971.54899999999998</ele>
        <time>2010-12-27T14:14:46Z</time>
      </trkpt>
      <trkpt lat="34.432894019410014" lon="-2.183079002425075">
        <ele>958.09100000000001</ele>
        <time>2010-12-27T15:09:06Z</time>
      </trkpt>
      <trkpt lat="34.432969037443399" lon="-2.183188972994685">
        <ele>957.13</ele>
        <time>2010-12-27T15:09:15Z</time>
      </trkpt>
      <trkpt lat="34.432900976389647" lon="-2.183285029605031">
        <ele>954.24599999999998</ele>
        <time>2010-12-27T15:09:24Z</time>
      </trkpt>
      <trkpt lat="34.432636024430394" lon="-2.183336997404695">
        <ele>946.07500000000005</ele>
        <time>2010-12-27T15:10:07Z</time>
      </trkpt>
      <trkpt lat="34.432454975321889" lon="-2.183015970513225">
        <ele>946.07500000000005</ele>
        <time>2010-12-27T15:10:15Z</time>
      </trkpt>
      <trkpt lat="34.43241398781538" lon="-2.182755963876844">
        <ele>946.55499999999995</ele>
        <time>2010-12-27T15:10:19Z</time>
      </trkpt>
      <trkpt lat="34.432417005300522" lon="-2.182332007214427">
        <ele>949.91999999999996</ele>
        <time>2010-12-27T15:10:29Z</time>
      </trkpt>
      <trkpt lat="34.432192035019398" lon="-2.182168979197741">
        <ele>948.95799999999997</ele>
        <time>2010-12-27T15:10:37Z</time>
      </trkpt>
      <trkpt lat="34.431804958730936" lon="-2.181688025593758">
        <ele>948.95799999999997</ele>
        <time>2010-12-27T15:10:48Z</time>
      </trkpt>
      <trkpt lat="34.431547969579697" lon="-2.18137102201581">
        <ele>948.95799999999997</ele>
        <time>2010-12-27T15:10:57Z</time>
      </trkpt>
      <trkpt lat="34.431445961818099" lon="-2.181232972070575">
        <ele>950.40099999999995</ele>
        <time>2010-12-27T15:11:06Z</time>
      </trkpt>
      <trkpt lat="34.431307995691895" lon="-2.181110009551048">
        <ele>949.43899999999996</ele>
        <time>2010-12-27T15:11:13Z</time>
      </trkpt>
      <trkpt lat="34.430787982419133" lon="-2.180752018466592">
        <ele>948.47799999999995</ele>
        <time>2010-12-27T15:11:22Z</time>
      </trkpt>
      <trkpt lat="34.43067298270762" lon="-2.180673982948065">
        <ele>947.99699999999996</ele>
        <time>2010-12-27T15:11:24Z</time>
      </trkpt>
      <trkpt lat="34.430443989112973" lon="-2.180508021265268">
        <ele>948.95799999999997</ele>
        <time>2010-12-27T15:11:30Z</time>
      </trkpt>
      <trkpt lat="34.429914001375437" lon="-2.180492011830211">
        <ele>949.91999999999996</ele>
        <time>2010-12-27T15:11:36Z</time>
      </trkpt>
      <trkpt lat="34.428827036172152" lon="-2.180496035143733">
        <ele>953.28399999999999</ele>
        <time>2010-12-27T15:11:45Z</time>
      </trkpt>
      <trkpt lat="34.427617024630308" lon="-2.18049000017345">
        <ele>956.16800000000001</ele>
        <time>2010-12-27T15:11:56Z</time>
      </trkpt>
      <trkpt lat="34.425940979272127" lon="-2.180487988516688">
        <ele>958.572</ele>
        <time>2010-12-27T15:12:12Z</time>
      </trkpt>
      <trkpt lat="34.424114981666207" lon="-2.180337030440569">
        <ele>962.89800000000002</ele>
        <time>2010-12-27T15:12:28Z</time>
      </trkpt>
      <trkpt lat="34.422333994880319" lon="-2.180016003549099">
        <ele>968.18499999999995</ele>
        <time>2010-12-27T15:12:43Z</time>
      </trkpt>
      <trkpt lat="34.420599024742842" lon="-2.179578971117735">
        <ele>976.35599999999999</ele>
        <time>2010-12-27T15:12:57Z</time>
      </trkpt>
      <trkpt lat="34.417915977537632" lon="-2.178950998932123">
        <ele>988.37300000000005</ele>
        <time>2010-12-27T15:13:17Z</time>
      </trkpt>
      <trkpt lat="34.415784040465951" lon="-2.178597031161189">
        <ele>996.06299999999999</ele>
        <time>2010-12-27T15:13:33Z</time>
      </trkpt>
      <trkpt lat="34.414728004485369" lon="-2.178952004760504">
        <ele>999.428</ele>
        <time>2010-12-27T15:13:41Z</time>
      </trkpt>
      <trkpt lat="34.413004014641047" lon="-2.179436981678009">
        <ele>1005.196</ele>
        <time>2010-12-27T15:13:53Z</time>
      </trkpt>
      <trkpt lat="34.41140198148787" lon="-2.179347965866327">
        <ele>1006.638</ele>
        <time>2010-12-27T15:14:04Z</time>
      </trkpt>
      <trkpt lat="34.40972400829196" lon="-2.179272025823593">
        <ele>1009.522</ele>
        <time>2010-12-27T15:14:15Z</time>
      </trkpt>
      <trkpt lat="34.407463995739818" lon="-2.179104974493384">
        <ele>1016.731</ele>
        <time>2010-12-27T15:14:29Z</time>
      </trkpt>
      <trkpt lat="34.406164968386292" lon="-2.179386019706726">
        <ele>1029.229</ele>
        <time>2010-12-27T15:14:38Z</time>
      </trkpt>
      <trkpt lat="34.403867991641164" lon="-2.179511999711394">
        <ele>1038.3610000000001</ele>
        <time>2010-12-27T15:14:54Z</time>
      </trkpt>
      <trkpt lat="34.401415027678013" lon="-2.179604033008218">
        <ele>1044.1289999999999</ele>
        <time>2010-12-27T15:15:10Z</time>
      </trkpt>
      <trkpt lat="34.398604994639754" lon="-2.17950495891273">
        <ele>1055.665</ele>
        <time>2010-12-27T15:15:28Z</time>
      </trkpt>
      <trkpt lat="34.396815039217472" lon="-2.179346960037947">
        <ele>1064.797</ele>
        <time>2010-12-27T15:15:40Z</time>
      </trkpt>
      <trkpt lat="34.394150013104081" lon="-2.178920991718769">
        <ele>1076.3330000000001</ele>
        <time>2010-12-27T15:15:57Z</time>
      </trkpt>
      <trkpt lat="34.391840966418386" lon="-2.17840600758791">
        <ele>1087.3879999999999</ele>
        <time>2010-12-27T15:16:12Z</time>
      </trkpt>
      <trkpt lat="34.390737991780043" lon="-2.178233005106449">
        <ele>1093.1559999999999</ele>
        <time>2010-12-27T15:16:21Z</time>
      </trkpt>
      <trkpt lat="34.390349993482232" lon="-2.178172990679741">
        <ele>1095.5599999999999</ele>
        <time>2010-12-27T15:16:27Z</time>
      </trkpt>
      <trkpt lat="34.390243040397763" lon="-2.178155975416303">
        <ele>1096.04</ele>
        <time>2010-12-27T15:16:34Z</time>
      </trkpt>
      <trkpt lat="34.390037013217807" lon="-2.178866006433964">
        <ele>1096.04</ele>
        <time>2010-12-27T15:16:43Z</time>
      </trkpt>
      <trkpt lat="34.389734007418156" lon="-2.179126013070345">
        <ele>1099.405</ele>
        <time>2010-12-27T15:16:51Z</time>
      </trkpt>
      <trkpt lat="34.389540972188115" lon="-2.179621970281005">
        <ele>1104.212</ele>
        <time>2010-12-27T15:16:58Z</time>
      </trkpt>
      <trkpt lat="34.389253975823522" lon="-2.17982497997582">
        <ele>1108.057</ele>
        <time>2010-12-27T15:17:03Z</time>
      </trkpt>
      <trkpt lat="34.389124978333712" lon="-2.179663963615894">
        <ele>1109.499</ele>
        <time>2010-12-27T15:17:06Z</time>
      </trkpt>
      <trkpt lat="34.388623991981149" lon="-2.178968014195561">
        <ele>1115.2670000000001</ele>
        <time>2010-12-27T15:17:15Z</time>
      </trkpt>
      <trkpt lat="34.388270024210215" lon="-2.177879037335515">
        <ele>1125.8409999999999</ele>
        <time>2010-12-27T15:17:24Z</time>
      </trkpt>
      <trkpt lat="34.388017980381846" lon="-2.177854981273413">
        <ele>1135.454</ele>
        <time>2010-12-27T15:17:32Z</time>
      </trkpt>
      <trkpt lat="34.387817988172174" lon="-2.177835032343864">
        <ele>1142.184</ele>
        <time>2010-12-27T15:17:38Z</time>
      </trkpt>
      <trkpt lat="34.387683039531112" lon="-2.178379017859697">
        <ele>1145.548</ele>
        <time>2010-12-27T15:17:46Z</time>
      </trkpt>
      <trkpt lat="34.387735007330775" lon="-2.179256016388536">
        <ele>1150.835</ele>
        <time>2010-12-27T15:17:54Z</time>
      </trkpt>
      <trkpt lat="34.387525040656328" lon="-2.179577965289354">
        <ele>1154.681</ele>
        <time>2010-12-27T15:17:59Z</time>
      </trkpt>
      <trkpt lat="34.387243995442986" lon="-2.17946195974946">
        <ele>1158.0450000000001</ele>
        <time>2010-12-27T15:18:03Z</time>
      </trkpt>
      <trkpt lat="34.386460036039352" lon="-2.178811021149159">
        <ele>1166.2170000000001</ele>
        <time>2010-12-27T15:18:14Z</time>
      </trkpt>
      <trkpt lat="34.385640034452081" lon="-2.178523018956184">
        <ele>1174.8679999999999</ele>
        <time>2010-12-27T15:18:24Z</time>
      </trkpt>
      <trkpt lat="34.385178023949265" lon="-2.178627038374543">
        <ele>1177.752</ele>
        <time>2010-12-27T15:18:29Z</time>
      </trkpt>
      <trkpt lat="34.384677037596703" lon="-2.179108997806907">
        <ele>1184.001</ele>
        <time>2010-12-27T15:18:36Z</time>
      </trkpt>
      <trkpt lat="34.384485008195043" lon="-2.17935198917985">
        <ele>1186.404</ele>
        <time>2010-12-27T15:18:39Z</time>
      </trkpt>
      <trkpt lat="34.384147971868515" lon="-2.179390965029597">
        <ele>1189.769</ele>
        <time>2010-12-27T15:18:44Z</time>
      </trkpt>
      <trkpt lat="34.384087035432458" lon="-2.179217962548137">
        <ele>1190.73</ele>
        <time>2010-12-27T15:18:46Z</time>
      </trkpt>
      <trkpt lat="34.383891988545656" lon="-2.1784289740026">
        <ele>1196.498</ele>
        <time>2010-12-27T15:18:53Z</time>
      </trkpt>
      <trkpt lat="34.383960971608758" lon="-2.177840983495116">
        <ele>1199.8630000000001</ele>
        <time>2010-12-27T15:18:58Z</time>
      </trkpt>
      <trkpt lat="34.384151995182037" lon="-2.177350977435708">
        <ele>1202.2660000000001</ele>
        <time>2010-12-27T15:19:02Z</time>
      </trkpt>
      <trkpt lat="34.384380988776684" lon="-2.176648993045092">
        <ele>1205.6310000000001</ele>
        <time>2010-12-27T15:19:06Z</time>
      </trkpt>
      <trkpt lat="34.383913027122617" lon="-2.175461025908589">
        <ele>1215.7249999999999</ele>
        <time>2010-12-27T15:19:15Z</time>
      </trkpt>
      <trkpt lat="34.383366024121642" lon="-2.174069965258241">
        <ele>1227.741</ele>
        <time>2010-12-27T15:19:26Z</time>
      </trkpt>
      <trkpt lat="34.38316997140646" lon="-2.173816999420524">
        <ele>1234.47</ele>
        <time>2010-12-27T15:19:31Z</time>
      </trkpt>
      <trkpt lat="34.383219005540013" lon="-2.173686996102333">
        <ele>1237.354</ele>
        <time>2010-12-27T15:19:33Z</time>
      </trkpt>
      <trkpt lat="34.382748026400805" lon="-2.174017997458577">
        <ele>1246.9670000000001</ele>
        <time>2010-12-27T15:19:41Z</time>
      </trkpt>
      <trkpt lat="34.382131034508348" lon="-2.174428040161729">
        <ele>1254.6579999999999</ele>
        <time>2010-12-27T15:19:50Z</time>
      </trkpt>
      <trkpt lat="34.381454028189182" lon="-2.174644963815808">
        <ele>1262.348</ele>
        <time>2010-12-27T15:19:58Z</time>
      </trkpt>
      <trkpt lat="34.380738968029618" lon="-2.174471039324999">
        <ele>1267.155</ele>
        <time>2010-12-27T15:20:06Z</time>
      </trkpt>
      <trkpt lat="34.380272012203932" lon="-2.174215978011489">
        <ele>1271.481</ele>
        <time>2010-12-27T15:20:11Z</time>
      </trkpt>
      <trkpt lat="34.379974035546184" lon="-2.173867961391807">
        <ele>1274.845</ele>
        <time>2010-12-27T15:20:15Z</time>
      </trkpt>
      <trkpt lat="34.379642028361559" lon="-2.173717003315687">
        <ele>1278.21</ele>
        <time>2010-12-27T15:20:19Z</time>
      </trkpt>
      <trkpt lat="34.378633014857769" lon="-2.173683978617191">
        <ele>1282.5360000000001</ele>
        <time>2010-12-27T15:20:28Z</time>
      </trkpt>
      <trkpt lat="34.378088023513556" lon="-2.173407040536404">
        <ele>1285.9010000000001</ele>
        <time>2010-12-27T15:20:33Z</time>
      </trkpt>
      <trkpt lat="34.377468014135957" lon="-2.17267001979053">
        <ele>1293.1110000000001</ele>
        <time>2010-12-27T15:20:40Z</time>
      </trkpt>
      <trkpt lat="34.376801988109946" lon="-2.172302976250649">
        <ele>1299.8399999999999</ele>
        <time>2010-12-27T15:20:46Z</time>
      </trkpt>
      <trkpt lat="34.376675002276897" lon="-2.172287972643971">
        <ele>1300.8009999999999</ele>
        <time>2010-12-27T15:20:47Z</time>
      </trkpt>
      <trkpt lat="34.375157039612532" lon="-2.172224018722773">
        <ele>1306.569</ele>
        <time>2010-12-27T15:21:00Z</time>
      </trkpt>
      <trkpt lat="34.374936008825898" lon="-2.17221999540925">
        <ele>1307.05</ele>
        <time>2010-12-27T15:21:02Z</time>
      </trkpt>
      <trkpt lat="34.374484978616238" lon="-2.172092003747821">
        <ele>1308.972</ele>
        <time>2010-12-27T15:21:06Z</time>
      </trkpt>
      <trkpt lat="34.373132977634668" lon="-2.171328999102116">
        <ele>1314.74</ele>
        <time>2010-12-27T15:21:17Z</time>
      </trkpt>
      <trkpt lat="34.373001968488097" lon="-2.171272002160549">
        <ele>1315.221</ele>
        <time>2010-12-27T15:21:18Z</time>
      </trkpt>
      <trkpt lat="34.372111978009343" lon="-2.171138981357217">
        <ele>1318.105</ele>
        <time>2010-12-27T15:21:25Z</time>
      </trkpt>
      <trkpt lat="34.371207989752293" lon="-2.170835975557566">
        <ele>1323.3920000000001</ele>
        <time>2010-12-27T15:21:33Z</time>
      </trkpt>
      <trkpt lat="34.370002001523972" lon="-2.170649981126189">
        <ele>1327.7180000000001</ele>
        <time>2010-12-27T15:21:42Z</time>
      </trkpt>
      <trkpt lat="34.368573976680636" lon="-2.169952020049095">
        <ele>1331.0830000000001</ele>
        <time>2010-12-27T15:21:53Z</time>
      </trkpt>
      <trkpt lat="34.367136983200908" lon="-2.169401999562979">
        <ele>1333.4860000000001</ele>
        <time>2010-12-27T15:22:03Z</time>
      </trkpt>
      <trkpt lat="34.366145990788937" lon="-2.168575963005424">
        <ele>1334.4469999999999</ele>
        <time>2010-12-27T15:22:11Z</time>
      </trkpt>
      <trkpt lat="34.364285040646791" lon="-2.16697602532804">
        <ele>1342.1379999999999</ele>
        <time>2010-12-27T15:22:26Z</time>
      </trkpt>
      <trkpt lat="34.363299999386072" lon="-2.166298013180494">
        <ele>1345.502</ele>
        <time>2010-12-27T15:22:33Z</time>
      </trkpt>
      <trkpt lat="34.362291991710663" lon="-2.165157990530133">
        <ele>1354.635</ele>
        <time>2010-12-27T15:22:42Z</time>
      </trkpt>
      <trkpt lat="34.362000972032547" lon="-2.164511997252703">
        <ele>1358.48</ele>
        <time>2010-12-27T15:22:46Z</time>
      </trkpt>
      <trkpt lat="34.361840961501002" lon="-2.164024002850056">
        <ele>1362.806</ele>
        <time>2010-12-27T15:22:51Z</time>
      </trkpt>
      <trkpt lat="34.360569007694721" lon="-2.164089968428016">
        <ele>1369.5350000000001</ele>
        <time>2010-12-27T15:22:58Z</time>
      </trkpt>
      <trkpt lat="34.360126024112105" lon="-2.163745975121856">
        <ele>1373.8610000000001</ele>
        <time>2010-12-27T15:23:03Z</time>
      </trkpt>
      <trkpt lat="34.360083024948835" lon="-2.163199977949262">
        <ele>1375.3030000000001</ele>
        <time>2010-12-27T15:23:07Z</time>
      </trkpt>
      <trkpt lat="34.360187966376543" lon="-2.16278700158">
        <ele>1375.7840000000001</ele>
        <time>2010-12-27T15:23:10Z</time>
      </trkpt>
      <trkpt lat="34.360920041799545" lon="-2.161438018083572">
        <ele>1381.0709999999999</ele>
        <time>2010-12-27T15:23:19Z</time>
      </trkpt>
      <trkpt lat="34.360655006021261" lon="-2.160780038684607">
        <ele>1385.8779999999999</ele>
        <time>2010-12-27T15:23:25Z</time>
      </trkpt>
      <trkpt lat="34.360545035451651" lon="-2.160507962107658">
        <ele>1387.3199999999999</ele>
        <time>2010-12-27T15:23:27Z</time>
      </trkpt>
      <trkpt lat="34.360384019091725" lon="-2.160136979073286">
        <ele>1388.7619999999999</ele>
        <time>2010-12-27T15:23:30Z</time>
      </trkpt>
      <trkpt lat="34.35981597751379" lon="-2.159428037703037">
        <ele>1392.126</ele>
        <time>2010-12-27T15:23:36Z</time>
      </trkpt>
      <trkpt lat="34.359186999499798" lon="-2.15864097699523">
        <ele>1396.933</ele>
        <time>2010-12-27T15:23:43Z</time>
      </trkpt>
      <trkpt lat="34.358925987035036" lon="-2.158381976187229">
        <ele>1398.855</ele>
        <time>2010-12-27T15:23:45Z</time>
      </trkpt>
      <trkpt lat="34.358021998777986" lon="-2.157817035913467">
        <ele>1406.0650000000001</ele>
        <time>2010-12-27T15:23:53Z</time>
      </trkpt>
      <trkpt lat="34.358083019033074" lon="-2.156803999096155">
        <ele>1407.9880000000001</ele>
        <time>2010-12-27T15:23:56Z</time>
      </trkpt>
      <trkpt lat="34.357693009078503" lon="-2.156469980254769">
        <ele>1410.8720000000001</ele>
        <time>2010-12-27T15:24:00Z</time>
      </trkpt>
      <trkpt lat="34.356567990034819" lon="-2.155967988073826">
        <ele>1416.6400000000001</ele>
        <time>2010-12-27T15:24:09Z</time>
      </trkpt>
      <trkpt lat="34.355986034497619" lon="-2.15608399361372">
        <ele>1418.5630000000001</ele>
        <time>2010-12-27T15:24:14Z</time>
      </trkpt>
      <trkpt lat="34.355482030659914" lon="-2.156462017446756">
        <ele>1415.6790000000001</ele>
        <time>2010-12-27T15:24:19Z</time>
      </trkpt>
      <trkpt lat="34.355231998488307" lon="-2.156862001866102">
        <ele>1411.8330000000001</ele>
        <time>2010-12-27T15:24:23Z</time>
      </trkpt>
      <trkpt lat="34.354962017387152" lon="-2.157172970473766">
        <ele>1409.9110000000001</ele>
        <time>2010-12-27T15:24:27Z</time>
      </trkpt>
      <trkpt lat="34.353911010548472" lon="-2.157656019553542">
        <ele>1401.259</ele>
        <time>2010-12-27T15:24:37Z</time>
      </trkpt>
      <trkpt lat="34.352780040353537" lon="-2.15803999453783">
        <ele>1388.2809999999999</ele>
        <time>2010-12-27T15:24:47Z</time>
      </trkpt>
      <trkpt lat="34.351466009393334" lon="-2.158718006685376">
        <ele>1374.3420000000001</ele>
        <time>2010-12-27T15:25:00Z</time>
      </trkpt>
      <trkpt lat="34.350713985040784" lon="-2.159260986372829">
        <ele>1367.1320000000001</ele>
        <time>2010-12-27T15:25:06Z</time>
      </trkpt>
      <trkpt lat="34.350263960659504" lon="-2.158868964761496">
        <ele>1359.922</ele>
        <time>2010-12-27T15:25:13Z</time>
      </trkpt>
      <trkpt lat="34.349467009305954" lon="-2.159193009138107">
        <ele>1350.79</ele>
        <time>2010-12-27T15:25:22Z</time>
      </trkpt>
      <trkpt lat="34.349079011008143" lon="-2.159138023853302">
        <ele>1343.0989999999999</ele>
        <time>2010-12-27T15:25:28Z</time>
      </trkpt>
      <trkpt lat="34.349154029041529" lon="-2.158840969204903">
        <ele>1337.8119999999999</ele>
        <time>2010-12-27T15:25:32Z</time>
      </trkpt>
      <trkpt lat="34.349603969603777" lon="-2.158239986747503">
        <ele>1334.9280000000001</ele>
        <time>2010-12-27T15:25:42Z</time>
      </trkpt>
      <trkpt lat="34.34946097433567" lon="-2.157872021198273">
        <ele>1332.5250000000001</ele>
        <time>2010-12-27T15:25:47Z</time>
      </trkpt>
      <trkpt lat="34.349421998485923" lon="-2.157771019265056">
        <ele>1331.0830000000001</ele>
        <time>2010-12-27T15:25:48Z</time>
      </trkpt>
      <trkpt lat="34.348944984376431" lon="-2.156537035480142">
        <ele>1320.508</ele>
        <time>2010-12-27T15:25:58Z</time>
      </trkpt>
      <trkpt lat="34.348641978576779" lon="-2.155756009742618">
        <ele>1312.818</ele>
        <time>2010-12-27T15:26:05Z</time>
      </trkpt>
      <trkpt lat="34.3485770188272" lon="-2.155303973704577">
        <ele>1307.05</ele>
        <time>2010-12-27T15:26:10Z</time>
      </trkpt>
      <trkpt lat="34.348553968593478" lon="-2.155021000653505">
        <ele>1303.6849999999999</ele>
        <time>2010-12-27T15:26:13Z</time>
      </trkpt>
      <trkpt lat="34.348541982471943" lon="-2.154863001778722">
        <ele>1301.7619999999999</ele>
        <time>2010-12-27T15:26:15Z</time>
      </trkpt>
      <trkpt lat="34.348509041592479" lon="-2.15445295907557">
        <ele>1296.4749999999999</ele>
        <time>2010-12-27T15:26:20Z</time>
      </trkpt>
      <trkpt lat="34.348484985530376" lon="-2.154142996296287">
        <ele>1293.5909999999999</ele>
        <time>2010-12-27T15:26:24Z</time>
      </trkpt>
      <trkpt lat="34.348440980538726" lon="-2.153589958325028">
        <ele>1288.7850000000001</ele>
        <time>2010-12-27T15:26:29Z</time>
      </trkpt>
      <trkpt lat="34.348394041880965" lon="-2.152986964210868">
        <ele>1282.5360000000001</ele>
        <time>2010-12-27T15:26:35Z</time>
      </trkpt>
      <trkpt lat="34.347362983971834" lon="-2.152361003682017">
        <ele>1277.249</ele>
        <time>2010-12-27T15:26:44Z</time>
      </trkpt>
      <trkpt lat="34.347124015912414" lon="-2.152063027024269">
        <ele>1273.884</ele>
        <time>2010-12-27T15:26:47Z</time>
      </trkpt>
      <trkpt lat="34.346927963197231" lon="-2.151606967672706">
        <ele>1269.078</ele>
        <time>2010-12-27T15:26:51Z</time>
      </trkpt>
      <trkpt lat="34.346809023991227" lon="-2.150450013577938">
        <ele>1258.0219999999999</ele>
        <time>2010-12-27T15:27:00Z</time>
      </trkpt>
      <trkpt lat="34.347172966226935" lon="-2.149543007835746">
        <ele>1248.4090000000001</ele>
        <time>2010-12-27T15:27:06Z</time>
      </trkpt>
      <trkpt lat="34.346969034522772" lon="-2.149045038968325">
        <ele>1243.1220000000001</ele>
        <time>2010-12-27T15:27:11Z</time>
      </trkpt>
      <trkpt lat="34.34593697078526" lon="-2.147431019693613">
        <ele>1225.818</ele>
        <time>2010-12-27T15:27:27Z</time>
      </trkpt>
      <trkpt lat="34.345062989741564" lon="-2.146255038678646">
        <ele>1213.3209999999999</ele>
        <time>2010-12-27T15:27:39Z</time>
      </trkpt>
      <trkpt lat="34.344783034175634" lon="-2.145879026502371">
        <ele>1209.9559999999999</ele>
        <time>2010-12-27T15:27:43Z</time>
      </trkpt>
      <trkpt lat="34.3434430193156" lon="-2.145446017384529">
        <ele>1199.8630000000001</ele>
        <time>2010-12-27T15:27:54Z</time>
      </trkpt>
      <trkpt lat="34.342557974159718" lon="-2.146165017038584">
        <ele>1189.288</ele>
        <time>2010-12-27T15:28:05Z</time>
      </trkpt>
      <trkpt lat="34.341244027018547" lon="-2.145953038707376">
        <ele>1178.7139999999999</ele>
        <time>2010-12-27T15:28:16Z</time>
      </trkpt>
      <trkpt lat="34.340809006243944" lon="-2.145994026213884">
        <ele>1175.8299999999999</ele>
        <time>2010-12-27T15:28:23Z</time>
      </trkpt>
      <trkpt lat="34.340716972947121" lon="-2.145997965708375">
        <ele>1175.3489999999999</ele>
        <time>2010-12-27T15:28:30Z</time>
      </trkpt>
      <trkpt lat="34.340571966022253" lon="-2.146014980971813">
        <ele>1173.9069999999999</ele>
        <time>2010-12-27T15:28:40Z</time>
      </trkpt>
      <trkpt lat="34.340343978255987" lon="-2.146170968189836">
        <ele>1175.3489999999999</ele>
        <time>2010-12-27T15:28:49Z</time>
      </trkpt>
      <trkpt lat="34.339924966916442" lon="-2.146434998139739">
        <ele>1176.3099999999999</ele>
        <time>2010-12-27T15:28:55Z</time>
      </trkpt>
      <trkpt lat="34.338831966742873" lon="-2.14710202999413">
        <ele>1175.3489999999999</ele>
        <time>2010-12-27T15:29:07Z</time>
      </trkpt>
      <trkpt lat="34.337536040693521" lon="-2.147896969690919">
        <ele>1171.0229999999999</ele>
        <time>2010-12-27T15:29:19Z</time>
      </trkpt>
      <trkpt lat="34.335853038355708" lon="-2.148935990408063">
        <ele>1166.6969999999999</ele>
        <time>2010-12-27T15:29:33Z</time>
      </trkpt>
      <trkpt lat="34.33424798771739" lon="-2.149937963113189">
        <ele>1162.8520000000001</ele>
        <time>2010-12-27T15:29:45Z</time>
      </trkpt>
      <trkpt lat="34.332428025081754" lon="-2.151047978550196">
        <ele>1159.4870000000001</ele>
        <time>2010-12-27T15:29:59Z</time>
      </trkpt>
      <trkpt lat="34.331853026524186" lon="-2.151406975463033">
        <ele>1157.5650000000001</ele>
        <time>2010-12-27T15:30:06Z</time>
      </trkpt>
      <trkpt lat="34.330783998593688" lon="-2.15206403285265">
        <ele>1150.355</ele>
        <time>2010-12-27T15:30:19Z</time>
      </trkpt>
      <trkpt lat="34.329483965411782" lon="-2.152894008904696">
        <ele>1141.703</ele>
        <time>2010-12-27T15:30:34Z</time>
      </trkpt>
      <trkpt lat="34.328963030129671" lon="-2.153566991910338">
        <ele>1135.454</ele>
        <time>2010-12-27T15:30:41Z</time>
      </trkpt>
      <trkpt lat="34.328347966074944" lon="-2.154878005385399">
        <ele>1126.3219999999999</ele>
        <time>2010-12-27T15:30:51Z</time>
      </trkpt>
      <trkpt lat="34.327815966680646" lon="-2.156105032190681">
        <ele>1121.9960000000001</ele>
        <time>2010-12-27T15:30:59Z</time>
      </trkpt>
      <trkpt lat="34.326982973143458" lon="-2.156412983313203">
        <ele>1121.5150000000001</ele>
        <time>2010-12-27T15:31:06Z</time>
      </trkpt>
      <trkpt lat="34.32610203512013" lon="-2.156275017186999">
        <ele>1119.1120000000001</ele>
        <time>2010-12-27T15:31:13Z</time>
      </trkpt>
      <trkpt lat="34.325279016047716" lon="-2.15614702552557">
        <ele>1115.7470000000001</ele>
        <time>2010-12-27T15:31:19Z</time>
      </trkpt>
      <trkpt lat="34.324251981452107" lon="-2.156092040240765">
        <ele>1106.615</ele>
        <time>2010-12-27T15:31:29Z</time>
      </trkpt>
      <trkpt lat="34.323166022077203" lon="-2.155667999759316">
        <ele>1101.328</ele>
        <time>2010-12-27T15:31:36Z</time>
      </trkpt>
      <trkpt lat="34.322719015181065" lon="-2.155648972839117">
        <ele>1099.405</ele>
        <time>2010-12-27T15:31:40Z</time>
      </trkpt>
      <trkpt lat="34.322171006351709" lon="-2.155910991132259">
        <ele>1096.04</ele>
        <time>2010-12-27T15:31:46Z</time>
      </trkpt>
      <trkpt lat="34.321972019970417" lon="-2.156210979446769">
        <ele>1096.04</ele>
        <time>2010-12-27T15:31:49Z</time>
      </trkpt>
      <trkpt lat="34.321174984797835" lon="-2.157798008993268">
        <ele>1091.2339999999999</ele>
        <time>2010-12-27T15:32:03Z</time>
      </trkpt>
      <trkpt lat="34.320941967889667" lon="-2.158910036087036">
        <ele>1088.8309999999999</ele>
        <time>2010-12-27T15:32:10Z</time>
      </trkpt>
      <trkpt lat="34.32060300372541" lon="-2.15919803828001">
        <ele>1088.8309999999999</ele>
        <time>2010-12-27T15:32:14Z</time>
      </trkpt>
      <trkpt lat="34.320063963532448" lon="-2.159483022987843">
        <ele>1088.3499999999999</ele>
        <time>2010-12-27T15:32:19Z</time>
      </trkpt>
      <trkpt lat="34.319513021036983" lon="-2.159582013264298">
        <ele>1084.9849999999999</ele>
        <time>2010-12-27T15:32:25Z</time>
      </trkpt>
      <trkpt lat="34.318940034136176" lon="-2.158507034182549">
        <ele>1081.1400000000001</ele>
        <time>2010-12-27T15:32:30Z</time>
      </trkpt>
      <trkpt lat="34.318308960646391" lon="-2.15831701643765">
        <ele>1078.7370000000001</ele>
        <time>2010-12-27T15:32:36Z</time>
      </trkpt>
      <trkpt lat="34.31819899007678" lon="-2.158334031701088">
        <ele>1078.2560000000001</ele>
        <time>2010-12-27T15:32:37Z</time>
      </trkpt>
      <trkpt lat="34.316558986902237" lon="-2.158723035827279">
        <ele>1063.836</ele>
        <time>2010-12-27T15:32:53Z</time>
      </trkpt>
      <trkpt lat="34.315643012523651" lon="-2.158794030547142">
        <ele>1060.471</ele>
        <time>2010-12-27T15:33:04Z</time>
      </trkpt>
      <trkpt lat="34.314104011282325" lon="-2.15881397947669">
        <ele>1047.9739999999999</ele>
        <time>2010-12-27T15:33:22Z</time>
      </trkpt>
      <trkpt lat="34.313769992440939" lon="-2.158824037760496">
        <ele>1044.1289999999999</ele>
        <time>2010-12-27T15:33:29Z</time>
      </trkpt>
      <trkpt lat="34.313648035749793" lon="-2.15883300639689">
        <ele>1038.8420000000001</ele>
        <time>2010-12-27T15:33:40Z</time>
      </trkpt>
      <trkpt lat="34.313552984967828" lon="-2.158755976706743">
        <ele>1034.9970000000001</ele>
        <time>2010-12-27T15:33:49Z</time>
      </trkpt>
      <trkpt lat="34.313472015783191" lon="-2.158897966146469">
        <ele>995.58299999999997</ele>
        <time>2010-12-27T15:36:02Z</time>
      </trkpt>
      <trkpt lat="34.313630014657974" lon="-2.158824959769845">
        <ele>1028.2670000000001</ele>
        <time>2010-12-27T15:36:21Z</time>
      </trkpt>
      <trkpt lat="34.313852973282337" lon="-2.158709960058332">
        <ele>1068.643</ele>
        <time>2010-12-27T15:36:39Z</time>
      </trkpt>
      <trkpt lat="34.3137720040977" lon="-2.158617004752159">
        <ele>1074.8910000000001</ele>
        <time>2010-12-27T15:36:50Z</time>
      </trkpt>
      <trkpt lat="34.313602019101381" lon="-2.158718006685376">
        <ele>1064.797</ele>
        <time>2010-12-27T15:43:45Z</time>
      </trkpt>
      <trkpt lat="34.313476039096713" lon="-2.15857501141727">
        <ele>1035.4770000000001</ele>
        <time>2010-12-27T15:45:05Z</time>
      </trkpt>
      <trkpt lat="34.313372019678354" lon="-2.158542992547154">
        <ele>1029.7090000000001</ele>
        <time>2010-12-27T15:46:26Z</time>
      </trkpt>
      <trkpt lat="34.313163980841637" lon="-2.158636031672359">
        <ele>1022.98</ele>
        <time>2010-12-27T15:52:57Z</time>
      </trkpt>
      <trkpt lat="34.312907997518778" lon="-2.158658998087049">
        <ele>1019.135</ele>
        <time>2010-12-27T15:53:07Z</time>
      </trkpt>
      <trkpt lat="34.312710016965866" lon="-2.158622033894062">
        <ele>1012.886</ele>
        <time>2010-12-27T15:53:57Z</time>
      </trkpt>
      <trkpt lat="34.312319001182914" lon="-2.158635025843978">
        <ele>1018.173</ele>
        <time>2010-12-27T15:54:09Z</time>
      </trkpt>
      <trkpt lat="34.31177300401032" lon="-2.15868498198688">
        <ele>1012.4059999999999</ele>
        <time>2010-12-27T15:54:21Z</time>
      </trkpt>
      <trkpt lat="34.311324991285801" lon="-2.159046996384859">
        <ele>1012.4059999999999</ele>
        <time>2010-12-27T15:54:29Z</time>
      </trkpt>
      <trkpt lat="34.310729037970304" lon="-2.160133961588144">
        <ele>1019.135</ele>
        <time>2010-12-27T15:54:42Z</time>
      </trkpt>
      <trkpt lat="34.31014196947217" lon="-2.161216987296939">
        <ele>1036.9190000000001</ele>
        <time>2010-12-27T15:54:57Z</time>
      </trkpt>
      <trkpt lat="34.309968966990709" lon="-2.161494009196758">
        <ele>1049.4159999999999</ele>
        <time>2010-12-27T15:55:02Z</time>
      </trkpt>
      <trkpt lat="34.309769980609417" lon="-2.161641027778387">
        <ele>1059.991</ele>
        <time>2010-12-27T15:55:07Z</time>
      </trkpt>
      <trkpt lat="34.3092389870435" lon="-2.161740018054843">
        <ele>1066.239</ele>
        <time>2010-12-27T15:55:20Z</time>
      </trkpt>
      <trkpt lat="34.309106972068548" lon="-2.161779999732971">
        <ele>1066.72</ele>
        <time>2010-12-27T15:55:23Z</time>
      </trkpt>
      <trkpt lat="34.308925000950694" lon="-2.161939004436135">
        <ele>1069.604</ele>
        <time>2010-12-27T15:55:28Z</time>
      </trkpt>
      <trkpt lat="34.308813018724322" lon="-2.162108989432454">
        <ele>1071.527</ele>
        <time>2010-12-27T15:55:32Z</time>
      </trkpt>
      <trkpt lat="34.308668011799455" lon="-2.162221977487207">
        <ele>1072.9690000000001</ele>
        <time>2010-12-27T15:55:39Z</time>
      </trkpt>
      <trkpt lat="34.308510012924671" lon="-2.162118963897228">
        <ele>1070.085</ele>
        <time>2010-12-27T15:55:49Z</time>
      </trkpt>
      <trkpt lat="34.308196026831865" lon="-2.161645973101258">
        <ele>1069.604</ele>
        <time>2010-12-27T15:56:02Z</time>
      </trkpt>
      <trkpt lat="34.307959992438555" lon="-2.161469031125307">
        <ele>1068.643</ele>
        <time>2010-12-27T15:56:12Z</time>
      </trkpt>
      <trkpt lat="34.307825965806842" lon="-2.161293011158705">
        <ele>1070.5650000000001</ele>
        <time>2010-12-27T15:56:25Z</time>
      </trkpt>
      <trkpt lat="34.307779027149081" lon="-2.16119896620512">
        <ele>1079.2170000000001</ele>
        <time>2010-12-27T15:57:38Z</time>
      </trkpt>
      <trkpt lat="34.307667966932058" lon="-2.16100400313735">
        <ele>1069.124</ele>
        <time>2010-12-27T16:16:37Z</time>
      </trkpt>
      <trkpt lat="34.30754098109901" lon="-2.16076604090631">
        <ele>1063.355</ele>
        <time>2010-12-27T16:16:49Z</time>
      </trkpt>
      <trkpt lat="34.307844992727041" lon="-2.160797975957394">
        <ele>1065.278</ele>
        <time>2010-12-27T16:17:10Z</time>
      </trkpt>
      <trkpt lat="34.308056971058249" lon="-2.160876011475921">
        <ele>1066.239</ele>
        <time>2010-12-27T16:17:21Z</time>
      </trkpt>
      <trkpt lat="34.308165013790131" lon="-2.160953041166067">
        <ele>1066.72</ele>
        <time>2010-12-27T16:17:30Z</time>
      </trkpt>
      <trkpt lat="34.307970972731709" lon="-2.161120008677244">
        <ele>1023.461</ele>
        <time>2010-12-27T16:23:28Z</time>
      </trkpt>
      <trkpt lat="34.307891009375453" lon="-2.161216987296939">
        <ele>1022.5</ele>
        <time>2010-12-27T16:23:36Z</time>
      </trkpt>
      <trkpt lat="34.307720018550754" lon="-2.161108022555709">
        <ele>1021.058</ele>
        <time>2010-12-27T16:23:42Z</time>
      </trkpt>
      <trkpt lat="34.307492030784488" lon="-2.160706026479602">
        <ele>1013.367</ele>
        <time>2010-12-27T16:23:54Z</time>
      </trkpt>
      <trkpt lat="34.307353980839252" lon="-2.160446019843221">
        <ele>1009.0410000000001</ele>
        <time>2010-12-27T16:24:04Z</time>
      </trkpt>
      <trkpt lat="34.30715398862958" lon="-2.160155000165105">
        <ele>1008.08</ele>
        <time>2010-12-27T16:24:13Z</time>
      </trkpt>
      <trkpt lat="34.306696001440287" lon="-2.159645967185497">
        <ele>1017.693</ele>
        <time>2010-12-27T16:24:25Z</time>
      </trkpt>
      <trkpt lat="34.306369023397565" lon="-2.159213041886687">
        <ele>1024.903</ele>
        <time>2010-12-27T16:24:34Z</time>
      </trkpt>
      <trkpt lat="34.306276990100741" lon="-2.159024029970169">
        <ele>1027.306</ele>
        <time>2010-12-27T16:24:42Z</time>
      </trkpt>
      <trkpt lat="34.306098958477378" lon="-2.158728986978531">
        <ele>1024.903</ele>
        <time>2010-12-27T16:24:49Z</time>
      </trkpt>
      <trkpt lat="34.305910030379891" lon="-2.158628990873694">
        <ele>1022.5</ele>
        <time>2010-12-27T16:24:53Z</time>
      </trkpt>
      <trkpt lat="34.305126992985606" lon="-2.158369990065694">
        <ele>1031.6320000000001</ele>
        <time>2010-12-27T16:25:05Z</time>
      </trkpt>
      <trkpt lat="34.304617960005999" lon="-2.158091962337494">
        <ele>1036.4390000000001</ele>
        <time>2010-12-27T16:25:12Z</time>
      </trkpt>
      <trkpt lat="34.304285030812025" lon="-2.15776196680963">
        <ele>1038.3610000000001</ele>
        <time>2010-12-27T16:25:16Z</time>
      </trkpt>
      <trkpt lat="34.303854033350945" lon="-2.157102981582284">
        <ele>1041.2449999999999</ele>
        <time>2010-12-27T16:25:24Z</time>
      </trkpt>
      <trkpt lat="34.303636020049453" lon="-2.156750019639731">
        <ele>1041.7260000000001</ele>
        <time>2010-12-27T16:25:32Z</time>
      </trkpt>
      <trkpt lat="34.303476009517908" lon="-2.156549021601677">
        <ele>1041.2449999999999</ele>
        <time>2010-12-27T16:25:39Z</time>
      </trkpt>
      <trkpt lat="34.302978040650487" lon="-2.156359003856778">
        <ele>1038.3610000000001</ele>
        <time>2010-12-27T16:25:47Z</time>
      </trkpt>
      <trkpt lat="34.301815973594785" lon="-2.156512979418039">
        <ele>1031.6320000000001</ele>
        <time>2010-12-27T16:25:59Z</time>
      </trkpt>
      <trkpt lat="34.300530022010207" lon="-2.156623033806682">
        <ele>1029.7090000000001</ele>
        <time>2010-12-27T16:26:11Z</time>
      </trkpt>
      <trkpt lat="34.299679007381201" lon="-2.156425975263119">
        <ele>1029.7090000000001</ele>
        <time>2010-12-27T16:26:18Z</time>
      </trkpt>
      <trkpt lat="34.298240002244711" lon="-2.155935969203711">
        <ele>1027.306</ele>
        <time>2010-12-27T16:26:28Z</time>
      </trkpt>
      <trkpt lat="34.296946004033089" lon="-2.155475970357657">
        <ele>1027.306</ele>
        <time>2010-12-27T16:26:37Z</time>
      </trkpt>
      <trkpt lat="34.296487011015415" lon="-2.155765984207392">
        <ele>1026.825</ele>
        <time>2010-12-27T16:26:41Z</time>
      </trkpt>
      <trkpt lat="34.294797973707318" lon="-2.156060021370649">
        <ele>1022.98</ele>
        <time>2010-12-27T16:26:51Z</time>
      </trkpt>
      <trkpt lat="34.294343004003167" lon="-2.156158005818725">
        <ele>1021.058</ele>
        <time>2010-12-27T16:26:56Z</time>
      </trkpt>
      <trkpt lat="34.293840005993843" lon="-2.156269988045096">
        <ele>1017.212</ele>
        <time>2010-12-27T16:27:05Z</time>
      </trkpt>
      <trkpt lat="34.293668009340763" lon="-2.156168986111879">
        <ele>1016.731</ele>
        <time>2010-12-27T16:27:12Z</time>
      </trkpt>
      <trkpt lat="34.293586034327745" lon="-2.155920965597034">
        <ele>1018.654</ele>
        <time>2010-12-27T16:27:21Z</time>
      </trkpt>
      <trkpt lat="34.293535994365811" lon="-2.155824992805719">
        <ele>1018.654</ele>
        <time>2010-12-27T16:28:20Z</time>
      </trkpt>
      <trkpt lat="34.29336098022759" lon="-2.155852988362312">
        <ele>1018.654</ele>
        <time>2010-12-27T16:28:28Z</time>
      </trkpt>
      <trkpt lat="34.29320901632309" lon="-2.156005958095193">
        <ele>1018.654</ele>
        <time>2010-12-27T16:28:36Z</time>
      </trkpt>
      <trkpt lat="34.29286602884531" lon="-2.156544998288155">
        <ele>1016.251</ele>
        <time>2010-12-27T16:28:46Z</time>
      </trkpt>
      <trkpt lat="34.292558999732137" lon="-2.156988987699151">
        <ele>1014.809</ele>
        <time>2010-12-27T16:28:55Z</time>
      </trkpt>
      <trkpt lat="34.292278960347176" lon="-2.157127959653735">
        <ele>1014.328</ele>
        <time>2010-12-27T16:29:01Z</time>
      </trkpt>
      <trkpt lat="34.291881993412971" lon="-2.157001979649067">
        <ele>1012.886</ele>
        <time>2010-12-27T16:29:08Z</time>
      </trkpt>
      <trkpt lat="34.291674960404634" lon="-2.156888991594315">
        <ele>1010.9640000000001</ele>
        <time>2010-12-27T16:29:16Z</time>
      </trkpt>
      <trkpt lat="34.291654005646706" lon="-2.156471991911531">
        <ele>1009.522</ele>
        <time>2010-12-27T16:29:26Z</time>
      </trkpt>
      <trkpt lat="34.291519979014993" lon="-2.156296977773309">
        <ele>1005.677</ele>
        <time>2010-12-27T16:29:32Z</time>
      </trkpt>
      <trkpt lat="34.29142601788044" lon="-2.156290020793676">
        <ele>1005.196</ele>
        <time>2010-12-27T16:29:39Z</time>
      </trkpt>
      <trkpt lat="34.291325015947223" lon="-2.156347017735243">
        <ele>1006.638</ele>
        <time>2010-12-27T16:29:45Z</time>
      </trkpt>
      <trkpt lat="34.291180009022355" lon="-2.156297983601689">
        <ele>1008.5599999999999</ele>
        <time>2010-12-27T16:29:58Z</time>
      </trkpt>
      <trkpt lat="34.291073977947235" lon="-2.156534017995">
        <ele>1009.522</ele>
        <time>2010-12-27T16:30:15Z</time>
      </trkpt>
      <trkpt lat="34.291129969060421" lon="-2.156840041279793">
        <ele>1008.08</ele>
        <time>2010-12-27T16:30:27Z</time>
      </trkpt>
      <trkpt lat="34.290966019034386" lon="-2.157100969925523">
        <ele>1008.5599999999999</ele>
        <time>2010-12-27T16:30:35Z</time>
      </trkpt>
      <trkpt lat="34.29078103043139" lon="-2.157258968800306">
        <ele>1008.5599999999999</ele>
        <time>2010-12-27T16:30:43Z</time>
      </trkpt>
      <trkpt lat="34.290607022121549" lon="-2.157277995720506">
        <ele>1009.0410000000001</ele>
        <time>2010-12-27T16:30:49Z</time>
      </trkpt>
      <trkpt lat="34.29059000685811" lon="-2.157020000740886">
        <ele>1009.522</ele>
        <time>2010-12-27T16:30:54Z</time>
      </trkpt>
      <trkpt lat="34.29063300602138" lon="-2.156873987987638">
        <ele>1009.522</ele>
        <time>2010-12-27T16:30:56Z</time>
      </trkpt>
      <trkpt lat="34.290691008791327" lon="-2.156116012483835">
        <ele>1012.4059999999999</ele>
        <time>2010-12-27T16:31:04Z</time>
      </trkpt>
      <trkpt lat="34.290722021833062" lon="-2.15554503723979">
        <ele>1013.367</ele>
        <time>2010-12-27T16:31:09Z</time>
      </trkpt>
      <trkpt lat="34.290593024343252" lon="-2.155026029795408">
        <ele>1018.173</ele>
        <time>2010-12-27T16:31:16Z</time>
      </trkpt>
      <trkpt lat="34.290481964126229" lon="-2.154932990670204">
        <ele>1020.577</ele>
        <time>2010-12-27T16:31:25Z</time>
      </trkpt>
      <trkpt lat="34.290280966088176" lon="-2.155208000913262">
        <ele>1023.461</ele>
        <time>2010-12-27T16:31:37Z</time>
      </trkpt>
      <trkpt lat="34.290098994970322" lon="-2.155472030863166">
        <ele>1024.422</ele>
        <time>2010-12-27T16:31:44Z</time>
      </trkpt>
      <trkpt lat="34.290023976936936" lon="-2.15567696839571">
        <ele>1025.864</ele>
        <time>2010-12-27T16:31:48Z</time>
      </trkpt>
      <trkpt lat="34.289877964183688" lon="-2.156230006366968">
        <ele>1030.1900000000001</ele>
        <time>2010-12-27T16:31:56Z</time>
      </trkpt>
      <trkpt lat="34.289743015542626" lon="-2.156537035480142">
        <ele>1032.1130000000001</ele>
        <time>2010-12-27T16:32:01Z</time>
      </trkpt>
      <trkpt lat="34.289692975580692" lon="-2.156697968021035">
        <ele>1033.0740000000001</ele>
        <time>2010-12-27T16:32:04Z</time>
      </trkpt>
      <trkpt lat="34.289574958384037" lon="-2.156886979937553">
        <ele>1034.5160000000001</ele>
        <time>2010-12-27T16:32:08Z</time>
      </trkpt>
      <trkpt lat="34.289336996152997" lon="-2.157067023217678">
        <ele>1036.4390000000001</ele>
        <time>2010-12-27T16:32:13Z</time>
      </trkpt>
      <trkpt lat="34.289169022813439" lon="-2.157363994047046">
        <ele>1038.3610000000001</ele>
        <time>2010-12-27T16:32:21Z</time>
      </trkpt>
      <trkpt lat="34.288923013955355" lon="-2.158104032278061">
        <ele>1041.7260000000001</ele>
        <time>2010-12-27T16:32:34Z</time>
      </trkpt>
      <trkpt lat="34.288868028670549" lon="-2.15821199119091">
        <ele>1042.2070000000001</ele>
        <time>2010-12-27T16:32:36Z</time>
      </trkpt>
      <trkpt lat="34.288551025092602" lon="-2.15879000723362">
        <ele>1046.0519999999999</ele>
        <time>2010-12-27T16:32:48Z</time>
      </trkpt>
      <trkpt lat="34.288453040644526" lon="-2.158910036087036">
        <ele>1047.0129999999999</ele>
        <time>2010-12-27T16:32:51Z</time>
      </trkpt>
      <trkpt lat="34.288361007347703" lon="-2.159121008589864">
        <ele>1047.9739999999999</ele>
        <time>2010-12-27T16:32:55Z</time>
      </trkpt>
      <trkpt lat="34.288220023736358" lon="-2.159745963290334">
        <ele>1049.8969999999999</ele>
        <time>2010-12-27T16:33:06Z</time>
      </trkpt>
      <trkpt lat="34.287916012108326" lon="-2.160120969638228">
        <ele>1052.7809999999999</ele>
        <time>2010-12-27T16:33:15Z</time>
      </trkpt>
      <trkpt lat="34.287719959393144" lon="-2.160550961270928">
        <ele>1055.665</ele>
        <time>2010-12-27T16:33:25Z</time>
      </trkpt>
      <trkpt lat="34.287609988823533" lon="-2.161212963983417">
        <ele>1062.394</ele>
        <time>2010-12-27T16:33:38Z</time>
      </trkpt>
      <trkpt lat="34.287605965510011" lon="-2.161744041368365">
        <ele>1064.317</ele>
        <time>2010-12-27T16:33:49Z</time>
      </trkpt>
      <trkpt lat="34.287512004375458" lon="-2.16197001747787">
        <ele>1066.72</ele>
        <time>2010-12-27T16:33:55Z</time>
      </trkpt>
      <trkpt lat="34.287234982475638" lon="-2.162155006080866">
        <ele>1069.604</ele>
        <time>2010-12-27T16:34:04Z</time>
      </trkpt>
      <trkpt lat="34.286686973646283" lon="-2.162342006340623">
        <ele>1075.3720000000001</ele>
        <time>2010-12-27T16:34:18Z</time>
      </trkpt>
      <trkpt lat="34.286371981725097" lon="-2.162437979131937">
        <ele>1078.2560000000001</ele>
        <time>2010-12-27T16:34:26Z</time>
      </trkpt>
      <trkpt lat="34.286186993122101" lon="-2.162410989403725">
        <ele>1080.1780000000001</ele>
        <time>2010-12-27T16:34:31Z</time>
      </trkpt>
      <trkpt lat="34.286112980917096" lon="-2.162189958617091">
        <ele>1081.6199999999999</ele>
        <time>2010-12-27T16:34:39Z</time>
      </trkpt>
      <trkpt lat="34.286301992833614" lon="-2.162036988884211">
        <ele>1081.1400000000001</ele>
        <time>2010-12-27T16:34:47Z</time>
      </trkpt>
      <trkpt lat="34.286919990554452" lon="-2.161758039146662">
        <ele>1082.1010000000001</ele>
        <time>2010-12-27T16:35:06Z</time>
      </trkpt>
      <trkpt lat="34.287041025236249" lon="-2.161603979766369">
        <ele>1082.1010000000001</ele>
        <time>2010-12-27T16:35:15Z</time>
      </trkpt>
      <trkpt lat="34.28710900247097" lon="-2.161402981728315">
        <ele>1084.0239999999999</ele>
        <time>2010-12-27T16:38:46Z</time>
      </trkpt>
      <trkpt lat="34.287103973329067" lon="-2.161096036434174">
        <ele>1082.1010000000001</ele>
        <time>2010-12-27T16:38:55Z</time>
      </trkpt>
      <trkpt lat="34.287146972492337" lon="-2.160410983487964">
        <ele>1080.6590000000001</ele>
        <time>2010-12-27T16:39:07Z</time>
      </trkpt>
      <trkpt lat="34.287359034642577" lon="-2.15969298966229">
        <ele>1080.6590000000001</ele>
        <time>2010-12-27T16:39:21Z</time>
      </trkpt>
      <trkpt lat="34.287700010463595" lon="-2.15889997780323">
        <ele>1078.7370000000001</ele>
        <time>2010-12-27T16:39:35Z</time>
      </trkpt>
      <trkpt lat="34.288004022091627" lon="-2.158166980370879">
        <ele>1074.4110000000001</ele>
        <time>2010-12-27T16:39:46Z</time>
      </trkpt>
      <trkpt lat="34.288331000134349" lon="-2.157670017331839">
        <ele>1071.046</ele>
        <time>2010-12-27T16:39:56Z</time>
      </trkpt>
      <trkpt lat="34.288465026766062" lon="-2.157243965193629">
        <ele>1069.124</ele>
        <time>2010-12-27T16:40:03Z</time>
      </trkpt>
      <trkpt lat="34.288483969867229" lon="-2.157127959653735">
        <ele>1068.162</ele>
        <time>2010-12-27T16:40:28Z</time>
      </trkpt>
      <trkpt lat="34.288530992344022" lon="-2.156956968829036">
        <ele>1067.201</ele>
        <time>2010-12-27T16:40:47Z</time>
      </trkpt>
      <trkpt lat="34.288620008155704" lon="-2.156613981351256">
        <ele>1064.797</ele>
        <time>2010-12-27T16:40:58Z</time>
      </trkpt>
      <trkpt lat="34.288629982620478" lon="-2.15647098608315">
        <ele>1064.317</ele>
        <time>2010-12-27T16:41:08Z</time>
      </trkpt>
      <trkpt lat="34.288583965972066" lon="-2.156363027170301">
        <ele>1062.875</ele>
        <time>2010-12-27T16:42:08Z</time>
      </trkpt>
      <trkpt lat="34.288380034267902" lon="-2.156256996095181">
        <ele>1057.107</ele>
        <time>2010-12-27T16:42:20Z</time>
      </trkpt>
      <trkpt lat="34.288149029016495" lon="-2.156114000827074">
        <ele>1051.3389999999999</ele>
        <time>2010-12-27T16:42:34Z</time>
      </trkpt>
      <trkpt lat="34.287902014330029" lon="-2.156122969463468">
        <ele>1047.0129999999999</ele>
        <time>2010-12-27T16:42:45Z</time>
      </trkpt>
      <trkpt lat="34.287622980773449" lon="-2.155988020822406">
        <ele>1044.1289999999999</ele>
        <time>2010-12-27T16:42:57Z</time>
      </trkpt>
      <trkpt lat="34.287478979676962" lon="-2.155625000596046">
        <ele>1043.6479999999999</ele>
        <time>2010-12-27T16:43:09Z</time>
      </trkpt>
      <trkpt lat="34.287892039865255" lon="-2.155562974512577">
        <ele>1047.9739999999999</ele>
        <time>2010-12-27T16:43:39Z</time>
      </trkpt>
      <trkpt lat="34.287964040413499" lon="-2.155473958700895">
        <ele>1049.8969999999999</ele>
        <time>2010-12-27T16:43:47Z</time>
      </trkpt>
      <trkpt lat="34.288012990728021" lon="-2.155348984524608">
        <ele>1050.8579999999999</ele>
        <time>2010-12-27T16:43:53Z</time>
      </trkpt>
      <trkpt lat="34.287883993238211" lon="-2.155243959277868">
        <ele>1049.8969999999999</ele>
        <time>2010-12-27T16:43:59Z</time>
      </trkpt>
      <trkpt lat="34.287625998258591" lon="-2.155128037557006">
        <ele>1046.5319999999999</ele>
        <time>2010-12-27T16:44:06Z</time>
      </trkpt>
      <trkpt lat="34.287352999672294" lon="-2.154896026477218">
        <ele>1044.1289999999999</ele>
        <time>2010-12-27T16:44:16Z</time>
      </trkpt>
      <trkpt lat="34.28708896972239" lon="-2.154424041509628">
        <ele>1037.4000000000001</ele>
        <time>2010-12-27T16:44:28Z</time>
      </trkpt>
      <trkpt lat="34.286988973617554" lon="-2.154098991304636">
        <ele>1034.5160000000001</ele>
        <time>2010-12-27T16:44:38Z</time>
      </trkpt>
      <trkpt lat="34.286934994161129" lon="-2.15380696579814">
        <ele>1033.0740000000001</ele>
        <time>2010-12-27T16:44:50Z</time>
      </trkpt>
      <trkpt lat="34.286933988332748" lon="-2.15350697748363">
        <ele>1030.1900000000001</ele>
        <time>2010-12-27T16:45:04Z</time>
      </trkpt>
      <trkpt lat="34.287140015512705" lon="-2.153198020532727">
        <ele>1030.671</ele>
        <time>2010-12-27T16:46:27Z</time>
      </trkpt>
      <trkpt lat="34.28723799996078" lon="-2.153144963085651">
        <ele>1031.1510000000001</ele>
        <time>2010-12-27T16:46:34Z</time>
      </trkpt>
      <trkpt lat="34.287374038249254" lon="-2.153071034699678">
        <ele>1030.671</ele>
        <time>2010-12-27T16:46:44Z</time>
      </trkpt>
      <trkpt lat="34.287693975493312" lon="-2.152916975319386">
        <ele>1029.7090000000001</ele>
        <time>2010-12-27T16:46:55Z</time>
      </trkpt>
      <trkpt lat="34.288007961586118" lon="-2.152826031669974">
        <ele>1028.748</ele>
        <time>2010-12-27T16:47:07Z</time>
      </trkpt>
      <trkpt lat="34.288222035393119" lon="-2.152789989486337">
        <ele>1027.306</ele>
        <time>2010-12-27T16:47:16Z</time>
      </trkpt>
      <trkpt lat="34.288562005385756" lon="-2.15279501862824">
        <ele>1025.383</ele>
        <time>2010-12-27T16:47:28Z</time>
      </trkpt>
      <trkpt lat="34.288792004808784" lon="-2.152744978666306">
        <ele>1024.422</ele>
        <time>2010-12-27T16:47:38Z</time>
      </trkpt>
      <trkpt lat="34.288444994017482" lon="-2.152843968942761">
        <ele>1025.383</ele>
        <time>2010-12-27T16:48:33Z</time>
      </trkpt>
      <trkpt lat="34.288193034008145" lon="-2.152976989746094">
        <ele>1027.787</ele>
        <time>2010-12-27T16:48:43Z</time>
      </trkpt>
      <trkpt lat="34.288071999326348" lon="-2.153443023562431">
        <ele>1034.5160000000001</ele>
        <time>2010-12-27T16:48:55Z</time>
      </trkpt>
      <trkpt lat="34.287984995171428" lon="-2.153941998258233">
        <ele>1041.2449999999999</ele>
        <time>2010-12-27T16:49:08Z</time>
      </trkpt>
      <trkpt lat="34.287898996844888" lon="-2.154255984351039">
        <ele>1045.5709999999999</ele>
        <time>2010-12-27T16:49:16Z</time>
      </trkpt>
      <trkpt lat="34.287979966029525" lon="-2.154473997652531">
        <ele>1047.4939999999999</ele>
        <time>2010-12-27T16:49:21Z</time>
      </trkpt>
      <trkpt lat="34.288031011819839" lon="-2.15466401539743">
        <ele>1049.4159999999999</ele>
        <time>2010-12-27T16:49:25Z</time>
      </trkpt>
      <trkpt lat="34.288194961845875" lon="-2.155065005645156">
        <ele>1054.223</ele>
        <time>2010-12-27T16:49:36Z</time>
      </trkpt>
      <trkpt lat="34.28848497569561" lon="-2.155183022841811">
        <ele>1061.433</ele>
        <time>2010-12-27T16:49:44Z</time>
      </trkpt>
      <trkpt lat="34.288624031469226" lon="-2.155200960114598">
        <ele>1067.201</ele>
        <time>2010-12-27T16:49:53Z</time>
      </trkpt>
      <trkpt lat="34.288731990382075" lon="-2.155296010896564">
        <ele>1070.5650000000001</ele>
        <time>2010-12-27T16:50:04Z</time>
      </trkpt>
      <trkpt lat="34.288807008415461" lon="-2.155532967299223">
        <ele>1071.527</ele>
        <time>2010-12-27T16:50:09Z</time>
      </trkpt>
      <trkpt lat="34.288815977051854" lon="-2.155915014445782">
        <ele>1072.4880000000001</ele>
        <time>2010-12-27T16:50:20Z</time>
      </trkpt>
      <trkpt lat="34.28876300342381" lon="-2.156211985275149">
        <ele>1070.5650000000001</ele>
        <time>2010-12-27T16:50:30Z</time>
      </trkpt>
      <trkpt lat="34.288582960143685" lon="-2.156756976619363">
        <ele>1068.643</ele>
        <time>2010-12-27T16:50:41Z</time>
      </trkpt>
      <trkpt lat="34.288440970703959" lon="-2.157357037067413">
        <ele>1071.046</ele>
        <time>2010-12-27T16:50:51Z</time>
      </trkpt>
      <trkpt lat="34.288350027054548" lon="-2.157671023160219">
        <ele>1072.9690000000001</ele>
        <time>2010-12-27T16:50:56Z</time>
      </trkpt>
      <trkpt lat="34.287939984351397" lon="-2.158344006165862">
        <ele>1077.2950000000001</ele>
        <time>2010-12-27T16:51:07Z</time>
      </trkpt>
      <trkpt lat="34.28758199326694" lon="-2.159229973331094">
        <ele>1081.1400000000001</ele>
        <time>2010-12-27T16:51:21Z</time>
      </trkpt>
      <trkpt lat="34.287287034094334" lon="-2.159940004348755">
        <ele>1081.6199999999999</ele>
        <time>2010-12-27T16:51:33Z</time>
      </trkpt>
      <trkpt lat="34.287099028006196" lon="-2.160801999270916">
        <ele>1080.6590000000001</ele>
        <time>2010-12-27T16:51:46Z</time>
      </trkpt>
      <trkpt lat="34.287096010521054" lon="-2.161477999761701">
        <ele>1082.5820000000001</ele>
        <time>2010-12-27T16:51:56Z</time>
      </trkpt>
      <trkpt lat="34.286922002211213" lon="-2.161771031096578">
        <ele>1083.0619999999999</ele>
        <time>2010-12-27T16:52:03Z</time>
      </trkpt>
      <trkpt lat="34.286157991737127" lon="-2.162177972495556">
        <ele>1080.1780000000001</ele>
        <time>2010-12-27T16:52:21Z</time>
      </trkpt>
      <trkpt lat="34.28616201505065" lon="-2.162359021604061">
        <ele>1080.1780000000001</ele>
        <time>2010-12-27T16:52:27Z</time>
      </trkpt>
      <trkpt lat="34.286362007260323" lon="-2.162419036030769">
        <ele>1078.7370000000001</ele>
        <time>2010-12-27T16:52:35Z</time>
      </trkpt>
      <trkpt lat="34.286758974194527" lon="-2.162290960550308">
        <ele>1076.3330000000001</ele>
        <time>2010-12-27T16:52:48Z</time>
      </trkpt>
      <trkpt lat="34.287202041596174" lon="-2.162135979160667">
        <ele>1071.527</ele>
        <time>2010-12-27T16:53:01Z</time>
      </trkpt>
      <trkpt lat="34.287529019638896" lon="-2.161916038021445">
        <ele>1067.201</ele>
        <time>2010-12-27T16:53:13Z</time>
      </trkpt>
      <trkpt lat="34.287631027400494" lon="-2.161560980603099">
        <ele>1065.278</ele>
        <time>2010-12-27T16:53:24Z</time>
      </trkpt>
      <trkpt lat="34.287617029622197" lon="-2.161128977313638">
        <ele>1062.875</ele>
        <time>2010-12-27T16:53:37Z</time>
      </trkpt>
      <trkpt lat="34.28768701851368" lon="-2.160731004551053">
        <ele>1061.433</ele>
        <time>2010-12-27T16:53:47Z</time>
      </trkpt>
      <trkpt lat="34.287849040701985" lon="-2.160200010985136">
        <ele>1058.068</ele>
        <time>2010-12-27T16:54:01Z</time>
      </trkpt>
      <trkpt lat="34.288091026246548" lon="-2.15988602489233">
        <ele>1055.184</ele>
        <time>2010-12-27T16:54:09Z</time>
      </trkpt>
      <trkpt lat="34.288223041221499" lon="-2.159728026017547">
        <ele>1054.223</ele>
        <time>2010-12-27T16:54:13Z</time>
      </trkpt>
      <trkpt lat="34.288361007347703" lon="-2.15919996611774">
        <ele>1050.3779999999999</ele>
        <time>2010-12-27T16:54:24Z</time>
      </trkpt>
      <trkpt lat="34.288410963490605" lon="-2.158922022208571">
        <ele>1048.9359999999999</ele>
        <time>2010-12-27T16:54:30Z</time>
      </trkpt>
      <trkpt lat="34.288549013435841" lon="-2.15872697532177">
        <ele>1047.4939999999999</ele>
        <time>2010-12-27T16:54:35Z</time>
      </trkpt>
      <trkpt lat="34.2887859698385" lon="-2.158278962597251">
        <ele>1045.0899999999999</ele>
        <time>2010-12-27T16:54:46Z</time>
      </trkpt>
      <trkpt lat="34.289023010060191" lon="-2.157698012888432">
        <ele>1039.8030000000001</ele>
        <time>2010-12-27T16:54:59Z</time>
      </trkpt>
      <trkpt lat="34.289198024198413" lon="-2.157215969637036">
        <ele>1037.8810000000001</ele>
        <time>2010-12-27T16:55:09Z</time>
      </trkpt>
      <trkpt lat="34.289271030575037" lon="-2.157052019611001">
        <ele>1037.4000000000001</ele>
        <time>2010-12-27T16:55:13Z</time>
      </trkpt>
      <trkpt lat="34.289617035537958" lon="-2.156779021024704">
        <ele>1034.5160000000001</ele>
        <time>2010-12-27T16:55:23Z</time>
      </trkpt>
      <trkpt lat="34.289721976965666" lon="-2.156519014388323">
        <ele>1033.0740000000001</ele>
        <time>2010-12-27T16:55:31Z</time>
      </trkpt>
      <trkpt lat="34.289895985275507" lon="-2.156092962250114">
        <ele>1029.7090000000001</ele>
        <time>2010-12-27T16:55:43Z</time>
      </trkpt>
      <trkpt lat="34.290015008300543" lon="-2.15563396923244">
        <ele>1024.903</ele>
        <time>2010-12-27T16:55:55Z</time>
      </trkpt>
      <trkpt lat="34.290223969146609" lon="-2.155229039490223">
        <ele>1021.538</ele>
        <time>2010-12-27T16:56:05Z</time>
      </trkpt>
      <trkpt lat="34.290313990786672" lon="-2.155110016465187">
        <ele>1020.577</ele>
        <time>2010-12-27T16:56:08Z</time>
      </trkpt>
      <trkpt lat="34.290480958297849" lon="-2.154895020648837">
        <ele>1018.173</ele>
        <time>2010-12-27T16:56:15Z</time>
      </trkpt>
      <trkpt lat="34.290562011301517" lon="-2.154952017590404">
        <ele>1016.251</ele>
        <time>2010-12-27T16:56:19Z</time>
      </trkpt>
      <trkpt lat="34.290701989084482" lon="-2.155390977859497">
        <ele>1010.9640000000001</ele>
        <time>2010-12-27T16:56:29Z</time>
      </trkpt>
      <trkpt lat="34.290681034326553" lon="-2.156051974743605">
        <ele>1006.638</ele>
        <time>2010-12-27T16:56:41Z</time>
      </trkpt>
      <trkpt lat="34.290728978812695" lon="-2.156271999701858">
        <ele>1005.196</ele>
        <time>2010-12-27T16:56:47Z</time>
      </trkpt>
      <trkpt lat="34.290844984352589" lon="-2.156253978610039">
        <ele>1006.638</ele>
        <time>2010-12-27T16:56:53Z</time>
      </trkpt>
      <trkpt lat="34.291130974888802" lon="-2.156261019408703">
        <ele>1004.715</ele>
        <time>2010-12-27T16:57:04Z</time>
      </trkpt>
      <trkpt lat="34.291381007060409" lon="-2.156295971944928">
        <ele>1005.196</ele>
        <time>2010-12-27T16:57:11Z</time>
      </trkpt>
      <trkpt lat="34.291668003425002" lon="-2.156443996354938">
        <ele>1009.0410000000001</ele>
        <time>2010-12-27T16:57:19Z</time>
      </trkpt>
      <trkpt lat="34.291679989546537" lon="-2.156751025468111">
        <ele>1011.444</ele>
        <time>2010-12-27T16:57:24Z</time>
      </trkpt>
      <trkpt lat="34.291832037270069" lon="-2.1569640096277">
        <ele>1011.925</ele>
        <time>2010-12-27T16:57:30Z</time>
      </trkpt>
      <trkpt lat="34.292260017246008" lon="-2.157076997682452">
        <ele>1013.367</ele>
        <time>2010-12-27T16:57:42Z</time>
      </trkpt>
      <trkpt lat="34.292518012225628" lon="-2.15707398019731">
        <ele>1013.847</ele>
        <time>2010-12-27T16:57:54Z</time>
      </trkpt>
      <trkpt lat="34.292646003887057" lon="-2.157004997134209">
        <ele>1015.29</ele>
        <time>2010-12-27T16:58:30Z</time>
      </trkpt>
      <trkpt lat="34.292792016640306" lon="-2.156800981611013">
        <ele>1015.29</ele>
        <time>2010-12-27T16:58:43Z</time>
      </trkpt>
      <trkpt lat="34.292891006916761" lon="-2.156693022698164">
        <ele>1016.251</ele>
        <time>2010-12-27T16:59:05Z</time>
      </trkpt>
      <trkpt lat="34.293270036578178" lon="-2.156438967213035">
        <ele>1016.251</ele>
        <time>2010-12-27T16:59:12Z</time>
      </trkpt>
      <trkpt lat="34.293992975726724" lon="-2.156225983053446">
        <ele>1017.693</ele>
        <time>2010-12-27T16:59:19Z</time>
      </trkpt>
      <trkpt lat="34.295391999185085" lon="-2.155884001404047">
        <ele>1022.019</ele>
        <time>2010-12-27T16:59:30Z</time>
      </trkpt>
      <trkpt lat="34.296972993761301" lon="-2.15545903891325">
        <ele>1025.864</ele>
        <time>2010-12-27T16:59:42Z</time>
      </trkpt>
      <trkpt lat="34.297819985076785" lon="-2.155705969780684">
        <ele>1024.422</ele>
        <time>2010-12-27T16:59:48Z</time>
      </trkpt>
      <trkpt lat="34.299294026568532" lon="-2.156220031902194">
        <ele>1027.787</ele>
        <time>2010-12-27T16:59:58Z</time>
      </trkpt>
      <trkpt lat="34.300463972613215" lon="-2.156557990238071">
        <ele>1031.1510000000001</ele>
        <time>2010-12-27T17:00:07Z</time>
      </trkpt>
      <trkpt lat="34.301474997773767" lon="-2.156523037701845">
        <ele>1032.5930000000001</ele>
        <time>2010-12-27T17:00:15Z</time>
      </trkpt>
      <trkpt lat="34.302751980721951" lon="-2.156363027170301">
        <ele>1037.4000000000001</ele>
        <time>2010-12-27T17:00:26Z</time>
      </trkpt>
      <trkpt lat="34.303047023713589" lon="-2.156335031613708">
        <ele>1038.3610000000001</ele>
        <time>2010-12-27T17:00:29Z</time>
      </trkpt>
      <trkpt lat="34.303639959543943" lon="-2.156611969694495">
        <ele>1040.7639999999999</ele>
        <time>2010-12-27T17:00:36Z</time>
      </trkpt>
      <trkpt lat="34.303707014769316" lon="-2.156702997162938">
        <ele>1041.2449999999999</ele>
        <time>2010-12-27T17:00:37Z</time>
      </trkpt>
      <trkpt lat="34.304462978616357" lon="-2.157884007319808">
        <ele>1043.1679999999999</ele>
        <time>2010-12-27T17:00:49Z</time>
      </trkpt>
      <trkpt lat="34.304580995813012" lon="-2.158027002587915">
        <ele>1043.1679999999999</ele>
        <time>2010-12-27T17:00:51Z</time>
      </trkpt>
      <trkpt lat="34.30496203713119" lon="-2.158162035048008">
        <ele>1043.1679999999999</ele>
        <time>2010-12-27T17:00:58Z</time>
      </trkpt>
      <trkpt lat="34.305045017972589" lon="-2.157962964847684">
        <ele>1042.2070000000001</ele>
        <time>2010-12-27T17:01:01Z</time>
      </trkpt>
      <trkpt lat="34.305191030725837" lon="-2.157016983255744">
        <ele>1045.5709999999999</ele>
        <time>2010-12-27T17:01:09Z</time>
      </trkpt>
      <trkpt lat="34.305267976596951" lon="-2.155943010002375">
        <ele>1048.9359999999999</ele>
        <time>2010-12-27T17:01:18Z</time>
      </trkpt>
      <trkpt lat="34.305505016818643" lon="-2.155058970674872">
        <ele>1050.3779999999999</ele>
        <time>2010-12-27T17:01:26Z</time>
      </trkpt>
      <trkpt lat="34.3056920170784" lon="-2.154626967385411">
        <ele>1050.8579999999999</ele>
        <time>2010-12-27T17:01:31Z</time>
      </trkpt>
      <trkpt lat="34.306043973192573" lon="-2.154357992112637">
        <ele>1051.3389999999999</ele>
        <time>2010-12-27T17:01:37Z</time>
      </trkpt>
      <trkpt lat="34.306198032572865" lon="-2.154376013204455">
        <ele>1051.3389999999999</ele>
        <time>2010-12-27T17:01:39Z</time>
      </trkpt>
      <trkpt lat="34.306672029197216" lon="-2.154307030141354">
        <ele>1051.8199999999999</ele>
        <time>2010-12-27T17:01:46Z</time>
      </trkpt>
      <trkpt lat="34.306804966181517" lon="-2.153488034382463">
        <ele>1052.7809999999999</ele>
        <time>2010-12-27T17:01:57Z</time>
      </trkpt>
      <trkpt lat="34.306902028620243" lon="-2.152894008904696">
        <ele>1053.2619999999999</ele>
        <time>2010-12-27T17:02:04Z</time>
      </trkpt>
      <trkpt lat="34.307062961161137" lon="-2.151907039806247">
        <ele>1051.8199999999999</ele>
        <time>2010-12-27T17:02:16Z</time>
      </trkpt>
      <trkpt lat="34.306527022272348" lon="-2.150939013808966">
        <ele>1049.8969999999999</ele>
        <time>2010-12-27T17:02:25Z</time>
      </trkpt>
      <trkpt lat="34.306547977030277" lon="-2.150011975318193">
        <ele>1048.9359999999999</ele>
        <time>2010-12-27T17:02:35Z</time>
      </trkpt>
      <trkpt lat="34.30661796592176" lon="-2.149175964295864">
        <ele>1047.4939999999999</ele>
        <time>2010-12-27T17:02:44Z</time>
      </trkpt>
      <trkpt lat="34.306706981733441" lon="-2.147981962189078">
        <ele>1048.9359999999999</ele>
        <time>2010-12-27T17:02:55Z</time>
      </trkpt>
      <trkpt lat="34.306828016415238" lon="-2.146594002842903">
        <ele>1053.2619999999999</ele>
        <time>2010-12-27T17:03:07Z</time>
      </trkpt>
      <trkpt lat="34.306823993101716" lon="-2.145661013200879">
        <ele>1056.146</ele>
        <time>2010-12-27T17:03:17Z</time>
      </trkpt>
      <trkpt lat="34.306837990880013" lon="-2.145496979355812">
        <ele>1056.626</ele>
        <time>2010-12-27T17:03:19Z</time>
      </trkpt>
      <trkpt lat="34.306803038343787" lon="-2.144649988040328">
        <ele>1057.107</ele>
        <time>2010-12-27T17:03:28Z</time>
      </trkpt>
      <trkpt lat="34.306728020310402" lon="-2.144089993089438">
        <ele>1057.107</ele>
        <time>2010-12-27T17:03:35Z</time>
      </trkpt>
      <trkpt lat="34.306714022532105" lon="-2.143523963168263">
        <ele>1057.107</ele>
        <time>2010-12-27T17:03:41Z</time>
      </trkpt>
      <trkpt lat="34.30678702890873" lon="-2.143125990405679">
        <ele>1059.03</ele>
        <time>2010-12-27T17:03:45Z</time>
      </trkpt>
      <trkpt lat="34.30685299448669" lon="-2.142748972401023">
        <ele>1060.952</ele>
        <time>2010-12-27T17:03:49Z</time>
      </trkpt>
      <trkpt lat="34.306861041113734" lon="-2.142487959936261">
        <ele>1061.433</ele>
        <time>2010-12-27T17:03:52Z</time>
      </trkpt>
      <trkpt lat="34.306979980319738" lon="-2.141561005264521">
        <ele>1064.317</ele>
        <time>2010-12-27T17:04:02Z</time>
      </trkpt>
      <trkpt lat="34.307015016674995" lon="-2.140994975343347">
        <ele>1066.239</ele>
        <time>2010-12-27T17:04:08Z</time>
      </trkpt>
      <trkpt lat="34.306980986148119" lon="-2.140031978487968">
        <ele>1068.643</ele>
        <time>2010-12-27T17:04:18Z</time>
      </trkpt>
      <trkpt lat="34.307113001123071" lon="-2.13921801187098">
        <ele>1069.604</ele>
        <time>2010-12-27T17:04:27Z</time>
      </trkpt>
      <trkpt lat="34.307248033583164" lon="-2.138719037175179">
        <ele>1071.527</ele>
        <time>2010-12-27T17:04:33Z</time>
      </trkpt>
      <trkpt lat="34.307591021060944" lon="-2.138096010312438">
        <ele>1072.9690000000001</ele>
        <time>2010-12-27T17:04:43Z</time>
      </trkpt>
      <trkpt lat="34.307683976367116" lon="-2.137928958982229">
        <ele>1073.4490000000001</ele>
        <time>2010-12-27T17:04:47Z</time>
      </trkpt>
      <trkpt lat="34.307637037709355" lon="-2.137699965387583">
        <ele>1072.4880000000001</ele>
        <time>2010-12-27T17:04:54Z</time>
      </trkpt>
      <trkpt lat="34.307535029947758" lon="-2.137688985094428">
        <ele>1072.0070000000001</ele>
        <time>2010-12-27T17:04:57Z</time>
      </trkpt>
      <trkpt lat="34.307077964767814" lon="-2.13780197314918">
        <ele>1072.4880000000001</ele>
        <time>2010-12-27T17:05:09Z</time>
      </trkpt>
      <trkpt lat="34.306748975068331" lon="-2.138054016977549">
        <ele>1073.4490000000001</ele>
        <time>2010-12-27T17:05:17Z</time>
      </trkpt>
      <trkpt lat="34.306653002277017" lon="-2.138093998655677">
        <ele>1073.9300000000001</ele>
        <time>2010-12-27T17:05:19Z</time>
      </trkpt>
      <trkpt lat="34.306432977318764" lon="-2.138086035847664">
        <ele>1074.8910000000001</ele>
        <time>2010-12-27T17:05:23Z</time>
      </trkpt>
      <trkpt lat="34.306150004267693" lon="-2.13797103613615">
        <ele>1074.8910000000001</ele>
        <time>2010-12-27T17:05:28Z</time>
      </trkpt>
      <trkpt lat="34.30552002042532" lon="-2.137932982295752">
        <ele>1077.2950000000001</ele>
        <time>2010-12-27T17:05:37Z</time>
      </trkpt>
      <trkpt lat="34.30481200106442" lon="-2.138105984777212">
        <ele>1078.2560000000001</ele>
        <time>2010-12-27T17:05:46Z</time>
      </trkpt>
      <trkpt lat="34.304085960611701" lon="-2.138420976698399">
        <ele>1075.8530000000001</ele>
        <time>2010-12-27T17:05:57Z</time>
      </trkpt>
      <trkpt lat="34.303335025906563" lon="-2.138743009418249">
        <ele>1073.4490000000001</ele>
        <time>2010-12-27T17:06:07Z</time>
      </trkpt>
      <trkpt lat="34.302891958504915" lon="-2.139064958319068">
        <ele>1072.4880000000001</ele>
        <time>2010-12-27T17:06:15Z</time>
      </trkpt>
      <trkpt lat="34.302375968545675" lon="-2.139422027394176">
        <ele>1070.085</ele>
        <time>2010-12-27T17:06:25Z</time>
      </trkpt>
      <trkpt lat="34.302116967737675" lon="-2.139731990173459">
        <ele>1065.759</ele>
        <time>2010-12-27T17:06:35Z</time>
      </trkpt>
      <trkpt lat="34.301710026338696" lon="-2.14009802788496">
        <ele>1060.952</ele>
        <time>2010-12-27T17:06:51Z</time>
      </trkpt>
      <trkpt lat="34.301396962255239" lon="-2.140348982065916">
        <ele>1067.201</ele>
        <time>2010-12-27T17:07:05Z</time>
      </trkpt>
      <trkpt lat="34.301448008045554" lon="-2.140460964292288">
        <ele>1070.085</ele>
        <time>2010-12-27T17:07:26Z</time>
      </trkpt>
      <trkpt lat="34.301695022732019" lon="-2.140168016776443">
        <ele>1070.5650000000001</ele>
        <time>2010-12-27T17:07:41Z</time>
      </trkpt>
      <trkpt lat="34.302172036841512" lon="-2.139679016545415">
        <ele>1071.046</ele>
        <time>2010-12-27T17:07:55Z</time>
      </trkpt>
      <trkpt lat="34.302455009892583" lon="-2.139362012967467">
        <ele>1072.4880000000001</ele>
        <time>2010-12-27T17:08:02Z</time>
      </trkpt>
      <trkpt lat="34.303065966814756" lon="-2.138937972486019">
        <ele>1074.8910000000001</ele>
        <time>2010-12-27T17:08:12Z</time>
      </trkpt>
      <trkpt lat="34.303189013153315" lon="-2.138833031058312">
        <ele>1075.3720000000001</ele>
        <time>2010-12-27T17:08:14Z</time>
      </trkpt>
      <trkpt lat="34.304106999188662" lon="-2.138415025547147">
        <ele>1078.2560000000001</ele>
        <time>2010-12-27T17:08:26Z</time>
      </trkpt>
      <trkpt lat="34.305160017684102" lon="-2.137968018651009">
        <ele>1080.1780000000001</ele>
        <time>2010-12-27T17:08:39Z</time>
      </trkpt>
      <trkpt lat="34.305646000429988" lon="-2.13788797147572">
        <ele>1078.2560000000001</ele>
        <time>2010-12-27T17:08:46Z</time>
      </trkpt>
      <trkpt lat="34.30608001537621" lon="-2.137900041416287">
        <ele>1075.8530000000001</ele>
        <time>2010-12-27T17:08:54Z</time>
      </trkpt>
      <trkpt lat="34.306524004787207" lon="-2.138070026412606">
        <ele>1073.9300000000001</ele>
        <time>2010-12-27T17:09:04Z</time>
      </trkpt>
      <trkpt lat="34.30676699616015" lon="-2.138045970350504">
        <ele>1072.4880000000001</ele>
        <time>2010-12-27T17:09:10Z</time>
      </trkpt>
      <trkpt lat="34.307104032486677" lon="-2.137817982584238">
        <ele>1072.4880000000001</ele>
        <time>2010-12-27T17:09:20Z</time>
      </trkpt>
      <trkpt lat="34.307292038574815" lon="-2.137685967609286">
        <ele>1072.0070000000001</ele>
        <time>2010-12-27T17:09:31Z</time>
      </trkpt>
      <trkpt lat="34.307660004124045" lon="-2.137704994529486">
        <ele>1072.0070000000001</ele>
        <time>2010-12-27T17:09:43Z</time>
      </trkpt>
      <trkpt lat="34.307735022157431" lon="-2.137890988960862">
        <ele>1072.4880000000001</ele>
        <time>2010-12-27T17:09:50Z</time>
      </trkpt>
      <trkpt lat="34.307465963065624" lon="-2.138393986970186">
        <ele>1072.0070000000001</ele>
        <time>2010-12-27T17:10:01Z</time>
      </trkpt>
      <trkpt lat="34.307163963094354" lon="-2.139038974419236">
        <ele>1069.604</ele>
        <time>2010-12-27T17:10:15Z</time>
      </trkpt>
      <trkpt lat="34.307014010846615" lon="-2.139426972717047">
        <ele>1067.201</ele>
        <time>2010-12-27T17:10:25Z</time>
      </trkpt>
      <trkpt lat="34.30678702890873" lon="-2.139524035155773">
        <ele>1068.162</ele>
        <time>2010-12-27T17:10:35Z</time>
      </trkpt>
      <trkpt lat="34.306616960093379" lon="-2.139612967148423">
        <ele>1070.085</ele>
        <time>2010-12-27T17:10:53Z</time>
      </trkpt>
      <trkpt lat="34.306585025042295" lon="-2.139464020729065">
        <ele>1070.085</ele>
        <time>2010-12-27T17:11:20Z</time>
      </trkpt>
      <trkpt lat="34.306702958419919" lon="-2.139357989653945">
        <ele>1069.604</ele>
        <time>2010-12-27T17:11:31Z</time>
      </trkpt>
      <trkpt lat="34.306780993938446" lon="-2.139164032414556">
        <ele>1069.604</ele>
        <time>2010-12-27T17:11:40Z</time>
      </trkpt>
      <trkpt lat="34.306562980636954" lon="-2.139205019921064">
        <ele>1059.51</ele>
        <time>2010-12-27T18:16:23Z</time>
      </trkpt>
      <trkpt lat="34.306530961766839" lon="-2.139188004657626">
        <ele>1057.107</ele>
        <time>2010-12-27T18:21:11Z</time>
      </trkpt>
    </trkseg>
  </trk>

  <trk>
    <name>101228</name>
    <extensions>
      <gpxx:TrackExtension xmlns:gpxx="http://www.garmin.com/xmlschemas/GpxExtensions/v3">
        <gpxx:DisplayColor>Blue</gpxx:DisplayColor>
      </gpxx:TrackExtension>
    </extensions>
    <trkseg>
      <trkpt lat="34.307136973366141" lon="-2.13953903876245">
        <ele>1071.9000000000001</ele>
        <time>2010-12-28T09:35:42Z</time>
      </trkpt>
      <trkpt lat="34.306462984532118" lon="-2.138075977563858">
        <ele>1074.5</ele>
        <time>2010-12-28T09:49:35Z</time>
      </trkpt>
      <trkpt lat="34.30229801684618" lon="-2.139585977420211">
        <ele>1074.5999999999999</ele>
        <time>2010-12-28T09:50:35Z</time>
      </trkpt>
      <trkpt lat="34.290518006309867" lon="-2.140631033107638">
        <ele>1039.5999999999999</ele>
        <time>2010-12-28T09:52:35Z</time>
      </trkpt>
      <trkpt lat="34.265470029786229" lon="-2.137727960944176">
        <ele>980.5</ele>
        <time>2010-12-28T09:55:36Z</time>
      </trkpt>
      <trkpt lat="34.246102971956134" lon="-2.143916990607977">
        <ele>945</ele>
        <time>2010-12-28T09:57:36Z</time>
      </trkpt>
      <trkpt lat="34.244775027036667" lon="-2.145053995773196">
        <ele>943.89999999999998</ele>
        <time>2010-12-28T09:58:35Z</time>
      </trkpt>
      <trkpt lat="34.245794015005231" lon="-2.14398899115622">
        <ele>944.60000000000002</ele>
        <time>2010-12-28T10:00:36Z</time>
      </trkpt>
      <trkpt lat="34.222693992778659" lon="-2.143673999235034">
        <ele>924.29999999999995</ele>
        <time>2010-12-28T10:03:35Z</time>
      </trkpt>
      <trkpt lat="34.202562002465129" lon="-2.14370802976191">
        <ele>902.20000000000005</ele>
        <time>2010-12-28T10:04:29Z</time>
      </trkpt>
      <trkpt lat="34.202941032126546" lon="-2.143506025895476">
        <ele>904.60000000000002</ele>
        <time>2010-12-28T10:06:35Z</time>
      </trkpt>
      <trkpt lat="34.202699968591332" lon="-2.143704006448388">
        <ele>903</ele>
        <time>2010-12-28T10:08:36Z</time>
      </trkpt>
      <trkpt lat="34.201301028952003" lon="-2.143324976786971">
        <ele>896.89999999999998</ele>
        <time>2010-12-28T10:09:36Z</time>
      </trkpt>
      <trkpt lat="34.198875976726413" lon="-2.143660001456738">
        <ele>889.79999999999995</ele>
        <time>2010-12-28T10:11:35Z</time>
      </trkpt>
      <trkpt lat="34.191351961344481" lon="-2.142171962186694">
        <ele>898.10000000000002</ele>
        <time>2010-12-28T10:13:36Z</time>
      </trkpt>
      <trkpt lat="34.189771972596645" lon="-2.141926037147641">
        <ele>900.29999999999995</ele>
        <time>2010-12-28T10:31:59Z</time>
      </trkpt>
      <trkpt lat="34.189998032525182" lon="-2.141982028260827">
        <ele>901.39999999999998</ele>
        <time>2010-12-28T10:35:36Z</time>
      </trkpt>
      <trkpt lat="34.189738025888801" lon="-2.141909021884203">
        <ele>900.29999999999995</ele>
        <time>2010-12-28T10:36:35Z</time>
      </trkpt>
      <trkpt lat="34.185472978278995" lon="-2.14117300696671">
        <ele>899.70000000000005</ele>
        <time>2010-12-28T10:37:36Z</time>
      </trkpt>
      <trkpt lat="34.163406025618315" lon="-2.138462970033288">
        <ele>891.70000000000005</ele>
        <time>2010-12-28T10:41:35Z</time>
      </trkpt>
      <trkpt lat="34.158789021894336" lon="-2.137842960655689">
        <ele>881.39999999999998</ele>
        <time>2010-12-28T10:42:35Z</time>
      </trkpt>
      <trkpt lat="34.135331008583307" lon="-2.134638978168368">
        <ele>893.20000000000005</ele>
        <time>2010-12-28T10:46:36Z</time>
      </trkpt>
      <trkpt lat="34.129812028259039" lon="-2.134945001453161">
        <ele>865.60000000000002</ele>
        <time>2010-12-28T10:48:36Z</time>
      </trkpt>
      <trkpt lat="34.127544974908233" lon="-2.139442982152104">
        <ele>882.60000000000002</ele>
        <time>2010-12-28T10:48:36Z</time>
      </trkpt>
      <trkpt lat="34.127444978803396" lon="-2.139481035992503">
        <ele>882.70000000000005</ele>
        <time>2010-12-28T10:48:38Z</time>
      </trkpt>
      <trkpt lat="34.12734598852694" lon="-2.139530992135406">
        <ele>882.60000000000002</ele>
        <time>2010-12-28T10:48:38Z</time>
      </trkpt>
      <trkpt lat="34.127243980765343" lon="-2.139593018218875">
        <ele>882.70000000000005</ele>
        <time>2010-12-28T10:48:40Z</time>
      </trkpt>
      <trkpt lat="34.127138033509254" lon="-2.139657977968454">
        <ele>882.79999999999995</ele>
        <time>2010-12-28T10:48:40Z</time>
      </trkpt>
      <trkpt lat="34.127027979120612" lon="-2.139721009880304">
        <ele>882.89999999999998</ele>
        <time>2010-12-28T10:48:42Z</time>
      </trkpt>
      <trkpt lat="34.126917002722621" lon="-2.139787981286645">
        <ele>882.89999999999998</ele>
        <time>2010-12-28T10:48:42Z</time>
      </trkpt>
      <trkpt lat="34.12680703215301" lon="-2.139854030683637">
        <ele>883.10000000000002</ele>
        <time>2010-12-28T10:48:44Z</time>
      </trkpt>
      <trkpt lat="34.126694966107607" lon="-2.139914967119694">
        <ele>883.29999999999995</ele>
        <time>2010-12-28T10:48:45Z</time>
      </trkpt>
      <trkpt lat="34.126578960567713" lon="-2.139972969889641">
        <ele>883.5</ele>
        <time>2010-12-28T10:48:45Z</time>
      </trkpt>
      <trkpt lat="34.129585968330503" lon="-2.140026027336717">
        <ele>877.39999999999998</ele>
        <time>2010-12-28T10:52:35Z</time>
      </trkpt>
      <trkpt lat="34.124908028170466" lon="-2.140790959820151">
        <ele>886.39999999999998</ele>
        <time>2010-12-28T10:53:35Z</time>
      </trkpt>
      <trkpt lat="34.117132974788547" lon="-2.14448201470077">
        <ele>894.10000000000002</ele>
        <time>2010-12-28T10:53:37Z</time>
      </trkpt>
      <trkpt lat="34.118840033188462" lon="-2.143929982557893">
        <ele>891.79999999999995</ele>
        <time>2010-12-28T10:57:35Z</time>
      </trkpt>
      <trkpt lat="34.117134986445308" lon="-2.144494000822306">
        <ele>895.29999999999995</ele>
        <time>2010-12-28T10:58:35Z</time>
      </trkpt>
      <trkpt lat="34.11408900283277" lon="-2.14495500549674">
        <ele>896.60000000000002</ele>
        <time>2010-12-28T11:00:35Z</time>
      </trkpt>
      <trkpt lat="34.100741995498538" lon="-2.141347015276551">
        <ele>909.70000000000005</ele>
        <time>2010-12-28T11:03:36Z</time>
      </trkpt>
      <trkpt lat="34.082323014736176" lon="-2.163584036752582">
        <ele>942.20000000000005</ele>
        <time>2010-12-28T11:03:37Z</time>
      </trkpt>
      <trkpt lat="34.082169961184263" lon="-2.163738012313843">
        <ele>942.29999999999995</ele>
        <time>2010-12-28T11:03:39Z</time>
      </trkpt>
      <trkpt lat="34.081856980919838" lon="-2.164006987586618">
        <ele>942.89999999999998</ele>
        <time>2010-12-28T11:03:42Z</time>
      </trkpt>
      <trkpt lat="34.081771988421679" lon="-2.164064990356565">
        <ele>943.20000000000005</ele>
        <time>2010-12-28T11:03:44Z</time>
      </trkpt>
      <trkpt lat="34.081610972061753" lon="-2.164157023653388">
        <ele>943.5</ele>
        <time>2010-12-28T11:03:46Z</time>
      </trkpt>
      <trkpt lat="34.081451967358589" lon="-2.164216032251716">
        <ele>944</ele>
        <time>2010-12-28T11:03:48Z</time>
      </trkpt>
      <trkpt lat="34.081318024545908" lon="-2.164222989231348">
        <ele>944.29999999999995</ele>
        <time>2010-12-28T11:03:50Z</time>
      </trkpt>
      <trkpt lat="34.081202019006014" lon="-2.1642030403018">
        <ele>944.39999999999998</ele>
        <time>2010-12-28T11:03:51Z</time>
      </trkpt>
      <trkpt lat="34.081094982102513" lon="-2.164146965369582">
        <ele>944.39999999999998</ele>
        <time>2010-12-28T11:03:53Z</time>
      </trkpt>
      <trkpt lat="34.080923991277814" lon="-2.164008999243379">
        <ele>945.39999999999998</ele>
        <time>2010-12-28T11:03:57Z</time>
      </trkpt>
      <trkpt lat="34.080621991306543" lon="-2.163858041167259">
        <ele>946.20000000000005</ele>
        <time>2010-12-28T11:04:00Z</time>
      </trkpt>
      <trkpt lat="34.079983038827777" lon="-2.163114985451102">
        <ele>946.79999999999995</ele>
        <time>2010-12-28T11:04:11Z</time>
      </trkpt>
      <trkpt lat="34.079935010522604" lon="-2.163012977689505">
        <ele>946.79999999999995</ele>
        <time>2010-12-28T11:04:11Z</time>
      </trkpt>
      <trkpt lat="34.079633010551333" lon="-2.162420963868499">
        <ele>947.29999999999995</ele>
        <time>2010-12-28T11:04:17Z</time>
      </trkpt>
      <trkpt lat="34.0795190166682" lon="-2.162333037704229">
        <ele>947.70000000000005</ele>
        <time>2010-12-28T11:04:19Z</time>
      </trkpt>
      <trkpt lat="34.079393036663532" lon="-2.162332031875849">
        <ele>948.5</ele>
        <time>2010-12-28T11:04:21Z</time>
      </trkpt>
      <trkpt lat="34.076907970011234" lon="-2.163515975698829">
        <ele>955.5</ele>
        <time>2010-12-28T11:04:57Z</time>
      </trkpt>
      <trkpt lat="34.076429028064013" lon="-2.163619995117188">
        <ele>957.5</ele>
        <time>2010-12-28T11:05:02Z</time>
      </trkpt>
      <trkpt lat="34.080694997683167" lon="-2.163913026452065">
        <ele>946</ele>
        <time>2010-12-28T11:08:36Z</time>
      </trkpt>
      <trkpt lat="34.072435973212123" lon="-2.164607970044017">
        <ele>972.39999999999998</ele>
        <time>2010-12-28T11:10:35Z</time>
      </trkpt>
      <trkpt lat="34.055161038413644" lon="-2.17078099027276">
        <ele>987.39999999999998</ele>
        <time>2010-12-28T11:13:35Z</time>
      </trkpt>
      <trkpt lat="34.048153012990952" lon="-2.174499034881592">
        <ele>993.79999999999995</ele>
        <time>2010-12-28T11:14:35Z</time>
      </trkpt>
      <trkpt lat="34.0444740280509" lon="-2.177230026572943">
        <ele>997.29999999999995</ele>
        <time>2010-12-28T11:15:35Z</time>
      </trkpt>
      <trkpt lat="34.033158961683512" lon="-2.163063017651439">
        <ele>965.20000000000005</ele>
        <time>2010-12-28T11:18:43Z</time>
      </trkpt>
      <trkpt lat="34.028463000431657" lon="-2.151019982993603">
        <ele>965.20000000000005</ele>
        <time>2010-12-28T11:20:35Z</time>
      </trkpt>
      <trkpt lat="34.02251997962594" lon="-2.152090016752482">
        <ele>964.39999999999998</ele>
        <time>2010-12-28T11:21:35Z</time>
      </trkpt>
      <trkpt lat="34.012062968686223" lon="-2.163777993991971">
        <ele>981.79999999999995</ele>
        <time>2010-12-28T11:23:47Z</time>
      </trkpt>
      <trkpt lat="34.008303014561534" lon="-2.168887015432119">
        <ele>992.20000000000005</ele>
        <time>2010-12-28T11:24:36Z</time>
      </trkpt>
      <trkpt lat="34.004177022725344" lon="-2.179605960845947">
        <ele>1015.8</ele>
        <time>2010-12-28T11:26:35Z</time>
      </trkpt>
      <trkpt lat="34.003004981204867" lon="-2.183030974119902">
        <ele>1027.5999999999999</ele>
        <time>2010-12-28T11:27:38Z</time>
      </trkpt>
      <trkpt lat="34.002985032275319" lon="-2.183276982977986">
        <ele>1026.7</ele>
        <time>2010-12-28T11:43:02Z</time>
      </trkpt>
      <trkpt lat="34.00294303894043" lon="-2.183402040973306">
        <ele>1027.2</ele>
        <time>2010-12-28T11:43:03Z</time>
      </trkpt>
      <trkpt lat="34.00288000702858" lon="-2.183507988229394">
        <ele>1027.8</ele>
        <time>2010-12-28T11:43:05Z</time>
      </trkpt>
      <trkpt lat="34.002780010923743" lon="-2.18360798433423">
        <ele>1028</ele>
        <time>2010-12-28T11:43:07Z</time>
      </trkpt>
      <trkpt lat="34.002468958497047" lon="-2.18386203981936">
        <ele>1028.0999999999999</ele>
        <time>2010-12-28T11:43:12Z</time>
      </trkpt>
      <trkpt lat="34.002378014847636" lon="-2.184001011773944">
        <ele>1028.8</ele>
        <time>2010-12-28T11:43:14Z</time>
      </trkpt>
      <trkpt lat="34.002329986542463" lon="-2.184162028133869">
        <ele>1029.5</ele>
        <time>2010-12-28T11:43:16Z</time>
      </trkpt>
      <trkpt lat="34.002232002094388" lon="-2.18459302559495">
        <ele>1031.0999999999999</ele>
        <time>2010-12-28T11:43:22Z</time>
      </trkpt>
      <trkpt lat="34.002175005152822" lon="-2.18476502224803">
        <ele>1031.5999999999999</ele>
        <time>2010-12-28T11:43:25Z</time>
      </trkpt>
      <trkpt lat="34.002173999324441" lon="-2.18489401973784">
        <ele>1032.2</ele>
        <time>2010-12-28T11:43:27Z</time>
      </trkpt>
      <trkpt lat="34.002219010144472" lon="-2.185172969475389">
        <ele>1033.3</ele>
        <time>2010-12-28T11:43:32Z</time>
      </trkpt>
      <trkpt lat="34.002196965739131" lon="-2.185386037454009">
        <ele>1033.7</ele>
        <time>2010-12-28T11:43:39Z</time>
      </trkpt>
      <trkpt lat="34.002126976847649" lon="-2.185613019391894">
        <ele>1034.2</ele>
        <time>2010-12-28T11:43:43Z</time>
      </trkpt>
      <trkpt lat="34.001868981868029" lon="-2.186426986008883">
        <ele>1037.7</ele>
        <time>2010-12-28T11:43:54Z</time>
      </trkpt>
      <trkpt lat="34.001830006018281" lon="-2.187094017863274">
        <ele>1040.7</ele>
        <time>2010-12-28T11:44:01Z</time>
      </trkpt>
      <trkpt lat="34.001833023503423" lon="-2.187262997031212">
        <ele>1041.8</ele>
        <time>2010-12-28T11:44:03Z</time>
      </trkpt>
      <trkpt lat="34.001876022666693" lon="-2.188042011111975">
        <ele>1047.9000000000001</ele>
        <time>2010-12-28T11:44:13Z</time>
      </trkpt>
      <trkpt lat="34.001909969374537" lon="-2.188202021643519">
        <ele>1049</ele>
        <time>2010-12-28T11:44:14Z</time>
      </trkpt>
      <trkpt lat="34.001955986022949" lon="-2.188357003033161">
        <ele>1049.7</ele>
        <time>2010-12-28T11:44:16Z</time>
      </trkpt>
      <trkpt lat="34.00197995826602" lon="-2.188512990251184">
        <ele>1051.0999999999999</ele>
        <time>2010-12-28T11:44:18Z</time>
      </trkpt>
      <trkpt lat="34.001994039863348" lon="-2.188665037974715">
        <ele>1051.9000000000001</ele>
        <time>2010-12-28T11:44:20Z</time>
      </trkpt>
      <trkpt lat="34.001969983801246" lon="-2.188830999657512">
        <ele>1052.2</ele>
        <time>2010-12-28T11:44:22Z</time>
      </trkpt>
      <trkpt lat="34.001918016001582" lon="-2.189001990482211">
        <ele>1052.5</ele>
        <time>2010-12-28T11:44:24Z</time>
      </trkpt>
      <trkpt lat="34.001847021281719" lon="-2.189177004620433">
        <ele>1053</ele>
        <time>2010-12-28T11:44:27Z</time>
      </trkpt>
      <trkpt lat="34.00165700353682" lon="-2.189668016508222">
        <ele>1053.5</ele>
        <time>2010-12-28T11:44:31Z</time>
      </trkpt>
      <trkpt lat="34.001631019636989" lon="-2.189786033704877">
        <ele>1053.7</ele>
        <time>2010-12-28T11:44:32Z</time>
      </trkpt>
      <trkpt lat="34.001516019925475" lon="-2.190376035869122">
        <ele>1053.8</ele>
        <time>2010-12-28T11:44:38Z</time>
      </trkpt>
      <trkpt lat="34.001474026590586" lon="-2.190479971468449">
        <ele>1053.8</ele>
        <time>2010-12-28T11:44:39Z</time>
      </trkpt>
      <trkpt lat="34.001428009942174" lon="-2.190580973401666">
        <ele>1053.9000000000001</ele>
        <time>2010-12-28T11:44:39Z</time>
      </trkpt>
      <trkpt lat="34.001374030485749" lon="-2.190677030012012">
        <ele>1053.9000000000001</ele>
        <time>2010-12-28T11:44:41Z</time>
      </trkpt>
      <trkpt lat="34.00131200440228" lon="-2.190765039995313">
        <ele>1054</ele>
        <time>2010-12-28T11:44:42Z</time>
      </trkpt>
      <trkpt lat="34.001243021339178" lon="-2.19084600917995">
        <ele>1053.9000000000001</ele>
        <time>2010-12-28T11:44:42Z</time>
      </trkpt>
      <trkpt lat="34.001168003305793" lon="-2.190918009728193">
        <ele>1053.8</ele>
        <time>2010-12-28T11:44:43Z</time>
      </trkpt>
      <trkpt lat="34.000748991966248" lon="-2.191248005256057">
        <ele>1053.8</ele>
        <time>2010-12-28T11:44:49Z</time>
      </trkpt>
      <trkpt lat="34.000566015020013" lon="-2.191368034109473">
        <ele>1054</ele>
        <time>2010-12-28T11:44:50Z</time>
      </trkpt>
      <trkpt lat="34.000023035332561" lon="-2.19172895886004">
        <ele>1054.0999999999999</ele>
        <time>2010-12-28T11:44:56Z</time>
      </trkpt>
      <trkpt lat="33.999946005642414" lon="-2.191814035177231">
        <ele>1054.0999999999999</ele>
        <time>2010-12-28T11:44:57Z</time>
      </trkpt>
      <trkpt lat="33.999733021482825" lon="-2.192117962986231">
        <ele>1054.5999999999999</ele>
        <time>2010-12-28T11:45:00Z</time>
      </trkpt>
      <trkpt lat="33.999222982674837" lon="-2.192842997610569">
        <ele>1054.9000000000001</ele>
        <time>2010-12-28T11:45:07Z</time>
      </trkpt>
      <trkpt lat="33.999144025146961" lon="-2.192934025079012">
        <ele>1054.9000000000001</ele>
        <time>2010-12-28T11:45:08Z</time>
      </trkpt>
      <trkpt lat="33.999063977971673" lon="-2.193012982606888">
        <ele>1054.8</ele>
        <time>2010-12-28T11:45:10Z</time>
      </trkpt>
      <trkpt lat="33.998979991301894" lon="-2.193083977326751">
        <ele>1054.9000000000001</ele>
        <time>2010-12-28T11:45:10Z</time>
      </trkpt>
      <trkpt lat="33.998888041824102" lon="-2.193147009238601">
        <ele>1055.0999999999999</ele>
        <time>2010-12-28T11:45:11Z</time>
      </trkpt>
      <trkpt lat="33.998791985213757" lon="-2.193199982866645">
        <ele>1055.3</ele>
        <time>2010-12-28T11:45:13Z</time>
      </trkpt>
      <trkpt lat="33.998401975259185" lon="-2.193371979519725">
        <ele>1055.0999999999999</ele>
        <time>2010-12-28T11:45:16Z</time>
      </trkpt>
      <trkpt lat="33.997515002265573" lon="-2.193752015009522">
        <ele>1054.5</ele>
        <time>2010-12-28T11:45:25Z</time>
      </trkpt>
      <trkpt lat="33.997431015595794" lon="-2.19381001777947">
        <ele>1054.4000000000001</ele>
        <time>2010-12-28T11:45:26Z</time>
      </trkpt>
      <trkpt lat="33.997349962592125" lon="-2.193879000842571">
        <ele>1054.4000000000001</ele>
        <time>2010-12-28T11:45:27Z</time>
      </trkpt>
      <trkpt lat="33.997271005064249" lon="-2.193957958370447">
        <ele>1054.5</ele>
        <time>2010-12-28T11:45:28Z</time>
      </trkpt>
      <trkpt lat="33.997196992859244" lon="-2.19404798001051">
        <ele>1054.5</ele>
        <time>2010-12-28T11:45:29Z</time>
      </trkpt>
      <trkpt lat="33.996754009276628" lon="-2.194579979404807">
        <ele>1054.5</ele>
        <time>2010-12-28T11:45:36Z</time>
      </trkpt>
      <trkpt lat="33.996669016778469" lon="-2.194656003266573">
        <ele>1054.3</ele>
        <time>2010-12-28T11:45:36Z</time>
      </trkpt>
      <trkpt lat="33.995852032676339" lon="-2.195313982665539">
        <ele>1053.9000000000001</ele>
        <time>2010-12-28T11:45:46Z</time>
      </trkpt>
      <trkpt lat="33.989815972745419" lon="-2.200380004942417">
        <ele>1054.4000000000001</ele>
        <time>2010-12-28T11:46:44Z</time>
      </trkpt>
      <trkpt lat="33.989636013284326" lon="-2.200583014637232">
        <ele>1054.7</ele>
        <time>2010-12-28T11:46:45Z</time>
      </trkpt>
      <trkpt lat="33.989386986941099" lon="-2.200915021821857">
        <ele>1054.9000000000001</ele>
        <time>2010-12-28T11:46:48Z</time>
      </trkpt>
      <trkpt lat="33.988955989480019" lon="-2.201647013425827">
        <ele>1055.5999999999999</ele>
        <time>2010-12-28T11:46:55Z</time>
      </trkpt>
      <trkpt lat="33.98889203555882" lon="-2.201773999258876">
        <ele>1055.8</ele>
        <time>2010-12-28T11:46:56Z</time>
      </trkpt>
      <trkpt lat="33.986764037981629" lon="-2.206613039597869">
        <ele>1059.3</ele>
        <time>2010-12-28T11:47:33Z</time>
      </trkpt>
      <trkpt lat="33.986686002463102" lon="-2.206740025430918">
        <ele>1059.3</ele>
        <time>2010-12-28T11:47:35Z</time>
      </trkpt>
      <trkpt lat="33.986192978918552" lon="-2.207458019256592">
        <ele>1059.7</ele>
        <time>2010-12-28T11:47:40Z</time>
      </trkpt>
      <trkpt lat="33.98601695895195" lon="-2.207672009244561">
        <ele>1059.7</ele>
        <time>2010-12-28T11:47:43Z</time>
      </trkpt>
      <trkpt lat="33.985744966194034" lon="-2.207954982295632">
        <ele>1059.7</ele>
        <time>2010-12-28T11:47:46Z</time>
      </trkpt>
      <trkpt lat="33.984362035989761" lon="-2.209500018507242">
        <ele>1058.0999999999999</ele>
        <time>2010-12-28T11:48:00Z</time>
      </trkpt>
      <trkpt lat="33.984281988814473" lon="-2.209619041532278">
        <ele>1058.2</ele>
        <time>2010-12-28T11:48:01Z</time>
      </trkpt>
      <trkpt lat="33.983534993603826" lon="-2.210710030049086">
        <ele>1059.0999999999999</ele>
        <time>2010-12-28T11:48:10Z</time>
      </trkpt>
      <trkpt lat="33.983442038297653" lon="-2.210814971476793">
        <ele>1059</ele>
        <time>2010-12-28T11:48:12Z</time>
      </trkpt>
      <trkpt lat="33.979673031717539" lon="-2.214953033253551">
        <ele>1059.2</ele>
        <time>2010-12-28T11:48:53Z</time>
      </trkpt>
      <trkpt lat="33.979585021734238" lon="-2.215026961639524">
        <ele>1059.3</ele>
        <time>2010-12-28T11:48:53Z</time>
      </trkpt>
      <trkpt lat="33.979217978194356" lon="-2.215300966054201">
        <ele>1059.7</ele>
        <time>2010-12-28T11:48:57Z</time>
      </trkpt>
      <trkpt lat="33.977439003065228" lon="-2.216605022549629">
        <ele>1061.5999999999999</ele>
        <time>2010-12-28T11:49:17Z</time>
      </trkpt>
      <trkpt lat="33.977225013077259" lon="-2.216724967584014">
        <ele>1061.7</ele>
        <time>2010-12-28T11:49:19Z</time>
      </trkpt>
      <trkpt lat="33.977003982290626" lon="-2.216830998659134">
        <ele>1061.5999999999999</ele>
        <time>2010-12-28T11:49:21Z</time>
      </trkpt>
      <trkpt lat="33.976377015933394" lon="-2.21710299141705">
        <ele>1062.7</ele>
        <time>2010-12-28T11:49:27Z</time>
      </trkpt>
      <trkpt lat="33.976275008171797" lon="-2.217178009450436">
        <ele>1063</ele>
        <time>2010-12-28T11:49:28Z</time>
      </trkpt>
      <trkpt lat="33.976183980703354" lon="-2.217263001948595">
        <ele>1063.0999999999999</ele>
        <time>2010-12-28T11:49:29Z</time>
      </trkpt>
      <trkpt lat="33.975943000987172" lon="-2.217544969171286">
        <ele>1062.9000000000001</ele>
        <time>2010-12-28T11:49:33Z</time>
      </trkpt>
      <trkpt lat="33.975636977702379" lon="-2.217957023531199">
        <ele>1063.2</ele>
        <time>2010-12-28T11:49:37Z</time>
      </trkpt>
      <trkpt lat="33.9755720179528" lon="-2.218065988272429">
        <ele>1063.2</ele>
        <time>2010-12-28T11:49:37Z</time>
      </trkpt>
      <trkpt lat="33.975267000496387" lon="-2.218566974624991">
        <ele>1063.5999999999999</ele>
        <time>2010-12-28T11:49:43Z</time>
      </trkpt>
      <trkpt lat="33.975201034918427" lon="-2.218649033457041">
        <ele>1063.5</ele>
        <time>2010-12-28T11:49:44Z</time>
      </trkpt>
      <trkpt lat="33.97492703050375" lon="-2.218981040641666">
        <ele>1063.5</ele>
        <time>2010-12-28T11:49:48Z</time>
      </trkpt>
      <trkpt lat="33.974848994985223" lon="-2.2190569806844">
        <ele>1063.5999999999999</ele>
        <time>2010-12-28T11:49:48Z</time>
      </trkpt>
      <trkpt lat="33.974762996658683" lon="-2.21912101842463">
        <ele>1063.5999999999999</ele>
        <time>2010-12-28T11:49:50Z</time>
      </trkpt>
      <trkpt lat="33.974483041092753" lon="-2.219287985935807">
        <ele>1064</ele>
        <time>2010-12-28T11:49:52Z</time>
      </trkpt>
      <trkpt lat="33.974383966997266" lon="-2.219331990927458">
        <ele>1064.2</ele>
        <time>2010-12-28T11:49:54Z</time>
      </trkpt>
      <trkpt lat="33.973389035090804" lon="-2.219770029187203">
        <ele>1064.9000000000001</ele>
        <time>2010-12-28T11:50:04Z</time>
      </trkpt>
      <trkpt lat="33.973288033157587" lon="-2.219799030572176">
        <ele>1065</ele>
        <time>2010-12-28T11:50:04Z</time>
      </trkpt>
      <trkpt lat="33.971725981682539" lon="-2.220198009163141">
        <ele>1065.9000000000001</ele>
        <time>2010-12-28T11:50:18Z</time>
      </trkpt>
      <trkpt lat="33.971622968092561" lon="-2.220256011933088">
        <ele>1065.8</ele>
        <time>2010-12-28T11:50:19Z</time>
      </trkpt>
      <trkpt lat="33.971408978104591" lon="-2.220360031351447">
        <ele>1065.8</ele>
        <time>2010-12-28T11:50:22Z</time>
      </trkpt>
      <trkpt lat="33.971295990049839" lon="-2.220395989716053">
        <ele>1065.8</ele>
        <time>2010-12-28T11:50:22Z</time>
      </trkpt>
      <trkpt lat="33.971069008111954" lon="-2.220483999699354">
        <ele>1065.8</ele>
        <time>2010-12-28T11:50:24Z</time>
      </trkpt>
      <trkpt lat="33.970959037542343" lon="-2.220546025782824">
        <ele>1065.7</ele>
        <time>2010-12-28T11:50:25Z</time>
      </trkpt>
      <trkpt lat="33.969636959955096" lon="-2.221239041537046">
        <ele>1066.2</ele>
        <time>2010-12-28T11:50:37Z</time>
      </trkpt>
      <trkpt lat="33.969539981335402" lon="-2.221317999064922">
        <ele>1066.2</ele>
        <time>2010-12-28T11:50:38Z</time>
      </trkpt>
      <trkpt lat="33.968774965032935" lon="-2.221996011212468">
        <ele>1066.4000000000001</ele>
        <time>2010-12-28T11:50:47Z</time>
      </trkpt>
      <trkpt lat="33.968685027211905" lon="-2.222096007317305">
        <ele>1066.7</ele>
        <time>2010-12-28T11:50:48Z</time>
      </trkpt>
      <trkpt lat="33.96558397449553" lon="-2.224865974858403">
        <ele>1066</ele>
        <time>2010-12-28T11:51:16Z</time>
      </trkpt>
      <trkpt lat="33.96541197784245" lon="-2.225128998979926">
        <ele>1066.0999999999999</ele>
        <time>2010-12-28T11:51:18Z</time>
      </trkpt>
      <trkpt lat="33.96158798597753" lon="-2.231147037819028">
        <ele>1070</ele>
        <time>2010-12-28T11:52:07Z</time>
      </trkpt>
      <trkpt lat="33.961497964337468" lon="-2.231256002560258">
        <ele>1070</ele>
        <time>2010-12-28T11:52:08Z</time>
      </trkpt>
      <trkpt lat="33.961196970194578" lon="-2.23156001418829">
        <ele>1069.9000000000001</ele>
        <time>2010-12-28T11:52:11Z</time>
      </trkpt>
      <trkpt lat="33.960114028304815" lon="-2.232556035742164">
        <ele>1070.9000000000001</ele>
        <time>2010-12-28T11:52:21Z</time>
      </trkpt>
      <trkpt lat="33.960001962259412" lon="-2.232638010755181">
        <ele>1071.0999999999999</ele>
        <time>2010-12-28T11:52:22Z</time>
      </trkpt>
      <trkpt lat="33.959775986149907" lon="-2.23278402350843">
        <ele>1071.3</ele>
        <time>2010-12-28T11:52:24Z</time>
      </trkpt>
      <trkpt lat="33.959659980610013" lon="-2.232844037935138">
        <ele>1071.4000000000001</ele>
        <time>2010-12-28T11:52:25Z</time>
      </trkpt>
      <trkpt lat="33.958463966846466" lon="-2.233345024287701">
        <ele>1071.4000000000001</ele>
        <time>2010-12-28T11:52:35Z</time>
      </trkpt>
      <trkpt lat="33.956676023080945" lon="-2.233983976766467">
        <ele>1072.4000000000001</ele>
        <time>2010-12-28T11:52:49Z</time>
      </trkpt>
      <trkpt lat="33.956423979252577" lon="-2.234043991193175">
        <ele>1072.5</ele>
        <time>2010-12-28T11:52:52Z</time>
      </trkpt>
      <trkpt lat="33.951370026916265" lon="-2.235294990241528">
        <ele>1073</ele>
        <time>2010-12-28T11:53:31Z</time>
      </trkpt>
      <trkpt lat="33.951243963092566" lon="-2.235351987183094">
        <ele>1073</ele>
        <time>2010-12-28T11:53:32Z</time>
      </trkpt>
      <trkpt lat="33.948185993358493" lon="-2.236635005101562">
        <ele>1073.2</ele>
        <time>2010-12-28T11:53:55Z</time>
      </trkpt>
      <trkpt lat="33.947291979566216" lon="-2.23699601367116">
        <ele>1073.2</ele>
        <time>2010-12-28T11:54:02Z</time>
      </trkpt>
      <trkpt lat="33.947174968197942" lon="-2.23708301782608">
        <ele>1073.3</ele>
        <time>2010-12-28T11:54:04Z</time>
      </trkpt>
      <trkpt lat="33.947067009285092" lon="-2.237183013930917">
        <ele>1073.5</ele>
        <time>2010-12-28T11:54:04Z</time>
      </trkpt>
      <trkpt lat="33.946126978844404" lon="-2.238169983029366">
        <ele>1073.5999999999999</ele>
        <time>2010-12-28T11:54:14Z</time>
      </trkpt>
      <trkpt lat="33.945836964994669" lon="-2.23856502212584">
        <ele>1073.8</ele>
        <time>2010-12-28T11:54:16Z</time>
      </trkpt>
      <trkpt lat="33.945548962801695" lon="-2.238941034302115">
        <ele>1073.7</ele>
        <time>2010-12-28T11:54:20Z</time>
      </trkpt>
      <trkpt lat="33.945444021373987" lon="-2.239040024578571">
        <ele>1073.8</ele>
        <time>2010-12-28T11:54:20Z</time>
      </trkpt>
      <trkpt lat="33.945336984470487" lon="-2.239129962399602">
        <ele>1073.8</ele>
        <time>2010-12-28T11:54:21Z</time>
      </trkpt>
      <trkpt lat="33.945221984758973" lon="-2.239204980432987">
        <ele>1073.8</ele>
        <time>2010-12-28T11:54:22Z</time>
      </trkpt>
      <trkpt lat="33.944777995347977" lon="-2.239498011767864">
        <ele>1074.3</ele>
        <time>2010-12-28T11:54:26Z</time>
      </trkpt>
      <trkpt lat="33.944685040041804" lon="-2.239594990387559">
        <ele>1074.3</ele>
        <time>2010-12-28T11:54:27Z</time>
      </trkpt>
      <trkpt lat="33.943275958299637" lon="-2.240861998870969">
        <ele>1073.9000000000001</ele>
        <time>2010-12-28T11:54:41Z</time>
      </trkpt>
      <trkpt lat="33.943154001608491" lon="-2.240952020511031">
        <ele>1073.9000000000001</ele>
        <time>2010-12-28T11:54:41Z</time>
      </trkpt>
      <trkpt lat="33.94289500080049" lon="-2.241112031042576">
        <ele>1073.9000000000001</ele>
        <time>2010-12-28T11:54:44Z</time>
      </trkpt>
      <trkpt lat="33.942329976707697" lon="-2.241384023800492">
        <ele>1073.5</ele>
        <time>2010-12-28T11:54:47Z</time>
      </trkpt>
      <trkpt lat="33.942182958126068" lon="-2.241438003256917">
        <ele>1073.5999999999999</ele>
        <time>2010-12-28T11:54:49Z</time>
      </trkpt>
      <trkpt lat="33.941726982593536" lon="-2.241559037938714">
        <ele>1073.7</ele>
        <time>2010-12-28T11:54:51Z</time>
      </trkpt>
      <trkpt lat="33.941261032596231" lon="-2.241642018780112">
        <ele>1073.9000000000001</ele>
        <time>2010-12-28T11:54:54Z</time>
      </trkpt>
      <trkpt lat="33.939325986430049" lon="-2.241935972124338">
        <ele>1073.5999999999999</ele>
        <time>2010-12-28T11:55:07Z</time>
      </trkpt>
      <trkpt lat="33.939189026132226" lon="-2.241999004036188">
        <ele>1073.7</ele>
        <time>2010-12-28T11:55:08Z</time>
      </trkpt>
      <trkpt lat="33.939062962308526" lon="-2.242078967392445">
        <ele>1073.8</ele>
        <time>2010-12-28T11:55:09Z</time>
      </trkpt>
      <trkpt lat="33.937739040702581" lon="-2.242955965921283">
        <ele>1074.3</ele>
        <time>2010-12-28T11:55:21Z</time>
      </trkpt>
      <trkpt lat="33.93762999214232" lon="-2.243058979511261">
        <ele>1074.2</ele>
        <time>2010-12-28T11:55:21Z</time>
      </trkpt>
      <trkpt lat="33.937296979129314" lon="-2.24335603415966">
        <ele>1074.2</ele>
        <time>2010-12-28T11:55:24Z</time>
      </trkpt>
      <trkpt lat="33.937176028266549" lon="-2.243443038314581">
        <ele>1074.2</ele>
        <time>2010-12-28T11:55:25Z</time>
      </trkpt>
      <trkpt lat="33.934661038219929" lon="-2.245089998468757">
        <ele>1076.7</ele>
        <time>2010-12-28T11:55:47Z</time>
      </trkpt>
      <trkpt lat="33.933801976963878" lon="-2.24565401673317">
        <ele>1076.5</ele>
        <time>2010-12-28T11:55:54Z</time>
      </trkpt>
      <trkpt lat="33.933694018051028" lon="-2.245759963989258">
        <ele>1076.5999999999999</ele>
        <time>2010-12-28T11:55:54Z</time>
      </trkpt>
      <trkpt lat="33.932226011529565" lon="-2.247260995209217">
        <ele>1076.7</ele>
        <time>2010-12-28T11:56:08Z</time>
      </trkpt>
      <trkpt lat="33.932117968797684" lon="-2.247404996305704">
        <ele>1076.8</ele>
        <time>2010-12-28T11:56:08Z</time>
      </trkpt>
      <trkpt lat="33.928933013230562" lon="-2.251080963760614">
        <ele>1077.8</ele>
        <time>2010-12-28T11:56:36Z</time>
      </trkpt>
      <trkpt lat="33.92839103937149" lon="-2.251966008916497">
        <ele>1077.8</ele>
        <time>2010-12-28T11:56:41Z</time>
      </trkpt>
      <trkpt lat="33.928166991099715" lon="-2.252426007762551">
        <ele>1077.7</ele>
        <time>2010-12-28T11:56:44Z</time>
      </trkpt>
      <trkpt lat="33.928049979731441" lon="-2.252746028825641">
        <ele>1077.4000000000001</ele>
        <time>2010-12-28T11:56:46Z</time>
      </trkpt>
      <trkpt lat="33.927914025261998" lon="-2.253234023228288">
        <ele>1077</ele>
        <time>2010-12-28T11:56:50Z</time>
      </trkpt>
      <trkpt lat="33.927408009767532" lon="-2.255326984450221">
        <ele>1076.0999999999999</ele>
        <time>2010-12-28T11:57:02Z</time>
      </trkpt>
      <trkpt lat="33.927347995340824" lon="-2.255470985546708">
        <ele>1076</ele>
        <time>2010-12-28T11:57:04Z</time>
      </trkpt>
      <trkpt lat="33.927273983135819" lon="-2.255598977208138">
        <ele>1076.3</ele>
        <time>2010-12-28T11:57:04Z</time>
      </trkpt>
      <trkpt lat="33.927185973152518" lon="-2.25571196526289">
        <ele>1076.5999999999999</ele>
        <time>2010-12-28T11:57:05Z</time>
      </trkpt>
      <trkpt lat="33.926823958754539" lon="-2.256157966330648">
        <ele>1076.8</ele>
        <time>2010-12-28T11:57:10Z</time>
      </trkpt>
      <trkpt lat="33.926751036196947" lon="-2.256295010447502">
        <ele>1076.8</ele>
        <time>2010-12-28T11:57:10Z</time>
      </trkpt>
      <trkpt lat="33.926622960716486" lon="-2.256589969620109">
        <ele>1076.8</ele>
        <time>2010-12-28T11:57:13Z</time>
      </trkpt>
      <trkpt lat="33.926352979615331" lon="-2.25719497539103">
        <ele>1076.5999999999999</ele>
        <time>2010-12-28T11:57:16Z</time>
      </trkpt>
      <trkpt lat="33.926262035965919" lon="-2.257327996194363">
        <ele>1076.5999999999999</ele>
        <time>2010-12-28T11:57:17Z</time>
      </trkpt>
      <trkpt lat="33.925642026588321" lon="-2.258155960589647">
        <ele>1077.2</ele>
        <time>2010-12-28T11:57:53Z</time>
      </trkpt>
      <trkpt lat="33.922845991328359" lon="-2.261634031310678">
        <ele>1077.4000000000001</ele>
        <time>2010-12-28T11:58:22Z</time>
      </trkpt>
      <trkpt lat="33.922725040465593" lon="-2.261737966910005">
        <ele>1077.5</ele>
        <time>2010-12-28T11:58:23Z</time>
      </trkpt>
      <trkpt lat="33.92089300788939" lon="-2.263378975912929">
        <ele>1079.5999999999999</ele>
        <time>2010-12-28T11:58:38Z</time>
      </trkpt>
      <trkpt lat="33.920746995136142" lon="-2.263470003381372">
        <ele>1079.8</ele>
        <time>2010-12-28T11:58:40Z</time>
      </trkpt>
      <trkpt lat="33.920597964897752" lon="-2.263548038899899">
        <ele>1080.2</ele>
        <time>2010-12-28T11:58:41Z</time>
      </trkpt>
      <trkpt lat="33.918955028057098" lon="-2.264559986069799">
        <ele>1082.4000000000001</ele>
        <time>2010-12-28T11:58:52Z</time>
      </trkpt>
      <trkpt lat="33.916970025748014" lon="-2.265579979866743">
        <ele>1084.2</ele>
        <time>2010-12-28T11:59:06Z</time>
      </trkpt>
      <trkpt lat="33.910671025514603" lon="-2.26892402395606">
        <ele>1082.5</ele>
        <time>2010-12-28T11:59:47Z</time>
      </trkpt>
      <trkpt lat="33.910526018589735" lon="-2.268968028947711">
        <ele>1082.4000000000001</ele>
        <time>2010-12-28T11:59:48Z</time>
      </trkpt>
      <trkpt lat="33.908513020724058" lon="-2.269732039421797">
        <ele>1081.4000000000001</ele>
        <time>2010-12-28T12:00:01Z</time>
      </trkpt>
      <trkpt lat="33.908401038497686" lon="-2.269798004999757">
        <ele>1081.2</ele>
        <time>2010-12-28T12:00:02Z</time>
      </trkpt>
      <trkpt lat="33.908298024907708" lon="-2.269877968356013">
        <ele>1081.3</ele>
        <time>2010-12-28T12:00:04Z</time>
      </trkpt>
      <trkpt lat="33.908200962468982" lon="-2.269974024966359">
        <ele>1081.0999999999999</ele>
        <time>2010-12-28T12:00:04Z</time>
      </trkpt>
      <trkpt lat="33.907829979434609" lon="-2.270417008548975">
        <ele>1080.7</ele>
        <time>2010-12-28T12:00:08Z</time>
      </trkpt>
      <trkpt lat="33.907657982781529" lon="-2.270678021013737">
        <ele>1080.5</ele>
        <time>2010-12-28T12:00:10Z</time>
      </trkpt>
      <trkpt lat="33.907136041671038" lon="-2.271617967635393">
        <ele>1079.8</ele>
        <time>2010-12-28T12:00:17Z</time>
      </trkpt>
      <trkpt lat="33.907050965353847" lon="-2.271720981225371">
        <ele>1079.8</ele>
        <time>2010-12-28T12:00:18Z</time>
      </trkpt>
      <trkpt lat="33.906953986734152" lon="-2.271819971501827">
        <ele>1079.8</ele>
        <time>2010-12-28T12:00:19Z</time>
      </trkpt>
      <trkpt lat="33.906848961487412" lon="-2.271908987313509">
        <ele>1079.5999999999999</ele>
        <time>2010-12-28T12:00:20Z</time>
      </trkpt>
      <trkpt lat="33.906416958197951" lon="-2.272278964519501">
        <ele>1079.7</ele>
        <time>2010-12-28T12:00:24Z</time>
      </trkpt>
      <trkpt lat="33.906316962093115" lon="-2.272397987544537">
        <ele>1079.5999999999999</ele>
        <time>2010-12-28T12:00:25Z</time>
      </trkpt>
      <trkpt lat="33.9061329793185" lon="-2.272677021101117">
        <ele>1079.8</ele>
        <time>2010-12-28T12:00:27Z</time>
      </trkpt>
      <trkpt lat="33.906056033447385" lon="-2.27283401414752">
        <ele>1079.8</ele>
        <time>2010-12-28T12:00:28Z</time>
      </trkpt>
      <trkpt lat="33.905928041785955" lon="-2.273168032988906">
        <ele>1079.8</ele>
        <time>2010-12-28T12:00:30Z</time>
      </trkpt>
      <trkpt lat="33.905435018241405" lon="-2.274573007598519">
        <ele>1079.2</ele>
        <time>2010-12-28T12:00:39Z</time>
      </trkpt>
      <trkpt lat="33.905349019914865" lon="-2.274737041443586">
        <ele>1079</ele>
        <time>2010-12-28T12:00:39Z</time>
      </trkpt>
      <trkpt lat="33.9052539691329" lon="-2.274890011176467">
        <ele>1078.9000000000001</ele>
        <time>2010-12-28T12:00:40Z</time>
      </trkpt>
      <trkpt lat="33.905147016048431" lon="-2.275032000616193">
        <ele>1078.8</ele>
        <time>2010-12-28T12:00:42Z</time>
      </trkpt>
      <trkpt lat="33.903944967314601" lon="-2.276621041819453">
        <ele>1079.3</ele>
        <time>2010-12-28T12:00:54Z</time>
      </trkpt>
      <trkpt lat="33.903840025886893" lon="-2.276722965762019">
        <ele>1079.5</ele>
        <time>2010-12-28T12:00:54Z</time>
      </trkpt>
      <trkpt lat="33.902219971641898" lon="-2.278294991701841">
        <ele>1081.5999999999999</ele>
        <time>2010-12-28T12:01:08Z</time>
      </trkpt>
      <trkpt lat="33.902089968323708" lon="-2.278389958664775">
        <ele>1081.7</ele>
        <time>2010-12-28T12:01:10Z</time>
      </trkpt>
      <trkpt lat="33.901550006121397" lon="-2.278730012476444">
        <ele>1081.5</ele>
        <time>2010-12-28T12:01:13Z</time>
      </trkpt>
      <trkpt lat="33.901412962004542" lon="-2.278796983882785">
        <ele>1081.5</ele>
        <time>2010-12-28T12:01:14Z</time>
      </trkpt>
      <trkpt lat="33.89983699657023" lon="-2.27957901544869">
        <ele>1082</ele>
        <time>2010-12-28T12:01:25Z</time>
      </trkpt>
      <trkpt lat="33.899713028222322" lon="-2.279672976583242">
        <ele>1082</ele>
        <time>2010-12-28T12:01:26Z</time>
      </trkpt>
      <trkpt lat="33.898867964744568" lon="-2.280307989567518">
        <ele>1082.9000000000001</ele>
        <time>2010-12-28T12:01:33Z</time>
      </trkpt>
      <trkpt lat="33.8987419847399" lon="-2.280375966802239">
        <ele>1083</ele>
        <time>2010-12-28T12:01:35Z</time>
      </trkpt>
      <trkpt lat="33.898248039186001" lon="-2.280671009793878">
        <ele>1083.2</ele>
        <time>2010-12-28T12:01:39Z</time>
      </trkpt>
      <trkpt lat="33.894492024555802" lon="-2.282988019287586">
        <ele>1083.4000000000001</ele>
        <time>2010-12-28T12:02:07Z</time>
      </trkpt>
      <trkpt lat="33.894365960732102" lon="-2.283038981258869">
        <ele>1083.5</ele>
        <time>2010-12-28T12:02:09Z</time>
      </trkpt>
      <trkpt lat="33.893344039097428" lon="-2.283540973439813">
        <ele>1083.4000000000001</ele>
        <time>2010-12-28T12:02:16Z</time>
      </trkpt>
      <trkpt lat="33.893230967223644" lon="-2.28361900895834">
        <ele>1083.4000000000001</ele>
        <time>2010-12-28T12:02:17Z</time>
      </trkpt>
      <trkpt lat="33.892787983641028" lon="-2.283916985616088">
        <ele>1083.5</ele>
        <time>2010-12-28T12:02:21Z</time>
      </trkpt>
      <trkpt lat="33.892668960615993" lon="-2.283980017527938">
        <ele>1083.5999999999999</ele>
        <time>2010-12-28T12:02:22Z</time>
      </trkpt>
      <trkpt lat="33.890371983870864" lon="-2.285407036542893">
        <ele>1084</ele>
        <time>2010-12-28T12:02:43Z</time>
      </trkpt>
      <trkpt lat="33.890263019129634" lon="-2.285493034869432">
        <ele>1084.0999999999999</ele>
        <time>2010-12-28T12:02:43Z</time>
      </trkpt>
      <trkpt lat="33.889960013329983" lon="-2.285781959071755">
        <ele>1084.3</ele>
        <time>2010-12-28T12:02:46Z</time>
      </trkpt>
      <trkpt lat="33.889874015003443" lon="-2.285886984318495">
        <ele>1084.4000000000001</ele>
        <time>2010-12-28T12:02:48Z</time>
      </trkpt>
      <trkpt lat="33.889510994777083" lon="-2.286290992051363">
        <ele>1084.5</ele>
        <time>2010-12-28T12:02:51Z</time>
      </trkpt>
      <trkpt lat="33.889114027842879" lon="-2.286664992570877">
        <ele>1084.8</ele>
        <time>2010-12-28T12:02:56Z</time>
      </trkpt>
      <trkpt lat="33.888592002913356" lon="-2.287078974768519">
        <ele>1085.2</ele>
        <time>2010-12-28T12:03:00Z</time>
      </trkpt>
      <trkpt lat="33.888046005740762" lon="-2.287446018308401">
        <ele>1085.5</ele>
        <time>2010-12-28T12:03:05Z</time>
      </trkpt>
      <trkpt lat="33.887932011857629" lon="-2.287505026906729">
        <ele>1085.5999999999999</ele>
        <time>2010-12-28T12:03:07Z</time>
      </trkpt>
      <trkpt lat="33.886945964768529" lon="-2.288120007142425">
        <ele>1086</ele>
        <time>2010-12-28T12:03:15Z</time>
      </trkpt>
      <trkpt lat="33.886772962287068" lon="-2.288258979097009">
        <ele>1086.0999999999999</ele>
        <time>2010-12-28T12:03:17Z</time>
      </trkpt>
      <trkpt lat="33.886343976482749" lon="-2.288618981838226">
        <ele>1086.2</ele>
        <time>2010-12-28T12:03:23Z</time>
      </trkpt>
      <trkpt lat="33.886241968721151" lon="-2.288680002093315">
        <ele>1086.2</ele>
        <time>2010-12-28T12:03:23Z</time>
      </trkpt>
      <trkpt lat="33.884360985830426" lon="-2.289790017530322">
        <ele>1085.4000000000001</ele>
        <time>2010-12-28T12:03:40Z</time>
      </trkpt>
      <trkpt lat="33.884229976683855" lon="-2.289846008643508">
        <ele>1085.5</ele>
        <time>2010-12-28T12:03:41Z</time>
      </trkpt>
      <trkpt lat="33.881276026368141" lon="-2.29101000353694">
        <ele>1084.9000000000001</ele>
        <time>2010-12-28T12:04:02Z</time>
      </trkpt>
      <trkpt lat="33.881139988079667" lon="-2.291101031005383">
        <ele>1084.9000000000001</ele>
        <time>2010-12-28T12:04:04Z</time>
      </trkpt>
      <trkpt lat="33.878379995003343" lon="-2.292825020849705">
        <ele>1085.3</ele>
        <time>2010-12-28T12:04:23Z</time>
      </trkpt>
      <trkpt lat="33.877348015084863" lon="-2.293378980830312">
        <ele>1084.9000000000001</ele>
        <time>2010-12-28T12:04:31Z</time>
      </trkpt>
      <trkpt lat="33.877211976796389" lon="-2.293435977771878">
        <ele>1085</ele>
        <time>2010-12-28T12:04:32Z</time>
      </trkpt>
      <trkpt lat="33.872832013294101" lon="-2.29520196095109">
        <ele>1084.5999999999999</ele>
        <time>2010-12-28T12:05:06Z</time>
      </trkpt>
      <trkpt lat="33.872713996097445" lon="-2.295276978984475">
        <ele>1084.5</ele>
        <time>2010-12-28T12:05:07Z</time>
      </trkpt>
      <trkpt lat="33.872084012255073" lon="-2.295744018629193">
        <ele>1084.3</ele>
        <time>2010-12-28T12:05:13Z</time>
      </trkpt>
      <trkpt lat="33.871974041685462" lon="-2.295793974772096">
        <ele>1084.3</ele>
        <time>2010-12-28T12:05:14Z</time>
      </trkpt>
      <trkpt lat="33.871656032279134" lon="-2.295962031930685">
        <ele>1083.9000000000001</ele>
        <time>2010-12-28T12:05:17Z</time>
      </trkpt>
      <trkpt lat="33.870877018198371" lon="-2.296452959999442">
        <ele>1083.2</ele>
        <time>2010-12-28T12:05:25Z</time>
      </trkpt>
      <trkpt lat="33.870770987123251" lon="-2.296570977196097">
        <ele>1083.2</ele>
        <time>2010-12-28T12:05:27Z</time>
      </trkpt>
      <trkpt lat="33.870614999905229" lon="-2.29679100215435">
        <ele>1083</ele>
        <time>2010-12-28T12:05:30Z</time>
      </trkpt>
      <trkpt lat="33.870408972725272" lon="-2.297052014619112">
        <ele>1083.4000000000001</ele>
        <time>2010-12-28T12:05:34Z</time>
      </trkpt>
      <trkpt lat="33.8703160174191" lon="-2.297268016263843">
        <ele>1083.0999999999999</ele>
        <time>2010-12-28T12:05:37Z</time>
      </trkpt>
      <trkpt lat="33.869904968887568" lon="-2.297962959855795">
        <ele>1083.4000000000001</ele>
        <time>2010-12-28T12:05:45Z</time>
      </trkpt>
      <trkpt lat="33.869826011359692" lon="-2.298046024516225">
        <ele>1083.4000000000001</ele>
        <time>2010-12-28T12:05:47Z</time>
      </trkpt>
      <trkpt lat="33.869296023622155" lon="-2.298581041395664">
        <ele>1084.0999999999999</ele>
        <time>2010-12-28T12:05:53Z</time>
      </trkpt>
      <trkpt lat="33.869196027517319" lon="-2.298662010580301">
        <ele>1084.3</ele>
        <time>2010-12-28T12:05:53Z</time>
      </trkpt>
      <trkpt lat="33.866543993353844" lon="-2.300905007869005">
        <ele>1087.0999999999999</ele>
        <time>2010-12-28T12:06:22Z</time>
      </trkpt>
      <trkpt lat="33.86645196005702" lon="-2.301009027287364">
        <ele>1087</ele>
        <time>2010-12-28T12:06:23Z</time>
      </trkpt>
      <trkpt lat="33.865414028987288" lon="-2.302207974717021">
        <ele>1086</ele>
        <time>2010-12-28T12:06:35Z</time>
      </trkpt>
      <trkpt lat="33.865348985418677" lon="-2.302320962771773">
        <ele>1086</ele>
        <time>2010-12-28T12:06:37Z</time>
      </trkpt>
      <trkpt lat="33.865281008183956" lon="-2.302433028817177">
        <ele>1086</ele>
        <time>2010-12-28T12:06:38Z</time>
      </trkpt>
      <trkpt lat="33.865200038999319" lon="-2.302536964416504">
        <ele>1086</ele>
        <time>2010-12-28T12:06:38Z</time>
      </trkpt>
      <trkpt lat="33.863452998921275" lon="-2.304822960868478">
        <ele>1085.5</ele>
        <time>2010-12-28T12:07:04Z</time>
      </trkpt>
      <trkpt lat="33.863382004201412" lon="-2.304893033578992">
        <ele>1085.2</ele>
        <time>2010-12-28T12:07:06Z</time>
      </trkpt>
      <trkpt lat="33.862412972375751" lon="-2.305742958560586">
        <ele>1086.2</ele>
        <time>2010-12-28T12:07:18Z</time>
      </trkpt>
      <trkpt lat="33.862065961584449" lon="-2.306170016527176">
        <ele>1085.9000000000001</ele>
        <time>2010-12-28T12:07:24Z</time>
      </trkpt>
      <trkpt lat="33.861512001603842" lon="-2.306676032021642">
        <ele>1086</ele>
        <time>2010-12-28T12:07:33Z</time>
      </trkpt>
      <trkpt lat="33.861391972750425" lon="-2.306865965947509">
        <ele>1085.7</ele>
        <time>2010-12-28T12:07:36Z</time>
      </trkpt>
      <trkpt lat="33.861215030774474" lon="-2.3072549700737">
        <ele>1084</ele>
        <time>2010-12-28T12:07:44Z</time>
      </trkpt>
      <trkpt lat="33.861145963892341" lon="-2.307328982278705">
        <ele>1081.0999999999999</ele>
        <time>2010-12-28T12:38:53Z</time>
      </trkpt>
      <trkpt lat="33.860770035535097" lon="-2.307537021115422">
        <ele>1081.0999999999999</ele>
        <time>2010-12-28T12:39:01Z</time>
      </trkpt>
      <trkpt lat="33.85918996296823" lon="-2.308574030175805">
        <ele>1081.0999999999999</ele>
        <time>2010-12-28T12:39:22Z</time>
      </trkpt>
      <trkpt lat="33.85910295881331" lon="-2.308601019904017">
        <ele>1081.0999999999999</ele>
        <time>2010-12-28T12:39:23Z</time>
      </trkpt>
      <trkpt lat="33.858930040150881" lon="-2.308619040995836">
        <ele>1081.3</ele>
        <time>2010-12-28T12:39:25Z</time>
      </trkpt>
      <trkpt lat="33.85875603184104" lon="-2.308582998812199">
        <ele>1081.5999999999999</ele>
        <time>2010-12-28T12:39:27Z</time>
      </trkpt>
      <trkpt lat="33.858402986079454" lon="-2.308466993272305">
        <ele>1081.9000000000001</ele>
        <time>2010-12-28T12:39:31Z</time>
      </trkpt>
      <trkpt lat="33.858308019116521" lon="-2.308455007150769">
        <ele>1081.9000000000001</ele>
        <time>2010-12-28T12:39:33Z</time>
      </trkpt>
      <trkpt lat="33.857913985848427" lon="-2.308401027694345">
        <ele>1082.2</ele>
        <time>2010-12-28T12:39:36Z</time>
      </trkpt>
      <trkpt lat="33.85781398974359" lon="-2.308372026309371">
        <ele>1082.3</ele>
        <time>2010-12-28T12:39:38Z</time>
      </trkpt>
      <trkpt lat="33.857204960659146" lon="-2.308169016614556">
        <ele>1082.4000000000001</ele>
        <time>2010-12-28T12:39:44Z</time>
      </trkpt>
      <trkpt lat="33.857101025059819" lon="-2.308164993301034">
        <ele>1082.5</ele>
        <time>2010-12-28T12:39:44Z</time>
      </trkpt>
      <trkpt lat="33.856430975720286" lon="-2.308203969150782">
        <ele>1083.2</ele>
        <time>2010-12-28T12:39:51Z</time>
      </trkpt>
      <trkpt lat="33.856074996292591" lon="-2.308276975527406">
        <ele>1083.3</ele>
        <time>2010-12-28T12:39:54Z</time>
      </trkpt>
      <trkpt lat="33.855061959475279" lon="-2.308488031849265">
        <ele>1083.4000000000001</ele>
        <time>2010-12-28T12:40:03Z</time>
      </trkpt>
      <trkpt lat="33.854963975027204" lon="-2.308491971343756">
        <ele>1083.5</ele>
        <time>2010-12-28T12:40:03Z</time>
      </trkpt>
      <trkpt lat="33.854681001976132" lon="-2.308480991050601">
        <ele>1083.5999999999999</ele>
        <time>2010-12-28T12:40:06Z</time>
      </trkpt>
      <trkpt lat="33.854580000042915" lon="-2.308504963293672">
        <ele>1083.5</ele>
        <time>2010-12-28T12:40:07Z</time>
      </trkpt>
      <trkpt lat="33.849688991904259" lon="-2.309841038659215">
        <ele>1083.0999999999999</ele>
        <time>2010-12-28T12:40:47Z</time>
      </trkpt>
      <trkpt lat="33.849559994414449" lon="-2.309845983982086">
        <ele>1083.2</ele>
        <time>2010-12-28T12:40:48Z</time>
      </trkpt>
      <trkpt lat="33.849428985267878" lon="-2.309841038659215">
        <ele>1083.3</ele>
        <time>2010-12-28T12:40:48Z</time>
      </trkpt>
      <trkpt lat="33.848340008407831" lon="-2.30976602062583">
        <ele>1083.9000000000001</ele>
        <time>2010-12-28T12:40:56Z</time>
      </trkpt>
      <trkpt lat="33.846791032701731" lon="-2.309523029252887">
        <ele>1084.5999999999999</ele>
        <time>2010-12-28T12:41:09Z</time>
      </trkpt>
      <trkpt lat="33.843429973348975" lon="-2.30901500210166">
        <ele>1085.9000000000001</ele>
        <time>2010-12-28T12:41:32Z</time>
      </trkpt>
      <trkpt lat="33.843293013051152" lon="-2.309026988223195">
        <ele>1085.9000000000001</ele>
        <time>2010-12-28T12:41:34Z</time>
      </trkpt>
      <trkpt lat="33.843020014464855" lon="-2.309085996821523">
        <ele>1085.7</ele>
        <time>2010-12-28T12:41:35Z</time>
      </trkpt>
      <trkpt lat="33.841394009068608" lon="-2.30942202731967">
        <ele>1085.5</ele>
        <time>2010-12-28T12:41:48Z</time>
      </trkpt>
      <trkpt lat="33.841254031285644" lon="-2.309433007612824">
        <ele>1085.5</ele>
        <time>2010-12-28T12:41:48Z</time>
      </trkpt>
      <trkpt lat="33.837781995534897" lon="-2.309796027839184">
        <ele>1085.0999999999999</ele>
        <time>2010-12-28T12:42:12Z</time>
      </trkpt>
      <trkpt lat="33.837635982781649" lon="-2.309838021174073">
        <ele>1085</ele>
        <time>2010-12-28T12:42:13Z</time>
      </trkpt>
      <trkpt lat="33.836246011778712" lon="-2.310205986723304">
        <ele>1084.5999999999999</ele>
        <time>2010-12-28T12:42:24Z</time>
      </trkpt>
      <trkpt lat="33.836108967661858" lon="-2.310215961188078">
        <ele>1084.7</ele>
        <time>2010-12-28T12:42:25Z</time>
      </trkpt>
      <trkpt lat="33.835971001535654" lon="-2.310214033350349">
        <ele>1084.8</ele>
        <time>2010-12-28T12:42:26Z</time>
      </trkpt>
      <trkpt lat="33.832615977153182" lon="-2.31036800891161">
        <ele>1086.3</ele>
        <time>2010-12-28T12:42:49Z</time>
      </trkpt>
      <trkpt lat="33.83188197389245" lon="-2.310503963381052">
        <ele>1086.0999999999999</ele>
        <time>2010-12-28T12:42:54Z</time>
      </trkpt>
      <trkpt lat="33.825018033385277" lon="-2.311816988512874">
        <ele>1087</ele>
        <time>2010-12-28T12:43:43Z</time>
      </trkpt>
      <trkpt lat="33.824883000925183" lon="-2.311820005998015">
        <ele>1087.2</ele>
        <time>2010-12-28T12:43:44Z</time>
      </trkpt>
      <trkpt lat="33.822043966501951" lon="-2.311870967969298">
        <ele>1088.4000000000001</ele>
        <time>2010-12-28T12:44:06Z</time>
      </trkpt>
      <trkpt lat="33.821900971233845" lon="-2.31185101903975">
        <ele>1088.5</ele>
        <time>2010-12-28T12:44:06Z</time>
      </trkpt>
      <trkpt lat="33.819198980927467" lon="-2.311342991888523">
        <ele>1089.4000000000001</ele>
        <time>2010-12-28T12:44:24Z</time>
      </trkpt>
      <trkpt lat="33.818140011280775" lon="-2.311010984703898">
        <ele>1089.0999999999999</ele>
        <time>2010-12-28T12:44:32Z</time>
      </trkpt>
      <trkpt lat="33.817269969731569" lon="-2.310676965862513">
        <ele>1088.9000000000001</ele>
        <time>2010-12-28T12:44:37Z</time>
      </trkpt>
      <trkpt lat="33.817014992237091" lon="-2.310547968372703">
        <ele>1088.8</ele>
        <time>2010-12-28T12:44:40Z</time>
      </trkpt>
      <trkpt lat="33.816053001210093" lon="-2.309989985078573">
        <ele>1088.4000000000001</ele>
        <time>2010-12-28T12:44:53Z</time>
      </trkpt>
      <trkpt lat="33.814735030755401" lon="-2.308933027088642">
        <ele>1087.5</ele>
        <time>2010-12-28T12:45:22Z</time>
      </trkpt>
      <trkpt lat="33.814380979165435" lon="-2.308646030724049">
        <ele>1087.4000000000001</ele>
        <time>2010-12-28T12:45:26Z</time>
      </trkpt>
      <trkpt lat="33.814276037737727" lon="-2.308589033782482">
        <ele>1087.4000000000001</ele>
        <time>2010-12-28T12:45:27Z</time>
      </trkpt>
      <trkpt lat="33.812407040968537" lon="-2.307478012517095">
        <ele>1087.3</ele>
        <time>2010-12-28T12:45:44Z</time>
      </trkpt>
      <trkpt lat="33.812292963266373" lon="-2.307448005303741">
        <ele>1087.3</ele>
        <time>2010-12-28T12:45:45Z</time>
      </trkpt>
      <trkpt lat="33.809382012113929" lon="-2.307048020884395">
        <ele>1089.7</ele>
        <time>2010-12-28T12:46:08Z</time>
      </trkpt>
      <trkpt lat="33.806243995204568" lon="-2.306852973997593">
        <ele>1091.5</ele>
        <time>2010-12-28T12:46:33Z</time>
      </trkpt>
      <trkpt lat="33.806125978007913" lon="-2.306863032281399">
        <ele>1091.5</ele>
        <time>2010-12-28T12:46:35Z</time>
      </trkpt>
      <trkpt lat="33.805767986923456" lon="-2.306905025616288">
        <ele>1091.5999999999999</ele>
        <time>2010-12-28T12:46:37Z</time>
      </trkpt>
      <trkpt lat="33.80564502440393" lon="-2.306897984817624">
        <ele>1091.7</ele>
        <time>2010-12-28T12:46:39Z</time>
      </trkpt>
      <trkpt lat="33.802202995866537" lon="-2.306640995666385">
        <ele>1092.8</ele>
        <time>2010-12-28T12:47:04Z</time>
      </trkpt>
      <trkpt lat="33.802089001983404" lon="-2.306662034243345">
        <ele>1092.9000000000001</ele>
        <time>2010-12-28T12:47:05Z</time>
      </trkpt>
      <trkpt lat="33.801974002271891" lon="-2.306694975122809">
        <ele>1092.9000000000001</ele>
        <time>2010-12-28T12:47:07Z</time>
      </trkpt>
      <trkpt lat="33.800010960549116" lon="-2.307405006140471">
        <ele>1092.8</ele>
        <time>2010-12-28T12:47:22Z</time>
      </trkpt>
      <trkpt lat="33.796503972262144" lon="-2.308670002967119">
        <ele>1092.5999999999999</ele>
        <time>2010-12-28T12:47:49Z</time>
      </trkpt>
      <trkpt lat="33.796376986429095" lon="-2.308696992695332">
        <ele>1092.5999999999999</ele>
        <time>2010-12-28T12:47:50Z</time>
      </trkpt>
      <trkpt lat="33.796248994767666" lon="-2.308719037100673">
        <ele>1092.5999999999999</ele>
        <time>2010-12-28T12:47:50Z</time>
      </trkpt>
      <trkpt lat="33.794462978839874" lon="-2.308894973248243">
        <ele>1092.7</ele>
        <time>2010-12-28T12:48:03Z</time>
      </trkpt>
      <trkpt lat="33.792891036719084" lon="-2.308791959658265">
        <ele>1093.2</ele>
        <time>2010-12-28T12:48:14Z</time>
      </trkpt>
      <trkpt lat="33.792609991505742" lon="-2.308745021000505">
        <ele>1093.2</ele>
        <time>2010-12-28T12:48:16Z</time>
      </trkpt>
      <trkpt lat="33.792188968509436" lon="-2.308633960783482">
        <ele>1093.4000000000001</ele>
        <time>2010-12-28T12:48:19Z</time>
      </trkpt>
      <trkpt lat="33.788327006623149" lon="-2.307855030521751">
        <ele>1094</ele>
        <time>2010-12-28T12:48:45Z</time>
      </trkpt>
      <trkpt lat="33.78817898221314" lon="-2.307843966409564">
        <ele>1094</ele>
        <time>2010-12-28T12:48:47Z</time>
      </trkpt>
      <trkpt lat="33.785906983539462" lon="-2.307711029425263">
        <ele>1094.0999999999999</ele>
        <time>2010-12-28T12:49:02Z</time>
      </trkpt>
      <trkpt lat="33.785758037120104" lon="-2.307680016383529">
        <ele>1094</ele>
        <time>2010-12-28T12:49:03Z</time>
      </trkpt>
      <trkpt lat="33.78489201888442" lon="-2.307536015287042">
        <ele>1094</ele>
        <time>2010-12-28T12:49:09Z</time>
      </trkpt>
      <trkpt lat="33.784755980595946" lon="-2.307536015287042">
        <ele>1093.9000000000001</ele>
        <time>2010-12-28T12:49:10Z</time>
      </trkpt>
      <trkpt lat="33.784624971449375" lon="-2.307552024722099">
        <ele>1094</ele>
        <time>2010-12-28T12:49:11Z</time>
      </trkpt>
      <trkpt lat="33.784497985616326" lon="-2.307582031935453">
        <ele>1093.9000000000001</ele>
        <time>2010-12-28T12:49:13Z</time>
      </trkpt>
      <trkpt lat="33.784253988415003" lon="-2.307679010555148">
        <ele>1093.9000000000001</ele>
        <time>2010-12-28T12:49:14Z</time>
      </trkpt>
      <trkpt lat="33.784133959561586" lon="-2.307738019153476">
        <ele>1093.9000000000001</ele>
        <time>2010-12-28T12:49:15Z</time>
      </trkpt>
      <trkpt lat="33.784018037840724" lon="-2.307804990559816">
        <ele>1093.8</ele>
        <time>2010-12-28T12:49:16Z</time>
      </trkpt>
      <trkpt lat="33.783783009275794" lon="-2.307982016354799">
        <ele>1093.5999999999999</ele>
        <time>2010-12-28T12:49:18Z</time>
      </trkpt>
      <trkpt lat="33.782782964408398" lon="-2.308841999620199">
        <ele>1092.8</ele>
        <time>2010-12-28T12:49:27Z</time>
      </trkpt>
      <trkpt lat="33.782692020758986" lon="-2.308941995725036">
        <ele>1092.8</ele>
        <time>2010-12-28T12:49:28Z</time>
      </trkpt>
      <trkpt lat="33.78220796585083" lon="-2.30946796014905">
        <ele>1092.4000000000001</ele>
        <time>2010-12-28T12:49:34Z</time>
      </trkpt>
      <trkpt lat="33.782102018594742" lon="-2.309555970132351">
        <ele>1092.3</ele>
        <time>2010-12-28T12:49:35Z</time>
      </trkpt>
      <trkpt lat="33.78199003636837" lon="-2.309628976508975">
        <ele>1092.2</ele>
        <time>2010-12-28T12:49:35Z</time>
      </trkpt>
      <trkpt lat="33.781874030828476" lon="-2.309682033956051">
        <ele>1092.0999999999999</ele>
        <time>2010-12-28T12:49:36Z</time>
      </trkpt>
      <trkpt lat="33.781752996146679" lon="-2.30972302146256">
        <ele>1092.0999999999999</ele>
        <time>2010-12-28T12:49:38Z</time>
      </trkpt>
      <trkpt lat="33.781395005062222" lon="-2.309827962890267">
        <ele>1092.0999999999999</ele>
        <time>2010-12-28T12:49:40Z</time>
      </trkpt>
      <trkpt lat="33.781285034492612" lon="-2.309887977316976">
        <ele>1092</ele>
        <time>2010-12-28T12:49:41Z</time>
      </trkpt>
      <trkpt lat="33.781172968447208" lon="-2.309966012835503">
        <ele>1092</ele>
        <time>2010-12-28T12:49:43Z</time>
      </trkpt>
      <trkpt lat="33.780856970697641" lon="-2.310229958966374">
        <ele>1091.8</ele>
        <time>2010-12-28T12:49:45Z</time>
      </trkpt>
      <trkpt lat="33.780767032876611" lon="-2.310320986434817">
        <ele>1091.8</ele>
        <time>2010-12-28T12:49:47Z</time>
      </trkpt>
      <trkpt lat="33.780691009014845" lon="-2.310421988368034">
        <ele>1091.7</ele>
        <time>2010-12-28T12:49:48Z</time>
      </trkpt>
      <trkpt lat="33.780624959617853" lon="-2.31054000556469">
        <ele>1091.5999999999999</ele>
        <time>2010-12-28T12:49:49Z</time>
      </trkpt>
      <trkpt lat="33.778986968100071" lon="-2.313778018578887">
        <ele>1090.5</ele>
        <time>2010-12-28T12:50:12Z</time>
      </trkpt>
      <trkpt lat="33.778895018622279" lon="-2.313897963613272">
        <ele>1090.4000000000001</ele>
        <time>2010-12-28T12:50:12Z</time>
      </trkpt>
      <trkpt lat="33.77879099920392" lon="-2.314012041315436">
        <ele>1090.4000000000001</ele>
        <time>2010-12-28T12:50:13Z</time>
      </trkpt>
      <trkpt lat="33.778679016977549" lon="-2.314123017713428">
        <ele>1090.4000000000001</ele>
        <time>2010-12-28T12:50:14Z</time>
      </trkpt>
      <trkpt lat="33.778307028114796" lon="-2.31442803516984">
        <ele>1090.3</ele>
        <time>2010-12-28T12:50:17Z</time>
      </trkpt>
      <trkpt lat="33.778179036453366" lon="-2.314519984647632">
        <ele>1090.3</ele>
        <time>2010-12-28T12:50:18Z</time>
      </trkpt>
      <trkpt lat="33.778044003993273" lon="-2.314601959660649">
        <ele>1090.3</ele>
        <time>2010-12-28T12:50:19Z</time>
      </trkpt>
      <trkpt lat="33.777486020699143" lon="-2.314864983782172">
        <ele>1090.4000000000001</ele>
        <time>2010-12-28T12:50:23Z</time>
      </trkpt>
      <trkpt lat="33.777345037087798" lon="-2.314918041229248">
        <ele>1090.4000000000001</ele>
        <time>2010-12-28T12:50:24Z</time>
      </trkpt>
      <trkpt lat="33.777202041819692" lon="-2.314958022907376">
        <ele>1090.4000000000001</ele>
        <time>2010-12-28T12:50:25Z</time>
      </trkpt>
      <trkpt lat="33.777059968560934" lon="-2.314979983493686">
        <ele>1090.4000000000001</ele>
        <time>2010-12-28T12:50:27Z</time>
      </trkpt>
      <trkpt lat="33.776916973292828" lon="-2.314983000978828">
        <ele>1090.5</ele>
        <time>2010-12-28T12:50:27Z</time>
      </trkpt>
      <trkpt lat="33.77677196636796" lon="-2.314970009028912">
        <ele>1090.5999999999999</ele>
        <time>2010-12-28T12:50:28Z</time>
      </trkpt>
      <trkpt lat="33.776628971099854" lon="-2.31494503095746">
        <ele>1090.7</ele>
        <time>2010-12-28T12:50:29Z</time>
      </trkpt>
      <trkpt lat="33.774044997990131" lon="-2.314429963007569">
        <ele>1091.7</ele>
        <time>2010-12-28T12:50:47Z</time>
      </trkpt>
      <trkpt lat="33.77378499135375" lon="-2.314346982166171">
        <ele>1091.8</ele>
        <time>2010-12-28T12:50:50Z</time>
      </trkpt>
      <trkpt lat="33.773295991122723" lon="-2.314201975241303">
        <ele>1092</ele>
        <time>2010-12-28T12:50:53Z</time>
      </trkpt>
      <trkpt lat="33.773173028603196" lon="-2.314190994948149">
        <ele>1092</ele>
        <time>2010-12-28T12:50:55Z</time>
      </trkpt>
      <trkpt lat="33.772668018937111" lon="-2.314196024090052">
        <ele>1092.0999999999999</ele>
        <time>2010-12-28T12:50:58Z</time>
      </trkpt>
      <trkpt lat="33.772412035614252" lon="-2.314229970797896">
        <ele>1092.3</ele>
        <time>2010-12-28T12:51:00Z</time>
      </trkpt>
      <trkpt lat="33.76989402808249" lon="-2.314728023484349">
        <ele>1093.4000000000001</ele>
        <time>2010-12-28T12:51:18Z</time>
      </trkpt>
      <trkpt lat="33.769754972308874" lon="-2.314727017655969">
        <ele>1093.5</ele>
        <time>2010-12-28T12:51:19Z</time>
      </trkpt>
      <trkpt lat="33.769360017031431" lon="-2.3147530015558">
        <ele>1093.5999999999999</ele>
        <time>2010-12-28T12:51:22Z</time>
      </trkpt>
      <trkpt lat="33.769233031198382" lon="-2.314777979627252">
        <ele>1093.7</ele>
        <time>2010-12-28T12:51:23Z</time>
      </trkpt>
      <trkpt lat="33.768299035727978" lon="-2.31498702429235">
        <ele>1093.9000000000001</ele>
        <time>2010-12-28T12:51:31Z</time>
      </trkpt>
      <trkpt lat="33.768157968297601" lon="-2.31498803012073">
        <ele>1093.9000000000001</ele>
        <time>2010-12-28T12:51:31Z</time>
      </trkpt>
      <trkpt lat="33.767722025513649" lon="-2.314958022907376">
        <ele>1094</ele>
        <time>2010-12-28T12:51:35Z</time>
      </trkpt>
      <trkpt lat="33.767431005835533" lon="-2.314907982945442">
        <ele>1093.9000000000001</ele>
        <time>2010-12-28T12:51:36Z</time>
      </trkpt>
      <trkpt lat="33.767007971182466" lon="-2.314789965748787">
        <ele>1093.7</ele>
        <time>2010-12-28T12:51:40Z</time>
      </trkpt>
      <trkpt lat="33.765851017087698" lon="-2.314495006576181">
        <ele>1094.0999999999999</ele>
        <time>2010-12-28T12:51:48Z</time>
      </trkpt>
      <trkpt lat="33.765698969364166" lon="-2.314486037939787">
        <ele>1094</ele>
        <time>2010-12-28T12:51:48Z</time>
      </trkpt>
      <trkpt lat="33.763687983155251" lon="-2.314470028504729">
        <ele>1093.4000000000001</ele>
        <time>2010-12-28T12:52:02Z</time>
      </trkpt>
      <trkpt lat="33.764100959524512" lon="-2.314424011856318">
        <ele>1093.4000000000001</ele>
        <time>2010-12-28T12:52:03Z</time>
      </trkpt>
      <trkpt lat="33.763556974008679" lon="-2.314511016011238">
        <ele>1093.4000000000001</ele>
        <time>2010-12-28T12:52:03Z</time>
      </trkpt>
      <trkpt lat="33.760990016162395" lon="-2.31513999402523">
        <ele>1093.8</ele>
        <time>2010-12-28T12:52:23Z</time>
      </trkpt>
      <trkpt lat="33.760860012844205" lon="-2.315192967653275">
        <ele>1093.9000000000001</ele>
        <time>2010-12-28T12:52:24Z</time>
      </trkpt>
      <trkpt lat="33.7583770416677" lon="-2.316289991140366">
        <ele>1093.9000000000001</ele>
        <time>2010-12-28T12:52:44Z</time>
      </trkpt>
      <trkpt lat="33.758260030299425" lon="-2.316368026658893">
        <ele>1093.8</ele>
        <time>2010-12-28T12:52:45Z</time>
      </trkpt>
      <trkpt lat="33.758029025048018" lon="-2.316511021926999">
        <ele>1093.8</ele>
        <time>2010-12-28T12:52:46Z</time>
      </trkpt>
      <trkpt lat="33.757912013679743" lon="-2.316546980291605">
        <ele>1093.7</ele>
        <time>2010-12-28T12:52:47Z</time>
      </trkpt>
      <trkpt lat="33.75779902562499" lon="-2.316563995555043">
        <ele>1093.5999999999999</ele>
        <time>2010-12-28T12:52:48Z</time>
      </trkpt>
      <trkpt lat="33.757688971236348" lon="-2.316559972241521">
        <ele>1093.5</ele>
        <time>2010-12-28T12:52:50Z</time>
      </trkpt>
      <trkpt lat="33.757577994838357" lon="-2.316540023311973">
        <ele>1093.5</ele>
        <time>2010-12-28T12:52:51Z</time>
      </trkpt>
      <trkpt lat="33.757468024268746" lon="-2.316514039412141">
        <ele>1093.5</ele>
        <time>2010-12-28T12:52:52Z</time>
      </trkpt>
      <trkpt lat="33.757358975708485" lon="-2.316480008885264">
        <ele>1093.5</ele>
        <time>2010-12-28T12:52:53Z</time>
      </trkpt>
      <trkpt lat="33.757137022912502" lon="-2.316382024437189">
        <ele>1093.5999999999999</ele>
        <time>2010-12-28T12:52:54Z</time>
      </trkpt>
      <trkpt lat="33.757029986009002" lon="-2.316324021667242">
        <ele>1093.7</ele>
        <time>2010-12-28T12:52:55Z</time>
      </trkpt>
      <trkpt lat="33.756085010245442" lon="-2.31580501422286">
        <ele>1093.7</ele>
        <time>2010-12-28T12:53:04Z</time>
      </trkpt>
      <trkpt lat="33.755986019968987" lon="-2.315785987302661">
        <ele>1093.5999999999999</ele>
        <time>2010-12-28T12:53:06Z</time>
      </trkpt>
      <trkpt lat="33.755889041349292" lon="-2.31578498147428">
        <ele>1093.5999999999999</ele>
        <time>2010-12-28T12:53:07Z</time>
      </trkpt>
      <trkpt lat="33.755788039416075" lon="-2.315797973424196">
        <ele>1093.5999999999999</ele>
        <time>2010-12-28T12:53:07Z</time>
      </trkpt>
      <trkpt lat="33.754771985113621" lon="-2.315953960642219">
        <ele>1093.5</ele>
        <time>2010-12-28T12:53:16Z</time>
      </trkpt>
      <trkpt lat="33.754643993452191" lon="-2.31595303863287">
        <ele>1093.5</ele>
        <time>2010-12-28T12:53:17Z</time>
      </trkpt>
      <trkpt lat="33.754514995962381" lon="-2.315947003662586">
        <ele>1093.5999999999999</ele>
        <time>2010-12-28T12:53:18Z</time>
      </trkpt>
      <trkpt lat="33.754389015957713" lon="-2.315925965085626">
        <ele>1093.7</ele>
        <time>2010-12-28T12:53:19Z</time>
      </trkpt>
      <trkpt lat="33.753775041550398" lon="-2.315864022821188">
        <ele>1094.0999999999999</ele>
        <time>2010-12-28T12:53:24Z</time>
      </trkpt>
      <trkpt lat="33.752340981736779" lon="-2.315876008942723">
        <ele>1094.3</ele>
        <time>2010-12-28T12:53:36Z</time>
      </trkpt>
      <trkpt lat="33.752222964540124" lon="-2.3158910125494">
        <ele>1094.4000000000001</ele>
        <time>2010-12-28T12:53:37Z</time>
      </trkpt>
      <trkpt lat="33.7521050311625" lon="-2.315921019762754">
        <ele>1094.4000000000001</ele>
        <time>2010-12-28T12:53:37Z</time>
      </trkpt>
      <trkpt lat="33.750605005770922" lon="-2.316296026110649">
        <ele>1095.2</ele>
        <time>2010-12-28T12:53:48Z</time>
      </trkpt>
      <trkpt lat="33.750458993017673" lon="-2.316310023888946">
        <ele>1095.2</ele>
        <time>2010-12-28T12:53:50Z</time>
      </trkpt>
      <trkpt lat="33.748235022649169" lon="-2.31646902859211">
        <ele>1095.5999999999999</ele>
        <time>2010-12-28T12:54:04Z</time>
      </trkpt>
      <trkpt lat="33.747351989150047" lon="-2.316442038863897">
        <ele>1095.5</ele>
        <time>2010-12-28T12:54:11Z</time>
      </trkpt>
      <trkpt lat="33.747217962518334" lon="-2.31642896309495">
        <ele>1095.5</ele>
        <time>2010-12-28T12:54:11Z</time>
      </trkpt>
      <trkpt lat="33.747089970856905" lon="-2.316401973366737">
        <ele>1095.4000000000001</ele>
        <time>2010-12-28T12:54:12Z</time>
      </trkpt>
      <trkpt lat="33.746966002508998" lon="-2.316360985860229">
        <ele>1095.5</ele>
        <time>2010-12-28T12:54:13Z</time>
      </trkpt>
      <trkpt lat="33.746245997026563" lon="-2.316103996708989">
        <ele>1095</ele>
        <time>2010-12-28T12:54:19Z</time>
      </trkpt>
      <trkpt lat="33.746115993708372" lon="-2.316098967567086">
        <ele>1095</ele>
        <time>2010-12-28T12:54:20Z</time>
      </trkpt>
      <trkpt lat="33.74598397873342" lon="-2.31610600836575">
        <ele>1095.0999999999999</ele>
        <time>2010-12-28T12:54:21Z</time>
      </trkpt>
      <trkpt lat="33.745262967422605" lon="-2.316035013645887">
        <ele>1095.3</ele>
        <time>2010-12-28T12:54:26Z</time>
      </trkpt>
      <trkpt lat="33.744791988283396" lon="-2.315896041691303">
        <ele>1095.2</ele>
        <time>2010-12-28T12:54:29Z</time>
      </trkpt>
      <trkpt lat="33.743863021954894" lon="-2.315559005364776">
        <ele>1095.2</ele>
        <time>2010-12-28T12:54:36Z</time>
      </trkpt>
      <trkpt lat="33.743303027004004" lon="-2.315349960699678">
        <ele>1094.9000000000001</ele>
        <time>2010-12-28T12:54:39Z</time>
      </trkpt>
      <trkpt lat="33.743169000372291" lon="-2.315338980406523">
        <ele>1094.8</ele>
        <time>2010-12-28T12:54:40Z</time>
      </trkpt>
      <trkpt lat="33.743035979568958" lon="-2.315352978184819">
        <ele>1094.7</ele>
        <time>2010-12-28T12:54:41Z</time>
      </trkpt>
      <trkpt lat="33.742902036756277" lon="-2.315383991226554">
        <ele>1094.9000000000001</ele>
        <time>2010-12-28T12:54:43Z</time>
      </trkpt>
      <trkpt lat="33.74097797088325" lon="-2.315959995612502">
        <ele>1095.7</ele>
        <time>2010-12-28T12:54:57Z</time>
      </trkpt>
      <trkpt lat="33.740850985050201" lon="-2.315965024754405">
        <ele>1095.7</ele>
        <time>2010-12-28T12:54:58Z</time>
      </trkpt>
      <trkpt lat="33.740723999217153" lon="-2.315959995612502">
        <ele>1095.8</ele>
        <time>2010-12-28T12:54:58Z</time>
      </trkpt>
      <trkpt lat="33.740341030061245" lon="-2.315942980349064">
        <ele>1095.7</ele>
        <time>2010-12-28T12:55:01Z</time>
      </trkpt>
      <trkpt lat="33.740213960409164" lon="-2.315967036411166">
        <ele>1095.8</ele>
        <time>2010-12-28T12:55:02Z</time>
      </trkpt>
      <trkpt lat="33.73814002610743" lon="-2.316481014713645">
        <ele>1096.0999999999999</ele>
        <time>2010-12-28T12:55:19Z</time>
      </trkpt>
      <trkpt lat="33.738025026395917" lon="-2.316528037190437">
        <ele>1096.0999999999999</ele>
        <time>2010-12-28T12:55:19Z</time>
      </trkpt>
      <trkpt lat="33.737921006977558" lon="-2.316586039960384">
        <ele>1096.0999999999999</ele>
        <time>2010-12-28T12:55:20Z</time>
      </trkpt>
      <trkpt lat="33.737830985337496" lon="-2.316652005538344">
        <ele>1096</ele>
        <time>2010-12-28T12:55:21Z</time>
      </trkpt>
      <trkpt lat="33.737278031185269" lon="-2.317089959979057">
        <ele>1095.5</ele>
        <time>2010-12-28T12:55:28Z</time>
      </trkpt>
      <trkpt lat="33.737118020653725" lon="-2.317152991890907">
        <ele>1095.5</ele>
        <time>2010-12-28T12:55:30Z</time>
      </trkpt>
      <trkpt lat="33.736805962398648" lon="-2.317234966903925">
        <ele>1095.5999999999999</ele>
        <time>2010-12-28T12:55:34Z</time>
      </trkpt>
      <trkpt lat="33.736132979393005" lon="-2.317253993824124">
        <ele>1095.2</ele>
        <time>2010-12-28T12:55:43Z</time>
      </trkpt>
      <trkpt lat="33.736003981903195" lon="-2.317237984389067">
        <ele>1095.0999999999999</ele>
        <time>2010-12-28T12:55:45Z</time>
      </trkpt>
      <trkpt lat="33.735898034647107" lon="-2.3172000143677">
        <ele>1095</ele>
        <time>2010-12-28T12:55:48Z</time>
      </trkpt>
      <trkpt lat="33.735047020018101" lon="-2.316897008568049">
        <ele>1094.9000000000001</ele>
        <time>2010-12-28T12:55:59Z</time>
      </trkpt>
      <trkpt lat="33.734679976478219" lon="-2.316826013848186">
        <ele>1094.5999999999999</ele>
        <time>2010-12-28T12:56:03Z</time>
      </trkpt>
      <trkpt lat="33.732470003888011" lon="-2.316544968634844">
        <ele>1095.5999999999999</ele>
        <time>2010-12-28T12:56:24Z</time>
      </trkpt>
      <trkpt lat="33.73197597451508" lon="-2.31655502691865">
        <ele>1095.4000000000001</ele>
        <time>2010-12-28T12:56:28Z</time>
      </trkpt>
      <trkpt lat="33.72804100625217" lon="-2.316853003576398">
        <ele>1096.9000000000001</ele>
        <time>2010-12-28T12:56:59Z</time>
      </trkpt>
      <trkpt lat="33.727907985448837" lon="-2.316822996363044">
        <ele>1097</ele>
        <time>2010-12-28T12:57:00Z</time>
      </trkpt>
      <trkpt lat="33.722528982907534" lon="-2.315647015348077">
        <ele>1096.9000000000001</ele>
        <time>2010-12-28T12:57:40Z</time>
      </trkpt>
      <trkpt lat="33.722389005124569" lon="-2.315588006749749">
        <ele>1096.8</ele>
        <time>2010-12-28T12:57:41Z</time>
      </trkpt>
      <trkpt lat="33.719980968162417" lon="-2.314510010182858">
        <ele>1096.9000000000001</ele>
        <time>2010-12-28T12:57:58Z</time>
      </trkpt>
      <trkpt lat="33.719860017299652" lon="-2.314429963007569">
        <ele>1096.9000000000001</ele>
        <time>2010-12-28T12:57:59Z</time>
      </trkpt>
      <trkpt lat="33.718758970499039" lon="-2.313672993332148">
        <ele>1097.5</ele>
        <time>2010-12-28T12:58:07Z</time>
      </trkpt>
      <trkpt lat="33.718643970787525" lon="-2.313565034419298">
        <ele>1097.5</ele>
        <time>2010-12-28T12:58:08Z</time>
      </trkpt>
      <trkpt lat="33.71809403412044" lon="-2.31298903003335">
        <ele>1097.5</ele>
        <time>2010-12-28T12:58:13Z</time>
      </trkpt>
      <trkpt lat="33.717897981405258" lon="-2.312744027003646">
        <ele>1097.5999999999999</ele>
        <time>2010-12-28T12:58:15Z</time>
      </trkpt>
      <trkpt lat="33.717803014442325" lon="-2.312614023685455">
        <ele>1097.5999999999999</ele>
        <time>2010-12-28T12:58:16Z</time>
      </trkpt>
      <trkpt lat="33.716743038967252" lon="-2.311317007988691">
        <ele>1097.3</ele>
        <time>2010-12-28T12:58:26Z</time>
      </trkpt>
      <trkpt lat="33.716501975432038" lon="-2.311135958880186">
        <ele>1097.4000000000001</ele>
        <time>2010-12-28T12:58:28Z</time>
      </trkpt>
      <trkpt lat="33.716379012912512" lon="-2.311063036322594">
        <ele>1097.3</ele>
        <time>2010-12-28T12:58:29Z</time>
      </trkpt>
      <trkpt lat="33.716133004054427" lon="-2.310945019125938">
        <ele>1097.4000000000001</ele>
        <time>2010-12-28T12:58:31Z</time>
      </trkpt>
      <trkpt lat="33.716007024049759" lon="-2.310897996649146">
        <ele>1097.5</ele>
        <time>2010-12-28T12:58:32Z</time>
      </trkpt>
      <trkpt lat="33.715609973296523" lon="-2.310804035514593">
        <ele>1097.8</ele>
        <time>2010-12-28T12:58:36Z</time>
      </trkpt>
      <trkpt lat="33.714910000562668" lon="-2.31064603663981">
        <ele>1098.3</ele>
        <time>2010-12-28T12:58:41Z</time>
      </trkpt>
      <trkpt lat="33.714772034436464" lon="-2.310589039698243">
        <ele>1098.3</ele>
        <time>2010-12-28T12:58:42Z</time>
      </trkpt>
      <trkpt lat="33.713851030915976" lon="-2.310209004208446">
        <ele>1098.2</ele>
        <time>2010-12-28T12:58:49Z</time>
      </trkpt>
      <trkpt lat="33.713717004284263" lon="-2.310189977288246">
        <ele>1098.2</ele>
        <time>2010-12-28T12:58:49Z</time>
      </trkpt>
      <trkpt lat="33.713059024885297" lon="-2.310143960639834">
        <ele>1098.2</ele>
        <time>2010-12-28T12:58:54Z</time>
      </trkpt>
      <trkpt lat="33.711377028375864" lon="-2.31011101976037">
        <ele>1098.5</ele>
        <time>2010-12-28T12:59:07Z</time>
      </trkpt>
      <trkpt lat="33.711253982037306" lon="-2.310072965919972">
        <ele>1098.5999999999999</ele>
        <time>2010-12-28T12:59:08Z</time>
      </trkpt>
      <trkpt lat="33.711128002032638" lon="-2.310026027262211">
        <ele>1098.5999999999999</ele>
        <time>2010-12-28T12:59:09Z</time>
      </trkpt>
      <trkpt lat="33.710872018709779" lon="-2.309901975095272">
        <ele>1098.5999999999999</ele>
        <time>2010-12-28T12:59:12Z</time>
      </trkpt>
      <trkpt lat="33.71074503287673" lon="-2.309826035052538">
        <ele>1098.5999999999999</ele>
        <time>2010-12-28T12:59:13Z</time>
      </trkpt>
      <trkpt lat="33.71025200933218" lon="-2.309492016211152">
        <ele>1098.7</ele>
        <time>2010-12-28T12:59:17Z</time>
      </trkpt>
      <trkpt lat="33.710140027105808" lon="-2.309396965429187">
        <ele>1098.7</ele>
        <time>2010-12-28T12:59:18Z</time>
      </trkpt>
      <trkpt lat="33.710035001859069" lon="-2.30929302982986">
        <ele>1098.8</ele>
        <time>2010-12-28T12:59:18Z</time>
      </trkpt>
      <trkpt lat="33.708585016429424" lon="-2.307839021086693">
        <ele>1098.9000000000001</ele>
        <time>2010-12-28T12:59:31Z</time>
      </trkpt>
      <trkpt lat="33.708451995626092" lon="-2.307753022760153">
        <ele>1099</ele>
        <time>2010-12-28T12:59:32Z</time>
      </trkpt>
      <trkpt lat="33.707830980420113" lon="-2.307382961735129">
        <ele>1099.2</ele>
        <time>2010-12-28T12:59:38Z</time>
      </trkpt>
      <trkpt lat="33.707709023728967" lon="-2.307330993935466">
        <ele>1099.2</ele>
        <time>2010-12-28T12:59:39Z</time>
      </trkpt>
      <trkpt lat="33.70745899155736" lon="-2.307259999215603">
        <ele>1099</ele>
        <time>2010-12-28T12:59:41Z</time>
      </trkpt>
      <trkpt lat="33.707084991037846" lon="-2.30720903724432">
        <ele>1098.9000000000001</ele>
        <time>2010-12-28T12:59:44Z</time>
      </trkpt>
      <trkpt lat="33.706961022689939" lon="-2.307203002274036">
        <ele>1098.9000000000001</ele>
        <time>2010-12-28T12:59:45Z</time>
      </trkpt>
      <trkpt lat="33.706275969743729" lon="-2.307264022529125">
        <ele>1099.2</ele>
        <time>2010-12-28T12:59:50Z</time>
      </trkpt>
      <trkpt lat="33.704425999894738" lon="-2.307616984471679">
        <ele>1099.9000000000001</ele>
        <time>2010-12-28T13:00:02Z</time>
      </trkpt>
      <trkpt lat="33.699820982292295" lon="-2.308489037677646">
        <ele>1101.5</ele>
        <time>2010-12-28T13:00:43Z</time>
      </trkpt>
      <trkpt lat="33.699568016454577" lon="-2.308465987443924">
        <ele>1101.5999999999999</ele>
        <time>2010-12-28T13:00:46Z</time>
      </trkpt>
      <trkpt lat="33.699471037834883" lon="-2.308475039899349">
        <ele>1101.5999999999999</ele>
        <time>2010-12-28T13:00:47Z</time>
      </trkpt>
      <trkpt lat="33.699371041730046" lon="-2.308497000485659">
        <ele>1101.7</ele>
        <time>2010-12-28T13:00:48Z</time>
      </trkpt>
      <trkpt lat="33.699264004826546" lon="-2.308529019355774">
        <ele>1101.5999999999999</ele>
        <time>2010-12-28T13:00:49Z</time>
      </trkpt>
      <trkpt lat="33.699055965989828" lon="-2.308619040995836">
        <ele>1101.8</ele>
        <time>2010-12-28T13:00:51Z</time>
      </trkpt>
      <trkpt lat="33.696303013712168" lon="-2.310126023367047">
        <ele>1102.2</ele>
        <time>2010-12-28T13:01:15Z</time>
      </trkpt>
      <trkpt lat="33.696194970980287" lon="-2.310206992551684">
        <ele>1102.2</ele>
        <time>2010-12-28T13:01:16Z</time>
      </trkpt>
      <trkpt lat="33.694072002544999" lon="-2.311984039843082">
        <ele>1101.8</ele>
        <time>2010-12-28T13:01:34Z</time>
      </trkpt>
      <trkpt lat="33.69291597045958" lon="-2.313068993389607">
        <ele>1101.7</ele>
        <time>2010-12-28T13:01:45Z</time>
      </trkpt>
      <trkpt lat="33.688561990857124" lon="-2.317353989928961">
        <ele>1102.8</ele>
        <time>2010-12-28T13:02:23Z</time>
      </trkpt>
      <trkpt lat="33.688438022509217" lon="-2.317444011569023">
        <ele>1102.8</ele>
        <time>2010-12-28T13:02:24Z</time>
      </trkpt>
      <trkpt lat="33.687940975651145" lon="-2.317784987390041">
        <ele>1102.9000000000001</ele>
        <time>2010-12-28T13:02:29Z</time>
      </trkpt>
      <trkpt lat="33.687810972332954" lon="-2.317849025130272">
        <ele>1102.9000000000001</ele>
        <time>2010-12-28T13:02:30Z</time>
      </trkpt>
      <trkpt lat="33.68713203817606" lon="-2.318111965432763">
        <ele>1103.0999999999999</ele>
        <time>2010-12-28T13:02:35Z</time>
      </trkpt>
      <trkpt lat="33.68528600782156" lon="-2.31879098340869">
        <ele>1103.5999999999999</ele>
        <time>2010-12-28T13:02:48Z</time>
      </trkpt>
      <trkpt lat="33.685148963704705" lon="-2.31887698173523">
        <ele>1103.5999999999999</ele>
        <time>2010-12-28T13:02:49Z</time>
      </trkpt>
      <trkpt lat="33.680462976917624" lon="-2.321666982024908">
        <ele>1104.0999999999999</ele>
        <time>2010-12-28T13:03:25Z</time>
      </trkpt>
      <trkpt lat="33.680363986641169" lon="-2.321753986179829">
        <ele>1104.2</ele>
        <time>2010-12-28T13:03:26Z</time>
      </trkpt>
      <trkpt lat="33.680276982486248" lon="-2.321848031133413">
        <ele>1104.2</ele>
        <time>2010-12-28T13:03:27Z</time>
      </trkpt>
      <trkpt lat="33.679768033325672" lon="-2.322402996942401">
        <ele>1103.9000000000001</ele>
        <time>2010-12-28T13:03:34Z</time>
      </trkpt>
      <trkpt lat="33.679668037220836" lon="-2.322483966127038">
        <ele>1103.9000000000001</ele>
        <time>2010-12-28T13:03:35Z</time>
      </trkpt>
      <trkpt lat="33.679343992844224" lon="-2.322709020227194">
        <ele>1104</ele>
        <time>2010-12-28T13:03:38Z</time>
      </trkpt>
      <trkpt lat="33.678667992353439" lon="-2.32317597605288">
        <ele>1103.9000000000001</ele>
        <time>2010-12-28T13:03:44Z</time>
      </trkpt>
      <trkpt lat="33.678563972935081" lon="-2.323274966329336">
        <ele>1103.9000000000001</ele>
        <time>2010-12-28T13:03:44Z</time>
      </trkpt>
      <trkpt lat="33.678354006260633" lon="-2.323480993509293">
        <ele>1103.8</ele>
        <time>2010-12-28T13:03:46Z</time>
      </trkpt>
      <trkpt lat="33.678240012377501" lon="-2.323564980179071">
        <ele>1103.8</ele>
        <time>2010-12-28T13:03:47Z</time>
      </trkpt>
      <trkpt lat="33.676514010876417" lon="-2.325026029720902">
        <ele>1103.5999999999999</ele>
        <time>2010-12-28T13:04:02Z</time>
      </trkpt>
      <trkpt lat="33.675846979022026" lon="-2.325566997751594">
        <ele>1103.5</ele>
        <time>2010-12-28T13:04:08Z</time>
      </trkpt>
      <trkpt lat="33.675728039816022" lon="-2.325640004128218">
        <ele>1103.5</ele>
        <time>2010-12-28T13:04:09Z</time>
      </trkpt>
      <trkpt lat="33.672660011798143" lon="-2.328056003898382">
        <ele>1104</ele>
        <time>2010-12-28T13:04:34Z</time>
      </trkpt>
      <trkpt lat="33.66766900755465" lon="-2.332333959639072">
        <ele>1104.5999999999999</ele>
        <time>2010-12-28T13:05:17Z</time>
      </trkpt>
      <trkpt lat="33.667570017278194" lon="-2.332444014027715">
        <ele>1104.5999999999999</ele>
        <time>2010-12-28T13:05:18Z</time>
      </trkpt>
      <trkpt lat="33.667481001466513" lon="-2.332566976547241">
        <ele>1104.5999999999999</ele>
        <time>2010-12-28T13:05:18Z</time>
      </trkpt>
      <trkpt lat="33.667028965428472" lon="-2.333208024501801">
        <ele>1104.5</ele>
        <time>2010-12-28T13:05:23Z</time>
      </trkpt>
      <trkpt lat="33.666915977373719" lon="-2.333323024213314">
        <ele>1104.5</ele>
        <time>2010-12-28T13:05:24Z</time>
      </trkpt>
      <trkpt lat="33.665065001696348" lon="-2.335308026522398">
        <ele>1104.5999999999999</ele>
        <time>2010-12-28T13:05:40Z</time>
      </trkpt>
      <trkpt lat="33.662588987499475" lon="-2.338461969047785">
        <ele>1105.0999999999999</ele>
        <time>2010-12-28T13:06:03Z</time>
      </trkpt>
      <trkpt lat="33.662063023075461" lon="-2.339251041412354">
        <ele>1105.0999999999999</ele>
        <time>2010-12-28T13:06:09Z</time>
      </trkpt>
      <trkpt lat="33.6619539745152" lon="-2.339360006153584">
        <ele>1105.0999999999999</ele>
        <time>2010-12-28T13:06:10Z</time>
      </trkpt>
      <trkpt lat="33.661758005619049" lon="-2.339584976434708">
        <ele>1105</ele>
        <time>2010-12-28T13:06:12Z</time>
      </trkpt>
      <trkpt lat="33.661682987585664" lon="-2.339707016944885">
        <ele>1105</ele>
        <time>2010-12-28T13:06:13Z</time>
      </trkpt>
      <trkpt lat="33.661527000367641" lon="-2.339939028024674">
        <ele>1105</ele>
        <time>2010-12-28T13:06:15Z</time>
      </trkpt>
      <trkpt lat="33.661434967070818" lon="-2.340042963624001">
        <ele>1105.0999999999999</ele>
        <time>2010-12-28T13:06:17Z</time>
      </trkpt>
      <trkpt lat="33.659776020795107" lon="-2.341831997036934">
        <ele>1106</ele>
        <time>2010-12-28T13:06:32Z</time>
      </trkpt>
      <trkpt lat="33.659688010811806" lon="-2.341972980648279">
        <ele>1106</ele>
        <time>2010-12-28T13:06:34Z</time>
      </trkpt>
      <trkpt lat="33.65873197093606" lon="-2.343699987977743">
        <ele>1106</ele>
        <time>2010-12-28T13:06:45Z</time>
      </trkpt>
      <trkpt lat="33.658601967617869" lon="-2.344006011262536">
        <ele>1106.2</ele>
        <time>2010-12-28T13:06:47Z</time>
      </trkpt>
      <trkpt lat="33.658025963231921" lon="-2.345194984227419">
        <ele>1106.7</ele>
        <time>2010-12-28T13:06:56Z</time>
      </trkpt>
      <trkpt lat="33.657854972407222" lon="-2.345490027219057">
        <ele>1106.9000000000001</ele>
        <time>2010-12-28T13:06:58Z</time>
      </trkpt>
      <trkpt lat="33.65718400105834" lon="-2.346491999924183">
        <ele>1107.2</ele>
        <time>2010-12-28T13:07:04Z</time>
      </trkpt>
      <trkpt lat="33.654028968885541" lon="-2.35097698867321">
        <ele>1108.5999999999999</ele>
        <time>2010-12-28T13:07:36Z</time>
      </trkpt>
      <trkpt lat="33.653928972780704" lon="-2.351089976727963">
        <ele>1108.7</ele>
        <time>2010-12-28T13:07:38Z</time>
      </trkpt>
      <trkpt lat="33.652618965134025" lon="-2.352551026269794">
        <ele>1109.2</ele>
        <time>2010-12-28T13:07:52Z</time>
      </trkpt>
      <trkpt lat="33.652531960979104" lon="-2.352615986019373">
        <ele>1109.2</ele>
        <time>2010-12-28T13:07:53Z</time>
      </trkpt>
      <trkpt lat="33.652442023158073" lon="-2.352660996839404">
        <ele>1109.2</ele>
        <time>2010-12-28T13:07:54Z</time>
      </trkpt>
      <trkpt lat="33.652282012626529" lon="-2.352689998224378">
        <ele>1109.0999999999999</ele>
        <time>2010-12-28T13:07:56Z</time>
      </trkpt>
      <trkpt lat="33.652098029851913" lon="-2.352683963254094">
        <ele>1107.5999999999999</ele>
        <time>2010-12-28T13:07:59Z</time>
      </trkpt>
      <trkpt lat="33.650259040296078" lon="-2.353258961811662">
        <ele>1104.2</ele>
        <time>2010-12-28T13:08:14Z</time>
      </trkpt>
      <trkpt lat="33.649852015078068" lon="-2.353454008698463">
        <ele>1104.0999999999999</ele>
        <time>2010-12-28T13:08:17Z</time>
      </trkpt>
      <trkpt lat="33.647058997303247" lon="-2.355155032128096">
        <ele>1101.7</ele>
        <time>2010-12-28T13:08:39Z</time>
      </trkpt>
      <trkpt lat="33.646425995975733" lon="-2.355559039860964">
        <ele>1100.7</ele>
        <time>2010-12-28T13:08:43Z</time>
      </trkpt>
      <trkpt lat="33.646304039284587" lon="-2.355611007660627">
        <ele>1100.5</ele>
        <time>2010-12-28T13:08:44Z</time>
      </trkpt>
      <trkpt lat="33.64618300460279" lon="-2.355650989338756">
        <ele>1100.3</ele>
        <time>2010-12-28T13:08:46Z</time>
      </trkpt>
      <trkpt lat="33.646064987406135" lon="-2.355679990723729">
        <ele>1100</ele>
        <time>2010-12-28T13:08:47Z</time>
      </trkpt>
      <trkpt lat="33.64594797603786" lon="-2.355690971016884">
        <ele>1099.8</ele>
        <time>2010-12-28T13:08:48Z</time>
      </trkpt>
      <trkpt lat="33.645616974681616" lon="-2.35572399571538">
        <ele>1100</ele>
        <time>2010-12-28T13:08:51Z</time>
      </trkpt>
      <trkpt lat="33.645513961091638" lon="-2.35576800070703">
        <ele>1100.2</ele>
        <time>2010-12-28T13:08:52Z</time>
      </trkpt>
      <trkpt lat="33.645411031320691" lon="-2.3558300267905">
        <ele>1100.3</ele>
        <time>2010-12-28T13:08:53Z</time>
      </trkpt>
      <trkpt lat="33.644215017557144" lon="-2.356644999235869">
        <ele>1102.2</ele>
        <time>2010-12-28T13:09:02Z</time>
      </trkpt>
      <trkpt lat="33.644076967611909" lon="-2.356704007834196">
        <ele>1102.5</ele>
        <time>2010-12-28T13:09:03Z</time>
      </trkpt>
      <trkpt lat="33.643111037090421" lon="-2.357071973383427">
        <ele>1104.0999999999999</ele>
        <time>2010-12-28T13:09:10Z</time>
      </trkpt>
      <trkpt lat="33.642986984923482" lon="-2.357158977538347">
        <ele>1104.3</ele>
        <time>2010-12-28T13:09:12Z</time>
      </trkpt>
      <trkpt lat="33.642868967726827" lon="-2.357257967814803">
        <ele>1104.5999999999999</ele>
        <time>2010-12-28T13:09:13Z</time>
      </trkpt>
      <trkpt lat="33.642031028866768" lon="-2.358104959130287">
        <ele>1105.9000000000001</ele>
        <time>2010-12-28T13:09:20Z</time>
      </trkpt>
      <trkpt lat="33.641932960599661" lon="-2.358225993812084">
        <ele>1105.5999999999999</ele>
        <time>2010-12-28T13:09:21Z</time>
      </trkpt>
      <trkpt lat="33.641846962273121" lon="-2.358355997130275">
        <ele>1105.5</ele>
        <time>2010-12-28T13:09:22Z</time>
      </trkpt>
      <trkpt lat="33.641505986452103" lon="-2.358892019838095">
        <ele>1105.5999999999999</ele>
        <time>2010-12-28T13:09:26Z</time>
      </trkpt>
      <trkpt lat="33.641404984518886" lon="-2.359014982357621">
        <ele>1105.7</ele>
        <time>2010-12-28T13:09:27Z</time>
      </trkpt>
      <trkpt lat="33.639397015795112" lon="-2.361392006278038">
        <ele>1106.9000000000001</ele>
        <time>2010-12-28T13:09:47Z</time>
      </trkpt>
      <trkpt lat="33.63928796723485" lon="-2.361489990726113">
        <ele>1106.8</ele>
        <time>2010-12-28T13:09:49Z</time>
      </trkpt>
      <trkpt lat="33.638927964493632" lon="-2.361770030111074">
        <ele>1106.4000000000001</ele>
        <time>2010-12-28T13:09:52Z</time>
      </trkpt>
      <trkpt lat="33.635062985122204" lon="-2.364435978233814">
        <ele>1104.0999999999999</ele>
        <time>2010-12-28T13:10:25Z</time>
      </trkpt>
      <trkpt lat="33.634980004280806" lon="-2.36453396268189">
        <ele>1104.0999999999999</ele>
        <time>2010-12-28T13:10:26Z</time>
      </trkpt>
      <trkpt lat="33.634902974590659" lon="-2.364635970443487">
        <ele>1104.0999999999999</ele>
        <time>2010-12-28T13:10:27Z</time>
      </trkpt>
      <trkpt lat="33.634377010166645" lon="-2.365237036719918">
        <ele>1104.4000000000001</ele>
        <time>2010-12-28T13:10:34Z</time>
      </trkpt>
      <trkpt lat="33.633967973291874" lon="-2.36554398201406">
        <ele>1104.3</ele>
        <time>2010-12-28T13:10:39Z</time>
      </trkpt>
      <trkpt lat="33.633745014667511" lon="-2.365686977282167">
        <ele>1104.0999999999999</ele>
        <time>2010-12-28T13:10:41Z</time>
      </trkpt>
      <trkpt lat="33.631190964952111" lon="-2.367395963519812">
        <ele>1105.0999999999999</ele>
        <time>2010-12-28T13:11:01Z</time>
      </trkpt>
      <trkpt lat="33.630490992218256" lon="-2.368023013696075">
        <ele>1105.5999999999999</ele>
        <time>2010-12-28T13:11:08Z</time>
      </trkpt>
      <trkpt lat="33.630205001682043" lon="-2.3683359939605">
        <ele>1105.7</ele>
        <time>2010-12-28T13:11:10Z</time>
      </trkpt>
      <trkpt lat="33.630127971991897" lon="-2.368443030864">
        <ele>1105.8</ele>
        <time>2010-12-28T13:11:11Z</time>
      </trkpt>
      <trkpt lat="33.630065023899078" lon="-2.368555013090372">
        <ele>1105.9000000000001</ele>
        <time>2010-12-28T13:11:12Z</time>
      </trkpt>
      <trkpt lat="33.630014983937144" lon="-2.368674036115408">
        <ele>1106</ele>
        <time>2010-12-28T13:11:13Z</time>
      </trkpt>
      <trkpt lat="33.629915993660688" lon="-2.368917027488351">
        <ele>1106.2</ele>
        <time>2010-12-28T13:11:15Z</time>
      </trkpt>
      <trkpt lat="33.629850028082728" lon="-2.3690249864012">
        <ele>1106.2</ele>
        <time>2010-12-28T13:11:16Z</time>
      </trkpt>
      <trkpt lat="33.62976897507906" lon="-2.369117019698024">
        <ele>1106.3</ele>
        <time>2010-12-28T13:11:18Z</time>
      </trkpt>
      <trkpt lat="33.629677025601268" lon="-2.369192037731409">
        <ele>1106.4000000000001</ele>
        <time>2010-12-28T13:11:18Z</time>
      </trkpt>
      <trkpt lat="33.629396986216307" lon="-2.369423964992166">
        <ele>1106.7</ele>
        <time>2010-12-28T13:11:21Z</time>
      </trkpt>
      <trkpt lat="33.629291960969567" lon="-2.369490014389157">
        <ele>1106.7</ele>
        <time>2010-12-28T13:11:22Z</time>
      </trkpt>
      <trkpt lat="33.629176039248705" lon="-2.36953997053206">
        <ele>1106.7</ele>
        <time>2010-12-28T13:11:23Z</time>
      </trkpt>
      <trkpt lat="33.628813019022346" lon="-2.369714984670281">
        <ele>1107.0999999999999</ele>
        <time>2010-12-28T13:11:26Z</time>
      </trkpt>
      <trkpt lat="33.627808028832078" lon="-2.370328037068248">
        <ele>1109.5999999999999</ele>
        <time>2010-12-28T13:11:34Z</time>
      </trkpt>
      <trkpt lat="33.627683976665139" lon="-2.370368018746376">
        <ele>1109.9000000000001</ele>
        <time>2010-12-28T13:11:35Z</time>
      </trkpt>
      <trkpt lat="33.627560008317232" lon="-2.370392996817827">
        <ele>1110.2</ele>
        <time>2010-12-28T13:11:36Z</time>
      </trkpt>
      <trkpt lat="33.627307964488864" lon="-2.370424009859562">
        <ele>1110.5999999999999</ele>
        <time>2010-12-28T13:11:39Z</time>
      </trkpt>
      <trkpt lat="33.627178966999054" lon="-2.370425015687943">
        <ele>1110.8</ele>
        <time>2010-12-28T13:11:40Z</time>
      </trkpt>
      <trkpt lat="33.627048963680863" lon="-2.370417974889278">
        <ele>1110.9000000000001</ele>
        <time>2010-12-28T13:11:41Z</time>
      </trkpt>
      <trkpt lat="33.626918038353324" lon="-2.37039702013135">
        <ele>1111</ele>
        <time>2010-12-28T13:11:42Z</time>
      </trkpt>
      <trkpt lat="33.626786023378372" lon="-2.370363995432854">
        <ele>1111</ele>
        <time>2010-12-28T13:11:42Z</time>
      </trkpt>
      <trkpt lat="33.626656020060182" lon="-2.370317978784442">
        <ele>1110.9000000000001</ele>
        <time>2010-12-28T13:11:43Z</time>
      </trkpt>
      <trkpt lat="33.625915981829166" lon="-2.370041040703654">
        <ele>1111.3</ele>
        <time>2010-12-28T13:11:50Z</time>
      </trkpt>
      <trkpt lat="33.625778015702963" lon="-2.370031988248229">
        <ele>1111.5999999999999</ele>
        <time>2010-12-28T13:11:51Z</time>
      </trkpt>
      <trkpt lat="33.624248988926411" lon="-2.369956970214844">
        <ele>1112.2</ele>
        <time>2010-12-28T13:12:01Z</time>
      </trkpt>
      <trkpt lat="33.624133989214897" lon="-2.369984965771437">
        <ele>1112.0999999999999</ele>
        <time>2010-12-28T13:12:02Z</time>
      </trkpt>
      <trkpt lat="33.624024018645287" lon="-2.370027964934707">
        <ele>1112</ele>
        <time>2010-12-28T13:12:03Z</time>
      </trkpt>
      <trkpt lat="33.623179960995913" lon="-2.370330970734358">
        <ele>1111.9000000000001</ele>
        <time>2010-12-28T13:12:10Z</time>
      </trkpt>
      <trkpt lat="33.62306596711278" lon="-2.370358966290951">
        <ele>1111.8</ele>
        <time>2010-12-28T13:12:11Z</time>
      </trkpt>
      <trkpt lat="33.622947027906775" lon="-2.370369024574757">
        <ele>1111.7</ele>
        <time>2010-12-28T13:12:12Z</time>
      </trkpt>
      <trkpt lat="33.622825993224978" lon="-2.370366007089615">
        <ele>1111.5</ele>
        <time>2010-12-28T13:12:13Z</time>
      </trkpt>
      <trkpt lat="33.622157033532858" lon="-2.370367012917996">
        <ele>1110.7</ele>
        <time>2010-12-28T13:12:19Z</time>
      </trkpt>
      <trkpt lat="33.62205795943737" lon="-2.370327031239867">
        <ele>1110.4000000000001</ele>
        <time>2010-12-28T13:12:20Z</time>
      </trkpt>
      <trkpt lat="33.621965004131198" lon="-2.370267016813159">
        <ele>1110.2</ele>
        <time>2010-12-28T13:12:21Z</time>
      </trkpt>
      <trkpt lat="33.621875988319516" lon="-2.370193004608154">
        <ele>1110.0999999999999</ele>
        <time>2010-12-28T13:12:23Z</time>
      </trkpt>
      <trkpt lat="33.621793007478118" lon="-2.370102982968092">
        <ele>1109.9000000000001</ele>
        <time>2010-12-28T13:12:23Z</time>
      </trkpt>
      <trkpt lat="33.621639031916857" lon="-2.369912965223193">
        <ele>1109.7</ele>
        <time>2010-12-28T13:12:25Z</time>
      </trkpt>
      <trkpt lat="33.62141297198832" lon="-2.369632003828883">
        <ele>1109.4000000000001</ele>
        <time>2010-12-28T13:12:28Z</time>
      </trkpt>
      <trkpt lat="33.621322028338909" lon="-2.369557991623879">
        <ele>1109.5999999999999</ele>
        <time>2010-12-28T13:12:29Z</time>
      </trkpt>
      <trkpt lat="33.621224965900183" lon="-2.369502000510693">
        <ele>1109.4000000000001</ele>
        <time>2010-12-28T13:12:30Z</time>
      </trkpt>
      <trkpt lat="33.620845014229417" lon="-2.369317011907697">
        <ele>1109</ele>
        <time>2010-12-28T13:12:35Z</time>
      </trkpt>
      <trkpt lat="33.620760021731257" lon="-2.369250040501356">
        <ele>1109</ele>
        <time>2010-12-28T13:12:35Z</time>
      </trkpt>
      <trkpt lat="33.620683997869492" lon="-2.369172004982829">
        <ele>1109</ele>
        <time>2010-12-28T13:12:36Z</time>
      </trkpt>
      <trkpt lat="33.620495991781354" lon="-2.368970001116395">
        <ele>1108.9000000000001</ele>
        <time>2010-12-28T13:12:40Z</time>
      </trkpt>
      <trkpt lat="33.620414016768336" lon="-2.368855001404882">
        <ele>1108.8</ele>
        <time>2010-12-28T13:12:42Z</time>
      </trkpt>
      <trkpt lat="33.620372023433447" lon="-2.368737990036607">
        <ele>1108.7</ele>
        <time>2010-12-28T13:12:44Z</time>
      </trkpt>
      <trkpt lat="33.620087038725615" lon="-2.367955036461353">
        <ele>1109.0999999999999</ele>
        <time>2010-12-28T13:12:52Z</time>
      </trkpt>
      <trkpt lat="33.619955023750663" lon="-2.367674997076392">
        <ele>1109.3</ele>
        <time>2010-12-28T13:12:56Z</time>
      </trkpt>
      <trkpt lat="33.619899032637477" lon="-2.367588998749852">
        <ele>1109.5</ele>
        <time>2010-12-28T13:12:57Z</time>
      </trkpt>
      <trkpt lat="33.619686970487237" lon="-2.367351958528161">
        <ele>1109.9000000000001</ele>
        <time>2010-12-28T13:12:58Z</time>
      </trkpt>
      <trkpt lat="33.619762994349003" lon="-2.36743301153183">
        <ele>1109.8</ele>
        <time>2010-12-28T13:12:59Z</time>
      </trkpt>
      <trkpt lat="33.618763033300638" lon="-2.366148987784982">
        <ele>1111.9000000000001</ele>
        <time>2010-12-28T13:13:12Z</time>
      </trkpt>
      <trkpt lat="33.619686970487237" lon="-2.367351958528161">
        <ele>1109.9000000000001</ele>
        <time>2010-12-28T13:13:14Z</time>
      </trkpt>
      <trkpt lat="33.618571003898978" lon="-2.365751015022397">
        <ele>1112.4000000000001</ele>
        <time>2010-12-28T13:13:14Z</time>
      </trkpt>
      <trkpt lat="33.618511995300651" lon="-2.365620005875826">
        <ele>1112.5999999999999</ele>
        <time>2010-12-28T13:13:15Z</time>
      </trkpt>
      <trkpt lat="33.618382997810841" lon="-2.365381037816405">
        <ele>1112.8</ele>
        <time>2010-12-28T13:13:17Z</time>
      </trkpt>
      <trkpt lat="33.618227010592818" lon="-2.365153972059488">
        <ele>1113.0999999999999</ele>
        <time>2010-12-28T13:13:19Z</time>
      </trkpt>
      <trkpt lat="33.616567980498075" lon="-2.362881973385811">
        <ele>1115.3</ele>
        <time>2010-12-28T13:13:39Z</time>
      </trkpt>
      <trkpt lat="33.616497991606593" lon="-2.36275197006762">
        <ele>1115.4000000000001</ele>
        <time>2010-12-28T13:13:40Z</time>
      </trkpt>
      <trkpt lat="33.616271009668708" lon="-2.362367995083332">
        <ele>1115.4000000000001</ele>
        <time>2010-12-28T13:13:44Z</time>
      </trkpt>
      <trkpt lat="33.616178976371884" lon="-2.362251989543438">
        <ele>1115.4000000000001</ele>
        <time>2010-12-28T13:13:45Z</time>
      </trkpt>
      <trkpt lat="33.616077974438667" lon="-2.36214998178184">
        <ele>1115.5</ele>
        <time>2010-12-28T13:13:45Z</time>
      </trkpt>
      <trkpt lat="33.615971021354198" lon="-2.362058032304049">
        <ele>1115.5999999999999</ele>
        <time>2010-12-28T13:13:46Z</time>
      </trkpt>
      <trkpt lat="33.6156290397048" lon="-2.361820992082357">
        <ele>1115.7</ele>
        <time>2010-12-28T13:13:50Z</time>
      </trkpt>
      <trkpt lat="33.614723039790988" lon="-2.36126996576786">
        <ele>1115.4000000000001</ele>
        <time>2010-12-28T13:13:58Z</time>
      </trkpt>
      <trkpt lat="33.614565040916204" lon="-2.361105009913445">
        <ele>1115.4000000000001</ele>
        <time>2010-12-28T13:13:58Z</time>
      </trkpt>
      <trkpt lat="33.61449396237731" lon="-2.361014988273382">
        <ele>1115.4000000000001</ele>
        <time>2010-12-28T13:14:00Z</time>
      </trkpt>
      <trkpt lat="33.614223981276155" lon="-2.360608968883753">
        <ele>1115.3</ele>
        <time>2010-12-28T13:14:05Z</time>
      </trkpt>
      <trkpt lat="33.61371997743845" lon="-2.359885023906827">
        <ele>1115.2</ele>
        <time>2010-12-28T13:14:12Z</time>
      </trkpt>
      <trkpt lat="33.613256961107254" lon="-2.359416978433728">
        <ele>1114.9000000000001</ele>
        <time>2010-12-28T13:14:21Z</time>
      </trkpt>
      <trkpt lat="33.61316098831594" lon="-2.359355958178639">
        <ele>1115</ele>
        <time>2010-12-28T13:14:25Z</time>
      </trkpt>
      <trkpt lat="33.613256039097905" lon="-2.359425025060773">
        <ele>1116.2</ele>
        <time>2010-12-28T13:14:56Z</time>
      </trkpt>
      <trkpt lat="33.613377995789051" lon="-2.359611019492149">
        <ele>1115.9000000000001</ele>
        <time>2010-12-28T13:15:00Z</time>
      </trkpt>
      <trkpt lat="33.61354798078537" lon="-2.35993598587811">
        <ele>1115.9000000000001</ele>
        <time>2010-12-28T13:15:05Z</time>
      </trkpt>
      <trkpt lat="33.613599026575685" lon="-2.360118962824345">
        <ele>1115.5999999999999</ele>
        <time>2010-12-28T13:15:07Z</time>
      </trkpt>
      <trkpt lat="33.613636996597052" lon="-2.360334964469075">
        <ele>1115.5</ele>
        <time>2010-12-28T13:15:09Z</time>
      </trkpt>
      <trkpt lat="33.613713020458817" lon="-2.360935024917126">
        <ele>1116.2</ele>
        <time>2010-12-28T13:15:15Z</time>
      </trkpt>
      <trkpt lat="33.613716037943959" lon="-2.361057987436652">
        <ele>1116.3</ele>
        <time>2010-12-28T13:15:15Z</time>
      </trkpt>
      <trkpt lat="33.613710002973676" lon="-2.36118002794683">
        <ele>1116.4000000000001</ele>
        <time>2010-12-28T13:15:16Z</time>
      </trkpt>
      <trkpt lat="33.613694999366999" lon="-2.361301984637976">
        <ele>1116.5</ele>
        <time>2010-12-28T13:15:17Z</time>
      </trkpt>
      <trkpt lat="33.613671027123928" lon="-2.361424025148153">
        <ele>1116.5999999999999</ele>
        <time>2010-12-28T13:15:18Z</time>
      </trkpt>
      <trkpt lat="33.613638002425432" lon="-2.361542964354157">
        <ele>1116.7</ele>
        <time>2010-12-28T13:15:19Z</time>
      </trkpt>
      <trkpt lat="33.613597014918923" lon="-2.361659975722432">
        <ele>1116.8</ele>
        <time>2010-12-28T13:15:20Z</time>
      </trkpt>
      <trkpt lat="33.613497018814087" lon="-2.361892992630601">
        <ele>1116.8</ele>
        <time>2010-12-28T13:15:22Z</time>
      </trkpt>
      <trkpt lat="33.61337698996067" lon="-2.362117040902376">
        <ele>1116.8</ele>
        <time>2010-12-28T13:15:24Z</time>
      </trkpt>
      <trkpt lat="33.612210983410478" lon="-2.364072035998106">
        <ele>1117.5</ele>
        <time>2010-12-28T13:15:44Z</time>
      </trkpt>
      <trkpt lat="33.612143006175756" lon="-2.364161973819137">
        <ele>1117.5</ele>
        <time>2010-12-28T13:15:44Z</time>
      </trkpt>
      <trkpt lat="33.612064970657229" lon="-2.364242020994425">
        <ele>1117.5999999999999</ele>
        <time>2010-12-28T13:15:45Z</time>
      </trkpt>
      <trkpt lat="33.611978972330689" lon="-2.364313015714288">
        <ele>1117.5</ele>
        <time>2010-12-28T13:15:47Z</time>
      </trkpt>
      <trkpt lat="33.611260978505015" lon="-2.364849038422108">
        <ele>1117.7</ele>
        <time>2010-12-28T13:15:55Z</time>
      </trkpt>
      <trkpt lat="33.611168023198843" lon="-2.364905029535294">
        <ele>1117.5999999999999</ele>
        <time>2010-12-28T13:15:56Z</time>
      </trkpt>
      <trkpt lat="33.608308034017682" lon="-2.366826999932528">
        <ele>1117.5</ele>
        <time>2010-12-28T13:16:23Z</time>
      </trkpt>
      <trkpt lat="33.608101001009345" lon="-2.367011988535523">
        <ele>1117.7</ele>
        <time>2010-12-28T13:16:25Z</time>
      </trkpt>
      <trkpt lat="33.606811026111245" lon="-2.368128960952163">
        <ele>1119.0999999999999</ele>
        <time>2010-12-28T13:16:37Z</time>
      </trkpt>
      <trkpt lat="33.606698038056493" lon="-2.368200039491057">
        <ele>1119.3</ele>
        <time>2010-12-28T13:16:38Z</time>
      </trkpt>
      <trkpt lat="33.606270980089903" lon="-2.368496004492044">
        <ele>1120</ele>
        <time>2010-12-28T13:16:43Z</time>
      </trkpt>
      <trkpt lat="33.605779968202114" lon="-2.368929013609886">
        <ele>1120.4000000000001</ele>
        <time>2010-12-28T13:16:48Z</time>
      </trkpt>
      <trkpt lat="33.605402028188109" lon="-2.369279963895679">
        <ele>1120.5</ele>
        <time>2010-12-28T13:16:51Z</time>
      </trkpt>
      <trkpt lat="33.605309994891286" lon="-2.369336960837245">
        <ele>1120.5</ele>
        <time>2010-12-28T13:16:53Z</time>
      </trkpt>
      <trkpt lat="33.605215027928352" lon="-2.36936897970736">
        <ele>1120.5</ele>
        <time>2010-12-28T13:16:54Z</time>
      </trkpt>
      <trkpt lat="33.604410029947758" lon="-2.369694029912353">
        <ele>1120.2</ele>
        <time>2010-12-28T13:17:01Z</time>
      </trkpt>
      <trkpt lat="33.604305004701018" lon="-2.369757983833551">
        <ele>1120.2</ele>
        <time>2010-12-28T13:17:02Z</time>
      </trkpt>
      <trkpt lat="33.597521027550101" lon="-2.373794037848711">
        <ele>1122.2</ele>
        <time>2010-12-28T13:18:01Z</time>
      </trkpt>
      <trkpt lat="33.59741197898984" lon="-2.373894033953548">
        <ele>1122.2</ele>
        <time>2010-12-28T13:18:02Z</time>
      </trkpt>
      <trkpt lat="33.596976036205888" lon="-2.37430902197957">
        <ele>1122.3</ele>
        <time>2010-12-28T13:18:06Z</time>
      </trkpt>
      <trkpt lat="33.59685399569571" lon="-2.374398959800601">
        <ele>1122.4000000000001</ele>
        <time>2010-12-28T13:18:07Z</time>
      </trkpt>
      <trkpt lat="33.593982020393014" lon="-2.37639301456511">
        <ele>1123.4000000000001</ele>
        <time>2010-12-28T13:18:29Z</time>
      </trkpt>
      <trkpt lat="33.593873977661133" lon="-2.376512037590146">
        <ele>1123.5</ele>
        <time>2010-12-28T13:18:30Z</time>
      </trkpt>
      <trkpt lat="33.592731021344662" lon="-2.377839982509613">
        <ele>1123.9000000000001</ele>
        <time>2010-12-28T13:18:42Z</time>
      </trkpt>
      <trkpt lat="33.592645023018122" lon="-2.377971997484565">
        <ele>1124</ele>
        <time>2010-12-28T13:18:43Z</time>
      </trkpt>
      <trkpt lat="33.592198016121984" lon="-2.378641963005066">
        <ele>1123.7</ele>
        <time>2010-12-28T13:18:48Z</time>
      </trkpt>
      <trkpt lat="33.592089973390102" lon="-2.378766015172005">
        <ele>1123.7</ele>
        <time>2010-12-28T13:18:49Z</time>
      </trkpt>
      <trkpt lat="33.583886018022895" lon="-2.388766966760159">
        <ele>1125.5</ele>
        <time>2010-12-28T13:20:11Z</time>
      </trkpt>
      <trkpt lat="33.583764983341098" lon="-2.38887601532042">
        <ele>1125.5</ele>
        <time>2010-12-28T13:20:12Z</time>
      </trkpt>
      <trkpt lat="33.582253977656364" lon="-2.390545019879937">
        <ele>1126.0999999999999</ele>
        <time>2010-12-28T13:20:25Z</time>
      </trkpt>
      <trkpt lat="33.580987975001335" lon="-2.392129031941295">
        <ele>1126.5</ele>
        <time>2010-12-28T13:20:37Z</time>
      </trkpt>
      <trkpt lat="33.576503992080688" lon="-2.397493030875921">
        <ele>1127.7</ele>
        <time>2010-12-28T13:21:16Z</time>
      </trkpt>
      <trkpt lat="33.575997976586223" lon="-2.398004997521639">
        <ele>1127.9000000000001</ele>
        <time>2010-12-28T13:21:21Z</time>
      </trkpt>
      <trkpt lat="33.575893035158515" lon="-2.398084038868547">
        <ele>1128</ele>
        <time>2010-12-28T13:21:22Z</time>
      </trkpt>
      <trkpt lat="33.574432991445065" lon="-2.399223977699876">
        <ele>1128.3</ele>
        <time>2010-12-28T13:21:38Z</time>
      </trkpt>
      <trkpt lat="33.574340036138892" lon="-2.399273011833429">
        <ele>1128.3</ele>
        <time>2010-12-28T13:21:39Z</time>
      </trkpt>
      <trkpt lat="33.574152030050755" lon="-2.399348029866815">
        <ele>1128.2</ele>
        <time>2010-12-28T13:21:40Z</time>
      </trkpt>
      <trkpt lat="33.569216011092067" lon="-2.401835024356842">
        <ele>1129.0999999999999</ele>
        <time>2010-12-28T13:22:20Z</time>
      </trkpt>
      <trkpt lat="33.568359967321157" lon="-2.40241102874279">
        <ele>1129.5</ele>
        <time>2010-12-28T13:22:26Z</time>
      </trkpt>
      <trkpt lat="33.564012022688985" lon="-2.405996974557638">
        <ele>1131.8</ele>
        <time>2010-12-28T13:23:02Z</time>
      </trkpt>
      <trkpt lat="33.563902974128723" lon="-2.406099988147616">
        <ele>1131.8</ele>
        <time>2010-12-28T13:23:03Z</time>
      </trkpt>
      <trkpt lat="33.560840981081128" lon="-2.408674992620945">
        <ele>1132.5999999999999</ele>
        <time>2010-12-28T13:23:33Z</time>
      </trkpt>
      <trkpt lat="33.560770992189646" lon="-2.408757973462343">
        <ele>1132.5999999999999</ele>
        <time>2010-12-28T13:23:33Z</time>
      </trkpt>
      <trkpt lat="33.560693962499499" lon="-2.408829974010587">
        <ele>1132.5999999999999</ele>
        <time>2010-12-28T13:23:34Z</time>
      </trkpt>
      <trkpt lat="33.560607964172959" lon="-2.408882025629282">
        <ele>1132.5</ele>
        <time>2010-12-28T13:23:36Z</time>
      </trkpt>
      <trkpt lat="33.560172021389008" lon="-2.409140020608902">
        <ele>1132.3</ele>
        <time>2010-12-28T13:23:41Z</time>
      </trkpt>
      <trkpt lat="33.560097003355622" lon="-2.409214032813907">
        <ele>1132.2</ele>
        <time>2010-12-28T13:23:41Z</time>
      </trkpt>
      <trkpt lat="33.560021985322237" lon="-2.409282010048628">
        <ele>1132.3</ele>
        <time>2010-12-28T13:23:42Z</time>
      </trkpt>
      <trkpt lat="33.559801038354635" lon="-2.409427016973496">
        <ele>1132.3</ele>
        <time>2010-12-28T13:23:45Z</time>
      </trkpt>
      <trkpt lat="33.559605991467834" lon="-2.409594990313053">
        <ele>1132.3</ele>
        <time>2010-12-28T13:23:49Z</time>
      </trkpt>
      <trkpt lat="33.559443969279528" lon="-2.409649975597858">
        <ele>1132.2</ele>
        <time>2010-12-28T13:23:51Z</time>
      </trkpt>
      <trkpt lat="33.559191003441811" lon="-2.409692974761128">
        <ele>1132.0999999999999</ele>
        <time>2010-12-28T13:23:53Z</time>
      </trkpt>
      <trkpt lat="33.558963015675545" lon="-2.409766986966133">
        <ele>1132.0999999999999</ele>
        <time>2010-12-28T13:23:56Z</time>
      </trkpt>
      <trkpt lat="33.558797976002097" lon="-2.409775033593178">
        <ele>1132.2</ele>
        <time>2010-12-28T13:23:59Z</time>
      </trkpt>
      <trkpt lat="33.558453982695937" lon="-2.409766986966133">
        <ele>1132.0999999999999</ele>
        <time>2010-12-28T13:24:02Z</time>
      </trkpt>
      <trkpt lat="33.558203028514981" lon="-2.409857008606195">
        <ele>1132.3</ele>
        <time>2010-12-28T13:24:05Z</time>
      </trkpt>
      <trkpt lat="33.558023991063237" lon="-2.409857008606195">
        <ele>1132.2</ele>
        <time>2010-12-28T13:24:07Z</time>
      </trkpt>
      <trkpt lat="33.557108016684651" lon="-2.409775033593178">
        <ele>1132.4000000000001</ele>
        <time>2010-12-28T13:24:16Z</time>
      </trkpt>
      <trkpt lat="33.557001985609531" lon="-2.409745026379824">
        <ele>1132.5</ele>
        <time>2010-12-28T13:24:18Z</time>
      </trkpt>
      <trkpt lat="33.556896960362792" lon="-2.409704038873315">
        <ele>1132.5999999999999</ele>
        <time>2010-12-28T13:24:18Z</time>
      </trkpt>
      <trkpt lat="33.556795036420226" lon="-2.409649975597858">
        <ele>1132.7</ele>
        <time>2010-12-28T13:24:19Z</time>
      </trkpt>
      <trkpt lat="33.556372001767159" lon="-2.40943799726665">
        <ele>1132.9000000000001</ele>
        <time>2010-12-28T13:24:23Z</time>
      </trkpt>
      <trkpt lat="33.555792979896069" lon="-2.409240016713738">
        <ele>1132.8</ele>
        <time>2010-12-28T13:24:28Z</time>
      </trkpt>
      <trkpt lat="33.554729986935854" lon="-2.408953020349145">
        <ele>1133.5</ele>
        <time>2010-12-28T13:24:39Z</time>
      </trkpt>
      <trkpt lat="33.554638959467411" lon="-2.408942962065339">
        <ele>1133.5999999999999</ele>
        <time>2010-12-28T13:24:39Z</time>
      </trkpt>
      <trkpt lat="33.554471991956234" lon="-2.408956037834287">
        <ele>1133.9000000000001</ele>
        <time>2010-12-28T13:24:42Z</time>
      </trkpt>
      <trkpt lat="33.554341988638043" lon="-2.409025020897389">
        <ele>1134</ele>
        <time>2010-12-28T13:24:43Z</time>
      </trkpt>
      <trkpt lat="33.554266970604658" lon="-2.409160975366831">
        <ele>1133.9000000000001</ele>
        <time>2010-12-28T13:24:46Z</time>
      </trkpt>
      <trkpt lat="33.554082987830043" lon="-2.409677971154451">
        <ele>1134.0999999999999</ele>
        <time>2010-12-28T13:24:50Z</time>
      </trkpt>
      <trkpt lat="33.554048035293818" lon="-2.409808980301023">
        <ele>1134.2</ele>
        <time>2010-12-28T13:24:51Z</time>
      </trkpt>
      <trkpt lat="33.553617037832737" lon="-2.411502040922642">
        <ele>1134</ele>
        <time>2010-12-28T13:25:04Z</time>
      </trkpt>
      <trkpt lat="33.553601028397679" lon="-2.411660039797425">
        <ele>1134.0999999999999</ele>
        <time>2010-12-28T13:25:04Z</time>
      </trkpt>
      <trkpt lat="33.553597005084157" lon="-2.412693025544286">
        <ele>1134.0999999999999</ele>
        <time>2010-12-28T13:25:10Z</time>
      </trkpt>
      <trkpt lat="33.553608991205692" lon="-2.41336902603507">
        <ele>1134</ele>
        <time>2010-12-28T13:25:14Z</time>
      </trkpt>
      <trkpt lat="33.553591975942254" lon="-2.413536999374628">
        <ele>1134</ele>
        <time>2010-12-28T13:25:16Z</time>
      </trkpt>
      <trkpt lat="33.553563980385661" lon="-2.413703966885805">
        <ele>1134.0999999999999</ele>
        <time>2010-12-28T13:25:16Z</time>
      </trkpt>
      <trkpt lat="33.553440012037754" lon="-2.414217023178935">
        <ele>1134.2</ele>
        <time>2010-12-28T13:25:19Z</time>
      </trkpt>
      <trkpt lat="33.553233984857798" lon="-2.414910960942507">
        <ele>1133.9000000000001</ele>
        <time>2010-12-28T13:25:23Z</time>
      </trkpt>
      <trkpt lat="33.553173970431089" lon="-2.415073988959193">
        <ele>1133.9000000000001</ele>
        <time>2010-12-28T13:25:24Z</time>
      </trkpt>
      <trkpt lat="33.553105993196368" lon="-2.415225030854344">
        <ele>1133.9000000000001</ele>
        <time>2010-12-28T13:25:25Z</time>
      </trkpt>
      <trkpt lat="33.553032986819744" lon="-2.41536601446569">
        <ele>1133.9000000000001</ele>
        <time>2010-12-28T13:25:26Z</time>
      </trkpt>
      <trkpt lat="33.552647000178695" lon="-2.416000021621585">
        <ele>1134.0999999999999</ele>
        <time>2010-12-28T13:25:31Z</time>
      </trkpt>
      <trkpt lat="33.552483972162008" lon="-2.416235972195864">
        <ele>1134</ele>
        <time>2010-12-28T13:25:33Z</time>
      </trkpt>
      <trkpt lat="33.551903022453189" lon="-2.417125040665269">
        <ele>1134.3</ele>
        <time>2010-12-28T13:25:40Z</time>
      </trkpt>
      <trkpt lat="33.551834961399436" lon="-2.417266024276614">
        <ele>1134.3</ele>
        <time>2010-12-28T13:25:41Z</time>
      </trkpt>
      <trkpt lat="33.551723985001445" lon="-2.417557965964079">
        <ele>1134.4000000000001</ele>
        <time>2010-12-28T13:25:44Z</time>
      </trkpt>
      <trkpt lat="33.550395034253597" lon="-2.421435015276074">
        <ele>1132.0999999999999</ele>
        <time>2010-12-28T13:26:11Z</time>
      </trkpt>
      <trkpt lat="33.55010200291872" lon="-2.422368004918098">
        <ele>1132</ele>
        <time>2010-12-28T13:26:19Z</time>
      </trkpt>
      <trkpt lat="33.550051040947437" lon="-2.422475041821599">
        <ele>1132.0999999999999</ele>
        <time>2010-12-28T13:26:20Z</time>
      </trkpt>
      <trkpt lat="33.549792040139437" lon="-2.422963036224246">
        <ele>1131.9000000000001</ele>
        <time>2010-12-28T13:26:25Z</time>
      </trkpt>
      <trkpt lat="33.549674022942781" lon="-2.423146013170481">
        <ele>1131.9000000000001</ele>
        <time>2010-12-28T13:26:27Z</time>
      </trkpt>
      <trkpt lat="33.549605961889029" lon="-2.423241985961795">
        <ele>1132.0999999999999</ele>
        <time>2010-12-28T13:26:28Z</time>
      </trkpt>
      <trkpt lat="33.549527004361153" lon="-2.423335025086999">
        <ele>1132.2</ele>
        <time>2010-12-28T13:26:29Z</time>
      </trkpt>
      <trkpt lat="33.549438994377851" lon="-2.42342496290803">
        <ele>1132.4000000000001</ele>
        <time>2010-12-28T13:26:30Z</time>
      </trkpt>
      <trkpt lat="33.549342015758157" lon="-2.423512972891331">
        <ele>1132.5</ele>
        <time>2010-12-28T13:26:31Z</time>
      </trkpt>
      <trkpt lat="33.549234978854656" lon="-2.423590002581477">
        <ele>1132.5999999999999</ele>
        <time>2010-12-28T13:26:32Z</time>
      </trkpt>
      <trkpt lat="33.546564001590014" lon="-2.425439972430468">
        <ele>1135.2</ele>
        <time>2010-12-28T13:26:58Z</time>
      </trkpt>
      <trkpt lat="33.546465011313558" lon="-2.425492024049163">
        <ele>1135.3</ele>
        <time>2010-12-28T13:26:59Z</time>
      </trkpt>
      <trkpt lat="33.545711981132627" lon="-2.426055958494544">
        <ele>1135.8</ele>
        <time>2010-12-28T13:27:06Z</time>
      </trkpt>
      <trkpt lat="33.545601004734635" lon="-2.426108010113239">
        <ele>1135.9000000000001</ele>
        <time>2010-12-28T13:27:07Z</time>
      </trkpt>
      <trkpt lat="33.545273020863533" lon="-2.426294004544616">
        <ele>1135.9000000000001</ele>
        <time>2010-12-28T13:27:10Z</time>
      </trkpt>
      <trkpt lat="33.544949982315302" lon="-2.426534984260798">
        <ele>1136.2</ele>
        <time>2010-12-28T13:27:14Z</time>
      </trkpt>
      <trkpt lat="33.544208016246557" lon="-2.427115011960268">
        <ele>1136.5999999999999</ele>
        <time>2010-12-28T13:27:20Z</time>
      </trkpt>
      <trkpt lat="33.544096034020185" lon="-2.427178965881467">
        <ele>1136.5999999999999</ele>
        <time>2010-12-28T13:27:21Z</time>
      </trkpt>
      <trkpt lat="33.543981034308672" lon="-2.427232023328543">
        <ele>1136.5999999999999</ele>
        <time>2010-12-28T13:27:22Z</time>
      </trkpt>
      <trkpt lat="33.542788038030267" lon="-2.427769973874092">
        <ele>1137.0999999999999</ele>
        <time>2010-12-28T13:27:32Z</time>
      </trkpt>
      <trkpt lat="33.542651999741793" lon="-2.427805010229349">
        <ele>1137.0999999999999</ele>
        <time>2010-12-28T13:27:34Z</time>
      </trkpt>
      <trkpt lat="33.538042958825827" lon="-2.429205039516091">
        <ele>1136.7</ele>
        <time>2010-12-28T13:28:10Z</time>
      </trkpt>
      <trkpt lat="33.537914967164397" lon="-2.42926798760891">
        <ele>1136.8</ele>
        <time>2010-12-28T13:28:11Z</time>
      </trkpt>
      <trkpt lat="33.537307027727365" lon="-2.429636958986521">
        <ele>1136.5999999999999</ele>
        <time>2010-12-28T13:28:16Z</time>
      </trkpt>
      <trkpt lat="33.53718901053071" lon="-2.42971901781857">
        <ele>1136.7</ele>
        <time>2010-12-28T13:28:18Z</time>
      </trkpt>
      <trkpt lat="33.533686967566609" lon="-2.432234007865191">
        <ele>1137.4000000000001</ele>
        <time>2010-12-28T13:28:49Z</time>
      </trkpt>
      <trkpt lat="33.533592000603676" lon="-2.432283964008093">
        <ele>1137.4000000000001</ele>
        <time>2010-12-28T13:28:49Z</time>
      </trkpt>
      <trkpt lat="33.532429011538625" lon="-2.432873966172338">
        <ele>1137.8</ele>
        <time>2010-12-28T13:29:01Z</time>
      </trkpt>
      <trkpt lat="33.531024036929011" lon="-2.433721041306853">
        <ele>1137.5</ele>
        <time>2010-12-28T13:29:17Z</time>
      </trkpt>
      <trkpt lat="33.53093502111733" lon="-2.433735961094499">
        <ele>1137.8</ele>
        <time>2010-12-28T13:29:21Z</time>
      </trkpt>
      <trkpt lat="33.529709000140429" lon="-2.434501983225346">
        <ele>1138.8</ele>
        <time>2010-12-28T13:31:30Z</time>
      </trkpt>
      <trkpt lat="33.526846999302506" lon="-2.435734961181879">
        <ele>1140.3</ele>
        <time>2010-12-28T13:32:01Z</time>
      </trkpt>
      <trkpt lat="33.526744991540909" lon="-2.435801010578871">
        <ele>1140.3</ele>
        <time>2010-12-28T13:32:02Z</time>
      </trkpt>
      <trkpt lat="33.526242999359965" lon="-2.436116002500057">
        <ele>1140.5</ele>
        <time>2010-12-28T13:32:07Z</time>
      </trkpt>
      <trkpt lat="33.526135962456465" lon="-2.43616595864296">
        <ele>1140.4000000000001</ele>
        <time>2010-12-28T13:32:08Z</time>
      </trkpt>
      <trkpt lat="33.523274967446923" lon="-2.437316961586475">
        <ele>1141.9000000000001</ele>
        <time>2010-12-28T13:32:35Z</time>
      </trkpt>
      <trkpt lat="33.52281597442925" lon="-2.437440007925034">
        <ele>1142</ele>
        <time>2010-12-28T13:32:39Z</time>
      </trkpt>
      <trkpt lat="33.521241014823318" lon="-2.437889026477933">
        <ele>1142.9000000000001</ele>
        <time>2010-12-28T13:32:51Z</time>
      </trkpt>
      <trkpt lat="33.521126015111804" lon="-2.437945017591119">
        <ele>1142.9000000000001</ele>
        <time>2010-12-28T13:32:52Z</time>
      </trkpt>
      <trkpt lat="33.516717972233891" lon="-2.440172005444765">
        <ele>1143</ele>
        <time>2010-12-28T13:33:28Z</time>
      </trkpt>
      <trkpt lat="33.516596015542746" lon="-2.440212992951274">
        <ele>1143</ele>
        <time>2010-12-28T13:33:29Z</time>
      </trkpt>
      <trkpt lat="33.516475986689329" lon="-2.440239982679486">
        <ele>1143</ele>
        <time>2010-12-28T13:33:30Z</time>
      </trkpt>
      <trkpt lat="33.516236012801528" lon="-2.440266972407699">
        <ele>1142.9000000000001</ele>
        <time>2010-12-28T13:33:32Z</time>
      </trkpt>
      <trkpt lat="33.514082031324506" lon="-2.440567966550589">
        <ele>1142.7</ele>
        <time>2010-12-28T13:33:49Z</time>
      </trkpt>
      <trkpt lat="33.513953033834696" lon="-2.440607026219368">
        <ele>1142.7</ele>
        <time>2010-12-28T13:33:50Z</time>
      </trkpt>
      <trkpt lat="33.513304023072124" lon="-2.44082503952086">
        <ele>1143.0999999999999</ele>
        <time>2010-12-28T13:33:55Z</time>
      </trkpt>
      <trkpt lat="33.513169996440411" lon="-2.440842976793647">
        <ele>1143.0999999999999</ele>
        <time>2010-12-28T13:33:56Z</time>
      </trkpt>
      <trkpt lat="33.513034963980317" lon="-2.440847000107169">
        <ele>1143.2</ele>
        <time>2010-12-28T13:33:57Z</time>
      </trkpt>
      <trkpt lat="33.512765988707542" lon="-2.440822022035718">
        <ele>1143.4000000000001</ele>
        <time>2010-12-28T13:33:58Z</time>
      </trkpt>
      <trkpt lat="33.512392994016409" lon="-2.440756978467107">
        <ele>1143.5999999999999</ele>
        <time>2010-12-28T13:34:01Z</time>
      </trkpt>
      <trkpt lat="33.512280005961657" lon="-2.440726971253753">
        <ele>1143.5999999999999</ele>
        <time>2010-12-28T13:34:02Z</time>
      </trkpt>
      <trkpt lat="33.512169029563665" lon="-2.440685983747244">
        <ele>1143.5999999999999</ele>
        <time>2010-12-28T13:34:03Z</time>
      </trkpt>
      <trkpt lat="33.512065010145307" lon="-2.440629992634058">
        <ele>1143.5999999999999</ele>
        <time>2010-12-28T13:34:04Z</time>
      </trkpt>
      <trkpt lat="33.51196400821209" lon="-2.440565032884479">
        <ele>1143.5999999999999</ele>
        <time>2010-12-28T13:34:05Z</time>
      </trkpt>
      <trkpt lat="33.511769967153668" lon="-2.440417008474469">
        <ele>1143.5999999999999</ele>
        <time>2010-12-28T13:34:08Z</time>
      </trkpt>
      <trkpt lat="33.511677011847496" lon="-2.440340984612703">
        <ele>1143.7</ele>
        <time>2010-12-28T13:34:08Z</time>
      </trkpt>
      <trkpt lat="33.511116011068225" lon="-2.439943011850119">
        <ele>1143.4000000000001</ele>
        <time>2010-12-28T13:34:15Z</time>
      </trkpt>
      <trkpt lat="33.511015009135008" lon="-2.439935971051455">
        <ele>1143.5</ele>
        <time>2010-12-28T13:34:15Z</time>
      </trkpt>
      <trkpt lat="33.510910989716649" lon="-2.439948040992022">
        <ele>1143.5</ele>
        <time>2010-12-28T13:34:16Z</time>
      </trkpt>
      <trkpt lat="33.51080596446991" lon="-2.439973019063473">
        <ele>1143.5</ele>
        <time>2010-12-28T13:34:17Z</time>
      </trkpt>
      <trkpt lat="33.510702028870583" lon="-2.44001199491322">
        <ele>1143.5</ele>
        <time>2010-12-28T13:34:18Z</time>
      </trkpt>
      <trkpt lat="33.510595997795463" lon="-2.440064968541265">
        <ele>1143.5</ele>
        <time>2010-12-28T13:34:19Z</time>
      </trkpt>
      <trkpt lat="33.510389970615506" lon="-2.440202012658119">
        <ele>1143.5999999999999</ele>
        <time>2010-12-28T13:34:21Z</time>
      </trkpt>
      <trkpt lat="33.508178992196918" lon="-2.441849978640676">
        <ele>1143.7</ele>
        <time>2010-12-28T13:34:45Z</time>
      </trkpt>
      <trkpt lat="33.507722010836005" lon="-2.44228701107204">
        <ele>1144</ele>
        <time>2010-12-28T13:34:53Z</time>
      </trkpt>
      <trkpt lat="33.507641041651368" lon="-2.442335039377213">
        <ele>1144.0999999999999</ele>
        <time>2010-12-28T13:34:53Z</time>
      </trkpt>
      <trkpt lat="33.507552025839686" lon="-2.442370997741818">
        <ele>1144.0999999999999</ele>
        <time>2010-12-28T13:34:54Z</time>
      </trkpt>
      <trkpt lat="33.507457980886102" lon="-2.442399999126792">
        <ele>1144.0999999999999</ele>
        <time>2010-12-28T13:34:55Z</time>
      </trkpt>
      <trkpt lat="33.50706503726542" lon="-2.44248197413981">
        <ele>1144.2</ele>
        <time>2010-12-28T13:34:59Z</time>
      </trkpt>
      <trkpt lat="33.506479980424047" lon="-2.442564032971859">
        <ele>1144.2</ele>
        <time>2010-12-28T13:35:06Z</time>
      </trkpt>
      <trkpt lat="33.504634033888578" lon="-2.442926969379187">
        <ele>1144.0999999999999</ele>
        <time>2010-12-28T13:35:23Z</time>
      </trkpt>
      <trkpt lat="33.504515010863543" lon="-2.442968962714076">
        <ele>1144.0999999999999</ele>
        <time>2010-12-28T13:35:24Z</time>
      </trkpt>
      <trkpt lat="33.504060041159391" lon="-2.443137019872665">
        <ele>1144.3</ele>
        <time>2010-12-28T13:35:28Z</time>
      </trkpt>
      <trkpt lat="33.503954010084271" lon="-2.443157974630594">
        <ele>1144.3</ele>
        <time>2010-12-28T13:35:29Z</time>
      </trkpt>
      <trkpt lat="33.503669025376439" lon="-2.443230981007218">
        <ele>1144.4000000000001</ele>
        <time>2010-12-28T13:35:32Z</time>
      </trkpt>
      <trkpt lat="33.503513038158417" lon="-2.443305999040604">
        <ele>1144.4000000000001</ele>
        <time>2010-12-28T13:35:34Z</time>
      </trkpt>
      <trkpt lat="33.503099977970123" lon="-2.443612022325397">
        <ele>1144.5</ele>
        <time>2010-12-28T13:35:40Z</time>
      </trkpt>
      <trkpt lat="33.503011967986822" lon="-2.443650998175144">
        <ele>1144.4000000000001</ele>
        <time>2010-12-28T13:35:41Z</time>
      </trkpt>
      <trkpt lat="33.501752000302076" lon="-2.444253992289305">
        <ele>1145.4000000000001</ele>
        <time>2010-12-28T13:35:54Z</time>
      </trkpt>
      <trkpt lat="33.501654015854001" lon="-2.444323981180787">
        <ele>1145.4000000000001</ele>
        <time>2010-12-28T13:35:55Z</time>
      </trkpt>
      <trkpt lat="33.50145704112947" lon="-2.444453984498978">
        <ele>1145.7</ele>
        <time>2010-12-28T13:35:57Z</time>
      </trkpt>
      <trkpt lat="33.501353021711111" lon="-2.444503018632531">
        <ele>1145.7</ele>
        <time>2010-12-28T13:35:57Z</time>
      </trkpt>
      <trkpt lat="33.501243973150849" lon="-2.444539982825518">
        <ele>1145.9000000000001</ele>
        <time>2010-12-28T13:35:58Z</time>
      </trkpt>
      <trkpt lat="33.501129979267716" lon="-2.44456403888762">
        <ele>1145.9000000000001</ele>
        <time>2010-12-28T13:35:59Z</time>
      </trkpt>
      <trkpt lat="33.500899979844689" lon="-2.444603014737368">
        <ele>1146.0999999999999</ele>
        <time>2010-12-28T13:36:02Z</time>
      </trkpt>
      <trkpt lat="33.500784980133176" lon="-2.444608965888619">
        <ele>1146.0999999999999</ele>
        <time>2010-12-28T13:36:02Z</time>
      </trkpt>
      <trkpt lat="33.500674003735185" lon="-2.444605026394129">
        <ele>1146.2</ele>
        <time>2010-12-28T13:36:03Z</time>
      </trkpt>
      <trkpt lat="33.500463031232357" lon="-2.444588011130691">
        <ele>1146.5</ele>
        <time>2010-12-28T13:36:05Z</time>
      </trkpt>
      <trkpt lat="33.50036202929914" lon="-2.44460703805089">
        <ele>1146.5</ele>
        <time>2010-12-28T13:36:06Z</time>
      </trkpt>
      <trkpt lat="33.499933965504169" lon="-2.444748021662235">
        <ele>1146.8</ele>
        <time>2010-12-28T13:36:11Z</time>
      </trkpt>
      <trkpt lat="33.497292995452881" lon="-2.445659972727299">
        <ele>1147.4000000000001</ele>
        <time>2010-12-28T13:36:33Z</time>
      </trkpt>
      <trkpt lat="33.497181013226509" lon="-2.445675982162356">
        <ele>1147.5</ele>
        <time>2010-12-28T13:36:34Z</time>
      </trkpt>
      <trkpt lat="33.49694699048996" lon="-2.445695009082556">
        <ele>1147.4000000000001</ele>
        <time>2010-12-28T13:36:35Z</time>
      </trkpt>
      <trkpt lat="33.496310971677303" lon="-2.445674976333976">
        <ele>1147.7</ele>
        <time>2010-12-28T13:36:41Z</time>
      </trkpt>
      <trkpt lat="33.496180968359113" lon="-2.445669025182724">
        <ele>1147.8</ele>
        <time>2010-12-28T13:36:42Z</time>
      </trkpt>
      <trkpt lat="33.494309037923813" lon="-2.445773966610432">
        <ele>1147.5999999999999</ele>
        <time>2010-12-28T13:36:55Z</time>
      </trkpt>
      <trkpt lat="33.493607975542545" lon="-2.445976976305246">
        <ele>1147.5</ele>
        <time>2010-12-28T13:37:00Z</time>
      </trkpt>
      <trkpt lat="33.493042029440403" lon="-2.446214016526938">
        <ele>1147.9000000000001</ele>
        <time>2010-12-28T13:37:04Z</time>
      </trkpt>
      <trkpt lat="33.489482989534736" lon="-2.447845973074436">
        <ele>1149.7</ele>
        <time>2010-12-28T13:37:30Z</time>
      </trkpt>
      <trkpt lat="33.489343011751771" lon="-2.447878997772932">
        <ele>1149.7</ele>
        <time>2010-12-28T13:37:32Z</time>
      </trkpt>
      <trkpt lat="33.488922994583845" lon="-2.448016041889787">
        <ele>1149.7</ele>
        <time>2010-12-28T13:37:35Z</time>
      </trkpt>
      <trkpt lat="33.484573038294911" lon="-2.449776995927095">
        <ele>1151.2</ele>
        <time>2010-12-28T13:38:06Z</time>
      </trkpt>
      <trkpt lat="33.484440017491579" lon="-2.449848996475339">
        <ele>1151.2</ele>
        <time>2010-12-28T13:38:08Z</time>
      </trkpt>
      <trkpt lat="33.479966009035707" lon="-2.452314030379057">
        <ele>1153.3</ele>
        <time>2010-12-28T13:38:41Z</time>
      </trkpt>
      <trkpt lat="33.479844974353909" lon="-2.452353006228805">
        <ele>1153.3</ele>
        <time>2010-12-28T13:38:42Z</time>
      </trkpt>
      <trkpt lat="33.478317959234118" lon="-2.452833037823439">
        <ele>1153.4000000000001</ele>
        <time>2010-12-28T13:38:55Z</time>
      </trkpt>
      <trkpt lat="33.478197008371353" lon="-2.452897997573018">
        <ele>1153.4000000000001</ele>
        <time>2010-12-28T13:38:55Z</time>
      </trkpt>
      <trkpt lat="33.475326960906386" lon="-2.454622993245721">
        <ele>1154.5</ele>
        <time>2010-12-28T13:39:19Z</time>
      </trkpt>
      <trkpt lat="33.474492961540818" lon="-2.455216012895107">
        <ele>1155.3</ele>
        <time>2010-12-28T13:39:27Z</time>
      </trkpt>
      <trkpt lat="33.474382990971208" lon="-2.455261023715138">
        <ele>1155.4000000000001</ele>
        <time>2010-12-28T13:39:28Z</time>
      </trkpt>
      <trkpt lat="33.474057018756866" lon="-2.455433020368218">
        <ele>1155.7</ele>
        <time>2010-12-28T13:39:31Z</time>
      </trkpt>
      <trkpt lat="33.473954005166888" lon="-2.455508038401604">
        <ele>1155.9000000000001</ele>
        <time>2010-12-28T13:39:33Z</time>
      </trkpt>
      <trkpt lat="33.473573969677091" lon="-2.455764021724463">
        <ele>1156.3</ele>
        <time>2010-12-28T13:39:37Z</time>
      </trkpt>
      <trkpt lat="33.473480008542538" lon="-2.455798974260688">
        <ele>1156.2</ele>
        <time>2010-12-28T13:39:38Z</time>
      </trkpt>
      <trkpt lat="33.473183959722519" lon="-2.45590902864933">
        <ele>1156.2</ele>
        <time>2010-12-28T13:39:40Z</time>
      </trkpt>
      <trkpt lat="33.473094021901488" lon="-2.455971976742148">
        <ele>1156.2</ele>
        <time>2010-12-28T13:39:41Z</time>
      </trkpt>
      <trkpt lat="33.472519023343921" lon="-2.456405991688371">
        <ele>1156.5</ele>
        <time>2010-12-28T13:39:49Z</time>
      </trkpt>
      <trkpt lat="33.472113003954291" lon="-2.45672500692308">
        <ele>1156.3</ele>
        <time>2010-12-28T13:39:53Z</time>
      </trkpt>
      <trkpt lat="33.472019964829087" lon="-2.456776974722743">
        <ele>1156.3</ele>
        <time>2010-12-28T13:39:54Z</time>
      </trkpt>
      <trkpt lat="33.471158975735307" lon="-2.457251977175474">
        <ele>1156.5</ele>
        <time>2010-12-28T13:40:03Z</time>
      </trkpt>
      <trkpt lat="33.47105897963047" lon="-2.457287013530731">
        <ele>1156.5</ele>
        <time>2010-12-28T13:40:04Z</time>
      </trkpt>
      <trkpt lat="33.470856975764036" lon="-2.457344010472298">
        <ele>1156.5999999999999</ele>
        <time>2010-12-28T13:40:06Z</time>
      </trkpt>
      <trkpt lat="33.468178035691381" lon="-2.458271970972419">
        <ele>1157.4000000000001</ele>
        <time>2010-12-28T13:40:27Z</time>
      </trkpt>
      <trkpt lat="33.467918029054999" lon="-2.458405997604132">
        <ele>1157.5999999999999</ele>
        <time>2010-12-28T13:40:29Z</time>
      </trkpt>
      <trkpt lat="33.466656971722841" lon="-2.459059031680226">
        <ele>1157.9000000000001</ele>
        <time>2010-12-28T13:40:39Z</time>
      </trkpt>
      <trkpt lat="33.466303003951907" lon="-2.459317026659846">
        <ele>1158.0999999999999</ele>
        <time>2010-12-28T13:40:42Z</time>
      </trkpt>
      <trkpt lat="33.459663027897477" lon="-2.464499976485968">
        <ele>1160.0999999999999</ele>
        <time>2010-12-28T13:41:45Z</time>
      </trkpt>
      <trkpt lat="33.459559008479118" lon="-2.464605001732707">
        <ele>1160.3</ele>
        <time>2010-12-28T13:41:46Z</time>
      </trkpt>
      <trkpt lat="33.45896297134459" lon="-2.465222999453545">
        <ele>1160.2</ele>
        <time>2010-12-28T13:41:53Z</time>
      </trkpt>
      <trkpt lat="33.458856018260121" lon="-2.465303968638182">
        <ele>1160.2</ele>
        <time>2010-12-28T13:41:54Z</time>
      </trkpt>
      <trkpt lat="33.456677980720997" lon="-2.467204984277487">
        <ele>1161.0999999999999</ele>
        <time>2010-12-28T13:42:14Z</time>
      </trkpt>
      <trkpt lat="33.45655501820147" lon="-2.467272039502859">
        <ele>1161.2</ele>
        <time>2010-12-28T13:42:15Z</time>
      </trkpt>
      <trkpt lat="33.456158973276615" lon="-2.467453004792333">
        <ele>1161.5</ele>
        <time>2010-12-28T13:42:18Z</time>
      </trkpt>
      <trkpt lat="33.455873988568783" lon="-2.467545038089156">
        <ele>1161.8</ele>
        <time>2010-12-28T13:42:20Z</time>
      </trkpt>
      <trkpt lat="33.45543603412807" lon="-2.467643022537231">
        <ele>1162.0999999999999</ele>
        <time>2010-12-28T13:42:23Z</time>
      </trkpt>
      <trkpt lat="33.45513797365129" lon="-2.467675041407347">
        <ele>1162.3</ele>
        <time>2010-12-28T13:42:25Z</time>
      </trkpt>
      <trkpt lat="33.454992966726422" lon="-2.467679986730218">
        <ele>1162.4000000000001</ele>
        <time>2010-12-28T13:42:26Z</time>
      </trkpt>
      <trkpt lat="33.454849971458316" lon="-2.467674035578966">
        <ele>1162.5999999999999</ele>
        <time>2010-12-28T13:42:27Z</time>
      </trkpt>
      <trkpt lat="33.454417968168855" lon="-2.467608992010355">
        <ele>1162.9000000000001</ele>
        <time>2010-12-28T13:42:30Z</time>
      </trkpt>
      <trkpt lat="33.45384799875319" lon="-2.467481000348926">
        <ele>1163.2</ele>
        <time>2010-12-28T13:42:34Z</time>
      </trkpt>
      <trkpt lat="33.452771008014679" lon="-2.467159973457456">
        <ele>1163.8</ele>
        <time>2010-12-28T13:42:44Z</time>
      </trkpt>
      <trkpt lat="33.452627006918192" lon="-2.467067018151283">
        <ele>1163.9000000000001</ele>
        <time>2010-12-28T13:42:46Z</time>
      </trkpt>
      <trkpt lat="33.452520975843072" lon="-2.466930979862809">
        <ele>1163.5</ele>
        <time>2010-12-28T13:42:47Z</time>
      </trkpt>
      <trkpt lat="33.452446963638067" lon="-2.4667380284518">
        <ele>1163.5</ele>
        <time>2010-12-28T13:42:49Z</time>
      </trkpt>
      <trkpt lat="33.452347973361611" lon="-2.466430999338627">
        <ele>1163.0999999999999</ele>
        <time>2010-12-28T13:42:52Z</time>
      </trkpt>
      <trkpt lat="33.451975984498858" lon="-2.465777965262532">
        <ele>1158.8</ele>
        <time>2010-12-28T13:43:00Z</time>
      </trkpt>
      <trkpt lat="33.451876994222403" lon="-2.465663971379399">
        <ele>1157.9000000000001</ele>
        <time>2010-12-28T13:43:02Z</time>
      </trkpt>
      <trkpt lat="33.45174003392458" lon="-2.46547001414001">
        <ele>1157.2</ele>
        <time>2010-12-28T13:43:05Z</time>
      </trkpt>
      <trkpt lat="33.45167700201273" lon="-2.465274967253208">
        <ele>1156.7</ele>
        <time>2010-12-28T13:43:07Z</time>
      </trkpt>
      <trkpt lat="33.451558984816074" lon="-2.464840030297637">
        <ele>1155.4000000000001</ele>
        <time>2010-12-28T13:43:12Z</time>
      </trkpt>
      <trkpt lat="33.451516991481185" lon="-2.464742967858911">
        <ele>1155.0999999999999</ele>
        <time>2010-12-28T13:43:13Z</time>
      </trkpt>
      <trkpt lat="33.450678968802094" lon="-2.462779004126787">
        <ele>1147</ele>
        <time>2010-12-28T13:43:29Z</time>
      </trkpt>
      <trkpt lat="33.45060596242547" lon="-2.462662998586893">
        <ele>1146.5</ele>
        <time>2010-12-28T13:43:30Z</time>
      </trkpt>
      <trkpt lat="33.450437989085913" lon="-2.462445991113782">
        <ele>1145.5999999999999</ele>
        <time>2010-12-28T13:43:33Z</time>
      </trkpt>
      <trkpt lat="33.450253000482917" lon="-2.462262008339167">
        <ele>1145</ele>
        <time>2010-12-28T13:43:34Z</time>
      </trkpt>
      <trkpt lat="33.449639026075602" lon="-2.461698995903134">
        <ele>1144.3</ele>
        <time>2010-12-28T13:43:42Z</time>
      </trkpt>
      <trkpt lat="33.449584040790796" lon="-2.461610985919833">
        <ele>1144.2</ele>
        <time>2010-12-28T13:43:43Z</time>
      </trkpt>
      <trkpt lat="33.44950701110065" lon="-2.461422979831696">
        <ele>1144.2</ele>
        <time>2010-12-28T13:43:45Z</time>
      </trkpt>
      <trkpt lat="33.449482033029199" lon="-2.461314015090466">
        <ele>1144.2</ele>
        <time>2010-12-28T13:43:46Z</time>
      </trkpt>
      <trkpt lat="33.449470968917012" lon="-2.461193986237049">
        <ele>1144.2</ele>
        <time>2010-12-28T13:43:47Z</time>
      </trkpt>
      <trkpt lat="33.449469041079283" lon="-2.461068006232381">
        <ele>1144.0999999999999</ele>
        <time>2010-12-28T13:43:48Z</time>
      </trkpt>
      <trkpt lat="33.449477003887296" lon="-2.46093699708581">
        <ele>1144.0999999999999</ele>
        <time>2010-12-28T13:43:49Z</time>
      </trkpt>
      <trkpt lat="33.449497036635876" lon="-2.460807999596">
        <ele>1144.0999999999999</ele>
        <time>2010-12-28T13:43:49Z</time>
      </trkpt>
      <trkpt lat="33.449526038020849" lon="-2.460686964914203">
        <ele>1144</ele>
        <time>2010-12-28T13:43:50Z</time>
      </trkpt>
      <trkpt lat="33.449566019698977" lon="-2.460574982687831">
        <ele>1144</ele>
        <time>2010-12-28T13:43:51Z</time>
      </trkpt>
      <trkpt lat="33.449613964185119" lon="-2.460474986582995">
        <ele>1144</ele>
        <time>2010-12-28T13:43:52Z</time>
      </trkpt>
      <trkpt lat="33.449675990268588" lon="-2.460382031276822">
        <ele>1144.0999999999999</ele>
        <time>2010-12-28T13:43:53Z</time>
      </trkpt>
      <trkpt lat="33.450058037415147" lon="-2.459838967770338">
        <ele>1144.7</ele>
        <time>2010-12-28T13:43:59Z</time>
      </trkpt>
      <trkpt lat="33.450105981901288" lon="-2.459727991372347">
        <ele>1144.7</ele>
        <time>2010-12-28T13:44:00Z</time>
      </trkpt>
      <trkpt lat="33.45021896995604" lon="-2.459395984187722">
        <ele>1144.5999999999999</ele>
        <time>2010-12-28T13:44:03Z</time>
      </trkpt>
      <trkpt lat="33.450248977169394" lon="-2.459281990304589">
        <ele>1144.5999999999999</ele>
        <time>2010-12-28T13:44:04Z</time>
      </trkpt>
      <trkpt lat="33.450271021574736" lon="-2.459165984764695">
        <ele>1144.4000000000001</ele>
        <time>2010-12-28T13:44:05Z</time>
      </trkpt>
      <trkpt lat="33.450504960492253" lon="-2.457851031795144">
        <ele>1142.5</ele>
        <time>2010-12-28T13:44:18Z</time>
      </trkpt>
      <trkpt lat="33.450478976592422" lon="-2.457712981849909">
        <ele>1141.7</ele>
        <time>2010-12-28T13:44:21Z</time>
      </trkpt>
      <trkpt lat="33.450354002416134" lon="-2.457524975761771">
        <ele>1141</ele>
        <time>2010-12-28T13:44:28Z</time>
      </trkpt>
      <trkpt lat="33.450315026566386" lon="-2.457372006028891">
        <ele>1140</ele>
        <time>2010-12-28T13:44:30Z</time>
      </trkpt>
      <trkpt lat="33.450311003252864" lon="-2.457247031852603">
        <ele>1140</ele>
        <time>2010-12-28T13:44:33Z</time>
      </trkpt>
      <trkpt lat="33.450327012687922" lon="-2.457031030207872">
        <ele>1142.4000000000001</ele>
        <time>2010-12-28T13:44:35Z</time>
      </trkpt>
      <trkpt lat="33.450342016294599" lon="-2.456873031333089">
        <ele>1142.7</ele>
        <time>2010-12-28T13:44:37Z</time>
      </trkpt>
      <trkpt lat="33.450317038223147" lon="-2.456718971952796">
        <ele>1142</ele>
        <time>2010-12-28T13:44:39Z</time>
      </trkpt>
      <trkpt lat="33.4501519985497" lon="-2.456265008077025">
        <ele>1143</ele>
        <time>2010-12-28T13:44:46Z</time>
      </trkpt>
      <trkpt lat="33.450072035193443" lon="-2.456154031679034">
        <ele>1144.2</ele>
        <time>2010-12-28T13:44:48Z</time>
      </trkpt>
      <trkpt lat="33.449963992461562" lon="-2.456066021695733">
        <ele>1145</ele>
        <time>2010-12-28T13:44:50Z</time>
      </trkpt>
      <trkpt lat="33.449647994711995" lon="-2.455896036699414">
        <ele>1145.3</ele>
        <time>2010-12-28T13:44:54Z</time>
      </trkpt>
      <trkpt lat="33.448277972638607" lon="-2.455320032313466">
        <ele>1146.0999999999999</ele>
        <time>2010-12-28T13:45:25Z</time>
      </trkpt>
      <trkpt lat="33.448042022064328" lon="-2.455231016501784">
        <ele>1147.3</ele>
        <time>2010-12-28T13:45:57Z</time>
      </trkpt>
      <trkpt lat="33.447004007175565" lon="-2.454783003777266">
        <ele>1147</ele>
        <time>2010-12-28T13:46:09Z</time>
      </trkpt>
      <trkpt lat="33.446377962827682" lon="-2.454430041834712">
        <ele>1148.2</ele>
        <time>2010-12-28T13:46:16Z</time>
      </trkpt>
      <trkpt lat="33.445966998115182" lon="-2.454167017713189">
        <ele>1150.9000000000001</ele>
        <time>2010-12-28T13:46:21Z</time>
      </trkpt>
      <trkpt lat="33.445659969002008" lon="-2.453926960006356">
        <ele>1154.9000000000001</ele>
        <time>2010-12-28T13:46:26Z</time>
      </trkpt>
      <trkpt lat="33.445530971512198" lon="-2.453885972499847">
        <ele>1155.7</ele>
        <time>2010-12-28T13:46:28Z</time>
      </trkpt>
      <trkpt lat="33.444950021803379" lon="-2.453855965286493">
        <ele>1155.7</ele>
        <time>2010-12-28T13:46:35Z</time>
      </trkpt>
      <trkpt lat="33.444787999615073" lon="-2.453800980001688">
        <ele>1155.7</ele>
        <time>2010-12-28T13:46:37Z</time>
      </trkpt>
      <trkpt lat="33.444231022149324" lon="-2.453491017222405">
        <ele>1155.5</ele>
        <time>2010-12-28T13:46:45Z</time>
      </trkpt>
      <trkpt lat="33.444142006337643" lon="-2.453465033322573">
        <ele>1155.5999999999999</ele>
        <time>2010-12-28T13:46:46Z</time>
      </trkpt>
      <trkpt lat="33.44405198469758" lon="-2.453447012230754">
        <ele>1155.5999999999999</ele>
        <time>2010-12-28T13:46:47Z</time>
      </trkpt>
      <trkpt lat="33.443646971136332" lon="-2.453382974490523">
        <ele>1155.4000000000001</ele>
        <time>2010-12-28T13:46:51Z</time>
      </trkpt>
      <trkpt lat="33.443532977253199" lon="-2.453328995034099">
        <ele>1155.5</ele>
        <time>2010-12-28T13:46:53Z</time>
      </trkpt>
      <trkpt lat="33.44325796701014" lon="-2.453102013096213">
        <ele>1157.3</ele>
        <time>2010-12-28T13:46:59Z</time>
      </trkpt>
      <trkpt lat="33.442965019494295" lon="-2.45294401422143">
        <ele>1158.9000000000001</ele>
        <time>2010-12-28T13:47:02Z</time>
      </trkpt>
      <trkpt lat="33.442851025611162" lon="-2.452847035601735">
        <ele>1159.7</ele>
        <time>2010-12-28T13:47:04Z</time>
      </trkpt>
      <trkpt lat="33.442626977339387" lon="-2.452641008421779">
        <ele>1161.4000000000001</ele>
        <time>2010-12-28T13:47:08Z</time>
      </trkpt>
      <trkpt lat="33.442188017070293" lon="-2.452314030379057">
        <ele>1164.3</ele>
        <time>2010-12-28T13:47:15Z</time>
      </trkpt>
      <trkpt lat="33.442120961844921" lon="-2.452163994312286">
        <ele>1164.4000000000001</ele>
        <time>2010-12-28T13:47:17Z</time>
      </trkpt>
      <trkpt lat="33.442043010145426" lon="-2.451693015173078">
        <ele>1164.4000000000001</ele>
        <time>2010-12-28T13:47:23Z</time>
      </trkpt>
      <trkpt lat="33.442046027630568" lon="-2.451525963842869">
        <ele>1164.3</ele>
        <time>2010-12-28T13:47:26Z</time>
      </trkpt>
      <trkpt lat="33.442101012915373" lon="-2.451202003285289">
        <ele>1164.0999999999999</ele>
        <time>2010-12-28T13:47:29Z</time>
      </trkpt>
      <trkpt lat="33.442063964903355" lon="-2.450728006660938">
        <ele>1163.5999999999999</ele>
        <time>2010-12-28T13:47:38Z</time>
      </trkpt>
      <trkpt lat="33.441733969375491" lon="-2.450627004727721">
        <ele>1165</ele>
        <time>2010-12-28T13:47:51Z</time>
      </trkpt>
      <trkpt lat="33.441602038219571" lon="-2.450627004727721">
        <ele>1165.2</ele>
        <time>2010-12-28T13:47:54Z</time>
      </trkpt>
      <trkpt lat="33.441346976906061" lon="-2.450649971142411">
        <ele>1165.2</ele>
        <time>2010-12-28T13:48:00Z</time>
      </trkpt>
      <trkpt lat="33.441243963316083" lon="-2.450676960870624">
        <ele>1165.3</ele>
        <time>2010-12-28T13:48:03Z</time>
      </trkpt>
      <trkpt lat="33.441171962767839" lon="-2.450747033581138">
        <ele>1165.2</ele>
        <time>2010-12-28T13:48:05Z</time>
      </trkpt>
      <trkpt lat="33.440348021686077" lon="-2.452215040102601">
        <ele>1161.4000000000001</ele>
        <time>2010-12-28T13:48:31Z</time>
      </trkpt>
      <trkpt lat="33.440231010317802" lon="-2.452315036207438">
        <ele>1161.5</ele>
        <time>2010-12-28T13:48:34Z</time>
      </trkpt>
      <trkpt lat="33.440078040584922" lon="-2.452368009835482">
        <ele>1161.5999999999999</ele>
        <time>2010-12-28T13:48:36Z</time>
      </trkpt>
      <trkpt lat="33.435859009623528" lon="-2.452920963987708">
        <ele>1164.7</ele>
        <time>2010-12-28T13:49:13Z</time>
      </trkpt>
      <trkpt lat="33.435726994648576" lon="-2.452919958159328">
        <ele>1164.8</ele>
        <time>2010-12-28T13:49:13Z</time>
      </trkpt>
      <trkpt lat="33.435233971104026" lon="-2.452953988686204">
        <ele>1165.0999999999999</ele>
        <time>2010-12-28T13:49:17Z</time>
      </trkpt>
      <trkpt lat="33.435114026069641" lon="-2.452977038919926">
        <ele>1165.0999999999999</ele>
        <time>2010-12-28T13:49:18Z</time>
      </trkpt>
      <trkpt lat="33.434882014989853" lon="-2.453049961477518">
        <ele>1165.2</ele>
        <time>2010-12-28T13:49:20Z</time>
      </trkpt>
      <trkpt lat="33.434670036658645" lon="-2.453131014481187">
        <ele>1165.3</ele>
        <time>2010-12-28T13:49:22Z</time>
      </trkpt>
      <trkpt lat="33.434571968391538" lon="-2.453145012259483">
        <ele>1165.4000000000001</ele>
        <time>2010-12-28T13:49:23Z</time>
      </trkpt>
      <trkpt lat="33.434481024742126" lon="-2.453132020309568">
        <ele>1165.5999999999999</ele>
        <time>2010-12-28T13:49:24Z</time>
      </trkpt>
      <trkpt lat="33.434388991445303" lon="-2.453102013096213">
        <ele>1165.8</ele>
        <time>2010-12-28T13:49:25Z</time>
      </trkpt>
      <trkpt lat="33.434013985097408" lon="-2.452951977029443">
        <ele>1166.5</ele>
        <time>2010-12-28T13:49:29Z</time>
      </trkpt>
      <trkpt lat="33.433927986770868" lon="-2.452907972037792">
        <ele>1166.9000000000001</ele>
        <time>2010-12-28T13:49:30Z</time>
      </trkpt>
      <trkpt lat="33.432068964466453" lon="-2.452081013470888">
        <ele>1168.2</ele>
        <time>2010-12-28T13:49:48Z</time>
      </trkpt>
      <trkpt lat="33.431938961148262" lon="-2.45204396545887">
        <ele>1168.0999999999999</ele>
        <time>2010-12-28T13:49:49Z</time>
      </trkpt>
      <trkpt lat="33.429593034088612" lon="-2.451390009373426">
        <ele>1169.2</ele>
        <time>2010-12-28T13:50:05Z</time>
      </trkpt>
      <trkpt lat="33.429456995800138" lon="-2.451327983289957">
        <ele>1169.0999999999999</ele>
        <time>2010-12-28T13:50:07Z</time>
      </trkpt>
      <trkpt lat="33.427725965157151" lon="-2.450485015287995">
        <ele>1169.5</ele>
        <time>2010-12-28T13:50:19Z</time>
      </trkpt>
      <trkpt lat="33.427606020122766" lon="-2.450403962284327">
        <ele>1169.5999999999999</ele>
        <time>2010-12-28T13:50:20Z</time>
      </trkpt>
      <trkpt lat="33.427233025431633" lon="-2.45010799728334">
        <ele>1169.7</ele>
        <time>2010-12-28T13:50:23Z</time>
      </trkpt>
      <trkpt lat="33.426329037174582" lon="-2.449253965169191">
        <ele>1169.2</ele>
        <time>2010-12-28T13:50:30Z</time>
      </trkpt>
      <trkpt lat="33.426212025806308" lon="-2.44912002235651">
        <ele>1169.5</ele>
        <time>2010-12-28T13:50:31Z</time>
      </trkpt>
      <trkpt lat="33.42611001804471" lon="-2.448979960754514">
        <ele>1169.4000000000001</ele>
        <time>2010-12-28T13:50:33Z</time>
      </trkpt>
      <trkpt lat="33.426022008061409" lon="-2.448835037648678">
        <ele>1169.3</ele>
        <time>2010-12-28T13:50:34Z</time>
      </trkpt>
      <trkpt lat="33.425950007513165" lon="-2.44869003072381">
        <ele>1169.2</ele>
        <time>2010-12-28T13:50:35Z</time>
      </trkpt>
      <trkpt lat="33.42576602473855" lon="-2.448307983577251">
        <ele>1169.2</ele>
        <time>2010-12-28T13:50:37Z</time>
      </trkpt>
      <trkpt lat="33.425685977563262" lon="-2.44819600135088">
        <ele>1169.2</ele>
        <time>2010-12-28T13:50:38Z</time>
      </trkpt>
      <trkpt lat="33.425588998943567" lon="-2.448096005246043">
        <ele>1169.0999999999999</ele>
        <time>2010-12-28T13:50:39Z</time>
      </trkpt>
      <trkpt lat="33.425164958462119" lon="-2.447722004726529">
        <ele>1168.9000000000001</ele>
        <time>2010-12-28T13:50:43Z</time>
      </trkpt>
      <trkpt lat="33.425046019256115" lon="-2.447643969208002">
        <ele>1168.9000000000001</ele>
        <time>2010-12-28T13:50:44Z</time>
      </trkpt>
      <trkpt lat="33.424920039251447" lon="-2.447581021115184">
        <ele>1168.9000000000001</ele>
        <time>2010-12-28T13:50:45Z</time>
      </trkpt>
      <trkpt lat="33.424785006791353" lon="-2.447532992810011">
        <ele>1169.2</ele>
        <time>2010-12-28T13:50:47Z</time>
      </trkpt>
      <trkpt lat="33.42449801042676" lon="-2.447474990040064">
        <ele>1169.3</ele>
        <time>2010-12-28T13:50:49Z</time>
      </trkpt>
      <trkpt lat="33.424082016572356" lon="-2.447420004755259">
        <ele>1169.9000000000001</ele>
        <time>2010-12-28T13:50:52Z</time>
      </trkpt>
      <trkpt lat="33.423958970233798" lon="-2.447378011420369">
        <ele>1170.0999999999999</ele>
        <time>2010-12-28T13:50:53Z</time>
      </trkpt>
      <trkpt lat="33.4237240254879" lon="-2.447310034185648">
        <ele>1170.4000000000001</ele>
        <time>2010-12-28T13:50:55Z</time>
      </trkpt>
      <trkpt lat="33.423607014119625" lon="-2.447309028357267">
        <ele>1170.5999999999999</ele>
        <time>2010-12-28T13:50:56Z</time>
      </trkpt>
      <trkpt lat="33.423485979437828" lon="-2.447327971458435">
        <ele>1170.5999999999999</ele>
        <time>2010-12-28T13:50:57Z</time>
      </trkpt>
      <trkpt lat="33.423098986968398" lon="-2.447385974228382">
        <ele>1170.5</ele>
        <time>2010-12-28T13:50:59Z</time>
      </trkpt>
      <trkpt lat="33.422964038327336" lon="-2.447378011420369">
        <ele>1170.4000000000001</ele>
        <time>2010-12-28T13:51:00Z</time>
      </trkpt>
      <trkpt lat="33.422707971185446" lon="-2.447383040562272">
        <ele>1170.4000000000001</ele>
        <time>2010-12-28T13:51:02Z</time>
      </trkpt>
      <trkpt lat="33.421923005953431" lon="-2.447471972554922">
        <ele>1170.2</ele>
        <time>2010-12-28T13:51:09Z</time>
      </trkpt>
      <trkpt lat="33.421798031777143" lon="-2.447442971169949">
        <ele>1170.0999999999999</ele>
        <time>2010-12-28T13:51:10Z</time>
      </trkpt>
      <trkpt lat="33.421670962125063" lon="-2.447393015027046">
        <ele>1170.2</ele>
        <time>2010-12-28T13:51:11Z</time>
      </trkpt>
      <trkpt lat="33.421265026554465" lon="-2.447261000052095">
        <ele>1170.4000000000001</ele>
        <time>2010-12-28T13:51:13Z</time>
      </trkpt>
      <trkpt lat="33.42037302441895" lon="-2.447027983143926">
        <ele>1170.9000000000001</ele>
        <time>2010-12-28T13:51:19Z</time>
      </trkpt>
      <trkpt lat="33.420232040807605" lon="-2.446943996474147">
        <ele>1171</ele>
        <time>2010-12-28T13:51:20Z</time>
      </trkpt>
      <trkpt lat="33.419224033132195" lon="-2.446290962398052">
        <ele>1170.8</ele>
        <time>2010-12-28T13:51:28Z</time>
      </trkpt>
      <trkpt lat="33.41908598318696" lon="-2.446173029020429">
        <ele>1170.8</ele>
        <time>2010-12-28T13:51:28Z</time>
      </trkpt>
      <trkpt lat="33.418234968557954" lon="-2.445452017709613">
        <ele>1170.5999999999999</ele>
        <time>2010-12-28T13:51:35Z</time>
      </trkpt>
      <trkpt lat="33.41807303018868" lon="-2.445359984412789">
        <ele>1170.8</ele>
        <time>2010-12-28T13:51:36Z</time>
      </trkpt>
      <trkpt lat="33.405476035550237" lon="-2.438655970618129">
        <ele>1175.2</ele>
        <time>2010-12-28T13:52:57Z</time>
      </trkpt>
      <trkpt lat="33.405328011140227" lon="-2.438606014475226">
        <ele>1175.5</ele>
        <time>2010-12-28T13:52:57Z</time>
      </trkpt>
      <trkpt lat="33.403591029345989" lon="-2.437885003164411">
        <ele>1177.4000000000001</ele>
        <time>2010-12-28T13:53:10Z</time>
      </trkpt>
      <trkpt lat="33.403463959693909" lon="-2.437819959595799">
        <ele>1177.5</ele>
        <time>2010-12-28T13:53:10Z</time>
      </trkpt>
      <trkpt lat="33.403346026316285" lon="-2.437743013724685">
        <ele>1177.5</ele>
        <time>2010-12-28T13:53:11Z</time>
      </trkpt>
      <trkpt lat="33.402918968349695" lon="-2.437457023188472">
        <ele>1177.8</ele>
        <time>2010-12-28T13:53:15Z</time>
      </trkpt>
      <trkpt lat="33.402796005830169" lon="-2.437416035681963">
        <ele>1178</ele>
        <time>2010-12-28T13:53:16Z</time>
      </trkpt>
      <trkpt lat="33.402389986440539" lon="-2.437327019870281">
        <ele>1178.2</ele>
        <time>2010-12-28T13:53:19Z</time>
      </trkpt>
      <trkpt lat="33.402250008657575" lon="-2.437313022091985">
        <ele>1178.4000000000001</ele>
        <time>2010-12-28T13:53:20Z</time>
      </trkpt>
      <trkpt lat="33.401327999308705" lon="-2.437365995720029">
        <ele>1179.3</ele>
        <time>2010-12-28T13:53:26Z</time>
      </trkpt>
      <trkpt lat="33.395318007096648" lon="-2.437917022034526">
        <ele>1184.8</ele>
        <time>2010-12-28T13:54:04Z</time>
      </trkpt>
      <trkpt lat="33.395174006000161" lon="-2.437892965972424">
        <ele>1185.0999999999999</ele>
        <time>2010-12-28T13:54:05Z</time>
      </trkpt>
      <trkpt lat="33.394301030784845" lon="-2.437747037038207">
        <ele>1186.8</ele>
        <time>2010-12-28T13:54:11Z</time>
      </trkpt>
      <trkpt lat="33.394148983061314" lon="-2.437757011502981">
        <ele>1187.0999999999999</ele>
        <time>2010-12-28T13:54:12Z</time>
      </trkpt>
      <trkpt lat="33.393994001671672" lon="-2.437770003452897">
        <ele>1187.3</ele>
        <time>2010-12-28T13:54:13Z</time>
      </trkpt>
      <trkpt lat="33.390870988368988" lon="-2.438395963981748">
        <ele>1189</ele>
        <time>2010-12-28T13:54:33Z</time>
      </trkpt>
      <trkpt lat="33.390584997832775" lon="-2.438510041683912">
        <ele>1189.3</ele>
        <time>2010-12-28T13:54:35Z</time>
      </trkpt>
      <trkpt lat="33.389718979597092" lon="-2.438866021111608">
        <ele>1190.3</ele>
        <time>2010-12-28T13:54:40Z</time>
      </trkpt>
      <trkpt lat="33.389562992379069" lon="-2.438904996961355">
        <ele>1190.5</ele>
        <time>2010-12-28T13:54:41Z</time>
      </trkpt>
      <trkpt lat="33.389403987675905" lon="-2.438935004174709">
        <ele>1190.8</ele>
        <time>2010-12-28T13:54:42Z</time>
      </trkpt>
      <trkpt lat="33.389246994629502" lon="-2.438951013609767">
        <ele>1191</ele>
        <time>2010-12-28T13:54:43Z</time>
      </trkpt>
      <trkpt lat="33.388251978904009" lon="-2.439017985016108">
        <ele>1192.5</ele>
        <time>2010-12-28T13:54:51Z</time>
      </trkpt>
      <trkpt lat="33.388141002506018" lon="-2.439053021371365">
        <ele>1192.5999999999999</ele>
        <time>2010-12-28T13:54:52Z</time>
      </trkpt>
      <trkpt lat="33.388031031936407" lon="-2.439104989171028">
        <ele>1192.7</ele>
        <time>2010-12-28T13:54:53Z</time>
      </trkpt>
      <trkpt lat="33.387920977547765" lon="-2.439180007204413">
        <ele>1192.7</ele>
        <time>2010-12-28T13:54:54Z</time>
      </trkpt>
      <trkpt lat="33.385398024693131" lon="-2.440793020650744">
        <ele>1194.7</ele>
        <time>2010-12-28T13:55:11Z</time>
      </trkpt>
      <trkpt lat="33.385248994454741" lon="-2.440867032855749">
        <ele>1194.9000000000001</ele>
        <time>2010-12-28T13:55:12Z</time>
      </trkpt>
      <trkpt lat="33.384681958705187" lon="-2.441109018400312">
        <ele>1195.4000000000001</ele>
        <time>2010-12-28T13:55:16Z</time>
      </trkpt>
      <trkpt lat="33.384539969265461" lon="-2.441151011735201">
        <ele>1195.5999999999999</ele>
        <time>2010-12-28T13:55:17Z</time>
      </trkpt>
      <trkpt lat="33.384392028674483" lon="-2.441179007291794">
        <ele>1195.8</ele>
        <time>2010-12-28T13:55:18Z</time>
      </trkpt>
      <trkpt lat="33.384088017046452" lon="-2.4412149656564">
        <ele>1196.3</ele>
        <time>2010-12-28T13:55:20Z</time>
      </trkpt>
      <trkpt lat="33.383938986808062" lon="-2.441221000626683">
        <ele>1196.5</ele>
        <time>2010-12-28T13:55:21Z</time>
      </trkpt>
      <trkpt lat="33.383798003196716" lon="-2.441211026161909">
        <ele>1196.7</ele>
        <time>2010-12-28T13:55:22Z</time>
      </trkpt>
      <trkpt lat="33.383671017363667" lon="-2.441186970099807">
        <ele>1196.9000000000001</ele>
        <time>2010-12-28T13:55:23Z</time>
      </trkpt>
      <trkpt lat="33.383561968803406" lon="-2.441141959279776">
        <ele>1197.3</ele>
        <time>2010-12-28T13:55:24Z</time>
      </trkpt>
      <trkpt lat="33.383460966870189" lon="-2.44108697399497">
        <ele>1197.3</ele>
        <time>2010-12-28T13:55:25Z</time>
      </trkpt>
      <trkpt lat="33.383368011564016" lon="-2.441026037558913">
        <ele>1197.4000000000001</ele>
        <time>2010-12-28T13:55:26Z</time>
      </trkpt>
      <trkpt lat="33.383285030722618" lon="-2.44095697067678">
        <ele>1197.7</ele>
        <time>2010-12-28T13:55:27Z</time>
      </trkpt>
      <trkpt lat="33.383213030174375" lon="-2.440878013148904">
        <ele>1198.0999999999999</ele>
        <time>2010-12-28T13:55:29Z</time>
      </trkpt>
      <trkpt lat="33.383137006312609" lon="-2.440796960145235">
        <ele>1198.5999999999999</ele>
        <time>2010-12-28T13:55:29Z</time>
      </trkpt>
      <trkpt lat="33.382742973044515" lon="-2.440330004319549">
        <ele>1198.4000000000001</ele>
        <time>2010-12-28T13:55:35Z</time>
      </trkpt>
      <trkpt lat="33.382045011967421" lon="-2.439427021890879">
        <ele>1199.9000000000001</ele>
        <time>2010-12-28T13:55:44Z</time>
      </trkpt>
      <trkpt lat="33.381953984498978" lon="-2.439342029392719">
        <ele>1200.3</ele>
        <time>2010-12-28T13:55:45Z</time>
      </trkpt>
      <trkpt lat="33.381626000627875" lon="-2.439072970300913">
        <ele>1200.7</ele>
        <time>2010-12-28T13:55:49Z</time>
      </trkpt>
      <trkpt lat="33.381386026740074" lon="-2.438897034153342">
        <ele>1200.3</ele>
        <time>2010-12-28T13:55:55Z</time>
      </trkpt>
      <trkpt lat="33.381287036463618" lon="-2.438855040818453">
        <ele>1200.5</ele>
        <time>2010-12-28T13:55:58Z</time>
      </trkpt>
      <trkpt lat="33.381172036752105" lon="-2.438813969492912">
        <ele>1200.7</ele>
        <time>2010-12-28T13:56:00Z</time>
      </trkpt>
      <trkpt lat="33.379833027720451" lon="-2.438069991767407">
        <ele>1205.4000000000001</ele>
        <time>2010-12-28T13:56:17Z</time>
      </trkpt>
      <trkpt lat="33.379725990816951" lon="-2.437991034239531">
        <ele>1206.2</ele>
        <time>2010-12-28T13:56:18Z</time>
      </trkpt>
      <trkpt lat="33.378695016726851" lon="-2.437214031815529">
        <ele>1210.5</ele>
        <time>2010-12-28T13:56:28Z</time>
      </trkpt>
      <trkpt lat="33.37858303450048" lon="-2.437166003510356">
        <ele>1210.8</ele>
        <time>2010-12-28T13:56:29Z</time>
      </trkpt>
      <trkpt lat="33.378247004002333" lon="-2.437057960778475">
        <ele>1211.9000000000001</ele>
        <time>2010-12-28T13:56:33Z</time>
      </trkpt>
      <trkpt lat="33.378126975148916" lon="-2.437041029334068">
        <ele>1212.2</ele>
        <time>2010-12-28T13:56:34Z</time>
      </trkpt>
      <trkpt lat="33.377750962972641" lon="-2.437032982707024">
        <ele>1213.3</ele>
        <time>2010-12-28T13:56:37Z</time>
      </trkpt>
      <trkpt lat="33.377523981034756" lon="-2.437049997970462">
        <ele>1214</ele>
        <time>2010-12-28T13:56:38Z</time>
      </trkpt>
      <trkpt lat="33.377431025728583" lon="-2.43706600740552">
        <ele>1214.3</ele>
        <time>2010-12-28T13:56:39Z</time>
      </trkpt>
      <trkpt lat="33.377287024632096" lon="-2.437128033488989">
        <ele>1214.9000000000001</ele>
        <time>2010-12-28T13:56:41Z</time>
      </trkpt>
      <trkpt lat="33.377173030748963" lon="-2.437246972694993">
        <ele>1215.5999999999999</ele>
        <time>2010-12-28T13:56:43Z</time>
      </trkpt>
      <trkpt lat="33.376797018572688" lon="-2.437738990411162">
        <ele>1218.2</ele>
        <time>2010-12-28T13:56:50Z</time>
      </trkpt>
      <trkpt lat="33.376639019697905" lon="-2.437819959595799">
        <ele>1219.3</ele>
        <time>2010-12-28T13:56:51Z</time>
      </trkpt>
      <trkpt lat="33.376487977802753" lon="-2.437815014272928">
        <ele>1219.9000000000001</ele>
        <time>2010-12-28T13:56:53Z</time>
      </trkpt>
      <trkpt lat="33.376240963116288" lon="-2.437779977917671">
        <ele>1222</ele>
        <time>2010-12-28T13:56:59Z</time>
      </trkpt>
      <trkpt lat="33.376128980889916" lon="-2.437709989026189">
        <ele>1222.8</ele>
        <time>2010-12-28T13:57:01Z</time>
      </trkpt>
      <trkpt lat="33.376053040847182" lon="-2.437650980427861">
        <ele>1223.2</ele>
        <time>2010-12-28T13:57:03Z</time>
      </trkpt>
      <trkpt lat="33.37620098143816" lon="-2.437759023159742">
        <ele>1222.2</ele>
        <time>2010-12-28T13:57:05Z</time>
      </trkpt>
      <trkpt lat="33.375957990065217" lon="-2.437590966001153">
        <ele>1223.4000000000001</ele>
        <time>2010-12-28T13:57:05Z</time>
      </trkpt>
      <trkpt lat="33.375828992575407" lon="-2.437552995979786">
        <ele>1223.3</ele>
        <time>2010-12-28T13:57:08Z</time>
      </trkpt>
      <trkpt lat="33.374814027920365" lon="-2.437491975724697">
        <ele>1221.3</ele>
        <time>2010-12-28T13:57:19Z</time>
      </trkpt>
      <trkpt lat="33.374359980225563" lon="-2.437532041221857">
        <ele>1219.8</ele>
        <time>2010-12-28T13:57:24Z</time>
      </trkpt>
      <trkpt lat="33.373638968914747" lon="-2.437653997913003">
        <ele>1218.3</ele>
        <time>2010-12-28T13:57:33Z</time>
      </trkpt>
      <trkpt lat="33.373522041365504" lon="-2.437606975436211">
        <ele>1218.0999999999999</ele>
        <time>2010-12-28T13:57:35Z</time>
      </trkpt>
      <trkpt lat="33.373379968106747" lon="-2.437431961297989">
        <ele>1218.3</ele>
        <time>2010-12-28T13:57:37Z</time>
      </trkpt>
      <trkpt lat="33.37325599975884" lon="-2.437349986284971">
        <ele>1217.8</ele>
        <time>2010-12-28T13:57:39Z</time>
      </trkpt>
      <trkpt lat="33.373166983947158" lon="-2.437214031815529">
        <ele>1217.5999999999999</ele>
        <time>2010-12-28T13:57:42Z</time>
      </trkpt>
      <trkpt lat="33.373118033632636" lon="-2.437041029334068">
        <ele>1217</ele>
        <time>2010-12-28T13:57:44Z</time>
      </trkpt>
      <trkpt lat="33.37304200977087" lon="-2.436890993267298">
        <ele>1216.5</ele>
        <time>2010-12-28T13:57:46Z</time>
      </trkpt>
      <trkpt lat="33.37291301228106" lon="-2.436785968020558">
        <ele>1216</ele>
        <time>2010-12-28T13:57:47Z</time>
      </trkpt>
      <trkpt lat="33.372445972636342" lon="-2.436474999412894">
        <ele>1216.2</ele>
        <time>2010-12-28T13:57:53Z</time>
      </trkpt>
      <trkpt lat="33.37235402315855" lon="-2.436394030228257">
        <ele>1216.0999999999999</ele>
        <time>2010-12-28T13:57:54Z</time>
      </trkpt>
      <trkpt lat="33.372059985995293" lon="-2.436165036633611">
        <ele>1216.4000000000001</ele>
        <time>2010-12-28T13:57:57Z</time>
      </trkpt>
      <trkpt lat="33.37110897526145" lon="-2.43545500561595">
        <ele>1213.4000000000001</ele>
        <time>2010-12-28T13:58:05Z</time>
      </trkpt>
      <trkpt lat="33.371011996641755" lon="-2.43534897454083">
        <ele>1213</ele>
        <time>2010-12-28T13:58:06Z</time>
      </trkpt>
      <trkpt lat="33.370832037180662" lon="-2.435120986774564">
        <ele>1212.2</ele>
        <time>2010-12-28T13:58:08Z</time>
      </trkpt>
      <trkpt lat="33.369951015338302" lon="-2.433911981061101">
        <ele>1209.0999999999999</ele>
        <time>2010-12-28T13:58:20Z</time>
      </trkpt>
      <trkpt lat="33.369815982878208" lon="-2.433832017704845">
        <ele>1208.9000000000001</ele>
        <time>2010-12-28T13:58:22Z</time>
      </trkpt>
      <trkpt lat="33.369644992053509" lon="-2.433833023533225">
        <ele>1208.7</ele>
        <time>2010-12-28T13:58:24Z</time>
      </trkpt>
      <trkpt lat="33.369550025090575" lon="-2.433865964412689">
        <ele>1208.5999999999999</ele>
        <time>2010-12-28T13:58:25Z</time>
      </trkpt>
      <trkpt lat="33.369347015395761" lon="-2.433964032679796">
        <ele>1208.3</ele>
        <time>2010-12-28T13:58:27Z</time>
      </trkpt>
      <trkpt lat="33.362436974421144" lon="-2.437413018196821">
        <ele>1201</ele>
        <time>2010-12-28T13:59:16Z</time>
      </trkpt>
      <trkpt lat="33.361603980883956" lon="-2.438021963462234">
        <ele>1200.2</ele>
        <time>2010-12-28T13:59:22Z</time>
      </trkpt>
      <trkpt lat="33.361469032242894" lon="-2.438131012022495">
        <ele>1200</ele>
        <time>2010-12-28T13:59:23Z</time>
      </trkpt>
      <trkpt lat="33.360447026789188" lon="-2.43917103856802">
        <ele>1199.2</ele>
        <time>2010-12-28T13:59:31Z</time>
      </trkpt>
      <trkpt lat="33.35957296192646" lon="-2.440192038193345">
        <ele>1198.5</ele>
        <time>2010-12-28T13:59:39Z</time>
      </trkpt>
      <trkpt lat="33.35808802396059" lon="-2.441629031673074">
        <ele>1197.5</ele>
        <time>2010-12-28T13:59:51Z</time>
      </trkpt>
      <trkpt lat="33.356696963310242" lon="-2.442950019612908">
        <ele>1197.0999999999999</ele>
        <time>2010-12-28T14:00:03Z</time>
      </trkpt>
      <trkpt lat="33.356607025489211" lon="-2.44308396242559">
        <ele>1197</ele>
        <time>2010-12-28T14:00:03Z</time>
      </trkpt>
      <trkpt lat="33.356533013284206" lon="-2.443226035684347">
        <ele>1196.9000000000001</ele>
        <time>2010-12-28T14:00:04Z</time>
      </trkpt>
      <trkpt lat="33.355729021131992" lon="-2.44465297088027">
        <ele>1196.7</ele>
        <time>2010-12-28T14:00:14Z</time>
      </trkpt>
      <trkpt lat="33.355520982295275" lon="-2.444961005821824">
        <ele>1196.8</ele>
        <time>2010-12-28T14:00:16Z</time>
      </trkpt>
      <trkpt lat="33.344922987744212" lon="-2.4596509616822">
        <ele>1202</ele>
        <time>2010-12-28T14:01:50Z</time>
      </trkpt>
      <trkpt lat="33.34483397193253" lon="-2.459744000807405">
        <ele>1202</ele>
        <time>2010-12-28T14:01:51Z</time>
      </trkpt>
      <trkpt lat="33.344679996371269" lon="-2.459879033267498">
        <ele>1202.0999999999999</ele>
        <time>2010-12-28T14:01:53Z</time>
      </trkpt>
      <trkpt lat="33.344088988378644" lon="-2.460334002971649">
        <ele>1202.2</ele>
        <time>2010-12-28T14:02:01Z</time>
      </trkpt>
      <trkpt lat="33.344011036679149" lon="-2.460425030440092">
        <ele>1202.2</ele>
        <time>2010-12-28T14:02:03Z</time>
      </trkpt>
      <trkpt lat="33.343685986474156" lon="-2.4607889726758">
        <ele>1202.2</ele>
        <time>2010-12-28T14:02:06Z</time>
      </trkpt>
      <trkpt lat="33.343603005632758" lon="-2.460858039557934">
        <ele>1202.3</ele>
        <time>2010-12-28T14:02:07Z</time>
      </trkpt>
      <trkpt lat="33.342358963564038" lon="-2.461783988401294">
        <ele>1200</ele>
        <time>2010-12-28T14:08:28Z</time>
      </trkpt>
      <trkpt lat="33.342160983011127" lon="-2.461956990882754">
        <ele>1200.4000000000001</ele>
        <time>2010-12-28T15:15:25Z</time>
      </trkpt>
      <trkpt lat="33.342074984684587" lon="-2.462023040279746">
        <ele>1200.5</ele>
        <time>2010-12-28T15:15:27Z</time>
      </trkpt>
      <trkpt lat="33.335788976401091" lon="-2.468020040541887">
        <ele>1205.8</ele>
        <time>2010-12-28T15:16:58Z</time>
      </trkpt>
      <trkpt lat="33.335285978391767" lon="-2.468615993857384">
        <ele>1205.5999999999999</ele>
        <time>2010-12-28T15:17:07Z</time>
      </trkpt>
      <trkpt lat="33.334749033674598" lon="-2.469770014286041">
        <ele>1205.4000000000001</ele>
        <time>2010-12-28T15:17:19Z</time>
      </trkpt>
      <trkpt lat="33.334637973457575" lon="-2.469892976805568">
        <ele>1205.5</ele>
        <time>2010-12-28T15:17:22Z</time>
      </trkpt>
      <trkpt lat="33.33447502925992" lon="-2.469951985403895">
        <ele>1205.3</ele>
        <time>2010-12-28T15:17:23Z</time>
      </trkpt>
      <trkpt lat="33.333974964916706" lon="-2.47013202868402">
        <ele>1203.8</ele>
        <time>2010-12-28T15:17:28Z</time>
      </trkpt>
      <trkpt lat="33.333769021555781" lon="-2.470232024788857">
        <ele>1203.5999999999999</ele>
        <time>2010-12-28T15:17:30Z</time>
      </trkpt>
      <trkpt lat="33.33357498049736" lon="-2.470358004793525">
        <ele>1203.4000000000001</ele>
        <time>2010-12-28T15:17:33Z</time>
      </trkpt>
      <trkpt lat="33.332989001646638" lon="-2.470746003091335">
        <ele>1202.7</ele>
        <time>2010-12-28T15:17:39Z</time>
      </trkpt>
      <trkpt lat="33.332879031077027" lon="-2.470791013911367">
        <ele>1202.5999999999999</ele>
        <time>2010-12-28T15:17:39Z</time>
      </trkpt>
      <trkpt lat="33.331785025075078" lon="-2.471167026087642">
        <ele>1198.8</ele>
        <time>2010-12-28T15:17:49Z</time>
      </trkpt>
      <trkpt lat="33.331679999828339" lon="-2.471190998330712">
        <ele>1198.4000000000001</ele>
        <time>2010-12-28T15:17:51Z</time>
      </trkpt>
      <trkpt lat="33.331350004300475" lon="-2.471233997493982">
        <ele>1196.9000000000001</ele>
        <time>2010-12-28T15:17:53Z</time>
      </trkpt>
      <trkpt lat="33.330895034596324" lon="-2.471260987222195">
        <ele>1195.9000000000001</ele>
        <time>2010-12-28T15:17:58Z</time>
      </trkpt>
      <trkpt lat="33.330666041001678" lon="-2.471251012757421">
        <ele>1195.5999999999999</ele>
        <time>2010-12-28T15:17:59Z</time>
      </trkpt>
      <trkpt lat="33.330551963299513" lon="-2.471233997493982">
        <ele>1195.5999999999999</ele>
        <time>2010-12-28T15:18:00Z</time>
      </trkpt>
      <trkpt lat="33.330438975244761" lon="-2.471201978623867">
        <ele>1195.5999999999999</ele>
        <time>2010-12-28T15:18:01Z</time>
      </trkpt>
      <trkpt lat="33.329988028854132" lon="-2.471040962263942">
        <ele>1195.4000000000001</ele>
        <time>2010-12-28T15:18:06Z</time>
      </trkpt>
      <trkpt lat="33.329763980582356" lon="-2.470929985865951">
        <ele>1195.4000000000001</ele>
        <time>2010-12-28T15:18:07Z</time>
      </trkpt>
      <trkpt lat="33.329428033903241" lon="-2.470743991434574">
        <ele>1195.9000000000001</ele>
        <time>2010-12-28T15:18:11Z</time>
      </trkpt>
      <trkpt lat="33.329323008656502" lon="-2.470674002543092">
        <ele>1196.0999999999999</ele>
        <time>2010-12-28T15:18:11Z</time>
      </trkpt>
      <trkpt lat="33.329223012551665" lon="-2.470594961196184">
        <ele>1196.4000000000001</ele>
        <time>2010-12-28T15:18:12Z</time>
      </trkpt>
      <trkpt lat="33.329131985083222" lon="-2.470501000061631">
        <ele>1196.5</ele>
        <time>2010-12-28T15:18:13Z</time>
      </trkpt>
      <trkpt lat="33.328523961827159" lon="-2.469814019277692">
        <ele>1198.4000000000001</ele>
        <time>2010-12-28T15:18:20Z</time>
      </trkpt>
      <trkpt lat="33.328411979600787" lon="-2.469743024557829">
        <ele>1198.5</ele>
        <time>2010-12-28T15:18:21Z</time>
      </trkpt>
      <trkpt lat="33.327033994719386" lon="-2.468860996887088">
        <ele>1199.7</ele>
        <time>2010-12-28T15:18:33Z</time>
      </trkpt>
      <trkpt lat="33.326927041634917" lon="-2.468771981075406">
        <ele>1199.8</ele>
        <time>2010-12-28T15:18:35Z</time>
      </trkpt>
      <trkpt lat="33.326294040307403" lon="-2.46817602775991">
        <ele>1200.3</ele>
        <time>2010-12-28T15:18:41Z</time>
      </trkpt>
      <trkpt lat="33.326195972040296" lon="-2.468066979199648">
        <ele>1200.4000000000001</ele>
        <time>2010-12-28T15:18:41Z</time>
      </trkpt>
      <trkpt lat="33.324792003259063" lon="-2.466529989615083">
        <ele>1202.2</ele>
        <time>2010-12-28T15:18:56Z</time>
      </trkpt>
      <trkpt lat="33.323777038604021" lon="-2.465641004964709">
        <ele>1202.7</ele>
        <time>2010-12-28T15:19:04Z</time>
      </trkpt>
      <trkpt lat="33.32093901000917" lon="-2.463546032086015">
        <ele>1201.9000000000001</ele>
        <time>2010-12-28T15:19:28Z</time>
      </trkpt>
      <trkpt lat="33.320418996736407" lon="-2.463245037943125">
        <ele>1201.8</ele>
        <time>2010-12-28T15:19:32Z</time>
      </trkpt>
      <trkpt lat="33.319204039871693" lon="-2.462687976658344">
        <ele>1201.4000000000001</ele>
        <time>2010-12-28T15:19:42Z</time>
      </trkpt>
      <trkpt lat="33.319065989926457" lon="-2.462636008858681">
        <ele>1201.3</ele>
        <time>2010-12-28T15:19:43Z</time>
      </trkpt>
      <trkpt lat="33.316182028502226" lon="-2.461820030584931">
        <ele>1200</ele>
        <time>2010-12-28T15:20:03Z</time>
      </trkpt>
      <trkpt lat="33.315910035744309" lon="-2.461803015321493">
        <ele>1199.9000000000001</ele>
        <time>2010-12-28T15:20:05Z</time>
      </trkpt>
      <trkpt lat="33.315635025501251" lon="-2.46181701309979">
        <ele>1199.9000000000001</ele>
        <time>2010-12-28T15:20:07Z</time>
      </trkpt>
      <trkpt lat="33.315502004697919" lon="-2.461835034191608">
        <ele>1199.9000000000001</ele>
        <time>2010-12-28T15:20:08Z</time>
      </trkpt>
      <trkpt lat="33.315372001379728" lon="-2.461863029748201">
        <ele>1199.9000000000001</ele>
        <time>2010-12-28T15:20:10Z</time>
      </trkpt>
      <trkpt lat="33.315249960869551" lon="-2.461902005597949">
        <ele>1199.9000000000001</ele>
        <time>2010-12-28T15:20:10Z</time>
      </trkpt>
      <trkpt lat="33.315136972814798" lon="-2.461955985054374">
        <ele>1199.8</ele>
        <time>2010-12-28T15:20:11Z</time>
      </trkpt>
      <trkpt lat="33.315033037215471" lon="-2.462013987824321">
        <ele>1199.8</ele>
        <time>2010-12-28T15:20:12Z</time>
      </trkpt>
      <trkpt lat="33.31494502723217" lon="-2.462074002251029">
        <ele>1199.8</ele>
        <time>2010-12-28T15:20:13Z</time>
      </trkpt>
      <trkpt lat="33.314608996734023" lon="-2.462381031364203">
        <ele>1198.7</ele>
        <time>2010-12-28T15:20:20Z</time>
      </trkpt>
      <trkpt lat="33.314516041427851" lon="-2.462421013042331">
        <ele>1198.2</ele>
        <time>2010-12-28T15:20:22Z</time>
      </trkpt>
      <trkpt lat="33.314357958734035" lon="-2.462465018033981">
        <ele>1198.0999999999999</ele>
        <time>2010-12-28T15:20:25Z</time>
      </trkpt>
      <trkpt lat="33.314228039234877" lon="-2.462486978620291">
        <ele>1198</ele>
        <time>2010-12-28T15:20:27Z</time>
      </trkpt>
      <trkpt lat="33.313641976565123" lon="-2.462524026632309">
        <ele>1196.8</ele>
        <time>2010-12-28T15:20:36Z</time>
      </trkpt>
      <trkpt lat="33.313437961041927" lon="-2.462524026632309">
        <ele>1196.7</ele>
        <time>2010-12-28T15:20:40Z</time>
      </trkpt>
      <trkpt lat="33.313298989087343" lon="-2.46250600554049">
        <ele>1196.5</ele>
        <time>2010-12-28T15:20:56Z</time>
      </trkpt>
      <trkpt lat="33.313338970765471" lon="-2.462371978908777">
        <ele>1197.0999999999999</ele>
        <time>2010-12-28T15:21:08Z</time>
      </trkpt>
      <trkpt lat="33.313427986577153" lon="-2.462405003607273">
        <ele>1197.2</ele>
        <time>2010-12-28T15:21:09Z</time>
      </trkpt>
      <trkpt lat="33.313692016527057" lon="-2.462521009147167">
        <ele>1197.0999999999999</ele>
        <time>2010-12-28T15:21:14Z</time>
      </trkpt>
      <trkpt lat="33.313802992925048" lon="-2.462529977783561">
        <ele>1196.9000000000001</ele>
        <time>2010-12-28T15:21:16Z</time>
      </trkpt>
      <trkpt lat="33.314314959570765" lon="-2.462481027469039">
        <ele>1197.3</ele>
        <time>2010-12-28T15:21:23Z</time>
      </trkpt>
      <trkpt lat="33.314464995637536" lon="-2.462438028305769">
        <ele>1197.5999999999999</ele>
        <time>2010-12-28T15:21:25Z</time>
      </trkpt>
      <trkpt lat="33.31460002809763" lon="-2.462373990565538">
        <ele>1198</ele>
        <time>2010-12-28T15:21:28Z</time>
      </trkpt>
      <trkpt lat="33.31473003141582" lon="-2.462282041087747">
        <ele>1198.7</ele>
        <time>2010-12-28T15:21:29Z</time>
      </trkpt>
      <trkpt lat="33.31490102224052" lon="-2.462110966444016">
        <ele>1199.8</ele>
        <time>2010-12-28T15:21:33Z</time>
      </trkpt>
      <trkpt lat="33.315114006400108" lon="-2.461961014196277">
        <ele>1200.3</ele>
        <time>2010-12-28T15:21:36Z</time>
      </trkpt>
      <trkpt lat="33.315275022760034" lon="-2.461880967020989">
        <ele>1200.3</ele>
        <time>2010-12-28T15:21:38Z</time>
      </trkpt>
      <trkpt lat="33.315416006371379" lon="-2.461823970079422">
        <ele>1200.2</ele>
        <time>2010-12-28T15:21:39Z</time>
      </trkpt>
      <trkpt lat="33.315497981384397" lon="-2.461741995066404">
        <ele>1200.3</ele>
        <time>2010-12-28T15:21:42Z</time>
      </trkpt>
      <trkpt lat="33.315511979162693" lon="-2.46162498369813">
        <ele>1200.2</ele>
        <time>2010-12-28T15:21:44Z</time>
      </trkpt>
      <trkpt lat="33.315445007756352" lon="-2.461523981764913">
        <ele>1200.3</ele>
        <time>2010-12-28T15:21:45Z</time>
      </trkpt>
      <trkpt lat="33.315022978931665" lon="-2.461209995672107">
        <ele>1200.4000000000001</ele>
        <time>2010-12-28T15:21:53Z</time>
      </trkpt>
      <trkpt lat="33.31485902890563" lon="-2.461016960442066">
        <ele>1200.5999999999999</ele>
        <time>2010-12-28T15:21:56Z</time>
      </trkpt>
      <trkpt lat="33.314629029482603" lon="-2.460735999047756">
        <ele>1201</ele>
        <time>2010-12-28T15:21:59Z</time>
      </trkpt>
      <trkpt lat="33.313913969323039" lon="-2.460182961076498">
        <ele>1201.4000000000001</ele>
        <time>2010-12-28T15:22:09Z</time>
      </trkpt>
      <trkpt lat="33.313846997916698" lon="-2.460107021033764">
        <ele>1201.4000000000001</ele>
        <time>2010-12-28T15:22:10Z</time>
      </trkpt>
      <trkpt lat="33.313665026798844" lon="-2.459872998297215">
        <ele>1201.5999999999999</ele>
        <time>2010-12-28T15:22:13Z</time>
      </trkpt>
      <trkpt lat="33.313607024028897" lon="-2.459790017455816">
        <ele>1201.7</ele>
        <time>2010-12-28T15:22:14Z</time>
      </trkpt>
      <trkpt lat="33.31333301961422" lon="-2.459494974464178">
        <ele>1201.9000000000001</ele>
        <time>2010-12-28T15:22:18Z</time>
      </trkpt>
      <trkpt lat="33.312929011881351" lon="-2.459178976714611">
        <ele>1201.9000000000001</ele>
        <time>2010-12-28T15:22:23Z</time>
      </trkpt>
      <trkpt lat="33.312631035223603" lon="-2.459005974233151">
        <ele>1201.7</ele>
        <time>2010-12-28T15:22:27Z</time>
      </trkpt>
      <trkpt lat="33.311908012256026" lon="-2.458611018955708">
        <ele>1201.5</ele>
        <time>2010-12-28T15:22:35Z</time>
      </trkpt>
      <trkpt lat="33.311824025586247" lon="-2.458547987043858">
        <ele>1201.5999999999999</ele>
        <time>2010-12-28T15:22:36Z</time>
      </trkpt>
      <trkpt lat="33.311456982046366" lon="-2.458312958478928">
        <ele>1201.8</ele>
        <time>2010-12-28T15:22:39Z</time>
      </trkpt>
      <trkpt lat="33.308202037587762" lon="-2.456472041085362">
        <ele>1206</ele>
        <time>2010-12-28T15:23:11Z</time>
      </trkpt>
      <trkpt lat="33.307998022064567" lon="-2.456392999738455">
        <ele>1206.5999999999999</ele>
        <time>2010-12-28T15:23:13Z</time>
      </trkpt>
      <trkpt lat="33.307895008474588" lon="-2.45636198669672">
        <ele>1206.9000000000001</ele>
        <time>2010-12-28T15:23:14Z</time>
      </trkpt>
      <trkpt lat="33.307697027921677" lon="-2.456328961998224">
        <ele>1207.4000000000001</ele>
        <time>2010-12-28T15:23:16Z</time>
      </trkpt>
      <trkpt lat="33.307604994624853" lon="-2.456324016675353">
        <ele>1207.5999999999999</ele>
        <time>2010-12-28T15:23:17Z</time>
      </trkpt>
      <trkpt lat="33.307334007695317" lon="-2.456336002796888">
        <ele>1208.0999999999999</ele>
        <time>2010-12-28T15:23:20Z</time>
      </trkpt>
      <trkpt lat="33.306908961385489" lon="-2.456238018348813">
        <ele>1207.5999999999999</ele>
        <time>2010-12-28T15:23:26Z</time>
      </trkpt>
      <trkpt lat="33.30645801499486" lon="-2.45625302195549">
        <ele>1207.7</ele>
        <time>2010-12-28T15:23:31Z</time>
      </trkpt>
      <trkpt lat="33.303985018283129" lon="-2.455927971750498">
        <ele>1209.3</ele>
        <time>2010-12-28T15:23:58Z</time>
      </trkpt>
      <trkpt lat="33.303883010521531" lon="-2.455896958708763">
        <ele>1209.3</ele>
        <time>2010-12-28T15:23:58Z</time>
      </trkpt>
      <trkpt lat="33.303684024140239" lon="-2.455837028101087">
        <ele>1209</ele>
        <time>2010-12-28T15:24:00Z</time>
      </trkpt>
      <trkpt lat="33.303582016378641" lon="-2.45582495816052">
        <ele>1209</ele>
        <time>2010-12-28T15:24:01Z</time>
      </trkpt>
      <trkpt lat="33.302906015887856" lon="-2.455756980925798">
        <ele>1208.5999999999999</ele>
        <time>2010-12-28T15:24:08Z</time>
      </trkpt>
      <trkpt lat="33.302405029535294" lon="-2.455704007297754">
        <ele>1208.8</ele>
        <time>2010-12-28T15:24:12Z</time>
      </trkpt>
      <trkpt lat="33.3021629601717" lon="-2.455723034217954">
        <ele>1208.5999999999999</ele>
        <time>2010-12-28T15:24:15Z</time>
      </trkpt>
      <trkpt lat="33.301937989890575" lon="-2.455714987590909">
        <ele>1208.8</ele>
        <time>2010-12-28T15:24:18Z</time>
      </trkpt>
      <trkpt lat="33.301814021542668" lon="-2.455771984532476">
        <ele>1208.8</ele>
        <time>2010-12-28T15:24:20Z</time>
      </trkpt>
      <trkpt lat="33.301693992689252" lon="-2.455864017829299">
        <ele>1208.9000000000001</ele>
        <time>2010-12-28T15:24:22Z</time>
      </trkpt>
      <trkpt lat="33.301544962450862" lon="-2.455905005335808">
        <ele>1208.2</ele>
        <time>2010-12-28T15:24:25Z</time>
      </trkpt>
      <trkpt lat="33.301455024629831" lon="-2.455901987850666">
        <ele>1208.0999999999999</ele>
        <time>2010-12-28T15:24:25Z</time>
      </trkpt>
      <trkpt lat="33.300047032535076" lon="-2.45573895983398">
        <ele>1204.8</ele>
        <time>2010-12-28T15:24:38Z</time>
      </trkpt>
      <trkpt lat="33.299933038651943" lon="-2.45571699924767">
        <ele>1204.9000000000001</ele>
        <time>2010-12-28T15:24:39Z</time>
      </trkpt>
      <trkpt lat="33.29981803894043" lon="-2.455687997862697">
        <ele>1204.8</ele>
        <time>2010-12-28T15:24:41Z</time>
      </trkpt>
      <trkpt lat="33.299703039228916" lon="-2.455647010356188">
        <ele>1204.7</ele>
        <time>2010-12-28T15:24:42Z</time>
      </trkpt>
      <trkpt lat="33.29947798512876" lon="-2.455536033958197">
        <ele>1204.7</ele>
        <time>2010-12-28T15:24:44Z</time>
      </trkpt>
      <trkpt lat="33.298300998285413" lon="-2.454938990995288">
        <ele>1205</ele>
        <time>2010-12-28T15:24:59Z</time>
      </trkpt>
      <trkpt lat="33.298198990523815" lon="-2.45494200848043">
        <ele>1205</ele>
        <time>2010-12-28T15:25:01Z</time>
      </trkpt>
      <trkpt lat="33.298110980540514" lon="-2.45500797405839">
        <ele>1205.7</ele>
        <time>2010-12-28T15:25:04Z</time>
      </trkpt>
      <trkpt lat="33.298045014962554" lon="-2.455099001526833">
        <ele>1206</ele>
        <time>2010-12-28T15:25:06Z</time>
      </trkpt>
      <trkpt lat="33.29795197583735" lon="-2.455273009836674">
        <ele>1206.4000000000001</ele>
        <time>2010-12-28T15:25:10Z</time>
      </trkpt>
      <trkpt lat="33.297706972807646" lon="-2.45573602616787">
        <ele>1208.2</ele>
        <time>2010-12-28T15:25:17Z</time>
      </trkpt>
      <trkpt lat="33.297595996409655" lon="-2.455850020051003">
        <ele>1208.5</ele>
        <time>2010-12-28T15:25:18Z</time>
      </trkpt>
      <trkpt lat="33.297450989484787" lon="-2.455920008942485">
        <ele>1209</ele>
        <time>2010-12-28T15:25:20Z</time>
      </trkpt>
      <trkpt lat="33.297086041420698" lon="-2.45599502697587">
        <ele>1209.2</ele>
        <time>2010-12-28T15:25:24Z</time>
      </trkpt>
      <trkpt lat="33.296902980655432" lon="-2.456010030582547">
        <ele>1209.2</ele>
        <time>2010-12-28T15:25:26Z</time>
      </trkpt>
      <trkpt lat="33.290459979325533" lon="-2.456593997776508">
        <ele>1210.3</ele>
        <time>2010-12-28T15:26:24Z</time>
      </trkpt>
      <trkpt lat="33.290339028462768" lon="-2.456627022475004">
        <ele>1210.3</ele>
        <time>2010-12-28T15:26:25Z</time>
      </trkpt>
      <trkpt lat="33.287611976265907" lon="-2.457180982455611">
        <ele>1211.8</ele>
        <time>2010-12-28T15:26:45Z</time>
      </trkpt>
      <trkpt lat="33.284064000472426" lon="-2.457669982686639">
        <ele>1215.2</ele>
        <time>2010-12-28T15:27:11Z</time>
      </trkpt>
      <trkpt lat="33.283008970320225" lon="-2.457799986004829">
        <ele>1216.0999999999999</ele>
        <time>2010-12-28T15:27:19Z</time>
      </trkpt>
      <trkpt lat="33.282887013629079" lon="-2.457846002653241">
        <ele>1216.2</ele>
        <time>2010-12-28T15:27:20Z</time>
      </trkpt>
      <trkpt lat="33.281314987689257" lon="-2.458499036729336">
        <ele>1218.2</ele>
        <time>2010-12-28T15:27:34Z</time>
      </trkpt>
      <trkpt lat="33.281199987977743" lon="-2.458566008135676">
        <ele>1218.2</ele>
        <time>2010-12-28T15:27:35Z</time>
      </trkpt>
      <trkpt lat="33.280979041010141" lon="-2.458719983696938">
        <ele>1218.3</ele>
        <time>2010-12-28T15:27:36Z</time>
      </trkpt>
      <trkpt lat="33.280773013830185" lon="-2.458897009491921">
        <ele>1218.3</ele>
        <time>2010-12-28T15:27:39Z</time>
      </trkpt>
      <trkpt lat="33.27846597880125" lon="-2.461072029545903">
        <ele>1221.0999999999999</ele>
        <time>2010-12-28T15:28:03Z</time>
      </trkpt>
      <trkpt lat="33.278384003788233" lon="-2.461127014830709">
        <ele>1221.0999999999999</ele>
        <time>2010-12-28T15:28:04Z</time>
      </trkpt>
      <trkpt lat="33.278070017695427" lon="-2.46134402230382">
        <ele>1221.7</ele>
        <time>2010-12-28T15:28:08Z</time>
      </trkpt>
      <trkpt lat="33.277852004393935" lon="-2.461507972329855">
        <ele>1222</ele>
        <time>2010-12-28T15:28:11Z</time>
      </trkpt>
      <trkpt lat="33.277680007740855" lon="-2.461525993421674">
        <ele>1222.0999999999999</ele>
        <time>2010-12-28T15:28:13Z</time>
      </trkpt>
      <trkpt lat="33.277504993602633" lon="-2.461489029228687">
        <ele>1222.0999999999999</ele>
        <time>2010-12-28T15:28:15Z</time>
      </trkpt>
      <trkpt lat="33.277086988091469" lon="-2.46134402230382">
        <ele>1222.0999999999999</ele>
        <time>2010-12-28T15:28:20Z</time>
      </trkpt>
      <trkpt lat="33.276934018358588" lon="-2.461264980956912">
        <ele>1222.4000000000001</ele>
        <time>2010-12-28T15:28:23Z</time>
      </trkpt>
      <trkpt lat="33.276342004537582" lon="-2.460859967395663">
        <ele>1223.5</ele>
        <time>2010-12-28T15:28:31Z</time>
      </trkpt>
      <trkpt lat="33.276047967374325" lon="-2.46074303984642">
        <ele>1223.4000000000001</ele>
        <time>2010-12-28T15:28:36Z</time>
      </trkpt>
      <trkpt lat="33.27590798959136" lon="-2.460654024034739">
        <ele>1223.5</ele>
        <time>2010-12-28T15:28:39Z</time>
      </trkpt>
      <trkpt lat="33.274911968037486" lon="-2.459981041029096">
        <ele>1225.5999999999999</ele>
        <time>2010-12-28T15:28:57Z</time>
      </trkpt>
      <trkpt lat="33.274757992476225" lon="-2.45992798358202">
        <ele>1225.9000000000001</ele>
        <time>2010-12-28T15:28:59Z</time>
      </trkpt>
      <trkpt lat="33.274115016683936" lon="-2.459831004962325">
        <ele>1226.3</ele>
        <time>2010-12-28T15:29:06Z</time>
      </trkpt>
      <trkpt lat="33.274012003093958" lon="-2.459796974435449">
        <ele>1226.0999999999999</ele>
        <time>2010-12-28T15:29:08Z</time>
      </trkpt>
      <trkpt lat="33.273595003411174" lon="-2.459621038287878">
        <ele>1226.3</ele>
        <time>2010-12-28T15:29:11Z</time>
      </trkpt>
      <trkpt lat="33.273120000958443" lon="-2.459365976974368">
        <ele>1227.2</ele>
        <time>2010-12-28T15:29:16Z</time>
      </trkpt>
      <trkpt lat="33.272840967401862" lon="-2.459220970049501">
        <ele>1227.4000000000001</ele>
        <time>2010-12-28T15:29:19Z</time>
      </trkpt>
      <trkpt lat="33.272737031802535" lon="-2.459188029170036">
        <ele>1227.2</ele>
        <time>2010-12-28T15:29:20Z</time>
      </trkpt>
      <trkpt lat="33.271841006353498" lon="-2.459003962576389">
        <ele>1225.5999999999999</ele>
        <time>2010-12-28T15:29:28Z</time>
      </trkpt>
      <trkpt lat="33.271728018298745" lon="-2.45900203473866">
        <ele>1225.8</ele>
        <time>2010-12-28T15:29:30Z</time>
      </trkpt>
      <trkpt lat="33.271616036072373" lon="-2.459012009203434">
        <ele>1225.9000000000001</ele>
        <time>2010-12-28T15:29:30Z</time>
      </trkpt>
      <trkpt lat="33.271508999168873" lon="-2.459031958132982">
        <ele>1226.0999999999999</ele>
        <time>2010-12-28T15:29:31Z</time>
      </trkpt>
      <trkpt lat="33.271196018904448" lon="-2.459095995873213">
        <ele>1226.5</ele>
        <time>2010-12-28T15:29:34Z</time>
      </trkpt>
      <trkpt lat="33.271093005314469" lon="-2.459092978388071">
        <ele>1226.8</ele>
        <time>2010-12-28T15:29:35Z</time>
      </trkpt>
      <trkpt lat="33.270993009209633" lon="-2.459073029458523">
        <ele>1227.0999999999999</ele>
        <time>2010-12-28T15:29:37Z</time>
      </trkpt>
      <trkpt lat="33.270802991464734" lon="-2.45904603973031">
        <ele>1227.2</ele>
        <time>2010-12-28T15:29:38Z</time>
      </trkpt>
      <trkpt lat="33.270706012845039" lon="-2.45904796756804">
        <ele>1227.4000000000001</ele>
        <time>2010-12-28T15:29:39Z</time>
      </trkpt>
      <trkpt lat="33.269704962149262" lon="-2.459142012521625">
        <ele>1229</ele>
        <time>2010-12-28T15:29:52Z</time>
      </trkpt>
      <trkpt lat="33.267411002889276" lon="-2.45945599861443">
        <ele>1230</ele>
        <time>2010-12-28T15:30:16Z</time>
      </trkpt>
      <trkpt lat="33.267294997349381" lon="-2.459445018321276">
        <ele>1229.8</ele>
        <time>2010-12-28T15:30:17Z</time>
      </trkpt>
      <trkpt lat="33.266070988029242" lon="-2.459222981706262">
        <ele>1229</ele>
        <time>2010-12-28T15:30:27Z</time>
      </trkpt>
      <trkpt lat="33.264360995963216" lon="-2.458778992295265">
        <ele>1228.0999999999999</ele>
        <time>2010-12-28T15:30:41Z</time>
      </trkpt>
      <trkpt lat="33.264229986816645" lon="-2.458733981475234">
        <ele>1227.9000000000001</ele>
        <time>2010-12-28T15:30:41Z</time>
      </trkpt>
      <trkpt lat="33.26073900796473" lon="-2.458038032054901">
        <ele>1223.8</ele>
        <time>2010-12-28T15:31:09Z</time>
      </trkpt>
      <trkpt lat="33.260629959404469" lon="-2.458042977377772">
        <ele>1223.7</ele>
        <time>2010-12-28T15:31:09Z</time>
      </trkpt>
      <trkpt lat="33.260526023805141" lon="-2.458059992641211">
        <ele>1223.5</ele>
        <time>2010-12-28T15:31:10Z</time>
      </trkpt>
      <trkpt lat="33.259853962808847" lon="-2.458139033988118">
        <ele>1222.7</ele>
        <time>2010-12-28T15:31:16Z</time>
      </trkpt>
      <trkpt lat="33.259605020284653" lon="-2.458145990967751">
        <ele>1222.4000000000001</ele>
        <time>2010-12-28T15:31:18Z</time>
      </trkpt>
      <trkpt lat="33.259075032547116" lon="-2.4581019859761">
        <ele>1221.8</ele>
        <time>2010-12-28T15:31:23Z</time>
      </trkpt>
      <trkpt lat="33.258809996768832" lon="-2.458054963499308">
        <ele>1222.2</ele>
        <time>2010-12-28T15:31:24Z</time>
      </trkpt>
      <trkpt lat="33.258554013445973" lon="-2.457986986264586">
        <ele>1222.7</ele>
        <time>2010-12-28T15:31:26Z</time>
      </trkpt>
      <trkpt lat="33.258202979341149" lon="-2.457867041230202">
        <ele>1223.7</ele>
        <time>2010-12-28T15:31:29Z</time>
      </trkpt>
      <trkpt lat="33.258088985458016" lon="-2.457809960469604">
        <ele>1223.8</ele>
        <time>2010-12-28T15:31:30Z</time>
      </trkpt>
      <trkpt lat="33.257982032373548" lon="-2.45773795992136">
        <ele>1224</ele>
        <time>2010-12-28T15:31:31Z</time>
      </trkpt>
      <trkpt lat="33.257881030440331" lon="-2.457653973251581">
        <ele>1224.3</ele>
        <time>2010-12-28T15:31:32Z</time>
      </trkpt>
      <trkpt lat="33.257691012695432" lon="-2.457470996305347">
        <ele>1224.8</ele>
        <time>2010-12-28T15:31:34Z</time>
      </trkpt>
      <trkpt lat="33.257609959691763" lon="-2.45737100020051">
        <ele>1225</ele>
        <time>2010-12-28T15:31:36Z</time>
      </trkpt>
      <trkpt lat="33.257463024929166" lon="-2.457158016040921">
        <ele>1225.5</ele>
        <time>2010-12-28T15:31:37Z</time>
      </trkpt>
      <trkpt lat="33.257222967222333" lon="-2.456836989149451">
        <ele>1226.0999999999999</ele>
        <time>2010-12-28T15:31:41Z</time>
      </trkpt>
      <trkpt lat="33.256933037191629" lon="-2.456535995006561">
        <ele>1226.5999999999999</ele>
        <time>2010-12-28T15:31:43Z</time>
      </trkpt>
      <trkpt lat="33.254869999364018" lon="-2.454762971028686">
        <ele>1227.7</ele>
        <time>2010-12-28T15:32:03Z</time>
      </trkpt>
      <trkpt lat="33.254768997430801" lon="-2.454690970480442">
        <ele>1227.9000000000001</ele>
        <time>2010-12-28T15:32:04Z</time>
      </trkpt>
      <trkpt lat="33.252600012347102" lon="-2.453062031418085">
        <ele>1229.2</ele>
        <time>2010-12-28T15:32:27Z</time>
      </trkpt>
      <trkpt lat="33.252072958275676" lon="-2.452761037275195">
        <ele>1229.7</ele>
        <time>2010-12-28T15:32:37Z</time>
      </trkpt>
      <trkpt lat="33.251018011942506" lon="-2.451745988801122">
        <ele>1230.0999999999999</ele>
        <time>2010-12-28T15:32:54Z</time>
      </trkpt>
      <trkpt lat="33.250923966988921" lon="-2.451678011566401">
        <ele>1230.0999999999999</ele>
        <time>2010-12-28T15:32:56Z</time>
      </trkpt>
      <trkpt lat="33.250520965084434" lon="-2.451446000486612">
        <ele>1230.0999999999999</ele>
        <time>2010-12-28T15:32:59Z</time>
      </trkpt>
      <trkpt lat="33.250414011999965" lon="-2.45139897800982">
        <ele>1230</ele>
        <time>2010-12-28T15:33:00Z</time>
      </trkpt>
      <trkpt lat="33.249972034245729" lon="-2.451272998005152">
        <ele>1229.7</ele>
        <time>2010-12-28T15:33:04Z</time>
      </trkpt>
      <trkpt lat="33.246315009891987" lon="-2.450532037764788">
        <ele>1227.5</ele>
        <time>2010-12-28T15:33:36Z</time>
      </trkpt>
      <trkpt lat="33.246182994917035" lon="-2.450522985309362">
        <ele>1227.3</ele>
        <time>2010-12-28T15:33:36Z</time>
      </trkpt>
      <trkpt lat="33.245918964967132" lon="-2.450541006401181">
        <ele>1227.5999999999999</ele>
        <time>2010-12-28T15:33:39Z</time>
      </trkpt>
      <trkpt lat="33.245787033811212" lon="-2.450570007786155">
        <ele>1227.7</ele>
        <time>2010-12-28T15:33:40Z</time>
      </trkpt>
      <trkpt lat="33.245521998032928" lon="-2.450656006112695">
        <ele>1227.5999999999999</ele>
        <time>2010-12-28T15:33:41Z</time>
      </trkpt>
      <trkpt lat="33.245394006371498" lon="-2.450721971690655">
        <ele>1227.7</ele>
        <time>2010-12-28T15:33:42Z</time>
      </trkpt>
      <trkpt lat="33.245272971689701" lon="-2.450806964188814">
        <ele>1227.9000000000001</ele>
        <time>2010-12-28T15:33:43Z</time>
      </trkpt>
      <trkpt lat="33.245158977806568" lon="-2.450906038284302">
        <ele>1228.2</ele>
        <time>2010-12-28T15:33:45Z</time>
      </trkpt>
      <trkpt lat="33.244424974545836" lon="-2.451537027955055">
        <ele>1229.2</ele>
        <time>2010-12-28T15:33:52Z</time>
      </trkpt>
      <trkpt lat="33.244325984269381" lon="-2.451602993533015">
        <ele>1229.3</ele>
        <time>2010-12-28T15:33:52Z</time>
      </trkpt>
      <trkpt lat="33.243917031213641" lon="-2.451824024319649">
        <ele>1229.9000000000001</ele>
        <time>2010-12-28T15:33:57Z</time>
      </trkpt>
      <trkpt lat="33.243202976882458" lon="-2.452144967392087">
        <ele>1230.3</ele>
        <time>2010-12-28T15:34:03Z</time>
      </trkpt>
      <trkpt lat="33.243003990501165" lon="-2.45221302844584">
        <ele>1230.5</ele>
        <time>2010-12-28T15:34:05Z</time>
      </trkpt>
      <trkpt lat="33.242308041080832" lon="-2.452463982626796">
        <ele>1230.5999999999999</ele>
        <time>2010-12-28T15:34:12Z</time>
      </trkpt>
      <trkpt lat="33.242122968658805" lon="-2.452568002045155">
        <ele>1230.2</ele>
        <time>2010-12-28T15:34:15Z</time>
      </trkpt>
      <trkpt lat="33.241657018661499" lon="-2.452895985916257">
        <ele>1230.8</ele>
        <time>2010-12-28T15:34:19Z</time>
      </trkpt>
      <trkpt lat="33.237646026536822" lon="-2.455712975934148">
        <ele>1236.0999999999999</ele>
        <time>2010-12-28T15:35:03Z</time>
      </trkpt>
      <trkpt lat="33.237529015168548" lon="-2.455773996189237">
        <ele>1236.0999999999999</ele>
        <time>2010-12-28T15:35:04Z</time>
      </trkpt>
      <trkpt lat="33.236306011676788" lon="-2.456340026110411">
        <ele>1236.4000000000001</ele>
        <time>2010-12-28T15:35:14Z</time>
      </trkpt>
      <trkpt lat="33.236173996701837" lon="-2.456377996131778">
        <ele>1236.4000000000001</ele>
        <time>2010-12-28T15:35:15Z</time>
      </trkpt>
      <trkpt lat="33.235898986458778" lon="-2.45642401278019">
        <ele>1236.3</ele>
        <time>2010-12-28T15:35:17Z</time>
      </trkpt>
      <trkpt lat="33.231592029333115" lon="-2.456906978040934">
        <ele>1232.5999999999999</ele>
        <time>2010-12-28T15:35:49Z</time>
      </trkpt>
      <trkpt lat="33.228813009336591" lon="-2.456926004961133">
        <ele>1232.0999999999999</ele>
        <time>2010-12-28T15:36:08Z</time>
      </trkpt>
      <trkpt lat="33.220843998715281" lon="-2.456970009952784">
        <ele>1235.2</ele>
        <time>2010-12-28T15:37:07Z</time>
      </trkpt>
      <trkpt lat="33.220727993175387" lon="-2.456993982195854">
        <ele>1235.0999999999999</ele>
        <time>2010-12-28T15:37:09Z</time>
      </trkpt>
      <trkpt lat="33.220504028722644" lon="-2.457062965258956">
        <ele>1234.9000000000001</ele>
        <time>2010-12-28T15:37:10Z</time>
      </trkpt>
      <trkpt lat="33.220405960455537" lon="-2.457105964422226">
        <ele>1235.2</ele>
        <time>2010-12-28T15:37:11Z</time>
      </trkpt>
      <trkpt lat="33.220321973785758" lon="-2.457152986899018">
        <ele>1235</ele>
        <time>2010-12-28T15:37:12Z</time>
      </trkpt>
      <trkpt lat="33.220194987952709" lon="-2.457267986610532">
        <ele>1235.0999999999999</ele>
        <time>2010-12-28T15:37:15Z</time>
      </trkpt>
      <trkpt lat="33.220115024596453" lon="-2.457440989091992">
        <ele>1235.2</ele>
        <time>2010-12-28T15:37:16Z</time>
      </trkpt>
      <trkpt lat="33.219779999926686" lon="-2.458203993737698">
        <ele>1237.9000000000001</ele>
        <time>2010-12-28T15:37:30Z</time>
      </trkpt>
      <trkpt lat="33.219744963571429" lon="-2.458386970683932">
        <ele>1239.7</ele>
        <time>2010-12-28T15:37:49Z</time>
      </trkpt>
      <trkpt lat="33.219901034608483" lon="-2.458810005337">
        <ele>1239.5999999999999</ele>
        <time>2010-12-28T15:37:55Z</time>
      </trkpt>
      <trkpt lat="33.220192976295948" lon="-2.459771996363998">
        <ele>1237.9000000000001</ele>
        <time>2010-12-28T15:38:02Z</time>
      </trkpt>
      <trkpt lat="33.220491036772728" lon="-2.460997011512518">
        <ele>1234.0999999999999</ele>
        <time>2010-12-28T15:38:11Z</time>
      </trkpt>
      <trkpt lat="33.222971996292472" lon="-2.473322013393045">
        <ele>1220</ele>
        <time>2010-12-28T15:39:45Z</time>
      </trkpt>
      <trkpt lat="33.22292597964406" lon="-2.473429972305894">
        <ele>1219.4000000000001</ele>
        <time>2010-12-28T15:39:48Z</time>
      </trkpt>
      <trkpt lat="33.222834030166268" lon="-2.473409017547965">
        <ele>1219.3</ele>
        <time>2010-12-28T15:39:54Z</time>
      </trkpt>
      <trkpt lat="33.222805028781295" lon="-2.473298963159323">
        <ele>1219.4000000000001</ele>
        <time>2010-12-28T15:39:57Z</time>
      </trkpt>
      <trkpt lat="33.222831012681127" lon="-2.473143981769681">
        <ele>1219.5</ele>
        <time>2010-12-28T15:40:01Z</time>
      </trkpt>
      <trkpt lat="33.22277401573956" lon="-2.472837958484888">
        <ele>1219.4000000000001</ele>
        <time>2010-12-28T15:40:06Z</time>
      </trkpt>
      <trkpt lat="33.222737973555923" lon="-2.472709966823459">
        <ele>1219.2</ele>
        <time>2010-12-28T15:40:08Z</time>
      </trkpt>
      <trkpt lat="33.22266697883606" lon="-2.472613994032145">
        <ele>1219.2</ele>
        <time>2010-12-28T15:40:11Z</time>
      </trkpt>
      <trkpt lat="33.221825016662478" lon="-2.472043018788099">
        <ele>1218.7</ele>
        <time>2010-12-28T15:40:22Z</time>
      </trkpt>
      <trkpt lat="33.221687972545624" lon="-2.472013011574745">
        <ele>1218.9000000000001</ele>
        <time>2010-12-28T15:40:24Z</time>
      </trkpt>
      <trkpt lat="33.221519999206066" lon="-2.472028015181422">
        <ele>1219.8</ele>
        <time>2010-12-28T15:40:26Z</time>
      </trkpt>
      <trkpt lat="33.221426960080862" lon="-2.472051987424493">
        <ele>1220.2</ele>
        <time>2010-12-28T15:40:28Z</time>
      </trkpt>
      <trkpt lat="33.221336016431451" lon="-2.472085012122989">
        <ele>1220.5999999999999</ele>
        <time>2010-12-28T15:40:28Z</time>
      </trkpt>
      <trkpt lat="33.221151027828455" lon="-2.472181990742683">
        <ele>1221.0999999999999</ele>
        <time>2010-12-28T15:40:30Z</time>
      </trkpt>
      <trkpt lat="33.219911009073257" lon="-2.472985982894898">
        <ele>1223.3</ele>
        <time>2010-12-28T15:40:42Z</time>
      </trkpt>
      <trkpt lat="33.219477999955416" lon="-2.473283037543297">
        <ele>1224.7</ele>
        <time>2010-12-28T15:40:45Z</time>
      </trkpt>
      <trkpt lat="33.219360988587141" lon="-2.473332993686199">
        <ele>1225</ele>
        <time>2010-12-28T15:40:46Z</time>
      </trkpt>
      <trkpt lat="33.218004964292049" lon="-2.473941016942263">
        <ele>1225.2</ele>
        <time>2010-12-28T15:40:58Z</time>
      </trkpt>
      <trkpt lat="33.217882001772523" lon="-2.473976975306869">
        <ele>1225.3</ele>
        <time>2010-12-28T15:40:59Z</time>
      </trkpt>
      <trkpt lat="33.217187980189919" lon="-2.474190965294838">
        <ele>1225.8</ele>
        <time>2010-12-28T15:41:04Z</time>
      </trkpt>
      <trkpt lat="33.217087984085083" lon="-2.474247040227056">
        <ele>1226</ele>
        <time>2010-12-28T15:41:05Z</time>
      </trkpt>
      <trkpt lat="33.216996034607291" lon="-2.474313005805016">
        <ele>1226.0999999999999</ele>
        <time>2010-12-28T15:41:06Z</time>
      </trkpt>
      <trkpt lat="33.216836024075747" lon="-2.474445020779967">
        <ele>1225.7</ele>
        <time>2010-12-28T15:41:09Z</time>
      </trkpt>
      <trkpt lat="33.216682970523834" lon="-2.474486008286476">
        <ele>1225.5999999999999</ele>
        <time>2010-12-28T15:41:10Z</time>
      </trkpt>
      <trkpt lat="33.216453976929188" lon="-2.474419036880136">
        <ele>1225.4000000000001</ele>
        <time>2010-12-28T15:41:13Z</time>
      </trkpt>
      <trkpt lat="33.216287009418011" lon="-2.474432028830051">
        <ele>1225.4000000000001</ele>
        <time>2010-12-28T15:41:16Z</time>
      </trkpt>
      <trkpt lat="33.216016022488475" lon="-2.474522972479463">
        <ele>1225.0999999999999</ele>
        <time>2010-12-28T15:41:18Z</time>
      </trkpt>
      <trkpt lat="33.21564101614058" lon="-2.474661022424698">
        <ele>1224.3</ele>
        <time>2010-12-28T15:41:23Z</time>
      </trkpt>
      <trkpt lat="33.21555401198566" lon="-2.474632021039724">
        <ele>1224.2</ele>
        <time>2010-12-28T15:41:25Z</time>
      </trkpt>
      <trkpt lat="33.215449992567301" lon="-2.474593967199326">
        <ele>1223.8</ele>
        <time>2010-12-28T15:41:27Z</time>
      </trkpt>
      <trkpt lat="33.215156039223075" lon="-2.474583992734551">
        <ele>1223.0999999999999</ele>
        <time>2010-12-28T15:41:31Z</time>
      </trkpt>
      <trkpt lat="33.214990999549627" lon="-2.474609976634383">
        <ele>1223.3</ele>
        <time>2010-12-28T15:41:34Z</time>
      </trkpt>
      <trkpt lat="33.214656980708241" lon="-2.474755989387631">
        <ele>1223.0999999999999</ele>
        <time>2010-12-28T15:41:37Z</time>
      </trkpt>
      <trkpt lat="33.214575005695224" lon="-2.474809968844056">
        <ele>1223.2</ele>
        <time>2010-12-28T15:41:39Z</time>
      </trkpt>
      <trkpt lat="33.214270994067192" lon="-2.475078022107482">
        <ele>1223.5999999999999</ele>
        <time>2010-12-28T15:41:43Z</time>
      </trkpt>
      <trkpt lat="33.213915014639497" lon="-2.475416986271739">
        <ele>1223.9000000000001</ele>
        <time>2010-12-28T15:41:48Z</time>
      </trkpt>
      <trkpt lat="33.213585019111633" lon="-2.475646985694766">
        <ele>1224.8</ele>
        <time>2010-12-28T15:41:52Z</time>
      </trkpt>
      <trkpt lat="33.213478988036513" lon="-2.475785035640001">
        <ele>1225.5</ele>
        <time>2010-12-28T15:41:54Z</time>
      </trkpt>
      <trkpt lat="33.2132120244205" lon="-2.476198012009263">
        <ele>1224.8</ele>
        <time>2010-12-28T15:41:59Z</time>
      </trkpt>
      <trkpt lat="33.213165001943707" lon="-2.476293984800577">
        <ele>1224.8</ele>
        <time>2010-12-28T15:42:00Z</time>
      </trkpt>
      <trkpt lat="33.213074980303645" lon="-2.476508980616927">
        <ele>1224.7</ele>
        <time>2010-12-28T15:42:02Z</time>
      </trkpt>
      <trkpt lat="33.213034998625517" lon="-2.476626997813582">
        <ele>1224.5</ele>
        <time>2010-12-28T15:42:03Z</time>
      </trkpt>
      <trkpt lat="33.213004991412163" lon="-2.47674903832376">
        <ele>1224.4000000000001</ele>
        <time>2010-12-28T15:42:04Z</time>
      </trkpt>
      <trkpt lat="33.212986970320344" lon="-2.476869989186525">
        <ele>1224.4000000000001</ele>
        <time>2010-12-28T15:42:05Z</time>
      </trkpt>
      <trkpt lat="33.212970038875937" lon="-2.477096971124411">
        <ele>1224.5</ele>
        <time>2010-12-28T15:42:08Z</time>
      </trkpt>
      <trkpt lat="33.212961992248893" lon="-2.477606004104018">
        <ele>1223.4000000000001</ele>
        <time>2010-12-28T15:43:30Z</time>
      </trkpt>
      <trkpt lat="33.212923016399145" lon="-2.477353038266301">
        <ele>1223.7</ele>
        <time>2010-12-28T15:43:47Z</time>
      </trkpt>
      <trkpt lat="33.212936008349061" lon="-2.477181041613221">
        <ele>1223.7</ele>
        <time>2010-12-28T15:43:49Z</time>
      </trkpt>
      <trkpt lat="33.212926033884287" lon="-2.47707299888134">
        <ele>1223.5999999999999</ele>
        <time>2010-12-28T15:43:51Z</time>
      </trkpt>
      <trkpt lat="33.212858978658915" lon="-2.47694299556315">
        <ele>1223.5</ele>
        <time>2010-12-28T15:43:55Z</time>
      </trkpt>
      <trkpt lat="33.21274003945291" lon="-2.476829001680017">
        <ele>1223.4000000000001</ele>
        <time>2010-12-28T15:43:58Z</time>
      </trkpt>
      <trkpt lat="33.212645994499326" lon="-2.47677200473845">
        <ele>1223.2</ele>
        <time>2010-12-28T15:44:31Z</time>
      </trkpt>
      <trkpt lat="33.211735971271992" lon="-2.476546028628945">
        <ele>1223.5</ele>
        <time>2010-12-28T15:44:53Z</time>
      </trkpt>
      <trkpt lat="33.211642010137439" lon="-2.476461036130786">
        <ele>1223.3</ele>
        <time>2010-12-28T15:44:54Z</time>
      </trkpt>
      <trkpt lat="33.211112022399902" lon="-2.475827028974891">
        <ele>1224.2</ele>
        <time>2010-12-28T15:45:03Z</time>
      </trkpt>
      <trkpt lat="33.211026024073362" lon="-2.475763997063041">
        <ele>1224.4000000000001</ele>
        <time>2010-12-28T15:45:04Z</time>
      </trkpt>
      <trkpt lat="33.209873009473085" lon="-2.474958999082446">
        <ele>1226.4000000000001</ele>
        <time>2010-12-28T15:45:16Z</time>
      </trkpt>
      <trkpt lat="33.209792962297797" lon="-2.474875012412667">
        <ele>1226.5999999999999</ele>
        <time>2010-12-28T15:45:17Z</time>
      </trkpt>
      <trkpt lat="33.209721967577934" lon="-2.474791025742889">
        <ele>1226.7</ele>
        <time>2010-12-28T15:45:18Z</time>
      </trkpt>
      <trkpt lat="33.209536978974938" lon="-2.474561026319861">
        <ele>1226.5999999999999</ele>
        <time>2010-12-28T15:45:22Z</time>
      </trkpt>
      <trkpt lat="33.209203965961933" lon="-2.474275035783649">
        <ele>1225.4000000000001</ele>
        <time>2010-12-28T15:45:26Z</time>
      </trkpt>
      <trkpt lat="33.209041021764278" lon="-2.474227007478476">
        <ele>1225.2</ele>
        <time>2010-12-28T15:45:28Z</time>
      </trkpt>
      <trkpt lat="33.208945970982313" lon="-2.474226001650095">
        <ele>1225.0999999999999</ele>
        <time>2010-12-28T15:45:29Z</time>
      </trkpt>
      <trkpt lat="33.208843963220716" lon="-2.474244022741914">
        <ele>1225.0999999999999</ele>
        <time>2010-12-28T15:45:30Z</time>
      </trkpt>
      <trkpt lat="33.207811983302236" lon="-2.474554991349578">
        <ele>1227.0999999999999</ele>
        <time>2010-12-28T15:45:40Z</time>
      </trkpt>
      <trkpt lat="33.206221014261246" lon="-2.475194027647376">
        <ele>1228.5999999999999</ele>
        <time>2010-12-28T15:45:55Z</time>
      </trkpt>
      <trkpt lat="33.206112971529365" lon="-2.475256975740194">
        <ele>1228.7</ele>
        <time>2010-12-28T15:45:56Z</time>
      </trkpt>
      <trkpt lat="33.205903004854918" lon="-2.475407011806965">
        <ele>1228.9000000000001</ele>
        <time>2010-12-28T15:45:58Z</time>
      </trkpt>
      <trkpt lat="33.205418027937412" lon="-2.475860975682735">
        <ele>1229.8</ele>
        <time>2010-12-28T15:46:02Z</time>
      </trkpt>
      <trkpt lat="33.205244019627571" lon="-2.476050993427634">
        <ele>1230.0999999999999</ele>
        <time>2010-12-28T15:46:04Z</time>
      </trkpt>
      <trkpt lat="33.205087026581168" lon="-2.476262971758843">
        <ele>1230.5</ele>
        <time>2010-12-28T15:46:06Z</time>
      </trkpt>
      <trkpt lat="33.20425596088171" lon="-2.477294029667974">
        <ele>1231.9000000000001</ele>
        <time>2010-12-28T15:46:17Z</time>
      </trkpt>
      <trkpt lat="33.204159988090396" lon="-2.477355971932411">
        <ele>1232.2</ele>
        <time>2010-12-28T15:46:19Z</time>
      </trkpt>
      <trkpt lat="33.204068960621953" lon="-2.477329988032579">
        <ele>1232.0999999999999</ele>
        <time>2010-12-28T15:46:21Z</time>
      </trkpt>
      <trkpt lat="33.204002995043993" lon="-2.477225968614221">
        <ele>1231.5</ele>
        <time>2010-12-28T15:46:23Z</time>
      </trkpt>
      <trkpt lat="33.203929988667369" lon="-2.477037040516734">
        <ele>1230.5999999999999</ele>
        <time>2010-12-28T15:46:26Z</time>
      </trkpt>
      <trkpt lat="33.203826975077391" lon="-2.476961016654968">
        <ele>1230.2</ele>
        <time>2010-12-28T15:46:28Z</time>
      </trkpt>
      <trkpt lat="33.20352497510612" lon="-2.476891027763486">
        <ele>1229.2</ele>
        <time>2010-12-28T15:46:33Z</time>
      </trkpt>
      <trkpt lat="33.201844990253448" lon="-2.476623980328441">
        <ele>1235.0999999999999</ele>
        <time>2010-12-28T15:46:53Z</time>
      </trkpt>
      <trkpt lat="33.200152013450861" lon="-2.476091980934143">
        <ele>1235.3</ele>
        <time>2010-12-28T15:47:12Z</time>
      </trkpt>
      <trkpt lat="33.20006500929594" lon="-2.476027021184564">
        <ele>1235.3</ele>
        <time>2010-12-28T15:47:15Z</time>
      </trkpt>
      <trkpt lat="33.19995797239244" lon="-2.475931970402598">
        <ele>1235.0999999999999</ele>
        <time>2010-12-28T15:47:16Z</time>
      </trkpt>
      <trkpt lat="33.19961498491466" lon="-2.475752010941505">
        <ele>1235.0999999999999</ele>
        <time>2010-12-28T15:47:21Z</time>
      </trkpt>
      <trkpt lat="33.199490010738373" lon="-2.475722003728151">
        <ele>1235.2</ele>
        <time>2010-12-28T15:47:23Z</time>
      </trkpt>
      <trkpt lat="33.199086003005505" lon="-2.475787969306111">
        <ele>1235.9000000000001</ele>
        <time>2010-12-28T15:47:29Z</time>
      </trkpt>
      <trkpt lat="33.198958011344075" lon="-2.475769026204944">
        <ele>1236.5999999999999</ele>
        <time>2010-12-28T15:47:31Z</time>
      </trkpt>
      <trkpt lat="33.198724994435906" lon="-2.475711023434997">
        <ele>1236.8</ele>
        <time>2010-12-28T15:47:35Z</time>
      </trkpt>
      <trkpt lat="33.19862499833107" lon="-2.475748993456364">
        <ele>1237</ele>
        <time>2010-12-28T15:47:37Z</time>
      </trkpt>
      <trkpt lat="33.198482003062963" lon="-2.475843038409948">
        <ele>1237.4000000000001</ele>
        <time>2010-12-28T15:47:41Z</time>
      </trkpt>
      <trkpt lat="33.198362980037928" lon="-2.47595401480794">
        <ele>1237.8</ele>
        <time>2010-12-28T15:47:45Z</time>
      </trkpt>
      <trkpt lat="33.197825029492378" lon="-2.47621200978756">
        <ele>1239.4000000000001</ele>
        <time>2010-12-28T15:47:54Z</time>
      </trkpt>
      <trkpt lat="33.197640040889382" lon="-2.476318962872028">
        <ele>1240</ele>
        <time>2010-12-28T15:47:57Z</time>
      </trkpt>
      <trkpt lat="33.19737802259624" lon="-2.476360034197569">
        <ele>1240.5</ele>
        <time>2010-12-28T15:48:01Z</time>
      </trkpt>
      <trkpt lat="33.197103012353182" lon="-2.476344024762511">
        <ele>1241.0999999999999</ele>
        <time>2010-12-28T15:48:05Z</time>
      </trkpt>
      <trkpt lat="33.196767987683415" lon="-2.476423988118768">
        <ele>1241.5</ele>
        <time>2010-12-28T15:48:09Z</time>
      </trkpt>
      <trkpt lat="33.196538994088769" lon="-2.476531025022268">
        <ele>1242.0999999999999</ele>
        <time>2010-12-28T15:48:13Z</time>
      </trkpt>
      <trkpt lat="33.196444027125835" lon="-2.476630015298724">
        <ele>1242.4000000000001</ele>
        <time>2010-12-28T15:48:14Z</time>
      </trkpt>
      <trkpt lat="33.196341013535857" lon="-2.476866971701384">
        <ele>1242.5</ele>
        <time>2010-12-28T15:48:18Z</time>
      </trkpt>
      <trkpt lat="33.196236994117498" lon="-2.476965039968491">
        <ele>1242.3</ele>
        <time>2010-12-28T15:48:20Z</time>
      </trkpt>
      <trkpt lat="33.196116965264082" lon="-2.477026982232928">
        <ele>1242.2</ele>
        <time>2010-12-28T15:48:22Z</time>
      </trkpt>
      <trkpt lat="33.195943962782621" lon="-2.47709495946765">
        <ele>1242.7</ele>
        <time>2010-12-28T15:48:25Z</time>
      </trkpt>
      <trkpt lat="33.195813959464431" lon="-2.477098982781172">
        <ele>1242.9000000000001</ele>
        <time>2010-12-28T15:48:27Z</time>
      </trkpt>
      <trkpt lat="33.195618996396661" lon="-2.477019019424915">
        <ele>1242.9000000000001</ele>
        <time>2010-12-28T15:48:30Z</time>
      </trkpt>
      <trkpt lat="33.195308027788997" lon="-2.476850040256977">
        <ele>1242.5999999999999</ele>
        <time>2010-12-28T15:48:34Z</time>
      </trkpt>
      <trkpt lat="33.195213982835412" lon="-2.476831013336778">
        <ele>1242.8</ele>
        <time>2010-12-28T15:48:35Z</time>
      </trkpt>
      <trkpt lat="33.195111975073814" lon="-2.476826990023255">
        <ele>1243.0999999999999</ele>
        <time>2010-12-28T15:48:37Z</time>
      </trkpt>
      <trkpt lat="33.193859970197082" lon="-2.476926986128092">
        <ele>1245.0999999999999</ele>
        <time>2010-12-28T15:48:48Z</time>
      </trkpt>
      <trkpt lat="33.193624019622803" lon="-2.476975014433265">
        <ele>1245.5</ele>
        <time>2010-12-28T15:48:50Z</time>
      </trkpt>
      <trkpt lat="33.19314700551331" lon="-2.477121027186513">
        <ele>1246</ele>
        <time>2010-12-28T15:48:53Z</time>
      </trkpt>
      <trkpt lat="33.19303804077208" lon="-2.477166038006544">
        <ele>1246.0999999999999</ele>
        <time>2010-12-28T15:48:54Z</time>
      </trkpt>
      <trkpt lat="33.191364007070661" lon="-2.477957038208842">
        <ele>1247.3</ele>
        <time>2010-12-28T15:49:09Z</time>
      </trkpt>
      <trkpt lat="33.190879030153155" lon="-2.47829700820148">
        <ele>1247.4000000000001</ele>
        <time>2010-12-28T15:49:13Z</time>
      </trkpt>
      <trkpt lat="33.190707033500075" lon="-2.478346964344382">
        <ele>1247.3</ele>
        <time>2010-12-28T15:49:15Z</time>
      </trkpt>
      <trkpt lat="33.190617011860013" lon="-2.478346964344382">
        <ele>1247.5</ele>
        <time>2010-12-28T15:49:16Z</time>
      </trkpt>
      <trkpt lat="33.190527996048331" lon="-2.478331038728356">
        <ele>1247.4000000000001</ele>
        <time>2010-12-28T15:49:17Z</time>
      </trkpt>
      <trkpt lat="33.190355999395251" lon="-2.478278987109661">
        <ele>1247.0999999999999</ele>
        <time>2010-12-28T15:49:19Z</time>
      </trkpt>
      <trkpt lat="33.190218033269048" lon="-2.478183014318347">
        <ele>1246.7</ele>
        <time>2010-12-28T15:49:21Z</time>
      </trkpt>
      <trkpt lat="33.1900529935956" lon="-2.478014035150409">
        <ele>1246.3</ele>
        <time>2010-12-28T15:49:24Z</time>
      </trkpt>
      <trkpt lat="33.189440025016665" lon="-2.477764002978802">
        <ele>1246.2</ele>
        <time>2010-12-28T15:49:32Z</time>
      </trkpt>
      <trkpt lat="33.189340028911829" lon="-2.477656966075301">
        <ele>1245.9000000000001</ele>
        <time>2010-12-28T15:49:35Z</time>
      </trkpt>
      <trkpt lat="33.189264005050063" lon="-2.477520005777478">
        <ele>1245.5</ele>
        <time>2010-12-28T15:49:37Z</time>
      </trkpt>
      <trkpt lat="33.189127966761589" lon="-2.477118009701371">
        <ele>1244.5999999999999</ele>
        <time>2010-12-28T15:49:42Z</time>
      </trkpt>
      <trkpt lat="33.189055966213346" lon="-2.476996975019574">
        <ele>1244.5</ele>
        <time>2010-12-28T15:49:45Z</time>
      </trkpt>
      <trkpt lat="33.188968040049076" lon="-2.476904019713402">
        <ele>1244.2</ele>
        <time>2010-12-28T15:49:47Z</time>
      </trkpt>
      <trkpt lat="33.188872989267111" lon="-2.476830007508397">
        <ele>1243.9000000000001</ele>
        <time>2010-12-28T15:49:48Z</time>
      </trkpt>
      <trkpt lat="33.188539976254106" lon="-2.476657005026937">
        <ele>1244</ele>
        <time>2010-12-28T15:49:57Z</time>
      </trkpt>
      <trkpt lat="33.188465964049101" lon="-2.476581986993551">
        <ele>1244.0999999999999</ele>
        <time>2010-12-28T15:49:59Z</time>
      </trkpt>
      <trkpt lat="33.188071008771658" lon="-2.475992990657687">
        <ele>1243.4000000000001</ele>
        <time>2010-12-28T15:50:07Z</time>
      </trkpt>
      <trkpt lat="33.187951985746622" lon="-2.475725021213293">
        <ele>1243</ele>
        <time>2010-12-28T15:50:10Z</time>
      </trkpt>
      <trkpt lat="33.187497016042471" lon="-2.474690023809671">
        <ele>1241.2</ele>
        <time>2010-12-28T15:50:22Z</time>
      </trkpt>
      <trkpt lat="33.187201973050833" lon="-2.474295990541577">
        <ele>1241.3</ele>
        <time>2010-12-28T15:50:27Z</time>
      </trkpt>
      <trkpt lat="33.187072975561023" lon="-2.474156012758613">
        <ele>1240.8</ele>
        <time>2010-12-28T15:50:29Z</time>
      </trkpt>
      <trkpt lat="33.186898967251182" lon="-2.473990973085165">
        <ele>1240.4000000000001</ele>
        <time>2010-12-28T15:50:33Z</time>
      </trkpt>
      <trkpt lat="33.186809029430151" lon="-2.473940011113882">
        <ele>1240.4000000000001</ele>
        <time>2010-12-28T15:50:35Z</time>
      </trkpt>
      <trkpt lat="33.186586992815137" lon="-2.47404302470386">
        <ele>1240.8</ele>
        <time>2010-12-28T15:50:39Z</time>
      </trkpt>
      <trkpt lat="33.186471993103623" lon="-2.474060039967299">
        <ele>1240.8</ele>
        <time>2010-12-28T15:50:42Z</time>
      </trkpt>
      <trkpt lat="33.186279963701963" lon="-2.474060961976647">
        <ele>1241.2</ele>
        <time>2010-12-28T15:50:45Z</time>
      </trkpt>
      <trkpt lat="33.18569197319448" lon="-2.47421401552856">
        <ele>1242.8</ele>
        <time>2010-12-28T15:50:54Z</time>
      </trkpt>
      <trkpt lat="33.185231974348426" lon="-2.474264977499843">
        <ele>1243.4000000000001</ele>
        <time>2010-12-28T15:51:01Z</time>
      </trkpt>
      <trkpt lat="33.18519601598382" lon="-2.474109996110201">
        <ele>1242.0999999999999</ele>
        <time>2010-12-28T15:51:19Z</time>
      </trkpt>
      <trkpt lat="33.185333982110023" lon="-2.473917966708541">
        <ele>1242</ele>
        <time>2010-12-28T15:51:26Z</time>
      </trkpt>
      <trkpt lat="33.185389973223209" lon="-2.473802966997027">
        <ele>1242</ele>
        <time>2010-12-28T15:51:29Z</time>
      </trkpt>
      <trkpt lat="33.185442024841905" lon="-2.47365896590054">
        <ele>1241.9000000000001</ele>
        <time>2010-12-28T15:51:33Z</time>
      </trkpt>
      <trkpt lat="33.185481000691652" lon="-2.473503984510899">
        <ele>1241.5999999999999</ele>
        <time>2010-12-28T15:51:36Z</time>
      </trkpt>
      <trkpt lat="33.185618966817856" lon="-2.472962010651827">
        <ele>1241</ele>
        <time>2010-12-28T15:51:47Z</time>
      </trkpt>
      <trkpt lat="33.185590971261263" lon="-2.472765035927296">
        <ele>1240.4000000000001</ele>
        <time>2010-12-28T15:51:52Z</time>
      </trkpt>
      <trkpt lat="33.185606980696321" lon="-2.472506035119295">
        <ele>1240.0999999999999</ele>
        <time>2010-12-28T15:51:57Z</time>
      </trkpt>
      <trkpt lat="33.185663977637887" lon="-2.47215298935771">
        <ele>1239</ele>
        <time>2010-12-28T15:52:02Z</time>
      </trkpt>
      <trkpt lat="33.185660038143396" lon="-2.47200102545321">
        <ele>1238.7</ele>
        <time>2010-12-28T15:52:04Z</time>
      </trkpt>
      <trkpt lat="33.185516037046909" lon="-2.471441030502319">
        <ele>1237.8</ele>
        <time>2010-12-28T15:52:10Z</time>
      </trkpt>
      <trkpt lat="33.185426015406847" lon="-2.471192004159093">
        <ele>1237.9000000000001</ele>
        <time>2010-12-28T15:52:17Z</time>
      </trkpt>
      <trkpt lat="33.185403971001506" lon="-2.471056971698999">
        <ele>1238</ele>
        <time>2010-12-28T15:52:18Z</time>
      </trkpt>
      <trkpt lat="33.185259969905019" lon="-2.470058016479015">
        <ele>1239</ele>
        <time>2010-12-28T15:52:30Z</time>
      </trkpt>
      <trkpt lat="33.185085039585829" lon="-2.46968200430274">
        <ele>1240.0999999999999</ele>
        <time>2010-12-28T15:52:35Z</time>
      </trkpt>
      <trkpt lat="33.184609031304717" lon="-2.468824032694101">
        <ele>1240.8</ele>
        <time>2010-12-28T15:52:43Z</time>
      </trkpt>
      <trkpt lat="33.184566032141447" lon="-2.468704003840685">
        <ele>1240.7</ele>
        <time>2010-12-28T15:52:44Z</time>
      </trkpt>
      <trkpt lat="33.184518003836274" lon="-2.468581963330507">
        <ele>1240.5</ele>
        <time>2010-12-28T15:52:45Z</time>
      </trkpt>
      <trkpt lat="33.184404009953141" lon="-2.46834802441299">
        <ele>1240.2</ele>
        <time>2010-12-28T15:52:47Z</time>
      </trkpt>
      <trkpt lat="33.182352958247066" lon="-2.465060977265239">
        <ele>1236.5</ele>
        <time>2010-12-28T15:53:17Z</time>
      </trkpt>
      <trkpt lat="33.182289004325867" lon="-2.464981013908982">
        <ele>1236.5</ele>
        <time>2010-12-28T15:53:18Z</time>
      </trkpt>
      <trkpt lat="33.182218009606004" lon="-2.464910019189119">
        <ele>1236.5</ele>
        <time>2010-12-28T15:53:20Z</time>
      </trkpt>
      <trkpt lat="33.182138968259096" lon="-2.464854028075934">
        <ele>1236.5</ele>
        <time>2010-12-28T15:53:20Z</time>
      </trkpt>
      <trkpt lat="33.182054981589317" lon="-2.464810023084283">
        <ele>1236.7</ele>
        <time>2010-12-28T15:53:21Z</time>
      </trkpt>
      <trkpt lat="33.181821964681149" lon="-2.46469602920115">
        <ele>1237</ele>
        <time>2010-12-28T15:53:24Z</time>
      </trkpt>
      <trkpt lat="33.181749964132905" lon="-2.464596033096314">
        <ele>1237</ele>
        <time>2010-12-28T15:53:26Z</time>
      </trkpt>
      <trkpt lat="33.181774020195007" lon="-2.464337032288313">
        <ele>1236.8</ele>
        <time>2010-12-28T15:53:31Z</time>
      </trkpt>
      <trkpt lat="33.181748958304524" lon="-2.464198982343078">
        <ele>1237</ele>
        <time>2010-12-28T15:53:34Z</time>
      </trkpt>
      <trkpt lat="33.181690033525229" lon="-2.464078031480312">
        <ele>1236.2</ele>
        <time>2010-12-28T15:53:40Z</time>
      </trkpt>
      <trkpt lat="33.181619960814714" lon="-2.46396797709167">
        <ele>1234.5</ele>
        <time>2010-12-28T15:53:47Z</time>
      </trkpt>
      <trkpt lat="33.181527005508542" lon="-2.463899999856949">
        <ele>1235.5</ele>
        <time>2010-12-28T15:53:51Z</time>
      </trkpt>
      <trkpt lat="33.180888975039124" lon="-2.463929001241922">
        <ele>1236.9000000000001</ele>
        <time>2010-12-28T15:54:06Z</time>
      </trkpt>
      <trkpt lat="33.180670961737633" lon="-2.463936964049935">
        <ele>1237.9000000000001</ele>
        <time>2010-12-28T15:54:12Z</time>
      </trkpt>
      <trkpt lat="33.180438028648496" lon="-2.463869992643595">
        <ele>1237.9000000000001</ele>
        <time>2010-12-28T15:54:16Z</time>
      </trkpt>
      <trkpt lat="33.180143991485238" lon="-2.463761027902365">
        <ele>1237.4000000000001</ele>
        <time>2010-12-28T15:54:24Z</time>
      </trkpt>
      <trkpt lat="33.1799559853971" lon="-2.463642004877329">
        <ele>1237.5999999999999</ele>
        <time>2010-12-28T15:54:28Z</time>
      </trkpt>
      <trkpt lat="33.179879961535335" lon="-2.463552989065647">
        <ele>1237.8</ele>
        <time>2010-12-28T15:54:33Z</time>
      </trkpt>
      <trkpt lat="33.179854983463883" lon="-2.463434971868992">
        <ele>1237.9000000000001</ele>
        <time>2010-12-28T15:54:46Z</time>
      </trkpt>
      <trkpt lat="33.179922038689256" lon="-2.463349979370832">
        <ele>1237.5</ele>
        <time>2010-12-28T15:54:54Z</time>
      </trkpt>
      <trkpt lat="33.180028991773725" lon="-2.463416028767824">
        <ele>1235.8</ele>
        <time>2010-12-28T15:55:15Z</time>
      </trkpt>
      <trkpt lat="33.179943999275565" lon="-2.463373029604554">
        <ele>1235.3</ele>
        <time>2010-12-28T15:55:21Z</time>
      </trkpt>
      <trkpt lat="33.179844003170729" lon="-2.463284013792872">
        <ele>1235.0999999999999</ele>
        <time>2010-12-28T15:55:25Z</time>
      </trkpt>
      <trkpt lat="33.179607968777418" lon="-2.463250989094377">
        <ele>1236.3</ele>
        <time>2010-12-28T15:55:32Z</time>
      </trkpt>
      <trkpt lat="33.179495986551046" lon="-2.463258029893041">
        <ele>1237</ele>
        <time>2010-12-28T15:55:36Z</time>
      </trkpt>
      <trkpt lat="33.179582990705967" lon="-2.463184017688036">
        <ele>1236.4000000000001</ele>
        <time>2010-12-28T15:55:55Z</time>
      </trkpt>
      <trkpt lat="33.179682986810803" lon="-2.46325601823628">
        <ele>1235.9000000000001</ele>
        <time>2010-12-28T15:56:00Z</time>
      </trkpt>
      <trkpt lat="33.179841991513968" lon="-2.46327999047935">
        <ele>1235.3</ele>
        <time>2010-12-28T15:56:07Z</time>
      </trkpt>
      <trkpt lat="33.1799559853971" lon="-2.463271021842957">
        <ele>1235.0999999999999</ele>
        <time>2010-12-28T15:56:14Z</time>
      </trkpt>
      <trkpt lat="33.180048018693924" lon="-2.463239002972841">
        <ele>1234.5999999999999</ele>
        <time>2010-12-28T15:56:26Z</time>
      </trkpt>
      <trkpt lat="33.180175004526973" lon="-2.463177982717753">
        <ele>1234.8</ele>
        <time>2010-12-28T15:56:58Z</time>
      </trkpt>
      <trkpt lat="33.180278018116951" lon="-2.463075974956155">
        <ele>1234.8</ele>
        <time>2010-12-28T15:57:03Z</time>
      </trkpt>
      <trkpt lat="33.180453032255173" lon="-2.463011015206575">
        <ele>1234.5</ele>
        <time>2010-12-28T15:57:09Z</time>
      </trkpt>
      <trkpt lat="33.180625028908253" lon="-2.463018978014588">
        <ele>1234.2</ele>
        <time>2010-12-28T15:57:16Z</time>
      </trkpt>
      <trkpt lat="33.18072603084147" lon="-2.46300196275115">
        <ele>1234</ele>
        <time>2010-12-28T15:57:25Z</time>
      </trkpt>
      <trkpt lat="33.180818986147642" lon="-2.463067006319761">
        <ele>1233.8</ele>
        <time>2010-12-28T15:57:30Z</time>
      </trkpt>
      <trkpt lat="33.18089802749455" lon="-2.463169014081359">
        <ele>1233.9000000000001</ele>
        <time>2010-12-28T15:57:35Z</time>
      </trkpt>
      <trkpt lat="33.180989976972342" lon="-2.463245959952474">
        <ele>1234.0999999999999</ele>
        <time>2010-12-28T15:57:38Z</time>
      </trkpt>
      <trkpt lat="33.180957958102226" lon="-2.463350985199213">
        <ele>1234.4000000000001</ele>
        <time>2010-12-28T15:57:42Z</time>
      </trkpt>
      <trkpt lat="33.180873971432447" lon="-2.463304968550801">
        <ele>1234.3</ele>
        <time>2010-12-28T15:57:46Z</time>
      </trkpt>
      <trkpt lat="33.180608013644814" lon="-2.462942032143474">
        <ele>1234.3</ele>
        <time>2010-12-28T15:57:55Z</time>
      </trkpt>
      <trkpt lat="33.18051497451961" lon="-2.462856033816934">
        <ele>1234.3</ele>
        <time>2010-12-28T15:57:58Z</time>
      </trkpt>
      <trkpt lat="33.180460995063186" lon="-2.462767018005252">
        <ele>1234</ele>
        <time>2010-12-28T15:58:00Z</time>
      </trkpt>
      <trkpt lat="33.180382959544659" lon="-2.462682025507093">
        <ele>1233.9000000000001</ele>
        <time>2010-12-28T15:58:04Z</time>
      </trkpt>
      <trkpt lat="33.180409027263522" lon="-2.462575994431973">
        <ele>1234.0999999999999</ele>
        <time>2010-12-28T15:58:07Z</time>
      </trkpt>
      <trkpt lat="33.180497959256172" lon="-2.462394023314118">
        <ele>1234.5999999999999</ele>
        <time>2010-12-28T15:58:13Z</time>
      </trkpt>
      <trkpt lat="33.180859973654151" lon="-2.461763033643365">
        <ele>1237.4000000000001</ele>
        <time>2010-12-28T15:58:24Z</time>
      </trkpt>
      <trkpt lat="33.180909007787704" lon="-2.461593970656395">
        <ele>1237.9000000000001</ele>
        <time>2010-12-28T15:58:26Z</time>
      </trkpt>
      <trkpt lat="33.180928034707904" lon="-2.461407976225019">
        <ele>1238.4000000000001</ele>
        <time>2010-12-28T15:58:28Z</time>
      </trkpt>
      <trkpt lat="33.180916970595717" lon="-2.461233967915177">
        <ele>1238.5999999999999</ele>
        <time>2010-12-28T15:58:30Z</time>
      </trkpt>
      <trkpt lat="33.18085896782577" lon="-2.461111005395651">
        <ele>1238.5</ele>
        <time>2010-12-28T15:58:33Z</time>
      </trkpt>
      <trkpt lat="33.18077196367085" lon="-2.461029030382633">
        <ele>1238.2</ele>
        <time>2010-12-28T15:58:34Z</time>
      </trkpt>
      <trkpt lat="33.180585969239473" lon="-2.460899027064443">
        <ele>1237.8</ele>
        <time>2010-12-28T15:58:37Z</time>
      </trkpt>
      <trkpt lat="33.180456971749663" lon="-2.460753014311194">
        <ele>1237.5</ele>
        <time>2010-12-28T15:58:40Z</time>
      </trkpt>
      <trkpt lat="33.179659014567733" lon="-2.459894036874175">
        <ele>1236.9000000000001</ele>
        <time>2010-12-28T15:58:51Z</time>
      </trkpt>
      <trkpt lat="33.179435972124338" lon="-2.459718016907573">
        <ele>1236.8</ele>
        <time>2010-12-28T15:58:54Z</time>
      </trkpt>
      <trkpt lat="33.179270010441542" lon="-2.459621038287878">
        <ele>1236.9000000000001</ele>
        <time>2010-12-28T15:58:55Z</time>
      </trkpt>
      <trkpt lat="33.178602978587151" lon="-2.459252988919616">
        <ele>1237.7</ele>
        <time>2010-12-28T15:59:03Z</time>
      </trkpt>
      <trkpt lat="33.178495019674301" lon="-2.459130026400089">
        <ele>1238</ele>
        <time>2010-12-28T15:59:06Z</time>
      </trkpt>
      <trkpt lat="33.178423019126058" lon="-2.458985019475222">
        <ele>1238.0999999999999</ele>
        <time>2010-12-28T15:59:07Z</time>
      </trkpt>
      <trkpt lat="33.178330985829234" lon="-2.458874965086579">
        <ele>1238.0999999999999</ele>
        <time>2010-12-28T15:59:09Z</time>
      </trkpt>
      <trkpt lat="33.178138034418225" lon="-2.458761977031827">
        <ele>1238</ele>
        <time>2010-12-28T15:59:12Z</time>
      </trkpt>
      <trkpt lat="33.178029991686344" lon="-2.458625016734004">
        <ele>1238.3</ele>
        <time>2010-12-28T15:59:15Z</time>
      </trkpt>
      <trkpt lat="33.177745006978512" lon="-2.458160994574428">
        <ele>1238.0999999999999</ele>
        <time>2010-12-28T15:59:19Z</time>
      </trkpt>
      <trkpt lat="33.177684992551804" lon="-2.458051024004817">
        <ele>1238.2</ele>
        <time>2010-12-28T15:59:20Z</time>
      </trkpt>
      <trkpt lat="33.177578039467335" lon="-2.457817001268268">
        <ele>1238.3</ele>
        <time>2010-12-28T15:59:22Z</time>
      </trkpt>
      <trkpt lat="33.177351979538798" lon="-2.457194980233908">
        <ele>1238.8</ele>
        <time>2010-12-28T15:59:27Z</time>
      </trkpt>
      <trkpt lat="33.177189035341144" lon="-2.456681001931429">
        <ele>1239.2</ele>
        <time>2010-12-28T15:59:31Z</time>
      </trkpt>
      <trkpt lat="33.177094990387559" lon="-2.456279005855322">
        <ele>1239.5999999999999</ele>
        <time>2010-12-28T15:59:35Z</time>
      </trkpt>
      <trkpt lat="33.176964987069368" lon="-2.45563100092113">
        <ele>1240</ele>
        <time>2010-12-28T15:59:39Z</time>
      </trkpt>
      <trkpt lat="33.176917964592576" lon="-2.455039992928505">
        <ele>1241.2</ele>
        <time>2010-12-28T15:59:48Z</time>
      </trkpt>
      <trkpt lat="33.176871025934815" lon="-2.45492197573185">
        <ele>1241.4000000000001</ele>
        <time>2010-12-28T15:59:53Z</time>
      </trkpt>
      <trkpt lat="33.176785027608275" lon="-2.454843018203974">
        <ele>1241.5999999999999</ele>
        <time>2010-12-28T15:59:57Z</time>
      </trkpt>
      <trkpt lat="33.176552010700107" lon="-2.454751990735531">
        <ele>1241.3</ele>
        <time>2010-12-28T16:00:06Z</time>
      </trkpt>
      <trkpt lat="33.176419995725155" lon="-2.454732963815332">
        <ele>1241.0999999999999</ele>
        <time>2010-12-28T16:00:09Z</time>
      </trkpt>
      <trkpt lat="33.176329974085093" lon="-2.454737992957234">
        <ele>1240.8</ele>
        <time>2010-12-28T16:00:11Z</time>
      </trkpt>
      <trkpt lat="33.176242969930172" lon="-2.454781997948885">
        <ele>1240.8</ele>
        <time>2010-12-28T16:00:13Z</time>
      </trkpt>
      <trkpt lat="33.176169041544199" lon="-2.454849975183606">
        <ele>1240.5</ele>
        <time>2010-12-28T16:00:16Z</time>
      </trkpt>
      <trkpt lat="33.175710970535874" lon="-2.455370994284749">
        <ele>1239.8</ele>
        <time>2010-12-28T16:00:25Z</time>
      </trkpt>
      <trkpt lat="33.175434032455087" lon="-2.455792017281056">
        <ele>1239.3</ele>
        <time>2010-12-28T16:00:31Z</time>
      </trkpt>
      <trkpt lat="33.175218030810356" lon="-2.456026040017605">
        <ele>1238.0999999999999</ele>
        <time>2010-12-28T16:00:37Z</time>
      </trkpt>
      <trkpt lat="33.175085010007024" lon="-2.456144979223609">
        <ele>1237.9000000000001</ele>
        <time>2010-12-28T16:00:45Z</time>
      </trkpt>
      <trkpt lat="33.175014015287161" lon="-2.456256039440632">
        <ele>1236.7</ele>
        <time>2010-12-28T16:00:58Z</time>
      </trkpt>
      <trkpt lat="33.174951989203691" lon="-2.456350000575185">
        <ele>1237.0999999999999</ele>
        <time>2010-12-28T16:01:01Z</time>
      </trkpt>
      <trkpt lat="33.174870014190674" lon="-2.456417977809906">
        <ele>1237.8</ele>
        <time>2010-12-28T16:01:03Z</time>
      </trkpt>
      <trkpt lat="33.17475400865078" lon="-2.45646801777184">
        <ele>1239</ele>
        <time>2010-12-28T16:01:07Z</time>
      </trkpt>
      <trkpt lat="33.174650995060802" lon="-2.456473968923092">
        <ele>1240</ele>
        <time>2010-12-28T16:01:09Z</time>
      </trkpt>
      <trkpt lat="33.174527026712894" lon="-2.456458965316415">
        <ele>1240.9000000000001</ele>
        <time>2010-12-28T16:01:13Z</time>
      </trkpt>
      <trkpt lat="33.174383025616407" lon="-2.456408003345132">
        <ele>1241.3</ele>
        <time>2010-12-28T16:01:17Z</time>
      </trkpt>
      <trkpt lat="33.173185000196099" lon="-2.455992009490728">
        <ele>1243.8</ele>
        <time>2010-12-28T16:01:36Z</time>
      </trkpt>
      <trkpt lat="33.173082992434502" lon="-2.455972982570529">
        <ele>1243.7</ele>
        <time>2010-12-28T16:01:37Z</time>
      </trkpt>
      <trkpt lat="33.172589968889952" lon="-2.455883966758847">
        <ele>1244.4000000000001</ele>
        <time>2010-12-28T16:01:43Z</time>
      </trkpt>
      <trkpt lat="33.172503970563412" lon="-2.455843985080719">
        <ele>1244.3</ele>
        <time>2010-12-28T16:01:44Z</time>
      </trkpt>
      <trkpt lat="33.172420989722013" lon="-2.455792017281056">
        <ele>1244.2</ele>
        <time>2010-12-28T16:01:45Z</time>
      </trkpt>
      <trkpt lat="33.172343960031867" lon="-2.455730997025967">
        <ele>1244</ele>
        <time>2010-12-28T16:01:46Z</time>
      </trkpt>
      <trkpt lat="33.171803997829556" lon="-2.45526697486639">
        <ele>1244.4000000000001</ele>
        <time>2010-12-28T16:01:54Z</time>
      </trkpt>
      <trkpt lat="33.171637030318379" lon="-2.455220958217979">
        <ele>1245</ele>
        <time>2010-12-28T16:01:55Z</time>
      </trkpt>
      <trkpt lat="33.171475008130074" lon="-2.455231016501784">
        <ele>1245.4000000000001</ele>
        <time>2010-12-28T16:01:57Z</time>
      </trkpt>
      <trkpt lat="33.171212989836931" lon="-2.455313997343183">
        <ele>1246.7</ele>
        <time>2010-12-28T16:02:01Z</time>
      </trkpt>
      <trkpt lat="33.171089021489024" lon="-2.455370994284749">
        <ele>1247.5999999999999</ele>
        <time>2010-12-28T16:02:03Z</time>
      </trkpt>
      <trkpt lat="33.170972010120749" lon="-2.455444000661373">
        <ele>1248.0999999999999</ele>
        <time>2010-12-28T16:02:05Z</time>
      </trkpt>
      <trkpt lat="33.170731030404568" lon="-2.455600993707776">
        <ele>1248.7</ele>
        <time>2010-12-28T16:02:09Z</time>
      </trkpt>
      <trkpt lat="33.170000966638327" lon="-2.455894025042653">
        <ele>1251</ele>
        <time>2010-12-28T16:02:24Z</time>
      </trkpt>
      <trkpt lat="33.169076023623347" lon="-2.456194013357163">
        <ele>1254.8</ele>
        <time>2010-12-28T16:02:39Z</time>
      </trkpt>
      <trkpt lat="33.167653027921915" lon="-2.45681100524962">
        <ele>1257.7</ele>
        <time>2010-12-28T16:02:58Z</time>
      </trkpt>
      <trkpt lat="33.167497962713242" lon="-2.456901026889682">
        <ele>1257.9000000000001</ele>
        <time>2010-12-28T16:02:59Z</time>
      </trkpt>
      <trkpt lat="33.16719202324748" lon="-2.457129014655948">
        <ele>1258.4000000000001</ele>
        <time>2010-12-28T16:03:04Z</time>
      </trkpt>
      <trkpt lat="33.166982978582382" lon="-2.457318026572466">
        <ele>1259.0999999999999</ele>
        <time>2010-12-28T16:03:08Z</time>
      </trkpt>
      <trkpt lat="33.166865967214108" lon="-2.457430008798838">
        <ele>1259.3</ele>
        <time>2010-12-28T16:03:11Z</time>
      </trkpt>
      <trkpt lat="33.166716014966369" lon="-2.457510977983475">
        <ele>1259.5999999999999</ele>
        <time>2010-12-28T16:03:12Z</time>
      </trkpt>
      <trkpt lat="33.16615903750062" lon="-2.457626983523369">
        <ele>1260.0999999999999</ele>
        <time>2010-12-28T16:03:18Z</time>
      </trkpt>
      <trkpt lat="33.165962984785438" lon="-2.457642992958427">
        <ele>1260.3</ele>
        <time>2010-12-28T16:03:20Z</time>
      </trkpt>
      <trkpt lat="33.164387019351125" lon="-2.457766961306334">
        <ele>1258.5999999999999</ele>
        <time>2010-12-28T16:03:37Z</time>
      </trkpt>
      <trkpt lat="33.164043026044965" lon="-2.457865029573441">
        <ele>1258.4000000000001</ele>
        <time>2010-12-28T16:03:41Z</time>
      </trkpt>
      <trkpt lat="33.163085980340838" lon="-2.458158982917666">
        <ele>1257</ele>
        <time>2010-12-28T16:03:51Z</time>
      </trkpt>
      <trkpt lat="33.16298196092248" lon="-2.458212040364742">
        <ele>1256.7</ele>
        <time>2010-12-28T16:03:52Z</time>
      </trkpt>
      <trkpt lat="33.161911005154252" lon="-2.458881000056863">
        <ele>1255.2</ele>
        <time>2010-12-28T16:04:03Z</time>
      </trkpt>
      <trkpt lat="33.161830035969615" lon="-2.458942020311952">
        <ele>1255.0999999999999</ele>
        <time>2010-12-28T16:04:04Z</time>
      </trkpt>
      <trkpt lat="33.161754012107849" lon="-2.459007985889912">
        <ele>1254.9000000000001</ele>
        <time>2010-12-28T16:04:05Z</time>
      </trkpt>
      <trkpt lat="33.161681005731225" lon="-2.459083003923297">
        <ele>1254.8</ele>
        <time>2010-12-28T16:04:06Z</time>
      </trkpt>
      <trkpt lat="33.161546979099512" lon="-2.459258018061519">
        <ele>1254.4000000000001</ele>
        <time>2010-12-28T16:04:09Z</time>
      </trkpt>
      <trkpt lat="33.161249002441764" lon="-2.459696978330612">
        <ele>1254</ele>
        <time>2010-12-28T16:04:13Z</time>
      </trkpt>
      <trkpt lat="33.1611970346421" lon="-2.459800997748971">
        <ele>1253.8</ele>
        <time>2010-12-28T16:04:14Z</time>
      </trkpt>
      <trkpt lat="33.16115302965045" lon="-2.459909962490201">
        <ele>1253.9000000000001</ele>
        <time>2010-12-28T16:04:15Z</time>
      </trkpt>
      <trkpt lat="33.161115981638432" lon="-2.460024962201715">
        <ele>1253.8</ele>
        <time>2010-12-28T16:04:16Z</time>
      </trkpt>
      <trkpt lat="33.161088991910219" lon="-2.460148008540273">
        <ele>1253.7</ele>
        <time>2010-12-28T16:04:17Z</time>
      </trkpt>
      <trkpt lat="33.160929987207055" lon="-2.460943032056093">
        <ele>1253.4000000000001</ele>
        <time>2010-12-28T16:04:23Z</time>
      </trkpt>
      <trkpt lat="33.160883970558643" lon="-2.461072029545903">
        <ele>1253.3</ele>
        <time>2010-12-28T16:04:24Z</time>
      </trkpt>
      <trkpt lat="33.160332022234797" lon="-2.462479015812278">
        <ele>1251.4000000000001</ele>
        <time>2010-12-28T16:04:36Z</time>
      </trkpt>
      <trkpt lat="33.160275025293231" lon="-2.462580017745495">
        <ele>1251.0999999999999</ele>
        <time>2010-12-28T16:04:37Z</time>
      </trkpt>
      <trkpt lat="33.160214005038142" lon="-2.462666016072035">
        <ele>1250.5999999999999</ele>
        <time>2010-12-28T16:04:38Z</time>
      </trkpt>
      <trkpt lat="33.159961961209774" lon="-2.462933985516429">
        <ele>1249.8</ele>
        <time>2010-12-28T16:04:44Z</time>
      </trkpt>
      <trkpt lat="33.158979015424848" lon="-2.464107032865286">
        <ele>1249.5</ele>
        <time>2010-12-28T16:05:04Z</time>
      </trkpt>
      <trkpt lat="33.158867033198476" lon="-2.464281963184476">
        <ele>1249.3</ele>
        <time>2010-12-28T16:05:06Z</time>
      </trkpt>
      <trkpt lat="33.158580958843231" lon="-2.46478202752769">
        <ele>1248.5</ele>
        <time>2010-12-28T16:05:11Z</time>
      </trkpt>
      <trkpt lat="33.158508036285639" lon="-2.464872971177101">
        <ele>1248.4000000000001</ele>
        <time>2010-12-28T16:05:12Z</time>
      </trkpt>
      <trkpt lat="33.158290022984147" lon="-2.465155022218823">
        <ele>1248.2</ele>
        <time>2010-12-28T16:05:15Z</time>
      </trkpt>
      <trkpt lat="33.157973019406199" lon="-2.46566497720778">
        <ele>1247.8</ele>
        <time>2010-12-28T16:05:20Z</time>
      </trkpt>
      <trkpt lat="33.157831029966474" lon="-2.465996984392405">
        <ele>1247.5</ele>
        <time>2010-12-28T16:05:24Z</time>
      </trkpt>
      <trkpt lat="33.157711001113057" lon="-2.466134028509259">
        <ele>1247.8</ele>
        <time>2010-12-28T16:05:26Z</time>
      </trkpt>
      <trkpt lat="33.15763195976615" lon="-2.466191025450826">
        <ele>1247.9000000000001</ele>
        <time>2010-12-28T16:05:27Z</time>
      </trkpt>
      <trkpt lat="33.15745803527534" lon="-2.466292027384043">
        <ele>1248.5</ele>
        <time>2010-12-28T16:05:29Z</time>
      </trkpt>
      <trkpt lat="33.157043969258666" lon="-2.466516997665167">
        <ele>1249.9000000000001</ele>
        <time>2010-12-28T16:05:34Z</time>
      </trkpt>
      <trkpt lat="33.156904997304082" lon="-2.466640966013074">
        <ele>1249.8</ele>
        <time>2010-12-28T16:05:38Z</time>
      </trkpt>
      <trkpt lat="33.156838025897741" lon="-2.466725036501885">
        <ele>1250.0999999999999</ele>
        <time>2010-12-28T16:05:40Z</time>
      </trkpt>
      <trkpt lat="33.156779017299414" lon="-2.466859985142946">
        <ele>1250.4000000000001</ele>
        <time>2010-12-28T16:05:42Z</time>
      </trkpt>
      <trkpt lat="33.156712967902422" lon="-2.46766003780067">
        <ele>1251.9000000000001</ele>
        <time>2010-12-28T16:05:51Z</time>
      </trkpt>
      <trkpt lat="33.156712967902422" lon="-2.467802027240396">
        <ele>1252</ele>
        <time>2010-12-28T16:05:53Z</time>
      </trkpt>
      <trkpt lat="33.156711962074041" lon="-2.468248028308153">
        <ele>1252</ele>
        <time>2010-12-28T16:06:00Z</time>
      </trkpt>
      <trkpt lat="33.156682960689068" lon="-2.468583974987268">
        <ele>1252.9000000000001</ele>
        <time>2010-12-28T16:06:12Z</time>
      </trkpt>
      <trkpt lat="33.156637027859688" lon="-2.468702998012304">
        <ele>1253</ele>
        <time>2010-12-28T16:06:16Z</time>
      </trkpt>
      <trkpt lat="33.156641973182559" lon="-2.468811962753534">
        <ele>1252.8</ele>
        <time>2010-12-28T16:06:18Z</time>
      </trkpt>
      <trkpt lat="33.156757978722453" lon="-2.469025030732155">
        <ele>1251.7</ele>
        <time>2010-12-28T16:06:23Z</time>
      </trkpt>
      <trkpt lat="33.156788991764188" lon="-2.469143969938159">
        <ele>1251.2</ele>
        <time>2010-12-28T16:06:25Z</time>
      </trkpt>
      <trkpt lat="33.156797038391232" lon="-2.469395007938147">
        <ele>1250.9000000000001</ele>
        <time>2010-12-28T16:06:29Z</time>
      </trkpt>
      <trkpt lat="33.156782034784555" lon="-2.46953004039824">
        <ele>1250.4000000000001</ele>
        <time>2010-12-28T16:06:31Z</time>
      </trkpt>
      <trkpt lat="33.156739035621285" lon="-2.469670018181205">
        <ele>1250.0999999999999</ele>
        <time>2010-12-28T16:06:34Z</time>
      </trkpt>
      <trkpt lat="33.156658988445997" lon="-2.469807984307408">
        <ele>1249.9000000000001</ele>
        <time>2010-12-28T16:06:36Z</time>
      </trkpt>
      <trkpt lat="33.156554969027638" lon="-2.469944022595882">
        <ele>1249.7</ele>
        <time>2010-12-28T16:06:38Z</time>
      </trkpt>
      <trkpt lat="33.156426977366209" lon="-2.470072014257312">
        <ele>1249.5999999999999</ele>
        <time>2010-12-28T16:06:39Z</time>
      </trkpt>
      <trkpt lat="33.156274007633328" lon="-2.470186008140445">
        <ele>1249.7</ele>
        <time>2010-12-28T16:06:41Z</time>
      </trkpt>
      <trkpt lat="33.156192032620311" lon="-2.470235964283347">
        <ele>1249.8</ele>
        <time>2010-12-28T16:06:42Z</time>
      </trkpt>
      <trkpt lat="33.15610502846539" lon="-2.470275023952127">
        <ele>1249.9000000000001</ele>
        <time>2010-12-28T16:06:44Z</time>
      </trkpt>
      <trkpt lat="33.156016012653708" lon="-2.470306036993861">
        <ele>1250</ele>
        <time>2010-12-28T16:06:45Z</time>
      </trkpt>
      <trkpt lat="33.153520971536636" lon="-2.471007015556097">
        <ele>1249.8</ele>
        <time>2010-12-28T16:07:14Z</time>
      </trkpt>
      <trkpt lat="33.153256019577384" lon="-2.471135007217526">
        <ele>1249.5</ele>
        <time>2010-12-28T16:07:19Z</time>
      </trkpt>
      <trkpt lat="33.153146971017122" lon="-2.471175994724035">
        <ele>1249.3</ele>
        <time>2010-12-28T16:07:21Z</time>
      </trkpt>
      <trkpt lat="33.153048986569047" lon="-2.471202984452248">
        <ele>1249.2</ele>
        <time>2010-12-28T16:07:23Z</time>
      </trkpt>
      <trkpt lat="33.152943961322308" lon="-2.471194015815854">
        <ele>1249.4000000000001</ele>
        <time>2010-12-28T16:07:25Z</time>
      </trkpt>
      <trkpt lat="33.151732021942735" lon="-2.470643995329738">
        <ele>1252.2</ele>
        <time>2010-12-28T16:07:41Z</time>
      </trkpt>
      <trkpt lat="33.151643006131053" lon="-2.470628991723061">
        <ele>1252.0999999999999</ele>
        <time>2010-12-28T16:07:42Z</time>
      </trkpt>
      <trkpt lat="33.151549967005849" lon="-2.470629997551441">
        <ele>1252.0999999999999</ele>
        <time>2010-12-28T16:07:44Z</time>
      </trkpt>
      <trkpt lat="33.151455000042915" lon="-2.470639972016215">
        <ele>1252.0999999999999</ele>
        <time>2010-12-28T16:07:45Z</time>
      </trkpt>
      <trkpt lat="33.150978991761804" lon="-2.470696968957782">
        <ele>1252.5</ele>
        <time>2010-12-28T16:07:50Z</time>
      </trkpt>
      <trkpt lat="33.150888970121741" lon="-2.47069101780653">
        <ele>1252.5</ele>
        <time>2010-12-28T16:07:50Z</time>
      </trkpt>
      <trkpt lat="33.150715967640281" lon="-2.470633015036583">
        <ele>1252.5</ele>
        <time>2010-12-28T16:07:52Z</time>
      </trkpt>
      <trkpt lat="33.150630975142121" lon="-2.470580963417888">
        <ele>1252.5999999999999</ele>
        <time>2010-12-28T16:07:53Z</time>
      </trkpt>
      <trkpt lat="33.15036702901125" lon="-2.470446014776826">
        <ele>1253.4000000000001</ele>
        <time>2010-12-28T16:07:57Z</time>
      </trkpt>
      <trkpt lat="33.14991801045835" lon="-2.470248034223914">
        <ele>1254.5999999999999</ele>
        <time>2010-12-28T16:08:01Z</time>
      </trkpt>
      <trkpt lat="33.149836035445333" lon="-2.470191037282348">
        <ele>1255</ele>
        <time>2010-12-28T16:08:03Z</time>
      </trkpt>
      <trkpt lat="33.149598995223641" lon="-2.470037983730435">
        <ele>1256</ele>
        <time>2010-12-28T16:08:05Z</time>
      </trkpt>
      <trkpt lat="33.149270005524158" lon="-2.469904962927103">
        <ele>1257.5999999999999</ele>
        <time>2010-12-28T16:08:10Z</time>
      </trkpt>
      <trkpt lat="33.149215020239353" lon="-2.469804966822267">
        <ele>1258</ele>
        <time>2010-12-28T16:08:13Z</time>
      </trkpt>
      <trkpt lat="33.148833978921175" lon="-2.468743985518813">
        <ele>1258.9000000000001</ele>
        <time>2010-12-28T16:08:30Z</time>
      </trkpt>
      <trkpt lat="33.147705020383" lon="-2.465648967772722">
        <ele>1265.3</ele>
        <time>2010-12-28T16:09:27Z</time>
      </trkpt>
      <trkpt lat="33.147620027884841" lon="-2.465603034943342">
        <ele>1265.0999999999999</ele>
        <time>2010-12-28T16:09:30Z</time>
      </trkpt>
      <trkpt lat="33.147481977939606" lon="-2.465680986642838">
        <ele>1264.5999999999999</ele>
        <time>2010-12-28T16:09:35Z</time>
      </trkpt>
      <trkpt lat="33.147368989884853" lon="-2.465688027441502">
        <ele>1264.4000000000001</ele>
        <time>2010-12-28T16:09:37Z</time>
      </trkpt>
      <trkpt lat="33.14639501273632" lon="-2.465723985806108">
        <ele>1261.4000000000001</ele>
        <time>2010-12-28T16:09:51Z</time>
      </trkpt>
      <trkpt lat="33.146296022459865" lon="-2.46575097553432">
        <ele>1261.0999999999999</ele>
        <time>2010-12-28T16:09:53Z</time>
      </trkpt>
      <trkpt lat="33.146206000819802" lon="-2.465832028537989">
        <ele>1260.9000000000001</ele>
        <time>2010-12-28T16:09:56Z</time>
      </trkpt>
      <trkpt lat="33.146126959472895" lon="-2.466032020747662">
        <ele>1260.9000000000001</ele>
        <time>2010-12-28T16:09:58Z</time>
      </trkpt>
      <trkpt lat="33.145988993346691" lon="-2.466424964368343">
        <ele>1260</ele>
        <time>2010-12-28T16:10:02Z</time>
      </trkpt>
      <trkpt lat="33.145940965041518" lon="-2.466521020978689">
        <ele>1259.8</ele>
        <time>2010-12-28T16:10:03Z</time>
      </trkpt>
      <trkpt lat="33.145882962271571" lon="-2.466610036790371">
        <ele>1259.7</ele>
        <time>2010-12-28T16:10:04Z</time>
      </trkpt>
      <trkpt lat="33.145618010312319" lon="-2.467075986787677">
        <ele>1258.9000000000001</ele>
        <time>2010-12-28T16:10:11Z</time>
      </trkpt>
      <trkpt lat="33.145499993115664" lon="-2.467200038954616">
        <ele>1258.7</ele>
        <time>2010-12-28T16:10:13Z</time>
      </trkpt>
      <trkpt lat="33.145217020064592" lon="-2.467435989528894">
        <ele>1258.3</ele>
        <time>2010-12-28T16:10:16Z</time>
      </trkpt>
      <trkpt lat="33.145136972889304" lon="-2.467488963156939">
        <ele>1258.2</ele>
        <time>2010-12-28T16:10:17Z</time>
      </trkpt>
      <trkpt lat="33.145047035068274" lon="-2.467529028654099">
        <ele>1258.2</ele>
        <time>2010-12-28T16:10:18Z</time>
      </trkpt>
      <trkpt lat="33.144951984286308" lon="-2.467553000897169">
        <ele>1258.2</ele>
        <time>2010-12-28T16:10:19Z</time>
      </trkpt>
      <trkpt lat="33.144855005666614" lon="-2.467564987018704">
        <ele>1258.2</ele>
        <time>2010-12-28T16:10:20Z</time>
      </trkpt>
      <trkpt lat="33.14476003870368" lon="-2.467561969533563">
        <ele>1258.2</ele>
        <time>2010-12-28T16:10:21Z</time>
      </trkpt>
      <trkpt lat="33.144671022891998" lon="-2.467543026432395">
        <ele>1258.2</ele>
        <time>2010-12-28T16:10:22Z</time>
      </trkpt>
      <trkpt lat="33.14452501013875" lon="-2.467474965378642">
        <ele>1258.3</ele>
        <time>2010-12-28T16:10:24Z</time>
      </trkpt>
      <trkpt lat="33.144415961578488" lon="-2.467381004244089">
        <ele>1258.3</ele>
        <time>2010-12-28T16:10:27Z</time>
      </trkpt>
      <trkpt lat="33.144971011206508" lon="-2.468741973862052">
        <ele>1257.3</ele>
        <time>2010-12-28T16:11:05Z</time>
      </trkpt>
      <trkpt lat="33.145010992884636" lon="-2.468851022422314">
        <ele>1256.9000000000001</ele>
        <time>2010-12-28T16:11:07Z</time>
      </trkpt>
      <trkpt lat="33.145044017583132" lon="-2.468969039618969">
        <ele>1256.8</ele>
        <time>2010-12-28T16:11:11Z</time>
      </trkpt>
      <trkpt lat="33.145119035616517" lon="-2.469464996829629">
        <ele>1254.9000000000001</ele>
        <time>2010-12-28T16:11:38Z</time>
      </trkpt>
      <trkpt lat="33.145102020353079" lon="-2.46957496739924">
        <ele>1255.5</ele>
        <time>2010-12-28T16:13:48Z</time>
      </trkpt>
      <trkpt lat="33.145043011754751" lon="-2.469700025394559">
        <ele>1255.3</ele>
        <time>2010-12-28T16:13:54Z</time>
      </trkpt>
      <trkpt lat="33.14495500177145" lon="-2.469803038984537">
        <ele>1255.3</ele>
        <time>2010-12-28T16:13:57Z</time>
      </trkpt>
      <trkpt lat="33.144832961261272" lon="-2.469900017604232">
        <ele>1255.2</ele>
        <time>2010-12-28T16:13:59Z</time>
      </trkpt>
      <trkpt lat="33.144596004858613" lon="-2.47004896402359">
        <ele>1254.8</ele>
        <time>2010-12-28T16:14:05Z</time>
      </trkpt>
      <trkpt lat="33.144330969080329" lon="-2.470206962898374">
        <ele>1254.3</ele>
        <time>2010-12-28T16:14:14Z</time>
      </trkpt>
      <trkpt lat="33.144260980188847" lon="-2.470300002023578">
        <ele>1253.8</ele>
        <time>2010-12-28T16:14:17Z</time>
      </trkpt>
      <trkpt lat="33.144214041531086" lon="-2.470451965928078">
        <ele>1253.0999999999999</ele>
        <time>2010-12-28T16:14:20Z</time>
      </trkpt>
      <trkpt lat="33.144131982699037" lon="-2.470921017229557">
        <ele>1251</ele>
        <time>2010-12-28T16:14:28Z</time>
      </trkpt>
      <trkpt lat="33.144070040434599" lon="-2.471051020547748">
        <ele>1250.7</ele>
        <time>2010-12-28T16:14:30Z</time>
      </trkpt>
      <trkpt lat="33.14396501518786" lon="-2.471169959753752">
        <ele>1250.3</ele>
        <time>2010-12-28T16:14:31Z</time>
      </trkpt>
      <trkpt lat="33.143786983564496" lon="-2.471331981942058">
        <ele>1250.0999999999999</ele>
        <time>2010-12-28T16:14:34Z</time>
      </trkpt>
      <trkpt lat="33.14371095970273" lon="-2.471445975825191">
        <ele>1249.7</ele>
        <time>2010-12-28T16:14:36Z</time>
      </trkpt>
      <trkpt lat="33.143663015216589" lon="-2.471566004678607">
        <ele>1248.8</ele>
        <time>2010-12-28T16:14:39Z</time>
      </trkpt>
      <trkpt lat="33.143661003559828" lon="-2.471696007996798">
        <ele>1248</ele>
        <time>2010-12-28T16:14:46Z</time>
      </trkpt>
      <trkpt lat="33.14371095970273" lon="-2.471828022971749">
        <ele>1247.4000000000001</ele>
        <time>2010-12-28T16:14:52Z</time>
      </trkpt>
      <trkpt lat="33.143769968301058" lon="-2.47191502712667">
        <ele>1247.4000000000001</ele>
        <time>2010-12-28T16:14:58Z</time>
      </trkpt>
      <trkpt lat="33.1437729857862" lon="-2.472059028223157">
        <ele>1246.7</ele>
        <time>2010-12-28T16:15:01Z</time>
      </trkpt>
      <trkpt lat="33.143817996606231" lon="-2.472186014056206">
        <ele>1247</ele>
        <time>2010-12-28T16:15:05Z</time>
      </trkpt>
      <trkpt lat="33.143863007426262" lon="-2.472333032637835">
        <ele>1247.5</ele>
        <time>2010-12-28T16:15:07Z</time>
      </trkpt>
      <trkpt lat="33.143875999376178" lon="-2.472446020692587">
        <ele>1248.2</ele>
        <time>2010-12-28T16:15:09Z</time>
      </trkpt>
      <trkpt lat="33.143975995481014" lon="-2.47341999784112">
        <ele>1250</ele>
        <time>2010-12-28T16:15:21Z</time>
      </trkpt>
      <trkpt lat="33.144036009907722" lon="-2.474062973633409">
        <ele>1249.3</ele>
        <time>2010-12-28T16:15:30Z</time>
      </trkpt>
      <trkpt lat="33.143992004916072" lon="-2.474188031628728">
        <ele>1249.5</ele>
        <time>2010-12-28T16:15:33Z</time>
      </trkpt>
      <trkpt lat="33.143895026296377" lon="-2.474289033561945">
        <ele>1249.7</ele>
        <time>2010-12-28T16:15:35Z</time>
      </trkpt>
      <trkpt lat="33.143599983304739" lon="-2.474544011056423">
        <ele>1250.5999999999999</ele>
        <time>2010-12-28T16:15:40Z</time>
      </trkpt>
      <trkpt lat="33.143408037722111" lon="-2.474810974672437">
        <ele>1251.0999999999999</ele>
        <time>2010-12-28T16:15:43Z</time>
      </trkpt>
      <trkpt lat="33.143281973898411" lon="-2.474977020174265">
        <ele>1250.9000000000001</ele>
        <time>2010-12-28T16:15:46Z</time>
      </trkpt>
      <trkpt lat="33.143225982785225" lon="-2.475113980472088">
        <ele>1250.8</ele>
        <time>2010-12-28T16:15:48Z</time>
      </trkpt>
      <trkpt lat="33.143207961693406" lon="-2.475258987396956">
        <ele>1251.0999999999999</ele>
        <time>2010-12-28T16:15:50Z</time>
      </trkpt>
      <trkpt lat="33.143199998885393" lon="-2.475387984886766">
        <ele>1251.3</ele>
        <time>2010-12-28T16:15:52Z</time>
      </trkpt>
      <trkpt lat="33.143125986680388" lon="-2.475507007911801">
        <ele>1251.3</ele>
        <time>2010-12-28T16:15:54Z</time>
      </trkpt>
      <trkpt lat="33.14300000667572" lon="-2.475628964602947">
        <ele>1251.4000000000001</ele>
        <time>2010-12-28T16:15:56Z</time>
      </trkpt>
      <trkpt lat="33.142689038068056" lon="-2.475935993716121">
        <ele>1251.7</ele>
        <time>2010-12-28T16:16:01Z</time>
      </trkpt>
      <trkpt lat="33.142545958980918" lon="-2.476178985089064">
        <ele>1251.8</ele>
        <time>2010-12-28T16:16:04Z</time>
      </trkpt>
      <trkpt lat="33.142465995624661" lon="-2.476366991177201">
        <ele>1251.9000000000001</ele>
        <time>2010-12-28T16:16:06Z</time>
      </trkpt>
      <trkpt lat="33.142233984544873" lon="-2.477024970576167">
        <ele>1252.7</ele>
        <time>2010-12-28T16:16:12Z</time>
      </trkpt>
      <trkpt lat="33.142172964289784" lon="-2.477123038843274">
        <ele>1252.7</ele>
        <time>2010-12-28T16:16:14Z</time>
      </trkpt>
      <trkpt lat="33.142004990950227" lon="-2.477443981915712">
        <ele>1253.2</ele>
        <time>2010-12-28T16:16:16Z</time>
      </trkpt>
      <trkpt lat="33.141591008752584" lon="-2.478221990168095">
        <ele>1254.7</ele>
        <time>2010-12-28T16:16:23Z</time>
      </trkpt>
      <trkpt lat="33.141522025689483" lon="-2.478323997929692">
        <ele>1254.8</ele>
        <time>2010-12-28T16:16:24Z</time>
      </trkpt>
      <trkpt lat="33.141294959932566" lon="-2.478653993457556">
        <ele>1255.4000000000001</ele>
        <time>2010-12-28T16:16:28Z</time>
      </trkpt>
      <trkpt lat="33.14125900156796" lon="-2.478839987888932">
        <ele>1255.9000000000001</ele>
        <time>2010-12-28T16:16:30Z</time>
      </trkpt>
      <trkpt lat="33.14134600572288" lon="-2.480720970779657">
        <ele>1260.0999999999999</ele>
        <time>2010-12-28T16:16:47Z</time>
      </trkpt>
      <trkpt lat="33.141386993229389" lon="-2.480920040979981">
        <ele>1260.3</ele>
        <time>2010-12-28T16:16:49Z</time>
      </trkpt>
      <trkpt lat="33.141426974907517" lon="-2.481017019599676">
        <ele>1260.5</ele>
        <time>2010-12-28T16:16:50Z</time>
      </trkpt>
      <trkpt lat="33.141541974619031" lon="-2.481278032064438">
        <ele>1260.9000000000001</ele>
        <time>2010-12-28T16:16:54Z</time>
      </trkpt>
      <trkpt lat="33.141480032354593" lon="-2.481383979320526">
        <ele>1260.7</ele>
        <time>2010-12-28T16:16:57Z</time>
      </trkpt>
      <trkpt lat="33.141063032671809" lon="-2.481423960998654">
        <ele>1260.2</ele>
        <time>2010-12-28T16:17:06Z</time>
      </trkpt>
      <trkpt lat="33.140865974128246" lon="-2.481423960998654">
        <ele>1259.7</ele>
        <time>2010-12-28T16:17:11Z</time>
      </trkpt>
      <trkpt lat="33.140577971935272" lon="-2.481394037604332">
        <ele>1259.5</ele>
        <time>2010-12-28T16:17:17Z</time>
      </trkpt>
      <trkpt lat="33.138110004365444" lon="-2.481185998767614">
        <ele>1257.0999999999999</ele>
        <time>2010-12-28T16:18:05Z</time>
      </trkpt>
      <trkpt lat="33.138012019917369" lon="-2.481210976839066">
        <ele>1257.2</ele>
        <time>2010-12-28T16:18:07Z</time>
      </trkpt>
      <trkpt lat="33.137440038844943" lon="-2.481564022600651">
        <ele>1257.7</ele>
        <time>2010-12-28T16:18:16Z</time>
      </trkpt>
      <trkpt lat="33.137193024158478" lon="-2.48179997317493">
        <ele>1258.2</ele>
        <time>2010-12-28T16:18:20Z</time>
      </trkpt>
      <trkpt lat="33.136890018358827" lon="-2.482234993949533">
        <ele>1259.8</ele>
        <time>2010-12-28T16:18:26Z</time>
      </trkpt>
      <trkpt lat="33.136705029755831" lon="-2.482631038874388">
        <ele>1261.3</ele>
        <time>2010-12-28T16:18:31Z</time>
      </trkpt>
      <trkpt lat="33.136591035872698" lon="-2.48278995975852">
        <ele>1262.5999999999999</ele>
        <time>2010-12-28T16:18:34Z</time>
      </trkpt>
      <trkpt lat="33.136521968990564" lon="-2.482870006933808">
        <ele>1262.8</ele>
        <time>2010-12-28T16:18:36Z</time>
      </trkpt>
      <trkpt lat="33.136421972885728" lon="-2.482932033017278">
        <ele>1262.9000000000001</ele>
        <time>2010-12-28T16:18:38Z</time>
      </trkpt>
      <trkpt lat="33.135453024879098" lon="-2.483146023005247">
        <ele>1262.3</ele>
        <time>2010-12-28T16:18:49Z</time>
      </trkpt>
      <trkpt lat="33.135355040431023" lon="-2.48315297998488">
        <ele>1262.3</ele>
        <time>2010-12-28T16:18:50Z</time>
      </trkpt>
      <trkpt lat="33.135255966335535" lon="-2.483149040490389">
        <ele>1262.2</ele>
        <time>2010-12-28T16:18:51Z</time>
      </trkpt>
      <trkpt lat="33.135154964402318" lon="-2.483135964721441">
        <ele>1262.0999999999999</ele>
        <time>2010-12-28T16:18:52Z</time>
      </trkpt>
      <trkpt lat="33.135054968297482" lon="-2.48311098664999">
        <ele>1262</ele>
        <time>2010-12-28T16:18:53Z</time>
      </trkpt>
      <trkpt lat="33.134954972192645" lon="-2.483077039942145">
        <ele>1261.9000000000001</ele>
        <time>2010-12-28T16:18:54Z</time>
      </trkpt>
      <trkpt lat="33.134853970259428" lon="-2.483034040778875">
        <ele>1262</ele>
        <time>2010-12-28T16:18:55Z</time>
      </trkpt>
      <trkpt lat="33.134753974154592" lon="-2.48298198916018">
        <ele>1261.8</ele>
        <time>2010-12-28T16:18:56Z</time>
      </trkpt>
      <trkpt lat="33.134653978049755" lon="-2.482917029410601">
        <ele>1261.7</ele>
        <time>2010-12-28T16:18:57Z</time>
      </trkpt>
      <trkpt lat="33.13455699943006" lon="-2.482842011377215">
        <ele>1261.5999999999999</ele>
        <time>2010-12-28T16:18:58Z</time>
      </trkpt>
      <trkpt lat="33.134375028312206" lon="-2.482670014724135">
        <ele>1261.4000000000001</ele>
        <time>2010-12-28T16:19:00Z</time>
      </trkpt>
      <trkpt lat="33.133978983387351" lon="-2.482297020033002">
        <ele>1261</ele>
        <time>2010-12-28T16:19:05Z</time>
      </trkpt>
      <trkpt lat="33.13382601365447" lon="-2.482201969251037">
        <ele>1260.4000000000001</ele>
        <time>2010-12-28T16:19:08Z</time>
      </trkpt>
      <trkpt lat="33.133530970662832" lon="-2.482069032266736">
        <ele>1261</ele>
        <time>2010-12-28T16:19:20Z</time>
      </trkpt>
      <trkpt lat="33.133442960679531" lon="-2.48199300840497">
        <ele>1261</ele>
        <time>2010-12-28T16:19:22Z</time>
      </trkpt>
      <trkpt lat="33.133293008431792" lon="-2.481819000095129">
        <ele>1261.0999999999999</ele>
        <time>2010-12-28T16:19:26Z</time>
      </trkpt>
      <trkpt lat="33.132939040660858" lon="-2.481372999027371">
        <ele>1261.5999999999999</ele>
        <time>2010-12-28T16:19:38Z</time>
      </trkpt>
      <trkpt lat="33.132781041786075" lon="-2.481150962412357">
        <ele>1262</ele>
        <time>2010-12-28T16:19:42Z</time>
      </trkpt>
      <trkpt lat="33.132669981569052" lon="-2.481065969914198">
        <ele>1262.4000000000001</ele>
        <time>2010-12-28T16:19:44Z</time>
      </trkpt>
      <trkpt lat="33.1325379665941" lon="-2.481022970750928">
        <ele>1262.9000000000001</ele>
        <time>2010-12-28T16:19:46Z</time>
      </trkpt>
      <trkpt lat="33.132266979664564" lon="-2.481048032641411">
        <ele>1263.7</ele>
        <time>2010-12-28T16:19:50Z</time>
      </trkpt>
      <trkpt lat="33.132129013538361" lon="-2.48098399490118">
        <ele>1263.5999999999999</ele>
        <time>2010-12-28T16:19:52Z</time>
      </trkpt>
      <trkpt lat="33.131676977500319" lon="-2.48057596385479">
        <ele>1261.9000000000001</ele>
        <time>2010-12-28T16:19:59Z</time>
      </trkpt>
      <trkpt lat="33.131556026637554" lon="-2.480501029640436">
        <ele>1261.8</ele>
        <time>2010-12-28T16:20:01Z</time>
      </trkpt>
      <trkpt lat="33.131100973114371" lon="-2.480087969452143">
        <ele>1260.4000000000001</ele>
        <time>2010-12-28T16:20:12Z</time>
      </trkpt>
      <trkpt lat="33.130819005891681" lon="-2.479976993054152">
        <ele>1259.9000000000001</ele>
        <time>2010-12-28T16:20:20Z</time>
      </trkpt>
      <trkpt lat="33.130719009786844" lon="-2.479915972799063">
        <ele>1259.5999999999999</ele>
        <time>2010-12-28T16:20:24Z</time>
      </trkpt>
      <trkpt lat="33.130637034773827" lon="-2.4798449780792">
        <ele>1259.4000000000001</ele>
        <time>2010-12-28T16:20:27Z</time>
      </trkpt>
      <trkpt lat="33.130546007305384" lon="-2.479724027216435">
        <ele>1259.0999999999999</ele>
        <time>2010-12-28T16:20:30Z</time>
      </trkpt>
      <trkpt lat="33.130442993715405" lon="-2.479558987542987">
        <ele>1258.7</ele>
        <time>2010-12-28T16:20:36Z</time>
      </trkpt>
      <trkpt lat="33.130395971238613" lon="-2.47945899143815">
        <ele>1258.5</ele>
        <time>2010-12-28T16:20:39Z</time>
      </trkpt>
      <trkpt lat="33.130391025915742" lon="-2.47932898811996">
        <ele>1258.2</ele>
        <time>2010-12-28T16:20:43Z</time>
      </trkpt>
      <trkpt lat="33.130488004535437" lon="-2.479246007278562">
        <ele>1255</ele>
        <time>2010-12-28T16:21:36Z</time>
      </trkpt>
      <trkpt lat="33.130547013133764" lon="-2.479160008952022">
        <ele>1254.4000000000001</ele>
        <time>2010-12-28T16:21:40Z</time>
      </trkpt>
      <trkpt lat="33.130572997033596" lon="-2.47904802672565">
        <ele>1253.7</ele>
        <time>2010-12-28T16:21:44Z</time>
      </trkpt>
      <trkpt lat="33.130551036447287" lon="-2.47894199565053">
        <ele>1254.0999999999999</ele>
        <time>2010-12-28T16:22:11Z</time>
      </trkpt>
      <trkpt lat="33.130498984828591" lon="-2.478840993717313">
        <ele>1253.5999999999999</ele>
        <time>2010-12-28T16:22:20Z</time>
      </trkpt>
      <trkpt lat="33.130421033129096" lon="-2.478609988465905">
        <ele>1254.7</ele>
        <time>2010-12-28T16:22:28Z</time>
      </trkpt>
      <trkpt lat="33.130337968468666" lon="-2.478409996256232">
        <ele>1256.5</ele>
        <time>2010-12-28T16:22:36Z</time>
      </trkpt>
      <trkpt lat="33.130226992070675" lon="-2.478200029581785">
        <ele>1257.4000000000001</ele>
        <time>2010-12-28T16:22:41Z</time>
      </trkpt>
      <trkpt lat="33.130163960158825" lon="-2.478054016828537">
        <ele>1258.0999999999999</ele>
        <time>2010-12-28T16:22:45Z</time>
      </trkpt>
      <trkpt lat="33.130112998187542" lon="-2.477957038208842">
        <ele>1258.3</ele>
        <time>2010-12-28T16:22:49Z</time>
      </trkpt>
      <trkpt lat="33.130221040919423" lon="-2.478202963247895">
        <ele>1256.0999999999999</ele>
        <time>2010-12-28T16:24:59Z</time>
      </trkpt>
      <trkpt lat="33.130446011200547" lon="-2.478649970144033">
        <ele>1253.8</ele>
        <time>2010-12-28T16:25:14Z</time>
      </trkpt>
      <trkpt lat="33.13036403618753" lon="-2.478823978453875">
        <ele>1253.7</ele>
        <time>2010-12-28T16:25:20Z</time>
      </trkpt>
      <trkpt lat="33.130264962092042" lon="-2.478863038122654">
        <ele>1253.8</ele>
        <time>2010-12-28T16:25:23Z</time>
      </trkpt>
      <trkpt lat="33.130190027877688" lon="-2.478923974558711">
        <ele>1254</ele>
        <time>2010-12-28T16:25:27Z</time>
      </trkpt>
      <trkpt lat="33.130240989848971" lon="-2.478805035352707">
        <ele>1253.4000000000001</ele>
        <time>2010-12-28T16:25:44Z</time>
      </trkpt>
      <trkpt lat="33.130342997610569" lon="-2.47883403673768">
        <ele>1253.2</ele>
        <time>2010-12-28T16:25:49Z</time>
      </trkpt>
      <trkpt lat="33.13045296818018" lon="-2.47887603007257">
        <ele>1253.3</ele>
        <time>2010-12-28T16:25:53Z</time>
      </trkpt>
      <trkpt lat="33.130175024271011" lon="-2.47896303422749">
        <ele>1254.0999999999999</ele>
        <time>2010-12-28T16:32:43Z</time>
      </trkpt>
      <trkpt lat="33.129942007362843" lon="-2.478999998420477">
        <ele>1255.7</ele>
        <time>2010-12-28T16:33:24Z</time>
      </trkpt>
    </trkseg>
  </trk>

  <trk>
    <name>101229</name>
    <extensions>
      <gpxx:TrackExtension xmlns:gpxx="http://www.garmin.com/xmlschemas/GpxExtensions/v3">
        <gpxx:DisplayColor>Magenta</gpxx:DisplayColor>
      </gpxx:TrackExtension>
    </extensions>
    <trkseg>
      <trkpt lat="33.129879981279373" lon="-2.478929003700614">
        <ele>1253.6969999999999</ele>
        <time>2010-12-29T09:10:04Z</time>
      </trkpt>
      <trkpt lat="33.130047032609582" lon="-2.478818027302623">
        <ele>1253.6969999999999</ele>
        <time>2010-12-29T09:15:30Z</time>
      </trkpt>
      <trkpt lat="33.130396977066994" lon="-2.478781985118985">
        <ele>1255.1379999999999</ele>
        <time>2010-12-29T09:15:43Z</time>
      </trkpt>
      <trkpt lat="33.130470989271998" lon="-2.478677965700626">
        <ele>1254.6579999999999</ele>
        <time>2010-12-29T09:15:49Z</time>
      </trkpt>
      <trkpt lat="33.13036696985364" lon="-2.478467999026179">
        <ele>1255.1379999999999</ele>
        <time>2010-12-29T09:15:59Z</time>
      </trkpt>
      <trkpt lat="33.13015297986567" lon="-2.478024009615183">
        <ele>1257.0609999999999</ele>
        <time>2010-12-29T09:16:10Z</time>
      </trkpt>
      <trkpt lat="33.129901019856334" lon="-2.477788981050253">
        <ele>1257.0609999999999</ele>
        <time>2010-12-29T09:16:19Z</time>
      </trkpt>
      <trkpt lat="33.129253014922142" lon="-2.477732989937067">
        <ele>1258.0219999999999</ele>
        <time>2010-12-29T09:16:34Z</time>
      </trkpt>
      <trkpt lat="33.129069032147527" lon="-2.477780012413859">
        <ele>1258.5029999999999</ele>
        <time>2010-12-29T09:16:38Z</time>
      </trkpt>
      <trkpt lat="33.128871973603964" lon="-2.477926025167108">
        <ele>1258.9839999999999</ele>
        <time>2010-12-29T09:16:43Z</time>
      </trkpt>
      <trkpt lat="33.128642980009317" lon="-2.477976987138391">
        <ele>1258.5029999999999</ele>
        <time>2010-12-29T09:16:48Z</time>
      </trkpt>
      <trkpt lat="33.128035962581635" lon="-2.477861987426877">
        <ele>1258.5029999999999</ele>
        <time>2010-12-29T09:17:00Z</time>
      </trkpt>
      <trkpt lat="33.127800012007356" lon="-2.477670963853598">
        <ele>1258.9839999999999</ele>
        <time>2010-12-29T09:17:06Z</time>
      </trkpt>
      <trkpt lat="33.127700015902519" lon="-2.477482035756111">
        <ele>1259.9449999999999</ele>
        <time>2010-12-29T09:17:10Z</time>
      </trkpt>
      <trkpt lat="33.127546962350607" lon="-2.477340968325734">
        <ele>1259.9449999999999</ele>
        <time>2010-12-29T09:17:14Z</time>
      </trkpt>
      <trkpt lat="33.127126023173332" lon="-2.477077022194862">
        <ele>1259.9449999999999</ele>
        <time>2010-12-29T09:17:22Z</time>
      </trkpt>
      <trkpt lat="33.126974981278181" lon="-2.476787008345127">
        <ele>1260.4259999999999</ele>
        <time>2010-12-29T09:17:27Z</time>
      </trkpt>
      <trkpt lat="33.126945979893208" lon="-2.476337989792228">
        <ele>1262.348</ele>
        <time>2010-12-29T09:17:35Z</time>
      </trkpt>
      <trkpt lat="33.126810025423765" lon="-2.476042024791241">
        <ele>1261.8679999999999</ele>
        <time>2010-12-29T09:17:41Z</time>
      </trkpt>
      <trkpt lat="33.126208037137985" lon="-2.475553024560213">
        <ele>1261.3869999999999</ele>
        <time>2010-12-29T09:17:54Z</time>
      </trkpt>
      <trkpt lat="33.12559699639678" lon="-2.475147005170584">
        <ele>1261.3869999999999</ele>
        <time>2010-12-29T09:18:07Z</time>
      </trkpt>
      <trkpt lat="33.124978998675942" lon="-2.475013984367251">
        <ele>1262.348</ele>
        <time>2010-12-29T09:18:18Z</time>
      </trkpt>
      <trkpt lat="33.124495027586818" lon="-2.47503099963069">
        <ele>1263.79</ele>
        <time>2010-12-29T09:18:28Z</time>
      </trkpt>
      <trkpt lat="33.124361000955105" lon="-2.47503099963069">
        <ele>1262.348</ele>
        <time>2010-12-29T09:18:52Z</time>
      </trkpt>
      <trkpt lat="33.124207025393844" lon="-2.47505396604538">
        <ele>1264.271</ele>
        <time>2010-12-29T09:19:23Z</time>
      </trkpt>
      <trkpt lat="33.124127984046936" lon="-2.475316990166903">
        <ele>1263.79</ele>
        <time>2010-12-29T09:19:31Z</time>
      </trkpt>
      <trkpt lat="33.124061012640595" lon="-2.475521005690098">
        <ele>1263.79</ele>
        <time>2010-12-29T09:19:36Z</time>
      </trkpt>
      <trkpt lat="33.123544016852975" lon="-2.475745975971222">
        <ele>1265.232</ele>
        <time>2010-12-29T09:19:47Z</time>
      </trkpt>
      <trkpt lat="33.122805990278721" lon="-2.476033978164196">
        <ele>1265.713</ele>
        <time>2010-12-29T09:20:00Z</time>
      </trkpt>
      <trkpt lat="33.122077016159892" lon="-2.475930964574218">
        <ele>1266.674</ele>
        <time>2010-12-29T09:20:11Z</time>
      </trkpt>
      <trkpt lat="33.12119398266077" lon="-2.475537015125155">
        <ele>1267.155</ele>
        <time>2010-12-29T09:20:25Z</time>
      </trkpt>
      <trkpt lat="33.120921989902854" lon="-2.475437019020319">
        <ele>1268.116</ele>
        <time>2010-12-29T09:20:29Z</time>
      </trkpt>
      <trkpt lat="33.120524017140269" lon="-2.475552018731833">
        <ele>1267.635</ele>
        <time>2010-12-29T09:20:35Z</time>
      </trkpt>
      <trkpt lat="33.120187986642122" lon="-2.475668024271727">
        <ele>1269.558</ele>
        <time>2010-12-29T09:20:42Z</time>
      </trkpt>
      <trkpt lat="33.119385000318289" lon="-2.475100988522172">
        <ele>1271</ele>
        <time>2010-12-29T09:20:55Z</time>
      </trkpt>
      <trkpt lat="33.118203990161419" lon="-2.474277969449759">
        <ele>1270.52</ele>
        <time>2010-12-29T09:21:12Z</time>
      </trkpt>
      <trkpt lat="33.11698199249804" lon="-2.473460985347629">
        <ele>1264.752</ele>
        <time>2010-12-29T09:21:28Z</time>
      </trkpt>
      <trkpt lat="33.116142963990569" lon="-2.472936026751995">
        <ele>1254.1769999999999</ele>
        <time>2010-12-29T09:21:39Z</time>
      </trkpt>
      <trkpt lat="33.11483203433454" lon="-2.472033966332674">
        <ele>1238.796</ele>
        <time>2010-12-29T09:21:57Z</time>
      </trkpt>
      <trkpt lat="33.113713972270489" lon="-2.471058983355761">
        <ele>1241.6800000000001</ele>
        <time>2010-12-29T09:22:12Z</time>
      </trkpt>
      <trkpt lat="33.113491013646126" lon="-2.470882963389158">
        <ele>1239.7570000000001</ele>
        <time>2010-12-29T09:22:15Z</time>
      </trkpt>
      <trkpt lat="33.112719040364027" lon="-2.470552967861295">
        <ele>1233.028</ele>
        <time>2010-12-29T09:22:24Z</time>
      </trkpt>
      <trkpt lat="33.111457983031869" lon="-2.46968200430274">
        <ele>1231.106</ele>
        <time>2010-12-29T09:22:39Z</time>
      </trkpt>
      <trkpt lat="33.110691960901022" lon="-2.469071969389916">
        <ele>1232.548</ele>
        <time>2010-12-29T09:22:50Z</time>
      </trkpt>
      <trkpt lat="33.110594982281327" lon="-2.468944983556867">
        <ele>1239.277</ele>
        <time>2010-12-29T09:22:56Z</time>
      </trkpt>
      <trkpt lat="33.110458021983504" lon="-2.468965016305447">
        <ele>1212.3599999999999</ele>
        <time>2010-12-29T09:23:40Z</time>
      </trkpt>
      <trkpt lat="33.110034987330437" lon="-2.468798970803618">
        <ele>1212.8409999999999</ele>
        <time>2010-12-29T09:23:47Z</time>
      </trkpt>
      <trkpt lat="33.109148014336824" lon="-2.468491019681096">
        <ele>1210.9179999999999</ele>
        <time>2010-12-29T09:23:57Z</time>
      </trkpt>
      <trkpt lat="33.108665971085429" lon="-2.468494037166238">
        <ele>1209.4760000000001</ele>
        <time>2010-12-29T09:24:03Z</time>
      </trkpt>
      <trkpt lat="33.108520964160562" lon="-2.46858598664403">
        <ele>1208.5139999999999</ele>
        <time>2010-12-29T09:24:05Z</time>
      </trkpt>
      <trkpt lat="33.108200021088123" lon="-2.468623034656048">
        <ele>1206.1110000000001</ele>
        <time>2010-12-29T09:24:09Z</time>
      </trkpt>
      <trkpt lat="33.107556961476803" lon="-2.468481967225671">
        <ele>1204.6690000000001</ele>
        <time>2010-12-29T09:24:16Z</time>
      </trkpt>
      <trkpt lat="33.107194025069475" lon="-2.468287004157901">
        <ele>1205.6310000000001</ele>
        <time>2010-12-29T09:24:20Z</time>
      </trkpt>
      <trkpt lat="33.107026973739266" lon="-2.468153983354569">
        <ele>1205.6310000000001</ele>
        <time>2010-12-29T09:24:22Z</time>
      </trkpt>
      <trkpt lat="33.106762021780014" lon="-2.467823987826705">
        <ele>1205.6310000000001</ele>
        <time>2010-12-29T09:24:26Z</time>
      </trkpt>
      <trkpt lat="33.106615003198385" lon="-2.46755501255393">
        <ele>1205.1500000000001</ele>
        <time>2010-12-29T09:24:29Z</time>
      </trkpt>
      <trkpt lat="33.106377040967345" lon="-2.467291988432407">
        <ele>1205.6310000000001</ele>
        <time>2010-12-29T09:24:35Z</time>
      </trkpt>
      <trkpt lat="33.106228010728955" lon="-2.467208001762629">
        <ele>1205.6310000000001</ele>
        <time>2010-12-29T09:24:39Z</time>
      </trkpt>
      <trkpt lat="33.105744961649179" lon="-2.46682696044445">
        <ele>1207.5530000000001</ele>
        <time>2010-12-29T09:24:48Z</time>
      </trkpt>
      <trkpt lat="33.105629961937666" lon="-2.466746997088194">
        <ele>1209.9559999999999</ele>
        <time>2010-12-29T09:24:50Z</time>
      </trkpt>
      <trkpt lat="33.105314970016479" lon="-2.466725036501885">
        <ele>1210.4369999999999</ele>
        <time>2010-12-29T09:24:56Z</time>
      </trkpt>
      <trkpt lat="33.105084970593452" lon="-2.466973979026079">
        <ele>1210.9179999999999</ele>
        <time>2010-12-29T09:25:02Z</time>
      </trkpt>
      <trkpt lat="33.105042977258563" lon="-2.467136001214385">
        <ele>1211.8789999999999</ele>
        <time>2010-12-29T09:25:04Z</time>
      </trkpt>
      <trkpt lat="33.104657996445894" lon="-2.467827005311847">
        <ele>1212.8409999999999</ele>
        <time>2010-12-29T09:25:13Z</time>
      </trkpt>
      <trkpt lat="33.104467978700995" lon="-2.468126993626356">
        <ele>1212.8409999999999</ele>
        <time>2010-12-29T09:25:17Z</time>
      </trkpt>
      <trkpt lat="33.103799019008875" lon="-2.468616999685764">
        <ele>1213.8019999999999</ele>
        <time>2010-12-29T09:25:26Z</time>
      </trkpt>
      <trkpt lat="33.103414960205555" lon="-2.469011032953858">
        <ele>1214.7629999999999</ele>
        <time>2010-12-29T09:25:34Z</time>
      </trkpt>
      <trkpt lat="33.102739965543151" lon="-2.469804966822267">
        <ele>1215.2439999999999</ele>
        <time>2010-12-29T09:25:45Z</time>
      </trkpt>
      <trkpt lat="33.102331012487411" lon="-2.470276029780507">
        <ele>1213.8019999999999</ele>
        <time>2010-12-29T09:25:53Z</time>
      </trkpt>
      <trkpt lat="33.102203020825982" lon="-2.470421958714724">
        <ele>1213.3209999999999</ele>
        <time>2010-12-29T09:25:56Z</time>
      </trkpt>
      <trkpt lat="33.102042004466057" lon="-2.470824038609862">
        <ele>1213.3209999999999</ele>
        <time>2010-12-29T09:26:02Z</time>
      </trkpt>
      <trkpt lat="33.101949971169233" lon="-2.471406999975443">
        <ele>1221.492</ele>
        <time>2010-12-29T09:26:10Z</time>
      </trkpt>
      <trkpt lat="33.101989030838013" lon="-2.471618978306651">
        <ele>1226.78</ele>
        <time>2010-12-29T09:26:15Z</time>
      </trkpt>
      <trkpt lat="33.102077040821314" lon="-2.471701959148049">
        <ele>1244.5640000000001</ele>
        <time>2010-12-29T09:26:25Z</time>
      </trkpt>
      <trkpt lat="33.102307040244341" lon="-2.472040001302958">
        <ele>1282.0550000000001</ele>
        <time>2010-12-29T09:26:58Z</time>
      </trkpt>
      <trkpt lat="33.102317014709115" lon="-2.472228007391095">
        <ele>1283.0170000000001</ele>
        <time>2010-12-29T09:27:07Z</time>
      </trkpt>
      <trkpt lat="33.102340986952186" lon="-2.472394974902272">
        <ele>1282.0550000000001</ele>
        <time>2010-12-29T09:27:59Z</time>
      </trkpt>
      <trkpt lat="33.10239496640861" lon="-2.472618017345667">
        <ele>1283.0170000000001</ele>
        <time>2010-12-29T09:28:10Z</time>
      </trkpt>
      <trkpt lat="33.102505020797253" lon="-2.472892021760345">
        <ele>1286.8620000000001</ele>
        <time>2010-12-29T09:28:25Z</time>
      </trkpt>
      <trkpt lat="33.102721022441983" lon="-2.47318304143846">
        <ele>1287.3430000000001</ele>
        <time>2010-12-29T09:28:39Z</time>
      </trkpt>
      <trkpt lat="33.102895030751824" lon="-2.473531980067492">
        <ele>1288.3040000000001</ele>
        <time>2010-12-29T09:28:52Z</time>
      </trkpt>
      <trkpt lat="33.103084964677691" lon="-2.473875973373652">
        <ele>1288.7850000000001</ele>
        <time>2010-12-29T09:29:09Z</time>
      </trkpt>
      <trkpt lat="33.103250004351139" lon="-2.473801039159298">
        <ele>1289.7460000000001</ele>
        <time>2010-12-29T09:29:16Z</time>
      </trkpt>
      <trkpt lat="33.103374978527427" lon="-2.473896006122232">
        <ele>1292.1489999999999</ele>
        <time>2010-12-29T09:29:20Z</time>
      </trkpt>
      <trkpt lat="33.103480003774166" lon="-2.474146038293839">
        <ele>1291.6679999999999</ele>
        <time>2010-12-29T09:29:28Z</time>
      </trkpt>
      <trkpt lat="33.103538006544113" lon="-2.474437979981303">
        <ele>1289.2650000000001</ele>
        <time>2010-12-29T09:29:39Z</time>
      </trkpt>
      <trkpt lat="33.10357203707099" lon="-2.474690023809671">
        <ele>1284.9390000000001</ele>
        <time>2010-12-29T09:30:42Z</time>
      </trkpt>
      <trkpt lat="33.10353197157383" lon="-2.474867971614003">
        <ele>1281.0940000000001</ele>
        <time>2010-12-29T09:30:54Z</time>
      </trkpt>
      <trkpt lat="33.103412026539445" lon="-2.475152034312487">
        <ele>1283.9780000000001</ele>
        <time>2010-12-29T09:31:06Z</time>
      </trkpt>
      <trkpt lat="33.103229971602559" lon="-2.475388990715146">
        <ele>1280.614</ele>
        <time>2010-12-29T09:31:16Z</time>
      </trkpt>
      <trkpt lat="33.103086976334453" lon="-2.475521005690098">
        <ele>1274.845</ele>
        <time>2010-12-29T09:31:25Z</time>
      </trkpt>
      <trkpt lat="33.102933000773191" lon="-2.475566016510129">
        <ele>1270.52</ele>
        <time>2010-12-29T09:31:34Z</time>
      </trkpt>
      <trkpt lat="33.102877009660006" lon="-2.475882014259696">
        <ele>1267.155</ele>
        <time>2010-12-29T09:31:44Z</time>
      </trkpt>
      <trkpt lat="33.102921014651656" lon="-2.476603025570512">
        <ele>1273.884</ele>
        <time>2010-12-29T09:31:57Z</time>
      </trkpt>
      <trkpt lat="33.10310197994113" lon="-2.476745015010238">
        <ele>1275.326</ele>
        <time>2010-12-29T09:32:06Z</time>
      </trkpt>
      <trkpt lat="33.103351006284356" lon="-2.476647030562162">
        <ele>1276.288</ele>
        <time>2010-12-29T09:32:14Z</time>
      </trkpt>
      <trkpt lat="33.10346701182425" lon="-2.476695980876684">
        <ele>1275.807</ele>
        <time>2010-12-29T09:32:18Z</time>
      </trkpt>
      <trkpt lat="33.103802036494017" lon="-2.476973002776504">
        <ele>1274.845</ele>
        <time>2010-12-29T09:32:31Z</time>
      </trkpt>
      <trkpt lat="33.103934973478317" lon="-2.477253964170814">
        <ele>1275.326</ele>
        <time>2010-12-29T09:32:42Z</time>
      </trkpt>
      <trkpt lat="33.103989958763123" lon="-2.477556969970465">
        <ele>1275.326</ele>
        <time>2010-12-29T09:32:54Z</time>
      </trkpt>
      <trkpt lat="33.103887028992176" lon="-2.477775989100337">
        <ele>1275.326</ele>
        <time>2010-12-29T09:32:59Z</time>
      </trkpt>
      <trkpt lat="33.10357597656548" lon="-2.478074971586466">
        <ele>1275.326</ele>
        <time>2010-12-29T09:33:11Z</time>
      </trkpt>
      <trkpt lat="33.103257967159152" lon="-2.478200029581785">
        <ele>1278.691</ele>
        <time>2010-12-29T09:33:21Z</time>
      </trkpt>
      <trkpt lat="33.103013969957829" lon="-2.478197012096643">
        <ele>1279.652</ele>
        <time>2010-12-29T09:33:27Z</time>
      </trkpt>
      <trkpt lat="33.102804003283381" lon="-2.478107996284962">
        <ele>1280.133</ele>
        <time>2010-12-29T09:33:32Z</time>
      </trkpt>
      <trkpt lat="33.102541984990239" lon="-2.478031972423196">
        <ele>1281.0940000000001</ele>
        <time>2010-12-29T09:33:37Z</time>
      </trkpt>
      <trkpt lat="33.102379962801933" lon="-2.477930970489979">
        <ele>1281.575</ele>
        <time>2010-12-29T09:33:41Z</time>
      </trkpt>
      <trkpt lat="33.102075029164553" lon="-2.477816976606846">
        <ele>1282.0550000000001</ele>
        <time>2010-12-29T09:33:47Z</time>
      </trkpt>
      <trkpt lat="33.101366003975272" lon="-2.477456973865628">
        <ele>1283.0170000000001</ele>
        <time>2010-12-29T09:34:00Z</time>
      </trkpt>
      <trkpt lat="33.101027039811015" lon="-2.477428978309035">
        <ele>1283.9780000000001</ele>
        <time>2010-12-29T09:34:07Z</time>
      </trkpt>
      <trkpt lat="33.100787987932563" lon="-2.477506007999182">
        <ele>1285.4200000000001</ele>
        <time>2010-12-29T09:34:11Z</time>
      </trkpt>
      <trkpt lat="33.100228998810053" lon="-2.477906998246908">
        <ele>1288.3040000000001</ele>
        <time>2010-12-29T09:34:20Z</time>
      </trkpt>
      <trkpt lat="33.099680989980698" lon="-2.478191982954741">
        <ele>1290.7070000000001</ele>
        <time>2010-12-29T09:34:27Z</time>
      </trkpt>
      <trkpt lat="33.098936006426811" lon="-2.478648964315653">
        <ele>1289.7460000000001</ele>
        <time>2010-12-29T09:34:35Z</time>
      </trkpt>
      <trkpt lat="33.098846990615129" lon="-2.478716019541025">
        <ele>1290.2270000000001</ele>
        <time>2010-12-29T09:34:36Z</time>
      </trkpt>
      <trkpt lat="33.097767988219857" lon="-2.479189010336995">
        <ele>1295.5139999999999</ele>
        <time>2010-12-29T09:34:46Z</time>
      </trkpt>
      <trkpt lat="33.096624026075006" lon="-2.479652026668191">
        <ele>1295.9949999999999</ele>
        <time>2010-12-29T09:34:56Z</time>
      </trkpt>
      <trkpt lat="33.0957539845258" lon="-2.480092998594046">
        <ele>1295.5139999999999</ele>
        <time>2010-12-29T09:35:04Z</time>
      </trkpt>
      <trkpt lat="33.095332039520144" lon="-2.480420982465148">
        <ele>1293.5909999999999</ele>
        <time>2010-12-29T09:35:08Z</time>
      </trkpt>
      <trkpt lat="33.094748994335532" lon="-2.480580992996693">
        <ele>1294.0719999999999</ele>
        <time>2010-12-29T09:35:13Z</time>
      </trkpt>
      <trkpt lat="33.093809969723225" lon="-2.480835970491171">
        <ele>1291.6679999999999</ele>
        <time>2010-12-29T09:35:21Z</time>
      </trkpt>
      <trkpt lat="33.093473017215729" lon="-2.481110980734229">
        <ele>1288.7850000000001</ele>
        <time>2010-12-29T09:35:25Z</time>
      </trkpt>
      <trkpt lat="33.093082001432776" lon="-2.481538038700819">
        <ele>1284.4590000000001</ele>
        <time>2010-12-29T09:35:30Z</time>
      </trkpt>
      <trkpt lat="33.09255201369524" lon="-2.481788992881775">
        <ele>1280.614</ele>
        <time>2010-12-29T09:35:36Z</time>
      </trkpt>
      <trkpt lat="33.092220006510615" lon="-2.482237005606294">
        <ele>1282.5360000000001</ele>
        <time>2010-12-29T09:35:42Z</time>
      </trkpt>
      <trkpt lat="33.092168038710952" lon="-2.482469016686082">
        <ele>1282.0550000000001</ele>
        <time>2010-12-29T09:35:45Z</time>
      </trkpt>
      <trkpt lat="33.092006016522646" lon="-2.482762970030308">
        <ele>1286.8620000000001</ele>
        <time>2010-12-29T09:35:53Z</time>
      </trkpt>
      <trkpt lat="33.091788003221154" lon="-2.483049966394901">
        <ele>1267.155</ele>
        <time>2010-12-29T09:37:34Z</time>
      </trkpt>
      <trkpt lat="33.091526990756392" lon="-2.483391026034951">
        <ele>1269.078</ele>
        <time>2010-12-29T09:37:45Z</time>
      </trkpt>
      <trkpt lat="33.091074032709002" lon="-2.483939034864306">
        <ele>1272.923</ele>
        <time>2010-12-29T09:37:55Z</time>
      </trkpt>
      <trkpt lat="33.090625014156103" lon="-2.484445972368121">
        <ele>1275.326</ele>
        <time>2010-12-29T09:38:04Z</time>
      </trkpt>
      <trkpt lat="33.090354027226567" lon="-2.484599025920034">
        <ele>1275.326</ele>
        <time>2010-12-29T09:38:08Z</time>
      </trkpt>
      <trkpt lat="33.089518016204238" lon="-2.484641019254923">
        <ele>1275.326</ele>
        <time>2010-12-29T09:38:19Z</time>
      </trkpt>
      <trkpt lat="33.089391030371189" lon="-2.484632972627878">
        <ele>1275.326</ele>
        <time>2010-12-29T09:38:21Z</time>
      </trkpt>
      <trkpt lat="33.089043013751507" lon="-2.484360979869962">
        <ele>1276.288</ele>
        <time>2010-12-29T09:38:29Z</time>
      </trkpt>
      <trkpt lat="33.088798010721803" lon="-2.48427196405828">
        <ele>1276.288</ele>
        <time>2010-12-29T09:38:34Z</time>
      </trkpt>
      <trkpt lat="33.088500034064054" lon="-2.484037019312382">
        <ele>1274.845</ele>
        <time>2010-12-29T09:38:40Z</time>
      </trkpt>
      <trkpt lat="33.088242039084435" lon="-2.483853036537767">
        <ele>1273.884</ele>
        <time>2010-12-29T09:38:44Z</time>
      </trkpt>
      <trkpt lat="33.087988989427686" lon="-2.483769971877337">
        <ele>1273.404</ele>
        <time>2010-12-29T09:38:47Z</time>
      </trkpt>
      <trkpt lat="33.087620018050075" lon="-2.483812971040607">
        <ele>1271.481</ele>
        <time>2010-12-29T09:38:51Z</time>
      </trkpt>
      <trkpt lat="33.087151972576976" lon="-2.484028972685337">
        <ele>1269.078</ele>
        <time>2010-12-29T09:38:56Z</time>
      </trkpt>
      <trkpt lat="33.086554007604718" lon="-2.48474202118814">
        <ele>1266.194</ele>
        <time>2010-12-29T09:39:04Z</time>
      </trkpt>
      <trkpt lat="33.086409000679851" lon="-2.484922986477613">
        <ele>1265.713</ele>
        <time>2010-12-29T09:39:06Z</time>
      </trkpt>
      <trkpt lat="33.085964005440474" lon="-2.485801996663213">
        <ele>1263.79</ele>
        <time>2010-12-29T09:39:14Z</time>
      </trkpt>
      <trkpt lat="33.08544198051095" lon="-2.486457964405417">
        <ele>1265.232</ele>
        <time>2010-12-29T09:39:21Z</time>
      </trkpt>
      <trkpt lat="33.084863964468241" lon="-2.487286012619734">
        <ele>1264.752</ele>
        <time>2010-12-29T09:39:30Z</time>
      </trkpt>
      <trkpt lat="33.084523994475603" lon="-2.487632017582655">
        <ele>1264.752</ele>
        <time>2010-12-29T09:39:35Z</time>
      </trkpt>
      <trkpt lat="33.083868026733398" lon="-2.488192012533546">
        <ele>1263.79</ele>
        <time>2010-12-29T09:39:44Z</time>
      </trkpt>
      <trkpt lat="33.083134023472667" lon="-2.488651005551219">
        <ele>1263.79</ele>
        <time>2010-12-29T09:39:53Z</time>
      </trkpt>
      <trkpt lat="33.082572016865015" lon="-2.489260034635663">
        <ele>1263.79</ele>
        <time>2010-12-29T09:40:01Z</time>
      </trkpt>
      <trkpt lat="33.082366995513439" lon="-2.489764960482717">
        <ele>1259.9449999999999</ele>
        <time>2010-12-29T09:40:06Z</time>
      </trkpt>
      <trkpt lat="33.082000035792589" lon="-2.490838011726737">
        <ele>1258.9839999999999</ele>
        <time>2010-12-29T09:40:17Z</time>
      </trkpt>
      <trkpt lat="33.081742040812969" lon="-2.491303039714694">
        <ele>1258.9839999999999</ele>
        <time>2010-12-29T09:40:22Z</time>
      </trkpt>
      <trkpt lat="33.081368962302804" lon="-2.491783993318677">
        <ele>1261.8679999999999</ele>
        <time>2010-12-29T09:40:27Z</time>
      </trkpt>
      <trkpt lat="33.080762028694153" lon="-2.492310041561723">
        <ele>1261.8679999999999</ele>
        <time>2010-12-29T09:40:34Z</time>
      </trkpt>
      <trkpt lat="33.080297000706196" lon="-2.492474997416139">
        <ele>1263.3099999999999</ele>
        <time>2010-12-29T09:40:40Z</time>
      </trkpt>
      <trkpt lat="33.080041017383337" lon="-2.492509027943015">
        <ele>1263.79</ele>
        <time>2010-12-29T09:40:45Z</time>
      </trkpt>
      <trkpt lat="33.079717978835106" lon="-2.492602989077568">
        <ele>1262.829</ele>
        <time>2010-12-29T09:40:50Z</time>
      </trkpt>
      <trkpt lat="33.079172987490892" lon="-2.492476003244519">
        <ele>1264.752</ele>
        <time>2010-12-29T09:40:57Z</time>
      </trkpt>
      <trkpt lat="33.07847703807056" lon="-2.492247009649873">
        <ele>1268.116</ele>
        <time>2010-12-29T09:41:05Z</time>
      </trkpt>
      <trkpt lat="33.078180989250541" lon="-2.492108037695289">
        <ele>1269.558</ele>
        <time>2010-12-29T09:41:09Z</time>
      </trkpt>
      <trkpt lat="33.077752003446221" lon="-2.492135027423501">
        <ele>1270.52</ele>
        <time>2010-12-29T09:41:15Z</time>
      </trkpt>
      <trkpt lat="33.077438017353415" lon="-2.49237097799778">
        <ele>1269.558</ele>
        <time>2010-12-29T09:41:20Z</time>
      </trkpt>
      <trkpt lat="33.076872993260622" lon="-2.49258304014802">
        <ele>1270.039</ele>
        <time>2010-12-29T09:41:27Z</time>
      </trkpt>
      <trkpt lat="33.076624972745776" lon="-2.49267197214067">
        <ele>1270.039</ele>
        <time>2010-12-29T09:41:30Z</time>
      </trkpt>
      <trkpt lat="33.076466973870993" lon="-2.492756964638829">
        <ele>1269.558</ele>
        <time>2010-12-29T09:41:32Z</time>
      </trkpt>
      <trkpt lat="33.076206967234612" lon="-2.492814967408776">
        <ele>1269.558</ele>
        <time>2010-12-29T09:41:35Z</time>
      </trkpt>
      <trkpt lat="33.075705980882049" lon="-2.493010014295578">
        <ele>1268.597</ele>
        <time>2010-12-29T09:41:42Z</time>
      </trkpt>
      <trkpt lat="33.075233995914459" lon="-2.49320900067687">
        <ele>1268.116</ele>
        <time>2010-12-29T09:41:49Z</time>
      </trkpt>
      <trkpt lat="33.074822025373578" lon="-2.493355013430119">
        <ele>1269.558</ele>
        <time>2010-12-29T09:41:56Z</time>
      </trkpt>
      <trkpt lat="33.074629995971918" lon="-2.493476970121265">
        <ele>1268.116</ele>
        <time>2010-12-29T09:42:03Z</time>
      </trkpt>
      <trkpt lat="33.074407959356904" lon="-2.493515023961663">
        <ele>1267.155</ele>
        <time>2010-12-29T09:42:07Z</time>
      </trkpt>
      <trkpt lat="33.073788033798337" lon="-2.493521980941296">
        <ele>1268.116</ele>
        <time>2010-12-29T09:42:16Z</time>
      </trkpt>
      <trkpt lat="33.073501037433743" lon="-2.493439000099897">
        <ele>1269.078</ele>
        <time>2010-12-29T09:42:20Z</time>
      </trkpt>
      <trkpt lat="33.073271960020065" lon="-2.493345960974693">
        <ele>1268.597</ele>
        <time>2010-12-29T09:42:23Z</time>
      </trkpt>
      <trkpt lat="33.072867030277848" lon="-2.49331695958972">
        <ele>1269.558</ele>
        <time>2010-12-29T09:42:28Z</time>
      </trkpt>
      <trkpt lat="33.072647005319595" lon="-2.493390971794725">
        <ele>1269.558</ele>
        <time>2010-12-29T09:42:31Z</time>
      </trkpt>
      <trkpt lat="33.072318015620112" lon="-2.493418967351317">
        <ele>1270.039</ele>
        <time>2010-12-29T09:42:35Z</time>
      </trkpt>
      <trkpt lat="33.072051974013448" lon="-2.493353001773357">
        <ele>1271.961</ele>
        <time>2010-12-29T09:42:38Z</time>
      </trkpt>
      <trkpt lat="33.071459960192442" lon="-2.49355198815465">
        <ele>1271</ele>
        <time>2010-12-29T09:42:45Z</time>
      </trkpt>
      <trkpt lat="33.071165001019835" lon="-2.493790034204722">
        <ele>1271</ele>
        <time>2010-12-29T09:42:49Z</time>
      </trkpt>
      <trkpt lat="33.070693016052246" lon="-2.494050962850452">
        <ele>1271.481</ele>
        <time>2010-12-29T09:42:55Z</time>
      </trkpt>
      <trkpt lat="33.070251038298011" lon="-2.494501993060112">
        <ele>1270.039</ele>
        <time>2010-12-29T09:43:01Z</time>
      </trkpt>
      <trkpt lat="33.069787016138434" lon="-2.494870964437723">
        <ele>1269.078</ele>
        <time>2010-12-29T09:43:07Z</time>
      </trkpt>
      <trkpt lat="33.069619964808226" lon="-2.495108004659414">
        <ele>1270.52</ele>
        <time>2010-12-29T09:43:10Z</time>
      </trkpt>
      <trkpt lat="33.069276977330446" lon="-2.495332974940538">
        <ele>1272.923</ele>
        <time>2010-12-29T09:43:16Z</time>
      </trkpt>
      <trkpt lat="33.06913498789072" lon="-2.495393995195627">
        <ele>1272.442</ele>
        <time>2010-12-29T09:43:18Z</time>
      </trkpt>
      <trkpt lat="33.068204009905457" lon="-2.495890958234668">
        <ele>1273.884</ele>
        <time>2010-12-29T09:43:28Z</time>
      </trkpt>
      <trkpt lat="33.0680170096457" lon="-2.496010987088084">
        <ele>1273.884</ele>
        <time>2010-12-29T09:43:30Z</time>
      </trkpt>
      <trkpt lat="33.067794973030686" lon="-2.496232017874718">
        <ele>1273.884</ele>
        <time>2010-12-29T09:43:33Z</time>
      </trkpt>
      <trkpt lat="33.067222991958261" lon="-2.496565030887723">
        <ele>1275.807</ele>
        <time>2010-12-29T09:43:40Z</time>
      </trkpt>
      <trkpt lat="33.066563000902534" lon="-2.497170958667994">
        <ele>1275.326</ele>
        <time>2010-12-29T09:43:47Z</time>
      </trkpt>
      <trkpt lat="33.066116999834776" lon="-2.497628023847938">
        <ele>1274.365</ele>
        <time>2010-12-29T09:43:53Z</time>
      </trkpt>
      <trkpt lat="33.065744005143642" lon="-2.497964976355434">
        <ele>1273.884</ele>
        <time>2010-12-29T09:43:59Z</time>
      </trkpt>
      <trkpt lat="33.064726023003459" lon="-2.498851027339697">
        <ele>1274.365</ele>
        <time>2010-12-29T09:44:10Z</time>
      </trkpt>
      <trkpt lat="33.064143983647227" lon="-2.499664993956685">
        <ele>1274.845</ele>
        <time>2010-12-29T09:44:18Z</time>
      </trkpt>
      <trkpt lat="33.06365598924458" lon="-2.50079101882875">
        <ele>1275.807</ele>
        <time>2010-12-29T09:44:27Z</time>
      </trkpt>
      <trkpt lat="33.062999015673995" lon="-2.50219096429646">
        <ele>1278.21</ele>
        <time>2010-12-29T09:44:38Z</time>
      </trkpt>
      <trkpt lat="33.062362996861339" lon="-2.503599040210247">
        <ele>1279.171</ele>
        <time>2010-12-29T09:44:49Z</time>
      </trkpt>
      <trkpt lat="33.061876008287072" lon="-2.504345029592514">
        <ele>1280.133</ele>
        <time>2010-12-29T09:44:56Z</time>
      </trkpt>
      <trkpt lat="33.061719015240669" lon="-2.504533035680652">
        <ele>1280.614</ele>
        <time>2010-12-29T09:44:58Z</time>
      </trkpt>
      <trkpt lat="33.061476023867726" lon="-2.504759011790156">
        <ele>1281.0940000000001</ele>
        <time>2010-12-29T09:45:01Z</time>
      </trkpt>
      <trkpt lat="33.061008984223008" lon="-2.505203001201153">
        <ele>1282.0550000000001</ele>
        <time>2010-12-29T09:45:07Z</time>
      </trkpt>
      <trkpt lat="33.060836987569928" lon="-2.505295034497976">
        <ele>1282.0550000000001</ele>
        <time>2010-12-29T09:45:09Z</time>
      </trkpt>
      <trkpt lat="33.060359973460436" lon="-2.505827033892274">
        <ele>1283.0170000000001</ele>
        <time>2010-12-29T09:45:15Z</time>
      </trkpt>
      <trkpt lat="33.059538966044784" lon="-2.506861025467515">
        <ele>1284.9390000000001</ele>
        <time>2010-12-29T09:45:25Z</time>
      </trkpt>
      <trkpt lat="33.058746960014105" lon="-2.5076699629426">
        <ele>1284.4590000000001</ele>
        <time>2010-12-29T09:45:33Z</time>
      </trkpt>
      <trkpt lat="33.057955037802458" lon="-2.508517038077116">
        <ele>1284.4590000000001</ele>
        <time>2010-12-29T09:45:41Z</time>
      </trkpt>
      <trkpt lat="33.057057000696659" lon="-2.509422032162547">
        <ele>1283.0170000000001</ele>
        <time>2010-12-29T09:45:50Z</time>
      </trkpt>
      <trkpt lat="33.056396003812551" lon="-2.509845988824964">
        <ele>1278.691</ele>
        <time>2010-12-29T09:45:57Z</time>
      </trkpt>
      <trkpt lat="33.055942039936781" lon="-2.510331971570849">
        <ele>1278.21</ele>
        <time>2010-12-29T09:46:03Z</time>
      </trkpt>
      <trkpt lat="33.055625036358833" lon="-2.510557025671005">
        <ele>1277.729</ele>
        <time>2010-12-29T09:46:07Z</time>
      </trkpt>
      <trkpt lat="33.055433006957173" lon="-2.51091199927032">
        <ele>1277.729</ele>
        <time>2010-12-29T09:46:12Z</time>
      </trkpt>
      <trkpt lat="33.055437030270696" lon="-2.511816993355751">
        <ele>1275.326</ele>
        <time>2010-12-29T09:46:20Z</time>
      </trkpt>
      <trkpt lat="33.055438036099076" lon="-2.512189988046885">
        <ele>1274.845</ele>
        <time>2010-12-29T09:46:26Z</time>
      </trkpt>
      <trkpt lat="33.055438958108425" lon="-2.51230800524354">
        <ele>1274.365</ele>
        <time>2010-12-29T09:46:34Z</time>
      </trkpt>
      <trkpt lat="33.055422026664019" lon="-2.512512020766735">
        <ele>1274.845</ele>
        <time>2010-12-29T09:46:41Z</time>
      </trkpt>
      <trkpt lat="33.055311972275376" lon="-2.512713018804789">
        <ele>1278.21</ele>
        <time>2010-12-29T09:46:51Z</time>
      </trkpt>
      <trkpt lat="33.055164031684399" lon="-2.512936983257532">
        <ele>1282.0550000000001</ele>
        <time>2010-12-29T09:47:03Z</time>
      </trkpt>
      <trkpt lat="33.054964039474726" lon="-2.513628993183374">
        <ele>1286.3810000000001</ele>
        <time>2010-12-29T09:47:13Z</time>
      </trkpt>
      <trkpt lat="33.054744014516473" lon="-2.514545973390341">
        <ele>1286.3810000000001</ele>
        <time>2010-12-29T09:47:23Z</time>
      </trkpt>
      <trkpt lat="33.054492976516485" lon="-2.515655988827348">
        <ele>1284.9390000000001</ele>
        <time>2010-12-29T09:47:32Z</time>
      </trkpt>
      <trkpt lat="33.05420296266675" lon="-2.51763797365129">
        <ele>1283.4970000000001</ele>
        <time>2010-12-29T09:47:46Z</time>
      </trkpt>
      <trkpt lat="33.054021997377276" lon="-2.519410997629166">
        <ele>1284.9390000000001</ele>
        <time>2010-12-29T09:47:59Z</time>
      </trkpt>
      <trkpt lat="33.054089974611998" lon="-2.520097978413105">
        <ele>1284.4590000000001</ele>
        <time>2010-12-29T09:48:04Z</time>
      </trkpt>
      <trkpt lat="33.05402803234756" lon="-2.520637018606067">
        <ele>1284.4590000000001</ele>
        <time>2010-12-29T09:48:08Z</time>
      </trkpt>
      <trkpt lat="33.053701976314187" lon="-2.522235028445721">
        <ele>1283.4970000000001</ele>
        <time>2010-12-29T09:48:20Z</time>
      </trkpt>
      <trkpt lat="33.053440963849425" lon="-2.523819962516427">
        <ele>1282.5360000000001</ele>
        <time>2010-12-29T09:48:31Z</time>
      </trkpt>
      <trkpt lat="33.052945006638765" lon="-2.525531966239214">
        <ele>1282.0550000000001</ele>
        <time>2010-12-29T09:48:43Z</time>
      </trkpt>
      <trkpt lat="33.052520966157317" lon="-2.526856977492571">
        <ele>1280.614</ele>
        <time>2010-12-29T09:48:52Z</time>
      </trkpt>
      <trkpt lat="33.052384005859494" lon="-2.527271965518594">
        <ele>1280.614</ele>
        <time>2010-12-29T09:48:55Z</time>
      </trkpt>
      <trkpt lat="33.05194596759975" lon="-2.528288019821048">
        <ele>1280.133</ele>
        <time>2010-12-29T09:49:03Z</time>
      </trkpt>
      <trkpt lat="33.051818981766701" lon="-2.528504021465778">
        <ele>1280.614</ele>
        <time>2010-12-29T09:49:05Z</time>
      </trkpt>
      <trkpt lat="33.051518993452191" lon="-2.528801998123527">
        <ele>1281.0940000000001</ele>
        <time>2010-12-29T09:49:09Z</time>
      </trkpt>
      <trkpt lat="33.050837041810155" lon="-2.529170969501138">
        <ele>1280.133</ele>
        <time>2010-12-29T09:49:17Z</time>
      </trkpt>
      <trkpt lat="33.050210997462273" lon="-2.529530972242355">
        <ele>1280.133</ele>
        <time>2010-12-29T09:49:24Z</time>
      </trkpt>
      <trkpt lat="33.049672041088343" lon="-2.530058026313782">
        <ele>1282.5360000000001</ele>
        <time>2010-12-29T09:49:32Z</time>
      </trkpt>
      <trkpt lat="33.04925998672843" lon="-2.530146958306432">
        <ele>1282.0550000000001</ele>
        <time>2010-12-29T09:49:39Z</time>
      </trkpt>
      <trkpt lat="33.048965027555823" lon="-2.530102031305432">
        <ele>1281.0940000000001</ele>
        <time>2010-12-29T09:49:48Z</time>
      </trkpt>
      <trkpt lat="33.048848016187549" lon="-2.530049979686737">
        <ele>1281.0940000000001</ele>
        <time>2010-12-29T09:49:51Z</time>
      </trkpt>
      <trkpt lat="33.048653975129128" lon="-2.529996000230312">
        <ele>1281.0940000000001</ele>
        <time>2010-12-29T09:49:55Z</time>
      </trkpt>
      <trkpt lat="33.04788501933217" lon="-2.530029024928808">
        <ele>1279.171</ele>
        <time>2010-12-29T09:50:06Z</time>
      </trkpt>
      <trkpt lat="33.046966027468443" lon="-2.530190041288734">
        <ele>1279.171</ele>
        <time>2010-12-29T09:50:17Z</time>
      </trkpt>
      <trkpt lat="33.046210985630751" lon="-2.530640987679362">
        <ele>1281.575</ele>
        <time>2010-12-29T09:50:28Z</time>
      </trkpt>
      <trkpt lat="33.045683009549975" lon="-2.530864030122757">
        <ele>1281.0940000000001</ele>
        <time>2010-12-29T09:50:37Z</time>
      </trkpt>
      <trkpt lat="33.045147992670536" lon="-2.531167035922408">
        <ele>1282.5360000000001</ele>
        <time>2010-12-29T09:50:48Z</time>
      </trkpt>
      <trkpt lat="33.0447250418365" lon="-2.531513962894678">
        <ele>1285.4200000000001</ele>
        <time>2010-12-29T09:51:00Z</time>
      </trkpt>
      <trkpt lat="33.044326985254884" lon="-2.531918976455927">
        <ele>1287.8230000000001</ele>
        <time>2010-12-29T09:51:08Z</time>
      </trkpt>
      <trkpt lat="33.04360999725759" lon="-2.532622972503305">
        <ele>1286.8620000000001</ele>
        <time>2010-12-29T09:51:18Z</time>
      </trkpt>
      <trkpt lat="33.043120997026563" lon="-2.533315988257527">
        <ele>1284.4590000000001</ele>
        <time>2010-12-29T09:51:26Z</time>
      </trkpt>
      <trkpt lat="33.04272604174912" lon="-2.534491969272494">
        <ele>1284.9390000000001</ele>
        <time>2010-12-29T09:51:37Z</time>
      </trkpt>
      <trkpt lat="33.042564019560814" lon="-2.534993039444089">
        <ele>1283.9780000000001</ele>
        <time>2010-12-29T09:51:42Z</time>
      </trkpt>
      <trkpt lat="33.042026991024613" lon="-2.535732993856072">
        <ele>1286.3810000000001</ele>
        <time>2010-12-29T09:51:51Z</time>
      </trkpt>
      <trkpt lat="33.041152004152536" lon="-2.536647962406278">
        <ele>1288.7850000000001</ele>
        <time>2010-12-29T09:52:02Z</time>
      </trkpt>
      <trkpt lat="33.040377013385296" lon="-2.537116007879376">
        <ele>1290.7070000000001</ele>
        <time>2010-12-29T09:52:10Z</time>
      </trkpt>
      <trkpt lat="33.039301028475165" lon="-2.537838025018573">
        <ele>1290.7070000000001</ele>
        <time>2010-12-29T09:52:21Z</time>
      </trkpt>
      <trkpt lat="33.038069978356361" lon="-2.538298023864627">
        <ele>1290.2270000000001</ele>
        <time>2010-12-29T09:52:32Z</time>
      </trkpt>
      <trkpt lat="33.037032969295979" lon="-2.538303975015879">
        <ele>1287.8230000000001</ele>
        <time>2010-12-29T09:52:41Z</time>
      </trkpt>
      <trkpt lat="33.035414004698396" lon="-2.538052015006542">
        <ele>1289.2650000000001</ele>
        <time>2010-12-29T09:52:54Z</time>
      </trkpt>
      <trkpt lat="33.033680040389299" lon="-2.537770969793201">
        <ele>1290.7070000000001</ele>
        <time>2010-12-29T09:53:07Z</time>
      </trkpt>
      <trkpt lat="33.032211028039455" lon="-2.537439968436956">
        <ele>1291.1880000000001</ele>
        <time>2010-12-29T09:53:18Z</time>
      </trkpt>
      <trkpt lat="33.031972981989384" lon="-2.537333015352488">
        <ele>1290.7070000000001</ele>
        <time>2010-12-29T09:53:20Z</time>
      </trkpt>
      <trkpt lat="33.030914012342691" lon="-2.536517037078738">
        <ele>1288.3040000000001</ele>
        <time>2010-12-29T09:53:30Z</time>
      </trkpt>
      <trkpt lat="33.029861999675632" lon="-2.535732993856072">
        <ele>1287.3430000000001</ele>
        <time>2010-12-29T09:53:40Z</time>
      </trkpt>
      <trkpt lat="33.02882800810039" lon="-2.534835962578654">
        <ele>1286.3810000000001</ele>
        <time>2010-12-29T09:53:50Z</time>
      </trkpt>
      <trkpt lat="33.027968024834991" lon="-2.534323995932937">
        <ele>1285.4200000000001</ele>
        <time>2010-12-29T09:53:58Z</time>
      </trkpt>
      <trkpt lat="33.027348015457392" lon="-2.534239003434777">
        <ele>1285.4200000000001</ele>
        <time>2010-12-29T09:54:03Z</time>
      </trkpt>
      <trkpt lat="33.026869995519519" lon="-2.534385016188026">
        <ele>1284.9390000000001</ele>
        <time>2010-12-29T09:54:07Z</time>
      </trkpt>
      <trkpt lat="33.025215994566679" lon="-2.535280035808682">
        <ele>1284.9390000000001</ele>
        <time>2010-12-29T09:54:21Z</time>
      </trkpt>
      <trkpt lat="33.023556964471936" lon="-2.536139013245702">
        <ele>1283.9780000000001</ele>
        <time>2010-12-29T09:54:35Z</time>
      </trkpt>
      <trkpt lat="33.022289033979177" lon="-2.536850972101092">
        <ele>1281.575</ele>
        <time>2010-12-29T09:54:45Z</time>
      </trkpt>
      <trkpt lat="33.021817971020937" lon="-2.537093963474035">
        <ele>1281.575</ele>
        <time>2010-12-29T09:54:49Z</time>
      </trkpt>
      <trkpt lat="33.021641029044986" lon="-2.537211980670691">
        <ele>1281.575</ele>
        <time>2010-12-29T09:54:51Z</time>
      </trkpt>
      <trkpt lat="33.020941978320479" lon="-2.537580030038953">
        <ele>1281.575</ele>
        <time>2010-12-29T09:55:01Z</time>
      </trkpt>
      <trkpt lat="33.020365973934531" lon="-2.537873983383179">
        <ele>1282.0550000000001</ele>
        <time>2010-12-29T09:55:12Z</time>
      </trkpt>
      <trkpt lat="33.019925002008677" lon="-2.538053020834923">
        <ele>1281.0940000000001</ele>
        <time>2010-12-29T09:55:23Z</time>
      </trkpt>
      <trkpt lat="33.019491992890835" lon="-2.538124015554786">
        <ele>1281.0940000000001</ele>
        <time>2010-12-29T09:55:34Z</time>
      </trkpt>
      <trkpt lat="33.018682971596718" lon="-2.538160979747772">
        <ele>1280.614</ele>
        <time>2010-12-29T09:55:49Z</time>
      </trkpt>
      <trkpt lat="33.017632970586419" lon="-2.538336999714375">
        <ele>1274.365</ele>
        <time>2010-12-29T09:56:02Z</time>
      </trkpt>
      <trkpt lat="33.016289016231894" lon="-2.538669006898999">
        <ele>1275.807</ele>
        <time>2010-12-29T09:56:18Z</time>
      </trkpt>
      <trkpt lat="33.015497010201216" lon="-2.538814013823867">
        <ele>1277.249</ele>
        <time>2010-12-29T09:56:29Z</time>
      </trkpt>
      <trkpt lat="33.014693018049002" lon="-2.538980981335044">
        <ele>1275.326</ele>
        <time>2010-12-29T09:56:41Z</time>
      </trkpt>
      <trkpt lat="33.013919033110142" lon="-2.539221039041877">
        <ele>1273.884</ele>
        <time>2010-12-29T09:56:51Z</time>
      </trkpt>
      <trkpt lat="33.012773981317878" lon="-2.539563020691276">
        <ele>1275.326</ele>
        <time>2010-12-29T09:57:06Z</time>
      </trkpt>
      <trkpt lat="33.011993039399385" lon="-2.539816992357373">
        <ele>1273.884</ele>
        <time>2010-12-29T09:57:15Z</time>
      </trkpt>
      <trkpt lat="33.010960975661874" lon="-2.540253018960357">
        <ele>1272.442</ele>
        <time>2010-12-29T09:57:26Z</time>
      </trkpt>
      <trkpt lat="33.010104009881616" lon="-2.540617967024446">
        <ele>1275.326</ele>
        <time>2010-12-29T09:57:36Z</time>
      </trkpt>
      <trkpt lat="33.009875016286969" lon="-2.540739001706243">
        <ele>1275.807</ele>
        <time>2010-12-29T09:57:39Z</time>
      </trkpt>
      <trkpt lat="33.00949296914041" lon="-2.540813013911247">
        <ele>1275.326</ele>
        <time>2010-12-29T09:57:44Z</time>
      </trkpt>
      <trkpt lat="33.00931803882122" lon="-2.54090303555131">
        <ele>1275.807</ele>
        <time>2010-12-29T09:57:48Z</time>
      </trkpt>
      <trkpt lat="33.008802970871329" lon="-2.541358005255461">
        <ele>1280.614</ele>
        <time>2010-12-29T09:57:55Z</time>
      </trkpt>
      <trkpt lat="33.007888002321124" lon="-2.542155962437391">
        <ele>1285.9010000000001</ele>
        <time>2010-12-29T09:58:05Z</time>
      </trkpt>
      <trkpt lat="33.00630901940167" lon="-2.543460018932819">
        <ele>1291.6679999999999</ele>
        <time>2010-12-29T09:58:21Z</time>
      </trkpt>
      <trkpt lat="33.005350967869163" lon="-2.544139036908746">
        <ele>1292.6300000000001</ele>
        <time>2010-12-29T09:58:31Z</time>
      </trkpt>
      <trkpt lat="33.004466006532311" lon="-2.544893994927406">
        <ele>1292.1489999999999</ele>
        <time>2010-12-29T09:58:41Z</time>
      </trkpt>
      <trkpt lat="33.003708031028509" lon="-2.545750960707665">
        <ele>1289.2650000000001</ele>
        <time>2010-12-29T09:58:51Z</time>
      </trkpt>
      <trkpt lat="33.003351967781782" lon="-2.546025970950723">
        <ele>1287.3430000000001</ele>
        <time>2010-12-29T09:58:55Z</time>
      </trkpt>
      <trkpt lat="33.002391988411546" lon="-2.546581020578742">
        <ele>1285.4200000000001</ele>
        <time>2010-12-29T09:59:05Z</time>
      </trkpt>
      <trkpt lat="33.001974988728762" lon="-2.546928031370044">
        <ele>1286.3810000000001</ele>
        <time>2010-12-29T09:59:13Z</time>
      </trkpt>
      <trkpt lat="33.001664020121098" lon="-2.547090975567699">
        <ele>1286.3810000000001</ele>
        <time>2010-12-29T09:59:20Z</time>
      </trkpt>
      <trkpt lat="33.001480037346482" lon="-2.547185020521283">
        <ele>1284.4590000000001</ele>
        <time>2010-12-29T09:59:28Z</time>
      </trkpt>
      <trkpt lat="33.001006040722132" lon="-2.547178985551">
        <ele>1281.0940000000001</ele>
        <time>2010-12-29T09:59:36Z</time>
      </trkpt>
      <trkpt lat="33.00044403411448" lon="-2.547174040228128">
        <ele>1279.652</ele>
        <time>2010-12-29T09:59:44Z</time>
      </trkpt>
      <trkpt lat="33.000071039423347" lon="-2.547274958342314">
        <ele>1279.171</ele>
        <time>2010-12-29T09:59:49Z</time>
      </trkpt>
      <trkpt lat="32.999429991468787" lon="-2.547795977443457">
        <ele>1282.0550000000001</ele>
        <time>2010-12-29T09:59:58Z</time>
      </trkpt>
      <trkpt lat="32.998935040086508" lon="-2.548194034025073">
        <ele>1283.9780000000001</ele>
        <time>2010-12-29T10:00:04Z</time>
      </trkpt>
      <trkpt lat="32.998417960479856" lon="-2.548390002921224">
        <ele>1282.5360000000001</ele>
        <time>2010-12-29T10:00:10Z</time>
      </trkpt>
      <trkpt lat="32.99823297187686" lon="-2.54848899319768">
        <ele>1282.5360000000001</ele>
        <time>2010-12-29T10:00:12Z</time>
      </trkpt>
      <trkpt lat="32.997918985784054" lon="-2.548774983733892">
        <ele>1282.0550000000001</ele>
        <time>2010-12-29T10:00:16Z</time>
      </trkpt>
      <trkpt lat="32.996961018070579" lon="-2.549918023869395">
        <ele>1281.0940000000001</ele>
        <time>2010-12-29T10:00:29Z</time>
      </trkpt>
      <trkpt lat="32.996011013165116" lon="-2.550964001566172">
        <ele>1280.614</ele>
        <time>2010-12-29T10:00:41Z</time>
      </trkpt>
      <trkpt lat="32.995835999026895" lon="-2.551105991005898">
        <ele>1280.614</ele>
        <time>2010-12-29T10:00:43Z</time>
      </trkpt>
      <trkpt lat="32.995442971587181" lon="-2.551267007365823">
        <ele>1281.0940000000001</ele>
        <time>2010-12-29T10:00:47Z</time>
      </trkpt>
      <trkpt lat="32.994690025225282" lon="-2.551343031227589">
        <ele>1279.652</ele>
        <time>2010-12-29T10:00:55Z</time>
      </trkpt>
      <trkpt lat="32.993740020319819" lon="-2.551322998479009">
        <ele>1278.691</ele>
        <time>2010-12-29T10:01:04Z</time>
      </trkpt>
      <trkpt lat="32.992545012384653" lon="-2.551500024273992">
        <ele>1280.133</ele>
        <time>2010-12-29T10:01:15Z</time>
      </trkpt>
      <trkpt lat="32.992201019078493" lon="-2.551544029265642">
        <ele>1281.0940000000001</ele>
        <time>2010-12-29T10:01:18Z</time>
      </trkpt>
      <trkpt lat="32.991244979202747" lon="-2.551991958171129">
        <ele>1282.0550000000001</ele>
        <time>2010-12-29T10:01:27Z</time>
      </trkpt>
      <trkpt lat="32.990365969017148" lon="-2.552450029179454">
        <ele>1283.0170000000001</ele>
        <time>2010-12-29T10:01:35Z</time>
      </trkpt>
      <trkpt lat="32.988834008574486" lon="-2.553284028545022">
        <ele>1285.4200000000001</ele>
        <time>2010-12-29T10:01:48Z</time>
      </trkpt>
      <trkpt lat="32.987325014546514" lon="-2.554065976291895">
        <ele>1284.9390000000001</ele>
        <time>2010-12-29T10:02:00Z</time>
      </trkpt>
      <trkpt lat="32.985603036358953" lon="-2.554826969280839">
        <ele>1286.8620000000001</ele>
        <time>2010-12-29T10:02:12Z</time>
      </trkpt>
      <trkpt lat="32.984471982344985" lon="-2.55551403388381">
        <ele>1287.8230000000001</ele>
        <time>2010-12-29T10:02:21Z</time>
      </trkpt>
      <trkpt lat="32.983397003263235" lon="-2.556308973580599">
        <ele>1288.3040000000001</ele>
        <time>2010-12-29T10:02:30Z</time>
      </trkpt>
      <trkpt lat="32.98269803635776" lon="-2.556738965213299">
        <ele>1287.8230000000001</ele>
        <time>2010-12-29T10:02:36Z</time>
      </trkpt>
      <trkpt lat="32.981866970658302" lon="-2.557673966512084">
        <ele>1287.8230000000001</ele>
        <time>2010-12-29T10:02:45Z</time>
      </trkpt>
      <trkpt lat="32.981054009869695" lon="-2.558777024969459">
        <ele>1289.2650000000001</ele>
        <time>2010-12-29T10:02:55Z</time>
      </trkpt>
      <trkpt lat="32.980978991836309" lon="-2.558885989710689">
        <ele>1289.2650000000001</ele>
        <time>2010-12-29T10:02:56Z</time>
      </trkpt>
      <trkpt lat="32.980609014630318" lon="-2.559182038530707">
        <ele>1289.2650000000001</ele>
        <time>2010-12-29T10:03:00Z</time>
      </trkpt>
      <trkpt lat="32.980403993278742" lon="-2.55929603241384">
        <ele>1289.2650000000001</ele>
        <time>2010-12-29T10:03:02Z</time>
      </trkpt>
      <trkpt lat="32.979885991662741" lon="-2.559531982988119">
        <ele>1287.8230000000001</ele>
        <time>2010-12-29T10:03:08Z</time>
      </trkpt>
      <trkpt lat="32.979651968926191" lon="-2.559422012418509">
        <ele>1287.3430000000001</ele>
        <time>2010-12-29T10:03:11Z</time>
      </trkpt>
      <trkpt lat="32.979155005887151" lon="-2.559454031288624">
        <ele>1286.8620000000001</ele>
        <time>2010-12-29T10:03:16Z</time>
      </trkpt>
      <trkpt lat="32.978217992931604" lon="-2.559956023469567">
        <ele>1287.3430000000001</ele>
        <time>2010-12-29T10:03:24Z</time>
      </trkpt>
      <trkpt lat="32.977981036528945" lon="-2.560090972110629">
        <ele>1287.3430000000001</ele>
        <time>2010-12-29T10:03:26Z</time>
      </trkpt>
      <trkpt lat="32.976980991661549" lon="-2.560965036973357">
        <ele>1287.8230000000001</ele>
        <time>2010-12-29T10:03:35Z</time>
      </trkpt>
      <trkpt lat="32.975676013156772" lon="-2.561943959444761">
        <ele>1289.7460000000001</ele>
        <time>2010-12-29T10:03:46Z</time>
      </trkpt>
      <trkpt lat="32.975376024842262" lon="-2.562223998829722">
        <ele>1291.6679999999999</ele>
        <time>2010-12-29T10:03:49Z</time>
      </trkpt>
      <trkpt lat="32.97474998049438" lon="-2.562491968274117">
        <ele>1292.1489999999999</ele>
        <time>2010-12-29T10:03:55Z</time>
      </trkpt>
      <trkpt lat="32.974545964971185" lon="-2.562467996031046">
        <ele>1291.1880000000001</ele>
        <time>2010-12-29T10:03:57Z</time>
      </trkpt>
      <trkpt lat="32.974182022735476" lon="-2.562422985211015">
        <ele>1290.2270000000001</ele>
        <time>2010-12-29T10:04:01Z</time>
      </trkpt>
      <trkpt lat="32.973495963960886" lon="-2.562206983566284">
        <ele>1289.2650000000001</ele>
        <time>2010-12-29T10:04:08Z</time>
      </trkpt>
      <trkpt lat="32.972309002652764" lon="-2.561963992193341">
        <ele>1289.2650000000001</ele>
        <time>2010-12-29T10:04:18Z</time>
      </trkpt>
      <trkpt lat="32.971846992149949" lon="-2.561891991645098">
        <ele>1289.2650000000001</ele>
        <time>2010-12-29T10:04:22Z</time>
      </trkpt>
      <trkpt lat="32.971572987735271" lon="-2.561756037175655">
        <ele>1288.7850000000001</ele>
        <time>2010-12-29T10:04:25Z</time>
      </trkpt>
      <trkpt lat="32.97109697945416" lon="-2.561635002493858">
        <ele>1288.3040000000001</ele>
        <time>2010-12-29T10:04:30Z</time>
      </trkpt>
      <trkpt lat="32.970693977549672" lon="-2.561638019979">
        <ele>1288.7850000000001</ele>
        <time>2010-12-29T10:04:35Z</time>
      </trkpt>
      <trkpt lat="32.970359958708286" lon="-2.561826026067138">
        <ele>1289.2650000000001</ele>
        <time>2010-12-29T10:04:39Z</time>
      </trkpt>
      <trkpt lat="32.969945976510644" lon="-2.562274038791657">
        <ele>1290.2270000000001</ele>
        <time>2010-12-29T10:04:46Z</time>
      </trkpt>
      <trkpt lat="32.969404002651572" lon="-2.562507977709174">
        <ele>1291.6679999999999</ele>
        <time>2010-12-29T10:04:54Z</time>
      </trkpt>
      <trkpt lat="32.968629011884332" lon="-2.56260403431952">
        <ele>1291.1880000000001</ele>
        <time>2010-12-29T10:05:02Z</time>
      </trkpt>
      <trkpt lat="32.968402029946446" lon="-2.562646027654409">
        <ele>1290.7070000000001</ele>
        <time>2010-12-29T10:05:05Z</time>
      </trkpt>
      <trkpt lat="32.968265991657972" lon="-2.562635969370604">
        <ele>1289.7460000000001</ele>
        <time>2010-12-29T10:05:09Z</time>
      </trkpt>
      <trkpt lat="32.968030041083694" lon="-2.56247797049582">
        <ele>1289.7460000000001</ele>
        <time>2010-12-29T10:05:17Z</time>
      </trkpt>
      <trkpt lat="32.967507010325789" lon="-2.56239197216928">
        <ele>1289.2650000000001</ele>
        <time>2010-12-29T10:05:25Z</time>
      </trkpt>
      <trkpt lat="32.966773007065058" lon="-2.562876027077436">
        <ele>1289.7460000000001</ele>
        <time>2010-12-29T10:05:34Z</time>
      </trkpt>
      <trkpt lat="32.965957028791308" lon="-2.563857967033982">
        <ele>1291.6679999999999</ele>
        <time>2010-12-29T10:05:44Z</time>
      </trkpt>
      <trkpt lat="32.965347999706864" lon="-2.564506977796555">
        <ele>1292.1489999999999</ele>
        <time>2010-12-29T10:05:51Z</time>
      </trkpt>
      <trkpt lat="32.964331023395061" lon="-2.565107038244605">
        <ele>1292.1489999999999</ele>
        <time>2010-12-29T10:06:01Z</time>
      </trkpt>
      <trkpt lat="32.963632978498936" lon="-2.565652029588819">
        <ele>1293.1110000000001</ele>
        <time>2010-12-29T10:06:09Z</time>
      </trkpt>
      <trkpt lat="32.963224025443196" lon="-2.566287964582443">
        <ele>1293.5909999999999</ele>
        <time>2010-12-29T10:06:16Z</time>
      </trkpt>
      <trkpt lat="32.963107014074922" lon="-2.566456021741033">
        <ele>1293.5909999999999</ele>
        <time>2010-12-29T10:06:18Z</time>
      </trkpt>
      <trkpt lat="32.962886989116669" lon="-2.566927000880241">
        <ele>1293.1110000000001</ele>
        <time>2010-12-29T10:06:24Z</time>
      </trkpt>
      <trkpt lat="32.96271700412035" lon="-2.567154988646507">
        <ele>1293.5909999999999</ele>
        <time>2010-12-29T10:06:28Z</time>
      </trkpt>
      <trkpt lat="32.96250301413238" lon="-2.567223971709609">
        <ele>1292.6300000000001</ele>
        <time>2010-12-29T10:06:32Z</time>
      </trkpt>
      <trkpt lat="32.962228003889322" lon="-2.567269988358021">
        <ele>1291.6679999999999</ele>
        <time>2010-12-29T10:06:37Z</time>
      </trkpt>
      <trkpt lat="32.961817039176822" lon="-2.567341988906264">
        <ele>1290.7070000000001</ele>
        <time>2010-12-29T10:06:44Z</time>
      </trkpt>
      <trkpt lat="32.961673038080335" lon="-2.567135039716959">
        <ele>1290.2270000000001</ele>
        <time>2010-12-29T10:06:47Z</time>
      </trkpt>
      <trkpt lat="32.961486959829926" lon="-2.56692498922348">
        <ele>1289.7460000000001</ele>
        <time>2010-12-29T10:06:50Z</time>
      </trkpt>
      <trkpt lat="32.961064008995891" lon="-2.566721979528666">
        <ele>1289.2650000000001</ele>
        <time>2010-12-29T10:06:55Z</time>
      </trkpt>
      <trkpt lat="32.959958016872406" lon="-2.566625000908971">
        <ele>1287.8230000000001</ele>
        <time>2010-12-29T10:07:07Z</time>
      </trkpt>
      <trkpt lat="32.959081018343568" lon="-2.56690101698041">
        <ele>1288.3040000000001</ele>
        <time>2010-12-29T10:07:16Z</time>
      </trkpt>
      <trkpt lat="32.957939989864826" lon="-2.567290021106601">
        <ele>1288.7850000000001</ele>
        <time>2010-12-29T10:07:27Z</time>
      </trkpt>
      <trkpt lat="32.956901974976063" lon="-2.567579029127955">
        <ele>1288.7850000000001</ele>
        <time>2010-12-29T10:07:37Z</time>
      </trkpt>
      <trkpt lat="32.955345036461949" lon="-2.568033998832107">
        <ele>1287.8230000000001</ele>
        <time>2010-12-29T10:07:50Z</time>
      </trkpt>
      <trkpt lat="32.954046009108424" lon="-2.568400958552957">
        <ele>1285.9010000000001</ele>
        <time>2010-12-29T10:08:01Z</time>
      </trkpt>
      <trkpt lat="32.952909003943205" lon="-2.568647973239422">
        <ele>1284.9390000000001</ele>
        <time>2010-12-29T10:08:11Z</time>
      </trkpt>
      <trkpt lat="32.951512997969985" lon="-2.568665994331241">
        <ele>1284.4590000000001</ele>
        <time>2010-12-29T10:08:22Z</time>
      </trkpt>
      <trkpt lat="32.950560981407762" lon="-2.568936981260777">
        <ele>1284.4590000000001</ele>
        <time>2010-12-29T10:08:30Z</time>
      </trkpt>
      <trkpt lat="32.949954969808459" lon="-2.569447020068765">
        <ele>1284.9390000000001</ele>
        <time>2010-12-29T10:08:36Z</time>
      </trkpt>
      <trkpt lat="32.949860002845526" lon="-2.569537041708827">
        <ele>1285.4200000000001</ele>
        <time>2010-12-29T10:08:37Z</time>
      </trkpt>
      <trkpt lat="32.949227001518011" lon="-2.569777015596628">
        <ele>1285.9010000000001</ele>
        <time>2010-12-29T10:08:43Z</time>
      </trkpt>
      <trkpt lat="32.948081027716398" lon="-2.569623962044716">
        <ele>1284.9390000000001</ele>
        <time>2010-12-29T10:08:52Z</time>
      </trkpt>
      <trkpt lat="32.947052987292409" lon="-2.569122975692153">
        <ele>1283.4970000000001</ele>
        <time>2010-12-29T10:09:00Z</time>
      </trkpt>
      <trkpt lat="32.945731999352574" lon="-2.568453010171652">
        <ele>1282.5360000000001</ele>
        <time>2010-12-29T10:09:10Z</time>
      </trkpt>
      <trkpt lat="32.944425009191036" lon="-2.568446975201368">
        <ele>1281.575</ele>
        <time>2010-12-29T10:09:19Z</time>
      </trkpt>
      <trkpt lat="32.942998996004462" lon="-2.568515036255121">
        <ele>1281.0940000000001</ele>
        <time>2010-12-29T10:09:29Z</time>
      </trkpt>
      <trkpt lat="32.941698040813208" lon="-2.568665994331241">
        <ele>1281.0940000000001</ele>
        <time>2010-12-29T10:09:39Z</time>
      </trkpt>
      <trkpt lat="32.940443018451333" lon="-2.569011999294162">
        <ele>1280.614</ele>
        <time>2010-12-29T10:09:49Z</time>
      </trkpt>
      <trkpt lat="32.939123958349228" lon="-2.569273011758924">
        <ele>1279.652</ele>
        <time>2010-12-29T10:09:59Z</time>
      </trkpt>
      <trkpt lat="32.937742033973336" lon="-2.569337971508503">
        <ele>1278.21</ele>
        <time>2010-12-29T10:10:09Z</time>
      </trkpt>
      <trkpt lat="32.93682899326086" lon="-2.569647012278438">
        <ele>1277.249</ele>
        <time>2010-12-29T10:10:16Z</time>
      </trkpt>
      <trkpt lat="32.93656999245286" lon="-2.569718006998301">
        <ele>1276.768</ele>
        <time>2010-12-29T10:10:18Z</time>
      </trkpt>
      <trkpt lat="32.935937996953726" lon="-2.569665033370256">
        <ele>1275.807</ele>
        <time>2010-12-29T10:10:23Z</time>
      </trkpt>
      <trkpt lat="32.935434998944402" lon="-2.569712977856398">
        <ele>1275.326</ele>
        <time>2010-12-29T10:10:27Z</time>
      </trkpt>
      <trkpt lat="32.935181027278304" lon="-2.569805011153221">
        <ele>1275.326</ele>
        <time>2010-12-29T10:10:29Z</time>
      </trkpt>
      <trkpt lat="32.934124991297722" lon="-2.569867959246039">
        <ele>1276.768</ele>
        <time>2010-12-29T10:10:37Z</time>
      </trkpt>
      <trkpt lat="32.932718005031347" lon="-2.569635026156902">
        <ele>1275.326</ele>
        <time>2010-12-29T10:10:47Z</time>
      </trkpt>
      <trkpt lat="32.931674038991332" lon="-2.569304024800658">
        <ele>1273.404</ele>
        <time>2010-12-29T10:10:55Z</time>
      </trkpt>
      <trkpt lat="32.930156998336315" lon="-2.56924401037395">
        <ele>1272.442</ele>
        <time>2010-12-29T10:11:06Z</time>
      </trkpt>
      <trkpt lat="32.928899964317679" lon="-2.569117024540901">
        <ele>1272.442</ele>
        <time>2010-12-29T10:11:15Z</time>
      </trkpt>
      <trkpt lat="32.927015963941813" lon="-2.568950979039073">
        <ele>1271.481</ele>
        <time>2010-12-29T10:11:28Z</time>
      </trkpt>
      <trkpt lat="32.925543012097478" lon="-2.568784011527896">
        <ele>1271</ele>
        <time>2010-12-29T10:11:38Z</time>
      </trkpt>
      <trkpt lat="32.923953970894217" lon="-2.568974029272795">
        <ele>1270.52</ele>
        <time>2010-12-29T10:11:49Z</time>
      </trkpt>
      <trkpt lat="32.921994030475616" lon="-2.569123981520534">
        <ele>1269.558</ele>
        <time>2010-12-29T10:12:03Z</time>
      </trkpt>
      <trkpt lat="32.921132035553455" lon="-2.569380970671773">
        <ele>1269.078</ele>
        <time>2010-12-29T10:12:10Z</time>
      </trkpt>
      <trkpt lat="32.921019969508052" lon="-2.569394968450069">
        <ele>1269.078</ele>
        <time>2010-12-29T10:12:11Z</time>
      </trkpt>
      <trkpt lat="32.920462992042303" lon="-2.569139990955591">
        <ele>1268.116</ele>
        <time>2010-12-29T10:12:17Z</time>
      </trkpt>
      <trkpt lat="32.920400965958834" lon="-2.569048041477799">
        <ele>1267.635</ele>
        <time>2010-12-29T10:12:18Z</time>
      </trkpt>
      <trkpt lat="32.920006010681391" lon="-2.56870798766613">
        <ele>1266.194</ele>
        <time>2010-12-29T10:12:24Z</time>
      </trkpt>
      <trkpt lat="32.919277958571911" lon="-2.568781999871135">
        <ele>1266.194</ele>
        <time>2010-12-29T10:12:32Z</time>
      </trkpt>
      <trkpt lat="32.918482013046741" lon="-2.568565998226404">
        <ele>1265.232</ele>
        <time>2010-12-29T10:12:41Z</time>
      </trkpt>
      <trkpt lat="32.918277997523546" lon="-2.568410011008382">
        <ele>1264.271</ele>
        <time>2010-12-29T10:12:47Z</time>
      </trkpt>
      <trkpt lat="32.918289983645082" lon="-2.56829802878201">
        <ele>1259.4639999999999</ele>
        <time>2010-12-29T10:12:50Z</time>
      </trkpt>
      <trkpt lat="32.918225023895502" lon="-2.568185040727258">
        <ele>1257.5419999999999</ele>
        <time>2010-12-29T10:12:53Z</time>
      </trkpt>
      <trkpt lat="32.918130978941917" lon="-2.568008014932275">
        <ele>1255.6189999999999</ele>
        <time>2010-12-29T10:12:57Z</time>
      </trkpt>
      <trkpt lat="32.917966023087502" lon="-2.568067023530603">
        <ele>1258.9839999999999</ele>
        <time>2010-12-29T10:13:02Z</time>
      </trkpt>
      <trkpt lat="32.917777011170983" lon="-2.568193003535271">
        <ele>1263.3099999999999</ele>
        <time>2010-12-29T10:13:07Z</time>
      </trkpt>
      <trkpt lat="32.917594034224749" lon="-2.568127037957311">
        <ele>1264.752</ele>
        <time>2010-12-29T10:13:10Z</time>
      </trkpt>
      <trkpt lat="32.917351964861155" lon="-2.567918999120593">
        <ele>1267.155</ele>
        <time>2010-12-29T10:13:14Z</time>
      </trkpt>
      <trkpt lat="32.917143004015088" lon="-2.567642983049154">
        <ele>1268.597</ele>
        <time>2010-12-29T10:13:18Z</time>
      </trkpt>
      <trkpt lat="32.916959021240473" lon="-2.567518008872867">
        <ele>1270.52</ele>
        <time>2010-12-29T10:13:21Z</time>
      </trkpt>
      <trkpt lat="32.916873022913933" lon="-2.567192958667874">
        <ele>1272.442</ele>
        <time>2010-12-29T10:13:26Z</time>
      </trkpt>
      <trkpt lat="32.916866987943649" lon="-2.566861035302281">
        <ele>1276.768</ele>
        <time>2010-12-29T10:13:33Z</time>
      </trkpt>
      <trkpt lat="32.916564987972379" lon="-2.566645033657551">
        <ele>1288.7850000000001</ele>
        <time>2010-12-29T10:13:45Z</time>
      </trkpt>
      <trkpt lat="32.916389973834157" lon="-2.566657019779086">
        <ele>1290.7070000000001</ele>
        <time>2010-12-29T10:13:49Z</time>
      </trkpt>
      <trkpt lat="32.915758984163404" lon="-2.566809989511967">
        <ele>1293.1110000000001</ele>
        <time>2010-12-29T10:13:58Z</time>
      </trkpt>
      <trkpt lat="32.914549978449941" lon="-2.566920965909958">
        <ele>1294.0719999999999</ele>
        <time>2010-12-29T10:14:10Z</time>
      </trkpt>
      <trkpt lat="32.913603996858001" lon="-2.567005958408117">
        <ele>1295.0329999999999</ele>
        <time>2010-12-29T10:14:19Z</time>
      </trkpt>
      <trkpt lat="32.912740996107459" lon="-2.567393034696579">
        <ele>1295.9949999999999</ele>
        <time>2010-12-29T10:14:28Z</time>
      </trkpt>
      <trkpt lat="32.911760983988643" lon="-2.568033998832107">
        <ele>1297.4369999999999</ele>
        <time>2010-12-29T10:14:38Z</time>
      </trkpt>
      <trkpt lat="32.911365022882819" lon="-2.568295011296868">
        <ele>1297.4369999999999</ele>
        <time>2010-12-29T10:14:42Z</time>
      </trkpt>
      <trkpt lat="32.910720035433769" lon="-2.568387966603041">
        <ele>1297.9169999999999</ele>
        <time>2010-12-29T10:14:48Z</time>
      </trkpt>
      <trkpt lat="32.910168003290892" lon="-2.568619977682829">
        <ele>1297.9169999999999</ele>
        <time>2010-12-29T10:14:53Z</time>
      </trkpt>
      <trkpt lat="32.909104004502296" lon="-2.569409972056747">
        <ele>1297.9169999999999</ele>
        <time>2010-12-29T10:15:03Z</time>
      </trkpt>
      <trkpt lat="32.908160034567118" lon="-2.570006009191275">
        <ele>1299.3589999999999</ele>
        <time>2010-12-29T10:15:11Z</time>
      </trkpt>
      <trkpt lat="32.90713501162827" lon="-2.570459973067045">
        <ele>1299.3589999999999</ele>
        <time>2010-12-29T10:15:19Z</time>
      </trkpt>
      <trkpt lat="32.906483989208937" lon="-2.570606991648674">
        <ele>1299.8399999999999</ele>
        <time>2010-12-29T10:15:24Z</time>
      </trkpt>
      <trkpt lat="32.905440023168921" lon="-2.571131028234959">
        <ele>1303.6849999999999</ele>
        <time>2010-12-29T10:15:32Z</time>
      </trkpt>
      <trkpt lat="32.904666038230062" lon="-2.571469992399216">
        <ele>1303.204</ele>
        <time>2010-12-29T10:15:39Z</time>
      </trkpt>
      <trkpt lat="32.904377030208707" lon="-2.571506034582853">
        <ele>1293.5909999999999</ele>
        <time>2010-12-29T10:15:45Z</time>
      </trkpt>
      <trkpt lat="32.904108976945281" lon="-2.571425987407565">
        <ele>1283.4970000000001</ele>
        <time>2010-12-29T10:15:53Z</time>
      </trkpt>
      <trkpt lat="32.903907978907228" lon="-2.571380976587534">
        <ele>1290.7070000000001</ele>
        <time>2010-12-29T10:16:00Z</time>
      </trkpt>
      <trkpt lat="32.903679991140962" lon="-2.571490025147796">
        <ele>1289.2650000000001</ele>
        <time>2010-12-29T10:16:09Z</time>
      </trkpt>
      <trkpt lat="32.90352500975132" lon="-2.571664033457637">
        <ele>1292.1489999999999</ele>
        <time>2010-12-29T10:16:18Z</time>
      </trkpt>
      <trkpt lat="32.903358964249492" lon="-2.571708960458636">
        <ele>1294.5519999999999</ele>
        <time>2010-12-29T10:16:26Z</time>
      </trkpt>
      <trkpt lat="32.903038021177053" lon="-2.571648024022579">
        <ele>1301.2819999999999</ele>
        <time>2010-12-29T10:16:35Z</time>
      </trkpt>
      <trkpt lat="32.902743984013796" lon="-2.57143503986299">
        <ele>1308.972</ele>
        <time>2010-12-29T10:16:40Z</time>
      </trkpt>
      <trkpt lat="32.902388004586101" lon="-2.570764990523458">
        <ele>1314.74</ele>
        <time>2010-12-29T10:16:49Z</time>
      </trkpt>
      <trkpt lat="32.902266969904304" lon="-2.570449998602271">
        <ele>1317.144</ele>
        <time>2010-12-29T10:16:53Z</time>
      </trkpt>
      <trkpt lat="32.902100002393126" lon="-2.570240031927824">
        <ele>1317.624</ele>
        <time>2010-12-29T10:16:57Z</time>
      </trkpt>
      <trkpt lat="32.901866985484958" lon="-2.570097036659718">
        <ele>1317.624</ele>
        <time>2010-12-29T10:17:02Z</time>
      </trkpt>
      <trkpt lat="32.901505976915359" lon="-2.569957980886102">
        <ele>1316.663</ele>
        <time>2010-12-29T10:17:09Z</time>
      </trkpt>
      <trkpt lat="32.900980012491345" lon="-2.570254029706121">
        <ele>1316.663</ele>
        <time>2010-12-29T10:17:20Z</time>
      </trkpt>
      <trkpt lat="32.900459999218583" lon="-2.570682009682059">
        <ele>1314.74</ele>
        <time>2010-12-29T10:17:31Z</time>
      </trkpt>
      <trkpt lat="32.90006697177887" lon="-2.570922989398241">
        <ele>1313.779</ele>
        <time>2010-12-29T10:17:38Z</time>
      </trkpt>
      <trkpt lat="32.899876032024622" lon="-2.571192970499396">
        <ele>1311.856</ele>
        <time>2010-12-29T10:17:44Z</time>
      </trkpt>
      <trkpt lat="32.899714009836316" lon="-2.571515003219247">
        <ele>1309.934</ele>
        <time>2010-12-29T10:17:51Z</time>
      </trkpt>
      <trkpt lat="32.899199025705457" lon="-2.57195002399385">
        <ele>1308.972</ele>
        <time>2010-12-29T10:18:01Z</time>
      </trkpt>
      <trkpt lat="32.898882022127509" lon="-2.572396025061607">
        <ele>1307.53</ele>
        <time>2010-12-29T10:18:08Z</time>
      </trkpt>
      <trkpt lat="32.898503998294473" lon="-2.572561986744404">
        <ele>1299.3589999999999</ele>
        <time>2010-12-29T10:18:14Z</time>
      </trkpt>
      <trkpt lat="32.897594980895519" lon="-2.572582019492984">
        <ele>1294.5519999999999</ele>
        <time>2010-12-29T10:18:24Z</time>
      </trkpt>
      <trkpt lat="32.896962985396385" lon="-2.572453022003174">
        <ele>1286.3810000000001</ele>
        <time>2010-12-29T10:18:32Z</time>
      </trkpt>
      <trkpt lat="32.896561995148659" lon="-2.572311032563448">
        <ele>1283.9780000000001</ele>
        <time>2010-12-29T10:18:37Z</time>
      </trkpt>
      <trkpt lat="32.895559016615152" lon="-2.572176000103355">
        <ele>1296.4749999999999</ele>
        <time>2010-12-29T10:18:47Z</time>
      </trkpt>
      <trkpt lat="32.894499041140079" lon="-2.572370963171125">
        <ele>1296.4749999999999</ele>
        <time>2010-12-29T10:18:57Z</time>
      </trkpt>
      <trkpt lat="32.893129019066691" lon="-2.5727469753474">
        <ele>1302.2429999999999</ele>
        <time>2010-12-29T10:19:09Z</time>
      </trkpt>
      <trkpt lat="32.891638968139887" lon="-2.573152994737029">
        <ele>1307.05</ele>
        <time>2010-12-29T10:19:22Z</time>
      </trkpt>
      <trkpt lat="32.89063598960638" lon="-2.573557002469897">
        <ele>1309.934</ele>
        <time>2010-12-29T10:19:32Z</time>
      </trkpt>
      <trkpt lat="32.889920007437468" lon="-2.573827989399433">
        <ele>1311.376</ele>
        <time>2010-12-29T10:19:39Z</time>
      </trkpt>
      <trkpt lat="32.888805968686938" lon="-2.573909964412451">
        <ele>1311.856</ele>
        <time>2010-12-29T10:19:49Z</time>
      </trkpt>
      <trkpt lat="32.887530997395515" lon="-2.573986994102597">
        <ele>1300.8009999999999</ele>
        <time>2010-12-29T10:20:01Z</time>
      </trkpt>
      <trkpt lat="32.886328026652336" lon="-2.573972996324301">
        <ele>1295.5139999999999</ele>
        <time>2010-12-29T10:20:12Z</time>
      </trkpt>
      <trkpt lat="32.885173000395298" lon="-2.573990011587739">
        <ele>1290.7070000000001</ele>
        <time>2010-12-29T10:20:22Z</time>
      </trkpt>
      <trkpt lat="32.884207991883159" lon="-2.574351020157337">
        <ele>1291.1880000000001</ele>
        <time>2010-12-29T10:20:30Z</time>
      </trkpt>
      <trkpt lat="32.882973002269864" lon="-2.574987038969994">
        <ele>1292.1489999999999</ele>
        <time>2010-12-29T10:20:40Z</time>
      </trkpt>
      <trkpt lat="32.88193398155272" lon="-2.575500011444092">
        <ele>1293.1110000000001</ele>
        <time>2010-12-29T10:20:49Z</time>
      </trkpt>
      <trkpt lat="32.88100702688098" lon="-2.575994962826371">
        <ele>1294.0719999999999</ele>
        <time>2010-12-29T10:20:57Z</time>
      </trkpt>
      <trkpt lat="32.880184007808566" lon="-2.576441969722509">
        <ele>1294.0719999999999</ele>
        <time>2010-12-29T10:21:04Z</time>
      </trkpt>
      <trkpt lat="32.879471965134144" lon="-2.576628969982266">
        <ele>1295.0329999999999</ele>
        <time>2010-12-29T10:21:10Z</time>
      </trkpt>
      <trkpt lat="32.87888003513217" lon="-2.5770019646734">
        <ele>1295.5139999999999</ele>
        <time>2010-12-29T10:21:16Z</time>
      </trkpt>
      <trkpt lat="32.877944028005004" lon="-2.577998992055655">
        <ele>1295.5139999999999</ele>
        <time>2010-12-29T10:21:25Z</time>
      </trkpt>
      <trkpt lat="32.877836991101503" lon="-2.578104017302394">
        <ele>1295.9949999999999</ele>
        <time>2010-12-29T10:21:26Z</time>
      </trkpt>
      <trkpt lat="32.87724900059402" lon="-2.578497966751456">
        <ele>1295.9949999999999</ele>
        <time>2010-12-29T10:21:31Z</time>
      </trkpt>
      <trkpt lat="32.876799982041121" lon="-2.57863299921155">
        <ele>1295.5139999999999</ele>
        <time>2010-12-29T10:21:36Z</time>
      </trkpt>
      <trkpt lat="32.876609964296222" lon="-2.578688990324736">
        <ele>1295.0329999999999</ele>
        <time>2010-12-29T10:21:42Z</time>
      </trkpt>
      <trkpt lat="32.876062961295247" lon="-2.578857969492674">
        <ele>1295.5139999999999</ele>
        <time>2010-12-29T10:21:51Z</time>
      </trkpt>
      <trkpt lat="32.875313032418489" lon="-2.579042036086321">
        <ele>1294.5519999999999</ele>
        <time>2010-12-29T10:22:00Z</time>
      </trkpt>
      <trkpt lat="32.874281974509358" lon="-2.579218978062272">
        <ele>1294.5519999999999</ele>
        <time>2010-12-29T10:22:09Z</time>
      </trkpt>
      <trkpt lat="32.873257035389543" lon="-2.57957898080349">
        <ele>1295.0329999999999</ele>
        <time>2010-12-29T10:22:18Z</time>
      </trkpt>
      <trkpt lat="32.872417001053691" lon="-2.579781990498304">
        <ele>1294.5519999999999</ele>
        <time>2010-12-29T10:22:26Z</time>
      </trkpt>
      <trkpt lat="32.871503038331866" lon="-2.579634971916676">
        <ele>1293.5909999999999</ele>
        <time>2010-12-29T10:22:34Z</time>
      </trkpt>
      <trkpt lat="32.870586980134249" lon="-2.579408995807171">
        <ele>1292.6300000000001</ele>
        <time>2010-12-29T10:22:42Z</time>
      </trkpt>
      <trkpt lat="32.86968600936234" lon="-2.578994007781148">
        <ele>1292.6300000000001</ele>
        <time>2010-12-29T10:22:51Z</time>
      </trkpt>
      <trkpt lat="32.869130037724972" lon="-2.578667029738426">
        <ele>1292.1489999999999</ele>
        <time>2010-12-29T10:22:57Z</time>
      </trkpt>
      <trkpt lat="32.868860978633165" lon="-2.57865596562624">
        <ele>1292.1489999999999</ele>
        <time>2010-12-29T10:23:01Z</time>
      </trkpt>
      <trkpt lat="32.868584040552378" lon="-2.578798960894346">
        <ele>1292.6300000000001</ele>
        <time>2010-12-29T10:23:10Z</time>
      </trkpt>
      <trkpt lat="32.868210040032864" lon="-2.578846989199519">
        <ele>1293.1110000000001</ele>
        <time>2010-12-29T10:23:17Z</time>
      </trkpt>
      <trkpt lat="32.867454998195171" lon="-2.578870039433241">
        <ele>1293.1110000000001</ele>
        <time>2010-12-29T10:23:26Z</time>
      </trkpt>
      <trkpt lat="32.867360031232238" lon="-2.578866016119719">
        <ele>1293.1110000000001</ele>
        <time>2010-12-29T10:23:27Z</time>
      </trkpt>
      <trkpt lat="32.866971027106047" lon="-2.578943967819214">
        <ele>1293.1110000000001</ele>
        <time>2010-12-29T10:23:31Z</time>
      </trkpt>
      <trkpt lat="32.866038037464023" lon="-2.579140020534396">
        <ele>1293.1110000000001</ele>
        <time>2010-12-29T10:23:40Z</time>
      </trkpt>
      <trkpt lat="32.865356002002954" lon="-2.579258037731051">
        <ele>1293.1110000000001</ele>
        <time>2010-12-29T10:23:48Z</time>
      </trkpt>
      <trkpt lat="32.864370960742235" lon="-2.579390974715352">
        <ele>1293.1110000000001</ele>
        <time>2010-12-29T10:24:00Z</time>
      </trkpt>
      <trkpt lat="32.863593958318233" lon="-2.579379994422197">
        <ele>1291.1880000000001</ele>
        <time>2010-12-29T10:24:10Z</time>
      </trkpt>
      <trkpt lat="32.863072017207742" lon="-2.579389968886972">
        <ele>1290.7070000000001</ele>
        <time>2010-12-29T10:24:17Z</time>
      </trkpt>
      <trkpt lat="32.86285400390625" lon="-2.579346969723702">
        <ele>1290.2270000000001</ele>
        <time>2010-12-29T10:24:20Z</time>
      </trkpt>
      <trkpt lat="32.862629033625126" lon="-2.579328026622534">
        <ele>1290.2270000000001</ele>
        <time>2010-12-29T10:24:23Z</time>
      </trkpt>
      <trkpt lat="32.862392999231815" lon="-2.579281004145742">
        <ele>1289.7460000000001</ele>
        <time>2010-12-29T10:24:26Z</time>
      </trkpt>
      <trkpt lat="32.861374011263251" lon="-2.579129040241242">
        <ele>1287.8230000000001</ele>
        <time>2010-12-29T10:24:37Z</time>
      </trkpt>
      <trkpt lat="32.860196018591523" lon="-2.578807007521391">
        <ele>1287.3430000000001</ele>
        <time>2010-12-29T10:24:48Z</time>
      </trkpt>
      <trkpt lat="32.85941700451076" lon="-2.578447004780173">
        <ele>1286.8620000000001</ele>
        <time>2010-12-29T10:24:56Z</time>
      </trkpt>
      <trkpt lat="32.858646037057042" lon="-2.578050037845969">
        <ele>1284.9390000000001</ele>
        <time>2010-12-29T10:25:05Z</time>
      </trkpt>
      <trkpt lat="32.857918990775943" lon="-2.577808974310756">
        <ele>1284.9390000000001</ele>
        <time>2010-12-29T10:25:13Z</time>
      </trkpt>
      <trkpt lat="32.857079040259123" lon="-2.577495994046331">
        <ele>1284.4590000000001</ele>
        <time>2010-12-29T10:25:23Z</time>
      </trkpt>
      <trkpt lat="32.856849040836096" lon="-2.577448971569538">
        <ele>1284.4590000000001</ele>
        <time>2010-12-29T10:25:26Z</time>
      </trkpt>
      <trkpt lat="32.855871040374041" lon="-2.577007999643683">
        <ele>1285.4200000000001</ele>
        <time>2010-12-29T10:25:38Z</time>
      </trkpt>
      <trkpt lat="32.854758007451892" lon="-2.576459990814328">
        <ele>1285.4200000000001</ele>
        <time>2010-12-29T10:25:50Z</time>
      </trkpt>
      <trkpt lat="32.854660023003817" lon="-2.576426966115832">
        <ele>1284.9390000000001</ele>
        <time>2010-12-29T10:25:54Z</time>
      </trkpt>
      <trkpt lat="32.854395993053913" lon="-2.576339961960912">
        <ele>1284.4590000000001</ele>
        <time>2010-12-29T10:26:00Z</time>
      </trkpt>
      <trkpt lat="32.854100028052926" lon="-2.576279025524855">
        <ele>1283.9780000000001</ele>
        <time>2010-12-29T10:26:04Z</time>
      </trkpt>
      <trkpt lat="32.853618990629911" lon="-2.576306015253067">
        <ele>1284.4590000000001</ele>
        <time>2010-12-29T10:26:09Z</time>
      </trkpt>
      <trkpt lat="32.852836959064007" lon="-2.576642967760563">
        <ele>1285.4200000000001</ele>
        <time>2010-12-29T10:26:17Z</time>
      </trkpt>
      <trkpt lat="32.851739013567567" lon="-2.577033983543515">
        <ele>1286.8620000000001</ele>
        <time>2010-12-29T10:26:27Z</time>
      </trkpt>
      <trkpt lat="32.851629965007305" lon="-2.577031971886754">
        <ele>1286.8620000000001</ele>
        <time>2010-12-29T10:26:28Z</time>
      </trkpt>
      <trkpt lat="32.850978020578623" lon="-2.576943961903453">
        <ele>1286.8620000000001</ele>
        <time>2010-12-29T10:26:34Z</time>
      </trkpt>
      <trkpt lat="32.850540988147259" lon="-2.57708502933383">
        <ele>1286.3810000000001</ele>
        <time>2010-12-29T10:26:38Z</time>
      </trkpt>
      <trkpt lat="32.849227041006088" lon="-2.577857002615929">
        <ele>1287.3430000000001</ele>
        <time>2010-12-29T10:26:49Z</time>
      </trkpt>
      <trkpt lat="32.84845900721848" lon="-2.578360000625253">
        <ele>1287.8230000000001</ele>
        <time>2010-12-29T10:26:56Z</time>
      </trkpt>
      <trkpt lat="32.848192965611815" lon="-2.578770965337753">
        <ele>1287.8230000000001</ele>
        <time>2010-12-29T10:27:00Z</time>
      </trkpt>
      <trkpt lat="32.847585026174784" lon="-2.579753994941711">
        <ele>1287.8230000000001</ele>
        <time>2010-12-29T10:27:08Z</time>
      </trkpt>
      <trkpt lat="32.84727799706161" lon="-2.580319019034505">
        <ele>1288.7850000000001</ele>
        <time>2010-12-29T10:27:14Z</time>
      </trkpt>
      <trkpt lat="32.847150005400181" lon="-2.580602997913957">
        <ele>1288.7850000000001</ele>
        <time>2010-12-29T10:27:18Z</time>
      </trkpt>
      <trkpt lat="32.846787991002202" lon="-2.580981021746993">
        <ele>1288.7850000000001</ele>
        <time>2010-12-29T10:27:23Z</time>
      </trkpt>
      <trkpt lat="32.84609698690474" lon="-2.581729022786021">
        <ele>1288.7850000000001</ele>
        <time>2010-12-29T10:27:31Z</time>
      </trkpt>
      <trkpt lat="32.845324007794261" lon="-2.582662012428045">
        <ele>1288.3040000000001</ele>
        <time>2010-12-29T10:27:40Z</time>
      </trkpt>
      <trkpt lat="32.844124976545572" lon="-2.583628026768565">
        <ele>1287.3430000000001</ele>
        <time>2010-12-29T10:27:51Z</time>
      </trkpt>
      <trkpt lat="32.842950001358986" lon="-2.584403017535806">
        <ele>1287.8230000000001</ele>
        <time>2010-12-29T10:28:01Z</time>
      </trkpt>
      <trkpt lat="32.841781983152032" lon="-2.585214972496033">
        <ele>1288.3040000000001</ele>
        <time>2010-12-29T10:28:11Z</time>
      </trkpt>
      <trkpt lat="32.840215992182493" lon="-2.586081996560097">
        <ele>1288.7850000000001</ele>
        <time>2010-12-29T10:28:23Z</time>
      </trkpt>
      <trkpt lat="32.838602978736162" lon="-2.586760008707643">
        <ele>1289.2650000000001</ele>
        <time>2010-12-29T10:28:35Z</time>
      </trkpt>
      <trkpt lat="32.837303029373288" lon="-2.587318997830153">
        <ele>1289.2650000000001</ele>
        <time>2010-12-29T10:28:45Z</time>
      </trkpt>
      <trkpt lat="32.835682975128293" lon="-2.587997009977698">
        <ele>1288.3040000000001</ele>
        <time>2010-12-29T10:28:57Z</time>
      </trkpt>
      <trkpt lat="32.834466006606817" lon="-2.588612996041775">
        <ele>1287.8230000000001</ele>
        <time>2010-12-29T10:29:06Z</time>
      </trkpt>
      <trkpt lat="32.833643993362784" lon="-2.589359991252422">
        <ele>1286.8620000000001</ele>
        <time>2010-12-29T10:29:13Z</time>
      </trkpt>
      <trkpt lat="32.832702035084367" lon="-2.589990980923176">
        <ele>1286.3810000000001</ele>
        <time>2010-12-29T10:29:20Z</time>
      </trkpt>
      <trkpt lat="32.832047995179892" lon="-2.590240007266402">
        <ele>1287.3430000000001</ele>
        <time>2010-12-29T10:29:25Z</time>
      </trkpt>
      <trkpt lat="32.831605011597276" lon="-2.590184016153216">
        <ele>1282.0550000000001</ele>
        <time>2010-12-29T10:29:29Z</time>
      </trkpt>
      <trkpt lat="32.830770006403327" lon="-2.589761987328529">
        <ele>1281.0940000000001</ele>
        <time>2010-12-29T10:29:37Z</time>
      </trkpt>
      <trkpt lat="32.830333979800344" lon="-2.589403996244073">
        <ele>1280.133</ele>
        <time>2010-12-29T10:29:43Z</time>
      </trkpt>
      <trkpt lat="32.830176986753941" lon="-2.589273992925882">
        <ele>1280.133</ele>
        <time>2010-12-29T10:29:46Z</time>
      </trkpt>
      <trkpt lat="32.829625038430095" lon="-2.589023960754275">
        <ele>1277.729</ele>
        <time>2010-12-29T10:29:53Z</time>
      </trkpt>
      <trkpt lat="32.829303005710244" lon="-2.589025972411037">
        <ele>1279.171</ele>
        <time>2010-12-29T10:29:57Z</time>
      </trkpt>
      <trkpt lat="32.829136038199067" lon="-2.589090010151267">
        <ele>1280.133</ele>
        <time>2010-12-29T10:29:59Z</time>
      </trkpt>
      <trkpt lat="32.828835966065526" lon="-2.589320009574294">
        <ele>1281.0940000000001</ele>
        <time>2010-12-29T10:30:03Z</time>
      </trkpt>
      <trkpt lat="32.828457020223141" lon="-2.589533999562264">
        <ele>1282.0550000000001</ele>
        <time>2010-12-29T10:30:07Z</time>
      </trkpt>
      <trkpt lat="32.827321020886302" lon="-2.589931972324848">
        <ele>1288.3040000000001</ele>
        <time>2010-12-29T10:30:17Z</time>
      </trkpt>
      <trkpt lat="32.826438993215561" lon="-2.590501019731164">
        <ele>1289.7460000000001</ele>
        <time>2010-12-29T10:30:25Z</time>
      </trkpt>
      <trkpt lat="32.825439032167196" lon="-2.590903015807271">
        <ele>1290.7070000000001</ele>
        <time>2010-12-29T10:30:33Z</time>
      </trkpt>
      <trkpt lat="32.823807997629046" lon="-2.591627966612577">
        <ele>1293.5909999999999</ele>
        <time>2010-12-29T10:30:45Z</time>
      </trkpt>
      <trkpt lat="32.82226799055934" lon="-2.592292986810207">
        <ele>1294.5519999999999</ele>
        <time>2010-12-29T10:30:56Z</time>
      </trkpt>
      <trkpt lat="32.821026965975761" lon="-2.592544024810195">
        <ele>1295.5139999999999</ele>
        <time>2010-12-29T10:31:04Z</time>
      </trkpt>
      <trkpt lat="32.819457035511732" lon="-2.592953983694315">
        <ele>1296.4749999999999</ele>
        <time>2010-12-29T10:31:14Z</time>
      </trkpt>
      <trkpt lat="32.817371031269431" lon="-2.593318009749055">
        <ele>1296.4749999999999</ele>
        <time>2010-12-29T10:31:27Z</time>
      </trkpt>
      <trkpt lat="32.815589960664511" lon="-2.593107037246227">
        <ele>1295.5139999999999</ele>
        <time>2010-12-29T10:31:37Z</time>
      </trkpt>
      <trkpt lat="32.814399981871247" lon="-2.593124974519014">
        <ele>1294.5519999999999</ele>
        <time>2010-12-29T10:31:46Z</time>
      </trkpt>
      <trkpt lat="32.813561959192157" lon="-2.592978039756417">
        <ele>1292.6300000000001</ele>
        <time>2010-12-29T10:31:53Z</time>
      </trkpt>
      <trkpt lat="32.812961982563138" lon="-2.592931017279625">
        <ele>1291.6679999999999</ele>
        <time>2010-12-29T10:31:58Z</time>
      </trkpt>
      <trkpt lat="32.812550012022257" lon="-2.592756003141403">
        <ele>1290.7070000000001</ele>
        <time>2010-12-29T10:32:02Z</time>
      </trkpt>
      <trkpt lat="32.812316995114088" lon="-2.5926180370152">
        <ele>1287.3430000000001</ele>
        <time>2010-12-29T10:32:05Z</time>
      </trkpt>
      <trkpt lat="32.812147010117769" lon="-2.59246900677681">
        <ele>1286.8620000000001</ele>
        <time>2010-12-29T10:32:08Z</time>
      </trkpt>
      <trkpt lat="32.811491964384913" lon="-2.592072039842606">
        <ele>1285.4200000000001</ele>
        <time>2010-12-29T10:32:16Z</time>
      </trkpt>
      <trkpt lat="32.810254041105509" lon="-2.591378018260002">
        <ele>1298.3979999999999</ele>
        <time>2010-12-29T10:32:26Z</time>
      </trkpt>
      <trkpt lat="32.808758961036801" lon="-2.590520968660712">
        <ele>1309.934</ele>
        <time>2010-12-29T10:32:36Z</time>
      </trkpt>
      <trkpt lat="32.807455994188786" lon="-2.589962985366583">
        <ele>1314.74</ele>
        <time>2010-12-29T10:32:44Z</time>
      </trkpt>
      <trkpt lat="32.80667002312839" lon="-2.58995502255857">
        <ele>1317.144</ele>
        <time>2010-12-29T10:32:49Z</time>
      </trkpt>
      <trkpt lat="32.80632602982223" lon="-2.590019982308149">
        <ele>1318.105</ele>
        <time>2010-12-29T10:32:53Z</time>
      </trkpt>
      <trkpt lat="32.80589503236115" lon="-2.590151997283101">
        <ele>1317.624</ele>
        <time>2010-12-29T10:33:01Z</time>
      </trkpt>
      <trkpt lat="32.805665032938123" lon="-2.590139005333185">
        <ele>1320.027</ele>
        <time>2010-12-29T10:33:08Z</time>
      </trkpt>
      <trkpt lat="32.805315004661679" lon="-2.589906994253397">
        <ele>1320.027</ele>
        <time>2010-12-29T10:33:18Z</time>
      </trkpt>
      <trkpt lat="32.804944021627307" lon="-2.589596025645733">
        <ele>1320.508</ele>
        <time>2010-12-29T10:33:25Z</time>
      </trkpt>
      <trkpt lat="32.804503971710801" lon="-2.589046005159617">
        <ele>1319.547</ele>
        <time>2010-12-29T10:33:34Z</time>
      </trkpt>
      <trkpt lat="32.804041961207986" lon="-2.588847018778324">
        <ele>1316.182</ele>
        <time>2010-12-29T10:33:41Z</time>
      </trkpt>
      <trkpt lat="32.803841968998313" lon="-2.588789016008377">
        <ele>1314.74</ele>
        <time>2010-12-29T10:33:46Z</time>
      </trkpt>
      <trkpt lat="32.803693022578955" lon="-2.588703017681837">
        <ele>1313.779</ele>
        <time>2010-12-29T10:34:27Z</time>
      </trkpt>
      <trkpt lat="32.803084999322891" lon="-2.588475029915571">
        <ele>1314.74</ele>
        <time>2010-12-29T10:34:36Z</time>
      </trkpt>
      <trkpt lat="32.802319983020425" lon="-2.588155008852482">
        <ele>1317.624</ele>
        <time>2010-12-29T10:34:44Z</time>
      </trkpt>
      <trkpt lat="32.801078036427498" lon="-2.587686963379383">
        <ele>1317.144</ele>
        <time>2010-12-29T10:34:55Z</time>
      </trkpt>
      <trkpt lat="32.799745984375477" lon="-2.587180025875568">
        <ele>1317.144</ele>
        <time>2010-12-29T10:35:05Z</time>
      </trkpt>
      <trkpt lat="32.798522980883718" lon="-2.586702005937696">
        <ele>1317.144</ele>
        <time>2010-12-29T10:35:14Z</time>
      </trkpt>
      <trkpt lat="32.797528970986605" lon="-2.586358012631536">
        <ele>1319.066</ele>
        <time>2010-12-29T10:35:22Z</time>
      </trkpt>
      <trkpt lat="32.796134976670146" lon="-2.58585300296545">
        <ele>1319.547</ele>
        <time>2010-12-29T10:35:33Z</time>
      </trkpt>
      <trkpt lat="32.795901959761977" lon="-2.58576700463891">
        <ele>1319.547</ele>
        <time>2010-12-29T10:35:35Z</time>
      </trkpt>
      <trkpt lat="32.795473979786038" lon="-2.585489982739091">
        <ele>1319.547</ele>
        <time>2010-12-29T10:35:40Z</time>
      </trkpt>
      <trkpt lat="32.795200981199741" lon="-2.585418988019228">
        <ele>1319.547</ele>
        <time>2010-12-29T10:35:44Z</time>
      </trkpt>
      <trkpt lat="32.794878026470542" lon="-2.585418988019228">
        <ele>1317.624</ele>
        <time>2010-12-29T10:35:51Z</time>
      </trkpt>
      <trkpt lat="32.794438982382417" lon="-2.585271969437599">
        <ele>1316.663</ele>
        <time>2010-12-29T10:35:58Z</time>
      </trkpt>
      <trkpt lat="32.793720988556743" lon="-2.584996037185192">
        <ele>1317.144</ele>
        <time>2010-12-29T10:36:06Z</time>
      </trkpt>
      <trkpt lat="32.792306039482355" lon="-2.58441399782896">
        <ele>1318.585</ele>
        <time>2010-12-29T10:36:19Z</time>
      </trkpt>
      <trkpt lat="32.790649021044374" lon="-2.583766998723149">
        <ele>1319.066</ele>
        <time>2010-12-29T10:36:32Z</time>
      </trkpt>
      <trkpt lat="32.789672026410699" lon="-2.583400961011648">
        <ele>1319.066</ele>
        <time>2010-12-29T10:36:41Z</time>
      </trkpt>
      <trkpt lat="32.789337001740932" lon="-2.583287972956896">
        <ele>1318.105</ele>
        <time>2010-12-29T10:36:46Z</time>
      </trkpt>
      <trkpt lat="32.788974987342954" lon="-2.583181019872427">
        <ele>1316.182</ele>
        <time>2010-12-29T10:36:54Z</time>
      </trkpt>
      <trkpt lat="32.788161020725965" lon="-2.58293098770082">
        <ele>1316.663</ele>
        <time>2010-12-29T10:37:07Z</time>
      </trkpt>
      <trkpt lat="32.787385024130344" lon="-2.582685984671116">
        <ele>1320.508</ele>
        <time>2010-12-29T10:37:19Z</time>
      </trkpt>
      <trkpt lat="32.786605004221201" lon="-2.582428995519877">
        <ele>1320.989</ele>
        <time>2010-12-29T10:37:29Z</time>
      </trkpt>
      <trkpt lat="32.785795982927084" lon="-2.582137975841761">
        <ele>1318.585</ele>
        <time>2010-12-29T10:37:38Z</time>
      </trkpt>
      <trkpt lat="32.784594018012285" lon="-2.581731034442782">
        <ele>1311.856</ele>
        <time>2010-12-29T10:37:51Z</time>
      </trkpt>
      <trkpt lat="32.783259032294154" lon="-2.581171961501241">
        <ele>1301.7619999999999</ele>
        <time>2010-12-29T10:38:06Z</time>
      </trkpt>
      <trkpt lat="32.781866965815425" lon="-2.580615989863873">
        <ele>1290.2270000000001</ele>
        <time>2010-12-29T10:38:21Z</time>
      </trkpt>
      <trkpt lat="32.780401976779103" lon="-2.580064963549376">
        <ele>1279.652</ele>
        <time>2010-12-29T10:38:36Z</time>
      </trkpt>
      <trkpt lat="32.779421964660287" lon="-2.579720970243216">
        <ele>1279.171</ele>
        <time>2010-12-29T10:38:47Z</time>
      </trkpt>
      <trkpt lat="32.779260026291013" lon="-2.57964301854372">
        <ele>1280.614</ele>
        <time>2010-12-29T10:38:49Z</time>
      </trkpt>
      <trkpt lat="32.778946962207556" lon="-2.579418970271945">
        <ele>1279.652</ele>
        <time>2010-12-29T10:38:53Z</time>
      </trkpt>
      <trkpt lat="32.777891010046005" lon="-2.578982021659613">
        <ele>1276.768</ele>
        <time>2010-12-29T10:39:04Z</time>
      </trkpt>
      <trkpt lat="32.776567004621029" lon="-2.57848396897316">
        <ele>1280.133</ele>
        <time>2010-12-29T10:39:16Z</time>
      </trkpt>
      <trkpt lat="32.775005958974361" lon="-2.577874017879367">
        <ele>1288.3040000000001</ele>
        <time>2010-12-29T10:39:29Z</time>
      </trkpt>
      <trkpt lat="32.773760994896293" lon="-2.577342018485069">
        <ele>1288.7850000000001</ele>
        <time>2010-12-29T10:39:39Z</time>
      </trkpt>
      <trkpt lat="32.772490968927741" lon="-2.576933987438679">
        <ele>1293.5909999999999</ele>
        <time>2010-12-29T10:39:49Z</time>
      </trkpt>
      <trkpt lat="32.772180000320077" lon="-2.576838014647365">
        <ele>1294.5519999999999</ele>
        <time>2010-12-29T10:39:52Z</time>
      </trkpt>
      <trkpt lat="32.771939020603895" lon="-2.576708011329174">
        <ele>1295.9949999999999</ele>
        <time>2010-12-29T10:39:55Z</time>
      </trkpt>
      <trkpt lat="32.771291015669703" lon="-2.576554035767913">
        <ele>1297.9169999999999</ele>
        <time>2010-12-29T10:40:02Z</time>
      </trkpt>
      <trkpt lat="32.770097013562918" lon="-2.576282965019345">
        <ele>1302.7239999999999</ele>
        <time>2010-12-29T10:40:13Z</time>
      </trkpt>
      <trkpt lat="32.768782982602715" lon="-2.575817015022039">
        <ele>1305.6079999999999</ele>
        <time>2010-12-29T10:40:24Z</time>
      </trkpt>
      <trkpt lat="32.767075002193451" lon="-2.575219972059131">
        <ele>1308.492</ele>
        <time>2010-12-29T10:40:36Z</time>
      </trkpt>
      <trkpt lat="32.765425024554133" lon="-2.574641034007072">
        <ele>1310.895</ele>
        <time>2010-12-29T10:40:48Z</time>
      </trkpt>
      <trkpt lat="32.763877976685762" lon="-2.574156979098916">
        <ele>1313.298</ele>
        <time>2010-12-29T10:40:59Z</time>
      </trkpt>
      <trkpt lat="32.762751029804349" lon="-2.573689017444849">
        <ele>1308.011</ele>
        <time>2010-12-29T10:41:07Z</time>
      </trkpt>
      <trkpt lat="32.761199958622456" lon="-2.57304796949029">
        <ele>1304.646</ele>
        <time>2010-12-29T10:41:18Z</time>
      </trkpt>
      <trkpt lat="32.759786015376449" lon="-2.572598028928042">
        <ele>1302.2429999999999</ele>
        <time>2010-12-29T10:41:27Z</time>
      </trkpt>
      <trkpt lat="32.75757797062397" lon="-2.57175799459219">
        <ele>1310.414</ele>
        <time>2010-12-29T10:41:41Z</time>
      </trkpt>
      <trkpt lat="32.755237994715571" lon="-2.570891976356506">
        <ele>1304.646</ele>
        <time>2010-12-29T10:41:55Z</time>
      </trkpt>
      <trkpt lat="32.752312961965799" lon="-2.569896960631013">
        <ele>1298.3979999999999</ele>
        <time>2010-12-29T10:42:12Z</time>
      </trkpt>
      <trkpt lat="32.750255037099123" lon="-2.569177960976958">
        <ele>1295.9949999999999</ele>
        <time>2010-12-29T10:42:24Z</time>
      </trkpt>
      <trkpt lat="32.747957976534963" lon="-2.568410011008382">
        <ele>1292.6300000000001</ele>
        <time>2010-12-29T10:42:37Z</time>
      </trkpt>
      <trkpt lat="32.745331004261971" lon="-2.567451959475875">
        <ele>1291.1880000000001</ele>
        <time>2010-12-29T10:42:52Z</time>
      </trkpt>
      <trkpt lat="32.743496038019657" lon="-2.56681602448225">
        <ele>1292.1489999999999</ele>
        <time>2010-12-29T10:43:03Z</time>
      </trkpt>
      <trkpt lat="32.741941027343273" lon="-2.56627899594605">
        <ele>1292.6300000000001</ele>
        <time>2010-12-29T10:43:12Z</time>
      </trkpt>
      <trkpt lat="32.74047402665019" lon="-2.565665021538734">
        <ele>1289.7460000000001</ele>
        <time>2010-12-29T10:43:21Z</time>
      </trkpt>
      <trkpt lat="32.739384965971112" lon="-2.565202005207539">
        <ele>1285.9010000000001</ele>
        <time>2010-12-29T10:43:28Z</time>
      </trkpt>
      <trkpt lat="32.737257974222302" lon="-2.564441012218595">
        <ele>1281.0940000000001</ele>
        <time>2010-12-29T10:43:40Z</time>
      </trkpt>
      <trkpt lat="32.735547982156277" lon="-2.563879005610943">
        <ele>1280.614</ele>
        <time>2010-12-29T10:43:50Z</time>
      </trkpt>
      <trkpt lat="32.734493035823107" lon="-2.563433004543185">
        <ele>1281.0940000000001</ele>
        <time>2010-12-29T10:43:57Z</time>
      </trkpt>
      <trkpt lat="32.732730992138386" lon="-2.562547037377954">
        <ele>1281.0940000000001</ele>
        <time>2010-12-29T10:44:06Z</time>
      </trkpt>
      <trkpt lat="32.732684975489974" lon="-2.56215300410986">
        <ele>1281.575</ele>
        <time>2010-12-29T10:44:10Z</time>
      </trkpt>
      <trkpt lat="32.731819963082671" lon="-2.561343982815743">
        <ele>1283.0170000000001</ele>
        <time>2010-12-29T10:44:18Z</time>
      </trkpt>
      <trkpt lat="32.730896025896072" lon="-2.560223992913961">
        <ele>1283.4970000000001</ele>
        <time>2010-12-29T10:44:26Z</time>
      </trkpt>
      <trkpt lat="32.729990025982261" lon="-2.559433998540044">
        <ele>1288.7850000000001</ele>
        <time>2010-12-29T10:44:33Z</time>
      </trkpt>
      <trkpt lat="32.729339003562927" lon="-2.558618020266295">
        <ele>1287.8230000000001</ele>
        <time>2010-12-29T10:44:40Z</time>
      </trkpt>
      <trkpt lat="32.728049028664827" lon="-2.557337014004588">
        <ele>1284.9390000000001</ele>
        <time>2010-12-29T10:44:52Z</time>
      </trkpt>
      <trkpt lat="32.727384008467197" lon="-2.556978017091751">
        <ele>1286.3810000000001</ele>
        <time>2010-12-29T10:44:58Z</time>
      </trkpt>
      <trkpt lat="32.726929038763046" lon="-2.556988997384906">
        <ele>1283.4970000000001</ele>
        <time>2010-12-29T10:45:03Z</time>
      </trkpt>
      <trkpt lat="32.726495023816824" lon="-2.556906016543508">
        <ele>1283.0170000000001</ele>
        <time>2010-12-29T10:45:08Z</time>
      </trkpt>
      <trkpt lat="32.726137032732368" lon="-2.556800991296768">
        <ele>1281.575</ele>
        <time>2010-12-29T10:45:13Z</time>
      </trkpt>
      <trkpt lat="32.725711986422539" lon="-2.556684985756874">
        <ele>1279.652</ele>
        <time>2010-12-29T10:45:22Z</time>
      </trkpt>
      <trkpt lat="32.725559016689658" lon="-2.556450041010976">
        <ele>1279.171</ele>
        <time>2010-12-29T10:45:25Z</time>
      </trkpt>
      <trkpt lat="32.725169006735086" lon="-2.555435998365283">
        <ele>1279.171</ele>
        <time>2010-12-29T10:45:33Z</time>
      </trkpt>
      <trkpt lat="32.724599959328771" lon="-2.554259011521936">
        <ele>1278.691</ele>
        <time>2010-12-29T10:45:42Z</time>
      </trkpt>
      <trkpt lat="32.72444698959589" lon="-2.554005961865187">
        <ele>1278.21</ele>
        <time>2010-12-29T10:45:45Z</time>
      </trkpt>
      <trkpt lat="32.724264012649655" lon="-2.553828014060855">
        <ele>1277.729</ele>
        <time>2010-12-29T10:45:49Z</time>
      </trkpt>
      <trkpt lat="32.723998976871371" lon="-2.55379700101912">
        <ele>1277.249</ele>
        <time>2010-12-29T10:45:53Z</time>
      </trkpt>
      <trkpt lat="32.723832009360194" lon="-2.553843017667532">
        <ele>1276.768</ele>
        <time>2010-12-29T10:45:55Z</time>
      </trkpt>
      <trkpt lat="32.723292969167233" lon="-2.553919963538647">
        <ele>1270.52</ele>
        <time>2010-12-29T10:46:01Z</time>
      </trkpt>
      <trkpt lat="32.722471039742231" lon="-2.553737992420793">
        <ele>1272.442</ele>
        <time>2010-12-29T10:46:08Z</time>
      </trkpt>
      <trkpt lat="32.721369992941618" lon="-2.553514027968049">
        <ele>1276.288</ele>
        <time>2010-12-29T10:46:17Z</time>
      </trkpt>
      <trkpt lat="32.720620986074209" lon="-2.553347982466221">
        <ele>1279.171</ele>
        <time>2010-12-29T10:46:24Z</time>
      </trkpt>
      <trkpt lat="32.72008697502315" lon="-2.553220996633172">
        <ele>1279.652</ele>
        <time>2010-12-29T10:46:29Z</time>
      </trkpt>
      <trkpt lat="32.719546006992459" lon="-2.553318981081247">
        <ele>1280.614</ele>
        <time>2010-12-29T10:46:34Z</time>
      </trkpt>
      <trkpt lat="32.718327026814222" lon="-2.553915018215776">
        <ele>1281.0940000000001</ele>
        <time>2010-12-29T10:46:44Z</time>
      </trkpt>
      <trkpt lat="32.717351038008928" lon="-2.554432014003396">
        <ele>1283.0170000000001</ele>
        <time>2010-12-29T10:46:52Z</time>
      </trkpt>
      <trkpt lat="32.71604597568512" lon="-2.555501963943243">
        <ele>1283.9780000000001</ele>
        <time>2010-12-29T10:47:02Z</time>
      </trkpt>
      <trkpt lat="32.714493982493877" lon="-2.556953961029649">
        <ele>1282.5360000000001</ele>
        <time>2010-12-29T10:47:14Z</time>
      </trkpt>
      <trkpt lat="32.713071992620826" lon="-2.557896003127098">
        <ele>1280.614</ele>
        <time>2010-12-29T10:47:23Z</time>
      </trkpt>
      <trkpt lat="32.711441963911057" lon="-2.558914991095662">
        <ele>1276.768</ele>
        <time>2010-12-29T10:47:34Z</time>
      </trkpt>
      <trkpt lat="32.709613032639027" lon="-2.559733986854553">
        <ele>1271</ele>
        <time>2010-12-29T10:47:45Z</time>
      </trkpt>
      <trkpt lat="32.707489980384707" lon="-2.560448041185737">
        <ele>1270.52</ele>
        <time>2010-12-29T10:47:57Z</time>
      </trkpt>
      <trkpt lat="32.706179972738028" lon="-2.560690026730299">
        <ele>1270.52</ele>
        <time>2010-12-29T10:48:05Z</time>
      </trkpt>
      <trkpt lat="32.705500032752752" lon="-2.560768984258175">
        <ele>1268.597</ele>
        <time>2010-12-29T10:48:11Z</time>
      </trkpt>
      <trkpt lat="32.704537035897374" lon="-2.561012981459498">
        <ele>1270.52</ele>
        <time>2010-12-29T10:48:18Z</time>
      </trkpt>
      <trkpt lat="32.704391023144126" lon="-2.561032008379698">
        <ele>1270.52</ele>
        <time>2010-12-29T10:48:19Z</time>
      </trkpt>
      <trkpt lat="32.703718962147832" lon="-2.560897981747985">
        <ele>1272.923</ele>
        <time>2010-12-29T10:48:24Z</time>
      </trkpt>
      <trkpt lat="32.702861996367574" lon="-2.560767978429794">
        <ele>1274.845</ele>
        <time>2010-12-29T10:48:31Z</time>
      </trkpt>
      <trkpt lat="32.701773019507527" lon="-2.560601010918617">
        <ele>1287.3430000000001</ele>
        <time>2010-12-29T10:48:38Z</time>
      </trkpt>
      <trkpt lat="32.700819997116923" lon="-2.560376962646842">
        <ele>1294.0719999999999</ele>
        <time>2010-12-29T10:48:44Z</time>
      </trkpt>
      <trkpt lat="32.699046973139048" lon="-2.560080997645855">
        <ele>1293.1110000000001</ele>
        <time>2010-12-29T10:48:55Z</time>
      </trkpt>
      <trkpt lat="32.698168968781829" lon="-2.559936996549368">
        <ele>1293.1110000000001</ele>
        <time>2010-12-29T10:49:01Z</time>
      </trkpt>
      <trkpt lat="32.696725018322468" lon="-2.559634996578097">
        <ele>1293.1110000000001</ele>
        <time>2010-12-29T10:49:10Z</time>
      </trkpt>
      <trkpt lat="32.695190040394664" lon="-2.559203999117017">
        <ele>1292.1489999999999</ele>
        <time>2010-12-29T10:49:19Z</time>
      </trkpt>
      <trkpt lat="32.69368096254766" lon="-2.558926977217197">
        <ele>1291.1880000000001</ele>
        <time>2010-12-29T10:49:28Z</time>
      </trkpt>
      <trkpt lat="32.692478997632861" lon="-2.558726985007525">
        <ele>1289.7460000000001</ele>
        <time>2010-12-29T10:49:36Z</time>
      </trkpt>
      <trkpt lat="32.691435031592846" lon="-2.558219041675329">
        <ele>1288.7850000000001</ele>
        <time>2010-12-29T10:49:44Z</time>
      </trkpt>
      <trkpt lat="32.690895991399884" lon="-2.557979989796877">
        <ele>1288.3040000000001</ele>
        <time>2010-12-29T10:49:50Z</time>
      </trkpt>
      <trkpt lat="32.690267013385892" lon="-2.557801036164165">
        <ele>1289.2650000000001</ele>
        <time>2010-12-29T10:49:56Z</time>
      </trkpt>
      <trkpt lat="32.688948959112167" lon="-2.557423012331128">
        <ele>1289.7460000000001</ele>
        <time>2010-12-29T10:50:05Z</time>
      </trkpt>
      <trkpt lat="32.686800006777048" lon="-2.556685991585255">
        <ele>1291.1880000000001</ele>
        <time>2010-12-29T10:50:18Z</time>
      </trkpt>
      <trkpt lat="32.685240972787142" lon="-2.55590102635324">
        <ele>1289.2650000000001</ele>
        <time>2010-12-29T10:50:28Z</time>
      </trkpt>
      <trkpt lat="32.684287028387189" lon="-2.555179009214044">
        <ele>1286.8620000000001</ele>
        <time>2010-12-29T10:50:35Z</time>
      </trkpt>
      <trkpt lat="32.683348003774881" lon="-2.55435498431325">
        <ele>1286.8620000000001</ele>
        <time>2010-12-29T10:50:43Z</time>
      </trkpt>
      <trkpt lat="32.682971991598606" lon="-2.55399095825851">
        <ele>1287.3430000000001</ele>
        <time>2010-12-29T10:50:47Z</time>
      </trkpt>
      <trkpt lat="32.682761019095778" lon="-2.553329039365053">
        <ele>1288.3040000000001</ele>
        <time>2010-12-29T10:50:53Z</time>
      </trkpt>
      <trkpt lat="32.682752972468734" lon="-2.552783964201808">
        <ele>1291.1880000000001</ele>
        <time>2010-12-29T10:50:58Z</time>
      </trkpt>
      <trkpt lat="32.682639984413981" lon="-2.552455980330706">
        <ele>1292.6300000000001</ele>
        <time>2010-12-29T10:51:03Z</time>
      </trkpt>
      <trkpt lat="32.682380983605981" lon="-2.552354978397489">
        <ele>1295.0329999999999</ele>
        <time>2010-12-29T10:51:07Z</time>
      </trkpt>
      <trkpt lat="32.68201201222837" lon="-2.552542984485626">
        <ele>1295.9949999999999</ele>
        <time>2010-12-29T10:51:13Z</time>
      </trkpt>
      <trkpt lat="32.681933976709843" lon="-2.552734008058906">
        <ele>1295.9949999999999</ele>
        <time>2010-12-29T10:51:15Z</time>
      </trkpt>
      <trkpt lat="32.681548995897174" lon="-2.55364797078073">
        <ele>1299.8399999999999</ele>
        <time>2010-12-29T10:51:23Z</time>
      </trkpt>
      <trkpt lat="32.681452017277479" lon="-2.5538619607687">
        <ele>1300.8009999999999</ele>
        <time>2010-12-29T10:51:25Z</time>
      </trkpt>
      <trkpt lat="32.681173989549279" lon="-2.554222969338298">
        <ele>1302.2429999999999</ele>
        <time>2010-12-29T10:51:29Z</time>
      </trkpt>
      <trkpt lat="32.680484997108579" lon="-2.554908022284508">
        <ele>1304.1659999999999</ele>
        <time>2010-12-29T10:51:37Z</time>
      </trkpt>
      <trkpt lat="32.679595006629825" lon="-2.555532976984978">
        <ele>1306.088</ele>
        <time>2010-12-29T10:51:46Z</time>
      </trkpt>
      <trkpt lat="32.679333994165063" lon="-2.555727018043399">
        <ele>1307.05</ele>
        <time>2010-12-29T10:51:49Z</time>
      </trkpt>
      <trkpt lat="32.678695041686296" lon="-2.555852998048067">
        <ele>1309.453</ele>
        <time>2010-12-29T10:51:55Z</time>
      </trkpt>
      <trkpt lat="32.677300963550806" lon="-2.555768005549908">
        <ele>1305.6079999999999</ele>
        <time>2010-12-29T10:52:06Z</time>
      </trkpt>
      <trkpt lat="32.675728015601635" lon="-2.555607995018363">
        <ele>1301.7619999999999</ele>
        <time>2010-12-29T10:52:17Z</time>
      </trkpt>
      <trkpt lat="32.673877961933613" lon="-2.55538797006011">
        <ele>1296.9559999999999</ele>
        <time>2010-12-29T10:52:29Z</time>
      </trkpt>
      <trkpt lat="32.671974012628198" lon="-2.555194012820721">
        <ele>1294.5519999999999</ele>
        <time>2010-12-29T10:52:42Z</time>
      </trkpt>
      <trkpt lat="32.671625996008515" lon="-2.555198036134243">
        <ele>1295.5139999999999</ele>
        <time>2010-12-29T10:52:45Z</time>
      </trkpt>
      <trkpt lat="32.671255012974143" lon="-2.555359974503517">
        <ele>1297.4369999999999</ele>
        <time>2010-12-29T10:52:49Z</time>
      </trkpt>
      <trkpt lat="32.670585969462991" lon="-2.556049972772598">
        <ele>1299.3589999999999</ele>
        <time>2010-12-29T10:52:57Z</time>
      </trkpt>
      <trkpt lat="32.670171987265348" lon="-2.556478958576918">
        <ele>1302.7239999999999</ele>
        <time>2010-12-29T10:53:04Z</time>
      </trkpt>
      <trkpt lat="32.669950034469366" lon="-2.556662019342184">
        <ele>1301.2819999999999</ele>
        <time>2010-12-29T10:53:09Z</time>
      </trkpt>
      <trkpt lat="32.669731015339494" lon="-2.55693300627172">
        <ele>1301.2819999999999</ele>
        <time>2010-12-29T10:53:13Z</time>
      </trkpt>
      <trkpt lat="32.669384004548192" lon="-2.557581011205912">
        <ele>1303.204</ele>
        <time>2010-12-29T10:53:20Z</time>
      </trkpt>
      <trkpt lat="32.669152999296784" lon="-2.558509977534413">
        <ele>1306.088</ele>
        <time>2010-12-29T10:53:28Z</time>
      </trkpt>
      <trkpt lat="32.669092984870076" lon="-2.55882597528398">
        <ele>1307.05</ele>
        <time>2010-12-29T10:53:31Z</time>
      </trkpt>
      <trkpt lat="32.669105976819992" lon="-2.559168040752411">
        <ele>1308.011</ele>
        <time>2010-12-29T10:53:35Z</time>
      </trkpt>
      <trkpt lat="32.669006986543536" lon="-2.559605995193124">
        <ele>1308.972</ele>
        <time>2010-12-29T10:53:40Z</time>
      </trkpt>
      <trkpt lat="32.668453026562929" lon="-2.560428008437157">
        <ele>1309.934</ele>
        <time>2010-12-29T10:53:49Z</time>
      </trkpt>
      <trkpt lat="32.668323023244739" lon="-2.560762027278543">
        <ele>1308.972</ele>
        <time>2010-12-29T10:53:54Z</time>
      </trkpt>
      <trkpt lat="32.668300978839397" lon="-2.560936035588384">
        <ele>1308.492</ele>
        <time>2010-12-29T10:53:56Z</time>
      </trkpt>
      <trkpt lat="32.668087994679809" lon="-2.561351023614407">
        <ele>1308.011</ele>
        <time>2010-12-29T10:54:03Z</time>
      </trkpt>
      <trkpt lat="32.667651968076825" lon="-2.561451019719243">
        <ele>1307.53</ele>
        <time>2010-12-29T10:54:08Z</time>
      </trkpt>
      <trkpt lat="32.667545014992356" lon="-2.561446996405721">
        <ele>1307.05</ele>
        <time>2010-12-29T10:54:09Z</time>
      </trkpt>
      <trkpt lat="32.666443968191743" lon="-2.56120702251792">
        <ele>1304.646</ele>
        <time>2010-12-29T10:54:19Z</time>
      </trkpt>
      <trkpt lat="32.665763022378087" lon="-2.560945004224777">
        <ele>1303.6849999999999</ele>
        <time>2010-12-29T10:54:26Z</time>
      </trkpt>
      <trkpt lat="32.665522964671254" lon="-2.560789017006755">
        <ele>1303.204</ele>
        <time>2010-12-29T10:54:29Z</time>
      </trkpt>
      <trkpt lat="32.664884012192488" lon="-2.560574021190405">
        <ele>1302.7239999999999</ele>
        <time>2010-12-29T10:54:36Z</time>
      </trkpt>
      <trkpt lat="32.664251010864973" lon="-2.559955017641187">
        <ele>1299.8399999999999</ele>
        <time>2010-12-29T10:54:44Z</time>
      </trkpt>
      <trkpt lat="32.663594959303737" lon="-2.55901699885726">
        <ele>1295.0329999999999</ele>
        <time>2010-12-29T10:54:52Z</time>
      </trkpt>
      <trkpt lat="32.663230011239648" lon="-2.558380980044603">
        <ele>1293.1110000000001</ele>
        <time>2010-12-29T10:54:57Z</time>
      </trkpt>
      <trkpt lat="32.662960030138493" lon="-2.557797012850642">
        <ele>1293.5909999999999</ele>
        <time>2010-12-29T10:55:02Z</time>
      </trkpt>
      <trkpt lat="32.662100968882442" lon="-2.55684700794518">
        <ele>1293.5909999999999</ele>
        <time>2010-12-29T10:55:12Z</time>
      </trkpt>
      <trkpt lat="32.661105031147599" lon="-2.555805975571275">
        <ele>1308.492</ele>
        <time>2010-12-29T10:55:23Z</time>
      </trkpt>
      <trkpt lat="32.660293998196721" lon="-2.55523600615561">
        <ele>1314.26</ele>
        <time>2010-12-29T10:55:31Z</time>
      </trkpt>
      <trkpt lat="32.65932303853333" lon="-2.55469897761941">
        <ele>1315.702</ele>
        <time>2010-12-29T10:55:40Z</time>
      </trkpt>
      <trkpt lat="32.657845979556441" lon="-2.553964974358678">
        <ele>1319.066</ele>
        <time>2010-12-29T10:55:52Z</time>
      </trkpt>
      <trkpt lat="32.65646799467504" lon="-2.553333984687924">
        <ele>1322.9110000000001</ele>
        <time>2010-12-29T10:56:04Z</time>
      </trkpt>
      <trkpt lat="32.656059041619301" lon="-2.553140027448535">
        <ele>1323.873</ele>
        <time>2010-12-29T10:56:10Z</time>
      </trkpt>
      <trkpt lat="32.655785959213972" lon="-2.553081018850207">
        <ele>1323.3920000000001</ele>
        <time>2010-12-29T10:56:17Z</time>
      </trkpt>
      <trkpt lat="32.655703984200954" lon="-2.5530019775033">
        <ele>1322.431</ele>
        <time>2010-12-29T10:56:46Z</time>
      </trkpt>
      <trkpt lat="32.655251026153564" lon="-2.553028967231512">
        <ele>1321.95</ele>
        <time>2010-12-29T10:56:53Z</time>
      </trkpt>
      <trkpt lat="32.65436396934092" lon="-2.553086970001459">
        <ele>1319.066</ele>
        <time>2010-12-29T10:57:02Z</time>
      </trkpt>
      <trkpt lat="32.653384963050485" lon="-2.553050005808473">
        <ele>1313.779</ele>
        <time>2010-12-29T10:57:11Z</time>
      </trkpt>
      <trkpt lat="32.652067998424172" lon="-2.552888989448547">
        <ele>1310.414</ele>
        <time>2010-12-29T10:57:21Z</time>
      </trkpt>
      <trkpt lat="32.651028977707028" lon="-2.552682962268591">
        <ele>1306.088</ele>
        <time>2010-12-29T10:57:29Z</time>
      </trkpt>
      <trkpt lat="32.649941006675363" lon="-2.552613979205489">
        <ele>1299.8399999999999</ele>
        <time>2010-12-29T10:57:38Z</time>
      </trkpt>
      <trkpt lat="32.649491988122463" lon="-2.552662007510662">
        <ele>1297.9169999999999</ele>
        <time>2010-12-29T10:57:44Z</time>
      </trkpt>
      <trkpt lat="32.648876002058387" lon="-2.552734008058906">
        <ele>1296.9559999999999</ele>
        <time>2010-12-29T10:57:50Z</time>
      </trkpt>
      <trkpt lat="32.647371031343937" lon="-2.552887983620167">
        <ele>1291.1880000000001</ele>
        <time>2010-12-29T10:58:03Z</time>
      </trkpt>
      <trkpt lat="32.646236037835479" lon="-2.552884966135025">
        <ele>1290.2270000000001</ele>
        <time>2010-12-29T10:58:12Z</time>
      </trkpt>
      <trkpt lat="32.645450988784432" lon="-2.552616996690631">
        <ele>1287.3430000000001</ele>
        <time>2010-12-29T10:58:19Z</time>
      </trkpt>
      <trkpt lat="32.644947990775108" lon="-2.55246696062386">
        <ele>1284.9390000000001</ele>
        <time>2010-12-29T10:58:26Z</time>
      </trkpt>
      <trkpt lat="32.644247012212873" lon="-2.552295969799161">
        <ele>1283.4970000000001</ele>
        <time>2010-12-29T10:58:34Z</time>
      </trkpt>
      <trkpt lat="32.642941027879715" lon="-2.552002016454935">
        <ele>1281.0940000000001</ele>
        <time>2010-12-29T10:58:46Z</time>
      </trkpt>
      <trkpt lat="32.642709016799927" lon="-2.551961028948426">
        <ele>1281.0940000000001</ele>
        <time>2010-12-29T10:58:49Z</time>
      </trkpt>
      <trkpt lat="32.64228799380362" lon="-2.551955999806523">
        <ele>1280.614</ele>
        <time>2010-12-29T10:58:54Z</time>
      </trkpt>
      <trkpt lat="32.641068007797003" lon="-2.551688030362129">
        <ele>1281.575</ele>
        <time>2010-12-29T10:59:06Z</time>
      </trkpt>
      <trkpt lat="32.639948017895222" lon="-2.551514022052288">
        <ele>1282.5360000000001</ele>
        <time>2010-12-29T10:59:16Z</time>
      </trkpt>
      <trkpt lat="32.639028020203114" lon="-2.551381001248956">
        <ele>1285.9010000000001</ele>
        <time>2010-12-29T10:59:25Z</time>
      </trkpt>
      <trkpt lat="32.637756988406181" lon="-2.551071960479021">
        <ele>1286.8620000000001</ele>
        <time>2010-12-29T10:59:37Z</time>
      </trkpt>
      <trkpt lat="32.636471958830953" lon="-2.550656972452998">
        <ele>1288.3040000000001</ele>
        <time>2010-12-29T10:59:48Z</time>
      </trkpt>
      <trkpt lat="32.635468980297446" lon="-2.550367964431644">
        <ele>1290.2270000000001</ele>
        <time>2010-12-29T10:59:57Z</time>
      </trkpt>
      <trkpt lat="32.634727014228702" lon="-2.550160009413958">
        <ele>1289.7460000000001</ele>
        <time>2010-12-29T11:00:05Z</time>
      </trkpt>
      <trkpt lat="32.634544037282467" lon="-2.550104018300772">
        <ele>1289.2650000000001</ele>
        <time>2010-12-29T11:00:07Z</time>
      </trkpt>
      <trkpt lat="32.633721018210053" lon="-2.549771005287767">
        <ele>1290.7070000000001</ele>
        <time>2010-12-29T11:00:15Z</time>
      </trkpt>
      <trkpt lat="32.63227597810328" lon="-2.549269013106823">
        <ele>1292.6300000000001</ele>
        <time>2010-12-29T11:00:27Z</time>
      </trkpt>
      <trkpt lat="32.631582962349057" lon="-2.549016969278455">
        <ele>1294.5519999999999</ele>
        <time>2010-12-29T11:00:34Z</time>
      </trkpt>
      <trkpt lat="32.631055992096663" lon="-2.548887971788645">
        <ele>1296.4749999999999</ele>
        <time>2010-12-29T11:00:42Z</time>
      </trkpt>
      <trkpt lat="32.630204977467656" lon="-2.549014035612345">
        <ele>1298.3979999999999</ele>
        <time>2010-12-29T11:00:55Z</time>
      </trkpt>
      <trkpt lat="32.630074974149466" lon="-2.549049993976951">
        <ele>1298.8779999999999</ele>
        <time>2010-12-29T11:00:57Z</time>
      </trkpt>
      <trkpt lat="32.629400985315442" lon="-2.54904898814857">
        <ele>1300.3209999999999</ele>
        <time>2010-12-29T11:01:05Z</time>
      </trkpt>
      <trkpt lat="32.62825702317059" lon="-2.549131968989968">
        <ele>1304.646</ele>
        <time>2010-12-29T11:01:16Z</time>
      </trkpt>
      <trkpt lat="32.627141978591681" lon="-2.549153007566929">
        <ele>1308.011</ele>
        <time>2010-12-29T11:01:26Z</time>
      </trkpt>
      <trkpt lat="32.626228015869856" lon="-2.549170022830367">
        <ele>1312.337</ele>
        <time>2010-12-29T11:01:35Z</time>
      </trkpt>
      <trkpt lat="32.625281028449535" lon="-2.54893901757896">
        <ele>1312.337</ele>
        <time>2010-12-29T11:01:43Z</time>
      </trkpt>
      <trkpt lat="32.624300010502338" lon="-2.548219012096524">
        <ele>1316.182</ele>
        <time>2010-12-29T11:01:52Z</time>
      </trkpt>
      <trkpt lat="32.624119967222214" lon="-2.548094037920237">
        <ele>1317.144</ele>
        <time>2010-12-29T11:01:54Z</time>
      </trkpt>
      <trkpt lat="32.623525019735098" lon="-2.547538988292217">
        <ele>1318.585</ele>
        <time>2010-12-29T11:02:01Z</time>
      </trkpt>
      <trkpt lat="32.623124029487371" lon="-2.547187032178044">
        <ele>1318.105</ele>
        <time>2010-12-29T11:02:05Z</time>
      </trkpt>
      <trkpt lat="32.62234702706337" lon="-2.546521006152034">
        <ele>1320.027</ele>
        <time>2010-12-29T11:02:13Z</time>
      </trkpt>
      <trkpt lat="32.621368020772934" lon="-2.545822039246559">
        <ele>1324.8340000000001</ele>
        <time>2010-12-29T11:02:23Z</time>
      </trkpt>
      <trkpt lat="32.620485993102193" lon="-2.545241005718708">
        <ele>1324.354</ele>
        <time>2010-12-29T11:02:32Z</time>
      </trkpt>
      <trkpt lat="32.619643025100231" lon="-2.544653015211225">
        <ele>1325.3150000000001</ele>
        <time>2010-12-29T11:02:42Z</time>
      </trkpt>
      <trkpt lat="32.618826040998101" lon="-2.544090002775192">
        <ele>1325.7950000000001</ele>
        <time>2010-12-29T11:02:51Z</time>
      </trkpt>
      <trkpt lat="32.617786014452577" lon="-2.543345019221306">
        <ele>1324.8340000000001</ele>
        <time>2010-12-29T11:03:02Z</time>
      </trkpt>
      <trkpt lat="32.616459997370839" lon="-2.5423420406878">
        <ele>1320.508</ele>
        <time>2010-12-29T11:03:16Z</time>
      </trkpt>
      <trkpt lat="32.615460036322474" lon="-2.541561014950275">
        <ele>1317.144</ele>
        <time>2010-12-29T11:03:27Z</time>
      </trkpt>
      <trkpt lat="32.614862993359566" lon="-2.541283993050456">
        <ele>1314.74</ele>
        <time>2010-12-29T11:03:34Z</time>
      </trkpt>
      <trkpt lat="32.614318002015352" lon="-2.541148038581014">
        <ele>1310.414</ele>
        <time>2010-12-29T11:03:43Z</time>
      </trkpt>
      <trkpt lat="32.614008039236069" lon="-2.541001019999385">
        <ele>1308.011</ele>
        <time>2010-12-29T11:03:48Z</time>
      </trkpt>
      <trkpt lat="32.613750966265798" lon="-2.540720980614424">
        <ele>1307.53</ele>
        <time>2010-12-29T11:03:53Z</time>
      </trkpt>
      <trkpt lat="32.613450977951288" lon="-2.539961999282241">
        <ele>1309.453</ele>
        <time>2010-12-29T11:04:03Z</time>
      </trkpt>
      <trkpt lat="32.613258026540279" lon="-2.53905700519681">
        <ele>1304.1659999999999</ele>
        <time>2010-12-29T11:04:13Z</time>
      </trkpt>
      <trkpt lat="32.613174961879849" lon="-2.53873698413372">
        <ele>1302.2429999999999</ele>
        <time>2010-12-29T11:04:20Z</time>
      </trkpt>
      <trkpt lat="32.613101033493876" lon="-2.538300035521388">
        <ele>1298.8779999999999</ele>
        <time>2010-12-29T11:04:28Z</time>
      </trkpt>
      <trkpt lat="32.612967006862164" lon="-2.537796031683683">
        <ele>1295.0329999999999</ele>
        <time>2010-12-29T11:04:38Z</time>
      </trkpt>
      <trkpt lat="32.612862987443805" lon="-2.537423959001899">
        <ele>1290.2270000000001</ele>
        <time>2010-12-29T11:04:46Z</time>
      </trkpt>
      <trkpt lat="32.612714963033795" lon="-2.536975024268031">
        <ele>1280.614</ele>
        <time>2010-12-29T11:04:56Z</time>
      </trkpt>
      <trkpt lat="32.612598035484552" lon="-2.536724992096424">
        <ele>1279.171</ele>
        <time>2010-12-29T11:05:00Z</time>
      </trkpt>
      <trkpt lat="32.612443976104259" lon="-2.536144964396954">
        <ele>1277.729</ele>
        <time>2010-12-29T11:05:08Z</time>
      </trkpt>
      <trkpt lat="32.61231598444283" lon="-2.535918988287449">
        <ele>1276.288</ele>
        <time>2010-12-29T11:05:16Z</time>
      </trkpt>
      <trkpt lat="32.612205008044839" lon="-2.536020996049047">
        <ele>1273.884</ele>
        <time>2010-12-29T11:05:21Z</time>
      </trkpt>
      <trkpt lat="32.612023036926985" lon="-2.536451993510127">
        <ele>1277.729</ele>
        <time>2010-12-29T11:05:29Z</time>
      </trkpt>
      <trkpt lat="32.611855985596776" lon="-2.536491975188255">
        <ele>1270.039</ele>
        <time>2010-12-29T11:05:35Z</time>
      </trkpt>
      <trkpt lat="32.611830001696944" lon="-2.536356020718813">
        <ele>1269.558</ele>
        <time>2010-12-29T11:05:38Z</time>
      </trkpt>
      <trkpt lat="32.611802006140351" lon="-2.535667028278112">
        <ele>1265.232</ele>
        <time>2010-12-29T11:05:48Z</time>
      </trkpt>
      <trkpt lat="32.611794965341687" lon="-2.53527601249516">
        <ele>1264.752</ele>
        <time>2010-12-29T11:05:53Z</time>
      </trkpt>
      <trkpt lat="32.611715001985431" lon="-2.534956997260451">
        <ele>1263.3099999999999</ele>
        <time>2010-12-29T11:06:00Z</time>
      </trkpt>
      <trkpt lat="32.611697986721992" lon="-2.534720962867141">
        <ele>1262.348</ele>
        <time>2010-12-29T11:06:04Z</time>
      </trkpt>
      <trkpt lat="32.611667979508638" lon="-2.533908002078533">
        <ele>1265.713</ele>
        <time>2010-12-29T11:06:13Z</time>
      </trkpt>
      <trkpt lat="32.611720031127334" lon="-2.532725986093283">
        <ele>1273.404</ele>
        <time>2010-12-29T11:06:25Z</time>
      </trkpt>
      <trkpt lat="32.611617017537355" lon="-2.531862985342741">
        <ele>1278.21</ele>
        <time>2010-12-29T11:06:34Z</time>
      </trkpt>
      <trkpt lat="32.61156203225255" lon="-2.531305002048612">
        <ele>1279.171</ele>
        <time>2010-12-29T11:06:40Z</time>
      </trkpt>
      <trkpt lat="32.61160503141582" lon="-2.530416017398238">
        <ele>1277.729</ele>
        <time>2010-12-29T11:06:49Z</time>
      </trkpt>
      <trkpt lat="32.611559014767408" lon="-2.529699029400945">
        <ele>1276.768</ele>
        <time>2010-12-29T11:06:57Z</time>
      </trkpt>
      <trkpt lat="32.611536970362067" lon="-2.52885296009481">
        <ele>1279.171</ele>
        <time>2010-12-29T11:07:06Z</time>
      </trkpt>
      <trkpt lat="32.611459018662572" lon="-2.528085010126233">
        <ele>1277.729</ele>
        <time>2010-12-29T11:07:13Z</time>
      </trkpt>
      <trkpt lat="32.611270006746054" lon="-2.527063004672527">
        <ele>1274.365</ele>
        <time>2010-12-29T11:07:23Z</time>
      </trkpt>
      <trkpt lat="32.611192977055907" lon="-2.526479037478566">
        <ele>1271.961</ele>
        <time>2010-12-29T11:07:32Z</time>
      </trkpt>
      <trkpt lat="32.611162969842553" lon="-2.526361020281911">
        <ele>1271</ele>
        <time>2010-12-29T11:07:35Z</time>
      </trkpt>
      <trkpt lat="32.610895000398159" lon="-2.525789961218834">
        <ele>1268.116</ele>
        <time>2010-12-29T11:07:46Z</time>
      </trkpt>
      <trkpt lat="32.610739013180137" lon="-2.525489972904325">
        <ele>1267.635</ele>
        <time>2010-12-29T11:07:51Z</time>
      </trkpt>
      <trkpt lat="32.610692996531725" lon="-2.525176992639899">
        <ele>1265.713</ele>
        <time>2010-12-29T11:07:56Z</time>
      </trkpt>
      <trkpt lat="32.610721997916698" lon="-2.52470500767231">
        <ele>1263.79</ele>
        <time>2010-12-29T11:08:03Z</time>
      </trkpt>
      <trkpt lat="32.610668018460274" lon="-2.524368977174163">
        <ele>1262.829</ele>
        <time>2010-12-29T11:08:08Z</time>
      </trkpt>
      <trkpt lat="32.610534997656941" lon="-2.523490972816944">
        <ele>1260.4259999999999</ele>
        <time>2010-12-29T11:08:19Z</time>
      </trkpt>
      <trkpt lat="32.61025101877749" lon="-2.522467961534858">
        <ele>1258.9839999999999</ele>
        <time>2010-12-29T11:08:30Z</time>
      </trkpt>
      <trkpt lat="32.610000986605883" lon="-2.521318970248103">
        <ele>1258.0219999999999</ele>
        <time>2010-12-29T11:08:41Z</time>
      </trkpt>
      <trkpt lat="32.609767969697714" lon="-2.520262012258172">
        <ele>1257.5419999999999</ele>
        <time>2010-12-29T11:08:50Z</time>
      </trkpt>
      <trkpt lat="32.609538976103067" lon="-2.519147973507643">
        <ele>1255.6189999999999</ele>
        <time>2010-12-29T11:08:59Z</time>
      </trkpt>
      <trkpt lat="32.609377959743142" lon="-2.518240967765451">
        <ele>1252.2539999999999</ele>
        <time>2010-12-29T11:09:08Z</time>
      </trkpt>
      <trkpt lat="32.609352981671691" lon="-2.518053967505693">
        <ele>1251.2929999999999</ele>
        <time>2010-12-29T11:09:10Z</time>
      </trkpt>
      <trkpt lat="32.609257008880377" lon="-2.517707962542772">
        <ele>1249.8510000000001</ele>
        <time>2010-12-29T11:09:14Z</time>
      </trkpt>
      <trkpt lat="32.609202023595572" lon="-2.517471006140113">
        <ele>1248.8900000000001</ele>
        <time>2010-12-29T11:09:17Z</time>
      </trkpt>
      <trkpt lat="32.609167993068695" lon="-2.517260033637285">
        <ele>1248.8900000000001</ele>
        <time>2010-12-29T11:09:20Z</time>
      </trkpt>
      <trkpt lat="32.609056010842323" lon="-2.516807997599244">
        <ele>1248.4090000000001</ele>
        <time>2010-12-29T11:09:25Z</time>
      </trkpt>
      <trkpt lat="32.608829028904438" lon="-2.515428001061082">
        <ele>1246.0060000000001</ele>
        <time>2010-12-29T11:09:37Z</time>
      </trkpt>
      <trkpt lat="32.608538009226322" lon="-2.514126962050796">
        <ele>1242.6410000000001</ele>
        <time>2010-12-29T11:09:48Z</time>
      </trkpt>
      <trkpt lat="32.608252018690109" lon="-2.513218028470874">
        <ele>1238.796</ele>
        <time>2010-12-29T11:09:57Z</time>
      </trkpt>
      <trkpt lat="32.60821396484971" lon="-2.513117026537657">
        <ele>1238.3150000000001</ele>
        <time>2010-12-29T11:09:58Z</time>
      </trkpt>
      <trkpt lat="32.608012966811657" lon="-2.512067025527358">
        <ele>1237.835</ele>
        <time>2010-12-29T11:10:07Z</time>
      </trkpt>
      <trkpt lat="32.607735022902489" lon="-2.511361017823219">
        <ele>1235.912</ele>
        <time>2010-12-29T11:10:14Z</time>
      </trkpt>
      <trkpt lat="32.607575012370944" lon="-2.510791970416904">
        <ele>1233.99</ele>
        <time>2010-12-29T11:10:20Z</time>
      </trkpt>
      <trkpt lat="32.607229007408023" lon="-2.510251002386212">
        <ele>1232.548</ele>
        <time>2010-12-29T11:10:26Z</time>
      </trkpt>
      <trkpt lat="32.606518976390362" lon="-2.509023975580931">
        <ele>1228.222</ele>
        <time>2010-12-29T11:10:36Z</time>
      </trkpt>
      <trkpt lat="32.606103988364339" lon="-2.508100038394332">
        <ele>1223.415</ele>
        <time>2010-12-29T11:10:44Z</time>
      </trkpt>
      <trkpt lat="32.605935009196401" lon="-2.507737018167973">
        <ele>1222.934</ele>
        <time>2010-12-29T11:10:48Z</time>
      </trkpt>
      <trkpt lat="32.605811962857842" lon="-2.506860019639134">
        <ele>1221.492</ele>
        <time>2010-12-29T11:10:55Z</time>
      </trkpt>
      <trkpt lat="32.605787990614772" lon="-2.506547961384058">
        <ele>1221.492</ele>
        <time>2010-12-29T11:10:58Z</time>
      </trkpt>
      <trkpt lat="32.605681959539652" lon="-2.506194999441505">
        <ele>1221.973</ele>
        <time>2010-12-29T11:11:02Z</time>
      </trkpt>
      <trkpt lat="32.605388006195426" lon="-2.505597034469247">
        <ele>1221.492</ele>
        <time>2010-12-29T11:11:09Z</time>
      </trkpt>
      <trkpt lat="32.604571022093296" lon="-2.504725987091661">
        <ele>1220.05</ele>
        <time>2010-12-29T11:11:20Z</time>
      </trkpt>
      <trkpt lat="32.604175982996821" lon="-2.504058033227921">
        <ele>1222.934</ele>
        <time>2010-12-29T11:11:27Z</time>
      </trkpt>
      <trkpt lat="32.60399904102087" lon="-2.503728959709406">
        <ele>1225.337</ele>
        <time>2010-12-29T11:11:31Z</time>
      </trkpt>
      <trkpt lat="32.603822015225887" lon="-2.503584958612919">
        <ele>1226.299</ele>
        <time>2010-12-29T11:11:35Z</time>
      </trkpt>
      <trkpt lat="32.603421024978161" lon="-2.503360994160175">
        <ele>1221.973</ele>
        <time>2010-12-29T11:11:42Z</time>
      </trkpt>
      <trkpt lat="32.603279035538435" lon="-2.503202995285392">
        <ele>1220.05</ele>
        <time>2010-12-29T11:11:46Z</time>
      </trkpt>
      <trkpt lat="32.603222038596869" lon="-2.503105010837317">
        <ele>1219.0889999999999</ele>
        <time>2010-12-29T11:11:48Z</time>
      </trkpt>
      <trkpt lat="32.603045012801886" lon="-2.502964027225971">
        <ele>1216.2049999999999</ele>
        <time>2010-12-29T11:11:52Z</time>
      </trkpt>
      <trkpt lat="32.602766985073686" lon="-2.502948017790914">
        <ele>1208.0340000000001</ele>
        <time>2010-12-29T11:12:00Z</time>
      </trkpt>
      <trkpt lat="32.602308997884393" lon="-2.502994034439325">
        <ele>1198.421</ele>
        <time>2010-12-29T11:12:12Z</time>
      </trkpt>
      <trkpt lat="32.601888980716467" lon="-2.503044996410608">
        <ele>1192.653</ele>
        <time>2010-12-29T11:12:21Z</time>
      </trkpt>
      <trkpt lat="32.601244999095798" lon="-2.503077015280724">
        <ele>1193.614</ele>
        <time>2010-12-29T11:12:29Z</time>
      </trkpt>
      <trkpt lat="32.60041200555861" lon="-2.503171982243657">
        <ele>1192.172</ele>
        <time>2010-12-29T11:12:39Z</time>
      </trkpt>
      <trkpt lat="32.599690994247794" lon="-2.503291005268693">
        <ele>1190.25</ele>
        <time>2010-12-29T11:12:47Z</time>
      </trkpt>
      <trkpt lat="32.598868981003761" lon="-2.503456966951489">
        <ele>1184.962</ele>
        <time>2010-12-29T11:12:56Z</time>
      </trkpt>
      <trkpt lat="32.598465979099274" lon="-2.503615971654654">
        <ele>1182.078</ele>
        <time>2010-12-29T11:13:04Z</time>
      </trkpt>
      <trkpt lat="32.598276967182755" lon="-2.503681015223265">
        <ele>1178.7139999999999</ele>
        <time>2010-12-29T11:13:07Z</time>
      </trkpt>
      <trkpt lat="32.597636003047228" lon="-2.503932975232601">
        <ele>1175.8299999999999</ele>
        <time>2010-12-29T11:13:16Z</time>
      </trkpt>
      <trkpt lat="32.597501976415515" lon="-2.503972034901381">
        <ele>1175.3489999999999</ele>
        <time>2010-12-29T11:13:18Z</time>
      </trkpt>
      <trkpt lat="32.597182961180806" lon="-2.503957031294704">
        <ele>1173.4269999999999</ele>
        <time>2010-12-29T11:13:23Z</time>
      </trkpt>
      <trkpt lat="32.596993027254939" lon="-2.50401402823627">
        <ele>1171.9839999999999</ele>
        <time>2010-12-29T11:13:27Z</time>
      </trkpt>
      <trkpt lat="32.596443006768823" lon="-2.504338994622231">
        <ele>1176.7909999999999</ele>
        <time>2010-12-29T11:13:34Z</time>
      </trkpt>
      <trkpt lat="32.595486966893077" lon="-2.504761023446918">
        <ele>1179.675</ele>
        <time>2010-12-29T11:13:43Z</time>
      </trkpt>
      <trkpt lat="32.594069000333548" lon="-2.50515203922987">
        <ele>1178.2329999999999</ele>
        <time>2010-12-29T11:13:54Z</time>
      </trkpt>
      <trkpt lat="32.593112960457802" lon="-2.505251029506326">
        <ele>1176.7909999999999</ele>
        <time>2010-12-29T11:14:01Z</time>
      </trkpt>
      <trkpt lat="32.591888029128313" lon="-2.50545596703887">
        <ele>1175.3489999999999</ele>
        <time>2010-12-29T11:14:10Z</time>
      </trkpt>
      <trkpt lat="32.591058975085616" lon="-2.505747992545366">
        <ele>1174.8679999999999</ele>
        <time>2010-12-29T11:14:17Z</time>
      </trkpt>
      <trkpt lat="32.590215001255274" lon="-2.506106989458203">
        <ele>1172.9459999999999</ele>
        <time>2010-12-29T11:14:25Z</time>
      </trkpt>
      <trkpt lat="32.58943397551775" lon="-2.506411001086235">
        <ele>1170.0619999999999</ele>
        <time>2010-12-29T11:14:33Z</time>
      </trkpt>
      <trkpt lat="32.588490005582571" lon="-2.506474032998085">
        <ele>1163.3330000000001</ele>
        <time>2010-12-29T11:14:42Z</time>
      </trkpt>
      <trkpt lat="32.587553998455405" lon="-2.506561959162355">
        <ele>1160.9290000000001</ele>
        <time>2010-12-29T11:14:50Z</time>
      </trkpt>
      <trkpt lat="32.586749000474811" lon="-2.506988011300564">
        <ele>1162.3710000000001</ele>
        <time>2010-12-29T11:14:57Z</time>
      </trkpt>
      <trkpt lat="32.58595297113061" lon="-2.507523028180003">
        <ele>1163.3330000000001</ele>
        <time>2010-12-29T11:15:05Z</time>
      </trkpt>
      <trkpt lat="32.58511302061379" lon="-2.508065002039075">
        <ele>1161.8910000000001</ele>
        <time>2010-12-29T11:15:13Z</time>
      </trkpt>
      <trkpt lat="32.583938967436552" lon="-2.508705966174603">
        <ele>1158.5260000000001</ele>
        <time>2010-12-29T11:15:22Z</time>
      </trkpt>
      <trkpt lat="32.582699032500386" lon="-2.509241988882422">
        <ele>1157.5650000000001</ele>
        <time>2010-12-29T11:15:31Z</time>
      </trkpt>
      <trkpt lat="32.582269962877035" lon="-2.50953895971179">
        <ele>1156.6030000000001</ele>
        <time>2010-12-29T11:15:35Z</time>
      </trkpt>
      <trkpt lat="32.581922030076385" lon="-2.509805001318455">
        <ele>1154.681</ele>
        <time>2010-12-29T11:15:39Z</time>
      </trkpt>
      <trkpt lat="32.581604020670056" lon="-2.509965011849999">
        <ele>1154.2</ele>
        <time>2010-12-29T11:15:43Z</time>
      </trkpt>
      <trkpt lat="32.581149972975254" lon="-2.509993007406592">
        <ele>1152.277</ele>
        <time>2010-12-29T11:15:48Z</time>
      </trkpt>
      <trkpt lat="32.580350004136562" lon="-2.509538037702441">
        <ele>1144.106</ele>
        <time>2010-12-29T11:15:57Z</time>
      </trkpt>
      <trkpt lat="32.579086013138294" lon="-2.508814008906484">
        <ele>1138.819</ele>
        <time>2010-12-29T11:16:09Z</time>
      </trkpt>
      <trkpt lat="32.57768196053803" lon="-2.508036000654101">
        <ele>1134.4929999999999</ele>
        <time>2010-12-29T11:16:21Z</time>
      </trkpt>
      <trkpt lat="32.576845027506351" lon="-2.507564015686512">
        <ele>1131.1279999999999</ele>
        <time>2010-12-29T11:16:29Z</time>
      </trkpt>
      <trkpt lat="32.576188975945115" lon="-2.507290011271834">
        <ele>1130.1669999999999</ele>
        <time>2010-12-29T11:16:37Z</time>
      </trkpt>
      <trkpt lat="32.5760049931705" lon="-2.507223961874843">
        <ele>1130.1669999999999</ele>
        <time>2010-12-29T11:16:39Z</time>
      </trkpt>
      <trkpt lat="32.575160013511777" lon="-2.507292022928596">
        <ele>1133.0509999999999</ele>
        <time>2010-12-29T11:16:47Z</time>
      </trkpt>
      <trkpt lat="32.574749970808625" lon="-2.507352037355304">
        <ele>1134.0119999999999</ele>
        <time>2010-12-29T11:16:51Z</time>
      </trkpt>
      <trkpt lat="32.574482001364231" lon="-2.507306020706892">
        <ele>1134.4929999999999</ele>
        <time>2010-12-29T11:16:54Z</time>
      </trkpt>
      <trkpt lat="32.574301036074758" lon="-2.507277019321919">
        <ele>1134.4929999999999</ele>
        <time>2010-12-29T11:16:56Z</time>
      </trkpt>
      <trkpt lat="32.573924018070102" lon="-2.507104016840458">
        <ele>1134.0119999999999</ele>
        <time>2010-12-29T11:17:00Z</time>
      </trkpt>
      <trkpt lat="32.572693973779678" lon="-2.506290972232819">
        <ele>1134.0119999999999</ele>
        <time>2010-12-29T11:17:12Z</time>
      </trkpt>
      <trkpt lat="32.571534002199769" lon="-2.505600973963738">
        <ele>1132.0899999999999</ele>
        <time>2010-12-29T11:17:22Z</time>
      </trkpt>
      <trkpt lat="32.57067603059113" lon="-2.505103005096316">
        <ele>1129.6859999999999</ele>
        <time>2010-12-29T11:17:29Z</time>
      </trkpt>
      <trkpt lat="32.569834990426898" lon="-2.504712995141745">
        <ele>1128.7249999999999</ele>
        <time>2010-12-29T11:17:36Z</time>
      </trkpt>
      <trkpt lat="32.56885296665132" lon="-2.504519037902355">
        <ele>1127.7639999999999</ele>
        <time>2010-12-29T11:17:44Z</time>
      </trkpt>
      <trkpt lat="32.568750036880374" lon="-2.504523983225226">
        <ele>1127.7639999999999</ele>
        <time>2010-12-29T11:17:45Z</time>
      </trkpt>
      <trkpt lat="32.568386010825634" lon="-2.504404038190842">
        <ele>1127.2829999999999</ele>
        <time>2010-12-29T11:17:49Z</time>
      </trkpt>
      <trkpt lat="32.568216025829315" lon="-2.504287026822567">
        <ele>1126.8019999999999</ele>
        <time>2010-12-29T11:17:51Z</time>
      </trkpt>
      <trkpt lat="32.567261997610331" lon="-2.503826022148132">
        <ele>1124.3989999999999</ele>
        <time>2010-12-29T11:18:00Z</time>
      </trkpt>
      <trkpt lat="32.566468985751271" lon="-2.50328597612679">
        <ele>1122.4770000000001</ele>
        <time>2010-12-29T11:18:08Z</time>
      </trkpt>
      <trkpt lat="32.566021978855133" lon="-2.502739978954196">
        <ele>1120.5540000000001</ele>
        <time>2010-12-29T11:18:14Z</time>
      </trkpt>
      <trkpt lat="32.565533984452486" lon="-2.502444013953209">
        <ele>1118.6310000000001</ele>
        <time>2010-12-29T11:18:19Z</time>
      </trkpt>
      <trkpt lat="32.564138984307647" lon="-2.502017039805651">
        <ele>1114.7860000000001</ele>
        <time>2010-12-29T11:18:31Z</time>
      </trkpt>
      <trkpt lat="32.56294003687799" lon="-2.501475987955928">
        <ele>1111.421</ele>
        <time>2010-12-29T11:18:41Z</time>
      </trkpt>
      <trkpt lat="32.562063038349152" lon="-2.500925967469811">
        <ele>1109.018</ele>
        <time>2010-12-29T11:18:49Z</time>
      </trkpt>
      <trkpt lat="32.561074979603291" lon="-2.500522965565324">
        <ele>1106.615</ele>
        <time>2010-12-29T11:18:57Z</time>
      </trkpt>
      <trkpt lat="32.559876032173634" lon="-2.50038399361074">
        <ele>1104.692</ele>
        <time>2010-12-29T11:19:06Z</time>
      </trkpt>
      <trkpt lat="32.559425001963973" lon="-2.500567976385355">
        <ele>1102.289</ele>
        <time>2010-12-29T11:19:10Z</time>
      </trkpt>
      <trkpt lat="32.558742966502905" lon="-2.501203995198011">
        <ele>1099.885</ele>
        <time>2010-12-29T11:19:17Z</time>
      </trkpt>
      <trkpt lat="32.558253966271877" lon="-2.50162803567946">
        <ele>1098.443</ele>
        <time>2010-12-29T11:19:22Z</time>
      </trkpt>
      <trkpt lat="32.557651977986097" lon="-2.501728031784296">
        <ele>1097.482</ele>
        <time>2010-12-29T11:19:27Z</time>
      </trkpt>
      <trkpt lat="32.556436015293002" lon="-2.501499960198999">
        <ele>1093.6369999999999</ele>
        <time>2010-12-29T11:19:36Z</time>
      </trkpt>
      <trkpt lat="32.554531982168555" lon="-2.501139035448432">
        <ele>1089.7919999999999</ele>
        <time>2010-12-29T11:19:49Z</time>
      </trkpt>
      <trkpt lat="32.55323002114892" lon="-2.500927979126573">
        <ele>1088.3499999999999</ele>
        <time>2010-12-29T11:19:58Z</time>
      </trkpt>
      <trkpt lat="32.551735024899244" lon="-2.500677024945617">
        <ele>1086.4269999999999</ele>
        <time>2010-12-29T11:20:08Z</time>
      </trkpt>
      <trkpt lat="32.549882037565112" lon="-2.50036396086216">
        <ele>1083.5429999999999</ele>
        <time>2010-12-29T11:20:20Z</time>
      </trkpt>
      <trkpt lat="32.548564989119768" lon="-2.500137984752655">
        <ele>1082.1010000000001</ele>
        <time>2010-12-29T11:20:29Z</time>
      </trkpt>
      <trkpt lat="32.546853991225362" lon="-2.499836990609765">
        <ele>1079.6980000000001</ele>
        <time>2010-12-29T11:20:40Z</time>
      </trkpt>
      <trkpt lat="32.545514982193708" lon="-2.499603973701596">
        <ele>1077.7750000000001</ele>
        <time>2010-12-29T11:20:49Z</time>
      </trkpt>
      <trkpt lat="32.544664973393083" lon="-2.499591987580061">
        <ele>1075.8530000000001</ele>
        <time>2010-12-29T11:20:55Z</time>
      </trkpt>
      <trkpt lat="32.543438030406833" lon="-2.500075036659837">
        <ele>1072.9690000000001</ele>
        <time>2010-12-29T11:21:04Z</time>
      </trkpt>
      <trkpt lat="32.542476961389184" lon="-2.500635031610727">
        <ele>1071.046</ele>
        <time>2010-12-29T11:21:11Z</time>
      </trkpt>
      <trkpt lat="32.541294023394585" lon="-2.50160900875926">
        <ele>1068.643</ele>
        <time>2010-12-29T11:21:20Z</time>
      </trkpt>
      <trkpt lat="32.540202029049397" lon="-2.502545015886426">
        <ele>1067.201</ele>
        <time>2010-12-29T11:21:29Z</time>
      </trkpt>
      <trkpt lat="32.539746975526214" lon="-2.503083972260356">
        <ele>1066.239</ele>
        <time>2010-12-29T11:21:34Z</time>
      </trkpt>
      <trkpt lat="32.539134006947279" lon="-2.503843037411571">
        <ele>1066.239</ele>
        <time>2010-12-29T11:21:41Z</time>
      </trkpt>
      <trkpt lat="32.538046035915613" lon="-2.505263015627861">
        <ele>1067.681</ele>
        <time>2010-12-29T11:21:51Z</time>
      </trkpt>
      <trkpt lat="32.536701997742057" lon="-2.507059006020427">
        <ele>1068.162</ele>
        <time>2010-12-29T11:22:03Z</time>
      </trkpt>
      <trkpt lat="32.535434989258647" lon="-2.508710995316505">
        <ele>1067.681</ele>
        <time>2010-12-29T11:22:14Z</time>
      </trkpt>
      <trkpt lat="32.534655975177884" lon="-2.509823022410274">
        <ele>1069.124</ele>
        <time>2010-12-29T11:22:22Z</time>
      </trkpt>
      <trkpt lat="32.533971006050706" lon="-2.5110839959234">
        <ele>1068.162</ele>
        <time>2010-12-29T11:22:30Z</time>
      </trkpt>
      <trkpt lat="32.533521987497807" lon="-2.51200701110065">
        <ele>1068.162</ele>
        <time>2010-12-29T11:22:36Z</time>
      </trkpt>
      <trkpt lat="32.532897032797337" lon="-2.512743026018143">
        <ele>1067.681</ele>
        <time>2010-12-29T11:22:42Z</time>
      </trkpt>
      <trkpt lat="32.531599011272192" lon="-2.513608960434794">
        <ele>1064.797</ele>
        <time>2010-12-29T11:22:52Z</time>
      </trkpt>
      <trkpt lat="32.530316999182105" lon="-2.514161998406053">
        <ele>1062.394</ele>
        <time>2010-12-29T11:23:01Z</time>
      </trkpt>
      <trkpt lat="32.529370011761785" lon="-2.514516972005367">
        <ele>1060.952</ele>
        <time>2010-12-29T11:23:08Z</time>
      </trkpt>
      <trkpt lat="32.528841029852629" lon="-2.514574974775314">
        <ele>1059.991</ele>
        <time>2010-12-29T11:23:12Z</time>
      </trkpt>
      <trkpt lat="32.527867974713445" lon="-2.514488976448774">
        <ele>1057.588</ele>
        <time>2010-12-29T11:23:19Z</time>
      </trkpt>
      <trkpt lat="32.526642959564924" lon="-2.514346987009049">
        <ele>1055.665</ele>
        <time>2010-12-29T11:23:28Z</time>
      </trkpt>
      <trkpt lat="32.525452980771661" lon="-2.514602970331907">
        <ele>1054.704</ele>
        <time>2010-12-29T11:23:37Z</time>
      </trkpt>
      <trkpt lat="32.524689976125956" lon="-2.514681005850434">
        <ele>1054.223</ele>
        <time>2010-12-29T11:23:43Z</time>
      </trkpt>
      <trkpt lat="32.523803003132343" lon="-2.514641024172306">
        <ele>1053.2619999999999</ele>
        <time>2010-12-29T11:23:51Z</time>
      </trkpt>
      <trkpt lat="32.523052990436554" lon="-2.51473599113524">
        <ele>1053.742</ele>
        <time>2010-12-29T11:23:59Z</time>
      </trkpt>
      <trkpt lat="32.522962968796492" lon="-2.514785025268793">
        <ele>1054.704</ele>
        <time>2010-12-29T11:24:04Z</time>
      </trkpt>
      <trkpt lat="32.522879987955093" lon="-2.514583021402359">
        <ele>1053.2619999999999</ele>
        <time>2010-12-29T11:24:14Z</time>
      </trkpt>
      <trkpt lat="32.522856015712023" lon="-2.51426300033927">
        <ele>1051.3389999999999</ele>
        <time>2010-12-29T11:24:18Z</time>
      </trkpt>
      <trkpt lat="32.522769011557102" lon="-2.514008022844791">
        <ele>1050.8579999999999</ele>
        <time>2010-12-29T11:24:21Z</time>
      </trkpt>
      <trkpt lat="32.522846963256598" lon="-2.513734018430114">
        <ele>1051.3389999999999</ele>
        <time>2010-12-29T11:24:26Z</time>
      </trkpt>
      <trkpt lat="32.523049972951412" lon="-2.51338399015367">
        <ele>1051.8199999999999</ele>
        <time>2010-12-29T11:24:31Z</time>
      </trkpt>
      <trkpt lat="32.523292964324355" lon="-2.512488970533013">
        <ele>1051.8199999999999</ele>
        <time>2010-12-29T11:24:40Z</time>
      </trkpt>
      <trkpt lat="32.523421039804816" lon="-2.512083034962416">
        <ele>1053.2619999999999</ele>
        <time>2010-12-29T11:24:45Z</time>
      </trkpt>
      <trkpt lat="32.523470995947719" lon="-2.511091958731413">
        <ele>1051.3389999999999</ele>
        <time>2010-12-29T11:24:54Z</time>
      </trkpt>
      <trkpt lat="32.523390026763082" lon="-2.510390980169177">
        <ele>1051.8199999999999</ele>
        <time>2010-12-29T11:25:01Z</time>
      </trkpt>
      <trkpt lat="32.523018959909678" lon="-2.509648008272052">
        <ele>1050.8579999999999</ele>
        <time>2010-12-29T11:25:10Z</time>
      </trkpt>
      <trkpt lat="32.522941008210182" lon="-2.509491015225649">
        <ele>1050.8579999999999</ele>
        <time>2010-12-29T11:25:12Z</time>
      </trkpt>
      <trkpt lat="32.522842017933726" lon="-2.508664978668094">
        <ele>1050.3779999999999</ele>
        <time>2010-12-29T11:25:20Z</time>
      </trkpt>
      <trkpt lat="32.522827014327049" lon="-2.507522022351623">
        <ele>1049.8969999999999</ele>
        <time>2010-12-29T11:25:29Z</time>
      </trkpt>
      <trkpt lat="32.522610006853938" lon="-2.506889021024108">
        <ele>1050.8579999999999</ele>
        <time>2010-12-29T11:25:37Z</time>
      </trkpt>
      <trkpt lat="32.522453013807535" lon="-2.506627002730966">
        <ele>1051.8199999999999</ele>
        <time>2010-12-29T11:25:44Z</time>
      </trkpt>
      <trkpt lat="32.522169034928083" lon="-2.506539998576045">
        <ele>1048.9359999999999</ele>
        <time>2010-12-29T11:26:31Z</time>
      </trkpt>
      <trkpt lat="32.522069960832596" lon="-2.506505968049169">
        <ele>1047.0129999999999</ele>
        <time>2010-12-29T11:26:38Z</time>
      </trkpt>
      <trkpt lat="32.521681962534785" lon="-2.506352998316288">
        <ele>1048.4549999999999</ele>
        <time>2010-12-29T11:26:45Z</time>
      </trkpt>
      <trkpt lat="32.520833965390921" lon="-2.506044041365385">
        <ele>1050.3779999999999</ele>
        <time>2010-12-29T11:26:55Z</time>
      </trkpt>
      <trkpt lat="32.520226025953889" lon="-2.505828961730003">
        <ele>1050.8579999999999</ele>
        <time>2010-12-29T11:27:02Z</time>
      </trkpt>
      <trkpt lat="32.519920002669096" lon="-2.505599968135357">
        <ele>1050.8579999999999</ele>
        <time>2010-12-29T11:27:08Z</time>
      </trkpt>
      <trkpt lat="32.519661001861095" lon="-2.505450015887618">
        <ele>1050.8579999999999</ele>
        <time>2010-12-29T11:27:16Z</time>
      </trkpt>
      <trkpt lat="32.519107041880488" lon="-2.505195960402489">
        <ele>1051.3389999999999</ele>
        <time>2010-12-29T11:27:25Z</time>
      </trkpt>
      <trkpt lat="32.518546963110566" lon="-2.505016000941396">
        <ele>1051.8199999999999</ele>
        <time>2010-12-29T11:27:34Z</time>
      </trkpt>
      <trkpt lat="32.518345965072513" lon="-2.504851967096329">
        <ele>1051.8199999999999</ele>
        <time>2010-12-29T11:27:38Z</time>
      </trkpt>
      <trkpt lat="32.518140021711588" lon="-2.504610987380147">
        <ele>1050.3779999999999</ele>
        <time>2010-12-29T11:27:54Z</time>
      </trkpt>
      <trkpt lat="32.518076989799738" lon="-2.504532029852271">
        <ele>1050.8579999999999</ele>
        <time>2010-12-29T11:27:59Z</time>
      </trkpt>
      <trkpt lat="32.517945980653167" lon="-2.50438098795712">
        <ele>1050.3779999999999</ele>
        <time>2010-12-29T11:28:07Z</time>
      </trkpt>
      <trkpt lat="32.51784497871995" lon="-2.504234975203872">
        <ele>1050.8579999999999</ele>
        <time>2010-12-29T11:29:25Z</time>
      </trkpt>
      <trkpt lat="32.517679017037153" lon="-2.504047974944115">
        <ele>1049.4159999999999</ele>
        <time>2010-12-29T11:30:59Z</time>
      </trkpt>
      <trkpt lat="32.517296969890594" lon="-2.503588981926441">
        <ele>1050.8579999999999</ele>
        <time>2010-12-29T11:31:05Z</time>
      </trkpt>
      <trkpt lat="32.51640597358346" lon="-2.502492964267731">
        <ele>1051.3389999999999</ele>
        <time>2010-12-29T11:31:17Z</time>
      </trkpt>
      <trkpt lat="32.515511037781835" lon="-2.5014360062778">
        <ele>1051.3389999999999</ele>
        <time>2010-12-29T11:31:27Z</time>
      </trkpt>
      <trkpt lat="32.514268001541495" lon="-2.500000018626452">
        <ele>1050.3779999999999</ele>
        <time>2010-12-29T11:31:40Z</time>
      </trkpt>
      <trkpt lat="32.513082968071103" lon="-2.498648017644882">
        <ele>1050.3779999999999</ele>
        <time>2010-12-29T11:31:52Z</time>
      </trkpt>
      <trkpt lat="32.511812020093203" lon="-2.497157966718078">
        <ele>1051.3389999999999</ele>
        <time>2010-12-29T11:32:05Z</time>
      </trkpt>
      <trkpt lat="32.510882969945669" lon="-2.496071001514792">
        <ele>1051.8199999999999</ele>
        <time>2010-12-29T11:32:16Z</time>
      </trkpt>
      <trkpt lat="32.509892983362079" lon="-2.494917986914516">
        <ele>1052.3</ele>
        <time>2010-12-29T11:32:27Z</time>
      </trkpt>
      <trkpt lat="32.509437007829547" lon="-2.494471985846758">
        <ele>1051.8199999999999</ele>
        <time>2010-12-29T11:32:33Z</time>
      </trkpt>
      <trkpt lat="32.508922023698688" lon="-2.493961025029421">
        <ele>1051.3389999999999</ele>
        <time>2010-12-29T11:32:40Z</time>
      </trkpt>
      <trkpt lat="32.508784979581833" lon="-2.493907967582345">
        <ele>1051.8199999999999</ele>
        <time>2010-12-29T11:32:45Z</time>
      </trkpt>
      <trkpt lat="32.508729994297028" lon="-2.494099996984005">
        <ele>1052.7809999999999</ele>
        <time>2010-12-29T11:32:52Z</time>
      </trkpt>
      <trkpt lat="32.509182030335069" lon="-2.494746996089816">
        <ele>1049.4159999999999</ele>
        <time>2010-12-29T11:33:00Z</time>
      </trkpt>
      <trkpt lat="32.509556030854583" lon="-2.495704041793943">
        <ele>1047.4939999999999</ele>
        <time>2010-12-29T11:33:07Z</time>
      </trkpt>
      <trkpt lat="32.509654015302658" lon="-2.496874993667007">
        <ele>1047.9739999999999</ele>
        <time>2010-12-29T11:33:15Z</time>
      </trkpt>
      <trkpt lat="32.509438013657928" lon="-2.498036976903677">
        <ele>1048.9359999999999</ele>
        <time>2010-12-29T11:33:23Z</time>
      </trkpt>
      <trkpt lat="32.509353021159768" lon="-2.498311987146735">
        <ele>1049.4159999999999</ele>
        <time>2010-12-29T11:33:25Z</time>
      </trkpt>
      <trkpt lat="32.509398031979799" lon="-2.499125031754375">
        <ele>1049.4159999999999</ele>
        <time>2010-12-29T11:33:31Z</time>
      </trkpt>
      <trkpt lat="32.509371964260936" lon="-2.499661976471543">
        <ele>1049.8969999999999</ele>
        <time>2010-12-29T11:33:36Z</time>
      </trkpt>
      <trkpt lat="32.509276997298002" lon="-2.499980991706252">
        <ele>1049.8969999999999</ele>
        <time>2010-12-29T11:33:39Z</time>
      </trkpt>
      <trkpt lat="32.509134002029896" lon="-2.500652968883514">
        <ele>1049.8969999999999</ele>
        <time>2010-12-29T11:33:45Z</time>
      </trkpt>
      <trkpt lat="32.509087985381484" lon="-2.501242971047759">
        <ele>1050.3779999999999</ele>
        <time>2010-12-29T11:33:51Z</time>
      </trkpt>
      <trkpt lat="32.509185969829559" lon="-2.50158897601068">
        <ele>1050.3779999999999</ele>
        <time>2010-12-29T11:33:56Z</time>
      </trkpt>
      <trkpt lat="32.509489981457591" lon="-2.502111000940204">
        <ele>1049.4159999999999</ele>
        <time>2010-12-29T11:34:03Z</time>
      </trkpt>
      <trkpt lat="32.509667007252574" lon="-2.502954974770546">
        <ele>1049.8969999999999</ele>
        <time>2010-12-29T11:34:11Z</time>
      </trkpt>
      <trkpt lat="32.509567011147738" lon="-2.503466019406915">
        <ele>1049.8969999999999</ele>
        <time>2010-12-29T11:34:15Z</time>
      </trkpt>
      <trkpt lat="32.5093599781394" lon="-2.50395099632442">
        <ele>1049.8969999999999</ele>
        <time>2010-12-29T11:34:19Z</time>
      </trkpt>
      <trkpt lat="32.509268028661609" lon="-2.504763035103679">
        <ele>1049.8969999999999</ele>
        <time>2010-12-29T11:34:26Z</time>
      </trkpt>
      <trkpt lat="32.509210025891662" lon="-2.505420008674264">
        <ele>1048.9359999999999</ele>
        <time>2010-12-29T11:34:33Z</time>
      </trkpt>
      <trkpt lat="32.509279008954763" lon="-2.505770036950707">
        <ele>1048.4549999999999</ele>
        <time>2010-12-29T11:34:37Z</time>
      </trkpt>
      <trkpt lat="32.50944597646594" lon="-2.506226012483239">
        <ele>1048.4549999999999</ele>
        <time>2010-12-29T11:34:42Z</time>
      </trkpt>
      <trkpt lat="32.509407000616193" lon="-2.506843004375696">
        <ele>1048.9359999999999</ele>
        <time>2010-12-29T11:34:48Z</time>
      </trkpt>
      <trkpt lat="32.509120004251599" lon="-2.507745986804366">
        <ele>1049.4159999999999</ele>
        <time>2010-12-29T11:34:58Z</time>
      </trkpt>
      <trkpt lat="32.509041968733072" lon="-2.50803298316896">
        <ele>1048.9359999999999</ele>
        <time>2010-12-29T11:35:04Z</time>
      </trkpt>
      <trkpt lat="32.508988995105028" lon="-2.508213026449084">
        <ele>1048.4549999999999</ele>
        <time>2010-12-29T11:35:26Z</time>
      </trkpt>
      <trkpt lat="32.508883969858289" lon="-2.508188970386982">
        <ele>1047.4939999999999</ele>
        <time>2010-12-29T11:35:33Z</time>
      </trkpt>
      <trkpt lat="32.508899979293346" lon="-2.508016973733902">
        <ele>1047.9739999999999</ele>
        <time>2010-12-29T11:35:42Z</time>
      </trkpt>
      <trkpt lat="32.509030988439918" lon="-2.507867021486163">
        <ele>1048.4549999999999</ele>
        <time>2010-12-29T11:35:50Z</time>
      </trkpt>
      <trkpt lat="32.509241038933396" lon="-2.507292022928596">
        <ele>1048.9359999999999</ele>
        <time>2010-12-29T11:35:58Z</time>
      </trkpt>
      <trkpt lat="32.509454023092985" lon="-2.506568999961019">
        <ele>1049.4159999999999</ele>
        <time>2010-12-29T11:36:06Z</time>
      </trkpt>
      <trkpt lat="32.509419992566109" lon="-2.506103971973062">
        <ele>1049.8969999999999</ele>
        <time>2010-12-29T11:36:11Z</time>
      </trkpt>
      <trkpt lat="32.509211031720042" lon="-2.505574990063906">
        <ele>1048.4549999999999</ele>
        <time>2010-12-29T11:36:17Z</time>
      </trkpt>
      <trkpt lat="32.509081028401852" lon="-2.505313977599144">
        <ele>1047.9739999999999</ele>
        <time>2010-12-29T11:36:23Z</time>
      </trkpt>
      <trkpt lat="32.508700992912054" lon="-2.505158996209502">
        <ele>1047.4939999999999</ele>
        <time>2010-12-29T11:36:30Z</time>
      </trkpt>
      <trkpt lat="32.508014012128115" lon="-2.505212975665927">
        <ele>1047.0129999999999</ele>
        <time>2010-12-29T11:36:37Z</time>
      </trkpt>
      <trkpt lat="32.507155034691095" lon="-2.505237031728029">
        <ele>1044.1289999999999</ele>
        <time>2010-12-29T11:36:45Z</time>
      </trkpt>
      <trkpt lat="32.506455983966589" lon="-2.505063023418188">
        <ele>1041.7260000000001</ele>
        <time>2010-12-29T11:36:54Z</time>
      </trkpt>
      <trkpt lat="32.505506984889507" lon="-2.504930002614856">
        <ele>1040.2840000000001</ele>
        <time>2010-12-29T11:37:05Z</time>
      </trkpt>
      <trkpt lat="32.505329037085176" lon="-2.504970990121365">
        <ele>1042.2070000000001</ele>
        <time>2010-12-29T11:37:07Z</time>
      </trkpt>
      <trkpt lat="32.505098031833768" lon="-2.504863031208515">
        <ele>1038.3610000000001</ele>
        <time>2010-12-29T11:37:14Z</time>
      </trkpt>
      <trkpt lat="32.505223006010056" lon="-2.504749959334731">
        <ele>1023.941</ele>
        <time>2010-12-29T11:57:26Z</time>
      </trkpt>
      <trkpt lat="32.505100965499878" lon="-2.504916004836559">
        <ele>1024.903</ele>
        <time>2010-12-29T12:03:32Z</time>
      </trkpt>
      <trkpt lat="32.504836013540626" lon="-2.504993034526706">
        <ele>1026.825</ele>
        <time>2010-12-29T12:03:38Z</time>
      </trkpt>
      <trkpt lat="32.5046940241009" lon="-2.505006026476622">
        <ele>1030.1900000000001</ele>
        <time>2010-12-29T12:03:45Z</time>
      </trkpt>
      <trkpt lat="32.504582041874528" lon="-2.504906030371785">
        <ele>1048.9359999999999</ele>
        <time>2010-12-29T12:06:37Z</time>
      </trkpt>
      <trkpt lat="32.504220027476549" lon="-2.504816008731723">
        <ele>1049.8969999999999</ele>
        <time>2010-12-29T12:06:42Z</time>
      </trkpt>
      <trkpt lat="32.503375969827175" lon="-2.504743002355099">
        <ele>1049.8969999999999</ele>
        <time>2010-12-29T12:06:50Z</time>
      </trkpt>
      <trkpt lat="32.502694018185139" lon="-2.504592966288328">
        <ele>1049.4159999999999</ele>
        <time>2010-12-29T12:06:56Z</time>
      </trkpt>
      <trkpt lat="32.501868987455964" lon="-2.504615010693669">
        <ele>1049.8969999999999</ele>
        <time>2010-12-29T12:07:03Z</time>
      </trkpt>
      <trkpt lat="32.501491969451308" lon="-2.504721041768789">
        <ele>1049.8969999999999</ele>
        <time>2010-12-29T12:07:06Z</time>
      </trkpt>
      <trkpt lat="32.500867014750838" lon="-2.504710983484983">
        <ele>1049.4159999999999</ele>
        <time>2010-12-29T12:07:11Z</time>
      </trkpt>
      <trkpt lat="32.500608013942838" lon="-2.504636971279979">
        <ele>1049.4159999999999</ele>
        <time>2010-12-29T12:07:13Z</time>
      </trkpt>
      <trkpt lat="32.499916004016995" lon="-2.504544015973806">
        <ele>1049.4159999999999</ele>
        <time>2010-12-29T12:07:18Z</time>
      </trkpt>
      <trkpt lat="32.499241009354591" lon="-2.504664966836572">
        <ele>1049.4159999999999</ele>
        <time>2010-12-29T12:07:23Z</time>
      </trkpt>
      <trkpt lat="32.498398963361979" lon="-2.504984987899661">
        <ele>1048.9359999999999</ele>
        <time>2010-12-29T12:07:29Z</time>
      </trkpt>
      <trkpt lat="32.497675018385053" lon="-2.504937965422869">
        <ele>1048.9359999999999</ele>
        <time>2010-12-29T12:07:34Z</time>
      </trkpt>
      <trkpt lat="32.496862979605794" lon="-2.504879040643573">
        <ele>1048.9359999999999</ele>
        <time>2010-12-29T12:07:40Z</time>
      </trkpt>
      <trkpt lat="32.496385965496302" lon="-2.504740990698338">
        <ele>1048.9359999999999</ele>
        <time>2010-12-29T12:07:44Z</time>
      </trkpt>
      <trkpt lat="32.495996961370111" lon="-2.504680976271629">
        <ele>1048.9359999999999</ele>
        <time>2010-12-29T12:07:47Z</time>
      </trkpt>
      <trkpt lat="32.495579039677978" lon="-2.504704026505351">
        <ele>1048.9359999999999</ele>
        <time>2010-12-29T12:07:50Z</time>
      </trkpt>
      <trkpt lat="32.494884012266994" lon="-2.504679970443249">
        <ele>1048.9359999999999</ele>
        <time>2010-12-29T12:07:55Z</time>
      </trkpt>
      <trkpt lat="32.49371699988842" lon="-2.504959003999829">
        <ele>1048.4549999999999</ele>
        <time>2010-12-29T12:08:03Z</time>
      </trkpt>
      <trkpt lat="32.493418017402291" lon="-2.504993034526706">
        <ele>1048.4549999999999</ele>
        <time>2010-12-29T12:08:05Z</time>
      </trkpt>
      <trkpt lat="32.492256034165621" lon="-2.505327975377441">
        <ele>1047.4939999999999</ele>
        <time>2010-12-29T12:08:13Z</time>
      </trkpt>
      <trkpt lat="32.492115972563624" lon="-2.505353959277272">
        <ele>1047.9739999999999</ele>
        <time>2010-12-29T12:08:14Z</time>
      </trkpt>
      <trkpt lat="32.491584978997707" lon="-2.505556968972087">
        <ele>1047.9739999999999</ele>
        <time>2010-12-29T12:08:18Z</time>
      </trkpt>
      <trkpt lat="32.490958012640476" lon="-2.505573984235525">
        <ele>1047.4939999999999</ele>
        <time>2010-12-29T12:08:23Z</time>
      </trkpt>
      <trkpt lat="32.49038603156805" lon="-2.505701975896955">
        <ele>1047.9739999999999</ele>
        <time>2010-12-29T12:08:29Z</time>
      </trkpt>
      <trkpt lat="32.490314031019807" lon="-2.505804989486933">
        <ele>1047.9739999999999</ele>
        <time>2010-12-29T12:08:30Z</time>
      </trkpt>
      <trkpt lat="32.489967020228505" lon="-2.506214026361704">
        <ele>1047.4939999999999</ele>
        <time>2010-12-29T12:08:34Z</time>
      </trkpt>
      <trkpt lat="32.489681029692292" lon="-2.506879968568683">
        <ele>1047.9739999999999</ele>
        <time>2010-12-29T12:08:39Z</time>
      </trkpt>
      <trkpt lat="32.489238968119025" lon="-2.508818032220006">
        <ele>1046.5319999999999</ele>
        <time>2010-12-29T12:08:50Z</time>
      </trkpt>
      <trkpt lat="32.488742005079985" lon="-2.511074021458626">
        <ele>1033.5540000000001</ele>
        <time>2010-12-29T12:09:02Z</time>
      </trkpt>
      <trkpt lat="32.488279994577169" lon="-2.51316899433732">
        <ele>1024.903</ele>
        <time>2010-12-29T12:09:13Z</time>
      </trkpt>
      <trkpt lat="32.487775990739465" lon="-2.515287017449737">
        <ele>1019.135</ele>
        <time>2010-12-29T12:09:24Z</time>
      </trkpt>
      <trkpt lat="32.487368965521455" lon="-2.517151990905404">
        <ele>1016.251</ele>
        <time>2010-12-29T12:09:34Z</time>
      </trkpt>
      <trkpt lat="32.487016003578901" lon="-2.518928032368422">
        <ele>1014.809</ele>
        <time>2010-12-29T12:09:45Z</time>
      </trkpt>
      <trkpt lat="32.486681984737515" lon="-2.520731985569">
        <ele>1014.328</ele>
        <time>2010-12-29T12:09:56Z</time>
      </trkpt>
      <trkpt lat="32.486293986439705" lon="-2.522519007325172">
        <ele>1013.367</ele>
        <time>2010-12-29T12:10:07Z</time>
      </trkpt>
      <trkpt lat="32.486096005886793" lon="-2.523710997775197">
        <ele>1012.886</ele>
        <time>2010-12-29T12:10:14Z</time>
      </trkpt>
      <trkpt lat="32.485754024237394" lon="-2.525508999824524">
        <ele>1012.886</ele>
        <time>2010-12-29T12:10:24Z</time>
      </trkpt>
      <trkpt lat="32.485391004011035" lon="-2.527503976598382">
        <ele>1012.886</ele>
        <time>2010-12-29T12:10:34Z</time>
      </trkpt>
      <trkpt lat="32.485146000981331" lon="-2.529487973079085">
        <ele>1013.367</ele>
        <time>2010-12-29T12:10:43Z</time>
      </trkpt>
      <trkpt lat="32.484954977408051" lon="-2.530665965750814">
        <ele>1016.251</ele>
        <time>2010-12-29T12:10:49Z</time>
      </trkpt>
      <trkpt lat="32.484595980495214" lon="-2.533064028248191">
        <ele>1020.577</ele>
        <time>2010-12-29T12:11:01Z</time>
      </trkpt>
      <trkpt lat="32.48417898081243" lon="-2.535839024931192">
        <ele>1024.903</ele>
        <time>2010-12-29T12:11:14Z</time>
      </trkpt>
      <trkpt lat="32.483827024698257" lon="-2.538138013333082">
        <ele>1027.306</ele>
        <time>2010-12-29T12:11:24Z</time>
      </trkpt>
      <trkpt lat="32.483344981446862" lon="-2.540595000609756">
        <ele>1029.7090000000001</ele>
        <time>2010-12-29T12:11:35Z</time>
      </trkpt>
      <trkpt lat="32.482837038114667" lon="-2.542984010651708">
        <ele>1026.825</ele>
        <time>2010-12-29T12:11:47Z</time>
      </trkpt>
      <trkpt lat="32.482492960989475" lon="-2.54470800049603">
        <ele>1023.461</ele>
        <time>2010-12-29T12:11:56Z</time>
      </trkpt>
      <trkpt lat="32.482063975185156" lon="-2.546623013913631">
        <ele>1020.096</ele>
        <time>2010-12-29T12:12:06Z</time>
      </trkpt>
      <trkpt lat="32.481615962460637" lon="-2.548791998997331">
        <ele>1018.173</ele>
        <time>2010-12-29T12:12:17Z</time>
      </trkpt>
      <trkpt lat="32.480995031073689" lon="-2.551374966278672">
        <ele>1017.212</ele>
        <time>2010-12-29T12:12:30Z</time>
      </trkpt>
      <trkpt lat="32.480569984763861" lon="-2.552796034142375">
        <ele>1016.731</ele>
        <time>2010-12-29T12:12:38Z</time>
      </trkpt>
      <trkpt lat="32.47990102507174" lon="-2.554691014811397">
        <ele>1015.77</ele>
        <time>2010-12-29T12:12:48Z</time>
      </trkpt>
      <trkpt lat="32.479317979887128" lon="-2.557006012648344">
        <ele>1015.29</ele>
        <time>2010-12-29T12:12:59Z</time>
      </trkpt>
      <trkpt lat="32.478797966614366" lon="-2.559623010456562">
        <ele>1015.29</ele>
        <time>2010-12-29T12:13:11Z</time>
      </trkpt>
      <trkpt lat="32.478250963613391" lon="-2.562136994674802">
        <ele>1030.1900000000001</ele>
        <time>2010-12-29T12:13:23Z</time>
      </trkpt>
      <trkpt lat="32.47777696698904" lon="-2.56473496556282">
        <ele>1039.8030000000001</ele>
        <time>2010-12-29T12:13:35Z</time>
      </trkpt>
      <trkpt lat="32.477370025590062" lon="-2.566908979788423">
        <ele>1044.1289999999999</ele>
        <time>2010-12-29T12:13:45Z</time>
      </trkpt>
      <trkpt lat="32.476874990388751" lon="-2.569455988705158">
        <ele>1047.9739999999999</ele>
        <time>2010-12-29T12:13:57Z</time>
      </trkpt>
      <trkpt lat="32.476568967103958" lon="-2.5717160012573">
        <ele>1050.3779999999999</ele>
        <time>2010-12-29T12:14:08Z</time>
      </trkpt>
      <trkpt lat="32.47618599794805" lon="-2.573696980252862">
        <ele>1050.8579999999999</ele>
        <time>2010-12-29T12:14:18Z</time>
      </trkpt>
      <trkpt lat="32.475920962169766" lon="-2.575158029794693">
        <ele>1048.9359999999999</ele>
        <time>2010-12-29T12:14:26Z</time>
      </trkpt>
      <trkpt lat="32.475601024925709" lon="-2.577112019062042">
        <ele>1046.5319999999999</ele>
        <time>2010-12-29T12:14:36Z</time>
      </trkpt>
      <trkpt lat="32.47506701387465" lon="-2.580105029046536">
        <ele>1048.9359999999999</ele>
        <time>2010-12-29T12:14:50Z</time>
      </trkpt>
      <trkpt lat="32.474495032802224" lon="-2.583473967388272">
        <ele>1052.3</ele>
        <time>2010-12-29T12:15:05Z</time>
      </trkpt>
      <trkpt lat="32.474192027002573" lon="-2.585580004379153">
        <ele>1051.3389999999999</ele>
        <time>2010-12-29T12:15:15Z</time>
      </trkpt>
      <trkpt lat="32.473964039236307" lon="-2.587093021720648">
        <ele>1052.3</ele>
        <time>2010-12-29T12:15:23Z</time>
      </trkpt>
      <trkpt lat="32.473557014018297" lon="-2.589325038716197">
        <ele>1054.223</ele>
        <time>2010-12-29T12:15:34Z</time>
      </trkpt>
      <trkpt lat="32.473194999620318" lon="-2.591102002188563">
        <ele>1055.665</ele>
        <time>2010-12-29T12:15:43Z</time>
      </trkpt>
      <trkpt lat="32.472920995205641" lon="-2.59281300008297">
        <ele>1056.146</ele>
        <time>2010-12-29T12:15:52Z</time>
      </trkpt>
      <trkpt lat="32.472534002736211" lon="-2.594765983521938">
        <ele>1056.626</ele>
        <time>2010-12-29T12:16:02Z</time>
      </trkpt>
      <trkpt lat="32.472094958648086" lon="-2.597280973568559">
        <ele>1057.588</ele>
        <time>2010-12-29T12:16:14Z</time>
      </trkpt>
      <trkpt lat="32.471665972843766" lon="-2.59951701387763">
        <ele>1057.588</ele>
        <time>2010-12-29T12:16:25Z</time>
      </trkpt>
      <trkpt lat="32.471425998955965" lon="-2.600966999307275">
        <ele>1058.068</ele>
        <time>2010-12-29T12:16:33Z</time>
      </trkpt>
      <trkpt lat="32.471102038398385" lon="-2.602923000231385">
        <ele>1057.107</ele>
        <time>2010-12-29T12:16:43Z</time>
      </trkpt>
      <trkpt lat="32.470740024000406" lon="-2.604569960385561">
        <ele>1057.107</ele>
        <time>2010-12-29T12:16:51Z</time>
      </trkpt>
      <trkpt lat="32.470397036522627" lon="-2.60628598742187">
        <ele>1057.107</ele>
        <time>2010-12-29T12:17:00Z</time>
      </trkpt>
      <trkpt lat="32.470064023509622" lon="-2.607597000896931">
        <ele>1057.588</ele>
        <time>2010-12-29T12:17:08Z</time>
      </trkpt>
      <trkpt lat="32.469519032165408" lon="-2.609448982402682">
        <ele>1058.068</ele>
        <time>2010-12-29T12:17:19Z</time>
      </trkpt>
      <trkpt lat="32.468899022787809" lon="-2.61172198690474">
        <ele>1058.068</ele>
        <time>2010-12-29T12:17:32Z</time>
      </trkpt>
      <trkpt lat="32.468283958733082" lon="-2.614187020808458">
        <ele>1058.068</ele>
        <time>2010-12-29T12:17:45Z</time>
      </trkpt>
      <trkpt lat="32.467769980430603" lon="-2.616364974528551">
        <ele>1058.068</ele>
        <time>2010-12-29T12:17:57Z</time>
      </trkpt>
      <trkpt lat="32.467292966321111" lon="-2.618335979059339">
        <ele>1058.549</ele>
        <time>2010-12-29T12:18:08Z</time>
      </trkpt>
      <trkpt lat="32.466917959973216" lon="-2.620599009096623">
        <ele>1058.068</ele>
        <time>2010-12-29T12:18:20Z</time>
      </trkpt>
      <trkpt lat="32.466535996645689" lon="-2.622978966683149">
        <ele>1058.549</ele>
        <time>2010-12-29T12:18:32Z</time>
      </trkpt>
      <trkpt lat="32.46606501750648" lon="-2.625237973406911">
        <ele>1059.03</ele>
        <time>2010-12-29T12:18:44Z</time>
      </trkpt>
      <trkpt lat="32.465853039175272" lon="-2.626153025776148">
        <ele>1058.549</ele>
        <time>2010-12-29T12:18:49Z</time>
      </trkpt>
      <trkpt lat="32.465552967041731" lon="-2.626798013225198">
        <ele>1058.549</ele>
        <time>2010-12-29T12:18:53Z</time>
      </trkpt>
      <trkpt lat="32.465302012860775" lon="-2.627936024218798">
        <ele>1058.549</ele>
        <time>2010-12-29T12:18:59Z</time>
      </trkpt>
      <trkpt lat="32.465106965973973" lon="-2.629150981083512">
        <ele>1059.03</ele>
        <time>2010-12-29T12:19:05Z</time>
      </trkpt>
      <trkpt lat="32.46447597630322" lon="-2.63215396553278">
        <ele>1058.549</ele>
        <time>2010-12-29T12:19:19Z</time>
      </trkpt>
      <trkpt lat="32.463846998289227" lon="-2.634861990809441">
        <ele>1057.107</ele>
        <time>2010-12-29T12:19:31Z</time>
      </trkpt>
      <trkpt lat="32.463591014966369" lon="-2.635905034840107">
        <ele>1055.665</ele>
        <time>2010-12-29T12:19:37Z</time>
      </trkpt>
      <trkpt lat="32.4633579980582" lon="-2.637315960600972">
        <ele>1055.184</ele>
        <time>2010-12-29T12:19:45Z</time>
      </trkpt>
      <trkpt lat="32.46312104165554" lon="-2.638692017644644">
        <ele>1055.665</ele>
        <time>2010-12-29T12:19:54Z</time>
      </trkpt>
      <trkpt lat="32.462876960635185" lon="-2.640378037467599">
        <ele>1059.03</ele>
        <time>2010-12-29T12:20:04Z</time>
      </trkpt>
      <trkpt lat="32.462706975638866" lon="-2.642022985965014">
        <ele>1061.914</ele>
        <time>2010-12-29T12:20:13Z</time>
      </trkpt>
      <trkpt lat="32.462744023650885" lon="-2.643692996352911">
        <ele>1063.836</ele>
        <time>2010-12-29T12:20:22Z</time>
      </trkpt>
      <trkpt lat="32.462824992835522" lon="-2.645999025553465">
        <ele>1063.355</ele>
        <time>2010-12-29T12:20:34Z</time>
      </trkpt>
      <trkpt lat="32.462617037817836" lon="-2.647190010175109">
        <ele>1062.875</ele>
        <time>2010-12-29T12:20:40Z</time>
      </trkpt>
      <trkpt lat="32.462028041481972" lon="-2.648731023073196">
        <ele>1062.875</ele>
        <time>2010-12-29T12:20:48Z</time>
      </trkpt>
      <trkpt lat="32.461074013262987" lon="-2.651398982852697">
        <ele>1062.875</ele>
        <time>2010-12-29T12:21:01Z</time>
      </trkpt>
      <trkpt lat="32.460145968943834" lon="-2.653989996761084">
        <ele>1063.836</ele>
        <time>2010-12-29T12:21:13Z</time>
      </trkpt>
      <trkpt lat="32.459419006481767" lon="-2.655925964936614">
        <ele>1065.759</ele>
        <time>2010-12-29T12:21:23Z</time>
      </trkpt>
      <trkpt lat="32.458838978782296" lon="-2.657016031444073">
        <ele>1063.355</ele>
        <time>2010-12-29T12:21:30Z</time>
      </trkpt>
      <trkpt lat="32.458603028208017" lon="-2.657422972843051">
        <ele>1060.471</ele>
        <time>2010-12-29T12:21:33Z</time>
      </trkpt>
      <trkpt lat="32.458078991621733" lon="-2.657804014161229">
        <ele>1056.626</ele>
        <time>2010-12-29T12:21:38Z</time>
      </trkpt>
      <trkpt lat="32.457452025264502" lon="-2.658024039119482">
        <ele>1053.2619999999999</ele>
        <time>2010-12-29T12:21:43Z</time>
      </trkpt>
      <trkpt lat="32.456938968971372" lon="-2.658573975786567">
        <ele>1052.3</ele>
        <time>2010-12-29T12:21:49Z</time>
      </trkpt>
      <trkpt lat="32.456905022263527" lon="-2.659135982394218">
        <ele>1052.3</ele>
        <time>2010-12-29T12:21:53Z</time>
      </trkpt>
      <trkpt lat="32.457095040008426" lon="-2.660730974748731">
        <ele>1056.626</ele>
        <time>2010-12-29T12:22:02Z</time>
      </trkpt>
      <trkpt lat="32.456978028640151" lon="-2.661860017105937">
        <ele>1057.107</ele>
        <time>2010-12-29T12:22:08Z</time>
      </trkpt>
      <trkpt lat="32.456468995660543" lon="-2.664202004671097">
        <ele>1059.51</ele>
        <time>2010-12-29T12:22:20Z</time>
      </trkpt>
      <trkpt lat="32.456120979040861" lon="-2.665782999247313">
        <ele>1061.433</ele>
        <time>2010-12-29T12:22:29Z</time>
      </trkpt>
      <trkpt lat="32.45598996989429" lon="-2.666178960353136">
        <ele>1059.991</ele>
        <time>2010-12-29T12:22:33Z</time>
      </trkpt>
      <trkpt lat="32.455799030140042" lon="-2.666557990014553">
        <ele>1055.665</ele>
        <time>2010-12-29T12:22:39Z</time>
      </trkpt>
      <trkpt lat="32.45575200766325" lon="-2.666795030236244">
        <ele>1055.665</ele>
        <time>2010-12-29T12:22:42Z</time>
      </trkpt>
      <trkpt lat="32.455579005181789" lon="-2.667370028793812">
        <ele>1058.068</ele>
        <time>2010-12-29T12:22:48Z</time>
      </trkpt>
      <trkpt lat="32.455009035766125" lon="-2.66826999373734">
        <ele>1058.549</ele>
        <time>2010-12-29T12:22:56Z</time>
      </trkpt>
      <trkpt lat="32.45441903360188" lon="-2.669055964797735">
        <ele>1056.146</ele>
        <time>2010-12-29T12:23:05Z</time>
      </trkpt>
      <trkpt lat="32.454047966748476" lon="-2.669810000807047">
        <ele>1053.2619999999999</ele>
        <time>2010-12-29T12:23:13Z</time>
      </trkpt>
      <trkpt lat="32.453503981232643" lon="-2.670318027958274">
        <ele>1051.8199999999999</ele>
        <time>2010-12-29T12:23:20Z</time>
      </trkpt>
      <trkpt lat="32.452792022377253" lon="-2.670554984360933">
        <ele>1052.3</ele>
        <time>2010-12-29T12:23:27Z</time>
      </trkpt>
      <trkpt lat="32.451959028840065" lon="-2.670599995180965">
        <ele>1051.3389999999999</ele>
        <time>2010-12-29T12:23:35Z</time>
      </trkpt>
      <trkpt lat="32.451745038852096" lon="-2.670592032372952">
        <ele>1051.3389999999999</ele>
        <time>2010-12-29T12:23:37Z</time>
      </trkpt>
      <trkpt lat="32.451170040294528" lon="-2.670940971001983">
        <ele>1051.3389999999999</ele>
        <time>2010-12-29T12:23:43Z</time>
      </trkpt>
      <trkpt lat="32.450566962361336" lon="-2.671990972012281">
        <ele>1050.3779999999999</ele>
        <time>2010-12-29T12:23:51Z</time>
      </trkpt>
      <trkpt lat="32.450305027887225" lon="-2.672508973628283">
        <ele>1050.3779999999999</ele>
        <time>2010-12-29T12:23:55Z</time>
      </trkpt>
      <trkpt lat="32.449866989627481" lon="-2.672899989411235">
        <ele>1049.8969999999999</ele>
        <time>2010-12-29T12:24:00Z</time>
      </trkpt>
      <trkpt lat="32.448783041909337" lon="-2.673330986872315">
        <ele>1048.9359999999999</ele>
        <time>2010-12-29T12:24:09Z</time>
      </trkpt>
      <trkpt lat="32.446872973814607" lon="-2.674120981246233">
        <ele>1047.0129999999999</ele>
        <time>2010-12-29T12:24:24Z</time>
      </trkpt>
      <trkpt lat="32.44627601467073" lon="-2.674558013677597">
        <ele>1048.9359999999999</ele>
        <time>2010-12-29T12:24:30Z</time>
      </trkpt>
      <trkpt lat="32.44597602635622" lon="-2.674974007532001">
        <ele>1049.4159999999999</ele>
        <time>2010-12-29T12:24:34Z</time>
      </trkpt>
      <trkpt lat="32.445427011698484" lon="-2.675713961943984">
        <ele>1049.4159999999999</ele>
        <time>2010-12-29T12:24:41Z</time>
      </trkpt>
      <trkpt lat="32.44451698847115" lon="-2.676398009061813">
        <ele>1053.742</ele>
        <time>2010-12-29T12:24:50Z</time>
      </trkpt>
      <trkpt lat="32.444413974881172" lon="-2.676475960761309">
        <ele>1054.223</ele>
        <time>2010-12-29T12:24:51Z</time>
      </trkpt>
      <trkpt lat="32.44393402710557" lon="-2.676666984334588">
        <ele>1053.742</ele>
        <time>2010-12-29T12:24:55Z</time>
      </trkpt>
      <trkpt lat="32.44301101192832" lon="-2.676869994029403">
        <ele>1051.8199999999999</ele>
        <time>2010-12-29T12:25:02Z</time>
      </trkpt>
      <trkpt lat="32.442467026412487" lon="-2.676866976544261">
        <ele>1050.3779999999999</ele>
        <time>2010-12-29T12:25:06Z</time>
      </trkpt>
      <trkpt lat="32.441960005089641" lon="-2.676887009292841">
        <ele>1050.3779999999999</ele>
        <time>2010-12-29T12:25:10Z</time>
      </trkpt>
      <trkpt lat="32.441382994875312" lon="-2.676701014861465">
        <ele>1049.4159999999999</ele>
        <time>2010-12-29T12:25:15Z</time>
      </trkpt>
      <trkpt lat="32.440694002434611" lon="-2.676703026518226">
        <ele>1048.9359999999999</ele>
        <time>2010-12-29T12:25:21Z</time>
      </trkpt>
      <trkpt lat="32.439512992277741" lon="-2.67703796736896">
        <ele>1048.9359999999999</ele>
        <time>2010-12-29T12:25:30Z</time>
      </trkpt>
      <trkpt lat="32.438231986016035" lon="-2.67725296318531">
        <ele>1048.4549999999999</ele>
        <time>2010-12-29T12:25:39Z</time>
      </trkpt>
      <trkpt lat="32.437292961403728" lon="-2.677332004532218">
        <ele>1049.4159999999999</ele>
        <time>2010-12-29T12:25:46Z</time>
      </trkpt>
      <trkpt lat="32.43716798722744" lon="-2.677362011745572">
        <ele>1049.4159999999999</ele>
        <time>2010-12-29T12:25:47Z</time>
      </trkpt>
      <trkpt lat="32.436587959527969" lon="-2.677619000896812">
        <ele>1049.8969999999999</ele>
        <time>2010-12-29T12:25:52Z</time>
      </trkpt>
      <trkpt lat="32.435827972367406" lon="-2.678335988894105">
        <ele>1053.742</ele>
        <time>2010-12-29T12:26:00Z</time>
      </trkpt>
      <trkpt lat="32.434989027678967" lon="-2.679171999916434">
        <ele>1055.665</ele>
        <time>2010-12-29T12:26:08Z</time>
      </trkpt>
      <trkpt lat="32.434776965528727" lon="-2.679348019883037">
        <ele>1055.665</ele>
        <time>2010-12-29T12:26:10Z</time>
      </trkpt>
      <trkpt lat="32.433458995074034" lon="-2.67997900955379">
        <ele>1051.8199999999999</ele>
        <time>2010-12-29T12:26:21Z</time>
      </trkpt>
      <trkpt lat="32.432348979637027" lon="-2.680482007563114">
        <ele>1049.8969999999999</ele>
        <time>2010-12-29T12:26:30Z</time>
      </trkpt>
      <trkpt lat="32.430941993370652" lon="-2.681115008890629">
        <ele>1048.4549999999999</ele>
        <time>2010-12-29T12:26:40Z</time>
      </trkpt>
      <trkpt lat="32.428989009931684" lon="-2.681965017691255">
        <ele>1047.9739999999999</ele>
        <time>2010-12-29T12:26:53Z</time>
      </trkpt>
      <trkpt lat="32.427748991176486" lon="-2.68242702819407">
        <ele>1047.9739999999999</ele>
        <time>2010-12-29T12:27:01Z</time>
      </trkpt>
      <trkpt lat="32.426765039563179" lon="-2.68275098875165">
        <ele>1047.9739999999999</ele>
        <time>2010-12-29T12:27:08Z</time>
      </trkpt>
      <trkpt lat="32.426272016018629" lon="-2.682881997898221">
        <ele>1048.4549999999999</ele>
        <time>2010-12-29T12:27:12Z</time>
      </trkpt>
      <trkpt lat="32.425835989415646" lon="-2.682749982923269">
        <ele>1050.3779999999999</ele>
        <time>2010-12-29T12:27:17Z</time>
      </trkpt>
      <trkpt lat="32.425443967804313" lon="-2.682559965178371">
        <ele>1054.704</ele>
        <time>2010-12-29T12:27:22Z</time>
      </trkpt>
      <trkpt lat="32.424478959292173" lon="-2.682801028713584">
        <ele>1053.2619999999999</ele>
        <time>2010-12-29T12:27:32Z</time>
      </trkpt>
      <trkpt lat="32.423786027356982" lon="-2.683320036157966">
        <ele>1057.588</ele>
        <time>2010-12-29T12:27:40Z</time>
      </trkpt>
      <trkpt lat="32.423005001619458" lon="-2.684054039418697">
        <ele>1065.278</ele>
        <time>2010-12-29T12:27:51Z</time>
      </trkpt>
      <trkpt lat="32.422137977555394" lon="-2.684773961082101">
        <ele>1070.5650000000001</ele>
        <time>2010-12-29T12:28:01Z</time>
      </trkpt>
      <trkpt lat="32.421400034800172" lon="-2.685471000149846">
        <ele>1073.9300000000001</ele>
        <time>2010-12-29T12:28:09Z</time>
      </trkpt>
      <trkpt lat="32.420576009899378" lon="-2.686071982607245">
        <ele>1076.3330000000001</ele>
        <time>2010-12-29T12:28:17Z</time>
      </trkpt>
      <trkpt lat="32.419375972822309" lon="-2.686848985031247">
        <ele>1079.2170000000001</ele>
        <time>2010-12-29T12:28:28Z</time>
      </trkpt>
      <trkpt lat="32.418558988720179" lon="-2.687422977760434">
        <ele>1081.1400000000001</ele>
        <time>2010-12-29T12:28:35Z</time>
      </trkpt>
      <trkpt lat="32.418223964050412" lon="-2.687705028802156">
        <ele>1081.1400000000001</ele>
        <time>2010-12-29T12:28:38Z</time>
      </trkpt>
      <trkpt lat="32.417535977438092" lon="-2.688213977962732">
        <ele>1081.1400000000001</ele>
        <time>2010-12-29T12:28:44Z</time>
      </trkpt>
      <trkpt lat="32.416634000837803" lon="-2.689125007018447">
        <ele>1076.8140000000001</ele>
        <time>2010-12-29T12:28:52Z</time>
      </trkpt>
      <trkpt lat="32.415532032027841" lon="-2.690026983618736">
        <ele>1079.6980000000001</ele>
        <time>2010-12-29T12:29:01Z</time>
      </trkpt>
      <trkpt lat="32.415410997346044" lon="-2.690118011087179">
        <ele>1079.6980000000001</ele>
        <time>2010-12-29T12:29:02Z</time>
      </trkpt>
      <trkpt lat="32.414423022419214" lon="-2.690496034920216">
        <ele>1079.2170000000001</ele>
        <time>2010-12-29T12:29:09Z</time>
      </trkpt>
      <trkpt lat="32.413257015869021" lon="-2.690842039883137">
        <ele>1077.2950000000001</ele>
        <time>2010-12-29T12:29:17Z</time>
      </trkpt>
      <trkpt lat="32.412128979340196" lon="-2.690900964662433">
        <ele>1072.0070000000001</ele>
        <time>2010-12-29T12:29:25Z</time>
      </trkpt>
      <trkpt lat="32.41095601581037" lon="-2.691168012097478">
        <ele>1067.201</ele>
        <time>2010-12-29T12:29:33Z</time>
      </trkpt>
      <trkpt lat="32.410814026370645" lon="-2.691230038180947">
        <ele>1066.72</ele>
        <time>2010-12-29T12:29:34Z</time>
      </trkpt>
      <trkpt lat="32.409914983436465" lon="-2.691951971501112">
        <ele>1073.9300000000001</ele>
        <time>2010-12-29T12:29:41Z</time>
      </trkpt>
      <trkpt lat="32.408296018838882" lon="-2.69343095831573">
        <ele>1082.1010000000001</ele>
        <time>2010-12-29T12:29:53Z</time>
      </trkpt>
      <trkpt lat="32.407227996736765" lon="-2.694581039249897">
        <ele>1084.5050000000001</ele>
        <time>2010-12-29T12:30:02Z</time>
      </trkpt>
      <trkpt lat="32.406792975962162" lon="-2.695085965096951">
        <ele>1082.5820000000001</ele>
        <time>2010-12-29T12:30:07Z</time>
      </trkpt>
      <trkpt lat="32.406652998179197" lon="-2.695237006992102">
        <ele>1082.1010000000001</ele>
        <time>2010-12-29T12:30:09Z</time>
      </trkpt>
      <trkpt lat="32.406305987387896" lon="-2.695477986708283">
        <ele>1083.0619999999999</ele>
        <time>2010-12-29T12:30:13Z</time>
      </trkpt>
      <trkpt lat="32.405717996880412" lon="-2.696191035211086">
        <ele>1077.7750000000001</ele>
        <time>2010-12-29T12:30:20Z</time>
      </trkpt>
      <trkpt lat="32.405636021867394" lon="-2.696298994123936">
        <ele>1076.8140000000001</ele>
        <time>2010-12-29T12:30:21Z</time>
      </trkpt>
      <trkpt lat="32.405129000544548" lon="-2.696676012128592">
        <ele>1074.8910000000001</ele>
        <time>2010-12-29T12:30:26Z</time>
      </trkpt>
      <trkpt lat="32.404773021116853" lon="-2.696834011003375">
        <ele>1072.9690000000001</ele>
        <time>2010-12-29T12:30:29Z</time>
      </trkpt>
      <trkpt lat="32.404154017567635" lon="-2.696839040145278">
        <ele>1071.046</ele>
        <time>2010-12-29T12:30:35Z</time>
      </trkpt>
      <trkpt lat="32.403516992926598" lon="-2.69701698794961">
        <ele>1070.5650000000001</ele>
        <time>2010-12-29T12:30:41Z</time>
      </trkpt>
      <trkpt lat="32.402794975787401" lon="-2.697502970695496">
        <ele>1076.8140000000001</ele>
        <time>2010-12-29T12:30:48Z</time>
      </trkpt>
      <trkpt lat="32.402038006111979" lon="-2.698195986449719">
        <ele>1084.0239999999999</ele>
        <time>2010-12-29T12:30:56Z</time>
      </trkpt>
      <trkpt lat="32.401499971747398" lon="-2.698239991441369">
        <ele>1080.1780000000001</ele>
        <time>2010-12-29T12:31:01Z</time>
      </trkpt>
      <trkpt lat="32.401021029800177" lon="-2.698021978139877">
        <ele>1078.2560000000001</ele>
        <time>2010-12-29T12:31:06Z</time>
      </trkpt>
      <trkpt lat="32.400184012949467" lon="-2.697817962616682">
        <ele>1075.8530000000001</ele>
        <time>2010-12-29T12:31:15Z</time>
      </trkpt>
      <trkpt lat="32.399407010525465" lon="-2.697631968185306">
        <ele>1080.1780000000001</ele>
        <time>2010-12-29T12:31:21Z</time>
      </trkpt>
      <trkpt lat="32.398765962570906" lon="-2.697224020957947">
        <ele>1089.7919999999999</ele>
        <time>2010-12-29T12:31:27Z</time>
      </trkpt>
      <trkpt lat="32.398242009803653" lon="-2.697202982380986">
        <ele>1094.598</ele>
        <time>2010-12-29T12:31:32Z</time>
      </trkpt>
      <trkpt lat="32.397970017045736" lon="-2.69738101400435">
        <ele>1097.482</ele>
        <time>2010-12-29T12:31:35Z</time>
      </trkpt>
      <trkpt lat="32.397496020421386" lon="-2.69783103838563">
        <ele>1100.847</ele>
        <time>2010-12-29T12:31:42Z</time>
      </trkpt>
      <trkpt lat="32.397040966898203" lon="-2.698429003357887">
        <ele>1104.692</ele>
        <time>2010-12-29T12:31:51Z</time>
      </trkpt>
      <trkpt lat="32.396780038252473" lon="-2.698807027190924">
        <ele>1106.615</ele>
        <time>2010-12-29T12:31:55Z</time>
      </trkpt>
      <trkpt lat="32.39615298807621" lon="-2.699193013831973">
        <ele>1108.057</ele>
        <time>2010-12-29T12:32:02Z</time>
      </trkpt>
      <trkpt lat="32.395501965656877" lon="-2.699369033798575">
        <ele>1109.499</ele>
        <time>2010-12-29T12:32:08Z</time>
      </trkpt>
      <trkpt lat="32.395245982334018" lon="-2.699498031288385">
        <ele>1110.46</ele>
        <time>2010-12-29T12:32:11Z</time>
      </trkpt>
      <trkpt lat="32.394905006513" lon="-2.699538012966514">
        <ele>1111.421</ele>
        <time>2010-12-29T12:32:15Z</time>
      </trkpt>
      <trkpt lat="32.394305029883981" lon="-2.69948897883296">
        <ele>1113.8240000000001</ele>
        <time>2010-12-29T12:32:22Z</time>
      </trkpt>
      <trkpt lat="32.394049968570471" lon="-2.699387976899743">
        <ele>1115.2670000000001</ele>
        <time>2010-12-29T12:32:25Z</time>
      </trkpt>
      <trkpt lat="32.393608996644616" lon="-2.699212962761521">
        <ele>1117.1890000000001</ele>
        <time>2010-12-29T12:32:30Z</time>
      </trkpt>
      <trkpt lat="32.393272966146469" lon="-2.6989930216223">
        <ele>1118.6310000000001</ele>
        <time>2010-12-29T12:32:34Z</time>
      </trkpt>
      <trkpt lat="32.392743984237313" lon="-2.698652967810631">
        <ele>1122.4770000000001</ele>
        <time>2010-12-29T12:32:41Z</time>
      </trkpt>
      <trkpt lat="32.392600988969207" lon="-2.698573004454374">
        <ele>1123.9179999999999</ele>
        <time>2010-12-29T12:32:43Z</time>
      </trkpt>
      <trkpt lat="32.392490012571216" lon="-2.698484994471073">
        <ele>1125.3599999999999</ele>
        <time>2010-12-29T12:32:45Z</time>
      </trkpt>
      <trkpt lat="32.392150964587927" lon="-2.698364965617657">
        <ele>1128.7249999999999</ele>
        <time>2010-12-29T12:32:52Z</time>
      </trkpt>
      <trkpt lat="32.392067983746529" lon="-2.698269998654723">
        <ele>1129.2059999999999</ele>
        <time>2010-12-29T12:32:54Z</time>
      </trkpt>
      <trkpt lat="32.391838990151882" lon="-2.698076041415334">
        <ele>1128.7249999999999</ele>
        <time>2010-12-29T12:32:59Z</time>
      </trkpt>
      <trkpt lat="32.391508994624019" lon="-2.697886023670435">
        <ele>1127.2829999999999</ele>
        <time>2010-12-29T12:33:04Z</time>
      </trkpt>
      <trkpt lat="32.390822013840079" lon="-2.69746701233089">
        <ele>1124.8800000000001</ele>
        <time>2010-12-29T12:33:12Z</time>
      </trkpt>
      <trkpt lat="32.390063032507896" lon="-2.697003995999694">
        <ele>1123.4380000000001</ele>
        <time>2010-12-29T12:33:20Z</time>
      </trkpt>
      <trkpt lat="32.389972005039454" lon="-2.696967031806707">
        <ele>1122.9570000000001</ele>
        <time>2010-12-29T12:33:21Z</time>
      </trkpt>
      <trkpt lat="32.389653995633125" lon="-2.696703001856804">
        <ele>1121.5150000000001</ele>
        <time>2010-12-29T12:33:25Z</time>
      </trkpt>
      <trkpt lat="32.388968020677567" lon="-2.69639303907752">
        <ele>1117.6700000000001</ele>
        <time>2010-12-29T12:33:32Z</time>
      </trkpt>
      <trkpt lat="32.388608017936349" lon="-2.696569981053472">
        <ele>1116.7090000000001</ele>
        <time>2010-12-29T12:33:36Z</time>
      </trkpt>
      <trkpt lat="32.387672010809183" lon="-2.69744697958231">
        <ele>1113.8240000000001</ele>
        <time>2010-12-29T12:33:46Z</time>
      </trkpt>
      <trkpt lat="32.386558977887034" lon="-2.698425985872746">
        <ele>1109.979</ele>
        <time>2010-12-29T12:33:57Z</time>
      </trkpt>
      <trkpt lat="32.38599001429975" lon="-2.698944993317127">
        <ele>1107.095</ele>
        <time>2010-12-29T12:34:03Z</time>
      </trkpt>
      <trkpt lat="32.385693965479732" lon="-2.699139034375548">
        <ele>1106.134</ele>
        <time>2010-12-29T12:34:06Z</time>
      </trkpt>
      <trkpt lat="32.385287024080753" lon="-2.699403986334801">
        <ele>1104.212</ele>
        <time>2010-12-29T12:34:10Z</time>
      </trkpt>
      <trkpt lat="32.384844040498137" lon="-2.69991897046566">
        <ele>1099.885</ele>
        <time>2010-12-29T12:34:15Z</time>
      </trkpt>
      <trkpt lat="32.38459400832653" lon="-2.700192974880338">
        <ele>1098.443</ele>
        <time>2010-12-29T12:34:18Z</time>
      </trkpt>
      <trkpt lat="32.384009035304189" lon="-2.700574016198516">
        <ele>1097.963</ele>
        <time>2010-12-29T12:34:24Z</time>
      </trkpt>
      <trkpt lat="32.383833015337586" lon="-2.700693039223552">
        <ele>1098.443</ele>
        <time>2010-12-29T12:34:26Z</time>
      </trkpt>
      <trkpt lat="32.383212000131607" lon="-2.700972994789481">
        <ele>1095.079</ele>
        <time>2010-12-29T12:34:33Z</time>
      </trkpt>
      <trkpt lat="32.382400967180729" lon="-2.701299972832203">
        <ele>1091.2339999999999</ele>
        <time>2010-12-29T12:34:41Z</time>
      </trkpt>
      <trkpt lat="32.382189994677901" lon="-2.701375996693969">
        <ele>1090.7529999999999</ele>
        <time>2010-12-29T12:34:43Z</time>
      </trkpt>
      <trkpt lat="32.381855975836515" lon="-2.701689982786775">
        <ele>1085.9469999999999</ele>
        <time>2010-12-29T12:34:49Z</time>
      </trkpt>
      <trkpt lat="32.381725972518325" lon="-2.701891986653209">
        <ele>1082.1010000000001</ele>
        <time>2010-12-29T12:34:53Z</time>
      </trkpt>
      <trkpt lat="32.381461020559072" lon="-2.702036993578076">
        <ele>1080.6590000000001</ele>
        <time>2010-12-29T12:34:57Z</time>
      </trkpt>
      <trkpt lat="32.381278965622187" lon="-2.702031964436173">
        <ele>1079.2170000000001</ele>
        <time>2010-12-29T12:34:59Z</time>
      </trkpt>
      <trkpt lat="32.38087696954608" lon="-2.702224999666214">
        <ele>1079.2170000000001</ele>
        <time>2010-12-29T12:35:04Z</time>
      </trkpt>
      <trkpt lat="32.380383023992181" lon="-2.702244026586413">
        <ele>1077.7750000000001</ele>
        <time>2010-12-29T12:35:09Z</time>
      </trkpt>
      <trkpt lat="32.380286967381835" lon="-2.702176971361041">
        <ele>1078.2560000000001</ele>
        <time>2010-12-29T12:35:10Z</time>
      </trkpt>
      <trkpt lat="32.37999502569437" lon="-2.70200002938509">
        <ele>1078.2560000000001</ele>
        <time>2010-12-29T12:35:13Z</time>
      </trkpt>
      <trkpt lat="32.379721021279693" lon="-2.701796013861895">
        <ele>1078.2560000000001</ele>
        <time>2010-12-29T12:35:16Z</time>
      </trkpt>
      <trkpt lat="32.379198996350169" lon="-2.701567020267248">
        <ele>1079.2170000000001</ele>
        <time>2010-12-29T12:35:22Z</time>
      </trkpt>
      <trkpt lat="32.378658028319478" lon="-2.701573977246881">
        <ele>1078.7370000000001</ele>
        <time>2010-12-29T12:35:28Z</time>
      </trkpt>
      <trkpt lat="32.378436997532845" lon="-2.701598033308983">
        <ele>1078.2560000000001</ele>
        <time>2010-12-29T12:35:30Z</time>
      </trkpt>
      <trkpt lat="32.377874990925193" lon="-2.70191696472466">
        <ele>1077.2950000000001</ele>
        <time>2010-12-29T12:35:36Z</time>
      </trkpt>
      <trkpt lat="32.377809025347233" lon="-2.701993994414806">
        <ele>1077.2950000000001</ele>
        <time>2010-12-29T12:35:37Z</time>
      </trkpt>
      <trkpt lat="32.377692013978958" lon="-2.702152999117971">
        <ele>1076.8140000000001</ele>
        <time>2010-12-29T12:35:39Z</time>
      </trkpt>
      <trkpt lat="32.377601992338896" lon="-2.70251601934433">
        <ele>1080.1780000000001</ele>
        <time>2010-12-29T12:35:43Z</time>
      </trkpt>
      <trkpt lat="32.377582965418696" lon="-2.70288297906518">
        <ele>1081.6199999999999</ele>
        <time>2010-12-29T12:35:46Z</time>
      </trkpt>
      <trkpt lat="32.377242995426059" lon="-2.704265993088484">
        <ele>1089.3109999999999</ele>
        <time>2010-12-29T12:35:56Z</time>
      </trkpt>
      <trkpt lat="32.376886010169983" lon="-2.705473992973566">
        <ele>1094.1179999999999</ele>
        <time>2010-12-29T12:36:05Z</time>
      </trkpt>
      <trkpt lat="32.376581998541951" lon="-2.706896988674998">
        <ele>1091.7139999999999</ele>
        <time>2010-12-29T12:36:15Z</time>
      </trkpt>
      <trkpt lat="32.376283016055822" lon="-2.708252007141709">
        <ele>1089.3109999999999</ele>
        <time>2010-12-29T12:36:24Z</time>
      </trkpt>
      <trkpt lat="32.376117976382375" lon="-2.708852989599109">
        <ele>1088.3499999999999</ele>
        <time>2010-12-29T12:36:28Z</time>
      </trkpt>
      <trkpt lat="32.375856041908264" lon="-2.70930896513164">
        <ele>1088.8309999999999</ele>
        <time>2010-12-29T12:36:32Z</time>
      </trkpt>
      <trkpt lat="32.375367963686585" lon="-2.709828978404403">
        <ele>1089.3109999999999</ele>
        <time>2010-12-29T12:36:38Z</time>
      </trkpt>
      <trkpt lat="32.375173000618815" lon="-2.710224017500877">
        <ele>1089.3109999999999</ele>
        <time>2010-12-29T12:36:42Z</time>
      </trkpt>
      <trkpt lat="32.374850967898965" lon="-2.711162036284804">
        <ele>1087.8689999999999</ele>
        <time>2010-12-29T12:36:49Z</time>
      </trkpt>
      <trkpt lat="32.374682994559407" lon="-2.712042974308133">
        <ele>1086.9079999999999</ele>
        <time>2010-12-29T12:36:55Z</time>
      </trkpt>
      <trkpt lat="32.374629015102983" lon="-2.712179012596607">
        <ele>1086.4269999999999</ele>
        <time>2010-12-29T12:36:56Z</time>
      </trkpt>
      <trkpt lat="32.37421503290534" lon="-2.713677026331425">
        <ele>1084.5050000000001</ele>
        <time>2010-12-29T12:37:06Z</time>
      </trkpt>
      <trkpt lat="32.373799039050937" lon="-2.715086024254561">
        <ele>1084.0239999999999</ele>
        <time>2010-12-29T12:37:15Z</time>
      </trkpt>
      <trkpt lat="32.3735729791224" lon="-2.715420965105295">
        <ele>1083.5429999999999</ele>
        <time>2010-12-29T12:37:18Z</time>
      </trkpt>
      <trkpt lat="32.37322898581624" lon="-2.716110041365027">
        <ele>1082.5820000000001</ele>
        <time>2010-12-29T12:37:24Z</time>
      </trkpt>
      <trkpt lat="32.37305598333478" lon="-2.716540032997727">
        <ele>1081.6199999999999</ele>
        <time>2010-12-29T12:37:28Z</time>
      </trkpt>
      <trkpt lat="32.372864037752151" lon="-2.717807963490486">
        <ele>1081.1400000000001</ele>
        <time>2010-12-29T12:37:36Z</time>
      </trkpt>
      <trkpt lat="32.37258399836719" lon="-2.718784958124161">
        <ele>1080.6590000000001</ele>
        <time>2010-12-29T12:37:42Z</time>
      </trkpt>
      <trkpt lat="32.37254099920392" lon="-2.719078995287418">
        <ele>1080.1780000000001</ele>
        <time>2010-12-29T12:37:44Z</time>
      </trkpt>
      <trkpt lat="32.372452989220619" lon="-2.719590961933136">
        <ele>1079.2170000000001</ele>
        <time>2010-12-29T12:37:48Z</time>
      </trkpt>
      <trkpt lat="32.372165992856026" lon="-2.720450023189187">
        <ele>1079.2170000000001</ele>
        <time>2010-12-29T12:37:55Z</time>
      </trkpt>
      <trkpt lat="32.3718720395118" lon="-2.721382007002831">
        <ele>1079.2170000000001</ele>
        <time>2010-12-29T12:38:02Z</time>
      </trkpt>
      <trkpt lat="32.3717459756881" lon="-2.72178802639246">
        <ele>1079.6980000000001</ele>
        <time>2010-12-29T12:38:05Z</time>
      </trkpt>
      <trkpt lat="32.371500972658396" lon="-2.722216006368399">
        <ele>1079.2170000000001</ele>
        <time>2010-12-29T12:38:09Z</time>
      </trkpt>
      <trkpt lat="32.371413968503475" lon="-2.722300998866558">
        <ele>1079.2170000000001</ele>
        <time>2010-12-29T12:38:14Z</time>
      </trkpt>
      <trkpt lat="32.371418997645378" lon="-2.722917990759015">
        <ele>1077.7750000000001</ele>
        <time>2010-12-29T12:38:40Z</time>
      </trkpt>
      <trkpt lat="32.371416985988617" lon="-2.723191995173693">
        <ele>1078.2560000000001</ele>
        <time>2010-12-29T12:38:43Z</time>
      </trkpt>
      <trkpt lat="32.371177012100816" lon="-2.724166978150606">
        <ele>1078.7370000000001</ele>
        <time>2010-12-29T12:38:52Z</time>
      </trkpt>
      <trkpt lat="32.370905019342899" lon="-2.725129975005984">
        <ele>1078.2560000000001</ele>
        <time>2010-12-29T12:39:00Z</time>
      </trkpt>
      <trkpt lat="32.370552979409695" lon="-2.726566968485713">
        <ele>1076.3330000000001</ele>
        <time>2010-12-29T12:39:10Z</time>
      </trkpt>
      <trkpt lat="32.370468992739916" lon="-2.727026967331767">
        <ele>1074.8910000000001</ele>
        <time>2010-12-29T12:39:13Z</time>
      </trkpt>
      <trkpt lat="32.370272018015385" lon="-2.727571958675981">
        <ele>1074.8910000000001</ele>
        <time>2010-12-29T12:39:17Z</time>
      </trkpt>
      <trkpt lat="32.370100021362305" lon="-2.728225998580456">
        <ele>1074.8910000000001</ele>
        <time>2010-12-29T12:39:23Z</time>
      </trkpt>
      <trkpt lat="32.369922995567322" lon="-2.728790016844869">
        <ele>1073.4490000000001</ele>
        <time>2010-12-29T12:39:30Z</time>
      </trkpt>
      <trkpt lat="32.369945961982012" lon="-2.72920299321413">
        <ele>1074.4110000000001</ele>
        <time>2010-12-29T12:39:39Z</time>
      </trkpt>
      <trkpt lat="32.370004970580339" lon="-2.729487977921963">
        <ele>1076.3330000000001</ele>
        <time>2010-12-29T12:39:49Z</time>
      </trkpt>
      <trkpt lat="32.370064985007048" lon="-2.729611024260521">
        <ele>1076.3330000000001</ele>
        <time>2010-12-29T12:39:52Z</time>
      </trkpt>
      <trkpt lat="32.370115024968982" lon="-2.729796012863517">
        <ele>1077.2950000000001</ele>
        <time>2010-12-29T12:39:56Z</time>
      </trkpt>
      <trkpt lat="32.370075965300202" lon="-2.730094995349646">
        <ele>1076.3330000000001</ele>
        <time>2010-12-29T12:40:03Z</time>
      </trkpt>
      <trkpt lat="32.369953002780676" lon="-2.730371011421084">
        <ele>1076.3330000000001</ele>
        <time>2010-12-29T12:40:08Z</time>
      </trkpt>
      <trkpt lat="32.369721997529268" lon="-2.730504032224417">
        <ele>1075.3720000000001</ele>
        <time>2010-12-29T12:40:12Z</time>
      </trkpt>
      <trkpt lat="32.369513958692551" lon="-2.730544013902545">
        <ele>1075.3720000000001</ele>
        <time>2010-12-29T12:40:15Z</time>
      </trkpt>
      <trkpt lat="32.369143981486559" lon="-2.730960007756949">
        <ele>1074.8910000000001</ele>
        <time>2010-12-29T12:40:22Z</time>
      </trkpt>
      <trkpt lat="32.369103999808431" lon="-2.731148013845086">
        <ele>1074.4110000000001</ele>
        <time>2010-12-29T12:40:24Z</time>
      </trkpt>
      <trkpt lat="32.368984976783395" lon="-2.731653023511171">
        <ele>1073.4490000000001</ele>
        <time>2010-12-29T12:40:29Z</time>
      </trkpt>
      <trkpt lat="32.368878023698926" lon="-2.732538990676403">
        <ele>1073.4490000000001</ele>
        <time>2010-12-29T12:40:36Z</time>
      </trkpt>
      <trkpt lat="32.368721030652523" lon="-2.733103008940816">
        <ele>1073.9300000000001</ele>
        <time>2010-12-29T12:40:41Z</time>
      </trkpt>
      <trkpt lat="32.368760006502271" lon="-2.733479021117091">
        <ele>1074.8910000000001</ele>
        <time>2010-12-29T12:40:46Z</time>
      </trkpt>
      <trkpt lat="32.36869496293366" lon="-2.733695022761822">
        <ele>1074.8910000000001</ele>
        <time>2010-12-29T12:40:52Z</time>
      </trkpt>
      <trkpt lat="32.368510980159044" lon="-2.734048990532756">
        <ele>1074.4110000000001</ele>
        <time>2010-12-29T12:40:57Z</time>
      </trkpt>
      <trkpt lat="32.368392962962389" lon="-2.734203971922398">
        <ele>1073.9300000000001</ele>
        <time>2010-12-29T12:40:59Z</time>
      </trkpt>
      <trkpt lat="32.368184002116323" lon="-2.734616026282311">
        <ele>1073.4490000000001</ele>
        <time>2010-12-29T12:41:03Z</time>
      </trkpt>
      <trkpt lat="32.368094986304641" lon="-2.734864968806505">
        <ele>1073.4490000000001</ele>
        <time>2010-12-29T12:41:05Z</time>
      </trkpt>
      <trkpt lat="32.367457961663604" lon="-2.736040027812123">
        <ele>1071.527</ele>
        <time>2010-12-29T12:41:15Z</time>
      </trkpt>
      <trkpt lat="32.366871982812881" lon="-2.737213997170329">
        <ele>1068.162</ele>
        <time>2010-12-29T12:41:25Z</time>
      </trkpt>
      <trkpt lat="32.366349035874009" lon="-2.738373968750238">
        <ele>1065.278</ele>
        <time>2010-12-29T12:41:34Z</time>
      </trkpt>
      <trkpt lat="32.36598601564765" lon="-2.739119036123157">
        <ele>1064.797</ele>
        <time>2010-12-29T12:41:40Z</time>
      </trkpt>
      <trkpt lat="32.365841008722782" lon="-2.739991005510092">
        <ele>1067.201</ele>
        <time>2010-12-29T12:41:47Z</time>
      </trkpt>
      <trkpt lat="32.365716034546494" lon="-2.740975962951779">
        <ele>1069.124</ele>
        <time>2010-12-29T12:41:54Z</time>
      </trkpt>
      <trkpt lat="32.36570899374783" lon="-2.741115018725395">
        <ele>1069.124</ele>
        <time>2010-12-29T12:41:55Z</time>
      </trkpt>
      <trkpt lat="32.36560296267271" lon="-2.741771992295981">
        <ele>1069.604</ele>
        <time>2010-12-29T12:42:00Z</time>
      </trkpt>
      <trkpt lat="32.36555602401495" lon="-2.742128977552056">
        <ele>1070.085</ele>
        <time>2010-12-29T12:42:03Z</time>
      </trkpt>
      <trkpt lat="32.365544037893414" lon="-2.742724008858204">
        <ele>1070.5650000000001</ele>
        <time>2010-12-29T12:42:08Z</time>
      </trkpt>
      <trkpt lat="32.365195015445352" lon="-2.74346899241209">
        <ele>1068.162</ele>
        <time>2010-12-29T12:42:15Z</time>
      </trkpt>
      <trkpt lat="32.365142041817307" lon="-2.743954975157976">
        <ele>1068.162</ele>
        <time>2010-12-29T12:42:20Z</time>
      </trkpt>
      <trkpt lat="32.365226028487086" lon="-2.744179023429751">
        <ele>1068.643</ele>
        <time>2010-12-29T12:42:22Z</time>
      </trkpt>
      <trkpt lat="32.365300040692091" lon="-2.744859969243407">
        <ele>1068.643</ele>
        <time>2010-12-29T12:42:27Z</time>
      </trkpt>
      <trkpt lat="32.365287970751524" lon="-2.74525199085474">
        <ele>1069.124</ele>
        <time>2010-12-29T12:42:30Z</time>
      </trkpt>
      <trkpt lat="32.36523600295186" lon="-2.74559497833252">
        <ele>1069.124</ele>
        <time>2010-12-29T12:42:33Z</time>
      </trkpt>
      <trkpt lat="32.365243965759873" lon="-2.745922962203622">
        <ele>1069.124</ele>
        <time>2010-12-29T12:42:36Z</time>
      </trkpt>
      <trkpt lat="32.365195015445352" lon="-2.746391007676721">
        <ele>1069.124</ele>
        <time>2010-12-29T12:42:40Z</time>
      </trkpt>
      <trkpt lat="32.3650439735502" lon="-2.746959971264005">
        <ele>1069.124</ele>
        <time>2010-12-29T12:42:45Z</time>
      </trkpt>
      <trkpt lat="32.364972978830338" lon="-2.747474033385515">
        <ele>1069.124</ele>
        <time>2010-12-29T12:42:49Z</time>
      </trkpt>
      <trkpt lat="32.364893015474081" lon="-2.74870902299881">
        <ele>1067.681</ele>
        <time>2010-12-29T12:42:58Z</time>
      </trkpt>
      <trkpt lat="32.364642983302474" lon="-2.75034399703145">
        <ele>1065.278</ele>
        <time>2010-12-29T12:43:09Z</time>
      </trkpt>
      <trkpt lat="32.36446101218462" lon="-2.751814015209675">
        <ele>1063.836</ele>
        <time>2010-12-29T12:43:19Z</time>
      </trkpt>
      <trkpt lat="32.364213997498155" lon="-2.752296980470419">
        <ele>1062.394</ele>
        <time>2010-12-29T12:43:24Z</time>
      </trkpt>
      <trkpt lat="32.364083994179964" lon="-2.752583976835012">
        <ele>1066.72</ele>
        <time>2010-12-29T12:43:27Z</time>
      </trkpt>
      <trkpt lat="32.363721979781985" lon="-2.753469021990895">
        <ele>1072.4880000000001</ele>
        <time>2010-12-29T12:43:35Z</time>
      </trkpt>
      <trkpt lat="32.363620977848768" lon="-2.753799017518759">
        <ele>1073.4490000000001</ele>
        <time>2010-12-29T12:43:38Z</time>
      </trkpt>
      <trkpt lat="32.363213030621409" lon="-2.754469988867641">
        <ele>1075.8530000000001</ele>
        <time>2010-12-29T12:43:46Z</time>
      </trkpt>
      <trkpt lat="32.362955035641789" lon="-2.755062002688646">
        <ele>1075.3720000000001</ele>
        <time>2010-12-29T12:43:52Z</time>
      </trkpt>
      <trkpt lat="32.362653035670519" lon="-2.755712019279599">
        <ele>1073.4490000000001</ele>
        <time>2010-12-29T12:43:59Z</time>
      </trkpt>
      <trkpt lat="32.362639037892222" lon="-2.755945958197117">
        <ele>1071.527</ele>
        <time>2010-12-29T12:44:01Z</time>
      </trkpt>
      <trkpt lat="32.362319016829133" lon="-2.756716003641486">
        <ele>1069.604</ele>
        <time>2010-12-29T12:44:08Z</time>
      </trkpt>
      <trkpt lat="32.361878966912627" lon="-2.757882010191679">
        <ele>1065.759</ele>
        <time>2010-12-29T12:44:17Z</time>
      </trkpt>
      <trkpt lat="32.361794980242848" lon="-2.758280988782644">
        <ele>1063.836</ele>
        <time>2010-12-29T12:44:20Z</time>
      </trkpt>
      <trkpt lat="32.361776037141681" lon="-2.758537977933884">
        <ele>1062.394</ele>
        <time>2010-12-29T12:44:22Z</time>
      </trkpt>
      <trkpt lat="32.361468002200127" lon="-2.759457975625992">
        <ele>1058.549</ele>
        <time>2010-12-29T12:44:30Z</time>
      </trkpt>
      <trkpt lat="32.361356019973755" lon="-2.759956028312445">
        <ele>1056.626</ele>
        <time>2010-12-29T12:44:34Z</time>
      </trkpt>
      <trkpt lat="32.361083021387458" lon="-2.760671004652977">
        <ele>1053.2619999999999</ele>
        <time>2010-12-29T12:44:40Z</time>
      </trkpt>
      <trkpt lat="32.360912030562758" lon="-2.760923970490694">
        <ele>1052.3</ele>
        <time>2010-12-29T12:44:43Z</time>
      </trkpt>
      <trkpt lat="32.360640037804842" lon="-2.761638024821878">
        <ele>1048.4549999999999</ele>
        <time>2010-12-29T12:44:50Z</time>
      </trkpt>
      <trkpt lat="32.360246004536748" lon="-2.762661036103964">
        <ele>1042.2070000000001</ele>
        <time>2010-12-29T12:44:58Z</time>
      </trkpt>
      <trkpt lat="32.360045006498694" lon="-2.763547003269196">
        <ele>1040.2840000000001</ele>
        <time>2010-12-29T12:45:05Z</time>
      </trkpt>
      <trkpt lat="32.359768990427256" lon="-2.764753997325897">
        <ele>1036.4390000000001</ele>
        <time>2010-12-29T12:45:14Z</time>
      </trkpt>
      <trkpt lat="32.359309997409582" lon="-2.766124019399285">
        <ele>1031.6320000000001</ele>
        <time>2010-12-29T12:45:24Z</time>
      </trkpt>
      <trkpt lat="32.358760982751846" lon="-2.767572999000549">
        <ele>1022.98</ele>
        <time>2010-12-29T12:45:35Z</time>
      </trkpt>
      <trkpt lat="32.35870499163866" lon="-2.767691016197205">
        <ele>1021.058</ele>
        <time>2010-12-29T12:45:36Z</time>
      </trkpt>
      <trkpt lat="32.358414977788925" lon="-2.768045989796519">
        <ele>1016.731</ele>
        <time>2010-12-29T12:45:40Z</time>
      </trkpt>
      <trkpt lat="32.357967970892787" lon="-2.768355030566454">
        <ele>1013.367</ele>
        <time>2010-12-29T12:45:46Z</time>
      </trkpt>
      <trkpt lat="32.357756998389959" lon="-2.7687550149858">
        <ele>1007.599</ele>
        <time>2010-12-29T12:45:53Z</time>
      </trkpt>
      <trkpt lat="32.357539990916848" lon="-2.76980803348124">
        <ele>999.428</ele>
        <time>2010-12-29T12:46:03Z</time>
      </trkpt>
      <trkpt lat="32.357419040054083" lon="-2.770188990980387">
        <ele>1000.87</ele>
        <time>2010-12-29T12:46:10Z</time>
      </trkpt>
      <trkpt lat="32.357151992619038" lon="-2.770975967869163">
        <ele>1005.677</ele>
        <time>2010-12-29T12:46:17Z</time>
      </trkpt>
      <trkpt lat="32.357068005949259" lon="-2.771223988384008">
        <ele>1006.638</ele>
        <time>2010-12-29T12:46:19Z</time>
      </trkpt>
      <trkpt lat="32.356566013768315" lon="-2.77217298746109">
        <ele>1005.196</ele>
        <time>2010-12-29T12:46:27Z</time>
      </trkpt>
      <trkpt lat="32.355869980528951" lon="-2.773552983999252">
        <ele>1000.389</ele>
        <time>2010-12-29T12:46:37Z</time>
      </trkpt>
      <trkpt lat="32.355331024155021" lon="-2.774594016373158">
        <ele>996.54399999999998</ele>
        <time>2010-12-29T12:46:45Z</time>
      </trkpt>
      <trkpt lat="32.35468695871532" lon="-2.77582598850131">
        <ele>999.90800000000002</ele>
        <time>2010-12-29T12:46:54Z</time>
      </trkpt>
      <trkpt lat="32.353663025423884" lon="-2.777540003880858">
        <ele>1005.677</ele>
        <time>2010-12-29T12:47:07Z</time>
      </trkpt>
      <trkpt lat="32.353027006611228" lon="-2.778611965477467">
        <ele>1007.599</ele>
        <time>2010-12-29T12:47:15Z</time>
      </trkpt>
      <trkpt lat="32.352131986990571" lon="-2.780117020010948">
        <ele>1009.522</ele>
        <time>2010-12-29T12:47:26Z</time>
      </trkpt>
      <trkpt lat="32.351540978997946" lon="-2.781069958582521">
        <ele>1011.925</ele>
        <time>2010-12-29T12:47:34Z</time>
      </trkpt>
      <trkpt lat="32.350788032636046" lon="-2.782048964872956">
        <ele>1014.809</ele>
        <time>2010-12-29T12:47:43Z</time>
      </trkpt>
      <trkpt lat="32.350203981623054" lon="-2.782711973413825">
        <ele>1017.693</ele>
        <time>2010-12-29T12:47:50Z</time>
      </trkpt>
      <trkpt lat="32.350057968869805" lon="-2.782902996987104">
        <ele>1017.693</ele>
        <time>2010-12-29T12:47:52Z</time>
      </trkpt>
      <trkpt lat="32.349561005830765" lon="-2.783386968076229">
        <ele>1018.173</ele>
        <time>2010-12-29T12:47:59Z</time>
      </trkpt>
      <trkpt lat="32.349028000608087" lon="-2.783928019925952">
        <ele>1022.98</ele>
        <time>2010-12-29T12:48:07Z</time>
      </trkpt>
      <trkpt lat="32.348445039242506" lon="-2.784523973241448">
        <ele>1025.383</ele>
        <time>2010-12-29T12:48:14Z</time>
      </trkpt>
      <trkpt lat="32.347884038463235" lon="-2.785023031756282">
        <ele>1028.2670000000001</ele>
        <time>2010-12-29T12:48:21Z</time>
      </trkpt>
      <trkpt lat="32.347391014918685" lon="-2.785593001171947">
        <ele>1030.671</ele>
        <time>2010-12-29T12:48:27Z</time>
      </trkpt>
      <trkpt lat="32.346748961135745" lon="-2.7862239908427">
        <ele>1034.0350000000001</ele>
        <time>2010-12-29T12:48:34Z</time>
      </trkpt>
      <trkpt lat="32.345823012292385" lon="-2.787060001865029">
        <ele>1037.8810000000001</ele>
        <time>2010-12-29T12:48:43Z</time>
      </trkpt>
      <trkpt lat="32.345370976254344" lon="-2.787337023764849">
        <ele>1037.8810000000001</ele>
        <time>2010-12-29T12:48:47Z</time>
      </trkpt>
      <trkpt lat="32.344870995730162" lon="-2.787541961297393">
        <ele>1027.787</ele>
        <time>2010-12-29T12:48:52Z</time>
      </trkpt>
      <trkpt lat="32.344611994922161" lon="-2.787796016782522">
        <ele>1025.383</ele>
        <time>2010-12-29T12:48:56Z</time>
      </trkpt>
      <trkpt lat="32.34439498744905" lon="-2.787979999557138">
        <ele>1026.345</ele>
        <time>2010-12-29T12:48:59Z</time>
      </trkpt>
      <trkpt lat="32.343988968059421" lon="-2.788196001201868">
        <ele>1024.422</ele>
        <time>2010-12-29T12:49:04Z</time>
      </trkpt>
      <trkpt lat="32.343199979513884" lon="-2.788693970069289">
        <ele>1016.251</ele>
        <time>2010-12-29T12:49:14Z</time>
      </trkpt>
      <trkpt lat="32.342906026169658" lon="-2.788994964212179">
        <ele>1014.328</ele>
        <time>2010-12-29T12:49:19Z</time>
      </trkpt>
      <trkpt lat="32.342235976830125" lon="-2.789664007723332">
        <ele>1015.77</ele>
        <time>2010-12-29T12:49:28Z</time>
      </trkpt>
      <trkpt lat="32.341392002999783" lon="-2.790355011820793">
        <ele>1015.29</ele>
        <time>2010-12-29T12:49:38Z</time>
      </trkpt>
      <trkpt lat="32.34119301661849" lon="-2.790436986833811">
        <ele>1014.328</ele>
        <time>2010-12-29T12:49:40Z</time>
      </trkpt>
      <trkpt lat="32.340883975848556" lon="-2.790680984035134">
        <ele>1013.367</ele>
        <time>2010-12-29T12:49:44Z</time>
      </trkpt>
      <trkpt lat="32.340291040018201" lon="-2.791387997567654">
        <ele>1012.4059999999999</ele>
        <time>2010-12-29T12:49:52Z</time>
      </trkpt>
      <trkpt lat="32.340028015896678" lon="-2.791588995605707">
        <ele>1009.522</ele>
        <time>2010-12-29T12:49:55Z</time>
      </trkpt>
      <trkpt lat="32.339730961248279" lon="-2.792081013321877">
        <ele>1005.677</ele>
        <time>2010-12-29T12:50:00Z</time>
      </trkpt>
      <trkpt lat="32.339669018983841" lon="-2.792334984987974">
        <ele>1004.715</ele>
        <time>2010-12-29T12:50:02Z</time>
      </trkpt>
      <trkpt lat="32.339357966557145" lon="-2.792804958298802">
        <ele>1001.831</ele>
        <time>2010-12-29T12:50:07Z</time>
      </trkpt>
      <trkpt lat="32.339009027928114" lon="-2.79320796020329">
        <ele>1000.389</ele>
        <time>2010-12-29T12:50:12Z</time>
      </trkpt>
      <trkpt lat="32.338167987763882" lon="-2.794098034501076">
        <ele>998.46600000000001</ele>
        <time>2010-12-29T12:50:22Z</time>
      </trkpt>
      <trkpt lat="32.337563987821341" lon="-2.794863972812891">
        <ele>998.947</ele>
        <time>2010-12-29T12:50:30Z</time>
      </trkpt>
      <trkpt lat="32.337029976770282" lon="-2.79552798718214">
        <ele>994.14099999999996</ele>
        <time>2010-12-29T12:50:37Z</time>
      </trkpt>
      <trkpt lat="32.3360809776932" lon="-2.796604977920651">
        <ele>991.73699999999997</ele>
        <time>2010-12-29T12:50:48Z</time>
      </trkpt>
      <trkpt lat="32.335419980809093" lon="-2.797394972294569">
        <ele>992.69899999999996</ele>
        <time>2010-12-29T12:50:56Z</time>
      </trkpt>
      <trkpt lat="32.334440974518657" lon="-2.798523008823395">
        <ele>997.98599999999999</ele>
        <time>2010-12-29T12:51:08Z</time>
      </trkpt>
      <trkpt lat="32.334362016990781" lon="-2.798608001321554">
        <ele>998.46600000000001</ele>
        <time>2010-12-29T12:51:09Z</time>
      </trkpt>
      <trkpt lat="32.333577973768115" lon="-2.799583990126848">
        <ele>1003.273</ele>
        <time>2010-12-29T12:51:19Z</time>
      </trkpt>
      <trkpt lat="32.333456017076969" lon="-2.799806026741862">
        <ele>1003.754</ele>
        <time>2010-12-29T12:51:21Z</time>
      </trkpt>
      <trkpt lat="32.333249989897013" lon="-2.800085982307792">
        <ele>1002.312</ele>
        <time>2010-12-29T12:51:24Z</time>
      </trkpt>
      <trkpt lat="32.332897027954459" lon="-2.800500970333815">
        <ele>995.10199999999998</ele>
        <time>2010-12-29T12:51:29Z</time>
      </trkpt>
      <trkpt lat="32.332396963611245" lon="-2.801107987761498">
        <ele>988.85400000000004</ele>
        <time>2010-12-29T12:51:36Z</time>
      </trkpt>
      <trkpt lat="32.331731021404266" lon="-2.801766972988844">
        <ele>983.56600000000003</ele>
        <time>2010-12-29T12:51:43Z</time>
      </trkpt>
      <trkpt lat="32.331231962889433" lon="-2.802198976278305">
        <ele>984.04700000000003</ele>
        <time>2010-12-29T12:51:48Z</time>
      </trkpt>
      <trkpt lat="32.330699041485786" lon="-2.802890986204147">
        <ele>980.68200000000002</ele>
        <time>2010-12-29T12:51:55Z</time>
      </trkpt>
      <trkpt lat="32.330315988510847" lon="-2.803221987560391">
        <ele>977.798</ele>
        <time>2010-12-29T12:51:59Z</time>
      </trkpt>
      <trkpt lat="32.329951040446758" lon="-2.803791034966707">
        <ele>974.91399999999999</ele>
        <time>2010-12-29T12:52:05Z</time>
      </trkpt>
      <trkpt lat="32.329902006313205" lon="-2.803906034678221">
        <ele>974.43399999999997</ele>
        <time>2010-12-29T12:52:06Z</time>
      </trkpt>
      <trkpt lat="32.329739984124899" lon="-2.804180961102247">
        <ele>973.47199999999998</ele>
        <time>2010-12-29T12:52:09Z</time>
      </trkpt>
      <trkpt lat="32.329390961676836" lon="-2.804440967738628">
        <ele>971.54899999999998</ele>
        <time>2010-12-29T12:52:14Z</time>
      </trkpt>
      <trkpt lat="32.329100025817752" lon="-2.804754031822085">
        <ele>969.62699999999995</ele>
        <time>2010-12-29T12:52:19Z</time>
      </trkpt>
      <trkpt lat="32.32881504110992" lon="-2.804970033466816">
        <ele>968.66600000000005</ele>
        <time>2010-12-29T12:52:23Z</time>
      </trkpt>
      <trkpt lat="32.328574983403087" lon="-2.805035999044776">
        <ele>968.18499999999995</ele>
        <time>2010-12-29T12:52:27Z</time>
      </trkpt>
      <trkpt lat="32.327933013439178" lon="-2.805255018174648">
        <ele>968.18499999999995</ele>
        <time>2010-12-29T12:52:33Z</time>
      </trkpt>
      <trkpt lat="32.327903006225824" lon="-2.805556012317538">
        <ele>966.26199999999994</ele>
        <time>2010-12-29T12:52:39Z</time>
      </trkpt>
      <trkpt lat="32.327845003455877" lon="-2.805934958159924">
        <ele>967.70399999999995</ele>
        <time>2010-12-29T12:52:45Z</time>
      </trkpt>
      <trkpt lat="32.327823964878917" lon="-2.806080970913172">
        <ele>972.51099999999997</ele>
        <time>2010-12-29T12:52:47Z</time>
      </trkpt>
      <trkpt lat="32.327790018171072" lon="-2.806424964219332">
        <ele>975.875</ele>
        <time>2010-12-29T12:52:51Z</time>
      </trkpt>
      <trkpt lat="32.327633025124669" lon="-2.807387039065361">
        <ele>975.39499999999998</ele>
        <time>2010-12-29T12:53:00Z</time>
      </trkpt>
      <trkpt lat="32.327794963493943" lon="-2.808471992611885">
        <ele>981.64300000000003</ele>
        <time>2010-12-29T12:53:09Z</time>
      </trkpt>
      <trkpt lat="32.3281080275774" lon="-2.80932099558413">
        <ele>988.37300000000005</ele>
        <time>2010-12-29T12:53:16Z</time>
      </trkpt>
      <trkpt lat="32.32849401421845" lon="-2.809883002191782">
        <ele>994.14099999999996</ele>
        <time>2010-12-29T12:53:24Z</time>
      </trkpt>
      <trkpt lat="32.328647989779711" lon="-2.810046030208468">
        <ele>995.10199999999998</ele>
        <time>2010-12-29T12:53:28Z</time>
      </trkpt>
      <trkpt lat="32.328813029453158" lon="-2.810281980782747">
        <ele>997.98599999999999</ele>
        <time>2010-12-29T12:53:33Z</time>
      </trkpt>
      <trkpt lat="32.328926017507911" lon="-2.810488007962704">
        <ele>1002.312</ele>
        <time>2010-12-29T12:53:37Z</time>
      </trkpt>
      <trkpt lat="32.32924897223711" lon="-2.810964016243815">
        <ele>1009.522</ele>
        <time>2010-12-29T12:53:46Z</time>
      </trkpt>
      <trkpt lat="32.3298279941082" lon="-2.811724003404379">
        <ele>1015.77</ele>
        <time>2010-12-29T12:53:56Z</time>
      </trkpt>
      <trkpt lat="32.330460995435715" lon="-2.812468986958265">
        <ele>1020.096</ele>
        <time>2010-12-29T12:54:05Z</time>
      </trkpt>
      <trkpt lat="32.331041023135185" lon="-2.813370041549206">
        <ele>1023.461</ele>
        <time>2010-12-29T12:54:14Z</time>
      </trkpt>
      <trkpt lat="32.331773014739156" lon="-2.814419958740473">
        <ele>1026.345</ele>
        <time>2010-12-29T12:54:25Z</time>
      </trkpt>
      <trkpt lat="32.332635009661317" lon="-2.815669029951096">
        <ele>1028.748</ele>
        <time>2010-12-29T12:54:37Z</time>
      </trkpt>
      <trkpt lat="32.333132978528738" lon="-2.816443014889956">
        <ele>1030.1900000000001</ele>
        <time>2010-12-29T12:54:45Z</time>
      </trkpt>
      <trkpt lat="32.333690039813519" lon="-2.817219011485577">
        <ele>1031.1510000000001</ele>
        <time>2010-12-29T12:54:54Z</time>
      </trkpt>
      <trkpt lat="32.334127994254231" lon="-2.817774983122945">
        <ele>1032.5930000000001</ele>
        <time>2010-12-29T12:55:03Z</time>
      </trkpt>
      <trkpt lat="32.334224972873926" lon="-2.817938011139631">
        <ele>1033.0740000000001</ele>
        <time>2010-12-29T12:55:06Z</time>
      </trkpt>
      <trkpt lat="32.334514986723661" lon="-2.818576963618398">
        <ele>1034.0350000000001</ele>
        <time>2010-12-29T12:55:15Z</time>
      </trkpt>
      <trkpt lat="32.334666028618813" lon="-2.81885901466012">
        <ele>1034.5160000000001</ele>
        <time>2010-12-29T12:55:19Z</time>
      </trkpt>
      <trkpt lat="32.335100965574384" lon="-2.819475000724196">
        <ele>1035.4770000000001</ele>
        <time>2010-12-29T12:55:28Z</time>
      </trkpt>
      <trkpt lat="32.335684010758996" lon="-2.820109007880092">
        <ele>1037.4000000000001</ele>
        <time>2010-12-29T12:55:38Z</time>
      </trkpt>
      <trkpt lat="32.33590797521174" lon="-2.820194000378251">
        <ele>1037.8810000000001</ele>
        <time>2010-12-29T12:55:42Z</time>
      </trkpt>
      <trkpt lat="32.336503006517887" lon="-2.820450989529491">
        <ele>1039.3230000000001</ele>
        <time>2010-12-29T12:55:52Z</time>
      </trkpt>
      <trkpt lat="32.336718002334237" lon="-2.820637989789248">
        <ele>1039.8030000000001</ele>
        <time>2010-12-29T12:55:59Z</time>
      </trkpt>
      <trkpt lat="32.336838031187654" lon="-2.820846028625965">
        <ele>1039.8030000000001</ele>
        <time>2010-12-29T12:56:08Z</time>
      </trkpt>
      <trkpt lat="32.336929980665445" lon="-2.821074016392231">
        <ele>1040.2840000000001</ele>
        <time>2010-12-29T12:56:16Z</time>
      </trkpt>
      <trkpt lat="32.336970968171954" lon="-2.821412980556488">
        <ele>1040.2840000000001</ele>
        <time>2010-12-29T12:56:26Z</time>
      </trkpt>
      <trkpt lat="32.336900979280472" lon="-2.821769965812564">
        <ele>1040.2840000000001</ele>
        <time>2010-12-29T12:56:32Z</time>
      </trkpt>
      <trkpt lat="32.336698975414038" lon="-2.822117982432246">
        <ele>1036.9190000000001</ele>
        <time>2010-12-29T12:56:38Z</time>
      </trkpt>
      <trkpt lat="32.336707022041082" lon="-2.82223298214376">
        <ele>1035.9580000000001</ele>
        <time>2010-12-29T12:56:40Z</time>
      </trkpt>
      <trkpt lat="32.336770975962281" lon="-2.822452001273632">
        <ele>1035.4770000000001</ele>
        <time>2010-12-29T12:56:44Z</time>
      </trkpt>
      <trkpt lat="32.336838031187654" lon="-2.822559960186482">
        <ele>1035.4770000000001</ele>
        <time>2010-12-29T12:56:46Z</time>
      </trkpt>
      <trkpt lat="32.336857980117202" lon="-2.822821978479624">
        <ele>1036.4390000000001</ele>
        <time>2010-12-29T12:56:50Z</time>
      </trkpt>
      <trkpt lat="32.336864015087485" lon="-2.823538966476917">
        <ele>1037.4000000000001</ele>
        <time>2010-12-29T12:56:58Z</time>
      </trkpt>
      <trkpt lat="32.337101977318525" lon="-2.823983961716294">
        <ele>1037.4000000000001</ele>
        <time>2010-12-29T12:57:03Z</time>
      </trkpt>
      <trkpt lat="32.337679993361235" lon="-2.824863977730274">
        <ele>1039.3230000000001</ele>
        <time>2010-12-29T12:57:13Z</time>
      </trkpt>
      <trkpt lat="32.33831400051713" lon="-2.825951026752591">
        <ele>1040.2840000000001</ele>
        <time>2010-12-29T12:57:23Z</time>
      </trkpt>
      <trkpt lat="32.339034005999565" lon="-2.82691796310246">
        <ele>1042.2070000000001</ele>
        <time>2010-12-29T12:57:33Z</time>
      </trkpt>
      <trkpt lat="32.339572040364146" lon="-2.827880959957838">
        <ele>1043.1679999999999</ele>
        <time>2010-12-29T12:57:42Z</time>
      </trkpt>
      <trkpt lat="32.340305959805846" lon="-2.828797018155456">
        <ele>1045.5709999999999</ele>
        <time>2010-12-29T12:57:52Z</time>
      </trkpt>
      <trkpt lat="32.341052033007145" lon="-2.829528003931046">
        <ele>1046.0519999999999</ele>
        <time>2010-12-29T12:58:01Z</time>
      </trkpt>
      <trkpt lat="32.341985022649169" lon="-2.830613041296601">
        <ele>1046.5319999999999</ele>
        <time>2010-12-29T12:58:12Z</time>
      </trkpt>
      <trkpt lat="32.342059034854174" lon="-2.830724017694593">
        <ele>1047.0129999999999</ele>
        <time>2010-12-29T12:58:13Z</time>
      </trkpt>
      <trkpt lat="32.342693964019418" lon="-2.83190100453794">
        <ele>1050.3779999999999</ele>
        <time>2010-12-29T12:58:23Z</time>
      </trkpt>
      <trkpt lat="32.343266028910875" lon="-2.832722011953592">
        <ele>1051.3389999999999</ele>
        <time>2010-12-29T12:58:31Z</time>
      </trkpt>
      <trkpt lat="32.343929959461093" lon="-2.833459032699466">
        <ele>1052.3</ele>
        <time>2010-12-29T12:58:39Z</time>
      </trkpt>
      <trkpt lat="32.344720959663391" lon="-2.834327984601259">
        <ele>1054.223</ele>
        <time>2010-12-29T12:58:48Z</time>
      </trkpt>
      <trkpt lat="32.34570600092411" lon="-2.835238007828593">
        <ele>1057.107</ele>
        <time>2010-12-29T12:58:59Z</time>
      </trkpt>
      <trkpt lat="32.346430029720068" lon="-2.835956001654267">
        <ele>1059.03</ele>
        <time>2010-12-29T12:59:07Z</time>
      </trkpt>
      <trkpt lat="32.346760025247931" lon="-2.836340982466936">
        <ele>1060.471</ele>
        <time>2010-12-29T12:59:11Z</time>
      </trkpt>
      <trkpt lat="32.347077028825879" lon="-2.836753958836198">
        <ele>1060.952</ele>
        <time>2010-12-29T12:59:17Z</time>
      </trkpt>
      <trkpt lat="32.347221029922366" lon="-2.836935007944703">
        <ele>1061.914</ele>
        <time>2010-12-29T12:59:20Z</time>
      </trkpt>
      <trkpt lat="32.34787599183619" lon="-2.8376570250839">
        <ele>1062.875</ele>
        <time>2010-12-29T12:59:31Z</time>
      </trkpt>
      <trkpt lat="32.348796995356679" lon="-2.838706020265818">
        <ele>1065.759</ele>
        <time>2010-12-29T12:59:45Z</time>
      </trkpt>
      <trkpt lat="32.349308039993048" lon="-2.839402975514531">
        <ele>1067.201</ele>
        <time>2010-12-29T12:59:54Z</time>
      </trkpt>
      <trkpt lat="32.349743982776999" lon="-2.840148964896798">
        <ele>1066.72</ele>
        <time>2010-12-29T13:00:03Z</time>
      </trkpt>
      <trkpt lat="32.350079007446766" lon="-2.840927978977561">
        <ele>1067.681</ele>
        <time>2010-12-29T13:00:10Z</time>
      </trkpt>
      <trkpt lat="32.350586028769612" lon="-2.842307975515723">
        <ele>1069.604</ele>
        <time>2010-12-29T13:00:21Z</time>
      </trkpt>
      <trkpt lat="32.350945025682449" lon="-2.843814035877585">
        <ele>1070.085</ele>
        <time>2010-12-29T13:00:32Z</time>
      </trkpt>
      <trkpt lat="32.351038986817002" lon="-2.844332959502935">
        <ele>1071.046</ele>
        <time>2010-12-29T13:00:36Z</time>
      </trkpt>
      <trkpt lat="32.351089026778936" lon="-2.845276007428765">
        <ele>1072.4880000000001</ele>
        <time>2010-12-29T13:00:45Z</time>
      </trkpt>
      <trkpt lat="32.351015014573932" lon="-2.846093997359276">
        <ele>1075.3720000000001</ele>
        <time>2010-12-29T13:00:53Z</time>
      </trkpt>
      <trkpt lat="32.350810999050736" lon="-2.846794975921512">
        <ele>1077.2950000000001</ele>
        <time>2010-12-29T13:01:02Z</time>
      </trkpt>
      <trkpt lat="32.35034697689116" lon="-2.84786500968039">
        <ele>1075.8530000000001</ele>
        <time>2010-12-29T13:01:14Z</time>
      </trkpt>
      <trkpt lat="32.349854037165642" lon="-2.848892966285348">
        <ele>1072.0070000000001</ele>
        <time>2010-12-29T13:01:24Z</time>
      </trkpt>
      <trkpt lat="32.349242996424437" lon="-2.850114963948727">
        <ele>1068.162</ele>
        <time>2010-12-29T13:01:35Z</time>
      </trkpt>
      <trkpt lat="32.348707979544997" lon="-2.851247023791075">
        <ele>1064.317</ele>
        <time>2010-12-29T13:01:46Z</time>
      </trkpt>
      <trkpt lat="32.34834898263216" lon="-2.851762007921934">
        <ele>1067.201</ele>
        <time>2010-12-29T13:01:53Z</time>
      </trkpt>
      <trkpt lat="32.34798202291131" lon="-2.852197028696537">
        <ele>1070.085</ele>
        <time>2010-12-29T13:01:59Z</time>
      </trkpt>
      <trkpt lat="32.347514983266592" lon="-2.852995991706848">
        <ele>1093.1559999999999</ele>
        <time>2010-12-29T13:02:08Z</time>
      </trkpt>
      <trkpt lat="32.347219018265605" lon="-2.853949014097452">
        <ele>1102.77</ele>
        <time>2010-12-29T13:02:20Z</time>
      </trkpt>
      <trkpt lat="32.347055990248919" lon="-2.854715958237648">
        <ele>1103.731</ele>
        <time>2010-12-29T13:02:28Z</time>
      </trkpt>
      <trkpt lat="32.347053978592157" lon="-2.855005972087383">
        <ele>1104.212</ele>
        <time>2010-12-29T13:02:31Z</time>
      </trkpt>
      <trkpt lat="32.347053978592157" lon="-2.855545012280345">
        <ele>1108.057</ele>
        <time>2010-12-29T13:02:38Z</time>
      </trkpt>
      <trkpt lat="32.347003016620874" lon="-2.855890011414886">
        <ele>1098.443</ele>
        <time>2010-12-29T13:02:42Z</time>
      </trkpt>
      <trkpt lat="32.346838982775807" lon="-2.856472972780466">
        <ele>1103.25</ele>
        <time>2010-12-29T13:02:52Z</time>
      </trkpt>
      <trkpt lat="32.346818028017879" lon="-2.856778996065259">
        <ele>1094.1179999999999</ele>
        <time>2010-12-29T13:03:01Z</time>
      </trkpt>
      <trkpt lat="32.346818028017879" lon="-2.857392970472574">
        <ele>1086.9079999999999</ele>
        <time>2010-12-29T13:03:14Z</time>
      </trkpt>
      <trkpt lat="32.346880976110697" lon="-2.858164021745324">
        <ele>1085.9469999999999</ele>
        <time>2010-12-29T13:03:26Z</time>
      </trkpt>
      <trkpt lat="32.346953982487321" lon="-2.859058035537601">
        <ele>1083.0619999999999</ele>
        <time>2010-12-29T13:03:38Z</time>
      </trkpt>
      <trkpt lat="32.347007039934397" lon="-2.859936039894819">
        <ele>1083.0619999999999</ele>
        <time>2010-12-29T13:03:48Z</time>
      </trkpt>
      <trkpt lat="32.346851974725723" lon="-2.860742965713143">
        <ele>1083.0619999999999</ele>
        <time>2010-12-29T13:03:58Z</time>
      </trkpt>
      <trkpt lat="32.34652197919786" lon="-2.861674027517438">
        <ele>1083.0619999999999</ele>
        <time>2010-12-29T13:04:08Z</time>
      </trkpt>
      <trkpt lat="32.345860982313752" lon="-2.862465027719736">
        <ele>1084.9849999999999</ele>
        <time>2010-12-29T13:04:19Z</time>
      </trkpt>
      <trkpt lat="32.345002004876733" lon="-2.863065004348755">
        <ele>1085.4659999999999</ele>
        <time>2010-12-29T13:04:30Z</time>
      </trkpt>
      <trkpt lat="32.344163982197642" lon="-2.863691970705986">
        <ele>1085.4659999999999</ele>
        <time>2010-12-29T13:04:41Z</time>
      </trkpt>
      <trkpt lat="32.343448000028729" lon="-2.864534016698599">
        <ele>1084.9849999999999</ele>
        <time>2010-12-29T13:04:52Z</time>
      </trkpt>
      <trkpt lat="32.342830002307892" lon="-2.865529032424092">
        <ele>1084.9849999999999</ele>
        <time>2010-12-29T13:05:02Z</time>
      </trkpt>
      <trkpt lat="32.342063980177045" lon="-2.867131987586618">
        <ele>1083.5429999999999</ele>
        <time>2010-12-29T13:05:15Z</time>
      </trkpt>
      <trkpt lat="32.341479007154703" lon="-2.868392961099744">
        <ele>1080.6590000000001</ele>
        <time>2010-12-29T13:05:25Z</time>
      </trkpt>
      <trkpt lat="32.340907026082277" lon="-2.869570031762123">
        <ele>1079.6980000000001</ele>
        <time>2010-12-29T13:05:35Z</time>
      </trkpt>
      <trkpt lat="32.340222978964448" lon="-2.870966037735343">
        <ele>1078.7370000000001</ele>
        <time>2010-12-29T13:05:47Z</time>
      </trkpt>
      <trkpt lat="32.339661978185177" lon="-2.872301023453474">
        <ele>1072.4880000000001</ele>
        <time>2010-12-29T13:05:58Z</time>
      </trkpt>
      <trkpt lat="32.339543960988522" lon="-2.873244993388653">
        <ele>1071.046</ele>
        <time>2010-12-29T13:06:06Z</time>
      </trkpt>
      <trkpt lat="32.339609004557133" lon="-2.873889980837703">
        <ele>1070.5650000000001</ele>
        <time>2010-12-29T13:06:13Z</time>
      </trkpt>
      <trkpt lat="32.339814025908709" lon="-2.874910980463028">
        <ele>1064.317</ele>
        <time>2010-12-29T13:06:25Z</time>
      </trkpt>
      <trkpt lat="32.33994897454977" lon="-2.875286992639303">
        <ele>1064.317</ele>
        <time>2010-12-29T13:06:31Z</time>
      </trkpt>
      <trkpt lat="32.340123988687992" lon="-2.875885963439941">
        <ele>1066.72</ele>
        <time>2010-12-29T13:06:40Z</time>
      </trkpt>
      <trkpt lat="32.340331021696329" lon="-2.87648300640285">
        <ele>1068.643</ele>
        <time>2010-12-29T13:06:49Z</time>
      </trkpt>
      <trkpt lat="32.340543000027537" lon="-2.87682599388063">
        <ele>1068.643</ele>
        <time>2010-12-29T13:06:53Z</time>
      </trkpt>
      <trkpt lat="32.340862015262246" lon="-2.87753501906991">
        <ele>1069.604</ele>
        <time>2010-12-29T13:07:00Z</time>
      </trkpt>
      <trkpt lat="32.34134397469461" lon="-2.878457028418779">
        <ele>1071.527</ele>
        <time>2010-12-29T13:07:08Z</time>
      </trkpt>
      <trkpt lat="32.341661984100938" lon="-2.879000008106232">
        <ele>1073.4490000000001</ele>
        <time>2010-12-29T13:07:13Z</time>
      </trkpt>
      <trkpt lat="32.34175099991262" lon="-2.879811963066459">
        <ele>1075.3720000000001</ele>
        <time>2010-12-29T13:07:20Z</time>
      </trkpt>
      <trkpt lat="32.341605992987752" lon="-2.88080396130681">
        <ele>1084.0239999999999</ele>
        <time>2010-12-29T13:07:29Z</time>
      </trkpt>
      <trkpt lat="32.341285971924663" lon="-2.8816800378263">
        <ele>1091.7139999999999</ele>
        <time>2010-12-29T13:07:37Z</time>
      </trkpt>
      <trkpt lat="32.340821027755737" lon="-2.882635993883014">
        <ele>1098.443</ele>
        <time>2010-12-29T13:07:47Z</time>
      </trkpt>
      <trkpt lat="32.340764030814171" lon="-2.882931036874652">
        <ele>1101.808</ele>
        <time>2010-12-29T13:07:53Z</time>
      </trkpt>
      <trkpt lat="32.340693036094308" lon="-2.883136980235577">
        <ele>1108.057</ele>
        <time>2010-12-29T13:08:06Z</time>
      </trkpt>
      <trkpt lat="32.340150978416204" lon="-2.883040001615882">
        <ele>1114.7860000000001</ele>
        <time>2010-12-29T13:08:13Z</time>
      </trkpt>
      <trkpt lat="32.340024998411536" lon="-2.883028015494347">
        <ele>1116.2280000000001</ele>
        <time>2010-12-29T13:08:16Z</time>
      </trkpt>
      <trkpt lat="32.339829029515386" lon="-2.883073026314378">
        <ele>1117.1890000000001</ele>
        <time>2010-12-29T13:08:20Z</time>
      </trkpt>
      <trkpt lat="32.33956097625196" lon="-2.883047964423895">
        <ele>1121.5150000000001</ele>
        <time>2010-12-29T13:08:26Z</time>
      </trkpt>
      <trkpt lat="32.339477995410562" lon="-2.882986022159457">
        <ele>1122.9570000000001</ele>
        <time>2010-12-29T13:08:28Z</time>
      </trkpt>
      <trkpt lat="32.339126039296389" lon="-2.882788041606545">
        <ele>1119.5930000000001</ele>
        <time>2010-12-29T13:08:37Z</time>
      </trkpt>
      <trkpt lat="32.338857986032963" lon="-2.882722998037934">
        <ele>1122.9570000000001</ele>
        <time>2010-12-29T13:08:45Z</time>
      </trkpt>
      <trkpt lat="32.338672997429967" lon="-2.882935982197523">
        <ele>1119.5930000000001</ele>
        <time>2010-12-29T13:08:53Z</time>
      </trkpt>
      <trkpt lat="32.338493959978223" lon="-2.883244017139077">
        <ele>1115.7470000000001</ele>
        <time>2010-12-29T13:08:59Z</time>
      </trkpt>
      <trkpt lat="32.338340990245342" lon="-2.883526990190148">
        <ele>1103.731</ele>
        <time>2010-12-29T13:09:04Z</time>
      </trkpt>
      <trkpt lat="32.338308971375227" lon="-2.883941978216171">
        <ele>1099.405</ele>
        <time>2010-12-29T13:09:11Z</time>
      </trkpt>
      <trkpt lat="32.338351970538497" lon="-2.884074999019504">
        <ele>1103.731</ele>
        <time>2010-12-29T13:09:13Z</time>
      </trkpt>
      <trkpt lat="32.338365968316793" lon="-2.884725015610457">
        <ele>1109.499</ele>
        <time>2010-12-29T13:09:21Z</time>
      </trkpt>
      <trkpt lat="32.33842397108674" lon="-2.885223990306258">
        <ele>1108.537</ele>
        <time>2010-12-29T13:09:26Z</time>
      </trkpt>
      <trkpt lat="32.338693030178547" lon="-2.885615006089211">
        <ele>1117.6700000000001</ele>
        <time>2010-12-29T13:09:33Z</time>
      </trkpt>
      <trkpt lat="32.339282026514411" lon="-2.885843999683857">
        <ele>1126.3219999999999</ele>
        <time>2010-12-29T13:09:41Z</time>
      </trkpt>
      <trkpt lat="32.339971018955112" lon="-2.886477001011372">
        <ele>1134.4929999999999</ele>
        <time>2010-12-29T13:09:51Z</time>
      </trkpt>
      <trkpt lat="32.340595973655581" lon="-2.886655032634735">
        <ele>1136.896</ele>
        <time>2010-12-29T13:09:54Z</time>
      </trkpt>
      <trkpt lat="32.340595973655581" lon="-2.887187032029033">
        <ele>1139.3</ele>
        <time>2010-12-29T13:10:00Z</time>
      </trkpt>
      <trkpt lat="32.340638972818851" lon="-2.888244995847344">
        <ele>1135.454</ele>
        <time>2010-12-29T13:10:09Z</time>
      </trkpt>
      <trkpt lat="32.340746009722352" lon="-2.889512004330754">
        <ele>1132.5709999999999</ele>
        <time>2010-12-29T13:10:19Z</time>
      </trkpt>
      <trkpt lat="32.340981960296631" lon="-2.890643980354071">
        <ele>1133.0509999999999</ele>
        <time>2010-12-29T13:10:28Z</time>
      </trkpt>
      <trkpt lat="32.341241966933012" lon="-2.891727006062865">
        <ele>1133.5319999999999</ele>
        <time>2010-12-29T13:10:37Z</time>
      </trkpt>
      <trkpt lat="32.341389991343021" lon="-2.89225397631526">
        <ele>1132.5709999999999</ele>
        <time>2010-12-29T13:10:44Z</time>
      </trkpt>
      <trkpt lat="32.341493004933" lon="-2.892739959061146">
        <ele>1130.6479999999999</ele>
        <time>2010-12-29T13:10:53Z</time>
      </trkpt>
      <trkpt lat="32.341571040451527" lon="-2.893067020922899">
        <ele>1130.1669999999999</ele>
        <time>2010-12-29T13:10:58Z</time>
      </trkpt>
      <trkpt lat="32.341734990477562" lon="-2.893656017258763">
        <ele>1131.6089999999999</ele>
        <time>2010-12-29T13:11:06Z</time>
      </trkpt>
      <trkpt lat="32.341973958536983" lon="-2.894748011603952">
        <ele>1134.0119999999999</ele>
        <time>2010-12-29T13:11:17Z</time>
      </trkpt>
      <trkpt lat="32.342269001528621" lon="-2.895619980990887">
        <ele>1138.338</ele>
        <time>2010-12-29T13:11:27Z</time>
      </trkpt>
      <trkpt lat="32.34237696044147" lon="-2.896239990368486">
        <ele>1139.3</ele>
        <time>2010-12-29T13:11:33Z</time>
      </trkpt>
      <trkpt lat="32.342721959576011" lon="-2.897142972797155">
        <ele>1143.145</ele>
        <time>2010-12-29T13:11:41Z</time>
      </trkpt>
      <trkpt lat="32.342871995642781" lon="-2.897808998823166">
        <ele>1144.587</ele>
        <time>2010-12-29T13:11:46Z</time>
      </trkpt>
      <trkpt lat="32.343358984217048" lon="-2.899348000064492">
        <ele>1146.51</ele>
        <time>2010-12-29T13:11:58Z</time>
      </trkpt>
      <trkpt lat="32.343730973079801" lon="-2.900644009932876">
        <ele>1146.99</ele>
        <time>2010-12-29T13:12:08Z</time>
      </trkpt>
      <trkpt lat="32.34398796223104" lon="-2.901173997670412">
        <ele>1146.51</ele>
        <time>2010-12-29T13:12:15Z</time>
      </trkpt>
      <trkpt lat="32.344073038548231" lon="-2.901416989043355">
        <ele>1145.548</ele>
        <time>2010-12-29T13:12:19Z</time>
      </trkpt>
      <trkpt lat="32.344126012176275" lon="-2.901667021214962">
        <ele>1142.184</ele>
        <time>2010-12-29T13:12:23Z</time>
      </trkpt>
      <trkpt lat="32.344089969992638" lon="-2.901843041181564">
        <ele>1140.261</ele>
        <time>2010-12-29T13:12:25Z</time>
      </trkpt>
      <trkpt lat="32.344137998297811" lon="-2.902141017839313">
        <ele>1138.819</ele>
        <time>2010-12-29T13:12:32Z</time>
      </trkpt>
      <trkpt lat="32.344295997172594" lon="-2.902253000065684">
        <ele>1141.222</ele>
        <time>2010-12-29T13:12:40Z</time>
      </trkpt>
      <trkpt lat="32.344478974118829" lon="-2.902475958690047">
        <ele>1143.625</ele>
        <time>2010-12-29T13:12:46Z</time>
      </trkpt>
      <trkpt lat="32.34450101852417" lon="-2.90312203578651">
        <ele>1146.029</ele>
        <time>2010-12-29T13:12:53Z</time>
      </trkpt>
      <trkpt lat="32.344579976052046" lon="-2.904072040691972">
        <ele>1148.913</ele>
        <time>2010-12-29T13:13:04Z</time>
      </trkpt>
      <trkpt lat="32.344822967424989" lon="-2.905021039769054">
        <ele>1149.874</ele>
        <time>2010-12-29T13:13:13Z</time>
      </trkpt>
      <trkpt lat="32.345038969069719" lon="-2.905968027189374">
        <ele>1150.355</ele>
        <time>2010-12-29T13:13:21Z</time>
      </trkpt>
      <trkpt lat="32.345235021784902" lon="-2.906328029930592">
        <ele>1150.355</ele>
        <time>2010-12-29T13:13:25Z</time>
      </trkpt>
      <trkpt lat="32.345626959577203" lon="-2.90677503682673">
        <ele>1153.239</ele>
        <time>2010-12-29T13:13:32Z</time>
      </trkpt>
      <trkpt lat="32.345825023949146" lon="-2.906794985756278">
        <ele>1150.835</ele>
        <time>2010-12-29T13:13:35Z</time>
      </trkpt>
      <trkpt lat="32.346084024757147" lon="-2.906763972714543">
        <ele>1150.355</ele>
        <time>2010-12-29T13:13:40Z</time>
      </trkpt>
      <trkpt lat="32.346205981448293" lon="-2.906792974099517">
        <ele>1151.316</ele>
        <time>2010-12-29T13:13:43Z</time>
      </trkpt>
      <trkpt lat="32.346339002251625" lon="-2.906866986304522">
        <ele>1153.7190000000001</ele>
        <time>2010-12-29T13:13:47Z</time>
      </trkpt>
      <trkpt lat="32.346857003867626" lon="-2.907508034259081">
        <ele>1159.0070000000001</ele>
        <time>2010-12-29T13:14:03Z</time>
      </trkpt>
      <trkpt lat="32.346982983872294" lon="-2.907691011205316">
        <ele>1159.4870000000001</ele>
        <time>2010-12-29T13:14:07Z</time>
      </trkpt>
      <trkpt lat="32.347108963876963" lon="-2.907848004251719">
        <ele>1161.4100000000001</ele>
        <time>2010-12-29T13:14:11Z</time>
      </trkpt>
      <trkpt lat="32.347199991345406" lon="-2.908071968704462">
        <ele>1161.4100000000001</ele>
        <time>2010-12-29T13:14:13Z</time>
      </trkpt>
      <trkpt lat="32.347263023257256" lon="-2.908326024189591">
        <ele>1162.3710000000001</ele>
        <time>2010-12-29T13:14:16Z</time>
      </trkpt>
      <trkpt lat="32.34735899604857" lon="-2.90873296558857">
        <ele>1162.3710000000001</ele>
        <time>2010-12-29T13:14:21Z</time>
      </trkpt>
      <trkpt lat="32.347397971898317" lon="-2.909789001569152">
        <ele>1160.9290000000001</ele>
        <time>2010-12-29T13:14:33Z</time>
      </trkpt>
      <trkpt lat="32.347458992153406" lon="-2.910091001540422">
        <ele>1162.8520000000001</ele>
        <time>2010-12-29T13:14:39Z</time>
      </trkpt>
      <trkpt lat="32.34755395911634" lon="-2.910327035933733">
        <ele>1163.3330000000001</ele>
        <time>2010-12-29T13:14:43Z</time>
      </trkpt>
      <trkpt lat="32.347477013245225" lon="-2.911430010572076">
        <ele>1160.4480000000001</ele>
        <time>2010-12-29T13:14:55Z</time>
      </trkpt>
      <trkpt lat="32.347526969388127" lon="-2.912235008552671">
        <ele>1159.9680000000001</ele>
        <time>2010-12-29T13:15:04Z</time>
      </trkpt>
      <trkpt lat="32.347591007128358" lon="-2.913693962618709">
        <ele>1158.5260000000001</ele>
        <time>2010-12-29T13:15:16Z</time>
      </trkpt>
      <trkpt lat="32.34791798517108" lon="-2.915552984923124">
        <ele>1160.4480000000001</ele>
        <time>2010-12-29T13:15:30Z</time>
      </trkpt>
      <trkpt lat="32.348216967657208" lon="-2.917317962273955">
        <ele>1165.7360000000001</ele>
        <time>2010-12-29T13:15:43Z</time>
      </trkpt>
      <trkpt lat="32.348389970138669" lon="-2.918347008526325">
        <ele>1168.1389999999999</ele>
        <time>2010-12-29T13:15:51Z</time>
      </trkpt>
      <trkpt lat="32.348619969561696" lon="-2.919657016173005">
        <ele>1169.5809999999999</ele>
        <time>2010-12-29T13:16:01Z</time>
      </trkpt>
      <trkpt lat="32.348929010331631" lon="-2.921013040468097">
        <ele>1171.0229999999999</ele>
        <time>2010-12-29T13:16:12Z</time>
      </trkpt>
      <trkpt lat="32.349360007792711" lon="-2.92205398902297">
        <ele>1171.9839999999999</ele>
        <time>2010-12-29T13:16:22Z</time>
      </trkpt>
      <trkpt lat="32.349800979718566" lon="-2.923392998054624">
        <ele>1169.5809999999999</ele>
        <time>2010-12-29T13:16:33Z</time>
      </trkpt>
      <trkpt lat="32.350230971351266" lon="-2.924533020704985">
        <ele>1168.6199999999999</ele>
        <time>2010-12-29T13:16:43Z</time>
      </trkpt>
      <trkpt lat="32.350580999627709" lon="-2.925440026447177">
        <ele>1170.5419999999999</ele>
        <time>2010-12-29T13:16:52Z</time>
      </trkpt>
      <trkpt lat="32.35094603151083" lon="-2.926496984437108">
        <ele>1171.5039999999999</ele>
        <time>2010-12-29T13:17:01Z</time>
      </trkpt>
      <trkpt lat="32.350986013188958" lon="-2.926602009683847">
        <ele>1171.5039999999999</ele>
        <time>2010-12-29T13:17:02Z</time>
      </trkpt>
      <trkpt lat="32.351422961801291" lon="-2.927762987092137">
        <ele>1173.9069999999999</ele>
        <time>2010-12-29T13:17:12Z</time>
      </trkpt>
      <trkpt lat="32.352233994752169" lon="-2.929546991363168">
        <ele>1174.3879999999999</ele>
        <time>2010-12-29T13:17:26Z</time>
      </trkpt>
      <trkpt lat="32.352874958887696" lon="-2.930880971252918">
        <ele>1173.9069999999999</ele>
        <time>2010-12-29T13:17:37Z</time>
      </trkpt>
      <trkpt lat="32.352961963042617" lon="-2.931051962077618">
        <ele>1173.9069999999999</ele>
        <time>2010-12-29T13:17:39Z</time>
      </trkpt>
      <trkpt lat="32.353092972189188" lon="-2.931354967877269">
        <ele>1173.4269999999999</ele>
        <time>2010-12-29T13:17:43Z</time>
      </trkpt>
      <trkpt lat="32.352995993569493" lon="-2.93191303499043">
        <ele>1175.8299999999999</ele>
        <time>2010-12-29T13:17:51Z</time>
      </trkpt>
      <trkpt lat="32.353197997435927" lon="-2.932101963087916">
        <ele>1174.3879999999999</ele>
        <time>2010-12-29T13:17:55Z</time>
      </trkpt>
      <trkpt lat="32.353476025164127" lon="-2.932325005531311">
        <ele>1174.3879999999999</ele>
        <time>2010-12-29T13:18:00Z</time>
      </trkpt>
      <trkpt lat="32.353947004303336" lon="-2.933045011013746">
        <ele>1173.4269999999999</ele>
        <time>2010-12-29T13:18:08Z</time>
      </trkpt>
      <trkpt lat="32.354298960417509" lon="-2.934208000078797">
        <ele>1172.4649999999999</ele>
        <time>2010-12-29T13:18:18Z</time>
      </trkpt>
      <trkpt lat="32.354624010622501" lon="-2.935494035482407">
        <ele>1171.9839999999999</ele>
        <time>2010-12-29T13:18:28Z</time>
      </trkpt>
      <trkpt lat="32.35494202002883" lon="-2.936783004552126">
        <ele>1171.9839999999999</ele>
        <time>2010-12-29T13:18:37Z</time>
      </trkpt>
      <trkpt lat="32.355362959206104" lon="-2.938193008303642">
        <ele>1169.1010000000001</ele>
        <time>2010-12-29T13:18:48Z</time>
      </trkpt>
      <trkpt lat="32.355853971093893" lon="-2.940189996734262">
        <ele>1165.7360000000001</ele>
        <time>2010-12-29T13:19:03Z</time>
      </trkpt>
      <trkpt lat="32.356235012412071" lon="-2.941608969122171">
        <ele>1164.2940000000001</ele>
        <time>2010-12-29T13:19:14Z</time>
      </trkpt>
      <trkpt lat="32.356487978249788" lon="-2.942575989291072">
        <ele>1162.3710000000001</ele>
        <time>2010-12-29T13:19:21Z</time>
      </trkpt>
      <trkpt lat="32.356677995994687" lon="-2.943188035860658">
        <ele>1160.4480000000001</ele>
        <time>2010-12-29T13:19:26Z</time>
      </trkpt>
      <trkpt lat="32.356997011229396" lon="-2.943749958649278">
        <ele>1156.123</ele>
        <time>2010-12-29T13:19:33Z</time>
      </trkpt>
      <trkpt lat="32.357084015384316" lon="-2.943841991946101">
        <ele>1154.681</ele>
        <time>2010-12-29T13:19:37Z</time>
      </trkpt>
      <trkpt lat="32.357142018154263" lon="-2.943980963900685">
        <ele>1156.123</ele>
        <time>2010-12-29T13:19:41Z</time>
      </trkpt>
      <trkpt lat="32.357176970690489" lon="-2.944120019674301">
        <ele>1156.123</ele>
        <time>2010-12-29T13:19:43Z</time>
      </trkpt>
      <trkpt lat="32.357278978452086" lon="-2.94450500048697">
        <ele>1157.0840000000001</ele>
        <time>2010-12-29T13:19:48Z</time>
      </trkpt>
      <trkpt lat="32.357507972046733" lon="-2.944812029600143">
        <ele>1155.1610000000001</ele>
        <time>2010-12-29T13:19:52Z</time>
      </trkpt>
      <trkpt lat="32.357684997841716" lon="-2.944988971576095">
        <ele>1153.7190000000001</ele>
        <time>2010-12-29T13:19:55Z</time>
      </trkpt>
      <trkpt lat="32.358000995591283" lon="-2.945253001525998">
        <ele>1150.355</ele>
        <time>2010-12-29T13:20:01Z</time>
      </trkpt>
      <trkpt lat="32.358119012787938" lon="-2.945478977635503">
        <ele>1149.394</ele>
        <time>2010-12-29T13:20:04Z</time>
      </trkpt>
      <trkpt lat="32.358167041093111" lon="-2.94598801061511">
        <ele>1149.394</ele>
        <time>2010-12-29T13:20:08Z</time>
      </trkpt>
      <trkpt lat="32.358039971441031" lon="-2.946339966729283">
        <ele>1149.394</ele>
        <time>2010-12-29T13:20:11Z</time>
      </trkpt>
      <trkpt lat="32.357951961457729" lon="-2.946529984474182">
        <ele>1148.913</ele>
        <time>2010-12-29T13:20:13Z</time>
      </trkpt>
      <trkpt lat="32.358003007248044" lon="-2.946821004152298">
        <ele>1146.99</ele>
        <time>2010-12-29T13:20:19Z</time>
      </trkpt>
      <trkpt lat="32.358308024704456" lon="-2.94770797714591">
        <ele>1150.355</ele>
        <time>2010-12-29T13:20:29Z</time>
      </trkpt>
      <trkpt lat="32.358495024964213" lon="-2.948279036208987">
        <ele>1151.316</ele>
        <time>2010-12-29T13:20:35Z</time>
      </trkpt>
      <trkpt lat="32.35887698829174" lon="-2.949397014454007">
        <ele>1155.6420000000001</ele>
        <time>2010-12-29T13:20:45Z</time>
      </trkpt>
      <trkpt lat="32.359250988811255" lon="-2.950396975502372">
        <ele>1151.316</ele>
        <time>2010-12-29T13:20:54Z</time>
      </trkpt>
      <trkpt lat="32.35960403457284" lon="-2.951435996219516">
        <ele>1150.835</ele>
        <time>2010-12-29T13:21:03Z</time>
      </trkpt>
      <trkpt lat="32.359867980703712" lon="-2.952047036960721">
        <ele>1148.913</ele>
        <time>2010-12-29T13:21:09Z</time>
      </trkpt>
      <trkpt lat="32.359974011778831" lon="-2.952372003346682">
        <ele>1147.951</ele>
        <time>2010-12-29T13:21:13Z</time>
      </trkpt>
      <trkpt lat="32.360107032582164" lon="-2.952974997460842">
        <ele>1146.99</ele>
        <time>2010-12-29T13:21:19Z</time>
      </trkpt>
      <trkpt lat="32.360172998160124" lon="-2.95322997495532">
        <ele>1146.51</ele>
        <time>2010-12-29T13:21:22Z</time>
      </trkpt>
      <trkpt lat="32.360204011201859" lon="-2.953429967164993">
        <ele>1145.548</ele>
        <time>2010-12-29T13:21:24Z</time>
      </trkpt>
      <trkpt lat="32.360238041728735" lon="-2.953941011801362">
        <ele>1142.664</ele>
        <time>2010-12-29T13:21:29Z</time>
      </trkpt>
      <trkpt lat="32.360267965123057" lon="-2.954134969040752">
        <ele>1142.184</ele>
        <time>2010-12-29T13:21:31Z</time>
      </trkpt>
      <trkpt lat="32.36031498759985" lon="-2.954630004242063">
        <ele>1141.703</ele>
        <time>2010-12-29T13:21:35Z</time>
      </trkpt>
      <trkpt lat="32.36031498759985" lon="-2.955678999423981">
        <ele>1141.703</ele>
        <time>2010-12-29T13:21:44Z</time>
      </trkpt>
      <trkpt lat="32.360316999256611" lon="-2.956154001876712">
        <ele>1142.184</ele>
        <time>2010-12-29T13:21:48Z</time>
      </trkpt>
      <trkpt lat="32.360520008951426" lon="-2.957127979025245">
        <ele>1141.222</ele>
        <time>2010-12-29T13:21:57Z</time>
      </trkpt>
      <trkpt lat="32.360625034198165" lon="-2.957644974812865">
        <ele>1138.338</ele>
        <time>2010-12-29T13:22:04Z</time>
      </trkpt>
      <trkpt lat="32.360688988119364" lon="-2.957900958135724">
        <ele>1137.377</ele>
        <time>2010-12-29T13:22:08Z</time>
      </trkpt>
      <trkpt lat="32.360881017521024" lon="-2.958634039387107">
        <ele>1141.222</ele>
        <time>2010-12-29T13:22:16Z</time>
      </trkpt>
      <trkpt lat="32.361113028600812" lon="-2.959664007648826">
        <ele>1142.184</ele>
        <time>2010-12-29T13:22:24Z</time>
      </trkpt>
      <trkpt lat="32.361425003036857" lon="-2.960588028654456">
        <ele>1139.78</ele>
        <time>2010-12-29T13:22:32Z</time>
      </trkpt>
      <trkpt lat="32.361137000843883" lon="-2.961945980787277">
        <ele>1138.338</ele>
        <time>2010-12-29T13:22:41Z</time>
      </trkpt>
      <trkpt lat="32.361170025542378" lon="-2.962045976892114">
        <ele>1138.819</ele>
        <time>2010-12-29T13:22:42Z</time>
      </trkpt>
      <trkpt lat="32.361364988610148" lon="-2.962221996858716">
        <ele>1138.338</ele>
        <time>2010-12-29T13:22:47Z</time>
      </trkpt>
      <trkpt lat="32.36207501962781" lon="-2.961996020749211">
        <ele>1127.2829999999999</ele>
        <time>2010-12-29T13:23:00Z</time>
      </trkpt>
      <trkpt lat="32.362210974097252" lon="-2.962092999368906">
        <ele>1127.7639999999999</ele>
        <time>2010-12-29T13:23:05Z</time>
      </trkpt>
      <trkpt lat="32.362319016829133" lon="-2.962133986875415">
        <ele>1129.2059999999999</ele>
        <time>2010-12-29T13:23:08Z</time>
      </trkpt>
      <trkpt lat="32.362551027908921" lon="-2.962339008226991">
        <ele>1131.1279999999999</ele>
        <time>2010-12-29T13:23:12Z</time>
      </trkpt>
      <trkpt lat="32.362783038988709" lon="-2.962517039850354">
        <ele>1132.5709999999999</ele>
        <time>2010-12-29T13:23:17Z</time>
      </trkpt>
      <trkpt lat="32.363249994814396" lon="-2.96259599737823">
        <ele>1131.6089999999999</ele>
        <time>2010-12-29T13:23:24Z</time>
      </trkpt>
      <trkpt lat="32.36373002640903" lon="-2.962421989068389">
        <ele>1130.6479999999999</ele>
        <time>2010-12-29T13:23:29Z</time>
      </trkpt>
      <trkpt lat="32.36381895840168" lon="-2.96233699657023">
        <ele>1130.1669999999999</ele>
        <time>2010-12-29T13:23:32Z</time>
      </trkpt>
      <trkpt lat="32.364307958632708" lon="-2.962313024327159">
        <ele>1128.2439999999999</ele>
        <time>2010-12-29T13:23:42Z</time>
      </trkpt>
      <trkpt lat="32.364722024649382" lon="-2.962350994348526">
        <ele>1128.2439999999999</ele>
        <time>2010-12-29T13:23:49Z</time>
      </trkpt>
      <trkpt lat="32.365002986043692" lon="-2.962456019595265">
        <ele>1119.5930000000001</ele>
        <time>2010-12-29T13:23:57Z</time>
      </trkpt>
      <trkpt lat="32.36534496769309" lon="-2.962521985173225">
        <ele>1117.1890000000001</ele>
        <time>2010-12-29T13:24:02Z</time>
      </trkpt>
      <trkpt lat="32.365700025111437" lon="-2.962382007390261">
        <ele>1114.7860000000001</ele>
        <time>2010-12-29T13:24:08Z</time>
      </trkpt>
      <trkpt lat="32.366186007857323" lon="-2.962432969361544">
        <ele>1116.2280000000001</ele>
        <time>2010-12-29T13:24:15Z</time>
      </trkpt>
      <trkpt lat="32.366767963394523" lon="-2.963351039215922">
        <ele>1123.9179999999999</ele>
        <time>2010-12-29T13:24:29Z</time>
      </trkpt>
      <trkpt lat="32.366809034720063" lon="-2.963472995907068">
        <ele>1124.3989999999999</ele>
        <time>2010-12-29T13:24:30Z</time>
      </trkpt>
      <trkpt lat="32.366863014176488" lon="-2.963809026405215">
        <ele>1125.8409999999999</ele>
        <time>2010-12-29T13:24:34Z</time>
      </trkpt>
      <trkpt lat="32.366971978917718" lon="-2.964171962812543">
        <ele>1127.7639999999999</ele>
        <time>2010-12-29T13:24:39Z</time>
      </trkpt>
      <trkpt lat="32.367152022197843" lon="-2.964424006640911">
        <ele>1130.1669999999999</ele>
        <time>2010-12-29T13:24:46Z</time>
      </trkpt>
      <trkpt lat="32.367394007742405" lon="-2.965060025453568">
        <ele>1136.4159999999999</ele>
        <time>2010-12-29T13:24:54Z</time>
      </trkpt>
      <trkpt lat="32.367460979148746" lon="-2.966198036447167">
        <ele>1143.625</ele>
        <time>2010-12-29T13:25:04Z</time>
      </trkpt>
      <trkpt lat="32.367601962760091" lon="-2.96723403967917">
        <ele>1141.703</ele>
        <time>2010-12-29T13:25:14Z</time>
      </trkpt>
      <trkpt lat="32.367713022977114" lon="-2.967943986877799">
        <ele>1137.377</ele>
        <time>2010-12-29T13:25:22Z</time>
      </trkpt>
      <trkpt lat="32.367670023813844" lon="-2.968437010422349">
        <ele>1137.8579999999999</ele>
        <time>2010-12-29T13:25:27Z</time>
      </trkpt>
      <trkpt lat="32.367440024390817" lon="-2.969553982838988">
        <ele>1138.338</ele>
        <time>2010-12-29T13:25:38Z</time>
      </trkpt>
      <trkpt lat="32.367293005809188" lon="-2.969821030274034">
        <ele>1140.261</ele>
        <time>2010-12-29T13:25:43Z</time>
      </trkpt>
      <trkpt lat="32.367454022169113" lon="-2.970766006037593">
        <ele>1140.261</ele>
        <time>2010-12-29T13:25:53Z</time>
      </trkpt>
      <trkpt lat="32.367463996633887" lon="-2.971150986850262">
        <ele>1140.261</ele>
        <time>2010-12-29T13:25:57Z</time>
      </trkpt>
      <trkpt lat="32.367169037461281" lon="-2.972633996978402">
        <ele>1141.222</ele>
        <time>2010-12-29T13:26:09Z</time>
      </trkpt>
      <trkpt lat="32.367485035210848" lon="-2.973469002172351">
        <ele>1131.6089999999999</ele>
        <time>2010-12-29T13:26:20Z</time>
      </trkpt>
      <trkpt lat="32.367568016052246" lon="-2.973726997151971">
        <ele>1129.2059999999999</ele>
        <time>2010-12-29T13:26:23Z</time>
      </trkpt>
      <trkpt lat="32.367631969973445" lon="-2.974054981023073">
        <ele>1127.2829999999999</ele>
        <time>2010-12-29T13:26:27Z</time>
      </trkpt>
      <trkpt lat="32.367745041847229" lon="-2.974372990429401">
        <ele>1122.9570000000001</ele>
        <time>2010-12-29T13:26:31Z</time>
      </trkpt>
      <trkpt lat="32.367760967463255" lon="-2.974634002894163">
        <ele>1117.1890000000001</ele>
        <time>2010-12-29T13:26:34Z</time>
      </trkpt>
      <trkpt lat="32.367745963856578" lon="-2.975233979523182">
        <ele>1114.7860000000001</ele>
        <time>2010-12-29T13:26:41Z</time>
      </trkpt>
      <trkpt lat="32.367692990228534" lon="-2.97623896971345">
        <ele>1109.979</ele>
        <time>2010-12-29T13:26:50Z</time>
      </trkpt>
      <trkpt lat="32.367615038529038" lon="-2.976923016831279">
        <ele>1107.095</ele>
        <time>2010-12-29T13:26:57Z</time>
      </trkpt>
      <trkpt lat="32.367611015215516" lon="-2.97703399322927">
        <ele>1106.134</ele>
        <time>2010-12-29T13:26:58Z</time>
      </trkpt>
      <trkpt lat="32.367557035759091" lon="-2.977628018707037">
        <ele>1101.328</ele>
        <time>2010-12-29T13:27:05Z</time>
      </trkpt>
      <trkpt lat="32.36749199219048" lon="-2.97782801091671">
        <ele>1099.885</ele>
        <time>2010-12-29T13:27:09Z</time>
      </trkpt>
      <trkpt lat="32.368548028171062" lon="-2.978552961722016">
        <ele>1098.443</ele>
        <time>2010-12-29T13:27:18Z</time>
      </trkpt>
      <trkpt lat="32.368761012330651" lon="-2.978825960308313">
        <ele>1098.924</ele>
        <time>2010-12-29T13:27:22Z</time>
      </trkpt>
      <trkpt lat="32.369033005088568" lon="-2.979378998279572">
        <ele>1100.847</ele>
        <time>2010-12-29T13:27:28Z</time>
      </trkpt>
      <trkpt lat="32.369281025603414" lon="-2.979725003242493">
        <ele>1101.328</ele>
        <time>2010-12-29T13:27:32Z</time>
      </trkpt>
      <trkpt lat="32.369745969772339" lon="-2.980080982670188">
        <ele>1101.328</ele>
        <time>2010-12-29T13:27:39Z</time>
      </trkpt>
      <trkpt lat="32.370046963915229" lon="-2.98030000180006">
        <ele>1101.328</ele>
        <time>2010-12-29T13:27:47Z</time>
      </trkpt>
      <trkpt lat="32.370250979438424" lon="-2.980307964608073">
        <ele>1100.847</ele>
        <time>2010-12-29T13:27:54Z</time>
      </trkpt>
      <trkpt lat="32.370266988873482" lon="-2.980465041473508">
        <ele>1099.885</ele>
        <time>2010-12-29T13:28:00Z</time>
      </trkpt>
      <trkpt lat="32.370154000818729" lon="-2.980417013168335">
        <ele>1097.001</ele>
        <time>2010-12-29T13:28:03Z</time>
      </trkpt>
      <trkpt lat="32.369705988094211" lon="-2.98004200682044">
        <ele>1095.5599999999999</ele>
        <time>2010-12-29T13:28:12Z</time>
      </trkpt>
      <trkpt lat="32.369335005059838" lon="-2.979771019890904">
        <ele>1094.1179999999999</ele>
        <time>2010-12-29T13:28:18Z</time>
      </trkpt>
      <trkpt lat="32.368916999548674" lon="-2.979188980534673">
        <ele>1092.6759999999999</ele>
        <time>2010-12-29T13:28:26Z</time>
      </trkpt>
      <trkpt lat="32.368818009272218" lon="-2.978930985555053">
        <ele>1091.2339999999999</ele>
        <time>2010-12-29T13:28:29Z</time>
      </trkpt>
      <trkpt lat="32.368583986535668" lon="-2.978552039712668">
        <ele>1087.8689999999999</ele>
        <time>2010-12-29T13:28:34Z</time>
      </trkpt>
      <trkpt lat="32.368102027103305" lon="-2.978106960654259">
        <ele>1085.4659999999999</ele>
        <time>2010-12-29T13:28:42Z</time>
      </trkpt>
      <trkpt lat="32.367540020495653" lon="-2.977679986506701">
        <ele>1085.9469999999999</ele>
        <time>2010-12-29T13:28:47Z</time>
      </trkpt>
      <trkpt lat="32.367596011608839" lon="-2.977512013167143">
        <ele>1087.3879999999999</ele>
        <time>2010-12-29T13:28:51Z</time>
      </trkpt>
      <trkpt lat="32.367413034662604" lon="-2.978159012272954">
        <ele>1087.3879999999999</ele>
        <time>2010-12-29T13:29:04Z</time>
      </trkpt>
      <trkpt lat="32.367377998307347" lon="-2.978554973378778">
        <ele>1088.8309999999999</ele>
        <time>2010-12-29T13:29:10Z</time>
      </trkpt>
      <trkpt lat="32.367374980822206" lon="-2.979025030508637">
        <ele>1086.9079999999999</ele>
        <time>2010-12-29T13:29:16Z</time>
      </trkpt>
      <trkpt lat="32.367427032440901" lon="-2.979231979697943">
        <ele>1086.4269999999999</ele>
        <time>2010-12-29T13:29:18Z</time>
      </trkpt>
      <trkpt lat="32.367596011608839" lon="-2.979631964117289">
        <ele>1087.8689999999999</ele>
        <time>2010-12-29T13:29:22Z</time>
      </trkpt>
      <trkpt lat="32.367675974965096" lon="-2.980072014033794">
        <ele>1089.3109999999999</ele>
        <time>2010-12-29T13:29:26Z</time>
      </trkpt>
      <trkpt lat="32.367811007425189" lon="-2.980564031749964">
        <ele>1088.3499999999999</ele>
        <time>2010-12-29T13:29:31Z</time>
      </trkpt>
      <trkpt lat="32.367997001856565" lon="-2.981561981141567">
        <ele>1088.8309999999999</ele>
        <time>2010-12-29T13:29:40Z</time>
      </trkpt>
      <trkpt lat="32.368040001019835" lon="-2.982018040493131">
        <ele>1089.3109999999999</ele>
        <time>2010-12-29T13:29:44Z</time>
      </trkpt>
      <trkpt lat="32.367980992421508" lon="-2.982433028519154">
        <ele>1089.3109999999999</ele>
        <time>2010-12-29T13:29:48Z</time>
      </trkpt>
      <trkpt lat="32.367759039625525" lon="-2.982928985729814">
        <ele>1085.4659999999999</ele>
        <time>2010-12-29T13:29:54Z</time>
      </trkpt>
      <trkpt lat="32.367728026583791" lon="-2.983422009274364">
        <ele>1084.0239999999999</ele>
        <time>2010-12-29T13:29:59Z</time>
      </trkpt>
      <trkpt lat="32.367973029613495" lon="-2.984569994732738">
        <ele>1082.5820000000001</ele>
        <time>2010-12-29T13:30:09Z</time>
      </trkpt>
      <trkpt lat="32.367988033220172" lon="-2.984675019979477">
        <ele>1082.1010000000001</ele>
        <time>2010-12-29T13:30:10Z</time>
      </trkpt>
      <trkpt lat="32.367997001856565" lon="-2.985144993290305">
        <ele>1081.1400000000001</ele>
        <time>2010-12-29T13:30:16Z</time>
      </trkpt>
      <trkpt lat="32.368057016283274" lon="-2.985532991588116">
        <ele>1080.6590000000001</ele>
        <time>2010-12-29T13:30:20Z</time>
      </trkpt>
      <trkpt lat="32.368376031517982" lon="-2.986718025058508">
        <ele>1080.1780000000001</ele>
        <time>2010-12-29T13:30:30Z</time>
      </trkpt>
      <trkpt lat="32.368743997067213" lon="-2.987837009131908">
        <ele>1079.2170000000001</ele>
        <time>2010-12-29T13:30:39Z</time>
      </trkpt>
      <trkpt lat="32.369053037837148" lon="-2.98906303010881">
        <ele>1077.2950000000001</ele>
        <time>2010-12-29T13:30:48Z</time>
      </trkpt>
      <trkpt lat="32.369500966742635" lon="-2.990484014153481">
        <ele>1075.8530000000001</ele>
        <time>2010-12-29T13:30:59Z</time>
      </trkpt>
      <trkpt lat="32.369680004194379" lon="-2.991003021597862">
        <ele>1074.8910000000001</ele>
        <time>2010-12-29T13:31:05Z</time>
      </trkpt>
      <trkpt lat="32.369771031662822" lon="-2.991206031292677">
        <ele>1074.8910000000001</ele>
        <time>2010-12-29T13:31:09Z</time>
      </trkpt>
      <trkpt lat="32.369916038587689" lon="-2.991507025435567">
        <ele>1074.4110000000001</ele>
        <time>2010-12-29T13:31:17Z</time>
      </trkpt>
      <trkpt lat="32.370030032470822" lon="-2.99177398905158">
        <ele>1074.4110000000001</ele>
        <time>2010-12-29T13:31:25Z</time>
      </trkpt>
      <trkpt lat="32.370299007743597" lon="-2.992218984290958">
        <ele>1078.2560000000001</ele>
        <time>2010-12-29T13:31:36Z</time>
      </trkpt>
      <trkpt lat="32.370493970811367" lon="-2.992735980078578">
        <ele>1081.1400000000001</ele>
        <time>2010-12-29T13:31:46Z</time>
      </trkpt>
      <trkpt lat="32.370667979121208" lon="-2.993581965565682">
        <ele>1081.1400000000001</ele>
        <time>2010-12-29T13:31:56Z</time>
      </trkpt>
      <trkpt lat="32.370764035731554" lon="-2.994592990726233">
        <ele>1083.0619999999999</ele>
        <time>2010-12-29T13:32:06Z</time>
      </trkpt>
      <trkpt lat="32.370852967724204" lon="-2.995370998978615">
        <ele>1084.0239999999999</ele>
        <time>2010-12-29T13:32:15Z</time>
      </trkpt>
      <trkpt lat="32.370922034606338" lon="-2.995828986167908">
        <ele>1084.5050000000001</ele>
        <time>2010-12-29T13:32:21Z</time>
      </trkpt>
      <trkpt lat="32.370991017669439" lon="-2.996710008010268">
        <ele>1084.9849999999999</ele>
        <time>2010-12-29T13:32:32Z</time>
      </trkpt>
      <trkpt lat="32.371018007397652" lon="-2.997375028207898">
        <ele>1084.9849999999999</ele>
        <time>2010-12-29T13:32:41Z</time>
      </trkpt>
      <trkpt lat="32.370982971042395" lon="-2.997764032334089">
        <ele>1085.9469999999999</ele>
        <time>2010-12-29T13:32:48Z</time>
      </trkpt>
      <trkpt lat="32.371073998510838" lon="-2.998197041451931">
        <ele>1086.4269999999999</ele>
        <time>2010-12-29T13:32:58Z</time>
      </trkpt>
      <trkpt lat="32.371116997674108" lon="-2.998328972607851">
        <ele>1085.9469999999999</ele>
        <time>2010-12-29T13:33:00Z</time>
      </trkpt>
      <trkpt lat="32.371244989335537" lon="-2.999069010838866">
        <ele>1085.9469999999999</ele>
        <time>2010-12-29T13:33:09Z</time>
      </trkpt>
      <trkpt lat="32.371280025690794" lon="-2.999986996874213">
        <ele>1083.5429999999999</ele>
        <time>2010-12-29T13:33:20Z</time>
      </trkpt>
      <trkpt lat="32.371303997933865" lon="-3.000163016840816">
        <ele>1083.0619999999999</ele>
        <time>2010-12-29T13:33:22Z</time>
      </trkpt>
      <trkpt lat="32.371323024854064" lon="-3.00060298293829">
        <ele>1083.0619999999999</ele>
        <time>2010-12-29T13:33:27Z</time>
      </trkpt>
      <trkpt lat="32.371383961290121" lon="-3.00161300227046">
        <ele>1083.5429999999999</ele>
        <time>2010-12-29T13:33:36Z</time>
      </trkpt>
      <trkpt lat="32.371409023180604" lon="-3.00298604182899">
        <ele>1083.0619999999999</ele>
        <time>2010-12-29T13:33:47Z</time>
      </trkpt>
      <trkpt lat="32.371428972110152" lon="-3.003507982939482">
        <ele>1083.0619999999999</ele>
        <time>2010-12-29T13:33:53Z</time>
      </trkpt>
      <trkpt lat="32.371480017900467" lon="-3.004283979535103">
        <ele>1083.5429999999999</ele>
        <time>2010-12-29T13:34:00Z</time>
      </trkpt>
      <trkpt lat="32.371562998741865" lon="-3.005934040993452">
        <ele>1083.5429999999999</ele>
        <time>2010-12-29T13:34:12Z</time>
      </trkpt>
      <trkpt lat="32.371580014005303" lon="-3.007070040330291">
        <ele>1082.5820000000001</ele>
        <time>2010-12-29T13:34:21Z</time>
      </trkpt>
      <trkpt lat="32.371558975428343" lon="-3.007335998117924">
        <ele>1082.1010000000001</ele>
        <time>2010-12-29T13:34:26Z</time>
      </trkpt>
      <trkpt lat="32.371558975428343" lon="-3.007746962830424">
        <ele>1082.5820000000001</ele>
        <time>2010-12-29T13:34:31Z</time>
      </trkpt>
      <trkpt lat="32.371556963771582" lon="-3.008496975526214">
        <ele>1083.0619999999999</ele>
        <time>2010-12-29T13:34:37Z</time>
      </trkpt>
      <trkpt lat="32.371527040377259" lon="-3.00883200019598">
        <ele>1082.5820000000001</ele>
        <time>2010-12-29T13:34:40Z</time>
      </trkpt>
      <trkpt lat="32.371515976265073" lon="-3.009645966812968">
        <ele>1083.5429999999999</ele>
        <time>2010-12-29T13:34:49Z</time>
      </trkpt>
      <trkpt lat="32.371472977101803" lon="-3.010884979739785">
        <ele>1083.0619999999999</ele>
        <time>2010-12-29T13:35:00Z</time>
      </trkpt>
      <trkpt lat="32.371388990432024" lon="-3.011622000485659">
        <ele>1082.1010000000001</ele>
        <time>2010-12-29T13:35:08Z</time>
      </trkpt>
      <trkpt lat="32.371366024017334" lon="-3.012366984039545">
        <ele>1081.6199999999999</ele>
        <time>2010-12-29T13:35:16Z</time>
      </trkpt>
      <trkpt lat="32.371366024017334" lon="-3.01272296346724">
        <ele>1081.1400000000001</ele>
        <time>2010-12-29T13:35:22Z</time>
      </trkpt>
      <trkpt lat="32.371366024017334" lon="-3.013565009459853">
        <ele>1080.1780000000001</ele>
        <time>2010-12-29T13:35:30Z</time>
      </trkpt>
      <trkpt lat="32.371323024854064" lon="-3.014727998524904">
        <ele>1077.7750000000001</ele>
        <time>2010-12-29T13:35:40Z</time>
      </trkpt>
      <trkpt lat="32.371323024854064" lon="-3.015783028677106">
        <ele>1075.3720000000001</ele>
        <time>2010-12-29T13:35:50Z</time>
      </trkpt>
      <trkpt lat="32.371323024854064" lon="-3.016099026426673">
        <ele>1074.4110000000001</ele>
        <time>2010-12-29T13:35:57Z</time>
      </trkpt>
      <trkpt lat="32.371323024854064" lon="-3.016647035256028">
        <ele>1073.9300000000001</ele>
        <time>2010-12-29T13:36:05Z</time>
      </trkpt>
      <trkpt lat="32.371280025690794" lon="-3.017451027408242">
        <ele>1073.9300000000001</ele>
        <time>2010-12-29T13:36:12Z</time>
      </trkpt>
      <trkpt lat="32.37127399072051" lon="-3.017858974635601">
        <ele>1073.9300000000001</ele>
        <time>2010-12-29T13:36:17Z</time>
      </trkpt>
      <trkpt lat="32.371258987113833" lon="-3.018146976828575">
        <ele>1073.9300000000001</ele>
        <time>2010-12-29T13:36:22Z</time>
      </trkpt>
      <trkpt lat="32.371258987113833" lon="-3.01858501508832">
        <ele>1074.4110000000001</ele>
        <time>2010-12-29T13:36:31Z</time>
      </trkpt>
      <trkpt lat="32.371237026527524" lon="-3.01933703944087">
        <ele>1073.9300000000001</ele>
        <time>2010-12-29T13:36:41Z</time>
      </trkpt>
      <trkpt lat="32.371215987950563" lon="-3.020439008250833">
        <ele>1072.4880000000001</ele>
        <time>2010-12-29T13:36:53Z</time>
      </trkpt>
      <trkpt lat="32.371194027364254" lon="-3.021267978474498">
        <ele>1071.527</ele>
        <time>2010-12-29T13:37:02Z</time>
      </trkpt>
      <trkpt lat="32.371194027364254" lon="-3.022004999220371">
        <ele>1070.5650000000001</ele>
        <time>2010-12-29T13:37:10Z</time>
      </trkpt>
      <trkpt lat="32.371190004050732" lon="-3.022343041375279">
        <ele>1069.604</ele>
        <time>2010-12-29T13:37:16Z</time>
      </trkpt>
      <trkpt lat="32.371172988787293" lon="-3.022702038288117">
        <ele>1069.604</ele>
        <time>2010-12-29T13:37:24Z</time>
      </trkpt>
      <trkpt lat="32.371169971302152" lon="-3.023287011310458">
        <ele>1069.604</ele>
        <time>2010-12-29T13:37:31Z</time>
      </trkpt>
      <trkpt lat="32.371108029037714" lon="-3.024311028420925">
        <ele>1068.643</ele>
        <time>2010-12-29T13:37:40Z</time>
      </trkpt>
      <trkpt lat="32.371082967147231" lon="-3.025281988084316">
        <ele>1068.162</ele>
        <time>2010-12-29T13:37:49Z</time>
      </trkpt>
      <trkpt lat="32.371073998510838" lon="-3.025564961135387">
        <ele>1068.162</ele>
        <time>2010-12-29T13:37:54Z</time>
      </trkpt>
      <trkpt lat="32.371066035702825" lon="-3.026000987738371">
        <ele>1067.201</ele>
        <time>2010-12-29T13:38:01Z</time>
      </trkpt>
      <trkpt lat="32.371043991297483" lon="-3.026562994346023">
        <ele>1066.239</ele>
        <time>2010-12-29T13:38:08Z</time>
      </trkpt>
      <trkpt lat="32.371043991297483" lon="-3.027337985113263">
        <ele>1065.759</ele>
        <time>2010-12-29T13:38:16Z</time>
      </trkpt>
      <trkpt lat="32.371023036539555" lon="-3.028121022507548">
        <ele>1064.317</ele>
        <time>2010-12-29T13:38:25Z</time>
      </trkpt>
      <trkpt lat="32.371012978255749" lon="-3.028457975015044">
        <ele>1063.355</ele>
        <time>2010-12-29T13:38:29Z</time>
      </trkpt>
      <trkpt lat="32.370940977707505" lon="-3.029423989355564">
        <ele>1062.875</ele>
        <time>2010-12-29T13:38:40Z</time>
      </trkpt>
      <trkpt lat="32.370873000472784" lon="-3.030420010909438">
        <ele>1062.875</ele>
        <time>2010-12-29T13:38:49Z</time>
      </trkpt>
      <trkpt lat="32.370841987431049" lon="-3.031762959435582">
        <ele>1061.914</ele>
        <time>2010-12-29T13:39:00Z</time>
      </trkpt>
      <trkpt lat="32.370857996866107" lon="-3.032491011545062">
        <ele>1061.433</ele>
        <time>2010-12-29T13:39:07Z</time>
      </trkpt>
      <trkpt lat="32.37086595967412" lon="-3.033057041466236">
        <ele>1060.952</ele>
        <time>2010-12-29T13:39:13Z</time>
      </trkpt>
      <trkpt lat="32.37082296051085" lon="-3.033441016450524">
        <ele>1060.471</ele>
        <time>2010-12-29T13:39:17Z</time>
      </trkpt>
      <trkpt lat="32.370787002146244" lon="-3.03491204045713">
        <ele>1056.626</ele>
        <time>2010-12-29T13:39:30Z</time>
      </trkpt>
      <trkpt lat="32.370687006041408" lon="-3.036038987338543">
        <ele>1055.665</ele>
        <time>2010-12-29T13:39:40Z</time>
      </trkpt>
      <trkpt lat="32.370719024911523" lon="-3.037122013047338">
        <ele>1054.223</ele>
        <time>2010-12-29T13:39:49Z</time>
      </trkpt>
      <trkpt lat="32.370558008551598" lon="-3.038238985463977">
        <ele>1053.2619999999999</ele>
        <time>2010-12-29T13:39:58Z</time>
      </trkpt>
      <trkpt lat="32.370500005781651" lon="-3.039376996457577">
        <ele>1051.8199999999999</ele>
        <time>2010-12-29T13:40:08Z</time>
      </trkpt>
      <trkpt lat="32.370315017178655" lon="-3.040080992504954">
        <ele>1050.8579999999999</ele>
        <time>2010-12-29T13:40:15Z</time>
      </trkpt>
      <trkpt lat="32.370292972773314" lon="-3.040836034342647">
        <ele>1049.8969999999999</ele>
        <time>2010-12-29T13:40:23Z</time>
      </trkpt>
      <trkpt lat="32.370292972773314" lon="-3.041752008721232">
        <ele>1048.4549999999999</ele>
        <time>2010-12-29T13:40:33Z</time>
      </trkpt>
      <trkpt lat="32.370310993865132" lon="-3.042011009529233">
        <ele>1048.4549999999999</ele>
        <time>2010-12-29T13:40:36Z</time>
      </trkpt>
      <trkpt lat="32.370315017178655" lon="-3.042482994496822">
        <ele>1047.4939999999999</ele>
        <time>2010-12-29T13:40:41Z</time>
      </trkpt>
      <trkpt lat="32.37043596804142" lon="-3.043510029092431">
        <ele>1045.5709999999999</ele>
        <time>2010-12-29T13:40:51Z</time>
      </trkpt>
      <trkpt lat="32.370448959991336" lon="-3.043624022975564">
        <ele>1045.5709999999999</ele>
        <time>2010-12-29T13:40:52Z</time>
      </trkpt>
      <trkpt lat="32.370401015505195" lon="-3.044538991525769">
        <ele>1045.0899999999999</ele>
        <time>2010-12-29T13:41:00Z</time>
      </trkpt>
      <trkpt lat="32.370362039655447" lon="-3.044764967635274">
        <ele>1044.1289999999999</ele>
        <time>2010-12-29T13:41:02Z</time>
      </trkpt>
      <trkpt lat="32.370186019688845" lon="-3.045252962037921">
        <ele>1043.6479999999999</ele>
        <time>2010-12-29T13:41:07Z</time>
      </trkpt>
      <trkpt lat="32.370148971676826" lon="-3.04552897810936">
        <ele>1042.6869999999999</ele>
        <time>2010-12-29T13:41:10Z</time>
      </trkpt>
      <trkpt lat="32.369924001395702" lon="-3.04632400162518">
        <ele>1042.2070000000001</ele>
        <time>2010-12-29T13:41:18Z</time>
      </trkpt>
      <trkpt lat="32.369718980044127" lon="-3.047362016513944">
        <ele>1039.8030000000001</ele>
        <time>2010-12-29T13:41:27Z</time>
      </trkpt>
      <trkpt lat="32.369539020583034" lon="-3.047965010628104">
        <ele>1038.3610000000001</ele>
        <time>2010-12-29T13:41:33Z</time>
      </trkpt>
      <trkpt lat="32.369480011984706" lon="-3.04827799089253">
        <ele>1037.4000000000001</ele>
        <time>2010-12-29T13:41:39Z</time>
      </trkpt>
      <trkpt lat="32.369464002549648" lon="-3.048590971156955">
        <ele>1037.8810000000001</ele>
        <time>2010-12-29T13:41:49Z</time>
      </trkpt>
      <trkpt lat="32.369326958432794" lon="-3.049212992191315">
        <ele>1037.4000000000001</ele>
        <time>2010-12-29T13:41:58Z</time>
      </trkpt>
      <trkpt lat="32.369125038385391" lon="-3.050011033192277">
        <ele>1036.9190000000001</ele>
        <time>2010-12-29T13:42:07Z</time>
      </trkpt>
      <trkpt lat="32.369077010080218" lon="-3.050314038991928">
        <ele>1036.9190000000001</ele>
        <time>2010-12-29T13:42:10Z</time>
      </trkpt>
      <trkpt lat="32.368907025083899" lon="-3.051339983940125">
        <ele>1036.4390000000001</ele>
        <time>2010-12-29T13:42:20Z</time>
      </trkpt>
      <trkpt lat="32.368841981515288" lon="-3.051923029124737">
        <ele>1035.4770000000001</ele>
        <time>2010-12-29T13:42:26Z</time>
      </trkpt>
      <trkpt lat="32.368697980418801" lon="-3.052223017439246">
        <ele>1034.9970000000001</ele>
        <time>2010-12-29T13:42:30Z</time>
      </trkpt>
      <trkpt lat="32.368427999317646" lon="-3.052821988239884">
        <ele>1035.9580000000001</ele>
        <time>2010-12-29T13:42:38Z</time>
      </trkpt>
      <trkpt lat="32.3683509696275" lon="-3.053014017641544">
        <ele>1035.4770000000001</ele>
        <time>2010-12-29T13:43:03Z</time>
      </trkpt>
      <trkpt lat="32.368274023756385" lon="-3.053271006792784">
        <ele>1034.9970000000001</ele>
        <time>2010-12-29T13:43:10Z</time>
      </trkpt>
      <trkpt lat="32.368216020986438" lon="-3.053544005379081">
        <ele>1033.5540000000001</ele>
        <time>2010-12-29T13:43:19Z</time>
      </trkpt>
      <trkpt lat="32.368109989911318" lon="-3.053881963714957">
        <ele>1032.5930000000001</ele>
        <time>2010-12-29T13:43:27Z</time>
      </trkpt>
      <trkpt lat="32.36789801158011" lon="-3.05397198535502">
        <ele>1032.5930000000001</ele>
        <time>2010-12-29T13:43:34Z</time>
      </trkpt>
      <trkpt lat="32.368044024333358" lon="-3.054179018363357">
        <ele>1032.1130000000001</ele>
        <time>2010-12-29T13:43:37Z</time>
      </trkpt>
      <trkpt lat="32.368008987978101" lon="-3.054398959502578">
        <ele>1031.6320000000001</ele>
        <time>2010-12-29T13:43:41Z</time>
      </trkpt>
      <trkpt lat="32.36787797883153" lon="-3.054852001369">
        <ele>1031.1510000000001</ele>
        <time>2010-12-29T13:43:50Z</time>
      </trkpt>
      <trkpt lat="32.367841014638543" lon="-3.054965995252132">
        <ele>1020.577</ele>
        <time>2010-12-29T13:46:13Z</time>
      </trkpt>
      <trkpt lat="32.3677690140903" lon="-3.05519599467516">
        <ele>1020.577</ele>
        <time>2010-12-29T13:46:20Z</time>
      </trkpt>
      <trkpt lat="32.367526022717357" lon="-3.055655993521214">
        <ele>1022.019</ele>
        <time>2010-12-29T13:46:30Z</time>
      </trkpt>
      <trkpt lat="32.367255035787821" lon="-3.056186987087131">
        <ele>1022.5</ele>
        <time>2010-12-29T13:46:39Z</time>
      </trkpt>
      <trkpt lat="32.36717096529901" lon="-3.056437019258738">
        <ele>1022.5</ele>
        <time>2010-12-29T13:46:43Z</time>
      </trkpt>
      <trkpt lat="32.367034005001187" lon="-3.056726027280092">
        <ele>1022.98</ele>
        <time>2010-12-29T13:46:48Z</time>
      </trkpt>
      <trkpt lat="32.3667829670012" lon="-3.057155013084412">
        <ele>1022.98</ele>
        <time>2010-12-29T13:46:57Z</time>
      </trkpt>
      <trkpt lat="32.36667400225997" lon="-3.057403033599258">
        <ele>1023.941</ele>
        <time>2010-12-29T13:47:14Z</time>
      </trkpt>
      <trkpt lat="32.366666961461306" lon="-3.057557009160519">
        <ele>1023.461</ele>
        <time>2010-12-29T13:47:17Z</time>
      </trkpt>
      <trkpt lat="32.366699986159801" lon="-3.057826990261674">
        <ele>1023.461</ele>
        <time>2010-12-29T13:47:22Z</time>
      </trkpt>
      <trkpt lat="32.366906013339758" lon="-3.058326970785856">
        <ele>1024.903</ele>
        <time>2010-12-29T13:47:32Z</time>
      </trkpt>
      <trkpt lat="32.367227040231228" lon="-3.059117970988154">
        <ele>1025.383</ele>
        <time>2010-12-29T13:47:45Z</time>
      </trkpt>
      <trkpt lat="32.367509007453918" lon="-3.059638990089297">
        <ele>1022.98</ele>
        <time>2010-12-29T13:48:05Z</time>
      </trkpt>
      <trkpt lat="32.367625012993813" lon="-3.059779973700643">
        <ele>1022.5</ele>
        <time>2010-12-29T13:48:08Z</time>
      </trkpt>
      <trkpt lat="32.367802038788795" lon="-3.059969991445541">
        <ele>1022.019</ele>
        <time>2010-12-29T13:48:12Z</time>
      </trkpt>
      <trkpt lat="32.367972023785114" lon="-3.060296969488263">
        <ele>1022.5</ele>
        <time>2010-12-29T13:48:18Z</time>
      </trkpt>
      <trkpt lat="32.367643034085631" lon="-3.06114798411727">
        <ele>1023.461</ele>
        <time>2010-12-29T13:48:29Z</time>
      </trkpt>
      <trkpt lat="32.367326030507684" lon="-3.061926998198032">
        <ele>1023.941</ele>
        <time>2010-12-29T13:48:39Z</time>
      </trkpt>
      <trkpt lat="32.367153028026223" lon="-3.062402000650764">
        <ele>1024.422</ele>
        <time>2010-12-29T13:48:46Z</time>
      </trkpt>
      <trkpt lat="32.36680299974978" lon="-3.063304983079433">
        <ele>1024.422</ele>
        <time>2010-12-29T13:48:56Z</time>
      </trkpt>
      <trkpt lat="32.366602001711726" lon="-3.064201008528471">
        <ele>1023.461</ele>
        <time>2010-12-29T13:49:05Z</time>
      </trkpt>
      <trkpt lat="32.366498988121748" lon="-3.064923025667667">
        <ele>1024.422</ele>
        <time>2010-12-29T13:49:12Z</time>
      </trkpt>
      <trkpt lat="32.366451965644956" lon="-3.065371038392186">
        <ele>1024.903</ele>
        <time>2010-12-29T13:49:17Z</time>
      </trkpt>
      <trkpt lat="32.366477027535439" lon="-3.066157009452581">
        <ele>1024.903</ele>
        <time>2010-12-29T13:49:26Z</time>
      </trkpt>
      <trkpt lat="32.366426987573504" lon="-3.06645599193871">
        <ele>1024.422</ele>
        <time>2010-12-29T13:49:29Z</time>
      </trkpt>
      <trkpt lat="32.366480967029929" lon="-3.066857988014817">
        <ele>1023.941</ele>
        <time>2010-12-29T13:49:33Z</time>
      </trkpt>
      <trkpt lat="32.366415001451969" lon="-3.067276999354363">
        <ele>1022.5</ele>
        <time>2010-12-29T13:49:37Z</time>
      </trkpt>
      <trkpt lat="32.366203023120761" lon="-3.068081997334957">
        <ele>1020.577</ele>
        <time>2010-12-29T13:49:46Z</time>
      </trkpt>
      <trkpt lat="32.366151977330446" lon="-3.068449040874839">
        <ele>1020.096</ele>
        <time>2010-12-29T13:49:53Z</time>
      </trkpt>
      <trkpt lat="32.366048963740468" lon="-3.068839972838759">
        <ele>1019.615</ele>
        <time>2010-12-29T13:50:00Z</time>
      </trkpt>
      <trkpt lat="32.365807984024286" lon="-3.069692999124527">
        <ele>1021.058</ele>
        <time>2010-12-29T13:50:10Z</time>
      </trkpt>
      <trkpt lat="32.365637999027967" lon="-3.070298004895449">
        <ele>1021.538</ele>
        <time>2010-12-29T13:50:17Z</time>
      </trkpt>
      <trkpt lat="32.365460973232985" lon="-3.07079597376287">
        <ele>1021.058</ele>
        <time>2010-12-29T13:50:23Z</time>
      </trkpt>
      <trkpt lat="32.365354020148516" lon="-3.070965958759189">
        <ele>1021.058</ele>
        <time>2010-12-29T13:50:27Z</time>
      </trkpt>
      <trkpt lat="32.365507995709777" lon="-3.071256978437305">
        <ele>1018.173</ele>
        <time>2010-12-29T13:50:36Z</time>
      </trkpt>
      <trkpt lat="32.365507995709777" lon="-3.071392010897398">
        <ele>1017.693</ele>
        <time>2010-12-29T13:50:46Z</time>
      </trkpt>
      <trkpt lat="32.365957014262676" lon="-3.071624021977186">
        <ele>1017.693</ele>
        <time>2010-12-29T13:51:06Z</time>
      </trkpt>
      <trkpt lat="32.366148959845304" lon="-3.071753019466996">
        <ele>1017.212</ele>
        <time>2010-12-29T13:51:13Z</time>
      </trkpt>
      <trkpt lat="32.365421997383237" lon="-3.071837006136775">
        <ele>1014.809</ele>
        <time>2010-12-29T13:51:28Z</time>
      </trkpt>
      <trkpt lat="32.365370029583573" lon="-3.071929961442947">
        <ele>1014.809</ele>
        <time>2010-12-29T13:51:31Z</time>
      </trkpt>
      <trkpt lat="32.36523600295186" lon="-3.0721690133214">
        <ele>1014.328</ele>
        <time>2010-12-29T13:51:38Z</time>
      </trkpt>
      <trkpt lat="32.365175988525152" lon="-3.072294993326068">
        <ele>1014.328</ele>
        <time>2010-12-29T13:51:41Z</time>
      </trkpt>
      <trkpt lat="32.364983037114143" lon="-3.072648961097002">
        <ele>1011.925</ele>
        <time>2010-12-29T13:51:47Z</time>
      </trkpt>
      <trkpt lat="32.364879017695785" lon="-3.072839984670281">
        <ele>1011.444</ele>
        <time>2010-12-29T13:51:51Z</time>
      </trkpt>
      <trkpt lat="32.364540975540876" lon="-3.073346000164747">
        <ele>1011.444</ele>
        <time>2010-12-29T13:51:59Z</time>
      </trkpt>
      <trkpt lat="32.364123975858092" lon="-3.073664009571075">
        <ele>1012.886</ele>
        <time>2010-12-29T13:52:07Z</time>
      </trkpt>
      <trkpt lat="32.363858018070459" lon="-3.073749002069235">
        <ele>1013.367</ele>
        <time>2010-12-29T13:52:11Z</time>
      </trkpt>
      <trkpt lat="32.363779982551932" lon="-3.073818990960717">
        <ele>1013.367</ele>
        <time>2010-12-29T13:52:17Z</time>
      </trkpt>
      <trkpt lat="32.363631958141923" lon="-3.074067011475563">
        <ele>1013.847</ele>
        <time>2010-12-29T13:52:43Z</time>
      </trkpt>
      <trkpt lat="32.363321995362639" lon="-3.07462097145617">
        <ele>1016.731</ele>
        <time>2010-12-29T13:52:51Z</time>
      </trkpt>
      <trkpt lat="32.362808017060161" lon="-3.075483972206712">
        <ele>1028.748</ele>
        <time>2010-12-29T13:53:01Z</time>
      </trkpt>
      <trkpt lat="32.362230001017451" lon="-3.076258962973952">
        <ele>1041.2449999999999</ele>
        <time>2010-12-29T13:53:10Z</time>
      </trkpt>
      <trkpt lat="32.362068984657526" lon="-3.076459961012006">
        <ele>1049.4159999999999</ele>
        <time>2010-12-29T13:53:16Z</time>
      </trkpt>
      <trkpt lat="32.361946022138" lon="-3.076644027605653">
        <ele>1050.8579999999999</ele>
        <time>2010-12-29T13:53:22Z</time>
      </trkpt>
      <trkpt lat="32.362185996025801" lon="-3.077083993703127">
        <ele>1051.8199999999999</ele>
        <time>2010-12-29T13:53:26Z</time>
      </trkpt>
      <trkpt lat="32.362120030447841" lon="-3.077634014189243">
        <ele>1052.7809999999999</ele>
        <time>2010-12-29T13:53:35Z</time>
      </trkpt>
      <trkpt lat="32.361700013279915" lon="-3.078107004985213">
        <ele>1060.952</ele>
        <time>2010-12-29T13:53:46Z</time>
      </trkpt>
      <trkpt lat="32.3614970035851" lon="-3.07831403799355">
        <ele>1068.643</ele>
        <time>2010-12-29T13:53:56Z</time>
      </trkpt>
      <trkpt lat="32.36138803884387" lon="-3.078467007726431">
        <ele>1061.433</ele>
        <time>2010-12-29T13:54:07Z</time>
      </trkpt>
      <trkpt lat="32.361083021387458" lon="-3.078831033781171">
        <ele>1065.759</ele>
        <time>2010-12-29T13:54:17Z</time>
      </trkpt>
      <trkpt lat="32.361006997525692" lon="-3.078751992434263">
        <ele>1062.875</ele>
        <time>2010-12-29T13:54:23Z</time>
      </trkpt>
      <trkpt lat="32.36112903803587" lon="-3.078616037964821">
        <ele>1051.8199999999999</ele>
        <time>2010-12-29T13:54:33Z</time>
      </trkpt>
      <trkpt lat="32.361248983070254" lon="-3.078694995492697">
        <ele>1051.3389999999999</ele>
        <time>2010-12-29T13:54:39Z</time>
      </trkpt>
      <trkpt lat="32.361100036650896" lon="-3.078713016584516">
        <ele>1050.3779999999999</ele>
        <time>2010-12-29T13:54:44Z</time>
      </trkpt>
      <trkpt lat="32.361167008057237" lon="-3.078588964417577">
        <ele>1049.4159999999999</ele>
        <time>2010-12-29T13:54:49Z</time>
      </trkpt>
      <trkpt lat="32.361248983070254" lon="-3.078688960522413">
        <ele>1049.4159999999999</ele>
        <time>2010-12-29T13:54:53Z</time>
      </trkpt>
      <trkpt lat="32.361182011663914" lon="-3.078857017681003">
        <ele>1058.549</ele>
        <time>2010-12-29T13:55:09Z</time>
      </trkpt>
      <trkpt lat="32.360844975337386" lon="-3.079586997628212">
        <ele>1056.146</ele>
        <time>2010-12-29T13:55:20Z</time>
      </trkpt>
      <trkpt lat="32.360423030331731" lon="-3.07990500703454">
        <ele>1047.4939999999999</ele>
        <time>2010-12-29T13:55:31Z</time>
      </trkpt>
      <trkpt lat="32.36040098592639" lon="-3.08005596511066">
        <ele>1046.0519999999999</ele>
        <time>2010-12-29T13:55:34Z</time>
      </trkpt>
      <trkpt lat="32.36040098592639" lon="-3.08027096092701">
        <ele>1050.3779999999999</ele>
        <time>2010-12-29T13:55:40Z</time>
      </trkpt>
      <trkpt lat="32.36046401783824" lon="-3.08044002391398">
        <ele>1058.068</ele>
        <time>2010-12-29T13:55:49Z</time>
      </trkpt>
      <trkpt lat="32.360563008114696" lon="-3.080560974776745">
        <ele>1054.704</ele>
        <time>2010-12-29T13:55:55Z</time>
      </trkpt>
      <trkpt lat="32.360854027792811" lon="-3.08072199113667">
        <ele>1052.3</ele>
        <time>2010-12-29T13:56:02Z</time>
      </trkpt>
      <trkpt lat="32.361078998073936" lon="-3.080802038311958">
        <ele>1052.3</ele>
        <time>2010-12-29T13:56:07Z</time>
      </trkpt>
      <trkpt lat="32.361527010798454" lon="-3.081080988049507">
        <ele>1053.2619999999999</ele>
        <time>2010-12-29T13:56:15Z</time>
      </trkpt>
      <trkpt lat="32.361765978857875" lon="-3.081251978874207">
        <ele>1053.2619999999999</ele>
        <time>2010-12-29T13:56:19Z</time>
      </trkpt>
      <trkpt lat="32.361994972452521" lon="-3.081591026857495">
        <ele>1053.742</ele>
        <time>2010-12-29T13:56:24Z</time>
      </trkpt>
      <trkpt lat="32.362185996025801" lon="-3.082653013989329">
        <ele>1057.107</ele>
        <time>2010-12-29T13:56:36Z</time>
      </trkpt>
      <trkpt lat="32.362243998795748" lon="-3.08340797200799">
        <ele>1055.184</ele>
        <time>2010-12-29T13:56:44Z</time>
      </trkpt>
      <trkpt lat="32.362280962988734" lon="-3.084403993561864">
        <ele>1052.7809999999999</ele>
        <time>2010-12-29T13:56:55Z</time>
      </trkpt>
      <trkpt lat="32.362389005720615" lon="-3.085046969354153">
        <ele>1052.3</ele>
        <time>2010-12-29T13:57:04Z</time>
      </trkpt>
      <trkpt lat="32.362504005432129" lon="-3.086055982857943">
        <ele>1052.7809999999999</ele>
        <time>2010-12-29T13:57:14Z</time>
      </trkpt>
      <trkpt lat="32.362616993486881" lon="-3.087518038228154">
        <ele>1054.704</ele>
        <time>2010-12-29T13:57:26Z</time>
      </trkpt>
      <trkpt lat="32.362724030390382" lon="-3.088584970682859">
        <ele>1056.146</ele>
        <time>2010-12-29T13:57:35Z</time>
      </trkpt>
      <trkpt lat="32.362897032871842" lon="-3.089598007500172">
        <ele>1050.8579999999999</ele>
        <time>2010-12-29T13:57:43Z</time>
      </trkpt>
      <trkpt lat="32.363139018416405" lon="-3.091096021234989">
        <ele>1044.1289999999999</ele>
        <time>2010-12-29T13:57:55Z</time>
      </trkpt>
      <trkpt lat="32.363212024793029" lon="-3.091792976483703">
        <ele>1041.7260000000001</ele>
        <time>2010-12-29T13:58:03Z</time>
      </trkpt>
      <trkpt lat="32.363389972597361" lon="-3.092488003894687">
        <ele>1038.3610000000001</ele>
        <time>2010-12-29T13:58:11Z</time>
      </trkpt>
      <trkpt lat="32.363677974790335" lon="-3.093485031276941">
        <ele>1034.9970000000001</ele>
        <time>2010-12-29T13:58:20Z</time>
      </trkpt>
      <trkpt lat="32.363920966163278" lon="-3.094173017889261">
        <ele>1032.5930000000001</ele>
        <time>2010-12-29T13:58:28Z</time>
      </trkpt>
      <trkpt lat="32.364167980849743" lon="-3.09479596093297">
        <ele>1031.1510000000001</ele>
        <time>2010-12-29T13:58:36Z</time>
      </trkpt>
      <trkpt lat="32.364595960825682" lon="-3.095899019390345">
        <ele>1030.1900000000001</ele>
        <time>2010-12-29T13:58:48Z</time>
      </trkpt>
      <trkpt lat="32.364798970520496" lon="-3.096575019881129">
        <ele>1030.671</ele>
        <time>2010-12-29T13:58:56Z</time>
      </trkpt>
      <trkpt lat="32.364898966625333" lon="-3.097010040655732">
        <ele>1033.5540000000001</ele>
        <time>2010-12-29T13:59:01Z</time>
      </trkpt>
      <trkpt lat="32.364985970780253" lon="-3.097346993163228">
        <ele>1037.8810000000001</ele>
        <time>2010-12-29T13:59:05Z</time>
      </trkpt>
      <trkpt lat="32.365395007655025" lon="-3.098593968898058">
        <ele>1037.8810000000001</ele>
        <time>2010-12-29T13:59:18Z</time>
      </trkpt>
      <trkpt lat="32.365667000412941" lon="-3.099595019593835">
        <ele>1036.4390000000001</ele>
        <time>2010-12-29T13:59:27Z</time>
      </trkpt>
      <trkpt lat="32.365885013714433" lon="-3.100462965667248">
        <ele>1034.9970000000001</ele>
        <time>2010-12-29T13:59:35Z</time>
      </trkpt>
      <trkpt lat="32.366160023957491" lon="-3.101602988317609">
        <ele>1034.9970000000001</ele>
        <time>2010-12-29T13:59:45Z</time>
      </trkpt>
      <trkpt lat="32.366435034200549" lon="-3.102270020172">
        <ele>1033.5540000000001</ele>
        <time>2010-12-29T13:59:52Z</time>
      </trkpt>
      <trkpt lat="32.366521032527089" lon="-3.102390971034765">
        <ele>1033.0740000000001</ele>
        <time>2010-12-29T13:59:54Z</time>
      </trkpt>
      <trkpt lat="32.366600995883346" lon="-3.102552993223071">
        <ele>1032.5930000000001</ele>
        <time>2010-12-29T13:59:58Z</time>
      </trkpt>
      <trkpt lat="32.366752037778497" lon="-3.102992959320545">
        <ele>1029.7090000000001</ele>
        <time>2010-12-29T14:00:08Z</time>
      </trkpt>
      <trkpt lat="32.366902995854616" lon="-3.103187000378966">
        <ele>1027.787</ele>
        <time>2010-12-29T14:00:14Z</time>
      </trkpt>
      <trkpt lat="32.366987988352776" lon="-3.103286996483803">
        <ele>1027.787</ele>
        <time>2010-12-29T14:00:17Z</time>
      </trkpt>
      <trkpt lat="32.367110028862953" lon="-3.103424040600658">
        <ele>1027.787</ele>
        <time>2010-12-29T14:00:21Z</time>
      </trkpt>
      <trkpt lat="32.367229973897338" lon="-3.103555971756578">
        <ele>1027.306</ele>
        <time>2010-12-29T14:00:24Z</time>
      </trkpt>
      <trkpt lat="32.367544965818524" lon="-3.103976994752884">
        <ele>1027.306</ele>
        <time>2010-12-29T14:00:31Z</time>
      </trkpt>
      <trkpt lat="32.368012005463243" lon="-3.104662969708443">
        <ele>1029.229</ele>
        <time>2010-12-29T14:00:39Z</time>
      </trkpt>
      <trkpt lat="32.36847803927958" lon="-3.10536595992744">
        <ele>1031.1510000000001</ele>
        <time>2010-12-29T14:00:46Z</time>
      </trkpt>
      <trkpt lat="32.368809962645173" lon="-3.106124019250274">
        <ele>1032.1130000000001</ele>
        <time>2010-12-29T14:00:52Z</time>
      </trkpt>
      <trkpt lat="32.369283959269524" lon="-3.10676196590066">
        <ele>1027.306</ele>
        <time>2010-12-29T14:00:59Z</time>
      </trkpt>
      <trkpt lat="32.369713028892875" lon="-3.1073849927634">
        <ele>1023.941</ele>
        <time>2010-12-29T14:01:05Z</time>
      </trkpt>
      <trkpt lat="32.37024100497365" lon="-3.108375985175371">
        <ele>1021.058</ele>
        <time>2010-12-29T14:01:13Z</time>
      </trkpt>
      <trkpt lat="32.370632020756602" lon="-3.109460016712546">
        <ele>1021.538</ele>
        <time>2010-12-29T14:01:20Z</time>
      </trkpt>
      <trkpt lat="32.371098976582289" lon="-3.111287020146847">
        <ele>1022.019</ele>
        <time>2010-12-29T14:01:31Z</time>
      </trkpt>
      <trkpt lat="32.371485969051719" lon="-3.112533995881677">
        <ele>1020.096</ele>
        <time>2010-12-29T14:01:39Z</time>
      </trkpt>
      <trkpt lat="32.372179990634322" lon="-3.113922961056233">
        <ele>1018.654</ele>
        <time>2010-12-29T14:01:49Z</time>
      </trkpt>
      <trkpt lat="32.372717019170523" lon="-3.115041023120284">
        <ele>1017.693</ele>
        <time>2010-12-29T14:01:57Z</time>
      </trkpt>
      <trkpt lat="32.373054977506399" lon="-3.116180961951613">
        <ele>1020.096</ele>
        <time>2010-12-29T14:02:04Z</time>
      </trkpt>
      <trkpt lat="32.373316995799541" lon="-3.117572022601962">
        <ele>1022.98</ele>
        <time>2010-12-29T14:02:12Z</time>
      </trkpt>
      <trkpt lat="32.373824017122388" lon="-3.119530035182834">
        <ele>1025.383</ele>
        <time>2010-12-29T14:02:23Z</time>
      </trkpt>
      <trkpt lat="32.374352999031544" lon="-3.121848972514272">
        <ele>1023.461</ele>
        <time>2010-12-29T14:02:36Z</time>
      </trkpt>
      <trkpt lat="32.374662961810827" lon="-3.123124027624726">
        <ele>1023.461</ele>
        <time>2010-12-29T14:02:44Z</time>
      </trkpt>
      <trkpt lat="32.374676959589124" lon="-3.123244978487492">
        <ele>1023.941</ele>
        <time>2010-12-29T14:02:45Z</time>
      </trkpt>
      <trkpt lat="32.374758012592793" lon="-3.123685028403997">
        <ele>1024.903</ele>
        <time>2010-12-29T14:02:49Z</time>
      </trkpt>
      <trkpt lat="32.375112986192107" lon="-3.12468096613884">
        <ele>1024.903</ele>
        <time>2010-12-29T14:02:57Z</time>
      </trkpt>
      <trkpt lat="32.37520401366055" lon="-3.125875974074006">
        <ele>1027.306</ele>
        <time>2010-12-29T14:03:05Z</time>
      </trkpt>
      <trkpt lat="32.375341979786754" lon="-3.126189038157463">
        <ele>1028.748</ele>
        <time>2010-12-29T14:03:08Z</time>
      </trkpt>
      <trkpt lat="32.375481035560369" lon="-3.126865038648248">
        <ele>1031.1510000000001</ele>
        <time>2010-12-29T14:03:13Z</time>
      </trkpt>
      <trkpt lat="32.375367041677237" lon="-3.127280026674271">
        <ele>1033.5540000000001</ele>
        <time>2010-12-29T14:03:16Z</time>
      </trkpt>
      <trkpt lat="32.375455973669887" lon="-3.128407979384065">
        <ele>1038.3610000000001</ele>
        <time>2010-12-29T14:03:25Z</time>
      </trkpt>
      <trkpt lat="32.375616990029812" lon="-3.129889983683825">
        <ele>1043.6479999999999</ele>
        <time>2010-12-29T14:03:35Z</time>
      </trkpt>
      <trkpt lat="32.375945979729295" lon="-3.131885966286063">
        <ele>1046.0519999999999</ele>
        <time>2010-12-29T14:03:48Z</time>
      </trkpt>
      <trkpt lat="32.376147983595729" lon="-3.133168984204531">
        <ele>1046.0519999999999</ele>
        <time>2010-12-29T14:03:56Z</time>
      </trkpt>
      <trkpt lat="32.376229958608747" lon="-3.134285034611821">
        <ele>1047.9739999999999</ele>
        <time>2010-12-29T14:04:03Z</time>
      </trkpt>
      <trkpt lat="32.37645098939538" lon="-3.135389015078545">
        <ele>1049.4159999999999</ele>
        <time>2010-12-29T14:04:10Z</time>
      </trkpt>
      <trkpt lat="32.376451995223761" lon="-3.135920008644462">
        <ele>1050.3779999999999</ele>
        <time>2010-12-29T14:04:14Z</time>
      </trkpt>
      <trkpt lat="32.376365996897221" lon="-3.137014014646411">
        <ele>1051.8199999999999</ele>
        <time>2010-12-29T14:04:21Z</time>
      </trkpt>
      <trkpt lat="32.37621596083045" lon="-3.138295020908117">
        <ele>1052.7809999999999</ele>
        <time>2010-12-29T14:04:30Z</time>
      </trkpt>
      <trkpt lat="32.376277986913919" lon="-3.138863984495401">
        <ele>1051.8199999999999</ele>
        <time>2010-12-29T14:04:37Z</time>
      </trkpt>
      <trkpt lat="32.376311011612415" lon="-3.138976972550154">
        <ele>1050.8579999999999</ele>
        <time>2010-12-29T14:04:40Z</time>
      </trkpt>
      <trkpt lat="32.376499017700553" lon="-3.139395983889699">
        <ele>1040.7639999999999</ele>
        <time>2010-12-29T14:04:49Z</time>
      </trkpt>
      <trkpt lat="32.376836976036429" lon="-3.140111966058612">
        <ele>1036.4390000000001</ele>
        <time>2010-12-29T14:04:58Z</time>
      </trkpt>
      <trkpt lat="32.377250036224723" lon="-3.141044033691287">
        <ele>1034.9970000000001</ele>
        <time>2010-12-29T14:05:08Z</time>
      </trkpt>
      <trkpt lat="32.377557987347245" lon="-3.141947016119957">
        <ele>1034.0350000000001</ele>
        <time>2010-12-29T14:05:16Z</time>
      </trkpt>
      <trkpt lat="32.377858981490135" lon="-3.143040016293526">
        <ele>1034.5160000000001</ele>
        <time>2010-12-29T14:05:26Z</time>
      </trkpt>
      <trkpt lat="32.377869039773941" lon="-3.144093034788966">
        <ele>1033.5540000000001</ele>
        <time>2010-12-29T14:05:36Z</time>
      </trkpt>
      <trkpt lat="32.377874990925193" lon="-3.144309036433697">
        <ele>1033.5540000000001</ele>
        <time>2010-12-29T14:05:39Z</time>
      </trkpt>
      <trkpt lat="32.377885971218348" lon="-3.144592009484768">
        <ele>1033.5540000000001</ele>
        <time>2010-12-29T14:05:43Z</time>
      </trkpt>
      <trkpt lat="32.377888988703489" lon="-3.1450289580971">
        <ele>1034.0350000000001</ele>
        <time>2010-12-29T14:05:51Z</time>
      </trkpt>
      <trkpt lat="32.377907009795308" lon="-3.145421985536814">
        <ele>1030.671</ele>
        <time>2010-12-29T14:06:00Z</time>
      </trkpt>
      <trkpt lat="32.377921007573605" lon="-3.145556012168527">
        <ele>1029.229</ele>
        <time>2010-12-29T14:06:11Z</time>
      </trkpt>
      <trkpt lat="32.377984039485455" lon="-3.145774025470018">
        <ele>1029.229</ele>
        <time>2010-12-29T14:06:19Z</time>
      </trkpt>
      <trkpt lat="32.377871973440051" lon="-3.145741000771523">
        <ele>1029.229</ele>
        <time>2010-12-29T14:06:26Z</time>
      </trkpt>
      <trkpt lat="32.377795027568936" lon="-3.145659025758505">
        <ele>1030.1900000000001</ele>
        <time>2010-12-29T14:06:29Z</time>
      </trkpt>
      <trkpt lat="32.377711040899158" lon="-3.145575039088726">
        <ele>1030.1900000000001</ele>
        <time>2010-12-29T14:06:32Z</time>
      </trkpt>
      <trkpt lat="32.377888988703489" lon="-3.145072041079402">
        <ele>1030.1900000000001</ele>
        <time>2010-12-29T14:06:39Z</time>
      </trkpt>
      <trkpt lat="32.377880020067096" lon="-3.144429987296462">
        <ele>1032.1130000000001</ele>
        <time>2010-12-29T14:06:47Z</time>
      </trkpt>
      <trkpt lat="32.377871973440051" lon="-3.144217003136873">
        <ele>1032.1130000000001</ele>
        <time>2010-12-29T14:06:50Z</time>
      </trkpt>
      <trkpt lat="32.377869039773941" lon="-3.144094962626696">
        <ele>1032.5930000000001</ele>
        <time>2010-12-29T14:06:52Z</time>
      </trkpt>
      <trkpt lat="32.377888988703489" lon="-3.143754992634058">
        <ele>1033.0740000000001</ele>
        <time>2010-12-29T14:06:57Z</time>
      </trkpt>
      <trkpt lat="32.378258965909481" lon="-3.143416028469801">
        <ele>1035.4770000000001</ele>
        <time>2010-12-29T14:07:04Z</time>
      </trkpt>
      <trkpt lat="32.379131019115448" lon="-3.143442012369633">
        <ele>1036.4390000000001</ele>
        <time>2010-12-29T14:07:13Z</time>
      </trkpt>
      <trkpt lat="32.379233026877046" lon="-3.143461039289832">
        <ele>1036.4390000000001</ele>
        <time>2010-12-29T14:07:14Z</time>
      </trkpt>
      <trkpt lat="32.379946997389197" lon="-3.143819030374289">
        <ele>1038.8420000000001</ele>
        <time>2010-12-29T14:07:22Z</time>
      </trkpt>
      <trkpt lat="32.381118033081293" lon="-3.144420012831688">
        <ele>1041.2449999999999</ele>
        <time>2010-12-29T14:07:34Z</time>
      </trkpt>
      <trkpt lat="32.382076000794768" lon="-3.144926028326154">
        <ele>1042.6869999999999</ele>
        <time>2010-12-29T14:07:44Z</time>
      </trkpt>
      <trkpt lat="32.382682012394071" lon="-3.145319977775216">
        <ele>1044.6099999999999</ele>
        <time>2010-12-29T14:07:51Z</time>
      </trkpt>
      <trkpt lat="32.383708041161299" lon="-3.146049035713077">
        <ele>1048.4549999999999</ele>
        <time>2010-12-29T14:08:02Z</time>
      </trkpt>
      <trkpt lat="32.383880037814379" lon="-3.146156994625926">
        <ele>1048.9359999999999</ele>
        <time>2010-12-29T14:08:04Z</time>
      </trkpt>
      <trkpt lat="32.384082963690162" lon="-3.146455977112055">
        <ele>1047.9739999999999</ele>
        <time>2010-12-29T14:08:08Z</time>
      </trkpt>
      <trkpt lat="32.384457970038056" lon="-3.147451998665929">
        <ele>1043.6479999999999</ele>
        <time>2010-12-29T14:08:17Z</time>
      </trkpt>
      <trkpt lat="32.384645976126194" lon="-3.147988021373749">
        <ele>1042.6869999999999</ele>
        <time>2010-12-29T14:08:22Z</time>
      </trkpt>
      <trkpt lat="32.385002039372921" lon="-3.148301001638174">
        <ele>1042.2070000000001</ele>
        <time>2010-12-29T14:08:28Z</time>
      </trkpt>
      <trkpt lat="32.385099017992616" lon="-3.148428993299604">
        <ele>1042.2070000000001</ele>
        <time>2010-12-29T14:08:31Z</time>
      </trkpt>
      <trkpt lat="32.385352989658713" lon="-3.149003991857171">
        <ele>1043.1679999999999</ele>
        <time>2010-12-29T14:08:38Z</time>
      </trkpt>
      <trkpt lat="32.385575026273727" lon="-3.149487962946296">
        <ele>1043.1679999999999</ele>
        <time>2010-12-29T14:08:43Z</time>
      </trkpt>
      <trkpt lat="32.385741993784904" lon="-3.150230012834072">
        <ele>1044.1289999999999</ele>
        <time>2010-12-29T14:08:50Z</time>
      </trkpt>
      <trkpt lat="32.386028990149498" lon="-3.150796964764595">
        <ele>1044.6099999999999</ele>
        <time>2010-12-29T14:08:57Z</time>
      </trkpt>
      <trkpt lat="32.386079030111432" lon="-3.151112962514162">
        <ele>1039.3230000000001</ele>
        <time>2010-12-29T14:09:03Z</time>
      </trkpt>
      <trkpt lat="32.38581801764667" lon="-3.151381015777588">
        <ele>1035.9580000000001</ele>
        <time>2010-12-29T14:09:08Z</time>
      </trkpt>
      <trkpt lat="32.385622970759869" lon="-3.151436001062393">
        <ele>1034.9970000000001</ele>
        <time>2010-12-29T14:09:10Z</time>
      </trkpt>
      <trkpt lat="32.384978989139199" lon="-3.151615038514137">
        <ele>1033.0740000000001</ele>
        <time>2010-12-29T14:09:16Z</time>
      </trkpt>
      <trkpt lat="32.384374989196658" lon="-3.151718974113464">
        <ele>1031.6320000000001</ele>
        <time>2010-12-29T14:09:22Z</time>
      </trkpt>
      <trkpt lat="32.383578037843108" lon="-3.15179399214685">
        <ele>1029.7090000000001</ele>
        <time>2010-12-29T14:09:31Z</time>
      </trkpt>
      <trkpt lat="32.383293975144625" lon="-3.15181796438992">
        <ele>1027.787</ele>
        <time>2010-12-29T14:09:36Z</time>
      </trkpt>
      <trkpt lat="32.382926009595394" lon="-3.151805978268385">
        <ele>1024.422</ele>
        <time>2010-12-29T14:09:44Z</time>
      </trkpt>
      <trkpt lat="32.382661979645491" lon="-3.151962971314788">
        <ele>1023.941</ele>
        <time>2010-12-29T14:09:49Z</time>
      </trkpt>
      <trkpt lat="32.382553014904261" lon="-3.152112001553178">
        <ele>1027.787</ele>
        <time>2010-12-29T14:09:53Z</time>
      </trkpt>
      <trkpt lat="32.382153030484915" lon="-3.152366979047656">
        <ele>1029.229</ele>
        <time>2010-12-29T14:10:01Z</time>
      </trkpt>
      <trkpt lat="32.381494967266917" lon="-3.152763023972511">
        <ele>1029.229</ele>
        <time>2010-12-29T14:10:10Z</time>
      </trkpt>
      <trkpt lat="32.381346020847559" lon="-3.15286997705698">
        <ele>1028.748</ele>
        <time>2010-12-29T14:10:12Z</time>
      </trkpt>
      <trkpt lat="32.380976965650916" lon="-3.153441958129406">
        <ele>1030.1900000000001</ele>
        <time>2010-12-29T14:10:19Z</time>
      </trkpt>
      <trkpt lat="32.380648981779814" lon="-3.154496988281608">
        <ele>1033.0740000000001</ele>
        <time>2010-12-29T14:10:28Z</time>
      </trkpt>
      <trkpt lat="32.380534987896681" lon="-3.155404999852181">
        <ele>1035.4770000000001</ele>
        <time>2010-12-29T14:10:34Z</time>
      </trkpt>
      <trkpt lat="32.380399033427238" lon="-3.155944962054491">
        <ele>1035.9580000000001</ele>
        <time>2010-12-29T14:10:38Z</time>
      </trkpt>
      <trkpt lat="32.379965018481016" lon="-3.157041985541582">
        <ele>1036.9190000000001</ele>
        <time>2010-12-29T14:10:46Z</time>
      </trkpt>
      <trkpt lat="32.379797967150807" lon="-3.15811101347208">
        <ele>1037.8810000000001</ele>
        <time>2010-12-29T14:10:53Z</time>
      </trkpt>
      <trkpt lat="32.379884971305728" lon="-3.160147983580828">
        <ele>1029.229</ele>
        <time>2010-12-29T14:11:05Z</time>
      </trkpt>
      <trkpt lat="32.379955966025591" lon="-3.162518972530961">
        <ele>1028.2670000000001</ele>
        <time>2010-12-29T14:11:19Z</time>
      </trkpt>
      <trkpt lat="32.380113964900374" lon="-3.164204992353916">
        <ele>1029.7090000000001</ele>
        <time>2010-12-29T14:11:29Z</time>
      </trkpt>
      <trkpt lat="32.380386963486671" lon="-3.165142005309463">
        <ele>1031.1510000000001</ele>
        <time>2010-12-29T14:11:35Z</time>
      </trkpt>
      <trkpt lat="32.380621992051601" lon="-3.166070971637964">
        <ele>1033.5540000000001</ele>
        <time>2010-12-29T14:11:41Z</time>
      </trkpt>
      <trkpt lat="32.380560971796513" lon="-3.166950987651944">
        <ele>1034.0350000000001</ele>
        <time>2010-12-29T14:11:47Z</time>
      </trkpt>
      <trkpt lat="32.380433985963464" lon="-3.167209988459945">
        <ele>1034.0350000000001</ele>
        <time>2010-12-29T14:11:49Z</time>
      </trkpt>
      <trkpt lat="32.380168028175831" lon="-3.167971987277269">
        <ele>1034.5160000000001</ele>
        <time>2010-12-29T14:11:56Z</time>
      </trkpt>
      <trkpt lat="32.380068032070994" lon="-3.168254960328341">
        <ele>1034.9970000000001</ele>
        <time>2010-12-29T14:11:59Z</time>
      </trkpt>
      <trkpt lat="32.380015980452299" lon="-3.168558971956372">
        <ele>1035.9580000000001</ele>
        <time>2010-12-29T14:12:02Z</time>
      </trkpt>
      <trkpt lat="32.379831997677684" lon="-3.168905982747674">
        <ele>1036.4390000000001</ele>
        <time>2010-12-29T14:12:07Z</time>
      </trkpt>
      <trkpt lat="32.379555981606245" lon="-3.169496990740299">
        <ele>1038.3610000000001</ele>
        <time>2010-12-29T14:12:14Z</time>
      </trkpt>
      <trkpt lat="32.379417009651661" lon="-3.169644009321928">
        <ele>1039.8030000000001</ele>
        <time>2010-12-29T14:12:16Z</time>
      </trkpt>
      <trkpt lat="32.379103023558855" lon="-3.170074000954628">
        <ele>1041.2449999999999</ele>
        <time>2010-12-29T14:12:21Z</time>
      </trkpt>
      <trkpt lat="32.378892973065376" lon="-3.170477002859116">
        <ele>1042.6869999999999</ele>
        <time>2010-12-29T14:12:26Z</time>
      </trkpt>
      <trkpt lat="32.378656016662717" lon="-3.170835999771953">
        <ele>1044.1289999999999</ele>
        <time>2010-12-29T14:12:31Z</time>
      </trkpt>
      <trkpt lat="32.378518972545862" lon="-3.171192985028029">
        <ele>1045.0899999999999</ele>
        <time>2010-12-29T14:12:36Z</time>
      </trkpt>
      <trkpt lat="32.378252008929849" lon="-3.171360958367586">
        <ele>1044.1289999999999</ele>
        <time>2010-12-29T14:12:42Z</time>
      </trkpt>
      <trkpt lat="32.378028966486454" lon="-3.171334974467754">
        <ele>1041.7260000000001</ele>
        <time>2010-12-29T14:12:49Z</time>
      </trkpt>
      <trkpt lat="32.377687990665436" lon="-3.171176975592971">
        <ele>1037.8810000000001</ele>
        <time>2010-12-29T14:12:56Z</time>
      </trkpt>
      <trkpt lat="32.377522028982639" lon="-3.171167001128197">
        <ele>1034.9970000000001</ele>
        <time>2010-12-29T14:12:59Z</time>
      </trkpt>
      <trkpt lat="32.377271996811032" lon="-3.171213017776609">
        <ele>1033.5540000000001</ele>
        <time>2010-12-29T14:13:03Z</time>
      </trkpt>
      <trkpt lat="32.376990029588342" lon="-3.171393983066082">
        <ele>1033.0740000000001</ele>
        <time>2010-12-29T14:13:07Z</time>
      </trkpt>
      <trkpt lat="32.376457024365664" lon="-3.171878037974238">
        <ele>1034.9970000000001</ele>
        <time>2010-12-29T14:13:14Z</time>
      </trkpt>
      <trkpt lat="32.375487992540002" lon="-3.172365026548505">
        <ele>1038.3610000000001</ele>
        <time>2010-12-29T14:13:24Z</time>
      </trkpt>
      <trkpt lat="32.375102005898952" lon="-3.172517996281385">
        <ele>1041.7260000000001</ele>
        <time>2010-12-29T14:13:28Z</time>
      </trkpt>
      <trkpt lat="32.374395998194814" lon="-3.172510033473373">
        <ele>1042.6869999999999</ele>
        <time>2010-12-29T14:13:35Z</time>
      </trkpt>
      <trkpt lat="32.373415986075997" lon="-3.172563007101417">
        <ele>1043.1679999999999</ele>
        <time>2010-12-29T14:13:44Z</time>
      </trkpt>
      <trkpt lat="32.372907036915421" lon="-3.172577004879713">
        <ele>1044.1289999999999</ele>
        <time>2010-12-29T14:13:49Z</time>
      </trkpt>
      <trkpt lat="32.372783990576863" lon="-3.17282896488905">
        <ele>1044.6099999999999</ele>
        <time>2010-12-29T14:13:54Z</time>
      </trkpt>
      <trkpt lat="32.372792037203908" lon="-3.173887012526393">
        <ele>1044.1289999999999</ele>
        <time>2010-12-29T14:14:03Z</time>
      </trkpt>
      <trkpt lat="32.372796982526779" lon="-3.174111982807517">
        <ele>1045.0899999999999</ele>
        <time>2010-12-29T14:14:05Z</time>
      </trkpt>
      <trkpt lat="32.372823972254992" lon="-3.175228033214808">
        <ele>1044.6099999999999</ele>
        <time>2010-12-29T14:14:14Z</time>
      </trkpt>
      <trkpt lat="32.372804023325443" lon="-3.175702029839158">
        <ele>1047.0129999999999</ele>
        <time>2010-12-29T14:14:18Z</time>
      </trkpt>
      <trkpt lat="32.372764041647315" lon="-3.176676006987691">
        <ele>1046.5319999999999</ele>
        <time>2010-12-29T14:14:26Z</time>
      </trkpt>
      <trkpt lat="32.372720958665013" lon="-3.178173014894128">
        <ele>1053.742</ele>
        <time>2010-12-29T14:14:38Z</time>
      </trkpt>
      <trkpt lat="32.372718024998903" lon="-3.178637037053704">
        <ele>1054.704</ele>
        <time>2010-12-29T14:14:43Z</time>
      </trkpt>
      <trkpt lat="32.372718024998903" lon="-3.179041966795921">
        <ele>1047.9739999999999</ele>
        <time>2010-12-29T14:14:48Z</time>
      </trkpt>
      <trkpt lat="32.372696986421943" lon="-3.179668011143804">
        <ele>1050.3779999999999</ele>
        <time>2010-12-29T14:14:56Z</time>
      </trkpt>
      <trkpt lat="32.372632026672363" lon="-3.180563030764461">
        <ele>1054.223</ele>
        <time>2010-12-29T14:15:05Z</time>
      </trkpt>
      <trkpt lat="32.372576035559177" lon="-3.181150015443564">
        <ele>1056.626</ele>
        <time>2010-12-29T14:15:10Z</time>
      </trkpt>
      <trkpt lat="32.372588021680713" lon="-3.181364005431533">
        <ele>1057.107</ele>
        <time>2010-12-29T14:15:12Z</time>
      </trkpt>
      <trkpt lat="32.372534964233637" lon="-3.181686960160732">
        <ele>1058.549</ele>
        <time>2010-12-29T14:15:15Z</time>
      </trkpt>
      <trkpt lat="32.372567988932133" lon="-3.182958997786045">
        <ele>1061.433</ele>
        <time>2010-12-29T14:15:25Z</time>
      </trkpt>
      <trkpt lat="32.372490037232637" lon="-3.184137996286154">
        <ele>1062.394</ele>
        <time>2010-12-29T14:15:34Z</time>
      </trkpt>
      <trkpt lat="32.372460030019283" lon="-3.18505397066474">
        <ele>1062.394</ele>
        <time>2010-12-29T14:15:41Z</time>
      </trkpt>
      <trkpt lat="32.372460030019283" lon="-3.186649968847632">
        <ele>1063.355</ele>
        <time>2010-12-29T14:15:52Z</time>
      </trkpt>
      <trkpt lat="32.372430022805929" lon="-3.187754033133388">
        <ele>1063.836</ele>
        <time>2010-12-29T14:16:00Z</time>
      </trkpt>
      <trkpt lat="32.372409990057349" lon="-3.187966011464596">
        <ele>1064.317</ele>
        <time>2010-12-29T14:16:02Z</time>
      </trkpt>
      <trkpt lat="32.372383000329137" lon="-3.188401032239199">
        <ele>1065.278</ele>
        <time>2010-12-29T14:16:07Z</time>
      </trkpt>
      <trkpt lat="32.372428011149168" lon="-3.188759023323655">
        <ele>1066.239</ele>
        <time>2010-12-29T14:16:12Z</time>
      </trkpt>
      <trkpt lat="32.372479978948832" lon="-3.189193960279226">
        <ele>1065.759</ele>
        <time>2010-12-29T14:16:17Z</time>
      </trkpt>
      <trkpt lat="32.372481990605593" lon="-3.18937299773097">
        <ele>1065.278</ele>
        <time>2010-12-29T14:16:19Z</time>
      </trkpt>
      <trkpt lat="32.372591039165854" lon="-3.189889993518591">
        <ele>1065.278</ele>
        <time>2010-12-29T14:16:26Z</time>
      </trkpt>
      <trkpt lat="32.372829001396894" lon="-3.190645035356283">
        <ele>1068.643</ele>
        <time>2010-12-29T14:16:35Z</time>
      </trkpt>
      <trkpt lat="32.372993035241961" lon="-3.191480962559581">
        <ele>1071.046</ele>
        <time>2010-12-29T14:16:43Z</time>
      </trkpt>
      <trkpt lat="32.373266033828259" lon="-3.192667001858354">
        <ele>1073.4490000000001</ele>
        <time>2010-12-29T14:16:54Z</time>
      </trkpt>
      <trkpt lat="32.373409029096365" lon="-3.193379966542125">
        <ele>1072.9690000000001</ele>
        <time>2010-12-29T14:17:03Z</time>
      </trkpt>
      <trkpt lat="32.373478012159467" lon="-3.193726977333427">
        <ele>1072.0070000000001</ele>
        <time>2010-12-29T14:17:08Z</time>
      </trkpt>
      <trkpt lat="32.37374103628099" lon="-3.194642029702663">
        <ele>1071.527</ele>
        <time>2010-12-29T14:17:19Z</time>
      </trkpt>
      <trkpt lat="32.37378797493875" lon="-3.194781001657248">
        <ele>1071.527</ele>
        <time>2010-12-29T14:17:21Z</time>
      </trkpt>
      <trkpt lat="32.373854024335742" lon="-3.195008989423513">
        <ele>1071.527</ele>
        <time>2010-12-29T14:17:24Z</time>
      </trkpt>
      <trkpt lat="32.373927030712366" lon="-3.195330016314983">
        <ele>1071.527</ele>
        <time>2010-12-29T14:17:28Z</time>
      </trkpt>
      <trkpt lat="32.374102966859937" lon="-3.196241967380047">
        <ele>1073.4490000000001</ele>
        <time>2010-12-29T14:17:37Z</time>
      </trkpt>
      <trkpt lat="32.374141020700336" lon="-3.196402983739972">
        <ele>1073.4490000000001</ele>
        <time>2010-12-29T14:17:39Z</time>
      </trkpt>
      <trkpt lat="32.374207992106676" lon="-3.196811014786363">
        <ele>1074.4110000000001</ele>
        <time>2010-12-29T14:17:44Z</time>
      </trkpt>
      <trkpt lat="32.374419970437884" lon="-3.197604026645422">
        <ele>1075.8530000000001</ele>
        <time>2010-12-29T14:17:53Z</time>
      </trkpt>
      <trkpt lat="32.374493982642889" lon="-3.197860009968281">
        <ele>1076.3330000000001</ele>
        <time>2010-12-29T14:17:56Z</time>
      </trkpt>
      <trkpt lat="32.374590961262584" lon="-3.198196040466428">
        <ele>1076.8140000000001</ele>
        <time>2010-12-29T14:18:00Z</time>
      </trkpt>
      <trkpt lat="32.374665979295969" lon="-3.198456969112158">
        <ele>1077.2950000000001</ele>
        <time>2010-12-29T14:18:03Z</time>
      </trkpt>
      <trkpt lat="32.374831018969417" lon="-3.199176974594593">
        <ele>1079.2170000000001</ele>
        <time>2010-12-29T14:18:11Z</time>
      </trkpt>
      <trkpt lat="32.374879969283938" lon="-3.199422983452678">
        <ele>1079.2170000000001</ele>
        <time>2010-12-29T14:18:14Z</time>
      </trkpt>
      <trkpt lat="32.374911988154054" lon="-3.199778962880373">
        <ele>1080.1780000000001</ele>
        <time>2010-12-29T14:18:18Z</time>
      </trkpt>
      <trkpt lat="32.375155985355377" lon="-3.2007169816643">
        <ele>1072.9690000000001</ele>
        <time>2010-12-29T14:18:26Z</time>
      </trkpt>
      <trkpt lat="32.375235026702285" lon="-3.201130963861942">
        <ele>1073.4490000000001</ele>
        <time>2010-12-29T14:18:30Z</time>
      </trkpt>
      <trkpt lat="32.375387996435165" lon="-3.201964041218162">
        <ele>1074.8910000000001</ele>
        <time>2010-12-29T14:18:38Z</time>
      </trkpt>
      <trkpt lat="32.375725032761693" lon="-3.203257033601403">
        <ele>1077.2950000000001</ele>
        <time>2010-12-29T14:18:49Z</time>
      </trkpt>
      <trkpt lat="32.375958971679211" lon="-3.204293958842754">
        <ele>1080.1780000000001</ele>
        <time>2010-12-29T14:18:58Z</time>
      </trkpt>
      <trkpt lat="32.376152006909251" lon="-3.205016981810331">
        <ele>1082.5820000000001</ele>
        <time>2010-12-29T14:19:05Z</time>
      </trkpt>
      <trkpt lat="32.37632199190557" lon="-3.20591501891613">
        <ele>1084.9849999999999</ele>
        <time>2010-12-29T14:19:14Z</time>
      </trkpt>
      <trkpt lat="32.376603037118912" lon="-3.207073984667659">
        <ele>1086.4269999999999</ele>
        <time>2010-12-29T14:19:24Z</time>
      </trkpt>
      <trkpt lat="32.376835970208049" lon="-3.207960035651922">
        <ele>1088.3499999999999</ele>
        <time>2010-12-29T14:19:32Z</time>
      </trkpt>
      <trkpt lat="32.376945018768311" lon="-3.208711976185441">
        <ele>1090.2719999999999</ele>
        <time>2010-12-29T14:19:39Z</time>
      </trkpt>
      <trkpt lat="32.377031017094851" lon="-3.209942020475864">
        <ele>1084.0239999999999</ele>
        <time>2010-12-29T14:19:49Z</time>
      </trkpt>
      <trkpt lat="32.377015007659793" lon="-3.211079025641084">
        <ele>1081.1400000000001</ele>
        <time>2010-12-29T14:19:58Z</time>
      </trkpt>
      <trkpt lat="32.376934038475156" lon="-3.212137995287776">
        <ele>1081.1400000000001</ele>
        <time>2010-12-29T14:20:06Z</time>
      </trkpt>
      <trkpt lat="32.37692398019135" lon="-3.212249977514148">
        <ele>1080.6590000000001</ele>
        <time>2010-12-29T14:20:07Z</time>
      </trkpt>
      <trkpt lat="32.376780984923244" lon="-3.213496031239629">
        <ele>1077.7750000000001</ele>
        <time>2010-12-29T14:20:17Z</time>
      </trkpt>
      <trkpt lat="32.376607982441783" lon="-3.214645022526383">
        <ele>1076.3330000000001</ele>
        <time>2010-12-29T14:20:26Z</time>
      </trkpt>
      <trkpt lat="32.376618040725589" lon="-3.214998990297318">
        <ele>1075.8530000000001</ele>
        <time>2010-12-29T14:20:29Z</time>
      </trkpt>
      <trkpt lat="32.37662298604846" lon="-3.215310964733362">
        <ele>1076.3330000000001</ele>
        <time>2010-12-29T14:20:32Z</time>
      </trkpt>
      <trkpt lat="32.37662298604846" lon="-3.216225011274219">
        <ele>1074.4110000000001</ele>
        <time>2010-12-29T14:20:42Z</time>
      </trkpt>
      <trkpt lat="32.376633966341615" lon="-3.216869998723269">
        <ele>1077.2950000000001</ele>
        <time>2010-12-29T14:20:50Z</time>
      </trkpt>
      <trkpt lat="32.376650981605053" lon="-3.217156995087862">
        <ele>1079.6980000000001</ele>
        <time>2010-12-29T14:20:54Z</time>
      </trkpt>
      <trkpt lat="32.376675037667155" lon="-3.217352963984013">
        <ele>1082.1010000000001</ele>
        <time>2010-12-29T14:20:58Z</time>
      </trkpt>
      <trkpt lat="32.376862959936261" lon="-3.217912036925554">
        <ele>1081.6199999999999</ele>
        <time>2010-12-29T14:21:06Z</time>
      </trkpt>
      <trkpt lat="32.377024982124567" lon="-3.218497009947896">
        <ele>1083.0619999999999</ele>
        <time>2010-12-29T14:21:14Z</time>
      </trkpt>
      <trkpt lat="32.377032022923231" lon="-3.218931024894118">
        <ele>1083.5429999999999</ele>
        <time>2010-12-29T14:21:18Z</time>
      </trkpt>
      <trkpt lat="32.37705297768116" lon="-3.219211986288428">
        <ele>1084.5050000000001</ele>
        <time>2010-12-29T14:21:21Z</time>
      </trkpt>
      <trkpt lat="32.377067981287837" lon="-3.219609959051013">
        <ele>1085.9469999999999</ele>
        <time>2010-12-29T14:21:25Z</time>
      </trkpt>
      <trkpt lat="32.377039985731244" lon="-3.220129972323775">
        <ele>1086.9079999999999</ele>
        <time>2010-12-29T14:21:30Z</time>
      </trkpt>
      <trkpt lat="32.377012996003032" lon="-3.221095986664295">
        <ele>1089.3109999999999</ele>
        <time>2010-12-29T14:21:38Z</time>
      </trkpt>
      <trkpt lat="32.377103017643094" lon="-3.222241038456559">
        <ele>1088.8309999999999</ele>
        <time>2010-12-29T14:21:47Z</time>
      </trkpt>
      <trkpt lat="32.377165965735912" lon="-3.223264971747994">
        <ele>1086.4269999999999</ele>
        <time>2010-12-29T14:21:55Z</time>
      </trkpt>
      <trkpt lat="32.377239977940917" lon="-3.223918005824089">
        <ele>1084.9849999999999</ele>
        <time>2010-12-29T14:22:00Z</time>
      </trkpt>
      <trkpt lat="32.377214999869466" lon="-3.224258981645107">
        <ele>1084.5050000000001</ele>
        <time>2010-12-29T14:22:03Z</time>
      </trkpt>
      <trkpt lat="32.377169989049435" lon="-3.224947974085808">
        <ele>1084.5050000000001</ele>
        <time>2010-12-29T14:22:11Z</time>
      </trkpt>
      <trkpt lat="32.377160014584661" lon="-3.225174034014344">
        <ele>1084.0239999999999</ele>
        <time>2010-12-29T14:22:18Z</time>
      </trkpt>
      <trkpt lat="32.377161020413041" lon="-3.225755989551544">
        <ele>1089.3109999999999</ele>
        <time>2010-12-29T14:22:25Z</time>
      </trkpt>
      <trkpt lat="32.377296974882483" lon="-3.226714041084051">
        <ele>1096.521</ele>
        <time>2010-12-29T14:22:34Z</time>
      </trkpt>
      <trkpt lat="32.377364030107856" lon="-3.227017968893051">
        <ele>1097.963</ele>
        <time>2010-12-29T14:22:37Z</time>
      </trkpt>
      <trkpt lat="32.377559999004006" lon="-3.227934027090669">
        <ele>1099.405</ele>
        <time>2010-12-29T14:22:46Z</time>
      </trkpt>
      <trkpt lat="32.377625964581966" lon="-3.228092025965452">
        <ele>1098.443</ele>
        <time>2010-12-29T14:22:48Z</time>
      </trkpt>
      <trkpt lat="32.377721015363932" lon="-3.228525035083294">
        <ele>1096.521</ele>
        <time>2010-12-29T14:22:57Z</time>
      </trkpt>
      <trkpt lat="32.377823023125529" lon="-3.228844972327352">
        <ele>1093.1559999999999</ele>
        <time>2010-12-29T14:23:05Z</time>
      </trkpt>
      <trkpt lat="32.378001976758242" lon="-3.229337995871902">
        <ele>1094.1179999999999</ele>
        <time>2010-12-29T14:23:15Z</time>
      </trkpt>
      <trkpt lat="32.378247985616326" lon="-3.23006303049624">
        <ele>1096.04</ele>
        <time>2010-12-29T14:23:22Z</time>
      </trkpt>
      <trkpt lat="32.378611005842686" lon="-3.231148989871144">
        <ele>1093.6369999999999</ele>
        <time>2010-12-29T14:23:31Z</time>
      </trkpt>
      <trkpt lat="32.379082990810275" lon="-3.232480036094785">
        <ele>1092.6759999999999</ele>
        <time>2010-12-29T14:23:43Z</time>
      </trkpt>
      <trkpt lat="32.379312990233302" lon="-3.233291991055012">
        <ele>1092.1949999999999</ele>
        <time>2010-12-29T14:23:50Z</time>
      </trkpt>
      <trkpt lat="32.379579031839967" lon="-3.234157003462315">
        <ele>1092.1949999999999</ele>
        <time>2010-12-29T14:23:57Z</time>
      </trkpt>
      <trkpt lat="32.37973703071475" lon="-3.235193006694317">
        <ele>1092.6759999999999</ele>
        <time>2010-12-29T14:24:06Z</time>
      </trkpt>
      <trkpt lat="32.379787992686033" lon="-3.235515039414167">
        <ele>1092.6759999999999</ele>
        <time>2010-12-29T14:24:09Z</time>
      </trkpt>
      <trkpt lat="32.379819005727768" lon="-3.236326994374394">
        <ele>1093.1559999999999</ele>
        <time>2010-12-29T14:24:15Z</time>
      </trkpt>
      <trkpt lat="32.379734013229609" lon="-3.2375199906528">
        <ele>1092.6759999999999</ele>
        <time>2010-12-29T14:24:24Z</time>
      </trkpt>
      <trkpt lat="32.379734013229609" lon="-3.237644964829087">
        <ele>1093.1559999999999</ele>
        <time>2010-12-29T14:24:25Z</time>
      </trkpt>
      <trkpt lat="32.379734013229609" lon="-3.238308979198337">
        <ele>1093.6369999999999</ele>
        <time>2010-12-29T14:24:30Z</time>
      </trkpt>
      <trkpt lat="32.379734013229609" lon="-3.238716004416347">
        <ele>1094.598</ele>
        <time>2010-12-29T14:24:33Z</time>
      </trkpt>
      <trkpt lat="32.379726972430944" lon="-3.239237023517489">
        <ele>1096.04</ele>
        <time>2010-12-29T14:24:37Z</time>
      </trkpt>
      <trkpt lat="32.379627982154489" lon="-3.240318037569523">
        <ele>1096.04</ele>
        <time>2010-12-29T14:24:46Z</time>
      </trkpt>
      <trkpt lat="32.379635022953153" lon="-3.240441000089049">
        <ele>1096.04</ele>
        <time>2010-12-29T14:24:47Z</time>
      </trkpt>
      <trkpt lat="32.379626976326108" lon="-3.241440961137414">
        <ele>1097.001</ele>
        <time>2010-12-29T14:24:56Z</time>
      </trkpt>
      <trkpt lat="32.379623958840966" lon="-3.241756958886981">
        <ele>1097.482</ele>
        <time>2010-12-29T14:25:01Z</time>
      </trkpt>
      <trkpt lat="32.379553969949484" lon="-3.242120984941721">
        <ele>1097.482</ele>
        <time>2010-12-29T14:25:05Z</time>
      </trkpt>
      <trkpt lat="32.379455985501409" lon="-3.243017010390759">
        <ele>1097.963</ele>
        <time>2010-12-29T14:25:13Z</time>
      </trkpt>
      <trkpt lat="32.379363030195236" lon="-3.244017977267504">
        <ele>1097.482</ele>
        <time>2010-12-29T14:25:21Z</time>
      </trkpt>
      <trkpt lat="32.379272002726793" lon="-3.244490968063474">
        <ele>1097.482</ele>
        <time>2010-12-29T14:25:25Z</time>
      </trkpt>
      <trkpt lat="32.379240989685059" lon="-3.245502999052405">
        <ele>1097.482</ele>
        <time>2010-12-29T14:25:32Z</time>
      </trkpt>
      <trkpt lat="32.37911400385201" lon="-3.246787022799254">
        <ele>1098.443</ele>
        <time>2010-12-29T14:25:41Z</time>
      </trkpt>
      <trkpt lat="32.378996992483735" lon="-3.247782038524747">
        <ele>1097.963</ele>
        <time>2010-12-29T14:25:49Z</time>
      </trkpt>
      <trkpt lat="32.378916023299098" lon="-3.24828302487731">
        <ele>1098.443</ele>
        <time>2010-12-29T14:25:54Z</time>
      </trkpt>
      <trkpt lat="32.378807980567217" lon="-3.249291032552719">
        <ele>1099.885</ele>
        <time>2010-12-29T14:26:02Z</time>
      </trkpt>
      <trkpt lat="32.378764981403947" lon="-3.250319994986057">
        <ele>1100.366</ele>
        <time>2010-12-29T14:26:10Z</time>
      </trkpt>
      <trkpt lat="32.378678983077407" lon="-3.25150796212256">
        <ele>1099.405</ele>
        <time>2010-12-29T14:26:20Z</time>
      </trkpt>
      <trkpt lat="32.37855602055788" lon="-3.252447992563248">
        <ele>1100.366</ele>
        <time>2010-12-29T14:26:28Z</time>
      </trkpt>
      <trkpt lat="32.378526013344526" lon="-3.252737000584602">
        <ele>1100.847</ele>
        <time>2010-12-29T14:26:31Z</time>
      </trkpt>
      <trkpt lat="32.378518972545862" lon="-3.252916960045695">
        <ele>1100.847</ele>
        <time>2010-12-29T14:26:33Z</time>
      </trkpt>
      <trkpt lat="32.378489971160889" lon="-3.25367895886302">
        <ele>1099.885</ele>
        <time>2010-12-29T14:26:40Z</time>
      </trkpt>
      <trkpt lat="32.378387963399291" lon="-3.255114024505019">
        <ele>1100.366</ele>
        <time>2010-12-29T14:26:50Z</time>
      </trkpt>
      <trkpt lat="32.378306994214654" lon="-3.255748031660914">
        <ele>1099.405</ele>
        <time>2010-12-29T14:26:55Z</time>
      </trkpt>
      <trkpt lat="32.378266006708145" lon="-3.256265027448535">
        <ele>1099.885</ele>
        <time>2010-12-29T14:26:59Z</time>
      </trkpt>
      <trkpt lat="32.378199035301805" lon="-3.256717985495925">
        <ele>1099.885</ele>
        <time>2010-12-29T14:27:03Z</time>
      </trkpt>
      <trkpt lat="32.378189982846379" lon="-3.257553996518254">
        <ele>1100.366</ele>
        <time>2010-12-29T14:27:12Z</time>
      </trkpt>
      <trkpt lat="32.378189982846379" lon="-3.258365029469132">
        <ele>1101.808</ele>
        <time>2010-12-29T14:27:19Z</time>
      </trkpt>
      <trkpt lat="32.378189982846379" lon="-3.258608020842075">
        <ele>1102.289</ele>
        <time>2010-12-29T14:27:21Z</time>
      </trkpt>
      <trkpt lat="32.378154024481773" lon="-3.259883997961879">
        <ele>1104.692</ele>
        <time>2010-12-29T14:27:31Z</time>
      </trkpt>
      <trkpt lat="32.377993008121848" lon="-3.260668041184545">
        <ele>1105.654</ele>
        <time>2010-12-29T14:27:38Z</time>
      </trkpt>
      <trkpt lat="32.37791296094656" lon="-3.26171301305294">
        <ele>1106.615</ele>
        <time>2010-12-29T14:27:47Z</time>
      </trkpt>
      <trkpt lat="32.37786803394556" lon="-3.263015979900956">
        <ele>1107.576</ele>
        <time>2010-12-29T14:27:57Z</time>
      </trkpt>
      <trkpt lat="32.37786803394556" lon="-3.264168994501233">
        <ele>1108.537</ele>
        <time>2010-12-29T14:28:06Z</time>
      </trkpt>
      <trkpt lat="32.37782503478229" lon="-3.264679033309221">
        <ele>1108.537</ele>
        <time>2010-12-29T14:28:10Z</time>
      </trkpt>
      <trkpt lat="32.377777006477118" lon="-3.265685029327869">
        <ele>1109.018</ele>
        <time>2010-12-29T14:28:18Z</time>
      </trkpt>
      <trkpt lat="32.377702994272113" lon="-3.266917001456022">
        <ele>1111.421</ele>
        <time>2010-12-29T14:28:29Z</time>
      </trkpt>
      <trkpt lat="32.37767499871552" lon="-3.267961973324418">
        <ele>1112.8630000000001</ele>
        <time>2010-12-29T14:28:38Z</time>
      </trkpt>
      <trkpt lat="32.37767499871552" lon="-3.268904015421867">
        <ele>1112.383</ele>
        <time>2010-12-29T14:28:47Z</time>
      </trkpt>
      <trkpt lat="32.37767499871552" lon="-3.269142983481288">
        <ele>1111.902</ele>
        <time>2010-12-29T14:28:50Z</time>
      </trkpt>
      <trkpt lat="32.37767499871552" lon="-3.269518995657563">
        <ele>1112.383</ele>
        <time>2010-12-29T14:28:54Z</time>
      </trkpt>
      <trkpt lat="32.37763199955225" lon="-3.270338997244835">
        <ele>1111.902</ele>
        <time>2010-12-29T14:29:03Z</time>
      </trkpt>
      <trkpt lat="32.377630993723869" lon="-3.271002005785704">
        <ele>1113.8240000000001</ele>
        <time>2010-12-29T14:29:11Z</time>
      </trkpt>
      <trkpt lat="32.377615990117192" lon="-3.271225970238447">
        <ele>1113.8240000000001</ele>
        <time>2010-12-29T14:29:14Z</time>
      </trkpt>
      <trkpt lat="32.377686984837055" lon="-3.27155202627182">
        <ele>1113.8240000000001</ele>
        <time>2010-12-29T14:29:19Z</time>
      </trkpt>
      <trkpt lat="32.377678016200662" lon="-3.272490967065096">
        <ele>1115.2670000000001</ele>
        <time>2010-12-29T14:29:28Z</time>
      </trkpt>
      <trkpt lat="32.37771799787879" lon="-3.273793011903763">
        <ele>1115.7470000000001</ele>
        <time>2010-12-29T14:29:39Z</time>
      </trkpt>
      <trkpt lat="32.377673992887139" lon="-3.27453900128603">
        <ele>1115.7470000000001</ele>
        <time>2010-12-29T14:29:45Z</time>
      </trkpt>
      <trkpt lat="32.377540972083807" lon="-3.275005035102367">
        <ele>1115.7470000000001</ele>
        <time>2010-12-29T14:29:49Z</time>
      </trkpt>
      <trkpt lat="32.377507025375962" lon="-3.27525096014142">
        <ele>1115.2670000000001</ele>
        <time>2010-12-29T14:29:51Z</time>
      </trkpt>
      <trkpt lat="32.377425972372293" lon="-3.276224015280604">
        <ele>1113.8240000000001</ele>
        <time>2010-12-29T14:29:59Z</time>
      </trkpt>
      <trkpt lat="32.377437958493829" lon="-3.276616036891937">
        <ele>1113.8240000000001</ele>
        <time>2010-12-29T14:30:04Z</time>
      </trkpt>
      <trkpt lat="32.377436030656099" lon="-3.276867996901274">
        <ele>1113.8240000000001</ele>
        <time>2010-12-29T14:30:07Z</time>
      </trkpt>
      <trkpt lat="32.377433013170958" lon="-3.277623038738966">
        <ele>1113.8240000000001</ele>
        <time>2010-12-29T14:30:14Z</time>
      </trkpt>
      <trkpt lat="32.377390014007688" lon="-3.278434993699193">
        <ele>1115.2670000000001</ele>
        <time>2010-12-29T14:30:21Z</time>
      </trkpt>
      <trkpt lat="32.377308961004019" lon="-3.279172014445067">
        <ele>1115.7470000000001</ele>
        <time>2010-12-29T14:30:28Z</time>
      </trkpt>
      <trkpt lat="32.377270990982652" lon="-3.280265014618635">
        <ele>1117.1890000000001</ele>
        <time>2010-12-29T14:30:37Z</time>
      </trkpt>
      <trkpt lat="32.377126989886165" lon="-3.28160896897316">
        <ele>1117.1890000000001</ele>
        <time>2010-12-29T14:30:47Z</time>
      </trkpt>
      <trkpt lat="32.377031017094851" lon="-3.282631980255246">
        <ele>1117.6700000000001</ele>
        <time>2010-12-29T14:30:54Z</time>
      </trkpt>
      <trkpt lat="32.377031017094851" lon="-3.283619033172727">
        <ele>1119.5930000000001</ele>
        <time>2010-12-29T14:31:01Z</time>
      </trkpt>
      <trkpt lat="32.377019030973315" lon="-3.283866969868541">
        <ele>1119.5930000000001</ele>
        <time>2010-12-29T14:31:03Z</time>
      </trkpt>
      <trkpt lat="32.376840999349952" lon="-3.284756960347295">
        <ele>1118.1510000000001</ele>
        <time>2010-12-29T14:31:12Z</time>
      </trkpt>
      <trkpt lat="32.376735974103212" lon="-3.285643011331558">
        <ele>1120.0730000000001</ele>
        <time>2010-12-29T14:31:20Z</time>
      </trkpt>
      <trkpt lat="32.376603037118912" lon="-3.286889987066388">
        <ele>1119.5930000000001</ele>
        <time>2010-12-29T14:31:30Z</time>
      </trkpt>
      <trkpt lat="32.376519972458482" lon="-3.287390973418951">
        <ele>1120.0730000000001</ele>
        <time>2010-12-29T14:31:34Z</time>
      </trkpt>
      <trkpt lat="32.376269018277526" lon="-3.288352964445949">
        <ele>1119.5930000000001</ele>
        <time>2010-12-29T14:31:42Z</time>
      </trkpt>
      <trkpt lat="32.376048993319273" lon="-3.289024019613862">
        <ele>1121.5150000000001</ele>
        <time>2010-12-29T14:31:48Z</time>
      </trkpt>
      <trkpt lat="32.375941034406424" lon="-3.289414029568434">
        <ele>1122.9570000000001</ele>
        <time>2010-12-29T14:31:52Z</time>
      </trkpt>
      <trkpt lat="32.375917984172702" lon="-3.289683004841209">
        <ele>1123.9179999999999</ele>
        <time>2010-12-29T14:31:55Z</time>
      </trkpt>
      <trkpt lat="32.375766020268202" lon="-3.290188014507294">
        <ele>1124.8800000000001</ele>
        <time>2010-12-29T14:32:01Z</time>
      </trkpt>
      <trkpt lat="32.375672981142998" lon="-3.290421031415463">
        <ele>1124.8800000000001</ele>
        <time>2010-12-29T14:32:04Z</time>
      </trkpt>
      <trkpt lat="32.375577008351684" lon="-3.290659999474883">
        <ele>1125.3599999999999</ele>
        <time>2010-12-29T14:32:07Z</time>
      </trkpt>
      <trkpt lat="32.375400988385081" lon="-3.291406994685531">
        <ele>1124.3989999999999</ele>
        <time>2010-12-29T14:32:17Z</time>
      </trkpt>
      <trkpt lat="32.375210970640182" lon="-3.292196989059448">
        <ele>1121.9960000000001</ele>
        <time>2010-12-29T14:32:25Z</time>
      </trkpt>
      <trkpt lat="32.375061018392444" lon="-3.292579958215356">
        <ele>1121.5150000000001</ele>
        <time>2010-12-29T14:32:29Z</time>
      </trkpt>
      <trkpt lat="32.374969990924001" lon="-3.292884975671768">
        <ele>1121.0350000000001</ele>
        <time>2010-12-29T14:32:32Z</time>
      </trkpt>
      <trkpt lat="32.374726999551058" lon="-3.293692991137505">
        <ele>1121.9960000000001</ele>
        <time>2010-12-29T14:32:40Z</time>
      </trkpt>
      <trkpt lat="32.374352999031544" lon="-3.295051027089357">
        <ele>1123.9179999999999</ele>
        <time>2010-12-29T14:32:51Z</time>
      </trkpt>
      <trkpt lat="32.374125011265278" lon="-3.295945962890983">
        <ele>1123.9179999999999</ele>
        <time>2010-12-29T14:32:59Z</time>
      </trkpt>
      <trkpt lat="32.373976986855268" lon="-3.296557003632188">
        <ele>1122.9570000000001</ele>
        <time>2010-12-29T14:33:06Z</time>
      </trkpt>
      <trkpt lat="32.37380700185895" lon="-3.297216994687915">
        <ele>1121.9960000000001</ele>
        <time>2010-12-29T14:33:13Z</time>
      </trkpt>
      <trkpt lat="32.373498966917396" lon="-3.298259032890201">
        <ele>1124.3989999999999</ele>
        <time>2010-12-29T14:33:23Z</time>
      </trkpt>
      <trkpt lat="32.373186992481351" lon="-3.299448005855084">
        <ele>1125.8409999999999</ele>
        <time>2010-12-29T14:33:33Z</time>
      </trkpt>
      <trkpt lat="32.372823972254992" lon="-3.300518039613962">
        <ele>1126.8019999999999</ele>
        <time>2010-12-29T14:33:42Z</time>
      </trkpt>
      <trkpt lat="32.372592967003584" lon="-3.301367964595556">
        <ele>1127.7639999999999</ele>
        <time>2010-12-29T14:33:49Z</time>
      </trkpt>
      <trkpt lat="32.372328015044332" lon="-3.302215039730072">
        <ele>1123.4380000000001</ele>
        <time>2010-12-29T14:33:56Z</time>
      </trkpt>
      <trkpt lat="32.372074965387583" lon="-3.303046021610498">
        <ele>1124.8800000000001</ele>
        <time>2010-12-29T14:34:03Z</time>
      </trkpt>
      <trkpt lat="32.37168001011014" lon="-3.304249998182058">
        <ele>1126.8019999999999</ele>
        <time>2010-12-29T14:34:13Z</time>
      </trkpt>
      <trkpt lat="32.371436012908816" lon="-3.304993975907564">
        <ele>1127.2829999999999</ele>
        <time>2010-12-29T14:34:20Z</time>
      </trkpt>
      <trkpt lat="32.371348002925515" lon="-3.305329000577331">
        <ele>1127.7639999999999</ele>
        <time>2010-12-29T14:34:23Z</time>
      </trkpt>
      <trkpt lat="32.371001997962594" lon="-3.306401968002319">
        <ele>1128.7249999999999</ele>
        <time>2010-12-29T14:34:31Z</time>
      </trkpt>
      <trkpt lat="32.370880041271448" lon="-3.307101018726826">
        <ele>1129.6859999999999</ele>
        <time>2010-12-29T14:34:36Z</time>
      </trkpt>
      <trkpt lat="32.370673008263111" lon="-3.308225031942129">
        <ele>1131.6089999999999</ele>
        <time>2010-12-29T14:34:44Z</time>
      </trkpt>
      <trkpt lat="32.370300013571978" lon="-3.310070978477597">
        <ele>1133.0509999999999</ele>
        <time>2010-12-29T14:34:55Z</time>
      </trkpt>
      <trkpt lat="32.370027014985681" lon="-3.31112701445818">
        <ele>1134.4929999999999</ele>
        <time>2010-12-29T14:35:02Z</time>
      </trkpt>
      <trkpt lat="32.369857029989362" lon="-3.311847019940615">
        <ele>1135.454</ele>
        <time>2010-12-29T14:35:09Z</time>
      </trkpt>
      <trkpt lat="32.369773965328932" lon="-3.312348006293178">
        <ele>1135.454</ele>
        <time>2010-12-29T14:35:16Z</time>
      </trkpt>
      <trkpt lat="32.369640022516251" lon="-3.31314898096025">
        <ele>1135.9349999999999</ele>
        <time>2010-12-29T14:35:23Z</time>
      </trkpt>
      <trkpt lat="32.369436006993055" lon="-3.314492013305426">
        <ele>1135.9349999999999</ele>
        <time>2010-12-29T14:35:33Z</time>
      </trkpt>
      <trkpt lat="32.369339028373361" lon="-3.315396001562476">
        <ele>1135.454</ele>
        <time>2010-12-29T14:35:41Z</time>
      </trkpt>
      <trkpt lat="32.369248000904918" lon="-3.315636981278658">
        <ele>1135.454</ele>
        <time>2010-12-29T14:35:44Z</time>
      </trkpt>
      <trkpt lat="32.369203995913267" lon="-3.315785005688667">
        <ele>1135.454</ele>
        <time>2010-12-29T14:35:46Z</time>
      </trkpt>
      <trkpt lat="32.369160996749997" lon="-3.316002013161779">
        <ele>1135.454</ele>
        <time>2010-12-29T14:35:50Z</time>
      </trkpt>
      <trkpt lat="32.369063012301922" lon="-3.316912036389113">
        <ele>1135.454</ele>
        <time>2010-12-29T14:35:59Z</time>
      </trkpt>
      <trkpt lat="32.368903001770377" lon="-3.318000007420778">
        <ele>1136.4159999999999</ele>
        <time>2010-12-29T14:36:09Z</time>
      </trkpt>
      <trkpt lat="32.368879029527307" lon="-3.318191030994058">
        <ele>1136.4159999999999</ele>
        <time>2010-12-29T14:36:11Z</time>
      </trkpt>
      <trkpt lat="32.368847010657191" lon="-3.318398986011744">
        <ele>1136.896</ele>
        <time>2010-12-29T14:36:13Z</time>
      </trkpt>
      <trkpt lat="32.368627991527319" lon="-3.319417973980308">
        <ele>1137.377</ele>
        <time>2010-12-29T14:36:22Z</time>
      </trkpt>
      <trkpt lat="32.368467980995774" lon="-3.32053997553885">
        <ele>1137.377</ele>
        <time>2010-12-29T14:36:32Z</time>
      </trkpt>
      <trkpt lat="32.368377037346363" lon="-3.320982037112117">
        <ele>1137.377</ele>
        <time>2010-12-29T14:36:37Z</time>
      </trkpt>
      <trkpt lat="32.368340995162725" lon="-3.321303986012936">
        <ele>1137.8579999999999</ele>
        <time>2010-12-29T14:36:43Z</time>
      </trkpt>
      <trkpt lat="32.368340995162725" lon="-3.321466008201242">
        <ele>1138.338</ele>
        <time>2010-12-29T14:36:45Z</time>
      </trkpt>
      <trkpt lat="32.368275029584765" lon="-3.322295984253287">
        <ele>1139.3</ele>
        <time>2010-12-29T14:36:54Z</time>
      </trkpt>
      <trkpt lat="32.368147037923336" lon="-3.323125038295984">
        <ele>1140.261</ele>
        <time>2010-12-29T14:37:03Z</time>
      </trkpt>
      <trkpt lat="32.368098003789783" lon="-3.323432989418507">
        <ele>1140.261</ele>
        <time>2010-12-29T14:37:06Z</time>
      </trkpt>
      <trkpt lat="32.367857024073601" lon="-3.324302025139332">
        <ele>1140.261</ele>
        <time>2010-12-29T14:37:15Z</time>
      </trkpt>
      <trkpt lat="32.367671029642224" lon="-3.325068969279528">
        <ele>1139.78</ele>
        <time>2010-12-29T14:37:23Z</time>
      </trkpt>
      <trkpt lat="32.36766298301518" lon="-3.325207019224763">
        <ele>1139.78</ele>
        <time>2010-12-29T14:37:25Z</time>
      </trkpt>
      <trkpt lat="32.367648985236883" lon="-3.325831973925233">
        <ele>1139.3</ele>
        <time>2010-12-29T14:37:33Z</time>
      </trkpt>
      <trkpt lat="32.367455027997494" lon="-3.326658010482788">
        <ele>1138.819</ele>
        <time>2010-12-29T14:37:41Z</time>
      </trkpt>
      <trkpt lat="32.367311026901007" lon="-3.32754397764802">
        <ele>1137.377</ele>
        <time>2010-12-29T14:37:49Z</time>
      </trkpt>
      <trkpt lat="32.367198960855603" lon="-3.328497000038624">
        <ele>1138.338</ele>
        <time>2010-12-29T14:37:59Z</time>
      </trkpt>
      <trkpt lat="32.367131989449263" lon="-3.328791037201881">
        <ele>1138.338</ele>
        <time>2010-12-29T14:38:02Z</time>
      </trkpt>
      <trkpt lat="32.367092007771134" lon="-3.32900301553309">
        <ele>1138.338</ele>
        <time>2010-12-29T14:38:04Z</time>
      </trkpt>
      <trkpt lat="32.367073986679316" lon="-3.329440969973803">
        <ele>1138.819</ele>
        <time>2010-12-29T14:38:08Z</time>
      </trkpt>
      <trkpt lat="32.366857985034585" lon="-3.330589961260557">
        <ele>1139.3</ele>
        <time>2010-12-29T14:38:18Z</time>
      </trkpt>
      <trkpt lat="32.366693029180169" lon="-3.331548012793064">
        <ele>1141.222</ele>
        <time>2010-12-29T14:38:26Z</time>
      </trkpt>
      <trkpt lat="32.366549028083682" lon="-3.332367008551955">
        <ele>1142.184</ele>
        <time>2010-12-29T14:38:35Z</time>
      </trkpt>
      <trkpt lat="32.366496976464987" lon="-3.332738997414708">
        <ele>1142.184</ele>
        <time>2010-12-29T14:38:41Z</time>
      </trkpt>
      <trkpt lat="32.36639698036015" lon="-3.33345003426075">
        <ele>1142.184</ele>
        <time>2010-12-29T14:38:48Z</time>
      </trkpt>
      <trkpt lat="32.366200005635619" lon="-3.334770016372204">
        <ele>1143.145</ele>
        <time>2010-12-29T14:38:57Z</time>
      </trkpt>
      <trkpt lat="32.365960031747818" lon="-3.336126040667296">
        <ele>1145.067</ele>
        <time>2010-12-29T14:39:07Z</time>
      </trkpt>
      <trkpt lat="32.365748975425959" lon="-3.337674010545015">
        <ele>1147.471</ele>
        <time>2010-12-29T14:39:18Z</time>
      </trkpt>
      <trkpt lat="32.365547977387905" lon="-3.339240001514554">
        <ele>1150.355</ele>
        <time>2010-12-29T14:39:29Z</time>
      </trkpt>
      <trkpt lat="32.365402970463037" lon="-3.340062014758587">
        <ele>1150.355</ele>
        <time>2010-12-29T14:39:37Z</time>
      </trkpt>
      <trkpt lat="32.365168025717139" lon="-3.340981006622315">
        <ele>1151.797</ele>
        <time>2010-12-29T14:39:45Z</time>
      </trkpt>
      <trkpt lat="32.364993011578918" lon="-3.341485010460019">
        <ele>1153.239</ele>
        <time>2010-12-29T14:39:51Z</time>
      </trkpt>
      <trkpt lat="32.364857979118824" lon="-3.341738982126117">
        <ele>1153.7190000000001</ele>
        <time>2010-12-29T14:39:58Z</time>
      </trkpt>
      <trkpt lat="32.364592021331191" lon="-3.34241196513176">
        <ele>1154.2</ele>
        <time>2010-12-29T14:40:08Z</time>
      </trkpt>
      <trkpt lat="32.364251967519522" lon="-3.343185028061271">
        <ele>1155.1610000000001</ele>
        <time>2010-12-29T14:40:17Z</time>
      </trkpt>
      <trkpt lat="32.363844020292163" lon="-3.344156993553042">
        <ele>1155.6420000000001</ele>
        <time>2010-12-29T14:40:26Z</time>
      </trkpt>
      <trkpt lat="32.363647967576981" lon="-3.344697961583734">
        <ele>1156.6030000000001</ele>
        <time>2010-12-29T14:40:32Z</time>
      </trkpt>
      <trkpt lat="32.363561969250441" lon="-3.344907006248832">
        <ele>1156.6030000000001</ele>
        <time>2010-12-29T14:40:35Z</time>
      </trkpt>
      <trkpt lat="32.363255023956299" lon="-3.345757015049458">
        <ele>1157.0840000000001</ele>
        <time>2010-12-29T14:40:45Z</time>
      </trkpt>
      <trkpt lat="32.363009015098214" lon="-3.346412982791662">
        <ele>1158.0450000000001</ele>
        <time>2010-12-29T14:40:55Z</time>
      </trkpt>
      <trkpt lat="32.362931985408068" lon="-3.346627978608012">
        <ele>1159.0070000000001</ele>
        <time>2010-12-29T14:41:02Z</time>
      </trkpt>
      <trkpt lat="32.362855039536953" lon="-3.34685898385942">
        <ele>1159.4870000000001</ele>
        <time>2010-12-29T14:41:06Z</time>
      </trkpt>
      <trkpt lat="32.36265798099339" lon="-3.347456026822329">
        <ele>1159.9680000000001</ele>
        <time>2010-12-29T14:41:14Z</time>
      </trkpt>
      <trkpt lat="32.362599978223443" lon="-3.347637997940183">
        <ele>1159.9680000000001</ele>
        <time>2010-12-29T14:41:16Z</time>
      </trkpt>
      <trkpt lat="32.362426975741982" lon="-3.348105037584901">
        <ele>1160.4480000000001</ele>
        <time>2010-12-29T14:41:21Z</time>
      </trkpt>
      <trkpt lat="32.362236035987735" lon="-3.348628990352154">
        <ele>1160.4480000000001</ele>
        <time>2010-12-29T14:41:26Z</time>
      </trkpt>
      <trkpt lat="32.362152971327305" lon="-3.348867958411574">
        <ele>1160.4480000000001</ele>
        <time>2010-12-29T14:41:28Z</time>
      </trkpt>
      <trkpt lat="32.361751981079578" lon="-3.349894993007183">
        <ele>1159.9680000000001</ele>
        <time>2010-12-29T14:41:36Z</time>
      </trkpt>
      <trkpt lat="32.361167008057237" lon="-3.351390995085239">
        <ele>1159.9680000000001</ele>
        <time>2010-12-29T14:41:47Z</time>
      </trkpt>
      <trkpt lat="32.361030969768763" lon="-3.351918971166015">
        <ele>1159.4870000000001</ele>
        <time>2010-12-29T14:41:51Z</time>
      </trkpt>
      <trkpt lat="32.360718995332718" lon="-3.352784989401698">
        <ele>1159.4870000000001</ele>
        <time>2010-12-29T14:41:58Z</time>
      </trkpt>
      <trkpt lat="32.360213985666633" lon="-3.354137996211648">
        <ele>1159.0070000000001</ele>
        <time>2010-12-29T14:42:08Z</time>
      </trkpt>
      <trkpt lat="32.360023967921734" lon="-3.354706959798932">
        <ele>1159.0070000000001</ele>
        <time>2010-12-29T14:42:13Z</time>
      </trkpt>
      <trkpt lat="32.359910979866982" lon="-3.355004014447331">
        <ele>1158.5260000000001</ele>
        <time>2010-12-29T14:42:16Z</time>
      </trkpt>
      <trkpt lat="32.359678968787193" lon="-3.355614971369505">
        <ele>1158.0450000000001</ele>
        <time>2010-12-29T14:42:22Z</time>
      </trkpt>
      <trkpt lat="32.359371017664671" lon="-3.356414018198848">
        <ele>1158.0450000000001</ele>
        <time>2010-12-29T14:42:29Z</time>
      </trkpt>
      <trkpt lat="32.359003974124789" lon="-3.35740702226758">
        <ele>1157.5650000000001</ele>
        <time>2010-12-29T14:42:37Z</time>
      </trkpt>
      <trkpt lat="32.358823008835316" lon="-3.357891999185085">
        <ele>1157.5650000000001</ele>
        <time>2010-12-29T14:42:41Z</time>
      </trkpt>
      <trkpt lat="32.358657969161868" lon="-3.358312016353011">
        <ele>1157.0840000000001</ele>
        <time>2010-12-29T14:42:45Z</time>
      </trkpt>
      <trkpt lat="32.35848999582231" lon="-3.358758017420769">
        <ele>1157.0840000000001</ele>
        <time>2010-12-29T14:42:49Z</time>
      </trkpt>
      <trkpt lat="32.358364015817642" lon="-3.35910402238369">
        <ele>1157.0840000000001</ele>
        <time>2010-12-29T14:42:52Z</time>
      </trkpt>
      <trkpt lat="32.358078025281429" lon="-3.359938021749258">
        <ele>1156.6030000000001</ele>
        <time>2010-12-29T14:42:59Z</time>
      </trkpt>
      <trkpt lat="32.35801599919796" lon="-3.360134996473789">
        <ele>1156.6030000000001</ele>
        <time>2010-12-29T14:43:01Z</time>
      </trkpt>
      <trkpt lat="32.357773007825017" lon="-3.360964972525835">
        <ele>1156.123</ele>
        <time>2010-12-29T14:43:08Z</time>
      </trkpt>
      <trkpt lat="32.357546025887132" lon="-3.361561009660363">
        <ele>1156.123</ele>
        <time>2010-12-29T14:43:13Z</time>
      </trkpt>
      <trkpt lat="32.357290964573622" lon="-3.362123016268015">
        <ele>1157.0840000000001</ele>
        <time>2010-12-29T14:43:19Z</time>
      </trkpt>
      <trkpt lat="32.356887040659785" lon="-3.363200007006526">
        <ele>1157.5650000000001</ele>
        <time>2010-12-29T14:43:28Z</time>
      </trkpt>
      <trkpt lat="32.356816967949271" lon="-3.363422965630889">
        <ele>1157.5650000000001</ele>
        <time>2010-12-29T14:43:30Z</time>
      </trkpt>
      <trkpt lat="32.356622004881501" lon="-3.363929986953735">
        <ele>1157.5650000000001</ele>
        <time>2010-12-29T14:43:35Z</time>
      </trkpt>
      <trkpt lat="32.356420001015067" lon="-3.364486964419484">
        <ele>1157.5650000000001</ele>
        <time>2010-12-29T14:43:40Z</time>
      </trkpt>
      <trkpt lat="32.356263007968664" lon="-3.364872029051185">
        <ele>1157.0840000000001</ele>
        <time>2010-12-29T14:43:44Z</time>
      </trkpt>
      <trkpt lat="32.356112971901894" lon="-3.365282993763685">
        <ele>1157.0840000000001</ele>
        <time>2010-12-29T14:43:48Z</time>
      </trkpt>
      <trkpt lat="32.355991015210748" lon="-3.365638973191381">
        <ele>1156.6030000000001</ele>
        <time>2010-12-29T14:43:52Z</time>
      </trkpt>
      <trkpt lat="32.35580200329423" lon="-3.366144988685846">
        <ele>1156.6030000000001</ele>
        <time>2010-12-29T14:43:58Z</time>
      </trkpt>
      <trkpt lat="32.355503020808101" lon="-3.36705501191318">
        <ele>1155.1610000000001</ele>
        <time>2010-12-29T14:44:07Z</time>
      </trkpt>
      <trkpt lat="32.355107981711626" lon="-3.368255970999599">
        <ele>1154.681</ele>
        <time>2010-12-29T14:44:18Z</time>
      </trkpt>
      <trkpt lat="32.355002034455538" lon="-3.368628965690732">
        <ele>1154.2</ele>
        <time>2010-12-29T14:44:23Z</time>
      </trkpt>
      <trkpt lat="32.354820985347033" lon="-3.369369003921747">
        <ele>1153.239</ele>
        <time>2010-12-29T14:44:32Z</time>
      </trkpt>
      <trkpt lat="32.354643037542701" lon="-3.369970992207527">
        <ele>1152.758</ele>
        <time>2010-12-29T14:44:40Z</time>
      </trkpt>
      <trkpt lat="32.354376995936036" lon="-3.370683034881949">
        <ele>1152.758</ele>
        <time>2010-12-29T14:44:47Z</time>
      </trkpt>
      <trkpt lat="32.354183960705996" lon="-3.371370015665889">
        <ele>1152.277</ele>
        <time>2010-12-29T14:44:54Z</time>
      </trkpt>
      <trkpt lat="32.354068038985133" lon="-3.371767988428474">
        <ele>1151.797</ele>
        <time>2010-12-29T14:44:58Z</time>
      </trkpt>
      <trkpt lat="32.353909034281969" lon="-3.372313985601068">
        <ele>1151.797</ele>
        <time>2010-12-29T14:45:04Z</time>
      </trkpt>
      <trkpt lat="32.35374198295176" lon="-3.37291999720037">
        <ele>1151.316</ele>
        <time>2010-12-29T14:45:14Z</time>
      </trkpt>
      <trkpt lat="32.353464039042592" lon="-3.373848963528872">
        <ele>1151.316</ele>
        <time>2010-12-29T14:45:25Z</time>
      </trkpt>
      <trkpt lat="32.353405030444264" lon="-3.374035963788629">
        <ele>1151.316</ele>
        <time>2010-12-29T14:45:28Z</time>
      </trkpt>
      <trkpt lat="32.353269997984171" lon="-3.374653961509466">
        <ele>1150.835</ele>
        <time>2010-12-29T14:45:38Z</time>
      </trkpt>
      <trkpt lat="32.353060031309724" lon="-3.375386036932468">
        <ele>1150.835</ele>
        <time>2010-12-29T14:45:48Z</time>
      </trkpt>
      <trkpt lat="32.352832965552807" lon="-3.376044016331434">
        <ele>1150.835</ele>
        <time>2010-12-29T14:45:55Z</time>
      </trkpt>
      <trkpt lat="32.352553009986877" lon="-3.377114972099662">
        <ele>1152.277</ele>
        <time>2010-12-29T14:46:06Z</time>
      </trkpt>
      <trkpt lat="32.352412026375532" lon="-3.377469023689628">
        <ele>1151.797</ele>
        <time>2010-12-29T14:46:10Z</time>
      </trkpt>
      <trkpt lat="32.352113965898752" lon="-3.378521036356688">
        <ele>1151.797</ele>
        <time>2010-12-29T14:46:20Z</time>
      </trkpt>
      <trkpt lat="32.351804003119469" lon="-3.37968997657299">
        <ele>1150.835</ele>
        <time>2010-12-29T14:46:30Z</time>
      </trkpt>
      <trkpt lat="32.35159202478826" lon="-3.380444012582302">
        <ele>1150.835</ele>
        <time>2010-12-29T14:46:38Z</time>
      </trkpt>
      <trkpt lat="32.351428996771574" lon="-3.380894036963582">
        <ele>1150.835</ele>
        <time>2010-12-29T14:46:44Z</time>
      </trkpt>
      <trkpt lat="32.351323971524835" lon="-3.381496025249362">
        <ele>1151.316</ele>
        <time>2010-12-29T14:46:50Z</time>
      </trkpt>
      <trkpt lat="32.351101012900472" lon="-3.382013021036983">
        <ele>1151.316</ele>
        <time>2010-12-29T14:46:56Z</time>
      </trkpt>
      <trkpt lat="32.350800018757582" lon="-3.383163018152118">
        <ele>1150.355</ele>
        <time>2010-12-29T14:47:07Z</time>
      </trkpt>
      <trkpt lat="32.350703040137887" lon="-3.383594015613198">
        <ele>1149.874</ele>
        <time>2010-12-29T14:47:11Z</time>
      </trkpt>
      <trkpt lat="32.350418977439404" lon="-3.384532034397125">
        <ele>1149.874</ele>
        <time>2010-12-29T14:47:20Z</time>
      </trkpt>
      <trkpt lat="32.350064003840089" lon="-3.385497964918613">
        <ele>1150.355</ele>
        <time>2010-12-29T14:47:30Z</time>
      </trkpt>
      <trkpt lat="32.349772984161973" lon="-3.386631030589342">
        <ele>1149.394</ele>
        <time>2010-12-29T14:47:40Z</time>
      </trkpt>
      <trkpt lat="32.349538039416075" lon="-3.387426976114512">
        <ele>1149.394</ele>
        <time>2010-12-29T14:47:47Z</time>
      </trkpt>
      <trkpt lat="32.349472995847464" lon="-3.387640966102481">
        <ele>1148.913</ele>
        <time>2010-12-29T14:47:49Z</time>
      </trkpt>
      <trkpt lat="32.349310973659158" lon="-3.388203978538513">
        <ele>1149.394</ele>
        <time>2010-12-29T14:47:55Z</time>
      </trkpt>
      <trkpt lat="32.349178958684206" lon="-3.388636987656355">
        <ele>1148.913</ele>
        <time>2010-12-29T14:48:00Z</time>
      </trkpt>
      <trkpt lat="32.349082985892892" lon="-3.388980980962515">
        <ele>1148.432</ele>
        <time>2010-12-29T14:48:04Z</time>
      </trkpt>
      <trkpt lat="32.349029006436467" lon="-3.389172004535794">
        <ele>1148.432</ele>
        <time>2010-12-29T14:48:06Z</time>
      </trkpt>
      <trkpt lat="32.348837982863188" lon="-3.39004497975111">
        <ele>1147.951</ele>
        <time>2010-12-29T14:48:14Z</time>
      </trkpt>
      <trkpt lat="32.348729018121958" lon="-3.390352008864284">
        <ele>1147.471</ele>
        <time>2010-12-29T14:48:17Z</time>
      </trkpt>
      <trkpt lat="32.348459959030151" lon="-3.391220960766077">
        <ele>1146.99</ele>
        <time>2010-12-29T14:48:25Z</time>
      </trkpt>
      <trkpt lat="32.348123006522655" lon="-3.392355032265186">
        <ele>1145.067</ele>
        <time>2010-12-29T14:48:35Z</time>
      </trkpt>
      <trkpt lat="32.347683040425181" lon="-3.393813986331224">
        <ele>1145.067</ele>
        <time>2010-12-29T14:48:47Z</time>
      </trkpt>
      <trkpt lat="32.347275009378791" lon="-3.395352987572551">
        <ele>1145.548</ele>
        <time>2010-12-29T14:48:59Z</time>
      </trkpt>
      <trkpt lat="32.346892962232232" lon="-3.39670498855412">
        <ele>1145.067</ele>
        <time>2010-12-29T14:49:09Z</time>
      </trkpt>
      <trkpt lat="32.346443021669984" lon="-3.398037040606141">
        <ele>1144.587</ele>
        <time>2010-12-29T14:49:19Z</time>
      </trkpt>
      <trkpt lat="32.346153007820249" lon="-3.398991990834475">
        <ele>1143.145</ele>
        <time>2010-12-29T14:49:27Z</time>
      </trkpt>
      <trkpt lat="32.345903981477022" lon="-3.399773016571999">
        <ele>1140.741</ele>
        <time>2010-12-29T14:49:35Z</time>
      </trkpt>
      <trkpt lat="32.345566023141146" lon="-3.400583965703845">
        <ele>1140.741</ele>
        <time>2010-12-29T14:49:42Z</time>
      </trkpt>
      <trkpt lat="32.345113987103105" lon="-3.401895985007286">
        <ele>1139.78</ele>
        <time>2010-12-29T14:49:52Z</time>
      </trkpt>
      <trkpt lat="32.34491198323667" lon="-3.402705006301403">
        <ele>1138.819</ele>
        <time>2010-12-29T14:50:00Z</time>
      </trkpt>
      <trkpt lat="32.344653988257051" lon="-3.403599020093679">
        <ele>1137.377</ele>
        <time>2010-12-29T14:50:09Z</time>
      </trkpt>
      <trkpt lat="32.344360034912825" lon="-3.404390020295978">
        <ele>1136.4159999999999</ele>
        <time>2010-12-29T14:50:16Z</time>
      </trkpt>
      <trkpt lat="32.343917973339558" lon="-3.405806981027126">
        <ele>1135.454</ele>
        <time>2010-12-29T14:50:27Z</time>
      </trkpt>
      <trkpt lat="32.343820994719863" lon="-3.406152985990048">
        <ele>1134.9739999999999</ele>
        <time>2010-12-29T14:50:30Z</time>
      </trkpt>
      <trkpt lat="32.343702977523208" lon="-3.406537966802716">
        <ele>1135.454</ele>
        <time>2010-12-29T14:50:34Z</time>
      </trkpt>
      <trkpt lat="32.343486975878477" lon="-3.407285967841744">
        <ele>1135.454</ele>
        <time>2010-12-29T14:50:41Z</time>
      </trkpt>
      <trkpt lat="32.343245996162295" lon="-3.408192973583937">
        <ele>1126.3219999999999</ele>
        <time>2010-12-29T14:50:49Z</time>
      </trkpt>
      <trkpt lat="32.34308497980237" lon="-3.40862900018692">
        <ele>1124.3989999999999</ele>
        <time>2010-12-29T14:50:55Z</time>
      </trkpt>
      <trkpt lat="32.342953970655799" lon="-3.408980034291744">
        <ele>1123.9179999999999</ele>
        <time>2010-12-29T14:51:01Z</time>
      </trkpt>
      <trkpt lat="32.342828996479511" lon="-3.409320004284382">
        <ele>1123.9179999999999</ele>
        <time>2010-12-29T14:51:11Z</time>
      </trkpt>
      <trkpt lat="32.342711985111237" lon="-3.409598032012582">
        <ele>1126.8019999999999</ele>
        <time>2010-12-29T14:51:19Z</time>
      </trkpt>
      <trkpt lat="32.342569995671511" lon="-3.409967003390193">
        <ele>1128.7249999999999</ele>
        <time>2010-12-29T14:51:28Z</time>
      </trkpt>
      <trkpt lat="32.342237988486886" lon="-3.410292975604534">
        <ele>1130.1669999999999</ele>
        <time>2010-12-29T14:51:35Z</time>
      </trkpt>
      <trkpt lat="32.342166993767023" lon="-3.410464972257614">
        <ele>1130.6479999999999</ele>
        <time>2010-12-29T14:51:37Z</time>
      </trkpt>
      <trkpt lat="32.34203196130693" lon="-3.411066960543394">
        <ele>1131.6089999999999</ele>
        <time>2010-12-29T14:51:43Z</time>
      </trkpt>
      <trkpt lat="32.341646980494261" lon="-3.412185022607446">
        <ele>1125.8409999999999</ele>
        <time>2010-12-29T14:51:54Z</time>
      </trkpt>
      <trkpt lat="32.341630971059203" lon="-3.41258299537003">
        <ele>1125.8409999999999</ele>
        <time>2010-12-29T14:51:58Z</time>
      </trkpt>
      <trkpt lat="32.341545978561044" lon="-3.413166962563992">
        <ele>1127.2829999999999</ele>
        <time>2010-12-29T14:52:04Z</time>
      </trkpt>
      <trkpt lat="32.341282032430172" lon="-3.41400196775794">
        <ele>1128.7249999999999</ele>
        <time>2010-12-29T14:52:12Z</time>
      </trkpt>
      <trkpt lat="32.341044992208481" lon="-3.414768995717168">
        <ele>1129.2059999999999</ele>
        <time>2010-12-29T14:52:20Z</time>
      </trkpt>
      <trkpt lat="32.340791020542383" lon="-3.415441978722811">
        <ele>1127.7639999999999</ele>
        <time>2010-12-29T14:52:29Z</time>
      </trkpt>
      <trkpt lat="32.34050503000617" lon="-3.416339010000229">
        <ele>1126.3219999999999</ele>
        <time>2010-12-29T14:52:38Z</time>
      </trkpt>
      <trkpt lat="32.340218033641577" lon="-3.417079970240593">
        <ele>1125.8409999999999</ele>
        <time>2010-12-29T14:52:46Z</time>
      </trkpt>
      <trkpt lat="32.340000020340085" lon="-3.417812967672944">
        <ele>1121.0350000000001</ele>
        <time>2010-12-29T14:52:55Z</time>
      </trkpt>
      <trkpt lat="32.339770020917058" lon="-3.418829021975398">
        <ele>1121.9960000000001</ele>
        <time>2010-12-29T14:53:05Z</time>
      </trkpt>
      <trkpt lat="32.339417980983853" lon="-3.419729992747307">
        <ele>1119.1120000000001</ele>
        <time>2010-12-29T14:53:14Z</time>
      </trkpt>
      <trkpt lat="32.338972985744476" lon="-3.420963976532221">
        <ele>1116.7090000000001</ele>
        <time>2010-12-29T14:53:26Z</time>
      </trkpt>
      <trkpt lat="32.338621029630303" lon="-3.422029986977577">
        <ele>1115.2670000000001</ele>
        <time>2010-12-29T14:53:36Z</time>
      </trkpt>
      <trkpt lat="32.338310983031988" lon="-3.422927018254995">
        <ele>1119.1120000000001</ele>
        <time>2010-12-29T14:53:45Z</time>
      </trkpt>
      <trkpt lat="32.338232025504112" lon="-3.423206973820925">
        <ele>1119.1120000000001</ele>
        <time>2010-12-29T14:53:48Z</time>
      </trkpt>
      <trkpt lat="32.337818965315819" lon="-3.424332998692989">
        <ele>1120.0730000000001</ele>
        <time>2010-12-29T14:53:58Z</time>
      </trkpt>
      <trkpt lat="32.337374975904822" lon="-3.425299013033509">
        <ele>1121.5150000000001</ele>
        <time>2010-12-29T14:54:06Z</time>
      </trkpt>
      <trkpt lat="32.336859991773963" lon="-3.42601197771728">
        <ele>1120.5540000000001</ele>
        <time>2010-12-29T14:54:14Z</time>
      </trkpt>
      <trkpt lat="32.336347019299865" lon="-3.426529979333282">
        <ele>1119.5930000000001</ele>
        <time>2010-12-29T14:54:22Z</time>
      </trkpt>
      <trkpt lat="32.335656015202403" lon="-3.427139008417726">
        <ele>1120.0730000000001</ele>
        <time>2010-12-29T14:54:33Z</time>
      </trkpt>
      <trkpt lat="32.33487700112164" lon="-3.427790030837059">
        <ele>1122.4770000000001</ele>
        <time>2010-12-29T14:54:42Z</time>
      </trkpt>
      <trkpt lat="32.334259003400803" lon="-3.42830803245306">
        <ele>1122.9570000000001</ele>
        <time>2010-12-29T14:54:50Z</time>
      </trkpt>
      <trkpt lat="32.333449982106686" lon="-3.428984032943845">
        <ele>1121.5150000000001</ele>
        <time>2010-12-29T14:55:01Z</time>
      </trkpt>
      <trkpt lat="32.332962993532419" lon="-3.429449982941151">
        <ele>1120.5540000000001</ele>
        <time>2010-12-29T14:55:08Z</time>
      </trkpt>
      <trkpt lat="32.332478016614914" lon="-3.429896989837289">
        <ele>1119.5930000000001</ele>
        <time>2010-12-29T14:55:16Z</time>
      </trkpt>
      <trkpt lat="32.332028998062015" lon="-3.430374003946781">
        <ele>1118.6310000000001</ele>
        <time>2010-12-29T14:55:24Z</time>
      </trkpt>
      <trkpt lat="32.331671006977558" lon="-3.430784968659282">
        <ele>1117.6700000000001</ele>
        <time>2010-12-29T14:55:32Z</time>
      </trkpt>
      <trkpt lat="32.331533040851355" lon="-3.430941961705685">
        <ele>1117.6700000000001</ele>
        <time>2010-12-29T14:55:36Z</time>
      </trkpt>
      <trkpt lat="32.33107496984303" lon="-3.431438002735376">
        <ele>1117.1890000000001</ele>
        <time>2010-12-29T14:55:43Z</time>
      </trkpt>
      <trkpt lat="32.330425037071109" lon="-3.432147027924657">
        <ele>1116.7090000000001</ele>
        <time>2010-12-29T14:55:53Z</time>
      </trkpt>
      <trkpt lat="32.329453993588686" lon="-3.433155035600066">
        <ele>1117.1890000000001</ele>
        <time>2010-12-29T14:56:07Z</time>
      </trkpt>
      <trkpt lat="32.328600967302918" lon="-3.434003032743931">
        <ele>1117.1890000000001</ele>
        <time>2010-12-29T14:56:19Z</time>
      </trkpt>
      <trkpt lat="32.327791023999453" lon="-3.434873996302486">
        <ele>1116.2280000000001</ele>
        <time>2010-12-29T14:56:31Z</time>
      </trkpt>
      <trkpt lat="32.327460022643209" lon="-3.435226958245039">
        <ele>1116.7090000000001</ele>
        <time>2010-12-29T14:56:37Z</time>
      </trkpt>
      <trkpt lat="32.326986026018858" lon="-3.435734985396266">
        <ele>1117.6700000000001</ele>
        <time>2010-12-29T14:56:45Z</time>
      </trkpt>
      <trkpt lat="32.326268032193184" lon="-3.436518022790551">
        <ele>1117.6700000000001</ele>
        <time>2010-12-29T14:56:54Z</time>
      </trkpt>
      <trkpt lat="32.325260024517775" lon="-3.437608005478978">
        <ele>1115.7470000000001</ele>
        <time>2010-12-29T14:57:05Z</time>
      </trkpt>
      <trkpt lat="32.324852999299765" lon="-3.438046965748072">
        <ele>1115.2670000000001</ele>
        <time>2010-12-29T14:57:10Z</time>
      </trkpt>
      <trkpt lat="32.324180016294122" lon="-3.438676027581096">
        <ele>1114.7860000000001</ele>
        <time>2010-12-29T14:57:18Z</time>
      </trkpt>
      <trkpt lat="32.323395973071456" lon="-3.439285978674889">
        <ele>1112.383</ele>
        <time>2010-12-29T14:57:26Z</time>
      </trkpt>
      <trkpt lat="32.323114005848765" lon="-3.439489994198084">
        <ele>1111.902</ele>
        <time>2010-12-29T14:57:31Z</time>
      </trkpt>
      <trkpt lat="32.3228860180825" lon="-3.439651010558009">
        <ele>1110.46</ele>
        <time>2010-12-29T14:57:37Z</time>
      </trkpt>
      <trkpt lat="32.322374973446131" lon="-3.440081002190709">
        <ele>1109.979</ele>
        <time>2010-12-29T14:57:43Z</time>
      </trkpt>
      <trkpt lat="32.32147098518908" lon="-3.44087895937264">
        <ele>1109.979</ele>
        <time>2010-12-29T14:57:51Z</time>
      </trkpt>
      <trkpt lat="32.320067016407847" lon="-3.442147979512811">
        <ele>1107.576</ele>
        <time>2010-12-29T14:58:03Z</time>
      </trkpt>
      <trkpt lat="32.31857000850141" lon="-3.443600982427597">
        <ele>1105.654</ele>
        <time>2010-12-29T14:58:16Z</time>
      </trkpt>
      <trkpt lat="32.316841995343566" lon="-3.445233022794128">
        <ele>1103.731</ele>
        <time>2010-12-29T14:58:29Z</time>
      </trkpt>
      <trkpt lat="32.315168967470527" lon="-3.446848969906569">
        <ele>1101.328</ele>
        <time>2010-12-29T14:58:41Z</time>
      </trkpt>
      <trkpt lat="32.313257977366447" lon="-3.448708998039365">
        <ele>1100.366</ele>
        <time>2010-12-29T14:58:55Z</time>
      </trkpt>
      <trkpt lat="32.311528958380222" lon="-3.450327040627599">
        <ele>1098.443</ele>
        <time>2010-12-29T14:59:07Z</time>
      </trkpt>
      <trkpt lat="32.309377994388342" lon="-3.452239958569408">
        <ele>1095.5599999999999</ele>
        <time>2010-12-29T14:59:22Z</time>
      </trkpt>
      <trkpt lat="32.307675965130329" lon="-3.453712994232774">
        <ele>1095.5599999999999</ele>
        <time>2010-12-29T14:59:35Z</time>
      </trkpt>
      <trkpt lat="32.30628096498549" lon="-3.454941026866436">
        <ele>1094.1179999999999</ele>
        <time>2010-12-29T14:59:47Z</time>
      </trkpt>
      <trkpt lat="32.305243033915758" lon="-3.455863036215305">
        <ele>1089.7919999999999</ele>
        <time>2010-12-29T14:59:57Z</time>
      </trkpt>
      <trkpt lat="32.304291017353535" lon="-3.456679014489055">
        <ele>1084.9849999999999</ele>
        <time>2010-12-29T15:00:08Z</time>
      </trkpt>
      <trkpt lat="32.304238965734839" lon="-3.456769958138466">
        <ele>1084.5050000000001</ele>
        <time>2010-12-29T15:00:10Z</time>
      </trkpt>
      <trkpt lat="32.304229997098446" lon="-3.456875989213586">
        <ele>1080.6590000000001</ele>
        <time>2010-12-29T15:00:14Z</time>
      </trkpt>
      <trkpt lat="32.30423703789711" lon="-3.457030970603228">
        <ele>1083.0619999999999</ele>
        <time>2010-12-29T15:00:23Z</time>
      </trkpt>
      <trkpt lat="32.303903019055724" lon="-3.457239009439945">
        <ele>1086.4269999999999</ele>
        <time>2010-12-29T15:00:33Z</time>
      </trkpt>
      <trkpt lat="32.303446037694812" lon="-3.457388961687684">
        <ele>1077.2950000000001</ele>
        <time>2010-12-29T15:07:08Z</time>
      </trkpt>
      <trkpt lat="32.303307987749577" lon="-3.457512008026242">
        <ele>1078.7370000000001</ele>
        <time>2010-12-29T15:07:16Z</time>
      </trkpt>
      <trkpt lat="32.302897023037076" lon="-3.457867987453938">
        <ele>1080.6590000000001</ele>
        <time>2010-12-29T15:07:25Z</time>
      </trkpt>
      <trkpt lat="32.302031004801393" lon="-3.458628980442882">
        <ele>1083.5429999999999</ele>
        <time>2010-12-29T15:07:38Z</time>
      </trkpt>
      <trkpt lat="32.300792997702956" lon="-3.459697002544999">
        <ele>1091.7139999999999</ele>
        <time>2010-12-29T15:07:56Z</time>
      </trkpt>
      <trkpt lat="32.299679964780807" lon="-3.460653964430094">
        <ele>1096.04</ele>
        <time>2010-12-29T15:08:12Z</time>
      </trkpt>
      <trkpt lat="32.298600040376186" lon="-3.46161101013422">
        <ele>1098.924</ele>
        <time>2010-12-29T15:08:26Z</time>
      </trkpt>
      <trkpt lat="32.297365972772241" lon="-3.46255699172616">
        <ele>1106.615</ele>
        <time>2010-12-29T15:08:40Z</time>
      </trkpt>
      <trkpt lat="32.295767040923238" lon="-3.463669018819928">
        <ele>1109.979</ele>
        <time>2010-12-29T15:08:56Z</time>
      </trkpt>
      <trkpt lat="32.294473964720964" lon="-3.464539982378483">
        <ele>1109.979</ele>
        <time>2010-12-29T15:09:09Z</time>
      </trkpt>
      <trkpt lat="32.29347500950098" lon="-3.465160997584462">
        <ele>1116.2280000000001</ele>
        <time>2010-12-29T15:09:20Z</time>
      </trkpt>
      <trkpt lat="32.293284991756082" lon="-3.465396026149392">
        <ele>1116.7090000000001</ele>
        <time>2010-12-29T15:09:24Z</time>
      </trkpt>
      <trkpt lat="32.292788028717041" lon="-3.46601502969861">
        <ele>1108.537</ele>
        <time>2010-12-29T15:09:33Z</time>
      </trkpt>
      <trkpt lat="32.291984036564827" lon="-3.467009961605072">
        <ele>1095.5599999999999</ele>
        <time>2010-12-29T15:09:45Z</time>
      </trkpt>
      <trkpt lat="32.291772980242968" lon="-3.46678800880909">
        <ele>1077.2950000000001</ele>
        <time>2010-12-29T15:10:00Z</time>
      </trkpt>
      <trkpt lat="32.291481038555503" lon="-3.466376038268209">
        <ele>1072.9690000000001</ele>
        <time>2010-12-29T15:10:12Z</time>
      </trkpt>
      <trkpt lat="32.291401997208595" lon="-3.466261038556695">
        <ele>1073.4490000000001</ele>
        <time>2010-12-29T15:10:39Z</time>
      </trkpt>
      <trkpt lat="32.291179038584232" lon="-3.466056017205119">
        <ele>1087.3879999999999</ele>
        <time>2010-12-29T15:10:49Z</time>
      </trkpt>
      <trkpt lat="32.290978962555528" lon="-3.465841021388769">
        <ele>1097.963</ele>
        <time>2010-12-29T15:10:58Z</time>
      </trkpt>
      <trkpt lat="32.290748963132501" lon="-3.466507969424129">
        <ele>1096.521</ele>
        <time>2010-12-29T15:11:05Z</time>
      </trkpt>
      <trkpt lat="32.290486022830009" lon="-3.466765964403749">
        <ele>1084.9849999999999</ele>
        <time>2010-12-29T15:11:17Z</time>
      </trkpt>
      <trkpt lat="32.290387032553554" lon="-3.466862021014094">
        <ele>1081.6199999999999</ele>
        <time>2010-12-29T15:11:28Z</time>
      </trkpt>
      <trkpt lat="32.290306985378265" lon="-3.46694097854197">
        <ele>1074.4110000000001</ele>
        <time>2010-12-29T15:11:39Z</time>
      </trkpt>
      <trkpt lat="32.290561040863395" lon="-3.466693041846156">
        <ele>1118.6310000000001</ele>
        <time>2010-12-29T17:02:59Z</time>
      </trkpt>
      <trkpt lat="32.290992960333824" lon="-3.466276964172721">
        <ele>1120.0730000000001</ele>
        <time>2010-12-29T17:03:50Z</time>
      </trkpt>
      <trkpt lat="32.291156994178891" lon="-3.466120976954699">
        <ele>1119.1120000000001</ele>
        <time>2010-12-29T17:03:56Z</time>
      </trkpt>
      <trkpt lat="32.291342988610268" lon="-3.466180991381407">
        <ele>1117.6700000000001</ele>
        <time>2010-12-29T17:04:02Z</time>
      </trkpt>
      <trkpt lat="32.291719000786543" lon="-3.466718019917607">
        <ele>1117.1890000000001</ele>
        <time>2010-12-29T17:04:12Z</time>
      </trkpt>
      <trkpt lat="32.292235996574163" lon="-3.467429978772998">
        <ele>1117.1890000000001</ele>
        <time>2010-12-29T17:04:26Z</time>
      </trkpt>
      <trkpt lat="32.292733965441585" lon="-3.468187032267451">
        <ele>1117.1890000000001</ele>
        <time>2010-12-29T17:04:39Z</time>
      </trkpt>
      <trkpt lat="32.293204022571445" lon="-3.468850962817669">
        <ele>1116.7090000000001</ele>
        <time>2010-12-29T17:04:51Z</time>
      </trkpt>
      <trkpt lat="32.293253978714347" lon="-3.469281038269401">
        <ele>1117.1890000000001</ele>
        <time>2010-12-29T17:04:59Z</time>
      </trkpt>
      <trkpt lat="32.292899005115032" lon="-3.469771966338158">
        <ele>1117.1890000000001</ele>
        <time>2010-12-29T17:05:08Z</time>
      </trkpt>
      <trkpt lat="32.292775958776474" lon="-3.470026021823287">
        <ele>1117.6700000000001</ele>
        <time>2010-12-29T17:05:12Z</time>
      </trkpt>
      <trkpt lat="32.292772019281983" lon="-3.470682995393872">
        <ele>1116.7090000000001</ele>
        <time>2010-12-29T17:05:21Z</time>
      </trkpt>
      <trkpt lat="32.29280898347497" lon="-3.471780018880963">
        <ele>1116.7090000000001</ele>
        <time>2010-12-29T17:05:32Z</time>
      </trkpt>
      <trkpt lat="32.29280898347497" lon="-3.473432008177042">
        <ele>1116.2280000000001</ele>
        <time>2010-12-29T17:05:46Z</time>
      </trkpt>
      <trkpt lat="32.292741006240249" lon="-3.474818961694837">
        <ele>1117.6700000000001</ele>
        <time>2010-12-29T17:05:57Z</time>
      </trkpt>
      <trkpt lat="32.29272399097681" lon="-3.47538398578763">
        <ele>1118.1510000000001</ele>
        <time>2010-12-29T17:06:03Z</time>
      </trkpt>
      <trkpt lat="32.292707981541753" lon="-3.475835015997291">
        <ele>1119.1120000000001</ele>
        <time>2010-12-29T17:06:10Z</time>
      </trkpt>
      <trkpt lat="32.292625000700355" lon="-3.476160988211632">
        <ele>1119.1120000000001</ele>
        <time>2010-12-29T17:06:14Z</time>
      </trkpt>
      <trkpt lat="32.292608991265297" lon="-3.476836988702416">
        <ele>1119.5930000000001</ele>
        <time>2010-12-29T17:06:22Z</time>
      </trkpt>
      <trkpt lat="32.292616032063961" lon="-3.477925965562463">
        <ele>1120.0730000000001</ele>
        <time>2010-12-29T17:06:31Z</time>
      </trkpt>
      <trkpt lat="32.29248502291739" lon="-3.478796007111669">
        <ele>1120.0730000000001</ele>
        <time>2010-12-29T17:06:39Z</time>
      </trkpt>
      <trkpt lat="32.292183022946119" lon="-3.479575021192431">
        <ele>1120.5540000000001</ele>
        <time>2010-12-29T17:06:47Z</time>
      </trkpt>
      <trkpt lat="32.291836012154818" lon="-3.480404997244477">
        <ele>1121.9960000000001</ele>
        <time>2010-12-29T17:06:57Z</time>
      </trkpt>
      <trkpt lat="32.291548009961843" lon="-3.481180993840098">
        <ele>1122.9570000000001</ele>
        <time>2010-12-29T17:07:08Z</time>
      </trkpt>
      <trkpt lat="32.291134027764201" lon="-3.481933018192649">
        <ele>1121.9960000000001</ele>
        <time>2010-12-29T17:07:19Z</time>
      </trkpt>
      <trkpt lat="32.290743011981249" lon="-3.48247398622334">
        <ele>1121.5150000000001</ele>
        <time>2010-12-29T17:07:26Z</time>
      </trkpt>
      <trkpt lat="32.290386026725173" lon="-3.482990982010961">
        <ele>1121.9960000000001</ele>
        <time>2010-12-29T17:07:34Z</time>
      </trkpt>
      <trkpt lat="32.290111016482115" lon="-3.483442012220621">
        <ele>1122.4770000000001</ele>
        <time>2010-12-29T17:07:43Z</time>
      </trkpt>
      <trkpt lat="32.289811028167605" lon="-3.484074007719755">
        <ele>1121.9960000000001</ele>
        <time>2010-12-29T17:07:54Z</time>
      </trkpt>
      <trkpt lat="32.289666021242738" lon="-3.484393022954464">
        <ele>1122.4770000000001</ele>
        <time>2010-12-29T17:08:00Z</time>
      </trkpt>
      <trkpt lat="32.289509028196335" lon="-3.484718995168805">
        <ele>1118.1510000000001</ele>
        <time>2010-12-29T17:08:05Z</time>
      </trkpt>
      <trkpt lat="32.289104014635086" lon="-3.485605968162417">
        <ele>1113.3440000000001</ele>
        <time>2010-12-29T17:08:16Z</time>
      </trkpt>
      <trkpt lat="32.288651978597045" lon="-3.48634097725153">
        <ele>1112.8630000000001</ele>
        <time>2010-12-29T17:08:25Z</time>
      </trkpt>
      <trkpt lat="32.287912024185061" lon="-3.487633969634771">
        <ele>1118.6310000000001</ele>
        <time>2010-12-29T17:08:41Z</time>
      </trkpt>
      <trkpt lat="32.287469962611794" lon="-3.488634014502168">
        <ele>1120.5540000000001</ele>
        <time>2010-12-29T17:08:54Z</time>
      </trkpt>
      <trkpt lat="32.287122029811144" lon="-3.489550994709134">
        <ele>1121.9960000000001</ele>
        <time>2010-12-29T17:09:06Z</time>
      </trkpt>
      <trkpt lat="32.28681500069797" lon="-3.490389017388225">
        <ele>1122.4770000000001</ele>
        <time>2010-12-29T17:09:15Z</time>
      </trkpt>
      <trkpt lat="32.28638400323689" lon="-3.491426026448607">
        <ele>1122.4770000000001</ele>
        <time>2010-12-29T17:09:25Z</time>
      </trkpt>
      <trkpt lat="32.285757958889008" lon="-3.492406960576773">
        <ele>1121.9960000000001</ele>
        <time>2010-12-29T17:09:36Z</time>
      </trkpt>
      <trkpt lat="32.285166028887033" lon="-3.493341039866209">
        <ele>1121.0350000000001</ele>
        <time>2010-12-29T17:09:46Z</time>
      </trkpt>
      <trkpt lat="32.285082964226604" lon="-3.493523010984063">
        <ele>1121.0350000000001</ele>
        <time>2010-12-29T17:09:48Z</time>
      </trkpt>
      <trkpt lat="32.284941980615258" lon="-3.493805984035134">
        <ele>1121.0350000000001</ele>
        <time>2010-12-29T17:09:52Z</time>
      </trkpt>
      <trkpt lat="32.284834021702409" lon="-3.494117958471179">
        <ele>1121.5150000000001</ele>
        <time>2010-12-29T17:09:56Z</time>
      </trkpt>
      <trkpt lat="32.284306967630982" lon="-3.495054971426725">
        <ele>1122.9570000000001</ele>
        <time>2010-12-29T17:10:07Z</time>
      </trkpt>
      <trkpt lat="32.283841017633677" lon="-3.49585996940732">
        <ele>1123.9179999999999</ele>
        <time>2010-12-29T17:10:18Z</time>
      </trkpt>
      <trkpt lat="32.283281022682786" lon="-3.496976019814611">
        <ele>1123.9179999999999</ele>
        <time>2010-12-29T17:10:32Z</time>
      </trkpt>
      <trkpt lat="32.282714992761612" lon="-3.498204974457622">
        <ele>1124.3989999999999</ele>
        <time>2010-12-29T17:10:48Z</time>
      </trkpt>
      <trkpt lat="32.28223797865212" lon="-3.49925204180181">
        <ele>1125.3599999999999</ele>
        <time>2010-12-29T17:11:00Z</time>
      </trkpt>
      <trkpt lat="32.281830031424761" lon="-3.500084029510617">
        <ele>1126.3219999999999</ele>
        <time>2010-12-29T17:11:09Z</time>
      </trkpt>
      <trkpt lat="32.281675972044468" lon="-3.500448977574706">
        <ele>1126.8019999999999</ele>
        <time>2010-12-29T17:11:13Z</time>
      </trkpt>
      <trkpt lat="32.281408002600074" lon="-3.500879975035787">
        <ele>1127.7639999999999</ele>
        <time>2010-12-29T17:11:19Z</time>
      </trkpt>
      <trkpt lat="32.281012963503599" lon="-3.5015510302037">
        <ele>1127.7639999999999</ele>
        <time>2010-12-29T17:11:28Z</time>
      </trkpt>
      <trkpt lat="32.280752034857869" lon="-3.502082023769617">
        <ele>1126.8019999999999</ele>
        <time>2010-12-29T17:11:36Z</time>
      </trkpt>
      <trkpt lat="32.280408041551709" lon="-3.502875035628676">
        <ele>1123.4380000000001</ele>
        <time>2010-12-29T17:11:47Z</time>
      </trkpt>
      <trkpt lat="32.28021802380681" lon="-3.503598980605602">
        <ele>1123.4380000000001</ele>
        <time>2010-12-29T17:11:55Z</time>
      </trkpt>
      <trkpt lat="32.280040998011827" lon="-3.503851024433971">
        <ele>1122.4770000000001</ele>
        <time>2010-12-29T17:12:01Z</time>
      </trkpt>
      <trkpt lat="32.279867995530367" lon="-3.503902992233634">
        <ele>1121.9960000000001</ele>
        <time>2010-12-29T17:12:06Z</time>
      </trkpt>
      <trkpt lat="32.279623998329043" lon="-3.50413198582828">
        <ele>1122.4770000000001</ele>
        <time>2010-12-29T17:12:11Z</time>
      </trkpt>
      <trkpt lat="32.279029972851276" lon="-3.505023987963796">
        <ele>1121.9960000000001</ele>
        <time>2010-12-29T17:12:23Z</time>
      </trkpt>
      <trkpt lat="32.278193039819598" lon="-3.506226036697626">
        <ele>1121.5150000000001</ele>
        <time>2010-12-29T17:12:37Z</time>
      </trkpt>
      <trkpt lat="32.278138976544142" lon="-3.506315974518657">
        <ele>1121.5150000000001</ele>
        <time>2010-12-29T17:12:38Z</time>
      </trkpt>
      <trkpt lat="32.278032023459673" lon="-3.50649400614202">
        <ele>1121.5150000000001</ele>
        <time>2010-12-29T17:12:40Z</time>
      </trkpt>
      <trkpt lat="32.277441015467048" lon="-3.50748298689723">
        <ele>1121.9960000000001</ele>
        <time>2010-12-29T17:12:51Z</time>
      </trkpt>
      <trkpt lat="32.277014041319489" lon="-3.508096039295197">
        <ele>1122.9570000000001</ele>
        <time>2010-12-29T17:12:59Z</time>
      </trkpt>
      <trkpt lat="32.276595029979944" lon="-3.508580010384321">
        <ele>1123.4380000000001</ele>
        <time>2010-12-29T17:13:07Z</time>
      </trkpt>
      <trkpt lat="32.276444993913174" lon="-3.508776985108852">
        <ele>1124.3989999999999</ele>
        <time>2010-12-29T17:13:10Z</time>
      </trkpt>
      <trkpt lat="32.275892039760947" lon="-3.509827991947532">
        <ele>1126.8019999999999</ele>
        <time>2010-12-29T17:13:21Z</time>
      </trkpt>
      <trkpt lat="32.274992996826768" lon="-3.511043032631278">
        <ele>1129.2059999999999</ele>
        <time>2010-12-29T17:13:35Z</time>
      </trkpt>
      <trkpt lat="32.274768026545644" lon="-3.511347966268659">
        <ele>1129.6859999999999</ele>
        <time>2010-12-29T17:13:39Z</time>
      </trkpt>
      <trkpt lat="32.274102000519633" lon="-3.512174002826214">
        <ele>1131.1279999999999</ele>
        <time>2010-12-29T17:13:50Z</time>
      </trkpt>
      <trkpt lat="32.273108996450901" lon="-3.513593981042504">
        <ele>1130.1669999999999</ele>
        <time>2010-12-29T17:14:06Z</time>
      </trkpt>
      <trkpt lat="32.272596023976803" lon="-3.514304012060165">
        <ele>1127.7639999999999</ele>
        <time>2010-12-29T17:14:16Z</time>
      </trkpt>
      <trkpt lat="32.272231997922063" lon="-3.51478798314929">
        <ele>1127.2829999999999</ele>
        <time>2010-12-29T17:14:24Z</time>
      </trkpt>
      <trkpt lat="32.271712990477681" lon="-3.515479993075132">
        <ele>1127.2829999999999</ele>
        <time>2010-12-29T17:14:36Z</time>
      </trkpt>
      <trkpt lat="32.271552979946136" lon="-3.515680991113186">
        <ele>1127.2829999999999</ele>
        <time>2010-12-29T17:14:43Z</time>
      </trkpt>
      <trkpt lat="32.271207980811596" lon="-3.516176026314497">
        <ele>1127.2829999999999</ele>
        <time>2010-12-29T17:14:51Z</time>
      </trkpt>
      <trkpt lat="32.271037995815277" lon="-3.516726968809962">
        <ele>1126.8019999999999</ele>
        <time>2010-12-29T17:14:59Z</time>
      </trkpt>
      <trkpt lat="32.270697019994259" lon="-3.517244970425963">
        <ele>1128.7249999999999</ele>
        <time>2010-12-29T17:15:09Z</time>
      </trkpt>
      <trkpt lat="32.270618984475732" lon="-3.517324011772871">
        <ele>1130.6479999999999</ele>
        <time>2010-12-29T17:15:15Z</time>
      </trkpt>
      <trkpt lat="32.270453022792935" lon="-3.517436999827623">
        <ele>1134.4929999999999</ele>
        <time>2010-12-29T17:15:43Z</time>
      </trkpt>
      <trkpt lat="32.269878024235368" lon="-3.51764302700758">
        <ele>1134.4929999999999</ele>
        <time>2010-12-29T17:15:52Z</time>
      </trkpt>
      <trkpt lat="32.268946040421724" lon="-3.51807695813477">
        <ele>1133.0509999999999</ele>
        <time>2010-12-29T17:16:04Z</time>
      </trkpt>
      <trkpt lat="32.268115980550647" lon="-3.518466968089342">
        <ele>1131.1279999999999</ele>
        <time>2010-12-29T17:16:14Z</time>
      </trkpt>
      <trkpt lat="32.267763018608093" lon="-3.518700990825892">
        <ele>1129.6859999999999</ele>
        <time>2010-12-29T17:16:19Z</time>
      </trkpt>
      <trkpt lat="32.267492031678557" lon="-3.518792018294334">
        <ele>1128.7249999999999</ele>
        <time>2010-12-29T17:16:23Z</time>
      </trkpt>
      <trkpt lat="32.26722096092999" lon="-3.518896037712693">
        <ele>1127.7639999999999</ele>
        <time>2010-12-29T17:16:27Z</time>
      </trkpt>
      <trkpt lat="32.266460973769426" lon="-3.519237013533711">
        <ele>1126.8019999999999</ele>
        <time>2010-12-29T17:16:36Z</time>
      </trkpt>
      <trkpt lat="32.26625301875174" lon="-3.519337009638548">
        <ele>1127.2829999999999</ele>
        <time>2010-12-29T17:16:39Z</time>
      </trkpt>
      <trkpt lat="32.266068030148745" lon="-3.519465001299977">
        <ele>1126.8019999999999</ele>
        <time>2010-12-29T17:16:43Z</time>
      </trkpt>
      <trkpt lat="32.265843981876969" lon="-3.519590981304646">
        <ele>1126.8019999999999</ele>
        <time>2010-12-29T17:16:47Z</time>
      </trkpt>
      <trkpt lat="32.265322962775826" lon="-3.519823998212814">
        <ele>1126.8019999999999</ele>
        <time>2010-12-29T17:16:55Z</time>
      </trkpt>
      <trkpt lat="32.265110984444618" lon="-3.519916031509638">
        <ele>1126.3219999999999</ele>
        <time>2010-12-29T17:16:59Z</time>
      </trkpt>
      <trkpt lat="32.264947034418583" lon="-3.519983002915978">
        <ele>1125.8409999999999</ele>
        <time>2010-12-29T17:17:03Z</time>
      </trkpt>
      <trkpt lat="32.265022974461317" lon="-3.520662020891905">
        <ele>1125.8409999999999</ele>
        <time>2010-12-29T17:17:10Z</time>
      </trkpt>
      <trkpt lat="32.265509041026235" lon="-3.520996039733291">
        <ele>1125.3599999999999</ele>
        <time>2010-12-29T17:17:23Z</time>
      </trkpt>
      <trkpt lat="32.265798971056938" lon="-3.521226039156318">
        <ele>1126.3219999999999</ele>
        <time>2010-12-29T17:17:32Z</time>
      </trkpt>
      <trkpt lat="32.265966022387147" lon="-3.521542958915234">
        <ele>1126.8019999999999</ele>
        <time>2010-12-29T17:17:42Z</time>
      </trkpt>
      <trkpt lat="32.266085967421532" lon="-3.521978985518217">
        <ele>1127.7639999999999</ele>
        <time>2010-12-29T17:17:55Z</time>
      </trkpt>
      <trkpt lat="32.266169032081962" lon="-3.521870020776987">
        <ele>1128.2439999999999</ele>
        <time>2010-12-29T17:18:16Z</time>
      </trkpt>
      <trkpt lat="32.266083033755422" lon="-3.521707998588681">
        <ele>1127.2829999999999</ele>
        <time>2010-12-29T17:18:20Z</time>
      </trkpt>
      <trkpt lat="32.265883041545749" lon="-3.521520998328924">
        <ele>1127.2829999999999</ele>
        <time>2010-12-29T17:18:29Z</time>
      </trkpt>
      <trkpt lat="32.265881029888988" lon="-3.521388983353972">
        <ele>1127.2829999999999</ele>
        <time>2010-12-29T17:18:36Z</time>
      </trkpt>
      <trkpt lat="32.265998041257262" lon="-3.521450003609061">
        <ele>1127.2829999999999</ele>
        <time>2010-12-29T17:18:44Z</time>
      </trkpt>
      <trkpt lat="32.266032993793488" lon="-3.521634992212057">
        <ele>1127.7639999999999</ele>
        <time>2010-12-29T17:18:54Z</time>
      </trkpt>
      <trkpt lat="32.265927968546748" lon="-3.521653013303876">
        <ele>1130.6479999999999</ele>
        <time>2010-12-29T17:19:38Z</time>
      </trkpt>
      <trkpt lat="32.265833001583815" lon="-3.521649995818734">
        <ele>1132.0899999999999</ele>
        <time>2010-12-29T17:21:59Z</time>
      </trkpt>
      <trkpt lat="32.265763012692332" lon="-3.521862979978323">
        <ele>1128.2439999999999</ele>
        <time>2010-12-29T17:22:06Z</time>
      </trkpt>
      <trkpt lat="32.265811963006854" lon="-3.522036988288164">
        <ele>1126.3219999999999</ele>
        <time>2010-12-29T17:22:13Z</time>
      </trkpt>
      <trkpt lat="32.265704004094005" lon="-3.522132961079478">
        <ele>1112.8630000000001</ele>
        <time>2010-12-29T18:06:44Z</time>
      </trkpt>
      <trkpt lat="32.265738034620881" lon="-3.521987032145262">
        <ele>1139.3</ele>
        <time>2010-12-29T19:29:35Z</time>
      </trkpt>
      <trkpt lat="32.265821015462279" lon="-3.522074958309531">
        <ele>1123.4380000000001</ele>
        <time>2010-12-29T21:04:38Z</time>
      </trkpt>
      <trkpt lat="32.265813974663615" lon="-3.522045034915209">
        <ele>1125.8409999999999</ele>
        <time>2010-12-29T21:10:01Z</time>
      </trkpt>
    </trkseg>
  </trk>

  <trk>
    <name>101230</name>
    <extensions>
      <gpxx:TrackExtension xmlns:gpxx="http://www.garmin.com/xmlschemas/GpxExtensions/v3">
        <gpxx:DisplayColor>Cyan</gpxx:DisplayColor>
      </gpxx:TrackExtension>
    </extensions>
    <trkseg>
      <trkpt lat="32.265820177271962" lon="-3.522099433466792">
        <ele>1123.918457</ele>
        <time>2010-12-30T08:35:34Z</time>
      </trkpt>
      <trkpt lat="32.265244759619236" lon="-3.522003963589668">
        <ele>1073.4494629000001</ele>
        <time>2010-12-30T09:04:22Z</time>
      </trkpt>
      <trkpt lat="32.265393035486341" lon="-3.521951576694846">
        <ele>1082.1010742000001</ele>
        <time>2010-12-30T09:13:15Z</time>
      </trkpt>
      <trkpt lat="32.265593027696013" lon="-3.521909080445766">
        <ele>1123.4379882999999</ele>
        <time>2010-12-30T09:15:12Z</time>
      </trkpt>
      <trkpt lat="32.265456737950444" lon="-3.521805731579661">
        <ele>1142.6643065999999</ele>
        <time>2010-12-30T09:16:01Z</time>
      </trkpt>
      <trkpt lat="32.265382977202535" lon="-3.521879995241761">
        <ele>1118.1506348</ele>
        <time>2010-12-30T09:26:54Z</time>
      </trkpt>
      <trkpt lat="32.265407368540764" lon="-3.521748399361968">
        <ele>1118.1506348</ele>
        <time>2010-12-30T09:27:02Z</time>
      </trkpt>
      <trkpt lat="32.26562806405127" lon="-3.521676817908883">
        <ele>1098.4433594</ele>
        <time>2010-12-30T09:32:06Z</time>
      </trkpt>
      <trkpt lat="32.265500323846936" lon="-3.521559471264482">
        <ele>1092.1950684000001</ele>
        <time>2010-12-30T09:32:13Z</time>
      </trkpt>
      <trkpt lat="32.265061028301716" lon="-3.521337686106563">
        <ele>1088.3498535000001</ele>
        <time>2010-12-30T09:32:26Z</time>
      </trkpt>
      <trkpt lat="32.264756765216589" lon="-3.521259063854814">
        <ele>1085.4658202999999</ele>
        <time>2010-12-30T09:32:36Z</time>
      </trkpt>
      <trkpt lat="32.264455938711762" lon="-3.521368866786361">
        <ele>1075.3718262</ele>
        <time>2010-12-30T09:32:48Z</time>
      </trkpt>
      <trkpt lat="32.264154190197587" lon="-3.521170383319259">
        <ele>1074.8913574000001</ele>
        <time>2010-12-30T09:32:56Z</time>
      </trkpt>
      <trkpt lat="32.264646040275693" lon="-3.522503022104502">
        <ele>1074.8913574000001</ele>
        <time>2010-12-30T09:33:08Z</time>
      </trkpt>
      <trkpt lat="32.264647716656327" lon="-3.522762861102819">
        <ele>1076.8139647999999</ele>
        <time>2010-12-30T09:33:11Z</time>
      </trkpt>
      <trkpt lat="32.264697924256325" lon="-3.523095035925508">
        <ele>1078.7365723</ele>
        <time>2010-12-30T09:33:15Z</time>
      </trkpt>
      <trkpt lat="32.264816695824265" lon="-3.523401729762554">
        <ele>1079.2170410000001</ele>
        <time>2010-12-30T09:33:19Z</time>
      </trkpt>
      <trkpt lat="32.265290440991521" lon="-3.524164399132133">
        <ele>1088.8305664</ele>
        <time>2010-12-30T09:33:30Z</time>
      </trkpt>
      <trkpt lat="32.265709368512034" lon="-3.524683741852641">
        <ele>1093.6369629000001</ele>
        <time>2010-12-30T09:33:40Z</time>
      </trkpt>
      <trkpt lat="32.265999466180801" lon="-3.524867640808225">
        <ele>1096.0402832</ele>
        <time>2010-12-30T09:33:50Z</time>
      </trkpt>
      <trkpt lat="32.265791762620211" lon="-3.524740738794208">
        <ele>1096.5209961</ele>
        <time>2010-12-30T09:34:16Z</time>
      </trkpt>
      <trkpt lat="32.265687827020884" lon="-3.5246841609478">
        <ele>1096.0402832</ele>
        <time>2010-12-30T09:34:18Z</time>
      </trkpt>
      <trkpt lat="32.265495294705033" lon="-3.524498669430614">
        <ele>1096.0402832</ele>
        <time>2010-12-30T09:34:22Z</time>
      </trkpt>
      <trkpt lat="32.264970671385527" lon="-3.523649498820305">
        <ele>1104.2116699000001</ele>
        <time>2010-12-30T09:34:36Z</time>
      </trkpt>
      <trkpt lat="32.264666492119431" lon="-3.522959835827351">
        <ele>1106.6147461</ele>
        <time>2010-12-30T09:34:47Z</time>
      </trkpt>
      <trkpt lat="32.264606058597565" lon="-3.522308226674795">
        <ele>1103.730957</ele>
        <time>2010-12-30T09:34:56Z</time>
      </trkpt>
      <trkpt lat="32.264578565955162" lon="-3.522168835625053">
        <ele>1099.8854980000001</ele>
        <time>2010-12-30T09:35:04Z</time>
      </trkpt>
      <trkpt lat="32.264687865972519" lon="-3.522196328267455">
        <ele>1098.4433594</ele>
        <time>2010-12-30T09:35:10Z</time>
      </trkpt>
      <trkpt lat="32.264604130759835" lon="-3.522277884185314">
        <ele>1095.0788574000001</ele>
        <time>2010-12-30T09:35:15Z</time>
      </trkpt>
      <trkpt lat="32.264535566791892" lon="-3.522190963849425">
        <ele>1092.1950684000001</ele>
        <time>2010-12-30T09:35:21Z</time>
      </trkpt>
      <trkpt lat="32.264398438856006" lon="-3.521919725462794">
        <ele>1089.7917480000001</ele>
        <time>2010-12-30T09:35:27Z</time>
      </trkpt>
      <trkpt lat="32.263966016471386" lon="-3.521571960300207">
        <ele>1082.5817870999999</ele>
        <time>2010-12-30T09:35:38Z</time>
      </trkpt>
      <trkpt lat="32.263880185782909" lon="-3.521493086591363">
        <ele>1081.1398925999999</ele>
        <time>2010-12-30T09:35:40Z</time>
      </trkpt>
      <trkpt lat="32.263728138059378" lon="-3.521133586764336">
        <ele>1078.7365723</ele>
        <time>2010-12-30T09:35:47Z</time>
      </trkpt>
      <trkpt lat="32.26362026296556" lon="-3.52110886014998">
        <ele>1077.7751464999999</ele>
        <time>2010-12-30T09:35:52Z</time>
      </trkpt>
      <trkpt lat="32.26370869204402" lon="-3.521760134026408">
        <ele>1083.0622559000001</ele>
        <time>2010-12-30T09:35:59Z</time>
      </trkpt>
      <trkpt lat="32.263560835272074" lon="-3.521884689107537">
        <ele>1086.9077147999999</ele>
        <time>2010-12-30T09:36:03Z</time>
      </trkpt>
      <trkpt lat="32.263358412310481" lon="-3.522019637748599">
        <ele>1091.2336425999999</ele>
        <time>2010-12-30T09:36:08Z</time>
      </trkpt>
      <trkpt lat="32.263031434267759" lon="-3.52211938239634">
        <ele>1095.0788574000001</ele>
        <time>2010-12-30T09:36:13Z</time>
      </trkpt>
      <trkpt lat="32.262585936114192" lon="-3.522345861420035">
        <ele>1097.4821777</ele>
        <time>2010-12-30T09:36:23Z</time>
      </trkpt>
      <trkpt lat="32.262191064655781" lon="-3.522733272984624">
        <ele>1096.5209961</ele>
        <time>2010-12-30T09:36:33Z</time>
      </trkpt>
      <trkpt lat="32.261797534301877" lon="-3.523124037310481">
        <ele>1099.4047852000001</ele>
        <time>2010-12-30T09:36:42Z</time>
      </trkpt>
      <trkpt lat="32.26147667504847" lon="-3.523541875183582">
        <ele>1106.1340332</ele>
        <time>2010-12-30T09:36:52Z</time>
      </trkpt>
      <trkpt lat="32.261094963178039" lon="-3.523993492126465">
        <ele>1109.9792480000001</ele>
        <time>2010-12-30T09:37:01Z</time>
      </trkpt>
      <trkpt lat="32.260844008997083" lon="-3.524416191503406">
        <ele>1110.4599608999999</ele>
        <time>2010-12-30T09:37:09Z</time>
      </trkpt>
      <trkpt lat="32.260690284892917" lon="-3.524551894515753">
        <ele>1110.9406738</ele>
        <time>2010-12-30T09:37:13Z</time>
      </trkpt>
      <trkpt lat="32.26055852137506" lon="-3.52462649345398">
        <ele>1110.9406738</ele>
        <time>2010-12-30T09:37:16Z</time>
      </trkpt>
      <trkpt lat="32.260365234687924" lon="-3.524774685502052">
        <ele>1112.8632812999999</ele>
        <time>2010-12-30T09:37:21Z</time>
      </trkpt>
      <trkpt lat="32.260191896930337" lon="-3.524955902248621">
        <ele>1115.2666016000001</ele>
        <time>2010-12-30T09:37:26Z</time>
      </trkpt>
      <trkpt lat="32.259772131219506" lon="-3.52548798546195">
        <ele>1117.6699219</ele>
        <time>2010-12-30T09:37:37Z</time>
      </trkpt>
      <trkpt lat="32.259112894535065" lon="-3.526045884937048">
        <ele>1121.5151367000001</ele>
        <time>2010-12-30T09:37:49Z</time>
      </trkpt>
      <trkpt lat="32.258619787171483" lon="-3.526521138846874">
        <ele>1120.0732422000001</ele>
        <time>2010-12-30T09:37:58Z</time>
      </trkpt>
      <trkpt lat="32.257977398112416" lon="-3.527184817939997">
        <ele>1122.4765625</ele>
        <time>2010-12-30T09:38:09Z</time>
      </trkpt>
      <trkpt lat="32.257311036810279" lon="-3.52797070518136">
        <ele>1123.918457</ele>
        <time>2010-12-30T09:38:19Z</time>
      </trkpt>
      <trkpt lat="32.256584828719497" lon="-3.528782576322556">
        <ele>1125.3603516000001</ele>
        <time>2010-12-30T09:38:29Z</time>
      </trkpt>
      <trkpt lat="32.255988121032715" lon="-3.529400825500488">
        <ele>1127.2832031</ele>
        <time>2010-12-30T09:38:37Z</time>
      </trkpt>
      <trkpt lat="32.255720570683479" lon="-3.529919162392616">
        <ele>1129.6862793</ele>
        <time>2010-12-30T09:38:42Z</time>
      </trkpt>
      <trkpt lat="32.255382025614381" lon="-3.530550822615624">
        <ele>1126.8024902</ele>
        <time>2010-12-30T09:38:49Z</time>
      </trkpt>
      <trkpt lat="32.255116989836097" lon="-3.531220117583871">
        <ele>1127.7636719</ele>
        <time>2010-12-30T09:38:57Z</time>
      </trkpt>
      <trkpt lat="32.25425616838038" lon="-3.531718337908387">
        <ele>1125.3603516000001</ele>
        <time>2010-12-30T09:39:05Z</time>
      </trkpt>
      <trkpt lat="32.253802372142673" lon="-3.532825838774443">
        <ele>1119.1120605000001</ele>
        <time>2010-12-30T09:39:15Z</time>
      </trkpt>
      <trkpt lat="32.25340305827558" lon="-3.533872319385409">
        <ele>1117.1894531</ele>
        <time>2010-12-30T09:39:24Z</time>
      </trkpt>
      <trkpt lat="32.252969462424517" lon="-3.534565083682537">
        <ele>1116.7087402</ele>
        <time>2010-12-30T09:39:32Z</time>
      </trkpt>
      <trkpt lat="32.25285823456943" lon="-3.534697433933616">
        <ele>1117.1894531</ele>
        <time>2010-12-30T09:39:34Z</time>
      </trkpt>
      <trkpt lat="32.252689674496651" lon="-3.534997841343284">
        <ele>1117.6699219</ele>
        <time>2010-12-30T09:39:38Z</time>
      </trkpt>
      <trkpt lat="32.252270998433232" lon="-3.53594658896327">
        <ele>1118.1506348</ele>
        <time>2010-12-30T09:39:48Z</time>
      </trkpt>
      <trkpt lat="32.251651240512729" lon="-3.537112260237336">
        <ele>1117.6699219</ele>
        <time>2010-12-30T09:40:00Z</time>
      </trkpt>
      <trkpt lat="32.251123934984207" lon="-3.538077939301729">
        <ele>1118.6313477000001</ele>
        <time>2010-12-30T09:40:10Z</time>
      </trkpt>
      <trkpt lat="32.250477941706777" lon="-3.539224164560437">
        <ele>1121.034668</ele>
        <time>2010-12-30T09:40:21Z</time>
      </trkpt>
      <trkpt lat="32.250180719420314" lon="-3.539736634120345">
        <ele>1122.4765625</ele>
        <time>2010-12-30T09:40:28Z</time>
      </trkpt>
      <trkpt lat="32.2504404745996" lon="-3.540403163060546">
        <ele>1121.9958495999999</ele>
        <time>2010-12-30T09:40:35Z</time>
      </trkpt>
      <trkpt lat="32.250253390520811" lon="-3.540617320686579">
        <ele>1121.5151367000001</ele>
        <time>2010-12-30T09:40:42Z</time>
      </trkpt>
      <trkpt lat="32.250164123252034" lon="-3.54072536341846">
        <ele>1114.7858887</ele>
        <time>2010-12-30T09:40:46Z</time>
      </trkpt>
      <trkpt lat="32.249889196828008" lon="-3.541220733895898">
        <ele>1113.3439940999999</ele>
        <time>2010-12-30T09:40:53Z</time>
      </trkpt>
      <trkpt lat="32.249323418363929" lon="-3.542111478745937">
        <ele>1111.4213867000001</ele>
        <time>2010-12-30T09:41:02Z</time>
      </trkpt>
      <trkpt lat="32.248699637129903" lon="-3.543388126417995">
        <ele>1111.9020995999999</ele>
        <time>2010-12-30T09:41:13Z</time>
      </trkpt>
      <trkpt lat="32.248285822570324" lon="-3.544210223481059">
        <ele>1112.8632812999999</ele>
        <time>2010-12-30T09:41:21Z</time>
      </trkpt>
      <trkpt lat="32.248241901397705" lon="-3.544789077714086">
        <ele>1112.8632812999999</ele>
        <time>2010-12-30T09:41:27Z</time>
      </trkpt>
      <trkpt lat="32.248158333823085" lon="-3.54551930911839">
        <ele>1114.3051757999999</ele>
        <time>2010-12-30T09:41:34Z</time>
      </trkpt>
      <trkpt lat="32.248026905581355" lon="-3.54589163325727">
        <ele>1116.2280272999999</ele>
        <time>2010-12-30T09:41:41Z</time>
      </trkpt>
      <trkpt lat="32.247920036315918" lon="-3.546051979064941">
        <ele>1116.2280272999999</ele>
        <time>2010-12-30T09:41:44Z</time>
      </trkpt>
      <trkpt lat="32.247464312240481" lon="-3.546803165227175">
        <ele>1113.3439940999999</ele>
        <time>2010-12-30T09:41:53Z</time>
      </trkpt>
      <trkpt lat="32.246742462739348" lon="-3.547668261453509">
        <ele>1113.8244629000001</ele>
        <time>2010-12-30T09:42:02Z</time>
      </trkpt>
      <trkpt lat="32.245980715379119" lon="-3.548686159774661">
        <ele>1119.1120605000001</ele>
        <time>2010-12-30T09:42:12Z</time>
      </trkpt>
      <trkpt lat="32.245418624952435" lon="-3.54936869814992">
        <ele>1121.034668</ele>
        <time>2010-12-30T09:42:19Z</time>
      </trkpt>
      <trkpt lat="32.245082762092352" lon="-3.549886029213667">
        <ele>1122.4765625</ele>
        <time>2010-12-30T09:42:24Z</time>
      </trkpt>
      <trkpt lat="32.244658470153809" lon="-3.550708293914795">
        <ele>1124.3991699000001</ele>
        <time>2010-12-30T09:42:31Z</time>
      </trkpt>
      <trkpt lat="32.244428638368845" lon="-3.551128813996911">
        <ele>1124.8798827999999</ele>
        <time>2010-12-30T09:42:35Z</time>
      </trkpt>
      <trkpt lat="32.24428866058588" lon="-3.55140483006835">
        <ele>1123.918457</ele>
        <time>2010-12-30T09:42:39Z</time>
      </trkpt>
      <trkpt lat="32.244109539315104" lon="-3.551689898595214">
        <ele>1122.9572754000001</ele>
        <time>2010-12-30T09:42:43Z</time>
      </trkpt>
      <trkpt lat="32.243715170770884" lon="-3.55227361433208">
        <ele>1125.3603516000001</ele>
        <time>2010-12-30T09:42:50Z</time>
      </trkpt>
      <trkpt lat="32.243059538304806" lon="-3.553270809352398">
        <ele>1128.2443848</ele>
        <time>2010-12-30T09:43:00Z</time>
      </trkpt>
      <trkpt lat="32.242235764861107" lon="-3.554618367925286">
        <ele>1130.6477050999999</ele>
        <time>2010-12-30T09:43:13Z</time>
      </trkpt>
      <trkpt lat="32.241687923669815" lon="-3.555486900731921">
        <ele>1133.0510254000001</ele>
        <time>2010-12-30T09:43:21Z</time>
      </trkpt>
      <trkpt lat="32.241486506536603" lon="-3.555893674492836">
        <ele>1134.0124512</ele>
        <time>2010-12-30T09:43:26Z</time>
      </trkpt>
      <trkpt lat="32.241406459361315" lon="-3.556092828512192">
        <ele>1134.9738769999999</ele>
        <time>2010-12-30T09:43:32Z</time>
      </trkpt>
      <trkpt lat="32.241213172674179" lon="-3.556500524282455">
        <ele>1133.5317382999999</ele>
        <time>2010-12-30T09:43:36Z</time>
      </trkpt>
      <trkpt lat="32.240776475518942" lon="-3.557168059051037">
        <ele>1133.5317382999999</ele>
        <time>2010-12-30T09:43:44Z</time>
      </trkpt>
      <trkpt lat="32.240137020125985" lon="-3.558156285434961">
        <ele>1134.0124512</ele>
        <time>2010-12-30T09:43:54Z</time>
      </trkpt>
      <trkpt lat="32.239921437576413" lon="-3.558530285954475">
        <ele>1136.4157714999999</ele>
        <time>2010-12-30T09:43:58Z</time>
      </trkpt>
      <trkpt lat="32.239778358489275" lon="-3.558778138831258">
        <ele>1134.9738769999999</ele>
        <time>2010-12-30T09:44:01Z</time>
      </trkpt>
      <trkpt lat="32.239613821730018" lon="-3.559059519320726">
        <ele>1135.4543457</ele>
        <time>2010-12-30T09:44:05Z</time>
      </trkpt>
      <trkpt lat="32.239429838955402" lon="-3.559396639466286">
        <ele>1132.5705565999999</ele>
        <time>2010-12-30T09:44:10Z</time>
      </trkpt>
      <trkpt lat="32.239058017730713" lon="-3.560149669647217">
        <ele>1127.2832031</ele>
        <time>2010-12-30T09:44:18Z</time>
      </trkpt>
      <trkpt lat="32.238873615860939" lon="-3.560510762035847">
        <ele>1125.8410644999999</ele>
        <time>2010-12-30T09:44:22Z</time>
      </trkpt>
      <trkpt lat="32.238447815179825" lon="-3.561220709234476">
        <ele>1122.4765625</ele>
        <time>2010-12-30T09:44:30Z</time>
      </trkpt>
      <trkpt lat="32.238214714452624" lon="-3.561605270951986">
        <ele>1122.9572754000001</ele>
        <time>2010-12-30T09:44:37Z</time>
      </trkpt>
      <trkpt lat="32.238058391958475" lon="-3.56186586432159">
        <ele>1124.8798827999999</ele>
        <time>2010-12-30T09:44:41Z</time>
      </trkpt>
      <trkpt lat="32.237739628180861" lon="-3.562532979995012">
        <ele>1124.8798827999999</ele>
        <time>2010-12-30T09:44:48Z</time>
      </trkpt>
      <trkpt lat="32.237300164997578" lon="-3.563211495056748">
        <ele>1124.3991699000001</ele>
        <time>2010-12-30T09:44:55Z</time>
      </trkpt>
      <trkpt lat="32.237057592719793" lon="-3.563615838065743">
        <ele>1125.3603516000001</ele>
        <time>2010-12-30T09:44:59Z</time>
      </trkpt>
      <trkpt lat="32.236487958580256" lon="-3.564505241811276">
        <ele>1124.8798827999999</ele>
        <time>2010-12-30T09:45:08Z</time>
      </trkpt>
      <trkpt lat="32.236195094883442" lon="-3.564914865419269">
        <ele>1124.3991699000001</ele>
        <time>2010-12-30T09:45:13Z</time>
      </trkpt>
      <trkpt lat="32.235959060490131" lon="-3.5653380677104">
        <ele>1129.6862793</ele>
        <time>2010-12-30T09:45:17Z</time>
      </trkpt>
      <trkpt lat="32.235820926725864" lon="-3.565643420442939">
        <ele>1128.7250977000001</ele>
        <time>2010-12-30T09:45:20Z</time>
      </trkpt>
      <trkpt lat="32.235349612310529" lon="-3.56644238345325">
        <ele>1126.3217772999999</ele>
        <time>2010-12-30T09:45:28Z</time>
      </trkpt>
      <trkpt lat="32.234992040321231" lon="-3.567074881866574">
        <ele>1127.7636719</ele>
        <time>2010-12-30T09:45:35Z</time>
      </trkpt>
      <trkpt lat="32.23492406308651" lon="-3.567176638171077">
        <ele>1130.1669922000001</ele>
        <time>2010-12-30T09:45:39Z</time>
      </trkpt>
      <trkpt lat="32.234845273196697" lon="-3.567303540185094">
        <ele>1136.8962402</ele>
        <time>2010-12-30T09:46:08Z</time>
      </trkpt>
      <trkpt lat="32.234493484720588" lon="-3.567782565951347">
        <ele>1136.4157714999999</ele>
        <time>2010-12-30T09:46:15Z</time>
      </trkpt>
      <trkpt lat="32.234103810042143" lon="-3.568427804857492">
        <ele>1136.8962402</ele>
        <time>2010-12-30T09:46:22Z</time>
      </trkpt>
      <trkpt lat="32.233888059854507" lon="-3.568794261664152">
        <ele>1134.4931641000001</ele>
        <time>2010-12-30T09:46:27Z</time>
      </trkpt>
      <trkpt lat="32.233670633286238" lon="-3.569239340722561">
        <ele>1132.0898437999999</ele>
        <time>2010-12-30T09:46:33Z</time>
      </trkpt>
      <trkpt lat="32.233561165630817" lon="-3.569417539983988">
        <ele>1131.6088867000001</ele>
        <time>2010-12-30T09:46:35Z</time>
      </trkpt>
      <trkpt lat="32.233479022979736" lon="-3.569755917415023">
        <ele>1133.0510254000001</ele>
        <time>2010-12-30T09:46:40Z</time>
      </trkpt>
      <trkpt lat="32.233420601114631" lon="-3.570048110559583">
        <ele>1128.2443848</ele>
        <time>2010-12-30T09:46:44Z</time>
      </trkpt>
      <trkpt lat="32.23326763138175" lon="-3.570295041427016">
        <ele>1123.4379882999999</ele>
        <time>2010-12-30T09:46:49Z</time>
      </trkpt>
      <trkpt lat="32.232906287536025" lon="-3.57093533501029">
        <ele>1129.2055664</ele>
        <time>2010-12-30T09:46:56Z</time>
      </trkpt>
      <trkpt lat="32.232719287276268" lon="-3.571343785151839">
        <ele>1129.6862793</ele>
        <time>2010-12-30T09:47:00Z</time>
      </trkpt>
      <trkpt lat="32.232332462444901" lon="-3.572070831432939">
        <ele>1128.2443848</ele>
        <time>2010-12-30T09:47:07Z</time>
      </trkpt>
      <trkpt lat="32.231923677027225" lon="-3.572999462485313">
        <ele>1124.3991699000001</ele>
        <time>2010-12-30T09:47:15Z</time>
      </trkpt>
      <trkpt lat="32.231265027076006" lon="-3.574067400768399">
        <ele>1122.4765625</ele>
        <time>2010-12-30T09:47:24Z</time>
      </trkpt>
      <trkpt lat="32.230593888089061" lon="-3.575245225802064">
        <ele>1125.3603516000001</ele>
        <time>2010-12-30T09:47:34Z</time>
      </trkpt>
      <trkpt lat="32.229985194280744" lon="-3.576116021722555">
        <ele>1126.8024902</ele>
        <time>2010-12-30T09:47:42Z</time>
      </trkpt>
      <trkpt lat="32.229423271492124" lon="-3.577080275863409">
        <ele>1123.918457</ele>
        <time>2010-12-30T09:47:51Z</time>
      </trkpt>
      <trkpt lat="32.229161923751235" lon="-3.577515464276075">
        <ele>1122.9572754000001</ele>
        <time>2010-12-30T09:47:56Z</time>
      </trkpt>
      <trkpt lat="32.228969559073448" lon="-3.577840933576226">
        <ele>1133.5317382999999</ele>
        <time>2010-12-30T09:48:02Z</time>
      </trkpt>
      <trkpt lat="32.228801334276795" lon="-3.578088283538818">
        <ele>1139.2995605000001</ele>
        <time>2010-12-30T09:48:09Z</time>
      </trkpt>
      <trkpt lat="32.228723801672459" lon="-3.578324988484383">
        <ele>1135.9350586</ele>
        <time>2010-12-30T09:48:15Z</time>
      </trkpt>
      <trkpt lat="32.228586673736572" lon="-3.578581809997559">
        <ele>1131.6088867000001</ele>
        <time>2010-12-30T09:48:19Z</time>
      </trkpt>
      <trkpt lat="32.228387771174312" lon="-3.578951368108392">
        <ele>1129.6862793</ele>
        <time>2010-12-30T09:48:31Z</time>
      </trkpt>
      <trkpt lat="32.227929783985019" lon="-3.579606330022216">
        <ele>1128.2443848</ele>
        <time>2010-12-30T09:48:39Z</time>
      </trkpt>
      <trkpt lat="32.227864237502217" lon="-3.579686628654599">
        <ele>1127.2832031</ele>
        <time>2010-12-30T09:48:40Z</time>
      </trkpt>
      <trkpt lat="32.227607583627105" lon="-3.579982677474618">
        <ele>1127.7636719</ele>
        <time>2010-12-30T09:48:44Z</time>
      </trkpt>
      <trkpt lat="32.227255124598742" lon="-3.580475868657231">
        <ele>1133.5317382999999</ele>
        <time>2010-12-30T09:48:53Z</time>
      </trkpt>
      <trkpt lat="32.226864863187075" lon="-3.581047765910626">
        <ele>1139.2995605000001</ele>
        <time>2010-12-30T09:49:01Z</time>
      </trkpt>
      <trkpt lat="32.226374940946698" lon="-3.581799203529954">
        <ele>1141.7028809000001</ele>
        <time>2010-12-30T09:49:08Z</time>
      </trkpt>
      <trkpt lat="32.225459637120366" lon="-3.583109965547919">
        <ele>1145.5480957</ele>
        <time>2010-12-30T09:49:19Z</time>
      </trkpt>
      <trkpt lat="32.224885812029243" lon="-3.584068603813648">
        <ele>1150.3549805</ele>
        <time>2010-12-30T09:49:27Z</time>
      </trkpt>
      <trkpt lat="32.224271334707737" lon="-3.584974687546492">
        <ele>1152.2773437999999</ele>
        <time>2010-12-30T09:49:35Z</time>
      </trkpt>
      <trkpt lat="32.223826171830297" lon="-3.585568964481354">
        <ele>1154.6806641000001</ele>
        <time>2010-12-30T09:49:41Z</time>
      </trkpt>
      <trkpt lat="32.223262405022979" lon="-3.586259633302689">
        <ele>1154.6806641000001</ele>
        <time>2010-12-30T09:49:48Z</time>
      </trkpt>
      <trkpt lat="32.222417341545224" lon="-3.587385825812817">
        <ele>1157.0839844</ele>
        <time>2010-12-30T09:49:57Z</time>
      </trkpt>
      <trkpt lat="32.221713261678815" lon="-3.588275564834476">
        <ele>1157.0839844</ele>
        <time>2010-12-30T09:50:05Z</time>
      </trkpt>
      <trkpt lat="32.221016641706228" lon="-3.589191539213061">
        <ele>1159.0065918</ele>
        <time>2010-12-30T09:50:13Z</time>
      </trkpt>
      <trkpt lat="32.220323961228132" lon="-3.590043224394321">
        <ele>1159.9677733999999</ele>
        <time>2010-12-30T09:50:21Z</time>
      </trkpt>
      <trkpt lat="32.21974141895771" lon="-3.590836487710476">
        <ele>1162.3710937999999</ele>
        <time>2010-12-30T09:50:29Z</time>
      </trkpt>
      <trkpt lat="32.219575121998787" lon="-3.591069504618645">
        <ele>1162.8518065999999</ele>
        <time>2010-12-30T09:50:32Z</time>
      </trkpt>
      <trkpt lat="32.218905575573444" lon="-3.591959159821272">
        <ele>1164.7746582</ele>
        <time>2010-12-30T09:50:42Z</time>
      </trkpt>
      <trkpt lat="32.218406265601516" lon="-3.592626107856631">
        <ele>1165.7360839999999</ele>
        <time>2010-12-30T09:50:50Z</time>
      </trkpt>
      <trkpt lat="32.218106864020228" lon="-3.592923916876316">
        <ele>1167.1779785000001</ele>
        <time>2010-12-30T09:50:54Z</time>
      </trkpt>
      <trkpt lat="32.217462882399559" lon="-3.593605868518353">
        <ele>1167.1779785000001</ele>
        <time>2010-12-30T09:51:02Z</time>
      </trkpt>
      <trkpt lat="32.216740278527141" lon="-3.594708926975727">
        <ele>1167.1779785000001</ele>
        <time>2010-12-30T09:51:12Z</time>
      </trkpt>
      <trkpt lat="32.216465519741178" lon="-3.595609730109572">
        <ele>1168.1391602000001</ele>
        <time>2010-12-30T09:51:20Z</time>
      </trkpt>
      <trkpt lat="32.216270975768566" lon="-3.596366783604026">
        <ele>1165.7360839999999</ele>
        <time>2010-12-30T09:51:27Z</time>
      </trkpt>
      <trkpt lat="32.215456590056419" lon="-3.596990564838052">
        <ele>1162.3710937999999</ele>
        <time>2010-12-30T09:51:34Z</time>
      </trkpt>
      <trkpt lat="32.215083260089159" lon="-3.598473239690065">
        <ele>1159.4873047000001</ele>
        <time>2010-12-30T09:51:44Z</time>
      </trkpt>
      <trkpt lat="32.215023497119546" lon="-3.598712459206581">
        <ele>1159.4873047000001</ele>
        <time>2010-12-30T09:51:46Z</time>
      </trkpt>
      <trkpt lat="32.214998267591" lon="-3.598904488608241">
        <ele>1159.0065918</ele>
        <time>2010-12-30T09:51:48Z</time>
      </trkpt>
      <trkpt lat="32.214811937883496" lon="-3.599143540486693">
        <ele>1157.0839844</ele>
        <time>2010-12-30T09:51:53Z</time>
      </trkpt>
      <trkpt lat="32.214668272063136" lon="-3.599308496341109">
        <ele>1157.5646973</ele>
        <time>2010-12-30T09:51:58Z</time>
      </trkpt>
      <trkpt lat="32.214678833261132" lon="-3.599442774429917">
        <ele>1157.0839844</ele>
        <time>2010-12-30T09:52:01Z</time>
      </trkpt>
      <trkpt lat="32.214608425274491" lon="-3.59988802112639">
        <ele>1158.0454102000001</ele>
        <time>2010-12-30T09:52:06Z</time>
      </trkpt>
      <trkpt lat="32.214275160804391" lon="-3.600655216723681">
        <ele>1157.5646973</ele>
        <time>2010-12-30T09:52:14Z</time>
      </trkpt>
      <trkpt lat="32.213954385370016" lon="-3.601230885833502">
        <ele>1157.5646973</ele>
        <time>2010-12-30T09:52:21Z</time>
      </trkpt>
      <trkpt lat="32.213448872789741" lon="-3.602212825790048">
        <ele>1159.9677733999999</ele>
        <time>2010-12-30T09:52:30Z</time>
      </trkpt>
      <trkpt lat="32.21288544125855" lon="-3.603270035237074">
        <ele>1159.4873047000001</ele>
        <time>2010-12-30T09:52:40Z</time>
      </trkpt>
      <trkpt lat="32.212412199005485" lon="-3.604117361828685">
        <ele>1159.9677733999999</ele>
        <time>2010-12-30T09:52:48Z</time>
      </trkpt>
      <trkpt lat="32.21203719265759" lon="-3.604781040921807">
        <ele>1158.5258789</ele>
        <time>2010-12-30T09:52:55Z</time>
      </trkpt>
      <trkpt lat="32.211528159677982" lon="-3.605722077190876">
        <ele>1161.890625</ele>
        <time>2010-12-30T09:53:05Z</time>
      </trkpt>
      <trkpt lat="32.211067238822579" lon="-3.607178097590804">
        <ele>1161.4099120999999</ele>
        <time>2010-12-30T09:53:15Z</time>
      </trkpt>
      <trkpt lat="32.210258133709431" lon="-3.607810763642192">
        <ele>1160.9291992000001</ele>
        <time>2010-12-30T09:53:24Z</time>
      </trkpt>
      <trkpt lat="32.209993097931147" lon="-3.608039002865553">
        <ele>1161.4099120999999</ele>
        <time>2010-12-30T09:53:28Z</time>
      </trkpt>
      <trkpt lat="32.209897041320801" lon="-3.608107566833496">
        <ele>1161.890625</ele>
        <time>2010-12-30T09:53:31Z</time>
      </trkpt>
      <trkpt lat="32.209446430206299" lon="-3.608536720275879">
        <ele>1158.5258789</ele>
        <time>2010-12-30T09:53:40Z</time>
      </trkpt>
      <trkpt lat="32.209348110482097" lon="-3.608635040000081">
        <ele>1158.5258789</ele>
        <time>2010-12-30T09:53:42Z</time>
      </trkpt>
      <trkpt lat="32.209134036675096" lon="-3.608875265344977">
        <ele>1158.5258789</ele>
        <time>2010-12-30T09:53:49Z</time>
      </trkpt>
      <trkpt lat="32.208978636190295" lon="-3.609093111008406">
        <ele>1159.4873047000001</ele>
        <time>2010-12-30T09:53:54Z</time>
      </trkpt>
      <trkpt lat="32.208807310089469" lon="-3.60930391587317">
        <ele>1160.4484863</ele>
        <time>2010-12-30T09:53:57Z</time>
      </trkpt>
      <trkpt lat="32.208171961829066" lon="-3.609996763989329">
        <ele>1161.4099120999999</ele>
        <time>2010-12-30T09:54:07Z</time>
      </trkpt>
      <trkpt lat="32.208010861650109" lon="-3.610144034028053">
        <ele>1162.3710937999999</ele>
        <time>2010-12-30T09:54:11Z</time>
      </trkpt>
      <trkpt lat="32.207939028739929" lon="-3.6102279368788">
        <ele>1162.3710937999999</ele>
        <time>2010-12-30T09:54:13Z</time>
      </trkpt>
      <trkpt lat="32.207775413990021" lon="-3.610443770885468">
        <ele>1162.8518065999999</ele>
        <time>2010-12-30T09:54:17Z</time>
      </trkpt>
      <trkpt lat="32.207245510071516" lon="-3.611031258478761">
        <ele>1161.890625</ele>
        <time>2010-12-30T09:54:26Z</time>
      </trkpt>
      <trkpt lat="32.206480158492923" lon="-3.611651435494423">
        <ele>1163.3325195</ele>
        <time>2010-12-30T09:54:35Z</time>
      </trkpt>
      <trkpt lat="32.205913877114654" lon="-3.612180501222611">
        <ele>1164.7746582</ele>
        <time>2010-12-30T09:54:43Z</time>
      </trkpt>
      <trkpt lat="32.20491886138916" lon="-3.612978458404541">
        <ele>1164.7746582</ele>
        <time>2010-12-30T09:54:53Z</time>
      </trkpt>
      <trkpt lat="32.204595236107707" lon="-3.613215666264296">
        <ele>1160.9291992000001</ele>
        <time>2010-12-30T09:54:59Z</time>
      </trkpt>
      <trkpt lat="32.204394405707717" lon="-3.61335271038115">
        <ele>1161.890625</ele>
        <time>2010-12-30T09:55:04Z</time>
      </trkpt>
      <trkpt lat="32.203973801806569" lon="-3.613739367574453">
        <ele>1162.3710937999999</ele>
        <time>2010-12-30T09:56:08Z</time>
      </trkpt>
      <trkpt lat="32.203459739685059" lon="-3.614158630371094">
        <ele>1161.890625</ele>
        <time>2010-12-30T09:56:16Z</time>
      </trkpt>
      <trkpt lat="32.202709978446364" lon="-3.614822560921311">
        <ele>1163.8129882999999</ele>
        <time>2010-12-30T09:56:26Z</time>
      </trkpt>
      <trkpt lat="32.202030541375279" lon="-3.615259509533644">
        <ele>1164.7746582</ele>
        <time>2010-12-30T09:56:34Z</time>
      </trkpt>
      <trkpt lat="32.201592670753598" lon="-3.615682376548648">
        <ele>1162.8518065999999</ele>
        <time>2010-12-30T09:56:40Z</time>
      </trkpt>
      <trkpt lat="32.200746769085526" lon="-3.616413529962301">
        <ele>1165.7360839999999</ele>
        <time>2010-12-30T09:56:49Z</time>
      </trkpt>
      <trkpt lat="32.199623258784413" lon="-3.617425560951233">
        <ele>1169.5812988</ele>
        <time>2010-12-30T09:57:00Z</time>
      </trkpt>
      <trkpt lat="32.198898140341043" lon="-3.618256794288755">
        <ele>1170.0617675999999</ele>
        <time>2010-12-30T09:57:07Z</time>
      </trkpt>
      <trkpt lat="32.198562612757087" lon="-3.618710422888398">
        <ele>1170.0617675999999</ele>
        <time>2010-12-30T09:57:12Z</time>
      </trkpt>
      <trkpt lat="32.197992475703359" lon="-3.619321212172508">
        <ele>1170.5424805</ele>
        <time>2010-12-30T09:57:20Z</time>
      </trkpt>
      <trkpt lat="32.197371460497379" lon="-3.62005177885294">
        <ele>1168.6198730000001</ele>
        <time>2010-12-30T09:57:28Z</time>
      </trkpt>
      <trkpt lat="32.196766790002584" lon="-3.62080279737711">
        <ele>1168.1391602000001</ele>
        <time>2010-12-30T09:57:36Z</time>
      </trkpt>
      <trkpt lat="32.196574173867702" lon="-3.621100606396794">
        <ele>1167.6584473</ele>
        <time>2010-12-30T09:57:41Z</time>
      </trkpt>
      <trkpt lat="32.196407876908779" lon="-3.621368911117315">
        <ele>1169.5812988</ele>
        <time>2010-12-30T09:57:49Z</time>
      </trkpt>
      <trkpt lat="32.196189695969224" lon="-3.621765961870551">
        <ele>1170.5424805</ele>
        <time>2010-12-30T09:57:55Z</time>
      </trkpt>
      <trkpt lat="32.195837739855051" lon="-3.622318916022778">
        <ele>1169.5812988</ele>
        <time>2010-12-30T09:58:01Z</time>
      </trkpt>
      <trkpt lat="32.195232063531876" lon="-3.622177680954337">
        <ele>1168.1391602000001</ele>
        <time>2010-12-30T09:58:10Z</time>
      </trkpt>
      <trkpt lat="32.195040620863438" lon="-3.622535085305572">
        <ele>1166.6972656</ele>
        <time>2010-12-30T09:58:17Z</time>
      </trkpt>
      <trkpt lat="32.194668799638748" lon="-3.623293898999691">
        <ele>1168.1391602000001</ele>
        <time>2010-12-30T09:58:27Z</time>
      </trkpt>
      <trkpt lat="32.194281136617064" lon="-3.623927487060428">
        <ele>1167.1779785000001</ele>
        <time>2010-12-30T09:58:35Z</time>
      </trkpt>
      <trkpt lat="32.193968659266829" lon="-3.625283930450678">
        <ele>1168.1391602000001</ele>
        <time>2010-12-30T09:58:45Z</time>
      </trkpt>
      <trkpt lat="32.193072885274887" lon="-3.62558308057487">
        <ele>1169.1005858999999</ele>
        <time>2010-12-30T09:58:53Z</time>
      </trkpt>
      <trkpt lat="32.192803658545017" lon="-3.626767359673977">
        <ele>1169.1005858999999</ele>
        <time>2010-12-30T09:59:02Z</time>
      </trkpt>
      <trkpt lat="32.192391939461231" lon="-3.627203973010182">
        <ele>1170.0617675999999</ele>
        <time>2010-12-30T09:59:08Z</time>
      </trkpt>
      <trkpt lat="32.191874608397484" lon="-3.627906041219831">
        <ele>1168.6198730000001</ele>
        <time>2010-12-30T09:59:16Z</time>
      </trkpt>
      <trkpt lat="32.191285695880651" lon="-3.628505682572722">
        <ele>1164.2939452999999</ele>
        <time>2010-12-30T09:59:26Z</time>
      </trkpt>
      <trkpt lat="32.190482039004564" lon="-3.629260640591383">
        <ele>1168.6198730000001</ele>
        <time>2010-12-30T09:59:37Z</time>
      </trkpt>
      <trkpt lat="32.189833698794246" lon="-3.629913339391351">
        <ele>1168.6198730000001</ele>
        <time>2010-12-30T09:59:46Z</time>
      </trkpt>
      <trkpt lat="32.188922837376595" lon="-3.630801737308502">
        <ele>1168.6198730000001</ele>
        <time>2010-12-30T09:59:56Z</time>
      </trkpt>
      <trkpt lat="32.188266618177295" lon="-3.631481761112809">
        <ele>1168.1391602000001</ele>
        <time>2010-12-30T10:00:05Z</time>
      </trkpt>
      <trkpt lat="32.188094118610024" lon="-3.631696086376905">
        <ele>1169.1005858999999</ele>
        <time>2010-12-30T10:00:10Z</time>
      </trkpt>
      <trkpt lat="32.187942070886493" lon="-3.631851403042674">
        <ele>1169.1005858999999</ele>
        <time>2010-12-30T10:00:13Z</time>
      </trkpt>
      <trkpt lat="32.187384087592363" lon="-3.632339984178543">
        <ele>1167.1779785000001</ele>
        <time>2010-12-30T10:00:20Z</time>
      </trkpt>
      <trkpt lat="32.186523266136646" lon="-3.633166858926415">
        <ele>1168.6198730000001</ele>
        <time>2010-12-30T10:00:30Z</time>
      </trkpt>
      <trkpt lat="32.185892863199115" lon="-3.63366256467998">
        <ele>1170.5424805</ele>
        <time>2010-12-30T10:00:37Z</time>
      </trkpt>
      <trkpt lat="32.185207894071937" lon="-3.634244604036212">
        <ele>1170.5424805</ele>
        <time>2010-12-30T10:00:45Z</time>
      </trkpt>
      <trkpt lat="32.18467203900218" lon="-3.634803928434849">
        <ele>1171.0231934000001</ele>
        <time>2010-12-30T10:00:53Z</time>
      </trkpt>
      <trkpt lat="32.184451594948769" lon="-3.635177090764046">
        <ele>1171.5036620999999</ele>
        <time>2010-12-30T10:00:58Z</time>
      </trkpt>
      <trkpt lat="32.183949267491698" lon="-3.635869938880205">
        <ele>1172.4650879000001</ele>
        <time>2010-12-30T10:01:05Z</time>
      </trkpt>
      <trkpt lat="32.183735277503729" lon="-3.636201359331608">
        <ele>1171.5036620999999</ele>
        <time>2010-12-30T10:01:10Z</time>
      </trkpt>
      <trkpt lat="32.183589683845639" lon="-3.636450804769993">
        <ele>1171.5036620999999</ele>
        <time>2010-12-30T10:01:13Z</time>
      </trkpt>
      <trkpt lat="32.182842772454023" lon="-3.636403782293201">
        <ele>1171.0231934000001</ele>
        <time>2010-12-30T10:01:19Z</time>
      </trkpt>
      <trkpt lat="32.182067194953561" lon="-3.637684620916843">
        <ele>1171.5036620999999</ele>
        <time>2010-12-30T10:01:30Z</time>
      </trkpt>
      <trkpt lat="32.18171096406877" lon="-3.638975434005261">
        <ele>1170.5424805</ele>
        <time>2010-12-30T10:01:38Z</time>
      </trkpt>
      <trkpt lat="32.180987941101193" lon="-3.639701809734106">
        <ele>1171.0231934000001</ele>
        <time>2010-12-30T10:01:47Z</time>
      </trkpt>
      <trkpt lat="32.180564235895872" lon="-3.640487864613533">
        <ele>1171.5036620999999</ele>
        <time>2010-12-30T10:01:56Z</time>
      </trkpt>
      <trkpt lat="32.179614566266537" lon="-3.640937637537718">
        <ele>1171.984375</ele>
        <time>2010-12-30T10:02:04Z</time>
      </trkpt>
      <trkpt lat="32.179663181304932" lon="-3.641946315765381">
        <ele>1173.9069824000001</ele>
        <time>2010-12-30T10:02:10Z</time>
      </trkpt>
      <trkpt lat="32.178992126137018" lon="-3.642604295164347">
        <ele>1172.9458007999999</ele>
        <time>2010-12-30T10:02:18Z</time>
      </trkpt>
      <trkpt lat="32.178048323839903" lon="-3.643445502966642">
        <ele>1172.9458007999999</ele>
        <time>2010-12-30T10:02:27Z</time>
      </trkpt>
      <trkpt lat="32.177034365013242" lon="-3.644598266109824">
        <ele>1173.9069824000001</ele>
        <time>2010-12-30T10:02:37Z</time>
      </trkpt>
      <trkpt lat="32.175659062340856" lon="-3.645907519385219">
        <ele>1173.9069824000001</ele>
        <time>2010-12-30T10:02:49Z</time>
      </trkpt>
      <trkpt lat="32.174570001661777" lon="-3.646934134885669">
        <ele>1175.3488769999999</ele>
        <time>2010-12-30T10:02:59Z</time>
      </trkpt>
      <trkpt lat="32.174497498199344" lon="-3.647024659439921">
        <ele>1175.3488769999999</ele>
        <time>2010-12-30T10:03:00Z</time>
      </trkpt>
      <trkpt lat="32.17383474111557" lon="-3.647786406800151">
        <ele>1175.3488769999999</ele>
        <time>2010-12-30T10:03:08Z</time>
      </trkpt>
      <trkpt lat="32.173139462247491" lon="-3.648526528850198">
        <ele>1175.8295897999999</ele>
        <time>2010-12-30T10:03:16Z</time>
      </trkpt>
      <trkpt lat="32.17206004075706" lon="-3.649678286164999">
        <ele>1174.8684082</ele>
        <time>2010-12-30T10:03:27Z</time>
      </trkpt>
      <trkpt lat="32.171291336417198" lon="-3.650470040738583">
        <ele>1175.3488769999999</ele>
        <time>2010-12-30T10:03:35Z</time>
      </trkpt>
      <trkpt lat="32.17063176445663" lon="-3.651042021811009">
        <ele>1173.9069824000001</ele>
        <time>2010-12-30T10:03:43Z</time>
      </trkpt>
      <trkpt lat="32.17007813975215" lon="-3.651673262938857">
        <ele>1174.3876952999999</ele>
        <time>2010-12-30T10:03:51Z</time>
      </trkpt>
      <trkpt lat="32.169399289414287" lon="-3.652334762737155">
        <ele>1175.3488769999999</ele>
        <time>2010-12-30T10:03:58Z</time>
      </trkpt>
      <trkpt lat="32.168986313045025" lon="-3.652693340554833">
        <ele>1176.7910156</ele>
        <time>2010-12-30T10:04:03Z</time>
      </trkpt>
      <trkpt lat="32.168284496292472" lon="-3.653254425153136">
        <ele>1176.3103027</ele>
        <time>2010-12-30T10:04:11Z</time>
      </trkpt>
      <trkpt lat="32.167283864691854" lon="-3.653883822262287">
        <ele>1176.3103027</ele>
        <time>2010-12-30T10:04:20Z</time>
      </trkpt>
      <trkpt lat="32.166201341897249" lon="-3.654707008972764">
        <ele>1176.3103027</ele>
        <time>2010-12-30T10:04:30Z</time>
      </trkpt>
      <trkpt lat="32.165020667016506" lon="-3.655516365543008">
        <ele>1175.8295897999999</ele>
        <time>2010-12-30T10:04:41Z</time>
      </trkpt>
      <trkpt lat="32.164693437516689" lon="-3.655717615038157">
        <ele>1175.3488769999999</ele>
        <time>2010-12-30T10:04:47Z</time>
      </trkpt>
      <trkpt lat="32.164306864142418" lon="-3.65600947290659">
        <ele>1175.3488769999999</ele>
        <time>2010-12-30T10:04:53Z</time>
      </trkpt>
      <trkpt lat="32.163439923897386" lon="-3.65660316310823">
        <ele>1174.8684082</ele>
        <time>2010-12-30T10:05:02Z</time>
      </trkpt>
      <trkpt lat="32.162325382232666" lon="-3.657545959576964">
        <ele>1179.1940918</ele>
        <time>2010-12-30T10:05:14Z</time>
      </trkpt>
      <trkpt lat="32.161773769184947" lon="-3.657992463558912">
        <ele>1178.7136230000001</ele>
        <time>2010-12-30T10:05:21Z</time>
      </trkpt>
      <trkpt lat="32.161443019285798" lon="-3.65827820263803">
        <ele>1175.3488769999999</ele>
        <time>2010-12-30T10:05:27Z</time>
      </trkpt>
      <trkpt lat="32.160706082358956" lon="-3.659036597236991">
        <ele>1174.8684082</ele>
        <time>2010-12-30T10:05:37Z</time>
      </trkpt>
      <trkpt lat="32.160261925309896" lon="-3.659419398754835">
        <ele>1175.3488769999999</ele>
        <time>2010-12-30T10:05:45Z</time>
      </trkpt>
      <trkpt lat="32.160006193444133" lon="-3.659659624099731">
        <ele>1174.3876952999999</ele>
        <time>2010-12-30T10:05:52Z</time>
      </trkpt>
      <trkpt lat="32.158378595486283" lon="-3.661170965060592">
        <ele>1176.7910156</ele>
        <time>2010-12-30T10:06:13Z</time>
      </trkpt>
      <trkpt lat="32.157569993287325" lon="-3.662016615271568">
        <ele>1176.3103027</ele>
        <time>2010-12-30T10:06:28Z</time>
      </trkpt>
      <trkpt lat="32.157271597534418" lon="-3.662132117897272">
        <ele>1175.3488769999999</ele>
        <time>2010-12-30T10:06:31Z</time>
      </trkpt>
      <trkpt lat="32.156392838805914" lon="-3.662044191733003">
        <ele>1176.7910156</ele>
        <time>2010-12-30T10:06:42Z</time>
      </trkpt>
      <trkpt lat="32.156230062246323" lon="-3.66213203407824">
        <ele>1177.2717285000001</ele>
        <time>2010-12-30T10:06:44Z</time>
      </trkpt>
      <trkpt lat="32.156114308163524" lon="-3.662227336317301">
        <ele>1177.2717285000001</ele>
        <time>2010-12-30T10:06:47Z</time>
      </trkpt>
      <trkpt lat="32.15569487772882" lon="-3.662402601912618">
        <ele>1176.3103027</ele>
        <time>2010-12-30T10:06:53Z</time>
      </trkpt>
      <trkpt lat="32.155479630455375" lon="-3.662683563306928">
        <ele>1177.7521973</ele>
        <time>2010-12-30T10:06:59Z</time>
      </trkpt>
      <trkpt lat="32.154705980792642" lon="-3.662751959636807">
        <ele>1176.7910156</ele>
        <time>2010-12-30T10:07:06Z</time>
      </trkpt>
      <trkpt lat="32.154497774317861" lon="-3.663705065846443">
        <ele>1176.3103027</ele>
        <time>2010-12-30T10:07:17Z</time>
      </trkpt>
      <trkpt lat="32.154249837622046" lon="-3.664628332480788">
        <ele>1181.5976562999999</ele>
        <time>2010-12-30T10:07:25Z</time>
      </trkpt>
      <trkpt lat="32.153828227892518" lon="-3.665583534166217">
        <ele>1182.559082</ele>
        <time>2010-12-30T10:07:34Z</time>
      </trkpt>
      <trkpt lat="32.153510972857475" lon="-3.666286775842309">
        <ele>1183.0395507999999</ele>
        <time>2010-12-30T10:07:42Z</time>
      </trkpt>
      <trkpt lat="32.153192460536957" lon="-3.666907958686352">
        <ele>1182.0783690999999</ele>
        <time>2010-12-30T10:07:50Z</time>
      </trkpt>
      <trkpt lat="32.152838241308928" lon="-3.667503241449595">
        <ele>1179.6748047000001</ele>
        <time>2010-12-30T10:07:57Z</time>
      </trkpt>
      <trkpt lat="32.152347480878234" lon="-3.668360626325011">
        <ele>1178.7136230000001</ele>
        <time>2010-12-30T10:08:07Z</time>
      </trkpt>
      <trkpt lat="32.151832496747375" lon="-3.669539541006088">
        <ele>1177.2717285000001</ele>
        <time>2010-12-30T10:08:18Z</time>
      </trkpt>
      <trkpt lat="32.151458328589797" lon="-3.670535227283835">
        <ele>1175.8295897999999</ele>
        <time>2010-12-30T10:08:28Z</time>
      </trkpt>
      <trkpt lat="32.151282895356417" lon="-3.670973936095834">
        <ele>1175.3488769999999</ele>
        <time>2010-12-30T10:08:35Z</time>
      </trkpt>
      <trkpt lat="32.150966059416533" lon="-3.671912038698793">
        <ele>1174.8684082</ele>
        <time>2010-12-30T10:08:43Z</time>
      </trkpt>
      <trkpt lat="32.150408579036593" lon="-3.673448441550136">
        <ele>1175.3488769999999</ele>
        <time>2010-12-30T10:08:55Z</time>
      </trkpt>
      <trkpt lat="32.150005493313074" lon="-3.674640180543065">
        <ele>1176.7910156</ele>
        <time>2010-12-30T10:09:05Z</time>
      </trkpt>
      <trkpt lat="32.149576339870691" lon="-3.67624556645751">
        <ele>1179.6748047000001</ele>
        <time>2010-12-30T10:09:19Z</time>
      </trkpt>
      <trkpt lat="32.149233939126134" lon="-3.677346277981997">
        <ele>1192.652832</ele>
        <time>2010-12-30T10:09:28Z</time>
      </trkpt>
      <trkpt lat="32.14880864135921" lon="-3.678428297862411">
        <ele>1188.3269043</ele>
        <time>2010-12-30T10:09:39Z</time>
      </trkpt>
      <trkpt lat="32.148483088240027" lon="-3.679288616403937">
        <ele>1184.4816894999999</ele>
        <time>2010-12-30T10:09:49Z</time>
      </trkpt>
      <trkpt lat="32.148252334445715" lon="-3.679918935522437">
        <ele>1181.1171875</ele>
        <time>2010-12-30T10:09:55Z</time>
      </trkpt>
      <trkpt lat="32.148059634491801" lon="-3.680708929896355">
        <ele>1179.1940918</ele>
        <time>2010-12-30T10:10:02Z</time>
      </trkpt>
      <trkpt lat="32.147791581228375" lon="-3.681458439677954">
        <ele>1189.2880858999999</ele>
        <time>2010-12-30T10:10:11Z</time>
      </trkpt>
      <trkpt lat="32.147733829915524" lon="-3.681644685566425">
        <ele>1188.3269043</ele>
        <time>2010-12-30T10:10:16Z</time>
      </trkpt>
      <trkpt lat="32.148184776306152" lon="-3.681986331939697">
        <ele>1182.559082</ele>
        <time>2010-12-30T10:10:44Z</time>
      </trkpt>
      <trkpt lat="32.148013869300485" lon="-3.682542722672224">
        <ele>1178.7136230000001</ele>
        <time>2010-12-30T10:10:50Z</time>
      </trkpt>
      <trkpt lat="32.147644562646747" lon="-3.683179663494229">
        <ele>1177.7521973</ele>
        <time>2010-12-30T10:10:57Z</time>
      </trkpt>
      <trkpt lat="32.147562503814697" lon="-3.683595741167665">
        <ele>1180.1557617000001</ele>
        <time>2010-12-30T10:11:04Z</time>
      </trkpt>
      <trkpt lat="32.147234519943595" lon="-3.684437116608024">
        <ele>1182.0783690999999</ele>
        <time>2010-12-30T10:11:13Z</time>
      </trkpt>
      <trkpt lat="32.147113317623734" lon="-3.684719167649746">
        <ele>1183.5202637</ele>
        <time>2010-12-30T10:11:19Z</time>
      </trkpt>
      <trkpt lat="32.147033270448446" lon="-3.684900887310505">
        <ele>1184.4816894999999</ele>
        <time>2010-12-30T10:11:34Z</time>
      </trkpt>
      <trkpt lat="32.146841576322913" lon="-3.685462391003966">
        <ele>1186.4042969</ele>
        <time>2010-12-30T10:11:41Z</time>
      </trkpt>
      <trkpt lat="32.146491296589375" lon="-3.686434607952833">
        <ele>1188.3269043</ele>
        <time>2010-12-30T10:11:49Z</time>
      </trkpt>
      <trkpt lat="32.146249059587717" lon="-3.687184704467654">
        <ele>1189.7687988</ele>
        <time>2010-12-30T10:11:56Z</time>
      </trkpt>
      <trkpt lat="32.145713875070214" lon="-3.688450790941715">
        <ele>1191.2106934000001</ele>
        <time>2010-12-30T10:12:07Z</time>
      </trkpt>
      <trkpt lat="32.14563743211329" lon="-3.688584566116333">
        <ele>1191.2106934000001</ele>
        <time>2010-12-30T10:12:09Z</time>
      </trkpt>
      <trkpt lat="32.145588397979736" lon="-3.688835939392448">
        <ele>1191.6914062999999</ele>
        <time>2010-12-30T10:12:12Z</time>
      </trkpt>
      <trkpt lat="32.145505417138338" lon="-3.689265260472894">
        <ele>1193.6140137</ele>
        <time>2010-12-30T10:12:17Z</time>
      </trkpt>
      <trkpt lat="32.145081795752048" lon="-3.68991888128221">
        <ele>1195.5366211</ele>
        <time>2010-12-30T10:12:26Z</time>
      </trkpt>
      <trkpt lat="32.144793709740043" lon="-3.690748186782002">
        <ele>1200.8239745999999</ele>
        <time>2010-12-30T10:12:37Z</time>
      </trkpt>
      <trkpt lat="32.144667310640216" lon="-3.691115733236074">
        <ele>1204.6691894999999</ele>
        <time>2010-12-30T10:12:45Z</time>
      </trkpt>
      <trkpt lat="32.144603440538049" lon="-3.691230984404683">
        <ele>1206.5917969</ele>
        <time>2010-12-30T10:12:48Z</time>
      </trkpt>
      <trkpt lat="32.14425852522254" lon="-3.691278928890824">
        <ele>1217.1665039</ele>
        <time>2010-12-30T10:12:54Z</time>
      </trkpt>
      <trkpt lat="32.14410362765193" lon="-3.690958488732576">
        <ele>1218.6083983999999</ele>
        <time>2010-12-30T10:13:02Z</time>
      </trkpt>
      <trkpt lat="32.143982676789165" lon="-3.690829575061798">
        <ele>1214.2824707</ele>
        <time>2010-12-30T10:13:08Z</time>
      </trkpt>
      <trkpt lat="32.143911933526397" lon="-3.690902665257454">
        <ele>1215.2438964999999</ele>
        <time>2010-12-30T10:13:12Z</time>
      </trkpt>
      <trkpt lat="32.143636336550117" lon="-3.691327879205346">
        <ele>1219.0891113</ele>
        <time>2010-12-30T10:13:20Z</time>
      </trkpt>
      <trkpt lat="32.143399715423584" lon="-3.691255962476134">
        <ele>1252.2543945</ele>
        <time>2010-12-30T10:14:51Z</time>
      </trkpt>
      <trkpt lat="32.143270969390869" lon="-3.691341876983643">
        <ele>1250.3320312999999</ele>
        <time>2010-12-30T10:15:02Z</time>
      </trkpt>
      <trkpt lat="32.143270969390869" lon="-3.691453523933888">
        <ele>1244.5639647999999</ele>
        <time>2010-12-30T10:15:08Z</time>
      </trkpt>
      <trkpt lat="32.143270969390869" lon="-3.691976889967918">
        <ele>1233.9895019999999</ele>
        <time>2010-12-30T10:15:21Z</time>
      </trkpt>
      <trkpt lat="32.143267197534442" lon="-3.692283499985933">
        <ele>1232.0668945</ele>
        <time>2010-12-30T10:15:30Z</time>
      </trkpt>
      <trkpt lat="32.143173487856984" lon="-3.692577872425318">
        <ele>1231.5861815999999</ele>
        <time>2010-12-30T10:15:42Z</time>
      </trkpt>
      <trkpt lat="32.142845839262009" lon="-3.692652136087418">
        <ele>1212.8405762</ele>
        <time>2010-12-30T10:15:53Z</time>
      </trkpt>
      <trkpt lat="32.142708962783217" lon="-3.69244166649878">
        <ele>1208.0339355000001</ele>
        <time>2010-12-30T10:16:04Z</time>
      </trkpt>
      <trkpt lat="32.142619360238314" lon="-3.692344520241022">
        <ele>1222.9343262</ele>
        <time>2010-12-30T10:16:17Z</time>
      </trkpt>
      <trkpt lat="32.142380811274052" lon="-3.692063139751554">
        <ele>1233.0280762</ele>
        <time>2010-12-30T10:16:44Z</time>
      </trkpt>
      <trkpt lat="32.142212670296431" lon="-3.691845797002316">
        <ele>1225.3374022999999</ele>
        <time>2010-12-30T10:16:56Z</time>
      </trkpt>
      <trkpt lat="32.142087025567889" lon="-3.691819896921516">
        <ele>1219.5698242000001</ele>
        <time>2010-12-30T10:17:06Z</time>
      </trkpt>
      <trkpt lat="32.141874795779586" lon="-3.692115191370249">
        <ele>1201.3046875</ele>
        <time>2010-12-30T10:17:36Z</time>
      </trkpt>
      <trkpt lat="32.141651837155223" lon="-3.692220132797957">
        <ele>1202.2658690999999</ele>
        <time>2010-12-30T10:17:50Z</time>
      </trkpt>
      <trkpt lat="32.141405660659075" lon="-3.692174535244703">
        <ele>1200.8239745999999</ele>
        <time>2010-12-30T10:18:04Z</time>
      </trkpt>
      <trkpt lat="32.141171637922525" lon="-3.692127764225006">
        <ele>1214.7631836</ele>
        <time>2010-12-30T10:18:17Z</time>
      </trkpt>
      <trkpt lat="32.141050770878792" lon="-3.69205174036324">
        <ele>1216.2050781</ele>
        <time>2010-12-30T10:18:29Z</time>
      </trkpt>
      <trkpt lat="32.140922863036394" lon="-3.691957276314497">
        <ele>1218.6083983999999</ele>
        <time>2010-12-30T10:18:41Z</time>
      </trkpt>
      <trkpt lat="32.140685068443418" lon="-3.691765079274774">
        <ele>1216.6857910000001</ele>
        <time>2010-12-30T10:18:50Z</time>
      </trkpt>
      <trkpt lat="32.140562441200018" lon="-3.69154991582036">
        <ele>1214.2824707</ele>
        <time>2010-12-30T10:18:59Z</time>
      </trkpt>
      <trkpt lat="32.140412824228406" lon="-3.691580006852746">
        <ele>1208.9951172000001</ele>
        <time>2010-12-30T10:19:09Z</time>
      </trkpt>
      <trkpt lat="32.14025859721005" lon="-3.691695677116513">
        <ele>1207.5532227000001</ele>
        <time>2010-12-30T10:19:18Z</time>
      </trkpt>
      <trkpt lat="32.140126582235098" lon="-3.691777903586626">
        <ele>1206.5917969</ele>
        <time>2010-12-30T10:19:29Z</time>
      </trkpt>
      <trkpt lat="32.139780158177018" lon="-3.691971441730857">
        <ele>1196.9787598</ele>
        <time>2010-12-30T10:24:47Z</time>
      </trkpt>
      <trkpt lat="32.139071887359023" lon="-3.692287607118487">
        <ele>1191.2106934000001</ele>
        <time>2010-12-30T10:24:57Z</time>
      </trkpt>
      <trkpt lat="32.138313325121999" lon="-3.692659679800272">
        <ele>1186.4042969</ele>
        <time>2010-12-30T10:25:07Z</time>
      </trkpt>
      <trkpt lat="32.137666074559093" lon="-3.693175837397575">
        <ele>1183.5202637</ele>
        <time>2010-12-30T10:25:18Z</time>
      </trkpt>
      <trkpt lat="32.137492317706347" lon="-3.69329477660358">
        <ele>1181.5976562999999</ele>
        <time>2010-12-30T10:25:30Z</time>
      </trkpt>
      <trkpt lat="32.137209177017212" lon="-3.693541288375855">
        <ele>1181.1171875</ele>
        <time>2010-12-30T10:25:36Z</time>
      </trkpt>
      <trkpt lat="32.13708596304059" lon="-3.693622341379523">
        <ele>1180.1557617000001</ele>
        <time>2010-12-30T10:25:39Z</time>
      </trkpt>
      <trkpt lat="32.136827129870653" lon="-3.69378050789237">
        <ele>1177.7521973</ele>
        <time>2010-12-30T10:25:45Z</time>
      </trkpt>
      <trkpt lat="32.136674076318741" lon="-3.69390900246799">
        <ele>1177.2717285000001</ele>
        <time>2010-12-30T10:25:49Z</time>
      </trkpt>
      <trkpt lat="32.136346930637956" lon="-3.694311669096351">
        <ele>1175.8295897999999</ele>
        <time>2010-12-30T10:25:56Z</time>
      </trkpt>
      <trkpt lat="32.135930685326457" lon="-3.694830760359764">
        <ele>1174.3876952999999</ele>
        <time>2010-12-30T10:26:03Z</time>
      </trkpt>
      <trkpt lat="32.135606473311782" lon="-3.695317665114999">
        <ele>1173.4265137</ele>
        <time>2010-12-30T10:26:09Z</time>
      </trkpt>
      <trkpt lat="32.135271364822984" lon="-3.696003137156367">
        <ele>1171.5036620999999</ele>
        <time>2010-12-30T10:26:17Z</time>
      </trkpt>
      <trkpt lat="32.135097272694111" lon="-3.696972336620092">
        <ele>1166.6972656</ele>
        <time>2010-12-30T10:26:26Z</time>
      </trkpt>
      <trkpt lat="32.135018231347203" lon="-3.697546664625406">
        <ele>1165.7360839999999</ele>
        <time>2010-12-30T10:26:32Z</time>
      </trkpt>
      <trkpt lat="32.134768199175596" lon="-3.698421735316515">
        <ele>1163.8129882999999</ele>
        <time>2010-12-30T10:26:40Z</time>
      </trkpt>
      <trkpt lat="32.134237289428711" lon="-3.699688911437988">
        <ele>1162.3710937999999</ele>
        <time>2010-12-30T10:26:52Z</time>
      </trkpt>
      <trkpt lat="32.133779134601355" lon="-3.700019158422947">
        <ele>1162.8518065999999</ele>
        <time>2010-12-30T10:26:58Z</time>
      </trkpt>
      <trkpt lat="32.133389040827751" lon="-3.700161231681705">
        <ele>1163.8129882999999</ele>
        <time>2010-12-30T10:27:03Z</time>
      </trkpt>
      <trkpt lat="32.133066840469837" lon="-3.700423501431942">
        <ele>1164.7746582</ele>
        <time>2010-12-30T10:27:11Z</time>
      </trkpt>
      <trkpt lat="32.132684793323278" lon="-3.70073514059186">
        <ele>1167.6584473</ele>
        <time>2010-12-30T10:27:17Z</time>
      </trkpt>
      <trkpt lat="32.132321940734982" lon="-3.701033536344767">
        <ele>1169.5812988</ele>
        <time>2010-12-30T10:27:24Z</time>
      </trkpt>
      <trkpt lat="32.132026059553027" lon="-3.701342660933733">
        <ele>1168.6198730000001</ele>
        <time>2010-12-30T10:27:31Z</time>
      </trkpt>
      <trkpt lat="32.131902175024152" lon="-3.70154039002955">
        <ele>1168.6198730000001</ele>
        <time>2010-12-30T10:27:35Z</time>
      </trkpt>
      <trkpt lat="32.131823385134339" lon="-3.70170216076076">
        <ele>1166.2165527</ele>
        <time>2010-12-30T10:27:39Z</time>
      </trkpt>
      <trkpt lat="32.131696902215481" lon="-3.702068869024515">
        <ele>1163.8129882999999</ele>
        <time>2010-12-30T10:27:44Z</time>
      </trkpt>
      <trkpt lat="32.131444606930017" lon="-3.702739588916302">
        <ele>1160.4484863</ele>
        <time>2010-12-30T10:27:53Z</time>
      </trkpt>
      <trkpt lat="32.131238579750061" lon="-3.703359598293901">
        <ele>1159.4873047000001</ele>
        <time>2010-12-30T10:28:00Z</time>
      </trkpt>
      <trkpt lat="32.130991313606501" lon="-3.704191166907549">
        <ele>1158.5258789</ele>
        <time>2010-12-30T10:28:09Z</time>
      </trkpt>
      <trkpt lat="32.130778161808848" lon="-3.704456873238087">
        <ele>1158.5258789</ele>
        <time>2010-12-30T10:28:13Z</time>
      </trkpt>
      <trkpt lat="32.130022114142776" lon="-3.704890301451087">
        <ele>1159.0065918</ele>
        <time>2010-12-30T10:28:24Z</time>
      </trkpt>
      <trkpt lat="32.129808962345123" lon="-3.705125581473112">
        <ele>1159.0065918</ele>
        <time>2010-12-30T10:28:30Z</time>
      </trkpt>
      <trkpt lat="32.129467483609915" lon="-3.705533612519503">
        <ele>1159.4873047000001</ele>
        <time>2010-12-30T10:28:38Z</time>
      </trkpt>
      <trkpt lat="32.129070768132806" lon="-3.705992689356208">
        <ele>1159.0065918</ele>
        <time>2010-12-30T10:28:46Z</time>
      </trkpt>
      <trkpt lat="32.128867926076055" lon="-3.706271471455693">
        <ele>1158.0454102000001</ele>
        <time>2010-12-30T10:28:53Z</time>
      </trkpt>
      <trkpt lat="32.128780083730817" lon="-3.706614375114441">
        <ele>1155.1613769999999</ele>
        <time>2010-12-30T10:29:00Z</time>
      </trkpt>
      <trkpt lat="32.128814365714788" lon="-3.70701746083796">
        <ele>1152.2773437999999</ele>
        <time>2010-12-30T10:29:06Z</time>
      </trkpt>
      <trkpt lat="32.128684027120471" lon="-3.707425240427256">
        <ele>1150.8354492000001</ele>
        <time>2010-12-30T10:29:11Z</time>
      </trkpt>
      <trkpt lat="32.128479089587927" lon="-3.707857914268971">
        <ele>1150.3549805</ele>
        <time>2010-12-30T10:29:16Z</time>
      </trkpt>
      <trkpt lat="32.127961087971926" lon="-3.708789311349392">
        <ele>1148.4321289</ele>
        <time>2010-12-30T10:29:25Z</time>
      </trkpt>
      <trkpt lat="32.127527492120862" lon="-3.709582909941673">
        <ele>1147.4707031</ele>
        <time>2010-12-30T10:29:33Z</time>
      </trkpt>
      <trkpt lat="32.127241333946586" lon="-3.71035479940474">
        <ele>1146.9899902</ele>
        <time>2010-12-30T10:29:40Z</time>
      </trkpt>
      <trkpt lat="32.126845372840762" lon="-3.711109422147274">
        <ele>1145.5480957</ele>
        <time>2010-12-30T10:29:48Z</time>
      </trkpt>
      <trkpt lat="32.126576565206051" lon="-3.711538491770625">
        <ele>1144.1062012</ele>
        <time>2010-12-30T10:29:54Z</time>
      </trkpt>
      <trkpt lat="32.126290993764997" lon="-3.711951719596982">
        <ele>1143.6254882999999</ele>
        <time>2010-12-30T10:30:00Z</time>
      </trkpt>
      <trkpt lat="32.126093180850148" lon="-3.712178701534867">
        <ele>1143.6254882999999</ele>
        <time>2010-12-30T10:30:04Z</time>
      </trkpt>
      <trkpt lat="32.125943563878536" lon="-3.712402917444706">
        <ele>1142.6643065999999</ele>
        <time>2010-12-30T10:30:08Z</time>
      </trkpt>
      <trkpt lat="32.12558657862246" lon="-3.712904071435332">
        <ele>1141.7028809000001</ele>
        <time>2010-12-30T10:30:17Z</time>
      </trkpt>
      <trkpt lat="32.125532096251845" lon="-3.713002223521471">
        <ele>1141.7028809000001</ele>
        <time>2010-12-30T10:30:20Z</time>
      </trkpt>
      <trkpt lat="32.125260522589087" lon="-3.713346468284726">
        <ele>1141.7028809000001</ele>
        <time>2010-12-30T10:30:26Z</time>
      </trkpt>
      <trkpt lat="32.124865902587771" lon="-3.713816441595554">
        <ele>1139.2995605000001</ele>
        <time>2010-12-30T10:30:34Z</time>
      </trkpt>
      <trkpt lat="32.124716369435191" lon="-3.713963376358151">
        <ele>1137.3769531</ele>
        <time>2010-12-30T10:30:37Z</time>
      </trkpt>
      <trkpt lat="32.124497015029192" lon="-3.714239308610559">
        <ele>1133.0510254000001</ele>
        <time>2010-12-30T10:30:42Z</time>
      </trkpt>
      <trkpt lat="32.124383524060249" lon="-3.714384399354458">
        <ele>1131.6088867000001</ele>
        <time>2010-12-30T10:30:44Z</time>
      </trkpt>
      <trkpt lat="32.12408353574574" lon="-3.714932659640908">
        <ele>1131.6088867000001</ele>
        <time>2010-12-30T10:30:51Z</time>
      </trkpt>
      <trkpt lat="32.123746499419212" lon="-3.715337673202157">
        <ele>1131.6088867000001</ele>
        <time>2010-12-30T10:30:56Z</time>
      </trkpt>
      <trkpt lat="32.123301587998867" lon="-3.716135378926992">
        <ele>1132.5705565999999</ele>
        <time>2010-12-30T10:31:04Z</time>
      </trkpt>
      <trkpt lat="32.123027835041285" lon="-3.716551288962364">
        <ele>1133.5317382999999</ele>
        <time>2010-12-30T10:31:10Z</time>
      </trkpt>
      <trkpt lat="32.122567417100072" lon="-3.71744479984045">
        <ele>1133.5317382999999</ele>
        <time>2010-12-30T10:31:18Z</time>
      </trkpt>
      <trkpt lat="32.122367089614272" lon="-3.717832881957293">
        <ele>1133.5317382999999</ele>
        <time>2010-12-30T10:31:22Z</time>
      </trkpt>
      <trkpt lat="32.122250664979219" lon="-3.718272764235735">
        <ele>1133.0510254000001</ele>
        <time>2010-12-30T10:31:27Z</time>
      </trkpt>
      <trkpt lat="32.121937265619636" lon="-3.718746090307832">
        <ele>1132.5705565999999</ele>
        <time>2010-12-30T10:31:33Z</time>
      </trkpt>
      <trkpt lat="32.121865013614297" lon="-3.718892941251397">
        <ele>1132.5705565999999</ele>
        <time>2010-12-30T10:31:36Z</time>
      </trkpt>
      <trkpt lat="32.121801311150193" lon="-3.719185469672084">
        <ele>1133.5317382999999</ele>
        <time>2010-12-30T10:31:41Z</time>
      </trkpt>
      <trkpt lat="32.121505932882428" lon="-3.71953465975821">
        <ele>1133.5317382999999</ele>
        <time>2010-12-30T10:31:46Z</time>
      </trkpt>
      <trkpt lat="32.121269730851054" lon="-3.719685701653361">
        <ele>1131.6088867000001</ele>
        <time>2010-12-30T10:31:49Z</time>
      </trkpt>
      <trkpt lat="32.121024308726192" lon="-3.720040759071708">
        <ele>1131.128418</ele>
        <time>2010-12-30T10:31:53Z</time>
      </trkpt>
      <trkpt lat="32.120342524722219" lon="-3.721140129491687">
        <ele>1131.6088867000001</ele>
        <time>2010-12-30T10:32:03Z</time>
      </trkpt>
      <trkpt lat="32.120107412338257" lon="-3.721650838851929">
        <ele>1131.128418</ele>
        <time>2010-12-30T10:32:08Z</time>
      </trkpt>
      <trkpt lat="32.119869198650122" lon="-3.721957700327039">
        <ele>1131.6088867000001</ele>
        <time>2010-12-30T10:32:12Z</time>
      </trkpt>
      <trkpt lat="32.119284812361002" lon="-3.722865460440517">
        <ele>1130.1669922000001</ele>
        <time>2010-12-30T10:32:21Z</time>
      </trkpt>
      <trkpt lat="32.11899546906352" lon="-3.723385892808437">
        <ele>1129.6862793</ele>
        <time>2010-12-30T10:32:27Z</time>
      </trkpt>
      <trkpt lat="32.118514683097601" lon="-3.724412089213729">
        <ele>1130.1669922000001</ele>
        <time>2010-12-30T10:32:36Z</time>
      </trkpt>
      <trkpt lat="32.118251323699951" lon="-3.724944591522217">
        <ele>1130.6477050999999</ele>
        <time>2010-12-30T10:32:41Z</time>
      </trkpt>
      <trkpt lat="32.118007326498628" lon="-3.725328734144568">
        <ele>1128.7250977000001</ele>
        <time>2010-12-30T10:32:47Z</time>
      </trkpt>
      <trkpt lat="32.11781932041049" lon="-3.725704159587622">
        <ele>1128.7250977000001</ele>
        <time>2010-12-30T10:32:56Z</time>
      </trkpt>
      <trkpt lat="32.117407601326704" lon="-3.72660119086504">
        <ele>1128.7250977000001</ele>
        <time>2010-12-30T10:33:05Z</time>
      </trkpt>
      <trkpt lat="32.116914661601186" lon="-3.727575084194541">
        <ele>1128.7250977000001</ele>
        <time>2010-12-30T10:33:13Z</time>
      </trkpt>
      <trkpt lat="32.116648536175489" lon="-3.728146394714713">
        <ele>1129.6862793</ele>
        <time>2010-12-30T10:33:19Z</time>
      </trkpt>
      <trkpt lat="32.116421135142446" lon="-3.728567501530051">
        <ele>1130.1669922000001</ele>
        <time>2010-12-30T10:33:26Z</time>
      </trkpt>
      <trkpt lat="32.116273865103722" lon="-3.728948459029198">
        <ele>1130.1669922000001</ele>
        <time>2010-12-30T10:33:30Z</time>
      </trkpt>
      <trkpt lat="32.116152495145798" lon="-3.729196563363075">
        <ele>1129.6862793</ele>
        <time>2010-12-30T10:33:34Z</time>
      </trkpt>
      <trkpt lat="32.116059204563498" lon="-3.729371661320329">
        <ele>1125.8410644999999</ele>
        <time>2010-12-30T10:33:41Z</time>
      </trkpt>
      <trkpt lat="32.115919562056661" lon="-3.729611719027162">
        <ele>1126.3217772999999</ele>
        <time>2010-12-30T10:33:47Z</time>
      </trkpt>
      <trkpt lat="32.115624183788896" lon="-3.730134582147002">
        <ele>1125.8410644999999</ele>
        <time>2010-12-30T10:33:54Z</time>
      </trkpt>
      <trkpt lat="32.114912560209632" lon="-3.731367560103536">
        <ele>1127.7636719</ele>
        <time>2010-12-30T10:34:07Z</time>
      </trkpt>
      <trkpt lat="32.114529926329851" lon="-3.732091169804335">
        <ele>1128.7250977000001</ele>
        <time>2010-12-30T10:34:15Z</time>
      </trkpt>
      <trkpt lat="32.114020306617022" lon="-3.732900358736515">
        <ele>1129.6862793</ele>
        <time>2010-12-30T10:34:23Z</time>
      </trkpt>
      <trkpt lat="32.11370263248682" lon="-3.733494887128472">
        <ele>1129.6862793</ele>
        <time>2010-12-30T10:34:29Z</time>
      </trkpt>
      <trkpt lat="32.113371631130576" lon="-3.734195195138454">
        <ele>1130.6477050999999</ele>
        <time>2010-12-30T10:34:36Z</time>
      </trkpt>
      <trkpt lat="32.113301390781999" lon="-3.734291419386864">
        <ele>1130.6477050999999</ele>
        <time>2010-12-30T10:34:37Z</time>
      </trkpt>
      <trkpt lat="32.112593790516257" lon="-3.734826939180493">
        <ele>1127.2832031</ele>
        <time>2010-12-30T10:34:45Z</time>
      </trkpt>
      <trkpt lat="32.112516677007079" lon="-3.734891060739756">
        <ele>1126.8024902</ele>
        <time>2010-12-30T10:34:46Z</time>
      </trkpt>
      <trkpt lat="32.112122308462858" lon="-3.735084095969796">
        <ele>1121.034668</ele>
        <time>2010-12-30T10:34:53Z</time>
      </trkpt>
      <trkpt lat="32.111872108653188" lon="-3.73488737270236">
        <ele>1113.3439940999999</ele>
        <time>2010-12-30T10:35:00Z</time>
      </trkpt>
      <trkpt lat="32.111719641834497" lon="-3.734819563105702">
        <ele>1111.9020995999999</ele>
        <time>2010-12-30T10:35:03Z</time>
      </trkpt>
      <trkpt lat="32.111507914960384" lon="-3.73495526611805">
        <ele>1107.0954589999999</ele>
        <time>2010-12-30T10:35:10Z</time>
      </trkpt>
      <trkpt lat="32.111438596621156" lon="-3.735136901959777">
        <ele>1110.4599608999999</ele>
        <time>2010-12-30T10:35:14Z</time>
      </trkpt>
      <trkpt lat="32.111419318243861" lon="-3.735252739861608">
        <ele>1112.3825684000001</ele>
        <time>2010-12-30T10:35:16Z</time>
      </trkpt>
      <trkpt lat="32.111406326293945" lon="-3.735437812283635">
        <ele>1115.7473144999999</ele>
        <time>2010-12-30T10:35:19Z</time>
      </trkpt>
      <trkpt lat="32.111264085397124" lon="-3.735764706507325">
        <ele>1119.5927733999999</ele>
        <time>2010-12-30T10:35:23Z</time>
      </trkpt>
      <trkpt lat="32.110778018832207" lon="-3.736413465812802">
        <ele>1122.9572754000001</ele>
        <time>2010-12-30T10:35:32Z</time>
      </trkpt>
      <trkpt lat="32.110238811001182" lon="-3.737140512093902">
        <ele>1123.4379882999999</ele>
        <time>2010-12-30T10:35:42Z</time>
      </trkpt>
      <trkpt lat="32.109612766653299" lon="-3.737884741276503">
        <ele>1121.034668</ele>
        <time>2010-12-30T10:35:52Z</time>
      </trkpt>
      <trkpt lat="32.109525594860315" lon="-3.73800971545279">
        <ele>1120.5539550999999</ele>
        <time>2010-12-30T10:35:54Z</time>
      </trkpt>
      <trkpt lat="32.109159640967846" lon="-3.738554120063782">
        <ele>1119.1120605000001</ele>
        <time>2010-12-30T10:36:02Z</time>
      </trkpt>
      <trkpt lat="32.108705174177885" lon="-3.739145798608661">
        <ele>1118.6313477000001</ele>
        <time>2010-12-30T10:36:10Z</time>
      </trkpt>
      <trkpt lat="32.107965722680092" lon="-3.740077279508114">
        <ele>1120.0732422000001</ele>
        <time>2010-12-30T10:36:21Z</time>
      </trkpt>
      <trkpt lat="32.107564564794302" lon="-3.740645488724113">
        <ele>1121.9958495999999</ele>
        <time>2010-12-30T10:36:28Z</time>
      </trkpt>
      <trkpt lat="32.107068607583642" lon="-3.741374462842941">
        <ele>1122.4765625</ele>
        <time>2010-12-30T10:36:38Z</time>
      </trkpt>
      <trkpt lat="32.106328485533595" lon="-3.742460506036878">
        <ele>1122.4765625</ele>
        <time>2010-12-30T10:36:51Z</time>
      </trkpt>
      <trkpt lat="32.105691460892558" lon="-3.743486618623138">
        <ele>1125.8410644999999</ele>
        <time>2010-12-30T10:37:02Z</time>
      </trkpt>
      <trkpt lat="32.105304887518287" lon="-3.744224980473518">
        <ele>1128.2443848</ele>
        <time>2010-12-30T10:37:10Z</time>
      </trkpt>
      <trkpt lat="32.104850839823484" lon="-3.744940459728241">
        <ele>1129.6862793</ele>
        <time>2010-12-30T10:37:17Z</time>
      </trkpt>
      <trkpt lat="32.104566777125001" lon="-3.745909910649061">
        <ele>1129.2055664</ele>
        <time>2010-12-30T10:37:25Z</time>
      </trkpt>
      <trkpt lat="32.104408778250217" lon="-3.746401341632009">
        <ele>1129.2055664</ele>
        <time>2010-12-30T10:37:31Z</time>
      </trkpt>
      <trkpt lat="32.10434440523386" lon="-3.746580965816975">
        <ele>1129.6862793</ele>
        <time>2010-12-30T10:37:33Z</time>
      </trkpt>
      <trkpt lat="32.104185065254569" lon="-3.747204076498747">
        <ele>1129.6862793</ele>
        <time>2010-12-30T10:37:40Z</time>
      </trkpt>
      <trkpt lat="32.103992700576782" lon="-3.74771336093545">
        <ele>1129.2055664</ele>
        <time>2010-12-30T10:37:46Z</time>
      </trkpt>
      <trkpt lat="32.103877868503332" lon="-3.748195320367813">
        <ele>1129.6862793</ele>
        <time>2010-12-30T10:37:52Z</time>
      </trkpt>
      <trkpt lat="32.103810561820865" lon="-3.748411405831575">
        <ele>1130.1669922000001</ele>
        <time>2010-12-30T10:37:54Z</time>
      </trkpt>
      <trkpt lat="32.103620711714029" lon="-3.748999396339059">
        <ele>1129.2055664</ele>
        <time>2010-12-30T10:38:01Z</time>
      </trkpt>
      <trkpt lat="32.103529935702682" lon="-3.749247584491968">
        <ele>1128.7250977000001</ele>
        <time>2010-12-30T10:38:04Z</time>
      </trkpt>
      <trkpt lat="32.103451816365123" lon="-3.749621417373419">
        <ele>1128.2443848</ele>
        <time>2010-12-30T10:38:08Z</time>
      </trkpt>
      <trkpt lat="32.103051161393523" lon="-3.750923462212086">
        <ele>1124.8798827999999</ele>
        <time>2010-12-30T10:38:20Z</time>
      </trkpt>
      <trkpt lat="32.102929623797536" lon="-3.75132579356432">
        <ele>1123.918457</ele>
        <time>2010-12-30T10:38:26Z</time>
      </trkpt>
      <trkpt lat="32.102871537208557" lon="-3.751606168225408">
        <ele>1124.3991699000001</ele>
        <time>2010-12-30T10:38:32Z</time>
      </trkpt>
      <trkpt lat="32.102619409561157" lon="-3.752415692433715">
        <ele>1122.4765625</ele>
        <time>2010-12-30T10:38:39Z</time>
      </trkpt>
      <trkpt lat="32.102486221119761" lon="-3.752842163667083">
        <ele>1121.9958495999999</ele>
        <time>2010-12-30T10:38:44Z</time>
      </trkpt>
      <trkpt lat="32.102433582767844" lon="-3.753015417605639">
        <ele>1122.4765625</ele>
        <time>2010-12-30T10:38:50Z</time>
      </trkpt>
      <trkpt lat="32.102235518395901" lon="-3.753555631265044">
        <ele>1121.9958495999999</ele>
        <time>2010-12-30T10:38:56Z</time>
      </trkpt>
      <trkpt lat="32.101864535361528" lon="-3.754460038617253">
        <ele>1121.034668</ele>
        <time>2010-12-30T10:39:04Z</time>
      </trkpt>
      <trkpt lat="32.101558931171894" lon="-3.755160262808204">
        <ele>1119.5927733999999</ele>
        <time>2010-12-30T10:39:12Z</time>
      </trkpt>
      <trkpt lat="32.101302864030004" lon="-3.755763424560428">
        <ele>1118.1506348</ele>
        <time>2010-12-30T10:39:18Z</time>
      </trkpt>
      <trkpt lat="32.100858371704817" lon="-3.756726337596774">
        <ele>1115.7473144999999</ele>
        <time>2010-12-30T10:39:27Z</time>
      </trkpt>
      <trkpt lat="32.100535333156586" lon="-3.757372414693236">
        <ele>1115.7473144999999</ele>
        <time>2010-12-30T10:39:35Z</time>
      </trkpt>
      <trkpt lat="32.100369036197662" lon="-3.757686987519264">
        <ele>1115.2666016000001</ele>
        <time>2010-12-30T10:39:41Z</time>
      </trkpt>
      <trkpt lat="32.100229393690825" lon="-3.75800583511591">
        <ele>1115.2666016000001</ele>
        <time>2010-12-30T10:39:57Z</time>
      </trkpt>
      <trkpt lat="32.100000400096178" lon="-3.758509336039424">
        <ele>1115.2666016000001</ele>
        <time>2010-12-30T10:40:03Z</time>
      </trkpt>
      <trkpt lat="32.099636206403375" lon="-3.759198328480125">
        <ele>1114.3051757999999</ele>
        <time>2010-12-30T10:40:11Z</time>
      </trkpt>
      <trkpt lat="32.099563116207719" lon="-3.759401421993971">
        <ele>1113.3439940999999</ele>
        <time>2010-12-30T10:40:17Z</time>
      </trkpt>
      <trkpt lat="32.099464293569326" lon="-3.759692860767245">
        <ele>1111.9020995999999</ele>
        <time>2010-12-30T10:40:24Z</time>
      </trkpt>
      <trkpt lat="32.09922457113862" lon="-3.760266937315464">
        <ele>1110.4599608999999</ele>
        <time>2010-12-30T10:40:30Z</time>
      </trkpt>
      <trkpt lat="32.099057603627443" lon="-3.760525267571211">
        <ele>1109.9792480000001</ele>
        <time>2010-12-30T10:40:33Z</time>
      </trkpt>
      <trkpt lat="32.098874459043145" lon="-3.760742275044322">
        <ele>1109.0180664</ele>
        <time>2010-12-30T10:40:37Z</time>
      </trkpt>
      <trkpt lat="32.098739929497242" lon="-3.760978560894728">
        <ele>1108.5373535000001</ele>
        <time>2010-12-30T10:40:43Z</time>
      </trkpt>
      <trkpt lat="32.098617637529969" lon="-3.761208141222596">
        <ele>1101.3276367000001</ele>
        <time>2010-12-30T10:41:00Z</time>
      </trkpt>
      <trkpt lat="32.098442036658525" lon="-3.761491365730763">
        <ele>1098.9240723</ele>
        <time>2010-12-30T10:41:05Z</time>
      </trkpt>
      <trkpt lat="32.098184963688254" lon="-3.761987406760454">
        <ele>1098.4433594</ele>
        <time>2010-12-30T10:41:13Z</time>
      </trkpt>
      <trkpt lat="32.098035514354706" lon="-3.762313798069954">
        <ele>1101.8083495999999</ele>
        <time>2010-12-30T10:41:23Z</time>
      </trkpt>
      <trkpt lat="32.097747260704637" lon="-3.762761559337378">
        <ele>1102.2888184000001</ele>
        <time>2010-12-30T10:41:31Z</time>
      </trkpt>
      <trkpt lat="32.097640559077263" lon="-3.763216529041529">
        <ele>1102.7695312999999</ele>
        <time>2010-12-30T10:41:38Z</time>
      </trkpt>
      <trkpt lat="32.097605187445879" lon="-3.763334210962057">
        <ele>1103.730957</ele>
        <time>2010-12-30T10:41:41Z</time>
      </trkpt>
      <trkpt lat="32.097402764484286" lon="-3.763744924217463">
        <ele>1103.730957</ele>
        <time>2010-12-30T10:41:47Z</time>
      </trkpt>
      <trkpt lat="32.097341073676944" lon="-3.763889595866203">
        <ele>1103.730957</ele>
        <time>2010-12-30T10:41:49Z</time>
      </trkpt>
      <trkpt lat="32.097076792269945" lon="-3.764637596905232">
        <ele>1103.730957</ele>
        <time>2010-12-30T10:41:57Z</time>
      </trkpt>
      <trkpt lat="32.096985261887312" lon="-3.764858627691865">
        <ele>1103.730957</ele>
        <time>2010-12-30T10:42:00Z</time>
      </trkpt>
      <trkpt lat="32.096825167536736" lon="-3.765164902433753">
        <ele>1102.7695312999999</ele>
        <time>2010-12-30T10:42:07Z</time>
      </trkpt>
      <trkpt lat="32.096686363220215" lon="-3.765542507171631">
        <ele>1102.7695312999999</ele>
        <time>2010-12-30T10:42:18Z</time>
      </trkpt>
      <trkpt lat="32.096431637182832" lon="-3.766047265380621">
        <ele>1103.2502440999999</ele>
        <time>2010-12-30T10:42:25Z</time>
      </trkpt>
      <trkpt lat="32.096319068223238" lon="-3.766300985589624">
        <ele>1103.2502440999999</ele>
        <time>2010-12-30T10:42:31Z</time>
      </trkpt>
      <trkpt lat="32.096168529242277" lon="-3.766732821241021">
        <ele>1102.7695312999999</ele>
        <time>2010-12-30T10:42:37Z</time>
      </trkpt>
      <trkpt lat="32.096119998022914" lon="-3.766891909763217">
        <ele>1102.7695312999999</ele>
        <time>2010-12-30T10:42:39Z</time>
      </trkpt>
      <trkpt lat="32.095761587843299" lon="-3.767758263275027">
        <ele>1103.730957</ele>
        <time>2010-12-30T10:42:48Z</time>
      </trkpt>
      <trkpt lat="32.095210058614612" lon="-3.768998617306352">
        <ele>1103.730957</ele>
        <time>2010-12-30T10:43:01Z</time>
      </trkpt>
      <trkpt lat="32.094686776399612" lon="-3.769625499844551">
        <ele>1103.2502440999999</ele>
        <time>2010-12-30T10:43:09Z</time>
      </trkpt>
      <trkpt lat="32.094368934631348" lon="-3.769962787628174">
        <ele>1102.7695312999999</ele>
        <time>2010-12-30T10:43:14Z</time>
      </trkpt>
      <trkpt lat="32.093987138941884" lon="-3.770142663270235">
        <ele>1100.8469238</ele>
        <time>2010-12-30T10:43:21Z</time>
      </trkpt>
      <trkpt lat="32.093912372365594" lon="-3.770494787022471">
        <ele>1098.4433594</ele>
        <time>2010-12-30T10:43:34Z</time>
      </trkpt>
      <trkpt lat="32.093798127025366" lon="-3.770639458671212">
        <ele>1099.4047852000001</ele>
        <time>2010-12-30T10:43:37Z</time>
      </trkpt>
      <trkpt lat="32.093365704640746" lon="-3.771012118086219">
        <ele>1098.9240723</ele>
        <time>2010-12-30T10:43:46Z</time>
      </trkpt>
      <trkpt lat="32.093167304992676" lon="-3.77130389213562">
        <ele>1097.9628906</ele>
        <time>2010-12-30T10:43:52Z</time>
      </trkpt>
      <trkpt lat="32.09283135831356" lon="-3.771629026159644">
        <ele>1096.0402832</ele>
        <time>2010-12-30T10:44:00Z</time>
      </trkpt>
      <trkpt lat="32.09259188733995" lon="-3.771911412477493">
        <ele>1093.15625</ele>
        <time>2010-12-30T10:44:06Z</time>
      </trkpt>
      <trkpt lat="32.092092158272862" lon="-3.772321371361613">
        <ele>1089.7917480000001</ele>
        <time>2010-12-30T10:44:15Z</time>
      </trkpt>
      <trkpt lat="32.091848412528634" lon="-3.772590095177293">
        <ele>1085.9465332</ele>
        <time>2010-12-30T10:44:23Z</time>
      </trkpt>
      <trkpt lat="32.091663340106606" lon="-3.772819507867098">
        <ele>1089.3110352000001</ele>
        <time>2010-12-30T10:44:29Z</time>
      </trkpt>
      <trkpt lat="32.091175261884928" lon="-3.773334575816989">
        <ele>1090.2724608999999</ele>
        <time>2010-12-30T10:44:39Z</time>
      </trkpt>
      <trkpt lat="32.090746276080608" lon="-3.773867916315794">
        <ele>1084.9853516000001</ele>
        <time>2010-12-30T10:44:50Z</time>
      </trkpt>
      <trkpt lat="32.09059783257544" lon="-3.774046031758189">
        <ele>1084.0239257999999</ele>
        <time>2010-12-30T10:45:03Z</time>
      </trkpt>
      <trkpt lat="32.090232381597161" lon="-3.77441793680191">
        <ele>1085.4658202999999</ele>
        <time>2010-12-30T10:45:10Z</time>
      </trkpt>
      <trkpt lat="32.089547412469983" lon="-3.775279680266976">
        <ele>1085.4658202999999</ele>
        <time>2010-12-30T10:45:22Z</time>
      </trkpt>
      <trkpt lat="32.089140471071005" lon="-3.775749234482646">
        <ele>1082.5817870999999</ele>
        <time>2010-12-30T10:45:30Z</time>
      </trkpt>
      <trkpt lat="32.088777283206582" lon="-3.775975964963436">
        <ele>1079.6977539</ele>
        <time>2010-12-30T10:45:39Z</time>
      </trkpt>
      <trkpt lat="32.08908112719655" lon="-3.776060789823532">
        <ele>1089.3110352000001</ele>
        <time>2010-12-30T10:49:07Z</time>
      </trkpt>
      <trkpt lat="32.089233258739114" lon="-3.776118960231543">
        <ele>1085.9465332</ele>
        <time>2010-12-30T13:22:07Z</time>
      </trkpt>
      <trkpt lat="32.089119181036949" lon="-3.776196576654911">
        <ele>1084.0239257999999</ele>
        <time>2010-12-30T13:22:13Z</time>
      </trkpt>
      <trkpt lat="32.088983478024602" lon="-3.776195319369435">
        <ele>1078.7365723</ele>
        <time>2010-12-30T13:22:22Z</time>
      </trkpt>
      <trkpt lat="32.088863281533122" lon="-3.776277462020516">
        <ele>1072.0073242000001</ele>
        <time>2010-12-30T13:26:04Z</time>
      </trkpt>
      <trkpt lat="32.088569579645991" lon="-3.776098592206836">
        <ele>1064.7973632999999</ele>
        <time>2010-12-30T13:26:13Z</time>
      </trkpt>
      <trkpt lat="32.088427590206265" lon="-3.776170341297984">
        <ele>1076.8139647999999</ele>
        <time>2010-12-30T13:26:39Z</time>
      </trkpt>
      <trkpt lat="32.088110838085413" lon="-3.776306714862585">
        <ele>1080.6591797000001</ele>
        <time>2010-12-30T13:26:49Z</time>
      </trkpt>
      <trkpt lat="32.087944708764553" lon="-3.776472760364413">
        <ele>1084.5046387</ele>
        <time>2010-12-30T13:27:06Z</time>
      </trkpt>
      <trkpt lat="32.087631141766906" lon="-3.776768641546369">
        <ele>1087.3884277</ele>
        <time>2010-12-30T13:27:15Z</time>
      </trkpt>
      <trkpt lat="32.087524021044374" lon="-3.776829158887267">
        <ele>1088.3498535000001</ele>
        <time>2010-12-30T13:27:17Z</time>
      </trkpt>
      <trkpt lat="32.087335595861077" lon="-3.777004424482584">
        <ele>1088.3498535000001</ele>
        <time>2010-12-30T13:27:21Z</time>
      </trkpt>
      <trkpt lat="32.086828658357263" lon="-3.77759886905551">
        <ele>1085.4658202999999</ele>
        <time>2010-12-30T13:27:31Z</time>
      </trkpt>
      <trkpt lat="32.086730925366282" lon="-3.77774354070425">
        <ele>1084.5046387</ele>
        <time>2010-12-30T13:27:34Z</time>
      </trkpt>
      <trkpt lat="32.086417023092508" lon="-3.778347037732601">
        <ele>1080.1784668</ele>
        <time>2010-12-30T13:27:42Z</time>
      </trkpt>
      <trkpt lat="32.085857866331935" lon="-3.779291762039065">
        <ele>1075.8525391000001</ele>
        <time>2010-12-30T13:27:52Z</time>
      </trkpt>
      <trkpt lat="32.08553952164948" lon="-3.779809093102813">
        <ele>1073.9299315999999</ele>
        <time>2010-12-30T13:27:59Z</time>
      </trkpt>
      <trkpt lat="32.085176417604089" lon="-3.780403537675738">
        <ele>1072.0073242000001</ele>
        <time>2010-12-30T13:28:06Z</time>
      </trkpt>
      <trkpt lat="32.085065189749002" lon="-3.780604368075728">
        <ele>1071.5266113</ele>
        <time>2010-12-30T13:28:09Z</time>
      </trkpt>
      <trkpt lat="32.084718262776732" lon="-3.781206188723445">
        <ele>1069.1235352000001</ele>
        <time>2010-12-30T13:28:17Z</time>
      </trkpt>
      <trkpt lat="32.084349291399121" lon="-3.781826868653297">
        <ele>1065.7587891000001</ele>
        <time>2010-12-30T13:28:25Z</time>
      </trkpt>
      <trkpt lat="32.084059612825513" lon="-3.782310336828232">
        <ele>1064.7973632999999</ele>
        <time>2010-12-30T13:28:33Z</time>
      </trkpt>
      <trkpt lat="32.083587292581797" lon="-3.782903105020523">
        <ele>1059.5102539</ele>
        <time>2010-12-30T13:28:41Z</time>
      </trkpt>
      <trkpt lat="32.083353102207184" lon="-3.783333683386445">
        <ele>1054.2231445</ele>
        <time>2010-12-30T13:28:48Z</time>
      </trkpt>
      <trkpt lat="32.083195773884654" lon="-3.783493274822831">
        <ele>1051.8195800999999</ele>
        <time>2010-12-30T13:28:51Z</time>
      </trkpt>
      <trkpt lat="32.082663858309388" lon="-3.783762333914638">
        <ele>1045.090332</ele>
        <time>2010-12-30T13:28:59Z</time>
      </trkpt>
      <trkpt lat="32.082214839756489" lon="-3.784109260886908">
        <ele>1040.7644043</ele>
        <time>2010-12-30T13:29:07Z</time>
      </trkpt>
      <trkpt lat="32.081607319414616" lon="-3.784527936950326">
        <ele>1050.8581543</ele>
        <time>2010-12-30T13:29:16Z</time>
      </trkpt>
      <trkpt lat="32.081531966105103" lon="-3.784588202834129">
        <ele>1056.1455077999999</ele>
        <time>2010-12-30T13:29:23Z</time>
      </trkpt>
      <trkpt lat="32.081395760178566" lon="-3.78468400798738">
        <ele>1067.6811522999999</ele>
        <time>2010-12-30T13:30:02Z</time>
      </trkpt>
      <trkpt lat="32.080855211243033" lon="-3.785015596076846">
        <ele>1063.3554687999999</ele>
        <time>2010-12-30T13:30:14Z</time>
      </trkpt>
      <trkpt lat="32.080193292349577" lon="-3.7854272313416">
        <ele>1066.2392577999999</ele>
        <time>2010-12-30T13:30:25Z</time>
      </trkpt>
      <trkpt lat="32.079629609361291" lon="-3.785785222426057">
        <ele>1068.1621094</ele>
        <time>2010-12-30T13:30:35Z</time>
      </trkpt>
      <trkpt lat="32.079096436500549" lon="-3.786101303994656">
        <ele>1068.1621094</ele>
        <time>2010-12-30T13:30:42Z</time>
      </trkpt>
      <trkpt lat="32.078889319673181" lon="-3.786176573485136">
        <ele>1068.1621094</ele>
        <time>2010-12-30T13:30:44Z</time>
      </trkpt>
      <trkpt lat="32.078025061637163" lon="-3.786259219050407">
        <ele>1067.6811522999999</ele>
        <time>2010-12-30T13:30:52Z</time>
      </trkpt>
      <trkpt lat="32.077745441347361" lon="-3.786344127729535">
        <ele>1069.6042480000001</ele>
        <time>2010-12-30T13:30:55Z</time>
      </trkpt>
      <trkpt lat="32.077353838831186" lon="-3.786199036985636">
        <ele>1070.0847168</ele>
        <time>2010-12-30T13:31:00Z</time>
      </trkpt>
      <trkpt lat="32.077115373685956" lon="-3.785916734486818">
        <ele>1068.6428223</ele>
        <time>2010-12-30T13:31:03Z</time>
      </trkpt>
      <trkpt lat="32.076736679300666" lon="-3.785524293780327">
        <ele>1066.7199707</ele>
        <time>2010-12-30T13:31:07Z</time>
      </trkpt>
      <trkpt lat="32.076138714328408" lon="-3.785174768418074">
        <ele>1065.2780762</ele>
        <time>2010-12-30T13:31:12Z</time>
      </trkpt>
      <trkpt lat="32.074297461658716" lon="-3.78477293998003">
        <ele>1062.394043</ele>
        <time>2010-12-30T13:31:25Z</time>
      </trkpt>
      <trkpt lat="32.073231199756265" lon="-3.784241862595081">
        <ele>1061.9135742000001</ele>
        <time>2010-12-30T13:31:32Z</time>
      </trkpt>
      <trkpt lat="32.071518274024129" lon="-3.783336700871587">
        <ele>1060.9521483999999</ele>
        <time>2010-12-30T13:31:43Z</time>
      </trkpt>
      <trkpt lat="32.071218034252524" lon="-3.783178366720676">
        <ele>1061.4328613</ele>
        <time>2010-12-30T13:31:45Z</time>
      </trkpt>
      <trkpt lat="32.07054203376174" lon="-3.783021625131369">
        <ele>1060.9521483999999</ele>
        <time>2010-12-30T13:31:50Z</time>
      </trkpt>
      <trkpt lat="32.070249505341053" lon="-3.782711159437895">
        <ele>1060.4714355000001</ele>
        <time>2010-12-30T13:31:53Z</time>
      </trkpt>
      <trkpt lat="32.069285167381167" lon="-3.781558983027935">
        <ele>1058.5488281</ele>
        <time>2010-12-30T13:32:01Z</time>
      </trkpt>
      <trkpt lat="32.068393500521779" lon="-3.780427509918809">
        <ele>1057.5876464999999</ele>
        <time>2010-12-30T13:32:08Z</time>
      </trkpt>
      <trkpt lat="32.06758582033217" lon="-3.779207859188318">
        <ele>1056.6262207</ele>
        <time>2010-12-30T13:32:16Z</time>
      </trkpt>
      <trkpt lat="32.06721743568778" lon="-3.778697485104203">
        <ele>1056.1455077999999</ele>
        <time>2010-12-30T13:32:20Z</time>
      </trkpt>
      <trkpt lat="32.066746959462762" lon="-3.778493972495198">
        <ele>1055.6650391000001</ele>
        <time>2010-12-30T13:32:24Z</time>
      </trkpt>
      <trkpt lat="32.065558321774006" lon="-3.777839178219438">
        <ele>1054.7036132999999</ele>
        <time>2010-12-30T13:32:33Z</time>
      </trkpt>
      <trkpt lat="32.06467361189425" lon="-3.776847263798118">
        <ele>1055.1843262</ele>
        <time>2010-12-30T13:32:41Z</time>
      </trkpt>
      <trkpt lat="32.063522860407829" lon="-3.775358805432916">
        <ele>1055.1843262</ele>
        <time>2010-12-30T13:32:52Z</time>
      </trkpt>
      <trkpt lat="32.062521893531084" lon="-3.774403436109424">
        <ele>1057.1069336</ele>
        <time>2010-12-30T13:33:00Z</time>
      </trkpt>
      <trkpt lat="32.061302913352847" lon="-3.773321164771915">
        <ele>1059.5102539</ele>
        <time>2010-12-30T13:33:10Z</time>
      </trkpt>
      <trkpt lat="32.060211338102818" lon="-3.772368310019374">
        <ele>1059.9907227000001</ele>
        <time>2010-12-30T13:33:20Z</time>
      </trkpt>
      <trkpt lat="32.058901414275169" lon="-3.771541099995375">
        <ele>1059.9907227000001</ele>
        <time>2010-12-30T13:33:30Z</time>
      </trkpt>
      <trkpt lat="32.058606203645468" lon="-3.771464824676514">
        <ele>1060.4714355000001</ele>
        <time>2010-12-30T13:33:32Z</time>
      </trkpt>
      <trkpt lat="32.057931125164032" lon="-3.771648472175002">
        <ele>1061.4328613</ele>
        <time>2010-12-30T13:33:37Z</time>
      </trkpt>
      <trkpt lat="32.05764471553266" lon="-3.771761376410723">
        <ele>1060.4714355000001</ele>
        <time>2010-12-30T13:33:39Z</time>
      </trkpt>
      <trkpt lat="32.056575603783131" lon="-3.771765232086182">
        <ele>1055.6650391000001</ele>
        <time>2010-12-30T13:33:46Z</time>
      </trkpt>
      <trkpt lat="32.054859660565853" lon="-3.771659284830093">
        <ele>1055.1843262</ele>
        <time>2010-12-30T13:33:56Z</time>
      </trkpt>
      <trkpt lat="32.053098874166608" lon="-3.771615028381348">
        <ele>1054.2231445</ele>
        <time>2010-12-30T13:34:06Z</time>
      </trkpt>
      <trkpt lat="32.050728388130665" lon="-3.771639419719577">
        <ele>1053.2617187999999</ele>
        <time>2010-12-30T13:34:19Z</time>
      </trkpt>
      <trkpt lat="32.048251116648316" lon="-3.771824492141604">
        <ele>1051.8195800999999</ele>
        <time>2010-12-30T13:34:32Z</time>
      </trkpt>
      <trkpt lat="32.044894332066178" lon="-3.772132024168968">
        <ele>1051.3388672000001</ele>
        <time>2010-12-30T13:34:49Z</time>
      </trkpt>
      <trkpt lat="32.043708208948374" lon="-3.772439304739237">
        <ele>1051.8195800999999</ele>
        <time>2010-12-30T13:34:56Z</time>
      </trkpt>
      <trkpt lat="32.042529797181487" lon="-3.772928640246391">
        <ele>1051.8195800999999</ele>
        <time>2010-12-30T13:35:03Z</time>
      </trkpt>
      <trkpt lat="32.040297025814652" lon="-3.773696003481746">
        <ele>1050.8581543</ele>
        <time>2010-12-30T13:35:16Z</time>
      </trkpt>
      <trkpt lat="32.038874113932252" lon="-3.774322299286723">
        <ele>1050.3776855000001</ele>
        <time>2010-12-30T13:35:24Z</time>
      </trkpt>
      <trkpt lat="32.038046065717936" lon="-3.775044735521078">
        <ele>1050.8581543</ele>
        <time>2010-12-30T13:35:29Z</time>
      </trkpt>
      <trkpt lat="32.036759611219168" lon="-3.776489859446883">
        <ele>1052.7810059000001</ele>
        <time>2010-12-30T13:35:37Z</time>
      </trkpt>
      <trkpt lat="32.035821424797177" lon="-3.777967002242804">
        <ele>1059.9907227000001</ele>
        <time>2010-12-30T13:35:44Z</time>
      </trkpt>
      <trkpt lat="32.035271907225251" lon="-3.779261838644743">
        <ele>1063.3554687999999</ele>
        <time>2010-12-30T13:35:50Z</time>
      </trkpt>
      <trkpt lat="32.034518122673035" lon="-3.780850963667035">
        <ele>1062.394043</ele>
        <time>2010-12-30T13:35:58Z</time>
      </trkpt>
      <trkpt lat="32.033652607351542" lon="-3.781777080148459">
        <ele>1060.9521483999999</ele>
        <time>2010-12-30T13:36:04Z</time>
      </trkpt>
      <trkpt lat="32.031839936971664" lon="-3.783808266744018">
        <ele>1059.5102539</ele>
        <time>2010-12-30T13:36:16Z</time>
      </trkpt>
      <trkpt lat="32.030859924852848" lon="-3.784762797877193">
        <ele>1061.9135742000001</ele>
        <time>2010-12-30T13:36:23Z</time>
      </trkpt>
      <trkpt lat="32.030099518597126" lon="-3.785253139212728">
        <ele>1061.4328613</ele>
        <time>2010-12-30T13:36:28Z</time>
      </trkpt>
      <trkpt lat="32.029447490349412" lon="-3.785452377051115">
        <ele>1060.4714355000001</ele>
        <time>2010-12-30T13:36:32Z</time>
      </trkpt>
      <trkpt lat="32.028230940923095" lon="-3.785374760627747">
        <ele>1063.3554687999999</ele>
        <time>2010-12-30T13:36:39Z</time>
      </trkpt>
      <trkpt lat="32.027465673163533" lon="-3.785033030435443">
        <ele>1066.7199707</ele>
        <time>2010-12-30T13:36:44Z</time>
      </trkpt>
      <trkpt lat="32.027199296280742" lon="-3.784532463178039">
        <ele>1068.1621094</ele>
        <time>2010-12-30T13:36:48Z</time>
      </trkpt>
      <trkpt lat="32.027171133086085" lon="-3.784363735467196">
        <ele>1067.6811522999999</ele>
        <time>2010-12-30T13:36:49Z</time>
      </trkpt>
      <trkpt lat="32.027122769504786" lon="-3.783802734687924">
        <ele>1066.7199707</ele>
        <time>2010-12-30T13:36:52Z</time>
      </trkpt>
      <trkpt lat="32.026670817285776" lon="-3.783160177990794">
        <ele>1066.7199707</ele>
        <time>2010-12-30T13:36:56Z</time>
      </trkpt>
      <trkpt lat="32.025588378310204" lon="-3.781761322170496">
        <ele>1065.7587891000001</ele>
        <time>2010-12-30T13:37:04Z</time>
      </trkpt>
      <trkpt lat="32.02422933652997" lon="-3.779460238292813">
        <ele>1064.7973632999999</ele>
        <time>2010-12-30T13:37:15Z</time>
      </trkpt>
      <trkpt lat="32.023854581639171" lon="-3.778601260855794">
        <ele>1065.2780762</ele>
        <time>2010-12-30T13:37:19Z</time>
      </trkpt>
      <trkpt lat="32.023330293595791" lon="-3.777914280071855">
        <ele>1067.6811522999999</ele>
        <time>2010-12-30T13:37:23Z</time>
      </trkpt>
      <trkpt lat="32.022117432206869" lon="-3.777100061997771">
        <ele>1075.3718262</ele>
        <time>2010-12-30T13:37:30Z</time>
      </trkpt>
      <trkpt lat="32.020770292729139" lon="-3.776084007695317">
        <ele>1074.8913574000001</ele>
        <time>2010-12-30T13:37:38Z</time>
      </trkpt>
      <trkpt lat="32.018982097506523" lon="-3.774960162118077">
        <ele>1068.1621094</ele>
        <time>2010-12-30T13:37:48Z</time>
      </trkpt>
      <trkpt lat="32.017702264711261" lon="-3.774339566007257">
        <ele>1061.9135742000001</ele>
        <time>2010-12-30T13:37:55Z</time>
      </trkpt>
      <trkpt lat="32.017182838171721" lon="-3.774014934897423">
        <ele>1059.0295410000001</ele>
        <time>2010-12-30T13:37:58Z</time>
      </trkpt>
      <trkpt lat="32.015647860243917" lon="-3.772573582828045">
        <ele>1050.3776855000001</ele>
        <time>2010-12-30T13:38:08Z</time>
      </trkpt>
      <trkpt lat="32.015254329890013" lon="-3.772251633927226">
        <ele>1045.090332</ele>
        <time>2010-12-30T13:38:11Z</time>
      </trkpt>
      <trkpt lat="32.014253111556172" lon="-3.771965559571981">
        <ele>1041.7258300999999</ele>
        <time>2010-12-30T13:38:20Z</time>
      </trkpt>
      <trkpt lat="32.013995200395584" lon="-3.771936893463135">
        <ele>1040.2839355000001</ele>
        <time>2010-12-30T13:38:23Z</time>
      </trkpt>
      <trkpt lat="32.01366662979126" lon="-3.771958434954286">
        <ele>1039.3225098</ele>
        <time>2010-12-30T13:38:29Z</time>
      </trkpt>
      <trkpt lat="32.01364173553884" lon="-3.77225766889751">
        <ele>1038.3613281</ele>
        <time>2010-12-30T13:38:33Z</time>
      </trkpt>
      <trkpt lat="32.013612734153867" lon="-3.772464534267783">
        <ele>1036.9191894999999</ele>
        <time>2010-12-30T13:38:35Z</time>
      </trkpt>
      <trkpt lat="32.013133624568582" lon="-3.773441361263394">
        <ele>1035.4770507999999</ele>
        <time>2010-12-30T13:38:43Z</time>
      </trkpt>
      <trkpt lat="32.01247489079833" lon="-3.774607786908746">
        <ele>1031.6318358999999</ele>
        <time>2010-12-30T13:38:51Z</time>
      </trkpt>
      <trkpt lat="32.011701995506883" lon="-3.776140082627535">
        <ele>1031.6318358999999</ele>
        <time>2010-12-30T13:38:59Z</time>
      </trkpt>
      <trkpt lat="32.010759115219116" lon="-3.778030034154654">
        <ele>1040.7644043</ele>
        <time>2010-12-30T13:39:08Z</time>
      </trkpt>
      <trkpt lat="32.009988399222493" lon="-3.780006906017661">
        <ele>1051.8195800999999</ele>
        <time>2010-12-30T13:39:17Z</time>
      </trkpt>
      <trkpt lat="32.009070664644241" lon="-3.782657012343407">
        <ele>1057.5876464999999</ele>
        <time>2010-12-30T13:39:28Z</time>
      </trkpt>
      <trkpt lat="32.008118061348796" lon="-3.785001933574677">
        <ele>1062.8747559000001</ele>
        <time>2010-12-30T13:39:39Z</time>
      </trkpt>
      <trkpt lat="32.007215330377221" lon="-3.786534816026688">
        <ele>1062.394043</ele>
        <time>2010-12-30T13:39:47Z</time>
      </trkpt>
      <trkpt lat="32.00607480481267" lon="-3.787918835878372">
        <ele>1061.9135742000001</ele>
        <time>2010-12-30T13:39:55Z</time>
      </trkpt>
      <trkpt lat="32.004366237670183" lon="-3.789625475183129">
        <ele>1060.4714355000001</ele>
        <time>2010-12-30T13:40:06Z</time>
      </trkpt>
      <trkpt lat="32.002269839867949" lon="-3.791688932105899">
        <ele>1058.5488281</ele>
        <time>2010-12-30T13:40:19Z</time>
      </trkpt>
      <trkpt lat="32.000974835827947" lon="-3.793312758207321">
        <ele>1057.5876464999999</ele>
        <time>2010-12-30T13:40:28Z</time>
      </trkpt>
      <trkpt lat="31.999866999685764" lon="-3.795152334496379">
        <ele>1058.5488281</ele>
        <time>2010-12-30T13:40:37Z</time>
      </trkpt>
      <trkpt lat="31.998114259913564" lon="-3.798285573720932">
        <ele>1057.1069336</ele>
        <time>2010-12-30T13:40:52Z</time>
      </trkpt>
      <trkpt lat="31.996331764385104" lon="-3.801457369700074">
        <ele>1062.8747559000001</ele>
        <time>2010-12-30T13:41:07Z</time>
      </trkpt>
      <trkpt lat="31.994879683479667" lon="-3.804129185155034">
        <ele>1058.5488281</ele>
        <time>2010-12-30T13:41:19Z</time>
      </trkpt>
      <trkpt lat="31.993444534018636" lon="-3.806989258155227">
        <ele>1059.9907227000001</ele>
        <time>2010-12-30T13:41:31Z</time>
      </trkpt>
      <trkpt lat="31.992644229903817" lon="-3.80943694151938">
        <ele>1056.6262207</ele>
        <time>2010-12-30T13:41:40Z</time>
      </trkpt>
      <trkpt lat="31.991745606064796" lon="-3.812762126326561">
        <ele>1053.7424315999999</ele>
        <time>2010-12-30T13:41:52Z</time>
      </trkpt>
      <trkpt lat="31.99082275852561" lon="-3.816266432404518">
        <ele>1053.7424315999999</ele>
        <time>2010-12-30T13:42:05Z</time>
      </trkpt>
      <trkpt lat="31.989597324281931" lon="-3.820855524390936">
        <ele>1052.7810059000001</ele>
        <time>2010-12-30T13:42:22Z</time>
      </trkpt>
      <trkpt lat="31.988155301660299" lon="-3.826471483334899">
        <ele>1055.6650391000001</ele>
        <time>2010-12-30T13:42:43Z</time>
      </trkpt>
      <trkpt lat="31.987124998122454" lon="-3.830381724983454">
        <ele>1056.1455077999999</ele>
        <time>2010-12-30T13:42:58Z</time>
      </trkpt>
      <trkpt lat="31.986129814758897" lon="-3.834221139550209">
        <ele>1052.7810059000001</ele>
        <time>2010-12-30T13:43:12Z</time>
      </trkpt>
      <trkpt lat="31.984864985570312" lon="-3.839146262034774">
        <ele>1049.8969727000001</ele>
        <time>2010-12-30T13:43:29Z</time>
      </trkpt>
      <trkpt lat="31.984051018953323" lon="-3.842267263680697">
        <ele>1053.7424315999999</ele>
        <time>2010-12-30T13:43:40Z</time>
      </trkpt>
      <trkpt lat="31.982803707942367" lon="-3.847119128331542">
        <ele>1063.3554687999999</ele>
        <time>2010-12-30T13:43:57Z</time>
      </trkpt>
      <trkpt lat="31.981870299205184" lon="-3.850710187107325">
        <ele>1065.2780762</ele>
        <time>2010-12-30T13:44:10Z</time>
      </trkpt>
      <trkpt lat="31.980634722858667" lon="-3.855430539697409">
        <ele>1061.9135742000001</ele>
        <time>2010-12-30T13:44:27Z</time>
      </trkpt>
      <trkpt lat="31.979794520884752" lon="-3.859202060848475">
        <ele>1060.9521483999999</ele>
        <time>2010-12-30T13:44:40Z</time>
      </trkpt>
      <trkpt lat="31.9794035051018" lon="-3.861821070313454">
        <ele>1061.9135742000001</ele>
        <time>2010-12-30T13:44:49Z</time>
      </trkpt>
      <trkpt lat="31.979334438219666" lon="-3.864504536613822">
        <ele>1062.8747559000001</ele>
        <time>2010-12-30T13:44:58Z</time>
      </trkpt>
      <trkpt lat="31.979578016325831" lon="-3.868364738300443">
        <ele>1058.5488281</ele>
        <time>2010-12-30T13:45:11Z</time>
      </trkpt>
      <trkpt lat="31.979878172278404" lon="-3.872282104566693">
        <ele>1056.6262207</ele>
        <time>2010-12-30T13:45:24Z</time>
      </trkpt>
      <trkpt lat="31.980237336829305" lon="-3.876883937045932">
        <ele>1054.2231445</ele>
        <time>2010-12-30T13:45:39Z</time>
      </trkpt>
      <trkpt lat="31.980601530522108" lon="-3.881358532235026">
        <ele>1052.300293</ele>
        <time>2010-12-30T13:45:54Z</time>
      </trkpt>
      <trkpt lat="31.98095197789371" lon="-3.885939409956336">
        <ele>1051.8195800999999</ele>
        <time>2010-12-30T13:46:09Z</time>
      </trkpt>
      <trkpt lat="31.981150964275002" lon="-3.888518940657377">
        <ele>1052.300293</ele>
        <time>2010-12-30T13:46:18Z</time>
      </trkpt>
      <trkpt lat="31.981364283710718" lon="-3.891207436099649">
        <ele>1056.1455077999999</ele>
        <time>2010-12-30T13:46:28Z</time>
      </trkpt>
      <trkpt lat="31.981541980057955" lon="-3.893488571047783">
        <ele>1058.5488281</ele>
        <time>2010-12-30T13:46:37Z</time>
      </trkpt>
      <trkpt lat="31.981785139068961" lon="-3.896772265434265">
        <ele>1061.4328613</ele>
        <time>2010-12-30T13:46:51Z</time>
      </trkpt>
      <trkpt lat="31.982072722166777" lon="-3.900379920378327">
        <ele>1064.3166504000001</ele>
        <time>2010-12-30T13:47:06Z</time>
      </trkpt>
      <trkpt lat="31.982422666624188" lon="-3.904121099039912">
        <ele>1067.6811522999999</ele>
        <time>2010-12-30T13:47:22Z</time>
      </trkpt>
      <trkpt lat="31.982681164517999" lon="-3.906970862299204">
        <ele>1071.0461425999999</ele>
        <time>2010-12-30T13:47:35Z</time>
      </trkpt>
      <trkpt lat="31.982956258580089" lon="-3.910088930279017">
        <ele>1072.0073242000001</ele>
        <time>2010-12-30T13:47:48Z</time>
      </trkpt>
      <trkpt lat="31.983384825289249" lon="-3.914511138573289">
        <ele>1076.8139647999999</ele>
        <time>2010-12-30T13:48:06Z</time>
      </trkpt>
      <trkpt lat="31.983820265159011" lon="-3.918673759326339">
        <ele>1083.5429687999999</ele>
        <time>2010-12-30T13:48:23Z</time>
      </trkpt>
      <trkpt lat="31.984352432191372" lon="-3.922208407893777">
        <ele>1085.9465332</ele>
        <time>2010-12-30T13:48:37Z</time>
      </trkpt>
      <trkpt lat="31.984909996390343" lon="-3.925567707046866">
        <ele>1089.3110352000001</ele>
        <time>2010-12-30T13:48:51Z</time>
      </trkpt>
      <trkpt lat="31.98556168936193" lon="-3.929526982828975">
        <ele>1096.0402832</ele>
        <time>2010-12-30T13:49:08Z</time>
      </trkpt>
      <trkpt lat="31.986357467249036" lon="-3.934184638783336">
        <ele>1101.8083495999999</ele>
        <time>2010-12-30T13:49:28Z</time>
      </trkpt>
      <trkpt lat="31.98710429482162" lon="-3.938456727191806">
        <ele>1104.2116699000001</ele>
        <time>2010-12-30T13:49:46Z</time>
      </trkpt>
      <trkpt lat="31.987683065235615" lon="-3.942130515351892">
        <ele>1100.8469238</ele>
        <time>2010-12-30T13:50:01Z</time>
      </trkpt>
      <trkpt lat="31.987788677215576" lon="-3.944972231984139">
        <ele>1097.9628906</ele>
        <time>2010-12-30T13:50:12Z</time>
      </trkpt>
      <trkpt lat="31.987633528187871" lon="-3.94791578873992">
        <ele>1099.8854980000001</ele>
        <time>2010-12-30T13:50:23Z</time>
      </trkpt>
      <trkpt lat="31.987260617315769" lon="-3.950594561174512">
        <ele>1102.7695312999999</ele>
        <time>2010-12-30T13:50:33Z</time>
      </trkpt>
      <trkpt lat="31.986455786973238" lon="-3.953728135675192">
        <ele>1105.1728516000001</ele>
        <time>2010-12-30T13:50:45Z</time>
      </trkpt>
      <trkpt lat="31.985111413523555" lon="-3.958468688651919">
        <ele>1102.7695312999999</ele>
        <time>2010-12-30T13:51:03Z</time>
      </trkpt>
      <trkpt lat="31.983742313459516" lon="-3.963232962414622">
        <ele>1101.8083495999999</ele>
        <time>2010-12-30T13:51:21Z</time>
      </trkpt>
      <trkpt lat="31.982552837580442" lon="-3.96739742718637">
        <ele>1101.8083495999999</ele>
        <time>2010-12-30T13:51:36Z</time>
      </trkpt>
      <trkpt lat="31.9814757630229" lon="-3.971176072955132">
        <ele>1099.8854980000001</ele>
        <time>2010-12-30T13:51:50Z</time>
      </trkpt>
      <trkpt lat="31.980474796146154" lon="-3.974669314920902">
        <ele>1094.5981445</ele>
        <time>2010-12-30T13:52:04Z</time>
      </trkpt>
      <trkpt lat="31.979274172335863" lon="-3.978887507691979">
        <ele>1096.5209961</ele>
        <time>2010-12-30T13:52:21Z</time>
      </trkpt>
      <trkpt lat="31.978117134422064" lon="-3.982970165088773">
        <ele>1097.0014647999999</ele>
        <time>2010-12-30T13:52:37Z</time>
      </trkpt>
      <trkpt lat="31.976950876414776" lon="-3.98706816136837">
        <ele>1097.4821777</ele>
        <time>2010-12-30T13:52:52Z</time>
      </trkpt>
      <trkpt lat="31.975890900939703" lon="-3.990984270349145">
        <ele>1091.2336425999999</ele>
        <time>2010-12-30T13:53:06Z</time>
      </trkpt>
      <trkpt lat="31.975024715065956" lon="-3.994896020740271">
        <ele>1084.9853516000001</ele>
        <time>2010-12-30T13:53:20Z</time>
      </trkpt>
      <trkpt lat="31.974292136728764" lon="-3.998592775315046">
        <ele>1082.1010742000001</ele>
        <time>2010-12-30T13:53:33Z</time>
      </trkpt>
      <trkpt lat="31.973618315532804" lon="-4.002024661749601">
        <ele>1080.6591797000001</ele>
        <time>2010-12-30T13:53:46Z</time>
      </trkpt>
      <trkpt lat="31.972862100228667" lon="-4.005914283916354">
        <ele>1078.2558594</ele>
        <time>2010-12-30T13:54:00Z</time>
      </trkpt>
      <trkpt lat="31.971978899091482" lon="-4.010470602661371">
        <ele>1077.7751464999999</ele>
        <time>2010-12-30T13:54:16Z</time>
      </trkpt>
      <trkpt lat="31.971279764547944" lon="-4.014242878183723">
        <ele>1075.3718262</ele>
        <time>2010-12-30T13:54:29Z</time>
      </trkpt>
      <trkpt lat="31.970249209553003" lon="-4.019207311794162">
        <ele>1075.8525391000001</ele>
        <time>2010-12-30T13:54:47Z</time>
      </trkpt>
      <trkpt lat="31.969499364495277" lon="-4.021984068676829">
        <ele>1074.8913574000001</ele>
        <time>2010-12-30T13:54:57Z</time>
      </trkpt>
      <trkpt lat="31.968564614653587" lon="-4.024473913013935">
        <ele>1073.4494629000001</ele>
        <time>2010-12-30T13:55:06Z</time>
      </trkpt>
      <trkpt lat="31.966465534642339" lon="-4.028968960046768">
        <ele>1070.5654297000001</ele>
        <time>2010-12-30T13:55:23Z</time>
      </trkpt>
      <trkpt lat="31.964319683611393" lon="-4.033474065363407">
        <ele>1067.2006836</ele>
        <time>2010-12-30T13:55:40Z</time>
      </trkpt>
      <trkpt lat="31.962859136983752" lon="-4.036560617387295">
        <ele>1065.2780762</ele>
        <time>2010-12-30T13:55:52Z</time>
      </trkpt>
      <trkpt lat="31.960844295099378" lon="-4.040894396603108">
        <ele>1065.2780762</ele>
        <time>2010-12-30T13:56:09Z</time>
      </trkpt>
      <trkpt lat="31.959098679944873" lon="-4.044545972719789">
        <ele>1068.6428223</ele>
        <time>2010-12-30T13:56:23Z</time>
      </trkpt>
      <trkpt lat="31.956721739843488" lon="-4.049575617536902">
        <ele>1067.6811522999999</ele>
        <time>2010-12-30T13:56:42Z</time>
      </trkpt>
      <trkpt lat="31.95508592762053" lon="-4.052973724901676">
        <ele>1065.7587891000001</ele>
        <time>2010-12-30T13:56:55Z</time>
      </trkpt>
      <trkpt lat="31.953200083225965" lon="-4.057010700926185">
        <ele>1066.2392577999999</ele>
        <time>2010-12-30T13:57:11Z</time>
      </trkpt>
      <trkpt lat="31.950887516140938" lon="-4.061901960521936">
        <ele>1065.2780762</ele>
        <time>2010-12-30T13:57:30Z</time>
      </trkpt>
      <trkpt lat="31.948661617934704" lon="-4.066593395546079">
        <ele>1061.9135742000001</ele>
        <time>2010-12-30T13:57:48Z</time>
      </trkpt>
      <trkpt lat="31.94699227809906" lon="-4.070124188438058">
        <ele>1058.0683594</ele>
        <time>2010-12-30T13:58:02Z</time>
      </trkpt>
      <trkpt lat="31.944920187816024" lon="-4.074543211609125">
        <ele>1051.8195800999999</ele>
        <time>2010-12-30T13:58:19Z</time>
      </trkpt>
      <trkpt lat="31.943014729768038" lon="-4.078507935628295">
        <ele>1050.8581543</ele>
        <time>2010-12-30T13:58:35Z</time>
      </trkpt>
      <trkpt lat="31.941519817337394" lon="-4.081685934215784">
        <ele>1049.8969727000001</ele>
        <time>2010-12-30T13:58:48Z</time>
      </trkpt>
      <trkpt lat="31.940186340361834" lon="-4.084496134892106">
        <ele>1051.3388672000001</ele>
        <time>2010-12-30T13:58:59Z</time>
      </trkpt>
      <trkpt lat="31.9388013985008" lon="-4.087407505139709">
        <ele>1051.3388672000001</ele>
        <time>2010-12-30T13:59:10Z</time>
      </trkpt>
      <trkpt lat="31.936844727024436" lon="-4.09149494022131">
        <ele>1050.8581543</ele>
        <time>2010-12-30T13:59:26Z</time>
      </trkpt>
      <trkpt lat="31.935148984193802" lon="-4.095116006210446">
        <ele>1051.3388672000001</ele>
        <time>2010-12-30T13:59:40Z</time>
      </trkpt>
      <trkpt lat="31.932725692167878" lon="-4.100283030420542">
        <ele>1052.7810059000001</ele>
        <time>2010-12-30T14:00:00Z</time>
      </trkpt>
      <trkpt lat="31.930911177769303" lon="-4.104154631495476">
        <ele>1052.300293</ele>
        <time>2010-12-30T14:00:15Z</time>
      </trkpt>
      <trkpt lat="31.928936401382089" lon="-4.10829646512866">
        <ele>1049.8969727000001</ele>
        <time>2010-12-30T14:00:32Z</time>
      </trkpt>
      <trkpt lat="31.926754172891378" lon="-4.112833673134446">
        <ele>1047.9743652</ele>
        <time>2010-12-30T14:00:51Z</time>
      </trkpt>
      <trkpt lat="31.924568340182304" lon="-4.117422262206674">
        <ele>1043.1677245999999</ele>
        <time>2010-12-30T14:01:10Z</time>
      </trkpt>
      <trkpt lat="31.922689536586404" lon="-4.121418921276927">
        <ele>1041.2451172000001</ele>
        <time>2010-12-30T14:01:26Z</time>
      </trkpt>
      <trkpt lat="31.92114919424057" lon="-4.124640338122845">
        <ele>1042.6872559000001</ele>
        <time>2010-12-30T14:01:39Z</time>
      </trkpt>
      <trkpt lat="31.919662915170193" lon="-4.127771900966764">
        <ele>1042.206543</ele>
        <time>2010-12-30T14:01:51Z</time>
      </trkpt>
      <trkpt lat="31.917907074093819" lon="-4.131564712151885">
        <ele>1041.2451172000001</ele>
        <time>2010-12-30T14:02:06Z</time>
      </trkpt>
      <trkpt lat="31.916630929335952" lon="-4.134799540042877">
        <ele>1036.9191894999999</ele>
        <time>2010-12-30T14:02:18Z</time>
      </trkpt>
      <trkpt lat="31.914958488196135" lon="-4.139068610966206">
        <ele>1034.996582</ele>
        <time>2010-12-30T14:02:34Z</time>
      </trkpt>
      <trkpt lat="31.91325000487268" lon="-4.14351680316031">
        <ele>1036.9191894999999</ele>
        <time>2010-12-30T14:02:51Z</time>
      </trkpt>
      <trkpt lat="31.911595333367586" lon="-4.147762572392821">
        <ele>1034.5158690999999</ele>
        <time>2010-12-30T14:03:07Z</time>
      </trkpt>
      <trkpt lat="31.910004783421755" lon="-4.152182182297111">
        <ele>1035.4770507999999</ele>
        <time>2010-12-30T14:03:24Z</time>
      </trkpt>
      <trkpt lat="31.909149074926972" lon="-4.155273512005806">
        <ele>1034.0351562999999</ele>
        <time>2010-12-30T14:03:35Z</time>
      </trkpt>
      <trkpt lat="31.907850215211511" lon="-4.160193940624595">
        <ele>1030.6706543</ele>
        <time>2010-12-30T14:03:52Z</time>
      </trkpt>
      <trkpt lat="31.90650793723762" lon="-4.16542885825038">
        <ele>1030.1899414</ele>
        <time>2010-12-30T14:04:10Z</time>
      </trkpt>
      <trkpt lat="31.905250484123826" lon="-4.170300085097551">
        <ele>1033.0737305</ele>
        <time>2010-12-30T14:04:27Z</time>
      </trkpt>
      <trkpt lat="31.904207859188318" lon="-4.174237735569477">
        <ele>1026.8254394999999</ele>
        <time>2010-12-30T14:04:40Z</time>
      </trkpt>
      <trkpt lat="31.903040176257491" lon="-4.178776871412993">
        <ele>1024.902832</ele>
        <time>2010-12-30T14:04:55Z</time>
      </trkpt>
      <trkpt lat="31.90191188827157" lon="-4.183145938441157">
        <ele>1027.3061522999999</ele>
        <time>2010-12-30T14:05:10Z</time>
      </trkpt>
      <trkpt lat="31.900648903101683" lon="-4.188020937144756">
        <ele>1027.3061522999999</ele>
        <time>2010-12-30T14:05:28Z</time>
      </trkpt>
      <trkpt lat="31.899538636207581" lon="-4.19233426451683">
        <ele>1023.9414063</ele>
        <time>2010-12-30T14:05:44Z</time>
      </trkpt>
      <trkpt lat="31.89845628105104" lon="-4.196522533893585">
        <ele>1021.5380859000001</ele>
        <time>2010-12-30T14:06:00Z</time>
      </trkpt>
      <trkpt lat="31.897489679977298" lon="-4.200292965397239">
        <ele>1018.1733398</ele>
        <time>2010-12-30T14:06:14Z</time>
      </trkpt>
      <trkpt lat="31.896289559081197" lon="-4.204837800934911">
        <ele>1008.079834</ele>
        <time>2010-12-30T14:06:30Z</time>
      </trkpt>
      <trkpt lat="31.895050462335348" lon="-4.209768958389759">
        <ele>1001.8310547</ele>
        <time>2010-12-30T14:06:47Z</time>
      </trkpt>
      <trkpt lat="31.894130883738399" lon="-4.213356161490083">
        <ele>998.94702150000001</ele>
        <time>2010-12-30T14:07:00Z</time>
      </trkpt>
      <trkpt lat="31.893014162778854" lon="-4.217208484187722">
        <ele>994.62109380000004</ele>
        <time>2010-12-30T14:07:14Z</time>
      </trkpt>
      <trkpt lat="31.892128698527813" lon="-4.219651725143194">
        <ele>997.98583980000001</ele>
        <time>2010-12-30T14:07:23Z</time>
      </trkpt>
      <trkpt lat="31.890876609832048" lon="-4.221898661926389">
        <ele>996.54394530000002</ele>
        <time>2010-12-30T14:07:32Z</time>
      </trkpt>
      <trkpt lat="31.88898079097271" lon="-4.224860658869147">
        <ele>996.06323239999995</ele>
        <time>2010-12-30T14:07:44Z</time>
      </trkpt>
      <trkpt lat="31.885981662198901" lon="-4.229591824114323">
        <ele>998.94702150000001</ele>
        <time>2010-12-30T14:08:03Z</time>
      </trkpt>
      <trkpt lat="31.883628275245428" lon="-4.23316259868443">
        <ele>1001.8310547</ele>
        <time>2010-12-30T14:08:18Z</time>
      </trkpt>
      <trkpt lat="31.882120035588741" lon="-4.235330829396844">
        <ele>1000.3891602</ele>
        <time>2010-12-30T14:08:28Z</time>
      </trkpt>
      <trkpt lat="31.88004719093442" lon="-4.23780701123178">
        <ele>997.98583980000001</ele>
        <time>2010-12-30T14:08:40Z</time>
      </trkpt>
      <trkpt lat="31.877121236175299" lon="-4.241174859926105">
        <ele>994.62109380000004</ele>
        <time>2010-12-30T14:08:56Z</time>
      </trkpt>
      <trkpt lat="31.874011801555753" lon="-4.244787963107228">
        <ele>991.25659180000002</ele>
        <time>2010-12-30T14:09:13Z</time>
      </trkpt>
      <trkpt lat="31.87114586122334" lon="-4.248130666092038">
        <ele>987.89184569999998</ele>
        <time>2010-12-30T14:09:29Z</time>
      </trkpt>
      <trkpt lat="31.86772596091032" lon="-4.252131935209036">
        <ele>982.12402340000006</ele>
        <time>2010-12-30T14:09:48Z</time>
      </trkpt>
      <trkpt lat="31.865605087950826" lon="-4.254834931343794">
        <ele>982.60473630000001</ele>
        <time>2010-12-30T14:10:00Z</time>
      </trkpt>
      <trkpt lat="31.864320980384946" lon="-4.257175661623478">
        <ele>982.12402340000006</ele>
        <time>2010-12-30T14:10:09Z</time>
      </trkpt>
      <trkpt lat="31.863506175577641" lon="-4.259210368618369">
        <ele>975.39477539999996</ele>
        <time>2010-12-30T14:10:17Z</time>
      </trkpt>
      <trkpt lat="31.862869821488857" lon="-4.261418161913753">
        <ele>960.97509769999999</ele>
        <time>2010-12-30T14:10:26Z</time>
      </trkpt>
      <trkpt lat="31.862309826537967" lon="-4.263433171436191">
        <ele>949.91992189999996</ele>
        <time>2010-12-30T14:10:35Z</time>
      </trkpt>
      <trkpt lat="31.861824681982398" lon="-4.26485164090991">
        <ele>946.55541989999995</ele>
        <time>2010-12-30T14:10:43Z</time>
      </trkpt>
      <trkpt lat="31.861578840762377" lon="-4.265470309183002">
        <ele>945.11328130000004</ele>
        <time>2010-12-30T14:10:47Z</time>
      </trkpt>
      <trkpt lat="31.861167876049876" lon="-4.266427187249064">
        <ele>942.22949219999998</ele>
        <time>2010-12-30T14:10:53Z</time>
      </trkpt>
      <trkpt lat="31.86045122332871" lon="-4.267241908237338">
        <ele>939.34521480000001</ele>
        <time>2010-12-30T14:10:59Z</time>
      </trkpt>
      <trkpt lat="31.860334295779467" lon="-4.267313405871391">
        <ele>938.86474610000005</ele>
        <time>2010-12-30T14:11:00Z</time>
      </trkpt>
      <trkpt lat="31.859498536214232" lon="-4.26674846559763">
        <ele>938.38403319999998</ele>
        <time>2010-12-30T14:11:06Z</time>
      </trkpt>
      <trkpt lat="31.859286641702056" lon="-4.266563979908824">
        <ele>935.01953130000004</ele>
        <time>2010-12-30T14:11:14Z</time>
      </trkpt>
      <trkpt lat="31.859131827950478" lon="-4.266429198905826">
        <ele>926.84838869999999</ele>
        <time>2010-12-30T14:11:30Z</time>
      </trkpt>
      <trkpt lat="31.858625141903758" lon="-4.266079925000668">
        <ele>922.52221680000002</ele>
        <time>2010-12-30T14:11:35Z</time>
      </trkpt>
      <trkpt lat="31.85772811062634" lon="-4.265487492084503">
        <ele>916.75439449999999</ele>
        <time>2010-12-30T14:11:41Z</time>
      </trkpt>
      <trkpt lat="31.85619430616498" lon="-4.264418631792069">
        <ele>912.90917969999998</ele>
        <time>2010-12-30T14:11:50Z</time>
      </trkpt>
      <trkpt lat="31.853977963328362" lon="-4.262851215898991">
        <ele>909.54467769999997</ele>
        <time>2010-12-30T14:12:02Z</time>
      </trkpt>
      <trkpt lat="31.852034535259008" lon="-4.26145420409739">
        <ele>910.50585939999996</ele>
        <time>2010-12-30T14:12:13Z</time>
      </trkpt>
      <trkpt lat="31.851876704022288" lon="-4.26133400760591">
        <ele>910.50585939999996</ele>
        <time>2010-12-30T14:12:14Z</time>
      </trkpt>
      <trkpt lat="31.851422823965549" lon="-4.26030202768743">
        <ele>906.1796875</ele>
        <time>2010-12-30T14:12:20Z</time>
      </trkpt>
      <trkpt lat="31.851104982197285" lon="-4.259267197921872">
        <ele>900.89257810000004</ele>
        <time>2010-12-30T14:12:25Z</time>
      </trkpt>
      <trkpt lat="31.850323369726539" lon="-4.257477158680558">
        <ele>896.56689449999999</ele>
        <time>2010-12-30T14:12:34Z</time>
      </trkpt>
      <trkpt lat="31.84935056604445" lon="-4.255884680896998">
        <ele>887.91479489999995</ele>
        <time>2010-12-30T14:12:42Z</time>
      </trkpt>
      <trkpt lat="31.847654404118657" lon="-4.253250835463405">
        <ele>882.62768549999998</ele>
        <time>2010-12-30T14:12:55Z</time>
      </trkpt>
      <trkpt lat="31.846265774220228" lon="-4.251507483422756">
        <ele>881.66625980000003</ele>
        <time>2010-12-30T14:13:04Z</time>
      </trkpt>
      <trkpt lat="31.844471879303455" lon="-4.249528013169766">
        <ele>881.18579099999999</ele>
        <time>2010-12-30T14:13:15Z</time>
      </trkpt>
      <trkpt lat="31.843009237200022" lon="-4.248540373519063">
        <ele>880.70507810000004</ele>
        <time>2010-12-30T14:13:22Z</time>
      </trkpt>
      <trkpt lat="31.84161214157939" lon="-4.247886501252651">
        <ele>882.14697269999999</ele>
        <time>2010-12-30T14:13:28Z</time>
      </trkpt>
      <trkpt lat="31.839553210884333" lon="-4.247254589572549">
        <ele>894.16357419999997</ele>
        <time>2010-12-30T14:13:37Z</time>
      </trkpt>
      <trkpt lat="31.835927870124578" lon="-4.246208695694804">
        <ele>923.00292969999998</ele>
        <time>2010-12-30T14:13:53Z</time>
      </trkpt>
      <trkpt lat="31.832878114655614" lon="-4.245323231443763">
        <ele>935.98071289999996</ele>
        <time>2010-12-30T14:14:06Z</time>
      </trkpt>
      <trkpt lat="31.829626020044088" lon="-4.244337687268853">
        <ele>944.15209960000004</ele>
        <time>2010-12-30T14:14:20Z</time>
      </trkpt>
      <trkpt lat="31.826430335640907" lon="-4.243385083973408">
        <ele>949.43920900000001</ele>
        <time>2010-12-30T14:14:34Z</time>
      </trkpt>
      <trkpt lat="31.82281656190753" lon="-4.242295771837235">
        <ele>964.8203125</ele>
        <time>2010-12-30T14:14:50Z</time>
      </trkpt>
      <trkpt lat="31.81957209482789" lon="-4.241322465240955">
        <ele>976.83691409999994</ele>
        <time>2010-12-30T14:15:05Z</time>
      </trkpt>
      <trkpt lat="31.816605487838387" lon="-4.240460302680731">
        <ele>987.89184569999998</ele>
        <time>2010-12-30T14:15:19Z</time>
      </trkpt>
      <trkpt lat="31.815086603164673" lon="-4.239967782050371">
        <ele>994.62109380000004</ele>
        <time>2010-12-30T14:15:27Z</time>
      </trkpt>
      <trkpt lat="31.813551792874932" lon="-4.239544663578272">
        <ele>1001.3503418</ele>
        <time>2010-12-30T14:15:36Z</time>
      </trkpt>
      <trkpt lat="31.81213365867734" lon="-4.239107128232718">
        <ele>1006.1569823999999</ele>
        <time>2010-12-30T14:15:44Z</time>
      </trkpt>
      <trkpt lat="31.810294333845377" lon="-4.238549564033747">
        <ele>1012.4055176000001</ele>
        <time>2010-12-30T14:15:55Z</time>
      </trkpt>
      <trkpt lat="31.808946775272489" lon="-4.238151339814067">
        <ele>1015.7702637</ele>
        <time>2010-12-30T14:16:02Z</time>
      </trkpt>
      <trkpt lat="31.807352034375072" lon="-4.237676002085209">
        <ele>1021.5380859000001</ele>
        <time>2010-12-30T14:16:09Z</time>
      </trkpt>
      <trkpt lat="31.804346535354853" lon="-4.236761871725321">
        <ele>1027.3061522999999</ele>
        <time>2010-12-30T14:16:22Z</time>
      </trkpt>
      <trkpt lat="31.800898807123303" lon="-4.235749337822199">
        <ele>1032.5932617000001</ele>
        <time>2010-12-30T14:16:37Z</time>
      </trkpt>
      <trkpt lat="31.799557534977794" lon="-4.235658561810851">
        <ele>1035.4770507999999</ele>
        <time>2010-12-30T14:16:43Z</time>
      </trkpt>
      <trkpt lat="31.798281222581863" lon="-4.235971374437213">
        <ele>1034.0351562999999</ele>
        <time>2010-12-30T14:16:49Z</time>
      </trkpt>
      <trkpt lat="31.795198861509562" lon="-4.237025398761034">
        <ele>1035.4770507999999</ele>
        <time>2010-12-30T14:17:04Z</time>
      </trkpt>
      <trkpt lat="31.793080335482955" lon="-4.237818159162998">
        <ele>1040.2839355000001</ele>
        <time>2010-12-30T14:17:14Z</time>
      </trkpt>
      <trkpt lat="31.791794802993536" lon="-4.238269105553627">
        <ele>1044.1291504000001</ele>
        <time>2010-12-30T14:17:21Z</time>
      </trkpt>
      <trkpt lat="31.790543384850025" lon="-4.238588707521558">
        <ele>1045.5710449000001</ele>
        <time>2010-12-30T14:17:28Z</time>
      </trkpt>
      <trkpt lat="31.789595140144229" lon="-4.238336160778999">
        <ele>1047.0129394999999</ele>
        <time>2010-12-30T14:17:34Z</time>
      </trkpt>
      <trkpt lat="31.789031960070133" lon="-4.2377058416605">
        <ele>1046.0517577999999</ele>
        <time>2010-12-30T14:17:39Z</time>
      </trkpt>
      <trkpt lat="31.78888376802206" lon="-4.237383641302586">
        <ele>1044.6096190999999</ele>
        <time>2010-12-30T14:17:41Z</time>
      </trkpt>
      <trkpt lat="31.787990508601069" lon="-4.235343988984823">
        <ele>1022.0187988</ele>
        <time>2010-12-30T14:17:52Z</time>
      </trkpt>
      <trkpt lat="31.787114515900612" lon="-4.233186822384596">
        <ele>997.98583980000001</ele>
        <time>2010-12-30T14:18:02Z</time>
      </trkpt>
      <trkpt lat="31.786374812945724" lon="-4.231113474816084">
        <ele>978.75952150000001</ele>
        <time>2010-12-30T14:18:11Z</time>
      </trkpt>
      <trkpt lat="31.785660339519382" lon="-4.229362830519676">
        <ele>963.85888669999997</ele>
        <time>2010-12-30T14:18:19Z</time>
      </trkpt>
      <trkpt lat="31.784794572740793" lon="-4.228344764560461">
        <ele>961.45581049999998</ele>
        <time>2010-12-30T14:18:25Z</time>
      </trkpt>
      <trkpt lat="31.783467214554548" lon="-4.227031236514449">
        <ele>968.18481450000002</ele>
        <time>2010-12-30T14:18:34Z</time>
      </trkpt>
      <trkpt lat="31.781998369842768" lon="-4.22557563520968">
        <ele>975.39477539999996</ele>
        <time>2010-12-30T14:18:44Z</time>
      </trkpt>
      <trkpt lat="31.780539667233825" lon="-4.224368976429105">
        <ele>972.03027340000006</ele>
        <time>2010-12-30T14:18:54Z</time>
      </trkpt>
      <trkpt lat="31.77945957519114" lon="-4.223446464166045">
        <ele>967.70410159999994</ele>
        <time>2010-12-30T14:19:03Z</time>
      </trkpt>
      <trkpt lat="31.778354924172163" lon="-4.222668539732695">
        <ele>969.14624019999997</ele>
        <time>2010-12-30T14:19:12Z</time>
      </trkpt>
      <trkpt lat="31.77715128287673" lon="-4.222042327746749">
        <ele>974.43359380000004</ele>
        <time>2010-12-30T14:19:20Z</time>
      </trkpt>
      <trkpt lat="31.774991266429424" lon="-4.221050664782524">
        <ele>975.87548830000003</ele>
        <time>2010-12-30T14:19:34Z</time>
      </trkpt>
      <trkpt lat="31.773368362337351" lon="-4.220168720930815">
        <ele>970.58813480000003</ele>
        <time>2010-12-30T14:19:46Z</time>
      </trkpt>
      <trkpt lat="31.772736702114344" lon="-4.21930018812418">
        <ele>953.76513669999997</ele>
        <time>2010-12-30T14:19:53Z</time>
      </trkpt>
      <trkpt lat="31.771784601733088" lon="-4.217668734490871">
        <ele>938.86474610000005</ele>
        <time>2010-12-30T14:20:04Z</time>
      </trkpt>
      <trkpt lat="31.770945237949491" lon="-4.216233501210809">
        <ele>934.53881839999997</ele>
        <time>2010-12-30T14:20:14Z</time>
      </trkpt>
      <trkpt lat="31.769887274131179" lon="-4.214415717869997">
        <ele>923.48364260000005</ele>
        <time>2010-12-30T14:20:27Z</time>
      </trkpt>
      <trkpt lat="31.769093088805676" lon="-4.213672410696745">
        <ele>925.88696289999996</ele>
        <time>2010-12-30T14:20:34Z</time>
      </trkpt>
      <trkpt lat="31.767595829442143" lon="-4.212510259822011">
        <ele>931.65478519999999</ele>
        <time>2010-12-30T14:20:46Z</time>
      </trkpt>
      <trkpt lat="31.767117641866207" lon="-4.211700232699513">
        <ele>932.13549799999998</ele>
        <time>2010-12-30T14:20:52Z</time>
      </trkpt>
      <trkpt lat="31.766571728512645" lon="-4.210234237834811">
        <ele>922.52221680000002</ele>
        <time>2010-12-30T14:21:01Z</time>
      </trkpt>
      <trkpt lat="31.766011230647564" lon="-4.208858516067267">
        <ele>923.00292969999998</ele>
        <time>2010-12-30T14:21:09Z</time>
      </trkpt>
      <trkpt lat="31.765433130785823" lon="-4.207413140684366">
        <ele>919.15771480000001</ele>
        <time>2010-12-30T14:21:17Z</time>
      </trkpt>
      <trkpt lat="31.764472397044301" lon="-4.204870574176312">
        <ele>912.90917969999998</ele>
        <time>2010-12-30T14:21:31Z</time>
      </trkpt>
      <trkpt lat="31.763666896149516" lon="-4.202731177210808">
        <ele>916.27368160000003</ele>
        <time>2010-12-30T14:21:44Z</time>
      </trkpt>
      <trkpt lat="31.762859718874097" lon="-4.201498283073306">
        <ele>919.15771480000001</ele>
        <time>2010-12-30T14:21:52Z</time>
      </trkpt>
      <trkpt lat="31.76195103675127" lon="-4.200543584302068">
        <ele>926.84838869999999</ele>
        <time>2010-12-30T14:21:59Z</time>
      </trkpt>
      <trkpt lat="31.761062638834119" lon="-4.19957916252315">
        <ele>935.98071289999996</ele>
        <time>2010-12-30T14:22:06Z</time>
      </trkpt>
      <trkpt lat="31.760265687480569" lon="-4.198784558102489">
        <ele>940.78735349999999</ele>
        <time>2010-12-30T14:22:12Z</time>
      </trkpt>
      <trkpt lat="31.75839819945395" lon="-4.197466922923923">
        <ele>941.74877930000002</ele>
        <time>2010-12-30T14:22:24Z</time>
      </trkpt>
      <trkpt lat="31.75693086348474" lon="-4.196826377883554">
        <ele>944.63256839999997</ele>
        <time>2010-12-30T14:22:32Z</time>
      </trkpt>
      <trkpt lat="31.755259595811367" lon="-4.196415580809116">
        <ele>944.63256839999997</ele>
        <time>2010-12-30T14:22:41Z</time>
      </trkpt>
      <trkpt lat="31.754100797697902" lon="-4.196465201675892">
        <ele>942.71020510000005</ele>
        <time>2010-12-30T14:22:47Z</time>
      </trkpt>
      <trkpt lat="31.751809101551771" lon="-4.196518678218126">
        <ele>939.34521480000001</ele>
        <time>2010-12-30T14:22:59Z</time>
      </trkpt>
      <trkpt lat="31.750628761947155" lon="-4.196297563612461">
        <ele>938.86474610000005</ele>
        <time>2010-12-30T14:23:05Z</time>
      </trkpt>
      <trkpt lat="31.749242562800646" lon="-4.19581669382751">
        <ele>941.74877930000002</ele>
        <time>2010-12-30T14:23:13Z</time>
      </trkpt>
      <trkpt lat="31.748342262580991" lon="-4.195219483226538">
        <ele>941.74877930000002</ele>
        <time>2010-12-30T14:23:19Z</time>
      </trkpt>
      <trkpt lat="31.747640864923596" lon="-4.195107333362103">
        <ele>939.82592769999997</ele>
        <time>2010-12-30T14:23:24Z</time>
      </trkpt>
      <trkpt lat="31.747004762291908" lon="-4.195497175678611">
        <ele>938.86474610000005</ele>
        <time>2010-12-30T14:23:29Z</time>
      </trkpt>
      <trkpt lat="31.746868472546339" lon="-4.195631369948387">
        <ele>938.86474610000005</ele>
        <time>2010-12-30T14:23:30Z</time>
      </trkpt>
      <trkpt lat="31.7456029728055" lon="-4.196911118924618">
        <ele>936.94189449999999</ele>
        <time>2010-12-30T14:23:39Z</time>
      </trkpt>
      <trkpt lat="31.744641736149788" lon="-4.197704298421741">
        <ele>935.98071289999996</ele>
        <time>2010-12-30T14:23:45Z</time>
      </trkpt>
      <trkpt lat="31.743427030742168" lon="-4.198168739676476">
        <ele>936.94189449999999</ele>
        <time>2010-12-30T14:23:51Z</time>
      </trkpt>
      <trkpt lat="31.741705387830734" lon="-4.198548439890146">
        <ele>931.17431639999995</ele>
        <time>2010-12-30T14:23:59Z</time>
      </trkpt>
      <trkpt lat="31.740266466513276" lon="-4.19858037494123">
        <ele>926.36767580000003</ele>
        <time>2010-12-30T14:24:06Z</time>
      </trkpt>
      <trkpt lat="31.739015802741051" lon="-4.198259012773633">
        <ele>921.56079099999999</ele>
        <time>2010-12-30T14:24:12Z</time>
      </trkpt>
      <trkpt lat="31.737032979726791" lon="-4.198094895109534">
        <ele>915.3125</ele>
        <time>2010-12-30T14:24:21Z</time>
      </trkpt>
      <trkpt lat="31.735379984602332" lon="-4.198193633928895">
        <ele>909.54467769999997</ele>
        <time>2010-12-30T14:24:29Z</time>
      </trkpt>
      <trkpt lat="31.734196459874511" lon="-4.198037898167968">
        <ele>906.1796875</ele>
        <time>2010-12-30T14:24:35Z</time>
      </trkpt>
      <trkpt lat="31.731751710176468" lon="-4.197717290371656">
        <ele>913.38989260000005</ele>
        <time>2010-12-30T14:24:47Z</time>
      </trkpt>
      <trkpt lat="31.730393338948488" lon="-4.197622574865818">
        <ele>920.11889650000001</ele>
        <time>2010-12-30T14:24:54Z</time>
      </trkpt>
      <trkpt lat="31.729783471673727" lon="-4.197318982332945">
        <ele>923.00292969999998</ele>
        <time>2010-12-30T14:24:58Z</time>
      </trkpt>
      <trkpt lat="31.729497816413641" lon="-4.197121169418097">
        <ele>923.96411130000001</ele>
        <time>2010-12-30T14:25:00Z</time>
      </trkpt>
      <trkpt lat="31.728623835369945" lon="-4.196949591860175">
        <ele>925.88696289999996</ele>
        <time>2010-12-30T14:25:05Z</time>
      </trkpt>
      <trkpt lat="31.728250673040748" lon="-4.196458999067545">
        <ele>928.29028319999998</ele>
        <time>2010-12-30T14:25:09Z</time>
      </trkpt>
      <trkpt lat="31.728091165423393" lon="-4.195775371044874">
        <ele>927.80957030000002</ele>
        <time>2010-12-30T14:25:13Z</time>
      </trkpt>
      <trkpt lat="31.728038191795349" lon="-4.195376979187131">
        <ele>926.36767580000003</ele>
        <time>2010-12-30T14:25:15Z</time>
      </trkpt>
      <trkpt lat="31.727771563455462" lon="-4.194614477455616">
        <ele>926.36767580000003</ele>
        <time>2010-12-30T14:25:19Z</time>
      </trkpt>
      <trkpt lat="31.727162366732955" lon="-4.193170024082065">
        <ele>930.21289060000004</ele>
        <time>2010-12-30T14:25:28Z</time>
      </trkpt>
      <trkpt lat="31.727041080594063" lon="-4.192329235374928">
        <ele>924.92578130000004</ele>
        <time>2010-12-30T14:25:34Z</time>
      </trkpt>
      <trkpt lat="31.726570772007108" lon="-4.191575199365616">
        <ele>922.52221680000002</ele>
        <time>2010-12-30T14:25:40Z</time>
      </trkpt>
      <trkpt lat="31.726381173357368" lon="-4.191322736442089">
        <ele>922.52221680000002</ele>
        <time>2010-12-30T14:25:42Z</time>
      </trkpt>
      <trkpt lat="31.725967191159725" lon="-4.190660314634442">
        <ele>920.59960939999996</ele>
        <time>2010-12-30T14:25:47Z</time>
      </trkpt>
      <trkpt lat="31.725447177886963" lon="-4.190125465393066">
        <ele>920.59960939999996</ele>
        <time>2010-12-30T14:25:52Z</time>
      </trkpt>
      <trkpt lat="31.725006122142076" lon="-4.189751967787743">
        <ele>919.15771480000001</ele>
        <time>2010-12-30T14:25:56Z</time>
      </trkpt>
      <trkpt lat="31.724665397778153" lon="-4.188958704471588">
        <ele>915.3125</ele>
        <time>2010-12-30T14:26:02Z</time>
      </trkpt>
      <trkpt lat="31.72430707141757" lon="-4.188186060637236">
        <ele>909.54467769999997</ele>
        <time>2010-12-30T14:26:07Z</time>
      </trkpt>
      <trkpt lat="31.723719080910087" lon="-4.187578791752458">
        <ele>905.21850589999997</ele>
        <time>2010-12-30T14:26:12Z</time>
      </trkpt>
      <trkpt lat="31.722215367481112" lon="-4.186552008613944">
        <ele>899.45068360000005</ele>
        <time>2010-12-30T14:26:23Z</time>
      </trkpt>
      <trkpt lat="31.721528386697173" lon="-4.18597080744803">
        <ele>898.00878909999994</ele>
        <time>2010-12-30T14:26:30Z</time>
      </trkpt>
      <trkpt lat="31.720812069252133" lon="-4.185376027598977">
        <ele>898.00878909999994</ele>
        <time>2010-12-30T14:26:38Z</time>
      </trkpt>
      <trkpt lat="31.719899112358689" lon="-4.184658620506525">
        <ele>895.12475589999997</ele>
        <time>2010-12-30T14:26:45Z</time>
      </trkpt>
      <trkpt lat="31.7182632163167" lon="-4.183599567040801">
        <ele>889.83740230000001</ele>
        <time>2010-12-30T14:26:55Z</time>
      </trkpt>
      <trkpt lat="31.717384709045291" lon="-4.183234199881554">
        <ele>888.39550780000002</ele>
        <time>2010-12-30T14:27:00Z</time>
      </trkpt>
      <trkpt lat="31.716291541233659" lon="-4.182589463889599">
        <ele>883.58886719999998</ele>
        <time>2010-12-30T14:27:07Z</time>
      </trkpt>
      <trkpt lat="31.715485202148557" lon="-4.181925868615508">
        <ele>885.51147460000004</ele>
        <time>2010-12-30T14:27:13Z</time>
      </trkpt>
      <trkpt lat="31.714828060939908" lon="-4.18185512535274">
        <ele>885.51147460000004</ele>
        <time>2010-12-30T14:27:18Z</time>
      </trkpt>
      <trkpt lat="31.714442661032081" lon="-4.182203393429518">
        <ele>885.03100589999997</ele>
        <time>2010-12-30T14:27:22Z</time>
      </trkpt>
      <trkpt lat="31.714223893359303" lon="-4.182470440864563">
        <ele>885.03100589999997</ele>
        <time>2010-12-30T14:27:24Z</time>
      </trkpt>
      <trkpt lat="31.714001605287194" lon="-4.182731118053198">
        <ele>886.47290039999996</ele>
        <time>2010-12-30T14:27:26Z</time>
      </trkpt>
      <trkpt lat="31.713188728317618" lon="-4.183324640616775">
        <ele>881.18579099999999</ele>
        <time>2010-12-30T14:27:32Z</time>
      </trkpt>
      <trkpt lat="31.711627012118697" lon="-4.184184959158301">
        <ele>883.58886719999998</ele>
        <time>2010-12-30T14:27:42Z</time>
      </trkpt>
      <trkpt lat="31.710854033008218" lon="-4.184937989339232">
        <ele>886.95336910000003</ele>
        <time>2010-12-30T14:27:48Z</time>
      </trkpt>
      <trkpt lat="31.709564812481403" lon="-4.185991091653705">
        <ele>890.79858400000001</ele>
        <time>2010-12-30T14:27:57Z</time>
      </trkpt>
      <trkpt lat="31.708970200270414" lon="-4.186359727755189">
        <ele>891.27929689999996</ele>
        <time>2010-12-30T14:28:01Z</time>
      </trkpt>
      <trkpt lat="31.708221109583974" lon="-4.187189117074013">
        <ele>891.27929689999996</ele>
        <time>2010-12-30T14:28:07Z</time>
      </trkpt>
      <trkpt lat="31.706843376159668" lon="-4.188511781394482">
        <ele>896.56689449999999</ele>
        <time>2010-12-30T14:28:17Z</time>
      </trkpt>
      <trkpt lat="31.706038629636168" lon="-4.188883770257235">
        <ele>896.56689449999999</ele>
        <time>2010-12-30T14:28:22Z</time>
      </trkpt>
      <trkpt lat="31.704688221216202" lon="-4.188907826319337">
        <ele>897.04736330000003</ele>
        <time>2010-12-30T14:28:29Z</time>
      </trkpt>
      <trkpt lat="31.702111624181271" lon="-4.188886536285281">
        <ele>896.56689449999999</ele>
        <time>2010-12-30T14:28:42Z</time>
      </trkpt>
      <trkpt lat="31.701725721359253" lon="-4.188803974539042">
        <ele>896.56689449999999</ele>
        <time>2010-12-30T14:28:44Z</time>
      </trkpt>
      <trkpt lat="31.700894990935922" lon="-4.188286894932389">
        <ele>898.96997069999998</ele>
        <time>2010-12-30T14:28:49Z</time>
      </trkpt>
      <trkpt lat="31.700452007353306" lon="-4.187921695411205">
        <ele>902.81518549999998</ele>
        <time>2010-12-30T14:28:52Z</time>
      </trkpt>
      <trkpt lat="31.699957558885217" lon="-4.187169838696718">
        <ele>904.73779300000001</ele>
        <time>2010-12-30T14:28:57Z</time>
      </trkpt>
      <trkpt lat="31.699845409020782" lon="-4.187067076563835">
        <ele>904.73779300000001</ele>
        <time>2010-12-30T14:28:58Z</time>
      </trkpt>
      <trkpt lat="31.699230177327991" lon="-4.186580758541822">
        <ele>909.06396480000001</ele>
        <time>2010-12-30T14:29:03Z</time>
      </trkpt>
      <trkpt lat="31.698884423822165" lon="-4.186096284538508">
        <ele>912.42846680000002</ele>
        <time>2010-12-30T14:29:07Z</time>
      </trkpt>
      <trkpt lat="31.698832539841533" lon="-4.185941135510802">
        <ele>912.42846680000002</ele>
        <time>2010-12-30T14:29:08Z</time>
      </trkpt>
      <trkpt lat="31.69821378774941" lon="-4.18511476367712">
        <ele>912.90917969999998</ele>
        <time>2010-12-30T14:29:14Z</time>
      </trkpt>
      <trkpt lat="31.697669802233577" lon="-4.184228461235762">
        <ele>912.90917969999998</ele>
        <time>2010-12-30T14:29:20Z</time>
      </trkpt>
      <trkpt lat="31.697170324623585" lon="-4.183792183175683">
        <ele>911.46728519999999</ele>
        <time>2010-12-30T14:29:24Z</time>
      </trkpt>
      <trkpt lat="31.697016516700387" lon="-4.183693276718259">
        <ele>910.98657230000003</ele>
        <time>2010-12-30T14:29:25Z</time>
      </trkpt>
      <trkpt lat="31.69532747939229" lon="-4.183002607896924">
        <ele>907.14111330000003</ele>
        <time>2010-12-30T14:29:34Z</time>
      </trkpt>
      <trkpt lat="31.693758135661483" lon="-4.182387460023165">
        <ele>904.73779300000001</ele>
        <time>2010-12-30T14:29:43Z</time>
      </trkpt>
      <trkpt lat="31.692658010870218" lon="-4.182126363739371">
        <ele>901.37329099999999</ele>
        <time>2010-12-30T14:29:51Z</time>
      </trkpt>
      <trkpt lat="31.691411035135388" lon="-4.18174909427762">
        <ele>895.60546880000004</ele>
        <time>2010-12-30T14:30:01Z</time>
      </trkpt>
      <trkpt lat="31.690067583695054" lon="-4.181064208969474">
        <ele>892.24096680000002</ele>
        <time>2010-12-30T14:30:13Z</time>
      </trkpt>
      <trkpt lat="31.689742701128125" lon="-4.180821385234594">
        <ele>890.79858400000001</ele>
        <time>2010-12-30T14:30:19Z</time>
      </trkpt>
      <trkpt lat="31.689275493845344" lon="-4.180421233177185">
        <ele>888.87622069999998</ele>
        <time>2010-12-30T14:30:26Z</time>
      </trkpt>
      <trkpt lat="31.688462784513831" lon="-4.179684212431312">
        <ele>886.95336910000003</ele>
        <time>2010-12-30T14:30:37Z</time>
      </trkpt>
      <trkpt lat="31.687799021601677" lon="-4.179154559969902">
        <ele>885.9921875</ele>
        <time>2010-12-30T14:30:44Z</time>
      </trkpt>
      <trkpt lat="31.686563109979033" lon="-4.178531365469098">
        <ele>885.9921875</ele>
        <time>2010-12-30T14:30:55Z</time>
      </trkpt>
      <trkpt lat="31.685007764026523" lon="-4.17813666164875">
        <ele>886.47290039999996</ele>
        <time>2010-12-30T14:31:07Z</time>
      </trkpt>
      <trkpt lat="31.684181895107031" lon="-4.178168680518866">
        <ele>888.39550780000002</ele>
        <time>2010-12-30T14:31:13Z</time>
      </trkpt>
      <trkpt lat="31.683505559340119" lon="-4.178670840337873">
        <ele>891.27929689999996</ele>
        <time>2010-12-30T14:31:19Z</time>
      </trkpt>
      <trkpt lat="31.683186963200569" lon="-4.17930786497891">
        <ele>893.20214840000006</ele>
        <time>2010-12-30T14:31:23Z</time>
      </trkpt>
      <trkpt lat="31.682592434808612" lon="-4.18059641495347">
        <ele>892.24096680000002</ele>
        <time>2010-12-30T14:31:30Z</time>
      </trkpt>
      <trkpt lat="31.682050041854382" lon="-4.181155571714044">
        <ele>892.24096680000002</ele>
        <time>2010-12-30T14:31:34Z</time>
      </trkpt>
      <trkpt lat="31.681285360828042" lon="-4.181836266070604">
        <ele>892.72167969999998</ele>
        <time>2010-12-30T14:31:39Z</time>
      </trkpt>
      <trkpt lat="31.680885460227728" lon="-4.182325433939695">
        <ele>891.27929689999996</ele>
        <time>2010-12-30T14:31:42Z</time>
      </trkpt>
      <trkpt lat="31.680354299023747" lon="-4.182982239872217">
        <ele>888.87622069999998</ele>
        <time>2010-12-30T14:31:46Z</time>
      </trkpt>
      <trkpt lat="31.67987116612494" lon="-4.183657905086875">
        <ele>886.47290039999996</ele>
        <time>2010-12-30T14:31:50Z</time>
      </trkpt>
      <trkpt lat="31.679641166701913" lon="-4.184010699391365">
        <ele>885.51147460000004</ele>
        <time>2010-12-30T14:31:52Z</time>
      </trkpt>
      <trkpt lat="31.678824601694942" lon="-4.184962883591652">
        <ele>882.62768549999998</ele>
        <time>2010-12-30T14:31:58Z</time>
      </trkpt>
      <trkpt lat="31.678371978923678" lon="-4.185446435585618">
        <ele>881.18579099999999</ele>
        <time>2010-12-30T14:32:01Z</time>
      </trkpt>
      <trkpt lat="31.677755825221539" lon="-4.186019422486424">
        <ele>882.62768549999998</ele>
        <time>2010-12-30T14:32:05Z</time>
      </trkpt>
      <trkpt lat="31.676766341552138" lon="-4.186901114881039">
        <ele>886.47290039999996</ele>
        <time>2010-12-30T14:32:11Z</time>
      </trkpt>
      <trkpt lat="31.675270004197955" lon="-4.188302736729384">
        <ele>887.91479489999995</ele>
        <time>2010-12-30T14:32:20Z</time>
      </trkpt>
      <trkpt lat="31.674287812784314" lon="-4.188768183812499">
        <ele>889.35668950000002</ele>
        <time>2010-12-30T14:32:25Z</time>
      </trkpt>
      <trkpt lat="31.672743279486895" lon="-4.189440663903952">
        <ele>894.16357419999997</ele>
        <time>2010-12-30T14:32:33Z</time>
      </trkpt>
      <trkpt lat="31.671770308166742" lon="-4.190046340227127">
        <ele>897.04736330000003</ele>
        <time>2010-12-30T14:32:39Z</time>
      </trkpt>
      <trkpt lat="31.670753499493003" lon="-4.190483707934618">
        <ele>897.52807619999999</ele>
        <time>2010-12-30T14:32:45Z</time>
      </trkpt>
      <trkpt lat="31.669262861832976" lon="-4.190766261890531">
        <ele>898.48925780000002</ele>
        <time>2010-12-30T14:32:53Z</time>
      </trkpt>
      <trkpt lat="31.667125225067139" lon="-4.190919399261475">
        <ele>897.52807619999999</ele>
        <time>2010-12-30T14:33:05Z</time>
      </trkpt>
      <trkpt lat="31.665800297632813" lon="-4.190535424277186">
        <ele>895.60546880000004</ele>
        <time>2010-12-30T14:33:12Z</time>
      </trkpt>
      <trkpt lat="31.663442803546786" lon="-4.189663203433156">
        <ele>896.08618160000003</ele>
        <time>2010-12-30T14:33:24Z</time>
      </trkpt>
      <trkpt lat="31.661667684093118" lon="-4.188828784972429">
        <ele>894.64404300000001</ele>
        <time>2010-12-30T14:33:34Z</time>
      </trkpt>
      <trkpt lat="31.660232366994023" lon="-4.188222186639905">
        <ele>899.93139650000001</ele>
        <time>2010-12-30T14:33:43Z</time>
      </trkpt>
      <trkpt lat="31.658703591674566" lon="-4.187554735690355">
        <ele>894.16357419999997</ele>
        <time>2010-12-30T14:33:52Z</time>
      </trkpt>
      <trkpt lat="31.65711379610002" lon="-4.187017204239965">
        <ele>892.72167969999998</ele>
        <time>2010-12-30T14:34:01Z</time>
      </trkpt>
      <trkpt lat="31.654658233746886" lon="-4.186517894268036">
        <ele>892.24096680000002</ele>
        <time>2010-12-30T14:34:14Z</time>
      </trkpt>
      <trkpt lat="31.653689285740256" lon="-4.18659282848239">
        <ele>891.76000980000003</ele>
        <time>2010-12-30T14:34:19Z</time>
      </trkpt>
      <trkpt lat="31.65268580429256" lon="-4.187029777094722">
        <ele>891.27929689999996</ele>
        <time>2010-12-30T14:34:25Z</time>
      </trkpt>
      <trkpt lat="31.651067761704326" lon="-4.187912810593844">
        <ele>889.35668950000002</ele>
        <time>2010-12-30T14:34:35Z</time>
      </trkpt>
      <trkpt lat="31.650057910010219" lon="-4.188680509105325">
        <ele>887.91479489999995</ele>
        <time>2010-12-30T14:34:42Z</time>
      </trkpt>
      <trkpt lat="31.648542964830995" lon="-4.189958665519953">
        <ele>890.31811519999997</ele>
        <time>2010-12-30T14:34:52Z</time>
      </trkpt>
      <trkpt lat="31.647148635238409" lon="-4.191063987091184">
        <ele>891.27929689999996</ele>
        <time>2010-12-30T14:35:01Z</time>
      </trkpt>
      <trkpt lat="31.64584499783814" lon="-4.192177103832364">
        <ele>892.24096680000002</ele>
        <time>2010-12-30T14:35:10Z</time>
      </trkpt>
      <trkpt lat="31.644734898582101" lon="-4.193282341584563">
        <ele>892.24096680000002</ele>
        <time>2010-12-30T14:35:19Z</time>
      </trkpt>
      <trkpt lat="31.643868461251259" lon="-4.193768324330449">
        <ele>892.24096680000002</ele>
        <time>2010-12-30T14:35:25Z</time>
      </trkpt>
      <trkpt lat="31.64237673394382" lon="-4.194629900157452">
        <ele>892.72167969999998</ele>
        <time>2010-12-30T14:35:35Z</time>
      </trkpt>
      <trkpt lat="31.6413813829422" lon="-4.195523327216506">
        <ele>893.20214840000006</ele>
        <time>2010-12-30T14:35:42Z</time>
      </trkpt>
      <trkpt lat="31.640136586502194" lon="-4.196442235261202">
        <ele>894.16357419999997</ele>
        <time>2010-12-30T14:35:51Z</time>
      </trkpt>
      <trkpt lat="31.63898566737771" lon="-4.196997117251158">
        <ele>897.04736330000003</ele>
        <time>2010-12-30T14:35:59Z</time>
      </trkpt>
      <trkpt lat="31.637913789600134" lon="-4.197506569325924">
        <ele>899.93139650000001</ele>
        <time>2010-12-30T14:36:07Z</time>
      </trkpt>
      <trkpt lat="31.636537397280335" lon="-4.198137307539582">
        <ele>899.45068360000005</ele>
        <time>2010-12-30T14:36:15Z</time>
      </trkpt>
      <trkpt lat="31.635070983320475" lon="-4.19882663525641">
        <ele>896.56689449999999</ele>
        <time>2010-12-30T14:36:23Z</time>
      </trkpt>
      <trkpt lat="31.634060461074114" lon="-4.199304739013314">
        <ele>895.12475589999997</ele>
        <time>2010-12-30T14:36:28Z</time>
      </trkpt>
      <trkpt lat="31.632582731544971" lon="-4.200004208832979">
        <ele>893.20214840000006</ele>
        <time>2010-12-30T14:36:37Z</time>
      </trkpt>
      <trkpt lat="31.631465507671237" lon="-4.200580464676023">
        <ele>893.20214840000006</ele>
        <time>2010-12-30T14:36:43Z</time>
      </trkpt>
      <trkpt lat="31.629792898893356" lon="-4.201397616416216">
        <ele>892.24096680000002</ele>
        <time>2010-12-30T14:36:51Z</time>
      </trkpt>
      <trkpt lat="31.626785807311535" lon="-4.202821785584092">
        <ele>890.79858400000001</ele>
        <time>2010-12-30T14:37:06Z</time>
      </trkpt>
      <trkpt lat="31.625105487182736" lon="-4.203433999791741">
        <ele>890.79858400000001</ele>
        <time>2010-12-30T14:37:14Z</time>
      </trkpt>
      <trkpt lat="31.622902471572161" lon="-4.204143863171339">
        <ele>891.76000980000003</ele>
        <time>2010-12-30T14:37:24Z</time>
      </trkpt>
      <trkpt lat="31.620424194261432" lon="-4.204889684915543">
        <ele>892.24096680000002</ele>
        <time>2010-12-30T14:37:35Z</time>
      </trkpt>
      <trkpt lat="31.617864361032844" lon="-4.20568990521133">
        <ele>891.27929689999996</ele>
        <time>2010-12-30T14:37:47Z</time>
      </trkpt>
      <trkpt lat="31.615979941561818" lon="-4.206225760281086">
        <ele>892.72167969999998</ele>
        <time>2010-12-30T14:37:57Z</time>
      </trkpt>
      <trkpt lat="31.614230470731854" lon="-4.206545865163207">
        <ele>891.27929689999996</ele>
        <time>2010-12-30T14:38:06Z</time>
      </trkpt>
      <trkpt lat="31.611603163182735" lon="-4.20651912689209">
        <ele>889.83740230000001</ele>
        <time>2010-12-30T14:38:18Z</time>
      </trkpt>
      <trkpt lat="31.60882112570107" lon="-4.206497669219971">
        <ele>885.9921875</ele>
        <time>2010-12-30T14:38:30Z</time>
      </trkpt>
      <trkpt lat="31.60590841434896" lon="-4.206477385014296">
        <ele>883.58886719999998</ele>
        <time>2010-12-30T14:38:42Z</time>
      </trkpt>
      <trkpt lat="31.602606363594532" lon="-4.206404210999608">
        <ele>881.66625980000003</ele>
        <time>2010-12-30T14:38:56Z</time>
      </trkpt>
      <trkpt lat="31.601442536339164" lon="-4.205997521057725">
        <ele>879.74365230000001</ele>
        <time>2010-12-30T14:39:01Z</time>
      </trkpt>
      <trkpt lat="31.598799806088209" lon="-4.204787760972977">
        <ele>876.85986330000003</ele>
        <time>2010-12-30T14:39:12Z</time>
      </trkpt>
      <trkpt lat="31.595963872969151" lon="-4.203515974804759">
        <ele>875.89819339999997</ele>
        <time>2010-12-30T14:39:24Z</time>
      </trkpt>
      <trkpt lat="31.593111762776971" lon="-4.202109491452575">
        <ele>876.85986330000003</ele>
        <time>2010-12-30T14:39:36Z</time>
      </trkpt>
      <trkpt lat="31.590028312057257" lon="-4.200543500483036">
        <ele>873.49511719999998</ele>
        <time>2010-12-30T14:39:49Z</time>
      </trkpt>
      <trkpt lat="31.587778441607952" lon="-4.19934949837625">
        <ele>872.05297849999999</ele>
        <time>2010-12-30T14:39:59Z</time>
      </trkpt>
      <trkpt lat="31.58534592948854" lon="-4.198118699714541">
        <ele>872.53369139999995</ele>
        <time>2010-12-30T14:40:10Z</time>
      </trkpt>
      <trkpt lat="31.583050461485982" lon="-4.196936599910259">
        <ele>871.57226560000004</ele>
        <time>2010-12-30T14:40:21Z</time>
      </trkpt>
      <trkpt lat="31.581033440306783" lon="-4.195826416835189">
        <ele>870.61108400000001</ele>
        <time>2010-12-30T14:40:31Z</time>
      </trkpt>
      <trkpt lat="31.578821958974004" lon="-4.194602491334081">
        <ele>868.68847659999994</ele>
        <time>2010-12-30T14:40:42Z</time>
      </trkpt>
      <trkpt lat="31.576434709131718" lon="-4.193235235288739">
        <ele>865.8046875</ele>
        <time>2010-12-30T14:40:54Z</time>
      </trkpt>
      <trkpt lat="31.574347615242004" lon="-4.192054811865091">
        <ele>861.95947269999999</ele>
        <time>2010-12-30T14:41:05Z</time>
      </trkpt>
      <trkpt lat="31.57239044085145" lon="-4.190911436453462">
        <ele>857.63330080000003</ele>
        <time>2010-12-30T14:41:15Z</time>
      </trkpt>
      <trkpt lat="31.570525970309973" lon="-4.18984123505652">
        <ele>856.19116210000004</ele>
        <time>2010-12-30T14:41:25Z</time>
      </trkpt>
      <trkpt lat="31.569319311529398" lon="-4.189127264544368">
        <ele>855.22998050000001</ele>
        <time>2010-12-30T14:41:31Z</time>
      </trkpt>
      <trkpt lat="31.566830640658736" lon="-4.187681972980499">
        <ele>854.26879880000001</ele>
        <time>2010-12-30T14:41:42Z</time>
      </trkpt>
      <trkpt lat="31.564734578132629" lon="-4.186500459909439">
        <ele>853.30737299999998</ele>
        <time>2010-12-30T14:41:51Z</time>
      </trkpt>
      <trkpt lat="31.562931463122368" lon="-4.18552472256124">
        <ele>852.82666019999999</ele>
        <time>2010-12-30T14:41:59Z</time>
      </trkpt>
      <trkpt lat="31.560717383399606" lon="-4.184463992714882">
        <ele>851.86547849999999</ele>
        <time>2010-12-30T14:42:09Z</time>
      </trkpt>
      <trkpt lat="31.559358173981309" lon="-4.184139361605048">
        <ele>851.38476560000004</ele>
        <time>2010-12-30T14:42:15Z</time>
      </trkpt>
      <trkpt lat="31.557899722829461" lon="-4.184184120967984">
        <ele>850.90405269999997</ele>
        <time>2010-12-30T14:42:21Z</time>
      </trkpt>
      <trkpt lat="31.554865138605237" lon="-4.184361565858126">
        <ele>852.82666019999999</ele>
        <time>2010-12-30T14:42:33Z</time>
      </trkpt>
      <trkpt lat="31.551524195820093" lon="-4.184513194486499">
        <ele>854.26879880000001</ele>
        <time>2010-12-30T14:42:46Z</time>
      </trkpt>
      <trkpt lat="31.548747774213552" lon="-4.184601036831737">
        <ele>854.74926760000005</ele>
        <time>2010-12-30T14:42:57Z</time>
      </trkpt>
      <trkpt lat="31.546696973964572" lon="-4.184831036254764">
        <ele>854.26879880000001</ele>
        <time>2010-12-30T14:43:05Z</time>
      </trkpt>
      <trkpt lat="31.54431919567287" lon="-4.185177125036717">
        <ele>853.78808590000006</ele>
        <time>2010-12-30T14:43:15Z</time>
      </trkpt>
      <trkpt lat="31.542314663529396" lon="-4.185689594596624">
        <ele>853.78808590000006</ele>
        <time>2010-12-30T14:43:24Z</time>
      </trkpt>
      <trkpt lat="31.540222791954875" lon="-4.186112880706787">
        <ele>854.26879880000001</ele>
        <time>2010-12-30T14:43:34Z</time>
      </trkpt>
      <trkpt lat="31.539490884169936" lon="-4.185944320634008">
        <ele>854.26879880000001</ele>
        <time>2010-12-30T14:43:38Z</time>
      </trkpt>
      <trkpt lat="31.537412339821458" lon="-4.185385582968593">
        <ele>853.30737299999998</ele>
        <time>2010-12-30T14:43:48Z</time>
      </trkpt>
      <trkpt lat="31.536057991907001" lon="-4.185238983482122">
        <ele>852.82666019999999</ele>
        <time>2010-12-30T14:43:54Z</time>
      </trkpt>
      <trkpt lat="31.533420374616981" lon="-4.184998758137226">
        <ele>851.86547849999999</ele>
        <time>2010-12-30T14:44:06Z</time>
      </trkpt>
      <trkpt lat="31.530697932466865" lon="-4.184723580256105">
        <ele>850.42358400000001</ele>
        <time>2010-12-30T14:44:19Z</time>
      </trkpt>
      <trkpt lat="31.528856260702014" lon="-4.1848049685359">
        <ele>848.50073239999995</ele>
        <time>2010-12-30T14:44:28Z</time>
      </trkpt>
      <trkpt lat="31.527941711246967" lon="-4.185278965160251">
        <ele>846.57836910000003</ele>
        <time>2010-12-30T14:44:33Z</time>
      </trkpt>
      <trkpt lat="31.525899041444063" lon="-4.186570700258017">
        <ele>841.29077150000001</ele>
        <time>2010-12-30T14:44:44Z</time>
      </trkpt>
      <trkpt lat="31.523686973378062" lon="-4.187924629077315">
        <ele>847.05883789999996</ele>
        <time>2010-12-30T14:44:55Z</time>
      </trkpt>
      <trkpt lat="31.520977020263672" lon="-4.189803600311279">
        <ele>851.86547849999999</ele>
        <time>2010-12-30T14:45:08Z</time>
      </trkpt>
      <trkpt lat="31.519520161673427" lon="-4.190917303785682">
        <ele>852.34594730000003</ele>
        <time>2010-12-30T14:45:15Z</time>
      </trkpt>
      <trkpt lat="31.517205163836479" lon="-4.193020071834326">
        <ele>850.42358400000001</ele>
        <time>2010-12-30T14:45:27Z</time>
      </trkpt>
      <trkpt lat="31.515098540112376" lon="-4.194995518773794">
        <ele>845.61694339999997</ele>
        <time>2010-12-30T14:45:39Z</time>
      </trkpt>
      <trkpt lat="31.513334987685084" lon="-4.196571232751012">
        <ele>844.65551760000005</ele>
        <time>2010-12-30T14:45:49Z</time>
      </trkpt>
      <trkpt lat="31.511018816381693" lon="-4.198667127639055">
        <ele>840.81005860000005</ele>
        <time>2010-12-30T14:46:02Z</time>
      </trkpt>
      <trkpt lat="31.508991401642561" lon="-4.200522126629949">
        <ele>839.36816409999994</ele>
        <time>2010-12-30T14:46:13Z</time>
      </trkpt>
      <trkpt lat="31.507113687694073" lon="-4.20202324166894">
        <ele>838.40698239999995</ele>
        <time>2010-12-30T14:46:23Z</time>
      </trkpt>
      <trkpt lat="31.506029069423676" lon="-4.202317195013166">
        <ele>836.96484380000004</ele>
        <time>2010-12-30T14:46:28Z</time>
      </trkpt>
      <trkpt lat="31.504889633506536" lon="-4.20228710398078">
        <ele>836.96484380000004</ele>
        <time>2010-12-30T14:46:33Z</time>
      </trkpt>
      <trkpt lat="31.501637706533074" lon="-4.20186348259449">
        <ele>835.04248050000001</ele>
        <time>2010-12-30T14:46:47Z</time>
      </trkpt>
      <trkpt lat="31.49972889572382" lon="-4.201738424599171">
        <ele>833.60034180000002</ele>
        <time>2010-12-30T14:46:56Z</time>
      </trkpt>
      <trkpt lat="31.498721893876791" lon="-4.202003125101328">
        <ele>833.60034180000002</ele>
        <time>2010-12-30T14:47:01Z</time>
      </trkpt>
      <trkpt lat="31.497449772432446" lon="-4.202607292681932">
        <ele>832.15844730000003</ele>
        <time>2010-12-30T14:47:08Z</time>
      </trkpt>
      <trkpt lat="31.495238458737731" lon="-4.20386684127152">
        <ele>830.23583980000001</ele>
        <time>2010-12-30T14:47:21Z</time>
      </trkpt>
      <trkpt lat="31.49444879963994" lon="-4.20450990088284">
        <ele>829.27441409999994</ele>
        <time>2010-12-30T14:47:26Z</time>
      </trkpt>
      <trkpt lat="31.493024965748191" lon="-4.206135235726833">
        <ele>827.35180660000003</ele>
        <time>2010-12-30T14:47:36Z</time>
      </trkpt>
      <trkpt lat="31.490752967074513" lon="-4.208723735064268">
        <ele>826.39038089999997</ele>
        <time>2010-12-30T14:47:52Z</time>
      </trkpt>
      <trkpt lat="31.489152358844876" lon="-4.210612429305911">
        <ele>825.42895510000005</ele>
        <time>2010-12-30T14:48:03Z</time>
      </trkpt>
      <trkpt lat="31.488124234601855" lon="-4.211725210770965">
        <ele>823.98706049999998</ele>
        <time>2010-12-30T14:48:11Z</time>
      </trkpt>
      <trkpt lat="31.48665270768106" lon="-4.213399076834321">
        <ele>822.06445310000004</ele>
        <time>2010-12-30T14:48:22Z</time>
      </trkpt>
      <trkpt lat="31.484942464157939" lon="-4.215376535430551">
        <ele>821.58374019999997</ele>
        <time>2010-12-30T14:48:35Z</time>
      </trkpt>
      <trkpt lat="31.4837581012398" lon="-4.216450760141015">
        <ele>821.58374019999997</ele>
        <time>2010-12-30T14:48:44Z</time>
      </trkpt>
      <trkpt lat="31.482880767434835" lon="-4.216754017397761">
        <ele>820.62255860000005</ele>
        <time>2010-12-30T14:48:50Z</time>
      </trkpt>
      <trkpt lat="31.48181383498013" lon="-4.216836076229811">
        <ele>818.69995119999999</ele>
        <time>2010-12-30T14:48:57Z</time>
      </trkpt>
      <trkpt lat="31.479844925925136" lon="-4.216702720150352">
        <ele>814.85473630000001</ele>
        <time>2010-12-30T14:49:09Z</time>
      </trkpt>
      <trkpt lat="31.477403864264488" lon="-4.216625690460205">
        <ele>800.91552730000001</ele>
        <time>2010-12-30T14:49:22Z</time>
      </trkpt>
      <trkpt lat="31.475319284945726" lon="-4.216509433463216">
        <ele>799.95434569999998</ele>
        <time>2010-12-30T14:49:34Z</time>
      </trkpt>
      <trkpt lat="31.473382227122784" lon="-4.216389739885926">
        <ele>799.95434569999998</ele>
        <time>2010-12-30T14:49:45Z</time>
      </trkpt>
      <trkpt lat="31.472407830879092" lon="-4.216449335217476">
        <ele>798.51220699999999</ele>
        <time>2010-12-30T14:49:51Z</time>
      </trkpt>
      <trkpt lat="31.471225814893842" lon="-4.216940179467201">
        <ele>792.26367189999996</ele>
        <time>2010-12-30T14:50:00Z</time>
      </trkpt>
      <trkpt lat="31.47017078474164" lon="-4.217331865802407">
        <ele>782.65063480000003</ele>
        <time>2010-12-30T14:50:09Z</time>
      </trkpt>
      <trkpt lat="31.46946762688458" lon="-4.217419624328613">
        <ele>773.51806639999995</ele>
        <time>2010-12-30T14:50:16Z</time>
      </trkpt>
      <trkpt lat="31.469254558905959" lon="-4.217319209128618">
        <ele>767.26953130000004</ele>
        <time>2010-12-30T14:50:20Z</time>
      </trkpt>
      <trkpt lat="31.46907820366323" lon="-4.217171519994736">
        <ele>766.78881839999997</ele>
        <time>2010-12-30T14:50:26Z</time>
      </trkpt>
      <trkpt lat="31.468638572841883" lon="-4.21671093441546">
        <ele>770.15332030000002</ele>
        <time>2010-12-30T14:50:36Z</time>
      </trkpt>
      <trkpt lat="31.468098778277636" lon="-4.21635671518743">
        <ele>769.67285159999994</ele>
        <time>2010-12-30T14:50:43Z</time>
      </trkpt>
      <trkpt lat="31.467688735574484" lon="-4.21644413843751">
        <ele>767.26953130000004</ele>
        <time>2010-12-30T14:50:49Z</time>
      </trkpt>
      <trkpt lat="31.466665975749493" lon="-4.217021064832807">
        <ele>761.02075200000002</ele>
        <time>2010-12-30T14:51:00Z</time>
      </trkpt>
      <trkpt lat="31.466476041823626" lon="-4.217097088694572">
        <ele>758.13696289999996</ele>
        <time>2010-12-30T14:51:02Z</time>
      </trkpt>
      <trkpt lat="31.466095084324479" lon="-4.21715316362679">
        <ele>753.33032230000003</ele>
        <time>2010-12-30T14:51:06Z</time>
      </trkpt>
      <trkpt lat="31.465744972229004" lon="-4.217097759246826">
        <ele>752.36889650000001</ele>
        <time>2010-12-30T14:51:10Z</time>
      </trkpt>
      <trkpt lat="31.464873338118196" lon="-4.216773714870215">
        <ele>760.54003909999994</ele>
        <time>2010-12-30T14:51:18Z</time>
      </trkpt>
      <trkpt lat="31.463874718174338" lon="-4.216593336313963">
        <ele>759.57885739999995</ele>
        <time>2010-12-30T14:51:27Z</time>
      </trkpt>
      <trkpt lat="31.463533658534288" lon="-4.216770697385073">
        <ele>755.73364260000005</ele>
        <time>2010-12-30T14:51:31Z</time>
      </trkpt>
      <trkpt lat="31.463061673566699" lon="-4.217192390933633">
        <ele>740.83300780000002</ele>
        <time>2010-12-30T14:51:39Z</time>
      </trkpt>
      <trkpt lat="31.462643835693598" lon="-4.217538731172681">
        <ele>727.37475589999997</ele>
        <time>2010-12-30T14:51:47Z</time>
      </trkpt>
      <trkpt lat="31.461978061124682" lon="-4.218071736395359">
        <ele>715.35815430000002</ele>
        <time>2010-12-30T14:51:55Z</time>
      </trkpt>
      <trkpt lat="31.461137188598514" lon="-4.218834070488811">
        <ele>706.70629880000001</ele>
        <time>2010-12-30T14:52:04Z</time>
      </trkpt>
      <trkpt lat="31.46013387478888" lon="-4.219973841682077">
        <ele>703.34179689999996</ele>
        <time>2010-12-30T14:52:16Z</time>
      </trkpt>
      <trkpt lat="31.459008101373911" lon="-4.221133897081018">
        <ele>699.97705080000003</ele>
        <time>2010-12-30T14:52:28Z</time>
      </trkpt>
      <trkpt lat="31.458193883299828" lon="-4.221720211207867">
        <ele>701.41918950000002</ele>
        <time>2010-12-30T14:52:35Z</time>
      </trkpt>
      <trkpt lat="31.45748988725245" lon="-4.222121704369783">
        <ele>699.015625</ele>
        <time>2010-12-30T14:52:41Z</time>
      </trkpt>
      <trkpt lat="31.456480706110597" lon="-4.222795106470585">
        <ele>696.13183590000006</ele>
        <time>2010-12-30T14:52:51Z</time>
      </trkpt>
      <trkpt lat="31.4555255882442" lon="-4.22355174086988">
        <ele>693.24780269999997</ele>
        <time>2010-12-30T14:53:00Z</time>
      </trkpt>
      <trkpt lat="31.454240307211876" lon="-4.224628563970327">
        <ele>692.28662110000005</ele>
        <time>2010-12-30T14:53:11Z</time>
      </trkpt>
      <trkpt lat="31.452936166897416" lon="-4.225500281900168">
        <ele>696.13183590000006</ele>
        <time>2010-12-30T14:53:21Z</time>
      </trkpt>
      <trkpt lat="31.452282462269068" lon="-4.225806640461087">
        <ele>697.57373050000001</ele>
        <time>2010-12-30T14:53:26Z</time>
      </trkpt>
      <trkpt lat="31.45121687091887" lon="-4.226094977930188">
        <ele>695.65112299999998</ele>
        <time>2010-12-30T14:53:34Z</time>
      </trkpt>
      <trkpt lat="31.449527498334646" lon="-4.226479288190603">
        <ele>697.57373050000001</ele>
        <time>2010-12-30T14:53:47Z</time>
      </trkpt>
      <trkpt lat="31.448353193700314" lon="-4.226839710026979">
        <ele>697.57373050000001</ele>
        <time>2010-12-30T14:53:56Z</time>
      </trkpt>
      <trkpt lat="31.446784269064665" lon="-4.227573629468679">
        <ele>693.72851560000004</ele>
        <time>2010-12-30T14:54:10Z</time>
      </trkpt>
      <trkpt lat="31.445985641330481" lon="-4.227919466793537">
        <ele>691.80590819999998</ele>
        <time>2010-12-30T14:54:19Z</time>
      </trkpt>
      <trkpt lat="31.445530336350203" lon="-4.228153489530087">
        <ele>694.68969730000003</ele>
        <time>2010-12-30T14:54:28Z</time>
      </trkpt>
      <trkpt lat="31.445309724658728" lon="-4.228300591930747">
        <ele>696.13183590000006</ele>
        <time>2010-12-30T14:54:35Z</time>
      </trkpt>
      <trkpt lat="31.444914098829031" lon="-4.228557161986828">
        <ele>696.61254880000001</ele>
        <time>2010-12-30T14:54:40Z</time>
      </trkpt>
      <trkpt lat="31.443749265745282" lon="-4.229308180510998">
        <ele>698.53491210000004</ele>
        <time>2010-12-30T14:54:52Z</time>
      </trkpt>
      <trkpt lat="31.443044766783714" lon="-4.229758372530341">
        <ele>699.49633789999996</ele>
        <time>2010-12-30T14:55:01Z</time>
      </trkpt>
      <trkpt lat="31.442570518702269" lon="-4.230065485462546">
        <ele>700.45800780000002</ele>
        <time>2010-12-30T14:55:10Z</time>
      </trkpt>
      <trkpt lat="31.442327275872231" lon="-4.230202194303274">
        <ele>700.45800780000002</ele>
        <time>2010-12-30T14:55:18Z</time>
      </trkpt>
      <trkpt lat="31.442041033878922" lon="-4.230314930900931">
        <ele>700.45800780000002</ele>
        <time>2010-12-30T14:55:29Z</time>
      </trkpt>
      <trkpt lat="31.441912958398461" lon="-4.230365389958024">
        <ele>703.34179689999996</ele>
        <time>2010-12-30T14:55:37Z</time>
      </trkpt>
      <trkpt lat="31.441513476893306" lon="-4.230535458773375">
        <ele>788.89916989999995</ele>
        <time>2010-12-30T17:06:20Z</time>
      </trkpt>
      <trkpt lat="31.44136662594974" lon="-4.230602765455842">
        <ele>791.30224610000005</ele>
        <time>2010-12-30T17:06:30Z</time>
      </trkpt>
      <trkpt lat="31.441242825239897" lon="-4.230371676385403">
        <ele>795.14746090000006</ele>
        <time>2010-12-30T17:06:40Z</time>
      </trkpt>
      <trkpt lat="31.441253134980798" lon="-4.23026598058641">
        <ele>802.35742189999996</ele>
        <time>2010-12-30T17:06:46Z</time>
      </trkpt>
      <trkpt lat="31.441359668970108" lon="-4.230195069685578">
        <ele>802.35742189999996</ele>
        <time>2010-12-30T17:06:55Z</time>
      </trkpt>
      <trkpt lat="31.441492438316345" lon="-4.23006372526288">
        <ele>773.99853519999999</ele>
        <time>2010-12-30T17:07:32Z</time>
      </trkpt>
      <trkpt lat="31.441581286489964" lon="-4.230047380551696">
        <ele>774.47924799999998</ele>
        <time>2010-12-30T17:08:15Z</time>
      </trkpt>
      <trkpt lat="31.441545663401484" lon="-4.230155674740672">
        <ele>802.35742189999996</ele>
        <time>2010-12-30T17:09:07Z</time>
      </trkpt>
      <trkpt lat="31.44137148745358" lon="-4.230106472969055">
        <ele>804.28027340000006</ele>
        <time>2010-12-30T17:09:15Z</time>
      </trkpt>
      <trkpt lat="31.441368889063597" lon="-4.229987198486924">
        <ele>794.66674799999998</ele>
        <time>2010-12-30T17:10:01Z</time>
      </trkpt>
      <trkpt lat="31.441487241536379" lon="-4.230051739141345">
        <ele>805.24145510000005</ele>
        <time>2010-12-30T17:11:27Z</time>
      </trkpt>
      <trkpt lat="31.441620262339711" lon="-4.230147460475564">
        <ele>822.06445310000004</ele>
        <time>2010-12-30T17:21:30Z</time>
      </trkpt>
      <trkpt lat="31.441722437739372" lon="-4.230148298665881">
        <ele>813.41284180000002</ele>
        <time>2010-12-30T17:27:22Z</time>
      </trkpt>
      <trkpt lat="31.441822936758399" lon="-4.230118039995432">
        <ele>820.14184569999998</ele>
        <time>2010-12-30T17:28:11Z</time>
      </trkpt>
      <trkpt lat="31.441928716376424" lon="-4.230138491839171">
        <ele>821.10327150000001</ele>
        <time>2010-12-30T17:28:47Z</time>
      </trkpt>
      <trkpt lat="31.441918658092618" lon="-4.230285258963704">
        <ele>816.77734380000004</ele>
        <time>2010-12-30T17:29:33Z</time>
      </trkpt>
      <trkpt lat="31.441710870712996" lon="-4.230431858450174">
        <ele>817.25805660000003</ele>
        <time>2010-12-30T17:30:00Z</time>
      </trkpt>
      <trkpt lat="31.441357070580125" lon="-4.230607291683555">
        <ele>816.77734380000004</ele>
        <time>2010-12-30T17:30:10Z</time>
      </trkpt>
      <trkpt lat="31.440949710085988" lon="-4.23077610321343">
        <ele>816.29663089999997</ele>
        <time>2010-12-30T17:30:22Z</time>
      </trkpt>
      <trkpt lat="31.440488873049617" lon="-4.230954218655825">
        <ele>816.77734380000004</ele>
        <time>2010-12-30T17:30:33Z</time>
      </trkpt>
      <trkpt lat="31.43987582065165" lon="-4.231194276362658">
        <ele>815.81616210000004</ele>
        <time>2010-12-30T17:30:44Z</time>
      </trkpt>
      <trkpt lat="31.439246088266373" lon="-4.231465514749289">
        <ele>813.89331049999998</ele>
        <time>2010-12-30T17:30:55Z</time>
      </trkpt>
      <trkpt lat="31.43877200782299" lon="-4.23170892521739">
        <ele>812.93212889999995</ele>
        <time>2010-12-30T17:31:04Z</time>
      </trkpt>
      <trkpt lat="31.437968602403998" lon="-4.232104299589992">
        <ele>812.45141599999999</ele>
        <time>2010-12-30T17:31:16Z</time>
      </trkpt>
      <trkpt lat="31.437548836693168" lon="-4.232309320941567">
        <ele>811.00927730000001</ele>
        <time>2010-12-30T17:31:24Z</time>
      </trkpt>
      <trkpt lat="31.43734272569418" lon="-4.232410239055753">
        <ele>806.68334960000004</ele>
        <time>2010-12-30T17:32:01Z</time>
      </trkpt>
      <trkpt lat="31.43723719753325" lon="-4.232436390593648">
        <ele>806.20263669999997</ele>
        <time>2010-12-30T17:32:07Z</time>
      </trkpt>
      <trkpt lat="31.437429562211037" lon="-4.232310159131885">
        <ele>808.12548830000003</ele>
        <time>2010-12-30T17:32:21Z</time>
      </trkpt>
      <trkpt lat="31.437525618821383" lon="-4.232287025079131">
        <ele>816.29663089999997</ele>
        <time>2010-12-30T17:33:27Z</time>
      </trkpt>
      <trkpt lat="31.437815297394991" lon="-4.232156686484814">
        <ele>814.37402340000006</ele>
        <time>2010-12-30T17:33:37Z</time>
      </trkpt>
      <trkpt lat="31.438285941258073" lon="-4.231949402019382">
        <ele>813.89331049999998</ele>
        <time>2010-12-30T17:33:48Z</time>
      </trkpt>
      <trkpt lat="31.438950709998608" lon="-4.231617227196693">
        <ele>814.85473630000001</ele>
        <time>2010-12-30T17:34:02Z</time>
      </trkpt>
      <trkpt lat="31.439756965264678" lon="-4.231241131201387">
        <ele>816.29663089999997</ele>
        <time>2010-12-30T17:34:17Z</time>
      </trkpt>
      <trkpt lat="31.440368676558137" lon="-4.231000738218427">
        <ele>817.73852539999996</ele>
        <time>2010-12-30T17:34:28Z</time>
      </trkpt>
      <trkpt lat="31.441184319555759" lon="-4.230685411021113">
        <ele>817.73852539999996</ele>
        <time>2010-12-30T17:34:42Z</time>
      </trkpt>
      <trkpt lat="31.441635098308325" lon="-4.230479719117284">
        <ele>817.73852539999996</ele>
        <time>2010-12-30T17:34:52Z</time>
      </trkpt>
      <trkpt lat="31.441900972276926" lon="-4.2303700838238">
        <ele>817.73852539999996</ele>
        <time>2010-12-30T17:35:01Z</time>
      </trkpt>
      <trkpt lat="31.441967859864235" lon="-4.23024108633399">
        <ele>800.91552730000001</ele>
        <time>2010-12-30T17:38:12Z</time>
      </trkpt>
      <trkpt lat="31.441766861826181" lon="-4.230386763811112">
        <ele>807.1640625</ele>
        <time>2010-12-30T17:38:33Z</time>
      </trkpt>
      <trkpt lat="31.441700225695968" lon="-4.230474438518286">
        <ele>813.41284180000002</ele>
        <time>2010-12-30T17:40:41Z</time>
      </trkpt>
      <trkpt lat="31.441796366125345" lon="-4.230467397719622">
        <ele>803.31884769999999</ele>
        <time>2010-12-30T17:45:47Z</time>
      </trkpt>
      <trkpt lat="31.441693268716335" lon="-4.230517270043492">
        <ele>798.51220699999999</ele>
        <time>2010-12-30T17:52:12Z</time>
      </trkpt>
      <trkpt lat="31.441590087488294" lon="-4.230370838195086">
        <ele>816.29663089999997</ele>
        <time>2010-12-30T17:57:27Z</time>
      </trkpt>
      <trkpt lat="31.441541975364089" lon="-4.230219963937998">
        <ele>836.484375</ele>
        <time>2010-12-30T17:57:45Z</time>
      </trkpt>
      <trkpt lat="31.441511465236545" lon="-4.230105131864548">
        <ele>850.42358400000001</ele>
        <time>2010-12-30T17:59:14Z</time>
      </trkpt>
      <trkpt lat="31.441569468006492" lon="-4.230244774371386">
        <ele>837.44555660000003</ele>
        <time>2010-12-30T18:00:10Z</time>
      </trkpt>
      <trkpt lat="31.441632332280278" lon="-4.230423225089908">
        <ele>813.41284180000002</ele>
        <time>2010-12-30T18:00:29Z</time>
      </trkpt>
      <trkpt lat="31.441545663401484" lon="-4.230575440451503">
        <ele>796.10913089999997</ele>
        <time>2010-12-30T18:01:12Z</time>
      </trkpt>
      <trkpt lat="31.441221786662936" lon="-4.230669233947992">
        <ele>794.66674799999998</ele>
        <time>2010-12-30T18:01:19Z</time>
      </trkpt>
      <trkpt lat="31.440543858334422" lon="-4.230933012440801">
        <ele>791.30224610000005</ele>
        <time>2010-12-30T18:01:30Z</time>
      </trkpt>
      <trkpt lat="31.439998364076018" lon="-4.231145828962326">
        <ele>788.89916989999995</ele>
        <time>2010-12-30T18:01:41Z</time>
      </trkpt>
      <trkpt lat="31.439518835395575" lon="-4.231335092335939">
        <ele>788.89916989999995</ele>
        <time>2010-12-30T18:01:51Z</time>
      </trkpt>
      <trkpt lat="31.438900837674737" lon="-4.231642792001367">
        <ele>786.97631839999997</ele>
        <time>2010-12-30T18:02:02Z</time>
      </trkpt>
      <trkpt lat="31.438334304839373" lon="-4.231925765052438">
        <ele>786.01513669999997</ele>
        <time>2010-12-30T18:02:11Z</time>
      </trkpt>
      <trkpt lat="31.437638774514198" lon="-4.232265232130885">
        <ele>792.26367189999996</ele>
        <time>2010-12-30T18:02:23Z</time>
      </trkpt>
      <trkpt lat="31.436904100701213" lon="-4.232624815776944">
        <ele>795.14746090000006</ele>
        <time>2010-12-30T18:02:35Z</time>
      </trkpt>
      <trkpt lat="31.436474025249481" lon="-4.232835369184613">
        <ele>792.74438480000003</ele>
        <time>2010-12-30T18:02:44Z</time>
      </trkpt>
      <trkpt lat="31.435914197936654" lon="-4.233109625056386">
        <ele>797.0703125</ele>
        <time>2010-12-30T18:02:54Z</time>
      </trkpt>
      <trkpt lat="31.435466185212135" lon="-4.233351359143853">
        <ele>795.62817380000001</ele>
        <time>2010-12-30T18:03:02Z</time>
      </trkpt>
      <trkpt lat="31.435108864679933" lon="-4.23352612182498">
        <ele>793.70556639999995</ele>
        <time>2010-12-30T18:03:09Z</time>
      </trkpt>
      <trkpt lat="31.43444711342454" lon="-4.233866930007935">
        <ele>790.34106450000002</ele>
        <time>2010-12-30T18:03:20Z</time>
      </trkpt>
      <trkpt lat="31.433814698830247" lon="-4.234177814796567">
        <ele>787.45703130000004</ele>
        <time>2010-12-30T18:03:29Z</time>
      </trkpt>
      <trkpt lat="31.432984890416265" lon="-4.23455273732543">
        <ele>787.45703130000004</ele>
        <time>2010-12-30T18:03:39Z</time>
      </trkpt>
      <trkpt lat="31.432321965694427" lon="-4.234857838600874">
        <ele>786.49584960000004</ele>
        <time>2010-12-30T18:03:48Z</time>
      </trkpt>
      <trkpt lat="31.431455528363585" lon="-4.235291434451938">
        <ele>787.45703130000004</ele>
        <time>2010-12-30T18:03:59Z</time>
      </trkpt>
      <trkpt lat="31.430430505424738" lon="-4.235943211242557">
        <ele>786.01513669999997</ele>
        <time>2010-12-30T18:04:12Z</time>
      </trkpt>
      <trkpt lat="31.429400537163019" lon="-4.236592473462224">
        <ele>786.01513669999997</ele>
        <time>2010-12-30T18:04:24Z</time>
      </trkpt>
      <trkpt lat="31.428687740117311" lon="-4.23694166354835">
        <ele>781.20874019999997</ele>
        <time>2010-12-30T18:04:33Z</time>
      </trkpt>
      <trkpt lat="31.428465535864234" lon="-4.23704769462347">
        <ele>738.91064449999999</ele>
        <time>2010-12-30T18:05:36Z</time>
      </trkpt>
      <trkpt lat="31.428331006318331" lon="-4.237123299390078">
        <ele>727.37475589999997</ele>
        <time>2010-12-30T18:05:48Z</time>
      </trkpt>
      <trkpt lat="31.428101593628526" lon="-4.237266713753343">
        <ele>713.43554689999996</ele>
        <time>2010-12-30T18:09:17Z</time>
      </trkpt>
      <trkpt lat="31.427904535084963" lon="-4.237389927729964">
        <ele>708.62890630000004</ele>
        <time>2010-12-30T18:09:24Z</time>
      </trkpt>
      <trkpt lat="31.427729018032551" lon="-4.23749671317637">
        <ele>706.22558590000006</ele>
        <time>2010-12-30T18:09:31Z</time>
      </trkpt>
      <trkpt lat="31.427291398867965" lon="-4.237762419506908">
        <ele>705.26440430000002</ele>
        <time>2010-12-30T18:09:40Z</time>
      </trkpt>
      <trkpt lat="31.426883367821574" lon="-4.238053858280182">
        <ele>705.74511719999998</ele>
        <time>2010-12-30T18:09:49Z</time>
      </trkpt>
      <trkpt lat="31.426738863810897" lon="-4.238157207146287">
        <ele>706.70629880000001</ele>
        <time>2010-12-30T18:09:56Z</time>
      </trkpt>
      <trkpt lat="31.426590923219919" lon="-4.238262819126248">
        <ele>721.60668950000002</ele>
        <time>2010-12-30T18:11:55Z</time>
      </trkpt>
      <trkpt lat="31.426195716485381" lon="-4.238505559042096">
        <ele>722.08740230000001</ele>
        <time>2010-12-30T18:12:02Z</time>
      </trkpt>
      <trkpt lat="31.425779135897756" lon="-4.238757519051433">
        <ele>721.60668950000002</ele>
        <time>2010-12-30T18:12:11Z</time>
      </trkpt>
      <trkpt lat="31.425570677965879" lon="-4.238884337246418">
        <ele>705.74511719999998</ele>
        <time>2010-12-30T18:14:57Z</time>
      </trkpt>
      <trkpt lat="31.425901427865028" lon="-4.238683003932238">
        <ele>748.04321289999996</ele>
        <time>2010-12-30T18:15:13Z</time>
      </trkpt>
      <trkpt lat="31.426123464480042" lon="-4.238548893481493">
        <ele>820.14184569999998</ele>
        <time>2010-12-30T18:15:57Z</time>
      </trkpt>
      <trkpt lat="31.426615566015244" lon="-4.238245217129588">
        <ele>824.46777340000006</ele>
        <time>2010-12-30T18:16:05Z</time>
      </trkpt>
      <trkpt lat="31.427556937560439" lon="-4.237601067870855">
        <ele>840.81005860000005</ele>
        <time>2010-12-30T18:16:17Z</time>
      </trkpt>
      <trkpt lat="31.428556898608804" lon="-4.237004024907947">
        <ele>859.55590819999998</ele>
        <time>2010-12-30T18:16:30Z</time>
      </trkpt>
      <trkpt lat="31.429578317329288" lon="-4.236473869532347">
        <ele>871.09179689999996</ele>
        <time>2010-12-30T18:16:41Z</time>
      </trkpt>
      <trkpt lat="31.430606860667467" lon="-4.235837263986468">
        <ele>879.26293950000002</ele>
        <time>2010-12-30T18:16:53Z</time>
      </trkpt>
      <trkpt lat="31.431575892493129" lon="-4.235224463045597">
        <ele>885.51147460000004</ele>
        <time>2010-12-30T18:17:05Z</time>
      </trkpt>
      <trkpt lat="31.432651123031974" lon="-4.234707467257977">
        <ele>885.9921875</ele>
        <time>2010-12-30T18:17:18Z</time>
      </trkpt>
      <trkpt lat="31.433615125715733" lon="-4.234260460361838">
        <ele>884.55029300000001</ele>
        <time>2010-12-30T18:17:30Z</time>
      </trkpt>
      <trkpt lat="31.434083674103022" lon="-4.234065162017942">
        <ele>886.95336910000003</ele>
        <time>2010-12-30T18:17:38Z</time>
      </trkpt>
      <trkpt lat="31.434414340183139" lon="-4.23388478346169">
        <ele>888.87622069999998</ele>
        <time>2010-12-30T18:17:46Z</time>
      </trkpt>
      <trkpt lat="31.434497404843569" lon="-4.233839521184564">
        <ele>887.91479489999995</ele>
        <time>2010-12-30T18:17:50Z</time>
      </trkpt>
      <trkpt lat="31.434338064864278" lon="-4.233293272554874">
        <ele>883.58886719999998</ele>
        <time>2010-12-30T18:17:54Z</time>
      </trkpt>
      <trkpt lat="31.434001196175814" lon="-4.232558766379952">
        <ele>880.22436519999997</ele>
        <time>2010-12-30T18:18:05Z</time>
      </trkpt>
      <trkpt lat="31.433705817908049" lon="-4.231774220243096">
        <ele>876.85986330000003</ele>
        <time>2010-12-30T18:18:14Z</time>
      </trkpt>
      <trkpt lat="31.433484284207225" lon="-4.23103854060173">
        <ele>860.51733400000001</ele>
        <time>2010-12-30T18:18:24Z</time>
      </trkpt>
      <trkpt lat="31.433250764384866" lon="-4.230478126555681">
        <ele>842.73291019999999</ele>
        <time>2010-12-30T18:18:34Z</time>
      </trkpt>
      <trkpt lat="31.433142889291048" lon="-4.230246199294925">
        <ele>831.67773439999996</ele>
        <time>2010-12-30T18:18:41Z</time>
      </trkpt>
      <trkpt lat="31.433095196262002" lon="-4.230138324201107">
        <ele>826.39038089999997</ele>
        <time>2010-12-30T18:18:47Z</time>
      </trkpt>
      <trkpt lat="31.433127131313086" lon="-4.229685869067907">
        <ele>833.60034180000002</ele>
        <time>2010-12-30T18:18:55Z</time>
      </trkpt>
      <trkpt lat="31.433198628947139" lon="-4.229579837992787">
        <ele>837.92626949999999</ele>
        <time>2010-12-30T18:18:58Z</time>
      </trkpt>
      <trkpt lat="31.433416474610567" lon="-4.229406919330359">
        <ele>854.26879880000001</ele>
        <time>2010-12-30T18:19:08Z</time>
      </trkpt>
      <trkpt lat="31.433440027758479" lon="-4.229258727282286">
        <ele>839.84887700000002</ele>
        <time>2010-12-30T18:19:17Z</time>
      </trkpt>
      <trkpt lat="31.433274820446968" lon="-4.228825718164444">
        <ele>832.15844730000003</ele>
        <time>2010-12-30T18:19:25Z</time>
      </trkpt>
      <trkpt lat="31.433105170726776" lon="-4.228486502543092">
        <ele>825.42895510000005</ele>
        <time>2010-12-30T18:19:33Z</time>
      </trkpt>
      <trkpt lat="31.432887995615602" lon="-4.228063300251961">
        <ele>821.10327150000001</ele>
        <time>2010-12-30T18:19:41Z</time>
      </trkpt>
      <trkpt lat="31.432522125542164" lon="-4.227341786026955">
        <ele>815.33544919999997</ele>
        <time>2010-12-30T18:19:51Z</time>
      </trkpt>
      <trkpt lat="31.432132367044687" lon="-4.22664231620729">
        <ele>811.97070310000004</ele>
        <time>2010-12-30T18:20:02Z</time>
      </trkpt>
      <trkpt lat="31.431843359023333" lon="-4.226101096719503">
        <ele>811.00927730000001</ele>
        <time>2010-12-30T18:20:11Z</time>
      </trkpt>
      <trkpt lat="31.431464664638042" lon="-4.225366339087486">
        <ele>812.93212889999995</ele>
        <time>2010-12-30T18:20:18Z</time>
      </trkpt>
      <trkpt lat="31.431163838133216" lon="-4.224354391917586">
        <ele>815.81616210000004</ele>
        <time>2010-12-30T18:20:25Z</time>
      </trkpt>
      <trkpt lat="31.431012963876128" lon="-4.223033487796783">
        <ele>820.14184569999998</ele>
        <time>2010-12-30T18:20:32Z</time>
      </trkpt>
      <trkpt lat="31.430683974176645" lon="-4.221771340817213">
        <ele>823.98706049999998</ele>
        <time>2010-12-30T18:20:39Z</time>
      </trkpt>
      <trkpt lat="31.429922981187701" lon="-4.219950288534164">
        <ele>823.02587889999995</ele>
        <time>2010-12-30T18:20:49Z</time>
      </trkpt>
      <trkpt lat="31.429141368716955" lon="-4.218432996422052">
        <ele>819.66137700000002</ele>
        <time>2010-12-30T18:20:58Z</time>
      </trkpt>
      <trkpt lat="31.42833192832768" lon="-4.217476788908243">
        <ele>816.77734380000004</ele>
        <time>2010-12-30T18:21:05Z</time>
      </trkpt>
      <trkpt lat="31.426494363695383" lon="-4.215656239539385">
        <ele>812.45141599999999</ele>
        <time>2010-12-30T18:21:18Z</time>
      </trkpt>
      <trkpt lat="31.424383800476789" lon="-4.2134865000844">
        <ele>804.76074219999998</ele>
        <time>2010-12-30T18:21:33Z</time>
      </trkpt>
      <trkpt lat="31.422702977433801" lon="-4.211778435856104">
        <ele>799.95434569999998</ele>
        <time>2010-12-30T18:21:45Z</time>
      </trkpt>
      <trkpt lat="31.420649075880647" lon="-4.20972453430295">
        <ele>791.78295900000001</ele>
        <time>2010-12-30T18:22:00Z</time>
      </trkpt>
      <trkpt lat="31.419167574495077" lon="-4.208301873877645">
        <ele>786.97631839999997</ele>
        <time>2010-12-30T18:22:12Z</time>
      </trkpt>
      <trkpt lat="31.417815489694476" lon="-4.2070590890944">
        <ele>780.24731450000002</ele>
        <time>2010-12-30T18:22:23Z</time>
      </trkpt>
      <trkpt lat="31.415957640856504" lon="-4.205432161688805">
        <ele>761.02075200000002</ele>
        <time>2010-12-30T18:22:37Z</time>
      </trkpt>
      <trkpt lat="31.414352590218186" lon="-4.204064570367336">
        <ele>746.60107419999997</ele>
        <time>2010-12-30T18:22:48Z</time>
      </trkpt>
      <trkpt lat="31.411957964301109" lon="-4.201966328546405">
        <ele>736.50732419999997</ele>
        <time>2010-12-30T18:23:04Z</time>
      </trkpt>
      <trkpt lat="31.409965083003044" lon="-4.200328839942813">
        <ele>732.18139650000001</ele>
        <time>2010-12-30T18:23:16Z</time>
      </trkpt>
      <trkpt lat="31.408137241378427" lon="-4.198737535625696">
        <ele>727.85522460000004</ele>
        <time>2010-12-30T18:23:28Z</time>
      </trkpt>
      <trkpt lat="31.405901536345482" lon="-4.196827299892902">
        <ele>728.3359375</ele>
        <time>2010-12-30T18:23:43Z</time>
      </trkpt>
      <trkpt lat="31.403922569006681" lon="-4.195109261199832">
        <ele>722.56811519999997</ele>
        <time>2010-12-30T18:23:56Z</time>
      </trkpt>
      <trkpt lat="31.401200965046883" lon="-4.192808428779244">
        <ele>717.76147460000004</ele>
        <time>2010-12-30T18:24:12Z</time>
      </trkpt>
      <trkpt lat="31.398501908406615" lon="-4.190508434548974">
        <ele>714.39672849999999</ele>
        <time>2010-12-30T18:24:28Z</time>
      </trkpt>
      <trkpt lat="31.395647786557674" lon="-4.188048765063286">
        <ele>711.03222659999994</ele>
        <time>2010-12-30T18:24:45Z</time>
      </trkpt>
      <trkpt lat="31.392704816535115" lon="-4.185557998716831">
        <ele>708.62890630000004</ele>
        <time>2010-12-30T18:25:02Z</time>
      </trkpt>
      <trkpt lat="31.390464333817363" lon="-4.183631418272853">
        <ele>708.1484375</ele>
        <time>2010-12-30T18:25:16Z</time>
      </trkpt>
      <trkpt lat="31.389044523239136" lon="-4.182115634903312">
        <ele>707.66772460000004</ele>
        <time>2010-12-30T18:25:26Z</time>
      </trkpt>
      <trkpt lat="31.387997958809137" lon="-4.180706469342113">
        <ele>697.09301760000005</ele>
        <time>2010-12-30T18:25:34Z</time>
      </trkpt>
      <trkpt lat="31.386542525142431" lon="-4.178552823141217">
        <ele>689.40258789999996</ele>
        <time>2010-12-30T18:25:46Z</time>
      </trkpt>
      <trkpt lat="31.384740667417645" lon="-4.175879834219813">
        <ele>684.59619139999995</ele>
        <time>2010-12-30T18:26:01Z</time>
      </trkpt>
      <trkpt lat="31.383405262604356" lon="-4.174129860475659">
        <ele>682.19262700000002</ele>
        <time>2010-12-30T18:26:12Z</time>
      </trkpt>
      <trkpt lat="31.382618034258485" lon="-4.173860466107726">
        <ele>686.51879880000001</ele>
        <time>2010-12-30T18:26:17Z</time>
      </trkpt>
      <trkpt lat="31.382437571883202" lon="-4.173860466107726">
        <ele>687.47998050000001</ele>
        <time>2010-12-30T18:26:18Z</time>
      </trkpt>
      <trkpt lat="31.380533622577786" lon="-4.173779496923089">
        <ele>697.09301760000005</ele>
        <time>2010-12-30T18:26:29Z</time>
      </trkpt>
      <trkpt lat="31.379520418122411" lon="-4.17351957410574">
        <ele>702.38037110000005</ele>
        <time>2010-12-30T18:26:35Z</time>
      </trkpt>
      <trkpt lat="31.378669403493404" lon="-4.172931499779224">
        <ele>706.22558590000006</ele>
        <time>2010-12-30T18:26:41Z</time>
      </trkpt>
      <trkpt lat="31.377687798812985" lon="-4.172037737444043">
        <ele>706.70629880000001</ele>
        <time>2010-12-30T18:26:48Z</time>
      </trkpt>
      <trkpt lat="31.375237936154008" lon="-4.169504810124636">
        <ele>706.70629880000001</ele>
        <time>2010-12-30T18:27:05Z</time>
      </trkpt>
      <trkpt lat="31.372609119862318" lon="-4.166844561696053">
        <ele>708.1484375</ele>
        <time>2010-12-30T18:27:22Z</time>
      </trkpt>
      <trkpt lat="31.3716153614223" lon="-4.16551535949111">
        <ele>707.18701169999997</ele>
        <time>2010-12-30T18:27:30Z</time>
      </trkpt>
      <trkpt lat="31.371342781931162" lon="-4.164623441174626">
        <ele>708.62890630000004</ele>
        <time>2010-12-30T18:27:35Z</time>
      </trkpt>
      <trkpt lat="31.371100377291441" lon="-4.163130205124617">
        <ele>713.91601560000004</ele>
        <time>2010-12-30T18:27:43Z</time>
      </trkpt>
      <trkpt lat="31.370764765888453" lon="-4.160769777372479">
        <ele>718.2421875</ele>
        <time>2010-12-30T18:27:55Z</time>
      </trkpt>
      <trkpt lat="31.370444158092141" lon="-4.158132579177618">
        <ele>718.2421875</ele>
        <time>2010-12-30T18:28:08Z</time>
      </trkpt>
      <trkpt lat="31.370205860584974" lon="-4.15619133040309">
        <ele>720.64550780000002</ele>
        <time>2010-12-30T18:28:19Z</time>
      </trkpt>
      <trkpt lat="31.370002264156938" lon="-4.154515117406845">
        <ele>712.47412110000005</ele>
        <time>2010-12-30T18:28:27Z</time>
      </trkpt>
      <trkpt lat="31.369556514546275" lon="-4.151901891455054">
        <ele>701.41918950000002</ele>
        <time>2010-12-30T18:28:39Z</time>
      </trkpt>
      <trkpt lat="31.369127864018083" lon="-4.150640498846769">
        <ele>704.30322269999999</ele>
        <time>2010-12-30T18:28:46Z</time>
      </trkpt>
      <trkpt lat="31.368486899882555" lon="-4.149839859455824">
        <ele>705.74511719999998</ele>
        <time>2010-12-30T18:28:52Z</time>
      </trkpt>
      <trkpt lat="31.367326760664582" lon="-4.148658765479922">
        <ele>705.26440430000002</ele>
        <time>2010-12-30T18:29:02Z</time>
      </trkpt>
      <trkpt lat="31.36560863815248" lon="-4.146959334611893">
        <ele>706.70629880000001</ele>
        <time>2010-12-30T18:29:15Z</time>
      </trkpt>
      <trkpt lat="31.363882217556238" lon="-4.145219167694449">
        <ele>711.51293950000002</ele>
        <time>2010-12-30T18:29:28Z</time>
      </trkpt>
      <trkpt lat="31.362114809453487" lon="-4.14314934052527">
        <ele>710.55151369999999</ele>
        <time>2010-12-30T18:29:42Z</time>
      </trkpt>
      <trkpt lat="31.360794240608811" lon="-4.141606232151389">
        <ele>709.10961910000003</ele>
        <time>2010-12-30T18:29:53Z</time>
      </trkpt>
      <trkpt lat="31.359266303479671" lon="-4.139722986146808">
        <ele>706.70629880000001</ele>
        <time>2010-12-30T18:30:05Z</time>
      </trkpt>
      <trkpt lat="31.35746662504971" lon="-4.137509493157268">
        <ele>706.70629880000001</ele>
        <time>2010-12-30T18:30:18Z</time>
      </trkpt>
      <trkpt lat="31.355485562235117" lon="-4.135459698736668">
        <ele>697.09301760000005</ele>
        <time>2010-12-30T18:30:31Z</time>
      </trkpt>
      <trkpt lat="31.354721384122968" lon="-4.135223999619484">
        <ele>699.015625</ele>
        <time>2010-12-30T18:30:36Z</time>
      </trkpt>
      <trkpt lat="31.354384096339345" lon="-4.135184437036514">
        <ele>699.97705080000003</ele>
        <time>2010-12-30T18:30:38Z</time>
      </trkpt>
      <trkpt lat="31.35196516290307" lon="-4.135176977142692">
        <ele>708.62890630000004</ele>
        <time>2010-12-30T18:30:52Z</time>
      </trkpt>
      <trkpt lat="31.349808918312192" lon="-4.13524285890162">
        <ele>711.99365230000001</ele>
        <time>2010-12-30T18:31:04Z</time>
      </trkpt>
      <trkpt lat="31.347305495291948" lon="-4.135301113128662">
        <ele>713.43554689999996</ele>
        <time>2010-12-30T18:31:17Z</time>
      </trkpt>
      <trkpt lat="31.345904963091016" lon="-4.135104138404131">
        <ele>714.39672849999999</ele>
        <time>2010-12-30T18:31:25Z</time>
      </trkpt>
      <trkpt lat="31.344830235466361" lon="-4.134513884782791">
        <ele>716.80029300000001</ele>
        <time>2010-12-30T18:31:32Z</time>
      </trkpt>
      <trkpt lat="31.343643441796303" lon="-4.133545607328415">
        <ele>715.83886719999998</ele>
        <time>2010-12-30T18:31:40Z</time>
      </trkpt>
      <trkpt lat="31.341784419491887" lon="-4.131859168410301">
        <ele>715.35815430000002</ele>
        <time>2010-12-30T18:31:53Z</time>
      </trkpt>
      <trkpt lat="31.340088341385126" lon="-4.130353527143598">
        <ele>714.87744139999995</ele>
        <time>2010-12-30T18:32:05Z</time>
      </trkpt>
      <trkpt lat="31.337690195068717" lon="-4.128129305317998">
        <ele>713.91601560000004</ele>
        <time>2010-12-30T18:32:22Z</time>
      </trkpt>
      <trkpt lat="31.335404198616743" lon="-4.126051934435964">
        <ele>713.91601560000004</ele>
        <time>2010-12-30T18:32:37Z</time>
      </trkpt>
      <trkpt lat="31.333251809701324" lon="-4.124151673167944">
        <ele>713.43554689999996</ele>
        <time>2010-12-30T18:32:50Z</time>
      </trkpt>
      <trkpt lat="31.33153410628438" lon="-4.122552741318941">
        <ele>713.43554689999996</ele>
        <time>2010-12-30T18:33:01Z</time>
      </trkpt>
      <trkpt lat="31.330647468566895" lon="-4.121747072786093">
        <ele>712.95483400000001</ele>
        <time>2010-12-30T18:33:08Z</time>
      </trkpt>
      <trkpt lat="31.329868789762259" lon="-4.12099739536643">
        <ele>712.47412110000005</ele>
        <time>2010-12-30T18:33:16Z</time>
      </trkpt>
      <trkpt lat="31.329713640734553" lon="-4.120825733989477">
        <ele>712.95483400000001</ele>
        <time>2010-12-30T18:33:21Z</time>
      </trkpt>
      <trkpt lat="31.329411389306188" lon="-4.120472436770797">
        <ele>713.91601560000004</ele>
        <time>2010-12-30T18:33:29Z</time>
      </trkpt>
      <trkpt lat="31.328932028263807" lon="-4.119851924479008">
        <ele>715.35815430000002</ele>
        <time>2010-12-30T18:33:42Z</time>
      </trkpt>
      <trkpt lat="31.328527266159654" lon="-4.119279691949487">
        <ele>716.31958010000005</ele>
        <time>2010-12-30T18:33:54Z</time>
      </trkpt>
      <trkpt lat="31.327682370319963" lon="-4.119354290887713">
        <ele>716.80029300000001</ele>
        <time>2010-12-30T18:34:02Z</time>
      </trkpt>
      <trkpt lat="31.32739637978375" lon="-4.119093026965857">
        <ele>717.28100589999997</ele>
        <time>2010-12-30T18:34:09Z</time>
      </trkpt>
      <trkpt lat="31.327204098924994" lon="-4.118927316740155">
        <ele>717.28100589999997</ele>
        <time>2010-12-30T18:34:20Z</time>
      </trkpt>
      <trkpt lat="31.326865637674928" lon="-4.118593716993928">
        <ele>717.76147460000004</ele>
        <time>2010-12-30T18:34:28Z</time>
      </trkpt>
      <trkpt lat="31.326296338811517" lon="-4.118010587990284">
        <ele>715.35815430000002</ele>
        <time>2010-12-30T18:34:39Z</time>
      </trkpt>
      <trkpt lat="31.325869364663959" lon="-4.117497028782964">
        <ele>713.43554689999996</ele>
        <time>2010-12-30T18:34:47Z</time>
      </trkpt>
      <trkpt lat="31.325380364432931" lon="-4.116795882582665">
        <ele>714.39672849999999</ele>
        <time>2010-12-30T18:34:57Z</time>
      </trkpt>
      <trkpt lat="31.324926484376192" lon="-4.116206634789705">
        <ele>715.35815430000002</ele>
        <time>2010-12-30T18:35:06Z</time>
      </trkpt>
      <trkpt lat="31.324303625151515" lon="-4.11542602814734">
        <ele>716.31958010000005</ele>
        <time>2010-12-30T18:35:17Z</time>
      </trkpt>
      <trkpt lat="31.323860641568899" lon="-4.114905260503292">
        <ele>717.28100589999997</ele>
        <time>2010-12-30T18:35:25Z</time>
      </trkpt>
      <trkpt lat="31.323417741805315" lon="-4.114246023818851">
        <ele>716.80029300000001</ele>
        <time>2010-12-30T18:35:34Z</time>
      </trkpt>
      <trkpt lat="31.323298970237374" lon="-4.113682089373469">
        <ele>716.31958010000005</ele>
        <time>2010-12-30T18:35:41Z</time>
      </trkpt>
      <trkpt lat="31.323115238919854" lon="-4.113335078582168">
        <ele>714.39672849999999</ele>
        <time>2010-12-30T18:35:46Z</time>
      </trkpt>
      <trkpt lat="31.322491373866796" lon="-4.112713728100061">
        <ele>707.18701169999997</ele>
        <time>2010-12-30T18:35:57Z</time>
      </trkpt>
      <trkpt lat="31.321838591247797" lon="-4.111954160034657">
        <ele>705.26440430000002</ele>
        <time>2010-12-30T18:36:07Z</time>
      </trkpt>
      <trkpt lat="31.321758879348636" lon="-4.111852739006281">
        <ele>705.74511719999998</ele>
        <time>2010-12-30T18:36:09Z</time>
      </trkpt>
      <trkpt lat="31.321551091969013" lon="-4.111307077109814">
        <ele>703.34179689999996</ele>
        <time>2010-12-30T18:36:19Z</time>
      </trkpt>
      <trkpt lat="31.321419915184379" lon="-4.11005700007081">
        <ele>698.53491210000004</ele>
        <time>2010-12-30T18:36:33Z</time>
      </trkpt>
      <trkpt lat="31.321160495281219" lon="-4.10983806475997">
        <ele>699.97705080000003</ele>
        <time>2010-12-30T18:36:38Z</time>
      </trkpt>
      <trkpt lat="31.320572337135673" lon="-4.109247140586376">
        <ele>702.86108400000001</ele>
        <time>2010-12-30T18:36:46Z</time>
      </trkpt>
      <trkpt lat="31.319855097681284" lon="-4.108458571135998">
        <ele>707.18701169999997</ele>
        <time>2010-12-30T18:36:56Z</time>
      </trkpt>
      <trkpt lat="31.319060660898685" lon="-4.107658015564084">
        <ele>710.55151369999999</ele>
        <time>2010-12-30T18:37:07Z</time>
      </trkpt>
      <trkpt lat="31.318635866045952" lon="-4.107219474390149">
        <ele>713.43554689999996</ele>
        <time>2010-12-30T18:37:13Z</time>
      </trkpt>
      <trkpt lat="31.318041840568185" lon="-4.106562836095691">
        <ele>718.72290039999996</ele>
        <time>2010-12-30T18:37:22Z</time>
      </trkpt>
      <trkpt lat="31.317384028807282" lon="-4.105767728760839">
        <ele>722.08740230000001</ele>
        <time>2010-12-30T18:37:32Z</time>
      </trkpt>
      <trkpt lat="31.316907266154885" lon="-4.1052171215415">
        <ele>723.52954099999999</ele>
        <time>2010-12-30T18:37:39Z</time>
      </trkpt>
      <trkpt lat="31.316267140209675" lon="-4.104661820456386">
        <ele>724.97143549999998</ele>
        <time>2010-12-30T18:37:47Z</time>
      </trkpt>
      <trkpt lat="31.316046277061105" lon="-4.10451103001833">
        <ele>725.93261719999998</ele>
        <time>2010-12-30T18:37:50Z</time>
      </trkpt>
      <trkpt lat="31.31588576361537" lon="-4.104401394724846">
        <ele>727.37475589999997</ele>
        <time>2010-12-30T18:37:53Z</time>
      </trkpt>
      <trkpt lat="31.315601365640759" lon="-4.104207269847393">
        <ele>729.77783199999999</ele>
        <time>2010-12-30T18:38:00Z</time>
      </trkpt>
      <trkpt lat="31.314973896369338" lon="-4.103550128638744">
        <ele>730.73925780000002</ele>
        <time>2010-12-30T18:38:11Z</time>
      </trkpt>
      <trkpt lat="31.314932489767671" lon="-4.102319832891226">
        <ele>721.12622069999998</ele>
        <time>2010-12-30T18:38:20Z</time>
      </trkpt>
      <trkpt lat="31.31453812122345" lon="-4.101406037807465">
        <ele>723.52954099999999</ele>
        <time>2010-12-30T18:38:30Z</time>
      </trkpt>
      <trkpt lat="31.314238384366035" lon="-4.100749818608165">
        <ele>726.41333010000005</ele>
        <time>2010-12-30T18:38:38Z</time>
      </trkpt>
      <trkpt lat="31.313844434916973" lon="-4.099919172003865">
        <ele>728.81665039999996</ele>
        <time>2010-12-30T18:38:47Z</time>
      </trkpt>
      <trkpt lat="31.313569340854883" lon="-4.099438721314073">
        <ele>730.25854489999995</ele>
        <time>2010-12-30T18:38:53Z</time>
      </trkpt>
      <trkpt lat="31.313422238454223" lon="-4.099058685824275">
        <ele>731.70043950000002</ele>
        <time>2010-12-30T18:38:58Z</time>
      </trkpt>
      <trkpt lat="31.313078664243221" lon="-4.098252430558205">
        <ele>733.62329099999999</ele>
        <time>2010-12-30T18:39:07Z</time>
      </trkpt>
      <trkpt lat="31.312647834420204" lon="-4.097242578864098">
        <ele>735.06542969999998</ele>
        <time>2010-12-30T18:39:17Z</time>
      </trkpt>
      <trkpt lat="31.312383133918047" lon="-4.096653833985329">
        <ele>736.50732419999997</ele>
        <time>2010-12-30T18:39:25Z</time>
      </trkpt>
      <trkpt lat="31.312257824465632" lon="-4.096383769065142">
        <ele>736.98779300000001</ele>
        <time>2010-12-30T18:39:33Z</time>
      </trkpt>
      <trkpt lat="31.311964122578502" lon="-4.095843220129609">
        <ele>738.42993160000003</ele>
        <time>2010-12-30T18:39:41Z</time>
      </trkpt>
      <trkpt lat="31.311742840334773" lon="-4.095454383641481">
        <ele>738.42993160000003</ele>
        <time>2010-12-30T18:39:46Z</time>
      </trkpt>
      <trkpt lat="31.311461459845304" lon="-4.094684841111302">
        <ele>739.87182619999999</ele>
        <time>2010-12-30T18:39:56Z</time>
      </trkpt>
      <trkpt lat="31.311250990256667" lon="-4.094173796474934">
        <ele>741.31372069999998</ele>
        <time>2010-12-30T18:40:04Z</time>
      </trkpt>
      <trkpt lat="31.310805240646005" lon="-4.093712875619531">
        <ele>742.27514650000001</ele>
        <time>2010-12-30T18:40:14Z</time>
      </trkpt>
      <trkpt lat="31.31021766923368" lon="-4.09327307716012">
        <ele>742.75585939999996</ele>
        <time>2010-12-30T18:40:24Z</time>
      </trkpt>
      <trkpt lat="31.309602940455079" lon="-4.093067217618227">
        <ele>741.31372069999998</ele>
        <time>2010-12-30T18:40:33Z</time>
      </trkpt>
      <trkpt lat="31.308871870860457" lon="-4.092778628692031">
        <ele>738.42993160000003</ele>
        <time>2010-12-30T18:40:43Z</time>
      </trkpt>
      <trkpt lat="31.308044996112585" lon="-4.092120984569192">
        <ele>741.79443360000005</ele>
        <time>2010-12-30T18:40:55Z</time>
      </trkpt>
      <trkpt lat="31.30737628787756" lon="-4.091494185850024">
        <ele>744.19775389999995</ele>
        <time>2010-12-30T18:41:05Z</time>
      </trkpt>
      <trkpt lat="31.306541869416833" lon="-4.090982722118497">
        <ele>744.67822269999999</ele>
        <time>2010-12-30T18:41:16Z</time>
      </trkpt>
      <trkpt lat="31.305447863414884" lon="-4.09050989896059">
        <ele>743.23632810000004</ele>
        <time>2010-12-30T18:41:29Z</time>
      </trkpt>
      <trkpt lat="31.304016737267375" lon="-4.090022658929229">
        <ele>740.83300780000002</ele>
        <time>2010-12-30T18:41:46Z</time>
      </trkpt>
      <trkpt lat="31.302910158410668" lon="-4.089702637866139">
        <ele>739.39111330000003</ele>
        <time>2010-12-30T18:41:59Z</time>
      </trkpt>
      <trkpt lat="31.302512688562274" lon="-4.089575987309218">
        <ele>740.83300780000002</ele>
        <time>2010-12-30T18:42:05Z</time>
      </trkpt>
      <trkpt lat="31.301778433844447" lon="-4.089434584602714">
        <ele>738.42993160000003</ele>
        <time>2010-12-30T18:42:15Z</time>
      </trkpt>
      <trkpt lat="31.301126321777701" lon="-4.089450761675835">
        <ele>739.39111330000003</ele>
        <time>2010-12-30T18:42:22Z</time>
      </trkpt>
      <trkpt lat="31.300195259973407" lon="-4.089803891256452">
        <ele>737.94921880000004</ele>
        <time>2010-12-30T18:42:33Z</time>
      </trkpt>
      <trkpt lat="31.299437116831541" lon="-4.090335890650749">
        <ele>736.98779300000001</ele>
        <time>2010-12-30T18:42:44Z</time>
      </trkpt>
      <trkpt lat="31.298670675605536" lon="-4.091232335194945">
        <ele>737.94921880000004</ele>
        <time>2010-12-30T18:42:57Z</time>
      </trkpt>
      <trkpt lat="31.298105986788869" lon="-4.091871036216617">
        <ele>737.46850589999997</ele>
        <time>2010-12-30T18:43:07Z</time>
      </trkpt>
      <trkpt lat="31.297489497810602" lon="-4.092576541006565">
        <ele>737.94921880000004</ele>
        <time>2010-12-30T18:43:19Z</time>
      </trkpt>
      <trkpt lat="31.297022877261043" lon="-4.093200825154781">
        <ele>738.42993160000003</ele>
        <time>2010-12-30T18:43:32Z</time>
      </trkpt>
      <trkpt lat="31.296501271426678" lon="-4.09378906711936">
        <ele>737.94921880000004</ele>
        <time>2010-12-30T18:43:44Z</time>
      </trkpt>
      <trkpt lat="31.295906826853752" lon="-4.094538660719991">
        <ele>737.94921880000004</ele>
        <time>2010-12-30T18:43:59Z</time>
      </trkpt>
      <trkpt lat="31.29553928039968" lon="-4.095495035871863">
        <ele>737.46850589999997</ele>
        <time>2010-12-30T18:44:09Z</time>
      </trkpt>
      <trkpt lat="31.295268964022398" lon="-4.095664769411087">
        <ele>735.54589840000006</ele>
        <time>2010-12-30T18:44:16Z</time>
      </trkpt>
      <trkpt lat="31.294726822525263" lon="-4.096280839294195">
        <ele>734.58471680000002</ele>
        <time>2010-12-30T18:44:27Z</time>
      </trkpt>
      <trkpt lat="31.294353660196066" lon="-4.096681326627731">
        <ele>733.14257810000004</ele>
        <time>2010-12-30T18:44:35Z</time>
      </trkpt>
      <trkpt lat="31.294082924723625" lon="-4.096875870600343">
        <ele>731.21997069999998</ele>
        <time>2010-12-30T18:44:41Z</time>
      </trkpt>
      <trkpt lat="31.293581938371062" lon="-4.096854915842414">
        <ele>728.81665039999996</ele>
        <time>2010-12-30T18:44:47Z</time>
      </trkpt>
      <trkpt lat="31.293283961713314" lon="-4.096564399078488">
        <ele>734.58471680000002</ele>
        <time>2010-12-30T18:44:52Z</time>
      </trkpt>
      <trkpt lat="31.29264710471034" lon="-4.095604838803411">
        <ele>742.75585939999996</ele>
        <time>2010-12-30T18:45:04Z</time>
      </trkpt>
      <trkpt lat="31.292318785563111" lon="-4.09498667344451">
        <ele>748.04321289999996</ele>
        <time>2010-12-30T18:45:13Z</time>
      </trkpt>
      <trkpt lat="31.291946796700358" lon="-4.094320312142372">
        <ele>752.36889650000001</ele>
        <time>2010-12-30T18:45:25Z</time>
      </trkpt>
      <trkpt lat="31.291420161724091" lon="-4.093669038265944">
        <ele>758.13696289999996</ele>
        <time>2010-12-30T18:45:40Z</time>
      </trkpt>
      <trkpt lat="31.291136434301734" lon="-4.093509865924716">
        <ele>760.05932619999999</ele>
        <time>2010-12-30T18:45:49Z</time>
      </trkpt>
      <trkpt lat="31.290964102372527" lon="-4.093507938086987">
        <ele>761.02075200000002</ele>
        <time>2010-12-30T18:45:55Z</time>
      </trkpt>
      <trkpt lat="31.290547270327806" lon="-4.093549009412527">
        <ele>759.09814449999999</ele>
        <time>2010-12-30T18:46:02Z</time>
      </trkpt>
      <trkpt lat="31.290417434647679" lon="-4.093572227284312">
        <ele>758.61743160000003</ele>
        <time>2010-12-30T18:46:04Z</time>
      </trkpt>
      <trkpt lat="31.289892392233014" lon="-4.093656381592155">
        <ele>755.25292969999998</ele>
        <time>2010-12-30T18:46:12Z</time>
      </trkpt>
      <trkpt lat="31.289153359830379" lon="-4.093735925853252">
        <ele>752.36889650000001</ele>
        <time>2010-12-30T18:46:22Z</time>
      </trkpt>
      <trkpt lat="31.288466965779662" lon="-4.094522818922997">
        <ele>748.52368160000003</ele>
        <time>2010-12-30T18:46:30Z</time>
      </trkpt>
      <trkpt lat="31.287824241444468" lon="-4.094939231872559">
        <ele>742.75585939999996</ele>
        <time>2010-12-30T18:46:39Z</time>
      </trkpt>
      <trkpt lat="31.287407577037811" lon="-4.095242321491242">
        <ele>737.94921880000004</ele>
        <time>2010-12-30T18:46:47Z</time>
      </trkpt>
      <trkpt lat="31.286578439176083" lon="-4.095787396654487">
        <ele>731.70043950000002</ele>
        <time>2010-12-30T18:46:59Z</time>
      </trkpt>
      <trkpt lat="31.286288173869252" lon="-4.09598839469254">
        <ele>729.77783199999999</ele>
        <time>2010-12-30T18:47:04Z</time>
      </trkpt>
      <trkpt lat="31.286139059811831" lon="-4.096150835976005">
        <ele>730.73925780000002</ele>
        <time>2010-12-30T18:47:07Z</time>
      </trkpt>
      <trkpt lat="31.285414192825556" lon="-4.096778640523553">
        <ele>732.18139650000001</ele>
        <time>2010-12-30T18:47:17Z</time>
      </trkpt>
      <trkpt lat="31.284610033035278" lon="-4.097408289089799">
        <ele>733.14257810000004</ele>
        <time>2010-12-30T18:47:28Z</time>
      </trkpt>
      <trkpt lat="31.283880975097418" lon="-4.097944479435682">
        <ele>733.14257810000004</ele>
        <time>2010-12-30T18:47:40Z</time>
      </trkpt>
      <trkpt lat="31.283011017367244" lon="-4.09850237891078">
        <ele>731.21997069999998</ele>
        <time>2010-12-30T18:47:53Z</time>
      </trkpt>
      <trkpt lat="31.282229488715529" lon="-4.098995570093393">
        <ele>730.73925780000002</ele>
        <time>2010-12-30T18:48:04Z</time>
      </trkpt>
      <trkpt lat="31.281406888738275" lon="-4.099562941119075">
        <ele>727.85522460000004</ele>
        <time>2010-12-30T18:48:15Z</time>
      </trkpt>
      <trkpt lat="31.280333837494254" lon="-4.100209940224886">
        <ele>724.01000980000003</ele>
        <time>2010-12-30T18:48:28Z</time>
      </trkpt>
      <trkpt lat="31.279683317989111" lon="-4.100752919912338">
        <ele>721.12622069999998</ele>
        <time>2010-12-30T18:48:37Z</time>
      </trkpt>
      <trkpt lat="31.278954595327377" lon="-4.10141022875905">
        <ele>724.49072269999999</ele>
        <time>2010-12-30T18:48:49Z</time>
      </trkpt>
      <trkpt lat="31.278150519356132" lon="-4.102148758247495">
        <ele>727.37475589999997</ele>
        <time>2010-12-30T18:49:02Z</time>
      </trkpt>
      <trkpt lat="31.276856940239668" lon="-4.103338234126568">
        <ele>722.56811519999997</ele>
        <time>2010-12-30T18:49:21Z</time>
      </trkpt>
      <trkpt lat="31.27579721622169" lon="-4.104343475773931">
        <ele>724.97143549999998</ele>
        <time>2010-12-30T18:49:37Z</time>
      </trkpt>
      <trkpt lat="31.274990122765303" lon="-4.104962395504117">
        <ele>727.37475589999997</ele>
        <time>2010-12-30T18:49:48Z</time>
      </trkpt>
      <trkpt lat="31.273650862276554" lon="-4.105749875307083">
        <ele>727.37475589999997</ele>
        <time>2010-12-30T18:50:05Z</time>
      </trkpt>
      <trkpt lat="31.272719465196133" lon="-4.10629402846098">
        <ele>725.45190430000002</ele>
        <time>2010-12-30T18:50:17Z</time>
      </trkpt>
      <trkpt lat="31.271747834980488" lon="-4.107219222933054">
        <ele>737.46850589999997</ele>
        <time>2010-12-30T18:50:31Z</time>
      </trkpt>
      <trkpt lat="31.271166885271668" lon="-4.107704535126686">
        <ele>741.31372069999998</ele>
        <time>2010-12-30T18:50:39Z</time>
      </trkpt>
      <trkpt lat="31.270471019670367" lon="-4.107947694137693">
        <ele>743.71704099999999</ele>
        <time>2010-12-30T18:50:48Z</time>
      </trkpt>
      <trkpt lat="31.269774986431003" lon="-4.108277438208461">
        <ele>750.92700200000002</ele>
        <time>2010-12-30T18:50:56Z</time>
      </trkpt>
      <trkpt lat="31.268730936571956" lon="-4.108888395130634">
        <ele>755.73364260000005</ele>
        <time>2010-12-30T18:51:08Z</time>
      </trkpt>
      <trkpt lat="31.267500389367342" lon="-4.109667241573334">
        <ele>758.13696289999996</ele>
        <time>2010-12-30T18:51:23Z</time>
      </trkpt>
      <trkpt lat="31.266220891848207" lon="-4.110538037493825">
        <ele>760.05932619999999</ele>
        <time>2010-12-30T18:51:38Z</time>
      </trkpt>
      <trkpt lat="31.264850366860628" lon="-4.111510338261724">
        <ele>761.02075200000002</ele>
        <time>2010-12-30T18:51:52Z</time>
      </trkpt>
      <trkpt lat="31.263935063034296" lon="-4.11213168874383">
        <ele>764.38549799999998</ele>
        <time>2010-12-30T18:52:02Z</time>
      </trkpt>
      <trkpt lat="31.263234922662377" lon="-4.112566122785211">
        <ele>761.98217769999997</ele>
        <time>2010-12-30T18:52:12Z</time>
      </trkpt>
      <trkpt lat="31.262546936050057" lon="-4.113001981750131">
        <ele>758.61743160000003</ele>
        <time>2010-12-30T18:52:22Z</time>
      </trkpt>
      <trkpt lat="31.261806562542915" lon="-4.113583099097014">
        <ele>755.73364260000005</ele>
        <time>2010-12-30T18:52:33Z</time>
      </trkpt>
      <trkpt lat="31.261143134906888" lon="-4.114069836214185">
        <ele>750.92700200000002</ele>
        <time>2010-12-30T18:52:43Z</time>
      </trkpt>
      <trkpt lat="31.260435367003083" lon="-4.114707531407476">
        <ele>747.08154300000001</ele>
        <time>2010-12-30T18:52:54Z</time>
      </trkpt>
      <trkpt lat="31.259594494476914" lon="-4.115493334829807">
        <ele>744.19775389999995</ele>
        <time>2010-12-30T18:53:06Z</time>
      </trkpt>
      <trkpt lat="31.258419938385487" lon="-4.116485835984349">
        <ele>738.91064449999999</ele>
        <time>2010-12-30T18:53:22Z</time>
      </trkpt>
      <trkpt lat="31.257832618430257" lon="-4.116901075467467">
        <ele>735.06542969999998</ele>
        <time>2010-12-30T18:53:31Z</time>
      </trkpt>
      <trkpt lat="31.256819581612945" lon="-4.117570538073778">
        <ele>731.21997069999998</ele>
        <time>2010-12-30T18:53:43Z</time>
      </trkpt>
      <trkpt lat="31.254899287596345" lon="-4.118948690593243">
        <ele>734.10400389999995</ele>
        <time>2010-12-30T18:54:02Z</time>
      </trkpt>
      <trkpt lat="31.253510573878884" lon="-4.119975892826915">
        <ele>748.04321289999996</ele>
        <time>2010-12-30T18:54:16Z</time>
      </trkpt>
      <trkpt lat="31.251973668113351" lon="-4.121133768931031">
        <ele>772.55664060000004</ele>
        <time>2010-12-30T18:54:32Z</time>
      </trkpt>
      <trkpt lat="31.251167999580503" lon="-4.121837094426155">
        <ele>781.68920900000001</ele>
        <time>2010-12-30T18:54:42Z</time>
      </trkpt>
      <trkpt lat="31.250400133430958" lon="-4.122483339160681">
        <ele>788.41845699999999</ele>
        <time>2010-12-30T18:54:54Z</time>
      </trkpt>
      <trkpt lat="31.249417271465063" lon="-4.123305771499872">
        <ele>793.70556639999995</ele>
        <time>2010-12-30T18:55:09Z</time>
      </trkpt>
      <trkpt lat="31.248271465301514" lon="-4.124236330389977">
        <ele>795.62817380000001</ele>
        <time>2010-12-30T18:55:26Z</time>
      </trkpt>
      <trkpt lat="31.246889038011432" lon="-4.125392362475395">
        <ele>795.14746090000006</ele>
        <time>2010-12-30T18:55:45Z</time>
      </trkpt>
      <trkpt lat="31.245427569374442" lon="-4.126561218872666">
        <ele>796.10913089999997</ele>
        <time>2010-12-30T18:56:03Z</time>
      </trkpt>
      <trkpt lat="31.243861326947808" lon="-4.127700822427869">
        <ele>795.62817380000001</ele>
        <time>2010-12-30T18:56:20Z</time>
      </trkpt>
      <trkpt lat="31.242442019283772" lon="-4.128844365477562">
        <ele>797.0703125</ele>
        <time>2010-12-30T18:56:35Z</time>
      </trkpt>
      <trkpt lat="31.241313563659787" lon="-4.130202233791351">
        <ele>812.93212889999995</ele>
        <time>2010-12-30T18:56:50Z</time>
      </trkpt>
      <trkpt lat="31.240612166002393" lon="-4.130894327536225">
        <ele>821.10327150000001</ele>
        <time>2010-12-30T18:56:59Z</time>
      </trkpt>
      <trkpt lat="31.239962568506598" lon="-4.131059618666768">
        <ele>818.21923830000003</ele>
        <time>2010-12-30T18:57:07Z</time>
      </trkpt>
      <trkpt lat="31.239734161645174" lon="-4.131115861237049">
        <ele>815.81616210000004</ele>
        <time>2010-12-30T18:57:10Z</time>
      </trkpt>
      <trkpt lat="31.239220267161727" lon="-4.131587259471417">
        <ele>818.69995119999999</ele>
        <time>2010-12-30T18:57:18Z</time>
      </trkpt>
      <trkpt lat="31.239131335169077" lon="-4.131556330248714">
        <ele>815.81616210000004</ele>
        <time>2010-12-30T18:57:24Z</time>
      </trkpt>
      <trkpt lat="31.238623391836882" lon="-4.131378969177604">
        <ele>804.76074219999998</ele>
        <time>2010-12-30T18:57:48Z</time>
      </trkpt>
      <trkpt lat="31.237864661961794" lon="-4.131081579253078">
        <ele>803.79956049999998</ele>
        <time>2010-12-30T18:57:55Z</time>
      </trkpt>
      <trkpt lat="31.236521461978555" lon="-4.130479423329234">
        <ele>801.39624019999997</ele>
        <time>2010-12-30T18:58:05Z</time>
      </trkpt>
      <trkpt lat="31.234967708587646" lon="-4.12969303317368">
        <ele>795.62817380000001</ele>
        <time>2010-12-30T18:58:15Z</time>
      </trkpt>
      <trkpt lat="31.233210023492575" lon="-4.128761636093259">
        <ele>793.70556639999995</ele>
        <time>2010-12-30T18:58:25Z</time>
      </trkpt>
      <trkpt lat="31.230843476951122" lon="-4.127506781369448">
        <ele>791.78295900000001</ele>
        <time>2010-12-30T18:58:38Z</time>
      </trkpt>
      <trkpt lat="31.228250870481133" lon="-4.12610842846334">
        <ele>789.86035159999994</ele>
        <time>2010-12-30T18:58:52Z</time>
      </trkpt>
      <trkpt lat="31.225786004215479" lon="-4.124784171581268">
        <ele>789.86035159999994</ele>
        <time>2010-12-30T18:59:05Z</time>
      </trkpt>
      <trkpt lat="31.223967215046287" lon="-4.12378010340035">
        <ele>789.86035159999994</ele>
        <time>2010-12-30T18:59:15Z</time>
      </trkpt>
      <trkpt lat="31.221331274136901" lon="-4.122402537614107">
        <ele>790.82153319999998</ele>
        <time>2010-12-30T18:59:29Z</time>
      </trkpt>
      <trkpt lat="31.218793233856559" lon="-4.121034191921353">
        <ele>792.26367189999996</ele>
        <time>2010-12-30T18:59:42Z</time>
      </trkpt>
      <trkpt lat="31.216664062812924" lon="-4.119673306122422">
        <ele>791.78295900000001</ele>
        <time>2010-12-30T18:59:53Z</time>
      </trkpt>
      <trkpt lat="31.215530913323164" lon="-4.118478465825319">
        <ele>790.82153319999998</ele>
        <time>2010-12-30T19:00:00Z</time>
      </trkpt>
      <trkpt lat="31.213980009779334" lon="-4.11676193587482">
        <ele>790.34106450000002</ele>
        <time>2010-12-30T19:00:10Z</time>
      </trkpt>
      <trkpt lat="31.212078239768744" lon="-4.114639135077596">
        <ele>791.78295900000001</ele>
        <time>2010-12-30T19:00:23Z</time>
      </trkpt>
      <trkpt lat="31.210256265476346" lon="-4.112678440287709">
        <ele>794.18627930000002</ele>
        <time>2010-12-30T19:00:35Z</time>
      </trkpt>
      <trkpt lat="31.208022069185972" lon="-4.110177112743259">
        <ele>795.14746090000006</ele>
        <time>2010-12-30T19:00:50Z</time>
      </trkpt>
      <trkpt lat="31.20537699200213" lon="-4.107274375855923">
        <ele>798.03173830000003</ele>
        <time>2010-12-30T19:01:07Z</time>
      </trkpt>
      <trkpt lat="31.202901899814606" lon="-4.104552268981934">
        <ele>798.51220699999999</ele>
        <time>2010-12-30T19:01:23Z</time>
      </trkpt>
      <trkpt lat="31.201975280418992" lon="-4.103531436994672">
        <ele>799.95434569999998</ele>
        <time>2010-12-30T19:01:30Z</time>
      </trkpt>
      <trkpt lat="31.200413983315229" lon="-4.102135682478547">
        <ele>800.43505860000005</ele>
        <time>2010-12-30T19:01:41Z</time>
      </trkpt>
      <trkpt lat="31.198466783389449" lon="-4.100730288773775">
        <ele>800.43505860000005</ele>
        <time>2010-12-30T19:01:53Z</time>
      </trkpt>
      <trkpt lat="31.195856826379895" lon="-4.098864728584886">
        <ele>796.10913089999997</ele>
        <time>2010-12-30T19:02:08Z</time>
      </trkpt>
      <trkpt lat="31.192738423123956" lon="-4.096637489274144">
        <ele>795.14746090000006</ele>
        <time>2010-12-30T19:02:25Z</time>
      </trkpt>
      <trkpt lat="31.190108936280012" lon="-4.094782993197441">
        <ele>792.74438480000003</ele>
        <time>2010-12-30T19:02:39Z</time>
      </trkpt>
      <trkpt lat="31.186949964612722" lon="-4.092484172433615">
        <ele>792.26367189999996</ele>
        <time>2010-12-30T19:02:56Z</time>
      </trkpt>
      <trkpt lat="31.184633290395141" lon="-4.090755991637707">
        <ele>793.70556639999995</ele>
        <time>2010-12-30T19:03:09Z</time>
      </trkpt>
      <trkpt lat="31.18236749432981" lon="-4.088839972391725">
        <ele>792.26367189999996</ele>
        <time>2010-12-30T19:03:23Z</time>
      </trkpt>
      <trkpt lat="31.180188534781337" lon="-4.087070384994149">
        <ele>791.30224610000005</ele>
        <time>2010-12-30T19:03:36Z</time>
      </trkpt>
      <trkpt lat="31.178656490519643" lon="-4.085988784208894">
        <ele>794.18627930000002</ele>
        <time>2010-12-30T19:03:45Z</time>
      </trkpt>
      <trkpt lat="31.175472540780902" lon="-4.083879729732871">
        <ele>790.82153319999998</ele>
        <time>2010-12-30T19:04:04Z</time>
      </trkpt>
      <trkpt lat="31.173297436907887" lon="-4.082495039328933">
        <ele>787.45703130000004</ele>
        <time>2010-12-30T19:04:16Z</time>
      </trkpt>
      <trkpt lat="31.171903610229492" lon="-4.081463813781738">
        <ele>793.70556639999995</ele>
        <time>2010-12-30T19:04:25Z</time>
      </trkpt>
      <trkpt lat="31.171075562015176" lon="-4.080504085868597">
        <ele>794.66674799999998</ele>
        <time>2010-12-30T19:04:32Z</time>
      </trkpt>
      <trkpt lat="31.169755915179849" lon="-4.078903896734119">
        <ele>799.95434569999998</ele>
        <time>2010-12-30T19:04:43Z</time>
      </trkpt>
      <trkpt lat="31.16791969165206" lon="-4.076582528650761">
        <ele>812.93212889999995</ele>
        <time>2010-12-30T19:04:58Z</time>
      </trkpt>
      <trkpt lat="31.166148763149977" lon="-4.074346320703626">
        <ele>818.21923830000003</ele>
        <time>2010-12-30T19:05:12Z</time>
      </trkpt>
      <trkpt lat="31.164755523204803" lon="-4.07288258895278">
        <ele>822.54516599999999</ele>
        <time>2010-12-30T19:05:22Z</time>
      </trkpt>
      <trkpt lat="31.162762138992548" lon="-4.07113772816956">
        <ele>822.06445310000004</ele>
        <time>2010-12-30T19:05:35Z</time>
      </trkpt>
      <trkpt lat="31.160228541120887" lon="-4.068882996216416">
        <ele>818.69995119999999</ele>
        <time>2010-12-30T19:05:51Z</time>
      </trkpt>
      <trkpt lat="31.158308833837509" lon="-4.067205274477601">
        <ele>812.45141599999999</ele>
        <time>2010-12-30T19:06:03Z</time>
      </trkpt>
      <trkpt lat="31.155721424147487" lon="-4.064925312995911">
        <ele>804.76074219999998</ele>
        <time>2010-12-30T19:06:19Z</time>
      </trkpt>
      <trkpt lat="31.153413634747267" lon="-4.062873590737581">
        <ele>807.1640625</ele>
        <time>2010-12-30T19:06:33Z</time>
      </trkpt>
      <trkpt lat="31.150950528681278" lon="-4.060753304511309">
        <ele>802.83813480000003</ele>
        <time>2010-12-30T19:06:47Z</time>
      </trkpt>
      <trkpt lat="31.14840536378324" lon="-4.058497063815594">
        <ele>809.08666989999995</ele>
        <time>2010-12-30T19:07:02Z</time>
      </trkpt>
      <trkpt lat="31.14697172306478" lon="-4.057497438043356">
        <ele>813.41284180000002</ele>
        <time>2010-12-30T19:07:10Z</time>
      </trkpt>
      <trkpt lat="31.144764432683587" lon="-4.056291617453098">
        <ele>807.64477539999996</ele>
        <time>2010-12-30T19:07:22Z</time>
      </trkpt>
      <trkpt lat="31.14195641130209" lon="-4.054796285927296">
        <ele>790.82153319999998</ele>
        <time>2010-12-30T19:07:38Z</time>
      </trkpt>
      <trkpt lat="31.139539070427418" lon="-4.053538665175438">
        <ele>775.44042969999998</ele>
        <time>2010-12-30T19:07:51Z</time>
      </trkpt>
      <trkpt lat="31.137421298772097" lon="-4.052368383854628">
        <ele>771.59521480000001</ele>
        <time>2010-12-30T19:08:03Z</time>
      </trkpt>
      <trkpt lat="31.135640228167176" lon="-4.051413685083389">
        <ele>770.63403319999998</ele>
        <time>2010-12-30T19:08:13Z</time>
      </trkpt>
      <trkpt lat="31.133926380425692" lon="-4.050435936078429">
        <ele>770.63403319999998</ele>
        <time>2010-12-30T19:08:23Z</time>
      </trkpt>
      <trkpt lat="31.131790168583393" lon="-4.049172615632415">
        <ele>768.23071289999996</ele>
        <time>2010-12-30T19:08:36Z</time>
      </trkpt>
      <trkpt lat="31.129914298653603" lon="-4.047738974913955">
        <ele>769.19213869999999</ele>
        <time>2010-12-30T19:08:48Z</time>
      </trkpt>
      <trkpt lat="31.12754087895155" lon="-4.045765874907374">
        <ele>766.78881839999997</ele>
        <time>2010-12-30T19:09:04Z</time>
      </trkpt>
      <trkpt lat="31.125400811433792" lon="-4.043934931978583">
        <ele>765.34692380000001</ele>
        <time>2010-12-30T19:09:18Z</time>
      </trkpt>
      <trkpt lat="31.123441625386477" lon="-4.042046992108226">
        <ele>767.26953130000004</ele>
        <time>2010-12-30T19:09:31Z</time>
      </trkpt>
      <trkpt lat="31.121870018541813" lon="-4.040283188223839">
        <ele>766.30810550000001</ele>
        <time>2010-12-30T19:09:42Z</time>
      </trkpt>
      <trkpt lat="31.120381560176611" lon="-4.038479402661324">
        <ele>763.90454099999999</ele>
        <time>2010-12-30T19:09:53Z</time>
      </trkpt>
      <trkpt lat="31.118768882006407" lon="-4.036427764222026">
        <ele>761.98217769999997</ele>
        <time>2010-12-30T19:10:05Z</time>
      </trkpt>
      <trkpt lat="31.116937939077616" lon="-4.033973207697272">
        <ele>761.98217769999997</ele>
        <time>2010-12-30T19:10:19Z</time>
      </trkpt>
      <trkpt lat="31.115550817921758" lon="-4.031912013888359">
        <ele>759.57885739999995</ele>
        <time>2010-12-30T19:10:30Z</time>
      </trkpt>
      <trkpt lat="31.113921962678432" lon="-4.029352264478803">
        <ele>759.09814449999999</ele>
        <time>2010-12-30T19:10:43Z</time>
      </trkpt>
      <trkpt lat="31.112140221521258" lon="-4.026728058233857">
        <ele>759.09814449999999</ele>
        <time>2010-12-30T19:10:57Z</time>
      </trkpt>
      <trkpt lat="31.110269380733371" lon="-4.024186665192246">
        <ele>759.09814449999999</ele>
        <time>2010-12-30T19:11:11Z</time>
      </trkpt>
      <trkpt lat="31.108933640643954" lon="-4.022638192400336">
        <ele>758.61743160000003</ele>
        <time>2010-12-30T19:11:21Z</time>
      </trkpt>
      <trkpt lat="31.107874838635325" lon="-4.022015416994691">
        <ele>755.73364260000005</ele>
        <time>2010-12-30T19:11:28Z</time>
      </trkpt>
      <trkpt lat="31.105676013976336" lon="-4.0208959300071">
        <ele>753.33032230000003</ele>
        <time>2010-12-30T19:11:41Z</time>
      </trkpt>
      <trkpt lat="31.103456234559417" lon="-4.019850622862577">
        <ele>751.40771480000001</ele>
        <time>2010-12-30T19:11:53Z</time>
      </trkpt>
      <trkpt lat="31.101893512532115" lon="-4.019057611003518">
        <ele>751.40771480000001</ele>
        <time>2010-12-30T19:12:02Z</time>
      </trkpt>
      <trkpt lat="31.100645111873746" lon="-4.018156640231609">
        <ele>752.84960939999996</ele>
        <time>2010-12-30T19:12:11Z</time>
      </trkpt>
      <trkpt lat="31.100437911227345" lon="-4.017976261675358">
        <ele>753.33032230000003</ele>
        <time>2010-12-30T19:12:13Z</time>
      </trkpt>
      <trkpt lat="31.100139264017344" lon="-4.017995037138462">
        <ele>753.33032230000003</ele>
        <time>2010-12-30T19:12:18Z</time>
      </trkpt>
      <trkpt lat="31.099527133628726" lon="-4.018104504793882">
        <ele>750.92700200000002</ele>
        <time>2010-12-30T19:12:25Z</time>
      </trkpt>
      <trkpt lat="31.09856522642076" lon="-4.018302904441953">
        <ele>742.75585939999996</ele>
        <time>2010-12-30T19:12:34Z</time>
      </trkpt>
      <trkpt lat="31.097014825791121" lon="-4.018477834761143">
        <ele>739.87182619999999</ele>
        <time>2010-12-30T19:12:47Z</time>
      </trkpt>
      <trkpt lat="31.095941020175815" lon="-4.018296282738447">
        <ele>742.27514650000001</ele>
        <time>2010-12-30T19:12:55Z</time>
      </trkpt>
      <trkpt lat="31.094882469624281" lon="-4.017787668853998">
        <ele>742.75585939999996</ele>
        <time>2010-12-30T19:13:03Z</time>
      </trkpt>
      <trkpt lat="31.093139369040728" lon="-4.016712438315153">
        <ele>742.27514650000001</ele>
        <time>2010-12-30T19:13:15Z</time>
      </trkpt>
      <trkpt lat="31.091437004506588" lon="-4.01560946367681">
        <ele>742.75585939999996</ele>
        <time>2010-12-30T19:13:27Z</time>
      </trkpt>
      <trkpt lat="31.089477315545082" lon="-4.014277160167694">
        <ele>744.67822269999999</ele>
        <time>2010-12-30T19:13:42Z</time>
      </trkpt>
      <trkpt lat="31.087698675692081" lon="-4.0132200345397">
        <ele>745.63964840000006</ele>
        <time>2010-12-30T19:13:54Z</time>
      </trkpt>
      <trkpt lat="31.085934117436409" lon="-4.012170117348433">
        <ele>746.60107419999997</ele>
        <time>2010-12-30T19:14:06Z</time>
      </trkpt>
      <trkpt lat="31.083395574241877" lon="-4.010706217959523">
        <ele>747.56225589999997</ele>
        <time>2010-12-30T19:14:23Z</time>
      </trkpt>
      <trkpt lat="31.082299472764134" lon="-4.010438919067383">
        <ele>748.04321289999996</ele>
        <time>2010-12-30T19:14:30Z</time>
      </trkpt>
      <trkpt lat="31.081027770414948" lon="-4.010513685643673">
        <ele>748.04321289999996</ele>
        <time>2010-12-30T19:14:38Z</time>
      </trkpt>
      <trkpt lat="31.079414002597332" lon="-4.010628098621965">
        <ele>749.00439449999999</ele>
        <time>2010-12-30T19:14:49Z</time>
      </trkpt>
      <trkpt lat="31.077747764065862" lon="-4.010777967050672">
        <ele>749.48510739999995</ele>
        <time>2010-12-30T19:15:00Z</time>
      </trkpt>
      <trkpt lat="31.075931573286653" lon="-4.010989861562848">
        <ele>751.88842769999997</ele>
        <time>2010-12-30T19:15:12Z</time>
      </trkpt>
      <trkpt lat="31.073985211551189" lon="-4.011370986700058">
        <ele>752.36889650000001</ele>
        <time>2010-12-30T19:15:24Z</time>
      </trkpt>
      <trkpt lat="31.071823518723249" lon="-4.011759404093027">
        <ele>751.88842769999997</ele>
        <time>2010-12-30T19:15:36Z</time>
      </trkpt>
      <trkpt lat="31.068612160161138" lon="-4.01240648701787">
        <ele>737.46850589999997</ele>
        <time>2010-12-30T19:15:53Z</time>
      </trkpt>
      <trkpt lat="31.064879698678851" lon="-4.01320000179112">
        <ele>731.70043950000002</ele>
        <time>2010-12-30T19:16:12Z</time>
      </trkpt>
      <trkpt lat="31.061692228540778" lon="-4.013776760548353">
        <ele>730.73925780000002</ele>
        <time>2010-12-30T19:16:28Z</time>
      </trkpt>
      <trkpt lat="31.059959605336189" lon="-4.013959234580398">
        <ele>732.66210939999996</ele>
        <time>2010-12-30T19:16:37Z</time>
      </trkpt>
      <trkpt lat="31.0586051736027" lon="-4.013829566538334">
        <ele>734.10400389999995</ele>
        <time>2010-12-30T19:16:44Z</time>
      </trkpt>
      <trkpt lat="31.055828584358096" lon="-4.013468222692609">
        <ele>735.54589840000006</ele>
        <time>2010-12-30T19:16:58Z</time>
      </trkpt>
      <trkpt lat="31.054064109921455" lon="-4.012878639623523">
        <ele>734.58471680000002</ele>
        <time>2010-12-30T19:17:08Z</time>
      </trkpt>
      <trkpt lat="31.052897516638041" lon="-4.012150587514043">
        <ele>736.50732419999997</ele>
        <time>2010-12-30T19:17:15Z</time>
      </trkpt>
      <trkpt lat="31.051558339968324" lon="-4.011109974235296">
        <ele>739.87182619999999</ele>
        <time>2010-12-30T19:17:24Z</time>
      </trkpt>
      <trkpt lat="31.050571287050843" lon="-4.010429615154862">
        <ele>742.75585939999996</ele>
        <time>2010-12-30T19:17:33Z</time>
      </trkpt>
      <trkpt lat="31.049637040123343" lon="-4.009757302701473">
        <ele>745.15893549999998</ele>
        <time>2010-12-30T19:17:44Z</time>
      </trkpt>
      <trkpt lat="31.049434365704656" lon="-4.009589832276106">
        <ele>745.63964840000006</ele>
        <time>2010-12-30T19:17:47Z</time>
      </trkpt>
      <trkpt lat="31.049296986311674" lon="-4.009237037971616">
        <ele>745.15893549999998</ele>
        <time>2010-12-30T19:17:54Z</time>
      </trkpt>
      <trkpt lat="31.049116440117359" lon="-4.008661285042763">
        <ele>745.15893549999998</ele>
        <time>2010-12-30T19:18:03Z</time>
      </trkpt>
      <trkpt lat="31.048782002180815" lon="-4.007705161347985">
        <ele>746.12036130000001</ele>
        <time>2010-12-30T19:18:16Z</time>
      </trkpt>
      <trkpt lat="31.048523420467973" lon="-4.006960680708289">
        <ele>747.08154300000001</ele>
        <time>2010-12-30T19:18:27Z</time>
      </trkpt>
      <trkpt lat="31.048288391903043" lon="-4.006311502307653">
        <ele>747.08154300000001</ele>
        <time>2010-12-30T19:18:38Z</time>
      </trkpt>
      <trkpt lat="31.048145228996873" lon="-4.005915960296989">
        <ele>747.56225589999997</ele>
        <time>2010-12-30T19:18:45Z</time>
      </trkpt>
      <trkpt lat="31.048002988100052" lon="-4.005507258698344">
        <ele>748.04321289999996</ele>
        <time>2010-12-30T19:18:51Z</time>
      </trkpt>
      <trkpt lat="31.047685900703073" lon="-4.004616430029273">
        <ele>747.56225589999997</ele>
        <time>2010-12-30T19:19:03Z</time>
      </trkpt>
      <trkpt lat="31.047171084210277" lon="-4.003353277221322">
        <ele>747.56225589999997</ele>
        <time>2010-12-30T19:19:21Z</time>
      </trkpt>
      <trkpt lat="31.046951562166214" lon="-4.002760760486126">
        <ele>747.08154300000001</ele>
        <time>2010-12-30T19:19:30Z</time>
      </trkpt>
      <trkpt lat="31.046836394816637" lon="-4.002388017252088">
        <ele>747.56225589999997</ele>
        <time>2010-12-30T19:19:36Z</time>
      </trkpt>
      <trkpt lat="31.046701865270734" lon="-4.001323180273175">
        <ele>747.56225589999997</ele>
        <time>2010-12-30T19:19:49Z</time>
      </trkpt>
      <trkpt lat="31.046656686812639" lon="-4.001047918573022">
        <ele>747.08154300000001</ele>
        <time>2010-12-30T19:19:52Z</time>
      </trkpt>
      <trkpt lat="31.04673882946372" lon="-3.999885264784098">
        <ele>748.04321289999996</ele>
        <time>2010-12-30T19:20:05Z</time>
      </trkpt>
      <trkpt lat="31.046589631587267" lon="-3.998474339023233">
        <ele>748.52368160000003</ele>
        <time>2010-12-30T19:20:20Z</time>
      </trkpt>
      <trkpt lat="31.046512434259057" lon="-3.99779892526567">
        <ele>749.00439449999999</ele>
        <time>2010-12-30T19:20:29Z</time>
      </trkpt>
      <trkpt lat="31.046438673511147" lon="-3.997348062694073">
        <ele>748.04321289999996</ele>
        <time>2010-12-30T19:20:38Z</time>
      </trkpt>
      <trkpt lat="31.046349741518497" lon="-3.996831737458706">
        <ele>749.48510739999995</ele>
        <time>2010-12-30T19:20:50Z</time>
      </trkpt>
      <trkpt lat="31.046240441501141" lon="-3.996641887351871">
        <ele>746.60107419999997</ele>
        <time>2010-12-30T19:20:59Z</time>
      </trkpt>
      <trkpt lat="31.046144384890795" lon="-3.996630236506462">
        <ele>737.94921880000004</ele>
        <time>2010-12-30T19:21:34Z</time>
      </trkpt>
      <trkpt lat="31.045948583632708" lon="-3.997210264205933">
        <ele>691.80590819999998</ele>
        <time>2010-12-30T21:30:27Z</time>
      </trkpt>
    </trkseg>
  </trk>

  <trk>
    <name>101231</name>
    <extensions>
      <gpxx:TrackExtension xmlns:gpxx="http://www.garmin.com/xmlschemas/GpxExtensions/v3">
        <gpxx:DisplayColor>Red</gpxx:DisplayColor>
      </gpxx:TrackExtension>
    </extensions>
    <trkseg>
      <trkpt lat="31.046269023790956" lon="-3.996849004179239">
        <ele>706.5</ele>
        <time>2010-12-31T09:40:26Z</time>
      </trkpt>
      <trkpt lat="31.045628981664777" lon="-3.996741967275739">
        <ele>679.20000000000005</ele>
        <time>2010-12-31T10:01:20Z</time>
      </trkpt>
      <trkpt lat="31.045728977769613" lon="-3.996861996129155">
        <ele>676.39999999999998</ele>
        <time>2010-12-31T10:02:11Z</time>
      </trkpt>
      <trkpt lat="31.045825034379959" lon="-3.996880017220974">
        <ele>677.70000000000005</ele>
        <time>2010-12-31T10:02:24Z</time>
      </trkpt>
      <trkpt lat="31.04591597802937" lon="-3.996896026656032">
        <ele>678.70000000000005</ele>
        <time>2010-12-31T10:02:32Z</time>
      </trkpt>
      <trkpt lat="31.046009017154574" lon="-3.996898960322142">
        <ele>680.29999999999995</ele>
        <time>2010-12-31T10:02:40Z</time>
      </trkpt>
      <trkpt lat="31.04610800743103" lon="-3.996885968372226">
        <ele>682.39999999999998</ele>
        <time>2010-12-31T10:02:46Z</time>
      </trkpt>
      <trkpt lat="31.046202974393964" lon="-3.996865013614297">
        <ele>689.89999999999998</ele>
        <time>2010-12-31T10:02:53Z</time>
      </trkpt>
      <trkpt lat="31.046205991879106" lon="-3.996744984760881">
        <ele>701.10000000000002</ele>
        <time>2010-12-31T10:03:14Z</time>
      </trkpt>
      <trkpt lat="31.04617103934288" lon="-3.996648006141186">
        <ele>697.70000000000005</ele>
        <time>2010-12-31T10:03:22Z</time>
      </trkpt>
      <trkpt lat="31.046138014644384" lon="-3.996544992551208">
        <ele>690.5</ele>
        <time>2010-12-31T10:03:35Z</time>
      </trkpt>
      <trkpt lat="31.046189982444048" lon="-3.996711038053036">
        <ele>690.79999999999995</ele>
        <time>2010-12-31T10:06:28Z</time>
      </trkpt>
      <trkpt lat="31.04623700492084" lon="-3.996841963380575">
        <ele>697.5</ele>
        <time>2010-12-31T10:06:40Z</time>
      </trkpt>
      <trkpt lat="31.046532969921827" lon="-3.996832994744182">
        <ele>713.60000000000002</ele>
        <time>2010-12-31T10:07:31Z</time>
      </trkpt>
      <trkpt lat="31.046627014875412" lon="-3.996777003630996">
        <ele>709.29999999999995</ele>
        <time>2010-12-31T10:07:44Z</time>
      </trkpt>
      <trkpt lat="31.046688035130501" lon="-3.996687987819314">
        <ele>707.5</ele>
        <time>2010-12-31T10:07:47Z</time>
      </trkpt>
      <trkpt lat="31.046712007373571" lon="-3.996558990329504">
        <ele>706.79999999999995</ele>
        <time>2010-12-31T10:07:50Z</time>
      </trkpt>
      <trkpt lat="31.046756012365222" lon="-3.996080970391631">
        <ele>710.89999999999998</ele>
        <time>2010-12-31T10:08:05Z</time>
      </trkpt>
      <trkpt lat="31.046746037900448" lon="-3.995866980403662">
        <ele>717</ele>
        <time>2010-12-31T10:08:12Z</time>
      </trkpt>
      <trkpt lat="31.046713013201952" lon="-3.995761033147574">
        <ele>717.10000000000002</ele>
        <time>2010-12-31T10:08:16Z</time>
      </trkpt>
      <trkpt lat="31.04668602347374" lon="-3.995644021779299">
        <ele>717.10000000000002</ele>
        <time>2010-12-31T10:08:20Z</time>
      </trkpt>
      <trkpt lat="31.046635983511806" lon="-3.995529022067785">
        <ele>717.5</ele>
        <time>2010-12-31T10:08:24Z</time>
      </trkpt>
      <trkpt lat="31.046440014615655" lon="-3.99528200738132">
        <ele>718.20000000000005</ele>
        <time>2010-12-31T10:08:34Z</time>
      </trkpt>
      <trkpt lat="31.046380000188947" lon="-3.994973972439766">
        <ele>714.39999999999998</ele>
        <time>2010-12-31T10:08:41Z</time>
      </trkpt>
      <trkpt lat="31.046326020732522" lon="-3.994778003543615">
        <ele>712.60000000000002</ele>
        <time>2010-12-31T10:08:45Z</time>
      </trkpt>
      <trkpt lat="31.046311017125845" lon="-3.994603995233774">
        <ele>710.79999999999995</ele>
        <time>2010-12-31T10:08:49Z</time>
      </trkpt>
      <trkpt lat="31.046329960227013" lon="-3.994456976652145">
        <ele>709.20000000000005</ele>
        <time>2010-12-31T10:08:52Z</time>
      </trkpt>
      <trkpt lat="31.046382011845708" lon="-3.994341976940632">
        <ele>708.10000000000002</ele>
        <time>2010-12-31T10:08:54Z</time>
      </trkpt>
      <trkpt lat="31.046473039314151" lon="-3.994232006371021">
        <ele>707.20000000000005</ele>
        <time>2010-12-31T10:08:56Z</time>
      </trkpt>
      <trkpt lat="31.047141999006271" lon="-3.993729008361697">
        <ele>705</ele>
        <time>2010-12-31T10:09:07Z</time>
      </trkpt>
      <trkpt lat="31.047490015625954" lon="-3.993519963696599">
        <ele>704.39999999999998</ele>
        <time>2010-12-31T10:09:12Z</time>
      </trkpt>
      <trkpt lat="31.047720015048981" lon="-3.993387026712298">
        <ele>704.20000000000005</ele>
        <time>2010-12-31T10:09:15Z</time>
      </trkpt>
      <trkpt lat="31.047937022522092" lon="-3.99324000813067">
        <ele>704.79999999999995</ele>
        <time>2010-12-31T10:09:37Z</time>
      </trkpt>
      <trkpt lat="31.048069037497044" lon="-3.993216035887599">
        <ele>704.20000000000005</ele>
        <time>2010-12-31T10:09:41Z</time>
      </trkpt>
      <trkpt lat="31.048194011673331" lon="-3.993158033117652">
        <ele>703.70000000000005</ele>
        <time>2010-12-31T10:09:43Z</time>
      </trkpt>
      <trkpt lat="31.050148000940681" lon="-3.992004012688994">
        <ele>701.5</ele>
        <time>2010-12-31T10:10:03Z</time>
      </trkpt>
      <trkpt lat="31.051469994708896" lon="-3.991119973361492">
        <ele>702.20000000000005</ele>
        <time>2010-12-31T10:10:16Z</time>
      </trkpt>
      <trkpt lat="31.051578959450126" lon="-3.991075968369842">
        <ele>702.20000000000005</ele>
        <time>2010-12-31T10:10:17Z</time>
      </trkpt>
      <trkpt lat="31.05180099606514" lon="-3.990998016670346">
        <ele>702.29999999999995</ele>
        <time>2010-12-31T10:10:19Z</time>
      </trkpt>
      <trkpt lat="31.051918007433414" lon="-3.990969015285373">
        <ele>702.29999999999995</ele>
        <time>2010-12-31T10:10:20Z</time>
      </trkpt>
      <trkpt lat="31.05248998850584" lon="-3.990827025845647">
        <ele>702.39999999999998</ele>
        <time>2010-12-31T10:10:25Z</time>
      </trkpt>
      <trkpt lat="31.052599959075451" lon="-3.990776985883713">
        <ele>702.39999999999998</ele>
        <time>2010-12-31T10:10:26Z</time>
      </trkpt>
      <trkpt lat="31.053221980109811" lon="-3.990421006456018">
        <ele>702.60000000000002</ele>
        <time>2010-12-31T10:10:32Z</time>
      </trkpt>
      <trkpt lat="31.053318036720157" lon="-3.990355040878058">
        <ele>702.60000000000002</ele>
        <time>2010-12-31T10:10:33Z</time>
      </trkpt>
      <trkpt lat="31.053509982302785" lon="-3.990206010639668">
        <ele>702.5</ele>
        <time>2010-12-31T10:10:35Z</time>
      </trkpt>
      <trkpt lat="31.053682984784245" lon="-3.990044994279742">
        <ele>702.70000000000005</ele>
        <time>2010-12-31T10:10:37Z</time>
      </trkpt>
      <trkpt lat="31.053912984207273" lon="-3.989791022613645">
        <ele>702.89999999999998</ele>
        <time>2010-12-31T10:10:40Z</time>
      </trkpt>
      <trkpt lat="31.053986996412277" lon="-3.989694966003299">
        <ele>702.89999999999998</ele>
        <time>2010-12-31T10:10:41Z</time>
      </trkpt>
      <trkpt lat="31.055136993527412" lon="-3.98810500279069">
        <ele>704.10000000000002</ele>
        <time>2010-12-31T10:10:57Z</time>
      </trkpt>
      <trkpt lat="31.055223997682333" lon="-3.988016992807388">
        <ele>704</ele>
        <time>2010-12-31T10:10:58Z</time>
      </trkpt>
      <trkpt lat="31.056294031441212" lon="-3.986806981265545">
        <ele>703.79999999999995</ele>
        <time>2010-12-31T10:11:10Z</time>
      </trkpt>
      <trkpt lat="31.056379023939371" lon="-3.986685024574399">
        <ele>703.89999999999998</ele>
        <time>2010-12-31T10:11:11Z</time>
      </trkpt>
      <trkpt lat="31.056451024487615" lon="-3.98655803874135">
        <ele>703.79999999999995</ele>
        <time>2010-12-31T10:11:12Z</time>
      </trkpt>
      <trkpt lat="31.056636013090611" lon="-3.986144978553057">
        <ele>703.79999999999995</ele>
        <time>2010-12-31T10:11:15Z</time>
      </trkpt>
      <trkpt lat="31.056745983660221" lon="-3.985853958874941">
        <ele>703.89999999999998</ele>
        <time>2010-12-31T10:11:17Z</time>
      </trkpt>
      <trkpt lat="31.056792000308633" lon="-3.985704006627202">
        <ele>704</ele>
        <time>2010-12-31T10:11:18Z</time>
      </trkpt>
      <trkpt lat="31.056827958673239" lon="-3.985555982217193">
        <ele>704</ele>
        <time>2010-12-31T10:11:19Z</time>
      </trkpt>
      <trkpt lat="31.056877998635173" lon="-3.98526999168098">
        <ele>704</ele>
        <time>2010-12-31T10:11:21Z</time>
      </trkpt>
      <trkpt lat="31.057082014158368" lon="-3.983520017936826">
        <ele>704.29999999999995</ele>
        <time>2010-12-31T10:11:35Z</time>
      </trkpt>
      <trkpt lat="31.057120990008116" lon="-3.983382973819971">
        <ele>704.20000000000005</ele>
        <time>2010-12-31T10:11:36Z</time>
      </trkpt>
      <trkpt lat="31.057313019409776" lon="-3.982704039663076">
        <ele>704</ele>
        <time>2010-12-31T10:11:41Z</time>
      </trkpt>
      <trkpt lat="31.057331040501595" lon="-3.982566995546222">
        <ele>704.20000000000005</ele>
        <time>2010-12-31T10:11:42Z</time>
      </trkpt>
      <trkpt lat="31.057339003309608" lon="-3.982433974742889">
        <ele>704.20000000000005</ele>
        <time>2010-12-31T10:11:43Z</time>
      </trkpt>
      <trkpt lat="31.057331962510943" lon="-3.981948997825384">
        <ele>704.60000000000002</ele>
        <time>2010-12-31T10:11:47Z</time>
      </trkpt>
      <trkpt lat="31.057306984439492" lon="-3.981721010059118">
        <ele>704.79999999999995</ele>
        <time>2010-12-31T10:11:49Z</time>
      </trkpt>
      <trkpt lat="31.057091988623142" lon="-3.978362968191505">
        <ele>705</ele>
        <time>2010-12-31T10:12:17Z</time>
      </trkpt>
      <trkpt lat="31.057094000279903" lon="-3.978236988186836">
        <ele>705.10000000000002</ele>
        <time>2010-12-31T10:12:18Z</time>
      </trkpt>
      <trkpt lat="31.057111015543342" lon="-3.977784030139446">
        <ele>705.39999999999998</ele>
        <time>2010-12-31T10:12:22Z</time>
      </trkpt>
      <trkpt lat="31.056946981698275" lon="-3.977085985243321">
        <ele>705.10000000000002</ele>
        <time>2010-12-31T10:12:28Z</time>
      </trkpt>
      <trkpt lat="31.05693600140512" lon="-3.976948019117117">
        <ele>705.10000000000002</ele>
        <time>2010-12-31T10:12:29Z</time>
      </trkpt>
      <trkpt lat="31.056910017505288" lon="-3.976667979732156">
        <ele>705.10000000000002</ele>
        <time>2010-12-31T10:12:31Z</time>
      </trkpt>
      <trkpt lat="31.056884033605456" lon="-3.976529007777572">
        <ele>705.20000000000005</ele>
        <time>2010-12-31T10:12:32Z</time>
      </trkpt>
      <trkpt lat="31.056719999760389" lon="-3.975873962044716">
        <ele>705.70000000000005</ele>
        <time>2010-12-31T10:12:37Z</time>
      </trkpt>
      <trkpt lat="31.056706001982093" lon="-3.97575200535357">
        <ele>705.79999999999995</ele>
        <time>2010-12-31T10:12:38Z</time>
      </trkpt>
      <trkpt lat="31.056708013638854" lon="-3.975637005642057">
        <ele>705.70000000000005</ele>
        <time>2010-12-31T10:12:39Z</time>
      </trkpt>
      <trkpt lat="31.056738020852208" lon="-3.975126966834068">
        <ele>705.29999999999995</ele>
        <time>2010-12-31T10:12:43Z</time>
      </trkpt>
      <trkpt lat="31.056753024458885" lon="-3.974984977394342">
        <ele>705.29999999999995</ele>
        <time>2010-12-31T10:12:44Z</time>
      </trkpt>
      <trkpt lat="31.056842040270567" lon="-3.97405399940908">
        <ele>705.29999999999995</ele>
        <time>2010-12-31T10:12:51Z</time>
      </trkpt>
      <trkpt lat="31.056865006685257" lon="-3.973934976384044">
        <ele>705.39999999999998</ele>
        <time>2010-12-31T10:12:52Z</time>
      </trkpt>
      <trkpt lat="31.057016970589757" lon="-3.973160991445184">
        <ele>705.10000000000002</ele>
        <time>2010-12-31T10:12:58Z</time>
      </trkpt>
      <trkpt lat="31.05702199973166" lon="-3.97302302531898">
        <ele>705.20000000000005</ele>
        <time>2010-12-31T10:12:59Z</time>
      </trkpt>
      <trkpt lat="31.057086959481239" lon="-3.971546972170472">
        <ele>705.89999999999998</ele>
        <time>2010-12-31T10:13:09Z</time>
      </trkpt>
      <trkpt lat="31.05710900388658" lon="-3.971401965245605">
        <ele>706</ele>
        <time>2010-12-31T10:13:10Z</time>
      </trkpt>
      <trkpt lat="31.057135993614793" lon="-3.97126198746264">
        <ele>706.10000000000002</ele>
        <time>2010-12-31T10:13:11Z</time>
      </trkpt>
      <trkpt lat="31.057207994163036" lon="-3.970987983047962">
        <ele>706.29999999999995</ele>
        <time>2010-12-31T10:13:13Z</time>
      </trkpt>
      <trkpt lat="31.057351995259523" lon="-3.970576012507081">
        <ele>706.60000000000002</ele>
        <time>2010-12-31T10:13:16Z</time>
      </trkpt>
      <trkpt lat="31.057463977485895" lon="-3.970306031405926">
        <ele>706.89999999999998</ele>
        <time>2010-12-31T10:13:18Z</time>
      </trkpt>
      <trkpt lat="31.058284984901547" lon="-3.968464024364948">
        <ele>707.79999999999995</ele>
        <time>2010-12-31T10:13:32Z</time>
      </trkpt>
      <trkpt lat="31.058320021256804" lon="-3.968336032703519">
        <ele>707.89999999999998</ele>
        <time>2010-12-31T10:13:33Z</time>
      </trkpt>
      <trkpt lat="31.058429991826415" lon="-3.967951973900199">
        <ele>708.5</ele>
        <time>2010-12-31T10:13:36Z</time>
      </trkpt>
      <trkpt lat="31.058476008474827" lon="-3.967826999723911">
        <ele>708.60000000000002</ele>
        <time>2010-12-31T10:13:37Z</time>
      </trkpt>
      <trkpt lat="31.058529987931252" lon="-3.967705965042114">
        <ele>708.89999999999998</ele>
        <time>2010-12-31T10:13:38Z</time>
      </trkpt>
      <trkpt lat="31.058593019843102" lon="-3.96758602000773">
        <ele>709</ele>
        <time>2010-12-31T10:13:39Z</time>
      </trkpt>
      <trkpt lat="31.059246975928545" lon="-3.966551022604108">
        <ele>709.60000000000002</ele>
        <time>2010-12-31T10:13:48Z</time>
      </trkpt>
      <trkpt lat="31.059324005618691" lon="-3.966438034549356">
        <ele>709.70000000000005</ele>
        <time>2010-12-31T10:13:49Z</time>
      </trkpt>
      <trkpt lat="31.05985701084137" lon="-3.965701013803482">
        <ele>710</ele>
        <time>2010-12-31T10:13:56Z</time>
      </trkpt>
      <trkpt lat="31.060038981959224" lon="-3.965512001886964">
        <ele>710</ele>
        <time>2010-12-31T10:13:58Z</time>
      </trkpt>
      <trkpt lat="31.060542985796928" lon="-3.965062983334065">
        <ele>710.10000000000002</ele>
        <time>2010-12-31T10:14:03Z</time>
      </trkpt>
      <trkpt lat="31.060648011043668" lon="-3.96498603746295">
        <ele>710.20000000000005</ele>
        <time>2010-12-31T10:14:04Z</time>
      </trkpt>
      <trkpt lat="31.061977967619896" lon="-3.964122030884028">
        <ele>710.79999999999995</ele>
        <time>2010-12-31T10:14:17Z</time>
      </trkpt>
      <trkpt lat="31.062057008966804" lon="-3.964045001193881">
        <ele>710.79999999999995</ele>
        <time>2010-12-31T10:14:18Z</time>
      </trkpt>
      <trkpt lat="31.062131021171808" lon="-3.963963026180863">
        <ele>710.79999999999995</ele>
        <time>2010-12-31T10:14:19Z</time>
      </trkpt>
      <trkpt lat="31.062421035021544" lon="-3.96363596431911">
        <ele>710.89999999999998</ele>
        <time>2010-12-31T10:14:23Z</time>
      </trkpt>
      <trkpt lat="31.064922027289867" lon="-3.96090698428452">
        <ele>710.60000000000002</ele>
        <time>2010-12-31T10:14:55Z</time>
      </trkpt>
      <trkpt lat="31.064996961504221" lon="-3.960842024534941">
        <ele>710.60000000000002</ele>
        <time>2010-12-31T10:14:56Z</time>
      </trkpt>
      <trkpt lat="31.065235007554293" lon="-3.960643960162997">
        <ele>710.70000000000005</ele>
        <time>2010-12-31T10:14:59Z</time>
      </trkpt>
      <trkpt lat="31.065311031416059" lon="-3.960565002635121">
        <ele>710.70000000000005</ele>
        <time>2010-12-31T10:15:00Z</time>
      </trkpt>
      <trkpt lat="31.065381020307541" lon="-3.960472969338298">
        <ele>710.70000000000005</ele>
        <time>2010-12-31T10:15:01Z</time>
      </trkpt>
      <trkpt lat="31.065785028040409" lon="-3.959839968010783">
        <ele>710.60000000000002</ele>
        <time>2010-12-31T10:15:07Z</time>
      </trkpt>
      <trkpt lat="31.066866964101791" lon="-3.958195019513369">
        <ele>710.20000000000005</ele>
        <time>2010-12-31T10:15:24Z</time>
      </trkpt>
      <trkpt lat="31.066937036812305" lon="-3.95811203867197">
        <ele>710.20000000000005</ele>
        <time>2010-12-31T10:15:25Z</time>
      </trkpt>
      <trkpt lat="31.067014988511801" lon="-3.958037020638585">
        <ele>710.20000000000005</ele>
        <time>2010-12-31T10:15:26Z</time>
      </trkpt>
      <trkpt lat="31.067100986838341" lon="-3.957968037575483">
        <ele>710.20000000000005</ele>
        <time>2010-12-31T10:15:27Z</time>
      </trkpt>
      <trkpt lat="31.067587975412607" lon="-3.957594037055969">
        <ele>709.79999999999995</ele>
        <time>2010-12-31T10:15:33Z</time>
      </trkpt>
      <trkpt lat="31.067654024809599" lon="-3.957522036507726">
        <ele>709.79999999999995</ele>
        <time>2010-12-31T10:15:34Z</time>
      </trkpt>
      <trkpt lat="31.067714039236307" lon="-3.957441989332438">
        <ele>709.70000000000005</ele>
        <time>2010-12-31T10:15:35Z</time>
      </trkpt>
      <trkpt lat="31.067969016730785" lon="-3.957063965499401">
        <ele>709.89999999999998</ele>
        <time>2010-12-31T10:15:40Z</time>
      </trkpt>
      <trkpt lat="31.068013021722436" lon="-3.956939997151494">
        <ele>709.89999999999998</ele>
        <time>2010-12-31T10:15:42Z</time>
      </trkpt>
      <trkpt lat="31.067954013124108" lon="-3.956722989678383">
        <ele>710.29999999999995</ele>
        <time>2010-12-31T10:15:45Z</time>
      </trkpt>
      <trkpt lat="31.06795996427536" lon="-3.956554010510445">
        <ele>710.5</ele>
        <time>2010-12-31T10:15:47Z</time>
      </trkpt>
      <trkpt lat="31.068024002015591" lon="-3.956383019685745">
        <ele>710.60000000000002</ele>
        <time>2010-12-31T10:15:49Z</time>
      </trkpt>
      <trkpt lat="31.068214019760489" lon="-3.956062998622656">
        <ele>710.5</ele>
        <time>2010-12-31T10:15:53Z</time>
      </trkpt>
      <trkpt lat="31.068326001986861" lon="-3.955902988091111">
        <ele>710.39999999999998</ele>
        <time>2010-12-31T10:15:55Z</time>
      </trkpt>
      <trkpt lat="31.068445025011897" lon="-3.955758986994624">
        <ele>710.39999999999998</ele>
        <time>2010-12-31T10:15:57Z</time>
      </trkpt>
      <trkpt lat="31.068661026656628" lon="-3.955465033650398">
        <ele>710.39999999999998</ele>
        <time>2010-12-31T10:16:01Z</time>
      </trkpt>
      <trkpt lat="31.068724980577826" lon="-3.9552750159055">
        <ele>710.39999999999998</ele>
        <time>2010-12-31T10:16:03Z</time>
      </trkpt>
      <trkpt lat="31.068779965862632" lon="-3.954972010105848">
        <ele>710.5</ele>
        <time>2010-12-31T10:16:06Z</time>
      </trkpt>
      <trkpt lat="31.068947017192841" lon="-3.954048994928598">
        <ele>710.20000000000005</ele>
        <time>2010-12-31T10:16:15Z</time>
      </trkpt>
      <trkpt lat="31.068978030234575" lon="-3.953942963853478">
        <ele>710.29999999999995</ele>
        <time>2010-12-31T10:16:16Z</time>
      </trkpt>
      <trkpt lat="31.069014994427562" lon="-3.953840034082532">
        <ele>710.39999999999998</ele>
        <time>2010-12-31T10:16:17Z</time>
      </trkpt>
      <trkpt lat="31.069060005247593" lon="-3.953741965815425">
        <ele>710.39999999999998</ele>
        <time>2010-12-31T10:16:18Z</time>
      </trkpt>
      <trkpt lat="31.069114990532398" lon="-3.953652027994394">
        <ele>710.39999999999998</ele>
        <time>2010-12-31T10:16:19Z</time>
      </trkpt>
      <trkpt lat="31.069177016615868" lon="-3.953568963333964">
        <ele>710.29999999999995</ele>
        <time>2010-12-31T10:16:20Z</time>
      </trkpt>
      <trkpt lat="31.069250022992492" lon="-3.953496962785721">
        <ele>710.29999999999995</ele>
        <time>2010-12-31T10:16:21Z</time>
      </trkpt>
      <trkpt lat="31.069641960784793" lon="-3.95314802415669">
        <ele>710.70000000000005</ele>
        <time>2010-12-31T10:16:26Z</time>
      </trkpt>
      <trkpt lat="31.069707004353404" lon="-3.95306202583015">
        <ele>710.70000000000005</ele>
        <time>2010-12-31T10:16:27Z</time>
      </trkpt>
      <trkpt lat="31.069943038746715" lon="-3.952686013653874">
        <ele>710.70000000000005</ele>
        <time>2010-12-31T10:16:31Z</time>
      </trkpt>
      <trkpt lat="31.070374958217144" lon="-3.951871041208506">
        <ele>710.89999999999998</ele>
        <time>2010-12-31T10:16:40Z</time>
      </trkpt>
      <trkpt lat="31.070434972643852" lon="-3.951791999861598">
        <ele>710.89999999999998</ele>
        <time>2010-12-31T10:16:41Z</time>
      </trkpt>
      <trkpt lat="31.070567993447185" lon="-3.951644981279969">
        <ele>710.89999999999998</ele>
        <time>2010-12-31T10:16:43Z</time>
      </trkpt>
      <trkpt lat="31.071390006691217" lon="-3.95089304074645">
        <ele>711.60000000000002</ele>
        <time>2010-12-31T10:16:58Z</time>
      </trkpt>
      <trkpt lat="31.07150400057435" lon="-3.950848029926419">
        <ele>711.79999999999995</ele>
        <time>2010-12-31T10:17:00Z</time>
      </trkpt>
      <trkpt lat="31.071636015549302" lon="-3.950941991060972">
        <ele>711.79999999999995</ele>
        <time>2010-12-31T10:17:02Z</time>
      </trkpt>
      <trkpt lat="31.071764007210732" lon="-3.951053973287344">
        <ele>711.89999999999998</ele>
        <time>2010-12-31T10:17:04Z</time>
      </trkpt>
      <trkpt lat="31.071898033842444" lon="-3.951082974672318">
        <ele>712.10000000000002</ele>
        <time>2010-12-31T10:17:06Z</time>
      </trkpt>
      <trkpt lat="31.072037005797029" lon="-3.951042992994189">
        <ele>712.10000000000002</ele>
        <time>2010-12-31T10:17:08Z</time>
      </trkpt>
      <trkpt lat="31.07216902077198" lon="-3.950965963304043">
        <ele>711.5</ele>
        <time>2010-12-31T10:17:10Z</time>
      </trkpt>
      <trkpt lat="31.072295000776649" lon="-3.950852975249291">
        <ele>711</ele>
        <time>2010-12-31T10:17:12Z</time>
      </trkpt>
      <trkpt lat="31.072358032688498" lon="-3.950778041034937">
        <ele>710.89999999999998</ele>
        <time>2010-12-31T10:17:13Z</time>
      </trkpt>
      <trkpt lat="31.072416035458446" lon="-3.950692964717746">
        <ele>710.79999999999995</ele>
        <time>2010-12-31T10:17:14Z</time>
      </trkpt>
      <trkpt lat="31.072465991601348" lon="-3.950600009411573">
        <ele>710.60000000000002</ele>
        <time>2010-12-31T10:17:15Z</time>
      </trkpt>
      <trkpt lat="31.072506979107857" lon="-3.950501019135118">
        <ele>710.60000000000002</ele>
        <time>2010-12-31T10:17:16Z</time>
      </trkpt>
      <trkpt lat="31.072600018233061" lon="-3.950219973921776">
        <ele>710.79999999999995</ele>
        <time>2010-12-31T10:17:19Z</time>
      </trkpt>
      <trkpt lat="31.072669001296163" lon="-3.949972037225962">
        <ele>711</ele>
        <time>2010-12-31T10:17:22Z</time>
      </trkpt>
      <trkpt lat="31.072762040421367" lon="-3.949814038351178">
        <ele>710.89999999999998</ele>
        <time>2010-12-31T10:17:24Z</time>
      </trkpt>
      <trkpt lat="31.075163036584854" lon="-3.947435002774">
        <ele>712.10000000000002</ele>
        <time>2010-12-31T10:17:58Z</time>
      </trkpt>
      <trkpt lat="31.075312988832593" lon="-3.94732503220439">
        <ele>712.20000000000005</ele>
        <time>2010-12-31T10:18:00Z</time>
      </trkpt>
      <trkpt lat="31.075394963845611" lon="-3.947279015555978">
        <ele>712.20000000000005</ele>
        <time>2010-12-31T10:18:01Z</time>
      </trkpt>
      <trkpt lat="31.075482973828912" lon="-3.94723903387785">
        <ele>712.29999999999995</ele>
        <time>2010-12-31T10:18:02Z</time>
      </trkpt>
      <trkpt lat="31.075668968260288" lon="-3.947172984480858">
        <ele>712.5</ele>
        <time>2010-12-31T10:18:04Z</time>
      </trkpt>
      <trkpt lat="31.075768964365125" lon="-3.947148006409407">
        <ele>712.5</ele>
        <time>2010-12-31T10:18:05Z</time>
      </trkpt>
      <trkpt lat="31.075979014858603" lon="-3.947109030559659">
        <ele>712.70000000000005</ele>
        <time>2010-12-31T10:18:07Z</time>
      </trkpt>
      <trkpt lat="31.076084962114692" lon="-3.947096960619092">
        <ele>712.79999999999995</ele>
        <time>2010-12-31T10:18:08Z</time>
      </trkpt>
      <trkpt lat="31.076190993189812" lon="-3.947094026952982">
        <ele>712.89999999999998</ele>
        <time>2010-12-31T10:18:09Z</time>
      </trkpt>
      <trkpt lat="31.076298030093312" lon="-3.947105007246137">
        <ele>712.79999999999995</ele>
        <time>2010-12-31T10:18:10Z</time>
      </trkpt>
      <trkpt lat="31.076837992295623" lon="-3.94717700779438">
        <ele>712.5</ele>
        <time>2010-12-31T10:18:15Z</time>
      </trkpt>
      <trkpt lat="31.076946035027504" lon="-3.947176001966">
        <ele>712.5</ele>
        <time>2010-12-31T10:18:16Z</time>
      </trkpt>
      <trkpt lat="31.077051982283592" lon="-3.947166027501226">
        <ele>712.5</ele>
        <time>2010-12-31T10:18:17Z</time>
      </trkpt>
      <trkpt lat="31.077156001701951" lon="-3.947148006409407">
        <ele>712.5</ele>
        <time>2010-12-31T10:18:18Z</time>
      </trkpt>
      <trkpt lat="31.07928198762238" lon="-3.946745004504919">
        <ele>713.60000000000002</ele>
        <time>2010-12-31T10:18:39Z</time>
      </trkpt>
      <trkpt lat="31.079389024525881" lon="-3.946742992848158">
        <ele>713.60000000000002</ele>
        <time>2010-12-31T10:18:40Z</time>
      </trkpt>
      <trkpt lat="31.079498995095491" lon="-3.94674701616168">
        <ele>713.60000000000002</ele>
        <time>2010-12-31T10:18:41Z</time>
      </trkpt>
      <trkpt lat="31.081256009638309" lon="-3.946872996166349">
        <ele>714</ele>
        <time>2010-12-31T10:18:56Z</time>
      </trkpt>
      <trkpt lat="31.081373021006584" lon="-3.946892023086548">
        <ele>714</ele>
        <time>2010-12-31T10:18:57Z</time>
      </trkpt>
      <trkpt lat="31.081487014889717" lon="-3.946921024471521">
        <ele>714.10000000000002</ele>
        <time>2010-12-31T10:18:58Z</time>
      </trkpt>
      <trkpt lat="31.081593967974186" lon="-3.946964023634791">
        <ele>714.20000000000005</ele>
        <time>2010-12-31T10:18:59Z</time>
      </trkpt>
      <trkpt lat="31.082099983468652" lon="-3.947237022221088">
        <ele>714.60000000000002</ele>
        <time>2010-12-31T10:19:04Z</time>
      </trkpt>
      <trkpt lat="31.082196040078998" lon="-3.947300976142287">
        <ele>714.79999999999995</ele>
        <time>2010-12-31T10:19:05Z</time>
      </trkpt>
      <trkpt lat="31.082285977900028" lon="-3.947377000004053">
        <ele>714.60000000000002</ele>
        <time>2010-12-31T10:19:06Z</time>
      </trkpt>
      <trkpt lat="31.083653988316655" lon="-3.94855298101902">
        <ele>712.70000000000005</ele>
        <time>2010-12-31T10:19:20Z</time>
      </trkpt>
      <trkpt lat="31.083755996078253" lon="-3.948619030416012">
        <ele>712.70000000000005</ele>
        <time>2010-12-31T10:19:21Z</time>
      </trkpt>
      <trkpt lat="31.084176013246179" lon="-3.948849029839039">
        <ele>712.5</ele>
        <time>2010-12-31T10:19:25Z</time>
      </trkpt>
      <trkpt lat="31.084496034309268" lon="-3.948980960994959">
        <ele>712.60000000000002</ele>
        <time>2010-12-31T10:19:28Z</time>
      </trkpt>
      <trkpt lat="31.085020992904902" lon="-3.949138037860394">
        <ele>712.79999999999995</ele>
        <time>2010-12-31T10:19:33Z</time>
      </trkpt>
      <trkpt lat="31.086006034165621" lon="-3.949327971786261">
        <ele>713.70000000000005</ele>
        <time>2010-12-31T10:19:43Z</time>
      </trkpt>
      <trkpt lat="31.086245002225041" lon="-3.949349010363221">
        <ele>714.5</ele>
        <time>2010-12-31T10:19:46Z</time>
      </trkpt>
      <trkpt lat="31.086352039128542" lon="-3.949340963736177">
        <ele>714.79999999999995</ele>
        <time>2010-12-31T10:19:48Z</time>
      </trkpt>
      <trkpt lat="31.086530992761254" lon="-3.949262006208301">
        <ele>714.70000000000005</ele>
        <time>2010-12-31T10:19:54Z</time>
      </trkpt>
      <trkpt lat="31.086627971380949" lon="-3.94919503480196">
        <ele>714.39999999999998</ele>
        <time>2010-12-31T10:19:57Z</time>
      </trkpt>
      <trkpt lat="31.086720004677773" lon="-3.949090009555221">
        <ele>713.79999999999995</ele>
        <time>2010-12-31T10:20:00Z</time>
      </trkpt>
      <trkpt lat="31.086866017431021" lon="-3.948543006554246">
        <ele>712.5</ele>
        <time>2010-12-31T10:20:11Z</time>
      </trkpt>
      <trkpt lat="31.086749006062746" lon="-3.948489027097821">
        <ele>669.60000000000002</ele>
        <time>2010-12-31T10:37:46Z</time>
      </trkpt>
      <trkpt lat="31.086727967485785" lon="-3.948643002659082">
        <ele>678.70000000000005</ele>
        <time>2010-12-31T10:39:19Z</time>
      </trkpt>
      <trkpt lat="31.086694020777941" lon="-3.94848701544106">
        <ele>677.89999999999998</ele>
        <time>2010-12-31T10:39:31Z</time>
      </trkpt>
      <trkpt lat="31.08673500828445" lon="-3.948362041264772">
        <ele>677.5</ele>
        <time>2010-12-31T10:39:35Z</time>
      </trkpt>
      <trkpt lat="31.08682201243937" lon="-3.948171017691493">
        <ele>675.89999999999998</ele>
        <time>2010-12-31T10:44:44Z</time>
      </trkpt>
      <trkpt lat="31.087109008803964" lon="-3.948098011314869">
        <ele>677.29999999999995</ele>
        <time>2010-12-31T10:44:54Z</time>
      </trkpt>
      <trkpt lat="31.087237000465393" lon="-3.948098011314869">
        <ele>677.89999999999998</ele>
        <time>2010-12-31T10:44:57Z</time>
      </trkpt>
      <trkpt lat="31.087329033762217" lon="-3.948094993829727">
        <ele>678.79999999999995</ele>
        <time>2010-12-31T10:44:59Z</time>
      </trkpt>
      <trkpt lat="31.088331006467342" lon="-3.947994997724891">
        <ele>685.29999999999995</ele>
        <time>2010-12-31T10:45:15Z</time>
      </trkpt>
      <trkpt lat="31.094433031976223" lon="-3.947386974468827">
        <ele>706.89999999999998</ele>
        <time>2010-12-31T10:46:18Z</time>
      </trkpt>
      <trkpt lat="31.094548031687737" lon="-3.947355039417744">
        <ele>707</ele>
        <time>2010-12-31T10:46:19Z</time>
      </trkpt>
      <trkpt lat="31.098255012184381" lon="-3.946220967918634">
        <ele>710.70000000000005</ele>
        <time>2010-12-31T10:46:55Z</time>
      </trkpt>
      <trkpt lat="31.098356014117599" lon="-3.94620998762548">
        <ele>710.89999999999998</ele>
        <time>2010-12-31T10:46:56Z</time>
      </trkpt>
      <trkpt lat="31.100953985005617" lon="-3.945921985432506">
        <ele>711.39999999999998</ele>
        <time>2010-12-31T10:47:21Z</time>
      </trkpt>
      <trkpt lat="31.101058004423976" lon="-3.945892984047532">
        <ele>711.39999999999998</ele>
        <time>2010-12-31T10:47:22Z</time>
      </trkpt>
      <trkpt lat="31.101874988526106" lon="-3.945560976862907">
        <ele>710.89999999999998</ele>
        <time>2010-12-31T10:47:30Z</time>
      </trkpt>
      <trkpt lat="31.107053998857737" lon="-3.943156041204929">
        <ele>713.79999999999995</ele>
        <time>2010-12-31T10:48:21Z</time>
      </trkpt>
      <trkpt lat="31.10714502632618" lon="-3.943100972101092">
        <ele>713.79999999999995</ele>
        <time>2010-12-31T10:48:22Z</time>
      </trkpt>
      <trkpt lat="31.10723496414721" lon="-3.943041963502765">
        <ele>713.79999999999995</ele>
        <time>2010-12-31T10:48:23Z</time>
      </trkpt>
      <trkpt lat="31.109537975862622" lon="-3.941814014688134">
        <ele>715.20000000000005</ele>
        <time>2010-12-31T10:48:47Z</time>
      </trkpt>
      <trkpt lat="31.110111968591809" lon="-3.941599018871784">
        <ele>715</ele>
        <time>2010-12-31T10:48:53Z</time>
      </trkpt>
      <trkpt lat="31.110207019373775" lon="-3.941571023315191">
        <ele>715.10000000000002</ele>
        <time>2010-12-31T10:48:54Z</time>
      </trkpt>
      <trkpt lat="31.110297963023186" lon="-3.941551996394992">
        <ele>715.10000000000002</ele>
        <time>2010-12-31T10:48:55Z</time>
      </trkpt>
      <trkpt lat="31.110479012131691" lon="-3.941534981131554">
        <ele>715.20000000000005</ele>
        <time>2010-12-31T10:48:57Z</time>
      </trkpt>
      <trkpt lat="31.110654026269913" lon="-3.941542021930218">
        <ele>715.29999999999995</ele>
        <time>2010-12-31T10:48:59Z</time>
      </trkpt>
      <trkpt lat="31.110817976295948" lon="-3.941524000838399">
        <ele>715.29999999999995</ele>
        <time>2010-12-31T10:49:01Z</time>
      </trkpt>
      <trkpt lat="31.111432034522295" lon="-3.941244967281818">
        <ele>714.89999999999998</ele>
        <time>2010-12-31T10:49:09Z</time>
      </trkpt>
      <trkpt lat="31.111904019489884" lon="-3.940953025594354">
        <ele>715</ele>
        <time>2010-12-31T10:49:15Z</time>
      </trkpt>
      <trkpt lat="31.1123660299927" lon="-3.940650019794703">
        <ele>715</ele>
        <time>2010-12-31T10:49:21Z</time>
      </trkpt>
      <trkpt lat="31.112454039976001" lon="-3.940610038116574">
        <ele>715</ele>
        <time>2010-12-31T10:49:22Z</time>
      </trkpt>
      <trkpt lat="31.114018019288778" lon="-3.939967984333634">
        <ele>715.79999999999995</ele>
        <time>2010-12-31T10:49:39Z</time>
      </trkpt>
      <trkpt lat="31.11410996876657" lon="-3.939944012090564">
        <ele>715.79999999999995</ele>
        <time>2010-12-31T10:49:40Z</time>
      </trkpt>
      <trkpt lat="31.114668035879731" lon="-3.939776038751006">
        <ele>716.10000000000002</ele>
        <time>2010-12-31T10:49:46Z</time>
      </trkpt>
      <trkpt lat="31.114754034206271" lon="-3.939731027930975">
        <ele>716.20000000000005</ele>
        <time>2010-12-31T10:49:47Z</time>
      </trkpt>
      <trkpt lat="31.116217011585832" lon="-3.939003981649876">
        <ele>716.5</ele>
        <time>2010-12-31T10:50:07Z</time>
      </trkpt>
      <trkpt lat="31.116355983540416" lon="-3.938958970829845">
        <ele>716.70000000000005</ele>
        <time>2010-12-31T10:50:09Z</time>
      </trkpt>
      <trkpt lat="31.116641974076629" lon="-3.938930975273252">
        <ele>716.70000000000005</ele>
        <time>2010-12-31T10:50:13Z</time>
      </trkpt>
      <trkpt lat="31.116797039285302" lon="-3.938927035778761">
        <ele>716.70000000000005</ele>
        <time>2010-12-31T10:50:15Z</time>
      </trkpt>
      <trkpt lat="31.116952020674944" lon="-3.938940027728677">
        <ele>716.89999999999998</ele>
        <time>2010-12-31T10:50:17Z</time>
      </trkpt>
      <trkpt lat="31.11733197234571" lon="-3.939009010791779">
        <ele>717.20000000000005</ele>
        <time>2010-12-31T10:50:22Z</time>
      </trkpt>
      <trkpt lat="31.117474967613816" lon="-3.939009010791779">
        <ele>717.39999999999998</ele>
        <time>2010-12-31T10:50:24Z</time>
      </trkpt>
      <trkpt lat="31.117797000333667" lon="-3.93899098969996">
        <ele>717.39999999999998</ele>
        <time>2010-12-31T10:50:29Z</time>
      </trkpt>
      <trkpt lat="31.117960028350353" lon="-3.939000964164734">
        <ele>717.70000000000005</ele>
        <time>2010-12-31T10:50:31Z</time>
      </trkpt>
      <trkpt lat="31.11913600936532" lon="-3.939190981909633">
        <ele>717.89999999999998</ele>
        <time>2010-12-31T10:50:43Z</time>
      </trkpt>
      <trkpt lat="31.119239022955298" lon="-3.939188970252872">
        <ele>717.89999999999998</ele>
        <time>2010-12-31T10:50:44Z</time>
      </trkpt>
      <trkpt lat="31.119341030716896" lon="-3.939178995788097">
        <ele>718.10000000000002</ele>
        <time>2010-12-31T10:50:45Z</time>
      </trkpt>
      <trkpt lat="31.119442032650113" lon="-3.939160974696279">
        <ele>718.10000000000002</ele>
        <time>2010-12-31T10:50:46Z</time>
      </trkpt>
      <trkpt lat="31.119540017098188" lon="-3.939131973311305">
        <ele>718.29999999999995</ele>
        <time>2010-12-31T10:50:47Z</time>
      </trkpt>
      <trkpt lat="31.1196309607476" lon="-3.939086962491274">
        <ele>718.29999999999995</ele>
        <time>2010-12-31T10:50:48Z</time>
      </trkpt>
      <trkpt lat="31.119718970730901" lon="-3.939028037711978">
        <ele>718.29999999999995</ele>
        <time>2010-12-31T10:50:49Z</time>
      </trkpt>
      <trkpt lat="31.119797006249428" lon="-3.938956037163734">
        <ele>718.29999999999995</ele>
        <time>2010-12-31T10:50:50Z</time>
      </trkpt>
      <trkpt lat="31.120020970702171" lon="-3.938717991113663">
        <ele>718.29999999999995</ele>
        <time>2010-12-31T10:50:53Z</time>
      </trkpt>
      <trkpt lat="31.120113003998995" lon="-3.938660994172096">
        <ele>718.20000000000005</ele>
        <time>2010-12-31T10:50:54Z</time>
      </trkpt>
      <trkpt lat="31.120213000103831" lon="-3.93862402997911">
        <ele>718.20000000000005</ele>
        <time>2010-12-31T10:50:55Z</time>
      </trkpt>
      <trkpt lat="31.120320037007332" lon="-3.938597962260246">
        <ele>718.20000000000005</ele>
        <time>2010-12-31T10:50:56Z</time>
      </trkpt>
      <trkpt lat="31.121427034959197" lon="-3.938373997807503">
        <ele>718.89999999999998</ele>
        <time>2010-12-31T10:51:08Z</time>
      </trkpt>
      <trkpt lat="31.121512027457356" lon="-3.938338961452246">
        <ele>718.70000000000005</ele>
        <time>2010-12-31T10:51:09Z</time>
      </trkpt>
      <trkpt lat="31.121596014127135" lon="-3.938296968117356">
        <ele>718.70000000000005</ele>
        <time>2010-12-31T10:51:10Z</time>
      </trkpt>
      <trkpt lat="31.122049978002906" lon="-3.937965966761112">
        <ele>718.29999999999995</ele>
        <time>2010-12-31T10:51:16Z</time>
      </trkpt>
      <trkpt lat="31.122136982157826" lon="-3.937921961769462">
        <ele>718.29999999999995</ele>
        <time>2010-12-31T10:51:17Z</time>
      </trkpt>
      <trkpt lat="31.122227003797889" lon="-3.937890026718378">
        <ele>718.5</ele>
        <time>2010-12-31T10:51:18Z</time>
      </trkpt>
      <trkpt lat="31.122318031266332" lon="-3.937868988141418">
        <ele>718.60000000000002</ele>
        <time>2010-12-31T10:51:19Z</time>
      </trkpt>
      <trkpt lat="31.123194023966789" lon="-3.937663966789842">
        <ele>718.5</ele>
        <time>2010-12-31T10:51:29Z</time>
      </trkpt>
      <trkpt lat="31.123287985101342" lon="-3.93765902146697">
        <ele>718.39999999999998</ele>
        <time>2010-12-31T10:51:30Z</time>
      </trkpt>
      <trkpt lat="31.123979995027184" lon="-3.937617028132081">
        <ele>717.89999999999998</ele>
        <time>2010-12-31T10:51:38Z</time>
      </trkpt>
      <trkpt lat="31.124123996123672" lon="-3.937577968463302">
        <ele>717.89999999999998</ele>
        <time>2010-12-31T10:51:40Z</time>
      </trkpt>
      <trkpt lat="31.125469962134957" lon="-3.937227018177509">
        <ele>717.89999999999998</ele>
        <time>2010-12-31T10:53:26Z</time>
      </trkpt>
      <trkpt lat="31.125569036230445" lon="-3.937217965722084">
        <ele>717.89999999999998</ele>
        <time>2010-12-31T10:53:27Z</time>
      </trkpt>
      <trkpt lat="31.12566702067852" lon="-3.937216037884355">
        <ele>718</ele>
        <time>2010-12-31T10:53:28Z</time>
      </trkpt>
      <trkpt lat="31.125761987641454" lon="-3.937226012349129">
        <ele>718</ele>
        <time>2010-12-31T10:53:29Z</time>
      </trkpt>
      <trkpt lat="31.125852009281516" lon="-3.937246967107058">
        <ele>718</ele>
        <time>2010-12-31T10:53:30Z</time>
      </trkpt>
      <trkpt lat="31.128152003511786" lon="-3.937589032575488">
        <ele>719.29999999999995</ele>
        <time>2010-12-31T10:53:54Z</time>
      </trkpt>
      <trkpt lat="31.128247976303101" lon="-3.937586015090346">
        <ele>719.20000000000005</ele>
        <time>2010-12-31T10:53:55Z</time>
      </trkpt>
      <trkpt lat="31.128345038741827" lon="-3.937565982341766">
        <ele>719.20000000000005</ele>
        <time>2010-12-31T10:53:56Z</time>
      </trkpt>
      <trkpt lat="31.128437994047999" lon="-3.937532035633922">
        <ele>719.29999999999995</ele>
        <time>2010-12-31T10:53:57Z</time>
      </trkpt>
      <trkpt lat="31.128600016236305" lon="-3.937446037307382">
        <ele>719.29999999999995</ele>
        <time>2010-12-31T10:53:59Z</time>
      </trkpt>
      <trkpt lat="31.130274971947074" lon="-3.936469964683056">
        <ele>720.89999999999998</ele>
        <time>2010-12-31T10:54:19Z</time>
      </trkpt>
      <trkpt lat="31.130362981930375" lon="-3.936439035460353">
        <ele>721.10000000000002</ele>
        <time>2010-12-31T10:54:20Z</time>
      </trkpt>
      <trkpt lat="31.130451997742057" lon="-3.936414979398251">
        <ele>721.20000000000005</ele>
        <time>2010-12-31T10:54:21Z</time>
      </trkpt>
      <trkpt lat="31.13054403103888" lon="-3.936400981619954">
        <ele>720.89999999999998</ele>
        <time>2010-12-31T10:54:22Z</time>
      </trkpt>
      <trkpt lat="31.130642015486956" lon="-3.936396036297083">
        <ele>720.70000000000005</ele>
        <time>2010-12-31T10:54:23Z</time>
      </trkpt>
      <trkpt lat="31.130746034905314" lon="-3.936398969963193">
        <ele>720.60000000000002</ele>
        <time>2010-12-31T10:54:24Z</time>
      </trkpt>
      <trkpt lat="31.1319400370121" lon="-3.936558980494738">
        <ele>720.89999999999998</ele>
        <time>2010-12-31T10:54:34Z</time>
      </trkpt>
      <trkpt lat="31.134385038167238" lon="-3.93694999627769">
        <ele>720.10000000000002</ele>
        <time>2010-12-31T10:54:52Z</time>
      </trkpt>
      <trkpt lat="31.134520992636681" lon="-3.93694999627769">
        <ele>720</ele>
        <time>2010-12-31T10:54:53Z</time>
      </trkpt>
      <trkpt lat="31.134658958762884" lon="-3.936946978792548">
        <ele>719.79999999999995</ele>
        <time>2010-12-31T10:54:54Z</time>
      </trkpt>
      <trkpt lat="31.136592999100685" lon="-3.936786968261004">
        <ele>719.79999999999995</ele>
        <time>2010-12-31T10:55:08Z</time>
      </trkpt>
      <trkpt lat="31.136727025732398" lon="-3.936785962432623">
        <ele>720</ele>
        <time>2010-12-31T10:55:09Z</time>
      </trkpt>
      <trkpt lat="31.13686197437346" lon="-3.936786968261004">
        <ele>720.29999999999995</ele>
        <time>2010-12-31T10:55:10Z</time>
      </trkpt>
      <trkpt lat="31.137367989867926" lon="-3.936801971867681">
        <ele>721.29999999999995</ele>
        <time>2010-12-31T10:55:14Z</time>
      </trkpt>
      <trkpt lat="31.1374850012362" lon="-3.93682099878788">
        <ele>721.5</ele>
        <time>2010-12-31T10:55:15Z</time>
      </trkpt>
      <trkpt lat="31.137598995119333" lon="-3.936851006001234">
        <ele>721.70000000000005</ele>
        <time>2010-12-31T10:55:16Z</time>
      </trkpt>
      <trkpt lat="31.137974001467228" lon="-3.936964999884367">
        <ele>722.60000000000002</ele>
        <time>2010-12-31T10:55:20Z</time>
      </trkpt>
      <trkpt lat="31.138089001178741" lon="-3.937037000432611">
        <ele>722.60000000000002</ele>
        <time>2010-12-31T10:55:22Z</time>
      </trkpt>
      <trkpt lat="31.138195032253861" lon="-3.937243027612567">
        <ele>722.79999999999995</ele>
        <time>2010-12-31T10:55:25Z</time>
      </trkpt>
      <trkpt lat="31.139359027147293" lon="-3.938531996682286">
        <ele>726.39999999999998</ele>
        <time>2010-12-31T10:55:47Z</time>
      </trkpt>
      <trkpt lat="31.139722969383001" lon="-3.938814969733357">
        <ele>727.39999999999998</ele>
        <time>2010-12-31T10:55:54Z</time>
      </trkpt>
      <trkpt lat="31.139810979366302" lon="-3.938915971666575">
        <ele>726.89999999999998</ele>
        <time>2010-12-31T10:55:56Z</time>
      </trkpt>
      <trkpt lat="31.140566021203995" lon="-3.939933031797409">
        <ele>727.10000000000002</ele>
        <time>2010-12-31T10:56:13Z</time>
      </trkpt>
      <trkpt lat="31.140665011480451" lon="-3.94002104178071">
        <ele>727.10000000000002</ele>
        <time>2010-12-31T10:56:15Z</time>
      </trkpt>
      <trkpt lat="31.141038006171584" lon="-3.940193960443139">
        <ele>728.89999999999998</ele>
        <time>2010-12-31T10:56:21Z</time>
      </trkpt>
      <trkpt lat="31.141291977837682" lon="-3.940305020660162">
        <ele>728.70000000000005</ele>
        <time>2010-12-31T10:56:25Z</time>
      </trkpt>
      <trkpt lat="31.141406977549195" lon="-3.940308960154653">
        <ele>728.79999999999995</ele>
        <time>2010-12-31T10:56:27Z</time>
      </trkpt>
      <trkpt lat="31.141536980867386" lon="-3.940394958481193">
        <ele>728.89999999999998</ele>
        <time>2010-12-31T10:56:30Z</time>
      </trkpt>
      <trkpt lat="31.141998991370201" lon="-3.940586987882853">
        <ele>729.60000000000002</ele>
        <time>2010-12-31T10:56:37Z</time>
      </trkpt>
      <trkpt lat="31.142143998295069" lon="-3.940612971782684">
        <ele>730.20000000000005</ele>
        <time>2010-12-31T10:56:39Z</time>
      </trkpt>
      <trkpt lat="31.142291016876698" lon="-3.94062303006649">
        <ele>730.29999999999995</ele>
        <time>2010-12-31T10:56:41Z</time>
      </trkpt>
      <trkpt lat="31.142428983002901" lon="-3.940663011744618">
        <ele>730.39999999999998</ele>
        <time>2010-12-31T10:56:43Z</time>
      </trkpt>
      <trkpt lat="31.14268597215414" lon="-3.940787985920906">
        <ele>731.5</ele>
        <time>2010-12-31T10:56:47Z</time>
      </trkpt>
      <trkpt lat="31.142885964363813" lon="-3.940826961770654">
        <ele>732.70000000000005</ele>
        <time>2010-12-31T10:56:50Z</time>
      </trkpt>
      <trkpt lat="31.143014961853623" lon="-3.94081799313426">
        <ele>733</ele>
        <time>2010-12-31T10:56:52Z</time>
      </trkpt>
      <trkpt lat="31.143123004585505" lon="-3.940764013677836">
        <ele>733</ele>
        <time>2010-12-31T10:56:54Z</time>
      </trkpt>
      <trkpt lat="31.143186958506703" lon="-3.940681032836437">
        <ele>732.79999999999995</ele>
        <time>2010-12-31T10:56:56Z</time>
      </trkpt>
      <trkpt lat="31.143281003460288" lon="-3.940612971782684">
        <ele>732.39999999999998</ele>
        <time>2010-12-31T10:56:59Z</time>
      </trkpt>
      <trkpt lat="31.143180001527071" lon="-3.940621018409729">
        <ele>731.79999999999995</ele>
        <time>2010-12-31T11:08:48Z</time>
      </trkpt>
      <trkpt lat="31.143083022907376" lon="-3.94066896289587">
        <ele>732.10000000000002</ele>
        <time>2010-12-31T11:08:53Z</time>
      </trkpt>
      <trkpt lat="31.143171032890677" lon="-3.940573995932937">
        <ele>724.79999999999995</ele>
        <time>2010-12-31T11:09:56Z</time>
      </trkpt>
      <trkpt lat="31.143239010125399" lon="-3.940483974292874">
        <ele>724.60000000000002</ele>
        <time>2010-12-31T11:09:58Z</time>
      </trkpt>
      <trkpt lat="31.14326398819685" lon="-3.940376015380025">
        <ele>723.60000000000002</ele>
        <time>2010-12-31T11:10:00Z</time>
      </trkpt>
      <trkpt lat="31.143279997631907" lon="-3.940201001241803">
        <ele>721.29999999999995</ele>
        <time>2010-12-31T11:10:03Z</time>
      </trkpt>
      <trkpt lat="31.143338000401855" lon="-3.940077032893896">
        <ele>721.70000000000005</ele>
        <time>2010-12-31T11:10:05Z</time>
      </trkpt>
      <trkpt lat="31.143422992900014" lon="-3.94002104178071">
        <ele>722</ele>
        <time>2010-12-31T11:10:07Z</time>
      </trkpt>
      <trkpt lat="31.14395298063755" lon="-3.939890032634139">
        <ele>721.79999999999995</ele>
        <time>2010-12-31T11:10:15Z</time>
      </trkpt>
      <trkpt lat="31.144222039729357" lon="-3.939710995182395">
        <ele>722.60000000000002</ele>
        <time>2010-12-31T11:10:19Z</time>
      </trkpt>
      <trkpt lat="31.144404010847211" lon="-3.939544027671218">
        <ele>722.29999999999995</ele>
        <time>2010-12-31T11:10:22Z</time>
      </trkpt>
      <trkpt lat="31.14483299665153" lon="-3.939260970801115">
        <ele>723.10000000000002</ele>
        <time>2010-12-31T11:10:28Z</time>
      </trkpt>
      <trkpt lat="31.145205991342664" lon="-3.938921000808477">
        <ele>724.70000000000005</ele>
        <time>2010-12-31T11:10:34Z</time>
      </trkpt>
      <trkpt lat="31.145401038229465" lon="-3.938731988891959">
        <ele>724.39999999999998</ele>
        <time>2010-12-31T11:10:37Z</time>
      </trkpt>
      <trkpt lat="31.145559959113598" lon="-3.938629981130362">
        <ele>724.10000000000002</ele>
        <time>2010-12-31T11:10:39Z</time>
      </trkpt>
      <trkpt lat="31.145659033209085" lon="-3.938596034422517">
        <ele>724</ele>
        <time>2010-12-31T11:10:40Z</time>
      </trkpt>
      <trkpt lat="31.145764980465174" lon="-3.938572984188795">
        <ele>724</ele>
        <time>2010-12-31T11:10:41Z</time>
      </trkpt>
      <trkpt lat="31.146002020686865" lon="-3.938543982803822">
        <ele>724.10000000000002</ele>
        <time>2010-12-31T11:10:43Z</time>
      </trkpt>
      <trkpt lat="31.147906975820661" lon="-3.938416996970773">
        <ele>727.5</ele>
        <time>2010-12-31T11:10:57Z</time>
      </trkpt>
      <trkpt lat="31.148029016330838" lon="-3.938384978100658">
        <ele>727.79999999999995</ele>
        <time>2010-12-31T11:10:58Z</time>
      </trkpt>
      <trkpt lat="31.148389019072056" lon="-3.938278025016189">
        <ele>728.20000000000005</ele>
        <time>2010-12-31T11:11:01Z</time>
      </trkpt>
      <trkpt lat="31.148511981591582" lon="-3.93826100975275">
        <ele>728.20000000000005</ele>
        <time>2010-12-31T11:11:02Z</time>
      </trkpt>
      <trkpt lat="31.149598024785519" lon="-3.938122037798166">
        <ele>729</ele>
        <time>2010-12-31T11:11:12Z</time>
      </trkpt>
      <trkpt lat="31.149707995355129" lon="-3.938128994777799">
        <ele>729</ele>
        <time>2010-12-31T11:11:13Z</time>
      </trkpt>
      <trkpt lat="31.14981796592474" lon="-3.938145004212856">
        <ele>729</ele>
        <time>2010-12-31T11:11:14Z</time>
      </trkpt>
      <trkpt lat="31.150394976139069" lon="-3.938257992267609">
        <ele>729.10000000000002</ele>
        <time>2010-12-31T11:11:19Z</time>
      </trkpt>
      <trkpt lat="31.150511987507343" lon="-3.93826000392437">
        <ele>729.20000000000005</ele>
        <time>2010-12-31T11:11:20Z</time>
      </trkpt>
      <trkpt lat="31.150627993047237" lon="-3.93826000392437">
        <ele>729.29999999999995</ele>
        <time>2010-12-31T11:11:21Z</time>
      </trkpt>
      <trkpt lat="31.151174996048212" lon="-3.938213987275958">
        <ele>729.70000000000005</ele>
        <time>2010-12-31T11:11:26Z</time>
      </trkpt>
      <trkpt lat="31.151891984045506" lon="-3.938125977292657">
        <ele>729.89999999999998</ele>
        <time>2010-12-31T11:13:19Z</time>
      </trkpt>
      <trkpt lat="31.15198602899909" lon="-3.938125977292657">
        <ele>729.89999999999998</ele>
        <time>2010-12-31T11:13:20Z</time>
      </trkpt>
      <trkpt lat="31.154462965205312" lon="-3.937975019216538">
        <ele>729.70000000000005</ele>
        <time>2010-12-31T11:13:42Z</time>
      </trkpt>
      <trkpt lat="31.154619036242366" lon="-3.937995973974466">
        <ele>730.29999999999995</ele>
        <time>2010-12-31T11:13:44Z</time>
      </trkpt>
      <trkpt lat="31.154749039560556" lon="-3.937995973974466">
        <ele>730.60000000000002</ele>
        <time>2010-12-31T11:13:46Z</time>
      </trkpt>
      <trkpt lat="31.154916007071733" lon="-3.937951968982816">
        <ele>730.70000000000005</ele>
        <time>2010-12-31T11:13:49Z</time>
      </trkpt>
      <trkpt lat="31.155051039531827" lon="-3.937968984246254">
        <ele>730.60000000000002</ele>
        <time>2010-12-31T11:13:51Z</time>
      </trkpt>
      <trkpt lat="31.15531699731946" lon="-3.938021035864949">
        <ele>730.5</ele>
        <time>2010-12-31T11:13:54Z</time>
      </trkpt>
      <trkpt lat="31.155416993424296" lon="-3.938022963702679">
        <ele>730.60000000000002</ele>
        <time>2010-12-31T11:13:55Z</time>
      </trkpt>
      <trkpt lat="31.155515983700752" lon="-3.938016006723046">
        <ele>730.70000000000005</ele>
        <time>2010-12-31T11:13:56Z</time>
      </trkpt>
      <trkpt lat="31.155606005340815" lon="-3.937999997287989">
        <ele>731</ele>
        <time>2010-12-31T11:13:57Z</time>
      </trkpt>
      <trkpt lat="31.155752018094063" lon="-3.937953980639577">
        <ele>731.89999999999998</ele>
        <time>2010-12-31T11:13:59Z</time>
      </trkpt>
      <trkpt lat="31.156279994174838" lon="-3.937709983438253">
        <ele>731.60000000000002</ele>
        <time>2010-12-31T11:14:07Z</time>
      </trkpt>
      <trkpt lat="31.156379990279675" lon="-3.937682993710041">
        <ele>731.60000000000002</ele>
        <time>2010-12-31T11:14:08Z</time>
      </trkpt>
      <trkpt lat="31.156589034944773" lon="-3.937646029517055">
        <ele>731.60000000000002</ele>
        <time>2010-12-31T11:14:10Z</time>
      </trkpt>
      <trkpt lat="31.156695988029242" lon="-3.937636977061629">
        <ele>731.79999999999995</ele>
        <time>2010-12-31T11:14:11Z</time>
      </trkpt>
      <trkpt lat="31.156804030761123" lon="-3.937636977061629">
        <ele>731.79999999999995</ele>
        <time>2010-12-31T11:14:12Z</time>
      </trkpt>
      <trkpt lat="31.157019026577473" lon="-3.937641000375152">
        <ele>731.89999999999998</ele>
        <time>2010-12-31T11:14:14Z</time>
      </trkpt>
      <trkpt lat="31.158919036388397" lon="-3.937717024236918">
        <ele>731.39999999999998</ele>
        <time>2010-12-31T11:14:28Z</time>
      </trkpt>
      <trkpt lat="31.159061025828123" lon="-3.937740996479988">
        <ele>731.29999999999995</ele>
        <time>2010-12-31T11:14:29Z</time>
      </trkpt>
      <trkpt lat="31.159337041899562" lon="-3.937805034220219">
        <ele>731.29999999999995</ele>
        <time>2010-12-31T11:14:31Z</time>
      </trkpt>
      <trkpt lat="31.159467967227101" lon="-3.937849961221218">
        <ele>731.39999999999998</ele>
        <time>2010-12-31T11:14:32Z</time>
      </trkpt>
      <trkpt lat="31.159594031050801" lon="-3.937906036153436">
        <ele>731.10000000000002</ele>
        <time>2010-12-31T11:14:33Z</time>
      </trkpt>
      <trkpt lat="31.160584017634392" lon="-3.938270984217525">
        <ele>731.29999999999995</ele>
        <time>2010-12-31T11:14:41Z</time>
      </trkpt>
      <trkpt lat="31.160711003467441" lon="-3.938299985602498">
        <ele>731.20000000000005</ele>
        <time>2010-12-31T11:14:42Z</time>
      </trkpt>
      <trkpt lat="31.160989031195641" lon="-3.93834600225091">
        <ele>731.29999999999995</ele>
        <time>2010-12-31T11:14:45Z</time>
      </trkpt>
      <trkpt lat="31.161100007593632" lon="-3.93839000724256">
        <ele>731.10000000000002</ele>
        <time>2010-12-31T11:14:47Z</time>
      </trkpt>
      <trkpt lat="31.161401001736522" lon="-3.938511963933706">
        <ele>730.89999999999998</ele>
        <time>2010-12-31T11:14:51Z</time>
      </trkpt>
      <trkpt lat="31.161497980356216" lon="-3.938568960875273">
        <ele>731.10000000000002</ele>
        <time>2010-12-31T11:14:52Z</time>
      </trkpt>
      <trkpt lat="31.161802997812629" lon="-3.938784040510654">
        <ele>730.89999999999998</ele>
        <time>2010-12-31T11:14:55Z</time>
      </trkpt>
      <trkpt lat="31.163407964631915" lon="-3.939864970743656">
        <ele>730.5</ele>
        <time>2010-12-31T11:15:09Z</time>
      </trkpt>
      <trkpt lat="31.163534028455615" lon="-3.939921967685223">
        <ele>730.60000000000002</ele>
        <time>2010-12-31T11:15:10Z</time>
      </trkpt>
      <trkpt lat="31.163660008460283" lon="-3.939967984333634">
        <ele>730.5</ele>
        <time>2010-12-31T11:15:11Z</time>
      </trkpt>
      <trkpt lat="31.163786994293332" lon="-3.94000100903213">
        <ele>730.39999999999998</ele>
        <time>2010-12-31T11:15:12Z</time>
      </trkpt>
      <trkpt lat="31.16416803561151" lon="-3.940054988488555">
        <ele>730.60000000000002</ele>
        <time>2010-12-31T11:15:15Z</time>
      </trkpt>
      <trkpt lat="31.164431981742382" lon="-3.940067980438471">
        <ele>730.60000000000002</ele>
        <time>2010-12-31T11:15:17Z</time>
      </trkpt>
      <trkpt lat="31.164569025859237" lon="-3.940064962953329">
        <ele>730.5</ele>
        <time>2010-12-31T11:15:18Z</time>
      </trkpt>
      <trkpt lat="31.165727991610765" lon="-3.940005032345653">
        <ele>730.20000000000005</ele>
        <time>2010-12-31T11:15:26Z</time>
      </trkpt>
      <trkpt lat="31.165872998535633" lon="-3.940006038174033">
        <ele>730.29999999999995</ele>
        <time>2010-12-31T11:15:27Z</time>
      </trkpt>
      <trkpt lat="31.169115034863353" lon="-3.940210975706577">
        <ele>730.5</ele>
        <time>2010-12-31T11:15:48Z</time>
      </trkpt>
      <trkpt lat="31.169276973232627" lon="-3.940232014283538">
        <ele>730.5</ele>
        <time>2010-12-31T11:15:49Z</time>
      </trkpt>
      <trkpt lat="31.16971299983561" lon="-3.940318012610078">
        <ele>730.5</ele>
        <time>2010-12-31T11:15:52Z</time>
      </trkpt>
      <trkpt lat="31.171745024621487" lon="-3.940840037539601">
        <ele>731</ele>
        <time>2010-12-31T11:16:05Z</time>
      </trkpt>
      <trkpt lat="31.172208962962031" lon="-3.941003987565637">
        <ele>731</ele>
        <time>2010-12-31T11:16:08Z</time>
      </trkpt>
      <trkpt lat="31.174582969397306" lon="-3.941703960299492">
        <ele>731.70000000000005</ele>
        <time>2010-12-31T11:16:23Z</time>
      </trkpt>
      <trkpt lat="31.175182024016976" lon="-3.941793981939554">
        <ele>732</ele>
        <time>2010-12-31T11:16:27Z</time>
      </trkpt>
      <trkpt lat="31.176879024133086" lon="-3.94189297221601">
        <ele>732.60000000000002</ele>
        <time>2010-12-31T11:16:39Z</time>
      </trkpt>
      <trkpt lat="31.177151016891003" lon="-3.941893978044391">
        <ele>732.70000000000005</ele>
        <time>2010-12-31T11:16:41Z</time>
      </trkpt>
      <trkpt lat="31.177395014092326" lon="-3.941896995529532">
        <ele>732.79999999999995</ele>
        <time>2010-12-31T11:16:43Z</time>
      </trkpt>
      <trkpt lat="31.177514959126711" lon="-3.941896995529532">
        <ele>732.70000000000005</ele>
        <time>2010-12-31T11:16:44Z</time>
      </trkpt>
      <trkpt lat="31.178141003474593" lon="-3.941861037164927">
        <ele>732.89999999999998</ele>
        <time>2010-12-31T11:16:49Z</time>
      </trkpt>
      <trkpt lat="31.178267989307642" lon="-3.941841004416347">
        <ele>733</ele>
        <time>2010-12-31T11:16:50Z</time>
      </trkpt>
      <trkpt lat="31.182334972545505" lon="-3.941043969243765">
        <ele>734.89999999999998</ele>
        <time>2010-12-31T11:17:21Z</time>
      </trkpt>
      <trkpt lat="31.182424994185567" lon="-3.941003987565637">
        <ele>734.79999999999995</ele>
        <time>2010-12-31T11:17:22Z</time>
      </trkpt>
      <trkpt lat="31.182997981086373" lon="-3.940720008686185">
        <ele>734.5</ele>
        <time>2010-12-31T11:17:28Z</time>
      </trkpt>
      <trkpt lat="31.183104012161493" lon="-3.940701987594366">
        <ele>734.5</ele>
        <time>2010-12-31T11:17:29Z</time>
      </trkpt>
      <trkpt lat="31.183213982731104" lon="-3.940697964280844">
        <ele>734.60000000000002</ele>
        <time>2010-12-31T11:17:30Z</time>
      </trkpt>
      <trkpt lat="31.183324959129095" lon="-3.94070902839303">
        <ele>734.60000000000002</ele>
        <time>2010-12-31T11:17:31Z</time>
      </trkpt>
      <trkpt lat="31.183436019346118" lon="-3.940738029778004">
        <ele>734.5</ele>
        <time>2010-12-31T11:17:32Z</time>
      </trkpt>
      <trkpt lat="31.183543978258967" lon="-3.940781028941274">
        <ele>734.39999999999998</ele>
        <time>2010-12-31T11:17:33Z</time>
      </trkpt>
      <trkpt lat="31.183652020990849" lon="-3.94083802588284">
        <ele>734</ele>
        <time>2010-12-31T11:17:34Z</time>
      </trkpt>
      <trkpt lat="31.183862993493676" lon="-3.940976997837424">
        <ele>734.10000000000002</ele>
        <time>2010-12-31T11:17:36Z</time>
      </trkpt>
      <trkpt lat="31.184298014268279" lon="-3.941315039992333">
        <ele>734.29999999999995</ele>
        <time>2010-12-31T11:17:40Z</time>
      </trkpt>
      <trkpt lat="31.185176018625498" lon="-3.942086007446051">
        <ele>734.79999999999995</ele>
        <time>2010-12-31T11:17:48Z</time>
      </trkpt>
      <trkpt lat="31.186353005468845" lon="-3.943143971264362">
        <ele>735.29999999999995</ele>
        <time>2010-12-31T11:17:59Z</time>
      </trkpt>
      <trkpt lat="31.186474040150642" lon="-3.943222006782889">
        <ele>735.29999999999995</ele>
        <time>2010-12-31T11:18:00Z</time>
      </trkpt>
      <trkpt lat="31.186720971018076" lon="-3.943353015929461">
        <ele>735.39999999999998</ele>
        <time>2010-12-31T11:18:02Z</time>
      </trkpt>
      <trkpt lat="31.186844017356634" lon="-3.943408001214266">
        <ele>735.5</ele>
        <time>2010-12-31T11:18:03Z</time>
      </trkpt>
      <trkpt lat="31.18696597404778" lon="-3.943452006205916">
        <ele>735.60000000000002</ele>
        <time>2010-12-31T11:18:04Z</time>
      </trkpt>
      <trkpt lat="31.187088014557958" lon="-3.943483019247651">
        <ele>735.70000000000005</ele>
        <time>2010-12-31T11:18:05Z</time>
      </trkpt>
      <trkpt lat="31.187207959592342" lon="-3.94350104033947">
        <ele>735.79999999999995</ele>
        <time>2010-12-31T11:18:06Z</time>
      </trkpt>
      <trkpt lat="31.187444999814034" lon="-3.943515038117766">
        <ele>735.89999999999998</ele>
        <time>2010-12-31T11:18:08Z</time>
      </trkpt>
      <trkpt lat="31.18756796233356" lon="-3.943514032289386">
        <ele>735.89999999999998</ele>
        <time>2010-12-31T11:18:09Z</time>
      </trkpt>
      <trkpt lat="31.1879319883883" lon="-3.943475978448987">
        <ele>735.70000000000005</ele>
        <time>2010-12-31T11:18:12Z</time>
      </trkpt>
      <trkpt lat="31.189505020156503" lon="-3.943296018987894">
        <ele>736.20000000000005</ele>
        <time>2010-12-31T11:18:27Z</time>
      </trkpt>
      <trkpt lat="31.189598981291056" lon="-3.943293001502752">
        <ele>736.29999999999995</ele>
        <time>2010-12-31T11:18:28Z</time>
      </trkpt>
      <trkpt lat="31.189689002931118" lon="-3.943299958482385">
        <ele>736.29999999999995</ele>
        <time>2010-12-31T11:18:29Z</time>
      </trkpt>
      <trkpt lat="31.190331978723407" lon="-3.943347986787558">
        <ele>736.5</ele>
        <time>2010-12-31T11:18:35Z</time>
      </trkpt>
      <trkpt lat="31.190462987869978" lon="-3.943346980959177">
        <ele>736.70000000000005</ele>
        <time>2010-12-31T11:18:36Z</time>
      </trkpt>
      <trkpt lat="31.191156003624201" lon="-3.94330901093781">
        <ele>736.89999999999998</ele>
        <time>2010-12-31T11:18:41Z</time>
      </trkpt>
      <trkpt lat="31.191291958093643" lon="-3.943310016766191">
        <ele>737</ele>
        <time>2010-12-31T11:18:42Z</time>
      </trkpt>
      <trkpt lat="31.191560011357069" lon="-3.943327032029629">
        <ele>737</ele>
        <time>2010-12-31T11:18:44Z</time>
      </trkpt>
      <trkpt lat="31.192096034064889" lon="-3.943424010649324">
        <ele>737.60000000000002</ele>
        <time>2010-12-31T11:18:48Z</time>
      </trkpt>
      <trkpt lat="31.194469034671783" lon="-3.944016024470329">
        <ele>738.39999999999998</ele>
        <time>2010-12-31T11:19:08Z</time>
      </trkpt>
      <trkpt lat="31.194598032161593" lon="-3.944012001156807">
        <ele>738.5</ele>
        <time>2010-12-31T11:19:09Z</time>
      </trkpt>
      <trkpt lat="31.19540898129344" lon="-3.943949975073338">
        <ele>738.60000000000002</ele>
        <time>2010-12-31T11:19:15Z</time>
      </trkpt>
      <trkpt lat="31.195554994046688" lon="-3.943950980901718">
        <ele>738.60000000000002</ele>
        <time>2010-12-31T11:19:16Z</time>
      </trkpt>
      <trkpt lat="31.195995965972543" lon="-3.943977970629931">
        <ele>738.70000000000005</ele>
        <time>2010-12-31T11:19:19Z</time>
      </trkpt>
      <trkpt lat="31.196142984554172" lon="-3.943998003378511">
        <ele>738.70000000000005</ele>
        <time>2010-12-31T11:19:20Z</time>
      </trkpt>
      <trkpt lat="31.196286985650659" lon="-3.944027004763484">
        <ele>738.70000000000005</ele>
        <time>2010-12-31T11:19:21Z</time>
      </trkpt>
      <trkpt lat="31.196426963433623" lon="-3.944066986441612">
        <ele>738.60000000000002</ele>
        <time>2010-12-31T11:19:22Z</time>
      </trkpt>
      <trkpt lat="31.196560990065336" lon="-3.944119960069656">
        <ele>738.70000000000005</ele>
        <time>2010-12-31T11:19:23Z</time>
      </trkpt>
      <trkpt lat="31.196667021140456" lon="-3.944251975044608">
        <ele>732.79999999999995</ele>
        <time>2010-12-31T11:19:25Z</time>
      </trkpt>
      <trkpt lat="31.19678202085197" lon="-3.944325987249613">
        <ele>732.60000000000002</ele>
        <time>2010-12-31T11:19:26Z</time>
      </trkpt>
      <trkpt lat="31.196885034441948" lon="-3.944407962262631">
        <ele>732.39999999999998</ele>
        <time>2010-12-31T11:19:27Z</time>
      </trkpt>
      <trkpt lat="31.19697698391974" lon="-3.944499995559454">
        <ele>732.29999999999995</ele>
        <time>2010-12-31T11:19:28Z</time>
      </trkpt>
      <trkpt lat="31.197061976417899" lon="-3.944602003321052">
        <ele>732.29999999999995</ele>
        <time>2010-12-31T11:19:29Z</time>
      </trkpt>
      <trkpt lat="31.197133976966143" lon="-3.944713985547423">
        <ele>732.39999999999998</ele>
        <time>2010-12-31T11:19:30Z</time>
      </trkpt>
      <trkpt lat="31.197198014706373" lon="-3.944833008572459">
        <ele>732.29999999999995</ele>
        <time>2010-12-31T11:19:31Z</time>
      </trkpt>
      <trkpt lat="31.198880011215806" lon="-3.948381990194321">
        <ele>731.20000000000005</ele>
        <time>2010-12-31T11:19:56Z</time>
      </trkpt>
      <trkpt lat="31.198965003713965" lon="-3.948504030704498">
        <ele>731.10000000000002</ele>
        <time>2010-12-31T11:19:57Z</time>
      </trkpt>
      <trkpt lat="31.199637986719608" lon="-3.949338030070067">
        <ele>731.79999999999995</ele>
        <time>2010-12-31T11:20:04Z</time>
      </trkpt>
      <trkpt lat="31.200452959164977" lon="-3.950147973373532">
        <ele>733.10000000000002</ele>
        <time>2010-12-31T11:20:13Z</time>
      </trkpt>
      <trkpt lat="31.200524959713221" lon="-3.950214022770524">
        <ele>733.89999999999998</ele>
        <time>2010-12-31T11:20:14Z</time>
      </trkpt>
      <trkpt lat="31.200803993269801" lon="-3.950424995273352">
        <ele>736.29999999999995</ele>
        <time>2010-12-31T11:20:17Z</time>
      </trkpt>
      <trkpt lat="31.202345006167889" lon="-3.951362008228898">
        <ele>736.39999999999998</ele>
        <time>2010-12-31T11:20:31Z</time>
      </trkpt>
      <trkpt lat="31.202478026971221" lon="-3.951394027099013">
        <ele>736.60000000000002</ele>
        <time>2010-12-31T11:20:33Z</time>
      </trkpt>
      <trkpt lat="31.20260501280427" lon="-3.951353961601853">
        <ele>736.70000000000005</ele>
        <time>2010-12-31T11:20:35Z</time>
      </trkpt>
      <trkpt lat="31.202719006687403" lon="-3.951250026002526">
        <ele>737.20000000000005</ele>
        <time>2010-12-31T11:20:37Z</time>
      </trkpt>
      <trkpt lat="31.203064005821943" lon="-3.950891029089689">
        <ele>738</ele>
        <time>2010-12-31T11:20:42Z</time>
      </trkpt>
      <trkpt lat="31.203140029683709" lon="-3.950824979692698">
        <ele>738.20000000000005</ele>
        <time>2010-12-31T11:20:43Z</time>
      </trkpt>
      <trkpt lat="31.203476982191205" lon="-3.950567990541458">
        <ele>738.70000000000005</ele>
        <time>2010-12-31T11:20:47Z</time>
      </trkpt>
      <trkpt lat="31.203670017421246" lon="-3.950451985001564">
        <ele>738.70000000000005</ele>
        <time>2010-12-31T11:20:49Z</time>
      </trkpt>
      <trkpt lat="31.203771019354463" lon="-3.950402028858662">
        <ele>738.70000000000005</ele>
        <time>2010-12-31T11:20:50Z</time>
      </trkpt>
      <trkpt lat="31.203875038772821" lon="-3.950362969189882">
        <ele>738.70000000000005</ele>
        <time>2010-12-31T11:20:51Z</time>
      </trkpt>
      <trkpt lat="31.20398199185729" lon="-3.950336985290051">
        <ele>738.70000000000005</ele>
        <time>2010-12-31T11:20:52Z</time>
      </trkpt>
      <trkpt lat="31.204096991568804" lon="-3.950326004996896">
        <ele>738.60000000000002</ele>
        <time>2010-12-31T11:20:53Z</time>
      </trkpt>
      <trkpt lat="31.20421601459384" lon="-3.950332039967179">
        <ele>738.60000000000002</ele>
        <time>2010-12-31T11:20:54Z</time>
      </trkpt>
      <trkpt lat="31.204327996820211" lon="-3.950352994725108">
        <ele>738.60000000000002</ele>
        <time>2010-12-31T11:20:55Z</time>
      </trkpt>
      <trkpt lat="31.204433022066951" lon="-3.950385013595223">
        <ele>738.70000000000005</ele>
        <time>2010-12-31T11:20:56Z</time>
      </trkpt>
      <trkpt lat="31.205187980085611" lon="-3.950630016624928">
        <ele>738.79999999999995</ele>
        <time>2010-12-31T11:21:03Z</time>
      </trkpt>
      <trkpt lat="31.205304991453886" lon="-3.950644014403224">
        <ele>739</ele>
        <time>2010-12-31T11:21:04Z</time>
      </trkpt>
      <trkpt lat="31.206382988020778" lon="-3.950827997177839">
        <ele>739.20000000000005</ele>
        <time>2010-12-31T11:21:12Z</time>
      </trkpt>
      <trkpt lat="31.206521959975362" lon="-3.950867978855968">
        <ele>739.20000000000005</ele>
        <time>2010-12-31T11:21:13Z</time>
      </trkpt>
      <trkpt lat="31.206659004092216" lon="-3.95091500133276">
        <ele>739.20000000000005</ele>
        <time>2010-12-31T11:21:14Z</time>
      </trkpt>
      <trkpt lat="31.2077840231359" lon="-3.951343987137079">
        <ele>740</ele>
        <time>2010-12-31T11:21:23Z</time>
      </trkpt>
      <trkpt lat="31.207914026454091" lon="-3.951363014057279">
        <ele>740</ele>
        <time>2010-12-31T11:21:24Z</time>
      </trkpt>
      <trkpt lat="31.209921995177865" lon="-3.951693009585142">
        <ele>740.79999999999995</ele>
        <time>2010-12-31T11:21:39Z</time>
      </trkpt>
      <trkpt lat="31.210056021809578" lon="-3.951733997091651">
        <ele>740.79999999999995</ele>
        <time>2010-12-31T11:21:40Z</time>
      </trkpt>
      <trkpt lat="31.213568039238453" lon="-3.95302003249526">
        <ele>742.70000000000005</ele>
        <time>2010-12-31T11:22:07Z</time>
      </trkpt>
      <trkpt lat="31.214705966413021" lon="-3.953518001362681">
        <ele>742.89999999999998</ele>
        <time>2010-12-31T11:22:17Z</time>
      </trkpt>
      <trkpt lat="31.214835969731212" lon="-3.953586984425783">
        <ele>742.89999999999998</ele>
        <time>2010-12-31T11:22:18Z</time>
      </trkpt>
      <trkpt lat="31.21521701104939" lon="-3.953831987455487">
        <ele>742.79999999999995</ele>
        <time>2010-12-31T11:22:21Z</time>
      </trkpt>
      <trkpt lat="31.215337039902806" lon="-3.953917985782027">
        <ele>742.79999999999995</ele>
        <time>2010-12-31T11:22:22Z</time>
      </trkpt>
      <trkpt lat="31.215447010472417" lon="-3.954012030735612">
        <ele>742.89999999999998</ele>
        <time>2010-12-31T11:22:23Z</time>
      </trkpt>
      <trkpt lat="31.215553041547537" lon="-3.95411403849721">
        <ele>742.79999999999995</ele>
        <time>2010-12-31T11:22:24Z</time>
      </trkpt>
      <trkpt lat="31.215752027928829" lon="-3.954341020435095">
        <ele>743</ele>
        <time>2010-12-31T11:22:26Z</time>
      </trkpt>
      <trkpt lat="31.215936010703444" lon="-3.954579988494515">
        <ele>743.20000000000005</ele>
        <time>2010-12-31T11:22:28Z</time>
      </trkpt>
      <trkpt lat="31.217091958969831" lon="-3.956132987514138">
        <ele>743.89999999999998</ele>
        <time>2010-12-31T11:22:41Z</time>
      </trkpt>
      <trkpt lat="31.217184998095036" lon="-3.956229966133833">
        <ele>744</ele>
        <time>2010-12-31T11:22:42Z</time>
      </trkpt>
      <trkpt lat="31.217738036066294" lon="-3.956703040748835">
        <ele>744.39999999999998</ele>
        <time>2010-12-31T11:22:48Z</time>
      </trkpt>
      <trkpt lat="31.217799978330731" lon="-3.956784009933472">
        <ele>744.29999999999995</ele>
        <time>2010-12-31T11:22:49Z</time>
      </trkpt>
      <trkpt lat="31.218582009896636" lon="-3.957809032872319">
        <ele>744.60000000000002</ele>
        <time>2010-12-31T11:23:00Z</time>
      </trkpt>
      <trkpt lat="31.21970702894032" lon="-3.959438977763057">
        <ele>743.39999999999998</ele>
        <time>2010-12-31T11:23:19Z</time>
      </trkpt>
      <trkpt lat="31.219785986468196" lon="-3.959535034373403">
        <ele>743.39999999999998</ele>
        <time>2010-12-31T11:23:20Z</time>
      </trkpt>
      <trkpt lat="31.221274025738239" lon="-3.961603017523885">
        <ele>743.10000000000002</ele>
        <time>2010-12-31T11:23:42Z</time>
      </trkpt>
      <trkpt lat="31.221328005194664" lon="-3.96170100197196">
        <ele>743.20000000000005</ele>
        <time>2010-12-31T11:23:43Z</time>
      </trkpt>
      <trkpt lat="31.221373016014695" lon="-3.96180896088481">
        <ele>743.20000000000005</ele>
        <time>2010-12-31T11:23:44Z</time>
      </trkpt>
      <trkpt lat="31.221564961597323" lon="-3.962254961952567">
        <ele>743</ele>
        <time>2010-12-31T11:23:48Z</time>
      </trkpt>
      <trkpt lat="31.221626987680793" lon="-3.962355963885784">
        <ele>743</ele>
        <time>2010-12-31T11:23:49Z</time>
      </trkpt>
      <trkpt lat="31.221898980438709" lon="-3.962807999923825">
        <ele>743</ele>
        <time>2010-12-31T11:23:54Z</time>
      </trkpt>
      <trkpt lat="31.221987996250391" lon="-3.962910007685423">
        <ele>743.60000000000002</ele>
        <time>2010-12-31T11:23:56Z</time>
      </trkpt>
      <trkpt lat="31.222067037597299" lon="-3.963100025430322">
        <ele>744</ele>
        <time>2010-12-31T11:23:59Z</time>
      </trkpt>
      <trkpt lat="31.222169967368245" lon="-3.963546026498079">
        <ele>744.5</ele>
        <time>2010-12-31T11:24:04Z</time>
      </trkpt>
      <trkpt lat="31.222315980121493" lon="-3.963812990114093">
        <ele>744.60000000000002</ele>
        <time>2010-12-31T11:24:07Z</time>
      </trkpt>
      <trkpt lat="31.222582021728158" lon="-3.964198976755142">
        <ele>744.29999999999995</ele>
        <time>2010-12-31T11:24:11Z</time>
      </trkpt>
      <trkpt lat="31.22276097536087" lon="-3.964435011148453">
        <ele>744.10000000000002</ele>
        <time>2010-12-31T11:24:14Z</time>
      </trkpt>
      <trkpt lat="31.22312399558723" lon="-3.965130038559437">
        <ele>744.10000000000002</ele>
        <time>2010-12-31T11:24:22Z</time>
      </trkpt>
      <trkpt lat="31.22318996116519" lon="-3.965217964723706">
        <ele>744.10000000000002</ele>
        <time>2010-12-31T11:24:23Z</time>
      </trkpt>
      <trkpt lat="31.223265985026956" lon="-3.965298011898994">
        <ele>744.60000000000002</ele>
        <time>2010-12-31T11:24:24Z</time>
      </trkpt>
      <trkpt lat="31.22361701913178" lon="-3.965639993548393">
        <ele>744.70000000000005</ele>
        <time>2010-12-31T11:24:29Z</time>
      </trkpt>
      <trkpt lat="31.22372598387301" lon="-3.965768991038203">
        <ele>744.60000000000002</ele>
        <time>2010-12-31T11:24:31Z</time>
      </trkpt>
      <trkpt lat="31.223980039358139" lon="-3.965952973812819">
        <ele>744.79999999999995</ele>
        <time>2010-12-31T11:24:35Z</time>
      </trkpt>
      <trkpt lat="31.224067965522408" lon="-3.966065039858222">
        <ele>745</ele>
        <time>2010-12-31T11:24:37Z</time>
      </trkpt>
      <trkpt lat="31.224182965233922" lon="-3.966373996809125">
        <ele>745.5</ele>
        <time>2010-12-31T11:24:42Z</time>
      </trkpt>
      <trkpt lat="31.224279021844268" lon="-3.966665016487241">
        <ele>746.10000000000002</ele>
        <time>2010-12-31T11:24:46Z</time>
      </trkpt>
      <trkpt lat="31.224544979631901" lon="-3.9670729637146">
        <ele>745.70000000000005</ele>
        <time>2010-12-31T11:24:51Z</time>
      </trkpt>
      <trkpt lat="31.22552901506424" lon="-3.968399986624718">
        <ele>744.5</ele>
        <time>2010-12-31T11:25:08Z</time>
      </trkpt>
      <trkpt lat="31.225769994780421" lon="-3.968701986595988">
        <ele>744.10000000000002</ele>
        <time>2010-12-31T11:25:13Z</time>
      </trkpt>
      <trkpt lat="31.225898992270231" lon="-3.968932991847396">
        <ele>743.79999999999995</ele>
        <time>2010-12-31T11:25:17Z</time>
      </trkpt>
      <trkpt lat="31.225981973111629" lon="-3.969039022922516">
        <ele>743.60000000000002</ele>
        <time>2010-12-31T11:25:19Z</time>
      </trkpt>
      <trkpt lat="31.226092027500272" lon="-3.969137007370591">
        <ele>743.29999999999995</ele>
        <time>2010-12-31T11:25:21Z</time>
      </trkpt>
      <trkpt lat="31.227807970717549" lon="-3.970621023327112">
        <ele>754.79999999999995</ele>
        <time>2010-12-31T11:25:45Z</time>
      </trkpt>
      <trkpt lat="31.227931017056108" lon="-3.970765024423599">
        <ele>755.39999999999998</ele>
        <time>2010-12-31T11:25:47Z</time>
      </trkpt>
      <trkpt lat="31.228157998993993" lon="-3.971076998859644">
        <ele>754.5</ele>
        <time>2010-12-31T11:25:51Z</time>
      </trkpt>
      <trkpt lat="31.22870902530849" lon="-3.97190798074007">
        <ele>751.89999999999998</ele>
        <time>2010-12-31T11:26:01Z</time>
      </trkpt>
      <trkpt lat="31.228756969794631" lon="-3.971999008208513">
        <ele>751.5</ele>
        <time>2010-12-31T11:26:02Z</time>
      </trkpt>
      <trkpt lat="31.229074979200959" lon="-3.972580963745713">
        <ele>749.10000000000002</ele>
        <time>2010-12-31T11:26:09Z</time>
      </trkpt>
      <trkpt lat="31.229202970862389" lon="-3.972783973440528">
        <ele>747.89999999999998</ele>
        <time>2010-12-31T11:26:12Z</time>
      </trkpt>
      <trkpt lat="31.229240018874407" lon="-3.97293996065855">
        <ele>747.89999999999998</ele>
        <time>2010-12-31T11:26:14Z</time>
      </trkpt>
      <trkpt lat="31.22920598834753" lon="-3.973196027800441">
        <ele>747.70000000000005</ele>
        <time>2010-12-31T11:26:17Z</time>
      </trkpt>
      <trkpt lat="31.22922501526773" lon="-3.973470032215118">
        <ele>746.5</ele>
        <time>2010-12-31T11:26:20Z</time>
      </trkpt>
      <trkpt lat="31.229268014431" lon="-3.973662983626127">
        <ele>746.39999999999998</ele>
        <time>2010-12-31T11:26:22Z</time>
      </trkpt>
      <trkpt lat="31.229598009958863" lon="-3.974617011845112">
        <ele>747.29999999999995</ele>
        <time>2010-12-31T11:26:33Z</time>
      </trkpt>
      <trkpt lat="31.229669004678726" lon="-3.974771993234754">
        <ele>747.20000000000005</ele>
        <time>2010-12-31T11:26:35Z</time>
      </trkpt>
      <trkpt lat="31.229765983298421" lon="-3.974906019866467">
        <ele>746.89999999999998</ele>
        <time>2010-12-31T11:26:37Z</time>
      </trkpt>
      <trkpt lat="31.229884000495076" lon="-3.97502101957798">
        <ele>747.70000000000005</ele>
        <time>2010-12-31T11:26:39Z</time>
      </trkpt>
      <trkpt lat="31.2302350345999" lon="-3.975327964872122">
        <ele>748.89999999999998</ele>
        <time>2010-12-31T11:26:45Z</time>
      </trkpt>
      <trkpt lat="31.230345005169511" lon="-3.975467020645738">
        <ele>748.70000000000005</ele>
        <time>2010-12-31T11:26:47Z</time>
      </trkpt>
      <trkpt lat="31.230932995676994" lon="-3.976260032504797">
        <ele>747.29999999999995</ele>
        <time>2010-12-31T11:27:00Z</time>
      </trkpt>
      <trkpt lat="31.231010025367141" lon="-3.976319041103125">
        <ele>747.20000000000005</ele>
        <time>2010-12-31T11:27:02Z</time>
      </trkpt>
      <trkpt lat="31.231110021471977" lon="-3.976371008902788">
        <ele>747.10000000000002</ele>
        <time>2010-12-31T11:27:04Z</time>
      </trkpt>
      <trkpt lat="31.231199037283659" lon="-3.976457007229328">
        <ele>747</ele>
        <time>2010-12-31T11:27:06Z</time>
      </trkpt>
      <trkpt lat="31.231292998418212" lon="-3.976609976962209">
        <ele>746.79999999999995</ele>
        <time>2010-12-31T11:27:09Z</time>
      </trkpt>
      <trkpt lat="31.231356030330062" lon="-3.976723970845342">
        <ele>746.79999999999995</ele>
        <time>2010-12-31T11:27:11Z</time>
      </trkpt>
      <trkpt lat="31.231965981423855" lon="-3.977499967440963">
        <ele>744.89999999999998</ele>
        <time>2010-12-31T11:27:25Z</time>
      </trkpt>
      <trkpt lat="31.2321259919554" lon="-3.977670958265662">
        <ele>746.39999999999998</ele>
        <time>2010-12-31T11:27:29Z</time>
      </trkpt>
      <trkpt lat="31.232205033302307" lon="-3.977725021541119">
        <ele>747.39999999999998</ele>
        <time>2010-12-31T11:27:31Z</time>
      </trkpt>
      <trkpt lat="31.232325984165072" lon="-3.977661989629269">
        <ele>752.20000000000005</ele>
        <time>2010-12-31T11:35:57Z</time>
      </trkpt>
      <trkpt lat="31.232411982491612" lon="-3.977693002671003">
        <ele>752.29999999999995</ele>
        <time>2010-12-31T11:36:01Z</time>
      </trkpt>
      <trkpt lat="31.232428997755051" lon="-3.977817976847291">
        <ele>752.20000000000005</ele>
        <time>2010-12-31T11:36:04Z</time>
      </trkpt>
      <trkpt lat="31.232376024127007" lon="-3.977911015972495">
        <ele>752.39999999999998</ele>
        <time>2010-12-31T11:36:07Z</time>
      </trkpt>
      <trkpt lat="31.232024990022182" lon="-3.978099022060633">
        <ele>708.5</ele>
        <time>2010-12-31T11:52:06Z</time>
      </trkpt>
      <trkpt lat="31.231933040544391" lon="-3.978077983483672">
        <ele>708.89999999999998</ele>
        <time>2010-12-31T11:52:13Z</time>
      </trkpt>
      <trkpt lat="31.232070000842214" lon="-3.977972036227584">
        <ele>734.29999999999995</ele>
        <time>2010-12-31T11:54:02Z</time>
      </trkpt>
      <trkpt lat="31.232068995013833" lon="-3.977800039574504">
        <ele>730.5</ele>
        <time>2010-12-31T11:55:55Z</time>
      </trkpt>
      <trkpt lat="31.232218025252223" lon="-3.977671964094043">
        <ele>742.20000000000005</ele>
        <time>2010-12-31T11:56:42Z</time>
      </trkpt>
      <trkpt lat="31.232309974730015" lon="-3.977630976587534">
        <ele>745.60000000000002</ele>
        <time>2010-12-31T11:56:59Z</time>
      </trkpt>
      <trkpt lat="31.232399996370077" lon="-3.977669030427933">
        <ele>744</ele>
        <time>2010-12-31T11:57:04Z</time>
      </trkpt>
      <trkpt lat="31.232423968613148" lon="-3.977796016260982">
        <ele>736.5</ele>
        <time>2010-12-31T11:57:17Z</time>
      </trkpt>
      <trkpt lat="31.232469985261559" lon="-3.978730011731386">
        <ele>722.20000000000005</ele>
        <time>2010-12-31T11:57:43Z</time>
      </trkpt>
      <trkpt lat="31.232455987483263" lon="-3.979074005037546">
        <ele>719.70000000000005</ele>
        <time>2010-12-31T11:57:50Z</time>
      </trkpt>
      <trkpt lat="31.232438972219825" lon="-3.979282965883613">
        <ele>718.79999999999995</ele>
        <time>2010-12-31T11:57:53Z</time>
      </trkpt>
      <trkpt lat="31.232411982491612" lon="-3.979436019435525">
        <ele>718.20000000000005</ele>
        <time>2010-12-31T11:57:55Z</time>
      </trkpt>
      <trkpt lat="31.232363032177091" lon="-3.979600975289941">
        <ele>717.70000000000005</ele>
        <time>2010-12-31T11:57:57Z</time>
      </trkpt>
      <trkpt lat="31.23229899443686" lon="-3.979765009135008">
        <ele>717</ele>
        <time>2010-12-31T11:57:59Z</time>
      </trkpt>
      <trkpt lat="31.231877971440554" lon="-3.980623986572027">
        <ele>718.60000000000002</ele>
        <time>2010-12-31T11:58:11Z</time>
      </trkpt>
      <trkpt lat="31.231832038611174" lon="-3.980774022638798">
        <ele>717.5</ele>
        <time>2010-12-31T11:58:13Z</time>
      </trkpt>
      <trkpt lat="31.231614025309682" lon="-3.981670970097184">
        <ele>713.10000000000002</ele>
        <time>2010-12-31T11:58:26Z</time>
      </trkpt>
      <trkpt lat="31.231477987021208" lon="-3.982982989400625">
        <ele>711</ele>
        <time>2010-12-31T11:58:45Z</time>
      </trkpt>
      <trkpt lat="31.231477987021208" lon="-3.983136964961886">
        <ele>711.39999999999998</ele>
        <time>2010-12-31T11:58:47Z</time>
      </trkpt>
      <trkpt lat="31.231736987829208" lon="-3.98449600674212">
        <ele>711.60000000000002</ele>
        <time>2010-12-31T11:59:04Z</time>
      </trkpt>
      <trkpt lat="31.23180597089231" lon="-3.98473497480154">
        <ele>711.70000000000005</ele>
        <time>2010-12-31T11:59:08Z</time>
      </trkpt>
      <trkpt lat="31.23216999694705" lon="-3.985732002183795">
        <ele>725.60000000000002</ele>
        <time>2010-12-31T11:59:27Z</time>
      </trkpt>
      <trkpt lat="31.232236968353391" lon="-3.985853036865592">
        <ele>727.29999999999995</ele>
        <time>2010-12-31T11:59:29Z</time>
      </trkpt>
      <trkpt lat="31.232908023521304" lon="-3.986914018169045">
        <ele>726.39999999999998</ele>
        <time>2010-12-31T11:59:47Z</time>
      </trkpt>
      <trkpt lat="31.23358603566885" lon="-3.987517012283206">
        <ele>726.70000000000005</ele>
        <time>2010-12-31T11:59:58Z</time>
      </trkpt>
      <trkpt lat="31.234474014490843" lon="-3.988183960318565">
        <ele>729.20000000000005</ele>
        <time>2010-12-31T12:00:09Z</time>
      </trkpt>
      <trkpt lat="31.234751036390662" lon="-3.988348999992013">
        <ele>730</ele>
        <time>2010-12-31T12:00:12Z</time>
      </trkpt>
      <trkpt lat="31.236050985753536" lon="-3.989057019352913">
        <ele>734.5</ele>
        <time>2010-12-31T12:00:27Z</time>
      </trkpt>
      <trkpt lat="31.23616699129343" lon="-3.98915802128613">
        <ele>734.79999999999995</ele>
        <time>2010-12-31T12:00:29Z</time>
      </trkpt>
      <trkpt lat="31.237522009760141" lon="-3.990423018112779">
        <ele>731.5</ele>
        <time>2010-12-31T12:00:49Z</time>
      </trkpt>
      <trkpt lat="31.237930962815881" lon="-3.990916963666678">
        <ele>730.89999999999998</ele>
        <time>2010-12-31T12:00:55Z</time>
      </trkpt>
      <trkpt lat="31.238677036017179" lon="-3.991834027692676">
        <ele>729.20000000000005</ele>
        <time>2010-12-31T12:01:05Z</time>
      </trkpt>
      <trkpt lat="31.238768985494971" lon="-3.991917008534074">
        <ele>729.10000000000002</ele>
        <time>2010-12-31T12:01:06Z</time>
      </trkpt>
      <trkpt lat="31.242658020928502" lon="-3.995463978499174">
        <ele>725</ele>
        <time>2010-12-31T12:01:48Z</time>
      </trkpt>
      <trkpt lat="31.2427410017699" lon="-3.995556011795998">
        <ele>725</ele>
        <time>2010-12-31T12:01:49Z</time>
      </trkpt>
      <trkpt lat="31.243146015331149" lon="-3.996061021462083">
        <ele>724.70000000000005</ele>
        <time>2010-12-31T12:01:54Z</time>
      </trkpt>
      <trkpt lat="31.243627974763513" lon="-3.996758982539177">
        <ele>724.79999999999995</ele>
        <time>2010-12-31T12:02:00Z</time>
      </trkpt>
      <trkpt lat="31.246737996116281" lon="-4.00103903375566">
        <ele>726.60000000000002</ele>
        <time>2010-12-31T12:02:38Z</time>
      </trkpt>
      <trkpt lat="31.247180979698896" lon="-4.001581007614732">
        <ele>728.10000000000002</ele>
        <time>2010-12-31T12:02:44Z</time>
      </trkpt>
      <trkpt lat="31.247244011610746" lon="-4.001689972355962">
        <ele>728.20000000000005</ele>
        <time>2010-12-31T12:02:45Z</time>
      </trkpt>
      <trkpt lat="31.247737035155296" lon="-4.002601001411676">
        <ele>730.29999999999995</ele>
        <time>2010-12-31T12:02:53Z</time>
      </trkpt>
      <trkpt lat="31.247818004339933" lon="-4.002699991688132">
        <ele>730.20000000000005</ele>
        <time>2010-12-31T12:02:54Z</time>
      </trkpt>
      <trkpt lat="31.248227041214705" lon="-4.003172982484102">
        <ele>730</ele>
        <time>2010-12-31T12:02:59Z</time>
      </trkpt>
      <trkpt lat="31.248293006792665" lon="-4.003275996074081">
        <ele>729.70000000000005</ele>
        <time>2010-12-31T12:03:00Z</time>
      </trkpt>
      <trkpt lat="31.250513037666678" lon="-4.007022036239505">
        <ele>732.60000000000002</ele>
        <time>2010-12-31T12:03:28Z</time>
      </trkpt>
      <trkpt lat="31.250562993809581" lon="-4.007132006809115">
        <ele>732.5</ele>
        <time>2010-12-31T12:03:29Z</time>
      </trkpt>
      <trkpt lat="31.250782012939453" lon="-4.007738018408418">
        <ele>732.70000000000005</ele>
        <time>2010-12-31T12:03:34Z</time>
      </trkpt>
      <trkpt lat="31.251099016517401" lon="-4.008800005540252">
        <ele>734.60000000000002</ele>
        <time>2010-12-31T12:03:42Z</time>
      </trkpt>
      <trkpt lat="31.253981972113252" lon="-4.01631698012352">
        <ele>755.20000000000005</ele>
        <time>2010-12-31T12:04:34Z</time>
      </trkpt>
      <trkpt lat="31.254049027338624" lon="-4.016460981220007">
        <ele>755.60000000000002</ele>
        <time>2010-12-31T12:04:35Z</time>
      </trkpt>
      <trkpt lat="31.25582498498261" lon="-4.020412964746356">
        <ele>760.5</ele>
        <time>2010-12-31T12:05:01Z</time>
      </trkpt>
      <trkpt lat="31.255984995514154" lon="-4.020688980817795">
        <ele>758.89999999999998</ele>
        <time>2010-12-31T12:05:03Z</time>
      </trkpt>
      <trkpt lat="31.256068982183933" lon="-4.020820995792747">
        <ele>757.60000000000002</ele>
        <time>2010-12-31T12:05:04Z</time>
      </trkpt>
      <trkpt lat="31.256163027137518" lon="-4.020946975797415">
        <ele>756.20000000000005</ele>
        <time>2010-12-31T12:05:05Z</time>
      </trkpt>
      <trkpt lat="31.257068021222949" lon="-4.022025978192687">
        <ele>752.5</ele>
        <time>2010-12-31T12:05:14Z</time>
      </trkpt>
      <trkpt lat="31.257141027599573" lon="-4.022148018702865">
        <ele>752.39999999999998</ele>
        <time>2010-12-31T12:05:15Z</time>
      </trkpt>
      <trkpt lat="31.257195007055998" lon="-4.022281039506197">
        <ele>752.29999999999995</ele>
        <time>2010-12-31T12:05:16Z</time>
      </trkpt>
      <trkpt lat="31.257235994562507" lon="-4.022425040602684">
        <ele>752.10000000000002</ele>
        <time>2010-12-31T12:05:17Z</time>
      </trkpt>
      <trkpt lat="31.257470017299056" lon="-4.023484010249376">
        <ele>748.89999999999998</ele>
        <time>2010-12-31T12:05:24Z</time>
      </trkpt>
      <trkpt lat="31.257526008412242" lon="-4.023617031052709">
        <ele>748.39999999999998</ele>
        <time>2010-12-31T12:05:25Z</time>
      </trkpt>
      <trkpt lat="31.257591973990202" lon="-4.023740999400616">
        <ele>748.20000000000005</ele>
        <time>2010-12-31T12:05:26Z</time>
      </trkpt>
      <trkpt lat="31.257667997851968" lon="-4.023853987455368">
        <ele>748</ele>
        <time>2010-12-31T12:05:27Z</time>
      </trkpt>
      <trkpt lat="31.257989024743438" lon="-4.024270987138152">
        <ele>748</ele>
        <time>2010-12-31T12:05:31Z</time>
      </trkpt>
      <trkpt lat="31.258405018597841" lon="-4.024785971269012">
        <ele>748.29999999999995</ele>
        <time>2010-12-31T12:05:36Z</time>
      </trkpt>
      <trkpt lat="31.258472995832562" lon="-4.024895019829273">
        <ele>748.29999999999995</ele>
        <time>2010-12-31T12:05:37Z</time>
      </trkpt>
      <trkpt lat="31.258796034380794" lon="-4.025477981194854">
        <ele>751.70000000000005</ele>
        <time>2010-12-31T12:05:43Z</time>
      </trkpt>
      <trkpt lat="31.262933006510139" lon="-4.03292597271502">
        <ele>767.79999999999995</ele>
        <time>2010-12-31T12:06:39Z</time>
      </trkpt>
      <trkpt lat="31.262993020936847" lon="-4.033076008781791">
        <ele>767.79999999999995</ele>
        <time>2010-12-31T12:06:40Z</time>
      </trkpt>
      <trkpt lat="31.266448963433504" lon="-4.041182985529304">
        <ele>767</ele>
        <time>2010-12-31T12:07:31Z</time>
      </trkpt>
      <trkpt lat="31.266533033922315" lon="-4.041333021596074">
        <ele>767.20000000000005</ele>
        <time>2010-12-31T12:07:32Z</time>
      </trkpt>
      <trkpt lat="31.266953973099589" lon="-4.042026037350297">
        <ele>767.5</ele>
        <time>2010-12-31T12:07:37Z</time>
      </trkpt>
      <trkpt lat="31.267022034153342" lon="-4.04218596406281">
        <ele>767.5</ele>
        <time>2010-12-31T12:07:38Z</time>
      </trkpt>
      <trkpt lat="31.267482032999396" lon="-4.043364962562919">
        <ele>766.70000000000005</ele>
        <time>2010-12-31T12:07:45Z</time>
      </trkpt>
      <trkpt lat="31.267563002184033" lon="-4.043510975316167">
        <ele>766.60000000000002</ele>
        <time>2010-12-31T12:07:46Z</time>
      </trkpt>
      <trkpt lat="31.268148981034756" lon="-4.044391997158527">
        <ele>767.20000000000005</ele>
        <time>2010-12-31T12:07:53Z</time>
      </trkpt>
      <trkpt lat="31.268215030431747" lon="-4.044543961063027">
        <ele>767.20000000000005</ele>
        <time>2010-12-31T12:07:54Z</time>
      </trkpt>
      <trkpt lat="31.268270015716553" lon="-4.044705983251333">
        <ele>767.10000000000002</ele>
        <time>2010-12-31T12:07:55Z</time>
      </trkpt>
      <trkpt lat="31.268874015659094" lon="-4.04641798697412">
        <ele>767</ele>
        <time>2010-12-31T12:08:05Z</time>
      </trkpt>
      <trkpt lat="31.268955990672112" lon="-4.04658897779882">
        <ele>767</ele>
        <time>2010-12-31T12:08:06Z</time>
      </trkpt>
      <trkpt lat="31.271509034559131" lon="-4.051388958469033">
        <ele>767.39999999999998</ele>
        <time>2010-12-31T12:08:35Z</time>
      </trkpt>
      <trkpt lat="31.271711960434914" lon="-4.051684001460671">
        <ele>767.39999999999998</ele>
        <time>2010-12-31T12:08:37Z</time>
      </trkpt>
      <trkpt lat="31.274651996791363" lon="-4.056152980774641">
        <ele>768.5</ele>
        <time>2010-12-31T12:09:06Z</time>
      </trkpt>
      <trkpt lat="31.274742018431425" lon="-4.05632397159934">
        <ele>768.5</ele>
        <time>2010-12-31T12:09:07Z</time>
      </trkpt>
      <trkpt lat="31.278816964477301" lon="-4.06354296952486">
        <ele>769.60000000000002</ele>
        <time>2010-12-31T12:09:56Z</time>
      </trkpt>
      <trkpt lat="31.281997980549932" lon="-4.069431005045772">
        <ele>768.29999999999995</ele>
        <time>2010-12-31T12:10:32Z</time>
      </trkpt>
      <trkpt lat="31.282074004411697" lon="-4.069611970335245">
        <ele>768.29999999999995</ele>
        <time>2010-12-31T12:10:33Z</time>
      </trkpt>
      <trkpt lat="31.285429028794169" lon="-4.078642968088388">
        <ele>791.79999999999995</ele>
        <time>2010-12-31T12:11:28Z</time>
      </trkpt>
      <trkpt lat="31.287335995584726" lon="-4.084625970572233">
        <ele>784.79999999999995</ele>
        <time>2010-12-31T12:12:04Z</time>
      </trkpt>
      <trkpt lat="31.287384023889899" lon="-4.084800984710455">
        <ele>784.29999999999995</ele>
        <time>2010-12-31T12:12:05Z</time>
      </trkpt>
      <trkpt lat="31.287564989179373" lon="-4.085622997954488">
        <ele>781.29999999999995</ele>
        <time>2010-12-31T12:12:10Z</time>
      </trkpt>
      <trkpt lat="31.287589967250824" lon="-4.085779991000891">
        <ele>780.70000000000005</ele>
        <time>2010-12-31T12:12:11Z</time>
      </trkpt>
      <trkpt lat="31.287602037191391" lon="-4.085931032896042">
        <ele>780.20000000000005</ele>
        <time>2010-12-31T12:12:12Z</time>
      </trkpt>
      <trkpt lat="31.287606982514262" lon="-4.086077967658639">
        <ele>780</ele>
        <time>2010-12-31T12:12:13Z</time>
      </trkpt>
      <trkpt lat="31.287605976685882" lon="-4.086230015382171">
        <ele>779.70000000000005</ele>
        <time>2010-12-31T12:12:14Z</time>
      </trkpt>
      <trkpt lat="31.287598013877869" lon="-4.086390025913715">
        <ele>779.39999999999998</ele>
        <time>2010-12-31T12:12:15Z</time>
      </trkpt>
      <trkpt lat="31.287414031103253" lon="-4.089403990656138">
        <ele>775.20000000000005</ele>
        <time>2010-12-31T12:12:32Z</time>
      </trkpt>
      <trkpt lat="31.287427023053169" lon="-4.089541034772992">
        <ele>775.10000000000002</ele>
        <time>2010-12-31T12:12:33Z</time>
      </trkpt>
      <trkpt lat="31.287449989467859" lon="-4.089762987568975">
        <ele>774.79999999999995</ele>
        <time>2010-12-31T12:12:35Z</time>
      </trkpt>
      <trkpt lat="31.287444960325956" lon="-4.089950993657112">
        <ele>773.89999999999998</ele>
        <time>2010-12-31T12:12:37Z</time>
      </trkpt>
      <trkpt lat="31.287401039153337" lon="-4.090349972248077">
        <ele>773.39999999999998</ele>
        <time>2010-12-31T12:12:41Z</time>
      </trkpt>
      <trkpt lat="31.287353010848165" lon="-4.090534960851073">
        <ele>773</ele>
        <time>2010-12-31T12:12:43Z</time>
      </trkpt>
      <trkpt lat="31.287248991429806" lon="-4.09080401994288">
        <ele>770.89999999999998</ele>
        <time>2010-12-31T12:12:46Z</time>
      </trkpt>
      <trkpt lat="31.287231976166368" lon="-4.090910973027349">
        <ele>770.89999999999998</ele>
        <time>2010-12-31T12:12:47Z</time>
      </trkpt>
      <trkpt lat="31.287228036671877" lon="-4.091024966910482">
        <ele>770.79999999999995</ele>
        <time>2010-12-31T12:12:48Z</time>
      </trkpt>
      <trkpt lat="31.287272041663527" lon="-4.091637013480067">
        <ele>770.5</ele>
        <time>2010-12-31T12:12:53Z</time>
      </trkpt>
      <trkpt lat="31.28729903139174" lon="-4.091865001246333">
        <ele>770.5</ele>
        <time>2010-12-31T12:12:55Z</time>
      </trkpt>
      <trkpt lat="31.28732300363481" lon="-4.091971032321453">
        <ele>770.39999999999998</ele>
        <time>2010-12-31T12:12:56Z</time>
      </trkpt>
      <trkpt lat="31.287357034161687" lon="-4.092075973749161">
        <ele>770.39999999999998</ele>
        <time>2010-12-31T12:12:57Z</time>
      </trkpt>
      <trkpt lat="31.287399027496576" lon="-4.092178987339139">
        <ele>770.29999999999995</ele>
        <time>2010-12-31T12:12:58Z</time>
      </trkpt>
      <trkpt lat="31.28745099529624" lon="-4.092278983443975">
        <ele>770.20000000000005</ele>
        <time>2010-12-31T12:12:59Z</time>
      </trkpt>
      <trkpt lat="31.287775039672852" lon="-4.09278298728168">
        <ele>770.10000000000002</ele>
        <time>2010-12-31T12:13:04Z</time>
      </trkpt>
      <trkpt lat="31.288107968866825" lon="-4.093209961429238">
        <ele>770</ele>
        <time>2010-12-31T12:13:08Z</time>
      </trkpt>
      <trkpt lat="31.288198996335268" lon="-4.093313980847597">
        <ele>770.10000000000002</ele>
        <time>2010-12-31T12:13:09Z</time>
      </trkpt>
      <trkpt lat="31.2884839810431" lon="-4.093583039939404">
        <ele>770.39999999999998</ele>
        <time>2010-12-31T12:13:12Z</time>
      </trkpt>
      <trkpt lat="31.288578025996685" lon="-4.093649005517364">
        <ele>770.39999999999998</ele>
        <time>2010-12-31T12:13:13Z</time>
      </trkpt>
      <trkpt lat="31.288672992959619" lon="-4.093702984973788">
        <ele>770.60000000000002</ele>
        <time>2010-12-31T12:13:14Z</time>
      </trkpt>
      <trkpt lat="31.288775000721216" lon="-4.093742966651917">
        <ele>770.70000000000005</ele>
        <time>2010-12-31T12:13:15Z</time>
      </trkpt>
      <trkpt lat="31.288882959634066" lon="-4.093770040199161">
        <ele>770.89999999999998</ele>
        <time>2010-12-31T12:13:16Z</time>
      </trkpt>
      <trkpt lat="31.289216978475451" lon="-4.093810021877289">
        <ele>771.10000000000002</ele>
        <time>2010-12-31T12:13:19Z</time>
      </trkpt>
      <trkpt lat="31.289659040048718" lon="-4.093831982463598">
        <ele>771.29999999999995</ele>
        <time>2010-12-31T12:13:23Z</time>
      </trkpt>
      <trkpt lat="31.289765993133187" lon="-4.093831982463598">
        <ele>771.29999999999995</ele>
        <time>2010-12-31T12:13:24Z</time>
      </trkpt>
      <trkpt lat="31.290242001414299" lon="-4.093796024098992">
        <ele>771.39999999999998</ele>
        <time>2010-12-31T12:13:29Z</time>
      </trkpt>
      <trkpt lat="31.29039203748107" lon="-4.093766016885638">
        <ele>771.29999999999995</ele>
        <time>2010-12-31T12:13:31Z</time>
      </trkpt>
      <trkpt lat="31.290476024150848" lon="-4.093692004680634">
        <ele>764.29999999999995</ele>
        <time>2010-12-31T12:14:24Z</time>
      </trkpt>
      <trkpt lat="31.290594041347504" lon="-4.093610029667616">
        <ele>763.20000000000005</ele>
        <time>2010-12-31T12:14:30Z</time>
      </trkpt>
      <trkpt lat="31.29069303162396" lon="-4.093563007190824">
        <ele>762.39999999999998</ele>
        <time>2010-12-31T12:14:32Z</time>
      </trkpt>
      <trkpt lat="31.29086896777153" lon="-4.093511961400509">
        <ele>760.5</ele>
        <time>2010-12-31T12:14:35Z</time>
      </trkpt>
      <trkpt lat="31.291021015495062" lon="-4.093493018299341">
        <ele>759.60000000000002</ele>
        <time>2010-12-31T12:14:37Z</time>
      </trkpt>
      <trkpt lat="31.291187983006239" lon="-4.093532999977469">
        <ele>760.60000000000002</ele>
        <time>2010-12-31T12:14:39Z</time>
      </trkpt>
      <trkpt lat="31.291332989931107" lon="-4.093621009960771">
        <ele>760.79999999999995</ele>
        <time>2010-12-31T12:14:41Z</time>
      </trkpt>
      <trkpt lat="31.291455030441284" lon="-4.093723017722368">
        <ele>761.20000000000005</ele>
        <time>2010-12-31T12:14:43Z</time>
      </trkpt>
      <trkpt lat="31.291615040972829" lon="-4.093899959698319">
        <ele>760.79999999999995</ele>
        <time>2010-12-31T12:14:46Z</time>
      </trkpt>
      <trkpt lat="31.291717970743775" lon="-4.094044966623187">
        <ele>760.29999999999995</ele>
        <time>2010-12-31T12:14:48Z</time>
      </trkpt>
      <trkpt lat="31.293375995010138" lon="-4.096614019945264">
        <ele>759.29999999999995</ele>
        <time>2010-12-31T12:15:15Z</time>
      </trkpt>
      <trkpt lat="31.293444978073239" lon="-4.096695994958282">
        <ele>759.5</ele>
        <time>2010-12-31T12:15:16Z</time>
      </trkpt>
      <trkpt lat="31.293583028018475" lon="-4.096806971356273">
        <ele>760</ele>
        <time>2010-12-31T12:15:18Z</time>
      </trkpt>
      <trkpt lat="31.293740021064878" lon="-4.096874026581645">
        <ele>760.39999999999998</ele>
        <time>2010-12-31T12:15:20Z</time>
      </trkpt>
      <trkpt lat="31.293914029374719" lon="-4.0968850068748">
        <ele>760.70000000000005</ele>
        <time>2010-12-31T12:15:22Z</time>
      </trkpt>
      <trkpt lat="31.294070016592741" lon="-4.096839996054769">
        <ele>760.79999999999995</ele>
        <time>2010-12-31T12:15:24Z</time>
      </trkpt>
      <trkpt lat="31.294193984940648" lon="-4.096732959151268">
        <ele>761</ele>
        <time>2010-12-31T12:15:26Z</time>
      </trkpt>
      <trkpt lat="31.295152958482504" lon="-4.09563903696835">
        <ele>764.20000000000005</ele>
        <time>2010-12-31T12:15:41Z</time>
      </trkpt>
      <trkpt lat="31.295302994549274" lon="-4.09555303864181">
        <ele>764.39999999999998</ele>
        <time>2010-12-31T12:15:43Z</time>
      </trkpt>
      <trkpt lat="31.29546501673758" lon="-4.095500987023115">
        <ele>764.60000000000002</ele>
        <time>2010-12-31T12:15:45Z</time>
      </trkpt>
      <trkpt lat="31.295619998127222" lon="-4.095483971759677">
        <ele>765</ele>
        <time>2010-12-31T12:15:47Z</time>
      </trkpt>
      <trkpt lat="31.295767016708851" lon="-4.095495035871863">
        <ele>765.10000000000002</ele>
        <time>2010-12-31T12:15:49Z</time>
      </trkpt>
      <trkpt lat="31.296026017516851" lon="-4.095536023378372">
        <ele>765</ele>
        <time>2010-12-31T12:15:53Z</time>
      </trkpt>
      <trkpt lat="31.296168006956577" lon="-4.095538035035133">
        <ele>765.29999999999995</ele>
        <time>2010-12-31T12:15:55Z</time>
      </trkpt>
      <trkpt lat="31.297025978565216" lon="-4.095514984801412">
        <ele>766.60000000000002</ele>
        <time>2010-12-31T12:16:08Z</time>
      </trkpt>
      <trkpt lat="31.297156987711787" lon="-4.095521019771695">
        <ele>766.60000000000002</ele>
        <time>2010-12-31T12:16:11Z</time>
      </trkpt>
      <trkpt lat="31.297257989645004" lon="-4.095565024763346">
        <ele>766.5</ele>
        <time>2010-12-31T12:16:15Z</time>
      </trkpt>
      <trkpt lat="31.297199986875057" lon="-4.095730986446142">
        <ele>765.79999999999995</ele>
        <time>2010-12-31T12:16:36Z</time>
      </trkpt>
      <trkpt lat="31.297039976343513" lon="-4.095753030851483">
        <ele>765.5</ele>
        <time>2010-12-31T12:16:40Z</time>
      </trkpt>
      <trkpt lat="31.296930005773902" lon="-4.095754036679864">
        <ele>765.39999999999998</ele>
        <time>2010-12-31T12:16:42Z</time>
      </trkpt>
      <trkpt lat="31.296826992183924" lon="-4.09574800170958">
        <ele>765.20000000000005</ele>
        <time>2010-12-31T12:16:44Z</time>
      </trkpt>
      <trkpt lat="31.296214023604989" lon="-4.095637025311589">
        <ele>762</ele>
        <time>2010-12-31T12:16:53Z</time>
      </trkpt>
      <trkpt lat="31.295472979545593" lon="-4.095478020608425">
        <ele>757.70000000000005</ele>
        <time>2010-12-31T12:17:02Z</time>
      </trkpt>
      <trkpt lat="31.295312969014049" lon="-4.095493024215102">
        <ele>756.60000000000002</ele>
        <time>2010-12-31T12:17:04Z</time>
      </trkpt>
      <trkpt lat="31.29518698900938" lon="-4.095539040863514">
        <ele>756.10000000000002</ele>
        <time>2010-12-31T12:17:06Z</time>
      </trkpt>
      <trkpt lat="31.295081041753292" lon="-4.09561900421977">
        <ele>756.39999999999998</ele>
        <time>2010-12-31T12:17:08Z</time>
      </trkpt>
      <trkpt lat="31.29497199319303" lon="-4.095722017809749">
        <ele>754.20000000000005</ele>
        <time>2010-12-31T12:17:10Z</time>
      </trkpt>
      <trkpt lat="31.294135982170701" lon="-4.096686020493507">
        <ele>742.20000000000005</ele>
        <time>2010-12-31T12:17:24Z</time>
      </trkpt>
      <trkpt lat="31.293996004387736" lon="-4.09677897579968">
        <ele>740.39999999999998</ele>
        <time>2010-12-31T12:17:26Z</time>
      </trkpt>
      <trkpt lat="31.293834988027811" lon="-4.096807977184653">
        <ele>738.70000000000005</ele>
        <time>2010-12-31T12:17:28Z</time>
      </trkpt>
      <trkpt lat="31.293669026345015" lon="-4.096780987456441">
        <ele>737.70000000000005</ele>
        <time>2010-12-31T12:17:30Z</time>
      </trkpt>
      <trkpt lat="31.293516978621483" lon="-4.096722984686494">
        <ele>736.39999999999998</ele>
        <time>2010-12-31T12:17:32Z</time>
      </trkpt>
      <trkpt lat="31.293387981131673" lon="-4.096622988581657">
        <ele>735.5</ele>
        <time>2010-12-31T12:17:34Z</time>
      </trkpt>
      <trkpt lat="31.293153036385775" lon="-4.096330041065812">
        <ele>738.10000000000002</ele>
        <time>2010-12-31T12:17:38Z</time>
      </trkpt>
      <trkpt lat="31.292023994028568" lon="-4.094760026782751">
        <ele>741.60000000000002</ele>
        <time>2010-12-31T12:17:55Z</time>
      </trkpt>
      <trkpt lat="31.291765999048948" lon="-4.094389965757728">
        <ele>741.20000000000005</ele>
        <time>2010-12-31T12:17:59Z</time>
      </trkpt>
      <trkpt lat="31.29170598462224" lon="-4.094296004623175">
        <ele>741.60000000000002</ele>
        <time>2010-12-31T12:18:00Z</time>
      </trkpt>
      <trkpt lat="31.291653010994196" lon="-4.09419902600348">
        <ele>741.89999999999998</ele>
        <time>2010-12-31T12:18:01Z</time>
      </trkpt>
      <trkpt lat="31.291502974927425" lon="-4.093934996053577">
        <ele>741.79999999999995</ele>
        <time>2010-12-31T12:18:04Z</time>
      </trkpt>
      <trkpt lat="31.291163004934788" lon="-4.093528976663947">
        <ele>748</ele>
        <time>2010-12-31T12:18:11Z</time>
      </trkpt>
      <trkpt lat="31.291041970252991" lon="-4.093438033014536">
        <ele>749.20000000000005</ele>
        <time>2010-12-31T12:18:13Z</time>
      </trkpt>
      <trkpt lat="31.290896041318774" lon="-4.093416994437575">
        <ele>749.89999999999998</ele>
        <time>2010-12-31T12:18:15Z</time>
      </trkpt>
      <trkpt lat="31.290733013302088" lon="-4.09344800747931">
        <ele>750.70000000000005</ele>
        <time>2010-12-31T12:18:17Z</time>
      </trkpt>
      <trkpt lat="31.290559004992247" lon="-4.093505004420877">
        <ele>751</ele>
        <time>2010-12-31T12:18:19Z</time>
      </trkpt>
      <trkpt lat="31.290473006665707" lon="-4.093540962785482">
        <ele>751.20000000000005</ele>
        <time>2010-12-31T12:18:20Z</time>
      </trkpt>
      <trkpt lat="31.290303021669388" lon="-4.093629978597164">
        <ele>750.60000000000002</ele>
        <time>2010-12-31T12:18:22Z</time>
      </trkpt>
      <trkpt lat="31.290062963962555" lon="-4.093798035755754">
        <ele>749.5</ele>
        <time>2010-12-31T12:18:25Z</time>
      </trkpt>
      <trkpt lat="31.289920974522829" lon="-4.093927033245564">
        <ele>749.20000000000005</ele>
        <time>2010-12-31T12:18:27Z</time>
      </trkpt>
      <trkpt lat="31.28985601477325" lon="-4.094001967459917">
        <ele>748.79999999999995</ele>
        <time>2010-12-31T12:18:28Z</time>
      </trkpt>
      <trkpt lat="31.28979398868978" lon="-4.094083020463586">
        <ele>748</ele>
        <time>2010-12-31T12:18:29Z</time>
      </trkpt>
      <trkpt lat="31.2896219920367" lon="-4.094359958544374">
        <ele>745.10000000000002</ele>
        <time>2010-12-31T12:18:32Z</time>
      </trkpt>
      <trkpt lat="31.28889000043273" lon="-4.095785971730948">
        <ele>730.70000000000005</ele>
        <time>2010-12-31T12:18:44Z</time>
      </trkpt>
      <trkpt lat="31.288768965750933" lon="-4.09609098918736">
        <ele>728.20000000000005</ele>
        <time>2010-12-31T12:18:46Z</time>
      </trkpt>
      <trkpt lat="31.286901980638504" lon="-4.10238403826952">
        <ele>706.70000000000005</ele>
        <time>2010-12-31T12:19:22Z</time>
      </trkpt>
      <trkpt lat="31.285292990505695" lon="-4.107978958636522">
        <ele>701.60000000000002</ele>
        <time>2010-12-31T12:19:54Z</time>
      </trkpt>
      <trkpt lat="31.285231970250607" lon="-4.10812103189528">
        <ele>701.39999999999998</ele>
        <time>2010-12-31T12:19:55Z</time>
      </trkpt>
      <trkpt lat="31.283332966268063" lon="-4.11188199184835">
        <ele>697.70000000000005</ele>
        <time>2010-12-31T12:20:21Z</time>
      </trkpt>
      <trkpt lat="31.269503999501467" lon="-4.141038022935391">
        <ele>681.39999999999998</ele>
        <time>2010-12-31T12:22:59Z</time>
      </trkpt>
      <trkpt lat="31.269442979246378" lon="-4.141200967133045">
        <ele>683.70000000000005</ele>
        <time>2010-12-31T12:23:00Z</time>
      </trkpt>
      <trkpt lat="31.26545000821352" lon="-4.149079034104943">
        <ele>680.10000000000002</ele>
        <time>2010-12-31T12:23:43Z</time>
      </trkpt>
      <trkpt lat="31.264565968886018" lon="-4.150699004530907">
        <ele>688.29999999999995</ele>
        <time>2010-12-31T12:23:54Z</time>
      </trkpt>
      <trkpt lat="31.264500003308058" lon="-4.150851974263787">
        <ele>688.79999999999995</ele>
        <time>2010-12-31T12:23:55Z</time>
      </trkpt>
      <trkpt lat="31.264438983052969" lon="-4.151018019765616">
        <ele>688.5</ele>
        <time>2010-12-31T12:23:56Z</time>
      </trkpt>
      <trkpt lat="31.264098007231951" lon="-4.152255021035671">
        <ele>686</ele>
        <time>2010-12-31T12:24:04Z</time>
      </trkpt>
      <trkpt lat="31.264072023332119" lon="-4.152373038232327">
        <ele>685.70000000000005</ele>
        <time>2010-12-31T12:24:05Z</time>
      </trkpt>
      <trkpt lat="31.26403103582561" lon="-4.152670009061694">
        <ele>687.20000000000005</ele>
        <time>2010-12-31T12:24:10Z</time>
      </trkpt>
      <trkpt lat="31.263887034729123" lon="-4.152545034885407">
        <ele>689</ele>
        <time>2010-12-31T12:24:22Z</time>
      </trkpt>
      <trkpt lat="31.263806987553835" lon="-4.1522950027138">
        <ele>689.60000000000002</ele>
        <time>2010-12-31T12:24:26Z</time>
      </trkpt>
      <trkpt lat="31.263730963692069" lon="-4.152152007445693">
        <ele>689.5</ele>
        <time>2010-12-31T12:24:28Z</time>
      </trkpt>
      <trkpt lat="31.263596015051007" lon="-4.151958972215653">
        <ele>690</ele>
        <time>2010-12-31T12:24:31Z</time>
      </trkpt>
      <trkpt lat="31.263437010347843" lon="-4.151749005541205">
        <ele>690.79999999999995</ele>
        <time>2010-12-31T12:24:35Z</time>
      </trkpt>
      <trkpt lat="31.263382025063038" lon="-4.151641968637705">
        <ele>691.89999999999998</ele>
        <time>2010-12-31T12:24:38Z</time>
      </trkpt>
      <trkpt lat="31.263394011184573" lon="-4.151533003896475">
        <ele>692.60000000000002</ele>
        <time>2010-12-31T12:24:41Z</time>
      </trkpt>
      <trkpt lat="31.263456959277391" lon="-4.15137198753655">
        <ele>696.29999999999995</ele>
        <time>2010-12-31T12:24:44Z</time>
      </trkpt>
      <trkpt lat="31.26347498036921" lon="-4.151232009753585">
        <ele>698.5</ele>
        <time>2010-12-31T12:24:46Z</time>
      </trkpt>
      <trkpt lat="31.263446984812617" lon="-4.151098988950253">
        <ele>700.39999999999998</ele>
        <time>2010-12-31T12:24:48Z</time>
      </trkpt>
      <trkpt lat="31.263371966779232" lon="-4.150995975360274">
        <ele>701.39999999999998</ele>
        <time>2010-12-31T12:24:50Z</time>
      </trkpt>
      <trkpt lat="31.263282028958201" lon="-4.150917017832398">
        <ele>702.79999999999995</ele>
        <time>2010-12-31T12:24:52Z</time>
      </trkpt>
      <trkpt lat="31.263187984004617" lon="-4.150886004790664">
        <ele>704</ele>
        <time>2010-12-31T12:24:54Z</time>
      </trkpt>
      <trkpt lat="31.263126963749528" lon="-4.150993041694164">
        <ele>704.29999999999995</ele>
        <time>2010-12-31T12:24:57Z</time>
      </trkpt>
      <trkpt lat="31.263122018426657" lon="-4.151293030008674">
        <ele>708.60000000000002</ele>
        <time>2010-12-31T12:25:02Z</time>
      </trkpt>
      <trkpt lat="31.263146996498108" lon="-4.151423033326864">
        <ele>710.20000000000005</ele>
        <time>2010-12-31T12:25:04Z</time>
      </trkpt>
      <trkpt lat="31.26688901335001" lon="-4.160946970805526">
        <ele>733.39999999999998</ele>
        <time>2010-12-31T12:25:48Z</time>
      </trkpt>
      <trkpt lat="31.266985991969705" lon="-4.161173030734062">
        <ele>734</ele>
        <time>2010-12-31T12:25:49Z</time>
      </trkpt>
      <trkpt lat="31.267450014129281" lon="-4.162054974585772">
        <ele>736.20000000000005</ele>
        <time>2010-12-31T12:25:53Z</time>
      </trkpt>
      <trkpt lat="31.267747990787029" lon="-4.162469040602446">
        <ele>737.5</ele>
        <time>2010-12-31T12:25:55Z</time>
      </trkpt>
      <trkpt lat="31.267914958298206" lon="-4.162664003670216">
        <ele>738.29999999999995</ele>
        <time>2010-12-31T12:25:56Z</time>
      </trkpt>
      <trkpt lat="31.268461961299181" lon="-4.16319097392261">
        <ele>740.60000000000002</ele>
        <time>2010-12-31T12:25:59Z</time>
      </trkpt>
      <trkpt lat="31.293284967541695" lon="-4.183993013575673">
        <ele>760.5</ele>
        <time>2010-12-31T12:27:58Z</time>
      </trkpt>
      <trkpt lat="31.29344698973" lon="-4.184189988300204">
        <ele>760.60000000000002</ele>
        <time>2010-12-31T12:27:59Z</time>
      </trkpt>
      <trkpt lat="31.293601971119642" lon="-4.184392997995019">
        <ele>760.79999999999995</ele>
        <time>2010-12-31T12:28:00Z</time>
      </trkpt>
      <trkpt lat="31.29374697804451" lon="-4.184606987982988">
        <ele>760.89999999999998</ele>
        <time>2010-12-31T12:28:01Z</time>
      </trkpt>
      <trkpt lat="31.293878993019462" lon="-4.184831036254764">
        <ele>760.89999999999998</ele>
        <time>2010-12-31T12:28:02Z</time>
      </trkpt>
      <trkpt lat="31.293994998559356" lon="-4.185065981000662">
        <ele>761</ele>
        <time>2010-12-31T12:28:03Z</time>
      </trkpt>
      <trkpt lat="31.294089965522289" lon="-4.185312995687127">
        <ele>761</ele>
        <time>2010-12-31T12:28:04Z</time>
      </trkpt>
      <trkpt lat="31.294160038232803" lon="-4.185571996495128">
        <ele>761</ele>
        <time>2010-12-31T12:28:05Z</time>
      </trkpt>
      <trkpt lat="31.294204965233803" lon="-4.185839965939522">
        <ele>760.89999999999998</ele>
        <time>2010-12-31T12:28:06Z</time>
      </trkpt>
      <trkpt lat="31.294221980497241" lon="-4.186107013374567">
        <ele>758.89999999999998</ele>
        <time>2010-12-31T12:28:07Z</time>
      </trkpt>
      <trkpt lat="31.293804980814457" lon="-4.203162007033825">
        <ele>739.39999999999998</ele>
        <time>2010-12-31T12:29:02Z</time>
      </trkpt>
      <trkpt lat="31.293794000521302" lon="-4.203461995348334">
        <ele>739.5</ele>
        <time>2010-12-31T12:29:03Z</time>
      </trkpt>
      <trkpt lat="31.293515972793102" lon="-4.215959999710321">
        <ele>740.10000000000002</ele>
        <time>2010-12-31T12:29:45Z</time>
      </trkpt>
      <trkpt lat="31.293428968638182" lon="-4.216453023254871">
        <ele>740</ele>
        <time>2010-12-31T12:29:47Z</time>
      </trkpt>
      <trkpt lat="31.292515005916357" lon="-4.221604038029909">
        <ele>740.29999999999995</ele>
        <time>2010-12-31T12:30:12Z</time>
      </trkpt>
      <trkpt lat="31.292503019794822" lon="-4.221785003319383">
        <ele>740.5</ele>
        <time>2010-12-31T12:30:13Z</time>
      </trkpt>
      <trkpt lat="31.292495978996158" lon="-4.223878970369697">
        <ele>738.79999999999995</ele>
        <time>2010-12-31T12:30:25Z</time>
      </trkpt>
      <trkpt lat="31.292478041723371" lon="-4.224028000608087">
        <ele>738.60000000000002</ele>
        <time>2010-12-31T12:30:26Z</time>
      </trkpt>
      <trkpt lat="31.292439987882972" lon="-4.224167978391051">
        <ele>738.79999999999995</ele>
        <time>2010-12-31T12:30:27Z</time>
      </trkpt>
      <trkpt lat="31.292385002598166" lon="-4.224302005022764">
        <ele>738.60000000000002</ele>
        <time>2010-12-31T12:30:28Z</time>
      </trkpt>
      <trkpt lat="31.292239995673299" lon="-4.22457198612392">
        <ele>737.20000000000005</ele>
        <time>2010-12-31T12:30:30Z</time>
      </trkpt>
      <trkpt lat="31.29112696275115" lon="-4.226657990366221">
        <ele>732.20000000000005</ele>
        <time>2010-12-31T12:30:46Z</time>
      </trkpt>
      <trkpt lat="31.291002994403243" lon="-4.226797968149185">
        <ele>731.89999999999998</ele>
        <time>2010-12-31T12:30:48Z</time>
      </trkpt>
      <trkpt lat="31.29082303494215" lon="-4.226853037253022">
        <ele>731.29999999999995</ele>
        <time>2010-12-31T12:30:50Z</time>
      </trkpt>
      <trkpt lat="31.290387008339167" lon="-4.226877009496093">
        <ele>730.39999999999998</ele>
        <time>2010-12-31T12:30:54Z</time>
      </trkpt>
      <trkpt lat="31.290285000577569" lon="-4.226909028366208">
        <ele>730.10000000000002</ele>
        <time>2010-12-31T12:30:55Z</time>
      </trkpt>
      <trkpt lat="31.290202019736171" lon="-4.226963007822633">
        <ele>729.79999999999995</ele>
        <time>2010-12-31T12:30:56Z</time>
      </trkpt>
      <trkpt lat="31.290143011137843" lon="-4.227050011977553">
        <ele>729.60000000000002</ele>
        <time>2010-12-31T12:30:57Z</time>
      </trkpt>
      <trkpt lat="31.29009397700429" lon="-4.227167023345828">
        <ele>729.10000000000002</ele>
        <time>2010-12-31T12:30:58Z</time>
      </trkpt>
      <trkpt lat="31.290057012811303" lon="-4.227303983643651">
        <ele>728.70000000000005</ele>
        <time>2010-12-31T12:30:59Z</time>
      </trkpt>
      <trkpt lat="31.290003033354878" lon="-4.227604977786541">
        <ele>728</ele>
        <time>2010-12-31T12:31:01Z</time>
      </trkpt>
      <trkpt lat="31.289901025593281" lon="-4.228253988549113">
        <ele>727.20000000000005</ele>
        <time>2010-12-31T12:31:05Z</time>
      </trkpt>
      <trkpt lat="31.289859032258391" lon="-4.228410981595516">
        <ele>726.70000000000005</ele>
        <time>2010-12-31T12:31:06Z</time>
      </trkpt>
      <trkpt lat="31.289500035345554" lon="-4.229488978162408">
        <ele>728.10000000000002</ele>
        <time>2010-12-31T12:31:14Z</time>
      </trkpt>
      <trkpt lat="31.28944898955524" lon="-4.229623004794121">
        <ele>727.89999999999998</ele>
        <time>2010-12-31T12:31:15Z</time>
      </trkpt>
      <trkpt lat="31.289203986525536" lon="-4.230140000581741">
        <ele>726.29999999999995</ele>
        <time>2010-12-31T12:31:19Z</time>
      </trkpt>
      <trkpt lat="31.289137015119195" lon="-4.230249971151352">
        <ele>726.29999999999995</ele>
        <time>2010-12-31T12:31:20Z</time>
      </trkpt>
      <trkpt lat="31.28906199708581" lon="-4.230346027761698">
        <ele>725.89999999999998</ele>
        <time>2010-12-31T12:31:21Z</time>
      </trkpt>
      <trkpt lat="31.288902992382646" lon="-4.230540990829468">
        <ele>725.60000000000002</ele>
        <time>2010-12-31T12:31:23Z</time>
      </trkpt>
      <trkpt lat="31.288831997662783" lon="-4.23065297305584">
        <ele>725.60000000000002</ele>
        <time>2010-12-31T12:31:24Z</time>
      </trkpt>
      <trkpt lat="31.288772989064455" lon="-4.230779958888888">
        <ele>725.5</ele>
        <time>2010-12-31T12:31:25Z</time>
      </trkpt>
      <trkpt lat="31.288723032921553" lon="-4.230921026319265">
        <ele>725.10000000000002</ele>
        <time>2010-12-31T12:31:26Z</time>
      </trkpt>
      <trkpt lat="31.288136970251799" lon="-4.233270976692438">
        <ele>726.70000000000005</ele>
        <time>2010-12-31T12:31:40Z</time>
      </trkpt>
      <trkpt lat="31.288025993853807" lon="-4.233837006613612">
        <ele>725.89999999999998</ele>
        <time>2010-12-31T12:31:44Z</time>
      </trkpt>
      <trkpt lat="31.288019958883524" lon="-4.233947983011603">
        <ele>726</ele>
        <time>2010-12-31T12:31:45Z</time>
      </trkpt>
      <trkpt lat="31.288054995238781" lon="-4.234116962179542">
        <ele>729</ele>
        <time>2010-12-31T12:31:47Z</time>
      </trkpt>
      <trkpt lat="31.28813898190856" lon="-4.2342400085181">
        <ele>731.39999999999998</ele>
        <time>2010-12-31T12:31:49Z</time>
      </trkpt>
      <trkpt lat="31.28852597437799" lon="-4.234527004882693">
        <ele>736.89999999999998</ele>
        <time>2010-12-31T12:31:54Z</time>
      </trkpt>
      <trkpt lat="31.288700988516212" lon="-4.23464703373611">
        <ele>738.70000000000005</ele>
        <time>2010-12-31T12:31:56Z</time>
      </trkpt>
      <trkpt lat="31.288778018206358" lon="-4.234710987657309">
        <ele>739.60000000000002</ele>
        <time>2010-12-31T12:31:57Z</time>
      </trkpt>
      <trkpt lat="31.288882959634066" lon="-4.234876027330756">
        <ele>741.29999999999995</ele>
        <time>2010-12-31T12:31:59Z</time>
      </trkpt>
      <trkpt lat="31.288893017917871" lon="-4.235084988176823">
        <ele>742.89999999999998</ele>
        <time>2010-12-31T12:32:01Z</time>
      </trkpt>
      <trkpt lat="31.288868961855769" lon="-4.235198982059956">
        <ele>743.29999999999995</ele>
        <time>2010-12-31T12:32:02Z</time>
      </trkpt>
      <trkpt lat="31.28871800377965" lon="-4.235819997265935">
        <ele>739.70000000000005</ele>
        <time>2010-12-31T12:32:07Z</time>
      </trkpt>
      <trkpt lat="31.288703000172973" lon="-4.235951006412506">
        <ele>739.5</ele>
        <time>2010-12-31T12:32:08Z</time>
      </trkpt>
      <trkpt lat="31.288696965202689" lon="-4.236084027215838">
        <ele>739</ele>
        <time>2010-12-31T12:32:09Z</time>
      </trkpt>
      <trkpt lat="31.288699982687831" lon="-4.236216964200139">
        <ele>738.70000000000005</ele>
        <time>2010-12-31T12:32:10Z</time>
      </trkpt>
      <trkpt lat="31.288757985457778" lon="-4.236872009932995">
        <ele>737.10000000000002</ele>
        <time>2010-12-31T12:32:15Z</time>
      </trkpt>
      <trkpt lat="31.288747005164623" lon="-4.237007964402437">
        <ele>736.60000000000002</ele>
        <time>2010-12-31T12:32:16Z</time>
      </trkpt>
      <trkpt lat="31.288726972416043" lon="-4.237145008519292">
        <ele>736.10000000000002</ele>
        <time>2010-12-31T12:32:17Z</time>
      </trkpt>
      <trkpt lat="31.288638040423393" lon="-4.237569971010089">
        <ele>734.5</ele>
        <time>2010-12-31T12:32:20Z</time>
      </trkpt>
      <trkpt lat="31.288134958595037" lon="-4.240056965500116">
        <ele>730.70000000000005</ele>
        <time>2010-12-31T12:32:36Z</time>
      </trkpt>
      <trkpt lat="31.288109980523586" lon="-4.240410011261702">
        <ele>730.29999999999995</ele>
        <time>2010-12-31T12:32:38Z</time>
      </trkpt>
      <trkpt lat="31.288118027150631" lon="-4.241795036941767">
        <ele>732.70000000000005</ele>
        <time>2010-12-31T12:32:46Z</time>
      </trkpt>
      <trkpt lat="31.288130013272166" lon="-4.24193199723959">
        <ele>733.5</ele>
        <time>2010-12-31T12:32:47Z</time>
      </trkpt>
      <trkpt lat="31.288147028535604" lon="-4.242052026093006">
        <ele>734.5</ele>
        <time>2010-12-31T12:32:48Z</time>
      </trkpt>
      <trkpt lat="31.288177035748959" lon="-4.242153028026223">
        <ele>735.39999999999998</ele>
        <time>2010-12-31T12:32:49Z</time>
      </trkpt>
      <trkpt lat="31.288283988833427" lon="-4.242293005809188">
        <ele>737</ele>
        <time>2010-12-31T12:32:51Z</time>
      </trkpt>
      <trkpt lat="31.292636962607503" lon="-4.244202990084887">
        <ele>751.70000000000005</ele>
        <time>2010-12-31T12:33:21Z</time>
      </trkpt>
      <trkpt lat="31.292766965925694" lon="-4.244249006733298">
        <ele>752</ele>
        <time>2010-12-31T12:33:22Z</time>
      </trkpt>
      <trkpt lat="31.293515972793102" lon="-4.244528040289879">
        <ele>751.10000000000002</ele>
        <time>2010-12-31T12:33:29Z</time>
      </trkpt>
      <trkpt lat="31.293604988604784" lon="-4.244600962847471">
        <ele>751.39999999999998</ele>
        <time>2010-12-31T12:33:30Z</time>
      </trkpt>
      <trkpt lat="31.293689981102943" lon="-4.244688972830772">
        <ele>751.60000000000002</ele>
        <time>2010-12-31T12:33:31Z</time>
      </trkpt>
      <trkpt lat="31.293771034106612" lon="-4.244782011955977">
        <ele>751.70000000000005</ele>
        <time>2010-12-31T12:33:32Z</time>
      </trkpt>
      <trkpt lat="31.293844962492585" lon="-4.244875973090529">
        <ele>751.89999999999998</ele>
        <time>2010-12-31T12:33:33Z</time>
      </trkpt>
      <trkpt lat="31.293909000232816" lon="-4.244974963366985">
        <ele>752.10000000000002</ele>
        <time>2010-12-31T12:33:34Z</time>
      </trkpt>
      <trkpt lat="31.29395904019475" lon="-4.245083006098867">
        <ele>752.39999999999998</ele>
        <time>2010-12-31T12:33:35Z</time>
      </trkpt>
      <trkpt lat="31.293987035751343" lon="-4.24519800581038">
        <ele>752.60000000000002</ele>
        <time>2010-12-31T12:33:36Z</time>
      </trkpt>
      <trkpt lat="31.293994998559356" lon="-4.245319962501526">
        <ele>752.79999999999995</ele>
        <time>2010-12-31T12:33:37Z</time>
      </trkpt>
      <trkpt lat="31.293977983295918" lon="-4.245438985526562">
        <ele>751</ele>
        <time>2010-12-31T12:33:38Z</time>
      </trkpt>
      <trkpt lat="31.293944036588073" lon="-4.245559014379978">
        <ele>749.5</ele>
        <time>2010-12-31T12:33:39Z</time>
      </trkpt>
      <trkpt lat="31.293065026402473" lon="-4.24781902693212">
        <ele>741</ele>
        <time>2010-12-31T12:33:53Z</time>
      </trkpt>
      <trkpt lat="31.292682979255915" lon="-4.248704994097352">
        <ele>738.60000000000002</ele>
        <time>2010-12-31T12:33:58Z</time>
      </trkpt>
      <trkpt lat="31.292423978447914" lon="-4.249188965186477">
        <ele>737</ele>
        <time>2010-12-31T12:34:01Z</time>
      </trkpt>
      <trkpt lat="31.289098039269447" lon="-4.255035007372499">
        <ele>725.79999999999995</ele>
        <time>2010-12-31T12:34:44Z</time>
      </trkpt>
      <trkpt lat="31.289026960730553" lon="-4.255136009305716">
        <ele>726.29999999999995</ele>
        <time>2010-12-31T12:34:46Z</time>
      </trkpt>
      <trkpt lat="31.288359006866813" lon="-4.256205037236214">
        <ele>722.70000000000005</ele>
        <time>2010-12-31T12:35:04Z</time>
      </trkpt>
      <trkpt lat="31.287805968895555" lon="-4.257324021309614">
        <ele>720.20000000000005</ele>
        <time>2010-12-31T12:35:18Z</time>
      </trkpt>
      <trkpt lat="31.287702033296227" lon="-4.25757396966219">
        <ele>720</ele>
        <time>2010-12-31T12:35:21Z</time>
      </trkpt>
      <trkpt lat="31.286211982369423" lon="-4.263382963836193">
        <ele>735.20000000000005</ele>
        <time>2010-12-31T12:36:35Z</time>
      </trkpt>
      <trkpt lat="31.286139981821179" lon="-4.263512967154384">
        <ele>735.10000000000002</ele>
        <time>2010-12-31T12:36:37Z</time>
      </trkpt>
      <trkpt lat="31.286040991544724" lon="-4.263644982129335">
        <ele>739.70000000000005</ele>
        <time>2010-12-31T12:36:39Z</time>
      </trkpt>
      <trkpt lat="31.285961028188467" lon="-4.263768028467894">
        <ele>742.29999999999995</ele>
        <time>2010-12-31T12:36:41Z</time>
      </trkpt>
      <trkpt lat="31.285393992438912" lon="-4.264869997277856">
        <ele>746.60000000000002</ele>
        <time>2010-12-31T12:36:57Z</time>
      </trkpt>
      <trkpt lat="31.285272035747766" lon="-4.265009975060821">
        <ele>745.20000000000005</ele>
        <time>2010-12-31T12:36:59Z</time>
      </trkpt>
      <trkpt lat="31.285128034651279" lon="-4.265123968943954">
        <ele>745.10000000000002</ele>
        <time>2010-12-31T12:37:01Z</time>
      </trkpt>
      <trkpt lat="31.284961989149451" lon="-4.265188006684184">
        <ele>743.39999999999998</ele>
        <time>2010-12-31T12:37:03Z</time>
      </trkpt>
      <trkpt lat="31.28478697501123" lon="-4.265211978927255">
        <ele>740.89999999999998</ele>
        <time>2010-12-31T12:37:05Z</time>
      </trkpt>
      <trkpt lat="31.283854991197586" lon="-4.265198986977339">
        <ele>738.10000000000002</ele>
        <time>2010-12-31T12:37:16Z</time>
      </trkpt>
      <trkpt lat="31.282709017395973" lon="-4.265216002240777">
        <ele>738.70000000000005</ele>
        <time>2010-12-31T12:37:33Z</time>
      </trkpt>
      <trkpt lat="31.282579014077783" lon="-4.265241986140609">
        <ele>736.39999999999998</ele>
        <time>2010-12-31T12:37:36Z</time>
      </trkpt>
      <trkpt lat="31.282498966902494" lon="-4.265305018052459">
        <ele>733.79999999999995</ele>
        <time>2010-12-31T12:37:38Z</time>
      </trkpt>
      <trkpt lat="31.28242302685976" lon="-4.265395039692521">
        <ele>730.70000000000005</ele>
        <time>2010-12-31T12:37:41Z</time>
      </trkpt>
      <trkpt lat="31.282373992726207" lon="-4.265499981120229">
        <ele>723.20000000000005</ele>
        <time>2010-12-31T12:37:45Z</time>
      </trkpt>
      <trkpt lat="31.282051037997007" lon="-4.266607984900475">
        <ele>712.20000000000005</ele>
        <time>2010-12-31T12:38:25Z</time>
      </trkpt>
      <trkpt lat="31.282027987763286" lon="-4.266745029017329">
        <ele>712</ele>
        <time>2010-12-31T12:38:30Z</time>
      </trkpt>
      <trkpt lat="31.282002003863454" lon="-4.266891041770577">
        <ele>712.10000000000002</ele>
        <time>2010-12-31T12:38:35Z</time>
      </trkpt>
      <trkpt lat="31.281902007758617" lon="-4.267077036201954">
        <ele>701.79999999999995</ele>
        <time>2010-12-31T12:41:01Z</time>
      </trkpt>
      <trkpt lat="31.281869988888502" lon="-4.267181977629662">
        <ele>701.89999999999998</ele>
        <time>2010-12-31T12:41:03Z</time>
      </trkpt>
      <trkpt lat="31.281859008595347" lon="-4.267294965684414">
        <ele>702.29999999999995</ele>
        <time>2010-12-31T12:41:05Z</time>
      </trkpt>
      <trkpt lat="31.281879963353276" lon="-4.267405020073056">
        <ele>705.10000000000002</ele>
        <time>2010-12-31T12:41:07Z</time>
      </trkpt>
      <trkpt lat="31.281956993043423" lon="-4.267495963722467">
        <ele>708.5</ele>
        <time>2010-12-31T12:41:09Z</time>
      </trkpt>
      <trkpt lat="31.28364996984601" lon="-4.268449991941452">
        <ele>731.60000000000002</ele>
        <time>2010-12-31T12:41:32Z</time>
      </trkpt>
      <trkpt lat="31.283720964565873" lon="-4.268559040501714">
        <ele>735.5</ele>
        <time>2010-12-31T12:41:37Z</time>
      </trkpt>
      <trkpt lat="31.283748960122466" lon="-4.26866096444428">
        <ele>733</ele>
        <time>2010-12-31T12:41:39Z</time>
      </trkpt>
      <trkpt lat="31.283752983435988" lon="-4.268803959712386">
        <ele>734</ele>
        <time>2010-12-31T12:41:41Z</time>
      </trkpt>
      <trkpt lat="31.283720964565873" lon="-4.268950978294015">
        <ele>734.89999999999998</ele>
        <time>2010-12-31T12:41:43Z</time>
      </trkpt>
      <trkpt lat="31.28364996984601" lon="-4.269072012975812">
        <ele>730.20000000000005</ele>
        <time>2010-12-31T12:41:45Z</time>
      </trkpt>
      <trkpt lat="31.283486019819975" lon="-4.269275022670627">
        <ele>724</ele>
        <time>2010-12-31T12:41:48Z</time>
      </trkpt>
      <trkpt lat="31.280648997053504" lon="-4.272719984874129">
        <ele>710.79999999999995</ele>
        <time>2010-12-31T12:42:44Z</time>
      </trkpt>
      <trkpt lat="31.278550000861287" lon="-4.277073964476585">
        <ele>695.70000000000005</ele>
        <time>2010-12-31T12:43:16Z</time>
      </trkpt>
      <trkpt lat="31.278496021404862" lon="-4.277226012200117">
        <ele>694.89999999999998</ele>
        <time>2010-12-31T12:43:17Z</time>
      </trkpt>
      <trkpt lat="31.278373980894685" lon="-4.277691040188074">
        <ele>692.60000000000002</ele>
        <time>2010-12-31T12:43:20Z</time>
      </trkpt>
      <trkpt lat="31.27823400311172" lon="-4.278640039265156">
        <ele>689.39999999999998</ele>
        <time>2010-12-31T12:43:26Z</time>
      </trkpt>
      <trkpt lat="31.277765035629272" lon="-4.284433024004102">
        <ele>684.5</ele>
        <time>2010-12-31T12:43:59Z</time>
      </trkpt>
      <trkpt lat="31.277762018144131" lon="-4.284566966816783">
        <ele>684.39999999999998</ele>
        <time>2010-12-31T12:44:00Z</time>
      </trkpt>
      <trkpt lat="31.277766963467002" lon="-4.284887993708253">
        <ele>684.29999999999995</ele>
        <time>2010-12-31T12:44:03Z</time>
      </trkpt>
      <trkpt lat="31.277789007872343" lon="-4.285056972876191">
        <ele>685</ele>
        <time>2010-12-31T12:44:05Z</time>
      </trkpt>
      <trkpt lat="31.277824966236949" lon="-4.285220000892878">
        <ele>685.89999999999998</ele>
        <time>2010-12-31T12:44:07Z</time>
      </trkpt>
      <trkpt lat="31.277894033119082" lon="-4.285414963960648">
        <ele>689.20000000000005</ele>
        <time>2010-12-31T12:44:10Z</time>
      </trkpt>
      <trkpt lat="31.277977013960481" lon="-4.285573968663812">
        <ele>693</ele>
        <time>2010-12-31T12:44:13Z</time>
      </trkpt>
      <trkpt lat="31.278130989521742" lon="-4.285789970308542">
        <ele>703.79999999999995</ele>
        <time>2010-12-31T12:44:19Z</time>
      </trkpt>
      <trkpt lat="31.278250012546778" lon="-4.285931959748268">
        <ele>714.70000000000005</ele>
        <time>2010-12-31T12:44:24Z</time>
      </trkpt>
      <trkpt lat="31.278457967564464" lon="-4.286142010241747">
        <ele>720.60000000000002</ele>
        <time>2010-12-31T12:44:28Z</time>
      </trkpt>
      <trkpt lat="31.278608003631234" lon="-4.286264972761273">
        <ele>723.39999999999998</ele>
        <time>2010-12-31T12:44:30Z</time>
      </trkpt>
      <trkpt lat="31.278694001957774" lon="-4.286320963874459">
        <ele>724.79999999999995</ele>
        <time>2010-12-31T12:44:31Z</time>
      </trkpt>
      <trkpt lat="31.278877984732389" lon="-4.286417020484805">
        <ele>727.5</ele>
        <time>2010-12-31T12:44:33Z</time>
      </trkpt>
      <trkpt lat="31.279073031619191" lon="-4.286498995497823">
        <ele>729.89999999999998</ele>
        <time>2010-12-31T12:44:35Z</time>
      </trkpt>
      <trkpt lat="31.288551036268473" lon="-4.290721965953708">
        <ele>759.29999999999995</ele>
        <time>2010-12-31T12:45:39Z</time>
      </trkpt>
      <trkpt lat="31.28865597769618" lon="-4.290787009522319">
        <ele>760</ele>
        <time>2010-12-31T12:45:41Z</time>
      </trkpt>
      <trkpt lat="31.288684979081154" lon="-4.29089798592031">
        <ele>761.20000000000005</ele>
        <time>2010-12-31T12:45:44Z</time>
      </trkpt>
      <trkpt lat="31.28850401379168" lon="-4.290894968435168">
        <ele>759.79999999999995</ele>
        <time>2010-12-31T12:45:56Z</time>
      </trkpt>
      <trkpt lat="31.288404017686844" lon="-4.290874013677239">
        <ele>760.20000000000005</ele>
        <time>2010-12-31T12:46:44Z</time>
      </trkpt>
      <trkpt lat="31.288120038807392" lon="-4.290921036154032">
        <ele>706.79999999999995</ele>
        <time>2010-12-31T13:02:15Z</time>
      </trkpt>
      <trkpt lat="31.287930021062493" lon="-4.290602020919323">
        <ele>707.60000000000002</ele>
        <time>2010-12-31T13:09:05Z</time>
      </trkpt>
      <trkpt lat="31.288059018552303" lon="-4.290534965693951">
        <ele>702.5</ele>
        <time>2010-12-31T13:10:02Z</time>
      </trkpt>
      <trkpt lat="31.288164965808392" lon="-4.290393982082605">
        <ele>698.29999999999995</ele>
        <time>2010-12-31T13:10:48Z</time>
      </trkpt>
      <trkpt lat="31.288102017715573" lon="-4.290309995412827">
        <ele>698.10000000000002</ele>
        <time>2010-12-31T13:10:51Z</time>
      </trkpt>
      <trkpt lat="31.28431499004364" lon="-4.288263972848654">
        <ele>712.20000000000005</ele>
        <time>2010-12-31T13:11:27Z</time>
      </trkpt>
      <trkpt lat="31.28420602530241" lon="-4.288219967857003">
        <ele>712.20000000000005</ele>
        <time>2010-12-31T13:11:28Z</time>
      </trkpt>
      <trkpt lat="31.277892021462321" lon="-4.2859130166471">
        <ele>696.20000000000005</ele>
        <time>2010-12-31T13:12:21Z</time>
      </trkpt>
      <trkpt lat="31.277822032570839" lon="-4.285834981128573">
        <ele>697.39999999999998</ele>
        <time>2010-12-31T13:12:28Z</time>
      </trkpt>
      <trkpt lat="31.277779033407569" lon="-4.285691985860467">
        <ele>698.70000000000005</ele>
        <time>2010-12-31T13:12:33Z</time>
      </trkpt>
      <trkpt lat="31.27774097956717" lon="-4.285511020570993">
        <ele>701.60000000000002</ele>
        <time>2010-12-31T13:12:38Z</time>
      </trkpt>
      <trkpt lat="31.277609970420599" lon="-4.285385040566325">
        <ele>687.20000000000005</ele>
        <time>2010-12-31T13:18:29Z</time>
      </trkpt>
      <trkpt lat="31.277848016470671" lon="-4.285808997228742">
        <ele>762.20000000000005</ele>
        <time>2010-12-31T13:30:37Z</time>
      </trkpt>
      <trkpt lat="31.27778397873044" lon="-4.285733979195356">
        <ele>761.10000000000002</ele>
        <time>2010-12-31T13:30:48Z</time>
      </trkpt>
      <trkpt lat="31.277677025645971" lon="-4.285779995843768">
        <ele>760</ele>
        <time>2010-12-31T13:30:55Z</time>
      </trkpt>
      <trkpt lat="31.277536964043975" lon="-4.285918967798352">
        <ele>759.39999999999998</ele>
        <time>2010-12-31T13:31:02Z</time>
      </trkpt>
      <trkpt lat="31.277443002909422" lon="-4.28595500998199">
        <ele>759.29999999999995</ele>
        <time>2010-12-31T13:31:04Z</time>
      </trkpt>
      <trkpt lat="31.277085011824965" lon="-4.285803968086839">
        <ele>755.89999999999998</ele>
        <time>2010-12-31T13:31:10Z</time>
      </trkpt>
      <trkpt lat="31.273138979449868" lon="-4.283717963844538">
        <ele>754.20000000000005</ele>
        <time>2010-12-31T13:31:47Z</time>
      </trkpt>
      <trkpt lat="31.273011993616819" lon="-4.283639006316662">
        <ele>754</ele>
        <time>2010-12-31T13:31:48Z</time>
      </trkpt>
      <trkpt lat="31.272200960665941" lon="-4.283153023570776">
        <ele>753</ele>
        <time>2010-12-31T13:31:54Z</time>
      </trkpt>
      <trkpt lat="31.272054025903344" lon="-4.283092003315687">
        <ele>752.89999999999998</ele>
        <time>2010-12-31T13:31:55Z</time>
      </trkpt>
      <trkpt lat="31.271610036492348" lon="-4.282938027754426">
        <ele>749.79999999999995</ele>
        <time>2010-12-31T13:31:58Z</time>
      </trkpt>
      <trkpt lat="31.271462012082338" lon="-4.28290399722755">
        <ele>749.5</ele>
        <time>2010-12-31T13:31:59Z</time>
      </trkpt>
      <trkpt lat="31.270996984094381" lon="-4.282854041084647">
        <ele>748.89999999999998</ele>
        <time>2010-12-31T13:32:02Z</time>
      </trkpt>
      <trkpt lat="31.268876027315855" lon="-4.282768964767456">
        <ele>748.29999999999995</ele>
        <time>2010-12-31T13:32:16Z</time>
      </trkpt>
      <trkpt lat="31.2687580101192" lon="-4.282780028879643">
        <ele>748.39999999999998</ele>
        <time>2010-12-31T13:32:17Z</time>
      </trkpt>
      <trkpt lat="31.268639992922544" lon="-4.282811963930726">
        <ele>748.29999999999995</ele>
        <time>2010-12-31T13:32:18Z</time>
      </trkpt>
      <trkpt lat="31.268518958240747" lon="-4.282864015549421">
        <ele>748.29999999999995</ele>
        <time>2010-12-31T13:32:19Z</time>
      </trkpt>
      <trkpt lat="31.260076034814119" lon="-4.287758963182569">
        <ele>750.39999999999998</ele>
        <time>2010-12-31T13:33:24Z</time>
      </trkpt>
      <trkpt lat="31.259961035102606" lon="-4.287832975387573">
        <ele>750.20000000000005</ele>
        <time>2010-12-31T13:33:25Z</time>
      </trkpt>
      <trkpt lat="31.259743021801114" lon="-4.288002960383892">
        <ele>749.79999999999995</ele>
        <time>2010-12-31T13:33:27Z</time>
      </trkpt>
      <trkpt lat="31.258955961093307" lon="-4.28872799500823">
        <ele>748.10000000000002</ele>
        <time>2010-12-31T13:33:35Z</time>
      </trkpt>
      <trkpt lat="31.258858982473612" lon="-4.288773005828261">
        <ele>748</ele>
        <time>2010-12-31T13:33:36Z</time>
      </trkpt>
      <trkpt lat="31.258764015510678" lon="-4.28879396058619">
        <ele>747.60000000000002</ele>
        <time>2010-12-31T13:33:37Z</time>
      </trkpt>
      <trkpt lat="31.258593024685979" lon="-4.288736963644624">
        <ele>745.89999999999998</ele>
        <time>2010-12-31T13:33:39Z</time>
      </trkpt>
      <trkpt lat="31.25851197168231" lon="-4.288666974753141">
        <ele>745.89999999999998</ele>
        <time>2010-12-31T13:33:40Z</time>
      </trkpt>
      <trkpt lat="31.25700700096786" lon="-4.287212966009975">
        <ele>747</ele>
        <time>2010-12-31T13:33:59Z</time>
      </trkpt>
      <trkpt lat="31.256927959620953" lon="-4.28711699321866">
        <ele>746.70000000000005</ele>
        <time>2010-12-31T13:34:00Z</time>
      </trkpt>
      <trkpt lat="31.25685403123498" lon="-4.287012973800302">
        <ele>747.20000000000005</ele>
        <time>2010-12-31T13:34:01Z</time>
      </trkpt>
      <trkpt lat="31.256786976009607" lon="-4.286903003230691">
        <ele>747.70000000000005</ele>
        <time>2010-12-31T13:34:02Z</time>
      </trkpt>
      <trkpt lat="31.256726961582899" lon="-4.286788003519177">
        <ele>748.20000000000005</ele>
        <time>2010-12-31T13:34:03Z</time>
      </trkpt>
      <trkpt lat="31.256675999611616" lon="-4.286667974665761">
        <ele>748.79999999999995</ele>
        <time>2010-12-31T13:34:04Z</time>
      </trkpt>
      <trkpt lat="31.256631994619966" lon="-4.286547023802996">
        <ele>749.39999999999998</ele>
        <time>2010-12-31T13:34:05Z</time>
      </trkpt>
      <trkpt lat="31.256485981866717" lon="-4.285981999710202">
        <ele>749.89999999999998</ele>
        <time>2010-12-31T13:34:10Z</time>
      </trkpt>
      <trkpt lat="31.256301999092102" lon="-4.285250008106232">
        <ele>748.5</ele>
        <time>2010-12-31T13:34:17Z</time>
      </trkpt>
      <trkpt lat="31.256213989108801" lon="-4.285099972039461">
        <ele>748.10000000000002</ele>
        <time>2010-12-31T13:34:19Z</time>
      </trkpt>
      <trkpt lat="31.256062025204301" lon="-4.285039035603404">
        <ele>744.20000000000005</ele>
        <time>2010-12-31T13:34:21Z</time>
      </trkpt>
      <trkpt lat="31.255893968045712" lon="-4.285023026168346">
        <ele>744.79999999999995</ele>
        <time>2010-12-31T13:34:23Z</time>
      </trkpt>
      <trkpt lat="31.255528014153242" lon="-4.285062002018094">
        <ele>746</ele>
        <time>2010-12-31T13:34:27Z</time>
      </trkpt>
      <trkpt lat="31.255432041361928" lon="-4.285083040595055">
        <ele>746.10000000000002</ele>
        <time>2010-12-31T13:34:28Z</time>
      </trkpt>
      <trkpt lat="31.255337996408343" lon="-4.285111036151648">
        <ele>746.39999999999998</ele>
        <time>2010-12-31T13:34:29Z</time>
      </trkpt>
      <trkpt lat="31.255250992253423" lon="-4.285148000344634">
        <ele>746.5</ele>
        <time>2010-12-31T13:34:30Z</time>
      </trkpt>
      <trkpt lat="31.254941029474139" lon="-4.285317985340953">
        <ele>747.39999999999998</ele>
        <time>2010-12-31T13:34:34Z</time>
      </trkpt>
      <trkpt lat="31.254767021164298" lon="-4.285308010876179">
        <ele>747.20000000000005</ele>
        <time>2010-12-31T13:34:36Z</time>
      </trkpt>
      <trkpt lat="31.254679011180997" lon="-4.285255959257484">
        <ele>747.20000000000005</ele>
        <time>2010-12-31T13:34:37Z</time>
      </trkpt>
      <trkpt lat="31.254252037033439" lon="-4.284930992871523">
        <ele>747.60000000000002</ele>
        <time>2010-12-31T13:34:42Z</time>
      </trkpt>
      <trkpt lat="31.254077022895217" lon="-4.284781040623784">
        <ele>747.70000000000005</ele>
        <time>2010-12-31T13:34:44Z</time>
      </trkpt>
      <trkpt lat="31.253991024568677" lon="-4.284695964306593">
        <ele>747.79999999999995</ele>
        <time>2010-12-31T13:34:45Z</time>
      </trkpt>
      <trkpt lat="31.253633033484221" lon="-4.284282987937331">
        <ele>747.70000000000005</ele>
        <time>2010-12-31T13:34:49Z</time>
      </trkpt>
      <trkpt lat="31.251981966197491" lon="-4.282545000314713">
        <ele>746.70000000000005</ele>
        <time>2010-12-31T13:35:03Z</time>
      </trkpt>
      <trkpt lat="31.251696981489658" lon="-4.282309971749783">
        <ele>747</ele>
        <time>2010-12-31T13:35:05Z</time>
      </trkpt>
      <trkpt lat="31.25008899718523" lon="-4.28118797019124">
        <ele>747.29999999999995</ele>
        <time>2010-12-31T13:35:17Z</time>
      </trkpt>
      <trkpt lat="31.249989001080394" lon="-4.281075987964869">
        <ele>747.39999999999998</ele>
        <time>2010-12-31T13:35:18Z</time>
      </trkpt>
      <trkpt lat="31.249610977247357" lon="-4.28062898106873">
        <ele>747.60000000000002</ele>
        <time>2010-12-31T13:35:22Z</time>
      </trkpt>
      <trkpt lat="31.249521039426327" lon="-4.280547006055713">
        <ele>747.5</ele>
        <time>2010-12-31T13:35:23Z</time>
      </trkpt>
      <trkpt lat="31.249429006129503" lon="-4.280491014942527">
        <ele>747.60000000000002</ele>
        <time>2010-12-31T13:35:24Z</time>
      </trkpt>
      <trkpt lat="31.249333033338189" lon="-4.280464025214315">
        <ele>747.60000000000002</ele>
        <time>2010-12-31T13:35:25Z</time>
      </trkpt>
      <trkpt lat="31.249134968966246" lon="-4.28043301217258">
        <ele>747.29999999999995</ele>
        <time>2010-12-31T13:35:27Z</time>
      </trkpt>
      <trkpt lat="31.249033967033029" lon="-4.280395964160562">
        <ele>747.29999999999995</ele>
        <time>2010-12-31T13:35:28Z</time>
      </trkpt>
      <trkpt lat="31.248937994241714" lon="-4.280337039381266">
        <ele>747</ele>
        <time>2010-12-31T13:35:29Z</time>
      </trkpt>
      <trkpt lat="31.248844033107162" lon="-4.280263027176261">
        <ele>747</ele>
        <time>2010-12-31T13:35:30Z</time>
      </trkpt>
      <trkpt lat="31.245327992364764" lon="-4.277055021375418">
        <ele>746.10000000000002</ele>
        <time>2010-12-31T13:36:02Z</time>
      </trkpt>
      <trkpt lat="31.243253974243999" lon="-4.275230029597879">
        <ele>745.29999999999995</ele>
        <time>2010-12-31T13:36:20Z</time>
      </trkpt>
      <trkpt lat="31.242981981486082" lon="-4.275054009631276">
        <ele>745.29999999999995</ele>
        <time>2010-12-31T13:36:22Z</time>
      </trkpt>
      <trkpt lat="31.241206023842096" lon="-4.273898983374238">
        <ele>743.70000000000005</ele>
        <time>2010-12-31T13:36:35Z</time>
      </trkpt>
      <trkpt lat="31.241079960018396" lon="-4.273790018633008">
        <ele>743.70000000000005</ele>
        <time>2010-12-31T13:36:36Z</time>
      </trkpt>
      <trkpt lat="31.240369006991386" lon="-4.27315198816359">
        <ele>744.20000000000005</ele>
        <time>2010-12-31T13:36:44Z</time>
      </trkpt>
      <trkpt lat="31.240212013944983" lon="-4.273062972351909">
        <ele>744.5</ele>
        <time>2010-12-31T13:36:46Z</time>
      </trkpt>
      <trkpt lat="31.240046974271536" lon="-4.273007987067103">
        <ele>743.79999999999995</ele>
        <time>2010-12-31T13:36:48Z</time>
      </trkpt>
      <trkpt lat="31.239870032295585" lon="-4.272980997338891">
        <ele>743.20000000000005</ele>
        <time>2010-12-31T13:36:50Z</time>
      </trkpt>
      <trkpt lat="31.239516986533999" lon="-4.272980997338891">
        <ele>742.5</ele>
        <time>2010-12-31T13:36:54Z</time>
      </trkpt>
      <trkpt lat="31.238971995189786" lon="-4.27304302342236">
        <ele>742</ele>
        <time>2010-12-31T13:37:00Z</time>
      </trkpt>
      <trkpt lat="31.237613959237933" lon="-4.27323798649013">
        <ele>746.39999999999998</ele>
        <time>2010-12-31T13:37:15Z</time>
      </trkpt>
      <trkpt lat="31.234308974817395" lon="-4.273180989548564">
        <ele>741.60000000000002</ele>
        <time>2010-12-31T13:37:44Z</time>
      </trkpt>
      <trkpt lat="31.234172014519572" lon="-4.273199010640383">
        <ele>741.70000000000005</ele>
        <time>2010-12-31T13:37:45Z</time>
      </trkpt>
      <trkpt lat="31.231527021154761" lon="-4.273734027519822">
        <ele>743.89999999999998</ele>
        <time>2010-12-31T13:38:04Z</time>
      </trkpt>
      <trkpt lat="31.231300039216876" lon="-4.273823965340853">
        <ele>743.20000000000005</ele>
        <time>2010-12-31T13:38:06Z</time>
      </trkpt>
      <trkpt lat="31.23060199432075" lon="-4.274098975583911">
        <ele>740.5</ele>
        <time>2010-12-31T13:38:12Z</time>
      </trkpt>
      <trkpt lat="31.230478025972843" lon="-4.274127976968885">
        <ele>740.79999999999995</ele>
        <time>2010-12-31T13:38:13Z</time>
      </trkpt>
      <trkpt lat="31.22830300591886" lon="-4.274551011621952">
        <ele>741.29999999999995</ele>
        <time>2010-12-31T13:38:29Z</time>
      </trkpt>
      <trkpt lat="31.228162022307515" lon="-4.274560986086726">
        <ele>741.20000000000005</ele>
        <time>2010-12-31T13:38:30Z</time>
      </trkpt>
      <trkpt lat="31.227888017892838" lon="-4.274566015228629">
        <ele>741.5</ele>
        <time>2010-12-31T13:38:32Z</time>
      </trkpt>
      <trkpt lat="31.227514017373323" lon="-4.27452796138823">
        <ele>741.20000000000005</ele>
        <time>2010-12-31T13:38:36Z</time>
      </trkpt>
      <trkpt lat="31.227331040427089" lon="-4.274492003023624">
        <ele>739.70000000000005</ele>
        <time>2010-12-31T13:38:40Z</time>
      </trkpt>
      <trkpt lat="31.227232972159982" lon="-4.274463001638651">
        <ele>740.39999999999998</ele>
        <time>2010-12-31T13:38:42Z</time>
      </trkpt>
      <trkpt lat="31.226873975247145" lon="-4.274335009977222">
        <ele>741.5</ele>
        <time>2010-12-31T13:38:47Z</time>
      </trkpt>
      <trkpt lat="31.226788982748985" lon="-4.274299973621965">
        <ele>741.5</ele>
        <time>2010-12-31T13:38:48Z</time>
      </trkpt>
      <trkpt lat="31.226622015237808" lon="-4.274196960031986">
        <ele>738.20000000000005</ele>
        <time>2010-12-31T13:38:50Z</time>
      </trkpt>
      <trkpt lat="31.226371983066201" lon="-4.27405396476388">
        <ele>737.79999999999995</ele>
        <time>2010-12-31T13:38:53Z</time>
      </trkpt>
      <trkpt lat="31.226243991404772" lon="-4.274023035541177">
        <ele>737.5</ele>
        <time>2010-12-31T13:38:55Z</time>
      </trkpt>
      <trkpt lat="31.226135026663542" lon="-4.274093024432659">
        <ele>737.20000000000005</ele>
        <time>2010-12-31T13:38:57Z</time>
      </trkpt>
      <trkpt lat="31.225909972563386" lon="-4.274382032454014">
        <ele>737</ele>
        <time>2010-12-31T13:39:01Z</time>
      </trkpt>
      <trkpt lat="31.225773012265563" lon="-4.274489991366863">
        <ele>737</ele>
        <time>2010-12-31T13:39:03Z</time>
      </trkpt>
      <trkpt lat="31.225610990077257" lon="-4.274551011621952">
        <ele>736.20000000000005</ele>
        <time>2010-12-31T13:39:05Z</time>
      </trkpt>
      <trkpt lat="31.225322987884283" lon="-4.274615971371532">
        <ele>736.10000000000002</ele>
        <time>2010-12-31T13:39:08Z</time>
      </trkpt>
      <trkpt lat="31.224389998242259" lon="-4.274755027145147">
        <ele>739.29999999999995</ele>
        <time>2010-12-31T13:39:20Z</time>
      </trkpt>
      <trkpt lat="31.224276004359126" lon="-4.274759972468019">
        <ele>739.70000000000005</ele>
        <time>2010-12-31T13:39:22Z</time>
      </trkpt>
      <trkpt lat="31.224181037396193" lon="-4.274743041023612">
        <ele>740.89999999999998</ele>
        <time>2010-12-31T13:39:24Z</time>
      </trkpt>
      <trkpt lat="31.224101996049285" lon="-4.274691995233297">
        <ele>741.79999999999995</ele>
        <time>2010-12-31T13:39:26Z</time>
      </trkpt>
      <trkpt lat="31.224037958309054" lon="-4.274599039927125">
        <ele>742.29999999999995</ele>
        <time>2010-12-31T13:39:28Z</time>
      </trkpt>
      <trkpt lat="31.223750039935112" lon="-4.27401197142899">
        <ele>742.70000000000005</ele>
        <time>2010-12-31T13:39:36Z</time>
      </trkpt>
      <trkpt lat="31.223658006638288" lon="-4.273768980056047">
        <ele>742.5</ele>
        <time>2010-12-31T13:39:39Z</time>
      </trkpt>
      <trkpt lat="31.223578965291381" lon="-4.273476032540202">
        <ele>742.20000000000005</ele>
        <time>2010-12-31T13:39:42Z</time>
      </trkpt>
      <trkpt lat="31.223530014976859" lon="-4.273228012025356">
        <ele>742.39999999999998</ele>
        <time>2010-12-31T13:39:44Z</time>
      </trkpt>
      <trkpt lat="31.22323002666235" lon="-4.271482983604074">
        <ele>740.60000000000002</ele>
        <time>2010-12-31T13:39:57Z</time>
      </trkpt>
      <trkpt lat="31.223186021670699" lon="-4.271377036347985">
        <ele>740.20000000000005</ele>
        <time>2010-12-31T13:39:58Z</time>
      </trkpt>
      <trkpt lat="31.223130030557513" lon="-4.271274022758007">
        <ele>740.39999999999998</ele>
        <time>2010-12-31T13:39:59Z</time>
      </trkpt>
      <trkpt lat="31.22306096367538" lon="-4.271174026653171">
        <ele>740.10000000000002</ele>
        <time>2010-12-31T13:40:00Z</time>
      </trkpt>
      <trkpt lat="31.222402984276414" lon="-4.270452009513974">
        <ele>740.60000000000002</ele>
        <time>2010-12-31T13:40:08Z</time>
      </trkpt>
      <trkpt lat="31.222080029547215" lon="-4.270117990672588">
        <ele>739.89999999999998</ele>
        <time>2010-12-31T13:40:12Z</time>
      </trkpt>
      <trkpt lat="31.222022026777267" lon="-4.270026963204145">
        <ele>740</ele>
        <time>2010-12-31T13:40:13Z</time>
      </trkpt>
      <trkpt lat="31.221981961280107" lon="-4.26992897875607">
        <ele>739</ele>
        <time>2010-12-31T13:40:14Z</time>
      </trkpt>
      <trkpt lat="31.221961006522179" lon="-4.269822025671601">
        <ele>738.5</ele>
        <time>2010-12-31T13:40:15Z</time>
      </trkpt>
      <trkpt lat="31.221953965723515" lon="-4.269698979333043">
        <ele>738.10000000000002</ele>
        <time>2010-12-31T13:40:16Z</time>
      </trkpt>
      <trkpt lat="31.22196301817894" lon="-4.269569981843233">
        <ele>737</ele>
        <time>2010-12-31T13:40:17Z</time>
      </trkpt>
      <trkpt lat="31.221982967108488" lon="-4.26943201571703">
        <ele>736</ele>
        <time>2010-12-31T13:40:18Z</time>
      </trkpt>
      <trkpt lat="31.222043987363577" lon="-4.269152982160449">
        <ele>735.20000000000005</ele>
        <time>2010-12-31T13:40:20Z</time>
      </trkpt>
      <trkpt lat="31.222084974870086" lon="-4.269015016034246">
        <ele>734.10000000000002</ele>
        <time>2010-12-31T13:40:21Z</time>
      </trkpt>
      <trkpt lat="31.222484959289432" lon="-4.267534017562866">
        <ele>732.89999999999998</ele>
        <time>2010-12-31T13:40:32Z</time>
      </trkpt>
      <trkpt lat="31.22250298038125" lon="-4.267423041164875">
        <ele>732.89999999999998</ele>
        <time>2010-12-31T13:40:33Z</time>
      </trkpt>
      <trkpt lat="31.222503986209631" lon="-4.267303012311459">
        <ele>733</ele>
        <time>2010-12-31T13:40:34Z</time>
      </trkpt>
      <trkpt lat="31.222478002309799" lon="-4.264389965683222">
        <ele>734.39999999999998</ele>
        <time>2010-12-31T13:40:54Z</time>
      </trkpt>
      <trkpt lat="31.222497029229999" lon="-4.264228027313948">
        <ele>734.39999999999998</ele>
        <time>2010-12-31T13:40:55Z</time>
      </trkpt>
      <trkpt lat="31.222575986757874" lon="-4.26376098766923">
        <ele>734.70000000000005</ele>
        <time>2010-12-31T13:40:58Z</time>
      </trkpt>
      <trkpt lat="31.22260901145637" lon="-4.263611035421491">
        <ele>734.89999999999998</ele>
        <time>2010-12-31T13:40:59Z</time>
      </trkpt>
      <trkpt lat="31.22327595949173" lon="-4.259670032188296">
        <ele>735</ele>
        <time>2010-12-31T13:41:22Z</time>
      </trkpt>
      <trkpt lat="31.223633028566837" lon="-4.258688008412719">
        <ele>734.89999999999998</ele>
        <time>2010-12-31T13:41:28Z</time>
      </trkpt>
      <trkpt lat="31.22376898303628" lon="-4.258388020098209">
        <ele>734.70000000000005</ele>
        <time>2010-12-31T13:41:30Z</time>
      </trkpt>
      <trkpt lat="31.224322021007538" lon="-4.25737900659442">
        <ele>735.79999999999995</ele>
        <time>2010-12-31T13:41:37Z</time>
      </trkpt>
      <trkpt lat="31.224958961829543" lon="-4.256297992542386">
        <ele>739.5</ele>
        <time>2010-12-31T13:41:46Z</time>
      </trkpt>
      <trkpt lat="31.225004978477955" lon="-4.25617896951735">
        <ele>739.29999999999995</ele>
        <time>2010-12-31T13:41:47Z</time>
      </trkpt>
      <trkpt lat="31.225546030327678" lon="-4.254584982991219">
        <ele>736.5</ele>
        <time>2010-12-31T13:42:03Z</time>
      </trkpt>
      <trkpt lat="31.225699000060558" lon="-4.253752995282412">
        <ele>737.20000000000005</ele>
        <time>2010-12-31T13:42:19Z</time>
      </trkpt>
      <trkpt lat="31.225806958973408" lon="-4.251528019085527">
        <ele>735</ele>
        <time>2010-12-31T13:43:08Z</time>
      </trkpt>
      <trkpt lat="31.225722972303629" lon="-4.25052504055202">
        <ele>734</ele>
        <time>2010-12-31T13:43:19Z</time>
      </trkpt>
      <trkpt lat="31.225721966475248" lon="-4.250410962849855">
        <ele>733.79999999999995</ele>
        <time>2010-12-31T13:43:20Z</time>
      </trkpt>
      <trkpt lat="31.225736970081925" lon="-4.250294035300612">
        <ele>733.79999999999995</ele>
        <time>2010-12-31T13:43:21Z</time>
      </trkpt>
      <trkpt lat="31.225768988952041" lon="-4.250176018103957">
        <ele>733.89999999999998</ele>
        <time>2010-12-31T13:43:22Z</time>
      </trkpt>
      <trkpt lat="31.225813999772072" lon="-4.250062024220824">
        <ele>734</ele>
        <time>2010-12-31T13:43:23Z</time>
      </trkpt>
      <trkpt lat="31.225919025018811" lon="-4.24983898177743">
        <ele>734.10000000000002</ele>
        <time>2010-12-31T13:43:25Z</time>
      </trkpt>
      <trkpt lat="31.226767022162676" lon="-4.248240971937776">
        <ele>739.79999999999995</ele>
        <time>2010-12-31T13:43:59Z</time>
      </trkpt>
      <trkpt lat="31.226787976920605" lon="-4.248109962791205">
        <ele>738.70000000000005</ele>
        <time>2010-12-31T13:44:02Z</time>
      </trkpt>
      <trkpt lat="31.226698961108923" lon="-4.248009966686368">
        <ele>737.79999999999995</ele>
        <time>2010-12-31T13:44:05Z</time>
      </trkpt>
      <trkpt lat="31.226607011631131" lon="-4.247987000271678">
        <ele>738.39999999999998</ele>
        <time>2010-12-31T13:44:07Z</time>
      </trkpt>
      <trkpt lat="31.226488994434476" lon="-4.248003009706736">
        <ele>738.60000000000002</ele>
        <time>2010-12-31T13:44:10Z</time>
      </trkpt>
      <trkpt lat="31.226409031078219" lon="-4.248074004426599">
        <ele>736.5</ele>
        <time>2010-12-31T13:44:13Z</time>
      </trkpt>
      <trkpt lat="31.226383969187737" lon="-4.248181963339448">
        <ele>737.39999999999998</ele>
        <time>2010-12-31T13:44:18Z</time>
      </trkpt>
      <trkpt lat="31.226396039128304" lon="-4.248299980536103">
        <ele>736.5</ele>
        <time>2010-12-31T13:44:25Z</time>
      </trkpt>
      <trkpt lat="31.226329989731312" lon="-4.248397964984179">
        <ele>737.29999999999995</ele>
        <time>2010-12-31T13:44:30Z</time>
      </trkpt>
      <trkpt lat="31.22608901001513" lon="-4.248409029096365">
        <ele>736.20000000000005</ele>
        <time>2010-12-31T13:47:45Z</time>
      </trkpt>
      <trkpt lat="31.225932016968727" lon="-4.248417997732759">
        <ele>734.10000000000002</ele>
        <time>2010-12-31T13:47:49Z</time>
      </trkpt>
      <trkpt lat="31.225844006985426" lon="-4.248455967754126">
        <ele>732.5</ele>
        <time>2010-12-31T13:47:52Z</time>
      </trkpt>
      <trkpt lat="31.225862028077245" lon="-4.248558981344104">
        <ele>718.39999999999998</ele>
        <time>2010-12-31T13:55:33Z</time>
      </trkpt>
      <trkpt lat="31.225965963676572" lon="-4.248555041849613">
        <ele>715.39999999999998</ele>
        <time>2010-12-31T16:20:09Z</time>
      </trkpt>
      <trkpt lat="31.225794972851872" lon="-4.248308027163148">
        <ele>733.29999999999995</ele>
        <time>2010-12-31T16:21:19Z</time>
      </trkpt>
      <trkpt lat="31.214335989207029" lon="-4.245623974129558">
        <ele>744</ele>
        <time>2010-12-31T16:27:06Z</time>
      </trkpt>
      <trkpt lat="31.210580980405211" lon="-4.246111968532205">
        <ele>736.89999999999998</ele>
        <time>2010-12-31T16:27:49Z</time>
      </trkpt>
      <trkpt lat="31.210488025099039" lon="-4.246111968532205">
        <ele>736.70000000000005</ele>
        <time>2010-12-31T16:27:50Z</time>
      </trkpt>
      <trkpt lat="31.208602013066411" lon="-4.245890015736222">
        <ele>740.10000000000002</ele>
        <time>2010-12-31T16:28:13Z</time>
      </trkpt>
      <trkpt lat="31.208188030868769" lon="-4.245852967724204">
        <ele>741.20000000000005</ele>
        <time>2010-12-31T16:28:18Z</time>
      </trkpt>
      <trkpt lat="31.208031037822366" lon="-4.245883980765939">
        <ele>742.10000000000002</ele>
        <time>2010-12-31T16:28:20Z</time>
      </trkpt>
      <trkpt lat="31.207859041169286" lon="-4.245952963829041">
        <ele>742.20000000000005</ele>
        <time>2010-12-31T16:28:23Z</time>
      </trkpt>
      <trkpt lat="31.207733983173966" lon="-4.245957992970944">
        <ele>742.39999999999998</ele>
        <time>2010-12-31T16:28:25Z</time>
      </trkpt>
      <trkpt lat="31.207604985684156" lon="-4.245936032384634">
        <ele>743.10000000000002</ele>
        <time>2010-12-31T16:28:27Z</time>
      </trkpt>
      <trkpt lat="31.207480011507869" lon="-4.245886998251081">
        <ele>743.39999999999998</ele>
        <time>2010-12-31T16:28:29Z</time>
      </trkpt>
      <trkpt lat="31.207223022356629" lon="-4.245751965790987">
        <ele>745.10000000000002</ele>
        <time>2010-12-31T16:28:34Z</time>
      </trkpt>
      <trkpt lat="31.206608964130282" lon="-4.245558008551598">
        <ele>746.89999999999998</ele>
        <time>2010-12-31T16:28:44Z</time>
      </trkpt>
      <trkpt lat="31.206472003832459" lon="-4.245540993288159">
        <ele>747.39999999999998</ele>
        <time>2010-12-31T16:28:46Z</time>
      </trkpt>
      <trkpt lat="31.206119041889906" lon="-4.245606036856771">
        <ele>748.89999999999998</ele>
        <time>2010-12-31T16:28:51Z</time>
      </trkpt>
      <trkpt lat="31.205985015258193" lon="-4.245656998828054">
        <ele>749.20000000000005</ele>
        <time>2010-12-31T16:28:53Z</time>
      </trkpt>
      <trkpt lat="31.205860041081905" lon="-4.245741991326213">
        <ele>749.39999999999998</ele>
        <time>2010-12-31T16:28:55Z</time>
      </trkpt>
      <trkpt lat="31.20576499029994" lon="-4.245846010744572">
        <ele>748.60000000000002</ele>
        <time>2010-12-31T16:28:57Z</time>
      </trkpt>
      <trkpt lat="31.205641021952033" lon="-4.245990011841059">
        <ele>747</ele>
        <time>2010-12-31T16:29:01Z</time>
      </trkpt>
      <trkpt lat="31.202782960608602" lon="-4.248627964407206">
        <ele>720.70000000000005</ele>
        <time>2010-12-31T16:30:23Z</time>
      </trkpt>
      <trkpt lat="31.202696040272713" lon="-4.248692002147436">
        <ele>720.60000000000002</ele>
        <time>2010-12-31T16:30:24Z</time>
      </trkpt>
      <trkpt lat="31.199127025902271" lon="-4.251357028260827">
        <ele>716.10000000000002</ele>
        <time>2010-12-31T16:31:09Z</time>
      </trkpt>
      <trkpt lat="31.198961986228824" lon="-4.251427017152309">
        <ele>716.20000000000005</ele>
        <time>2010-12-31T16:31:11Z</time>
      </trkpt>
      <trkpt lat="31.198871964588761" lon="-4.251445038244128">
        <ele>716.70000000000005</ele>
        <time>2010-12-31T16:31:12Z</time>
      </trkpt>
      <trkpt lat="31.198467034846544" lon="-4.251497006043792">
        <ele>717.89999999999998</ele>
        <time>2010-12-31T16:31:17Z</time>
      </trkpt>
      <trkpt lat="31.198316998779774" lon="-4.251494994387031">
        <ele>718.29999999999995</ele>
        <time>2010-12-31T16:31:19Z</time>
      </trkpt>
      <trkpt lat="31.197233973070979" lon="-4.251488959416747">
        <ele>723.79999999999995</ele>
        <time>2010-12-31T16:31:34Z</time>
      </trkpt>
      <trkpt lat="31.197115033864975" lon="-4.251505974680185">
        <ele>724.60000000000002</ele>
        <time>2010-12-31T16:31:36Z</time>
      </trkpt>
      <trkpt lat="31.196579011157155" lon="-4.251598007977009">
        <ele>728.29999999999995</ele>
        <time>2010-12-31T16:31:45Z</time>
      </trkpt>
      <trkpt lat="31.19648396037519" lon="-4.251675037667155">
        <ele>727</ele>
        <time>2010-12-31T16:31:48Z</time>
      </trkpt>
      <trkpt lat="31.196452025324106" lon="-4.252012996003032">
        <ele>721.29999999999995</ele>
        <time>2010-12-31T16:31:56Z</time>
      </trkpt>
      <trkpt lat="31.196411959826946" lon="-4.252130007371306">
        <ele>716</ele>
        <time>2010-12-31T16:31:59Z</time>
      </trkpt>
      <trkpt lat="31.196340965107083" lon="-4.25220200791955">
        <ele>713.39999999999998</ele>
        <time>2010-12-31T16:32:02Z</time>
      </trkpt>
      <trkpt lat="31.19613996706903" lon="-4.252242995426059">
        <ele>709.79999999999995</ele>
        <time>2010-12-31T16:32:08Z</time>
      </trkpt>
      <trkpt lat="31.196023039519787" lon="-4.252164037898183">
        <ele>711.10000000000002</ele>
        <time>2010-12-31T16:32:11Z</time>
      </trkpt>
      <trkpt lat="31.195778036490083" lon="-4.251893972977996">
        <ele>712.29999999999995</ele>
        <time>2010-12-31T16:32:20Z</time>
      </trkpt>
      <trkpt lat="31.195692038163543" lon="-4.251780984923244">
        <ele>716.60000000000002</ele>
        <time>2010-12-31T16:32:33Z</time>
      </trkpt>
      <trkpt lat="31.195435971021652" lon="-4.251878969371319">
        <ele>720.60000000000002</ele>
        <time>2010-12-31T16:32:44Z</time>
      </trkpt>
      <trkpt lat="31.195269003510475" lon="-4.251891961321235">
        <ele>725.29999999999995</ele>
        <time>2010-12-31T16:33:21Z</time>
      </trkpt>
      <trkpt lat="31.193676022812724" lon="-4.252772983163595">
        <ele>730.5</ele>
        <time>2010-12-31T16:33:47Z</time>
      </trkpt>
      <trkpt lat="31.188580999150872" lon="-4.255875963717699">
        <ele>714.79999999999995</ele>
        <time>2010-12-31T16:35:01Z</time>
      </trkpt>
      <trkpt lat="31.188403973355889" lon="-4.256053995341063">
        <ele>715.60000000000002</ele>
        <time>2010-12-31T16:35:04Z</time>
      </trkpt>
      <trkpt lat="31.187912039458752" lon="-4.256748016923666">
        <ele>709.60000000000002</ele>
        <time>2010-12-31T16:35:14Z</time>
      </trkpt>
      <trkpt lat="31.187774995341897" lon="-4.256846001371741">
        <ele>709.20000000000005</ele>
        <time>2010-12-31T16:35:16Z</time>
      </trkpt>
      <trkpt lat="31.187619008123875" lon="-4.256911966949701">
        <ele>709.29999999999995</ele>
        <time>2010-12-31T16:35:18Z</time>
      </trkpt>
      <trkpt lat="31.187383979558945" lon="-4.256978016346693">
        <ele>709.20000000000005</ele>
        <time>2010-12-31T16:35:21Z</time>
      </trkpt>
      <trkpt lat="31.186821972951293" lon="-4.25714498385787">
        <ele>711</ele>
        <time>2010-12-31T16:35:28Z</time>
      </trkpt>
      <trkpt lat="31.186522990465164" lon="-4.257183037698269">
        <ele>712.70000000000005</ele>
        <time>2010-12-31T16:35:32Z</time>
      </trkpt>
      <trkpt lat="31.185559993609786" lon="-4.257239028811455">
        <ele>710.60000000000002</ele>
        <time>2010-12-31T16:35:45Z</time>
      </trkpt>
      <trkpt lat="31.184804029762745" lon="-4.2572729755193">
        <ele>704.70000000000005</ele>
        <time>2010-12-31T16:35:56Z</time>
      </trkpt>
      <trkpt lat="31.184664973989129" lon="-4.257257971912623">
        <ele>704.20000000000005</ele>
        <time>2010-12-31T16:35:58Z</time>
      </trkpt>
      <trkpt lat="31.184520972892642" lon="-4.257238022983074">
        <ele>704.20000000000005</ele>
        <time>2010-12-31T16:36:00Z</time>
      </trkpt>
      <trkpt lat="31.184374038130045" lon="-4.257209021598101">
        <ele>705</ele>
        <time>2010-12-31T16:36:02Z</time>
      </trkpt>
      <trkpt lat="31.183855030685663" lon="-4.257070971652865">
        <ele>710.39999999999998</ele>
        <time>2010-12-31T16:36:09Z</time>
      </trkpt>
      <trkpt lat="31.183466026559472" lon="-4.256978016346693">
        <ele>715.20000000000005</ele>
        <time>2010-12-31T16:36:14Z</time>
      </trkpt>
      <trkpt lat="31.183287994936109" lon="-4.256990002468228">
        <ele>718</ele>
        <time>2010-12-31T16:36:16Z</time>
      </trkpt>
      <trkpt lat="31.183047015219927" lon="-4.257103996351361">
        <ele>721.29999999999995</ele>
        <time>2010-12-31T16:36:19Z</time>
      </trkpt>
      <trkpt lat="31.1826460249722" lon="-4.257360985502601">
        <ele>727</ele>
        <time>2010-12-31T16:36:24Z</time>
      </trkpt>
      <trkpt lat="31.18232499808073" lon="-4.257524013519287">
        <ele>731.39999999999998</ele>
        <time>2010-12-31T16:36:28Z</time>
      </trkpt>
      <trkpt lat="31.181241972371936" lon="-4.25804503262043">
        <ele>738.5</ele>
        <time>2010-12-31T16:36:41Z</time>
      </trkpt>
      <trkpt lat="31.180980959907174" lon="-4.258119966834784">
        <ele>738.20000000000005</ele>
        <time>2010-12-31T16:36:44Z</time>
      </trkpt>
      <trkpt lat="31.180802006274462" lon="-4.25815399736166">
        <ele>738.10000000000002</ele>
        <time>2010-12-31T16:36:46Z</time>
      </trkpt>
      <trkpt lat="31.178182996809483" lon="-4.258771995082498">
        <ele>738.29999999999995</ele>
        <time>2010-12-31T16:37:12Z</time>
      </trkpt>
      <trkpt lat="31.178067997097969" lon="-4.258818011730909">
        <ele>738.39999999999998</ele>
        <time>2010-12-31T16:37:13Z</time>
      </trkpt>
      <trkpt lat="31.175692984834313" lon="-4.259590990841389">
        <ele>735.5</ele>
        <time>2010-12-31T16:37:33Z</time>
      </trkpt>
      <trkpt lat="31.175581002607942" lon="-4.259602976962924">
        <ele>735.5</ele>
        <time>2010-12-31T16:37:34Z</time>
      </trkpt>
      <trkpt lat="31.175466002896428" lon="-4.259602976962924">
        <ele>735.39999999999998</ele>
        <time>2010-12-31T16:37:35Z</time>
      </trkpt>
      <trkpt lat="31.175348991528153" lon="-4.259594008326531">
        <ele>735.39999999999998</ele>
        <time>2010-12-31T16:37:36Z</time>
      </trkpt>
      <trkpt lat="31.172542981803417" lon="-4.259130991995335">
        <ele>735.70000000000005</ele>
        <time>2010-12-31T16:38:00Z</time>
      </trkpt>
      <trkpt lat="31.155277015641332" lon="-4.256233032792807">
        <ele>732.89999999999998</ele>
        <time>2010-12-31T16:40:18Z</time>
      </trkpt>
      <trkpt lat="31.155160004273057" lon="-4.256233032792807">
        <ele>733</ele>
        <time>2010-12-31T16:40:19Z</time>
      </trkpt>
      <trkpt lat="31.155042992904782" lon="-4.256243007257581">
        <ele>733.20000000000005</ele>
        <time>2010-12-31T16:40:20Z</time>
      </trkpt>
      <trkpt lat="31.15493000485003" lon="-4.256265973672271">
        <ele>733.39999999999998</ele>
        <time>2010-12-31T16:40:21Z</time>
      </trkpt>
      <trkpt lat="31.1548210401088" lon="-4.256298998370767">
        <ele>733.5</ele>
        <time>2010-12-31T16:40:22Z</time>
      </trkpt>
      <trkpt lat="31.154380990192294" lon="-4.256465965881944">
        <ele>731.29999999999995</ele>
        <time>2010-12-31T16:40:26Z</time>
      </trkpt>
      <trkpt lat="31.154279988259077" lon="-4.256517011672258">
        <ele>731.20000000000005</ele>
        <time>2010-12-31T16:40:27Z</time>
      </trkpt>
      <trkpt lat="31.150874001905322" lon="-4.258751040324569">
        <ele>728.10000000000002</ele>
        <time>2010-12-31T16:41:04Z</time>
      </trkpt>
      <trkpt lat="31.148043014109135" lon="-4.260639986023307">
        <ele>734.29999999999995</ele>
        <time>2010-12-31T16:41:33Z</time>
      </trkpt>
      <trkpt lat="31.147963972762227" lon="-4.260723972693086">
        <ele>734.5</ele>
        <time>2010-12-31T16:41:34Z</time>
      </trkpt>
      <trkpt lat="31.147037018090487" lon="-4.261878998950124">
        <ele>740.29999999999995</ele>
        <time>2010-12-31T16:41:47Z</time>
      </trkpt>
      <trkpt lat="31.146920006722212" lon="-4.262058036401868">
        <ele>740.89999999999998</ele>
        <time>2010-12-31T16:41:49Z</time>
      </trkpt>
      <trkpt lat="31.146868960931897" lon="-4.262154009193182">
        <ele>740.5</ele>
        <time>2010-12-31T16:41:50Z</time>
      </trkpt>
      <trkpt lat="31.146694030612707" lon="-4.262542007490993">
        <ele>740</ele>
        <time>2010-12-31T16:41:54Z</time>
      </trkpt>
      <trkpt lat="31.14657199010253" lon="-4.262668993324041">
        <ele>740.5</ele>
        <time>2010-12-31T16:41:56Z</time>
      </trkpt>
      <trkpt lat="31.146203018724918" lon="-4.262970993295312">
        <ele>741.70000000000005</ele>
        <time>2010-12-31T16:42:01Z</time>
      </trkpt>
      <trkpt lat="31.146139986813068" lon="-4.26305296830833">
        <ele>741.89999999999998</ele>
        <time>2010-12-31T16:42:02Z</time>
      </trkpt>
      <trkpt lat="31.146082989871502" lon="-4.263140978291631">
        <ele>742.10000000000002</ele>
        <time>2010-12-31T16:42:03Z</time>
      </trkpt>
      <trkpt lat="31.146032027900219" lon="-4.263234017416835">
        <ele>742.29999999999995</ele>
        <time>2010-12-31T16:42:04Z</time>
      </trkpt>
      <trkpt lat="31.145983999595046" lon="-4.26333200186491">
        <ele>742.20000000000005</ele>
        <time>2010-12-31T16:42:05Z</time>
      </trkpt>
      <trkpt lat="31.145899007096887" lon="-4.26354699768126">
        <ele>741.39999999999998</ele>
        <time>2010-12-31T16:42:07Z</time>
      </trkpt>
      <trkpt lat="31.145826000720263" lon="-4.263767022639513">
        <ele>741</ele>
        <time>2010-12-31T16:42:09Z</time>
      </trkpt>
      <trkpt lat="31.145745031535625" lon="-4.264101963490248">
        <ele>741.39999999999998</ele>
        <time>2010-12-31T16:42:12Z</time>
      </trkpt>
      <trkpt lat="31.145701026543975" lon="-4.264202965423465">
        <ele>741.70000000000005</ele>
        <time>2010-12-31T16:42:13Z</time>
      </trkpt>
      <trkpt lat="31.145646963268518" lon="-4.264293992891908">
        <ele>741.79999999999995</ele>
        <time>2010-12-31T16:42:14Z</time>
      </trkpt>
      <trkpt lat="31.144941039383411" lon="-4.265380036085844">
        <ele>744.39999999999998</ele>
        <time>2010-12-31T16:42:26Z</time>
      </trkpt>
      <trkpt lat="31.144878007471561" lon="-4.265461005270481">
        <ele>744.60000000000002</ele>
        <time>2010-12-31T16:42:27Z</time>
      </trkpt>
      <trkpt lat="31.14480902440846" lon="-4.265531999990344">
        <ele>744.70000000000005</ele>
        <time>2010-12-31T16:42:28Z</time>
      </trkpt>
      <trkpt lat="31.144735012203455" lon="-4.265592014417052">
        <ele>744.79999999999995</ele>
        <time>2010-12-31T16:42:29Z</time>
      </trkpt>
      <trkpt lat="31.143942000344396" lon="-4.266123007982969">
        <ele>745.79999999999995</ele>
        <time>2010-12-31T16:42:39Z</time>
      </trkpt>
      <trkpt lat="31.143856002017856" lon="-4.266172964125872">
        <ele>746</ele>
        <time>2010-12-31T16:42:40Z</time>
      </trkpt>
      <trkpt lat="31.143675036728382" lon="-4.266260974109173">
        <ele>746.39999999999998</ele>
        <time>2010-12-31T16:42:42Z</time>
      </trkpt>
      <trkpt lat="31.143486024811864" lon="-4.266332974657416">
        <ele>746.60000000000002</ele>
        <time>2010-12-31T16:42:44Z</time>
      </trkpt>
      <trkpt lat="31.143202967941761" lon="-4.266419978812337">
        <ele>747.20000000000005</ele>
        <time>2010-12-31T16:42:47Z</time>
      </trkpt>
      <trkpt lat="31.143014039844275" lon="-4.266460966318846">
        <ele>747.5</ele>
        <time>2010-12-31T16:42:49Z</time>
      </trkpt>
      <trkpt lat="31.142918989062309" lon="-4.266472030431032">
        <ele>747.70000000000005</ele>
        <time>2010-12-31T16:42:50Z</time>
      </trkpt>
      <trkpt lat="31.142547000199556" lon="-4.266501031816006">
        <ele>748.29999999999995</ele>
        <time>2010-12-31T16:42:54Z</time>
      </trkpt>
      <trkpt lat="31.142456978559494" lon="-4.266528021544218">
        <ele>748.5</ele>
        <time>2010-12-31T16:42:55Z</time>
      </trkpt>
      <trkpt lat="31.142368968576193" lon="-4.266564985737205">
        <ele>748.60000000000002</ele>
        <time>2010-12-31T16:42:56Z</time>
      </trkpt>
      <trkpt lat="31.142283976078033" lon="-4.266612008213997">
        <ele>748.79999999999995</ele>
        <time>2010-12-31T16:42:57Z</time>
      </trkpt>
      <trkpt lat="31.141952974721789" lon="-4.266852987930179">
        <ele>749.39999999999998</ele>
        <time>2010-12-31T16:43:01Z</time>
      </trkpt>
      <trkpt lat="31.141216037794948" lon="-4.267445001751185">
        <ele>749.89999999999998</ele>
        <time>2010-12-31T16:43:10Z</time>
      </trkpt>
      <trkpt lat="31.141133978962898" lon="-4.267491018399596">
        <ele>749.89999999999998</ele>
        <time>2010-12-31T16:43:11Z</time>
      </trkpt>
      <trkpt lat="31.140796020627022" lon="-4.267619010061026">
        <ele>750.29999999999995</ele>
        <time>2010-12-31T16:43:15Z</time>
      </trkpt>
      <trkpt lat="31.140641961246729" lon="-4.267724035307765">
        <ele>750.60000000000002</ele>
        <time>2010-12-31T16:43:17Z</time>
      </trkpt>
      <trkpt lat="31.140372985973954" lon="-4.267999967560172">
        <ele>750.70000000000005</ele>
        <time>2010-12-31T16:43:21Z</time>
      </trkpt>
      <trkpt lat="31.140297967940569" lon="-4.268057970330119">
        <ele>750.70000000000005</ele>
        <time>2010-12-31T16:43:22Z</time>
      </trkpt>
      <trkpt lat="31.140066962689161" lon="-4.268205994740129">
        <ele>751</ele>
        <time>2010-12-31T16:43:25Z</time>
      </trkpt>
      <trkpt lat="31.1399320140481" lon="-4.268340021371841">
        <ele>751.10000000000002</ele>
        <time>2010-12-31T16:43:27Z</time>
      </trkpt>
      <trkpt lat="31.1393310315907" lon="-4.269072012975812">
        <ele>751.60000000000002</ele>
        <time>2010-12-31T16:43:36Z</time>
      </trkpt>
      <trkpt lat="31.139254001900554" lon="-4.269136972725391">
        <ele>751.79999999999995</ele>
        <time>2010-12-31T16:43:37Z</time>
      </trkpt>
      <trkpt lat="31.138771958649158" lon="-4.269521031528711">
        <ele>751.70000000000005</ele>
        <time>2010-12-31T16:43:43Z</time>
      </trkpt>
      <trkpt lat="31.138701969757676" lon="-4.269603006541729">
        <ele>751.70000000000005</ele>
        <time>2010-12-31T16:43:44Z</time>
      </trkpt>
      <trkpt lat="31.13761299289763" lon="-4.270900022238493">
        <ele>753.60000000000002</ele>
        <time>2010-12-31T16:44:01Z</time>
      </trkpt>
      <trkpt lat="31.13756999373436" lon="-4.271000018343329">
        <ele>753.79999999999995</ele>
        <time>2010-12-31T16:44:03Z</time>
      </trkpt>
      <trkpt lat="31.137558007612824" lon="-4.271162040531635">
        <ele>754.10000000000002</ele>
        <time>2010-12-31T16:44:06Z</time>
      </trkpt>
      <trkpt lat="31.137598995119333" lon="-4.271308975294232">
        <ele>753.39999999999998</ele>
        <time>2010-12-31T16:44:09Z</time>
      </trkpt>
      <trkpt lat="31.137611987069249" lon="-4.271416012197733">
        <ele>753.10000000000002</ele>
        <time>2010-12-31T16:44:11Z</time>
      </trkpt>
      <trkpt lat="31.137576028704643" lon="-4.271538974717259">
        <ele>753.10000000000002</ele>
        <time>2010-12-31T16:44:13Z</time>
      </trkpt>
      <trkpt lat="31.137295989319682" lon="-4.272283958271146">
        <ele>750.60000000000002</ele>
        <time>2010-12-31T16:44:21Z</time>
      </trkpt>
      <trkpt lat="31.137244021520019" lon="-4.272392001003027">
        <ele>750.60000000000002</ele>
        <time>2010-12-31T16:44:22Z</time>
      </trkpt>
      <trkpt lat="31.137185012921691" lon="-4.272497026249766">
        <ele>750.70000000000005</ele>
        <time>2010-12-31T16:44:23Z</time>
      </trkpt>
      <trkpt lat="31.136704981327057" lon="-4.273306969553232">
        <ele>752.20000000000005</ele>
        <time>2010-12-31T16:44:33Z</time>
      </trkpt>
      <trkpt lat="31.136599034070969" lon="-4.273432027548552">
        <ele>752.70000000000005</ele>
        <time>2010-12-31T16:44:35Z</time>
      </trkpt>
      <trkpt lat="31.136165019124746" lon="-4.273819020017982">
        <ele>753.70000000000005</ele>
        <time>2010-12-31T16:44:41Z</time>
      </trkpt>
      <trkpt lat="31.136057982221246" lon="-4.273964026942849">
        <ele>754</ele>
        <time>2010-12-31T16:44:43Z</time>
      </trkpt>
      <trkpt lat="31.135965026915073" lon="-4.27413702942431">
        <ele>754</ele>
        <time>2010-12-31T16:44:45Z</time>
      </trkpt>
      <trkpt lat="31.135927978903055" lon="-4.274240965023637">
        <ele>754.29999999999995</ele>
        <time>2010-12-31T16:44:46Z</time>
      </trkpt>
      <trkpt lat="31.13589403219521" lon="-4.27435202524066">
        <ele>753.70000000000005</ele>
        <time>2010-12-31T16:44:47Z</time>
      </trkpt>
      <trkpt lat="31.135870981961489" lon="-4.274470964446664">
        <ele>753.79999999999995</ele>
        <time>2010-12-31T16:44:48Z</time>
      </trkpt>
      <trkpt lat="31.13550703972578" lon="-4.276392012834549">
        <ele>753.39999999999998</ele>
        <time>2010-12-31T16:45:04Z</time>
      </trkpt>
      <trkpt lat="31.135468985885382" lon="-4.276512041687965">
        <ele>753.70000000000005</ele>
        <time>2010-12-31T16:45:05Z</time>
      </trkpt>
      <trkpt lat="31.135426992550492" lon="-4.276629975065589">
        <ele>753.70000000000005</ele>
        <time>2010-12-31T16:45:06Z</time>
      </trkpt>
      <trkpt lat="31.135123986750841" lon="-4.277463974431157">
        <ele>752.5</ele>
        <time>2010-12-31T16:45:13Z</time>
      </trkpt>
      <trkpt lat="31.135095991194248" lon="-4.277596995234489">
        <ele>752.70000000000005</ele>
        <time>2010-12-31T16:45:14Z</time>
      </trkpt>
      <trkpt lat="31.135026002302766" lon="-4.278157996013761">
        <ele>753.39999999999998</ele>
        <time>2010-12-31T16:45:18Z</time>
      </trkpt>
      <trkpt lat="31.134845037013292" lon="-4.282192038372159">
        <ele>754.60000000000002</ele>
        <time>2010-12-31T16:45:47Z</time>
      </trkpt>
      <trkpt lat="31.134819975122809" lon="-4.282293040305376">
        <ele>754.79999999999995</ele>
        <time>2010-12-31T16:45:48Z</time>
      </trkpt>
      <trkpt lat="31.134744035080075" lon="-4.282468976452947">
        <ele>755.29999999999995</ele>
        <time>2010-12-31T16:45:50Z</time>
      </trkpt>
      <trkpt lat="31.134255034849048" lon="-4.283471032977104">
        <ele>756.89999999999998</ele>
        <time>2010-12-31T16:46:03Z</time>
      </trkpt>
      <trkpt lat="31.134158978238702" lon="-4.283601036295295">
        <ele>757.29999999999995</ele>
        <time>2010-12-31T16:46:05Z</time>
      </trkpt>
      <trkpt lat="31.134040039032698" lon="-4.283711006864905">
        <ele>757.70000000000005</ele>
        <time>2010-12-31T16:46:07Z</time>
      </trkpt>
      <trkpt lat="31.133277034386992" lon="-4.284208975732327">
        <ele>759.39999999999998</ele>
        <time>2010-12-31T16:46:17Z</time>
      </trkpt>
      <trkpt lat="31.131622027605772" lon="-4.285436002537608">
        <ele>769.89999999999998</ele>
        <time>2010-12-31T16:46:38Z</time>
      </trkpt>
      <trkpt lat="31.131467968225479" lon="-4.285496016964316">
        <ele>770.70000000000005</ele>
        <time>2010-12-31T16:46:40Z</time>
      </trkpt>
      <trkpt lat="31.131138978525996" lon="-4.285471960902214">
        <ele>771</ele>
        <time>2010-12-31T16:46:44Z</time>
      </trkpt>
      <trkpt lat="31.131047029048204" lon="-4.285483025014401">
        <ele>770.79999999999995</ele>
        <time>2010-12-31T16:46:45Z</time>
      </trkpt>
      <trkpt lat="31.130950972437859" lon="-4.285503979772329">
        <ele>770.60000000000002</ele>
        <time>2010-12-31T16:46:46Z</time>
      </trkpt>
      <trkpt lat="31.12886899150908" lon="-4.286089958623052">
        <ele>770</ele>
        <time>2010-12-31T16:47:09Z</time>
      </trkpt>
      <trkpt lat="31.126717021688819" lon="-4.286441998556256">
        <ele>772.39999999999998</ele>
        <time>2010-12-31T16:47:33Z</time>
      </trkpt>
      <trkpt lat="31.126625994220376" lon="-4.286463037133217">
        <ele>772.39999999999998</ele>
        <time>2010-12-31T16:47:34Z</time>
      </trkpt>
      <trkpt lat="31.126369005069137" lon="-4.286544006317854">
        <ele>772.5</ele>
        <time>2010-12-31T16:47:37Z</time>
      </trkpt>
      <trkpt lat="31.12620203755796" lon="-4.286549035459757">
        <ele>772</ele>
        <time>2010-12-31T16:47:39Z</time>
      </trkpt>
      <trkpt lat="31.124693965539336" lon="-4.286371003836393">
        <ele>771</ele>
        <time>2010-12-31T16:47:57Z</time>
      </trkpt>
      <trkpt lat="31.123724011704326" lon="-4.286509975790978">
        <ele>774.29999999999995</ele>
        <time>2010-12-31T16:48:09Z</time>
      </trkpt>
      <trkpt lat="31.121534993872046" lon="-4.286912977695465">
        <ele>779.29999999999995</ele>
        <time>2010-12-31T16:48:40Z</time>
      </trkpt>
      <trkpt lat="31.121396021917462" lon="-4.286961006000638">
        <ele>779.60000000000002</ele>
        <time>2010-12-31T16:48:42Z</time>
      </trkpt>
      <trkpt lat="31.121247997507453" lon="-4.287039963528514">
        <ele>779.70000000000005</ele>
        <time>2010-12-31T16:48:44Z</time>
      </trkpt>
      <trkpt lat="31.120930993929505" lon="-4.287228975445032">
        <ele>781.29999999999995</ele>
        <time>2010-12-31T16:48:48Z</time>
      </trkpt>
      <trkpt lat="31.120843989774585" lon="-4.287264011800289">
        <ele>781.89999999999998</ele>
        <time>2010-12-31T16:48:49Z</time>
      </trkpt>
      <trkpt lat="31.120756985619664" lon="-4.287291001528502">
        <ele>782.5</ele>
        <time>2010-12-31T16:48:50Z</time>
      </trkpt>
      <trkpt lat="31.120583983138204" lon="-4.287324026226997">
        <ele>783.5</ele>
        <time>2010-12-31T16:48:52Z</time>
      </trkpt>
      <trkpt lat="31.120272008702159" lon="-4.287325032055378">
        <ele>784.79999999999995</ele>
        <time>2010-12-31T16:48:56Z</time>
      </trkpt>
      <trkpt lat="31.120118033140898" lon="-4.287304999306798">
        <ele>785.60000000000002</ele>
        <time>2010-12-31T16:48:58Z</time>
      </trkpt>
      <trkpt lat="31.119889039546251" lon="-4.287216989323497">
        <ele>786.10000000000002</ele>
        <time>2010-12-31T16:49:01Z</time>
      </trkpt>
      <trkpt lat="31.119301971048117" lon="-4.287110036239028">
        <ele>787.5</ele>
        <time>2010-12-31T16:49:08Z</time>
      </trkpt>
      <trkpt lat="31.119125029072165" lon="-4.287128979340196">
        <ele>788.60000000000002</ele>
        <time>2010-12-31T16:49:10Z</time>
      </trkpt>
      <trkpt lat="31.118965018540621" lon="-4.287196034565568">
        <ele>788.89999999999998</ele>
        <time>2010-12-31T16:49:12Z</time>
      </trkpt>
      <trkpt lat="31.11879201605916" lon="-4.287355039268732">
        <ele>788.20000000000005</ele>
        <time>2010-12-31T16:49:15Z</time>
      </trkpt>
      <trkpt lat="31.118683973327279" lon="-4.287410024553537">
        <ele>787.29999999999995</ele>
        <time>2010-12-31T16:49:17Z</time>
      </trkpt>
      <trkpt lat="31.118477024137974" lon="-4.287425028160214">
        <ele>787.70000000000005</ele>
        <time>2010-12-31T16:49:21Z</time>
      </trkpt>
      <trkpt lat="31.118363030254841" lon="-4.287454029545188">
        <ele>786</ele>
        <time>2010-12-31T16:49:23Z</time>
      </trkpt>
      <trkpt lat="31.117952987551689" lon="-4.287649998441339">
        <ele>782</ele>
        <time>2010-12-31T16:49:30Z</time>
      </trkpt>
      <trkpt lat="31.117853997275233" lon="-4.287724010646343">
        <ele>781.20000000000005</ele>
        <time>2010-12-31T16:49:32Z</time>
      </trkpt>
      <trkpt lat="31.117784008383751" lon="-4.287810008972883">
        <ele>780.20000000000005</ele>
        <time>2010-12-31T16:49:34Z</time>
      </trkpt>
      <trkpt lat="31.117734974250197" lon="-4.287906987592578">
        <ele>778.70000000000005</ele>
        <time>2010-12-31T16:49:36Z</time>
      </trkpt>
      <trkpt lat="31.117726005613804" lon="-4.288021987304092">
        <ele>776</ele>
        <time>2010-12-31T16:49:39Z</time>
      </trkpt>
      <trkpt lat="31.117727011442184" lon="-4.288176968693733">
        <ele>772.39999999999998</ele>
        <time>2010-12-31T16:49:54Z</time>
      </trkpt>
      <trkpt lat="31.117708990350366" lon="-4.288282999768853">
        <ele>771.60000000000002</ele>
        <time>2010-12-31T16:49:56Z</time>
      </trkpt>
      <trkpt lat="31.11765299923718" lon="-4.288504030555487">
        <ele>770</ele>
        <time>2010-12-31T16:49:59Z</time>
      </trkpt>
      <trkpt lat="31.117586027830839" lon="-4.28868499584496">
        <ele>768.29999999999995</ele>
        <time>2010-12-31T16:50:01Z</time>
      </trkpt>
      <trkpt lat="31.117536993697286" lon="-4.288778034970164">
        <ele>767.79999999999995</ele>
        <time>2010-12-31T16:50:02Z</time>
      </trkpt>
      <trkpt lat="31.117427023127675" lon="-4.28896201774478">
        <ele>767.29999999999995</ele>
        <time>2010-12-31T16:50:04Z</time>
      </trkpt>
      <trkpt lat="31.117053022608161" lon="-4.289482031017542">
        <ele>765.60000000000002</ele>
        <time>2010-12-31T16:50:10Z</time>
      </trkpt>
      <trkpt lat="31.116990996524692" lon="-4.289558976888657">
        <ele>765.29999999999995</ele>
        <time>2010-12-31T16:50:11Z</time>
      </trkpt>
      <trkpt lat="31.116633005440235" lon="-4.289953010156751">
        <ele>763.60000000000002</ele>
        <time>2010-12-31T16:50:17Z</time>
      </trkpt>
      <trkpt lat="31.11651599407196" lon="-4.290215028449893">
        <ele>761.5</ele>
        <time>2010-12-31T16:50:20Z</time>
      </trkpt>
      <trkpt lat="31.116273002699018" lon="-4.290935033932328">
        <ele>757</ele>
        <time>2010-12-31T16:50:27Z</time>
      </trkpt>
      <trkpt lat="31.116223968565464" lon="-4.291119016706944">
        <ele>756.70000000000005</ele>
        <time>2010-12-31T16:50:29Z</time>
      </trkpt>
      <trkpt lat="31.114960983395576" lon="-4.296516962349415">
        <ele>746.10000000000002</ele>
        <time>2010-12-31T16:51:17Z</time>
      </trkpt>
      <trkpt lat="31.114927036687732" lon="-4.296616036444902">
        <ele>746.29999999999995</ele>
        <time>2010-12-31T16:51:18Z</time>
      </trkpt>
      <trkpt lat="31.114742970094085" lon="-4.297081986442208">
        <ele>743.89999999999998</ele>
        <time>2010-12-31T16:51:23Z</time>
      </trkpt>
      <trkpt lat="31.114585977047682" lon="-4.297880027443171">
        <ele>741.70000000000005</ele>
        <time>2010-12-31T16:51:31Z</time>
      </trkpt>
      <trkpt lat="31.114525962620974" lon="-4.298086976632476">
        <ele>741.20000000000005</ele>
        <time>2010-12-31T16:51:33Z</time>
      </trkpt>
      <trkpt lat="31.114458991214633" lon="-4.298295015469194">
        <ele>741.70000000000005</ele>
        <time>2010-12-31T16:51:35Z</time>
      </trkpt>
      <trkpt lat="31.11427903175354" lon="-4.298792984336615">
        <ele>742.39999999999998</ele>
        <time>2010-12-31T16:51:40Z</time>
      </trkpt>
      <trkpt lat="31.113132974132895" lon="-4.302260996773839">
        <ele>753.70000000000005</ele>
        <time>2010-12-31T16:52:16Z</time>
      </trkpt>
      <trkpt lat="31.113015962764621" lon="-4.302504993975163">
        <ele>754.89999999999998</ele>
        <time>2010-12-31T16:52:19Z</time>
      </trkpt>
      <trkpt lat="31.112497039139271" lon="-4.303558012470603">
        <ele>760.39999999999998</ele>
        <time>2010-12-31T16:52:32Z</time>
      </trkpt>
      <trkpt lat="31.112392013892531" lon="-4.303689021617174">
        <ele>761.10000000000002</ele>
        <time>2010-12-31T16:52:34Z</time>
      </trkpt>
      <trkpt lat="31.112279025837779" lon="-4.303807038813829">
        <ele>762.10000000000002</ele>
        <time>2010-12-31T16:52:36Z</time>
      </trkpt>
      <trkpt lat="31.111792037263513" lon="-4.304256979376078">
        <ele>765.20000000000005</ele>
        <time>2010-12-31T16:52:44Z</time>
      </trkpt>
      <trkpt lat="31.111149983480573" lon="-4.304966004565358">
        <ele>767.70000000000005</ele>
        <time>2010-12-31T16:52:55Z</time>
      </trkpt>
      <trkpt lat="31.111005982384086" lon="-4.305101037025452">
        <ele>769</ele>
        <time>2010-12-31T16:52:57Z</time>
      </trkpt>
      <trkpt lat="31.110043991357088" lon="-4.305909974500537">
        <ele>773.20000000000005</ele>
        <time>2010-12-31T16:53:11Z</time>
      </trkpt>
      <trkpt lat="31.109900996088982" lon="-4.306004019454122">
        <ele>774.29999999999995</ele>
        <time>2010-12-31T16:53:13Z</time>
      </trkpt>
      <trkpt lat="31.10959799028933" lon="-4.306079959496856">
        <ele>776.10000000000002</ele>
        <time>2010-12-31T16:53:17Z</time>
      </trkpt>
      <trkpt lat="31.109493970870972" lon="-4.306179033592343">
        <ele>776.60000000000002</ele>
        <time>2010-12-31T16:53:19Z</time>
      </trkpt>
      <trkpt lat="31.109438985586166" lon="-4.306311970576644">
        <ele>776.70000000000005</ele>
        <time>2010-12-31T16:53:21Z</time>
      </trkpt>
      <trkpt lat="31.109376959502697" lon="-4.306439962238073">
        <ele>776.39999999999998</ele>
        <time>2010-12-31T16:53:23Z</time>
      </trkpt>
      <trkpt lat="31.109249973669648" lon="-4.306626040488482">
        <ele>776.79999999999995</ele>
        <time>2010-12-31T16:53:26Z</time>
      </trkpt>
      <trkpt lat="31.109173027798533" lon="-4.306833995506167">
        <ele>776.79999999999995</ele>
        <time>2010-12-31T16:53:29Z</time>
      </trkpt>
      <trkpt lat="31.109094992280006" lon="-4.306944971904159">
        <ele>776.89999999999998</ele>
        <time>2010-12-31T16:53:31Z</time>
      </trkpt>
      <trkpt lat="31.109007988125086" lon="-4.307063994929195">
        <ele>777</ele>
        <time>2010-12-31T16:53:33Z</time>
      </trkpt>
      <trkpt lat="31.108934981748462" lon="-4.307217970490456">
        <ele>777.5</ele>
        <time>2010-12-31T16:53:35Z</time>
      </trkpt>
      <trkpt lat="31.108828028663993" lon="-4.307353002950549">
        <ele>777.5</ele>
        <time>2010-12-31T16:53:37Z</time>
      </trkpt>
      <trkpt lat="31.108697019517422" lon="-4.307468002662063">
        <ele>778.10000000000002</ele>
        <time>2010-12-31T16:53:39Z</time>
      </trkpt>
      <trkpt lat="31.108162002637982" lon="-4.307737983763218">
        <ele>779.10000000000002</ele>
        <time>2010-12-31T16:53:46Z</time>
      </trkpt>
      <trkpt lat="31.106490986421704" lon="-4.308375008404255">
        <ele>782.70000000000005</ele>
        <time>2010-12-31T16:54:10Z</time>
      </trkpt>
      <trkpt lat="31.10600802116096" lon="-4.308528983965516">
        <ele>782.79999999999995</ele>
        <time>2010-12-31T16:54:16Z</time>
      </trkpt>
      <trkpt lat="31.105917999520898" lon="-4.308543987572193">
        <ele>783</ele>
        <time>2010-12-31T16:54:17Z</time>
      </trkpt>
      <trkpt lat="31.105826972052455" lon="-4.308549016714096">
        <ele>783.10000000000002</ele>
        <time>2010-12-31T16:54:18Z</time>
      </trkpt>
      <trkpt lat="31.105737034231424" lon="-4.308544993400574">
        <ele>783.10000000000002</ele>
        <time>2010-12-31T16:54:19Z</time>
      </trkpt>
      <trkpt lat="31.105296984314919" lon="-4.30851498618722">
        <ele>783.39999999999998</ele>
        <time>2010-12-31T16:54:24Z</time>
      </trkpt>
      <trkpt lat="31.105132028460503" lon="-4.30855798535049">
        <ele>784.70000000000005</ele>
        <time>2010-12-31T16:54:26Z</time>
      </trkpt>
      <trkpt lat="31.104904962703586" lon="-4.308677008375526">
        <ele>787.29999999999995</ele>
        <time>2010-12-31T16:54:29Z</time>
      </trkpt>
      <trkpt lat="31.103576011955738" lon="-4.309174977242947">
        <ele>793.60000000000002</ele>
        <time>2010-12-31T16:54:48Z</time>
      </trkpt>
      <trkpt lat="31.103443996980786" lon="-4.309263993054628">
        <ele>794.10000000000002</ele>
        <time>2010-12-31T16:54:50Z</time>
      </trkpt>
      <trkpt lat="31.103273006156087" lon="-4.309408999979496">
        <ele>794.5</ele>
        <time>2010-12-31T16:54:53Z</time>
      </trkpt>
      <trkpt lat="31.103140991181135" lon="-4.309467002749443">
        <ele>795.20000000000005</ele>
        <time>2010-12-31T16:54:55Z</time>
      </trkpt>
      <trkpt lat="31.102890037000179" lon="-4.309551995247603">
        <ele>796.89999999999998</ele>
        <time>2010-12-31T16:54:59Z</time>
      </trkpt>
      <trkpt lat="31.102701025083661" lon="-4.309656014665961">
        <ele>797.89999999999998</ele>
        <time>2010-12-31T16:55:02Z</time>
      </trkpt>
      <trkpt lat="31.102263992652297" lon="-4.309860030189157">
        <ele>800.5</ele>
        <time>2010-12-31T16:55:09Z</time>
      </trkpt>
      <trkpt lat="31.101978002116084" lon="-4.310100004076958">
        <ele>803.29999999999995</ele>
        <time>2010-12-31T16:55:14Z</time>
      </trkpt>
      <trkpt lat="31.101847998797894" lon="-4.310120036825538">
        <ele>804.70000000000005</ele>
        <time>2010-12-31T16:55:16Z</time>
      </trkpt>
      <trkpt lat="31.101736016571522" lon="-4.31004099547863">
        <ele>806.39999999999998</ele>
        <time>2010-12-31T16:55:18Z</time>
      </trkpt>
      <trkpt lat="31.101541975513101" lon="-4.309850977733731">
        <ele>808.39999999999998</ele>
        <time>2010-12-31T16:55:22Z</time>
      </trkpt>
      <trkpt lat="31.101440973579884" lon="-4.309808984398842">
        <ele>810.39999999999998</ele>
        <time>2010-12-31T16:55:24Z</time>
      </trkpt>
      <trkpt lat="31.101350029930472" lon="-4.309833962470293">
        <ele>812.29999999999995</ele>
        <time>2010-12-31T16:55:26Z</time>
      </trkpt>
      <trkpt lat="31.101261014118791" lon="-4.309871010482311">
        <ele>814.10000000000002</ele>
        <time>2010-12-31T16:55:28Z</time>
      </trkpt>
      <trkpt lat="31.101161018013954" lon="-4.309861036017537">
        <ele>815.79999999999995</ele>
        <time>2010-12-31T16:55:30Z</time>
      </trkpt>
      <trkpt lat="31.101064039394259" lon="-4.309808984398842">
        <ele>817.70000000000005</ele>
        <time>2010-12-31T16:55:32Z</time>
      </trkpt>
      <trkpt lat="31.100932024419308" lon="-4.309679986909032">
        <ele>819.89999999999998</ele>
        <time>2010-12-31T16:55:35Z</time>
      </trkpt>
      <trkpt lat="31.100629018619657" lon="-4.30933297611773">
        <ele>824.39999999999998</ele>
        <time>2010-12-31T16:55:41Z</time>
      </trkpt>
      <trkpt lat="31.10050798393786" lon="-4.309282014146447">
        <ele>826.5</ele>
        <time>2010-12-31T16:55:43Z</time>
      </trkpt>
      <trkpt lat="31.100425003096461" lon="-4.309330964460969">
        <ele>828.70000000000005</ele>
        <time>2010-12-31T16:55:45Z</time>
      </trkpt>
      <trkpt lat="31.100374963134527" lon="-4.309420986101031">
        <ele>830.10000000000002</ele>
        <time>2010-12-31T16:55:47Z</time>
      </trkpt>
      <trkpt lat="31.100283013656735" lon="-4.309499021619558">
        <ele>830.79999999999995</ele>
        <time>2010-12-31T16:55:49Z</time>
      </trkpt>
      <trkpt lat="31.100150998681784" lon="-4.309572027996182">
        <ele>831.5</ele>
        <time>2010-12-31T16:55:51Z</time>
      </trkpt>
      <trkpt lat="31.100043039768934" lon="-4.309703959152103">
        <ele>833</ele>
        <time>2010-12-31T16:55:53Z</time>
      </trkpt>
      <trkpt lat="31.099973972886801" lon="-4.309858018532395">
        <ele>834.70000000000005</ele>
        <time>2010-12-31T16:55:55Z</time>
      </trkpt>
      <trkpt lat="31.099952012300491" lon="-4.310002019628882">
        <ele>835.89999999999998</ele>
        <time>2010-12-31T16:55:57Z</time>
      </trkpt>
      <trkpt lat="31.099942959845066" lon="-4.310141997411847">
        <ele>836.89999999999998</ele>
        <time>2010-12-31T16:55:59Z</time>
      </trkpt>
      <trkpt lat="31.099895015358925" lon="-4.310267977416515">
        <ele>837.5</ele>
        <time>2010-12-31T16:56:01Z</time>
      </trkpt>
      <trkpt lat="31.09980097040534" lon="-4.310363028198481">
        <ele>838</ele>
        <time>2010-12-31T16:56:03Z</time>
      </trkpt>
      <trkpt lat="31.099586980417371" lon="-4.310455983504653">
        <ele>838.29999999999995</ele>
        <time>2010-12-31T16:56:06Z</time>
      </trkpt>
      <trkpt lat="31.099478015676141" lon="-4.310583975166082">
        <ele>839.39999999999998</ele>
        <time>2010-12-31T16:56:08Z</time>
      </trkpt>
      <trkpt lat="31.09937097877264" lon="-4.310892010107637">
        <ele>842.70000000000005</ele>
        <time>2010-12-31T16:56:12Z</time>
      </trkpt>
      <trkpt lat="31.099310964345932" lon="-4.311021007597446">
        <ele>843.39999999999998</ele>
        <time>2010-12-31T16:56:15Z</time>
      </trkpt>
      <trkpt lat="31.099189007654786" lon="-4.311030982062221">
        <ele>839.89999999999998</ele>
        <time>2010-12-31T16:57:42Z</time>
      </trkpt>
      <trkpt lat="31.099098986014724" lon="-4.311026036739349">
        <ele>839.10000000000002</ele>
        <time>2010-12-31T16:57:45Z</time>
      </trkpt>
      <trkpt lat="31.0988549888134" lon="-4.311089990660548">
        <ele>838.60000000000002</ele>
        <time>2010-12-31T16:57:51Z</time>
      </trkpt>
      <trkpt lat="31.098743006587029" lon="-4.31109300814569">
        <ele>838.10000000000002</ele>
        <time>2010-12-31T16:57:53Z</time>
      </trkpt>
      <trkpt lat="31.098386021330953" lon="-4.311081022024155">
        <ele>836.79999999999995</ele>
        <time>2010-12-31T16:57:59Z</time>
      </trkpt>
      <trkpt lat="31.098225004971027" lon="-4.311109017580748">
        <ele>836.10000000000002</ele>
        <time>2010-12-31T16:58:02Z</time>
      </trkpt>
      <trkpt lat="31.097660986706614" lon="-4.311139024794102">
        <ele>833.39999999999998</ele>
        <time>2010-12-31T16:58:11Z</time>
      </trkpt>
      <trkpt lat="31.097454037517309" lon="-4.311122009530664">
        <ele>832.10000000000002</ele>
        <time>2010-12-31T16:58:14Z</time>
      </trkpt>
      <trkpt lat="31.097119012847543" lon="-4.311182023957372">
        <ele>829.39999999999998</ele>
        <time>2010-12-31T16:58:19Z</time>
      </trkpt>
      <trkpt lat="31.096991021186113" lon="-4.311226028949022">
        <ele>829.20000000000005</ele>
        <time>2010-12-31T16:58:21Z</time>
      </trkpt>
      <trkpt lat="31.096779964864254" lon="-4.311344968155026">
        <ele>828.20000000000005</ele>
        <time>2010-12-31T16:58:25Z</time>
      </trkpt>
      <trkpt lat="31.096357014030218" lon="-4.311585025861859">
        <ele>827</ele>
        <time>2010-12-31T16:58:32Z</time>
      </trkpt>
      <trkpt lat="31.096221981570125" lon="-4.311637999489904">
        <ele>826.60000000000002</ele>
        <time>2010-12-31T16:58:34Z</time>
      </trkpt>
      <trkpt lat="31.096084015443921" lon="-4.311645962297916">
        <ele>826.29999999999995</ele>
        <time>2010-12-31T16:58:36Z</time>
      </trkpt>
      <trkpt lat="31.095792995765805" lon="-4.31162903085351">
        <ele>824.70000000000005</ele>
        <time>2010-12-31T16:58:40Z</time>
      </trkpt>
      <trkpt lat="31.095644971355796" lon="-4.311679992824793">
        <ele>824.29999999999995</ele>
        <time>2010-12-31T16:58:42Z</time>
      </trkpt>
      <trkpt lat="31.0954599827528" lon="-4.311820976436138">
        <ele>824.60000000000002</ele>
        <time>2010-12-31T16:58:45Z</time>
      </trkpt>
      <trkpt lat="31.095191007480025" lon="-4.312080983072519">
        <ele>822.79999999999995</ele>
        <time>2010-12-31T16:58:50Z</time>
      </trkpt>
      <trkpt lat="31.095057986676693" lon="-4.312148038297892">
        <ele>822.10000000000002</ele>
        <time>2010-12-31T16:58:52Z</time>
      </trkpt>
      <trkpt lat="31.094911973923445" lon="-4.312172010540962">
        <ele>821.10000000000002</ele>
        <time>2010-12-31T16:58:54Z</time>
      </trkpt>
      <trkpt lat="31.094683986157179" lon="-4.312175028026104">
        <ele>818.29999999999995</ele>
        <time>2010-12-31T16:58:57Z</time>
      </trkpt>
      <trkpt lat="31.094444012269378" lon="-4.312238981947303">
        <ele>816.89999999999998</ele>
        <time>2010-12-31T16:59:00Z</time>
      </trkpt>
      <trkpt lat="31.094273021444678" lon="-4.312246022745967">
        <ele>816</ele>
        <time>2010-12-31T16:59:02Z</time>
      </trkpt>
      <trkpt lat="31.094034975394607" lon="-4.312215009704232">
        <ele>814.89999999999998</ele>
        <time>2010-12-31T16:59:05Z</time>
      </trkpt>
      <trkpt lat="31.093907989561558" lon="-4.312245016917586">
        <ele>814.10000000000002</ele>
        <time>2010-12-31T16:59:07Z</time>
      </trkpt>
      <trkpt lat="31.093828026205301" lon="-4.312338978052139">
        <ele>813.20000000000005</ele>
        <time>2010-12-31T16:59:09Z</time>
      </trkpt>
      <trkpt lat="31.093383030965924" lon="-4.313616966828704">
        <ele>808.10000000000002</ele>
        <time>2010-12-31T16:59:23Z</time>
      </trkpt>
      <trkpt lat="31.092766039073467" lon="-4.314576024189591">
        <ele>808.60000000000002</ele>
        <time>2010-12-31T16:59:36Z</time>
      </trkpt>
      <trkpt lat="31.092659002169967" lon="-4.314697980880737">
        <ele>808.29999999999995</ele>
        <time>2010-12-31T16:59:38Z</time>
      </trkpt>
      <trkpt lat="31.092320960015059" lon="-4.314943989738822">
        <ele>806.60000000000002</ele>
        <time>2010-12-31T16:59:43Z</time>
      </trkpt>
      <trkpt lat="31.092201014980674" lon="-4.315082039684057">
        <ele>806.5</ele>
        <time>2010-12-31T16:59:45Z</time>
      </trkpt>
      <trkpt lat="31.092026000842452" lon="-4.315467020496726">
        <ele>805.89999999999998</ele>
        <time>2010-12-31T16:59:50Z</time>
      </trkpt>
      <trkpt lat="31.091645965352654" lon="-4.316026009619236">
        <ele>803.70000000000005</ele>
        <time>2010-12-31T16:59:58Z</time>
      </trkpt>
      <trkpt lat="31.091583017259836" lon="-4.316162969917059">
        <ele>803.29999999999995</ele>
        <time>2010-12-31T17:00:00Z</time>
      </trkpt>
      <trkpt lat="31.09150699339807" lon="-4.316372014582157">
        <ele>803.20000000000005</ele>
        <time>2010-12-31T17:00:03Z</time>
      </trkpt>
      <trkpt lat="31.091414960101247" lon="-4.316500006243587">
        <ele>802.60000000000002</ele>
        <time>2010-12-31T17:00:05Z</time>
      </trkpt>
      <trkpt lat="31.091299038380384" lon="-4.316606959328055">
        <ele>802</ele>
        <time>2010-12-31T17:00:07Z</time>
      </trkpt>
      <trkpt lat="31.091029979288578" lon="-4.316825978457928">
        <ele>801.79999999999995</ele>
        <time>2010-12-31T17:00:11Z</time>
      </trkpt>
      <trkpt lat="31.090878015384078" lon="-4.316889010369778">
        <ele>802.20000000000005</ele>
        <time>2010-12-31T17:00:13Z</time>
      </trkpt>
      <trkpt lat="31.090566040948033" lon="-4.316905019804835">
        <ele>802.70000000000005</ele>
        <time>2010-12-31T17:00:17Z</time>
      </trkpt>
      <trkpt lat="31.09019597992301" lon="-4.317011972889304">
        <ele>801.60000000000002</ele>
        <time>2010-12-31T17:00:22Z</time>
      </trkpt>
      <trkpt lat="31.090034963563085" lon="-4.317018007859588">
        <ele>801.20000000000005</ele>
        <time>2010-12-31T17:00:24Z</time>
      </trkpt>
      <trkpt lat="31.089874031022191" lon="-4.317006021738052">
        <ele>801</ele>
        <time>2010-12-31T17:00:26Z</time>
      </trkpt>
      <trkpt lat="31.089321998879313" lon="-4.316896973177791">
        <ele>799.20000000000005</ele>
        <time>2010-12-31T17:00:33Z</time>
      </trkpt>
      <trkpt lat="31.089094011113048" lon="-4.316925974562764">
        <ele>798.29999999999995</ele>
        <time>2010-12-31T17:00:36Z</time>
      </trkpt>
      <trkpt lat="31.08871397562325" lon="-4.317015996202827">
        <ele>798.10000000000002</ele>
        <time>2010-12-31T17:00:41Z</time>
      </trkpt>
      <trkpt lat="31.087729018181562" lon="-4.317380022257567">
        <ele>794.89999999999998</ele>
        <time>2010-12-31T17:00:55Z</time>
      </trkpt>
      <trkpt lat="31.087531959638" lon="-4.317412041127682">
        <ele>794.29999999999995</ele>
        <time>2010-12-31T17:00:58Z</time>
      </trkpt>
      <trkpt lat="31.087414026260376" lon="-4.317411035299301">
        <ele>794.20000000000005</ele>
        <time>2010-12-31T17:01:00Z</time>
      </trkpt>
      <trkpt lat="31.087300032377243" lon="-4.317395025864244">
        <ele>794.10000000000002</ele>
        <time>2010-12-31T17:01:02Z</time>
      </trkpt>
      <trkpt lat="31.087149996310472" lon="-4.317365018650889">
        <ele>794.39999999999998</ele>
        <time>2010-12-31T17:01:05Z</time>
      </trkpt>
      <trkpt lat="31.087050000205636" lon="-4.317383039742708">
        <ele>794.29999999999995</ele>
        <time>2010-12-31T17:01:09Z</time>
      </trkpt>
      <trkpt lat="31.087063997983932" lon="-4.317503990605474">
        <ele>769.39999999999998</ele>
        <time>2010-12-31T17:19:29Z</time>
      </trkpt>
      <trkpt lat="31.087029967457056" lon="-4.317396031692624">
        <ele>787.79999999999995</ele>
        <time>2010-12-31T17:29:48Z</time>
      </trkpt>
      <trkpt lat="31.086838021874428" lon="-4.317418998107314">
        <ele>789.89999999999998</ele>
        <time>2010-12-31T17:33:33Z</time>
      </trkpt>
      <trkpt lat="31.086751017719507" lon="-4.317464008927345">
        <ele>789.60000000000002</ele>
        <time>2010-12-31T17:33:35Z</time>
      </trkpt>
      <trkpt lat="31.085737980902195" lon="-4.318112013861537">
        <ele>783</ele>
        <time>2010-12-31T17:34:02Z</time>
      </trkpt>
      <trkpt lat="31.085656005889177" lon="-4.318176973611116">
        <ele>782.60000000000002</ele>
        <time>2010-12-31T17:34:04Z</time>
      </trkpt>
      <trkpt lat="31.085572019219398" lon="-4.318257020786405">
        <ele>782.20000000000005</ele>
        <time>2010-12-31T17:34:06Z</time>
      </trkpt>
      <trkpt lat="31.085499012842774" lon="-4.318344024941325">
        <ele>781.60000000000002</ele>
        <time>2010-12-31T17:34:08Z</time>
      </trkpt>
      <trkpt lat="31.085398010909557" lon="-4.318488026037812">
        <ele>780.5</ele>
        <time>2010-12-31T17:34:11Z</time>
      </trkpt>
      <trkpt lat="31.08527303673327" lon="-4.318709978833795">
        <ele>778.39999999999998</ele>
        <time>2010-12-31T17:34:15Z</time>
      </trkpt>
      <trkpt lat="31.085183015093207" lon="-4.318921035155654">
        <ele>777.10000000000002</ele>
        <time>2010-12-31T17:34:19Z</time>
      </trkpt>
      <trkpt lat="31.085019987076521" lon="-4.319194033741951">
        <ele>777.20000000000005</ele>
        <time>2010-12-31T17:34:24Z</time>
      </trkpt>
      <trkpt lat="31.084784036502242" lon="-4.319755034521222">
        <ele>780</ele>
        <time>2010-12-31T17:34:33Z</time>
      </trkpt>
      <trkpt lat="31.08467498794198" lon="-4.319915967062116">
        <ele>779.70000000000005</ele>
        <time>2010-12-31T17:34:36Z</time>
      </trkpt>
      <trkpt lat="31.084600975736976" lon="-4.320005988702178">
        <ele>780.5</ele>
        <time>2010-12-31T17:34:38Z</time>
      </trkpt>
      <trkpt lat="31.084519000723958" lon="-4.320073965936899">
        <ele>780.5</ele>
        <time>2010-12-31T17:34:40Z</time>
      </trkpt>
      <trkpt lat="31.084414981305599" lon="-4.320136997848749">
        <ele>779.89999999999998</ele>
        <time>2010-12-31T17:34:42Z</time>
      </trkpt>
      <trkpt lat="31.083330027759075" lon="-4.320700010284782">
        <ele>774.89999999999998</ele>
        <time>2010-12-31T17:34:57Z</time>
      </trkpt>
      <trkpt lat="31.083166999742389" lon="-4.320771005004644">
        <ele>775</ele>
        <time>2010-12-31T17:34:59Z</time>
      </trkpt>
      <trkpt lat="31.083006989210844" lon="-4.320809980854392">
        <ele>775.5</ele>
        <time>2010-12-31T17:35:01Z</time>
      </trkpt>
      <trkpt lat="31.082598036155105" lon="-4.320877036079764">
        <ele>774.29999999999995</ele>
        <time>2010-12-31T17:35:07Z</time>
      </trkpt>
      <trkpt lat="31.08246099203825" lon="-4.320878041908145">
        <ele>774.10000000000002</ele>
        <time>2010-12-31T17:35:09Z</time>
      </trkpt>
      <trkpt lat="31.082164021208882" lon="-4.320820039138198">
        <ele>773.20000000000005</ele>
        <time>2010-12-31T17:35:13Z</time>
      </trkpt>
      <trkpt lat="31.079676020890474" lon="-4.320143032819033">
        <ele>765.39999999999998</ele>
        <time>2010-12-31T17:35:43Z</time>
      </trkpt>
      <trkpt lat="31.079590022563934" lon="-4.320111013948917">
        <ele>765.89999999999998</ele>
        <time>2010-12-31T17:35:44Z</time>
      </trkpt>
      <trkpt lat="31.07668099924922" lon="-4.319230997934938">
        <ele>762.39999999999998</ele>
        <time>2010-12-31T17:36:17Z</time>
      </trkpt>
      <trkpt lat="31.076592989265919" lon="-4.319189004600048">
        <ele>761.89999999999998</ele>
        <time>2010-12-31T17:36:18Z</time>
      </trkpt>
      <trkpt lat="31.076414035633206" lon="-4.319090014323592">
        <ele>761.10000000000002</ele>
        <time>2010-12-31T17:36:20Z</time>
      </trkpt>
      <trkpt lat="31.075235959142447" lon="-4.318424994125962">
        <ele>756.79999999999995</ele>
        <time>2010-12-31T17:36:35Z</time>
      </trkpt>
      <trkpt lat="31.074561970308423" lon="-4.318219972774386">
        <ele>756.89999999999998</ele>
        <time>2010-12-31T17:36:44Z</time>
      </trkpt>
      <trkpt lat="31.072744019329548" lon="-4.317823005840182">
        <ele>752.70000000000005</ele>
        <time>2010-12-31T17:37:04Z</time>
      </trkpt>
      <trkpt lat="31.072655003517866" lon="-4.317748993635178">
        <ele>751.70000000000005</ele>
        <time>2010-12-31T17:37:06Z</time>
      </trkpt>
      <trkpt lat="31.0725980065763" lon="-4.317655032500625">
        <ele>750.70000000000005</ele>
        <time>2010-12-31T17:37:09Z</time>
      </trkpt>
      <trkpt lat="31.07249197550118" lon="-4.317622007802129">
        <ele>750.39999999999998</ele>
        <time>2010-12-31T17:37:12Z</time>
      </trkpt>
      <trkpt lat="31.072253007441759" lon="-4.317686967551708">
        <ele>751.29999999999995</ele>
        <time>2010-12-31T17:37:17Z</time>
      </trkpt>
      <trkpt lat="31.072131972759962" lon="-4.317695014178753">
        <ele>751.60000000000002</ele>
        <time>2010-12-31T17:37:19Z</time>
      </trkpt>
      <trkpt lat="31.072003981098533" lon="-4.317651009187102">
        <ele>752</ele>
        <time>2010-12-31T17:37:21Z</time>
      </trkpt>
      <trkpt lat="31.071432000026107" lon="-4.31723702698946">
        <ele>751</ele>
        <time>2010-12-31T17:37:29Z</time>
      </trkpt>
      <trkpt lat="31.0698919929564" lon="-4.316155007109046">
        <ele>748.39999999999998</ele>
        <time>2010-12-31T17:37:50Z</time>
      </trkpt>
      <trkpt lat="31.069713039323688" lon="-4.316071020439267">
        <ele>747.39999999999998</ele>
        <time>2010-12-31T17:37:54Z</time>
      </trkpt>
      <trkpt lat="31.069569038227201" lon="-4.315916039049625">
        <ele>750.10000000000002</ele>
        <time>2010-12-31T17:38:00Z</time>
      </trkpt>
      <trkpt lat="31.068092985078692" lon="-4.314714996144176">
        <ele>751.89999999999998</ele>
        <time>2010-12-31T17:38:29Z</time>
      </trkpt>
      <trkpt lat="31.068016039207578" lon="-4.314653975889087">
        <ele>752.20000000000005</ele>
        <time>2010-12-31T17:38:34Z</time>
      </trkpt>
      <trkpt lat="31.067815041169524" lon="-4.31448700837791">
        <ele>754.39999999999998</ele>
        <time>2010-12-31T17:38:43Z</time>
      </trkpt>
      <trkpt lat="31.067589987069368" lon="-4.31431501172483">
        <ele>754.70000000000005</ele>
        <time>2010-12-31T17:38:47Z</time>
      </trkpt>
      <trkpt lat="31.067321011796594" lon="-4.314072020351887">
        <ele>755.10000000000002</ele>
        <time>2010-12-31T17:38:51Z</time>
      </trkpt>
      <trkpt lat="31.067210035398602" lon="-4.313958026468754">
        <ele>754.70000000000005</ele>
        <time>2010-12-31T17:38:53Z</time>
      </trkpt>
      <trkpt lat="31.067143986001611" lon="-4.31386599317193">
        <ele>754.60000000000002</ele>
        <time>2010-12-31T17:38:55Z</time>
      </trkpt>
      <trkpt lat="31.067024962976575" lon="-4.313775971531868">
        <ele>754.79999999999995</ele>
        <time>2010-12-31T17:38:58Z</time>
      </trkpt>
      <trkpt lat="31.066693039610982" lon="-4.31365099735558">
        <ele>753.29999999999995</ele>
        <time>2010-12-31T17:39:05Z</time>
      </trkpt>
      <trkpt lat="31.066492963582277" lon="-4.313646974042058">
        <ele>754.20000000000005</ele>
        <time>2010-12-31T17:39:10Z</time>
      </trkpt>
      <trkpt lat="31.066393973305821" lon="-4.313604980707169">
        <ele>754.39999999999998</ele>
        <time>2010-12-31T17:39:12Z</time>
      </trkpt>
      <trkpt lat="31.066333036869764" lon="-4.31350196711719">
        <ele>754.5</ele>
        <time>2010-12-31T17:39:14Z</time>
      </trkpt>
      <trkpt lat="31.06617302633822" lon="-4.313011961057782">
        <ele>754.70000000000005</ele>
        <time>2010-12-31T17:39:20Z</time>
      </trkpt>
      <trkpt lat="31.065668016672134" lon="-4.311632970348001">
        <ele>757</ele>
        <time>2010-12-31T17:39:40Z</time>
      </trkpt>
      <trkpt lat="31.065524015575647" lon="-4.311378998681903">
        <ele>757.29999999999995</ele>
        <time>2010-12-31T17:39:43Z</time>
      </trkpt>
      <trkpt lat="31.065403986722231" lon="-4.311234997585416">
        <ele>757.5</ele>
        <time>2010-12-31T17:39:45Z</time>
      </trkpt>
      <trkpt lat="31.065211035311222" lon="-4.311084039509296">
        <ele>757.89999999999998</ele>
        <time>2010-12-31T17:39:48Z</time>
      </trkpt>
      <trkpt lat="31.064978018403053" lon="-4.310975996777415">
        <ele>758.10000000000002</ele>
        <time>2010-12-31T17:39:52Z</time>
      </trkpt>
      <trkpt lat="31.064903000369668" lon="-4.310916988179088">
        <ele>758.10000000000002</ele>
        <time>2010-12-31T17:39:54Z</time>
      </trkpt>
      <trkpt lat="31.064841980114579" lon="-4.310801988467574">
        <ele>757.89999999999998</ele>
        <time>2010-12-31T17:39:57Z</time>
      </trkpt>
      <trkpt lat="31.064761010929942" lon="-4.310733005404472">
        <ele>758</ele>
        <time>2010-12-31T17:39:59Z</time>
      </trkpt>
      <trkpt lat="31.063233995810151" lon="-4.309742012992501">
        <ele>763</ele>
        <time>2010-12-31T17:40:21Z</time>
      </trkpt>
      <trkpt lat="31.063088988885283" lon="-4.309677975252271">
        <ele>763.60000000000002</ele>
        <time>2010-12-31T17:40:23Z</time>
      </trkpt>
      <trkpt lat="31.062945993617177" lon="-4.309657020494342">
        <ele>763.60000000000002</ele>
        <time>2010-12-31T17:40:25Z</time>
      </trkpt>
      <trkpt lat="31.062804004177451" lon="-4.309668000787497">
        <ele>764.20000000000005</ele>
        <time>2010-12-31T17:40:27Z</time>
      </trkpt>
      <trkpt lat="31.062675006687641" lon="-4.309698008000851">
        <ele>764.39999999999998</ele>
        <time>2010-12-31T17:40:29Z</time>
      </trkpt>
      <trkpt lat="31.062505021691322" lon="-4.309756010770798">
        <ele>764.89999999999998</ele>
        <time>2010-12-31T17:40:32Z</time>
      </trkpt>
      <trkpt lat="31.062294971197844" lon="-4.30984603241086">
        <ele>764.60000000000002</ele>
        <time>2010-12-31T17:40:36Z</time>
      </trkpt>
      <trkpt lat="31.062176031991839" lon="-4.309862041845918">
        <ele>764.5</ele>
        <time>2010-12-31T17:40:38Z</time>
      </trkpt>
      <trkpt lat="31.061979979276657" lon="-4.309853995218873">
        <ele>765.5</ele>
        <time>2010-12-31T17:40:42Z</time>
      </trkpt>
      <trkpt lat="31.061877971515059" lon="-4.309835974127054">
        <ele>765.39999999999998</ele>
        <time>2010-12-31T17:40:44Z</time>
      </trkpt>
      <trkpt lat="31.061014970764518" lon="-4.309477983042598">
        <ele>767.5</ele>
        <time>2010-12-31T17:40:57Z</time>
      </trkpt>
      <trkpt lat="31.060769967734814" lon="-4.309336999431253">
        <ele>767.10000000000002</ele>
        <time>2010-12-31T17:41:01Z</time>
      </trkpt>
      <trkpt lat="31.060635019093752" lon="-4.309302968904376">
        <ele>767.39999999999998</ele>
        <time>2010-12-31T17:41:03Z</time>
      </trkpt>
      <trkpt lat="31.060431003570557" lon="-4.30930900387466">
        <ele>767.5</ele>
        <time>2010-12-31T17:41:06Z</time>
      </trkpt>
      <trkpt lat="31.060294965282083" lon="-4.309284025803208">
        <ele>767.60000000000002</ele>
        <time>2010-12-31T17:41:08Z</time>
      </trkpt>
      <trkpt lat="31.05992297641933" lon="-4.30911404080689">
        <ele>767.5</ele>
        <time>2010-12-31T17:41:14Z</time>
      </trkpt>
      <trkpt lat="31.059551993384957" lon="-4.309033993631601">
        <ele>768.70000000000005</ele>
        <time>2010-12-31T17:41:19Z</time>
      </trkpt>
      <trkpt lat="31.058844979852438" lon="-4.30903097614646">
        <ele>770</ele>
        <time>2010-12-31T17:41:29Z</time>
      </trkpt>
      <trkpt lat="31.05871899984777" lon="-4.308971967548132">
        <ele>770.29999999999995</ele>
        <time>2010-12-31T17:41:31Z</time>
      </trkpt>
      <trkpt lat="31.058608023449779" lon="-4.308851016685367">
        <ele>771</ele>
        <time>2010-12-31T17:41:33Z</time>
      </trkpt>
      <trkpt lat="31.058535017073154" lon="-4.308694023638964">
        <ele>771.79999999999995</ele>
        <time>2010-12-31T17:41:35Z</time>
      </trkpt>
      <trkpt lat="31.058510961011052" lon="-4.3085159920156">
        <ele>772.5</ele>
        <time>2010-12-31T17:41:37Z</time>
      </trkpt>
      <trkpt lat="31.058534011244774" lon="-4.308176022022963">
        <ele>773.79999999999995</ele>
        <time>2010-12-31T17:41:41Z</time>
      </trkpt>
      <trkpt lat="31.058512972667813" lon="-4.308045012876391">
        <ele>774</ele>
        <time>2010-12-31T17:41:43Z</time>
      </trkpt>
      <trkpt lat="31.058207033202052" lon="-4.307454004883766">
        <ele>778.5</ele>
        <time>2010-12-31T17:41:54Z</time>
      </trkpt>
      <trkpt lat="31.057563973590732" lon="-4.306551022455096">
        <ele>780.60000000000002</ele>
        <time>2010-12-31T17:42:09Z</time>
      </trkpt>
      <trkpt lat="31.05747302994132" lon="-4.306381959468126">
        <ele>780.89999999999998</ele>
        <time>2010-12-31T17:42:11Z</time>
      </trkpt>
      <trkpt lat="31.057407986372709" lon="-4.306207029148936">
        <ele>781.29999999999995</ele>
        <time>2010-12-31T17:42:13Z</time>
      </trkpt>
      <trkpt lat="31.057291980832815" lon="-4.305773014202714">
        <ele>780.10000000000002</ele>
        <time>2010-12-31T17:42:18Z</time>
      </trkpt>
      <trkpt lat="31.057208999991417" lon="-4.305519964545965">
        <ele>781.60000000000002</ele>
        <time>2010-12-31T17:42:21Z</time>
      </trkpt>
      <trkpt lat="31.057070028036833" lon="-4.304820997640491">
        <ele>778.60000000000002</ele>
        <time>2010-12-31T17:42:29Z</time>
      </trkpt>
      <trkpt lat="31.056953016668558" lon="-4.304523020982742">
        <ele>779.79999999999995</ele>
        <time>2010-12-31T17:42:33Z</time>
      </trkpt>
      <trkpt lat="31.056856038048863" lon="-4.304378014057875">
        <ele>780.70000000000005</ele>
        <time>2010-12-31T17:42:35Z</time>
      </trkpt>
      <trkpt lat="31.056685969233513" lon="-4.304181961342692">
        <ele>781.10000000000002</ele>
        <time>2010-12-31T17:42:38Z</time>
      </trkpt>
      <trkpt lat="31.056378018110991" lon="-4.303601011633873">
        <ele>781.70000000000005</ele>
        <time>2010-12-31T17:42:45Z</time>
      </trkpt>
      <trkpt lat="31.056107031181455" lon="-4.303093990311027">
        <ele>781.89999999999998</ele>
        <time>2010-12-31T17:42:51Z</time>
      </trkpt>
      <trkpt lat="31.055867979303002" lon="-4.302817974239588">
        <ele>781.60000000000002</ele>
        <time>2010-12-31T17:42:55Z</time>
      </trkpt>
      <trkpt lat="31.055736970156431" lon="-4.302687970921397">
        <ele>781.10000000000002</ele>
        <time>2010-12-31T17:42:57Z</time>
      </trkpt>
      <trkpt lat="31.055188961327076" lon="-4.302217997610569">
        <ele>780.29999999999995</ele>
        <time>2010-12-31T17:43:06Z</time>
      </trkpt>
      <trkpt lat="31.055073961615562" lon="-4.302148008719087">
        <ele>779.5</ele>
        <time>2010-12-31T17:43:08Z</time>
      </trkpt>
      <trkpt lat="31.050150012597442" lon="-4.299603011459112">
        <ele>787.89999999999998</ele>
        <time>2010-12-31T17:44:21Z</time>
      </trkpt>
      <trkpt lat="31.050016991794109" lon="-4.299507960677147">
        <ele>787.29999999999995</ele>
        <time>2010-12-31T17:44:23Z</time>
      </trkpt>
      <trkpt lat="31.049897968769073" lon="-4.299394972622395">
        <ele>787.39999999999998</ele>
        <time>2010-12-31T17:44:25Z</time>
      </trkpt>
      <trkpt lat="31.049731001257896" lon="-4.299192968755961">
        <ele>787.5</ele>
        <time>2010-12-31T17:44:28Z</time>
      </trkpt>
      <trkpt lat="31.048706984147429" lon="-4.297945993021131">
        <ele>787.39999999999998</ele>
        <time>2010-12-31T17:44:45Z</time>
      </trkpt>
      <trkpt lat="31.047873990610242" lon="-4.297176031395793">
        <ele>790.79999999999995</ele>
        <time>2010-12-31T17:44:58Z</time>
      </trkpt>
      <trkpt lat="31.047623958438635" lon="-4.297033036127687">
        <ele>791.10000000000002</ele>
        <time>2010-12-31T17:45:02Z</time>
      </trkpt>
      <trkpt lat="31.047365963459015" lon="-4.296818962320685">
        <ele>790.29999999999995</ele>
        <time>2010-12-31T17:45:06Z</time>
      </trkpt>
      <trkpt lat="31.047258004546165" lon="-4.296704968437553">
        <ele>790.20000000000005</ele>
        <time>2010-12-31T17:45:08Z</time>
      </trkpt>
      <trkpt lat="31.046012034639716" lon="-4.295456986874342">
        <ele>788.20000000000005</ele>
        <time>2010-12-31T17:45:27Z</time>
      </trkpt>
      <trkpt lat="31.045937016606331" lon="-4.295398984104395">
        <ele>787.79999999999995</ele>
        <time>2010-12-31T17:45:28Z</time>
      </trkpt>
      <trkpt lat="31.044781990349293" lon="-4.294229038059712">
        <ele>783.10000000000002</ele>
        <time>2010-12-31T17:45:47Z</time>
      </trkpt>
      <trkpt lat="31.044679982587695" lon="-4.294087970629334">
        <ele>782.70000000000005</ele>
        <time>2010-12-31T17:45:49Z</time>
      </trkpt>
      <trkpt lat="31.044552996754646" lon="-4.293910022825003">
        <ele>782.60000000000002</ele>
        <time>2010-12-31T17:45:52Z</time>
      </trkpt>
      <trkpt lat="31.044477978721261" lon="-4.293770967051387">
        <ele>782.60000000000002</ele>
        <time>2010-12-31T17:45:54Z</time>
      </trkpt>
      <trkpt lat="31.044362979009748" lon="-4.293496962636709">
        <ele>782</ele>
        <time>2010-12-31T17:45:58Z</time>
      </trkpt>
      <trkpt lat="31.044275974854827" lon="-4.293380035087466">
        <ele>781.79999999999995</ele>
        <time>2010-12-31T17:46:00Z</time>
      </trkpt>
      <trkpt lat="31.044166004285216" lon="-4.293301999568939">
        <ele>781</ele>
        <time>2010-12-31T17:46:02Z</time>
      </trkpt>
      <trkpt lat="31.043993001803756" lon="-4.293238967657089">
        <ele>780.60000000000002</ele>
        <time>2010-12-31T17:46:05Z</time>
      </trkpt>
      <trkpt lat="31.043818993493915" lon="-4.293145006522536">
        <ele>780.60000000000002</ele>
        <time>2010-12-31T17:46:08Z</time>
      </trkpt>
      <trkpt lat="31.043686978518963" lon="-4.293029000982642">
        <ele>780.89999999999998</ele>
        <time>2010-12-31T17:46:10Z</time>
      </trkpt>
      <trkpt lat="31.043349020183086" lon="-4.292690036818385">
        <ele>782.29999999999995</ele>
        <time>2010-12-31T17:46:15Z</time>
      </trkpt>
      <trkpt lat="31.043281964957714" lon="-4.292615018785">
        <ele>782.10000000000002</ele>
        <time>2010-12-31T17:46:16Z</time>
      </trkpt>
      <trkpt lat="31.043222034350038" lon="-4.292533965781331">
        <ele>781.89999999999998</ele>
        <time>2010-12-31T17:46:17Z</time>
      </trkpt>
      <trkpt lat="31.043110974133015" lon="-4.292365992441773">
        <ele>781.39999999999998</ele>
        <time>2010-12-31T17:46:19Z</time>
      </trkpt>
      <trkpt lat="31.042780978605151" lon="-4.291860982775688">
        <ele>779</ele>
        <time>2010-12-31T17:46:27Z</time>
      </trkpt>
      <trkpt lat="31.042376970872283" lon="-4.291440965607762">
        <ele>779.60000000000002</ele>
        <time>2010-12-31T17:46:35Z</time>
      </trkpt>
      <trkpt lat="31.041842959821224" lon="-4.290904020890594">
        <ele>784.79999999999995</ele>
        <time>2010-12-31T17:46:45Z</time>
      </trkpt>
      <trkpt lat="31.041755033656955" lon="-4.290790027007461">
        <ele>784.20000000000005</ele>
        <time>2010-12-31T17:46:47Z</time>
      </trkpt>
      <trkpt lat="31.041608015075326" lon="-4.290544018149376">
        <ele>782.29999999999995</ele>
        <time>2010-12-31T17:46:51Z</time>
      </trkpt>
      <trkpt lat="31.041545988991857" lon="-4.290413009002805">
        <ele>781.5</ele>
        <time>2010-12-31T17:46:53Z</time>
      </trkpt>
      <trkpt lat="31.041503995656967" lon="-4.290242018178105">
        <ele>778.89999999999998</ele>
        <time>2010-12-31T17:46:55Z</time>
      </trkpt>
      <trkpt lat="31.041480023413897" lon="-4.290086030960083">
        <ele>779.29999999999995</ele>
        <time>2010-12-31T17:46:57Z</time>
      </trkpt>
      <trkpt lat="31.041427971795201" lon="-4.289958039298654">
        <ele>779.29999999999995</ele>
        <time>2010-12-31T17:46:59Z</time>
      </trkpt>
      <trkpt lat="31.041326969861984" lon="-4.289874974638224">
        <ele>778.70000000000005</ele>
        <time>2010-12-31T17:47:01Z</time>
      </trkpt>
      <trkpt lat="31.04108196683228" lon="-4.289769027382135">
        <ele>776.5</ele>
        <time>2010-12-31T17:47:05Z</time>
      </trkpt>
      <trkpt lat="31.040947018191218" lon="-4.289682023227215">
        <ele>776.20000000000005</ele>
        <time>2010-12-31T17:47:08Z</time>
      </trkpt>
      <trkpt lat="31.040848027914762" lon="-4.289592001587153">
        <ele>776.10000000000002</ele>
        <time>2010-12-31T17:47:10Z</time>
      </trkpt>
      <trkpt lat="31.040775021538138" lon="-4.289442971348763">
        <ele>774.79999999999995</ele>
        <time>2010-12-31T17:47:12Z</time>
      </trkpt>
      <trkpt lat="31.040701009333134" lon="-4.28917701356113">
        <ele>770.70000000000005</ele>
        <time>2010-12-31T17:47:15Z</time>
      </trkpt>
      <trkpt lat="31.040544016286731" lon="-4.288892028853297">
        <ele>769.5</ele>
        <time>2010-12-31T17:47:19Z</time>
      </trkpt>
      <trkpt lat="31.039991984143853" lon="-4.288156013935804">
        <ele>767</ele>
        <time>2010-12-31T17:47:30Z</time>
      </trkpt>
      <trkpt lat="31.039925012737513" lon="-4.287993991747499">
        <ele>766.5</ele>
        <time>2010-12-31T17:47:32Z</time>
      </trkpt>
      <trkpt lat="31.039859969168901" lon="-4.28761001676321">
        <ele>766.20000000000005</ele>
        <time>2010-12-31T17:47:36Z</time>
      </trkpt>
      <trkpt lat="31.0397909861058" lon="-4.287431985139847">
        <ele>766.60000000000002</ele>
        <time>2010-12-31T17:47:38Z</time>
      </trkpt>
      <trkpt lat="31.039452021941543" lon="-4.286736035719514">
        <ele>767.79999999999995</ele>
        <time>2010-12-31T17:47:47Z</time>
      </trkpt>
      <trkpt lat="31.039335010573268" lon="-4.286540988832712">
        <ele>766.70000000000005</ele>
        <time>2010-12-31T17:47:50Z</time>
      </trkpt>
      <trkpt lat="31.039283964782953" lon="-4.286359017714858">
        <ele>764</ele>
        <time>2010-12-31T17:47:52Z</time>
      </trkpt>
      <trkpt lat="31.03916896507144" lon="-4.285787036642432">
        <ele>765.10000000000002</ele>
        <time>2010-12-31T17:47:59Z</time>
      </trkpt>
      <trkpt lat="31.039099982008338" lon="-4.285632977262139">
        <ele>764.29999999999995</ele>
        <time>2010-12-31T17:48:01Z</time>
      </trkpt>
      <trkpt lat="31.038962015882134" lon="-4.285414963960648">
        <ele>763.10000000000002</ele>
        <time>2010-12-31T17:48:04Z</time>
      </trkpt>
      <trkpt lat="31.038615005090833" lon="-4.284948008134961">
        <ele>762.20000000000005</ele>
        <time>2010-12-31T17:48:11Z</time>
      </trkpt>
      <trkpt lat="31.038462035357952" lon="-4.284671992063522">
        <ele>762</ele>
        <time>2010-12-31T17:48:15Z</time>
      </trkpt>
      <trkpt lat="31.037858035415411" lon="-4.28391301073134">
        <ele>759.70000000000005</ele>
        <time>2010-12-31T17:48:27Z</time>
      </trkpt>
      <trkpt lat="31.03772702626884" lon="-4.283803040161729">
        <ele>759.39999999999998</ele>
        <time>2010-12-31T17:48:29Z</time>
      </trkpt>
      <trkpt lat="31.037452016025782" lon="-4.283651998266578">
        <ele>758.60000000000002</ele>
        <time>2010-12-31T17:48:33Z</time>
      </trkpt>
      <trkpt lat="31.037318995222449" lon="-4.283611010760069">
        <ele>758.20000000000005</ele>
        <time>2010-12-31T17:48:35Z</time>
      </trkpt>
      <trkpt lat="31.037178011611104" lon="-4.283625008538365">
        <ele>758.20000000000005</ele>
        <time>2010-12-31T17:48:37Z</time>
      </trkpt>
      <trkpt lat="31.036441996693611" lon="-4.283923991024494">
        <ele>758.79999999999995</ele>
        <time>2010-12-31T17:48:47Z</time>
      </trkpt>
      <trkpt lat="31.035994989797473" lon="-4.284207969903946">
        <ele>757.5</ele>
        <time>2010-12-31T17:48:55Z</time>
      </trkpt>
      <trkpt lat="31.035078009590507" lon="-4.284803001210094">
        <ele>757.20000000000005</ele>
        <time>2010-12-31T17:49:14Z</time>
      </trkpt>
      <trkpt lat="31.034678025171161" lon="-4.284953959286213">
        <ele>757.10000000000002</ele>
        <time>2010-12-31T17:49:21Z</time>
      </trkpt>
      <trkpt lat="31.034209979698062" lon="-4.285260988399386">
        <ele>757</ele>
        <time>2010-12-31T17:49:30Z</time>
      </trkpt>
      <trkpt lat="31.034091962501407" lon="-4.285295018926263">
        <ele>757.10000000000002</ele>
        <time>2010-12-31T17:49:32Z</time>
      </trkpt>
      <trkpt lat="31.033726008608937" lon="-4.285315973684192">
        <ele>757</ele>
        <time>2010-12-31T17:49:38Z</time>
      </trkpt>
      <trkpt lat="31.032474003732204" lon="-4.285588972270489">
        <ele>756.29999999999995</ele>
        <time>2010-12-31T17:49:57Z</time>
      </trkpt>
      <trkpt lat="31.032333020120859" lon="-4.285652004182339">
        <ele>756</ele>
        <time>2010-12-31T17:49:59Z</time>
      </trkpt>
      <trkpt lat="31.032135039567947" lon="-4.285787958651781">
        <ele>755.70000000000005</ele>
        <time>2010-12-31T17:50:02Z</time>
      </trkpt>
      <trkpt lat="31.03199397213757" lon="-4.28584897890687">
        <ele>755.39999999999998</ele>
        <time>2010-12-31T17:50:04Z</time>
      </trkpt>
      <trkpt lat="31.03184200823307" lon="-4.285874962806702">
        <ele>755.39999999999998</ele>
        <time>2010-12-31T17:50:06Z</time>
      </trkpt>
      <trkpt lat="31.031701024621725" lon="-4.28586901165545">
        <ele>756.10000000000002</ele>
        <time>2010-12-31T17:50:08Z</time>
      </trkpt>
      <trkpt lat="31.031428026035428" lon="-4.28578301332891">
        <ele>756.10000000000002</ele>
        <time>2010-12-31T17:50:12Z</time>
      </trkpt>
      <trkpt lat="31.031284024938941" lon="-4.285776978358626">
        <ele>756.20000000000005</ele>
        <time>2010-12-31T17:50:14Z</time>
      </trkpt>
      <trkpt lat="31.031063999980688" lon="-4.285802040249109">
        <ele>755.89999999999998</ele>
        <time>2010-12-31T17:50:17Z</time>
      </trkpt>
      <trkpt lat="31.030910024419427" lon="-4.285778990015388">
        <ele>756.10000000000002</ele>
        <time>2010-12-31T17:50:19Z</time>
      </trkpt>
      <trkpt lat="31.030764011666179" lon="-4.28574001416564">
        <ele>756.39999999999998</ele>
        <time>2010-12-31T17:50:21Z</time>
      </trkpt>
      <trkpt lat="31.030452959239483" lon="-4.285601964220405">
        <ele>755.60000000000002</ele>
        <time>2010-12-31T17:50:26Z</time>
      </trkpt>
      <trkpt lat="31.029035998508334" lon="-4.284872990101576">
        <ele>751.70000000000005</ele>
        <time>2010-12-31T17:50:48Z</time>
      </trkpt>
      <trkpt lat="31.028856039047241" lon="-4.284752039238811">
        <ele>751.5</ele>
        <time>2010-12-31T17:50:51Z</time>
      </trkpt>
      <trkpt lat="31.027640998363495" lon="-4.283795999363065">
        <ele>754.10000000000002</ele>
        <time>2010-12-31T17:51:07Z</time>
      </trkpt>
      <trkpt lat="31.02756698615849" lon="-4.283722992986441">
        <ele>754.5</ele>
        <time>2010-12-31T17:51:08Z</time>
      </trkpt>
      <trkpt lat="31.027499008923769" lon="-4.283649986609817">
        <ele>754.79999999999995</ele>
        <time>2010-12-31T17:51:09Z</time>
      </trkpt>
      <trkpt lat="31.027260040864348" lon="-4.28337698802352">
        <ele>755.79999999999995</ele>
        <time>2010-12-31T17:51:13Z</time>
      </trkpt>
      <trkpt lat="31.026112977415323" lon="-4.282105034217238">
        <ele>747.5</ele>
        <time>2010-12-31T17:51:32Z</time>
      </trkpt>
      <trkpt lat="31.026049023494124" lon="-4.282020041719079">
        <ele>747</ele>
        <time>2010-12-31T17:51:33Z</time>
      </trkpt>
      <trkpt lat="31.025729002431035" lon="-4.281613016501069">
        <ele>745.10000000000002</ele>
        <time>2010-12-31T17:51:38Z</time>
      </trkpt>
      <trkpt lat="31.025121985003352" lon="-4.280889993533492">
        <ele>741.5</ele>
        <time>2010-12-31T17:51:47Z</time>
      </trkpt>
      <trkpt lat="31.025065993890166" lon="-4.28080097772181">
        <ele>741.20000000000005</ele>
        <time>2010-12-31T17:51:48Z</time>
      </trkpt>
      <trkpt lat="31.024955017492175" lon="-4.280623029917479">
        <ele>740.70000000000005</ele>
        <time>2010-12-31T17:51:50Z</time>
      </trkpt>
      <trkpt lat="31.024889973923564" lon="-4.28054197691381">
        <ele>740.39999999999998</ele>
        <time>2010-12-31T17:51:51Z</time>
      </trkpt>
      <trkpt lat="31.02481403388083" lon="-4.280472993850708">
        <ele>740.29999999999995</ele>
        <time>2010-12-31T17:51:52Z</time>
      </trkpt>
      <trkpt lat="31.024732980877161" lon="-4.28041398525238">
        <ele>740.10000000000002</ele>
        <time>2010-12-31T17:51:53Z</time>
      </trkpt>
      <trkpt lat="31.024486972019076" lon="-4.280236959457398">
        <ele>740.79999999999995</ele>
        <time>2010-12-31T17:51:56Z</time>
      </trkpt>
      <trkpt lat="31.024412037804723" lon="-4.280169988051057">
        <ele>740.60000000000002</ele>
        <time>2010-12-31T17:51:57Z</time>
      </trkpt>
      <trkpt lat="31.024341965094209" lon="-4.280096981674433">
        <ele>740.5</ele>
        <time>2010-12-31T17:51:58Z</time>
      </trkpt>
      <trkpt lat="31.024139961227775" lon="-4.279862958937883">
        <ele>740</ele>
        <time>2010-12-31T17:52:01Z</time>
      </trkpt>
      <trkpt lat="31.024019010365009" lon="-4.279701020568609">
        <ele>739.60000000000002</ele>
        <time>2010-12-31T17:52:03Z</time>
      </trkpt>
      <trkpt lat="31.023339992389083" lon="-4.278847994282842">
        <ele>737.20000000000005</ele>
        <time>2010-12-31T17:52:14Z</time>
      </trkpt>
      <trkpt lat="31.023190962150693" lon="-4.278706004843116">
        <ele>736.89999999999998</ele>
        <time>2010-12-31T17:52:16Z</time>
      </trkpt>
      <trkpt lat="31.023029023781419" lon="-4.278574995696545">
        <ele>736.70000000000005</ele>
        <time>2010-12-31T17:52:18Z</time>
      </trkpt>
      <trkpt lat="31.022946964949369" lon="-4.278515987098217">
        <ele>737.20000000000005</ele>
        <time>2010-12-31T17:52:19Z</time>
      </trkpt>
      <trkpt lat="31.022773962467909" lon="-4.278420014306903">
        <ele>737.79999999999995</ele>
        <time>2010-12-31T17:52:21Z</time>
      </trkpt>
      <trkpt lat="31.022429969161749" lon="-4.278267966583371">
        <ele>737.39999999999998</ele>
        <time>2010-12-31T17:52:25Z</time>
      </trkpt>
      <trkpt lat="31.022256966680288" lon="-4.278218010440469">
        <ele>737.29999999999995</ele>
        <time>2010-12-31T17:52:27Z</time>
      </trkpt>
      <trkpt lat="31.022085975855589" lon="-4.27819998934865">
        <ele>737.39999999999998</ele>
        <time>2010-12-31T17:52:29Z</time>
      </trkpt>
      <trkpt lat="31.021265974268317" lon="-4.278150033205748">
        <ele>738.89999999999998</ele>
        <time>2010-12-31T17:52:39Z</time>
      </trkpt>
      <trkpt lat="31.021114010363817" lon="-4.278185991570354">
        <ele>739</ele>
        <time>2010-12-31T17:52:41Z</time>
      </trkpt>
      <trkpt lat="31.019697971642017" lon="-4.278870038688183">
        <ele>737.10000000000002</ele>
        <time>2010-12-31T17:53:02Z</time>
      </trkpt>
      <trkpt lat="31.019584983587265" lon="-4.278961988165975">
        <ele>737.29999999999995</ele>
        <time>2010-12-31T17:53:04Z</time>
      </trkpt>
      <trkpt lat="31.019437965005636" lon="-4.279169021174312">
        <ele>737.70000000000005</ele>
        <time>2010-12-31T17:53:08Z</time>
      </trkpt>
      <trkpt lat="31.019393038004637" lon="-4.279290977865458">
        <ele>737.5</ele>
        <time>2010-12-31T17:53:10Z</time>
      </trkpt>
      <trkpt lat="31.01938197389245" lon="-4.279448976740241">
        <ele>738.20000000000005</ele>
        <time>2010-12-31T17:53:12Z</time>
      </trkpt>
      <trkpt lat="31.019609961658716" lon="-4.28228298202157">
        <ele>751.79999999999995</ele>
        <time>2010-12-31T17:53:46Z</time>
      </trkpt>
      <trkpt lat="31.019579032436013" lon="-4.282578025013208">
        <ele>753.89999999999998</ele>
        <time>2010-12-31T17:53:49Z</time>
      </trkpt>
      <trkpt lat="31.019520023837686" lon="-4.282866027206183">
        <ele>755.5</ele>
        <time>2010-12-31T17:53:52Z</time>
      </trkpt>
      <trkpt lat="31.019405024126172" lon="-4.283275986090303">
        <ele>754.10000000000002</ele>
        <time>2010-12-31T17:53:57Z</time>
      </trkpt>
      <trkpt lat="31.019350960850716" lon="-4.283443037420511">
        <ele>753.60000000000002</ele>
        <time>2010-12-31T17:53:59Z</time>
      </trkpt>
      <trkpt lat="31.018999004736543" lon="-4.284744998440146">
        <ele>745.39999999999998</ele>
        <time>2010-12-31T17:54:15Z</time>
      </trkpt>
      <trkpt lat="31.018931027501822" lon="-4.284873995929956">
        <ele>744.20000000000005</ele>
        <time>2010-12-31T17:54:17Z</time>
      </trkpt>
      <trkpt lat="31.018837988376617" lon="-4.28500902839005">
        <ele>744</ele>
        <time>2010-12-31T17:54:19Z</time>
      </trkpt>
      <trkpt lat="31.018613018095493" lon="-4.285284038633108">
        <ele>743.5</ele>
        <time>2010-12-31T17:54:23Z</time>
      </trkpt>
      <trkpt lat="31.015700977295637" lon="-4.288517022505403">
        <ele>741.89999999999998</ele>
        <time>2010-12-31T17:55:13Z</time>
      </trkpt>
      <trkpt lat="31.015495033934712" lon="-4.288725983351469">
        <ele>741.79999999999995</ele>
        <time>2010-12-31T17:55:17Z</time>
      </trkpt>
      <trkpt lat="31.015432002022862" lon="-4.288852969184518">
        <ele>741.79999999999995</ele>
        <time>2010-12-31T17:55:19Z</time>
      </trkpt>
      <trkpt lat="31.015347009524703" lon="-4.289080034941435">
        <ele>741.29999999999995</ele>
        <time>2010-12-31T17:55:22Z</time>
      </trkpt>
      <trkpt lat="31.015270985662937" lon="-4.289212971925736">
        <ele>741.39999999999998</ele>
        <time>2010-12-31T17:55:24Z</time>
      </trkpt>
      <trkpt lat="31.015134025365114" lon="-4.289403995499015">
        <ele>741.29999999999995</ele>
        <time>2010-12-31T17:55:27Z</time>
      </trkpt>
      <trkpt lat="31.014973009005189" lon="-4.289596024900675">
        <ele>741.29999999999995</ele>
        <time>2010-12-31T17:55:30Z</time>
      </trkpt>
      <trkpt lat="31.01486798375845" lon="-4.289709012955427">
        <ele>741.10000000000002</ele>
        <time>2010-12-31T17:55:32Z</time>
      </trkpt>
      <trkpt lat="31.014465987682343" lon="-4.290067004039884">
        <ele>740.39999999999998</ele>
        <time>2010-12-31T17:55:40Z</time>
      </trkpt>
      <trkpt lat="31.013150028884411" lon="-4.291319008916616">
        <ele>738.20000000000005</ele>
        <time>2010-12-31T17:56:01Z</time>
      </trkpt>
      <trkpt lat="31.012151995673776" lon="-4.292532037943602">
        <ele>731</ele>
        <time>2010-12-31T17:56:19Z</time>
      </trkpt>
      <trkpt lat="31.011123033240438" lon="-4.293695027008653">
        <ele>729.29999999999995</ele>
        <time>2010-12-31T17:56:40Z</time>
      </trkpt>
      <trkpt lat="31.00846303626895" lon="-4.296306995674968">
        <ele>727.70000000000005</ele>
        <time>2010-12-31T17:57:23Z</time>
      </trkpt>
      <trkpt lat="31.007882002741098" lon="-4.296765988692641">
        <ele>727.29999999999995</ele>
        <time>2010-12-31T17:57:33Z</time>
      </trkpt>
      <trkpt lat="31.007647980004549" lon="-4.296898003667593">
        <ele>726.5</ele>
        <time>2010-12-31T17:57:37Z</time>
      </trkpt>
      <trkpt lat="31.006183996796608" lon="-4.297706019133329">
        <ele>722.89999999999998</ele>
        <time>2010-12-31T17:57:59Z</time>
      </trkpt>
      <trkpt lat="31.006077965721488" lon="-4.297794029116631">
        <ele>722.89999999999998</ele>
        <time>2010-12-31T17:58:01Z</time>
      </trkpt>
      <trkpt lat="31.005992973223329" lon="-4.297899976372719">
        <ele>722.70000000000005</ele>
        <time>2010-12-31T17:58:03Z</time>
      </trkpt>
      <trkpt lat="31.005926001816988" lon="-4.298026962205768">
        <ele>722.60000000000002</ele>
        <time>2010-12-31T17:58:05Z</time>
      </trkpt>
      <trkpt lat="31.005659960210323" lon="-4.298900021240115">
        <ele>723.70000000000005</ele>
        <time>2010-12-31T17:58:15Z</time>
      </trkpt>
      <trkpt lat="31.005613021552563" lon="-4.29916899651289">
        <ele>723.89999999999998</ele>
        <time>2010-12-31T17:58:18Z</time>
      </trkpt>
      <trkpt lat="31.005602041259408" lon="-4.299431014806032">
        <ele>724</ele>
        <time>2010-12-31T17:58:21Z</time>
      </trkpt>
      <trkpt lat="31.005626013502479" lon="-4.300080025568605">
        <ele>723.79999999999995</ele>
        <time>2010-12-31T17:58:29Z</time>
      </trkpt>
      <trkpt lat="31.00562903098762" lon="-4.300282029435039">
        <ele>724.20000000000005</ele>
        <time>2010-12-31T17:58:32Z</time>
      </trkpt>
      <trkpt lat="31.00558795966208" lon="-4.300399040803313">
        <ele>723.70000000000005</ele>
        <time>2010-12-31T17:58:34Z</time>
      </trkpt>
      <trkpt lat="31.005509002134204" lon="-4.300494007766247">
        <ele>723.70000000000005</ele>
        <time>2010-12-31T17:58:36Z</time>
      </trkpt>
      <trkpt lat="31.005356032401323" lon="-4.300597021356225">
        <ele>723.5</ele>
        <time>2010-12-31T17:58:39Z</time>
      </trkpt>
      <trkpt lat="31.005271039903164" lon="-4.300686037167907">
        <ele>723.5</ele>
        <time>2010-12-31T17:58:41Z</time>
      </trkpt>
      <trkpt lat="31.005225023254752" lon="-4.300807993859053">
        <ele>723.39999999999998</ele>
        <time>2010-12-31T17:58:43Z</time>
      </trkpt>
      <trkpt lat="31.005233991891146" lon="-4.301550965756178">
        <ele>726.39999999999998</ele>
        <time>2010-12-31T17:58:52Z</time>
      </trkpt>
      <trkpt lat="31.005429038777947" lon="-4.305248977616429">
        <ele>728.70000000000005</ele>
        <time>2010-12-31T17:59:36Z</time>
      </trkpt>
      <trkpt lat="31.005531968548894" lon="-4.305691039189696">
        <ele>728.39999999999998</ele>
        <time>2010-12-31T17:59:42Z</time>
      </trkpt>
      <trkpt lat="31.005572034046054" lon="-4.305817019194365">
        <ele>728.60000000000002</ele>
        <time>2010-12-31T17:59:44Z</time>
      </trkpt>
      <trkpt lat="31.005620984360576" lon="-4.305946016684175">
        <ele>729</ele>
        <time>2010-12-31T17:59:46Z</time>
      </trkpt>
      <trkpt lat="31.00565099157393" lon="-4.306093035265803">
        <ele>729.29999999999995</ele>
        <time>2010-12-31T17:59:48Z</time>
      </trkpt>
      <trkpt lat="31.005644034594297" lon="-4.3062399700284">
        <ele>729.70000000000005</ele>
        <time>2010-12-31T17:59:50Z</time>
      </trkpt>
      <trkpt lat="31.00562903098762" lon="-4.30645396001637">
        <ele>730</ele>
        <time>2010-12-31T17:59:53Z</time>
      </trkpt>
      <trkpt lat="31.005635987967253" lon="-4.30660399608314">
        <ele>729.79999999999995</ele>
        <time>2010-12-31T17:59:55Z</time>
      </trkpt>
      <trkpt lat="31.005645040422678" lon="-4.306939020752907">
        <ele>728.20000000000005</ele>
        <time>2010-12-31T17:59:59Z</time>
      </trkpt>
      <trkpt lat="31.005622996017337" lon="-4.307109005749226">
        <ele>728</ele>
        <time>2010-12-31T18:00:01Z</time>
      </trkpt>
      <trkpt lat="31.00558896549046" lon="-4.307331964373589">
        <ele>727.89999999999998</ele>
        <time>2010-12-31T18:00:04Z</time>
      </trkpt>
      <trkpt lat="31.00558896549046" lon="-4.307482000440359">
        <ele>727.70000000000005</ele>
        <time>2010-12-31T18:00:06Z</time>
      </trkpt>
      <trkpt lat="31.005743024870753" lon="-4.30827702395618">
        <ele>728.5</ele>
        <time>2010-12-31T18:00:16Z</time>
      </trkpt>
      <trkpt lat="31.005841009318829" lon="-4.308489002287388">
        <ele>728.5</ele>
        <time>2010-12-31T18:00:19Z</time>
      </trkpt>
      <trkpt lat="31.005885014310479" lon="-4.308648006990552">
        <ele>728.29999999999995</ele>
        <time>2010-12-31T18:00:21Z</time>
      </trkpt>
      <trkpt lat="31.00590999238193" lon="-4.308814974501729">
        <ele>728</ele>
        <time>2010-12-31T18:00:23Z</time>
      </trkpt>
      <trkpt lat="31.005905969068408" lon="-4.308983031660318">
        <ele>728.39999999999998</ele>
        <time>2010-12-31T18:00:25Z</time>
      </trkpt>
      <trkpt lat="31.005898006260395" lon="-4.309145975857973">
        <ele>729.39999999999998</ele>
        <time>2010-12-31T18:00:27Z</time>
      </trkpt>
      <trkpt lat="31.005943017080426" lon="-4.309284025803208">
        <ele>730</ele>
        <time>2010-12-31T18:00:29Z</time>
      </trkpt>
      <trkpt lat="31.006130017340183" lon="-4.309522993862629">
        <ele>730.70000000000005</ele>
        <time>2010-12-31T18:00:33Z</time>
      </trkpt>
      <trkpt lat="31.006202017888427" lon="-4.309659032151103">
        <ele>731</ele>
        <time>2010-12-31T18:00:35Z</time>
      </trkpt>
      <trkpt lat="31.006388012319803" lon="-4.310225984081626">
        <ele>730.10000000000002</ele>
        <time>2010-12-31T18:00:43Z</time>
      </trkpt>
      <trkpt lat="31.006412990391254" lon="-4.310395969077945">
        <ele>729.89999999999998</ele>
        <time>2010-12-31T18:00:45Z</time>
      </trkpt>
      <trkpt lat="31.006456995382905" lon="-4.310888992622495">
        <ele>728.79999999999995</ele>
        <time>2010-12-31T18:00:51Z</time>
      </trkpt>
      <trkpt lat="31.006501000374556" lon="-4.311052020639181">
        <ele>727.89999999999998</ele>
        <time>2010-12-31T18:00:53Z</time>
      </trkpt>
      <trkpt lat="31.006637960672379" lon="-4.311362989246845">
        <ele>726.60000000000002</ele>
        <time>2010-12-31T18:00:57Z</time>
      </trkpt>
      <trkpt lat="31.007309015840292" lon="-4.314521960914135">
        <ele>728.5</ele>
        <time>2010-12-31T18:01:33Z</time>
      </trkpt>
      <trkpt lat="31.007356038317084" lon="-4.315381022170186">
        <ele>721.5</ele>
        <time>2010-12-31T18:01:42Z</time>
      </trkpt>
      <trkpt lat="31.007345980033278" lon="-4.315560981631279">
        <ele>719.79999999999995</ele>
        <time>2010-12-31T18:01:44Z</time>
      </trkpt>
      <trkpt lat="31.007210025563836" lon="-4.316103039309382">
        <ele>715.5</ele>
        <time>2010-12-31T18:01:50Z</time>
      </trkpt>
      <trkpt lat="31.007084967568517" lon="-4.316477039828897">
        <ele>713.60000000000002</ele>
        <time>2010-12-31T18:01:54Z</time>
      </trkpt>
      <trkpt lat="31.00648901425302" lon="-4.318116037175059">
        <ele>705.60000000000002</ele>
        <time>2010-12-31T18:02:12Z</time>
      </trkpt>
      <trkpt lat="31.006444003432989" lon="-4.318208992481232">
        <ele>704.79999999999995</ele>
        <time>2010-12-31T18:02:13Z</time>
      </trkpt>
      <trkpt lat="31.005860958248377" lon="-4.319331999868155">
        <ele>691.10000000000002</ele>
        <time>2010-12-31T18:02:26Z</time>
      </trkpt>
      <trkpt lat="31.005772026255727" lon="-4.319455968216062">
        <ele>689.70000000000005</ele>
        <time>2010-12-31T18:02:28Z</time>
      </trkpt>
      <trkpt lat="31.005680998787284" lon="-4.319551018998027">
        <ele>689.39999999999998</ele>
        <time>2010-12-31T18:02:30Z</time>
      </trkpt>
      <trkpt lat="31.005573961883783" lon="-4.319635005667806">
        <ele>688.89999999999998</ele>
        <time>2010-12-31T18:02:32Z</time>
      </trkpt>
      <trkpt lat="31.005449993535876" lon="-4.319701977074146">
        <ele>688.60000000000002</ele>
        <time>2010-12-31T18:02:34Z</time>
      </trkpt>
      <trkpt lat="31.005159979686141" lon="-4.31981697678566">
        <ele>687.5</ele>
        <time>2010-12-31T18:02:39Z</time>
      </trkpt>
      <trkpt lat="31.004974991083145" lon="-4.319953015074134">
        <ele>686.20000000000005</ele>
        <time>2010-12-31T18:02:43Z</time>
      </trkpt>
      <trkpt lat="31.004862003028393" lon="-4.31998997926712">
        <ele>686.89999999999998</ele>
        <time>2010-12-31T18:02:45Z</time>
      </trkpt>
      <trkpt lat="31.004740968346596" lon="-4.319999031722546">
        <ele>687.89999999999998</ele>
        <time>2010-12-31T18:02:47Z</time>
      </trkpt>
      <trkpt lat="31.004623034968972" lon="-4.319994002580643">
        <ele>688.70000000000005</ele>
        <time>2010-12-31T18:02:49Z</time>
      </trkpt>
      <trkpt lat="31.004206035286188" lon="-4.31996701285243">
        <ele>691.39999999999998</ele>
        <time>2010-12-31T18:02:56Z</time>
      </trkpt>
      <trkpt lat="31.003885008394718" lon="-4.319996014237404">
        <ele>693.89999999999998</ele>
        <time>2010-12-31T18:03:01Z</time>
      </trkpt>
      <trkpt lat="31.003746958449483" lon="-4.319987967610359">
        <ele>694.70000000000005</ele>
        <time>2010-12-31T18:03:03Z</time>
      </trkpt>
      <trkpt lat="31.003613015636802" lon="-4.319961983710527">
        <ele>695.5</ele>
        <time>2010-12-31T18:03:05Z</time>
      </trkpt>
      <trkpt lat="31.003056960180402" lon="-4.31981798261404">
        <ele>693.70000000000005</ele>
        <time>2010-12-31T18:03:13Z</time>
      </trkpt>
      <trkpt lat="31.002811035141349" lon="-4.31983801536262">
        <ele>693.39999999999998</ele>
        <time>2010-12-31T18:03:16Z</time>
      </trkpt>
      <trkpt lat="31.001566993072629" lon="-4.31994304060936">
        <ele>695.29999999999995</ele>
        <time>2010-12-31T18:03:31Z</time>
      </trkpt>
      <trkpt lat="31.001474037766457" lon="-4.319943962618709">
        <ele>694.89999999999998</ele>
        <time>2010-12-31T18:03:32Z</time>
      </trkpt>
      <trkpt lat="31.001380998641253" lon="-4.319939017295837">
        <ele>694.60000000000002</ele>
        <time>2010-12-31T18:03:33Z</time>
      </trkpt>
      <trkpt lat="31.000741962343454" lon="-4.31986098177731">
        <ele>691.60000000000002</ele>
        <time>2010-12-31T18:03:40Z</time>
      </trkpt>
      <trkpt lat="31.000385982915759" lon="-4.319768026471138">
        <ele>690</ele>
        <time>2010-12-31T18:03:44Z</time>
      </trkpt>
      <trkpt lat="31.000117007642984" lon="-4.319670964032412">
        <ele>688.20000000000005</ele>
        <time>2010-12-31T18:03:47Z</time>
      </trkpt>
      <trkpt lat="31.000026986002922" lon="-4.319635005667806">
        <ele>687.5</ele>
        <time>2010-12-31T18:03:48Z</time>
      </trkpt>
      <trkpt lat="30.997152999043465" lon="-4.318494983017445">
        <ele>663.70000000000005</ele>
        <time>2010-12-31T18:04:22Z</time>
      </trkpt>
      <trkpt lat="30.997018972411752" lon="-4.318421976640821">
        <ele>663.5</ele>
        <time>2010-12-31T18:04:24Z</time>
      </trkpt>
      <trkpt lat="30.994217991828918" lon="-4.316666973754764">
        <ele>662.29999999999995</ele>
        <time>2010-12-31T18:05:00Z</time>
      </trkpt>
      <trkpt lat="30.994087988510728" lon="-4.316563960164785">
        <ele>662.60000000000002</ele>
        <time>2010-12-31T18:05:02Z</time>
      </trkpt>
      <trkpt lat="30.993925966322422" lon="-4.316354999318719">
        <ele>662.29999999999995</ele>
        <time>2010-12-31T18:05:05Z</time>
      </trkpt>
      <trkpt lat="30.992884011939168" lon="-4.314805017784238">
        <ele>654.89999999999998</ele>
        <time>2010-12-31T18:05:25Z</time>
      </trkpt>
      <trkpt lat="30.992831960320473" lon="-4.314718013629317">
        <ele>654.70000000000005</ele>
        <time>2010-12-31T18:05:26Z</time>
      </trkpt>
      <trkpt lat="30.992320999503136" lon="-4.313813019543886">
        <ele>655.10000000000002</ele>
        <time>2010-12-31T18:05:39Z</time>
      </trkpt>
      <trkpt lat="30.992251010611653" lon="-4.313666000962257">
        <ele>655.79999999999995</ele>
        <time>2010-12-31T18:05:41Z</time>
      </trkpt>
      <trkpt lat="30.992133999243379" lon="-4.313388979062438">
        <ele>658.39999999999998</ele>
        <time>2010-12-31T18:05:45Z</time>
      </trkpt>
      <trkpt lat="30.991714987903833" lon="-4.312768969684839">
        <ele>658.79999999999995</ele>
        <time>2010-12-31T18:05:54Z</time>
      </trkpt>
      <trkpt lat="30.991245014593005" lon="-4.312174022197723">
        <ele>659.29999999999995</ele>
        <time>2010-12-31T18:06:02Z</time>
      </trkpt>
      <trkpt lat="30.991107970476151" lon="-4.312052987515926">
        <ele>660</ele>
        <time>2010-12-31T18:06:04Z</time>
      </trkpt>
      <trkpt lat="30.990895992144942" lon="-4.311926001682878">
        <ele>661.39999999999998</ele>
        <time>2010-12-31T18:06:07Z</time>
      </trkpt>
      <trkpt lat="30.990802031010389" lon="-4.31182399392128">
        <ele>660.89999999999998</ele>
        <time>2010-12-31T18:06:09Z</time>
      </trkpt>
      <trkpt lat="30.990520985797048" lon="-4.311306998133659">
        <ele>663.5</ele>
        <time>2010-12-31T18:06:16Z</time>
      </trkpt>
      <trkpt lat="30.990411015227437" lon="-4.311170037835836">
        <ele>663.5</ele>
        <time>2010-12-31T18:06:18Z</time>
      </trkpt>
      <trkpt lat="30.989586990326643" lon="-4.309936976060271">
        <ele>665.79999999999995</ele>
        <time>2010-12-31T18:06:36Z</time>
      </trkpt>
      <trkpt lat="30.989508032798767" lon="-4.309813007712364">
        <ele>669.29999999999995</ele>
        <time>2010-12-31T18:06:38Z</time>
      </trkpt>
      <trkpt lat="30.989109976217151" lon="-4.309254018589854">
        <ele>687</ele>
        <time>2010-12-31T18:06:49Z</time>
      </trkpt>
      <trkpt lat="30.988583005964756" lon="-4.3087940197438">
        <ele>701.39999999999998</ele>
        <time>2010-12-31T18:06:57Z</time>
      </trkpt>
      <trkpt lat="30.987084992229939" lon="-4.306853022426367">
        <ele>724.60000000000002</ele>
        <time>2010-12-31T18:07:25Z</time>
      </trkpt>
      <trkpt lat="30.986979966983199" lon="-4.306769035756588">
        <ele>725.20000000000005</ele>
        <time>2010-12-31T18:07:28Z</time>
      </trkpt>
      <trkpt lat="30.986912995576859" lon="-4.306683037430048">
        <ele>728.5</ele>
        <time>2010-12-31T18:07:31Z</time>
      </trkpt>
      <trkpt lat="30.986823979765177" lon="-4.306522021070123">
        <ele>732.79999999999995</ele>
        <time>2010-12-31T18:07:36Z</time>
      </trkpt>
      <trkpt lat="30.986632034182549" lon="-4.306294033303857">
        <ele>733.70000000000005</ele>
        <time>2010-12-31T18:07:41Z</time>
      </trkpt>
      <trkpt lat="30.986547963693738" lon="-4.306219015270472">
        <ele>733.89999999999998</ele>
        <time>2010-12-31T18:07:43Z</time>
      </trkpt>
      <trkpt lat="30.986362975090742" lon="-4.306079959496856">
        <ele>734.20000000000005</ele>
        <time>2010-12-31T18:07:47Z</time>
      </trkpt>
      <trkpt lat="30.986277982592583" lon="-4.305982980877161">
        <ele>734.20000000000005</ele>
        <time>2010-12-31T18:07:49Z</time>
      </trkpt>
      <trkpt lat="30.986214028671384" lon="-4.30587200447917">
        <ele>734.39999999999998</ele>
        <time>2010-12-31T18:07:51Z</time>
      </trkpt>
      <trkpt lat="30.986124007031322" lon="-4.305695984512568">
        <ele>736.39999999999998</ele>
        <time>2010-12-31T18:07:54Z</time>
      </trkpt>
      <trkpt lat="30.984862027689815" lon="-4.304100992158055">
        <ele>742.39999999999998</ele>
        <time>2010-12-31T18:08:24Z</time>
      </trkpt>
      <trkpt lat="30.984763037413359" lon="-4.303999990224838">
        <ele>742.10000000000002</ele>
        <time>2010-12-31T18:08:27Z</time>
      </trkpt>
      <trkpt lat="30.984032973647118" lon="-4.302909001708031">
        <ele>756.79999999999995</ele>
        <time>2010-12-31T18:08:48Z</time>
      </trkpt>
      <trkpt lat="30.983664002269506" lon="-4.302490996196866">
        <ele>760.29999999999995</ele>
        <time>2010-12-31T18:08:56Z</time>
      </trkpt>
      <trkpt lat="30.983323026448488" lon="-4.302167035639286">
        <ele>762.89999999999998</ele>
        <time>2010-12-31T18:09:03Z</time>
      </trkpt>
      <trkpt lat="30.98272698931396" lon="-4.301662025973201">
        <ele>766.39999999999998</ele>
        <time>2010-12-31T18:09:13Z</time>
      </trkpt>
      <trkpt lat="30.981945041567087" lon="-4.301108988001943">
        <ele>786.79999999999995</ele>
        <time>2010-12-31T18:09:26Z</time>
      </trkpt>
      <trkpt lat="30.981811014935374" lon="-4.301034975796938">
        <ele>788.79999999999995</ele>
        <time>2010-12-31T18:09:28Z</time>
      </trkpt>
      <trkpt lat="30.981554025784135" lon="-4.300903966650367">
        <ele>790.79999999999995</ele>
        <time>2010-12-31T18:09:32Z</time>
      </trkpt>
      <trkpt lat="30.981245990842581" lon="-4.300677990540862">
        <ele>794.5</ele>
        <time>2010-12-31T18:09:37Z</time>
      </trkpt>
      <trkpt lat="30.981149012222886" lon="-4.30054203607142">
        <ele>794.79999999999995</ele>
        <time>2010-12-31T18:09:39Z</time>
      </trkpt>
      <trkpt lat="30.981065025553107" lon="-4.300400968641043">
        <ele>795.89999999999998</ele>
        <time>2010-12-31T18:09:41Z</time>
      </trkpt>
      <trkpt lat="30.980960000306368" lon="-4.300289992243052">
        <ele>796.60000000000002</ele>
        <time>2010-12-31T18:09:43Z</time>
      </trkpt>
      <trkpt lat="30.980781968683004" lon="-4.300126964226365">
        <ele>798.20000000000005</ele>
        <time>2010-12-31T18:09:47Z</time>
      </trkpt>
      <trkpt lat="30.98070602864027" lon="-4.30002897977829">
        <ele>798.29999999999995</ele>
        <time>2010-12-31T18:09:49Z</time>
      </trkpt>
      <trkpt lat="30.98061902448535" lon="-4.299944993108511">
        <ele>799.10000000000002</ele>
        <time>2010-12-31T18:09:51Z</time>
      </trkpt>
      <trkpt lat="30.980387013405561" lon="-4.299795962870121">
        <ele>797.60000000000002</ele>
        <time>2010-12-31T18:09:56Z</time>
      </trkpt>
      <trkpt lat="30.980291962623596" lon="-4.29974902421236">
        <ele>797.29999999999995</ele>
        <time>2010-12-31T18:09:59Z</time>
      </trkpt>
      <trkpt lat="30.980195989832282" lon="-4.299656990915537">
        <ele>797.89999999999998</ele>
        <time>2010-12-31T18:10:02Z</time>
      </trkpt>
      <trkpt lat="30.9801069740206" lon="-4.299587002024055">
        <ele>799.20000000000005</ele>
        <time>2010-12-31T18:10:04Z</time>
      </trkpt>
      <trkpt lat="30.9792469907552" lon="-4.299051985144615">
        <ele>801.10000000000002</ele>
        <time>2010-12-31T18:10:20Z</time>
      </trkpt>
      <trkpt lat="30.97907499410212" lon="-4.29897403344512">
        <ele>799.89999999999998</ele>
        <time>2010-12-31T18:10:23Z</time>
      </trkpt>
      <trkpt lat="30.978850023820996" lon="-4.298788961023092">
        <ele>801.60000000000002</ele>
        <time>2010-12-31T18:10:27Z</time>
      </trkpt>
      <trkpt lat="30.978749021887779" lon="-4.298681002110243">
        <ele>802.70000000000005</ele>
        <time>2010-12-31T18:10:29Z</time>
      </trkpt>
      <trkpt lat="30.978665035218" lon="-4.298553010448813">
        <ele>804.60000000000002</ele>
        <time>2010-12-31T18:10:31Z</time>
      </trkpt>
      <trkpt lat="30.978505024686456" lon="-4.298209017142654">
        <ele>807.29999999999995</ele>
        <time>2010-12-31T18:10:36Z</time>
      </trkpt>
      <trkpt lat="30.978378960862756" lon="-4.298044983297586">
        <ele>806.29999999999995</ele>
        <time>2010-12-31T18:10:39Z</time>
      </trkpt>
      <trkpt lat="30.978286005556583" lon="-4.297942975535989">
        <ele>803.79999999999995</ele>
        <time>2010-12-31T18:10:41Z</time>
      </trkpt>
      <trkpt lat="30.978034967556596" lon="-4.29762102663517">
        <ele>796.20000000000005</ele>
        <time>2010-12-31T18:10:47Z</time>
      </trkpt>
      <trkpt lat="30.977820977568626" lon="-4.297407036647201">
        <ele>791.79999999999995</ele>
        <time>2010-12-31T18:10:51Z</time>
      </trkpt>
      <trkpt lat="30.977691980078816" lon="-4.297309974208474">
        <ele>789.89999999999998</ele>
        <time>2010-12-31T18:10:53Z</time>
      </trkpt>
      <trkpt lat="30.977558959275484" lon="-4.297251971438527">
        <ele>791.20000000000005</ele>
        <time>2010-12-31T18:10:55Z</time>
      </trkpt>
      <trkpt lat="30.976297985762358" lon="-4.296823991462588">
        <ele>788.29999999999995</ele>
        <time>2010-12-31T18:11:12Z</time>
      </trkpt>
      <trkpt lat="30.976178962737322" lon="-4.296744028106332">
        <ele>790.79999999999995</ele>
        <time>2010-12-31T18:11:14Z</time>
      </trkpt>
      <trkpt lat="30.976074021309614" lon="-4.296647971495986">
        <ele>792.79999999999995</ele>
        <time>2010-12-31T18:11:16Z</time>
      </trkpt>
      <trkpt lat="30.975941000506282" lon="-4.296467006206513">
        <ele>794.70000000000005</ele>
        <time>2010-12-31T18:11:19Z</time>
      </trkpt>
      <trkpt lat="30.975841004401445" lon="-4.296373967081308">
        <ele>794.10000000000002</ele>
        <time>2010-12-31T18:11:21Z</time>
      </trkpt>
      <trkpt lat="30.974887982010841" lon="-4.295630995184183">
        <ele>809.70000000000005</ele>
        <time>2010-12-31T18:11:39Z</time>
      </trkpt>
      <trkpt lat="30.974496966227889" lon="-4.295242996886373">
        <ele>816.5</ele>
        <time>2010-12-31T18:11:47Z</time>
      </trkpt>
      <trkpt lat="30.974403005093336" lon="-4.295126991346479">
        <ele>815.60000000000002</ele>
        <time>2010-12-31T18:11:49Z</time>
      </trkpt>
      <trkpt lat="30.974090024828911" lon="-4.294730024412274">
        <ele>806.60000000000002</ele>
        <time>2010-12-31T18:11:55Z</time>
      </trkpt>
      <trkpt lat="30.973975025117397" lon="-4.294634973630309">
        <ele>805.39999999999998</ele>
        <time>2010-12-31T18:11:57Z</time>
      </trkpt>
      <trkpt lat="30.9731459710747" lon="-4.294207999482751">
        <ele>804</ele>
        <time>2010-12-31T18:12:09Z</time>
      </trkpt>
      <trkpt lat="30.97301596775651" lon="-4.294102974236012">
        <ele>803.5</ele>
        <time>2010-12-31T18:12:11Z</time>
      </trkpt>
      <trkpt lat="30.972904991358519" lon="-4.293970037251711">
        <ele>802.5</ele>
        <time>2010-12-31T18:12:13Z</time>
      </trkpt>
      <trkpt lat="30.972599973902106" lon="-4.293549014255405">
        <ele>801</ele>
        <time>2010-12-31T18:12:19Z</time>
      </trkpt>
      <trkpt lat="30.972361005842686" lon="-4.29332597181201">
        <ele>805.60000000000002</ele>
        <time>2010-12-31T18:12:23Z</time>
      </trkpt>
      <trkpt lat="30.972251035273075" lon="-4.293191023170948">
        <ele>804.70000000000005</ele>
        <time>2010-12-31T18:12:25Z</time>
      </trkpt>
      <trkpt lat="30.971859013661742" lon="-4.292576964944601">
        <ele>799.10000000000002</ele>
        <time>2010-12-31T18:12:33Z</time>
      </trkpt>
      <trkpt lat="30.971728004515171" lon="-4.292455008253455">
        <ele>797.79999999999995</ele>
        <time>2010-12-31T18:12:35Z</time>
      </trkpt>
      <trkpt lat="30.971585009247065" lon="-4.292360963299871">
        <ele>799.39999999999998</ele>
        <time>2010-12-31T18:12:37Z</time>
      </trkpt>
      <trkpt lat="30.971432039514184" lon="-4.292306983843446">
        <ele>801.60000000000002</ele>
        <time>2010-12-31T18:12:39Z</time>
      </trkpt>
      <trkpt lat="30.971284015104175" lon="-4.292298015207052">
        <ele>802</ele>
        <time>2010-12-31T18:12:41Z</time>
      </trkpt>
      <trkpt lat="30.971159040927887" lon="-4.292354006320238">
        <ele>801.79999999999995</ele>
        <time>2010-12-31T18:12:43Z</time>
      </trkpt>
      <trkpt lat="30.971046974882483" lon="-4.292436987161636">
        <ele>801.39999999999998</ele>
        <time>2010-12-31T18:12:45Z</time>
      </trkpt>
      <trkpt lat="30.970932980999351" lon="-4.292446039617062">
        <ele>800.89999999999998</ele>
        <time>2010-12-31T18:12:47Z</time>
      </trkpt>
      <trkpt lat="30.970832984894514" lon="-4.292388958856463">
        <ele>802.5</ele>
        <time>2010-12-31T18:12:49Z</time>
      </trkpt>
      <trkpt lat="30.970742041245103" lon="-4.292264990508556">
        <ele>801.70000000000005</ele>
        <time>2010-12-31T18:12:51Z</time>
      </trkpt>
      <trkpt lat="30.970650007948279" lon="-4.292103974148631">
        <ele>802.10000000000002</ele>
        <time>2010-12-31T18:12:53Z</time>
      </trkpt>
      <trkpt lat="30.970484968274832" lon="-4.291678005829454">
        <ele>804.89999999999998</ele>
        <time>2010-12-31T18:12:58Z</time>
      </trkpt>
      <trkpt lat="30.97007199190557" lon="-4.290946014225483">
        <ele>805.20000000000005</ele>
        <time>2010-12-31T18:13:08Z</time>
      </trkpt>
      <trkpt lat="30.96996596083045" lon="-4.290853980928659">
        <ele>804.39999999999998</ele>
        <time>2010-12-31T18:13:10Z</time>
      </trkpt>
      <trkpt lat="30.968564003705978" lon="-4.289843961596489">
        <ele>799.70000000000005</ele>
        <time>2010-12-31T18:13:31Z</time>
      </trkpt>
      <trkpt lat="30.968154966831207" lon="-4.289426039904356">
        <ele>797.70000000000005</ele>
        <time>2010-12-31T18:13:38Z</time>
      </trkpt>
      <trkpt lat="30.967683987691998" lon="-4.289148012176156">
        <ele>796.39999999999998</ele>
        <time>2010-12-31T18:13:46Z</time>
      </trkpt>
      <trkpt lat="30.967207979410887" lon="-4.288980960845947">
        <ele>801.5</ele>
        <time>2010-12-31T18:13:53Z</time>
      </trkpt>
      <trkpt lat="30.966965993866324" lon="-4.288839977234602">
        <ele>804.79999999999995</ele>
        <time>2010-12-31T18:13:56Z</time>
      </trkpt>
      <trkpt lat="30.966822998598218" lon="-4.288740986958146">
        <ele>805.79999999999995</ele>
        <time>2010-12-31T18:13:58Z</time>
      </trkpt>
      <trkpt lat="30.96669701859355" lon="-4.288623975589871">
        <ele>805.39999999999998</ele>
        <time>2010-12-31T18:14:00Z</time>
      </trkpt>
      <trkpt lat="30.965895038098097" lon="-4.287599036470056">
        <ele>804.39999999999998</ele>
        <time>2010-12-31T18:14:14Z</time>
      </trkpt>
      <trkpt lat="30.965761011466384" lon="-4.287505997344852">
        <ele>804.79999999999995</ele>
        <time>2010-12-31T18:14:16Z</time>
      </trkpt>
      <trkpt lat="30.965628996491432" lon="-4.287476995959878">
        <ele>805.5</ele>
        <time>2010-12-31T18:14:18Z</time>
      </trkpt>
      <trkpt lat="30.965518020093441" lon="-4.28752401843667">
        <ele>805</ele>
        <time>2010-12-31T18:14:20Z</time>
      </trkpt>
      <trkpt lat="30.96541098318994" lon="-4.287628959864378">
        <ele>804.60000000000002</ele>
        <time>2010-12-31T18:14:22Z</time>
      </trkpt>
      <trkpt lat="30.96530201844871" lon="-4.287776984274387">
        <ele>804.10000000000002</ele>
        <time>2010-12-31T18:14:24Z</time>
      </trkpt>
      <trkpt lat="30.965213002637029" lon="-4.287957027554512">
        <ele>804.10000000000002</ele>
        <time>2010-12-31T18:14:26Z</time>
      </trkpt>
      <trkpt lat="30.964802037924528" lon="-4.289432996883988">
        <ele>803.70000000000005</ele>
        <time>2010-12-31T18:14:41Z</time>
      </trkpt>
      <trkpt lat="30.964710004627705" lon="-4.289611028507352">
        <ele>802.79999999999995</ele>
        <time>2010-12-31T18:14:43Z</time>
      </trkpt>
      <trkpt lat="30.964542031288147" lon="-4.289835998788476">
        <ele>801.70000000000005</ele>
        <time>2010-12-31T18:14:46Z</time>
      </trkpt>
      <trkpt lat="30.964428959414363" lon="-4.289944041520357">
        <ele>802</ele>
        <time>2010-12-31T18:14:48Z</time>
      </trkpt>
      <trkpt lat="30.964287975803018" lon="-4.289987040683627">
        <ele>801.70000000000005</ele>
        <time>2010-12-31T18:14:50Z</time>
      </trkpt>
      <trkpt lat="30.964128971099854" lon="-4.289985029026866">
        <ele>802.89999999999998</ele>
        <time>2010-12-31T18:14:52Z</time>
      </trkpt>
      <trkpt lat="30.963960997760296" lon="-4.289956027641892">
        <ele>801.79999999999995</ele>
        <time>2010-12-31T18:14:54Z</time>
      </trkpt>
      <trkpt lat="30.963135967031121" lon="-4.289708007127047">
        <ele>796.29999999999995</ele>
        <time>2010-12-31T18:15:06Z</time>
      </trkpt>
      <trkpt lat="30.962281012907624" lon="-4.289755029603839">
        <ele>789.20000000000005</ele>
        <time>2010-12-31T18:15:18Z</time>
      </trkpt>
      <trkpt lat="30.962153021246195" lon="-4.289720999076963">
        <ele>788.39999999999998</ele>
        <time>2010-12-31T18:15:20Z</time>
      </trkpt>
      <trkpt lat="30.962022012099624" lon="-4.289671964943409">
        <ele>790.79999999999995</ele>
        <time>2010-12-31T18:15:22Z</time>
      </trkpt>
      <trkpt lat="30.960604967549443" lon="-4.289124961942434">
        <ele>796.39999999999998</ele>
        <time>2010-12-31T18:15:42Z</time>
      </trkpt>
      <trkpt lat="30.959772979840636" lon="-4.288993030786514">
        <ele>797.29999999999995</ele>
        <time>2010-12-31T18:15:56Z</time>
      </trkpt>
      <trkpt lat="30.959648005664349" lon="-4.288937961682677">
        <ele>797.60000000000002</ele>
        <time>2010-12-31T18:15:58Z</time>
      </trkpt>
      <trkpt lat="30.958969993516803" lon="-4.28827797062695">
        <ele>791.89999999999998</ele>
        <time>2010-12-31T18:16:10Z</time>
      </trkpt>
      <trkpt lat="30.958819035440683" lon="-4.288207981735468">
        <ele>793</ele>
        <time>2010-12-31T18:16:12Z</time>
      </trkpt>
      <trkpt lat="30.957409031689167" lon="-4.287965996190906">
        <ele>790.79999999999995</ele>
        <time>2010-12-31T18:16:31Z</time>
      </trkpt>
      <trkpt lat="30.957163022831082" lon="-4.287956021726131">
        <ele>790.70000000000005</ele>
        <time>2010-12-31T18:16:34Z</time>
      </trkpt>
      <trkpt lat="30.955683030188084" lon="-4.288002960383892">
        <ele>789.89999999999998</ele>
        <time>2010-12-31T18:16:52Z</time>
      </trkpt>
      <trkpt lat="30.955194029957056" lon="-4.288069009780884">
        <ele>789.10000000000002</ele>
        <time>2010-12-31T18:16:58Z</time>
      </trkpt>
      <trkpt lat="30.955039970576763" lon="-4.288069009780884">
        <ele>789.10000000000002</ele>
        <time>2010-12-31T18:17:00Z</time>
      </trkpt>
      <trkpt lat="30.953838005661964" lon="-4.287853008136153">
        <ele>791</ele>
        <time>2010-12-31T18:17:19Z</time>
      </trkpt>
      <trkpt lat="30.953325033187866" lon="-4.287719987332821">
        <ele>790.70000000000005</ele>
        <time>2010-12-31T18:17:27Z</time>
      </trkpt>
      <trkpt lat="30.952851958572865" lon="-4.287539022043347">
        <ele>795.70000000000005</ele>
        <time>2010-12-31T18:17:34Z</time>
      </trkpt>
      <trkpt lat="30.952577032148838" lon="-4.287384040653706">
        <ele>797.10000000000002</ele>
        <time>2010-12-31T18:17:40Z</time>
      </trkpt>
      <trkpt lat="30.952693959698081" lon="-4.287326959893107">
        <ele>788.10000000000002</ele>
        <time>2010-12-31T18:18:12Z</time>
      </trkpt>
      <trkpt lat="30.952791022136807" lon="-4.287470038980246">
        <ele>787.79999999999995</ele>
        <time>2010-12-31T18:18:18Z</time>
      </trkpt>
      <trkpt lat="30.952885989099741" lon="-4.287528963759542">
        <ele>788.60000000000002</ele>
        <time>2010-12-31T18:18:22Z</time>
      </trkpt>
      <trkpt lat="30.953039964661002" lon="-4.287582021206617">
        <ele>788</ele>
        <time>2010-12-31T18:18:26Z</time>
      </trkpt>
      <trkpt lat="30.953473979607224" lon="-4.287759969010949">
        <ele>786.89999999999998</ele>
        <time>2010-12-31T18:18:36Z</time>
      </trkpt>
      <trkpt lat="30.953622004017234" lon="-4.287799028679729">
        <ele>786.39999999999998</ele>
        <time>2010-12-31T18:18:39Z</time>
      </trkpt>
      <trkpt lat="30.954876020550728" lon="-4.28806004114449">
        <ele>799</ele>
        <time>2010-12-31T18:19:06Z</time>
      </trkpt>
      <trkpt lat="30.954797985032201" lon="-4.288220973685384">
        <ele>790.5</ele>
        <time>2010-12-31T18:19:25Z</time>
      </trkpt>
      <trkpt lat="30.954593969509006" lon="-4.288284005597234">
        <ele>784.89999999999998</ele>
        <time>2010-12-31T18:19:36Z</time>
      </trkpt>
      <trkpt lat="30.954442005604506" lon="-4.288247963413596">
        <ele>781.79999999999995</ele>
        <time>2010-12-31T18:19:44Z</time>
      </trkpt>
      <trkpt lat="30.953996004536748" lon="-4.288187026977539">
        <ele>777.60000000000002</ele>
        <time>2010-12-31T18:19:57Z</time>
      </trkpt>
      <trkpt lat="30.953706996515393" lon="-4.288241006433964">
        <ele>776.20000000000005</ele>
        <time>2010-12-31T18:20:03Z</time>
      </trkpt>
      <trkpt lat="30.953616974875331" lon="-4.288267996162176">
        <ele>775.70000000000005</ele>
        <time>2010-12-31T18:20:05Z</time>
      </trkpt>
      <trkpt lat="30.953523013740778" lon="-4.288328010588884">
        <ele>775.10000000000002</ele>
        <time>2010-12-31T18:20:08Z</time>
      </trkpt>
      <trkpt lat="30.953445984050632" lon="-4.288407973945141">
        <ele>774.60000000000002</ele>
        <time>2010-12-31T18:20:12Z</time>
      </trkpt>
      <trkpt lat="30.953398961573839" lon="-4.288505958393216">
        <ele>775.20000000000005</ele>
        <time>2010-12-31T18:20:16Z</time>
      </trkpt>
      <trkpt lat="30.953303994610906" lon="-4.28870402276516">
        <ele>774.29999999999995</ele>
        <time>2010-12-31T18:20:21Z</time>
      </trkpt>
      <trkpt lat="30.953232999891043" lon="-4.288803013041616">
        <ele>773.89999999999998</ele>
        <time>2010-12-31T18:20:24Z</time>
      </trkpt>
      <trkpt lat="30.953125040978193" lon="-4.288871996104717">
        <ele>773.89999999999998</ele>
        <time>2010-12-31T18:20:27Z</time>
      </trkpt>
      <trkpt lat="30.952794961631298" lon="-4.288991019129753">
        <ele>772.60000000000002</ele>
        <time>2010-12-31T18:20:35Z</time>
      </trkpt>
      <trkpt lat="30.952701000496745" lon="-4.288993030786514">
        <ele>772.39999999999998</ele>
        <time>2010-12-31T18:20:38Z</time>
      </trkpt>
      <trkpt lat="30.952534032985568" lon="-4.288953971117735">
        <ele>772.5</ele>
        <time>2010-12-31T18:20:42Z</time>
      </trkpt>
      <trkpt lat="30.952300010249019" lon="-4.28887995891273">
        <ele>775.89999999999998</ele>
        <time>2010-12-31T18:20:46Z</time>
      </trkpt>
      <trkpt lat="30.952185010537505" lon="-4.288892028853297">
        <ele>775.60000000000002</ele>
        <time>2010-12-31T18:20:48Z</time>
      </trkpt>
      <trkpt lat="30.951917041093111" lon="-4.289050027728081">
        <ele>774</ele>
        <time>2010-12-31T18:20:53Z</time>
      </trkpt>
      <trkpt lat="30.95180899836123" lon="-4.28913401439786">
        <ele>773.39999999999998</ele>
        <time>2010-12-31T18:20:55Z</time>
      </trkpt>
      <trkpt lat="30.951458970084786" lon="-4.289454035460949">
        <ele>771.10000000000002</ele>
        <time>2010-12-31T18:21:03Z</time>
      </trkpt>
      <trkpt lat="30.951274987310171" lon="-4.289647992700338">
        <ele>770.60000000000002</ele>
        <time>2010-12-31T18:21:08Z</time>
      </trkpt>
      <trkpt lat="30.950844995677471" lon="-4.289978994056583">
        <ele>769.89999999999998</ele>
        <time>2010-12-31T18:21:16Z</time>
      </trkpt>
      <trkpt lat="30.950771989300847" lon="-4.290075972676277">
        <ele>769.79999999999995</ele>
        <time>2010-12-31T18:21:18Z</time>
      </trkpt>
      <trkpt lat="30.950740976259112" lon="-4.290200024843216">
        <ele>769.39999999999998</ele>
        <time>2010-12-31T18:21:20Z</time>
      </trkpt>
      <trkpt lat="30.950690014287829" lon="-4.290821040049195">
        <ele>769.5</ele>
        <time>2010-12-31T18:21:29Z</time>
      </trkpt>
      <trkpt lat="30.950708035379648" lon="-4.2910470161587">
        <ele>771.29999999999995</ele>
        <time>2010-12-31T18:21:32Z</time>
      </trkpt>
      <trkpt lat="30.950692025944591" lon="-4.291196968406439">
        <ele>771.20000000000005</ele>
        <time>2010-12-31T18:21:34Z</time>
      </trkpt>
      <trkpt lat="30.950659001246095" lon="-4.291320014744997">
        <ele>771</ele>
        <time>2010-12-31T18:21:36Z</time>
      </trkpt>
      <trkpt lat="30.950507037341595" lon="-4.291918985545635">
        <ele>770.39999999999998</ele>
        <time>2010-12-31T18:21:47Z</time>
      </trkpt>
      <trkpt lat="30.950421961024404" lon="-4.292109003290534">
        <ele>770.39999999999998</ele>
        <time>2010-12-31T18:21:50Z</time>
      </trkpt>
      <trkpt lat="30.95034996047616" lon="-4.292253004387021">
        <ele>770.39999999999998</ele>
        <time>2010-12-31T18:21:53Z</time>
      </trkpt>
      <trkpt lat="30.950206965208054" lon="-4.292421983554959">
        <ele>769.89999999999998</ele>
        <time>2010-12-31T18:21:57Z</time>
      </trkpt>
      <trkpt lat="30.949822990223765" lon="-4.293470978736877">
        <ele>773.89999999999998</ele>
        <time>2010-12-31T18:22:12Z</time>
      </trkpt>
      <trkpt lat="30.94946701079607" lon="-4.29410096257925">
        <ele>772.89999999999998</ele>
        <time>2010-12-31T18:22:21Z</time>
      </trkpt>
      <trkpt lat="30.949240028858185" lon="-4.294416960328817">
        <ele>772.10000000000002</ele>
        <time>2010-12-31T18:22:26Z</time>
      </trkpt>
      <trkpt lat="30.949012041091919" lon="-4.294663975015283">
        <ele>771.39999999999998</ele>
        <time>2010-12-31T18:22:30Z</time>
      </trkpt>
      <trkpt lat="30.948754968121648" lon="-4.294860027730465">
        <ele>771.10000000000002</ele>
        <time>2010-12-31T18:22:34Z</time>
      </trkpt>
      <trkpt lat="30.948626976460218" lon="-4.294944014400244">
        <ele>770.70000000000005</ele>
        <time>2010-12-31T18:22:36Z</time>
      </trkpt>
      <trkpt lat="30.948506025597453" lon="-4.295007968321443">
        <ele>770.29999999999995</ele>
        <time>2010-12-31T18:22:38Z</time>
      </trkpt>
      <trkpt lat="30.948384990915656" lon="-4.295045016333461">
        <ele>770</ele>
        <time>2010-12-31T18:22:40Z</time>
      </trkpt>
      <trkpt lat="30.947992969304323" lon="-4.295127997174859">
        <ele>769</ele>
        <time>2010-12-31T18:22:46Z</time>
      </trkpt>
      <trkpt lat="30.947872018441558" lon="-4.295188011601567">
        <ele>768.79999999999995</ele>
        <time>2010-12-31T18:22:48Z</time>
      </trkpt>
      <trkpt lat="30.947765987366438" lon="-4.295267974957824">
        <ele>768.79999999999995</ele>
        <time>2010-12-31T18:22:50Z</time>
      </trkpt>
      <trkpt lat="30.94766297377646" lon="-4.295375011861324">
        <ele>768.60000000000002</ele>
        <time>2010-12-31T18:22:52Z</time>
      </trkpt>
      <trkpt lat="30.947571024298668" lon="-4.295498980209231">
        <ele>768.5</ele>
        <time>2010-12-31T18:22:54Z</time>
      </trkpt>
      <trkpt lat="30.947399027645588" lon="-4.295836016535759">
        <ele>767.89999999999998</ele>
        <time>2010-12-31T18:22:59Z</time>
      </trkpt>
      <trkpt lat="30.947338007390499" lon="-4.295985968783498">
        <ele>766.10000000000002</ele>
        <time>2010-12-31T18:23:01Z</time>
      </trkpt>
      <trkpt lat="30.947266006842256" lon="-4.296298027038574">
        <ele>765.39999999999998</ele>
        <time>2010-12-31T18:23:05Z</time>
      </trkpt>
      <trkpt lat="30.947157964110374" lon="-4.29699900560081">
        <ele>765.39999999999998</ele>
        <time>2010-12-31T18:23:13Z</time>
      </trkpt>
      <trkpt lat="30.947163999080658" lon="-4.297391027212143">
        <ele>765.60000000000002</ele>
        <time>2010-12-31T18:23:18Z</time>
      </trkpt>
      <trkpt lat="30.947294002398849" lon="-4.298935979604721">
        <ele>772.89999999999998</ele>
        <time>2010-12-31T18:23:35Z</time>
      </trkpt>
      <trkpt lat="30.947261983528733" lon="-4.299377035349608">
        <ele>774.20000000000005</ele>
        <time>2010-12-31T18:23:40Z</time>
      </trkpt>
      <trkpt lat="30.947225019335747" lon="-4.299631007015705">
        <ele>774.79999999999995</ele>
        <time>2010-12-31T18:23:43Z</time>
      </trkpt>
      <trkpt lat="30.947097027674317" lon="-4.300268031656742">
        <ele>774</ele>
        <time>2010-12-31T18:23:50Z</time>
      </trkpt>
      <trkpt lat="30.947046987712383" lon="-4.300454026088119">
        <ele>773.79999999999995</ele>
        <time>2010-12-31T18:23:52Z</time>
      </trkpt>
      <trkpt lat="30.946755968034267" lon="-4.301223987713456">
        <ele>771.60000000000002</ele>
        <time>2010-12-31T18:24:01Z</time>
      </trkpt>
      <trkpt lat="30.946392025798559" lon="-4.302814034745097">
        <ele>780.10000000000002</ele>
        <time>2010-12-31T18:24:19Z</time>
      </trkpt>
      <trkpt lat="30.946380961686373" lon="-4.302977984771133">
        <ele>780.60000000000002</ele>
        <time>2010-12-31T18:24:21Z</time>
      </trkpt>
      <trkpt lat="30.946421027183533" lon="-4.303262969478965">
        <ele>783.10000000000002</ele>
        <time>2010-12-31T18:24:25Z</time>
      </trkpt>
      <trkpt lat="30.946423038840294" lon="-4.303399007767439">
        <ele>784.39999999999998</ele>
        <time>2010-12-31T18:24:27Z</time>
      </trkpt>
      <trkpt lat="30.946386996656656" lon="-4.303542003035545">
        <ele>784.5</ele>
        <time>2010-12-31T18:24:29Z</time>
      </trkpt>
      <trkpt lat="30.946291023865342" lon="-4.303833022713661">
        <ele>786.20000000000005</ele>
        <time>2010-12-31T18:24:33Z</time>
      </trkpt>
      <trkpt lat="30.946230003610253" lon="-4.303966965526342">
        <ele>786.89999999999998</ele>
        <time>2010-12-31T18:24:35Z</time>
      </trkpt>
      <trkpt lat="30.944814970716834" lon="-4.306241981685162">
        <ele>793.29999999999995</ele>
        <time>2010-12-31T18:25:02Z</time>
      </trkpt>
      <trkpt lat="30.944396965205669" lon="-4.306931979954243">
        <ele>794.20000000000005</ele>
        <time>2010-12-31T18:25:09Z</time>
      </trkpt>
      <trkpt lat="30.944352960214019" lon="-4.30703398771584">
        <ele>794.29999999999995</ele>
        <time>2010-12-31T18:25:10Z</time>
      </trkpt>
      <trkpt lat="30.944318007677794" lon="-4.307134989649057">
        <ele>794.20000000000005</ele>
        <time>2010-12-31T18:25:11Z</time>
      </trkpt>
      <trkpt lat="30.944291017949581" lon="-4.307235991582274">
        <ele>794.29999999999995</ele>
        <time>2010-12-31T18:25:12Z</time>
      </trkpt>
      <trkpt lat="30.944272996857762" lon="-4.307340011000633">
        <ele>794.39999999999998</ele>
        <time>2010-12-31T18:25:13Z</time>
      </trkpt>
      <trkpt lat="30.944151040166616" lon="-4.30800000205636">
        <ele>793.20000000000005</ele>
        <time>2010-12-31T18:25:19Z</time>
      </trkpt>
      <trkpt lat="30.944122038781643" lon="-4.30810796096921">
        <ele>793.29999999999995</ele>
        <time>2010-12-31T18:25:20Z</time>
      </trkpt>
      <trkpt lat="30.944085996598005" lon="-4.308210974559188">
        <ele>793.39999999999998</ele>
        <time>2010-12-31T18:25:21Z</time>
      </trkpt>
      <trkpt lat="30.944040985777974" lon="-4.308310970664024">
        <ele>793.5</ele>
        <time>2010-12-31T18:25:22Z</time>
      </trkpt>
      <trkpt lat="30.943990023806691" lon="-4.30840996094048">
        <ele>793.5</ele>
        <time>2010-12-31T18:25:23Z</time>
      </trkpt>
      <trkpt lat="30.943933026865125" lon="-4.308506017550826">
        <ele>793.60000000000002</ele>
        <time>2010-12-31T18:25:24Z</time>
      </trkpt>
      <trkpt lat="30.943744014948606" lon="-4.30877398699522">
        <ele>793.89999999999998</ele>
        <time>2010-12-31T18:25:27Z</time>
      </trkpt>
      <trkpt lat="30.943541005253792" lon="-4.309018990024924">
        <ele>793.89999999999998</ele>
        <time>2010-12-31T18:25:30Z</time>
      </trkpt>
      <trkpt lat="30.943284016102552" lon="-4.309317972511053">
        <ele>794</ele>
        <time>2010-12-31T18:25:34Z</time>
      </trkpt>
      <trkpt lat="30.943198017776012" lon="-4.30948200635612">
        <ele>794.29999999999995</ele>
        <time>2010-12-31T18:25:36Z</time>
      </trkpt>
      <trkpt lat="30.940840020775795" lon="-4.314086018130183">
        <ele>792.29999999999995</ele>
        <time>2010-12-31T18:26:30Z</time>
      </trkpt>
      <trkpt lat="30.940697025507689" lon="-4.314680965617299">
        <ele>790.70000000000005</ele>
        <time>2010-12-31T18:26:37Z</time>
      </trkpt>
      <trkpt lat="30.940672969445586" lon="-4.31485103443265">
        <ele>789.5</ele>
        <time>2010-12-31T18:26:39Z</time>
      </trkpt>
      <trkpt lat="30.940662994980812" lon="-4.315298041328788">
        <ele>787.29999999999995</ele>
        <time>2010-12-31T18:26:44Z</time>
      </trkpt>
      <trkpt lat="30.940617984160781" lon="-4.318919023498893">
        <ele>784.5</ele>
        <time>2010-12-31T18:27:17Z</time>
      </trkpt>
      <trkpt lat="30.94059401191771" lon="-4.3191500287503">
        <ele>784.39999999999998</ele>
        <time>2010-12-31T18:27:19Z</time>
      </trkpt>
      <trkpt lat="30.940556963905692" lon="-4.319373993203044">
        <ele>784.5</ele>
        <time>2010-12-31T18:27:21Z</time>
      </trkpt>
      <trkpt lat="30.940531985834241" lon="-4.319483041763306">
        <ele>784.70000000000005</ele>
        <time>2010-12-31T18:27:22Z</time>
      </trkpt>
      <trkpt lat="30.940384967252612" lon="-4.320001965388656">
        <ele>785.60000000000002</ele>
        <time>2010-12-31T18:27:27Z</time>
      </trkpt>
      <trkpt lat="30.940350014716387" lon="-4.320101961493492">
        <ele>785.89999999999998</ele>
        <time>2010-12-31T18:27:28Z</time>
      </trkpt>
      <trkpt lat="30.940305003896356" lon="-4.320199023932219">
        <ele>786.10000000000002</ele>
        <time>2010-12-31T18:27:29Z</time>
      </trkpt>
      <trkpt lat="30.940253036096692" lon="-4.320292985066772">
        <ele>786.29999999999995</ele>
        <time>2010-12-31T18:27:30Z</time>
      </trkpt>
      <trkpt lat="30.940195033326745" lon="-4.320379989221692">
        <ele>786.5</ele>
        <time>2010-12-31T18:27:31Z</time>
      </trkpt>
      <trkpt lat="30.940133007243276" lon="-4.320458024740219">
        <ele>786.70000000000005</ele>
        <time>2010-12-31T18:27:32Z</time>
      </trkpt>
      <trkpt lat="30.939666973426938" lon="-4.321006033569574">
        <ele>787.10000000000002</ele>
        <time>2010-12-31T18:27:39Z</time>
      </trkpt>
      <trkpt lat="30.939606036990881" lon="-4.321108963340521">
        <ele>787.10000000000002</ele>
        <time>2010-12-31T18:27:40Z</time>
      </trkpt>
      <trkpt lat="30.939549962058663" lon="-4.321217006072402">
        <ele>787.20000000000005</ele>
        <time>2010-12-31T18:27:41Z</time>
      </trkpt>
      <trkpt lat="30.939503023400903" lon="-4.321328988298774">
        <ele>787.29999999999995</ele>
        <time>2010-12-31T18:27:42Z</time>
      </trkpt>
      <trkpt lat="30.939464969560504" lon="-4.321438958868384">
        <ele>787.29999999999995</ele>
        <time>2010-12-31T18:27:43Z</time>
      </trkpt>
      <trkpt lat="30.93943596817553" lon="-4.321551024913788">
        <ele>787.20000000000005</ele>
        <time>2010-12-31T18:27:44Z</time>
      </trkpt>
      <trkpt lat="30.939396992325783" lon="-4.321780018508434">
        <ele>787.39999999999998</ele>
        <time>2010-12-31T18:27:46Z</time>
      </trkpt>
      <trkpt lat="30.939388023689389" lon="-4.321895018219948">
        <ele>787.39999999999998</ele>
        <time>2010-12-31T18:27:47Z</time>
      </trkpt>
      <trkpt lat="30.939357010647655" lon="-4.32284502312541">
        <ele>787.60000000000002</ele>
        <time>2010-12-31T18:27:56Z</time>
      </trkpt>
      <trkpt lat="30.93936899676919" lon="-4.323122967034578">
        <ele>787.79999999999995</ele>
        <time>2010-12-31T18:27:59Z</time>
      </trkpt>
      <trkpt lat="30.939391041174531" lon="-4.323294041678309">
        <ele>786.70000000000005</ele>
        <time>2010-12-31T18:28:01Z</time>
      </trkpt>
      <trkpt lat="30.939559014514089" lon="-4.323859987780452">
        <ele>782.89999999999998</ele>
        <time>2010-12-31T18:28:07Z</time>
      </trkpt>
      <trkpt lat="30.939667979255319" lon="-4.324143966659904">
        <ele>781.89999999999998</ele>
        <time>2010-12-31T18:28:10Z</time>
      </trkpt>
      <trkpt lat="30.939881969243288" lon="-4.324562977999449">
        <ele>779.70000000000005</ele>
        <time>2010-12-31T18:28:16Z</time>
      </trkpt>
      <trkpt lat="30.94005698338151" lon="-4.325093971565366">
        <ele>776.89999999999998</ele>
        <time>2010-12-31T18:28:24Z</time>
      </trkpt>
      <trkpt lat="30.940064024180174" lon="-4.325224980711937">
        <ele>775.79999999999995</ele>
        <time>2010-12-31T18:28:27Z</time>
      </trkpt>
      <trkpt lat="30.939984982833266" lon="-4.325545001775026">
        <ele>774.79999999999995</ele>
        <time>2010-12-31T18:28:32Z</time>
      </trkpt>
      <trkpt lat="30.939979031682014" lon="-4.325689002871513">
        <ele>774.79999999999995</ele>
        <time>2010-12-31T18:28:34Z</time>
      </trkpt>
      <trkpt lat="30.940015995875001" lon="-4.325821017846465">
        <ele>773.79999999999995</ele>
        <time>2010-12-31T18:28:36Z</time>
      </trkpt>
      <trkpt lat="30.940393013879657" lon="-4.326759958639741">
        <ele>772.39999999999998</ele>
        <time>2010-12-31T18:28:47Z</time>
      </trkpt>
      <trkpt lat="30.940442970022559" lon="-4.326847968623042">
        <ele>772.20000000000005</ele>
        <time>2010-12-31T18:28:48Z</time>
      </trkpt>
      <trkpt lat="30.940556963905692" lon="-4.327023988589644">
        <ele>771.60000000000002</ele>
        <time>2010-12-31T18:28:50Z</time>
      </trkpt>
      <trkpt lat="30.941104972735047" lon="-4.327857987955213">
        <ele>769.70000000000005</ele>
        <time>2010-12-31T18:29:00Z</time>
      </trkpt>
      <trkpt lat="30.941221984103322" lon="-4.327976005151868">
        <ele>769.29999999999995</ele>
        <time>2010-12-31T18:29:02Z</time>
      </trkpt>
      <trkpt lat="30.941332038491964" lon="-4.32806896045804">
        <ele>768.79999999999995</ele>
        <time>2010-12-31T18:29:04Z</time>
      </trkpt>
      <trkpt lat="30.941421976312995" lon="-4.328184965997934">
        <ele>768.29999999999995</ele>
        <time>2010-12-31T18:29:06Z</time>
      </trkpt>
      <trkpt lat="30.942497961223125" lon="-4.330072989687324">
        <ele>765.70000000000005</ele>
        <time>2010-12-31T18:29:28Z</time>
      </trkpt>
      <trkpt lat="30.942541966214776" lon="-4.330173991620541">
        <ele>766</ele>
        <time>2010-12-31T18:29:29Z</time>
      </trkpt>
      <trkpt lat="30.942580020055175" lon="-4.330278011038899">
        <ele>766</ele>
        <time>2010-12-31T18:29:30Z</time>
      </trkpt>
      <trkpt lat="30.94261203892529" lon="-4.330383958294988">
        <ele>765.89999999999998</ele>
        <time>2010-12-31T18:29:31Z</time>
      </trkpt>
      <trkpt lat="30.9427410364151" lon="-4.330789977684617">
        <ele>765.60000000000002</ele>
        <time>2010-12-31T18:29:35Z</time>
      </trkpt>
      <trkpt lat="30.942782023921609" lon="-4.330887040123344">
        <ele>766</ele>
        <time>2010-12-31T18:29:36Z</time>
      </trkpt>
      <trkpt lat="30.942876990884542" lon="-4.33107596822083">
        <ele>766.20000000000005</ele>
        <time>2010-12-31T18:29:38Z</time>
      </trkpt>
      <trkpt lat="30.942932981997728" lon="-4.331170013174415">
        <ele>766.29999999999995</ele>
        <time>2010-12-31T18:29:39Z</time>
      </trkpt>
      <trkpt lat="30.943421982228756" lon="-4.331909967586398">
        <ele>765.79999999999995</ele>
        <time>2010-12-31T18:29:47Z</time>
      </trkpt>
      <trkpt lat="30.943471016362309" lon="-4.332011975347996">
        <ele>765.60000000000002</ele>
        <time>2010-12-31T18:29:48Z</time>
      </trkpt>
      <trkpt lat="30.943549973890185" lon="-4.332215990871191">
        <ele>765.39999999999998</ele>
        <time>2010-12-31T18:29:50Z</time>
      </trkpt>
      <trkpt lat="30.943947024643421" lon="-4.333325000479817">
        <ele>764.60000000000002</ele>
        <time>2010-12-31T18:30:02Z</time>
      </trkpt>
      <trkpt lat="30.943994969129562" lon="-4.33341502211988">
        <ele>764.60000000000002</ele>
        <time>2010-12-31T18:30:03Z</time>
      </trkpt>
      <trkpt lat="30.944186998531222" lon="-4.333801008760929">
        <ele>764.60000000000002</ele>
        <time>2010-12-31T18:30:07Z</time>
      </trkpt>
      <trkpt lat="30.944224968552589" lon="-4.333903016522527">
        <ele>764.60000000000002</ele>
        <time>2010-12-31T18:30:08Z</time>
      </trkpt>
      <trkpt lat="30.944257993251085" lon="-4.334006030112505">
        <ele>764.5</ele>
        <time>2010-12-31T18:30:09Z</time>
      </trkpt>
      <trkpt lat="30.944335022941232" lon="-4.334322027862072">
        <ele>764.29999999999995</ele>
        <time>2010-12-31T18:30:12Z</time>
      </trkpt>
      <trkpt lat="30.94439503736794" lon="-4.334648000076413">
        <ele>763.79999999999995</ele>
        <time>2010-12-31T18:30:15Z</time>
      </trkpt>
      <trkpt lat="30.944931982085109" lon="-4.337015971541405">
        <ele>763.79999999999995</ele>
        <time>2010-12-31T18:30:36Z</time>
      </trkpt>
      <trkpt lat="30.944965006783605" lon="-4.337126025930047">
        <ele>763.79999999999995</ele>
        <time>2010-12-31T18:30:37Z</time>
      </trkpt>
      <trkpt lat="30.945689035579562" lon="-4.339565997943282">
        <ele>762.10000000000002</ele>
        <time>2010-12-31T18:31:00Z</time>
      </trkpt>
      <trkpt lat="30.945699010044336" lon="-4.339676974341273">
        <ele>762.10000000000002</ele>
        <time>2010-12-31T18:31:01Z</time>
      </trkpt>
      <trkpt lat="30.945702027529478" lon="-4.339788034558296">
        <ele>762</ele>
        <time>2010-12-31T18:31:02Z</time>
      </trkpt>
      <trkpt lat="30.945691969245672" lon="-4.340323973447084">
        <ele>761.60000000000002</ele>
        <time>2010-12-31T18:31:07Z</time>
      </trkpt>
      <trkpt lat="30.945575963705778" lon="-4.341419991105795">
        <ele>766.39999999999998</ele>
        <time>2010-12-31T18:31:17Z</time>
      </trkpt>
      <trkpt lat="30.945432968437672" lon="-4.342337977141142">
        <ele>766.70000000000005</ele>
        <time>2010-12-31T18:31:25Z</time>
      </trkpt>
      <trkpt lat="30.945060979574919" lon="-4.344618022441864">
        <ele>764.29999999999995</ele>
        <time>2010-12-31T18:31:44Z</time>
      </trkpt>
      <trkpt lat="30.945057040080428" lon="-4.344736961647868">
        <ele>764.20000000000005</ele>
        <time>2010-12-31T18:31:45Z</time>
      </trkpt>
      <trkpt lat="30.945054022595286" lon="-4.346058033406735">
        <ele>770.10000000000002</ele>
        <time>2010-12-31T18:31:56Z</time>
      </trkpt>
      <trkpt lat="30.94504002481699" lon="-4.346174960955977">
        <ele>770.79999999999995</ele>
        <time>2010-12-31T18:31:57Z</time>
      </trkpt>
      <trkpt lat="30.944724027067423" lon="-4.348374037072063">
        <ele>776.29999999999995</ele>
        <time>2010-12-31T18:32:15Z</time>
      </trkpt>
      <trkpt lat="30.94469603151083" lon="-4.348495993763208">
        <ele>776</ele>
        <time>2010-12-31T18:32:16Z</time>
      </trkpt>
      <trkpt lat="30.944482041522861" lon="-4.349220022559166">
        <ele>774.5</ele>
        <time>2010-12-31T18:32:22Z</time>
      </trkpt>
      <trkpt lat="30.944404006004333" lon="-4.349439963698387">
        <ele>773.89999999999998</ele>
        <time>2010-12-31T18:32:24Z</time>
      </trkpt>
      <trkpt lat="30.943849040195346" lon="-4.350870000198484">
        <ele>769.89999999999998</ele>
        <time>2010-12-31T18:32:37Z</time>
      </trkpt>
      <trkpt lat="30.943799000233412" lon="-4.350966978818178">
        <ele>769.60000000000002</ele>
        <time>2010-12-31T18:32:38Z</time>
      </trkpt>
      <trkpt lat="30.943740997463465" lon="-4.351053982973099">
        <ele>769.39999999999998</ele>
        <time>2010-12-31T18:32:39Z</time>
      </trkpt>
      <trkpt lat="30.943674026057124" lon="-4.351130006834865">
        <ele>769.10000000000002</ele>
        <time>2010-12-31T18:32:40Z</time>
      </trkpt>
      <trkpt lat="30.943598002195358" lon="-4.351195972412825">
        <ele>768.79999999999995</ele>
        <time>2010-12-31T18:32:41Z</time>
      </trkpt>
      <trkpt lat="30.94291496090591" lon="-4.351744987070561">
        <ele>766.60000000000002</ele>
        <time>2010-12-31T18:32:50Z</time>
      </trkpt>
      <trkpt lat="30.942770037800074" lon="-4.351824028417468">
        <ele>766.10000000000002</ele>
        <time>2010-12-31T18:32:52Z</time>
      </trkpt>
      <trkpt lat="30.94261396676302" lon="-4.351856969296932">
        <ele>765.60000000000002</ele>
        <time>2010-12-31T18:32:54Z</time>
      </trkpt>
      <trkpt lat="30.942460997030139" lon="-4.351822016760707">
        <ele>765.10000000000002</ele>
        <time>2010-12-31T18:32:56Z</time>
      </trkpt>
      <trkpt lat="30.942249018698931" lon="-4.351716991513968">
        <ele>764.5</ele>
        <time>2010-12-31T18:32:59Z</time>
      </trkpt>
      <trkpt lat="30.94198901206255" lon="-4.351553041487932">
        <ele>764</ele>
        <time>2010-12-31T18:33:03Z</time>
      </trkpt>
      <trkpt lat="30.941853979602456" lon="-4.351533008739352">
        <ele>763.60000000000002</ele>
        <time>2010-12-31T18:33:05Z</time>
      </trkpt>
      <trkpt lat="30.941723976284266" lon="-4.351569972932339">
        <ele>763.29999999999995</ele>
        <time>2010-12-31T18:33:07Z</time>
      </trkpt>
      <trkpt lat="30.941596990451217" lon="-4.351655971258879">
        <ele>763.10000000000002</ele>
        <time>2010-12-31T18:33:09Z</time>
      </trkpt>
      <trkpt lat="30.94098100438714" lon="-4.352270029485226">
        <ele>764.10000000000002</ele>
        <time>2010-12-31T18:33:18Z</time>
      </trkpt>
      <trkpt lat="30.939173027873039" lon="-4.354380005970597">
        <ele>769.60000000000002</ele>
        <time>2010-12-31T18:33:47Z</time>
      </trkpt>
      <trkpt lat="30.93883004039526" lon="-4.354869006201625">
        <ele>772.39999999999998</ele>
        <time>2010-12-31T18:33:54Z</time>
      </trkpt>
      <trkpt lat="30.938605992123485" lon="-4.355320958420634">
        <ele>771.79999999999995</ele>
        <time>2010-12-31T18:33:59Z</time>
      </trkpt>
      <trkpt lat="30.938341962173581" lon="-4.35608102940023">
        <ele>768.39999999999998</ele>
        <time>2010-12-31T18:34:07Z</time>
      </trkpt>
      <trkpt lat="30.938313966616988" lon="-4.356278004124761">
        <ele>768</ele>
        <time>2010-12-31T18:34:09Z</time>
      </trkpt>
      <trkpt lat="30.938255963847041" lon="-4.357104040682316">
        <ele>767.79999999999995</ele>
        <time>2010-12-31T18:34:17Z</time>
      </trkpt>
      <trkpt lat="30.938232997432351" lon="-4.357206970453262">
        <ele>767.60000000000002</ele>
        <time>2010-12-31T18:34:18Z</time>
      </trkpt>
      <trkpt lat="30.938203996047378" lon="-4.357306966558099">
        <ele>768.10000000000002</ele>
        <time>2010-12-31T18:34:19Z</time>
      </trkpt>
      <trkpt lat="30.93756596557796" lon="-4.359128018841147">
        <ele>774.60000000000002</ele>
        <time>2010-12-31T18:34:37Z</time>
      </trkpt>
      <trkpt lat="30.937523972243071" lon="-4.359230026602745">
        <ele>774.5</ele>
        <time>2010-12-31T18:34:38Z</time>
      </trkpt>
      <trkpt lat="30.937475021928549" lon="-4.359331028535962">
        <ele>774.5</ele>
        <time>2010-12-31T18:34:39Z</time>
      </trkpt>
      <trkpt lat="30.93653398565948" lon="-4.361108997836709">
        <ele>771.29999999999995</ele>
        <time>2010-12-31T18:34:57Z</time>
      </trkpt>
      <trkpt lat="30.936500960960984" lon="-4.36121603474021">
        <ele>770.89999999999998</ele>
        <time>2010-12-31T18:34:58Z</time>
      </trkpt>
      <trkpt lat="30.936423009261489" lon="-4.361528009176254">
        <ele>769.89999999999998</ele>
        <time>2010-12-31T18:35:01Z</time>
      </trkpt>
      <trkpt lat="30.93640498816967" lon="-4.361633034422994">
        <ele>769.70000000000005</ele>
        <time>2010-12-31T18:35:02Z</time>
      </trkpt>
      <trkpt lat="30.936379004269838" lon="-4.361824980005622">
        <ele>768.89999999999998</ele>
        <time>2010-12-31T18:35:04Z</time>
      </trkpt>
      <trkpt lat="30.936325024813414" lon="-4.36199395917356">
        <ele>769</ele>
        <time>2010-12-31T18:35:06Z</time>
      </trkpt>
      <trkpt lat="30.9362100251019" lon="-4.362138966098428">
        <ele>768.70000000000005</ele>
        <time>2010-12-31T18:35:08Z</time>
      </trkpt>
      <trkpt lat="30.935982037335634" lon="-4.362370977178216">
        <ele>768.10000000000002</ele>
        <time>2010-12-31T18:35:12Z</time>
      </trkpt>
      <trkpt lat="30.935921017080545" lon="-4.362474996596575">
        <ele>768.10000000000002</ele>
        <time>2010-12-31T18:35:14Z</time>
      </trkpt>
      <trkpt lat="30.935681965202093" lon="-4.363147979602218">
        <ele>775</ele>
        <time>2010-12-31T18:35:23Z</time>
      </trkpt>
      <trkpt lat="30.935560008510947" lon="-4.363391976803541">
        <ele>776.70000000000005</ele>
        <time>2010-12-31T18:35:26Z</time>
      </trkpt>
      <trkpt lat="30.935168992727995" lon="-4.364003017544746">
        <ele>775.29999999999995</ele>
        <time>2010-12-31T18:35:33Z</time>
      </trkpt>
      <trkpt lat="30.934988027438521" lon="-4.364256989210844">
        <ele>774.79999999999995</ele>
        <time>2010-12-31T18:35:36Z</time>
      </trkpt>
      <trkpt lat="30.934447981417179" lon="-4.364899965003133">
        <ele>780.10000000000002</ele>
        <time>2010-12-31T18:35:47Z</time>
      </trkpt>
      <trkpt lat="30.934203984215856" lon="-4.365289974957705">
        <ele>781.89999999999998</ele>
        <time>2010-12-31T18:35:52Z</time>
      </trkpt>
      <trkpt lat="30.934004997834563" lon="-4.36551402322948">
        <ele>781.39999999999998</ele>
        <time>2010-12-31T18:35:55Z</time>
      </trkpt>
      <trkpt lat="30.933852028101683" lon="-4.365650983527303">
        <ele>781</ele>
        <time>2010-12-31T18:35:57Z</time>
      </trkpt>
      <trkpt lat="30.933606019243598" lon="-4.365844018757343">
        <ele>780.39999999999998</ele>
        <time>2010-12-31T18:36:00Z</time>
      </trkpt>
      <trkpt lat="30.9335230384022" lon="-4.36590101569891">
        <ele>780.20000000000005</ele>
        <time>2010-12-31T18:36:01Z</time>
      </trkpt>
      <trkpt lat="30.932993972674012" lon="-4.36633100733161">
        <ele>777.89999999999998</ele>
        <time>2010-12-31T18:36:09Z</time>
      </trkpt>
      <trkpt lat="30.932326018810272" lon="-4.366973983123899">
        <ele>775.10000000000002</ele>
        <time>2010-12-31T18:36:19Z</time>
      </trkpt>
      <trkpt lat="30.932244965806603" lon="-4.36703902669251">
        <ele>774.79999999999995</ele>
        <time>2010-12-31T18:36:20Z</time>
      </trkpt>
      <trkpt lat="30.931741967797279" lon="-4.367395006120205">
        <ele>772.70000000000005</ele>
        <time>2010-12-31T18:36:26Z</time>
      </trkpt>
      <trkpt lat="30.931659992784262" lon="-4.367442028596997">
        <ele>772.29999999999995</ele>
        <time>2010-12-31T18:36:27Z</time>
      </trkpt>
      <trkpt lat="30.931271994486451" lon="-4.367591980844736">
        <ele>771.39999999999998</ele>
        <time>2010-12-31T18:36:32Z</time>
      </trkpt>
      <trkpt lat="30.931151965633035" lon="-4.367702035233378">
        <ele>770.89999999999998</ele>
        <time>2010-12-31T18:36:34Z</time>
      </trkpt>
      <trkpt lat="30.930584007874131" lon="-4.368566041812301">
        <ele>769.29999999999995</ele>
        <time>2010-12-31T18:36:46Z</time>
      </trkpt>
      <trkpt lat="30.930376974865794" lon="-4.369036015123129">
        <ele>770.29999999999995</ele>
        <time>2010-12-31T18:36:52Z</time>
      </trkpt>
      <trkpt lat="30.930306985974312" lon="-4.369121007621288">
        <ele>772</ele>
        <time>2010-12-31T18:36:54Z</time>
      </trkpt>
      <trkpt lat="30.930205984041095" lon="-4.369187979027629">
        <ele>773.70000000000005</ele>
        <time>2010-12-31T18:36:56Z</time>
      </trkpt>
      <trkpt lat="30.929948994889855" lon="-4.369283029809594">
        <ele>774.5</ele>
        <time>2010-12-31T18:37:00Z</time>
      </trkpt>
      <trkpt lat="30.929814968258142" lon="-4.369357964023948">
        <ele>774.20000000000005</ele>
        <time>2010-12-31T18:37:02Z</time>
      </trkpt>
      <trkpt lat="30.929688988253474" lon="-4.369452008977532">
        <ele>773.89999999999998</ele>
        <time>2010-12-31T18:37:04Z</time>
      </trkpt>
      <trkpt lat="30.929576000198722" lon="-4.369557034224272">
        <ele>773.39999999999998</ele>
        <time>2010-12-31T18:37:06Z</time>
      </trkpt>
      <trkpt lat="30.928556006401777" lon="-4.370617009699345">
        <ele>769.89999999999998</ele>
        <time>2010-12-31T18:37:23Z</time>
      </trkpt>
      <trkpt lat="30.92847696505487" lon="-4.370668977499008">
        <ele>769.60000000000002</ele>
        <time>2010-12-31T18:37:24Z</time>
      </trkpt>
      <trkpt lat="30.928250988945365" lon="-4.37077802605927">
        <ele>769</ele>
        <time>2010-12-31T18:37:27Z</time>
      </trkpt>
      <trkpt lat="30.928127020597458" lon="-4.370870981365442">
        <ele>768.60000000000002</ele>
        <time>2010-12-31T18:37:29Z</time>
      </trkpt>
      <trkpt lat="30.927830971777439" lon="-4.371184967458248">
        <ele>767.89999999999998</ele>
        <time>2010-12-31T18:37:34Z</time>
      </trkpt>
      <trkpt lat="30.927718989551067" lon="-4.371318994089961">
        <ele>769.89999999999998</ele>
        <time>2010-12-31T18:37:36Z</time>
      </trkpt>
      <trkpt lat="30.927622010931373" lon="-4.371470035985112">
        <ele>771.60000000000002</ele>
        <time>2010-12-31T18:37:38Z</time>
      </trkpt>
      <trkpt lat="30.92755101621151" lon="-4.371635997667909">
        <ele>773.10000000000002</ele>
        <time>2010-12-31T18:37:40Z</time>
      </trkpt>
      <trkpt lat="30.927513968199492" lon="-4.371815035119653">
        <ele>774.5</ele>
        <time>2010-12-31T18:37:42Z</time>
      </trkpt>
      <trkpt lat="30.927438028156757" lon="-4.372387016192079">
        <ele>774.70000000000005</ele>
        <time>2010-12-31T18:37:48Z</time>
      </trkpt>
      <trkpt lat="30.927319005131721" lon="-4.372773002833128">
        <ele>775.39999999999998</ele>
        <time>2010-12-31T18:37:52Z</time>
      </trkpt>
      <trkpt lat="30.927242981269956" lon="-4.372966038063169">
        <ele>775.89999999999998</ele>
        <time>2010-12-31T18:37:54Z</time>
      </trkpt>
      <trkpt lat="30.927196964621544" lon="-4.373061005026102">
        <ele>776.5</ele>
        <time>2010-12-31T18:37:55Z</time>
      </trkpt>
      <trkpt lat="30.926416022703052" lon="-4.374585002660751">
        <ele>775.10000000000002</ele>
        <time>2010-12-31T18:38:11Z</time>
      </trkpt>
      <trkpt lat="30.926234973594546" lon="-4.375139968469739">
        <ele>775.89999999999998</ele>
        <time>2010-12-31T18:38:17Z</time>
      </trkpt>
      <trkpt lat="30.926147969439626" lon="-4.375296039506793">
        <ele>777.10000000000002</ele>
        <time>2010-12-31T18:38:19Z</time>
      </trkpt>
      <trkpt lat="30.92572895810008" lon="-4.375943038612604">
        <ele>779.20000000000005</ele>
        <time>2010-12-31T18:38:27Z</time>
      </trkpt>
      <trkpt lat="30.925624016672373" lon="-4.37621402554214">
        <ele>779.89999999999998</ele>
        <time>2010-12-31T18:38:30Z</time>
      </trkpt>
      <trkpt lat="30.925521003082395" lon="-4.376582996919751">
        <ele>781.70000000000005</ele>
        <time>2010-12-31T18:38:34Z</time>
      </trkpt>
      <trkpt lat="30.925126969814301" lon="-4.377665016800165">
        <ele>785.29999999999995</ele>
        <time>2010-12-31T18:38:46Z</time>
      </trkpt>
      <trkpt lat="30.924744000658393" lon="-4.37892297282815">
        <ele>784.29999999999995</ele>
        <time>2010-12-31T18:39:01Z</time>
      </trkpt>
      <trkpt lat="30.924649033695459" lon="-4.37909203581512">
        <ele>784.60000000000002</ele>
        <time>2010-12-31T18:39:03Z</time>
      </trkpt>
      <trkpt lat="30.92452397570014" lon="-4.379241988062859">
        <ele>784.89999999999998</ele>
        <time>2010-12-31T18:39:05Z</time>
      </trkpt>
      <trkpt lat="30.923969009891152" lon="-4.37982402741909">
        <ele>786.39999999999998</ele>
        <time>2010-12-31T18:39:13Z</time>
      </trkpt>
      <trkpt lat="30.923897009342909" lon="-4.379886975511909">
        <ele>786.70000000000005</ele>
        <time>2010-12-31T18:39:14Z</time>
      </trkpt>
      <trkpt lat="30.923584029078484" lon="-4.380136001855135">
        <ele>787.20000000000005</ele>
        <time>2010-12-31T18:39:19Z</time>
      </trkpt>
      <trkpt lat="30.923504987731576" lon="-4.380237003788352">
        <ele>787.79999999999995</ele>
        <time>2010-12-31T18:39:21Z</time>
      </trkpt>
      <trkpt lat="30.923437010496855" lon="-4.380371030420065">
        <ele>788.29999999999995</ele>
        <time>2010-12-31T18:39:23Z</time>
      </trkpt>
      <trkpt lat="30.92336199246347" lon="-4.380626007914543">
        <ele>788.39999999999998</ele>
        <time>2010-12-31T18:39:26Z</time>
      </trkpt>
      <trkpt lat="30.92318999581039" lon="-4.381743986159563">
        <ele>788.5</ele>
        <time>2010-12-31T18:39:37Z</time>
      </trkpt>
      <trkpt lat="30.923099974170327" lon="-4.382412023842335">
        <ele>788.29999999999995</ele>
        <time>2010-12-31T18:39:43Z</time>
      </trkpt>
      <trkpt lat="30.923045994713902" lon="-4.382606986910105">
        <ele>788.10000000000002</ele>
        <time>2010-12-31T18:39:45Z</time>
      </trkpt>
      <trkpt lat="30.922969970852137" lon="-4.382792981341481">
        <ele>788</ele>
        <time>2010-12-31T18:39:47Z</time>
      </trkpt>
      <trkpt lat="30.922603011131287" lon="-4.383462024852634">
        <ele>788.29999999999995</ele>
        <time>2010-12-31T18:39:54Z</time>
      </trkpt>
      <trkpt lat="30.92241701669991" lon="-4.383754972368479">
        <ele>788.29999999999995</ele>
        <time>2010-12-31T18:39:57Z</time>
      </trkpt>
      <trkpt lat="30.922271003946662" lon="-4.383945995941758">
        <ele>788.39999999999998</ele>
        <time>2010-12-31T18:39:59Z</time>
      </trkpt>
      <trkpt lat="30.92203002423048" lon="-4.384222012013197">
        <ele>788.39999999999998</ele>
        <time>2010-12-31T18:40:02Z</time>
      </trkpt>
      <trkpt lat="30.921764988452196" lon="-4.384485958144069">
        <ele>788.5</ele>
        <time>2010-12-31T18:40:05Z</time>
      </trkpt>
      <trkpt lat="30.92127900570631" lon="-4.384893989190459">
        <ele>788.60000000000002</ele>
        <time>2010-12-31T18:40:10Z</time>
      </trkpt>
      <trkpt lat="30.91876401565969" lon="-4.386746976524591">
        <ele>789.5</ele>
        <time>2010-12-31T18:40:33Z</time>
      </trkpt>
      <trkpt lat="30.918659996241331" lon="-4.386817971244454">
        <ele>789.70000000000005</ele>
        <time>2010-12-31T18:40:34Z</time>
      </trkpt>
      <trkpt lat="30.917991958558559" lon="-4.387307977303863">
        <ele>790.70000000000005</ele>
        <time>2010-12-31T18:40:41Z</time>
      </trkpt>
      <trkpt lat="30.917866984382272" lon="-4.38747201114893">
        <ele>791</ele>
        <time>2010-12-31T18:40:43Z</time>
      </trkpt>
      <trkpt lat="30.917791966348886" lon="-4.387531019747257">
        <ele>791.10000000000002</ele>
        <time>2010-12-31T18:40:44Z</time>
      </trkpt>
      <trkpt lat="30.917709991335869" lon="-4.387576030567288">
        <ele>791.20000000000005</ele>
        <time>2010-12-31T18:40:45Z</time>
      </trkpt>
      <trkpt lat="30.917139016091824" lon="-4.387875013053417">
        <ele>790.79999999999995</ele>
        <time>2010-12-31T18:40:51Z</time>
      </trkpt>
      <trkpt lat="30.917038014158607" lon="-4.387951036915183">
        <ele>790.70000000000005</ele>
        <time>2010-12-31T18:40:52Z</time>
      </trkpt>
      <trkpt lat="30.9161869995296" lon="-4.38856702297926">
        <ele>790.60000000000002</ele>
        <time>2010-12-31T18:41:00Z</time>
      </trkpt>
      <trkpt lat="30.91607803478837" lon="-4.388626031577587">
        <ele>790.39999999999998</ele>
        <time>2010-12-31T18:41:01Z</time>
      </trkpt>
      <trkpt lat="30.911779962480068" lon="-4.391086036339402">
        <ele>778.70000000000005</ele>
        <time>2010-12-31T18:41:55Z</time>
      </trkpt>
      <trkpt lat="30.907709039747715" lon="-4.392685974016786">
        <ele>775.20000000000005</ele>
        <time>2010-12-31T18:42:42Z</time>
      </trkpt>
      <trkpt lat="30.907573001459241" lon="-4.392712963744998">
        <ele>771.29999999999995</ele>
        <time>2010-12-31T18:43:16Z</time>
      </trkpt>
      <trkpt lat="30.898235980421305" lon="-4.396331012248993">
        <ele>759.29999999999995</ele>
        <time>2010-12-31T18:45:17Z</time>
      </trkpt>
      <trkpt lat="30.896692033857107" lon="-4.396687997505069">
        <ele>759.10000000000002</ele>
        <time>2010-12-31T18:45:36Z</time>
      </trkpt>
      <trkpt lat="30.893989037722349" lon="-4.397482015192509">
        <ele>756.70000000000005</ele>
        <time>2010-12-31T18:46:06Z</time>
      </trkpt>
      <trkpt lat="30.889550987631083" lon="-4.399021016433835">
        <ele>755.39999999999998</ele>
        <time>2010-12-31T18:46:57Z</time>
      </trkpt>
      <trkpt lat="30.889424001798034" lon="-4.39903199672699">
        <ele>755.20000000000005</ele>
        <time>2010-12-31T18:46:59Z</time>
      </trkpt>
      <trkpt lat="30.889131976291537" lon="-4.398999977856875">
        <ele>755</ele>
        <time>2010-12-31T18:47:05Z</time>
      </trkpt>
      <trkpt lat="30.889019994065166" lon="-4.39901003614068">
        <ele>755.10000000000002</ele>
        <time>2010-12-31T18:47:07Z</time>
      </trkpt>
      <trkpt lat="30.888902982696891" lon="-4.399039037525654">
        <ele>755.20000000000005</ele>
        <time>2010-12-31T18:47:09Z</time>
      </trkpt>
      <trkpt lat="30.888518001884222" lon="-4.39918203279376">
        <ele>755.20000000000005</ele>
        <time>2010-12-31T18:47:15Z</time>
      </trkpt>
      <trkpt lat="30.888313986361027" lon="-4.399280017241836">
        <ele>755</ele>
        <time>2010-12-31T18:47:18Z</time>
      </trkpt>
      <trkpt lat="30.887774024158716" lon="-4.399629961699247">
        <ele>754.10000000000002</ele>
        <time>2010-12-31T18:47:26Z</time>
      </trkpt>
      <trkpt lat="30.886318003758788" lon="-4.400549037382007">
        <ele>751.79999999999995</ele>
        <time>2010-12-31T18:47:45Z</time>
      </trkpt>
      <trkpt lat="30.88477598503232" lon="-4.401370966807008">
        <ele>749.79999999999995</ele>
        <time>2010-12-31T18:48:05Z</time>
      </trkpt>
      <trkpt lat="30.883395988494158" lon="-4.402274033054709">
        <ele>749.20000000000005</ele>
        <time>2010-12-31T18:48:22Z</time>
      </trkpt>
      <trkpt lat="30.883103040978312" lon="-4.402347961440682">
        <ele>749.20000000000005</ele>
        <time>2010-12-31T18:48:25Z</time>
      </trkpt>
      <trkpt lat="30.882042981684208" lon="-4.402608973905444">
        <ele>749.10000000000002</ele>
        <time>2010-12-31T18:48:37Z</time>
      </trkpt>
      <trkpt lat="30.881363963708282" lon="-4.402955984696746">
        <ele>751.39999999999998</ele>
        <time>2010-12-31T18:48:45Z</time>
      </trkpt>
      <trkpt lat="30.881215017288923" lon="-4.403061009943485">
        <ele>751.29999999999995</ele>
        <time>2010-12-31T18:48:47Z</time>
      </trkpt>
      <trkpt lat="30.881098005920649" lon="-4.403180032968521">
        <ele>751</ele>
        <time>2010-12-31T18:48:49Z</time>
      </trkpt>
      <trkpt lat="30.88092902675271" lon="-4.403366027399898">
        <ele>752.5</ele>
        <time>2010-12-31T18:48:52Z</time>
      </trkpt>
      <trkpt lat="30.880289990454912" lon="-4.403951000422239">
        <ele>752.20000000000005</ele>
        <time>2010-12-31T18:49:01Z</time>
      </trkpt>
      <trkpt lat="30.880145989358425" lon="-4.404042027890682">
        <ele>752.29999999999995</ele>
        <time>2010-12-31T18:49:03Z</time>
      </trkpt>
      <trkpt lat="30.87996301241219" lon="-4.404035992920399">
        <ele>750.89999999999998</ele>
        <time>2010-12-31T18:49:06Z</time>
      </trkpt>
      <trkpt lat="30.879871984943748" lon="-4.404079997912049">
        <ele>750.79999999999995</ele>
        <time>2010-12-31T18:49:08Z</time>
      </trkpt>
      <trkpt lat="30.879816999658942" lon="-4.404183011502028">
        <ele>752.39999999999998</ele>
        <time>2010-12-31T18:49:10Z</time>
      </trkpt>
      <trkpt lat="30.879699988290668" lon="-4.404486017301679">
        <ele>755.29999999999995</ele>
        <time>2010-12-31T18:49:14Z</time>
      </trkpt>
      <trkpt lat="30.879481974989176" lon="-4.404907040297985">
        <ele>758.70000000000005</ele>
        <time>2010-12-31T18:49:20Z</time>
      </trkpt>
      <trkpt lat="30.879366975277662" lon="-4.405185990035534">
        <ele>760.70000000000005</ele>
        <time>2010-12-31T18:49:24Z</time>
      </trkpt>
      <trkpt lat="30.879234038293362" lon="-4.405369972810149">
        <ele>762.20000000000005</ele>
        <time>2010-12-31T18:49:27Z</time>
      </trkpt>
      <trkpt lat="30.879137981683016" lon="-4.405464017763734">
        <ele>763</ele>
        <time>2010-12-31T18:49:29Z</time>
      </trkpt>
      <trkpt lat="30.879023987799883" lon="-4.405512968078256">
        <ele>763.60000000000002</ele>
        <time>2010-12-31T18:49:31Z</time>
      </trkpt>
      <trkpt lat="30.878901025280356" lon="-4.405558984726667">
        <ele>764.29999999999995</ele>
        <time>2010-12-31T18:49:33Z</time>
      </trkpt>
      <trkpt lat="30.878529958426952" lon="-4.405797030776739">
        <ele>765.60000000000002</ele>
        <time>2010-12-31T18:49:39Z</time>
      </trkpt>
      <trkpt lat="30.877883965149522" lon="-4.406447969377041">
        <ele>767</ele>
        <time>2010-12-31T18:49:50Z</time>
      </trkpt>
      <trkpt lat="30.877735018730164" lon="-4.406664976850152">
        <ele>767.70000000000005</ele>
        <time>2010-12-31T18:49:53Z</time>
      </trkpt>
      <trkpt lat="30.876990035176277" lon="-4.407769041135907">
        <ele>769.5</ele>
        <time>2010-12-31T18:50:07Z</time>
      </trkpt>
      <trkpt lat="30.87680596858263" lon="-4.407966015860438">
        <ele>769.89999999999998</ele>
        <time>2010-12-31T18:50:10Z</time>
      </trkpt>
      <trkpt lat="30.875911032781005" lon="-4.408900011330843">
        <ele>773.5</ele>
        <time>2010-12-31T18:50:25Z</time>
      </trkpt>
      <trkpt lat="30.87581698782742" lon="-4.409039989113808">
        <ele>773.5</ele>
        <time>2010-12-31T18:50:27Z</time>
      </trkpt>
      <trkpt lat="30.875298986211419" lon="-4.410316972061992">
        <ele>765.20000000000005</ele>
        <time>2010-12-31T18:50:43Z</time>
      </trkpt>
      <trkpt lat="30.875254981219769" lon="-4.410518975928426">
        <ele>764.39999999999998</ele>
        <time>2010-12-31T18:50:45Z</time>
      </trkpt>
      <trkpt lat="30.875242995098233" lon="-4.410625007003546">
        <ele>763.89999999999998</ele>
        <time>2010-12-31T18:50:46Z</time>
      </trkpt>
      <trkpt lat="30.875238971784711" lon="-4.410731960088015">
        <ele>763.79999999999995</ele>
        <time>2010-12-31T18:50:47Z</time>
      </trkpt>
      <trkpt lat="30.875254981219769" lon="-4.411032032221556">
        <ele>761.89999999999998</ele>
        <time>2010-12-31T18:50:50Z</time>
      </trkpt>
      <trkpt lat="30.875285994261503" lon="-4.411229006946087">
        <ele>760.89999999999998</ele>
        <time>2010-12-31T18:50:52Z</time>
      </trkpt>
      <trkpt lat="30.875335028395057" lon="-4.411426987498999">
        <ele>760.10000000000002</ele>
        <time>2010-12-31T18:50:54Z</time>
      </trkpt>
      <trkpt lat="30.875526973977685" lon="-4.412102987989783">
        <ele>756.10000000000002</ele>
        <time>2010-12-31T18:51:01Z</time>
      </trkpt>
      <trkpt lat="30.875542983412743" lon="-4.412211030721664">
        <ele>755.60000000000002</ele>
        <time>2010-12-31T18:51:02Z</time>
      </trkpt>
      <trkpt lat="30.875580031424761" lon="-4.412631969898939">
        <ele>756</ele>
        <time>2010-12-31T18:51:07Z</time>
      </trkpt>
      <trkpt lat="30.875585982576013" lon="-4.412764990702272">
        <ele>756.39999999999998</ele>
        <time>2010-12-31T18:51:09Z</time>
      </trkpt>
      <trkpt lat="30.87558195926249" lon="-4.412892982363701">
        <ele>756.89999999999998</ele>
        <time>2010-12-31T18:51:11Z</time>
      </trkpt>
      <trkpt lat="30.875549018383026" lon="-4.41299800761044">
        <ele>757.39999999999998</ele>
        <time>2010-12-31T18:51:13Z</time>
      </trkpt>
      <trkpt lat="30.87547198869288" lon="-4.413058022037149">
        <ele>757.89999999999998</ele>
        <time>2010-12-31T18:51:15Z</time>
      </trkpt>
      <trkpt lat="30.875361012294888" lon="-4.413090962916613">
        <ele>758.29999999999995</ele>
        <time>2010-12-31T18:51:17Z</time>
      </trkpt>
      <trkpt lat="30.874899001792073" lon="-4.413172015920281">
        <ele>755.39999999999998</ele>
        <time>2010-12-31T18:51:25Z</time>
      </trkpt>
      <trkpt lat="30.874696997925639" lon="-4.413264971226454">
        <ele>756.20000000000005</ele>
        <time>2010-12-31T18:51:29Z</time>
      </trkpt>
      <trkpt lat="30.874585015699267" lon="-4.4133420009166">
        <ele>756.70000000000005</ele>
        <time>2010-12-31T18:51:31Z</time>
      </trkpt>
      <trkpt lat="30.874503962695599" lon="-4.413436967879534">
        <ele>757.29999999999995</ele>
        <time>2010-12-31T18:51:33Z</time>
      </trkpt>
      <trkpt lat="30.874468004330993" lon="-4.413538975641131">
        <ele>757.29999999999995</ele>
        <time>2010-12-31T18:51:35Z</time>
      </trkpt>
      <trkpt lat="30.874442020431161" lon="-4.413644000887871">
        <ele>757</ele>
        <time>2010-12-31T18:51:37Z</time>
      </trkpt>
      <trkpt lat="30.87384195998311" lon="-4.41510396078229">
        <ele>759.39999999999998</ele>
        <time>2010-12-31T18:51:58Z</time>
      </trkpt>
      <trkpt lat="30.873779011890292" lon="-4.415221977978945">
        <ele>759.60000000000002</ele>
        <time>2010-12-31T18:52:00Z</time>
      </trkpt>
      <trkpt lat="30.873687984421849" lon="-4.415332032367587">
        <ele>760.10000000000002</ele>
        <time>2010-12-31T18:52:02Z</time>
      </trkpt>
      <trkpt lat="30.873510958626866" lon="-4.415465975180268">
        <ele>760.60000000000002</ele>
        <time>2010-12-31T18:52:05Z</time>
      </trkpt>
      <trkpt lat="30.873228991404176" lon="-4.415627997368574">
        <ele>758.79999999999995</ele>
        <time>2010-12-31T18:52:09Z</time>
      </trkpt>
      <trkpt lat="30.873078033328056" lon="-4.415699997916818">
        <ele>757.60000000000002</ele>
        <time>2010-12-31T18:52:11Z</time>
      </trkpt>
      <trkpt lat="30.872297007590532" lon="-4.416030999273062">
        <ele>756.60000000000002</ele>
        <time>2010-12-31T18:52:26Z</time>
      </trkpt>
      <trkpt lat="30.872194999828935" lon="-4.416081039234996">
        <ele>749.10000000000002</ele>
        <time>2010-12-31T18:52:44Z</time>
      </trkpt>
      <trkpt lat="30.871933987364173" lon="-4.416286982595921">
        <ele>749.60000000000002</ele>
        <time>2010-12-31T18:52:51Z</time>
      </trkpt>
      <trkpt lat="30.871430989354849" lon="-4.416601974517107">
        <ele>747.89999999999998</ele>
        <time>2010-12-31T18:53:01Z</time>
      </trkpt>
      <trkpt lat="30.871356977149844" lon="-4.416679004207254">
        <ele>748.5</ele>
        <time>2010-12-31T18:53:03Z</time>
      </trkpt>
      <trkpt lat="30.871147010475397" lon="-4.417010005563498">
        <ele>749.79999999999995</ele>
        <time>2010-12-31T18:53:09Z</time>
      </trkpt>
      <trkpt lat="30.871012983843684" lon="-4.417346036061645">
        <ele>749.10000000000002</ele>
        <time>2010-12-31T18:53:16Z</time>
      </trkpt>
      <trkpt lat="30.870963027700782" lon="-4.417433040216565">
        <ele>749.29999999999995</ele>
        <time>2010-12-31T18:53:18Z</time>
      </trkpt>
      <trkpt lat="30.870840987190604" lon="-4.417576035484672">
        <ele>748.5</ele>
        <time>2010-12-31T18:53:21Z</time>
      </trkpt>
      <trkpt lat="30.870751971378922" lon="-4.417647030204535">
        <ele>747.39999999999998</ele>
        <time>2010-12-31T18:53:23Z</time>
      </trkpt>
      <trkpt lat="30.870654992759228" lon="-4.417668990790844">
        <ele>746.39999999999998</ele>
        <time>2010-12-31T18:53:25Z</time>
      </trkpt>
      <trkpt lat="30.870517026633024" lon="-4.417692041024566">
        <ele>745</ele>
        <time>2010-12-31T18:53:28Z</time>
      </trkpt>
      <trkpt lat="30.870420970022678" lon="-4.417730011045933">
        <ele>745</ele>
        <time>2010-12-31T18:53:30Z</time>
      </trkpt>
      <trkpt lat="30.870274035260081" lon="-4.417835036292672">
        <ele>744.89999999999998</ele>
        <time>2010-12-31T18:53:33Z</time>
      </trkpt>
      <trkpt lat="30.870087035000324" lon="-4.417995968833566">
        <ele>746.20000000000005</ele>
        <time>2010-12-31T18:53:37Z</time>
      </trkpt>
      <trkpt lat="30.869581019505858" lon="-4.418330993503332">
        <ele>749.29999999999995</ele>
        <time>2010-12-31T18:53:45Z</time>
      </trkpt>
      <trkpt lat="30.866940971463919" lon="-4.420300992205739">
        <ele>753.5</ele>
        <time>2010-12-31T18:54:20Z</time>
      </trkpt>
      <trkpt lat="30.866722958162427" lon="-4.420424038544297">
        <ele>752.20000000000005</ele>
        <time>2010-12-31T18:54:23Z</time>
      </trkpt>
      <trkpt lat="30.866453982889652" lon="-4.420562004670501">
        <ele>751.20000000000005</ele>
        <time>2010-12-31T18:54:27Z</time>
      </trkpt>
      <trkpt lat="30.86589097045362" lon="-4.42101001739502">
        <ele>752.70000000000005</ele>
        <time>2010-12-31T18:54:36Z</time>
      </trkpt>
      <trkpt lat="30.865588970482349" lon="-4.421201040968299">
        <ele>753.79999999999995</ele>
        <time>2010-12-31T18:54:41Z</time>
      </trkpt>
      <trkpt lat="30.864046029746532" lon="-4.422049038112164">
        <ele>742.70000000000005</ele>
        <time>2010-12-31T18:55:00Z</time>
      </trkpt>
      <trkpt lat="30.863960031419992" lon="-4.422083990648389">
        <ele>742.29999999999995</ele>
        <time>2010-12-31T18:55:01Z</time>
      </trkpt>
      <trkpt lat="30.863597011193633" lon="-4.42219496704638">
        <ele>740.60000000000002</ele>
        <time>2010-12-31T18:55:05Z</time>
      </trkpt>
      <trkpt lat="30.863409005105495" lon="-4.422238972038031">
        <ele>740</ele>
        <time>2010-12-31T18:55:07Z</time>
      </trkpt>
      <trkpt lat="30.863314960151911" lon="-4.422252969816327">
        <ele>739.89999999999998</ele>
        <time>2010-12-31T18:55:08Z</time>
      </trkpt>
      <trkpt lat="30.863220999017358" lon="-4.422261016443372">
        <ele>739.60000000000002</ele>
        <time>2010-12-31T18:55:09Z</time>
      </trkpt>
      <trkpt lat="30.863126032054424" lon="-4.422263028100133">
        <ele>739.5</ele>
        <time>2010-12-31T18:55:10Z</time>
      </trkpt>
      <trkpt lat="30.862299995496869" lon="-4.422178035601974">
        <ele>739.39999999999998</ele>
        <time>2010-12-31T18:55:18Z</time>
      </trkpt>
      <trkpt lat="30.860438961535692" lon="-4.421987012028694">
        <ele>735.89999999999998</ele>
        <time>2010-12-31T18:55:34Z</time>
      </trkpt>
      <trkpt lat="30.86032697930932" lon="-4.421996986493468">
        <ele>735.60000000000002</ele>
        <time>2010-12-31T18:55:35Z</time>
      </trkpt>
      <trkpt lat="30.86011097766459" lon="-4.422032022848725">
        <ele>734.79999999999995</ele>
        <time>2010-12-31T18:55:37Z</time>
      </trkpt>
      <trkpt lat="30.860004024580121" lon="-4.422059012576938">
        <ele>734.39999999999998</ele>
        <time>2010-12-31T18:55:38Z</time>
      </trkpt>
      <trkpt lat="30.859898999333382" lon="-4.422092959284782">
        <ele>734.29999999999995</ele>
        <time>2010-12-31T18:55:39Z</time>
      </trkpt>
      <trkpt lat="30.859112022444606" lon="-4.422476012259722">
        <ele>733.5</ele>
        <time>2010-12-31T18:55:47Z</time>
      </trkpt>
      <trkpt lat="30.85351500660181" lon="-4.425399033352733">
        <ele>738.20000000000005</ele>
        <time>2010-12-31T18:56:44Z</time>
      </trkpt>
      <trkpt lat="30.8534050360322" lon="-4.425482014194131">
        <ele>737.89999999999998</ele>
        <time>2010-12-31T18:56:45Z</time>
      </trkpt>
      <trkpt lat="30.852341959252954" lon="-4.426262034103274">
        <ele>738.60000000000002</ele>
        <time>2010-12-31T18:56:55Z</time>
      </trkpt>
      <trkpt lat="30.849805008620024" lon="-4.42801795899868">
        <ele>734.5</ele>
        <time>2010-12-31T18:57:19Z</time>
      </trkpt>
      <trkpt lat="30.849691014736891" lon="-4.428083002567291">
        <ele>734.10000000000002</ele>
        <time>2010-12-31T18:57:20Z</time>
      </trkpt>
      <trkpt lat="30.84751901216805" lon="-4.429309023544192">
        <ele>737.10000000000002</ele>
        <time>2010-12-31T18:57:39Z</time>
      </trkpt>
      <trkpt lat="30.847421027719975" lon="-4.429389992728829">
        <ele>737.10000000000002</ele>
        <time>2010-12-31T18:57:40Z</time>
      </trkpt>
      <trkpt lat="30.847135037183762" lon="-4.429659973829985">
        <ele>738.10000000000002</ele>
        <time>2010-12-31T18:57:43Z</time>
      </trkpt>
      <trkpt lat="30.846959017217159" lon="-4.429872035980225">
        <ele>739.29999999999995</ele>
        <time>2010-12-31T18:57:45Z</time>
      </trkpt>
      <trkpt lat="30.846876036375761" lon="-4.429981000721455">
        <ele>739.79999999999995</ele>
        <time>2010-12-31T18:57:46Z</time>
      </trkpt>
      <trkpt lat="30.845218012109399" lon="-4.431844968348742">
        <ele>749.60000000000002</ele>
        <time>2010-12-31T18:58:08Z</time>
      </trkpt>
      <trkpt lat="30.844432963058352" lon="-4.432596992701292">
        <ele>752.10000000000002</ele>
        <time>2010-12-31T18:58:17Z</time>
      </trkpt>
      <trkpt lat="30.844352999702096" lon="-4.43269900046289">
        <ele>752.20000000000005</ele>
        <time>2010-12-31T18:58:18Z</time>
      </trkpt>
      <trkpt lat="30.843825023621321" lon="-4.43338698707521">
        <ele>754</ele>
        <time>2010-12-31T18:58:25Z</time>
      </trkpt>
      <trkpt lat="30.843741036951542" lon="-4.433474997058511">
        <ele>754.20000000000005</ele>
        <time>2010-12-31T18:58:26Z</time>
      </trkpt>
      <trkpt lat="30.842821961268783" lon="-4.434359036386013">
        <ele>755.70000000000005</ele>
        <time>2010-12-31T18:58:36Z</time>
      </trkpt>
      <trkpt lat="30.842725988477468" lon="-4.43444000557065">
        <ele>755.79999999999995</ele>
        <time>2010-12-31T18:58:37Z</time>
      </trkpt>
      <trkpt lat="30.84167699329555" lon="-4.435216002166271">
        <ele>751.70000000000005</ele>
        <time>2010-12-31T18:58:48Z</time>
      </trkpt>
      <trkpt lat="30.841576997190714" lon="-4.435285991057754">
        <ele>750.29999999999995</ele>
        <time>2010-12-31T18:58:49Z</time>
      </trkpt>
      <trkpt lat="30.841257981956005" lon="-4.435485983267427">
        <ele>746.5</ele>
        <time>2010-12-31T18:58:52Z</time>
      </trkpt>
      <trkpt lat="30.840118965134025" lon="-4.436130970716476">
        <ele>740.29999999999995</ele>
        <time>2010-12-31T18:59:04Z</time>
      </trkpt>
      <trkpt lat="30.84004302509129" lon="-4.436196014285088">
        <ele>739.20000000000005</ele>
        <time>2010-12-31T18:59:05Z</time>
      </trkpt>
      <trkpt lat="30.839970018714666" lon="-4.436269020661712">
        <ele>739.5</ele>
        <time>2010-12-31T18:59:06Z</time>
      </trkpt>
      <trkpt lat="30.83961202763021" lon="-4.436662970110774">
        <ele>740</ele>
        <time>2010-12-31T18:59:11Z</time>
      </trkpt>
      <trkpt lat="30.83952896296978" lon="-4.436724996194243">
        <ele>739</ele>
        <time>2010-12-31T18:59:12Z</time>
      </trkpt>
      <trkpt lat="30.835912004113197" lon="-4.439541986212134">
        <ele>721.60000000000002</ele>
        <time>2010-12-31T18:59:58Z</time>
      </trkpt>
      <trkpt lat="30.835828017443419" lon="-4.439586997032166">
        <ele>721.20000000000005</ele>
        <time>2010-12-31T18:59:59Z</time>
      </trkpt>
      <trkpt lat="30.834546005353332" lon="-4.440316976979375">
        <ele>717</ele>
        <time>2010-12-31T19:00:14Z</time>
      </trkpt>
      <trkpt lat="30.834202012047172" lon="-4.440429965034127">
        <ele>717.10000000000002</ele>
        <time>2010-12-31T19:00:19Z</time>
      </trkpt>
      <trkpt lat="30.834062034264207" lon="-4.440513029694557">
        <ele>718.89999999999998</ele>
        <time>2010-12-31T19:00:21Z</time>
      </trkpt>
      <trkpt lat="30.833909986540675" lon="-4.440636998042464">
        <ele>720.29999999999995</ele>
        <time>2010-12-31T19:00:23Z</time>
      </trkpt>
      <trkpt lat="30.833665989339352" lon="-4.44084101356566">
        <ele>720.60000000000002</ele>
        <time>2010-12-31T19:00:26Z</time>
      </trkpt>
      <trkpt lat="30.833586025983095" lon="-4.440892981365323">
        <ele>720.20000000000005</ele>
        <time>2010-12-31T19:00:27Z</time>
      </trkpt>
      <trkpt lat="30.833448981866241" lon="-4.440987026318908">
        <ele>719.5</ele>
        <time>2010-12-31T19:00:29Z</time>
      </trkpt>
      <trkpt lat="30.833319984376431" lon="-4.441162962466478">
        <ele>720.60000000000002</ele>
        <time>2010-12-31T19:00:32Z</time>
      </trkpt>
      <trkpt lat="30.833200961351395" lon="-4.441261030733585">
        <ele>722.20000000000005</ele>
        <time>2010-12-31T19:00:34Z</time>
      </trkpt>
      <trkpt lat="30.833029970526695" lon="-4.441341999918222">
        <ele>724</ele>
        <time>2010-12-31T19:00:37Z</time>
      </trkpt>
      <trkpt lat="30.832793014124036" lon="-4.441460017114878">
        <ele>728.5</ele>
        <time>2010-12-31T19:00:42Z</time>
      </trkpt>
      <trkpt lat="30.832674996927381" lon="-4.441541992127895">
        <ele>729.70000000000005</ele>
        <time>2010-12-31T19:00:44Z</time>
      </trkpt>
      <trkpt lat="30.832558991387486" lon="-4.44165900349617">
        <ele>730.79999999999995</ele>
        <time>2010-12-31T19:00:46Z</time>
      </trkpt>
      <trkpt lat="30.832146015018225" lon="-4.442261997610331">
        <ele>734.60000000000002</ele>
        <time>2010-12-31T19:00:54Z</time>
      </trkpt>
      <trkpt lat="30.832019029185176" lon="-4.442388983443379">
        <ele>732.70000000000005</ele>
        <time>2010-12-31T19:00:56Z</time>
      </trkpt>
      <trkpt lat="30.831868993118405" lon="-4.442487973719835">
        <ele>730.89999999999998</ele>
        <time>2010-12-31T19:00:58Z</time>
      </trkpt>
      <trkpt lat="30.831719962880015" lon="-4.442563997581601">
        <ele>729.39999999999998</ele>
        <time>2010-12-31T19:01:00Z</time>
      </trkpt>
      <trkpt lat="30.831569004803896" lon="-4.442626023665071">
        <ele>728</ele>
        <time>2010-12-31T19:01:02Z</time>
      </trkpt>
      <trkpt lat="30.829392978921533" lon="-4.443533029407263">
        <ele>730.39999999999998</ele>
        <time>2010-12-31T19:01:25Z</time>
      </trkpt>
      <trkpt lat="30.829311003908515" lon="-4.443589020520449">
        <ele>729.39999999999998</ele>
        <time>2010-12-31T19:01:26Z</time>
      </trkpt>
      <trkpt lat="30.829234980046749" lon="-4.443648029118776">
        <ele>728.5</ele>
        <time>2010-12-31T19:01:27Z</time>
      </trkpt>
      <trkpt lat="30.829101037234068" lon="-4.443783983588219">
        <ele>727.89999999999998</ele>
        <time>2010-12-31T19:01:29Z</time>
      </trkpt>
      <trkpt lat="30.82904202863574" lon="-4.443863024935126">
        <ele>728.29999999999995</ele>
        <time>2010-12-31T19:01:30Z</time>
      </trkpt>
      <trkpt lat="30.828988971188664" lon="-4.443948017433286">
        <ele>728.70000000000005</ele>
        <time>2010-12-31T19:01:31Z</time>
      </trkpt>
      <trkpt lat="30.828704992309213" lon="-4.44449401460588">
        <ele>731.79999999999995</ele>
        <time>2010-12-31T19:01:37Z</time>
      </trkpt>
      <trkpt lat="30.828651012852788" lon="-4.444673974066973">
        <ele>730.39999999999998</ele>
        <time>2010-12-31T19:01:39Z</time>
      </trkpt>
      <trkpt lat="30.828595021739602" lon="-4.445067001506686">
        <ele>726.79999999999995</ele>
        <time>2010-12-31T19:01:43Z</time>
      </trkpt>
      <trkpt lat="30.828514974564314" lon="-4.445230029523373">
        <ele>727.5</ele>
        <time>2010-12-31T19:01:45Z</time>
      </trkpt>
      <trkpt lat="30.828406009823084" lon="-4.44537696428597">
        <ele>728.79999999999995</ele>
        <time>2010-12-31T19:01:47Z</time>
      </trkpt>
      <trkpt lat="30.828294027596712" lon="-4.44550596177578">
        <ele>730.89999999999998</ele>
        <time>2010-12-31T19:01:49Z</time>
      </trkpt>
      <trkpt lat="30.827940981835127" lon="-4.445780972018838">
        <ele>736</ele>
        <time>2010-12-31T19:01:55Z</time>
      </trkpt>
      <trkpt lat="30.827875016257167" lon="-4.445863030850887">
        <ele>736.70000000000005</ele>
        <time>2010-12-31T19:01:57Z</time>
      </trkpt>
      <trkpt lat="30.827846014872193" lon="-4.445995967835188">
        <ele>735.39999999999998</ele>
        <time>2010-12-31T19:02:00Z</time>
      </trkpt>
      <trkpt lat="30.827893959358335" lon="-4.44608498364687">
        <ele>731.89999999999998</ele>
        <time>2010-12-31T19:02:02Z</time>
      </trkpt>
      <trkpt lat="30.827954979613423" lon="-4.446172993630171">
        <ele>728.79999999999995</ele>
        <time>2010-12-31T19:02:04Z</time>
      </trkpt>
      <trkpt lat="30.827982975170016" lon="-4.446305008605123">
        <ele>726.89999999999998</ele>
        <time>2010-12-31T19:02:06Z</time>
      </trkpt>
      <trkpt lat="30.82794701680541" lon="-4.447035994380713">
        <ele>724.29999999999995</ele>
        <time>2010-12-31T19:02:17Z</time>
      </trkpt>
      <trkpt lat="30.827909968793392" lon="-4.44718100130558">
        <ele>724.29999999999995</ele>
        <time>2010-12-31T19:02:19Z</time>
      </trkpt>
      <trkpt lat="30.827853977680206" lon="-4.447273034602404">
        <ele>724.29999999999995</ele>
        <time>2010-12-31T19:02:21Z</time>
      </trkpt>
      <trkpt lat="30.82766898907721" lon="-4.447446959093213">
        <ele>724.60000000000002</ele>
        <time>2010-12-31T19:02:25Z</time>
      </trkpt>
      <trkpt lat="30.827523982152343" lon="-4.447637982666493">
        <ele>725.10000000000002</ele>
        <time>2010-12-31T19:02:28Z</time>
      </trkpt>
      <trkpt lat="30.827447958290577" lon="-4.447787012904882">
        <ele>725.79999999999995</ele>
        <time>2010-12-31T19:02:30Z</time>
      </trkpt>
      <trkpt lat="30.82736698910594" lon="-4.448011983186007">
        <ele>726.5</ele>
        <time>2010-12-31T19:02:33Z</time>
      </trkpt>
      <trkpt lat="30.82706599496305" lon="-4.448806000873447">
        <ele>720</ele>
        <time>2010-12-31T19:02:45Z</time>
      </trkpt>
      <trkpt lat="30.826796013861895" lon="-4.449091991409659">
        <ele>709.10000000000002</ele>
        <time>2010-12-31T19:02:53Z</time>
      </trkpt>
      <trkpt lat="30.826596021652222" lon="-4.449376976117492">
        <ele>700.89999999999998</ele>
        <time>2010-12-31T19:02:58Z</time>
      </trkpt>
      <trkpt lat="30.826440034434199" lon="-4.449699008837342">
        <ele>693.70000000000005</ele>
        <time>2010-12-31T19:03:03Z</time>
      </trkpt>
      <trkpt lat="30.826166030019522" lon="-4.450816987082362">
        <ele>671.70000000000005</ele>
        <time>2010-12-31T19:03:26Z</time>
      </trkpt>
      <trkpt lat="30.82612001337111" lon="-4.450935004279017">
        <ele>668.29999999999995</ele>
        <time>2010-12-31T19:03:30Z</time>
      </trkpt>
      <trkpt lat="30.825714999809861" lon="-4.451846033334732">
        <ele>659.29999999999995</ele>
        <time>2010-12-31T19:03:46Z</time>
      </trkpt>
      <trkpt lat="30.825634030625224" lon="-4.451976036652923">
        <ele>657.89999999999998</ele>
        <time>2010-12-31T19:03:48Z</time>
      </trkpt>
      <trkpt lat="30.825448036193848" lon="-4.452182985842228">
        <ele>657.5</ele>
        <time>2010-12-31T19:03:52Z</time>
      </trkpt>
      <trkpt lat="30.825374023988843" lon="-4.452323969453573">
        <ele>659.89999999999998</ele>
        <time>2010-12-31T19:03:54Z</time>
      </trkpt>
      <trkpt lat="30.825288025662303" lon="-4.452523961663246">
        <ele>663.20000000000005</ele>
        <time>2010-12-31T19:03:57Z</time>
      </trkpt>
      <trkpt lat="30.825116029009223" lon="-4.452769970521331">
        <ele>663.70000000000005</ele>
        <time>2010-12-31T19:04:03Z</time>
      </trkpt>
      <trkpt lat="30.825037993490696" lon="-4.452822022140026">
        <ele>662.79999999999995</ele>
        <time>2010-12-31T19:04:05Z</time>
      </trkpt>
      <trkpt lat="30.824935985729098" lon="-4.452827973291278">
        <ele>664.70000000000005</ele>
        <time>2010-12-31T19:04:07Z</time>
      </trkpt>
      <trkpt lat="30.824397029355168" lon="-4.452733006328344">
        <ele>667.89999999999998</ele>
        <time>2010-12-31T19:04:16Z</time>
      </trkpt>
      <trkpt lat="30.824025040492415" lon="-4.452583976089954">
        <ele>670.5</ele>
        <time>2010-12-31T19:04:22Z</time>
      </trkpt>
      <trkpt lat="30.823708958923817" lon="-4.452460007742047">
        <ele>674.39999999999998</ele>
        <time>2010-12-31T19:04:28Z</time>
      </trkpt>
      <trkpt lat="30.823209984228015" lon="-4.452395970001817">
        <ele>671.29999999999995</ele>
        <time>2010-12-31T19:04:35Z</time>
      </trkpt>
      <trkpt lat="30.82296296954155" lon="-4.452394964173436">
        <ele>670.29999999999995</ele>
        <time>2010-12-31T19:04:38Z</time>
      </trkpt>
      <trkpt lat="30.822386965155602" lon="-4.452410973608494">
        <ele>669.10000000000002</ele>
        <time>2010-12-31T19:04:46Z</time>
      </trkpt>
      <trkpt lat="30.822245981544256" lon="-4.452391024678946">
        <ele>668.89999999999998</ele>
        <time>2010-12-31T19:04:48Z</time>
      </trkpt>
      <trkpt lat="30.82210298627615" lon="-4.452340984717012">
        <ele>668.70000000000005</ele>
        <time>2010-12-31T19:04:50Z</time>
      </trkpt>
      <trkpt lat="30.821968037635088" lon="-4.452258003875613">
        <ele>669.29999999999995</ele>
        <time>2010-12-31T19:04:52Z</time>
      </trkpt>
      <trkpt lat="30.820951983332634" lon="-4.451572028920054">
        <ele>673.29999999999995</ele>
        <time>2010-12-31T19:05:08Z</time>
      </trkpt>
      <trkpt lat="30.820603966712952" lon="-4.451424004510045">
        <ele>673.29999999999995</ele>
        <time>2010-12-31T19:05:13Z</time>
      </trkpt>
      <trkpt lat="30.820009019225836" lon="-4.451358960941434">
        <ele>669.89999999999998</ele>
        <time>2010-12-31T19:05:23Z</time>
      </trkpt>
      <trkpt lat="30.819764016196132" lon="-4.451333982869983">
        <ele>669.79999999999995</ele>
        <time>2010-12-31T19:05:27Z</time>
      </trkpt>
      <trkpt lat="30.819212989881635" lon="-4.451247984543443">
        <ele>669.70000000000005</ele>
        <time>2010-12-31T19:05:35Z</time>
      </trkpt>
      <trkpt lat="30.819077035412192" lon="-4.451201967895031">
        <ele>669.5</ele>
        <time>2010-12-31T19:05:37Z</time>
      </trkpt>
      <trkpt lat="30.814494984224439" lon="-4.449635976925492">
        <ele>662</ele>
        <time>2010-12-31T19:06:29Z</time>
      </trkpt>
      <trkpt lat="30.814406974241138" lon="-4.449587026610971">
        <ele>662.79999999999995</ele>
        <time>2010-12-31T19:06:30Z</time>
      </trkpt>
      <trkpt lat="30.814156020060182" lon="-4.449451994150877">
        <ele>663.5</ele>
        <time>2010-12-31T19:06:33Z</time>
      </trkpt>
      <trkpt lat="30.813986035063863" lon="-4.449397008866072">
        <ele>663.79999999999995</ele>
        <time>2010-12-31T19:06:35Z</time>
      </trkpt>
      <trkpt lat="30.811257977038622" lon="-4.448714973405004">
        <ele>657.79999999999995</ele>
        <time>2010-12-31T19:07:09Z</time>
      </trkpt>
      <trkpt lat="30.810304032638669" lon="-4.44829797372222">
        <ele>663.39999999999998</ele>
        <time>2010-12-31T19:07:21Z</time>
      </trkpt>
      <trkpt lat="30.810213005170226" lon="-4.448278024792671">
        <ele>663.79999999999995</ele>
        <time>2010-12-31T19:07:22Z</time>
      </trkpt>
      <trkpt lat="30.809854008257389" lon="-4.448223961517215">
        <ele>664</ele>
        <time>2010-12-31T19:07:26Z</time>
      </trkpt>
      <trkpt lat="30.809703972190619" lon="-4.448223039507866">
        <ele>663.60000000000002</ele>
        <time>2010-12-31T19:07:28Z</time>
      </trkpt>
      <trkpt lat="30.809543961659074" lon="-4.44827601313591">
        <ele>662.39999999999998</ele>
        <time>2010-12-31T19:07:30Z</time>
      </trkpt>
      <trkpt lat="30.809386968612671" lon="-4.448381038382649">
        <ele>661</ele>
        <time>2010-12-31T19:07:32Z</time>
      </trkpt>
      <trkpt lat="30.809261994436383" lon="-4.44851104170084">
        <ele>659.70000000000005</ele>
        <time>2010-12-31T19:07:34Z</time>
      </trkpt>
      <trkpt lat="30.809136014431715" lon="-4.448712961748242">
        <ele>658.10000000000002</ele>
        <time>2010-12-31T19:07:37Z</time>
      </trkpt>
      <trkpt lat="30.808994024991989" lon="-4.449040023609996">
        <ele>656.5</ele>
        <time>2010-12-31T19:07:42Z</time>
      </trkpt>
      <trkpt lat="30.808893023058772" lon="-4.449300030246377">
        <ele>655.39999999999998</ele>
        <time>2010-12-31T19:07:46Z</time>
      </trkpt>
      <trkpt lat="30.808824962005019" lon="-4.449417963624001">
        <ele>654.70000000000005</ele>
        <time>2010-12-31T19:07:48Z</time>
      </trkpt>
      <trkpt lat="30.808392036706209" lon="-4.449990028515458">
        <ele>651.29999999999995</ele>
        <time>2010-12-31T19:07:58Z</time>
      </trkpt>
      <trkpt lat="30.808275025337934" lon="-4.450084995478392">
        <ele>650.70000000000005</ele>
        <time>2010-12-31T19:08:00Z</time>
      </trkpt>
      <trkpt lat="30.808136975392699" lon="-4.450158001855016">
        <ele>650.29999999999995</ele>
        <time>2010-12-31T19:08:02Z</time>
      </trkpt>
      <trkpt lat="30.807980988174677" lon="-4.45020804181695">
        <ele>650.20000000000005</ele>
        <time>2010-12-31T19:08:04Z</time>
      </trkpt>
      <trkpt lat="30.807625008746982" lon="-4.450281970202923">
        <ele>649.5</ele>
        <time>2010-12-31T19:08:09Z</time>
      </trkpt>
      <trkpt lat="30.807388974353671" lon="-4.450453966856003">
        <ele>647</ele>
        <time>2010-12-31T19:08:13Z</time>
      </trkpt>
      <trkpt lat="30.807250002399087" lon="-4.450501995161176">
        <ele>645.89999999999998</ele>
        <time>2010-12-31T19:08:15Z</time>
      </trkpt>
      <trkpt lat="30.807035006582737" lon="-4.45055496878922">
        <ele>644.39999999999998</ele>
        <time>2010-12-31T19:08:18Z</time>
      </trkpt>
      <trkpt lat="30.806907014921308" lon="-4.450621018186212">
        <ele>643.5</ele>
        <time>2010-12-31T19:08:20Z</time>
      </trkpt>
      <trkpt lat="30.806792015209794" lon="-4.450711039826274">
        <ele>642.60000000000002</ele>
        <time>2010-12-31T19:08:22Z</time>
      </trkpt>
      <trkpt lat="30.806273007765412" lon="-4.451428027823567">
        <ele>641.5</ele>
        <time>2010-12-31T19:08:36Z</time>
      </trkpt>
      <trkpt lat="30.805561970919371" lon="-4.452241994440556">
        <ele>642.60000000000002</ele>
        <time>2010-12-31T19:08:56Z</time>
      </trkpt>
      <trkpt lat="30.805507991462946" lon="-4.45233897306025">
        <ele>642.5</ele>
        <time>2010-12-31T19:08:59Z</time>
      </trkpt>
      <trkpt lat="30.80547203309834" lon="-4.452455984428525">
        <ele>640.70000000000005</ele>
        <time>2010-12-31T19:09:02Z</time>
      </trkpt>
      <trkpt lat="30.805378993973136" lon="-4.452667962759733">
        <ele>640.89999999999998</ele>
        <time>2010-12-31T19:09:07Z</time>
      </trkpt>
      <trkpt lat="30.805310010910034" lon="-4.453020002692938">
        <ele>648.10000000000002</ele>
        <time>2010-12-31T19:09:13Z</time>
      </trkpt>
      <trkpt lat="30.80521596595645" lon="-4.453252013772726">
        <ele>650.39999999999998</ele>
        <time>2010-12-31T19:09:18Z</time>
      </trkpt>
      <trkpt lat="30.805200962349772" lon="-4.453372964635491">
        <ele>650.29999999999995</ele>
        <time>2010-12-31T19:09:20Z</time>
      </trkpt>
      <trkpt lat="30.805213032290339" lon="-4.453512020409107">
        <ele>650.39999999999998</ele>
        <time>2010-12-31T19:09:22Z</time>
      </trkpt>
      <trkpt lat="30.805205991491675" lon="-4.45364504121244">
        <ele>650.79999999999995</ele>
        <time>2010-12-31T19:09:24Z</time>
      </trkpt>
      <trkpt lat="30.805189982056618" lon="-4.45375400595367">
        <ele>650.60000000000002</ele>
        <time>2010-12-31T19:09:26Z</time>
      </trkpt>
      <trkpt lat="30.80508696846664" lon="-4.45384000428021">
        <ele>649.79999999999995</ele>
        <time>2010-12-31T19:09:29Z</time>
      </trkpt>
      <trkpt lat="30.804963000118732" lon="-4.453891972079873">
        <ele>649</ele>
        <time>2010-12-31T19:09:32Z</time>
      </trkpt>
      <trkpt lat="30.804889993742108" lon="-4.454022981226444">
        <ele>648.10000000000002</ele>
        <time>2010-12-31T19:09:35Z</time>
      </trkpt>
      <trkpt lat="30.804685978218913" lon="-4.454080983996391">
        <ele>648</ele>
        <time>2010-12-31T19:09:40Z</time>
      </trkpt>
      <trkpt lat="30.804565027356148" lon="-4.454152984544635">
        <ele>646.70000000000005</ele>
        <time>2010-12-31T19:09:43Z</time>
      </trkpt>
      <trkpt lat="30.804461007937789" lon="-4.454165976494551">
        <ele>645.79999999999995</ele>
        <time>2010-12-31T19:09:45Z</time>
      </trkpt>
      <trkpt lat="30.804366040974855" lon="-4.454154996201396">
        <ele>649.29999999999995</ele>
        <time>2010-12-31T19:09:47Z</time>
      </trkpt>
      <trkpt lat="30.80424701794982" lon="-4.454177962616086">
        <ele>648.29999999999995</ele>
        <time>2010-12-31T19:09:50Z</time>
      </trkpt>
      <trkpt lat="30.804073009639978" lon="-4.454173017293215">
        <ele>650.5</ele>
        <time>2010-12-31T19:09:54Z</time>
      </trkpt>
      <trkpt lat="30.803975025191903" lon="-4.454166982322931">
        <ele>653.10000000000002</ele>
        <time>2010-12-31T19:09:56Z</time>
      </trkpt>
      <trkpt lat="30.803877962753177" lon="-4.45418399758637">
        <ele>652.70000000000005</ele>
        <time>2010-12-31T19:09:58Z</time>
      </trkpt>
      <trkpt lat="30.803788024932146" lon="-4.454234037548304">
        <ele>651.79999999999995</ele>
        <time>2010-12-31T19:10:00Z</time>
      </trkpt>
      <trkpt lat="30.803677970543504" lon="-4.454300003126264">
        <ele>650.60000000000002</ele>
        <time>2010-12-31T19:10:03Z</time>
      </trkpt>
      <trkpt lat="30.80356196500361" lon="-4.454329004511237">
        <ele>649</ele>
        <time>2010-12-31T19:10:06Z</time>
      </trkpt>
      <trkpt lat="30.803402038291097" lon="-4.454424977302551">
        <ele>647</ele>
        <time>2010-12-31T19:10:10Z</time>
      </trkpt>
      <trkpt lat="30.803315034136176" lon="-4.454453978687525">
        <ele>646.10000000000002</ele>
        <time>2010-12-31T19:10:12Z</time>
      </trkpt>
      <trkpt lat="30.803184024989605" lon="-4.454448027536273">
        <ele>645.89999999999998</ele>
        <time>2010-12-31T19:10:15Z</time>
      </trkpt>
      <trkpt lat="30.803096015006304" lon="-4.454423971474171">
        <ele>646.10000000000002</ele>
        <time>2010-12-31T19:10:17Z</time>
      </trkpt>
      <trkpt lat="30.802840031683445" lon="-4.454295979812741">
        <ele>649.20000000000005</ele>
        <time>2010-12-31T19:10:23Z</time>
      </trkpt>
      <trkpt lat="30.802301997318864" lon="-4.454216016456485">
        <ele>657.79999999999995</ele>
        <time>2010-12-31T19:10:36Z</time>
      </trkpt>
      <trkpt lat="30.802128994837403" lon="-4.454136975109577">
        <ele>657</ele>
        <time>2010-12-31T19:10:45Z</time>
      </trkpt>
      <trkpt lat="30.802004020661116" lon="-4.454038990661502">
        <ele>658</ele>
        <time>2010-12-31T19:11:00Z</time>
      </trkpt>
      <trkpt lat="30.801878962665796" lon="-4.453924996778369">
        <ele>658.39999999999998</ele>
        <time>2010-12-31T19:11:05Z</time>
      </trkpt>
      <trkpt lat="30.801537986844778" lon="-4.453573962673545">
        <ele>662.10000000000002</ele>
        <time>2010-12-31T19:11:16Z</time>
      </trkpt>
      <trkpt lat="30.801210002973676" lon="-4.453312028199434">
        <ele>663.5</ele>
        <time>2010-12-31T19:11:29Z</time>
      </trkpt>
      <trkpt lat="30.801170021295547" lon="-4.453176995739341">
        <ele>667.39999999999998</ele>
        <time>2010-12-31T19:11:43Z</time>
      </trkpt>
      <trkpt lat="30.801250990480185" lon="-4.453234998509288">
        <ele>664.29999999999995</ele>
        <time>2010-12-31T19:11:46Z</time>
      </trkpt>
      <trkpt lat="30.801318967714906" lon="-4.453357039019465">
        <ele>661.89999999999998</ele>
        <time>2010-12-31T19:11:49Z</time>
      </trkpt>
      <trkpt lat="30.801376970484853" lon="-4.453438008204103">
        <ele>660.60000000000002</ele>
        <time>2010-12-31T19:11:51Z</time>
      </trkpt>
      <trkpt lat="30.801742002367973" lon="-4.453737996518612">
        <ele>655.29999999999995</ele>
        <time>2010-12-31T19:11:59Z</time>
      </trkpt>
      <trkpt lat="30.801892960444093" lon="-4.453901024535298">
        <ele>652.89999999999998</ele>
        <time>2010-12-31T19:12:03Z</time>
      </trkpt>
      <trkpt lat="30.802082978188992" lon="-4.454049970954657">
        <ele>651.20000000000005</ele>
        <time>2010-12-31T19:12:08Z</time>
      </trkpt>
      <trkpt lat="30.802197977900505" lon="-4.454108979552984">
        <ele>649.70000000000005</ele>
        <time>2010-12-31T19:12:11Z</time>
      </trkpt>
      <trkpt lat="30.802324041724205" lon="-4.4541409984231">
        <ele>648.60000000000002</ele>
        <time>2010-12-31T19:12:14Z</time>
      </trkpt>
      <trkpt lat="30.802469970658422" lon="-4.454210987314582">
        <ele>647.5</ele>
        <time>2010-12-31T19:12:18Z</time>
      </trkpt>
      <trkpt lat="30.802654959261417" lon="-4.454329004511237">
        <ele>644.89999999999998</ele>
        <time>2010-12-31T19:12:24Z</time>
      </trkpt>
      <trkpt lat="30.80276601947844" lon="-4.454360017552972">
        <ele>644.79999999999995</ele>
        <time>2010-12-31T19:12:27Z</time>
      </trkpt>
      <trkpt lat="30.802857968956232" lon="-4.454375021159649">
        <ele>643.89999999999998</ele>
        <time>2010-12-31T19:12:30Z</time>
      </trkpt>
      <trkpt lat="30.802987972274423" lon="-4.454424977302551">
        <ele>642.29999999999995</ele>
        <time>2010-12-31T19:12:34Z</time>
      </trkpt>
      <trkpt lat="30.803117975592613" lon="-4.454413997009397">
        <ele>640.60000000000002</ele>
        <time>2010-12-31T19:12:38Z</time>
      </trkpt>
      <trkpt lat="30.803225012496114" lon="-4.45442195981741">
        <ele>639.70000000000005</ele>
        <time>2010-12-31T19:12:41Z</time>
      </trkpt>
      <trkpt lat="30.80332500860095" lon="-4.454401005059481">
        <ele>638.79999999999995</ele>
        <time>2010-12-31T19:12:44Z</time>
      </trkpt>
      <trkpt lat="30.803484013304114" lon="-4.454323975369334">
        <ele>639.29999999999995</ele>
        <time>2010-12-31T19:12:49Z</time>
      </trkpt>
      <trkpt lat="30.803606975823641" lon="-4.454272007569671">
        <ele>643.39999999999998</ele>
        <time>2010-12-31T19:12:54Z</time>
      </trkpt>
      <trkpt lat="30.803719041869044" lon="-4.454246023669839">
        <ele>645.20000000000005</ele>
        <time>2010-12-31T19:12:57Z</time>
      </trkpt>
      <trkpt lat="30.80381702631712" lon="-4.454172011464834">
        <ele>646.70000000000005</ele>
        <time>2010-12-31T19:13:00Z</time>
      </trkpt>
      <trkpt lat="30.803944012150168" lon="-4.454124988988042">
        <ele>647.5</ele>
        <time>2010-12-31T19:13:03Z</time>
      </trkpt>
      <trkpt lat="30.804038979113102" lon="-4.454130018129945">
        <ele>647.70000000000005</ele>
        <time>2010-12-31T19:13:05Z</time>
      </trkpt>
      <trkpt lat="30.804216004908085" lon="-4.454145021736622">
        <ele>647.70000000000005</ele>
        <time>2010-12-31T19:13:09Z</time>
      </trkpt>
      <trkpt lat="30.804335027933121" lon="-4.45412096567452">
        <ele>647.79999999999995</ele>
        <time>2010-12-31T19:13:12Z</time>
      </trkpt>
      <trkpt lat="30.804460002109408" lon="-4.454139992594719">
        <ele>647.10000000000002</ele>
        <time>2010-12-31T19:13:15Z</time>
      </trkpt>
      <trkpt lat="30.80459201708436" lon="-4.454122977331281">
        <ele>647.89999999999998</ele>
        <time>2010-12-31T19:13:18Z</time>
      </trkpt>
      <trkpt lat="30.80467700958252" lon="-4.454066986218095">
        <ele>648.39999999999998</ele>
        <time>2010-12-31T19:13:20Z</time>
      </trkpt>
      <trkpt lat="30.804766025394201" lon="-4.454039996489883">
        <ele>648.89999999999998</ele>
        <time>2010-12-31T19:13:22Z</time>
      </trkpt>
      <trkpt lat="30.804889993742108" lon="-4.454024992883205">
        <ele>649.70000000000005</ele>
        <time>2010-12-31T19:13:25Z</time>
      </trkpt>
      <trkpt lat="30.80495797097683" lon="-4.453901024535298">
        <ele>649.89999999999998</ele>
        <time>2010-12-31T19:13:28Z</time>
      </trkpt>
      <trkpt lat="30.805061990395188" lon="-4.453811002895236">
        <ele>650.10000000000002</ele>
        <time>2010-12-31T19:13:31Z</time>
      </trkpt>
      <trkpt lat="30.805158969014883" lon="-4.45377697236836">
        <ele>650.60000000000002</ele>
        <time>2010-12-31T19:13:33Z</time>
      </trkpt>
      <trkpt lat="30.805228035897017" lon="-4.453679993748665">
        <ele>651</ele>
        <time>2010-12-31T19:13:36Z</time>
      </trkpt>
      <trkpt lat="30.805248990654945" lon="-4.453489976003766">
        <ele>650.79999999999995</ele>
        <time>2010-12-31T19:13:40Z</time>
      </trkpt>
      <trkpt lat="30.805311016738415" lon="-4.453360978513956">
        <ele>651</ele>
        <time>2010-12-31T19:13:43Z</time>
      </trkpt>
      <trkpt lat="30.805379999801517" lon="-4.453276991844177">
        <ele>650.79999999999995</ele>
        <time>2010-12-31T19:13:45Z</time>
      </trkpt>
      <trkpt lat="30.805471027269959" lon="-4.453257964923978">
        <ele>650.70000000000005</ele>
        <time>2010-12-31T19:13:47Z</time>
      </trkpt>
      <trkpt lat="30.805602036416531" lon="-4.453253019601107">
        <ele>650.29999999999995</ele>
        <time>2010-12-31T19:13:50Z</time>
      </trkpt>
      <trkpt lat="30.805692980065942" lon="-4.453286966308951">
        <ele>650.39999999999998</ele>
        <time>2010-12-31T19:13:53Z</time>
      </trkpt>
      <trkpt lat="30.805784007534385" lon="-4.453434990718961">
        <ele>650.5</ele>
        <time>2010-12-31T19:13:57Z</time>
      </trkpt>
      <trkpt lat="30.80585902556777" lon="-4.453501962125301">
        <ele>650.60000000000002</ele>
        <time>2010-12-31T19:13:59Z</time>
      </trkpt>
      <trkpt lat="30.805921973660588" lon="-4.453577985987067">
        <ele>650.70000000000005</ele>
        <time>2010-12-31T19:14:01Z</time>
      </trkpt>
      <trkpt lat="30.805933959782124" lon="-4.453784013167024">
        <ele>650.5</ele>
        <time>2010-12-31T19:14:05Z</time>
      </trkpt>
      <trkpt lat="30.805911999195814" lon="-4.453891972079873">
        <ele>650.39999999999998</ele>
        <time>2010-12-31T19:14:07Z</time>
      </trkpt>
      <trkpt lat="30.805903030559421" lon="-4.454007977619767">
        <ele>650.29999999999995</ele>
        <time>2010-12-31T19:14:09Z</time>
      </trkpt>
      <trkpt lat="30.805915016680956" lon="-4.454111997038126">
        <ele>650.10000000000002</ele>
        <time>2010-12-31T19:14:11Z</time>
      </trkpt>
      <trkpt lat="30.805999003350735" lon="-4.454160025343299">
        <ele>650.10000000000002</ele>
        <time>2010-12-31T19:14:14Z</time>
      </trkpt>
      <trkpt lat="30.806118026375771" lon="-4.454286005347967">
        <ele>648.5</ele>
        <time>2010-12-31T19:14:20Z</time>
      </trkpt>
      <trkpt lat="30.806192960590124" lon="-4.454358005896211">
        <ele>646.89999999999998</ele>
        <time>2010-12-31T19:14:24Z</time>
      </trkpt>
      <trkpt lat="30.806186003610492" lon="-4.454479040578008">
        <ele>645.79999999999995</ele>
        <time>2010-12-31T19:14:27Z</time>
      </trkpt>
      <trkpt lat="30.806159013882279" lon="-4.454617006704211">
        <ele>644.5</ele>
        <time>2010-12-31T19:14:30Z</time>
      </trkpt>
      <trkpt lat="30.806180974468589" lon="-4.454963011667132">
        <ele>645</ele>
        <time>2010-12-31T19:14:36Z</time>
      </trkpt>
      <trkpt lat="30.806204024702311" lon="-4.455073988065124">
        <ele>644.20000000000005</ele>
        <time>2010-12-31T19:14:38Z</time>
      </trkpt>
      <trkpt lat="30.806290023028851" lon="-4.455192005261779">
        <ele>643.39999999999998</ele>
        <time>2010-12-31T19:14:41Z</time>
      </trkpt>
      <trkpt lat="30.806318018585443" lon="-4.455293007194996">
        <ele>642.79999999999995</ele>
        <time>2010-12-31T19:14:43Z</time>
      </trkpt>
      <trkpt lat="30.806258004158735" lon="-4.455571034923196">
        <ele>642.5</ele>
        <time>2010-12-31T19:14:48Z</time>
      </trkpt>
      <trkpt lat="30.806201007217169" lon="-4.455744037404656">
        <ele>641.70000000000005</ele>
        <time>2010-12-31T19:14:51Z</time>
      </trkpt>
      <trkpt lat="30.806121965870261" lon="-4.455954004079104">
        <ele>640.60000000000002</ele>
        <time>2010-12-31T19:14:55Z</time>
      </trkpt>
      <trkpt lat="30.806104028597474" lon="-4.456123989075422">
        <ele>640.10000000000002</ele>
        <time>2010-12-31T19:14:58Z</time>
      </trkpt>
      <trkpt lat="30.806049965322018" lon="-4.45646102540195">
        <ele>637.89999999999998</ele>
        <time>2010-12-31T19:15:06Z</time>
      </trkpt>
      <trkpt lat="30.806112997233868" lon="-4.456714997068048">
        <ele>636.60000000000002</ele>
        <time>2010-12-31T19:15:11Z</time>
      </trkpt>
      <trkpt lat="30.806124983355403" lon="-4.456824967637658">
        <ele>636.20000000000005</ele>
        <time>2010-12-31T19:15:13Z</time>
      </trkpt>
      <trkpt lat="30.806118026375771" lon="-4.456948013976216">
        <ele>638</ele>
        <time>2010-12-31T19:15:15Z</time>
      </trkpt>
      <trkpt lat="30.806102016940713" lon="-4.457133002579212">
        <ele>641.79999999999995</ele>
        <time>2010-12-31T19:15:18Z</time>
      </trkpt>
      <trkpt lat="30.806120038032532" lon="-4.457269962877035">
        <ele>643.10000000000002</ele>
        <time>2010-12-31T19:15:20Z</time>
      </trkpt>
      <trkpt lat="30.806157002225518" lon="-4.457390997558832">
        <ele>644.10000000000002</ele>
        <time>2010-12-31T19:15:22Z</time>
      </trkpt>
      <trkpt lat="30.806206036359072" lon="-4.457484958693385">
        <ele>645</ele>
        <time>2010-12-31T19:15:24Z</time>
      </trkpt>
      <trkpt lat="30.806266972795129" lon="-4.457568023353815">
        <ele>645.5</ele>
        <time>2010-12-31T19:15:26Z</time>
      </trkpt>
      <trkpt lat="30.806459002196789" lon="-4.457729961723089">
        <ele>645.20000000000005</ele>
        <time>2010-12-31T19:15:30Z</time>
      </trkpt>
      <trkpt lat="30.806769970804453" lon="-4.4579469691962">
        <ele>644.20000000000005</ele>
        <time>2010-12-31T19:15:37Z</time>
      </trkpt>
      <trkpt lat="30.806843983009458" lon="-4.458025004714727">
        <ele>643.29999999999995</ele>
        <time>2010-12-31T19:15:40Z</time>
      </trkpt>
      <trkpt lat="30.806810036301613" lon="-4.458170011639595">
        <ele>613.39999999999998</ele>
        <time>2010-12-31T19:24:58Z</time>
      </trkpt>
      <trkpt lat="30.806736024096608" lon="-4.45826799608767">
        <ele>613.70000000000005</ele>
        <time>2010-12-31T19:25:05Z</time>
      </trkpt>
      <trkpt lat="30.806575007736683" lon="-4.458349971100688">
        <ele>609.5</ele>
        <time>2010-12-31T19:25:14Z</time>
      </trkpt>
      <trkpt lat="30.806471994146705" lon="-4.458387019112706">
        <ele>606.79999999999995</ele>
        <time>2010-12-31T19:25:19Z</time>
      </trkpt>
      <trkpt lat="30.806339979171753" lon="-4.458422977477312">
        <ele>603.29999999999995</ele>
        <time>2010-12-31T19:25:26Z</time>
      </trkpt>
      <trkpt lat="30.806233026087284" lon="-4.458492966368794">
        <ele>603.70000000000005</ele>
        <time>2010-12-31T19:25:54Z</time>
      </trkpt>
      <trkpt lat="30.806352971121669" lon="-4.458422977477312">
        <ele>611.70000000000005</ele>
        <time>2010-12-31T19:26:05Z</time>
      </trkpt>
      <trkpt lat="30.806465037167072" lon="-4.458414008840919">
        <ele>615.29999999999995</ele>
        <time>2010-12-31T19:26:09Z</time>
      </trkpt>
      <trkpt lat="30.806625969707966" lon="-4.458379978314042">
        <ele>620.10000000000002</ele>
        <time>2010-12-31T19:26:16Z</time>
      </trkpt>
      <trkpt lat="30.80673904158175" lon="-4.45833396166563">
        <ele>621.10000000000002</ele>
        <time>2010-12-31T19:26:23Z</time>
      </trkpt>
      <trkpt lat="30.806833002716303" lon="-4.458337984979153">
        <ele>626</ele>
        <time>2010-12-31T19:26:28Z</time>
      </trkpt>
      <trkpt lat="30.806928975507617" lon="-4.458388024941087">
        <ele>628.89999999999998</ele>
        <time>2010-12-31T19:26:40Z</time>
      </trkpt>
      <trkpt lat="30.807037018239498" lon="-4.458550969138742">
        <ele>628.5</ele>
        <time>2010-12-31T19:26:47Z</time>
      </trkpt>
      <trkpt lat="30.807067025452852" lon="-4.458664963021874">
        <ele>627</ele>
        <time>2010-12-31T19:26:51Z</time>
      </trkpt>
      <trkpt lat="30.80702100880444" lon="-4.458833020180464">
        <ele>624.89999999999998</ele>
        <time>2010-12-31T19:26:57Z</time>
      </trkpt>
      <trkpt lat="30.806780029088259" lon="-4.459416987374425">
        <ele>619.39999999999998</ele>
        <time>2010-12-31T19:27:18Z</time>
      </trkpt>
      <trkpt lat="30.806695958599448" lon="-4.459456969052553">
        <ele>617.70000000000005</ele>
        <time>2010-12-31T19:27:22Z</time>
      </trkpt>
      <trkpt lat="30.806603003293276" lon="-4.459418999031186">
        <ele>610.70000000000005</ele>
        <time>2010-12-31T19:27:24Z</time>
      </trkpt>
      <trkpt lat="30.806350037455559" lon="-4.459353033453226">
        <ele>606.60000000000002</ele>
        <time>2010-12-31T19:27:29Z</time>
      </trkpt>
      <trkpt lat="30.806192960590124" lon="-4.459344986826181">
        <ele>604.29999999999995</ele>
        <time>2010-12-31T19:27:32Z</time>
      </trkpt>
      <trkpt lat="30.805972013622522" lon="-4.459358984604478">
        <ele>600.39999999999998</ele>
        <time>2010-12-31T19:27:40Z</time>
      </trkpt>
      <trkpt lat="30.805863970890641" lon="-4.459354039281607">
        <ele>598.20000000000005</ele>
        <time>2010-12-31T19:27:45Z</time>
      </trkpt>
      <trkpt lat="30.805898001417518" lon="-4.45925303734839">
        <ele>597</ele>
        <time>2010-12-31T19:27:49Z</time>
      </trkpt>
      <trkpt lat="30.806624041870236" lon="-4.4593820348382">
        <ele>594.79999999999995</ele>
        <time>2010-12-31T19:28:46Z</time>
      </trkpt>
      <trkpt lat="30.806736024096608" lon="-4.459439031779766">
        <ele>598.29999999999995</ele>
        <time>2010-12-31T19:28:50Z</time>
      </trkpt>
      <trkpt lat="30.806833002716303" lon="-4.459507009014487">
        <ele>600.29999999999995</ele>
        <time>2010-12-31T19:28:52Z</time>
      </trkpt>
      <trkpt lat="30.806936016306281" lon="-4.459592001512647">
        <ele>602.10000000000002</ele>
        <time>2010-12-31T19:28:54Z</time>
      </trkpt>
      <trkpt lat="30.807046992704272" lon="-4.459699960425496">
        <ele>602.39999999999998</ele>
        <time>2010-12-31T19:28:56Z</time>
      </trkpt>
      <trkpt lat="30.807225024327636" lon="-4.459909005090594">
        <ele>601.5</ele>
        <time>2010-12-31T19:29:00Z</time>
      </trkpt>
      <trkpt lat="30.807285038754344" lon="-4.459988968446851">
        <ele>603.10000000000002</ele>
        <time>2010-12-31T19:29:02Z</time>
      </trkpt>
      <trkpt lat="30.807359972968698" lon="-4.460094999521971">
        <ele>604.10000000000002</ele>
        <time>2010-12-31T19:29:05Z</time>
      </trkpt>
      <trkpt lat="30.807413030415773" lon="-4.460180997848511">
        <ele>605.10000000000002</ele>
        <time>2010-12-31T19:29:08Z</time>
      </trkpt>
      <trkpt lat="30.807467009872198" lon="-4.460289962589741">
        <ele>606.10000000000002</ele>
        <time>2010-12-31T19:29:12Z</time>
      </trkpt>
      <trkpt lat="30.807497017085552" lon="-4.460188960656524">
        <ele>589.89999999999998</ele>
        <time>2010-12-31T19:31:26Z</time>
      </trkpt>
      <trkpt lat="30.807550996541977" lon="-4.460292980074883">
        <ele>588.39999999999998</ele>
        <time>2010-12-31T19:31:32Z</time>
      </trkpt>
      <trkpt lat="30.807613022625446" lon="-4.4603939820081">
        <ele>589.5</ele>
        <time>2010-12-31T19:31:35Z</time>
      </trkpt>
      <trkpt lat="30.807676976546645" lon="-4.460478974506259">
        <ele>589.5</ele>
        <time>2010-12-31T19:31:38Z</time>
      </trkpt>
      <trkpt lat="30.807753000408411" lon="-4.460556004196405">
        <ele>588.70000000000005</ele>
        <time>2010-12-31T19:31:41Z</time>
      </trkpt>
      <trkpt lat="30.807851990684867" lon="-4.460596991702914">
        <ele>594.39999999999998</ele>
        <time>2010-12-31T19:31:44Z</time>
      </trkpt>
      <trkpt lat="30.80785802565515" lon="-4.460775023326278">
        <ele>617.39999999999998</ele>
        <time>2010-12-31T19:32:05Z</time>
      </trkpt>
      <trkpt lat="30.807787030935287" lon="-4.460850041359663">
        <ele>617.70000000000005</ele>
        <time>2010-12-31T19:32:08Z</time>
      </trkpt>
      <trkpt lat="30.807741014286876" lon="-4.460977027192712">
        <ele>616.79999999999995</ele>
        <time>2010-12-31T19:32:11Z</time>
      </trkpt>
      <trkpt lat="30.807746965438128" lon="-4.461092026904225">
        <ele>616</ele>
        <time>2010-12-31T19:32:13Z</time>
      </trkpt>
      <trkpt lat="30.807777978479862" lon="-4.461218006908894">
        <ele>615.29999999999995</ele>
        <time>2010-12-31T19:32:15Z</time>
      </trkpt>
      <trkpt lat="30.80785701982677" lon="-4.461309034377337">
        <ele>615.39999999999998</ele>
        <time>2010-12-31T19:32:18Z</time>
      </trkpt>
      <trkpt lat="30.807965984568" lon="-4.461337029933929">
        <ele>615.10000000000002</ele>
        <time>2010-12-31T19:32:21Z</time>
      </trkpt>
      <trkpt lat="30.80805198289454" lon="-4.461416993290186">
        <ele>614.10000000000002</ele>
        <time>2010-12-31T19:32:24Z</time>
      </trkpt>
      <trkpt lat="30.808133035898209" lon="-4.461511038243771">
        <ele>612.70000000000005</ele>
        <time>2010-12-31T19:32:27Z</time>
      </trkpt>
      <trkpt lat="30.808246023952961" lon="-4.461595024913549">
        <ele>611.70000000000005</ele>
        <time>2010-12-31T19:32:30Z</time>
      </trkpt>
      <trkpt lat="30.808403016999364" lon="-4.461679011583328">
        <ele>610.60000000000002</ele>
        <time>2010-12-31T19:32:35Z</time>
      </trkpt>
      <trkpt lat="30.808473005890846" lon="-4.461758974939585">
        <ele>609.20000000000005</ele>
        <time>2010-12-31T19:32:39Z</time>
      </trkpt>
      <trkpt lat="30.808464037254453" lon="-4.462010012939572">
        <ele>606.39999999999998</ele>
        <time>2010-12-31T19:32:55Z</time>
      </trkpt>
      <trkpt lat="30.808493960648775" lon="-4.462156025692821">
        <ele>606.29999999999995</ele>
        <time>2010-12-31T19:32:58Z</time>
      </trkpt>
      <trkpt lat="30.808593034744263" lon="-4.462206987664104">
        <ele>605.5</ele>
        <time>2010-12-31T19:33:01Z</time>
      </trkpt>
      <trkpt lat="30.808709040284157" lon="-4.462173040956259">
        <ele>608.39999999999998</ele>
        <time>2010-12-31T19:33:04Z</time>
      </trkpt>
      <trkpt lat="30.808827979490161" lon="-4.462117971852422">
        <ele>612.39999999999998</ele>
        <time>2010-12-31T19:33:07Z</time>
      </trkpt>
      <trkpt lat="30.808934010565281" lon="-4.462142027914524">
        <ele>615.5</ele>
        <time>2010-12-31T19:33:09Z</time>
      </trkpt>
      <trkpt lat="30.809217989444733" lon="-4.462249986827374">
        <ele>617.79999999999995</ele>
        <time>2010-12-31T19:33:14Z</time>
      </trkpt>
      <trkpt lat="30.809316979721189" lon="-4.462301032617688">
        <ele>622.10000000000002</ele>
        <time>2010-12-31T19:33:16Z</time>
      </trkpt>
      <trkpt lat="30.809388980269432" lon="-4.462384013459086">
        <ele>624.20000000000005</ele>
        <time>2010-12-31T19:33:18Z</time>
      </trkpt>
      <trkpt lat="30.809411024674773" lon="-4.462506975978613">
        <ele>627.10000000000002</ele>
        <time>2010-12-31T19:33:21Z</time>
      </trkpt>
      <trkpt lat="30.809346986934543" lon="-4.462622981518507">
        <ele>629.39999999999998</ele>
        <time>2010-12-31T19:33:50Z</time>
      </trkpt>
      <trkpt lat="30.809453018009663" lon="-4.462485015392304">
        <ele>632.70000000000005</ele>
        <time>2010-12-31T19:34:01Z</time>
      </trkpt>
      <trkpt lat="30.809400966390967" lon="-4.462354006245732">
        <ele>631.10000000000002</ele>
        <time>2010-12-31T19:34:04Z</time>
      </trkpt>
      <trkpt lat="30.809305999428034" lon="-4.46224101819098">
        <ele>633</ele>
        <time>2010-12-31T19:34:10Z</time>
      </trkpt>
      <trkpt lat="30.809214971959591" lon="-4.46217798627913">
        <ele>634.20000000000005</ele>
        <time>2010-12-31T19:34:14Z</time>
      </trkpt>
      <trkpt lat="30.808943985030055" lon="-4.462127024307847">
        <ele>614.20000000000005</ele>
        <time>2010-12-31T19:34:38Z</time>
      </trkpt>
      <trkpt lat="30.808749021962285" lon="-4.462120989337564">
        <ele>593.39999999999998</ele>
        <time>2010-12-31T19:35:14Z</time>
      </trkpt>
      <trkpt lat="30.808657994493842" lon="-4.462099028751254">
        <ele>593.20000000000005</ele>
        <time>2010-12-31T19:35:16Z</time>
      </trkpt>
      <trkpt lat="30.808560010045767" lon="-4.462054017931223">
        <ele>591.39999999999998</ele>
        <time>2010-12-31T19:35:19Z</time>
      </trkpt>
      <trkpt lat="30.808456996455789" lon="-4.462074972689152">
        <ele>584.39999999999998</ele>
        <time>2010-12-31T19:36:16Z</time>
      </trkpt>
      <trkpt lat="30.8083959762007" lon="-4.462176980450749">
        <ele>584.39999999999998</ele>
        <time>2010-12-31T19:36:19Z</time>
      </trkpt>
      <trkpt lat="30.808295980095863" lon="-4.46224101819098">
        <ele>584.89999999999998</ele>
        <time>2010-12-31T19:36:23Z</time>
      </trkpt>
      <trkpt lat="30.808135969564319" lon="-4.462245963513851">
        <ele>583</ele>
        <time>2010-12-31T19:36:28Z</time>
      </trkpt>
      <trkpt lat="30.808113003149629" lon="-4.462144039571285">
        <ele>582</ele>
        <time>2010-12-31T19:39:18Z</time>
      </trkpt>
      <trkpt lat="30.808229008689523" lon="-4.462212016806006">
        <ele>582.60000000000002</ele>
        <time>2010-12-31T19:39:21Z</time>
      </trkpt>
      <trkpt lat="30.808343002572656" lon="-4.462190978229046">
        <ele>585.20000000000005</ele>
        <time>2010-12-31T19:39:25Z</time>
      </trkpt>
      <trkpt lat="30.808413997292519" lon="-4.462103974074125">
        <ele>591.39999999999998</ele>
        <time>2010-12-31T19:39:28Z</time>
      </trkpt>
      <trkpt lat="30.808447021991014" lon="-4.461973970755935">
        <ele>593.89999999999998</ele>
        <time>2010-12-31T19:39:32Z</time>
      </trkpt>
      <trkpt lat="30.808467976748943" lon="-4.461846984922886">
        <ele>596.5</ele>
        <time>2010-12-31T19:39:36Z</time>
      </trkpt>
      <trkpt lat="30.808647014200687" lon="-4.461687980219722">
        <ele>602.10000000000002</ele>
        <time>2010-12-31T19:39:43Z</time>
      </trkpt>
      <trkpt lat="30.808708034455776" lon="-4.461587984114885">
        <ele>604.60000000000002</ele>
        <time>2010-12-31T19:39:46Z</time>
      </trkpt>
      <trkpt lat="30.808736030012369" lon="-4.461478013545275">
        <ele>608.29999999999995</ele>
        <time>2010-12-31T19:39:52Z</time>
      </trkpt>
      <trkpt lat="30.808714991435409" lon="-4.461581027135253">
        <ele>610.89999999999998</ele>
        <time>2010-12-31T19:39:58Z</time>
      </trkpt>
      <trkpt lat="30.808591023087502" lon="-4.461688986048102">
        <ele>608.60000000000002</ele>
        <time>2010-12-31T19:40:09Z</time>
      </trkpt>
      <trkpt lat="30.808510975912213" lon="-4.461746988818049">
        <ele>608.5</ele>
        <time>2010-12-31T19:40:11Z</time>
      </trkpt>
      <trkpt lat="30.808408968150616" lon="-4.461761992424727">
        <ele>609.20000000000005</ele>
        <time>2010-12-31T19:40:13Z</time>
      </trkpt>
      <trkpt lat="30.808170000091195" lon="-4.461637018248439">
        <ele>602.89999999999998</ele>
        <time>2010-12-31T19:40:17Z</time>
      </trkpt>
      <trkpt lat="30.808036979287863" lon="-4.461531993001699">
        <ele>603.5</ele>
        <time>2010-12-31T19:40:19Z</time>
      </trkpt>
      <trkpt lat="30.807888032868505" lon="-4.461349016055465">
        <ele>604.20000000000005</ele>
        <time>2010-12-31T19:40:23Z</time>
      </trkpt>
      <trkpt lat="30.8077949937433" lon="-4.461284978315234">
        <ele>604</ele>
        <time>2010-12-31T19:40:27Z</time>
      </trkpt>
      <trkpt lat="30.807687034830451" lon="-4.461264023557305">
        <ele>608.20000000000005</ele>
        <time>2010-12-31T19:40:30Z</time>
      </trkpt>
      <trkpt lat="30.807596007362008" lon="-4.461154974997044">
        <ele>607.70000000000005</ele>
        <time>2010-12-31T19:40:33Z</time>
      </trkpt>
      <trkpt lat="30.807587038725615" lon="-4.46101700887084">
        <ele>608.20000000000005</ele>
        <time>2010-12-31T19:40:36Z</time>
      </trkpt>
      <trkpt lat="30.807641018182039" lon="-4.460919024422765">
        <ele>610</ele>
        <time>2010-12-31T19:40:39Z</time>
      </trkpt>
      <trkpt lat="30.807769009843469" lon="-4.460835037752986">
        <ele>615.60000000000002</ele>
        <time>2010-12-31T19:40:46Z</time>
      </trkpt>
      <trkpt lat="30.807883003726602" lon="-4.460798995569348">
        <ele>619.79999999999995</ele>
        <time>2010-12-31T19:40:52Z</time>
      </trkpt>
      <trkpt lat="30.807979982346296" lon="-4.460728000849485">
        <ele>622.70000000000005</ele>
        <time>2010-12-31T19:40:55Z</time>
      </trkpt>
      <trkpt lat="30.808056006208062" lon="-4.460638985037804">
        <ele>625.79999999999995</ele>
        <time>2010-12-31T19:40:58Z</time>
      </trkpt>
      <trkpt lat="30.808109985664487" lon="-4.460527002811432">
        <ele>628.20000000000005</ele>
        <time>2010-12-31T19:41:01Z</time>
      </trkpt>
      <trkpt lat="30.808326993137598" lon="-4.460465982556343">
        <ele>639.70000000000005</ele>
        <time>2010-12-31T19:41:14Z</time>
      </trkpt>
      <trkpt lat="30.808399999514222" lon="-4.460365986451507">
        <ele>640.5</ele>
        <time>2010-12-31T19:41:17Z</time>
      </trkpt>
      <trkpt lat="30.808442998677492" lon="-4.460249980911613">
        <ele>640.5</ele>
        <time>2010-12-31T19:41:27Z</time>
      </trkpt>
      <trkpt lat="30.808559004217386" lon="-4.460231037810445">
        <ele>641.39999999999998</ele>
        <time>2010-12-31T19:41:31Z</time>
      </trkpt>
      <trkpt lat="30.808663023635745" lon="-4.460277976468206">
        <ele>641.79999999999995</ele>
        <time>2010-12-31T19:41:34Z</time>
      </trkpt>
      <trkpt lat="30.808758996427059" lon="-4.460379984229803">
        <ele>641.29999999999995</ele>
        <time>2010-12-31T19:41:37Z</time>
      </trkpt>
      <trkpt lat="30.808861004188657" lon="-4.460634961724281">
        <ele>640.70000000000005</ele>
        <time>2010-12-31T19:41:43Z</time>
      </trkpt>
      <trkpt lat="30.808964017778635" lon="-4.460704028606415">
        <ele>641.20000000000005</ele>
        <time>2010-12-31T19:41:46Z</time>
      </trkpt>
      <trkpt lat="30.809055967256427" lon="-4.460712997242808">
        <ele>641.29999999999995</ele>
        <time>2010-12-31T19:41:48Z</time>
      </trkpt>
      <trkpt lat="30.809135008603334" lon="-4.460798995569348">
        <ele>640.20000000000005</ele>
        <time>2010-12-31T19:41:51Z</time>
      </trkpt>
      <trkpt lat="30.809128973633051" lon="-4.46091097779572">
        <ele>639.39999999999998</ele>
        <time>2010-12-31T19:41:53Z</time>
      </trkpt>
      <trkpt lat="30.809029983356595" lon="-4.461161009967327">
        <ele>636.79999999999995</ele>
        <time>2010-12-31T19:41:59Z</time>
      </trkpt>
      <trkpt lat="30.809068959206343" lon="-4.461055984720588">
        <ele>634.29999999999995</ele>
        <time>2010-12-31T19:42:04Z</time>
      </trkpt>
      <trkpt lat="30.80908102914691" lon="-4.460883988067508">
        <ele>635.39999999999998</ele>
        <time>2010-12-31T19:42:11Z</time>
      </trkpt>
      <trkpt lat="30.809063008055091" lon="-4.460750967264175">
        <ele>635.79999999999995</ele>
        <time>2010-12-31T19:42:14Z</time>
      </trkpt>
      <trkpt lat="30.808951025828719" lon="-4.460686007514596">
        <ele>637.39999999999998</ele>
        <time>2010-12-31T19:42:17Z</time>
      </trkpt>
      <trkpt lat="30.808861004188657" lon="-4.460668992251158">
        <ele>638.10000000000002</ele>
        <time>2010-12-31T19:42:19Z</time>
      </trkpt>
      <trkpt lat="30.808778023347259" lon="-4.46056597866118">
        <ele>637.79999999999995</ele>
        <time>2010-12-31T19:42:22Z</time>
      </trkpt>
      <trkpt lat="30.808721026405692" lon="-4.460396999493241">
        <ele>639</ele>
        <time>2010-12-31T19:42:26Z</time>
      </trkpt>
      <trkpt lat="30.808628993108869" lon="-4.460278982296586">
        <ele>639.70000000000005</ele>
        <time>2010-12-31T19:42:29Z</time>
      </trkpt>
      <trkpt lat="30.808538971468806" lon="-4.460227014496923">
        <ele>640.39999999999998</ele>
        <time>2010-12-31T19:42:31Z</time>
      </trkpt>
      <trkpt lat="30.808430006727576" lon="-4.460237994790077">
        <ele>640.20000000000005</ele>
        <time>2010-12-31T19:42:34Z</time>
      </trkpt>
      <trkpt lat="30.808341996744275" lon="-4.460412003099918">
        <ele>638.79999999999995</ele>
        <time>2010-12-31T19:42:38Z</time>
      </trkpt>
      <trkpt lat="30.808268990367651" lon="-4.460494983941317">
        <ele>637.60000000000002</ele>
        <time>2010-12-31T19:42:40Z</time>
      </trkpt>
      <trkpt lat="30.808042008429766" lon="-4.46071500889957">
        <ele>636.39999999999998</ele>
        <time>2010-12-31T19:42:46Z</time>
      </trkpt>
      <trkpt lat="30.807941006496549" lon="-4.460774017497897">
        <ele>636.5</ele>
        <time>2010-12-31T19:42:49Z</time>
      </trkpt>
      <trkpt lat="30.807812009006739" lon="-4.46077804081142">
        <ele>633.39999999999998</ele>
        <time>2010-12-31T19:42:51Z</time>
      </trkpt>
      <trkpt lat="30.807648980990052" lon="-4.460771000012755">
        <ele>633</ele>
        <time>2010-12-31T19:42:54Z</time>
      </trkpt>
      <trkpt lat="30.807562982663512" lon="-4.46080201305449">
        <ele>632.89999999999998</ele>
        <time>2010-12-31T19:42:56Z</time>
      </trkpt>
      <trkpt lat="30.807506991550326" lon="-4.460928998887539">
        <ele>631.89999999999998</ele>
        <time>2010-12-31T19:42:59Z</time>
      </trkpt>
      <trkpt lat="30.8075359929353" lon="-4.461031006649137">
        <ele>630</ele>
        <time>2010-12-31T19:43:02Z</time>
      </trkpt>
      <trkpt lat="30.807672031223774" lon="-4.461031006649137">
        <ele>630</ele>
        <time>2010-12-31T19:43:05Z</time>
      </trkpt>
      <trkpt lat="30.807760963216424" lon="-4.461062019690871">
        <ele>629.89999999999998</ele>
        <time>2010-12-31T19:43:07Z</time>
      </trkpt>
      <trkpt lat="30.807789964601398" lon="-4.46116796694696">
        <ele>628.39999999999998</ele>
        <time>2010-12-31T19:43:09Z</time>
      </trkpt>
      <trkpt lat="30.807803040370345" lon="-4.461285984143615">
        <ele>626.79999999999995</ele>
        <time>2010-12-31T19:43:11Z</time>
      </trkpt>
      <trkpt lat="30.807982999831438" lon="-4.461407018825412">
        <ele>625.20000000000005</ele>
        <time>2010-12-31T19:43:16Z</time>
      </trkpt>
      <trkpt lat="30.80815901979804" lon="-4.461583038792014">
        <ele>621.10000000000002</ele>
        <time>2010-12-31T19:43:21Z</time>
      </trkpt>
      <trkpt lat="30.808423971757293" lon="-4.461761992424727">
        <ele>616.10000000000002</ele>
        <time>2010-12-31T19:43:26Z</time>
      </trkpt>
      <trkpt lat="30.808487003669143" lon="-4.461859976872802">
        <ele>614.39999999999998</ele>
        <time>2010-12-31T19:43:28Z</time>
      </trkpt>
      <trkpt lat="30.808522962033749" lon="-4.461958967149258">
        <ele>612.79999999999995</ele>
        <time>2010-12-31T19:43:30Z</time>
      </trkpt>
      <trkpt lat="30.808592028915882" lon="-4.46204898878932">
        <ele>611.89999999999998</ele>
        <time>2010-12-31T19:43:32Z</time>
      </trkpt>
      <trkpt lat="30.808672998100519" lon="-4.462105985730887">
        <ele>611.60000000000002</ele>
        <time>2010-12-31T19:43:34Z</time>
      </trkpt>
      <trkpt lat="30.808820016682148" lon="-4.462144039571285">
        <ele>615.5</ele>
        <time>2010-12-31T19:43:38Z</time>
      </trkpt>
      <trkpt lat="30.808934010565281" lon="-4.462156025692821">
        <ele>620.10000000000002</ele>
        <time>2010-12-31T19:43:41Z</time>
      </trkpt>
      <trkpt lat="30.809088991954923" lon="-4.462221991270781">
        <ele>643.10000000000002</ele>
        <time>2010-12-31T19:44:27Z</time>
      </trkpt>
      <trkpt lat="30.808934010565281" lon="-4.462273959070444">
        <ele>637.39999999999998</ele>
        <time>2010-12-31T19:44:37Z</time>
      </trkpt>
      <trkpt lat="30.808812975883484" lon="-4.462298015132546">
        <ele>638.29999999999995</ele>
        <time>2010-12-31T19:44:40Z</time>
      </trkpt>
      <trkpt lat="30.808722032234073" lon="-4.462331961840391">
        <ele>638.10000000000002</ele>
        <time>2010-12-31T19:44:43Z</time>
      </trkpt>
      <trkpt lat="30.80863100476563" lon="-4.462294997647405">
        <ele>642.89999999999998</ele>
        <time>2010-12-31T19:44:57Z</time>
      </trkpt>
      <trkpt lat="30.808723038062453" lon="-4.462344031780958">
        <ele>641.89999999999998</ele>
        <time>2010-12-31T19:45:06Z</time>
      </trkpt>
      <trkpt lat="30.808569984510541" lon="-4.462343025952578">
        <ele>638.39999999999998</ele>
        <time>2010-12-31T19:45:44Z</time>
      </trkpt>
      <trkpt lat="30.808193972334266" lon="-4.463270986452699">
        <ele>563.20000000000005</ele>
        <time>2010-12-31T19:52:05Z</time>
      </trkpt>
      <trkpt lat="30.808163965120912" lon="-4.463369976729155">
        <ele>561.20000000000005</ele>
        <time>2010-12-31T19:52:52Z</time>
      </trkpt>
      <trkpt lat="30.808077966794372" lon="-4.463234022259712">
        <ele>546.10000000000002</ele>
        <time>2010-12-31T19:53:04Z</time>
      </trkpt>
      <trkpt lat="30.808179974555969" lon="-4.463106030598283">
        <ele>553.70000000000005</ele>
        <time>2010-12-31T19:53:08Z</time>
      </trkpt>
      <trkpt lat="30.808315007016063" lon="-4.462921964004636">
        <ele>563.29999999999995</ele>
        <time>2010-12-31T19:53:13Z</time>
      </trkpt>
      <trkpt lat="30.808429000899196" lon="-4.462866978719831">
        <ele>568</ele>
        <time>2010-12-31T19:53:16Z</time>
      </trkpt>
      <trkpt lat="30.808621030300856" lon="-4.462835965678096">
        <ele>574.29999999999995</ele>
        <time>2010-12-31T19:53:21Z</time>
      </trkpt>
      <trkpt lat="30.808893023058772" lon="-4.462622981518507">
        <ele>582.5</ele>
        <time>2010-12-31T19:53:29Z</time>
      </trkpt>
      <trkpt lat="30.808991007506847" lon="-4.462610995396972">
        <ele>591.20000000000005</ele>
        <time>2010-12-31T19:53:43Z</time>
      </trkpt>
      <trkpt lat="30.808762013912201" lon="-4.462946020066738">
        <ele>621.79999999999995</ele>
        <time>2010-12-31T19:54:10Z</time>
      </trkpt>
      <trkpt lat="30.808698982000351" lon="-4.463025983422995">
        <ele>625.10000000000002</ele>
        <time>2010-12-31T19:54:13Z</time>
      </trkpt>
      <trkpt lat="30.808582976460457" lon="-4.463154980912805">
        <ele>629.39999999999998</ele>
        <time>2010-12-31T19:54:18Z</time>
      </trkpt>
      <trkpt lat="30.80854500643909" lon="-4.463253971189261">
        <ele>630.39999999999998</ele>
        <time>2010-12-31T19:54:21Z</time>
      </trkpt>
      <trkpt lat="30.808408968150616" lon="-4.463434014469385">
        <ele>629.20000000000005</ele>
        <time>2010-12-31T19:55:26Z</time>
      </trkpt>
      <trkpt lat="30.808430006727576" lon="-4.463586984202266">
        <ele>623.70000000000005</ele>
        <time>2010-12-31T20:02:32Z</time>
      </trkpt>
      <trkpt lat="30.808516005054116" lon="-4.46348899975419">
        <ele>628.79999999999995</ele>
        <time>2010-12-31T20:02:36Z</time>
      </trkpt>
      <trkpt lat="30.808622036129236" lon="-4.463284984230995">
        <ele>631.60000000000002</ele>
        <time>2010-12-31T20:02:40Z</time>
      </trkpt>
      <trkpt lat="30.808680960908532" lon="-4.463205020874739">
        <ele>632.89999999999998</ele>
        <time>2010-12-31T20:02:42Z</time>
      </trkpt>
      <trkpt lat="30.808967035263777" lon="-4.462948031723499">
        <ele>638.70000000000005</ele>
        <time>2010-12-31T20:02:49Z</time>
      </trkpt>
      <trkpt lat="30.80910500138998" lon="-4.462852980941534">
        <ele>642.60000000000002</ele>
        <time>2010-12-31T20:02:56Z</time>
      </trkpt>
      <trkpt lat="30.808956976979971" lon="-4.462960017845035">
        <ele>645.39999999999998</ele>
        <time>2010-12-31T20:03:46Z</time>
      </trkpt>
      <trkpt lat="30.809100978076458" lon="-4.462860021740198">
        <ele>645.70000000000005</ele>
        <time>2010-12-31T20:04:06Z</time>
      </trkpt>
      <trkpt lat="30.809246990829706" lon="-4.462819034233689">
        <ele>649.39999999999998</ele>
        <time>2010-12-31T20:13:06Z</time>
      </trkpt>
      <trkpt lat="30.809390991926193" lon="-4.462861027568579">
        <ele>659.5</ele>
        <time>2010-12-31T20:24:27Z</time>
      </trkpt>
      <trkpt lat="30.809227041900158" lon="-4.462817022576928">
        <ele>624.10000000000002</ele>
        <time>2010-12-31T20:28:22Z</time>
      </trkpt>
      <trkpt lat="30.80931999720633" lon="-4.462778968736529">
        <ele>623.5</ele>
        <time>2010-12-31T20:28:34Z</time>
      </trkpt>
      <trkpt lat="30.809380011633039" lon="-4.46269397623837">
        <ele>623.29999999999995</ele>
        <time>2010-12-31T20:28:37Z</time>
      </trkpt>
      <trkpt lat="30.80940498970449" lon="-4.462578976526856">
        <ele>623.60000000000002</ele>
        <time>2010-12-31T20:28:41Z</time>
      </trkpt>
      <trkpt lat="30.809387974441051" lon="-4.462444027885795">
        <ele>623.89999999999998</ele>
        <time>2010-12-31T20:28:44Z</time>
      </trkpt>
      <trkpt lat="30.809327038004994" lon="-4.462339002639055">
        <ele>623.39999999999998</ele>
        <time>2010-12-31T20:28:47Z</time>
      </trkpt>
      <trkpt lat="30.809237016364932" lon="-4.462253004312515">
        <ele>623.20000000000005</ele>
        <time>2010-12-31T20:28:50Z</time>
      </trkpt>
      <trkpt lat="30.8090849686414" lon="-4.462183015421033">
        <ele>623.10000000000002</ele>
        <time>2010-12-31T20:28:54Z</time>
      </trkpt>
      <trkpt lat="30.808897968381643" lon="-4.462124006822705">
        <ele>626.29999999999995</ele>
        <time>2010-12-31T20:28:59Z</time>
      </trkpt>
      <trkpt lat="30.80878003500402" lon="-4.462116966024041">
        <ele>627.20000000000005</ele>
        <time>2010-12-31T20:29:02Z</time>
      </trkpt>
      <trkpt lat="30.808689007535577" lon="-4.462072961032391">
        <ele>625</ele>
        <time>2010-12-31T20:29:05Z</time>
      </trkpt>
      <trkpt lat="30.808480968698859" lon="-4.46174799464643">
        <ele>629.5</ele>
        <time>2010-12-31T20:29:12Z</time>
      </trkpt>
      <trkpt lat="30.80839698202908" lon="-4.461676999926567">
        <ele>630.79999999999995</ele>
        <time>2010-12-31T20:29:14Z</time>
      </trkpt>
      <trkpt lat="30.808243006467819" lon="-4.461580021306872">
        <ele>632.10000000000002</ele>
        <time>2010-12-31T20:29:17Z</time>
      </trkpt>
      <trkpt lat="30.808156002312899" lon="-4.461500979959965">
        <ele>632.79999999999995</ele>
        <time>2010-12-31T20:29:19Z</time>
      </trkpt>
      <trkpt lat="30.808074027299881" lon="-4.46140299551189">
        <ele>634.10000000000002</ele>
        <time>2010-12-31T20:29:22Z</time>
      </trkpt>
      <trkpt lat="30.807949975132942" lon="-4.461343986913562">
        <ele>634.89999999999998</ele>
        <time>2010-12-31T20:29:25Z</time>
      </trkpt>
      <trkpt lat="30.807868000119925" lon="-4.461290007457137">
        <ele>634.20000000000005</ele>
        <time>2010-12-31T20:29:27Z</time>
      </trkpt>
      <trkpt lat="30.807816032320261" lon="-4.461148018017411">
        <ele>635.39999999999998</ele>
        <time>2010-12-31T20:29:30Z</time>
      </trkpt>
      <trkpt lat="30.807785019278526" lon="-4.46099597029388">
        <ele>636.70000000000005</ele>
        <time>2010-12-31T20:29:34Z</time>
      </trkpt>
      <trkpt lat="30.807736990973353" lon="-4.460848029702902">
        <ele>637.89999999999998</ele>
        <time>2010-12-31T20:29:38Z</time>
      </trkpt>
      <trkpt lat="30.807760963216424" lon="-4.460726995021105">
        <ele>638.39999999999998</ele>
        <time>2010-12-31T20:29:43Z</time>
      </trkpt>
      <trkpt lat="30.807848973199725" lon="-4.460690030828118">
        <ele>636.29999999999995</ele>
        <time>2010-12-31T20:29:46Z</time>
      </trkpt>
      <trkpt lat="30.807992974296212" lon="-4.460656000301242">
        <ele>634.20000000000005</ele>
        <time>2010-12-31T20:29:51Z</time>
      </trkpt>
      <trkpt lat="30.808122977614403" lon="-4.460591040551662">
        <ele>632.20000000000005</ele>
        <time>2010-12-31T20:29:56Z</time>
      </trkpt>
      <trkpt lat="30.808230014517903" lon="-4.460490960627794">
        <ele>630.5</ele>
        <time>2010-12-31T20:30:00Z</time>
      </trkpt>
      <trkpt lat="30.808327998965979" lon="-4.460423989221454">
        <ele>633.39999999999998</ele>
        <time>2010-12-31T20:30:03Z</time>
      </trkpt>
      <trkpt lat="30.808394970372319" lon="-4.460332961753011">
        <ele>635.20000000000005</ele>
        <time>2010-12-31T20:30:06Z</time>
      </trkpt>
      <trkpt lat="30.808433024212718" lon="-4.460236988961697">
        <ele>635.10000000000002</ele>
        <time>2010-12-31T20:30:08Z</time>
      </trkpt>
      <trkpt lat="30.808538971468806" lon="-4.460171023383737">
        <ele>634.5</ele>
        <time>2010-12-31T20:30:11Z</time>
      </trkpt>
      <trkpt lat="30.808624969795346" lon="-4.460205975919962">
        <ele>634.39999999999998</ele>
        <time>2010-12-31T20:30:13Z</time>
      </trkpt>
      <trkpt lat="30.808712979778647" lon="-4.460274036973715">
        <ele>635.10000000000002</ele>
        <time>2010-12-31T20:30:15Z</time>
      </trkpt>
      <trkpt lat="30.80878296867013" lon="-4.460356011986733">
        <ele>637</ele>
        <time>2010-12-31T20:30:17Z</time>
      </trkpt>
      <trkpt lat="30.80886603333056" lon="-4.460583999752998">
        <ele>638.20000000000005</ele>
        <time>2010-12-31T20:30:22Z</time>
      </trkpt>
      <trkpt lat="30.808928981423378" lon="-4.460659017786384">
        <ele>639.10000000000002</ele>
        <time>2010-12-31T20:30:24Z</time>
      </trkpt>
      <trkpt lat="30.809023026376963" lon="-4.460678966715932">
        <ele>639.29999999999995</ele>
        <time>2010-12-31T20:30:26Z</time>
      </trkpt>
      <trkpt lat="30.809158980846405" lon="-4.460692964494228">
        <ele>639.20000000000005</ele>
        <time>2010-12-31T20:30:30Z</time>
      </trkpt>
      <trkpt lat="30.809486964717507" lon="-4.460935033857822">
        <ele>642.60000000000002</ele>
        <time>2010-12-31T20:30:43Z</time>
      </trkpt>
      <trkpt lat="30.809615040197968" lon="-4.461086997762322">
        <ele>645.10000000000002</ele>
        <time>2010-12-31T20:30:48Z</time>
      </trkpt>
      <trkpt lat="30.809710007160902" lon="-4.461292019113898">
        <ele>646.39999999999998</ele>
        <time>2010-12-31T20:30:53Z</time>
      </trkpt>
      <trkpt lat="30.809802040457726" lon="-4.461361002177">
        <ele>645.70000000000005</ele>
        <time>2010-12-31T20:30:56Z</time>
      </trkpt>
      <trkpt lat="30.809923997148871" lon="-4.461366031318903">
        <ele>645.10000000000002</ele>
        <time>2010-12-31T20:30:59Z</time>
      </trkpt>
      <trkpt lat="30.810040002688766" lon="-4.461335018277168">
        <ele>644.60000000000002</ele>
        <time>2010-12-31T20:31:02Z</time>
      </trkpt>
      <trkpt lat="30.810103034600616" lon="-4.461242984980345">
        <ele>643.20000000000005</ele>
        <time>2010-12-31T20:31:05Z</time>
      </trkpt>
      <trkpt lat="30.810193978250027" lon="-4.461176013574004">
        <ele>641.79999999999995</ele>
        <time>2010-12-31T20:31:08Z</time>
      </trkpt>
      <trkpt lat="30.810306966304779" lon="-4.461197974160314">
        <ele>640.60000000000002</ele>
        <time>2010-12-31T20:31:11Z</time>
      </trkpt>
      <trkpt lat="30.810385001823306" lon="-4.461258994415402">
        <ele>641.39999999999998</ele>
        <time>2010-12-31T20:31:13Z</time>
      </trkpt>
      <trkpt lat="30.81045800819993" lon="-4.461339041590691">
        <ele>641.60000000000002</ele>
        <time>2010-12-31T20:31:15Z</time>
      </trkpt>
      <trkpt lat="30.810703011229634" lon="-4.461632994934917">
        <ele>644.89999999999998</ele>
        <time>2010-12-31T20:31:23Z</time>
      </trkpt>
      <trkpt lat="30.810805018991232" lon="-4.461731985211372">
        <ele>646.79999999999995</ele>
        <time>2010-12-31T20:31:27Z</time>
      </trkpt>
      <trkpt lat="30.810879031196237" lon="-4.461797028779984">
        <ele>647.5</ele>
        <time>2010-12-31T20:31:30Z</time>
      </trkpt>
      <trkpt lat="30.811050022020936" lon="-4.462076984345913">
        <ele>649.39999999999998</ele>
        <time>2010-12-31T20:31:38Z</time>
      </trkpt>
      <trkpt lat="30.811628960072994" lon="-4.463111981749535">
        <ele>651.70000000000005</ele>
        <time>2010-12-31T20:31:59Z</time>
      </trkpt>
      <trkpt lat="30.811665002256632" lon="-4.463231004774571">
        <ele>652.10000000000002</ele>
        <time>2010-12-31T20:32:02Z</time>
      </trkpt>
      <trkpt lat="30.811669025570154" lon="-4.463360002264381">
        <ele>652.5</ele>
        <time>2010-12-31T20:32:05Z</time>
      </trkpt>
      <trkpt lat="30.811615968123078" lon="-4.463736014440656">
        <ele>652.70000000000005</ele>
        <time>2010-12-31T20:32:12Z</time>
      </trkpt>
      <trkpt lat="30.811579003930092" lon="-4.463953021913767">
        <ele>652.39999999999998</ele>
        <time>2010-12-31T20:32:16Z</time>
      </trkpt>
      <trkpt lat="30.811585038900375" lon="-4.464060980826616">
        <ele>652.5</ele>
        <time>2010-12-31T20:32:18Z</time>
      </trkpt>
      <trkpt lat="30.811608005315065" lon="-4.464256027713418">
        <ele>652.79999999999995</ele>
        <time>2010-12-31T20:32:22Z</time>
      </trkpt>
      <trkpt lat="30.811627032235265" lon="-4.464503964409232">
        <ele>653.20000000000005</ele>
        <time>2010-12-31T20:32:27Z</time>
      </trkpt>
      <trkpt lat="30.811542039737105" lon="-4.464894980192184">
        <ele>652.5</ele>
        <time>2010-12-31T20:32:35Z</time>
      </trkpt>
      <trkpt lat="30.81142402254045" lon="-4.46509899571538">
        <ele>650.29999999999995</ele>
        <time>2010-12-31T20:32:41Z</time>
      </trkpt>
      <trkpt lat="30.811372976750135" lon="-4.465231010690332">
        <ele>649.20000000000005</ele>
        <time>2010-12-31T20:32:44Z</time>
      </trkpt>
      <trkpt lat="30.811367025598884" lon="-4.465380040928721">
        <ele>649.79999999999995</ele>
        <time>2010-12-31T20:32:47Z</time>
      </trkpt>
      <trkpt lat="30.811496023088694" lon="-4.465562012046576">
        <ele>650.79999999999995</ele>
        <time>2010-12-31T20:32:52Z</time>
      </trkpt>
      <trkpt lat="30.811521001160145" lon="-4.465666031464934">
        <ele>651.70000000000005</ele>
        <time>2010-12-31T20:32:55Z</time>
      </trkpt>
      <trkpt lat="30.811471967026591" lon="-4.465769967064261">
        <ele>651</ele>
        <time>2010-12-31T20:32:58Z</time>
      </trkpt>
      <trkpt lat="30.811141971498728" lon="-4.466127958148718">
        <ele>643.79999999999995</ele>
        <time>2010-12-31T20:33:08Z</time>
      </trkpt>
      <trkpt lat="30.811067959293723" lon="-4.466251004487276">
        <ele>640.70000000000005</ele>
        <time>2010-12-31T20:33:11Z</time>
      </trkpt>
      <trkpt lat="30.811019008979201" lon="-4.466358963400126">
        <ele>637.79999999999995</ele>
        <time>2010-12-31T20:33:14Z</time>
      </trkpt>
      <trkpt lat="30.810936028137803" lon="-4.466545041650534">
        <ele>633.89999999999998</ele>
        <time>2010-12-31T20:33:19Z</time>
      </trkpt>
      <trkpt lat="30.810854975134134" lon="-4.46668803691864">
        <ele>631.29999999999995</ele>
        <time>2010-12-31T20:33:23Z</time>
      </trkpt>
      <trkpt lat="30.810788003727794" lon="-4.466781998053193">
        <ele>629.60000000000002</ele>
        <time>2010-12-31T20:33:26Z</time>
      </trkpt>
      <trkpt lat="30.810665963217616" lon="-4.466916024684906">
        <ele>627.10000000000002</ele>
        <time>2010-12-31T20:33:30Z</time>
      </trkpt>
      <trkpt lat="30.810567978769541" lon="-4.467000011354685">
        <ele>625.39999999999998</ele>
        <time>2010-12-31T20:33:33Z</time>
      </trkpt>
      <trkpt lat="30.81013698130846" lon="-4.467362025752664">
        <ele>616</ele>
        <time>2010-12-31T20:33:49Z</time>
      </trkpt>
      <trkpt lat="30.809959033504128" lon="-4.467469984665513">
        <ele>612.29999999999995</ele>
        <time>2010-12-31T20:33:55Z</time>
      </trkpt>
      <trkpt lat="30.809817966073751" lon="-4.467532010748982">
        <ele>612.89999999999998</ele>
        <time>2010-12-31T20:33:59Z</time>
      </trkpt>
      <trkpt lat="30.809716964140534" lon="-4.467620020732284">
        <ele>612.39999999999998</ele>
        <time>2010-12-31T20:34:02Z</time>
      </trkpt>
      <trkpt lat="30.8096410240978" lon="-4.467734014615417">
        <ele>611.5</ele>
        <time>2010-12-31T20:34:05Z</time>
      </trkpt>
      <trkpt lat="30.809572963044047" lon="-4.467866029590368">
        <ele>610.5</ele>
        <time>2010-12-31T20:34:08Z</time>
      </trkpt>
      <trkpt lat="30.809502974152565" lon="-4.467942975461483">
        <ele>610</ele>
        <time>2010-12-31T20:34:10Z</time>
      </trkpt>
      <trkpt lat="30.80912796780467" lon="-4.468334997072816">
        <ele>607.5</ele>
        <time>2010-12-31T20:34:21Z</time>
      </trkpt>
      <trkpt lat="30.809044986963272" lon="-4.468505987897515">
        <ele>609.39999999999998</ele>
        <time>2010-12-31T20:34:25Z</time>
      </trkpt>
      <trkpt lat="30.809007016941905" lon="-4.468650994822383">
        <ele>610.79999999999995</ele>
        <time>2010-12-31T20:34:28Z</time>
      </trkpt>
      <trkpt lat="30.808945996686816" lon="-4.468909995630384">
        <ele>612.89999999999998</ele>
        <time>2010-12-31T20:34:33Z</time>
      </trkpt>
      <trkpt lat="30.808907020837069" lon="-4.469005968421698">
        <ele>613</ele>
        <time>2010-12-31T20:34:35Z</time>
      </trkpt>
      <trkpt lat="30.808667968958616" lon="-4.469203026965261">
        <ele>611.29999999999995</ele>
        <time>2010-12-31T20:34:42Z</time>
      </trkpt>
      <trkpt lat="30.808349959552288" lon="-4.469392960891128">
        <ele>607.79999999999995</ele>
        <time>2010-12-31T20:34:51Z</time>
      </trkpt>
      <trkpt lat="30.808123983442783" lon="-4.469625977799296">
        <ele>607.10000000000002</ele>
        <time>2010-12-31T20:34:58Z</time>
      </trkpt>
      <trkpt lat="30.807869005948305" lon="-4.469895958900452">
        <ele>607.5</ele>
        <time>2010-12-31T20:35:06Z</time>
      </trkpt>
      <trkpt lat="30.807639006525278" lon="-4.470087988302112">
        <ele>606.29999999999995</ele>
        <time>2010-12-31T20:35:12Z</time>
      </trkpt>
      <trkpt lat="30.807540016248822" lon="-4.47021204046905">
        <ele>605.89999999999998</ele>
        <time>2010-12-31T20:35:16Z</time>
      </trkpt>
      <trkpt lat="30.807348992675543" lon="-4.470597021281719">
        <ele>604.79999999999995</ele>
        <time>2010-12-31T20:35:26Z</time>
      </trkpt>
      <trkpt lat="30.807256959378719" lon="-4.47094595991075">
        <ele>609.70000000000005</ele>
        <time>2010-12-31T20:35:34Z</time>
      </trkpt>
      <trkpt lat="30.807232987135649" lon="-4.471103958785534">
        <ele>611.39999999999998</ele>
        <time>2010-12-31T20:35:39Z</time>
      </trkpt>
      <trkpt lat="30.807216977700591" lon="-4.471218958497047">
        <ele>621.20000000000005</ele>
        <time>2010-12-31T20:35:52Z</time>
      </trkpt>
      <trkpt lat="30.807185964658856" lon="-4.471328007057309">
        <ele>634.79999999999995</ele>
        <time>2010-12-31T20:36:01Z</time>
      </trkpt>
      <trkpt lat="30.807055961340666" lon="-4.471486005932093">
        <ele>630.5</ele>
        <time>2010-12-31T20:36:07Z</time>
      </trkpt>
      <trkpt lat="30.806978009641171" lon="-4.471550965681672">
        <ele>624.39999999999998</ele>
        <time>2010-12-31T20:36:19Z</time>
      </trkpt>
      <trkpt lat="30.806970968842506" lon="-4.471681974828243">
        <ele>634.5</ele>
        <time>2010-12-31T20:37:57Z</time>
      </trkpt>
      <trkpt lat="30.807074988260865" lon="-4.471648028120399">
        <ele>652.79999999999995</ele>
        <time>2010-12-31T20:39:43Z</time>
      </trkpt>
      <trkpt lat="30.806869966909289" lon="-4.471761016175151">
        <ele>653.5</ele>
        <time>2010-12-31T20:54:36Z</time>
      </trkpt>
      <trkpt lat="30.806787991896272" lon="-4.471664959564805">
        <ele>653.79999999999995</ele>
        <time>2010-12-31T20:54:42Z</time>
      </trkpt>
      <trkpt lat="30.806672992184758" lon="-4.471463961526752">
        <ele>654</ele>
        <time>2010-12-31T20:54:52Z</time>
      </trkpt>
      <trkpt lat="30.806499989703298" lon="-4.4712870195508">
        <ele>652.89999999999998</ele>
        <time>2010-12-31T20:54:59Z</time>
      </trkpt>
      <trkpt lat="30.806417008861899" lon="-4.471228010952473">
        <ele>652.5</ele>
        <time>2010-12-31T20:55:02Z</time>
      </trkpt>
      <trkpt lat="30.806274013593793" lon="-4.471149975433946">
        <ele>651.79999999999995</ele>
        <time>2010-12-31T20:55:07Z</time>
      </trkpt>
      <trkpt lat="30.806132024154067" lon="-4.470988037064672">
        <ele>651.20000000000005</ele>
        <time>2010-12-31T20:55:14Z</time>
      </trkpt>
      <trkpt lat="30.806059017777443" lon="-4.470859039574862">
        <ele>651.79999999999995</ele>
        <time>2010-12-31T20:55:18Z</time>
      </trkpt>
      <trkpt lat="30.805843016132712" lon="-4.470658963546157">
        <ele>654.60000000000002</ele>
        <time>2010-12-31T20:55:29Z</time>
      </trkpt>
      <trkpt lat="30.805398020893335" lon="-4.4704270362854">
        <ele>657.29999999999995</ele>
        <time>2010-12-31T20:56:05Z</time>
      </trkpt>
      <trkpt lat="30.805295007303357" lon="-4.470391999930143">
        <ele>657.39999999999998</ele>
        <time>2010-12-31T20:56:08Z</time>
      </trkpt>
      <trkpt lat="30.805075988173485" lon="-4.470409015193582">
        <ele>657.20000000000005</ele>
        <time>2010-12-31T20:56:15Z</time>
      </trkpt>
      <trkpt lat="30.804966017603874" lon="-4.470360986888409">
        <ele>657.29999999999995</ele>
        <time>2010-12-31T20:56:19Z</time>
      </trkpt>
      <trkpt lat="30.804755967110395" lon="-4.470181027427316">
        <ele>658</ele>
        <time>2010-12-31T20:56:29Z</time>
      </trkpt>
      <trkpt lat="30.80467700958252" lon="-4.470114978030324">
        <ele>657.70000000000005</ele>
        <time>2010-12-31T20:56:33Z</time>
      </trkpt>
      <trkpt lat="30.804577013477683" lon="-4.470108021050692">
        <ele>657.60000000000002</ele>
        <time>2010-12-31T20:56:37Z</time>
      </trkpt>
      <trkpt lat="30.804486991837621" lon="-4.470076002180576">
        <ele>656.20000000000005</ele>
        <time>2010-12-31T20:56:40Z</time>
      </trkpt>
      <trkpt lat="30.804453967139125" lon="-4.469972988590598">
        <ele>655.70000000000005</ele>
        <time>2010-12-31T20:56:43Z</time>
      </trkpt>
      <trkpt lat="30.804308038204908" lon="-4.469877015799284">
        <ele>655.70000000000005</ele>
        <time>2010-12-31T20:56:49Z</time>
      </trkpt>
      <trkpt lat="30.804190021008253" lon="-4.469895036891103">
        <ele>656.10000000000002</ele>
        <time>2010-12-31T20:56:53Z</time>
      </trkpt>
      <trkpt lat="30.804095976054668" lon="-4.469880033284426">
        <ele>655.60000000000002</ele>
        <time>2010-12-31T20:56:56Z</time>
      </trkpt>
      <trkpt lat="30.803690040484071" lon="-4.469631006941199">
        <ele>654.5</ele>
        <time>2010-12-31T20:57:08Z</time>
      </trkpt>
      <trkpt lat="30.803490970283747" lon="-4.469587001949549">
        <ele>654</ele>
        <time>2010-12-31T20:57:13Z</time>
      </trkpt>
      <trkpt lat="30.803143959492445" lon="-4.469566969200969">
        <ele>652.10000000000002</ele>
        <time>2010-12-31T20:57:22Z</time>
      </trkpt>
      <trkpt lat="30.803033988922834" lon="-4.469511983916163">
        <ele>651.70000000000005</ele>
        <time>2010-12-31T20:57:25Z</time>
      </trkpt>
      <trkpt lat="30.802947990596294" lon="-4.469427997246385">
        <ele>651.29999999999995</ele>
        <time>2010-12-31T20:57:28Z</time>
      </trkpt>
      <trkpt lat="30.80270198173821" lon="-4.469333030283451">
        <ele>650.29999999999995</ele>
        <time>2010-12-31T20:57:34Z</time>
      </trkpt>
      <trkpt lat="30.802611038088799" lon="-4.469248959794641">
        <ele>649.79999999999995</ele>
        <time>2010-12-31T20:57:37Z</time>
      </trkpt>
      <trkpt lat="30.80251095816493" lon="-4.469115016981959">
        <ele>649.20000000000005</ele>
        <time>2010-12-31T20:57:41Z</time>
      </trkpt>
      <trkpt lat="30.802439041435719" lon="-4.469051985070109">
        <ele>648.89999999999998</ele>
        <time>2010-12-31T20:57:43Z</time>
      </trkpt>
      <trkpt lat="30.80231599509716" lon="-4.46898995898664">
        <ele>649.10000000000002</ele>
        <time>2010-12-31T20:57:46Z</time>
      </trkpt>
      <trkpt lat="30.80199396237731" lon="-4.468957018107176">
        <ele>647.39999999999998</ele>
        <time>2010-12-31T20:57:56Z</time>
      </trkpt>
      <trkpt lat="30.801878040656447" lon="-4.468931034207344">
        <ele>646.20000000000005</ele>
        <time>2010-12-31T20:58:00Z</time>
      </trkpt>
      <trkpt lat="30.801719035953283" lon="-4.468822991475463">
        <ele>654.79999999999995</ele>
        <time>2010-12-31T21:00:14Z</time>
      </trkpt>
      <trkpt lat="30.801516026258469" lon="-4.468746967613697">
        <ele>654.70000000000005</ele>
        <time>2010-12-31T21:00:21Z</time>
      </trkpt>
      <trkpt lat="30.801389962434769" lon="-4.468734981492162">
        <ele>654.5</ele>
        <time>2010-12-31T21:00:26Z</time>
      </trkpt>
      <trkpt lat="30.801294995471835" lon="-4.468770017847419">
        <ele>654.5</ele>
        <time>2010-12-31T21:00:30Z</time>
      </trkpt>
      <trkpt lat="30.801199022680521" lon="-4.468829026445746">
        <ele>654.79999999999995</ele>
        <time>2010-12-31T21:00:33Z</time>
      </trkpt>
      <trkpt lat="30.800947984680533" lon="-4.468876970931888">
        <ele>654.60000000000002</ele>
        <time>2010-12-31T21:00:42Z</time>
      </trkpt>
      <trkpt lat="30.800799960270524" lon="-4.468871019780636">
        <ele>655</ele>
        <time>2010-12-31T21:00:47Z</time>
      </trkpt>
      <trkpt lat="30.800695018842816" lon="-4.468942014500499">
        <ele>640.60000000000002</ele>
        <time>2010-12-31T21:03:39Z</time>
      </trkpt>
      <trkpt lat="30.800585970282555" lon="-4.469042010605335">
        <ele>605.70000000000005</ele>
        <time>2010-12-31T21:06:46Z</time>
      </trkpt>
      <trkpt lat="30.800319006666541" lon="-4.469075035303831">
        <ele>604.10000000000002</ele>
        <time>2010-12-31T21:06:56Z</time>
      </trkpt>
      <trkpt lat="30.800198977813125" lon="-4.469107976183295">
        <ele>603.5</ele>
        <time>2010-12-31T21:07:00Z</time>
      </trkpt>
      <trkpt lat="30.80008196644485" lon="-4.469104958698154">
        <ele>603.10000000000002</ele>
        <time>2010-12-31T21:07:03Z</time>
      </trkpt>
      <trkpt lat="30.799907958135009" lon="-4.469053996726871">
        <ele>602.60000000000002</ele>
        <time>2010-12-31T21:07:08Z</time>
      </trkpt>
      <trkpt lat="30.799744008108974" lon="-4.469060031697154">
        <ele>602.20000000000005</ele>
        <time>2010-12-31T21:07:13Z</time>
      </trkpt>
      <trkpt lat="30.799611993134022" lon="-4.468840006738901">
        <ele>601.79999999999995</ele>
        <time>2010-12-31T21:07:20Z</time>
      </trkpt>
      <trkpt lat="30.799513002857566" lon="-4.468284035101533">
        <ele>605.39999999999998</ele>
        <time>2010-12-31T21:07:35Z</time>
      </trkpt>
      <trkpt lat="30.7994369789958" lon="-4.4680439773947">
        <ele>606.60000000000002</ele>
        <time>2010-12-31T21:07:42Z</time>
      </trkpt>
      <trkpt lat="30.799406971782446" lon="-4.467925960198045">
        <ele>607.70000000000005</ele>
        <time>2010-12-31T21:07:46Z</time>
      </trkpt>
      <trkpt lat="30.799347041174769" lon="-4.467804003506899">
        <ele>608.70000000000005</ele>
        <time>2010-12-31T21:07:50Z</time>
      </trkpt>
      <trkpt lat="30.799318961799145" lon="-4.467646004632115">
        <ele>610</ele>
        <time>2010-12-31T21:07:55Z</time>
      </trkpt>
      <trkpt lat="30.799208991229534" lon="-4.467410976067185">
        <ele>612.60000000000002</ele>
        <time>2010-12-31T21:08:06Z</time>
      </trkpt>
      <trkpt lat="30.799163980409503" lon="-4.467187011614442">
        <ele>615.20000000000005</ele>
        <time>2010-12-31T21:08:14Z</time>
      </trkpt>
      <trkpt lat="30.799162974581122" lon="-4.46705499663949">
        <ele>616.20000000000005</ele>
        <time>2010-12-31T21:08:18Z</time>
      </trkpt>
      <trkpt lat="30.799174960702658" lon="-4.466927004978061">
        <ele>616.89999999999998</ele>
        <time>2010-12-31T21:08:21Z</time>
      </trkpt>
      <trkpt lat="30.799204967916012" lon="-4.46673296391964">
        <ele>618.60000000000002</ele>
        <time>2010-12-31T21:08:26Z</time>
      </trkpt>
      <trkpt lat="30.799191975966096" lon="-4.46643297560513">
        <ele>624.5</ele>
        <time>2010-12-31T21:08:34Z</time>
      </trkpt>
      <trkpt lat="30.799177978187799" lon="-4.46626097895205">
        <ele>627.39999999999998</ele>
        <time>2010-12-31T21:08:39Z</time>
      </trkpt>
      <trkpt lat="30.799157023429871" lon="-4.466156037524343">
        <ele>629.20000000000005</ele>
        <time>2010-12-31T21:08:42Z</time>
      </trkpt>
      <trkpt lat="30.798982009291649" lon="-4.465610040351749">
        <ele>630.79999999999995</ele>
        <time>2010-12-31T21:09:00Z</time>
      </trkpt>
      <trkpt lat="30.798858040943742" lon="-4.465324971824884">
        <ele>631.5</ele>
        <time>2010-12-31T21:09:08Z</time>
      </trkpt>
      <trkpt lat="30.79857598990202" lon="-4.465197985991836">
        <ele>624.10000000000002</ele>
        <time>2010-12-31T21:09:18Z</time>
      </trkpt>
      <trkpt lat="30.798473982140422" lon="-4.465149035677314">
        <ele>620.20000000000005</ele>
        <time>2010-12-31T21:09:22Z</time>
      </trkpt>
      <trkpt lat="30.798110961914062" lon="-4.46512003429234">
        <ele>611</ele>
        <time>2010-12-31T21:09:33Z</time>
      </trkpt>
      <trkpt lat="30.797999985516071" lon="-4.465138977393508">
        <ele>609.10000000000002</ele>
        <time>2010-12-31T21:09:36Z</time>
      </trkpt>
      <trkpt lat="30.797891020774841" lon="-4.465132020413876">
        <ele>606.60000000000002</ele>
        <time>2010-12-31T21:09:39Z</time>
      </trkpt>
      <trkpt lat="30.797580974176526" lon="-4.465006962418556">
        <ele>602</ele>
        <time>2010-12-31T21:09:48Z</time>
      </trkpt>
      <trkpt lat="30.797401014715433" lon="-4.46495097130537">
        <ele>599.60000000000002</ele>
        <time>2010-12-31T21:09:53Z</time>
      </trkpt>
      <trkpt lat="30.797252990305424" lon="-4.464890034869313">
        <ele>598.29999999999995</ele>
        <time>2010-12-31T21:09:57Z</time>
      </trkpt>
      <trkpt lat="30.796553017571568" lon="-4.464850975200534">
        <ele>594.39999999999998</ele>
        <time>2010-12-31T21:10:16Z</time>
      </trkpt>
      <trkpt lat="30.796438017860055" lon="-4.464856004342437">
        <ele>594.10000000000002</ele>
        <time>2010-12-31T21:10:19Z</time>
      </trkpt>
      <trkpt lat="30.796272978186607" lon="-4.464810993522406">
        <ele>593.60000000000002</ele>
        <time>2010-12-31T21:10:24Z</time>
      </trkpt>
      <trkpt lat="30.796193014830351" lon="-4.464745027944446">
        <ele>593.60000000000002</ele>
        <time>2010-12-31T21:10:28Z</time>
      </trkpt>
      <trkpt lat="30.79608497209847" lon="-4.46460303850472">
        <ele>594.89999999999998</ele>
        <time>2010-12-31T21:10:35Z</time>
      </trkpt>
      <trkpt lat="30.795878022909164" lon="-4.464518968015909">
        <ele>592.39999999999998</ele>
        <time>2010-12-31T21:10:43Z</time>
      </trkpt>
      <trkpt lat="30.795788001269102" lon="-4.464451996609569">
        <ele>590.89999999999998</ele>
        <time>2010-12-31T21:10:47Z</time>
      </trkpt>
      <trkpt lat="30.795694040134549" lon="-4.464463982731104">
        <ele>590</ele>
        <time>2010-12-31T21:10:51Z</time>
      </trkpt>
      <trkpt lat="30.795279974117875" lon="-4.464792972430587">
        <ele>590.29999999999995</ele>
        <time>2010-12-31T21:11:06Z</time>
      </trkpt>
      <trkpt lat="30.795191964134574" lon="-4.464875031262636">
        <ele>589.89999999999998</ele>
        <time>2010-12-31T21:11:09Z</time>
      </trkpt>
      <trkpt lat="30.795070007443428" lon="-4.464903026819229">
        <ele>590</ele>
        <time>2010-12-31T21:11:12Z</time>
      </trkpt>
      <trkpt lat="30.794951990246773" lon="-4.464899003505707">
        <ele>589.60000000000002</ele>
        <time>2010-12-31T21:11:15Z</time>
      </trkpt>
      <trkpt lat="30.794655019417405" lon="-4.464889029040933">
        <ele>588.70000000000005</ele>
        <time>2010-12-31T21:11:22Z</time>
      </trkpt>
      <trkpt lat="30.794222010299563" lon="-4.464881988242269">
        <ele>587.79999999999995</ele>
        <time>2010-12-31T21:11:32Z</time>
      </trkpt>
      <trkpt lat="30.794060993939638" lon="-4.464852986857295">
        <ele>587.70000000000005</ele>
        <time>2010-12-31T21:11:36Z</time>
      </trkpt>
      <trkpt lat="30.793931996449828" lon="-4.464856004342437">
        <ele>587.89999999999998</ele>
        <time>2010-12-31T21:11:39Z</time>
      </trkpt>
      <trkpt lat="30.793338976800442" lon="-4.464613012969494">
        <ele>587.89999999999998</ele>
        <time>2010-12-31T21:11:56Z</time>
      </trkpt>
      <trkpt lat="30.793198999017477" lon="-4.464502958580852">
        <ele>587.39999999999998</ele>
        <time>2010-12-31T21:12:00Z</time>
      </trkpt>
      <trkpt lat="30.793022979050875" lon="-4.464266002178192">
        <ele>588.20000000000005</ele>
        <time>2010-12-31T21:12:07Z</time>
      </trkpt>
      <trkpt lat="30.792759032920003" lon="-4.464080007746816">
        <ele>589.29999999999995</ele>
        <time>2010-12-31T21:12:22Z</time>
      </trkpt>
      <trkpt lat="30.792572032660246" lon="-4.464015970006585">
        <ele>588.79999999999995</ele>
        <time>2010-12-31T21:12:38Z</time>
      </trkpt>
      <trkpt lat="30.792481005191803" lon="-4.464005995541811">
        <ele>588.29999999999995</ele>
        <time>2010-12-31T21:12:43Z</time>
      </trkpt>
      <trkpt lat="30.792362987995148" lon="-4.464036002755165">
        <ele>588.70000000000005</ele>
        <time>2010-12-31T21:12:50Z</time>
      </trkpt>
      <trkpt lat="30.792330969125032" lon="-4.46417698636651">
        <ele>590</ele>
        <time>2010-12-31T21:12:57Z</time>
      </trkpt>
      <trkpt lat="30.792305991053581" lon="-4.46432501077652">
        <ele>592.70000000000005</ele>
        <time>2010-12-31T21:13:04Z</time>
      </trkpt>
      <trkpt lat="30.792196020483971" lon="-4.464445039629936">
        <ele>592.10000000000002</ele>
        <time>2010-12-31T21:13:10Z</time>
      </trkpt>
      <trkpt lat="30.792168024927378" lon="-4.46456297300756">
        <ele>592.5</ele>
        <time>2010-12-31T21:13:14Z</time>
      </trkpt>
      <trkpt lat="30.791823025792837" lon="-4.465168984606862">
        <ele>597</ele>
        <time>2010-12-31T21:13:33Z</time>
      </trkpt>
      <trkpt lat="30.791736021637917" lon="-4.465254982933402">
        <ele>597.60000000000002</ele>
        <time>2010-12-31T21:13:36Z</time>
      </trkpt>
      <trkpt lat="30.791618004441261" lon="-4.465308962389827">
        <ele>598.5</ele>
        <time>2010-12-31T21:13:39Z</time>
      </trkpt>
      <trkpt lat="30.79150702804327" lon="-4.465326983481646">
        <ele>599.39999999999998</ele>
        <time>2010-12-31T21:13:42Z</time>
      </trkpt>
      <trkpt lat="30.791381970047951" lon="-4.465316003188491">
        <ele>594.79999999999995</ele>
        <time>2010-12-31T21:13:49Z</time>
      </trkpt>
      <trkpt lat="30.791302006691694" lon="-4.465385992079973">
        <ele>589.10000000000002</ele>
        <time>2010-12-31T21:14:01Z</time>
      </trkpt>
      <trkpt lat="30.791180972009897" lon="-4.465707018971443">
        <ele>590.60000000000002</ele>
        <time>2010-12-31T21:14:11Z</time>
      </trkpt>
      <trkpt lat="30.791116012260318" lon="-4.465941041707993">
        <ele>593.70000000000005</ele>
        <time>2010-12-31T21:14:18Z</time>
      </trkpt>
      <trkpt lat="30.790791967883706" lon="-4.466441022232175">
        <ele>591.10000000000002</ele>
        <time>2010-12-31T21:14:33Z</time>
      </trkpt>
      <trkpt lat="30.790716027840972" lon="-4.466661969199777">
        <ele>593.89999999999998</ele>
        <time>2010-12-31T21:14:45Z</time>
      </trkpt>
      <trkpt lat="30.790632963180542" lon="-4.466812005266547">
        <ele>633</ele>
        <time>2010-12-31T21:16:07Z</time>
      </trkpt>
      <trkpt lat="30.790301961824298" lon="-4.466761965304613">
        <ele>638.5</ele>
        <time>2010-12-31T21:16:24Z</time>
      </trkpt>
      <trkpt lat="30.790098030120134" lon="-4.466779986396432">
        <ele>638</ele>
        <time>2010-12-31T21:16:30Z</time>
      </trkpt>
      <trkpt lat="30.78998495824635" lon="-4.466914013028145">
        <ele>600.10000000000002</ele>
        <time>2010-12-31T21:17:58Z</time>
      </trkpt>
      <trkpt lat="30.789933996275067" lon="-4.467134959995747">
        <ele>631.29999999999995</ele>
        <time>2010-12-31T21:26:12Z</time>
      </trkpt>
      <trkpt lat="30.79002502374351" lon="-4.467148035764694">
        <ele>637</ele>
        <time>2010-12-31T21:26:20Z</time>
      </trkpt>
      <trkpt lat="30.790158966556191" lon="-4.467058014124632">
        <ele>651.89999999999998</ele>
        <time>2010-12-31T21:26:58Z</time>
      </trkpt>
      <trkpt lat="30.790310008451343" lon="-4.467021971940994">
        <ele>653.29999999999995</ele>
        <time>2010-12-31T21:27:07Z</time>
      </trkpt>
      <trkpt lat="30.790405981242657" lon="-4.46694603189826">
        <ele>684.89999999999998</ele>
        <time>2010-12-31T21:27:50Z</time>
      </trkpt>
      <trkpt lat="30.790447974577546" lon="-4.466814016923308">
        <ele>715.29999999999995</ele>
        <time>2010-12-31T21:29:41Z</time>
      </trkpt>
      <trkpt lat="30.790482005104423" lon="-4.466706980019808">
        <ele>718.5</ele>
        <time>2010-12-31T21:31:02Z</time>
      </trkpt>
      <trkpt lat="30.790451997891068" lon="-4.46683899499476">
        <ele>718.79999999999995</ele>
        <time>2010-12-31T21:31:05Z</time>
      </trkpt>
      <trkpt lat="30.790393995121121" lon="-4.46694896556437">
        <ele>718.89999999999998</ele>
        <time>2010-12-31T21:31:08Z</time>
      </trkpt>
      <trkpt lat="30.790227027609944" lon="-4.467253983020783">
        <ele>719.5</ele>
        <time>2010-12-31T21:31:18Z</time>
      </trkpt>
      <trkpt lat="30.790152009576559" lon="-4.467348027974367">
        <ele>720.10000000000002</ele>
        <time>2010-12-31T21:31:21Z</time>
      </trkpt>
      <trkpt lat="30.790086966007948" lon="-4.467463027685881">
        <ele>720.20000000000005</ele>
        <time>2010-12-31T21:31:24Z</time>
      </trkpt>
      <trkpt lat="30.789954029023647" lon="-4.467586996033788">
        <ele>717.5</ele>
        <time>2010-12-31T21:31:29Z</time>
      </trkpt>
      <trkpt lat="30.789722017943859" lon="-4.467761004343629">
        <ele>713.89999999999998</ele>
        <time>2010-12-31T21:31:39Z</time>
      </trkpt>
      <trkpt lat="30.789367966353893" lon="-4.468101980164647">
        <ele>711.20000000000005</ele>
        <time>2010-12-31T21:31:52Z</time>
      </trkpt>
      <trkpt lat="30.789323039352894" lon="-4.468197030946612">
        <ele>710.79999999999995</ele>
        <time>2010-12-31T21:31:55Z</time>
      </trkpt>
      <trkpt lat="30.789277022704482" lon="-4.468294009566307">
        <ele>710.5</ele>
        <time>2010-12-31T21:31:58Z</time>
      </trkpt>
      <trkpt lat="30.78886304050684" lon="-4.468589974567294">
        <ele>707.10000000000002</ele>
        <time>2010-12-31T21:32:13Z</time>
      </trkpt>
      <trkpt lat="30.788771007210016" lon="-4.468670021742582">
        <ele>702.20000000000005</ele>
        <time>2010-12-31T21:32:52Z</time>
      </trkpt>
      <trkpt lat="30.788661036640406" lon="-4.468715032562614">
        <ele>701.20000000000005</ele>
        <time>2010-12-31T21:32:56Z</time>
      </trkpt>
      <trkpt lat="30.788561040535569" lon="-4.468720983713865">
        <ele>700.70000000000005</ele>
        <time>2010-12-31T21:32:59Z</time>
      </trkpt>
      <trkpt lat="30.788647038862109" lon="-4.468614030629396">
        <ele>699.29999999999995</ele>
        <time>2010-12-31T21:33:06Z</time>
      </trkpt>
      <trkpt lat="30.788760026916862" lon="-4.468664992600679">
        <ele>699.89999999999998</ele>
        <time>2010-12-31T21:33:10Z</time>
      </trkpt>
      <trkpt lat="30.78888701274991" lon="-4.468638002872467">
        <ele>700.5</ele>
        <time>2010-12-31T21:33:14Z</time>
      </trkpt>
      <trkpt lat="30.789053980261087" lon="-4.468546975404024">
        <ele>700.39999999999998</ele>
        <time>2010-12-31T21:33:19Z</time>
      </trkpt>
      <trkpt lat="30.789163028821349" lon="-4.468527026474476">
        <ele>701</ele>
        <time>2010-12-31T21:33:22Z</time>
      </trkpt>
      <trkpt lat="30.789268976077437" lon="-4.468544963747263">
        <ele>701.70000000000005</ele>
        <time>2010-12-31T21:33:25Z</time>
      </trkpt>
      <trkpt lat="30.789357991889119" lon="-4.468609001487494">
        <ele>702.10000000000002</ele>
        <time>2010-12-31T21:33:28Z</time>
      </trkpt>
      <trkpt lat="30.789440972730517" lon="-4.46873196400702">
        <ele>702.89999999999998</ele>
        <time>2010-12-31T21:33:32Z</time>
      </trkpt>
      <trkpt lat="30.789553038775921" lon="-4.468813017010689">
        <ele>703.29999999999995</ele>
        <time>2010-12-31T21:33:37Z</time>
      </trkpt>
      <trkpt lat="30.789676001295447" lon="-4.468954000622034">
        <ele>704.70000000000005</ele>
        <time>2010-12-31T21:33:44Z</time>
      </trkpt>
      <trkpt lat="30.789783960208297" lon="-4.469017032533884">
        <ele>706</ele>
        <time>2010-12-31T21:33:48Z</time>
      </trkpt>
      <trkpt lat="30.789890997111797" lon="-4.469162039458752">
        <ele>706.5</ele>
        <time>2010-12-31T21:33:55Z</time>
      </trkpt>
      <trkpt lat="30.790085038170218" lon="-4.469194980338216">
        <ele>707.5</ele>
        <time>2010-12-31T21:34:11Z</time>
      </trkpt>
      <trkpt lat="30.790230967104435" lon="-4.469336969777942">
        <ele>706.79999999999995</ele>
        <time>2010-12-31T21:34:18Z</time>
      </trkpt>
      <trkpt lat="30.790332974866033" lon="-4.469366976991296">
        <ele>707.60000000000002</ele>
        <time>2010-12-31T21:34:21Z</time>
      </trkpt>
      <trkpt lat="30.790461972355843" lon="-4.469324983656406">
        <ele>707</ele>
        <time>2010-12-31T21:34:26Z</time>
      </trkpt>
      <trkpt lat="30.790573032572865" lon="-4.469322971999645">
        <ele>707.10000000000002</ele>
        <time>2010-12-31T21:34:30Z</time>
      </trkpt>
      <trkpt lat="30.790678979828954" lon="-4.469323977828026">
        <ele>707.29999999999995</ele>
        <time>2010-12-31T21:34:34Z</time>
      </trkpt>
      <trkpt lat="30.790794985368848" lon="-4.469349961727858">
        <ele>709.39999999999998</ele>
        <time>2010-12-31T21:34:38Z</time>
      </trkpt>
      <trkpt lat="30.790897998958826" lon="-4.469357002526522">
        <ele>711.39999999999998</ele>
        <time>2010-12-31T21:34:41Z</time>
      </trkpt>
      <trkpt lat="30.790995983406901" lon="-4.469349961727858">
        <ele>712.79999999999995</ele>
        <time>2010-12-31T21:34:44Z</time>
      </trkpt>
      <trkpt lat="30.791202010586858" lon="-4.469230016693473">
        <ele>707.89999999999998</ele>
        <time>2010-12-31T21:34:56Z</time>
      </trkpt>
      <trkpt lat="30.791299995034933" lon="-4.469130020588636">
        <ele>705.20000000000005</ele>
        <time>2010-12-31T21:35:03Z</time>
      </trkpt>
      <trkpt lat="30.791398985311389" lon="-4.469115016981959">
        <ele>704.5</ele>
        <time>2010-12-31T21:35:07Z</time>
      </trkpt>
      <trkpt lat="30.79150702804327" lon="-4.469117028638721">
        <ele>704.79999999999995</ele>
        <time>2010-12-31T21:35:11Z</time>
      </trkpt>
      <trkpt lat="30.791612975299358" lon="-4.469070006161928">
        <ele>704.60000000000002</ele>
        <time>2010-12-31T21:35:15Z</time>
      </trkpt>
      <trkpt lat="30.791783966124058" lon="-4.469057014212012">
        <ele>705.39999999999998</ele>
        <time>2010-12-31T21:35:21Z</time>
      </trkpt>
      <trkpt lat="30.791896032169461" lon="-4.469093978404999">
        <ele>706.39999999999998</ele>
        <time>2010-12-31T21:35:25Z</time>
      </trkpt>
      <trkpt lat="30.792150003835559" lon="-4.469320038333535">
        <ele>706.70000000000005</ele>
        <time>2010-12-31T21:35:36Z</time>
      </trkpt>
      <trkpt lat="30.792234996333718" lon="-4.46935398504138">
        <ele>706.70000000000005</ele>
        <time>2010-12-31T21:35:40Z</time>
      </trkpt>
      <trkpt lat="30.792337004095316" lon="-4.469357002526522">
        <ele>706.70000000000005</ele>
        <time>2010-12-31T21:35:44Z</time>
      </trkpt>
      <trkpt lat="30.792514029890299" lon="-4.469413999468088">
        <ele>707.89999999999998</ele>
        <time>2010-12-31T21:35:49Z</time>
      </trkpt>
      <trkpt lat="30.792627017945051" lon="-4.469410981982946">
        <ele>709.60000000000002</ele>
        <time>2010-12-31T21:35:52Z</time>
      </trkpt>
      <trkpt lat="30.792746962979436" lon="-4.469394972547889">
        <ele>710.60000000000002</ele>
        <time>2010-12-31T21:35:55Z</time>
      </trkpt>
      <trkpt lat="30.792874032631516" lon="-4.469424979761243">
        <ele>713</ele>
        <time>2010-12-31T21:35:59Z</time>
      </trkpt>
      <trkpt lat="30.792966987937689" lon="-4.469501003623009">
        <ele>715.39999999999998</ele>
        <time>2010-12-31T21:36:03Z</time>
      </trkpt>
      <trkpt lat="30.793051980435848" lon="-4.469618014991283">
        <ele>726.89999999999998</ele>
        <time>2010-12-31T21:36:15Z</time>
      </trkpt>
      <trkpt lat="30.793126998469234" lon="-4.469708958640695">
        <ele>733.39999999999998</ele>
        <time>2010-12-31T21:36:25Z</time>
      </trkpt>
      <trkpt lat="30.793217020109296" lon="-4.469758998602629">
        <ele>734.89999999999998</ele>
        <time>2010-12-31T21:36:30Z</time>
      </trkpt>
      <trkpt lat="30.793317016214132" lon="-4.469728991389275">
        <ele>735.89999999999998</ele>
        <time>2010-12-31T21:36:34Z</time>
      </trkpt>
      <trkpt lat="30.793424975126982" lon="-4.469605023041368">
        <ele>734.70000000000005</ele>
        <time>2010-12-31T21:36:39Z</time>
      </trkpt>
      <trkpt lat="30.793670983985066" lon="-4.469478959217668">
        <ele>739.20000000000005</ele>
        <time>2010-12-31T21:36:48Z</time>
      </trkpt>
      <trkpt lat="30.79378598369658" lon="-4.469462027773261">
        <ele>740.29999999999995</ele>
        <time>2010-12-31T21:36:51Z</time>
      </trkpt>
      <trkpt lat="30.794155960902572" lon="-4.469498991966248">
        <ele>742.60000000000002</ele>
        <time>2010-12-31T21:36:59Z</time>
      </trkpt>
      <trkpt lat="30.794290993362665" lon="-4.469535034149885">
        <ele>743.29999999999995</ele>
        <time>2010-12-31T21:37:02Z</time>
      </trkpt>
      <trkpt lat="30.794415967538953" lon="-4.469584990292788">
        <ele>743.79999999999995</ele>
        <time>2010-12-31T21:37:05Z</time>
      </trkpt>
      <trkpt lat="30.794735988602042" lon="-4.46976101025939">
        <ele>743.5</ele>
        <time>2010-12-31T21:37:13Z</time>
      </trkpt>
      <trkpt lat="30.794948972761631" lon="-4.469756986945868">
        <ele>744.5</ele>
        <time>2010-12-31T21:37:18Z</time>
      </trkpt>
      <trkpt lat="30.79505299217999" lon="-4.469786994159222">
        <ele>745.60000000000002</ele>
        <time>2010-12-31T21:37:21Z</time>
      </trkpt>
      <trkpt lat="30.795510979369283" lon="-4.470095029100776">
        <ele>747.10000000000002</ele>
        <time>2010-12-31T21:37:36Z</time>
      </trkpt>
      <trkpt lat="30.795566970482469" lon="-4.470206005498767">
        <ele>747.79999999999995</ele>
        <time>2010-12-31T21:37:40Z</time>
      </trkpt>
      <trkpt lat="30.795751037076116" lon="-4.47051496244967">
        <ele>746.20000000000005</ele>
        <time>2010-12-31T21:37:55Z</time>
      </trkpt>
      <trkpt lat="30.795823037624359" lon="-4.470612024888396">
        <ele>744.60000000000002</ele>
        <time>2010-12-31T21:38:09Z</time>
      </trkpt>
      <trkpt lat="30.795946000143886" lon="-4.47072803042829">
        <ele>744.89999999999998</ele>
        <time>2010-12-31T21:38:15Z</time>
      </trkpt>
      <trkpt lat="30.796086983755231" lon="-4.47090296074748">
        <ele>744.29999999999995</ele>
        <time>2010-12-31T21:38:21Z</time>
      </trkpt>
      <trkpt lat="30.796215981245041" lon="-4.471107982099056">
        <ele>743.89999999999998</ele>
        <time>2010-12-31T21:38:28Z</time>
      </trkpt>
      <trkpt lat="30.796301979571581" lon="-4.471161039546132">
        <ele>744.20000000000005</ele>
        <time>2010-12-31T21:38:32Z</time>
      </trkpt>
      <trkpt lat="30.796526027843356" lon="-4.471396990120411">
        <ele>745.39999999999998</ele>
        <time>2010-12-31T21:38:42Z</time>
      </trkpt>
      <trkpt lat="30.796600040048361" lon="-4.47152397595346">
        <ele>745.10000000000002</ele>
        <time>2010-12-31T21:38:47Z</time>
      </trkpt>
      <trkpt lat="30.796531978994608" lon="-4.471693960949779">
        <ele>741.20000000000005</ele>
        <time>2010-12-31T21:38:53Z</time>
      </trkpt>
      <trkpt lat="30.796494008973241" lon="-4.471804015338421">
        <ele>741.39999999999998</ele>
        <time>2010-12-31T21:38:56Z</time>
      </trkpt>
      <trkpt lat="30.796547988429666" lon="-4.471905017271638">
        <ele>741.20000000000005</ele>
        <time>2010-12-31T21:39:00Z</time>
      </trkpt>
      <trkpt lat="30.796563997864723" lon="-4.47203703224659">
        <ele>740</ele>
        <time>2010-12-31T21:39:04Z</time>
      </trkpt>
      <trkpt lat="30.796559974551201" lon="-4.4721660297364">
        <ele>739.5</ele>
        <time>2010-12-31T21:39:07Z</time>
      </trkpt>
      <trkpt lat="30.796602973714471" lon="-4.47285401634872">
        <ele>736.39999999999998</ele>
        <time>2010-12-31T21:39:19Z</time>
      </trkpt>
      <trkpt lat="30.796585036441684" lon="-4.473245032131672">
        <ele>734.39999999999998</ele>
        <time>2010-12-31T21:39:26Z</time>
      </trkpt>
      <trkpt lat="30.796610014513135" lon="-4.473708970472217">
        <ele>732.79999999999995</ele>
        <time>2010-12-31T21:39:35Z</time>
      </trkpt>
      <trkpt lat="30.796624012291431" lon="-4.473825981840491">
        <ele>732.5</ele>
        <time>2010-12-31T21:39:37Z</time>
      </trkpt>
      <trkpt lat="30.796658964827657" lon="-4.474008036777377">
        <ele>732.10000000000002</ele>
        <time>2010-12-31T21:39:40Z</time>
      </trkpt>
      <trkpt lat="30.796905979514122" lon="-4.474858967587352">
        <ele>735.20000000000005</ele>
        <time>2010-12-31T21:39:56Z</time>
      </trkpt>
      <trkpt lat="30.797322979196906" lon="-4.475844008848071">
        <ele>737.89999999999998</ele>
        <time>2010-12-31T21:40:14Z</time>
      </trkpt>
      <trkpt lat="30.797393973916769" lon="-4.475980969145894">
        <ele>738.39999999999998</ele>
        <time>2010-12-31T21:40:17Z</time>
      </trkpt>
      <trkpt lat="30.797391962260008" lon="-4.476118013262749">
        <ele>738.60000000000002</ele>
        <time>2010-12-31T21:40:20Z</time>
      </trkpt>
      <trkpt lat="30.797365978360176" lon="-4.476246004924178">
        <ele>738.89999999999998</ele>
        <time>2010-12-31T21:40:23Z</time>
      </trkpt>
      <trkpt lat="30.797387016937137" lon="-4.476356981322169">
        <ele>738.89999999999998</ele>
        <time>2010-12-31T21:40:25Z</time>
      </trkpt>
      <trkpt lat="30.797620033845305" lon="-4.477120991796255">
        <ele>741.70000000000005</ele>
        <time>2010-12-31T21:40:39Z</time>
      </trkpt>
      <trkpt lat="30.797637971118093" lon="-4.477234985679388">
        <ele>742.89999999999998</ele>
        <time>2010-12-31T21:40:41Z</time>
      </trkpt>
      <trkpt lat="30.797646017745137" lon="-4.477360965684056">
        <ele>744.10000000000002</ele>
        <time>2010-12-31T21:40:43Z</time>
      </trkpt>
      <trkpt lat="30.797639982774854" lon="-4.477609992027283">
        <ele>743.5</ele>
        <time>2010-12-31T21:40:47Z</time>
      </trkpt>
      <trkpt lat="30.797592960298061" lon="-4.477929007261992">
        <ele>742.29999999999995</ele>
        <time>2010-12-31T21:40:54Z</time>
      </trkpt>
      <trkpt lat="30.797579968348145" lon="-4.478297978639603">
        <ele>740.20000000000005</ele>
        <time>2010-12-31T21:41:03Z</time>
      </trkpt>
      <trkpt lat="30.797583991661668" lon="-4.478604001924396">
        <ele>738.60000000000002</ele>
        <time>2010-12-31T21:41:11Z</time>
      </trkpt>
      <trkpt lat="30.797575023025274" lon="-4.478715984150767">
        <ele>738.20000000000005</ele>
        <time>2010-12-31T21:41:14Z</time>
      </trkpt>
      <trkpt lat="30.797553984448314" lon="-4.478831989690661">
        <ele>738.70000000000005</ele>
        <time>2010-12-31T21:41:17Z</time>
      </trkpt>
      <trkpt lat="30.797564964741468" lon="-4.478940032422543">
        <ele>738.70000000000005</ele>
        <time>2010-12-31T21:41:20Z</time>
      </trkpt>
      <trkpt lat="30.797629002481699" lon="-4.479067018255591">
        <ele>737.89999999999998</ele>
        <time>2010-12-31T21:41:24Z</time>
      </trkpt>
      <trkpt lat="30.79769304022193" lon="-4.479153016582131">
        <ele>740.5</ele>
        <time>2010-12-31T21:41:40Z</time>
      </trkpt>
      <trkpt lat="30.79803703352809" lon="-4.479117980226874">
        <ele>761.70000000000005</ele>
        <time>2010-12-31T21:42:53Z</time>
      </trkpt>
      <trkpt lat="30.798135017976165" lon="-4.479133989661932">
        <ele>759.5</ele>
        <time>2010-12-31T21:42:56Z</time>
      </trkpt>
      <trkpt lat="30.798263009637594" lon="-4.47919299826026">
        <ele>756</ele>
        <time>2010-12-31T21:43:00Z</time>
      </trkpt>
      <trkpt lat="30.79838496632874" lon="-4.479202972725034">
        <ele>754.70000000000005</ele>
        <time>2010-12-31T21:43:04Z</time>
      </trkpt>
      <trkpt lat="30.798600967973471" lon="-4.47949499823153">
        <ele>753.89999999999998</ele>
        <time>2010-12-31T21:43:14Z</time>
      </trkpt>
      <trkpt lat="30.798650002107024" lon="-4.479611003771424">
        <ele>752.70000000000005</ele>
        <time>2010-12-31T21:43:18Z</time>
      </trkpt>
      <trkpt lat="30.798677997663617" lon="-4.479734972119331">
        <ele>752.20000000000005</ele>
        <time>2010-12-31T21:43:22Z</time>
      </trkpt>
      <trkpt lat="30.798766007646918" lon="-4.479764979332686">
        <ele>752.10000000000002</ele>
        <time>2010-12-31T21:43:26Z</time>
      </trkpt>
      <trkpt lat="30.798860974609852" lon="-4.479710999876261">
        <ele>751.5</ele>
        <time>2010-12-31T21:43:29Z</time>
      </trkpt>
      <trkpt lat="30.798672968521714" lon="-4.479389972984791">
        <ele>647.5</ele>
        <time>2010-12-31T22:38:37Z</time>
      </trkpt>
      <trkpt lat="30.798422014340758" lon="-4.479448981583118">
        <ele>640.5</ele>
        <time>2010-12-31T22:43:04Z</time>
      </trkpt>
      <trkpt lat="30.798335010185838" lon="-4.479414029046893">
        <ele>644.10000000000002</ele>
        <time>2010-12-31T22:43:07Z</time>
      </trkpt>
      <trkpt lat="30.79825202934444" lon="-4.479330964386463">
        <ele>644.20000000000005</ele>
        <time>2010-12-31T22:43:11Z</time>
      </trkpt>
      <trkpt lat="30.798213975504041" lon="-4.479212025180459">
        <ele>644</ele>
        <time>2010-12-31T22:43:15Z</time>
      </trkpt>
      <trkpt lat="30.798219004645944" lon="-4.479003986343741">
        <ele>639.89999999999998</ele>
        <time>2010-12-31T22:43:22Z</time>
      </trkpt>
      <trkpt lat="30.798237025737762" lon="-4.47889200411737">
        <ele>641.89999999999998</ele>
        <time>2010-12-31T22:43:26Z</time>
      </trkpt>
      <trkpt lat="30.798165025189519" lon="-4.478810029104352">
        <ele>641.20000000000005</ele>
        <time>2010-12-31T22:43:30Z</time>
      </trkpt>
      <trkpt lat="30.798022029921412" lon="-4.478800976648927">
        <ele>647.39999999999998</ele>
        <time>2010-12-31T22:43:35Z</time>
      </trkpt>
      <trkpt lat="30.797847015783191" lon="-4.478765018284321">
        <ele>650.20000000000005</ele>
        <time>2010-12-31T22:43:41Z</time>
      </trkpt>
      <trkpt lat="30.797707960009575" lon="-4.478788990527391">
        <ele>652.5</ele>
        <time>2010-12-31T22:43:46Z</time>
      </trkpt>
      <trkpt lat="30.79761098138988" lon="-4.478800976648927">
        <ele>656.29999999999995</ele>
        <time>2010-12-31T22:43:50Z</time>
      </trkpt>
      <trkpt lat="30.797517020255327" lon="-4.478866020217538">
        <ele>658.79999999999995</ele>
        <time>2010-12-31T22:43:55Z</time>
      </trkpt>
      <trkpt lat="30.797434039413929" lon="-4.479080010205507">
        <ele>699.29999999999995</ele>
        <time>2010-12-31T22:48:30Z</time>
      </trkpt>
      <trkpt lat="30.797333959490061" lon="-4.479206996038556">
        <ele>738.5</ele>
        <time>2010-12-31T22:51:31Z</time>
      </trkpt>
      <trkpt lat="30.797289032489061" lon="-4.479233985766769">
        <ele>750.70000000000005</ele>
        <time>2010-12-31T22:53:36Z</time>
      </trkpt>
    </trkseg>
  </trk>

  <trk>
    <name>110101</name>
    <extensions>
      <gpxx:TrackExtension xmlns:gpxx="http://www.garmin.com/xmlschemas/GpxExtensions/v3">
        <gpxx:DisplayColor>Green</gpxx:DisplayColor>
      </gpxx:TrackExtension>
    </extensions>
    <trkseg>
      <trkpt lat="30.797718437388539" lon="-4.479114292189479">
        <ele>652.87255860000005</ele>
        <time>2011-01-01T10:43:04Z</time>
      </trkpt>
      <trkpt lat="30.797784235328436" lon="-4.478666363283992">
        <ele>594.71264650000001</ele>
        <time>2011-01-01T11:33:31Z</time>
      </trkpt>
      <trkpt lat="30.797807285562158" lon="-4.478929890319705">
        <ele>585.09960939999996</ele>
        <time>2011-01-01T11:39:12Z</time>
      </trkpt>
      <trkpt lat="30.797525821253657" lon="-4.479139940813184">
        <ele>658.64038089999997</ele>
        <time>2011-01-01T11:44:22Z</time>
      </trkpt>
      <trkpt lat="30.797625062987208" lon="-4.479021085426211">
        <ele>650.94970699999999</ele>
        <time>2011-01-01T11:47:43Z</time>
      </trkpt>
      <trkpt lat="30.797560019418597" lon="-4.47925359942019">
        <ele>644.22070310000004</ele>
        <time>2011-01-01T11:48:04Z</time>
      </trkpt>
      <trkpt lat="30.797642581164837" lon="-4.479630365967751">
        <ele>644.22070310000004</ele>
        <time>2011-01-01T11:48:13Z</time>
      </trkpt>
      <trkpt lat="30.797594385221601" lon="-4.479769924655557">
        <ele>647.10449219999998</ele>
        <time>2011-01-01T11:48:17Z</time>
      </trkpt>
      <trkpt lat="30.797360194846988" lon="-4.479885259643197">
        <ele>656.71777340000006</ele>
        <time>2011-01-01T11:48:22Z</time>
      </trkpt>
      <trkpt lat="30.797106139361858" lon="-4.480101680383086">
        <ele>665.85034180000002</ele>
        <time>2011-01-01T11:48:27Z</time>
      </trkpt>
      <trkpt lat="30.797002874314785" lon="-4.480285663157702">
        <ele>670.17626949999999</ele>
        <time>2011-01-01T11:48:30Z</time>
      </trkpt>
      <trkpt lat="30.796754518523812" lon="-4.480475764721632">
        <ele>679.30859380000004</ele>
        <time>2011-01-01T11:48:35Z</time>
      </trkpt>
      <trkpt lat="30.79661219380796" lon="-4.480798467993736">
        <ele>683.63452150000001</ele>
        <time>2011-01-01T11:48:41Z</time>
      </trkpt>
      <trkpt lat="30.796750076115131" lon="-4.48097113519907">
        <ele>686.03808590000006</ele>
        <time>2011-01-01T11:48:47Z</time>
      </trkpt>
      <trkpt lat="30.796879241243005" lon="-4.481161236763001">
        <ele>689.40258789999996</ele>
        <time>2011-01-01T11:48:53Z</time>
      </trkpt>
      <trkpt lat="30.796922072768211" lon="-4.481403892859817">
        <ele>690.84448239999995</ele>
        <time>2011-01-01T11:48:58Z</time>
      </trkpt>
      <trkpt lat="30.797030199319124" lon="-4.481811840087175">
        <ele>692.76733400000001</ele>
        <time>2011-01-01T11:49:07Z</time>
      </trkpt>
      <trkpt lat="30.797066492959857" lon="-4.481932958588004">
        <ele>692.76733400000001</ele>
        <time>2011-01-01T11:49:10Z</time>
      </trkpt>
      <trkpt lat="30.797166489064693" lon="-4.482114762067795">
        <ele>690.84448239999995</ele>
        <time>2011-01-01T11:49:14Z</time>
      </trkpt>
      <trkpt lat="30.797211583703756" lon="-4.482412822544575">
        <ele>688.92211910000003</ele>
        <time>2011-01-01T11:49:20Z</time>
      </trkpt>
      <trkpt lat="30.797235891222954" lon="-4.482828229665756">
        <ele>686.99926760000005</ele>
        <time>2011-01-01T11:49:29Z</time>
      </trkpt>
      <trkpt lat="30.797204459086061" lon="-4.483058229088783">
        <ele>685.55737299999998</ele>
        <time>2011-01-01T11:49:33Z</time>
      </trkpt>
      <trkpt lat="30.797158777713776" lon="-4.483157470822334">
        <ele>686.51879880000001</ele>
        <time>2011-01-01T11:49:35Z</time>
      </trkpt>
      <trkpt lat="30.7970089931041" lon="-4.483391158282757">
        <ele>687.96069339999997</ele>
        <time>2011-01-01T11:49:40Z</time>
      </trkpt>
      <trkpt lat="30.796889634802938" lon="-4.483523089438677">
        <ele>688.92211910000003</ele>
        <time>2011-01-01T11:49:43Z</time>
      </trkpt>
      <trkpt lat="30.796782681718469" lon="-4.483754262328148">
        <ele>690.84448239999995</ele>
        <time>2011-01-01T11:49:47Z</time>
      </trkpt>
      <trkpt lat="30.796717135235667" lon="-4.484026338905096">
        <ele>691.80590819999998</ele>
        <time>2011-01-01T11:49:51Z</time>
      </trkpt>
      <trkpt lat="30.79657506197691" lon="-4.484286261722446">
        <ele>692.28662110000005</ele>
        <time>2011-01-01T11:49:55Z</time>
      </trkpt>
      <trkpt lat="30.796510521322489" lon="-4.48482689447701">
        <ele>689.88330080000003</ele>
        <time>2011-01-01T11:50:03Z</time>
      </trkpt>
      <trkpt lat="30.796690061688423" lon="-4.485068125650287">
        <ele>688.44140630000004</ele>
        <time>2011-01-01T11:50:07Z</time>
      </trkpt>
      <trkpt lat="30.796824591234326" lon="-4.48515621945262">
        <ele>687.96069339999997</ele>
        <time>2011-01-01T11:50:09Z</time>
      </trkpt>
      <trkpt lat="30.797076635062695" lon="-4.485511863604188">
        <ele>687.47998050000001</ele>
        <time>2011-01-01T11:50:14Z</time>
      </trkpt>
      <trkpt lat="30.797505034133792" lon="-4.486523475497961">
        <ele>689.88330080000003</ele>
        <time>2011-01-01T11:50:25Z</time>
      </trkpt>
      <trkpt lat="30.797422640025616" lon="-4.48704868555069">
        <ele>686.99926760000005</ele>
        <time>2011-01-01T11:50:31Z</time>
      </trkpt>
      <trkpt lat="30.797231029719114" lon="-4.487275835126638">
        <ele>687.96069339999997</ele>
        <time>2011-01-01T11:50:35Z</time>
      </trkpt>
      <trkpt lat="30.796981668099761" lon="-4.487525196745992">
        <ele>689.88330080000003</ele>
        <time>2011-01-01T11:50:40Z</time>
      </trkpt>
      <trkpt lat="30.796888628974557" lon="-4.487883858382702">
        <ele>690.84448239999995</ele>
        <time>2011-01-01T11:50:47Z</time>
      </trkpt>
      <trkpt lat="30.796832889318466" lon="-4.488190971314907">
        <ele>690.36401369999999</ele>
        <time>2011-01-01T11:50:53Z</time>
      </trkpt>
      <trkpt lat="30.796744041144848" lon="-4.488361962139607">
        <ele>690.84448239999995</ele>
        <time>2011-01-01T11:50:56Z</time>
      </trkpt>
      <trkpt lat="30.796687128022313" lon="-4.488477883860469">
        <ele>690.36401369999999</ele>
        <time>2011-01-01T11:50:58Z</time>
      </trkpt>
      <trkpt lat="30.796610685065389" lon="-4.488681396469474">
        <ele>687.47998050000001</ele>
        <time>2011-01-01T11:51:02Z</time>
      </trkpt>
      <trkpt lat="30.796604817733169" lon="-4.489282630383968">
        <ele>678.828125</ele>
        <time>2011-01-01T11:51:11Z</time>
      </trkpt>
      <trkpt lat="30.796799529343843" lon="-4.489724272862077">
        <ele>669.21508789999996</ele>
        <time>2011-01-01T11:51:18Z</time>
      </trkpt>
      <trkpt lat="30.797485923394561" lon="-4.490255434066057">
        <ele>654.79516599999999</ele>
        <time>2011-01-01T11:51:29Z</time>
      </trkpt>
      <trkpt lat="30.79773117788136" lon="-4.490319136530161">
        <ele>649.02709960000004</ele>
        <time>2011-01-01T11:51:33Z</time>
      </trkpt>
      <trkpt lat="30.798158571124077" lon="-4.490301618352532">
        <ele>641.33666989999995</ele>
        <time>2011-01-01T11:51:39Z</time>
      </trkpt>
      <trkpt lat="30.79849686473608" lon="-4.490465316921473">
        <ele>636.04956049999998</ele>
        <time>2011-01-01T11:51:45Z</time>
      </trkpt>
      <trkpt lat="30.798567021265626" lon="-4.490544861182571">
        <ele>634.60742189999996</ele>
        <time>2011-01-01T11:51:47Z</time>
      </trkpt>
      <trkpt lat="30.798707418143749" lon="-4.490743260830641">
        <ele>631.72338869999999</ele>
        <time>2011-01-01T11:51:51Z</time>
      </trkpt>
      <trkpt lat="30.799060883000493" lon="-4.490976864472032">
        <ele>627.87817380000001</ele>
        <time>2011-01-01T11:51:57Z</time>
      </trkpt>
      <trkpt lat="30.799351399764419" lon="-4.491005362942815">
        <ele>626.43627930000002</ele>
        <time>2011-01-01T11:52:01Z</time>
      </trkpt>
      <trkpt lat="30.799700673669577" lon="-4.49111457914114">
        <ele>626.43627930000002</ele>
        <time>2011-01-01T11:52:06Z</time>
      </trkpt>
      <trkpt lat="30.799931595101953" lon="-4.491263777017593">
        <ele>624.99438480000003</ele>
        <time>2011-01-01T11:52:11Z</time>
      </trkpt>
      <trkpt lat="30.800209622830153" lon="-4.491197727620602">
        <ele>625.47485349999999</ele>
        <time>2011-01-01T11:52:34Z</time>
      </trkpt>
      <trkpt lat="30.80076358281076" lon="-4.491259586066008">
        <ele>624.99438480000003</ele>
        <time>2011-01-01T11:52:42Z</time>
      </trkpt>
      <trkpt lat="30.800926527008414" lon="-4.49126017279923">
        <ele>624.51367189999996</ele>
        <time>2011-01-01T11:52:44Z</time>
      </trkpt>
      <trkpt lat="30.801316620782018" lon="-4.491374334320426">
        <ele>623.55249019999997</ele>
        <time>2011-01-01T11:52:49Z</time>
      </trkpt>
      <trkpt lat="30.801582662388682" lon="-4.491485059261322">
        <ele>623.55249019999997</ele>
        <time>2011-01-01T11:52:54Z</time>
      </trkpt>
      <trkpt lat="30.801719119772315" lon="-4.491550019010902">
        <ele>623.55249019999997</ele>
        <time>2011-01-01T11:52:57Z</time>
      </trkpt>
      <trkpt lat="30.801904192194343" lon="-4.491663426160812">
        <ele>624.51367189999996</ele>
        <time>2011-01-01T11:53:01Z</time>
      </trkpt>
      <trkpt lat="30.802170988172293" lon="-4.491917565464973">
        <ele>626.43627930000002</ele>
        <time>2011-01-01T11:53:08Z</time>
      </trkpt>
      <trkpt lat="30.802482040598989" lon="-4.492189139127731">
        <ele>626.91699219999998</ele>
        <time>2011-01-01T11:53:18Z</time>
      </trkpt>
      <trkpt lat="30.802528141066432" lon="-4.492533132433891">
        <ele>625.47485349999999</ele>
        <time>2011-01-01T11:53:27Z</time>
      </trkpt>
      <trkpt lat="30.802705166861415" lon="-4.492711666971445">
        <ele>626.91699219999998</ele>
        <time>2011-01-01T11:53:35Z</time>
      </trkpt>
      <trkpt lat="30.802819579839706" lon="-4.493033699691296">
        <ele>629.80078130000004</ele>
        <time>2011-01-01T11:53:44Z</time>
      </trkpt>
      <trkpt lat="30.802883030846715" lon="-4.493560334667563">
        <ele>630.28149410000003</ele>
        <time>2011-01-01T11:53:58Z</time>
      </trkpt>
      <trkpt lat="30.802815388888121" lon="-4.494033996015787">
        <ele>624.51367189999996</ele>
        <time>2011-01-01T11:54:11Z</time>
      </trkpt>
      <trkpt lat="30.802924772724509" lon="-4.494299534708262">
        <ele>628.83959960000004</ele>
        <time>2011-01-01T11:54:16Z</time>
      </trkpt>
      <trkpt lat="30.802965927869081" lon="-4.494580663740635">
        <ele>629.80078130000004</ele>
        <time>2011-01-01T11:54:21Z</time>
      </trkpt>
      <trkpt lat="30.802934998646379" lon="-4.494679486379027">
        <ele>628.35888669999997</ele>
        <time>2011-01-01T11:54:23Z</time>
      </trkpt>
      <trkpt lat="30.802883030846715" lon="-4.494859697297216">
        <ele>624.99438480000003</ele>
        <time>2011-01-01T11:54:27Z</time>
      </trkpt>
      <trkpt lat="30.802959473803639" lon="-4.495270997285843">
        <ele>624.03295900000001</ele>
        <time>2011-01-01T11:54:34Z</time>
      </trkpt>
      <trkpt lat="30.803013369441032" lon="-4.49550879187882">
        <ele>624.51367189999996</ele>
        <time>2011-01-01T11:54:39Z</time>
      </trkpt>
      <trkpt lat="30.803247895091772" lon="-4.496028134599328">
        <ele>630.28149410000003</ele>
        <time>2011-01-01T11:54:50Z</time>
      </trkpt>
      <trkpt lat="30.803411090746522" lon="-4.496381934732199">
        <ele>629.80078130000004</ele>
        <time>2011-01-01T11:54:57Z</time>
      </trkpt>
      <trkpt lat="30.803816774860024" lon="-4.496808238327503">
        <ele>627.87817380000001</ele>
        <time>2011-01-01T11:55:08Z</time>
      </trkpt>
      <trkpt lat="30.804055659100413" lon="-4.497216437011957">
        <ele>628.83959960000004</ele>
        <time>2011-01-01T11:55:18Z</time>
      </trkpt>
      <trkpt lat="30.804221034049988" lon="-4.497422464191914">
        <ele>629.32006839999997</ele>
        <time>2011-01-01T11:55:27Z</time>
      </trkpt>
      <trkpt lat="30.804305775091052" lon="-4.497345937415958">
        <ele>645.18188480000003</ele>
        <time>2011-01-01T12:12:52Z</time>
      </trkpt>
      <trkpt lat="30.804572738707066" lon="-4.497511899098754">
        <ele>650.94970699999999</ele>
        <time>2011-01-01T12:25:23Z</time>
      </trkpt>
      <trkpt lat="30.80474398098886" lon="-4.497633269056678">
        <ele>651.43041989999995</ele>
        <time>2011-01-01T12:25:28Z</time>
      </trkpt>
      <trkpt lat="30.804888987913728" lon="-4.497927222400904">
        <ele>650.94970699999999</ele>
        <time>2011-01-01T12:25:35Z</time>
      </trkpt>
      <trkpt lat="30.804962161928415" lon="-4.498426532372832">
        <ele>648.54638669999997</ele>
        <time>2011-01-01T12:25:45Z</time>
      </trkpt>
      <trkpt lat="30.804888233542442" lon="-4.49866876937449">
        <ele>643.25927730000001</ele>
        <time>2011-01-01T12:25:54Z</time>
      </trkpt>
      <trkpt lat="30.805081436410546" lon="-4.499333119019866">
        <ele>645.18188480000003</ele>
        <time>2011-01-01T12:26:08Z</time>
      </trkpt>
      <trkpt lat="30.805254187434912" lon="-4.500119425356388">
        <ele>649.02709960000004</ele>
        <time>2011-01-01T12:26:21Z</time>
      </trkpt>
      <trkpt lat="30.805519223213196" lon="-4.501040931791067">
        <ele>649.5078125</ele>
        <time>2011-01-01T12:26:36Z</time>
      </trkpt>
      <trkpt lat="30.805605724453926" lon="-4.501316864043474">
        <ele>649.98852539999996</ele>
        <time>2011-01-01T12:26:41Z</time>
      </trkpt>
      <trkpt lat="30.805617040023208" lon="-4.501531440764666">
        <ele>647.10449219999998</ele>
        <time>2011-01-01T12:26:45Z</time>
      </trkpt>
      <trkpt lat="30.805626763030887" lon="-4.50225337408483">
        <ele>639.4140625</ele>
        <time>2011-01-01T12:26:57Z</time>
      </trkpt>
      <trkpt lat="30.805676719173789" lon="-4.502462837845087">
        <ele>640.37548830000003</ele>
        <time>2011-01-01T12:27:00Z</time>
      </trkpt>
      <trkpt lat="30.805681999772787" lon="-4.50284605845809">
        <ele>635.08813480000003</ele>
        <time>2011-01-01T12:27:06Z</time>
      </trkpt>
      <trkpt lat="30.805790964514017" lon="-4.503527758643031">
        <ele>636.04956049999998</ele>
        <time>2011-01-01T12:27:17Z</time>
      </trkpt>
      <trkpt lat="30.806016437709332" lon="-4.504509279504418">
        <ele>641.33666989999995</ele>
        <time>2011-01-01T12:27:31Z</time>
      </trkpt>
      <trkpt lat="30.806265296414495" lon="-4.505343362689018">
        <ele>645.18188480000003</ele>
        <time>2011-01-01T12:27:43Z</time>
      </trkpt>
      <trkpt lat="30.806694030761719" lon="-4.506497383117676">
        <ele>645.18188480000003</ele>
        <time>2011-01-01T12:27:53Z</time>
      </trkpt>
      <trkpt lat="30.806293459609151" lon="-4.507432635873556">
        <ele>635.56860349999999</ele>
        <time>2011-01-01T12:28:06Z</time>
      </trkpt>
      <trkpt lat="30.806163204833865" lon="-4.507810994982719">
        <ele>632.20410159999994</ele>
        <time>2011-01-01T12:28:16Z</time>
      </trkpt>
      <trkpt lat="30.80627141520381" lon="-4.507489213719964">
        <ele>612.49707030000002</ele>
        <time>2011-01-01T12:31:14Z</time>
      </trkpt>
      <trkpt lat="30.806331429630518" lon="-4.507335908710957">
        <ele>605.28735349999999</ele>
        <time>2011-01-01T12:31:26Z</time>
      </trkpt>
      <trkpt lat="30.80641457810998" lon="-4.507123259827495">
        <ele>594.71264650000001</ele>
        <time>2011-01-01T12:31:40Z</time>
      </trkpt>
      <trkpt lat="30.806345595046878" lon="-4.507299698889256">
        <ele>596.63549799999998</ele>
        <time>2011-01-01T12:32:01Z</time>
      </trkpt>
      <trkpt lat="30.806219782680273" lon="-4.507641177624464">
        <ele>594.23217769999997</ele>
        <time>2011-01-01T12:32:06Z</time>
      </trkpt>
      <trkpt lat="30.80601048655808" lon="-4.508455982431769">
        <ele>597.59667969999998</ele>
        <time>2011-01-01T12:32:16Z</time>
      </trkpt>
      <trkpt lat="30.805884338915348" lon="-4.509134162217379">
        <ele>594.23217769999997</ele>
        <time>2011-01-01T12:32:23Z</time>
      </trkpt>
      <trkpt lat="30.805900683626533" lon="-4.509315630421042">
        <ele>593.75146480000001</ele>
        <time>2011-01-01T12:32:25Z</time>
      </trkpt>
      <trkpt lat="30.805913340300322" lon="-4.509651912376285">
        <ele>592.79028319999998</ele>
        <time>2011-01-01T12:32:29Z</time>
      </trkpt>
      <trkpt lat="30.80596849322319" lon="-4.510096991434693">
        <ele>591.34814449999999</ele>
        <time>2011-01-01T12:32:34Z</time>
      </trkpt>
      <trkpt lat="30.80615758895874" lon="-4.510633600875735">
        <ele>604.80664060000004</ele>
        <time>2011-01-01T12:32:42Z</time>
      </trkpt>
      <trkpt lat="30.806163623929024" lon="-4.511511437594891">
        <ele>601.44189449999999</ele>
        <time>2011-01-01T12:32:54Z</time>
      </trkpt>
      <trkpt lat="30.806177873164415" lon="-4.511647392064333">
        <ele>600.48071289999996</ele>
        <time>2011-01-01T12:32:56Z</time>
      </trkpt>
      <trkpt lat="30.806280635297298" lon="-4.512088866904378">
        <ele>606.24853519999999</ele>
        <time>2011-01-01T12:33:01Z</time>
      </trkpt>
      <trkpt lat="30.806341236457229" lon="-4.512501340359449">
        <ele>610.57446289999996</ele>
        <time>2011-01-01T12:33:06Z</time>
      </trkpt>
      <trkpt lat="30.806348863989115" lon="-4.512678198516369">
        <ele>609.61328130000004</ele>
        <time>2011-01-01T12:33:08Z</time>
      </trkpt>
      <trkpt lat="30.806221459060907" lon="-4.513165773823857">
        <ele>604.32617189999996</ele>
        <time>2011-01-01T12:33:14Z</time>
      </trkpt>
      <trkpt lat="30.806090785190463" lon="-4.513581767678261">
        <ele>600.96118160000003</ele>
        <time>2011-01-01T12:33:23Z</time>
      </trkpt>
      <trkpt lat="30.806133784353733" lon="-4.513834901154041">
        <ele>602.40307619999999</ele>
        <time>2011-01-01T12:33:27Z</time>
      </trkpt>
      <trkpt lat="30.806330088526011" lon="-4.514210661873221">
        <ele>614.41967769999997</ele>
        <time>2011-01-01T12:33:36Z</time>
      </trkpt>
      <trkpt lat="30.806171167641878" lon="-4.514580639079213">
        <ele>612.49707030000002</ele>
        <time>2011-01-01T12:33:44Z</time>
      </trkpt>
      <trkpt lat="30.806013336405158" lon="-4.514939887449145">
        <ele>622.11035159999994</ele>
        <time>2011-01-01T12:33:52Z</time>
      </trkpt>
      <trkpt lat="30.806056503206491" lon="-4.515196206048131">
        <ele>626.91699219999998</ele>
        <time>2011-01-01T12:33:56Z</time>
      </trkpt>
      <trkpt lat="30.806151805445552" lon="-4.515492003411055">
        <ele>633.64599610000005</ele>
        <time>2011-01-01T12:34:02Z</time>
      </trkpt>
      <trkpt lat="30.806086007505655" lon="-4.515628460794687">
        <ele>632.68481450000002</ele>
        <time>2011-01-01T12:34:05Z</time>
      </trkpt>
      <trkpt lat="30.806071925908327" lon="-4.515734240412712">
        <ele>632.68481450000002</ele>
        <time>2011-01-01T12:34:07Z</time>
      </trkpt>
      <trkpt lat="30.805991291999817" lon="-4.516061218455434">
        <ele>630.76220699999999</ele>
        <time>2011-01-01T12:34:15Z</time>
      </trkpt>
      <trkpt lat="30.805943682789803" lon="-4.516208320856094">
        <ele>630.76220699999999</ele>
        <time>2011-01-01T12:34:18Z</time>
      </trkpt>
      <trkpt lat="30.80597578547895" lon="-4.516763873398304">
        <ele>631.72338869999999</ele>
        <time>2011-01-01T12:34:27Z</time>
      </trkpt>
      <trkpt lat="30.805982993915677" lon="-4.517324874177575">
        <ele>630.76220699999999</ele>
        <time>2011-01-01T12:34:37Z</time>
      </trkpt>
      <trkpt lat="30.806007385253906" lon="-4.51775218360126">
        <ele>630.28149410000003</ele>
        <time>2011-01-01T12:34:47Z</time>
      </trkpt>
      <trkpt lat="30.806030184030533" lon="-4.51829113997519">
        <ele>639.4140625</ele>
        <time>2011-01-01T12:34:57Z</time>
      </trkpt>
      <trkpt lat="30.805947873741388" lon="-4.518677964806557">
        <ele>639.4140625</ele>
        <time>2011-01-01T12:35:05Z</time>
      </trkpt>
      <trkpt lat="30.80580529756844" lon="-4.51906805858016">
        <ele>637.97216800000001</ele>
        <time>2011-01-01T12:35:14Z</time>
      </trkpt>
      <trkpt lat="30.805749977007508" lon="-4.519195714965463">
        <ele>636.53027340000006</ele>
        <time>2011-01-01T12:35:17Z</time>
      </trkpt>
      <trkpt lat="30.805542524904013" lon="-4.519547084346414">
        <ele>635.56860349999999</ele>
        <time>2011-01-01T12:35:26Z</time>
      </trkpt>
      <trkpt lat="30.805409085005522" lon="-4.519717488437891">
        <ele>634.60742189999996</ele>
        <time>2011-01-01T12:35:31Z</time>
      </trkpt>
      <trkpt lat="30.805256366729736" lon="-4.520131638273597">
        <ele>633.16528319999998</ele>
        <time>2011-01-01T12:35:41Z</time>
      </trkpt>
      <trkpt lat="30.8052565343678" lon="-4.520240183919668">
        <ele>636.04956049999998</ele>
        <time>2011-01-01T12:35:49Z</time>
      </trkpt>
      <trkpt lat="30.805488964542747" lon="-4.520331295207143">
        <ele>644.22070310000004</ele>
        <time>2011-01-01T12:35:59Z</time>
      </trkpt>
      <trkpt lat="30.805689794942737" lon="-4.520447133108974">
        <ele>649.98852539999996</ele>
        <time>2011-01-01T12:36:06Z</time>
      </trkpt>
      <trkpt lat="30.805754335597157" lon="-4.520699260756373">
        <ele>655.27587889999995</ele>
        <time>2011-01-01T12:36:11Z</time>
      </trkpt>
      <trkpt lat="30.805771434679627" lon="-4.521090276539326">
        <ele>662.00512700000002</ele>
        <time>2011-01-01T12:36:19Z</time>
      </trkpt>
      <trkpt lat="30.805771434679627" lon="-4.521618001163006">
        <ele>667.29223630000001</ele>
        <time>2011-01-01T12:36:28Z</time>
      </trkpt>
      <trkpt lat="30.805749893188477" lon="-4.522538417950273">
        <ele>669.69580080000003</ele>
        <time>2011-01-01T12:36:39Z</time>
      </trkpt>
      <trkpt lat="30.805749893188477" lon="-4.523133533075452">
        <ele>669.69580080000003</ele>
        <time>2011-01-01T12:36:45Z</time>
      </trkpt>
      <trkpt lat="30.805749893188477" lon="-4.523822190240026">
        <ele>671.13769530000002</ele>
        <time>2011-01-01T12:36:52Z</time>
      </trkpt>
      <trkpt lat="30.80569582991302" lon="-4.524486120790243">
        <ele>672.57958980000001</ele>
        <time>2011-01-01T12:36:59Z</time>
      </trkpt>
      <trkpt lat="30.8056640625" lon="-4.525212664157152">
        <ele>671.13769530000002</ele>
        <time>2011-01-01T12:37:06Z</time>
      </trkpt>
      <trkpt lat="30.805637240409851" lon="-4.525928478688002">
        <ele>664.40820310000004</ele>
        <time>2011-01-01T12:37:13Z</time>
      </trkpt>
      <trkpt lat="30.804613139480352" lon="-4.526649992913008">
        <ele>657.67919919999997</ele>
        <time>2011-01-01T12:37:21Z</time>
      </trkpt>
      <trkpt lat="30.804009474813938" lon="-4.527414087206125">
        <ele>649.5078125</ele>
        <time>2011-01-01T12:37:30Z</time>
      </trkpt>
      <trkpt lat="30.80368073657155" lon="-4.527798816561699">
        <ele>644.22070310000004</ele>
        <time>2011-01-01T12:37:35Z</time>
      </trkpt>
      <trkpt lat="30.803096434101462" lon="-4.528559138998389">
        <ele>631.24291989999995</ele>
        <time>2011-01-01T12:37:44Z</time>
      </trkpt>
      <trkpt lat="30.802660323679447" lon="-4.529359694570303">
        <ele>620.18774410000003</ele>
        <time>2011-01-01T12:37:52Z</time>
      </trkpt>
      <trkpt lat="30.802137292921543" lon="-4.530293941497803">
        <ele>612.97778319999998</ele>
        <time>2011-01-01T12:38:01Z</time>
      </trkpt>
      <trkpt lat="30.801947694271803" lon="-4.530519330874085">
        <ele>612.97778319999998</ele>
        <time>2011-01-01T12:38:05Z</time>
      </trkpt>
      <trkpt lat="30.801798664033413" lon="-4.53069543465972">
        <ele>613.45849610000005</ele>
        <time>2011-01-01T12:38:08Z</time>
      </trkpt>
      <trkpt lat="30.80169883556664" lon="-4.530843961983919">
        <ele>612.97778319999998</ele>
        <time>2011-01-01T12:38:10Z</time>
      </trkpt>
      <trkpt lat="30.801293067634106" lon="-4.531238665804267">
        <ele>608.65185550000001</ele>
        <time>2011-01-01T12:38:17Z</time>
      </trkpt>
      <trkpt lat="30.801093578338623" lon="-4.531684834510088">
        <ele>605.76806639999995</ele>
        <time>2011-01-01T12:38:23Z</time>
      </trkpt>
      <trkpt lat="30.800886377692223" lon="-4.532338036224246">
        <ele>602.88378909999994</ele>
        <time>2011-01-01T12:38:30Z</time>
      </trkpt>
      <trkpt lat="30.800680434331298" lon="-4.532813290134072">
        <ele>597.11596680000002</ele>
        <time>2011-01-01T12:38:35Z</time>
      </trkpt>
      <trkpt lat="30.800273073837161" lon="-4.533722139894962">
        <ele>593.75146480000001</ele>
        <time>2011-01-01T12:38:45Z</time>
      </trkpt>
      <trkpt lat="30.799815338104963" lon="-4.534507775679231">
        <ele>591.34814449999999</ele>
        <time>2011-01-01T12:38:54Z</time>
      </trkpt>
      <trkpt lat="30.799244781956077" lon="-4.535386534407735">
        <ele>588.46435550000001</ele>
        <time>2011-01-01T12:39:04Z</time>
      </trkpt>
      <trkpt lat="30.799065576866269" lon="-4.535665987059474">
        <ele>585.09960939999996</ele>
        <time>2011-01-01T12:39:07Z</time>
      </trkpt>
      <trkpt lat="30.798956276848912" lon="-4.535840582102537">
        <ele>582.69628909999994</ele>
        <time>2011-01-01T12:39:09Z</time>
      </trkpt>
      <trkpt lat="30.798451686277986" lon="-4.536660835146904">
        <ele>575.00585939999996</ele>
        <time>2011-01-01T12:39:18Z</time>
      </trkpt>
      <trkpt lat="30.797724388539791" lon="-4.537683427333832">
        <ele>568.75708010000005</ele>
        <time>2011-01-01T12:39:28Z</time>
      </trkpt>
      <trkpt lat="30.797500759363174" lon="-4.538100091740489">
        <ele>567.31518549999998</ele>
        <time>2011-01-01T12:39:32Z</time>
      </trkpt>
      <trkpt lat="30.796783939003944" lon="-4.539031991735101">
        <ele>563.46997069999998</ele>
        <time>2011-01-01T12:39:42Z</time>
      </trkpt>
      <trkpt lat="30.796481436118484" lon="-4.539361232891679">
        <ele>562.02807619999999</ele>
        <time>2011-01-01T12:39:46Z</time>
      </trkpt>
      <trkpt lat="30.79623207449913" lon="-4.539695922285318">
        <ele>561.54736330000003</ele>
        <time>2011-01-01T12:39:50Z</time>
      </trkpt>
      <trkpt lat="30.796115398406982" lon="-4.539851993322372">
        <ele>561.06665039999996</ele>
        <time>2011-01-01T12:39:52Z</time>
      </trkpt>
      <trkpt lat="30.795931164175272" lon="-4.540048465132713">
        <ele>560.10522460000004</ele>
        <time>2011-01-01T12:39:55Z</time>
      </trkpt>
      <trkpt lat="30.795775428414345" lon="-4.540273435413837">
        <ele>559.14404300000001</ele>
        <time>2011-01-01T12:39:58Z</time>
      </trkpt>
      <trkpt lat="30.795461777597666" lon="-4.540602676570416">
        <ele>558.18286130000001</ele>
        <time>2011-01-01T12:40:03Z</time>
      </trkpt>
      <trkpt lat="30.795086184516549" lon="-4.540919763967395">
        <ele>557.22143549999998</ele>
        <time>2011-01-01T12:40:08Z</time>
      </trkpt>
      <trkpt lat="30.794452428817749" lon="-4.54158017411828">
        <ele>556.26000980000003</ele>
        <time>2011-01-01T12:40:16Z</time>
      </trkpt>
      <trkpt lat="30.793616333976388" lon="-4.542322140187025">
        <ele>556.26000980000003</ele>
        <time>2011-01-01T12:40:24Z</time>
      </trkpt>
      <trkpt lat="30.792686194181442" lon="-4.543323274701834">
        <ele>554.33740230000001</ele>
        <time>2011-01-01T12:40:34Z</time>
      </trkpt>
      <trkpt lat="30.791931739076972" lon="-4.544028528034687">
        <ele>553.37597659999994</ele>
        <time>2011-01-01T12:40:43Z</time>
      </trkpt>
      <trkpt lat="30.791847836226225" lon="-4.544098516926169">
        <ele>552.89526369999999</ele>
        <time>2011-01-01T12:40:44Z</time>
      </trkpt>
      <trkpt lat="30.791542483493686" lon="-4.544426836073399">
        <ele>553.37597659999994</ele>
        <time>2011-01-01T12:40:48Z</time>
      </trkpt>
      <trkpt lat="30.791245428845286" lon="-4.544656835496426">
        <ele>553.85668950000002</ele>
        <time>2011-01-01T12:40:52Z</time>
      </trkpt>
      <trkpt lat="30.790830440819263" lon="-4.544991524890065">
        <ele>552.89526369999999</ele>
        <time>2011-01-01T12:40:57Z</time>
      </trkpt>
      <trkpt lat="30.78997808508575" lon="-4.545779675245285">
        <ele>553.37597659999994</ele>
        <time>2011-01-01T12:41:06Z</time>
      </trkpt>
      <trkpt lat="30.789148025214672" lon="-4.546414185315371">
        <ele>551.45336910000003</ele>
        <time>2011-01-01T12:41:14Z</time>
      </trkpt>
      <trkpt lat="30.788003392517567" lon="-4.547667028382421">
        <ele>547.12744139999995</ele>
        <time>2011-01-01T12:41:26Z</time>
      </trkpt>
      <trkpt lat="30.787213230505586" lon="-4.548510666936636">
        <ele>544.24365230000001</ele>
        <time>2011-01-01T12:41:35Z</time>
      </trkpt>
      <trkpt lat="30.787133770063519" lon="-4.548589959740639">
        <ele>543.76281740000002</ele>
        <time>2011-01-01T12:41:36Z</time>
      </trkpt>
      <trkpt lat="30.786319635808468" lon="-4.549289764836431">
        <ele>542.80151369999999</ele>
        <time>2011-01-01T12:41:46Z</time>
      </trkpt>
      <trkpt lat="30.785530563443899" lon="-4.550200458616018">
        <ele>549.05004880000001</ele>
        <time>2011-01-01T12:41:57Z</time>
      </trkpt>
      <trkpt lat="30.78524474054575" lon="-4.550584517419338">
        <ele>551.45336910000003</ele>
        <time>2011-01-01T12:42:02Z</time>
      </trkpt>
      <trkpt lat="30.785030331462622" lon="-4.551024567335844">
        <ele>554.81787110000005</ele>
        <time>2011-01-01T12:42:07Z</time>
      </trkpt>
      <trkpt lat="30.784587934613228" lon="-4.551640972495079">
        <ele>556.74072269999999</ele>
        <time>2011-01-01T12:42:15Z</time>
      </trkpt>
      <trkpt lat="30.784410741180182" lon="-4.551879521459341">
        <ele>557.22143549999998</ele>
        <time>2011-01-01T12:42:18Z</time>
      </trkpt>
      <trkpt lat="30.783960716798902" lon="-4.552773535251617">
        <ele>559.14404300000001</ele>
        <time>2011-01-01T12:42:27Z</time>
      </trkpt>
      <trkpt lat="30.78360834158957" lon="-4.553673667833209">
        <ele>560.10522460000004</ele>
        <time>2011-01-01T12:42:35Z</time>
      </trkpt>
      <trkpt lat="30.783117664977908" lon="-4.555053999647498">
        <ele>560.5859375</ele>
        <time>2011-01-01T12:42:46Z</time>
      </trkpt>
      <trkpt lat="30.782602680847049" lon="-4.556110538542271">
        <ele>559.62475589999997</ele>
        <time>2011-01-01T12:42:55Z</time>
      </trkpt>
      <trkpt lat="30.78201494179666" lon="-4.556891061365604">
        <ele>559.14404300000001</ele>
        <time>2011-01-01T12:43:03Z</time>
      </trkpt>
      <trkpt lat="30.781032331287861" lon="-4.558053882792592">
        <ele>558.66333010000005</ele>
        <time>2011-01-01T12:43:15Z</time>
      </trkpt>
      <trkpt lat="30.780271422117949" lon="-4.559065075591207">
        <ele>558.18286130000001</ele>
        <time>2011-01-01T12:43:25Z</time>
      </trkpt>
      <trkpt lat="30.780214592814445" lon="-4.559150235727429">
        <ele>558.18286130000001</ele>
        <time>2011-01-01T12:43:26Z</time>
      </trkpt>
      <trkpt lat="30.779967829585075" lon="-4.559384426102042">
        <ele>559.62475589999997</ele>
        <time>2011-01-01T12:43:30Z</time>
      </trkpt>
      <trkpt lat="30.779680581763387" lon="-4.559519374743104">
        <ele>561.06665039999996</ele>
        <time>2011-01-01T12:43:35Z</time>
      </trkpt>
      <trkpt lat="30.77898639254272" lon="-4.55975666642189">
        <ele>561.54736330000003</ele>
        <time>2011-01-01T12:43:44Z</time>
      </trkpt>
      <trkpt lat="30.778206288814545" lon="-4.559885999187827">
        <ele>567.79565430000002</ele>
        <time>2011-01-01T12:43:55Z</time>
      </trkpt>
      <trkpt lat="30.777353681623936" lon="-4.560003764927387">
        <ele>571.64086910000003</ele>
        <time>2011-01-01T12:44:07Z</time>
      </trkpt>
      <trkpt lat="30.77663216739893" lon="-4.560129828751087">
        <ele>575.00585939999996</ele>
        <time>2011-01-01T12:44:17Z</time>
      </trkpt>
      <trkpt lat="30.775707559660077" lon="-4.560568537563086">
        <ele>571.64086910000003</ele>
        <time>2011-01-01T12:44:29Z</time>
      </trkpt>
      <trkpt lat="30.774966264143586" lon="-4.560824939981103">
        <ele>568.75708010000005</ele>
        <time>2011-01-01T12:44:38Z</time>
      </trkpt>
      <trkpt lat="30.774435270577669" lon="-4.560940358787775">
        <ele>567.31518549999998</ele>
        <time>2011-01-01T12:44:45Z</time>
      </trkpt>
      <trkpt lat="30.774237960577011" lon="-4.561048066243529">
        <ele>566.35375980000003</ele>
        <time>2011-01-01T12:44:50Z</time>
      </trkpt>
      <trkpt lat="30.774086667224765" lon="-4.561317460611463">
        <ele>563.46997069999998</ele>
        <time>2011-01-01T12:44:54Z</time>
      </trkpt>
      <trkpt lat="30.773647371679544" lon="-4.561763377860189">
        <ele>557.70214840000006</ele>
        <time>2011-01-01T12:45:03Z</time>
      </trkpt>
      <trkpt lat="30.773419635370374" lon="-4.561937134712935">
        <ele>554.81787110000005</ele>
        <time>2011-01-01T12:45:10Z</time>
      </trkpt>
      <trkpt lat="30.772835416719317" lon="-4.562270231544972">
        <ele>553.85668950000002</ele>
        <time>2011-01-01T12:45:21Z</time>
      </trkpt>
      <trkpt lat="30.772694433107972" lon="-4.562337035313249">
        <ele>553.37597659999994</ele>
        <time>2011-01-01T12:45:23Z</time>
      </trkpt>
      <trkpt lat="30.772026060149074" lon="-4.562445832416415">
        <ele>553.85668950000002</ele>
        <time>2011-01-01T12:45:33Z</time>
      </trkpt>
      <trkpt lat="30.771410660818219" lon="-4.562510875985026">
        <ele>559.14404300000001</ele>
        <time>2011-01-01T12:45:44Z</time>
      </trkpt>
      <trkpt lat="30.770913865417242" lon="-4.562485562637448">
        <ele>561.54736330000003</ele>
        <time>2011-01-01T12:45:52Z</time>
      </trkpt>
      <trkpt lat="30.77020869590342" lon="-4.562502074986696">
        <ele>564.43115230000001</ele>
        <time>2011-01-01T12:46:03Z</time>
      </trkpt>
      <trkpt lat="30.769536718726158" lon="-4.562620930373669">
        <ele>566.83447269999999</ele>
        <time>2011-01-01T12:46:14Z</time>
      </trkpt>
      <trkpt lat="30.768895084038377" lon="-4.562740791589022">
        <ele>568.27636719999998</ele>
        <time>2011-01-01T12:46:24Z</time>
      </trkpt>
      <trkpt lat="30.768191171810031" lon="-4.56266107968986">
        <ele>567.31518549999998</ele>
        <time>2011-01-01T12:46:34Z</time>
      </trkpt>
      <trkpt lat="30.767864026129246" lon="-4.562469637021422">
        <ele>575.96704099999999</ele>
        <time>2011-01-01T12:46:41Z</time>
      </trkpt>
      <trkpt lat="30.767715834081173" lon="-4.562368132174015">
        <ele>575.96704099999999</ele>
        <time>2011-01-01T12:46:59Z</time>
      </trkpt>
      <trkpt lat="30.767277795821428" lon="-4.562165290117264">
        <ele>573.56396480000001</ele>
        <time>2011-01-01T12:47:05Z</time>
      </trkpt>
      <trkpt lat="30.766332317143679" lon="-4.561995640397072">
        <ele>571.64086910000003</ele>
        <time>2011-01-01T12:47:15Z</time>
      </trkpt>
      <trkpt lat="30.765597559511662" lon="-4.562029670923948">
        <ele>570.6796875</ele>
        <time>2011-01-01T12:47:22Z</time>
      </trkpt>
      <trkpt lat="30.764825334772468" lon="-4.562076022848487">
        <ele>571.16040039999996</ele>
        <time>2011-01-01T12:47:30Z</time>
      </trkpt>
      <trkpt lat="30.76433876529336" lon="-4.562304764986038">
        <ele>570.19897460000004</ele>
        <time>2011-01-01T12:47:37Z</time>
      </trkpt>
      <trkpt lat="30.763646923005581" lon="-4.562979759648442">
        <ele>569.71850589999997</ele>
        <time>2011-01-01T12:47:47Z</time>
      </trkpt>
      <trkpt lat="30.762840835377574" lon="-4.563628267496824">
        <ele>567.31518549999998</ele>
        <time>2011-01-01T12:47:57Z</time>
      </trkpt>
      <trkpt lat="30.762185035273433" lon="-4.564082734286785">
        <ele>565.87329099999999</ele>
        <time>2011-01-01T12:48:06Z</time>
      </trkpt>
      <trkpt lat="30.761448601260781" lon="-4.56492243334651">
        <ele>565.39257810000004</ele>
        <time>2011-01-01T12:48:15Z</time>
      </trkpt>
      <trkpt lat="30.761334858834743" lon="-4.564884630963206">
        <ele>564.91186519999997</ele>
        <time>2011-01-01T12:48:17Z</time>
      </trkpt>
      <trkpt lat="30.761053478345275" lon="-4.564784383401275">
        <ele>566.35375980000003</ele>
        <time>2011-01-01T12:48:21Z</time>
      </trkpt>
      <trkpt lat="30.760324001312256" lon="-4.564218521118164">
        <ele>560.5859375</ele>
        <time>2011-01-01T12:48:32Z</time>
      </trkpt>
      <trkpt lat="30.759716397151351" lon="-4.563498264178634">
        <ele>557.70214840000006</ele>
        <time>2011-01-01T12:48:42Z</time>
      </trkpt>
      <trkpt lat="30.759296379983425" lon="-4.563295841217041">
        <ele>553.85668950000002</ele>
        <time>2011-01-01T12:48:48Z</time>
      </trkpt>
      <trkpt lat="30.758682573214173" lon="-4.563271282240748">
        <ele>554.81787110000005</ele>
        <time>2011-01-01T12:48:57Z</time>
      </trkpt>
      <trkpt lat="30.757958292961121" lon="-4.562862999737263">
        <ele>559.14404300000001</ele>
        <time>2011-01-01T12:49:07Z</time>
      </trkpt>
      <trkpt lat="30.757679007947445" lon="-4.562620259821415">
        <ele>561.06665039999996</ele>
        <time>2011-01-01T12:49:15Z</time>
      </trkpt>
      <trkpt lat="30.757969440892339" lon="-4.56287263892591">
        <ele>534.63037110000005</ele>
        <time>2011-01-01T12:49:54Z</time>
      </trkpt>
      <trkpt lat="30.758101288229227" lon="-4.562987303361297">
        <ele>531.74633789999996</ele>
        <time>2011-01-01T12:50:07Z</time>
      </trkpt>
      <trkpt lat="30.758179994300008" lon="-4.563045892864466">
        <ele>528.86254880000001</ele>
        <time>2011-01-01T12:50:18Z</time>
      </trkpt>
      <trkpt lat="30.758041860535741" lon="-4.56293567083776">
        <ele>538.95629880000001</ele>
        <time>2011-01-01T12:51:07Z</time>
      </trkpt>
      <trkpt lat="30.757348425686359" lon="-4.562360672280192">
        <ele>537.51428220000003</ele>
        <time>2011-01-01T12:51:17Z</time>
      </trkpt>
      <trkpt lat="30.757192941382527" lon="-4.562240224331617">
        <ele>537.03369139999995</ele>
        <time>2011-01-01T12:51:19Z</time>
      </trkpt>
      <trkpt lat="30.757052963599563" lon="-4.562132097780705">
        <ele>537.03369139999995</ele>
        <time>2011-01-01T12:51:21Z</time>
      </trkpt>
      <trkpt lat="30.75679387897253" lon="-4.561923975124955">
        <ele>537.03369139999995</ele>
        <time>2011-01-01T12:51:25Z</time>
      </trkpt>
      <trkpt lat="30.756180239841342" lon="-4.561501024290919">
        <ele>535.11096190000001</ele>
        <time>2011-01-01T12:51:34Z</time>
      </trkpt>
      <trkpt lat="30.755778076127172" lon="-4.561316287145019">
        <ele>535.59155269999997</ele>
        <time>2011-01-01T12:51:41Z</time>
      </trkpt>
      <trkpt lat="30.755658634006977" lon="-4.561261469498277">
        <ele>535.59155269999997</ele>
        <time>2011-01-01T12:51:43Z</time>
      </trkpt>
      <trkpt lat="30.755520919337869" lon="-4.561175806447864">
        <ele>535.59155269999997</ele>
        <time>2011-01-01T12:51:46Z</time>
      </trkpt>
      <trkpt lat="30.755092101171613" lon="-4.560862490907311">
        <ele>531.74633789999996</ele>
        <time>2011-01-01T12:51:56Z</time>
      </trkpt>
      <trkpt lat="30.754856318235397" lon="-4.560662833973765">
        <ele>530.30444339999997</ele>
        <time>2011-01-01T12:52:00Z</time>
      </trkpt>
      <trkpt lat="30.754393301904202" lon="-4.560274835675955">
        <ele>528.38183590000006</ele>
        <time>2011-01-01T12:52:07Z</time>
      </trkpt>
      <trkpt lat="30.753609174862504" lon="-4.559727665036917">
        <ele>529.34313959999997</ele>
        <time>2011-01-01T12:52:17Z</time>
      </trkpt>
      <trkpt lat="30.75279587879777" lon="-4.559286776930094">
        <ele>530.30444339999997</ele>
        <time>2011-01-01T12:52:26Z</time>
      </trkpt>
      <trkpt lat="30.752478204667568" lon="-4.559034900739789">
        <ele>530.30444339999997</ele>
        <time>2011-01-01T12:52:31Z</time>
      </trkpt>
      <trkpt lat="30.751750823110342" lon="-4.558627875521779">
        <ele>534.14965819999998</ele>
        <time>2011-01-01T12:52:42Z</time>
      </trkpt>
      <trkpt lat="30.751062836498022" lon="-4.558280194178224">
        <ele>537.99499509999998</ele>
        <time>2011-01-01T12:52:51Z</time>
      </trkpt>
      <trkpt lat="30.750325564295053" lon="-4.557888340204954">
        <ele>541.84020999999996</ele>
        <time>2011-01-01T12:53:00Z</time>
      </trkpt>
      <trkpt lat="30.749498018994927" lon="-4.557387018576264">
        <ele>541.3594971</ele>
        <time>2011-01-01T12:53:10Z</time>
      </trkpt>
      <trkpt lat="30.749262236058712" lon="-4.557295320555568">
        <ele>540.3983154</ele>
        <time>2011-01-01T12:53:13Z</time>
      </trkpt>
      <trkpt lat="30.748931402340531" lon="-4.557188367471099">
        <ele>539.91760250000004</ele>
        <time>2011-01-01T12:53:17Z</time>
      </trkpt>
      <trkpt lat="30.748527813702822" lon="-4.557065572589636">
        <ele>537.51428220000003</ele>
        <time>2011-01-01T12:53:22Z</time>
      </trkpt>
      <trkpt lat="30.748098827898502" lon="-4.556962223723531">
        <ele>536.07238770000004</ele>
        <time>2011-01-01T12:53:30Z</time>
      </trkpt>
      <trkpt lat="30.747874863445759" lon="-4.556954260915518">
        <ele>534.63037110000005</ele>
        <time>2011-01-01T12:53:36Z</time>
      </trkpt>
      <trkpt lat="30.747519135475159" lon="-4.556941939517856">
        <ele>537.51428220000003</ele>
        <time>2011-01-01T12:53:42Z</time>
      </trkpt>
      <trkpt lat="30.746791502460837" lon="-4.556922912597656">
        <ele>539.91760250000004</ele>
        <time>2011-01-01T12:53:51Z</time>
      </trkpt>
      <trkpt lat="30.746066719293594" lon="-4.556864323094487">
        <ele>543.28210449999995</ele>
        <time>2011-01-01T12:54:00Z</time>
      </trkpt>
      <trkpt lat="30.745904361829162" lon="-4.556840434670448">
        <ele>548.08886719999998</ele>
        <time>2011-01-01T12:54:02Z</time>
      </trkpt>
      <trkpt lat="30.745666734874249" lon="-4.556750580668449">
        <ele>554.81787110000005</ele>
        <time>2011-01-01T12:54:05Z</time>
      </trkpt>
      <trkpt lat="30.745378565043211" lon="-4.556622421368957">
        <ele>559.14404300000001</ele>
        <time>2011-01-01T12:54:09Z</time>
      </trkpt>
      <trkpt lat="30.745030380785465" lon="-4.556386806070805">
        <ele>563.46997069999998</ele>
        <time>2011-01-01T12:54:17Z</time>
      </trkpt>
      <trkpt lat="30.74447994120419" lon="-4.556652931496501">
        <ele>562.50854489999995</ele>
        <time>2011-01-01T12:54:21Z</time>
      </trkpt>
      <trkpt lat="30.743703776970506" lon="-4.556414969265461">
        <ele>557.70214840000006</ele>
        <time>2011-01-01T12:54:30Z</time>
      </trkpt>
      <trkpt lat="30.742716891691089" lon="-4.556110789999366">
        <ele>552.41455080000003</ele>
        <time>2011-01-01T12:54:41Z</time>
      </trkpt>
      <trkpt lat="30.741656916216016" lon="-4.555787164717913">
        <ele>546.64685059999999</ele>
        <time>2011-01-01T12:54:52Z</time>
      </trkpt>
      <trkpt lat="30.740927020087838" lon="-4.555665794759989">
        <ele>544.24365230000001</ele>
        <time>2011-01-01T12:55:00Z</time>
      </trkpt>
      <trkpt lat="30.740108359605074" lon="-4.555673841387034">
        <ele>550.01147460000004</ele>
        <time>2011-01-01T12:55:09Z</time>
      </trkpt>
      <trkpt lat="30.739200180396438" lon="-4.555813232436776">
        <ele>561.54736330000003</ele>
        <time>2011-01-01T12:55:20Z</time>
      </trkpt>
      <trkpt lat="30.738804638385773" lon="-4.556016074493527">
        <ele>568.75708010000005</ele>
        <time>2011-01-01T12:55:27Z</time>
      </trkpt>
      <trkpt lat="30.738910166546702" lon="-4.556133588775992">
        <ele>573.08325200000002</ele>
        <time>2011-01-01T12:55:34Z</time>
      </trkpt>
      <trkpt lat="30.739048132672906" lon="-4.556112382560968">
        <ele>575.96704099999999</ele>
        <time>2011-01-01T12:55:37Z</time>
      </trkpt>
      <trkpt lat="30.739348959177732" lon="-4.556072233244777">
        <ele>579.81225589999997</ele>
        <time>2011-01-01T12:55:42Z</time>
      </trkpt>
      <trkpt lat="30.740086818113923" lon="-4.555922532454133">
        <ele>587.02197269999999</ele>
        <time>2011-01-01T12:55:51Z</time>
      </trkpt>
      <trkpt lat="30.740831717848778" lon="-4.555785236880183">
        <ele>590.86743160000003</ele>
        <time>2011-01-01T12:56:00Z</time>
      </trkpt>
      <trkpt lat="30.741668064147234" lon="-4.555884227156639">
        <ele>600.48071289999996</ele>
        <time>2011-01-01T12:56:09Z</time>
      </trkpt>
      <trkpt lat="30.743082091212273" lon="-4.556332239881158">
        <ele>610.09375</ele>
        <time>2011-01-01T12:56:23Z</time>
      </trkpt>
      <trkpt lat="30.743765719234943" lon="-4.556578667834401">
        <ele>618.74560550000001</ele>
        <time>2011-01-01T12:56:31Z</time>
      </trkpt>
      <trkpt lat="30.744392266497016" lon="-4.556777570396662">
        <ele>630.76220699999999</ele>
        <time>2011-01-01T12:56:39Z</time>
      </trkpt>
      <trkpt lat="30.744811864569783" lon="-4.556963564828038">
        <ele>644.70117189999996</ele>
        <time>2011-01-01T12:56:47Z</time>
      </trkpt>
      <trkpt lat="30.744956787675619" lon="-4.557031961157918">
        <ele>647.58520510000005</ele>
        <time>2011-01-01T12:56:49Z</time>
      </trkpt>
      <trkpt lat="30.745768407359719" lon="-4.556791316717863">
        <ele>654.31469730000003</ele>
        <time>2011-01-01T12:56:58Z</time>
      </trkpt>
      <trkpt lat="30.746216922998428" lon="-4.556886702775955">
        <ele>657.19848630000001</ele>
        <time>2011-01-01T12:57:04Z</time>
      </trkpt>
      <trkpt lat="30.746497716754675" lon="-4.556922912597656">
        <ele>658.64038089999997</ele>
        <time>2011-01-01T12:57:08Z</time>
      </trkpt>
      <trkpt lat="30.747238760814071" lon="-4.556932803243399">
        <ele>662.48559569999998</ele>
        <time>2011-01-01T12:57:18Z</time>
      </trkpt>
      <trkpt lat="30.747690461575985" lon="-4.556947723031044">
        <ele>663.92749019999997</ele>
        <time>2011-01-01T12:57:26Z</time>
      </trkpt>
      <trkpt lat="30.747421905398369" lon="-4.556938838213682">
        <ele>636.53027340000006</ele>
        <time>2011-01-01T13:07:56Z</time>
      </trkpt>
      <trkpt lat="30.746963499113917" lon="-4.556923918426037">
        <ele>635.08813480000003</ele>
        <time>2011-01-01T13:08:03Z</time>
      </trkpt>
      <trkpt lat="30.746614979580045" lon="-4.557647360488772">
        <ele>634.60742189999996</ele>
        <time>2011-01-01T13:08:08Z</time>
      </trkpt>
      <trkpt lat="30.746010560542345" lon="-4.557532360777259">
        <ele>632.20410159999994</ele>
        <time>2011-01-01T13:08:17Z</time>
      </trkpt>
      <trkpt lat="30.745347635820508" lon="-4.557429179549217">
        <ele>631.72338869999999</ele>
        <time>2011-01-01T13:08:26Z</time>
      </trkpt>
      <trkpt lat="30.744771463796496" lon="-4.557186774909496">
        <ele>628.35888669999997</ele>
        <time>2011-01-01T13:08:35Z</time>
      </trkpt>
      <trkpt lat="30.744090266525745" lon="-4.556981418281794">
        <ele>624.99438480000003</ele>
        <time>2011-01-01T13:08:44Z</time>
      </trkpt>
      <trkpt lat="30.743741663172841" lon="-4.556830963119865">
        <ele>622.11035159999994</ele>
        <time>2011-01-01T13:08:49Z</time>
      </trkpt>
      <trkpt lat="30.742809092625976" lon="-4.556583277881146">
        <ele>616.34228519999999</ele>
        <time>2011-01-01T13:09:01Z</time>
      </trkpt>
      <trkpt lat="30.741913234815001" lon="-4.556337939575315">
        <ele>611.05517580000003</ele>
        <time>2011-01-01T13:09:11Z</time>
      </trkpt>
      <trkpt lat="30.741025088354945" lon="-4.556176671758294">
        <ele>604.32617189999996</ele>
        <time>2011-01-01T13:09:21Z</time>
      </trkpt>
      <trkpt lat="30.740137360990047" lon="-4.556210367009044">
        <ele>599.51928710000004</ele>
        <time>2011-01-01T13:09:30Z</time>
      </trkpt>
      <trkpt lat="30.739371674135327" lon="-4.556316481903195">
        <ele>592.79028319999998</ele>
        <time>2011-01-01T13:09:38Z</time>
      </trkpt>
      <trkpt lat="30.739049389958382" lon="-4.556449418887496">
        <ele>589.42553710000004</ele>
        <time>2011-01-01T13:09:42Z</time>
      </trkpt>
      <trkpt lat="30.738252019509673" lon="-4.556585038080812">
        <ele>584.13818360000005</ele>
        <time>2011-01-01T13:09:51Z</time>
      </trkpt>
      <trkpt lat="30.736812511458993" lon="-4.556467104703188">
        <ele>577.88964840000006</ele>
        <time>2011-01-01T13:10:01Z</time>
      </trkpt>
      <trkpt lat="30.736004328355193" lon="-4.55731594003737">
        <ele>573.56396480000001</ele>
        <time>2011-01-01T13:10:11Z</time>
      </trkpt>
      <trkpt lat="30.733881862834096" lon="-4.557429933920503">
        <ele>568.75708010000005</ele>
        <time>2011-01-01T13:10:24Z</time>
      </trkpt>
      <trkpt lat="30.732512176036835" lon="-4.557790439575911">
        <ele>567.31518549999998</ele>
        <time>2011-01-01T13:10:35Z</time>
      </trkpt>
      <trkpt lat="30.732080088928342" lon="-4.557926561683416">
        <ele>567.31518549999998</ele>
        <time>2011-01-01T13:10:41Z</time>
      </trkpt>
      <trkpt lat="30.731617575511336" lon="-4.558081040158868">
        <ele>564.43115230000001</ele>
        <time>2011-01-01T13:10:51Z</time>
      </trkpt>
      <trkpt lat="30.731382463127375" lon="-4.558237865567207">
        <ele>562.50854489999995</ele>
        <time>2011-01-01T13:11:00Z</time>
      </trkpt>
      <trkpt lat="30.731105441227555" lon="-4.558112639933825">
        <ele>622.59106450000002</ele>
        <time>2011-01-01T13:23:23Z</time>
      </trkpt>
      <trkpt lat="30.730528431013227" lon="-4.558383962139487">
        <ele>622.11035159999994</ele>
        <time>2011-01-01T13:23:33Z</time>
      </trkpt>
      <trkpt lat="30.729722762480378" lon="-4.558752430602908">
        <ele>621.14916989999995</ele>
        <time>2011-01-01T13:23:43Z</time>
      </trkpt>
      <trkpt lat="30.728648034855723" lon="-4.559189965948463">
        <ele>620.66845699999999</ele>
        <time>2011-01-01T13:23:56Z</time>
      </trkpt>
      <trkpt lat="30.728075634688139" lon="-4.559346036985517">
        <ele>620.18774410000003</ele>
        <time>2011-01-01T13:24:04Z</time>
      </trkpt>
      <trkpt lat="30.727803474292159" lon="-4.559448966756463">
        <ele>619.70703130000004</ele>
        <time>2011-01-01T13:24:08Z</time>
      </trkpt>
      <trkpt lat="30.727226380258799" lon="-4.559858925640583">
        <ele>622.11035159999994</ele>
        <time>2011-01-01T13:24:19Z</time>
      </trkpt>
      <trkpt lat="30.726700164377689" lon="-4.560137959197164">
        <ele>623.07177730000001</ele>
        <time>2011-01-01T13:24:27Z</time>
      </trkpt>
      <trkpt lat="30.726087028160691" lon="-4.560525035485625">
        <ele>624.99438480000003</ele>
        <time>2011-01-01T13:24:36Z</time>
      </trkpt>
      <trkpt lat="30.725427875295281" lon="-4.56102417781949">
        <ele>624.03295900000001</ele>
        <time>2011-01-01T13:24:44Z</time>
      </trkpt>
      <trkpt lat="30.724819265305996" lon="-4.561656089499593">
        <ele>621.14916989999995</ele>
        <time>2011-01-01T13:24:53Z</time>
      </trkpt>
      <trkpt lat="30.724342837929726" lon="-4.562393194064498">
        <ele>619.70703130000004</ele>
        <time>2011-01-01T13:25:02Z</time>
      </trkpt>
      <trkpt lat="30.723681589588523" lon="-4.56334269605577">
        <ele>618.74560550000001</ele>
        <time>2011-01-01T13:25:13Z</time>
      </trkpt>
      <trkpt lat="30.72314003482461" lon="-4.563914928585291">
        <ele>619.22631839999997</ele>
        <time>2011-01-01T13:25:21Z</time>
      </trkpt>
      <trkpt lat="30.722404858097434" lon="-4.564439635723829">
        <ele>619.22631839999997</ele>
        <time>2011-01-01T13:25:30Z</time>
      </trkpt>
      <trkpt lat="30.721237678080797" lon="-4.5652268640697">
        <ele>622.59106450000002</ele>
        <time>2011-01-01T13:25:41Z</time>
      </trkpt>
      <trkpt lat="30.719988439232111" lon="-4.566170079633594">
        <ele>619.22631839999997</ele>
        <time>2011-01-01T13:25:53Z</time>
      </trkpt>
      <trkpt lat="30.719108423218131" lon="-4.566562939435244">
        <ele>618.74560550000001</ele>
        <time>2011-01-01T13:26:01Z</time>
      </trkpt>
      <trkpt lat="30.718180797994137" lon="-4.567018076777458">
        <ele>620.18774410000003</ele>
        <time>2011-01-01T13:26:12Z</time>
      </trkpt>
      <trkpt lat="30.717581491917372" lon="-4.567624172195792">
        <ele>619.22631839999997</ele>
        <time>2011-01-01T13:26:20Z</time>
      </trkpt>
      <trkpt lat="30.717017389833927" lon="-4.568322384729981">
        <ele>618.74560550000001</ele>
        <time>2011-01-01T13:26:28Z</time>
      </trkpt>
      <trkpt lat="30.715862698853016" lon="-4.569489313289523">
        <ele>618.74560550000001</ele>
        <time>2011-01-01T13:26:40Z</time>
      </trkpt>
      <trkpt lat="30.715039009228349" lon="-4.571176171302795">
        <ele>618.74560550000001</ele>
        <time>2011-01-01T13:26:54Z</time>
      </trkpt>
      <trkpt lat="30.714630223810673" lon="-4.572094241157174">
        <ele>619.22631839999997</ele>
        <time>2011-01-01T13:27:02Z</time>
      </trkpt>
      <trkpt lat="30.713765798136592" lon="-4.572814330458641">
        <ele>619.22631839999997</ele>
        <time>2011-01-01T13:27:12Z</time>
      </trkpt>
      <trkpt lat="30.713066998869181" lon="-4.573379186913371">
        <ele>618.74560550000001</ele>
        <time>2011-01-01T13:27:22Z</time>
      </trkpt>
      <trkpt lat="30.712640779092908" lon="-4.573707170784473">
        <ele>616.82299799999998</ele>
        <time>2011-01-01T13:27:29Z</time>
      </trkpt>
      <trkpt lat="30.712507590651512" lon="-4.573825690895319">
        <ele>616.34228519999999</ele>
        <time>2011-01-01T13:27:31Z</time>
      </trkpt>
      <trkpt lat="30.712174158543348" lon="-4.573978325352073">
        <ele>615.38110349999999</ele>
        <time>2011-01-01T13:27:35Z</time>
      </trkpt>
      <trkpt lat="30.711118960753083" lon="-4.574034819379449">
        <ele>616.82299799999998</ele>
        <time>2011-01-01T13:27:46Z</time>
      </trkpt>
      <trkpt lat="30.71006191894412" lon="-4.57396256737411">
        <ele>618.74560550000001</ele>
        <time>2011-01-01T13:27:56Z</time>
      </trkpt>
      <trkpt lat="30.708741266280413" lon="-4.573543136939406">
        <ele>620.18774410000003</ele>
        <time>2011-01-01T13:28:08Z</time>
      </trkpt>
      <trkpt lat="30.7078215200454" lon="-4.572930922731757">
        <ele>621.14916989999995</ele>
        <time>2011-01-01T13:28:17Z</time>
      </trkpt>
      <trkpt lat="30.706876125186682" lon="-4.572317032143474">
        <ele>622.59106450000002</ele>
        <time>2011-01-01T13:28:27Z</time>
      </trkpt>
      <trkpt lat="30.705932574346662" lon="-4.571899697184563">
        <ele>623.07177730000001</ele>
        <time>2011-01-01T13:28:36Z</time>
      </trkpt>
      <trkpt lat="30.704990196973085" lon="-4.571345988661051">
        <ele>625.95556639999995</ele>
        <time>2011-01-01T13:28:46Z</time>
      </trkpt>
      <trkpt lat="30.70438452064991" lon="-4.570786161348224">
        <ele>626.91699219999998</ele>
        <time>2011-01-01T13:28:54Z</time>
      </trkpt>
      <trkpt lat="30.703625539317727" lon="-4.57017176784575">
        <ele>627.39770510000005</ele>
        <time>2011-01-01T13:29:03Z</time>
      </trkpt>
      <trkpt lat="30.702736135572195" lon="-4.569626692682505">
        <ele>628.35888669999997</ele>
        <time>2011-01-01T13:29:13Z</time>
      </trkpt>
      <trkpt lat="30.702002299949527" lon="-4.56926048733294">
        <ele>629.32006839999997</ele>
        <time>2011-01-01T13:29:21Z</time>
      </trkpt>
      <trkpt lat="30.701073920354247" lon="-4.568752041086555">
        <ele>630.28149410000003</ele>
        <time>2011-01-01T13:29:30Z</time>
      </trkpt>
      <trkpt lat="30.700090639293194" lon="-4.568295059725642">
        <ele>631.72338869999999</ele>
        <time>2011-01-01T13:29:39Z</time>
      </trkpt>
      <trkpt lat="30.698894541710615" lon="-4.567622998729348">
        <ele>635.08813480000003</ele>
        <time>2011-01-01T13:29:50Z</time>
      </trkpt>
      <trkpt lat="30.697947638109326" lon="-4.566881284117699">
        <ele>639.4140625</ele>
        <time>2011-01-01T13:29:59Z</time>
      </trkpt>
      <trkpt lat="30.697247078642249" lon="-4.566397061571479">
        <ele>640.37548830000003</ele>
        <time>2011-01-01T13:30:06Z</time>
      </trkpt>
      <trkpt lat="30.696137817576528" lon="-4.565773531794548">
        <ele>643.73999019999997</ele>
        <time>2011-01-01T13:30:16Z</time>
      </trkpt>
      <trkpt lat="30.6949183344841" lon="-4.564997367560864">
        <ele>645.66259769999999</ele>
        <time>2011-01-01T13:30:26Z</time>
      </trkpt>
      <trkpt lat="30.693755261600018" lon="-4.564398061484098">
        <ele>648.54638669999997</ele>
        <time>2011-01-01T13:30:35Z</time>
      </trkpt>
      <trkpt lat="30.692979516461492" lon="-4.564055660739541">
        <ele>650.94970699999999</ele>
        <time>2011-01-01T13:30:42Z</time>
      </trkpt>
      <trkpt lat="30.69194259122014" lon="-4.563444536179304">
        <ele>651.91113280000002</ele>
        <time>2011-01-01T13:30:52Z</time>
      </trkpt>
      <trkpt lat="30.691386284306645" lon="-4.563188469037414">
        <ele>651.91113280000002</ele>
        <time>2011-01-01T13:30:59Z</time>
      </trkpt>
      <trkpt lat="30.690599391236901" lon="-4.562846822664142">
        <ele>651.91113280000002</ele>
        <time>2011-01-01T13:31:08Z</time>
      </trkpt>
      <trkpt lat="30.689698336645961" lon="-4.562613135203719">
        <ele>651.43041989999995</ele>
        <time>2011-01-01T13:31:17Z</time>
      </trkpt>
      <trkpt lat="30.688181295990944" lon="-4.562618499621749">
        <ele>650.94970699999999</ele>
        <time>2011-01-01T13:31:30Z</time>
      </trkpt>
      <trkpt lat="30.68733086809516" lon="-4.562953189015389">
        <ele>651.43041989999995</ele>
        <time>2011-01-01T13:31:39Z</time>
      </trkpt>
      <trkpt lat="30.686494018882513" lon="-4.563052263110876">
        <ele>653.83398439999996</ele>
        <time>2011-01-01T13:31:48Z</time>
      </trkpt>
      <trkpt lat="30.68584006279707" lon="-4.563047485426068">
        <ele>651.43041989999995</ele>
        <time>2011-01-01T13:31:55Z</time>
      </trkpt>
      <trkpt lat="30.685673765838146" lon="-4.563085539266467">
        <ele>650.46923830000003</ele>
        <time>2011-01-01T13:31:57Z</time>
      </trkpt>
      <trkpt lat="30.68489458411932" lon="-4.563506478443742">
        <ele>646.62402340000006</ele>
        <time>2011-01-01T13:32:06Z</time>
      </trkpt>
      <trkpt lat="30.68420123308897" lon="-4.564033029600978">
        <ele>645.18188480000003</ele>
        <time>2011-01-01T13:32:14Z</time>
      </trkpt>
      <trkpt lat="30.683418866246939" lon="-4.564708694815636">
        <ele>642.29809569999998</ele>
        <time>2011-01-01T13:32:23Z</time>
      </trkpt>
      <trkpt lat="30.682684192433953" lon="-4.565594159066677">
        <ele>640.37548830000003</ele>
        <time>2011-01-01T13:32:33Z</time>
      </trkpt>
      <trkpt lat="30.682054962962866" lon="-4.566654469817877">
        <ele>639.4140625</ele>
        <time>2011-01-01T13:32:43Z</time>
      </trkpt>
      <trkpt lat="30.681583229452372" lon="-4.567454941570759">
        <ele>636.04956049999998</ele>
        <time>2011-01-01T13:32:52Z</time>
      </trkpt>
      <trkpt lat="30.68110671825707" lon="-4.568191962316632">
        <ele>633.16528319999998</ele>
        <time>2011-01-01T13:33:00Z</time>
      </trkpt>
      <trkpt lat="30.680299121886492" lon="-4.569566091522574">
        <ele>628.83959960000004</ele>
        <time>2011-01-01T13:33:12Z</time>
      </trkpt>
      <trkpt lat="30.680073564872146" lon="-4.570491872727871">
        <ele>630.28149410000003</ele>
        <time>2011-01-01T13:33:19Z</time>
      </trkpt>
      <trkpt lat="30.680099464952946" lon="-4.571604738011956">
        <ele>628.35888669999997</ele>
        <time>2011-01-01T13:33:27Z</time>
      </trkpt>
      <trkpt lat="30.680227037519217" lon="-4.572898065671325">
        <ele>627.87817380000001</ele>
        <time>2011-01-01T13:33:36Z</time>
      </trkpt>
      <trkpt lat="30.680390819907188" lon="-4.574432792142034">
        <ele>625.95556639999995</ele>
        <time>2011-01-01T13:33:46Z</time>
      </trkpt>
      <trkpt lat="30.680484864860773" lon="-4.576733540743589">
        <ele>625.47485349999999</ele>
        <time>2011-01-01T13:33:59Z</time>
      </trkpt>
      <trkpt lat="30.680576981976628" lon="-4.578728266060352">
        <ele>625.95556639999995</ele>
        <time>2011-01-01T13:34:11Z</time>
      </trkpt>
      <trkpt lat="30.680545130744576" lon="-4.580407999455929">
        <ele>628.83959960000004</ele>
        <time>2011-01-01T13:34:21Z</time>
      </trkpt>
      <trkpt lat="30.680266935378313" lon="-4.581711133942008">
        <ele>630.28149410000003</ele>
        <time>2011-01-01T13:34:29Z</time>
      </trkpt>
      <trkpt lat="30.679786065593362" lon="-4.583285758271813">
        <ele>631.72338869999999</ele>
        <time>2011-01-01T13:34:39Z</time>
      </trkpt>
      <trkpt lat="30.679342076182365" lon="-4.585206639021635">
        <ele>632.20410159999994</ele>
        <time>2011-01-01T13:34:51Z</time>
      </trkpt>
      <trkpt lat="30.679150382056832" lon="-4.58753664046526">
        <ele>630.28149410000003</ele>
        <time>2011-01-01T13:35:04Z</time>
      </trkpt>
      <trkpt lat="30.679171588271856" lon="-4.589284099638462">
        <ele>631.72338869999999</ele>
        <time>2011-01-01T13:35:14Z</time>
      </trkpt>
      <trkpt lat="30.679147699847817" lon="-4.590763337910175">
        <ele>633.16528319999998</ele>
        <time>2011-01-01T13:35:23Z</time>
      </trkpt>
      <trkpt lat="30.67914979532361" lon="-4.592055324465036">
        <ele>632.68481450000002</ele>
        <time>2011-01-01T13:35:32Z</time>
      </trkpt>
      <trkpt lat="30.679136635735631" lon="-4.592869626358151">
        <ele>632.20410159999994</ele>
        <time>2011-01-01T13:35:39Z</time>
      </trkpt>
      <trkpt lat="30.679143341258168" lon="-4.593852823600173">
        <ele>630.28149410000003</ele>
        <time>2011-01-01T13:35:48Z</time>
      </trkpt>
      <trkpt lat="30.678971596062183" lon="-4.594838367775083">
        <ele>630.28149410000003</ele>
        <time>2011-01-01T13:35:56Z</time>
      </trkpt>
      <trkpt lat="30.678972937166691" lon="-4.59574026055634">
        <ele>631.24291989999995</ele>
        <time>2011-01-01T13:36:03Z</time>
      </trkpt>
      <trkpt lat="30.67908089607954" lon="-4.596616085618734">
        <ele>629.32006839999997</ele>
        <time>2011-01-01T13:36:10Z</time>
      </trkpt>
      <trkpt lat="30.679395385086536" lon="-4.598128935322166">
        <ele>627.87817380000001</ele>
        <time>2011-01-01T13:36:20Z</time>
      </trkpt>
      <trkpt lat="30.679580960422754" lon="-4.600242683663964">
        <ele>626.43627930000002</ele>
        <time>2011-01-01T13:36:33Z</time>
      </trkpt>
      <trkpt lat="30.679643740877509" lon="-4.601851338520646">
        <ele>625.47485349999999</ele>
        <time>2011-01-01T13:36:43Z</time>
      </trkpt>
      <trkpt lat="30.679705180227757" lon="-4.60329637862742">
        <ele>624.51367189999996</ele>
        <time>2011-01-01T13:36:53Z</time>
      </trkpt>
      <trkpt lat="30.679726637899876" lon="-4.603413725271821">
        <ele>624.51367189999996</ele>
        <time>2011-01-01T13:36:54Z</time>
      </trkpt>
      <trkpt lat="30.679817330092192" lon="-4.60464159026742">
        <ele>624.99438480000003</ele>
        <time>2011-01-01T13:37:03Z</time>
      </trkpt>
      <trkpt lat="30.680077923461795" lon="-4.60609333589673">
        <ele>624.99438480000003</ele>
        <time>2011-01-01T13:37:12Z</time>
      </trkpt>
      <trkpt lat="30.680471789091825" lon="-4.60802192799747">
        <ele>625.47485349999999</ele>
        <time>2011-01-01T13:37:23Z</time>
      </trkpt>
      <trkpt lat="30.680697932839394" lon="-4.610021095722914">
        <ele>627.39770510000005</ele>
        <time>2011-01-01T13:37:34Z</time>
      </trkpt>
      <trkpt lat="30.680588632822037" lon="-4.611386172473431">
        <ele>628.35888669999997</ele>
        <time>2011-01-01T13:37:42Z</time>
      </trkpt>
      <trkpt lat="30.680431136861444" lon="-4.613305293023586">
        <ele>629.32006839999997</ele>
        <time>2011-01-01T13:37:53Z</time>
      </trkpt>
      <trkpt lat="30.680143134668469" lon="-4.61498242802918">
        <ele>629.32006839999997</ele>
        <time>2011-01-01T13:38:03Z</time>
      </trkpt>
      <trkpt lat="30.679917577654123" lon="-4.615915166214109">
        <ele>628.83959960000004</ele>
        <time>2011-01-01T13:38:10Z</time>
      </trkpt>
      <trkpt lat="30.680436082184315" lon="-4.617370180785656">
        <ele>629.32006839999997</ele>
        <time>2011-01-01T13:38:19Z</time>
      </trkpt>
      <trkpt lat="30.680382438004017" lon="-4.618741627782583">
        <ele>627.87817380000001</ele>
        <time>2011-01-01T13:38:28Z</time>
      </trkpt>
      <trkpt lat="30.680399872362614" lon="-4.61987653747201">
        <ele>625.95556639999995</ele>
        <time>2011-01-01T13:38:36Z</time>
      </trkpt>
      <trkpt lat="30.680314796045423" lon="-4.621233735233545">
        <ele>625.47485349999999</ele>
        <time>2011-01-01T13:38:44Z</time>
      </trkpt>
      <trkpt lat="30.680213291198015" lon="-4.62265589274466">
        <ele>621.14916989999995</ele>
        <time>2011-01-01T13:38:53Z</time>
      </trkpt>
      <trkpt lat="30.679861921817064" lon="-4.624518770724535">
        <ele>623.07177730000001</ele>
        <time>2011-01-01T13:39:04Z</time>
      </trkpt>
      <trkpt lat="30.679334783926606" lon="-4.627025630325079">
        <ele>625.47485349999999</ele>
        <time>2011-01-01T13:39:18Z</time>
      </trkpt>
      <trkpt lat="30.679040662944317" lon="-4.628256764262915">
        <ele>625.95556639999995</ele>
        <time>2011-01-01T13:39:26Z</time>
      </trkpt>
      <trkpt lat="30.678647635504603" lon="-4.629747988656163">
        <ele>626.91699219999998</ele>
        <time>2011-01-01T13:39:36Z</time>
      </trkpt>
      <trkpt lat="30.67832644097507" lon="-4.630831936374307">
        <ele>626.43627930000002</ele>
        <time>2011-01-01T13:39:45Z</time>
      </trkpt>
      <trkpt lat="30.678129298612475" lon="-4.632048234343529">
        <ele>621.14916989999995</ele>
        <time>2011-01-01T13:39:54Z</time>
      </trkpt>
      <trkpt lat="30.677994266152382" lon="-4.633275764063001">
        <ele>618.74560550000001</ele>
        <time>2011-01-01T13:40:02Z</time>
      </trkpt>
      <trkpt lat="30.677784970030189" lon="-4.63483446277678">
        <ele>616.82299799999998</ele>
        <time>2011-01-01T13:40:12Z</time>
      </trkpt>
      <trkpt lat="30.677612638100982" lon="-4.636389221996069">
        <ele>615.86181639999995</ele>
        <time>2011-01-01T13:40:22Z</time>
      </trkpt>
      <trkpt lat="30.677421279251575" lon="-4.638037774711847">
        <ele>618.26489260000005</ele>
        <time>2011-01-01T13:40:32Z</time>
      </trkpt>
      <trkpt lat="30.677353134378791" lon="-4.639826472848654">
        <ele>617.30371090000006</ele>
        <time>2011-01-01T13:40:43Z</time>
      </trkpt>
      <trkpt lat="30.677249534055591" lon="-4.64183745905757">
        <ele>618.74560550000001</ele>
        <time>2011-01-01T13:40:55Z</time>
      </trkpt>
      <trkpt lat="30.677041830495" lon="-4.643228519707918">
        <ele>619.70703130000004</ele>
        <time>2011-01-01T13:41:03Z</time>
      </trkpt>
      <trkpt lat="30.676657184958458" lon="-4.644257398322225">
        <ele>621.62963869999999</ele>
        <time>2011-01-01T13:41:10Z</time>
      </trkpt>
      <trkpt lat="30.675984118133783" lon="-4.64540203101933">
        <ele>623.55249019999997</ele>
        <time>2011-01-01T13:41:19Z</time>
      </trkpt>
      <trkpt lat="30.67550458945334" lon="-4.646149026229978">
        <ele>624.51367189999996</ele>
        <time>2011-01-01T13:41:26Z</time>
      </trkpt>
      <trkpt lat="30.674978122115135" lon="-4.647326432168484">
        <ele>626.43627930000002</ele>
        <time>2011-01-01T13:41:36Z</time>
      </trkpt>
      <trkpt lat="30.674648378044367" lon="-4.648023890331388">
        <ele>627.87817380000001</ele>
        <time>2011-01-01T13:41:43Z</time>
      </trkpt>
      <trkpt lat="30.67408561706543" lon="-4.648989569395781">
        <ele>628.83959960000004</ele>
        <time>2011-01-01T13:41:51Z</time>
      </trkpt>
      <trkpt lat="30.673286821693182" lon="-4.650210896506906">
        <ele>631.24291989999995</ele>
        <time>2011-01-01T13:42:01Z</time>
      </trkpt>
      <trkpt lat="30.672883316874504" lon="-4.65097825974226">
        <ele>632.20410159999994</ele>
        <time>2011-01-01T13:42:08Z</time>
      </trkpt>
      <trkpt lat="30.672563379630446" lon="-4.651794573292136">
        <ele>633.16528319999998</ele>
        <time>2011-01-01T13:42:15Z</time>
      </trkpt>
      <trkpt lat="30.671629384160042" lon="-4.652722366154194">
        <ele>634.12670900000001</ele>
        <time>2011-01-01T13:42:24Z</time>
      </trkpt>
      <trkpt lat="30.671420758590102" lon="-4.653476821258664">
        <ele>635.08813480000003</ele>
        <time>2011-01-01T13:42:30Z</time>
      </trkpt>
      <trkpt lat="30.671104928478599" lon="-4.654596475884318">
        <ele>637.97216800000001</ele>
        <time>2011-01-01T13:42:39Z</time>
      </trkpt>
      <trkpt lat="30.670848274603486" lon="-4.655444724485278">
        <ele>640.37548830000003</ele>
        <time>2011-01-01T13:42:47Z</time>
      </trkpt>
      <trkpt lat="30.67079178057611" lon="-4.655631221830845">
        <ele>640.85595699999999</ele>
        <time>2011-01-01T13:42:49Z</time>
      </trkpt>
      <trkpt lat="30.670707458630204" lon="-4.655910171568394">
        <ele>641.33666989999995</ele>
        <time>2011-01-01T13:42:52Z</time>
      </trkpt>
      <trkpt lat="30.670550214126706" lon="-4.656485673040152">
        <ele>640.37548830000003</ele>
        <time>2011-01-01T13:42:58Z</time>
      </trkpt>
      <trkpt lat="30.67051962018013" lon="-4.656598912551999">
        <ele>639.4140625</ele>
        <time>2011-01-01T13:42:59Z</time>
      </trkpt>
      <trkpt lat="30.670458097010851" lon="-4.656825894489884">
        <ele>637.49145510000005</ele>
        <time>2011-01-01T13:43:01Z</time>
      </trkpt>
      <trkpt lat="30.670305965468287" lon="-4.657387565821409">
        <ele>634.60742189999996</ele>
        <time>2011-01-01T13:43:06Z</time>
      </trkpt>
      <trkpt lat="30.670207729563117" lon="-4.657750334590673">
        <ele>633.16528319999998</ele>
        <time>2011-01-01T13:43:10Z</time>
      </trkpt>
      <trkpt lat="30.670076217502356" lon="-4.658258864656091">
        <ele>633.16528319999998</ele>
        <time>2011-01-01T13:43:15Z</time>
      </trkpt>
      <trkpt lat="30.669948309659958" lon="-4.658779129385948">
        <ele>635.56860349999999</ele>
        <time>2011-01-01T13:43:20Z</time>
      </trkpt>
      <trkpt lat="30.669667264446616" lon="-4.659885540604591">
        <ele>639.89477539999996</ele>
        <time>2011-01-01T13:43:29Z</time>
      </trkpt>
      <trkpt lat="30.669446904212236" lon="-4.660623734816909">
        <ele>642.29809569999998</ele>
        <time>2011-01-01T13:43:36Z</time>
      </trkpt>
      <trkpt lat="30.669388566166162" lon="-4.660818781703711">
        <ele>642.77880860000005</ele>
        <time>2011-01-01T13:43:38Z</time>
      </trkpt>
      <trkpt lat="30.669308518990874" lon="-4.661087337881327">
        <ele>643.73999019999997</ele>
        <time>2011-01-01T13:43:41Z</time>
      </trkpt>
      <trkpt lat="30.669169127941132" lon="-4.661543061956763">
        <ele>645.18188480000003</ele>
        <time>2011-01-01T13:43:46Z</time>
      </trkpt>
      <trkpt lat="30.669006686657667" lon="-4.662071289494634">
        <ele>647.58520510000005</ele>
        <time>2011-01-01T13:43:52Z</time>
      </trkpt>
      <trkpt lat="30.668951869010925" lon="-4.662249237298966">
        <ele>648.06591800000001</ele>
        <time>2011-01-01T13:43:54Z</time>
      </trkpt>
      <trkpt lat="30.668839635327458" lon="-4.662620639428496">
        <ele>649.5078125</ele>
        <time>2011-01-01T13:43:58Z</time>
      </trkpt>
      <trkpt lat="30.668747099116445" lon="-4.662977205589414">
        <ele>650.94970699999999</ele>
        <time>2011-01-01T13:44:02Z</time>
      </trkpt>
      <trkpt lat="30.668676439672709" lon="-4.66324970126152">
        <ele>651.43041989999995</ele>
        <time>2011-01-01T13:44:05Z</time>
      </trkpt>
      <trkpt lat="30.668627070263028" lon="-4.66344022192061">
        <ele>652.39184569999998</ele>
        <time>2011-01-01T13:44:07Z</time>
      </trkpt>
      <trkpt lat="30.668551716953516" lon="-4.663730822503567">
        <ele>652.87255860000005</ele>
        <time>2011-01-01T13:44:10Z</time>
      </trkpt>
      <trkpt lat="30.668424898758531" lon="-4.664448900148273">
        <ele>651.43041989999995</ele>
        <time>2011-01-01T13:44:17Z</time>
      </trkpt>
      <trkpt lat="30.668342085555196" lon="-4.665292790159583">
        <ele>653.35327150000001</ele>
        <time>2011-01-01T13:44:25Z</time>
      </trkpt>
      <trkpt lat="30.668345605954528" lon="-4.665658492594957">
        <ele>649.5078125</ele>
        <time>2011-01-01T13:44:29Z</time>
      </trkpt>
      <trkpt lat="30.668429927900434" lon="-4.666487965732813">
        <ele>645.18188480000003</ele>
        <time>2011-01-01T13:44:37Z</time>
      </trkpt>
      <trkpt lat="30.668461779132485" lon="-4.666870934888721">
        <ele>645.66259769999999</ele>
        <time>2011-01-01T13:44:41Z</time>
      </trkpt>
      <trkpt lat="30.668501928448677" lon="-4.667265890166163">
        <ele>645.66259769999999</ele>
        <time>2011-01-01T13:44:45Z</time>
      </trkpt>
      <trkpt lat="30.668582897633314" lon="-4.667821358889341">
        <ele>644.70117189999996</ele>
        <time>2011-01-01T13:44:51Z</time>
      </trkpt>
      <trkpt lat="30.668737040832639" lon="-4.668932799249888">
        <ele>640.85595699999999</ele>
        <time>2011-01-01T13:45:00Z</time>
      </trkpt>
      <trkpt lat="30.668914401903749" lon="-4.669943237677217">
        <ele>642.29809569999998</ele>
        <time>2011-01-01T13:45:07Z</time>
      </trkpt>
      <trkpt lat="30.669004339724779" lon="-4.670478506013751">
        <ele>643.25927730000001</ele>
        <time>2011-01-01T13:45:11Z</time>
      </trkpt>
      <trkpt lat="30.669081788510084" lon="-4.67100128531456">
        <ele>647.10449219999998</ele>
        <time>2011-01-01T13:45:16Z</time>
      </trkpt>
      <trkpt lat="30.669120596721768" lon="-4.671263638883829">
        <ele>649.02709960000004</ele>
        <time>2011-01-01T13:45:19Z</time>
      </trkpt>
      <trkpt lat="30.669172899797559" lon="-4.671616265550256">
        <ele>649.5078125</ele>
        <time>2011-01-01T13:45:23Z</time>
      </trkpt>
      <trkpt lat="30.669300304725766" lon="-4.67245202511549">
        <ele>649.5078125</ele>
        <time>2011-01-01T13:45:33Z</time>
      </trkpt>
      <trkpt lat="30.66940943710506" lon="-4.673147639259696">
        <ele>651.91113280000002</ele>
        <time>2011-01-01T13:45:40Z</time>
      </trkpt>
      <trkpt lat="30.669545391574502" lon="-4.67398046515882">
        <ele>656.71777340000006</ele>
        <time>2011-01-01T13:45:49Z</time>
      </trkpt>
      <trkpt lat="30.669680759310722" lon="-4.674797030165792">
        <ele>650.46923830000003</ele>
        <time>2011-01-01T13:45:58Z</time>
      </trkpt>
      <trkpt lat="30.669791400432587" lon="-4.675479317083955">
        <ele>646.14331049999998</ele>
        <time>2011-01-01T13:46:06Z</time>
      </trkpt>
      <trkpt lat="30.669836159795523" lon="-4.675793638452888">
        <ele>643.25927730000001</ele>
        <time>2011-01-01T13:46:10Z</time>
      </trkpt>
      <trkpt lat="30.669907741248608" lon="-4.67669578269124">
        <ele>640.85595699999999</ele>
        <time>2011-01-01T13:46:19Z</time>
      </trkpt>
      <trkpt lat="30.669922828674316" lon="-4.67749273404479">
        <ele>638.93359380000004</ele>
        <time>2011-01-01T13:46:28Z</time>
      </trkpt>
      <trkpt lat="30.669922828674316" lon="-4.678685059770942">
        <ele>637.01074219999998</ele>
        <time>2011-01-01T13:46:40Z</time>
      </trkpt>
      <trkpt lat="30.669868430122733" lon="-4.679592903703451">
        <ele>635.08813480000003</ele>
        <time>2011-01-01T13:46:49Z</time>
      </trkpt>
      <trkpt lat="30.66960783675313" lon="-4.68091749586165">
        <ele>632.20410159999994</ele>
        <time>2011-01-01T13:47:02Z</time>
      </trkpt>
      <trkpt lat="30.669418405741453" lon="-4.681944362819195">
        <ele>630.76220699999999</ele>
        <time>2011-01-01T13:47:13Z</time>
      </trkpt>
      <trkpt lat="30.669237021356821" lon="-4.682779535651207">
        <ele>629.32006839999997</ele>
        <time>2011-01-01T13:47:22Z</time>
      </trkpt>
      <trkpt lat="30.669002830982208" lon="-4.683916289359331">
        <ele>627.39770510000005</ele>
        <time>2011-01-01T13:47:34Z</time>
      </trkpt>
      <trkpt lat="30.668969387188554" lon="-4.684782223775983">
        <ele>628.83959960000004</ele>
        <time>2011-01-01T13:47:43Z</time>
      </trkpt>
      <trkpt lat="30.668879114091396" lon="-4.685902968049049">
        <ele>633.16528319999998</ele>
        <time>2011-01-01T13:47:55Z</time>
      </trkpt>
      <trkpt lat="30.668322890996933" lon="-4.685860890895128">
        <ele>633.64599610000005</ele>
        <time>2011-01-01T13:48:01Z</time>
      </trkpt>
      <trkpt lat="30.66819665953517" lon="-4.685701970010996">
        <ele>633.16528319999998</ele>
        <time>2011-01-01T13:48:06Z</time>
      </trkpt>
      <trkpt lat="30.66813706420362" lon="-4.685507090762258">
        <ele>632.20410159999994</ele>
        <time>2011-01-01T13:48:16Z</time>
      </trkpt>
      <trkpt lat="30.668060034513474" lon="-4.685385385528207">
        <ele>630.76220699999999</ele>
        <time>2011-01-01T13:48:23Z</time>
      </trkpt>
      <trkpt lat="30.668288441374898" lon="-4.685288826003671">
        <ele>619.22631839999997</ele>
        <time>2011-01-01T14:47:49Z</time>
      </trkpt>
      <trkpt lat="30.668100267648697" lon="-4.685203665867448">
        <ele>595.67407230000003</ele>
        <time>2011-01-01T15:41:19Z</time>
      </trkpt>
      <trkpt lat="30.668250136077404" lon="-4.685410782694817">
        <ele>644.70117189999996</ele>
        <time>2011-01-01T15:53:07Z</time>
      </trkpt>
      <trkpt lat="30.668133879080415" lon="-4.685371890664101">
        <ele>611.05517580000003</ele>
        <time>2011-01-01T16:01:18Z</time>
      </trkpt>
      <trkpt lat="30.6678272690624" lon="-4.685463169589639">
        <ele>670.17626949999999</ele>
        <time>2011-01-01T16:27:32Z</time>
      </trkpt>
      <trkpt lat="30.667969593778253" lon="-4.685496864840388">
        <ele>675.94409180000002</ele>
        <time>2011-01-01T16:30:01Z</time>
      </trkpt>
      <trkpt lat="30.668130861595273" lon="-4.685402987524867">
        <ele>637.49145510000005</ele>
        <time>2011-01-01T16:33:59Z</time>
      </trkpt>
      <trkpt lat="30.668214680626988" lon="-4.685288993641734">
        <ele>623.55249019999997</ele>
        <time>2011-01-01T16:34:25Z</time>
      </trkpt>
      <trkpt lat="30.668464293703437" lon="-4.685532739385963">
        <ele>666.33081049999998</ele>
        <time>2011-01-01T16:51:48Z</time>
      </trkpt>
      <trkpt lat="30.667969761416316" lon="-4.685543132945895">
        <ele>655.75659180000002</ele>
        <time>2011-01-01T17:01:15Z</time>
      </trkpt>
      <trkpt lat="30.668227840214968" lon="-4.685560734942555">
        <ele>657.67919919999997</ele>
        <time>2011-01-01T17:09:24Z</time>
      </trkpt>
      <trkpt lat="30.668457420542836" lon="-4.685559058561921">
        <ele>662.00512700000002</ele>
        <time>2011-01-01T17:20:07Z</time>
      </trkpt>
    </trkseg>
  </trk>

  <trk>
    <name>110102</name>
    <extensions>
      <gpxx:TrackExtension xmlns:gpxx="http://www.garmin.com/xmlschemas/GpxExtensions/v3">
        <gpxx:DisplayColor>Yellow</gpxx:DisplayColor>
      </gpxx:TrackExtension>
    </extensions>
    <trkseg>
      <trkpt lat="30.66841802559793" lon="-4.685564003884792">
        <ele>663.37300000000005</ele>
        <time>2011-01-02T09:23:58Z</time>
      </trkpt>
      <trkpt lat="30.668352982029319" lon="-4.685443975031376">
        <ele>653.54399999999998</ele>
        <time>2011-01-02T09:28:31Z</time>
      </trkpt>
      <trkpt lat="30.668276958167553" lon="-4.685377003625035">
        <ele>639.452</ele>
        <time>2011-01-02T09:29:00Z</time>
      </trkpt>
      <trkpt lat="30.668161036446691" lon="-4.685257980599999">
        <ele>576.78399999999999</ele>
        <time>2011-01-02T09:30:18Z</time>
      </trkpt>
      <trkpt lat="30.668143015354872" lon="-4.685366023331881">
        <ele>560.60500000000002</ele>
        <time>2011-01-02T09:33:32Z</time>
      </trkpt>
      <trkpt lat="30.668388018384576" lon="-4.68549401499331">
        <ele>642.57600000000002</ele>
        <time>2011-01-02T09:36:48Z</time>
      </trkpt>
      <trkpt lat="30.668480973690748" lon="-4.685488985851407">
        <ele>671.29399999999998</ele>
        <time>2011-01-02T09:38:34Z</time>
      </trkpt>
      <trkpt lat="30.668336972594261" lon="-4.685229985043407">
        <ele>632.04300000000001</ele>
        <time>2011-01-02T09:40:08Z</time>
      </trkpt>
      <trkpt lat="30.668337978422642" lon="-4.685388989746571">
        <ele>633.52599999999995</ele>
        <time>2011-01-02T09:41:21Z</time>
      </trkpt>
      <trkpt lat="30.668460018932819" lon="-4.685527039691806">
        <ele>659.97400000000005</ele>
        <time>2011-01-02T09:42:18Z</time>
      </trkpt>
      <trkpt lat="30.668746009469032" lon="-4.685854017734528">
        <ele>638.56700000000001</ele>
        <time>2011-01-02T09:42:57Z</time>
      </trkpt>
      <trkpt lat="30.669077010825276" lon="-4.686211002990603">
        <ele>628.76099999999997</ele>
        <time>2011-01-02T09:43:09Z</time>
      </trkpt>
      <trkpt lat="30.669682016596198" lon="-4.686579974368215">
        <ele>621.44100000000003</ele>
        <time>2011-01-02T09:43:22Z</time>
      </trkpt>
      <trkpt lat="30.670332033187151" lon="-4.686938971281052">
        <ele>616.70100000000002</ele>
        <time>2011-01-02T09:43:35Z</time>
      </trkpt>
      <trkpt lat="30.67108397372067" lon="-4.687468037009239">
        <ele>612.69100000000003</ele>
        <time>2011-01-02T09:43:50Z</time>
      </trkpt>
      <trkpt lat="30.671956026926637" lon="-4.688148982822895">
        <ele>610.24199999999996</ele>
        <time>2011-01-02T09:44:08Z</time>
      </trkpt>
      <trkpt lat="30.67237202078104" lon="-4.688723981380463">
        <ele>608.05100000000004</ele>
        <time>2011-01-02T09:44:17Z</time>
      </trkpt>
      <trkpt lat="30.672491965815425" lon="-4.68895498663187">
        <ele>606.13</ele>
        <time>2011-01-02T09:44:21Z</time>
      </trkpt>
      <trkpt lat="30.67275901325047" lon="-4.689142992720008">
        <ele>601.53499999999997</ele>
        <time>2011-01-02T09:44:29Z</time>
      </trkpt>
      <trkpt lat="30.672916006296873" lon="-4.689311971887946">
        <ele>601.12599999999998</ele>
        <time>2011-01-02T09:44:34Z</time>
      </trkpt>
      <trkpt lat="30.673132007941604" lon="-4.689884958788753">
        <ele>596.745</ele>
        <time>2011-01-02T09:44:43Z</time>
      </trkpt>
      <trkpt lat="30.673298975452781" lon="-4.690561965107918">
        <ele>591.33399999999995</ele>
        <time>2011-01-02T09:44:53Z</time>
      </trkpt>
      <trkpt lat="30.673249019309878" lon="-4.691354976966977">
        <ele>589.28499999999997</ele>
        <time>2011-01-02T09:44:57Z</time>
      </trkpt>
      <trkpt lat="30.673598041757941" lon="-4.691508030518889">
        <ele>587.68200000000002</ele>
        <time>2011-01-02T09:45:02Z</time>
      </trkpt>
      <trkpt lat="30.674043036997318" lon="-4.691700981929898">
        <ele>589.46400000000006</ele>
        <time>2011-01-02T09:45:07Z</time>
      </trkpt>
      <trkpt lat="30.67497200332582" lon="-4.691944979131222">
        <ele>586.03499999999997</ele>
        <time>2011-01-02T09:45:16Z</time>
      </trkpt>
      <trkpt lat="30.675253970548511" lon="-4.692048998549581">
        <ele>585.096</ele>
        <time>2011-01-02T09:45:19Z</time>
      </trkpt>
      <trkpt lat="30.675662001594901" lon="-4.692371031269431">
        <ele>587.08699999999999</ele>
        <time>2011-01-02T09:45:25Z</time>
      </trkpt>
      <trkpt lat="30.676160976290703" lon="-4.69355296343565">
        <ele>582.87800000000004</ele>
        <time>2011-01-02T09:45:37Z</time>
      </trkpt>
      <trkpt lat="30.676486026495695" lon="-4.69406601972878">
        <ele>581.13699999999994</ele>
        <time>2011-01-02T09:45:44Z</time>
      </trkpt>
      <trkpt lat="30.676837982609868" lon="-4.694227036088705">
        <ele>578.22500000000002</ele>
        <time>2011-01-02T09:45:50Z</time>
      </trkpt>
      <trkpt lat="30.677481964230537" lon="-4.694385034963489">
        <ele>575.21699999999998</ele>
        <time>2011-01-02T09:46:01Z</time>
      </trkpt>
      <trkpt lat="30.677595036104321" lon="-4.694396015256643">
        <ele>574.64700000000005</ele>
        <time>2011-01-02T09:46:03Z</time>
      </trkpt>
      <trkpt lat="30.677918996661901" lon="-4.694349998608232">
        <ele>574.33199999999999</ele>
        <time>2011-01-02T09:46:08Z</time>
      </trkpt>
      <trkpt lat="30.678664986044168" lon="-4.693891005590558">
        <ele>573.51199999999994</ele>
        <time>2011-01-02T09:46:19Z</time>
      </trkpt>
      <trkpt lat="30.679227998480201" lon="-4.693480040878058">
        <ele>570.20600000000002</ele>
        <time>2011-01-02T09:46:30Z</time>
      </trkpt>
      <trkpt lat="30.679798973724246" lon="-4.693004032596946">
        <ele>570.58699999999999</ele>
        <time>2011-01-02T09:46:41Z</time>
      </trkpt>
      <trkpt lat="30.680337008088827" lon="-4.692551996558905">
        <ele>574.07799999999997</ele>
        <time>2011-01-02T09:46:52Z</time>
      </trkpt>
      <trkpt lat="30.680776974186301" lon="-4.692267011851072">
        <ele>579.14999999999998</ele>
        <time>2011-01-02T09:47:00Z</time>
      </trkpt>
      <trkpt lat="30.681010996922851" lon="-4.692161986604333">
        <ele>580.77999999999997</ele>
        <time>2011-01-02T09:47:04Z</time>
      </trkpt>
      <trkpt lat="30.681436965242028" lon="-4.692088980227709">
        <ele>587.83100000000002</ele>
        <time>2011-01-02T09:47:12Z</time>
      </trkpt>
      <trkpt lat="30.681952033191919" lon="-4.692128039896488">
        <ele>592.39400000000001</ele>
        <time>2011-01-02T09:47:21Z</time>
      </trkpt>
      <trkpt lat="30.682149007916451" lon="-4.692123010754585">
        <ele>591.38499999999999</ele>
        <time>2011-01-02T09:47:24Z</time>
      </trkpt>
      <trkpt lat="30.682525020092726" lon="-4.692021002992988">
        <ele>591.77999999999997</ele>
        <time>2011-01-02T09:47:29Z</time>
      </trkpt>
      <trkpt lat="30.682912012562156" lon="-4.69144499860704">
        <ele>587.40300000000002</ele>
        <time>2011-01-02T09:47:39Z</time>
      </trkpt>
      <trkpt lat="30.683003040030599" lon="-4.691328993067145">
        <ele>588.68299999999999</ele>
        <time>2011-01-02T09:47:43Z</time>
      </trkpt>
      <trkpt lat="30.683161038905382" lon="-4.691176023334265">
        <ele>591.03300000000002</ele>
        <time>2011-01-02T09:47:47Z</time>
      </trkpt>
      <trkpt lat="30.683562029153109" lon="-4.690731028094888">
        <ele>598.54999999999995</ele>
        <time>2011-01-02T09:47:57Z</time>
      </trkpt>
      <trkpt lat="30.683884983882308" lon="-4.690432967618108">
        <ele>613.11800000000005</ele>
        <time>2011-01-02T09:48:05Z</time>
      </trkpt>
      <trkpt lat="30.684213973581791" lon="-4.690172960981727">
        <ele>618.25999999999999</ele>
        <time>2011-01-02T09:48:11Z</time>
      </trkpt>
      <trkpt lat="30.684394016861916" lon="-4.690073970705271">
        <ele>622.03800000000001</ele>
        <time>2011-01-02T09:48:15Z</time>
      </trkpt>
      <trkpt lat="30.684591997414827" lon="-4.689996019005776">
        <ele>623.64400000000001</ele>
        <time>2011-01-02T09:48:20Z</time>
      </trkpt>
      <trkpt lat="30.68513598293066" lon="-4.68959603458643">
        <ele>620.71799999999996</ele>
        <time>2011-01-02T09:48:30Z</time>
      </trkpt>
      <trkpt lat="30.685205971822143" lon="-4.68949100933969">
        <ele>619.255</ele>
        <time>2011-01-02T09:48:32Z</time>
      </trkpt>
      <trkpt lat="30.685592964291573" lon="-4.689049031585455">
        <ele>623.048</ele>
        <time>2011-01-02T09:48:41Z</time>
      </trkpt>
      <trkpt lat="30.685977023094893" lon="-4.688737979158759">
        <ele>634.54200000000003</ele>
        <time>2011-01-02T09:48:51Z</time>
      </trkpt>
      <trkpt lat="30.686214985325933" lon="-4.688632031902671">
        <ele>636.56200000000001</ele>
        <time>2011-01-02T09:48:59Z</time>
      </trkpt>
      <trkpt lat="30.686342976987362" lon="-4.688551984727383">
        <ele>630.64800000000002</ele>
        <time>2011-01-02T09:49:08Z</time>
      </trkpt>
      <trkpt lat="30.686421012505889" lon="-4.688446959480643">
        <ele>634.70699999999999</ele>
        <time>2011-01-02T09:49:26Z</time>
      </trkpt>
      <trkpt lat="30.686742039397359" lon="-4.687873972579837">
        <ele>617.096</ele>
        <time>2011-01-02T09:49:35Z</time>
      </trkpt>
      <trkpt lat="30.686968015506864" lon="-4.687378015369177">
        <ele>614.05200000000002</ele>
        <time>2011-01-02T09:49:41Z</time>
      </trkpt>
      <trkpt lat="30.687168007716537" lon="-4.686539992690086">
        <ele>620.72299999999996</ele>
        <time>2011-01-02T09:49:50Z</time>
      </trkpt>
      <trkpt lat="30.687162978574634" lon="-4.685955019667745">
        <ele>625.69899999999996</ele>
        <time>2011-01-02T09:49:57Z</time>
      </trkpt>
      <trkpt lat="30.687131965532899" lon="-4.685685960575938">
        <ele>630.63800000000003</ele>
        <time>2011-01-02T09:50:04Z</time>
      </trkpt>
      <trkpt lat="30.687148980796337" lon="-4.685517987236381">
        <ele>631.67200000000003</ele>
        <time>2011-01-02T09:50:08Z</time>
      </trkpt>
      <trkpt lat="30.687519963830709" lon="-4.685535002499819">
        <ele>631.87900000000002</ele>
        <time>2011-01-02T09:50:14Z</time>
      </trkpt>
      <trkpt lat="30.687758009880781" lon="-4.685633992776275">
        <ele>623.88699999999994</ele>
        <time>2011-01-02T09:50:23Z</time>
      </trkpt>
      <trkpt lat="30.687899999320507" lon="-4.685539025813341">
        <ele>609.35699999999997</ele>
        <time>2011-01-02T09:50:41Z</time>
      </trkpt>
      <trkpt lat="30.687935035675764" lon="-4.685383038595319">
        <ele>609.25</ele>
        <time>2011-01-02T09:50:47Z</time>
      </trkpt>
      <trkpt lat="30.687961019575596" lon="-4.685187991708517">
        <ele>619.78499999999997</ele>
        <time>2011-01-02T09:50:54Z</time>
      </trkpt>
      <trkpt lat="30.68807702511549" lon="-4.685164019465447">
        <ele>625.11300000000006</ele>
        <time>2011-01-02T09:51:01Z</time>
      </trkpt>
      <trkpt lat="30.688392017036676" lon="-4.685542965307832">
        <ele>620.529</ele>
        <time>2011-01-02T09:51:09Z</time>
      </trkpt>
      <trkpt lat="30.688979001715779" lon="-4.686345029622316">
        <ele>619.92999999999995</ele>
        <time>2011-01-02T09:51:19Z</time>
      </trkpt>
      <trkpt lat="30.689374962821603" lon="-4.686815002933145">
        <ele>615.22900000000004</ele>
        <time>2011-01-02T09:51:27Z</time>
      </trkpt>
      <trkpt lat="30.689746029675007" lon="-4.687322024255991">
        <ele>617.44899999999996</ele>
        <time>2011-01-02T09:51:37Z</time>
      </trkpt>
      <trkpt lat="30.690164035186172" lon="-4.687910014763475">
        <ele>624.49000000000001</ele>
        <time>2011-01-02T09:51:47Z</time>
      </trkpt>
      <trkpt lat="30.690606012940407" lon="-4.688462968915701">
        <ele>621.31700000000001</ele>
        <time>2011-01-02T09:51:59Z</time>
      </trkpt>
      <trkpt lat="30.691118985414505" lon="-4.689050037413836">
        <ele>618.04700000000003</ele>
        <time>2011-01-02T09:52:12Z</time>
      </trkpt>
      <trkpt lat="30.691360970959067" lon="-4.689355976879597">
        <ele>616.06600000000003</ele>
        <time>2011-01-02T09:52:20Z</time>
      </trkpt>
      <trkpt lat="30.69145199842751" lon="-4.689501989632845">
        <ele>614.47500000000002</ele>
        <time>2011-01-02T09:52:23Z</time>
      </trkpt>
      <trkpt lat="30.691566998139024" lon="-4.68964297324419">
        <ele>613.60599999999999</ele>
        <time>2011-01-02T09:52:27Z</time>
      </trkpt>
      <trkpt lat="30.69151695817709" lon="-4.689773982390761">
        <ele>611.70600000000002</ele>
        <time>2011-01-02T09:52:31Z</time>
      </trkpt>
      <trkpt lat="30.691387038677931" lon="-4.689867021515966">
        <ele>610.39599999999996</ele>
        <time>2011-01-02T09:52:34Z</time>
      </trkpt>
      <trkpt lat="30.690933996811509" lon="-4.690354010090232">
        <ele>609.24300000000005</ele>
        <time>2011-01-02T09:52:43Z</time>
      </trkpt>
      <trkpt lat="30.690088011324406" lon="-4.691093964502215">
        <ele>607.89300000000003</ele>
        <time>2011-01-02T09:52:56Z</time>
      </trkpt>
      <trkpt lat="30.689963959157467" lon="-4.691225979477167">
        <ele>607.76400000000001</ele>
        <time>2011-01-02T09:52:58Z</time>
      </trkpt>
      <trkpt lat="30.68971199914813" lon="-4.691591011360288">
        <ele>607.39300000000003</ele>
        <time>2011-01-02T09:53:03Z</time>
      </trkpt>
      <trkpt lat="30.689149992540479" lon="-4.692295007407665">
        <ele>605.86300000000006</ele>
        <time>2011-01-02T09:53:13Z</time>
      </trkpt>
      <trkpt lat="30.688459994271398" lon="-4.692833041772246">
        <ele>602.173</ele>
        <time>2011-01-02T09:53:23Z</time>
      </trkpt>
      <trkpt lat="30.68786202929914" lon="-4.69325004145503">
        <ele>598.97299999999996</ele>
        <time>2011-01-02T09:53:32Z</time>
      </trkpt>
      <trkpt lat="30.687096007168293" lon="-4.693662011995912">
        <ele>602.40700000000004</ele>
        <time>2011-01-02T09:53:41Z</time>
      </trkpt>
      <trkpt lat="30.686844969168305" lon="-4.693854041397572">
        <ele>601.86599999999999</ele>
        <time>2011-01-02T09:53:44Z</time>
      </trkpt>
      <trkpt lat="30.686146002262831" lon="-4.694116981700063">
        <ele>597.05399999999997</ele>
        <time>2011-01-02T09:53:53Z</time>
      </trkpt>
      <trkpt lat="30.685591036453843" lon="-4.694449994713068">
        <ele>593.23400000000004</ele>
        <time>2011-01-02T09:54:01Z</time>
      </trkpt>
      <trkpt lat="30.68532700650394" lon="-4.694702960550785">
        <ele>591.92499999999995</ele>
        <time>2011-01-02T09:54:05Z</time>
      </trkpt>
      <trkpt lat="30.684832977131009" lon="-4.695327999070287">
        <ele>596.81700000000001</ele>
        <time>2011-01-02T09:54:13Z</time>
      </trkpt>
      <trkpt lat="30.684441039338708" lon="-4.695752039551735">
        <ele>599.34699999999998</ele>
        <time>2011-01-02T09:54:19Z</time>
      </trkpt>
      <trkpt lat="30.684036025777459" lon="-4.696074994280934">
        <ele>600.71600000000001</ele>
        <time>2011-01-02T09:54:25Z</time>
      </trkpt>
      <trkpt lat="30.683794962242246" lon="-4.696343969553709">
        <ele>601.41600000000005</ele>
        <time>2011-01-02T09:54:29Z</time>
      </trkpt>
      <trkpt lat="30.683056013658643" lon="-4.697204036638141">
        <ele>604.59000000000003</ele>
        <time>2011-01-02T09:54:40Z</time>
      </trkpt>
      <trkpt lat="30.68287898786366" lon="-4.697408974170685">
        <ele>605.39800000000002</ele>
        <time>2011-01-02T09:54:43Z</time>
      </trkpt>
      <trkpt lat="30.682605989277363" lon="-4.697603015229106">
        <ele>606.66899999999998</ele>
        <time>2011-01-02T09:54:47Z</time>
      </trkpt>
      <trkpt lat="30.682419994845986" lon="-4.697746010497212">
        <ele>607.58000000000004</ele>
        <time>2011-01-02T09:54:50Z</time>
      </trkpt>
      <trkpt lat="30.68219100125134" lon="-4.698018003255129">
        <ele>608.05899999999997</ele>
        <time>2011-01-02T09:54:54Z</time>
      </trkpt>
      <trkpt lat="30.68161197938025" lon="-4.698412036523223">
        <ele>608.69899999999996</ele>
        <time>2011-01-02T09:55:02Z</time>
      </trkpt>
      <trkpt lat="30.681334035471082" lon="-4.698618985712528">
        <ele>608.00599999999997</ele>
        <time>2011-01-02T09:55:07Z</time>
      </trkpt>
      <trkpt lat="30.680915024131536" lon="-4.699063980951905">
        <ele>607.38300000000004</ele>
        <time>2011-01-02T09:55:14Z</time>
      </trkpt>
      <trkpt lat="30.680625010281801" lon="-4.699477963149548">
        <ele>606.923</ele>
        <time>2011-01-02T09:55:21Z</time>
      </trkpt>
      <trkpt lat="30.680679995566607" lon="-4.699764037504792">
        <ele>610.721</ele>
        <time>2011-01-02T09:55:27Z</time>
      </trkpt>
      <trkpt lat="30.680710002779961" lon="-4.699964029714465">
        <ele>612.14499999999998</ele>
        <time>2011-01-02T09:55:29Z</time>
      </trkpt>
      <trkpt lat="30.681082997471094" lon="-4.700785959139466">
        <ele>617.87599999999998</ele>
        <time>2011-01-02T09:55:36Z</time>
      </trkpt>
      <trkpt lat="30.681737959384918" lon="-4.701969986781478">
        <ele>617.322</ele>
        <time>2011-01-02T09:55:44Z</time>
      </trkpt>
      <trkpt lat="30.682742027565837" lon="-4.703761031851172">
        <ele>616.43200000000002</ele>
        <time>2011-01-02T09:55:54Z</time>
      </trkpt>
      <trkpt lat="30.683263968676329" lon="-4.704729979857802">
        <ele>615.399</ele>
        <time>2011-01-02T09:56:00Z</time>
      </trkpt>
      <trkpt lat="30.684187989681959" lon="-4.706407031044364">
        <ele>611.71799999999996</ele>
        <time>2011-01-02T09:56:11Z</time>
      </trkpt>
      <trkpt lat="30.685219969600439" lon="-4.708272004500032">
        <ele>609.33600000000001</ele>
        <time>2011-01-02T09:56:23Z</time>
      </trkpt>
      <trkpt lat="30.685649961233139" lon="-4.709233995527029">
        <ele>608.51700000000005</ele>
        <time>2011-01-02T09:56:30Z</time>
      </trkpt>
      <trkpt lat="30.685881972312927" lon="-4.710334958508611">
        <ele>612.18299999999999</ele>
        <time>2011-01-02T09:56:37Z</time>
      </trkpt>
      <trkpt lat="30.686209034174681" lon="-4.712174031883478">
        <ele>615.88999999999999</ele>
        <time>2011-01-02T09:56:47Z</time>
      </trkpt>
      <trkpt lat="30.686407014727592" lon="-4.712950028479099">
        <ele>617.99300000000005</ele>
        <time>2011-01-02T09:56:52Z</time>
      </trkpt>
      <trkpt lat="30.686857961118221" lon="-4.713591998443008">
        <ele>618.94899999999996</ele>
        <time>2011-01-02T09:56:58Z</time>
      </trkpt>
      <trkpt lat="30.687744012102485" lon="-4.714746018871665">
        <ele>619.93799999999999</ele>
        <time>2011-01-02T09:57:08Z</time>
      </trkpt>
      <trkpt lat="30.688554039224982" lon="-4.715995006263256">
        <ele>618.06500000000005</ele>
        <time>2011-01-02T09:57:18Z</time>
      </trkpt>
      <trkpt lat="30.688828965649009" lon="-4.716965965926647">
        <ele>616.82799999999997</ele>
        <time>2011-01-02T09:57:25Z</time>
      </trkpt>
      <trkpt lat="30.688968021422625" lon="-4.718101965263486">
        <ele>616.69200000000001</ele>
        <time>2011-01-02T09:57:32Z</time>
      </trkpt>
      <trkpt lat="30.689070029184222" lon="-4.720165003091097">
        <ele>621.02499999999998</ele>
        <time>2011-01-02T09:57:44Z</time>
      </trkpt>
      <trkpt lat="30.689415028318763" lon="-4.721328997984529">
        <ele>620.95600000000002</ele>
        <time>2011-01-02T09:57:52Z</time>
      </trkpt>
      <trkpt lat="30.690237963572145" lon="-4.723188020288944">
        <ele>617.48400000000004</ele>
        <time>2011-01-02T09:58:05Z</time>
      </trkpt>
      <trkpt lat="30.690712966024876" lon="-4.724757028743625">
        <ele>615.10699999999997</ele>
        <time>2011-01-02T09:58:14Z</time>
      </trkpt>
      <trkpt lat="30.691930018365383" lon="-4.72556596621871">
        <ele>617.41399999999999</ele>
        <time>2011-01-02T09:58:24Z</time>
      </trkpt>
      <trkpt lat="30.692469980567694" lon="-4.725904008373618">
        <ele>616.93499999999995</ele>
        <time>2011-01-02T09:58:29Z</time>
      </trkpt>
      <trkpt lat="30.692877005785704" lon="-4.726281026378274">
        <ele>617.70899999999995</ele>
        <time>2011-01-02T09:58:34Z</time>
      </trkpt>
      <trkpt lat="30.693030981346965" lon="-4.726529968902469">
        <ele>618.11300000000006</ele>
        <time>2011-01-02T09:58:37Z</time>
      </trkpt>
      <trkpt lat="30.693417973816395" lon="-4.727293979376555">
        <ele>617.94799999999998</ele>
        <time>2011-01-02T09:58:45Z</time>
      </trkpt>
      <trkpt lat="30.693949973210692" lon="-4.728321013972163">
        <ele>616.46500000000003</ele>
        <time>2011-01-02T09:58:53Z</time>
      </trkpt>
      <trkpt lat="30.6944590061903" lon="-4.729467993602157">
        <ele>614.279</ele>
        <time>2011-01-02T09:59:01Z</time>
      </trkpt>
      <trkpt lat="30.695032998919487" lon="-4.730711029842496">
        <ele>612.68700000000001</ele>
        <time>2011-01-02T09:59:09Z</time>
      </trkpt>
      <trkpt lat="30.69583497941494" lon="-4.732445999979973">
        <ele>612.005</ele>
        <time>2011-01-02T09:59:19Z</time>
      </trkpt>
      <trkpt lat="30.696667972952127" lon="-4.733782997354865">
        <ele>608.41700000000003</ele>
        <time>2011-01-02T09:59:27Z</time>
      </trkpt>
      <trkpt lat="30.697330981492996" lon="-4.734413987025619">
        <ele>607.51800000000003</ele>
        <time>2011-01-02T09:59:33Z</time>
      </trkpt>
      <trkpt lat="30.697840014472604" lon="-4.734842972829938">
        <ele>608.73299999999995</ele>
        <time>2011-01-02T09:59:39Z</time>
      </trkpt>
      <trkpt lat="30.698394980281591" lon="-4.73531998693943">
        <ele>611.24800000000005</ele>
        <time>2011-01-02T09:59:48Z</time>
      </trkpt>
      <trkpt lat="30.698935026302934" lon="-4.736000010743737">
        <ele>617.976</ele>
        <time>2011-01-02T10:00:01Z</time>
      </trkpt>
      <trkpt lat="30.698997974395752" lon="-4.736474007368088">
        <ele>620.16800000000001</ele>
        <time>2011-01-02T10:00:08Z</time>
      </trkpt>
      <trkpt lat="30.69987497292459" lon="-4.737194012850523">
        <ele>620.13</ele>
        <time>2011-01-02T10:00:16Z</time>
      </trkpt>
      <trkpt lat="30.699892994016409" lon="-4.738544002175331">
        <ele>617.65999999999997</ele>
        <time>2011-01-02T10:00:27Z</time>
      </trkpt>
      <trkpt lat="30.700361961498857" lon="-4.739302983507514">
        <ele>614.50999999999999</ele>
        <time>2011-01-02T10:00:37Z</time>
      </trkpt>
      <trkpt lat="30.700979037210345" lon="-4.740476030856371">
        <ele>613.50400000000002</ele>
        <time>2011-01-02T10:00:48Z</time>
      </trkpt>
      <trkpt lat="30.701170982792974" lon="-4.74137800745666">
        <ele>616.02099999999996</ele>
        <time>2011-01-02T10:00:55Z</time>
      </trkpt>
      <trkpt lat="30.701460996642709" lon="-4.742907034233213">
        <ele>617.45899999999995</ele>
        <time>2011-01-02T10:01:04Z</time>
      </trkpt>
      <trkpt lat="30.702148983255029" lon="-4.744757004082203">
        <ele>614.99900000000002</ele>
        <time>2011-01-02T10:01:14Z</time>
      </trkpt>
      <trkpt lat="30.702994968742132" lon="-4.745770040899515">
        <ele>611.49400000000003</ele>
        <time>2011-01-02T10:01:21Z</time>
      </trkpt>
      <trkpt lat="30.704601025208831" lon="-4.74743896164">
        <ele>617.69100000000003</ele>
        <time>2011-01-02T10:01:33Z</time>
      </trkpt>
      <trkpt lat="30.705692013725638" lon="-4.748348984867334">
        <ele>618.38900000000001</ele>
        <time>2011-01-02T10:01:41Z</time>
      </trkpt>
      <trkpt lat="30.706665990874171" lon="-4.749018028378487">
        <ele>616.66399999999999</ele>
        <time>2011-01-02T10:01:47Z</time>
      </trkpt>
      <trkpt lat="30.707850018516183" lon="-4.749389011412859">
        <ele>614.99900000000002</ele>
        <time>2011-01-02T10:01:53Z</time>
      </trkpt>
      <trkpt lat="30.709918001666665" lon="-4.749354980885983">
        <ele>613.63099999999997</ele>
        <time>2011-01-02T10:02:03Z</time>
      </trkpt>
      <trkpt lat="30.713309990242124" lon="-4.749236963689327">
        <ele>615.94500000000005</ele>
        <time>2011-01-02T10:02:20Z</time>
      </trkpt>
      <trkpt lat="30.716472985222936" lon="-4.749204022809863">
        <ele>618.81299999999999</ele>
        <time>2011-01-02T10:02:36Z</time>
      </trkpt>
      <trkpt lat="30.719973016530275" lon="-4.749119030311704">
        <ele>619.64300000000003</ele>
        <time>2011-01-02T10:02:53Z</time>
      </trkpt>
      <trkpt lat="30.721971010789275" lon="-4.74911198951304">
        <ele>616.774</ele>
        <time>2011-01-02T10:03:03Z</time>
      </trkpt>
      <trkpt lat="30.723218992352486" lon="-4.749451037496328">
        <ele>616.29600000000005</ele>
        <time>2011-01-02T10:03:10Z</time>
      </trkpt>
      <trkpt lat="30.724314004182816" lon="-4.750300040468574">
        <ele>613.92100000000005</ele>
        <time>2011-01-02T10:03:17Z</time>
      </trkpt>
      <trkpt lat="30.72595601901412" lon="-4.751566965132952">
        <ele>614.096</ele>
        <time>2011-01-02T10:03:28Z</time>
      </trkpt>
      <trkpt lat="30.72765301913023" lon="-4.752908991649747">
        <ele>613.649</ele>
        <time>2011-01-02T10:03:40Z</time>
      </trkpt>
      <trkpt lat="30.728991022333503" lon="-4.753934014588594">
        <ele>612.87900000000002</ele>
        <time>2011-01-02T10:03:50Z</time>
      </trkpt>
      <trkpt lat="30.730332965031266" lon="-4.755005976185203">
        <ele>612.721</ele>
        <time>2011-01-02T10:04:00Z</time>
      </trkpt>
      <trkpt lat="30.730700008571148" lon="-4.755305964499712">
        <ele>610.93299999999999</ele>
        <time>2011-01-02T10:04:05Z</time>
      </trkpt>
      <trkpt lat="30.730893965810537" lon="-4.755463963374496">
        <ele>608.971</ele>
        <time>2011-01-02T10:04:09Z</time>
      </trkpt>
      <trkpt lat="30.731362011283636" lon="-4.755834024399519">
        <ele>606.66300000000001</ele>
        <time>2011-01-02T10:04:15Z</time>
      </trkpt>
      <trkpt lat="30.731699969619513" lon="-4.756097970530391">
        <ele>607.46400000000006</ele>
        <time>2011-01-02T10:04:21Z</time>
      </trkpt>
      <trkpt lat="30.731980009004474" lon="-4.756315983831883">
        <ele>608.23599999999999</ele>
        <time>2011-01-02T10:04:25Z</time>
      </trkpt>
      <trkpt lat="30.732849966734648" lon="-4.756960971280932">
        <ele>608.904</ele>
        <time>2011-01-02T10:04:32Z</time>
      </trkpt>
      <trkpt lat="30.734200039878488" lon="-4.758004015311599">
        <ele>608.48800000000006</ele>
        <time>2011-01-02T10:04:41Z</time>
      </trkpt>
      <trkpt lat="30.735982032492757" lon="-4.758387990295887">
        <ele>606.19399999999996</ele>
        <time>2011-01-02T10:04:51Z</time>
      </trkpt>
      <trkpt lat="30.736803039908409" lon="-4.758427971974015">
        <ele>605.22699999999998</ele>
        <time>2011-01-02T10:04:58Z</time>
      </trkpt>
      <trkpt lat="30.737749021500349" lon="-4.758668029680848">
        <ele>603.89499999999998</ele>
        <time>2011-01-02T10:05:05Z</time>
      </trkpt>
      <trkpt lat="30.738192005082965" lon="-4.758943039923906">
        <ele>604.06100000000004</ele>
        <time>2011-01-02T10:05:09Z</time>
      </trkpt>
      <trkpt lat="30.738335000351071" lon="-4.759091986343265">
        <ele>604.774</ele>
        <time>2011-01-02T10:05:11Z</time>
      </trkpt>
      <trkpt lat="30.73895500972867" lon="-4.759328020736575">
        <ele>604.37400000000002</ele>
        <time>2011-01-02T10:05:17Z</time>
      </trkpt>
      <trkpt lat="30.740313967689872" lon="-4.75970302708447">
        <ele>604.44399999999996</ele>
        <time>2011-01-02T10:05:26Z</time>
      </trkpt>
      <trkpt lat="30.742636006325483" lon="-4.76039201952517">
        <ele>607.60400000000004</ele>
        <time>2011-01-02T10:05:41Z</time>
      </trkpt>
      <trkpt lat="30.744839021936059" lon="-4.761032983660698">
        <ele>609.06200000000001</ele>
        <time>2011-01-02T10:05:55Z</time>
      </trkpt>
      <trkpt lat="30.746859982609749" lon="-4.761603036895394">
        <ele>610.08299999999997</ele>
        <time>2011-01-02T10:06:07Z</time>
      </trkpt>
      <trkpt lat="30.748745994642377" lon="-4.76195901632309">
        <ele>616.26999999999998</ele>
        <time>2011-01-02T10:06:18Z</time>
      </trkpt>
      <trkpt lat="30.750265968963504" lon="-4.762084996327758">
        <ele>622.37400000000002</ele>
        <time>2011-01-02T10:06:28Z</time>
      </trkpt>
      <trkpt lat="30.752090960741043" lon="-4.762202007696033">
        <ele>625.60799999999995</ele>
        <time>2011-01-02T10:06:39Z</time>
      </trkpt>
      <trkpt lat="30.753597021102905" lon="-4.762314995750785">
        <ele>626.93799999999999</ele>
        <time>2011-01-02T10:06:48Z</time>
      </trkpt>
      <trkpt lat="30.756377968937159" lon="-4.762539966031909">
        <ele>628.59100000000001</ele>
        <time>2011-01-02T10:07:03Z</time>
      </trkpt>
      <trkpt lat="30.758440000936389" lon="-4.762811958789825">
        <ele>628.97199999999998</ele>
        <time>2011-01-02T10:07:14Z</time>
      </trkpt>
      <trkpt lat="30.760374963283539" lon="-4.763402966782451">
        <ele>635.66099999999994</ele>
        <time>2011-01-02T10:07:24Z</time>
      </trkpt>
      <trkpt lat="30.762895988300443" lon="-4.764796961098909">
        <ele>653.00999999999999</ele>
        <time>2011-01-02T10:07:37Z</time>
      </trkpt>
      <trkpt lat="30.76462802477181" lon="-4.765034001320601">
        <ele>664.71400000000006</ele>
        <time>2011-01-02T10:07:48Z</time>
      </trkpt>
      <trkpt lat="30.766672035679221" lon="-4.765757024288178">
        <ele>663.47199999999998</ele>
        <time>2011-01-02T10:08:00Z</time>
      </trkpt>
      <trkpt lat="30.768452016636729" lon="-4.766372004523873">
        <ele>660.44799999999998</ele>
        <time>2011-01-02T10:08:12Z</time>
      </trkpt>
      <trkpt lat="30.769219966605306" lon="-4.766634022817016">
        <ele>664.95299999999997</ele>
        <time>2011-01-02T10:08:18Z</time>
      </trkpt>
      <trkpt lat="30.770411035045981" lon="-4.766886988654733">
        <ele>666.78800000000001</ele>
        <time>2011-01-02T10:08:26Z</time>
      </trkpt>
      <trkpt lat="30.772114992141724" lon="-4.766994025558233">
        <ele>671.22400000000005</ele>
        <time>2011-01-02T10:08:37Z</time>
      </trkpt>
      <trkpt lat="30.774380033835769" lon="-4.766969969496131">
        <ele>676.48500000000001</ele>
        <time>2011-01-02T10:08:50Z</time>
      </trkpt>
      <trkpt lat="30.776578020304441" lon="-4.766909033060074">
        <ele>670.64599999999996</ele>
        <time>2011-01-02T10:09:02Z</time>
      </trkpt>
      <trkpt lat="30.779082030057907" lon="-4.766847006976605">
        <ele>662.43600000000004</ele>
        <time>2011-01-02T10:09:15Z</time>
      </trkpt>
      <trkpt lat="30.781659968197346" lon="-4.766804007813335">
        <ele>659.03800000000001</ele>
        <time>2011-01-02T10:09:28Z</time>
      </trkpt>
      <trkpt lat="30.784361036494374" lon="-4.766722032800317">
        <ele>660.66099999999994</ele>
        <time>2011-01-02T10:09:41Z</time>
      </trkpt>
      <trkpt lat="30.786937968805432" lon="-4.766657995060086">
        <ele>662.66200000000003</ele>
        <time>2011-01-02T10:09:54Z</time>
      </trkpt>
      <trkpt lat="30.789311975240707" lon="-4.766613990068436">
        <ele>663.15700000000004</ele>
        <time>2011-01-02T10:10:06Z</time>
      </trkpt>
      <trkpt lat="30.791368978098035" lon="-4.76655900478363">
        <ele>662.70100000000002</ele>
        <time>2011-01-02T10:10:17Z</time>
      </trkpt>
      <trkpt lat="30.793297989293933" lon="-4.766518017277122">
        <ele>662.86099999999999</ele>
        <time>2011-01-02T10:10:28Z</time>
      </trkpt>
      <trkpt lat="30.794849982485175" lon="-4.766470994800329">
        <ele>664.26999999999998</ele>
        <time>2011-01-02T10:10:36Z</time>
      </trkpt>
      <trkpt lat="30.797568988054991" lon="-4.766359012573957">
        <ele>664.66399999999999</ele>
        <time>2011-01-02T10:10:49Z</time>
      </trkpt>
      <trkpt lat="30.799485007300973" lon="-4.765991969034076">
        <ele>664.49400000000003</ele>
        <time>2011-01-02T10:10:58Z</time>
      </trkpt>
      <trkpt lat="30.801576962694526" lon="-4.765501962974668">
        <ele>666.51900000000001</ele>
        <time>2011-01-02T10:11:08Z</time>
      </trkpt>
      <trkpt lat="30.803199028596282" lon="-4.765368020161986">
        <ele>668.702</ele>
        <time>2011-01-02T10:11:16Z</time>
      </trkpt>
      <trkpt lat="30.80465697683394" lon="-4.765659039840102">
        <ele>670.37</ele>
        <time>2011-01-02T10:11:23Z</time>
      </trkpt>
      <trkpt lat="30.805993974208832" lon="-4.766333028674126">
        <ele>672.56899999999996</ele>
        <time>2011-01-02T10:11:30Z</time>
      </trkpt>
      <trkpt lat="30.808689007535577" lon="-4.767942018806934">
        <ele>678.11900000000003</ele>
        <time>2011-01-02T10:11:44Z</time>
      </trkpt>
      <trkpt lat="30.810172017663717" lon="-4.769067959859967">
        <ele>680.61400000000003</ele>
        <time>2011-01-02T10:11:52Z</time>
      </trkpt>
      <trkpt lat="30.811414970085025" lon="-4.770460026338697">
        <ele>682.27800000000002</ele>
        <time>2011-01-02T10:12:00Z</time>
      </trkpt>
      <trkpt lat="30.813271980732679" lon="-4.772707968950272">
        <ele>684.78899999999999</ele>
        <time>2011-01-02T10:12:13Z</time>
      </trkpt>
      <trkpt lat="30.814580982550979" lon="-4.774011019617319">
        <ele>685.84900000000005</ele>
        <time>2011-01-02T10:12:22Z</time>
      </trkpt>
      <trkpt lat="30.815770039334893" lon="-4.774608984589577">
        <ele>685.85699999999997</ele>
        <time>2011-01-02T10:12:29Z</time>
      </trkpt>
      <trkpt lat="30.817062025889754" lon="-4.775000000372529">
        <ele>684.04999999999995</ele>
        <time>2011-01-02T10:12:36Z</time>
      </trkpt>
      <trkpt lat="30.818876959383488" lon="-4.775605006143451">
        <ele>688.92499999999995</ele>
        <time>2011-01-02T10:12:46Z</time>
      </trkpt>
      <trkpt lat="30.819892007857561" lon="-4.77629098109901">
        <ele>690.47400000000005</ele>
        <time>2011-01-02T10:12:53Z</time>
      </trkpt>
      <trkpt lat="30.820787027478218" lon="-4.777349028736353">
        <ele>689.649</ele>
        <time>2011-01-02T10:13:00Z</time>
      </trkpt>
      <trkpt lat="30.821575010195374" lon="-4.778561973944306">
        <ele>689.35799999999995</ele>
        <time>2011-01-02T10:13:07Z</time>
      </trkpt>
      <trkpt lat="30.822927011176944" lon="-4.780564997345209">
        <ele>689.32000000000005</ele>
        <time>2011-01-02T10:13:17Z</time>
      </trkpt>
      <trkpt lat="30.824407003819942" lon="-4.782719984650612">
        <ele>690.505</ele>
        <time>2011-01-02T10:13:28Z</time>
      </trkpt>
      <trkpt lat="30.825580973178148" lon="-4.783944999799132">
        <ele>691.17399999999998</ele>
        <time>2011-01-02T10:13:36Z</time>
      </trkpt>
      <trkpt lat="30.827071024104953" lon="-4.784976979717612">
        <ele>691.63499999999999</ele>
        <time>2011-01-02T10:13:44Z</time>
      </trkpt>
      <trkpt lat="30.829411000013351" lon="-4.786371979862452">
        <ele>689.54300000000001</ele>
        <time>2011-01-02T10:13:56Z</time>
      </trkpt>
      <trkpt lat="30.831891959533095" lon="-4.78789396584034">
        <ele>687.26199999999994</ele>
        <time>2011-01-02T10:14:09Z</time>
      </trkpt>
      <trkpt lat="30.832784967496991" lon="-4.788716984912753">
        <ele>688.94000000000005</ele>
        <time>2011-01-02T10:14:15Z</time>
      </trkpt>
      <trkpt lat="30.833594994619489" lon="-4.789773020893335">
        <ele>689.38800000000003</ele>
        <time>2011-01-02T10:14:22Z</time>
      </trkpt>
      <trkpt lat="30.834739040583372" lon="-4.791220994666219">
        <ele>690.05200000000002</ele>
        <time>2011-01-02T10:14:31Z</time>
      </trkpt>
      <trkpt lat="30.835845032706857" lon="-4.79208298958838">
        <ele>689.94000000000005</ele>
        <time>2011-01-02T10:14:38Z</time>
      </trkpt>
      <trkpt lat="30.837545972317457" lon="-4.792882036417723">
        <ele>689.34699999999998</ele>
        <time>2011-01-02T10:14:47Z</time>
      </trkpt>
      <trkpt lat="30.839855019003153" lon="-4.793875962495804">
        <ele>686.995</ele>
        <time>2011-01-02T10:14:59Z</time>
      </trkpt>
      <trkpt lat="30.841941023245454" lon="-4.794784979894757">
        <ele>683.85299999999995</ele>
        <time>2011-01-02T10:15:11Z</time>
      </trkpt>
      <trkpt lat="30.844414019957185" lon="-4.795855013653636">
        <ele>681.92499999999995</ele>
        <time>2011-01-02T10:15:24Z</time>
      </trkpt>
      <trkpt lat="30.847264034673572" lon="-4.797081034630537">
        <ele>680.43799999999999</ele>
        <time>2011-01-02T10:15:38Z</time>
      </trkpt>
      <trkpt lat="30.849131019786" lon="-4.797890977934003">
        <ele>678.74199999999996</ele>
        <time>2011-01-02T10:15:48Z</time>
      </trkpt>
      <trkpt lat="30.852028978988528" lon="-4.79919696226716">
        <ele>675.44500000000005</ele>
        <time>2011-01-02T10:16:03Z</time>
      </trkpt>
      <trkpt lat="30.853611985221505" lon="-4.800208993256092">
        <ele>676.72400000000005</ele>
        <time>2011-01-02T10:16:11Z</time>
      </trkpt>
      <trkpt lat="30.855734031647444" lon="-4.801960978657007">
        <ele>685.601</ele>
        <time>2011-01-02T10:16:22Z</time>
      </trkpt>
      <trkpt lat="30.858251033350825" lon="-4.804162988439202">
        <ele>690.70799999999997</ele>
        <time>2011-01-02T10:16:36Z</time>
      </trkpt>
      <trkpt lat="30.860097985714674" lon="-4.805755969136953">
        <ele>690.99699999999996</ele>
        <time>2011-01-02T10:16:46Z</time>
      </trkpt>
      <trkpt lat="30.862265964969993" lon="-4.807757986709476">
        <ele>691.11300000000006</ele>
        <time>2011-01-02T10:16:58Z</time>
      </trkpt>
      <trkpt lat="30.863344967365265" lon="-4.809193974360824">
        <ele>693.01800000000003</ele>
        <time>2011-01-02T10:17:05Z</time>
      </trkpt>
      <trkpt lat="30.865057976916432" lon="-4.811821030452848">
        <ele>694.779</ele>
        <time>2011-01-02T10:17:17Z</time>
      </trkpt>
      <trkpt lat="30.8666190225631" lon="-4.814356975257397">
        <ele>695.28800000000001</ele>
        <time>2011-01-02T10:17:29Z</time>
      </trkpt>
      <trkpt lat="30.866988999769092" lon="-4.815627001225948">
        <ele>695.62</ele>
        <time>2011-01-02T10:17:34Z</time>
      </trkpt>
      <trkpt lat="30.867076003924012" lon="-4.816875988617539">
        <ele>695.13900000000001</ele>
        <time>2011-01-02T10:17:39Z</time>
      </trkpt>
      <trkpt lat="30.867251018062234" lon="-4.81840300373733">
        <ele>695.10799999999995</ele>
        <time>2011-01-02T10:17:46Z</time>
      </trkpt>
      <trkpt lat="30.86752301082015" lon="-4.819225016981363">
        <ele>695.54999999999995</ele>
        <time>2011-01-02T10:17:50Z</time>
      </trkpt>
      <trkpt lat="30.867945961654186" lon="-4.819829016923904">
        <ele>695.83299999999997</ele>
        <time>2011-01-02T10:17:54Z</time>
      </trkpt>
      <trkpt lat="30.869427965953946" lon="-4.821190992370248">
        <ele>696.39400000000001</ele>
        <time>2011-01-02T10:18:04Z</time>
      </trkpt>
      <trkpt lat="30.871643973514438" lon="-4.823048003017902">
        <ele>698.78700000000003</ele>
        <time>2011-01-02T10:18:18Z</time>
      </trkpt>
      <trkpt lat="30.872989017516375" lon="-4.824305037036538">
        <ele>700.07100000000003</ele>
        <time>2011-01-02T10:18:27Z</time>
      </trkpt>
      <trkpt lat="30.87403298355639" lon="-4.825661983340979">
        <ele>699.92100000000005</ele>
        <time>2011-01-02T10:18:35Z</time>
      </trkpt>
      <trkpt lat="30.874862959608436" lon="-4.826337983831763">
        <ele>700.34500000000003</ele>
        <time>2011-01-02T10:18:40Z</time>
      </trkpt>
      <trkpt lat="30.87648100219667" lon="-4.82721003703773">
        <ele>700.375</ele>
        <time>2011-01-02T10:18:48Z</time>
      </trkpt>
      <trkpt lat="30.879195984452963" lon="-4.828563965857029">
        <ele>697.28300000000002</ele>
        <time>2011-01-02T10:19:01Z</time>
      </trkpt>
      <trkpt lat="30.88054496794939" lon="-4.82903502881527">
        <ele>693.62900000000002</ele>
        <time>2011-01-02T10:19:08Z</time>
      </trkpt>
      <trkpt lat="30.882048010826111" lon="-4.829182969406247">
        <ele>692.72900000000004</ele>
        <time>2011-01-02T10:19:15Z</time>
      </trkpt>
      <trkpt lat="30.883027017116547" lon="-4.829471977427602">
        <ele>692.745</ele>
        <time>2011-01-02T10:19:20Z</time>
      </trkpt>
      <trkpt lat="30.883638979867101" lon="-4.829882020130754">
        <ele>691.70000000000005</ele>
        <time>2011-01-02T10:19:25Z</time>
      </trkpt>
      <trkpt lat="30.884602982550859" lon="-4.830909976735711">
        <ele>688.74199999999996</ele>
        <time>2011-01-02T10:19:33Z</time>
      </trkpt>
      <trkpt lat="30.885489033535123" lon="-4.832168016582727">
        <ele>689.31299999999999</ele>
        <time>2011-01-02T10:19:40Z</time>
      </trkpt>
      <trkpt lat="30.886448007076979" lon="-4.833863005042076">
        <ele>684.43100000000004</ele>
        <time>2011-01-02T10:19:48Z</time>
      </trkpt>
      <trkpt lat="30.887968987226486" lon="-4.83617096208036">
        <ele>684.50599999999997</ele>
        <time>2011-01-02T10:19:59Z</time>
      </trkpt>
      <trkpt lat="30.889876959845424" lon="-4.83892098069191">
        <ele>684.80700000000002</ele>
        <time>2011-01-02T10:20:13Z</time>
      </trkpt>
      <trkpt lat="30.890960991382599" lon="-4.840135015547276">
        <ele>685.51800000000003</ele>
        <time>2011-01-02T10:20:20Z</time>
      </trkpt>
      <trkpt lat="30.892541985958815" lon="-4.841406969353557">
        <ele>686.61699999999996</ele>
        <time>2011-01-02T10:20:29Z</time>
      </trkpt>
      <trkpt lat="30.89502302929759" lon="-4.843360036611557">
        <ele>689.50800000000004</ele>
        <time>2011-01-02T10:20:43Z</time>
      </trkpt>
      <trkpt lat="30.897080032154918" lon="-4.845013031736016">
        <ele>690.94799999999998</ele>
        <time>2011-01-02T10:20:56Z</time>
      </trkpt>
      <trkpt lat="30.898949028924108" lon="-4.846509033814073">
        <ele>692.55999999999995</ele>
        <time>2011-01-02T10:21:07Z</time>
      </trkpt>
      <trkpt lat="30.900231963023543" lon="-4.847807977348566">
        <ele>694.02999999999997</ele>
        <time>2011-01-02T10:21:15Z</time>
      </trkpt>
      <trkpt lat="30.901249023154378" lon="-4.849484022706747">
        <ele>693.76900000000001</ele>
        <time>2011-01-02T10:21:23Z</time>
      </trkpt>
      <trkpt lat="30.902954991906881" lon="-4.852663027122617">
        <ele>693.75800000000004</ele>
        <time>2011-01-02T10:21:37Z</time>
      </trkpt>
      <trkpt lat="30.903849005699158" lon="-4.853761978447437">
        <ele>693.76900000000001</ele>
        <time>2011-01-02T10:21:43Z</time>
      </trkpt>
      <trkpt lat="30.905435029417276" lon="-4.85522503964603">
        <ele>695.79999999999995</ele>
        <time>2011-01-02T10:21:52Z</time>
      </trkpt>
      <trkpt lat="30.907623963430524" lon="-4.857283970341086">
        <ele>699.98699999999997</ele>
        <time>2011-01-02T10:22:04Z</time>
      </trkpt>
      <trkpt lat="30.90903103351593" lon="-4.858761029317975">
        <ele>702.07000000000005</ele>
        <time>2011-01-02T10:22:13Z</time>
      </trkpt>
      <trkpt lat="30.910795005038381" lon="-4.860614016652107">
        <ele>703.63099999999997</ele>
        <time>2011-01-02T10:22:24Z</time>
      </trkpt>
      <trkpt lat="30.91253500431776" lon="-4.862177995964885">
        <ele>705.35199999999998</ele>
        <time>2011-01-02T10:22:34Z</time>
      </trkpt>
      <trkpt lat="30.913924975320697" lon="-4.863400999456644">
        <ele>708.88300000000004</ele>
        <time>2011-01-02T10:22:42Z</time>
      </trkpt>
      <trkpt lat="30.915484009310603" lon="-4.865050977095962">
        <ele>710.40999999999997</ele>
        <time>2011-01-02T10:22:51Z</time>
      </trkpt>
      <trkpt lat="30.916473995894194" lon="-4.866423010826111">
        <ele>708.92899999999997</ele>
        <time>2011-01-02T10:22:58Z</time>
      </trkpt>
      <trkpt lat="30.917556015774608" lon="-4.867558004334569">
        <ele>707.69000000000005</ele>
        <time>2011-01-02T10:23:05Z</time>
      </trkpt>
      <trkpt lat="30.919039025902748" lon="-4.868614040315151">
        <ele>707.57100000000003</ele>
        <time>2011-01-02T10:23:13Z</time>
      </trkpt>
      <trkpt lat="30.921754008159041" lon="-4.870445989072323">
        <ele>708.75099999999998</ele>
        <time>2011-01-02T10:23:27Z</time>
      </trkpt>
      <trkpt lat="30.922640981152654" lon="-4.871252998709679">
        <ele>708.08500000000004</ele>
        <time>2011-01-02T10:23:33Z</time>
      </trkpt>
      <trkpt lat="30.923203993588686" lon="-4.87237298861146">
        <ele>706.89999999999998</ele>
        <time>2011-01-02T10:23:39Z</time>
      </trkpt>
      <trkpt lat="30.923725012689829" lon="-4.874264029785991">
        <ele>707.48099999999999</ele>
        <time>2011-01-02T10:23:47Z</time>
      </trkpt>
      <trkpt lat="30.924557000398636" lon="-4.877598015591502">
        <ele>707.96100000000001</ele>
        <time>2011-01-02T10:24:01Z</time>
      </trkpt>
      <trkpt lat="30.925327967852354" lon="-4.881383031606674">
        <ele>709.08500000000004</ele>
        <time>2011-01-02T10:24:17Z</time>
      </trkpt>
      <trkpt lat="30.926014026626945" lon="-4.884710982441902">
        <ele>709.22500000000002</ele>
        <time>2011-01-02T10:24:30Z</time>
      </trkpt>
      <trkpt lat="30.9268659632653" lon="-4.888822976499796">
        <ele>708.95399999999995</ele>
        <time>2011-01-02T10:24:46Z</time>
      </trkpt>
      <trkpt lat="30.927661992609501" lon="-4.892645040526986">
        <ele>707.822</ele>
        <time>2011-01-02T10:25:01Z</time>
      </trkpt>
      <trkpt lat="30.928277978673577" lon="-4.895676020532847">
        <ele>706.70000000000005</ele>
        <time>2011-01-02T10:25:14Z</time>
      </trkpt>
      <trkpt lat="30.928385015577078" lon="-4.896856024861336">
        <ele>707.83299999999997</ele>
        <time>2011-01-02T10:25:20Z</time>
      </trkpt>
      <trkpt lat="30.928423991426826" lon="-4.897206975147128">
        <ele>708.01199999999994</ele>
        <time>2011-01-02T10:25:22Z</time>
      </trkpt>
      <trkpt lat="30.928720962256193" lon="-4.898008033633232">
        <ele>707.75</ele>
        <time>2011-01-02T10:25:27Z</time>
      </trkpt>
      <trkpt lat="30.929232006892562" lon="-4.898065030574799">
        <ele>708.25099999999998</ele>
        <time>2011-01-02T10:25:31Z</time>
      </trkpt>
      <trkpt lat="30.929384976625443" lon="-4.898082967847586">
        <ele>708.322</ele>
        <time>2011-01-02T10:25:32Z</time>
      </trkpt>
      <trkpt lat="30.930859018117189" lon="-4.898194028064609">
        <ele>706.48900000000003</ele>
        <time>2011-01-02T10:25:40Z</time>
      </trkpt>
      <trkpt lat="30.933582969009876" lon="-4.898446993902326">
        <ele>700.45899999999995</ele>
        <time>2011-01-02T10:25:53Z</time>
      </trkpt>
      <trkpt lat="30.935913976281881" lon="-4.899050993844867">
        <ele>699.43899999999996</ele>
        <time>2011-01-02T10:26:04Z</time>
      </trkpt>
      <trkpt lat="30.938029987737536" lon="-4.899737974628806">
        <ele>700.06700000000001</ele>
        <time>2011-01-02T10:26:14Z</time>
      </trkpt>
      <trkpt lat="30.939423982053995" lon="-4.900319008156657">
        <ele>700.58299999999997</ele>
        <time>2011-01-02T10:26:22Z</time>
      </trkpt>
      <trkpt lat="30.940107023343444" lon="-4.900683034211397">
        <ele>699.85299999999995</ele>
        <time>2011-01-02T10:26:28Z</time>
      </trkpt>
      <trkpt lat="30.940990978851914" lon="-4.901510998606682">
        <ele>700.70799999999997</ele>
        <time>2011-01-02T10:26:37Z</time>
      </trkpt>
      <trkpt lat="30.941751971840858" lon="-4.902401994913817">
        <ele>700.94399999999996</ele>
        <time>2011-01-02T10:26:46Z</time>
      </trkpt>
      <trkpt lat="30.94192698597908" lon="-4.902540966868401">
        <ele>701.04600000000005</ele>
        <time>2011-01-02T10:26:49Z</time>
      </trkpt>
      <trkpt lat="30.942304003983736" lon="-4.902828969061375">
        <ele>701.33799999999997</ele>
        <time>2011-01-02T10:26:56Z</time>
      </trkpt>
      <trkpt lat="30.942701976746321" lon="-4.903102973476052">
        <ele>703.08000000000004</ele>
        <time>2011-01-02T10:27:04Z</time>
      </trkpt>
      <trkpt lat="30.943405972793698" lon="-4.903474962338805">
        <ele>702.69500000000005</ele>
        <time>2011-01-02T10:27:13Z</time>
      </trkpt>
      <trkpt lat="30.944030005484819" lon="-4.903606977313757">
        <ele>702.17200000000003</ele>
        <time>2011-01-02T10:27:21Z</time>
      </trkpt>
      <trkpt lat="30.944948997348547" lon="-4.903706973418593">
        <ele>702.56500000000005</ele>
        <time>2011-01-02T10:27:29Z</time>
      </trkpt>
      <trkpt lat="30.946248024702072" lon="-4.904046021401882">
        <ele>703.48500000000001</ele>
        <time>2011-01-02T10:27:41Z</time>
      </trkpt>
      <trkpt lat="30.946557987481356" lon="-4.904155991971493">
        <ele>703.67499999999995</ele>
        <time>2011-01-02T10:27:47Z</time>
      </trkpt>
      <trkpt lat="30.946715986356139" lon="-4.904210977256298">
        <ele>704.71100000000001</ele>
        <time>2011-01-02T10:30:50Z</time>
      </trkpt>
      <trkpt lat="30.947108007967472" lon="-4.904331006109715">
        <ele>705.471</ele>
        <time>2011-01-02T10:30:59Z</time>
      </trkpt>
      <trkpt lat="30.947815021499991" lon="-4.904547007754445">
        <ele>706.09900000000005</ele>
        <time>2011-01-02T10:31:10Z</time>
      </trkpt>
      <trkpt lat="30.948839038610458" lon="-4.904912039637566">
        <ele>706.82899999999995</ele>
        <time>2011-01-02T10:31:25Z</time>
      </trkpt>
      <trkpt lat="30.949713019654155" lon="-4.905256032943726">
        <ele>707.59100000000001</ele>
        <time>2011-01-02T10:31:38Z</time>
      </trkpt>
      <trkpt lat="30.950552970170975" lon="-4.90558804012835">
        <ele>708.05899999999997</ele>
        <time>2011-01-02T10:31:48Z</time>
      </trkpt>
      <trkpt lat="30.951517978683114" lon="-4.906000010669231">
        <ele>708.07899999999995</ele>
        <time>2011-01-02T10:31:59Z</time>
      </trkpt>
      <trkpt lat="30.952597986906767" lon="-4.906401000916958">
        <ele>708.17200000000003</ele>
        <time>2011-01-02T10:32:12Z</time>
      </trkpt>
      <trkpt lat="30.953803975135088" lon="-4.906853958964348">
        <ele>709.35199999999998</ele>
        <time>2011-01-02T10:32:26Z</time>
      </trkpt>
      <trkpt lat="30.954982973635197" lon="-4.907251009717584">
        <ele>709.70100000000002</ele>
        <time>2011-01-02T10:32:38Z</time>
      </trkpt>
      <trkpt lat="30.955138960853219" lon="-4.907293003052473">
        <ele>709.70100000000002</ele>
        <time>2011-01-02T10:32:40Z</time>
      </trkpt>
      <trkpt lat="30.955962985754013" lon="-4.907497018575668">
        <ele>708.65099999999995</ele>
        <time>2011-01-02T10:32:51Z</time>
      </trkpt>
      <trkpt lat="30.956691037863493" lon="-4.906408041715622">
        <ele>706.68799999999999</ele>
        <time>2011-01-02T10:33:01Z</time>
      </trkpt>
      <trkpt lat="30.957999033853412" lon="-4.905600026249886">
        <ele>705.92600000000004</ele>
        <time>2011-01-02T10:33:11Z</time>
      </trkpt>
      <trkpt lat="30.958834961056709" lon="-4.905299032106996">
        <ele>706.45600000000002</ele>
        <time>2011-01-02T10:33:19Z</time>
      </trkpt>
      <trkpt lat="30.960099035874009" lon="-4.904752029106021">
        <ele>705.56399999999996</ele>
        <time>2011-01-02T10:33:31Z</time>
      </trkpt>
      <trkpt lat="30.961019033566117" lon="-4.90423402749002">
        <ele>705.01499999999999</ele>
        <time>2011-01-02T10:33:40Z</time>
      </trkpt>
      <trkpt lat="30.96130502410233" lon="-4.904201002791524">
        <ele>705.66600000000005</ele>
        <time>2011-01-02T10:33:44Z</time>
      </trkpt>
      <trkpt lat="30.961845992133021" lon="-4.904059013351798">
        <ele>705.99599999999998</ele>
        <time>2011-01-02T10:33:53Z</time>
      </trkpt>
      <trkpt lat="30.961945988237858" lon="-4.904023976996541">
        <ele>706.02599999999995</ele>
        <time>2011-01-02T10:33:55Z</time>
      </trkpt>
      <trkpt lat="30.962172970175743" lon="-4.903873018920422">
        <ele>705.95500000000004</ele>
        <time>2011-01-02T10:34:04Z</time>
      </trkpt>
      <trkpt lat="30.962326023727655" lon="-4.903749972581863">
        <ele>705.54499999999996</ele>
        <time>2011-01-02T10:34:08Z</time>
      </trkpt>
      <trkpt lat="30.962635986506939" lon="-4.903394998982549">
        <ele>703.89300000000003</ele>
        <time>2011-01-02T10:34:16Z</time>
      </trkpt>
      <trkpt lat="30.963105037808418" lon="-4.902865011245012">
        <ele>702.98099999999999</ele>
        <time>2011-01-02T10:34:23Z</time>
      </trkpt>
      <trkpt lat="30.964028974995017" lon="-4.902088008821011">
        <ele>701.18600000000004</ele>
        <time>2011-01-02T10:34:31Z</time>
      </trkpt>
      <trkpt lat="30.965197999030352" lon="-4.901131968945265">
        <ele>700.26099999999997</ele>
        <time>2011-01-02T10:34:41Z</time>
      </trkpt>
      <trkpt lat="30.966542037203908" lon="-4.90000301040709">
        <ele>700.85199999999998</ele>
        <time>2011-01-02T10:34:54Z</time>
      </trkpt>
      <trkpt lat="30.967710977420211" lon="-4.899046970531344">
        <ele>701.072</ele>
        <time>2011-01-02T10:35:03Z</time>
      </trkpt>
      <trkpt lat="30.968770030885935" lon="-4.898151028901339">
        <ele>701.74300000000005</ele>
        <time>2011-01-02T10:35:12Z</time>
      </trkpt>
      <trkpt lat="30.969795975834131" lon="-4.896833980455995">
        <ele>703.01999999999998</ele>
        <time>2011-01-02T10:35:22Z</time>
      </trkpt>
      <trkpt lat="30.971179995685816" lon="-4.896395020186901">
        <ele>703.82899999999995</ele>
        <time>2011-01-02T10:35:33Z</time>
      </trkpt>
      <trkpt lat="30.972281964495778" lon="-4.896151022985578">
        <ele>703.928</ele>
        <time>2011-01-02T10:35:41Z</time>
      </trkpt>
      <trkpt lat="30.974063035100698" lon="-4.895847011357546">
        <ele>705.15800000000002</ele>
        <time>2011-01-02T10:35:53Z</time>
      </trkpt>
      <trkpt lat="30.975628020241857" lon="-4.895489020273089">
        <ele>706.798</ele>
        <time>2011-01-02T10:36:04Z</time>
      </trkpt>
      <trkpt lat="30.977147994562984" lon="-4.89506003446877">
        <ele>708.14200000000005</ele>
        <time>2011-01-02T10:36:14Z</time>
      </trkpt>
      <trkpt lat="30.978657994419336" lon="-4.89462903700769">
        <ele>709.05100000000004</ele>
        <time>2011-01-02T10:36:25Z</time>
      </trkpt>
      <trkpt lat="30.979965990409255" lon="-4.894229974597693">
        <ele>709.59100000000001</ele>
        <time>2011-01-02T10:36:35Z</time>
      </trkpt>
      <trkpt lat="30.981869017705321" lon="-4.89407398737967">
        <ele>710.73199999999997</ele>
        <time>2011-01-02T10:36:49Z</time>
      </trkpt>
      <trkpt lat="30.983657967299223" lon="-4.894041968509555">
        <ele>710.80100000000004</ele>
        <time>2011-01-02T10:37:00Z</time>
      </trkpt>
      <trkpt lat="30.985967013984919" lon="-4.894025959074497">
        <ele>710.52099999999996</ele>
        <time>2011-01-02T10:37:14Z</time>
      </trkpt>
      <trkpt lat="30.988176986575127" lon="-4.894023025408387">
        <ele>710.221</ele>
        <time>2011-01-02T10:37:27Z</time>
      </trkpt>
      <trkpt lat="30.990705974400043" lon="-4.893920011818409">
        <ele>709.76099999999997</ele>
        <time>2011-01-02T10:37:41Z</time>
      </trkpt>
      <trkpt lat="30.992859033867717" lon="-4.893915988504887">
        <ele>709.74099999999999</ele>
        <time>2011-01-02T10:37:53Z</time>
      </trkpt>
      <trkpt lat="30.995353991165757" lon="-4.893278041854501">
        <ele>709.88199999999995</ele>
        <time>2011-01-02T10:38:06Z</time>
      </trkpt>
      <trkpt lat="30.99836896173656" lon="-4.893079977482557">
        <ele>710.75900000000001</ele>
        <time>2011-01-02T10:38:21Z</time>
      </trkpt>
      <trkpt lat="31.000539036467671" lon="-4.892661971971393">
        <ele>711.08900000000006</ele>
        <time>2011-01-02T10:38:32Z</time>
      </trkpt>
      <trkpt lat="31.004313994199038" lon="-4.891852028667927">
        <ele>712.26999999999998</ele>
        <time>2011-01-02T10:38:51Z</time>
      </trkpt>
      <trkpt lat="31.006991006433964" lon="-4.891288010403514">
        <ele>713.65099999999995</ele>
        <time>2011-01-02T10:39:04Z</time>
      </trkpt>
      <trkpt lat="31.008890010416508" lon="-4.890916021540761">
        <ele>713.90800000000002</ele>
        <time>2011-01-02T10:39:14Z</time>
      </trkpt>
      <trkpt lat="31.010276963934302" lon="-4.891040995717049">
        <ele>714.52499999999998</ele>
        <time>2011-01-02T10:39:22Z</time>
      </trkpt>
      <trkpt lat="31.011883020401001" lon="-4.890419980511069">
        <ele>715.77800000000002</ele>
        <time>2011-01-02T10:39:31Z</time>
      </trkpt>
      <trkpt lat="31.013752017170191" lon="-4.890314033254981">
        <ele>716.779</ele>
        <time>2011-01-02T10:39:40Z</time>
      </trkpt>
      <trkpt lat="31.01619902998209" lon="-4.890440013259649">
        <ele>717.26700000000005</ele>
        <time>2011-01-02T10:39:52Z</time>
      </trkpt>
      <trkpt lat="31.018423000350595" lon="-4.890631958842278">
        <ele>717.27599999999995</ele>
        <time>2011-01-02T10:40:04Z</time>
      </trkpt>
      <trkpt lat="31.020073983818293" lon="-4.891093969345093">
        <ele>717.43600000000004</ele>
        <time>2011-01-02T10:40:13Z</time>
      </trkpt>
      <trkpt lat="31.020791977643967" lon="-4.891052981838584">
        <ele>717.28300000000002</ele>
        <time>2011-01-02T10:40:17Z</time>
      </trkpt>
      <trkpt lat="31.022625016048551" lon="-4.890608992427588">
        <ele>717.87300000000005</ele>
        <time>2011-01-02T10:40:27Z</time>
      </trkpt>
      <trkpt lat="31.023860005661845" lon="-4.890309004113078">
        <ele>718.69500000000005</ele>
        <time>2011-01-02T10:40:34Z</time>
      </trkpt>
      <trkpt lat="31.026007030159235" lon="-4.888567999005318">
        <ele>719.64499999999998</ele>
        <time>2011-01-02T10:40:46Z</time>
      </trkpt>
      <trkpt lat="31.028472986072302" lon="-4.887217003852129">
        <ele>719.60299999999995</ele>
        <time>2011-01-02T10:40:59Z</time>
      </trkpt>
      <trkpt lat="31.03091798722744" lon="-4.885876988992095">
        <ele>718.39099999999996</ele>
        <time>2011-01-02T10:41:12Z</time>
      </trkpt>
      <trkpt lat="31.032728981226683" lon="-4.885031003504992">
        <ele>718.97500000000002</ele>
        <time>2011-01-02T10:41:22Z</time>
      </trkpt>
      <trkpt lat="31.034132027998567" lon="-4.884758004918695">
        <ele>720.125</ele>
        <time>2011-01-02T10:41:29Z</time>
      </trkpt>
      <trkpt lat="31.036722036078572" lon="-4.884585002437234">
        <ele>722.43499999999995</ele>
        <time>2011-01-02T10:41:41Z</time>
      </trkpt>
      <trkpt lat="31.040428010746837" lon="-4.884333964437246">
        <ele>724.53499999999997</ele>
        <time>2011-01-02T10:41:58Z</time>
      </trkpt>
      <trkpt lat="31.04486002586782" lon="-4.884010003879666">
        <ele>726.09100000000001</ele>
        <time>2011-01-02T10:42:18Z</time>
      </trkpt>
      <trkpt lat="31.048168027773499" lon="-4.883765000849962">
        <ele>727.851</ele>
        <time>2011-01-02T10:42:33Z</time>
      </trkpt>
      <trkpt lat="31.049927975982428" lon="-4.884084016084671">
        <ele>729.26300000000003</ele>
        <time>2011-01-02T10:42:41Z</time>
      </trkpt>
      <trkpt lat="31.051745004951954" lon="-4.883492002263665">
        <ele>728.899</ele>
        <time>2011-01-02T10:42:51Z</time>
      </trkpt>
      <trkpt lat="31.053716009482741" lon="-4.882864030078054">
        <ele>728.53200000000004</ele>
        <time>2011-01-02T10:43:02Z</time>
      </trkpt>
      <trkpt lat="31.055159959942102" lon="-4.882394978776574">
        <ele>729.46299999999997</ele>
        <time>2011-01-02T10:43:10Z</time>
      </trkpt>
      <trkpt lat="31.057723984122276" lon="-4.881552010774612">
        <ele>729.98800000000006</ele>
        <time>2011-01-02T10:43:24Z</time>
      </trkpt>
      <trkpt lat="31.060777008533478" lon="-4.88057903945446">
        <ele>731.399</ele>
        <time>2011-01-02T10:43:40Z</time>
      </trkpt>
      <trkpt lat="31.063079014420509" lon="-4.879778986796737">
        <ele>732.46000000000004</ele>
        <time>2011-01-02T10:43:52Z</time>
      </trkpt>
      <trkpt lat="31.06400303542614" lon="-4.879474975168705">
        <ele>732.92899999999997</ele>
        <time>2011-01-02T10:43:58Z</time>
      </trkpt>
      <trkpt lat="31.064472002908587" lon="-4.879342038184404">
        <ele>733.03800000000001</ele>
        <time>2011-01-02T10:44:03Z</time>
      </trkpt>
      <trkpt lat="31.065138028934598" lon="-4.879153026267886">
        <ele>732.65800000000002</ele>
        <time>2011-01-02T10:44:13Z</time>
      </trkpt>
      <trkpt lat="31.065839007496834" lon="-4.878960996866226">
        <ele>733.17100000000005</ele>
        <time>2011-01-02T10:44:23Z</time>
      </trkpt>
      <trkpt lat="31.066636964678764" lon="-4.87877600826323">
        <ele>734.55200000000002</ele>
        <time>2011-01-02T10:44:32Z</time>
      </trkpt>
      <trkpt lat="31.067354958504438" lon="-4.878628989681602">
        <ele>734.98000000000002</ele>
        <time>2011-01-02T10:44:41Z</time>
      </trkpt>
      <trkpt lat="31.068758005276322" lon="-4.878329001367092">
        <ele>735.35900000000004</ele>
        <time>2011-01-02T10:44:55Z</time>
      </trkpt>
      <trkpt lat="31.069649001583457" lon="-4.878135966137052">
        <ele>735.60900000000004</ele>
        <time>2011-01-02T10:45:05Z</time>
      </trkpt>
      <trkpt lat="31.070473026484251" lon="-4.877966986969113">
        <ele>735.66899999999998</ele>
        <time>2011-01-02T10:45:11Z</time>
      </trkpt>
      <trkpt lat="31.072014961391687" lon="-4.877648977562785">
        <ele>736.01999999999998</ele>
        <time>2011-01-02T10:45:20Z</time>
      </trkpt>
      <trkpt lat="31.074593989178538" lon="-4.877083031460643">
        <ele>737.36400000000003</ele>
        <time>2011-01-02T10:45:34Z</time>
      </trkpt>
      <trkpt lat="31.076926002278924" lon="-4.876525970175862">
        <ele>738.28399999999999</ele>
        <time>2011-01-02T10:45:47Z</time>
      </trkpt>
      <trkpt lat="31.079677026718855" lon="-4.875850975513458">
        <ele>739.24400000000003</ele>
        <time>2011-01-02T10:46:02Z</time>
      </trkpt>
      <trkpt lat="31.081244023516774" lon="-4.875484015792608">
        <ele>739.47299999999996</ele>
        <time>2011-01-02T10:46:11Z</time>
      </trkpt>
      <trkpt lat="31.083205975592136" lon="-4.874902982264757">
        <ele>741.49599999999998</ele>
        <time>2011-01-02T10:46:22Z</time>
      </trkpt>
      <trkpt lat="31.085513010621071" lon="-4.874553959816694">
        <ele>744.62800000000004</ele>
        <time>2011-01-02T10:46:36Z</time>
      </trkpt>
      <trkpt lat="31.086541973054409" lon="-4.874427979812026">
        <ele>747.25300000000004</ele>
        <time>2011-01-02T10:46:42Z</time>
      </trkpt>
      <trkpt lat="31.087484015151858" lon="-4.874332007020712">
        <ele>749.83299999999997</ele>
        <time>2011-01-02T10:46:48Z</time>
      </trkpt>
      <trkpt lat="31.08890600502491" lon="-4.875177992507815">
        <ele>755.28599999999994</ele>
        <time>2011-01-02T10:46:56Z</time>
      </trkpt>
      <trkpt lat="31.090171001851559" lon="-4.875375973060727">
        <ele>760.86400000000003</ele>
        <time>2011-01-02T10:47:03Z</time>
      </trkpt>
      <trkpt lat="31.091080019250512" lon="-4.876020038500428">
        <ele>763.25</ele>
        <time>2011-01-02T10:47:10Z</time>
      </trkpt>
      <trkpt lat="31.091964980587363" lon="-4.876615991815925">
        <ele>759.29600000000005</ele>
        <time>2011-01-02T10:47:17Z</time>
      </trkpt>
      <trkpt lat="31.093462994322181" lon="-4.877325017005205">
        <ele>755.64599999999996</ele>
        <time>2011-01-02T10:47:25Z</time>
      </trkpt>
      <trkpt lat="31.096230028197169" lon="-4.878048961982131">
        <ele>751.53300000000002</ele>
        <time>2011-01-02T10:47:40Z</time>
      </trkpt>
      <trkpt lat="31.097140973433852" lon="-4.878338975831866">
        <ele>750.25599999999997</ele>
        <time>2011-01-02T10:47:46Z</time>
      </trkpt>
      <trkpt lat="31.098159039393067" lon="-4.878682969138026">
        <ele>751.01099999999997</ele>
        <time>2011-01-02T10:47:53Z</time>
      </trkpt>
      <trkpt lat="31.099896021187305" lon="-4.879308007657528">
        <ele>752.20000000000005</ele>
        <time>2011-01-02T10:48:03Z</time>
      </trkpt>
      <trkpt lat="31.101115001365542" lon="-4.879802959039807">
        <ele>752.63</ele>
        <time>2011-01-02T10:48:11Z</time>
      </trkpt>
      <trkpt lat="31.102186040952802" lon="-4.880254995077848">
        <ele>752.71900000000005</ele>
        <time>2011-01-02T10:48:20Z</time>
      </trkpt>
      <trkpt lat="31.10377399250865" lon="-4.880862012505531">
        <ele>753.10500000000002</ele>
        <time>2011-01-02T10:48:31Z</time>
      </trkpt>
      <trkpt lat="31.105195982381701" lon="-4.881456959992647">
        <ele>753.27499999999998</ele>
        <time>2011-01-02T10:48:42Z</time>
      </trkpt>
      <trkpt lat="31.106445975601673" lon="-4.882060037925839">
        <ele>753.125</ele>
        <time>2011-01-02T10:48:53Z</time>
      </trkpt>
      <trkpt lat="31.107006976380944" lon="-4.882834022864699">
        <ele>752.86500000000001</ele>
        <time>2011-01-02T10:49:00Z</time>
      </trkpt>
      <trkpt lat="31.10725399106741" lon="-4.883464006707072">
        <ele>753.10599999999999</ele>
        <time>2011-01-02T10:49:07Z</time>
      </trkpt>
      <trkpt lat="31.107393968850374" lon="-4.884028024971485">
        <ele>752.72500000000002</ele>
        <time>2011-01-02T10:49:15Z</time>
      </trkpt>
      <trkpt lat="31.107336971908808" lon="-4.88453596830368">
        <ele>751.52499999999998</ele>
        <time>2011-01-02T10:49:21Z</time>
      </trkpt>
      <trkpt lat="31.107410984113812" lon="-4.884928995743394">
        <ele>751.12800000000004</ele>
        <time>2011-01-02T10:49:26Z</time>
      </trkpt>
      <trkpt lat="31.107747014611959" lon="-4.885858967900276">
        <ele>751.56799999999998</ele>
        <time>2011-01-02T10:49:37Z</time>
      </trkpt>
      <trkpt lat="31.107839969918132" lon="-4.88614303059876">
        <ele>750.41700000000003</ele>
        <time>2011-01-02T10:49:44Z</time>
      </trkpt>
      <trkpt lat="31.108019007369876" lon="-4.886522982269526">
        <ele>750.077</ele>
        <time>2011-01-02T10:49:54Z</time>
      </trkpt>
      <trkpt lat="31.108345985412598" lon="-4.886677041649818">
        <ele>750.48699999999997</ele>
        <time>2011-01-02T10:50:06Z</time>
      </trkpt>
      <trkpt lat="31.108529968187213" lon="-4.887594021856785">
        <ele>751.649</ele>
        <time>2011-01-02T10:50:16Z</time>
      </trkpt>
      <trkpt lat="31.108870021998882" lon="-4.88775696605444">
        <ele>751.47699999999998</ele>
        <time>2011-01-02T10:50:20Z</time>
      </trkpt>
      <trkpt lat="31.110023958608508" lon="-4.887485979124904">
        <ele>751.553</ele>
        <time>2011-01-02T10:50:28Z</time>
      </trkpt>
      <trkpt lat="31.110926019027829" lon="-4.887675996869803">
        <ele>751.93200000000002</ele>
        <time>2011-01-02T10:50:35Z</time>
      </trkpt>
      <trkpt lat="31.111501017585397" lon="-4.887295961380005">
        <ele>751.38</ele>
        <time>2011-01-02T10:50:40Z</time>
      </trkpt>
      <trkpt lat="31.112587982788682" lon="-4.886504039168358">
        <ele>750.221</ele>
        <time>2011-01-02T10:50:49Z</time>
      </trkpt>
      <trkpt lat="31.113440003246069" lon="-4.886098019778729">
        <ele>748.72000000000003</ele>
        <time>2011-01-02T10:50:55Z</time>
      </trkpt>
      <trkpt lat="31.115393992513418" lon="-4.885370973497629">
        <ele>748.28200000000004</ele>
        <time>2011-01-02T10:51:07Z</time>
      </trkpt>
      <trkpt lat="31.116915978491306" lon="-4.884740989655256">
        <ele>747.76999999999998</ele>
        <time>2011-01-02T10:51:16Z</time>
      </trkpt>
      <trkpt lat="31.118476018309593" lon="-4.884090973064303">
        <ele>748.97400000000005</ele>
        <time>2011-01-02T10:51:26Z</time>
      </trkpt>
      <trkpt lat="31.119539011269808" lon="-4.883421007543802">
        <ele>750.88900000000001</ele>
        <time>2011-01-02T10:51:34Z</time>
      </trkpt>
      <trkpt lat="31.12029698677361" lon="-4.882903005927801">
        <ele>754.57100000000003</ele>
        <time>2011-01-02T10:51:42Z</time>
      </trkpt>
      <trkpt lat="31.121466010808945" lon="-4.883369961753488">
        <ele>756.63599999999997</ele>
        <time>2011-01-02T10:51:50Z</time>
      </trkpt>
      <trkpt lat="31.121652005240321" lon="-4.883332997560501">
        <ele>756.91499999999996</ele>
        <time>2011-01-02T10:51:54Z</time>
      </trkpt>
      <trkpt lat="31.121559971943498" lon="-4.883227972313762">
        <ele>745.67200000000003</ele>
        <time>2011-01-02T10:52:03Z</time>
      </trkpt>
      <trkpt lat="31.12175895832479" lon="-4.882840979844332">
        <ele>744.20299999999997</ele>
        <time>2011-01-02T10:52:09Z</time>
      </trkpt>
      <trkpt lat="31.121997004374862" lon="-4.882679041475058">
        <ele>745.03300000000002</ele>
        <time>2011-01-02T10:52:13Z</time>
      </trkpt>
      <trkpt lat="31.122389025986195" lon="-4.882320966571569">
        <ele>746.73400000000004</ele>
        <time>2011-01-02T10:52:19Z</time>
      </trkpt>
      <trkpt lat="31.123127974569798" lon="-4.881663993000984">
        <ele>749.14300000000003</ele>
        <time>2011-01-02T10:52:28Z</time>
      </trkpt>
      <trkpt lat="31.12338999286294" lon="-4.881280018016696">
        <ele>750.31200000000001</ele>
        <time>2011-01-02T10:52:32Z</time>
      </trkpt>
      <trkpt lat="31.123542040586472" lon="-4.880474014207721">
        <ele>750.94200000000001</ele>
        <time>2011-01-02T10:52:37Z</time>
      </trkpt>
      <trkpt lat="31.123702973127365" lon="-4.880355997011066">
        <ele>751.49300000000005</ele>
        <time>2011-01-02T10:52:39Z</time>
      </trkpt>
      <trkpt lat="31.124117039144039" lon="-4.880051985383034">
        <ele>753.20399999999995</ele>
        <time>2011-01-02T10:52:44Z</time>
      </trkpt>
      <trkpt lat="31.124707041308284" lon="-4.879617970436811">
        <ele>753.82000000000005</ele>
        <time>2011-01-02T10:52:51Z</time>
      </trkpt>
      <trkpt lat="31.125003006309271" lon="-4.8794009629637">
        <ele>754.42200000000003</ele>
        <time>2011-01-02T10:52:55Z</time>
      </trkpt>
      <trkpt lat="31.125377006828785" lon="-4.879126958549023">
        <ele>755.39300000000003</ele>
        <time>2011-01-02T10:53:00Z</time>
      </trkpt>
      <trkpt lat="31.125622009858489" lon="-4.87894699908793">
        <ele>755.44000000000005</ele>
        <time>2011-01-02T10:53:04Z</time>
      </trkpt>
      <trkpt lat="31.125915041193366" lon="-4.87877600826323">
        <ele>755.98199999999997</ele>
        <time>2011-01-02T10:53:08Z</time>
      </trkpt>
      <trkpt lat="31.126668993383646" lon="-4.878358002752066">
        <ele>756.80100000000004</ele>
        <time>2011-01-02T10:53:17Z</time>
      </trkpt>
      <trkpt lat="31.127260001376271" lon="-4.878049967810512">
        <ele>757.64200000000005</ele>
        <time>2011-01-02T10:53:25Z</time>
      </trkpt>
      <trkpt lat="31.127712037414312" lon="-4.877835977822542">
        <ele>758.13900000000001</ele>
        <time>2011-01-02T10:53:31Z</time>
      </trkpt>
      <trkpt lat="31.127971038222313" lon="-4.877715026959777">
        <ele>758.17700000000002</ele>
        <time>2011-01-02T10:53:35Z</time>
      </trkpt>
      <trkpt lat="31.128462972119451" lon="-4.87746499478817">
        <ele>758.99900000000002</ele>
        <time>2011-01-02T10:53:42Z</time>
      </trkpt>
      <trkpt lat="31.129048028960824" lon="-4.877156959846616">
        <ele>759.197</ele>
        <time>2011-01-02T10:53:51Z</time>
      </trkpt>
      <trkpt lat="31.129349023103714" lon="-4.876998038962483">
        <ele>759.57899999999995</ele>
        <time>2011-01-02T10:53:57Z</time>
      </trkpt>
      <trkpt lat="31.129826959222555" lon="-4.876755969598889">
        <ele>762.21100000000001</ele>
        <time>2011-01-02T10:54:04Z</time>
      </trkpt>
      <trkpt lat="31.130564985796809" lon="-4.876443995162845">
        <ele>762.01800000000003</ele>
        <time>2011-01-02T10:54:12Z</time>
      </trkpt>
      <trkpt lat="31.131702996790409" lon="-4.875958012416959">
        <ele>764.14200000000005</ele>
        <time>2011-01-02T10:54:23Z</time>
      </trkpt>
      <trkpt lat="31.131859989836812" lon="-4.875866984948516">
        <ele>764.822</ele>
        <time>2011-01-02T10:54:25Z</time>
      </trkpt>
      <trkpt lat="31.132195014506578" lon="-4.875672021880746">
        <ele>766.697</ele>
        <time>2011-01-02T10:54:30Z</time>
      </trkpt>
      <trkpt lat="31.132427025586367" lon="-4.875536989420652">
        <ele>768.72400000000005</ele>
        <time>2011-01-02T10:54:34Z</time>
      </trkpt>
      <trkpt lat="31.132930023595691" lon="-4.875152008607984">
        <ele>772.96000000000004</ele>
        <time>2011-01-02T10:54:41Z</time>
      </trkpt>
      <trkpt lat="31.133044017478824" lon="-4.875054024159908">
        <ele>774.32399999999996</ele>
        <time>2011-01-02T10:54:45Z</time>
      </trkpt>
      <trkpt lat="31.133655980229378" lon="-4.874346004799008">
        <ele>771.41499999999996</ele>
        <time>2011-01-02T10:54:52Z</time>
      </trkpt>
      <trkpt lat="31.134286969900131" lon="-4.873610995709896">
        <ele>770.63199999999995</ele>
        <time>2011-01-02T10:55:00Z</time>
      </trkpt>
      <trkpt lat="31.135132033377886" lon="-4.87247901968658">
        <ele>770.005</ele>
        <time>2011-01-02T10:55:11Z</time>
      </trkpt>
      <trkpt lat="31.135625978931785" lon="-4.871818022802472">
        <ele>764.91200000000003</ele>
        <time>2011-01-02T10:55:18Z</time>
      </trkpt>
      <trkpt lat="31.135963015258312" lon="-4.871365986764431">
        <ele>764.572</ele>
        <time>2011-01-02T10:55:23Z</time>
      </trkpt>
      <trkpt lat="31.136470958590508" lon="-4.870685040950775">
        <ele>764.803</ele>
        <time>2011-01-02T10:55:30Z</time>
      </trkpt>
      <trkpt lat="31.137233041226864" lon="-4.86966404132545">
        <ele>761.904</ele>
        <time>2011-01-02T10:55:39Z</time>
      </trkpt>
      <trkpt lat="31.137800998985767" lon="-4.868852002546191">
        <ele>763.91499999999996</ele>
        <time>2011-01-02T10:55:46Z</time>
      </trkpt>
      <trkpt lat="31.138661988079548" lon="-4.867521040141583">
        <ele>765.654</ele>
        <time>2011-01-02T10:55:56Z</time>
      </trkpt>
      <trkpt lat="31.139431027695537" lon="-4.866331983357668">
        <ele>767.05399999999997</ele>
        <time>2011-01-02T10:56:05Z</time>
      </trkpt>
      <trkpt lat="31.139885997399688" lon="-4.86562798731029">
        <ele>764.86300000000006</ele>
        <time>2011-01-02T10:56:11Z</time>
      </trkpt>
      <trkpt lat="31.140431994572282" lon="-4.864670019596815">
        <ele>760.88199999999995</ele>
        <time>2011-01-02T10:56:19Z</time>
      </trkpt>
      <trkpt lat="31.140914959833026" lon="-4.863817999139428">
        <ele>761.19399999999996</ele>
        <time>2011-01-02T10:56:26Z</time>
      </trkpt>
      <trkpt lat="31.141608981415629" lon="-4.862593989819288">
        <ele>757.67100000000005</ele>
        <time>2011-01-02T10:56:35Z</time>
      </trkpt>
      <trkpt lat="31.14214701578021" lon="-4.861508030444384">
        <ele>757.52200000000005</ele>
        <time>2011-01-02T10:56:43Z</time>
      </trkpt>
      <trkpt lat="31.142299985513091" lon="-4.861190021038055">
        <ele>757.87199999999996</ele>
        <time>2011-01-02T10:56:46Z</time>
      </trkpt>
      <trkpt lat="31.142714973539114" lon="-4.86032098531723">
        <ele>759.56399999999996</ele>
        <time>2011-01-02T10:56:53Z</time>
      </trkpt>
      <trkpt lat="31.143318973481655" lon="-4.859146010130644">
        <ele>758.45299999999997</ele>
        <time>2011-01-02T10:57:01Z</time>
      </trkpt>
      <trkpt lat="31.1439089756459" lon="-4.858186030760407">
        <ele>759.72400000000005</ele>
        <time>2011-01-02T10:57:08Z</time>
      </trkpt>
      <trkpt lat="31.144333016127348" lon="-4.857495026662946">
        <ele>759.68299999999999</ele>
        <time>2011-01-02T10:57:13Z</time>
      </trkpt>
      <trkpt lat="31.144625963643193" lon="-4.85709797590971">
        <ele>759.553</ele>
        <time>2011-01-02T10:57:17Z</time>
      </trkpt>
      <trkpt lat="31.145459963008761" lon="-4.856027020141482">
        <ele>763.54399999999998</ele>
        <time>2011-01-02T10:57:26Z</time>
      </trkpt>
      <trkpt lat="31.147477990016341" lon="-4.855297962203622">
        <ele>767.34299999999996</ele>
        <time>2011-01-02T10:57:38Z</time>
      </trkpt>
      <trkpt lat="31.148130018264055" lon="-4.854852966964245">
        <ele>768.44200000000001</ele>
        <time>2011-01-02T10:57:44Z</time>
      </trkpt>
      <trkpt lat="31.148642990738153" lon="-4.85417696647346">
        <ele>759.51099999999997</ele>
        <time>2011-01-02T10:57:50Z</time>
      </trkpt>
      <trkpt lat="31.149311028420925" lon="-4.853695007041097">
        <ele>761.81299999999999</ele>
        <time>2011-01-02T10:57:56Z</time>
      </trkpt>
      <trkpt lat="31.149692991748452" lon="-4.8534220084548">
        <ele>763.08299999999997</ele>
        <time>2011-01-02T10:58:00Z</time>
      </trkpt>
      <trkpt lat="31.15022599697113" lon="-4.852716000750661">
        <ele>763.80200000000002</ele>
        <time>2011-01-02T10:58:07Z</time>
      </trkpt>
      <trkpt lat="31.150728994980454" lon="-4.85215600579977">
        <ele>763.452</ele>
        <time>2011-01-02T10:58:13Z</time>
      </trkpt>
      <trkpt lat="31.151098972186446" lon="-4.850985975936055">
        <ele>763.84299999999996</ele>
        <time>2011-01-02T10:58:21Z</time>
      </trkpt>
      <trkpt lat="31.151758041232824" lon="-4.850403014570475">
        <ele>765.44100000000003</ele>
        <time>2011-01-02T10:58:28Z</time>
      </trkpt>
      <trkpt lat="31.152602015063167" lon="-4.849654007703066">
        <ele>767.83900000000006</ele>
        <time>2011-01-02T10:58:35Z</time>
      </trkpt>
      <trkpt lat="31.153205009177327" lon="-4.849121002480388">
        <ele>768.29899999999998</ele>
        <time>2011-01-02T10:58:41Z</time>
      </trkpt>
      <trkpt lat="31.153756035491824" lon="-4.848635019734502">
        <ele>768.71900000000005</ele>
        <time>2011-01-02T10:58:47Z</time>
      </trkpt>
      <trkpt lat="31.154287029057741" lon="-4.848164962604642">
        <ele>767.88800000000003</ele>
        <time>2011-01-02T10:58:53Z</time>
      </trkpt>
      <trkpt lat="31.15458601154387" lon="-4.84790101647377">
        <ele>768.428</ele>
        <time>2011-01-02T10:58:57Z</time>
      </trkpt>
      <trkpt lat="31.154901003465056" lon="-4.84762298874557">
        <ele>768.80899999999997</ele>
        <time>2011-01-02T10:59:03Z</time>
      </trkpt>
      <trkpt lat="31.155191017314792" lon="-4.847365999594331">
        <ele>770.702</ele>
        <time>2011-01-02T10:59:12Z</time>
      </trkpt>
      <trkpt lat="31.155520007014275" lon="-4.847075985744596">
        <ele>771.44000000000005</ele>
        <time>2011-01-02T10:59:17Z</time>
      </trkpt>
      <trkpt lat="31.155947986990213" lon="-4.846697961911559">
        <ele>772.09000000000003</ele>
        <time>2011-01-02T10:59:25Z</time>
      </trkpt>
      <trkpt lat="31.156179998070002" lon="-4.846493024379015">
        <ele>772.80999999999995</ele>
        <time>2011-01-02T10:59:29Z</time>
      </trkpt>
      <trkpt lat="31.156618036329746" lon="-4.846106031909585">
        <ele>773.48900000000003</ele>
        <time>2011-01-02T10:59:35Z</time>
      </trkpt>
      <trkpt lat="31.156879970803857" lon="-4.845874020829797">
        <ele>773.24599999999998</ele>
        <time>2011-01-02T10:59:39Z</time>
      </trkpt>
      <trkpt lat="31.157225975766778" lon="-4.845567997545004">
        <ele>771.71699999999998</ele>
        <time>2011-01-02T10:59:47Z</time>
      </trkpt>
      <trkpt lat="31.157602993771434" lon="-4.845234984531999">
        <ele>772.32799999999997</ele>
        <time>2011-01-02T10:59:55Z</time>
      </trkpt>
      <trkpt lat="31.158197019249201" lon="-4.844692004844546">
        <ele>773.56899999999996</ele>
        <time>2011-01-02T11:00:03Z</time>
      </trkpt>
      <trkpt lat="31.158448979258537" lon="-4.844445995986462">
        <ele>774.21900000000005</ele>
        <time>2011-01-02T11:00:07Z</time>
      </trkpt>
      <trkpt lat="31.158780986443162" lon="-4.844123041257262">
        <ele>763.24400000000003</ele>
        <time>2011-01-02T11:00:13Z</time>
      </trkpt>
      <trkpt lat="31.158948037773371" lon="-4.843960013240576">
        <ele>763.95600000000002</ele>
        <time>2011-01-02T11:00:15Z</time>
      </trkpt>
      <trkpt lat="31.159624960273504" lon="-4.843301028013229">
        <ele>767.01800000000003</ele>
        <time>2011-01-02T11:00:23Z</time>
      </trkpt>
      <trkpt lat="31.160247987136245" lon="-4.842694010585547">
        <ele>769.721</ele>
        <time>2011-01-02T11:00:30Z</time>
      </trkpt>
      <trkpt lat="31.160755008459091" lon="-4.842244992032647">
        <ele>771.76800000000003</ele>
        <time>2011-01-02T11:00:36Z</time>
      </trkpt>
      <trkpt lat="31.160847041755915" lon="-4.842171985656023">
        <ele>771.80700000000002</ele>
        <time>2011-01-02T11:00:37Z</time>
      </trkpt>
      <trkpt lat="31.161626977846026" lon="-4.841544013470411">
        <ele>773.73599999999999</ele>
        <time>2011-01-02T11:00:45Z</time>
      </trkpt>
      <trkpt lat="31.162422001361847" lon="-4.840903971344233">
        <ele>775.84699999999998</ele>
        <time>2011-01-02T11:00:53Z</time>
      </trkpt>
      <trkpt lat="31.16303002461791" lon="-4.840415976941586">
        <ele>776.71699999999998</ele>
        <time>2011-01-02T11:01:00Z</time>
      </trkpt>
      <trkpt lat="31.163753969594836" lon="-4.839835027232766">
        <ele>777.96699999999998</ele>
        <time>2011-01-02T11:01:07Z</time>
      </trkpt>
      <trkpt lat="31.164742028340697" lon="-4.839042015373707">
        <ele>779.91800000000001</ele>
        <time>2011-01-02T11:01:16Z</time>
      </trkpt>
      <trkpt lat="31.165746012702584" lon="-4.838279010728002">
        <ele>781.548</ele>
        <time>2011-01-02T11:01:24Z</time>
      </trkpt>
      <trkpt lat="31.166486972942948" lon="-4.837741982191801">
        <ele>782.03700000000003</ele>
        <time>2011-01-02T11:01:30Z</time>
      </trkpt>
      <trkpt lat="31.167417028918862" lon="-4.837070005014539">
        <ele>783.46400000000006</ele>
        <time>2011-01-02T11:01:37Z</time>
      </trkpt>
      <trkpt lat="31.168685965240002" lon="-4.836111031472683">
        <ele>784.13199999999995</ele>
        <time>2011-01-02T11:01:47Z</time>
      </trkpt>
      <trkpt lat="31.169614009559155" lon="-4.835342997685075">
        <ele>785.73299999999995</ele>
        <time>2011-01-02T11:01:55Z</time>
      </trkpt>
      <trkpt lat="31.169974012300372" lon="-4.835046026855707">
        <ele>786.44299999999998</ele>
        <time>2011-01-02T11:01:59Z</time>
      </trkpt>
      <trkpt lat="31.170681025832891" lon="-4.834460970014334">
        <ele>786.48099999999999</ele>
        <time>2011-01-02T11:02:07Z</time>
      </trkpt>
      <trkpt lat="31.17134596221149" lon="-4.833944980055094">
        <ele>786.96199999999999</ele>
        <time>2011-01-02T11:02:14Z</time>
      </trkpt>
      <trkpt lat="31.172087006270885" lon="-4.833385990932584">
        <ele>787.673</ele>
        <time>2011-01-02T11:02:21Z</time>
      </trkpt>
      <trkpt lat="31.173089984804392" lon="-4.832630027085543">
        <ele>788.54300000000001</ele>
        <time>2011-01-02T11:02:30Z</time>
      </trkpt>
      <trkpt lat="31.174263032153249" lon="-4.831560999155045">
        <ele>789.22799999999995</ele>
        <time>2011-01-02T11:02:40Z</time>
      </trkpt>
      <trkpt lat="31.17506300099194" lon="-4.830761030316353">
        <ele>790.18899999999996</ele>
        <time>2011-01-02T11:02:47Z</time>
      </trkpt>
      <trkpt lat="31.175908986479044" lon="-4.829914961010218">
        <ele>791.10000000000002</ele>
        <time>2011-01-02T11:02:55Z</time>
      </trkpt>
      <trkpt lat="31.176574006676674" lon="-4.82925002463162">
        <ele>791.02800000000002</ele>
        <time>2011-01-02T11:03:03Z</time>
      </trkpt>
      <trkpt lat="31.176872989162803" lon="-4.828950958326459">
        <ele>791.12800000000004</ele>
        <time>2011-01-02T11:03:07Z</time>
      </trkpt>
      <trkpt lat="31.17718999274075" lon="-4.828634038567543">
        <ele>791.48000000000002</ele>
        <time>2011-01-02T11:03:11Z</time>
      </trkpt>
      <trkpt lat="31.177733978256583" lon="-4.828088963404298">
        <ele>791.58699999999999</ele>
        <time>2011-01-02T11:03:19Z</time>
      </trkpt>
      <trkpt lat="31.17819900624454" lon="-4.827625025063753">
        <ele>792.85900000000004</ele>
        <time>2011-01-02T11:03:27Z</time>
      </trkpt>
      <trkpt lat="31.178676020354033" lon="-4.82714700512588">
        <ele>793.76999999999998</ele>
        <time>2011-01-02T11:03:33Z</time>
      </trkpt>
      <trkpt lat="31.178881963714957" lon="-4.826941983774304">
        <ele>793.74900000000002</ele>
        <time>2011-01-02T11:03:36Z</time>
      </trkpt>
      <trkpt lat="31.179321007803082" lon="-4.826503023505211">
        <ele>794.47699999999998</ele>
        <time>2011-01-02T11:03:42Z</time>
      </trkpt>
      <trkpt lat="31.180128017440438" lon="-4.825695008039475">
        <ele>795.25599999999997</ele>
        <time>2011-01-02T11:03:51Z</time>
      </trkpt>
      <trkpt lat="31.180867971852422" lon="-4.824954969808459">
        <ele>796.10599999999999</ele>
        <time>2011-01-02T11:03:59Z</time>
      </trkpt>
      <trkpt lat="31.181043991819024" lon="-4.824780039489269">
        <ele>795.88499999999999</ele>
        <time>2011-01-02T11:04:01Z</time>
      </trkpt>
      <trkpt lat="31.181878997012973" lon="-4.823981998488307">
        <ele>795.995</ele>
        <time>2011-01-02T11:04:12Z</time>
      </trkpt>
      <trkpt lat="31.182439997792244" lon="-4.823456034064293">
        <ele>796.60500000000002</ele>
        <time>2011-01-02T11:04:20Z</time>
      </trkpt>
      <trkpt lat="31.183138964697719" lon="-4.822829989716411">
        <ele>797.15700000000004</ele>
        <time>2011-01-02T11:04:28Z</time>
      </trkpt>
      <trkpt lat="31.18402099236846" lon="-4.82222598977387">
        <ele>798.08600000000001</ele>
        <time>2011-01-02T11:04:37Z</time>
      </trkpt>
      <trkpt lat="31.184306982904673" lon="-4.82203396037221">
        <ele>798.20500000000004</ele>
        <time>2011-01-02T11:04:40Z</time>
      </trkpt>
      <trkpt lat="31.184725994244218" lon="-4.821768002584577">
        <ele>797.54300000000001</ele>
        <time>2011-01-02T11:04:45Z</time>
      </trkpt>
      <trkpt lat="31.184863960370421" lon="-4.821679992601275">
        <ele>797.91399999999999</ele>
        <time>2011-01-02T11:04:47Z</time>
      </trkpt>
      <trkpt lat="31.185121033340693" lon="-4.821516964584589">
        <ele>797.15300000000002</ele>
        <time>2011-01-02T11:04:52Z</time>
      </trkpt>
      <trkpt lat="31.185501990839839" lon="-4.821290988475084">
        <ele>797.59400000000005</ele>
        <time>2011-01-02T11:04:57Z</time>
      </trkpt>
      <trkpt lat="31.186211016029119" lon="-4.821728020906448">
        <ele>798.12300000000005</ele>
        <time>2011-01-02T11:05:03Z</time>
      </trkpt>
      <trkpt lat="31.187016014009714" lon="-4.821907980367541">
        <ele>798.96400000000006</ele>
        <time>2011-01-02T11:05:11Z</time>
      </trkpt>
      <trkpt lat="31.187342992052436" lon="-4.821821982041001">
        <ele>799.51300000000003</ele>
        <time>2011-01-02T11:05:15Z</time>
      </trkpt>
      <trkpt lat="31.187715986743569" lon="-4.821545965969563">
        <ele>799.74300000000005</ele>
        <time>2011-01-02T11:05:19Z</time>
      </trkpt>
      <trkpt lat="31.188934966921806" lon="-4.821031987667084">
        <ele>799.73299999999995</ele>
        <time>2011-01-02T11:05:30Z</time>
      </trkpt>
      <trkpt lat="31.18980199098587" lon="-4.820566037669778">
        <ele>799.55200000000002</ele>
        <time>2011-01-02T11:05:38Z</time>
      </trkpt>
      <trkpt lat="31.189888995140791" lon="-4.820519015192986">
        <ele>799.77300000000002</ele>
        <time>2011-01-02T11:05:39Z</time>
      </trkpt>
      <trkpt lat="31.19003601372242" lon="-4.820465035736561">
        <ele>799.77599999999995</ele>
        <time>2011-01-02T11:05:41Z</time>
      </trkpt>
      <trkpt lat="31.190382018685341" lon="-4.820219026878476">
        <ele>799.76599999999996</ele>
        <time>2011-01-02T11:05:48Z</time>
      </trkpt>
      <trkpt lat="31.190942013636231" lon="-4.819858018308878">
        <ele>801.19799999999998</ele>
        <time>2011-01-02T11:05:56Z</time>
      </trkpt>
      <trkpt lat="31.191488010808825" lon="-4.819502038881183">
        <ele>801.56700000000001</ele>
        <time>2011-01-02T11:06:02Z</time>
      </trkpt>
      <trkpt lat="31.192106008529663" lon="-4.818972973152995">
        <ele>801.93799999999999</ele>
        <time>2011-01-02T11:06:07Z</time>
      </trkpt>
      <trkpt lat="31.192223019897938" lon="-4.819028964266181">
        <ele>802.09699999999998</ele>
        <time>2011-01-02T11:06:10Z</time>
      </trkpt>
      <trkpt lat="31.192640019580722" lon="-4.819040028378367">
        <ele>803.13800000000003</ele>
        <time>2011-01-02T11:06:17Z</time>
      </trkpt>
      <trkpt lat="31.192777985706925" lon="-4.819042962044478">
        <ele>803.46799999999996</ele>
        <time>2011-01-02T11:06:20Z</time>
      </trkpt>
      <trkpt lat="31.193156009539962" lon="-4.819046985358">
        <ele>803.15700000000004</ele>
        <time>2011-01-02T11:06:26Z</time>
      </trkpt>
      <trkpt lat="31.193264974281192" lon="-4.819044973701239">
        <ele>803.12599999999998</ele>
        <time>2011-01-02T11:06:28Z</time>
      </trkpt>
      <trkpt lat="31.193409981206059" lon="-4.819042040035129">
        <ele>802.65499999999997</ele>
        <time>2011-01-02T11:06:31Z</time>
      </trkpt>
      <trkpt lat="31.193753974512219" lon="-4.819033993408084">
        <ele>802.25599999999997</ele>
        <time>2011-01-02T11:06:37Z</time>
      </trkpt>
      <trkpt lat="31.194049017503858" lon="-4.819026030600071">
        <ele>802.66300000000001</ele>
        <time>2011-01-02T11:06:41Z</time>
      </trkpt>
      <trkpt lat="31.194209028035402" lon="-4.819005997851491">
        <ele>802.77200000000005</ele>
        <time>2011-01-02T11:06:43Z</time>
      </trkpt>
      <trkpt lat="31.194415977224708" lon="-4.81898101978004">
        <ele>802.78200000000004</ele>
        <time>2011-01-02T11:06:46Z</time>
      </trkpt>
      <trkpt lat="31.194605994969606" lon="-4.818956963717938">
        <ele>802.83100000000002</ele>
        <time>2011-01-02T11:06:50Z</time>
      </trkpt>
      <trkpt lat="31.19504596106708" lon="-4.818903990089893">
        <ele>803.55200000000002</ele>
        <time>2011-01-02T11:06:59Z</time>
      </trkpt>
      <trkpt lat="31.195148974657059" lon="-4.818878006190062">
        <ele>803.48199999999997</ele>
        <time>2011-01-02T11:07:00Z</time>
      </trkpt>
      <trkpt lat="31.195392971858382" lon="-4.818800976499915">
        <ele>803.88300000000004</ele>
        <time>2011-01-02T11:07:04Z</time>
      </trkpt>
      <trkpt lat="31.196076013147831" lon="-4.818676002323628">
        <ele>804.72299999999996</ele>
        <time>2011-01-02T11:07:13Z</time>
      </trkpt>
      <trkpt lat="31.196704991161823" lon="-4.818717995658517">
        <ele>805.19200000000001</ele>
        <time>2011-01-02T11:07:21Z</time>
      </trkpt>
      <trkpt lat="31.197351990267634" lon="-4.818868031725287">
        <ele>805.86300000000006</ele>
        <time>2011-01-02T11:07:30Z</time>
      </trkpt>
      <trkpt lat="31.198451025411487" lon="-4.819142958149314">
        <ele>806.01300000000003</ele>
        <time>2011-01-02T11:07:41Z</time>
      </trkpt>
      <trkpt lat="31.199169019237161" lon="-4.819324007257819">
        <ele>806.71799999999996</ele>
        <time>2011-01-02T11:07:49Z</time>
      </trkpt>
      <trkpt lat="31.199517035856843" lon="-4.819422997534275">
        <ele>807.97799999999995</ele>
        <time>2011-01-02T11:07:57Z</time>
      </trkpt>
      <trkpt lat="31.199686015024781" lon="-4.819471025839448">
        <ele>808.74800000000005</ele>
        <time>2011-01-02T11:08:05Z</time>
      </trkpt>
      <trkpt lat="31.200119024142623" lon="-4.819600023329258">
        <ele>808.34699999999998</ele>
        <time>2011-01-02T11:08:12Z</time>
      </trkpt>
      <trkpt lat="31.200570976361632" lon="-4.81973497197032">
        <ele>808.36800000000005</ele>
        <time>2011-01-02T11:08:17Z</time>
      </trkpt>
      <trkpt lat="31.201290981844068" lon="-4.819890037178993">
        <ele>809.25900000000001</ele>
        <time>2011-01-02T11:08:25Z</time>
      </trkpt>
      <trkpt lat="31.201892970129848" lon="-4.82022900134325">
        <ele>809.52800000000002</ele>
        <time>2011-01-02T11:08:34Z</time>
      </trkpt>
      <trkpt lat="31.202414995059371" lon="-4.820628985762596">
        <ele>809.47799999999995</ele>
        <time>2011-01-02T11:08:41Z</time>
      </trkpt>
      <trkpt lat="31.20318696834147" lon="-4.82123700901866">
        <ele>809.97199999999998</ele>
        <time>2011-01-02T11:08:50Z</time>
      </trkpt>
      <trkpt lat="31.203999007120728" lon="-4.821658032014966">
        <ele>810.64300000000003</ele>
        <time>2011-01-02T11:08:58Z</time>
      </trkpt>
      <trkpt lat="31.204283991828561" lon="-4.821745036169887">
        <ele>810.63199999999995</ele>
        <time>2011-01-02T11:09:01Z</time>
      </trkpt>
      <trkpt lat="31.205057976767421" lon="-4.822049969807267">
        <ele>810.91200000000003</ele>
        <time>2011-01-02T11:09:09Z</time>
      </trkpt>
      <trkpt lat="31.205923995003104" lon="-4.823158979415894">
        <ele>810.00099999999998</ele>
        <time>2011-01-02T11:09:19Z</time>
      </trkpt>
      <trkpt lat="31.206873999908566" lon="-4.823784017935395">
        <ele>811.97400000000005</ele>
        <time>2011-01-02T11:09:29Z</time>
      </trkpt>
      <trkpt lat="31.207115985453129" lon="-4.823954002931714">
        <ele>812.39400000000001</ele>
        <time>2011-01-02T11:09:32Z</time>
      </trkpt>
      <trkpt lat="31.207616971805692" lon="-4.824488013982773">
        <ele>813.27300000000002</ele>
        <time>2011-01-02T11:09:39Z</time>
      </trkpt>
      <trkpt lat="31.208023997023702" lon="-4.8251480050385">
        <ele>814.16399999999999</ele>
        <time>2011-01-02T11:09:46Z</time>
      </trkpt>
      <trkpt lat="31.208391962572932" lon="-4.825668018311262">
        <ele>814.82399999999996</ele>
        <time>2011-01-02T11:09:52Z</time>
      </trkpt>
      <trkpt lat="31.208464968949556" lon="-4.826250979676843">
        <ele>815.83900000000006</ele>
        <time>2011-01-02T11:09:58Z</time>
      </trkpt>
      <trkpt lat="31.208546021953225" lon="-4.826611988246441">
        <ele>816.29300000000001</ele>
        <time>2011-01-02T11:10:03Z</time>
      </trkpt>
      <trkpt lat="31.208882974460721" lon="-4.82682597823441">
        <ele>815.91200000000003</ele>
        <time>2011-01-02T11:10:08Z</time>
      </trkpt>
      <trkpt lat="31.209040973335505" lon="-4.826862020418048">
        <ele>815.85199999999998</ele>
        <time>2011-01-02T11:10:10Z</time>
      </trkpt>
      <trkpt lat="31.209421008825302" lon="-4.826821032911539">
        <ele>815.46100000000001</ele>
        <time>2011-01-02T11:10:15Z</time>
      </trkpt>
      <trkpt lat="31.209584958851337" lon="-4.826764035969973">
        <ele>815.47199999999998</ele>
        <time>2011-01-02T11:10:17Z</time>
      </trkpt>
      <trkpt lat="31.210054010152817" lon="-4.826875012367964">
        <ele>815.99199999999996</ele>
        <time>2011-01-02T11:10:23Z</time>
      </trkpt>
      <trkpt lat="31.210847022011876" lon="-4.827472977340221">
        <ele>818.47400000000005</ele>
        <time>2011-01-02T11:10:33Z</time>
      </trkpt>
      <trkpt lat="31.211340967565775" lon="-4.828025009483099">
        <ele>819.06200000000001</ele>
        <time>2011-01-02T11:10:41Z</time>
      </trkpt>
      <trkpt lat="31.211870033293962" lon="-4.828590033575892">
        <ele>821.14800000000002</ele>
        <time>2011-01-02T11:10:50Z</time>
      </trkpt>
      <trkpt lat="31.212026020511985" lon="-4.828701009973884">
        <ele>821.41700000000003</ele>
        <time>2011-01-02T11:10:53Z</time>
      </trkpt>
      <trkpt lat="31.212438996881247" lon="-4.828720958903432">
        <ele>821.87699999999995</ele>
        <time>2011-01-02T11:11:00Z</time>
      </trkpt>
      <trkpt lat="31.212730016559362" lon="-4.82873696833849">
        <ele>821.65599999999995</ele>
        <time>2011-01-02T11:11:05Z</time>
      </trkpt>
      <trkpt lat="31.213024975731969" lon="-4.828593973070383">
        <ele>822.346</ele>
        <time>2011-01-02T11:11:14Z</time>
      </trkpt>
      <trkpt lat="31.213190015405416" lon="-4.828068008646369">
        <ele>822.48599999999999</ele>
        <time>2011-01-02T11:11:21Z</time>
      </trkpt>
      <trkpt lat="31.213378021493554" lon="-4.826808040961623">
        <ele>822.327</ele>
        <time>2011-01-02T11:11:30Z</time>
      </trkpt>
      <trkpt lat="31.213659988716245" lon="-4.825397031381726">
        <ele>822.15599999999995</ele>
        <time>2011-01-02T11:11:40Z</time>
      </trkpt>
      <trkpt lat="31.214037006720901" lon="-4.824766041710973">
        <ele>821.73400000000004</ele>
        <time>2011-01-02T11:11:46Z</time>
      </trkpt>
      <trkpt lat="31.214133985340595" lon="-4.824630003422499">
        <ele>821.60400000000004</ele>
        <time>2011-01-02T11:11:48Z</time>
      </trkpt>
      <trkpt lat="31.214268011972308" lon="-4.824440991505981">
        <ele>821.74199999999996</ele>
        <time>2011-01-02T11:11:54Z</time>
      </trkpt>
      <trkpt lat="31.214359039440751" lon="-4.824314005672932">
        <ele>821.93499999999995</ele>
        <time>2011-01-02T11:12:01Z</time>
      </trkpt>
      <trkpt lat="31.214229958131909" lon="-4.824120970442891">
        <ele>821.18499999999995</ele>
        <time>2011-01-02T11:24:08Z</time>
      </trkpt>
      <trkpt lat="31.2143150344491" lon="-4.824376031756401">
        <ele>818.76199999999994</ele>
        <time>2011-01-02T11:25:42Z</time>
      </trkpt>
      <trkpt lat="31.214204980060458" lon="-4.824530007317662">
        <ele>815.47500000000002</ele>
        <time>2011-01-02T11:25:49Z</time>
      </trkpt>
      <trkpt lat="31.213960982859135" lon="-4.824349964037538">
        <ele>816.596</ele>
        <time>2011-01-02T11:25:56Z</time>
      </trkpt>
      <trkpt lat="31.214090986177325" lon="-4.82431098818779">
        <ele>818.596</ele>
        <time>2011-01-02T12:07:17Z</time>
      </trkpt>
      <trkpt lat="31.214068019762635" lon="-4.824477033689618">
        <ele>813.23400000000004</ele>
        <time>2011-01-02T12:07:39Z</time>
      </trkpt>
      <trkpt lat="31.213860986754298" lon="-4.825015990063548">
        <ele>804.80600000000004</ele>
        <time>2011-01-02T12:07:48Z</time>
      </trkpt>
      <trkpt lat="31.213547000661492" lon="-4.825824005529285">
        <ele>793.78099999999995</ele>
        <time>2011-01-02T12:07:58Z</time>
      </trkpt>
      <trkpt lat="31.213337033987045" lon="-4.827085984870791">
        <ele>787.11300000000006</ele>
        <time>2011-01-02T12:08:09Z</time>
      </trkpt>
      <trkpt lat="31.213171994313598" lon="-4.828186025843024">
        <ele>781.48299999999995</ele>
        <time>2011-01-02T12:08:17Z</time>
      </trkpt>
      <trkpt lat="31.213084990158677" lon="-4.828764041885734">
        <ele>776.40300000000002</ele>
        <time>2011-01-02T12:08:23Z</time>
      </trkpt>
      <trkpt lat="31.213175011798739" lon="-4.828948024660349">
        <ele>782.78700000000003</ele>
        <time>2011-01-02T12:08:29Z</time>
      </trkpt>
      <trkpt lat="31.213050037622452" lon="-4.82899496331811">
        <ele>785.98099999999999</ele>
        <time>2011-01-02T12:08:35Z</time>
      </trkpt>
      <trkpt lat="31.213782029226422" lon="-4.82951195910573">
        <ele>791.99400000000003</ele>
        <time>2011-01-02T12:08:45Z</time>
      </trkpt>
      <trkpt lat="31.214201962575316" lon="-4.830722976475954">
        <ele>797.82000000000005</ele>
        <time>2011-01-02T12:08:57Z</time>
      </trkpt>
      <trkpt lat="31.214734967797995" lon="-4.830958005040884">
        <ele>801.74400000000003</ele>
        <time>2011-01-02T12:09:07Z</time>
      </trkpt>
      <trkpt lat="31.215676004067063" lon="-4.831401994451881">
        <ele>806.80499999999995</ele>
        <time>2011-01-02T12:09:20Z</time>
      </trkpt>
      <trkpt lat="31.216745031997561" lon="-4.831942962482572">
        <ele>811.38</ele>
        <time>2011-01-02T12:09:34Z</time>
      </trkpt>
      <trkpt lat="31.217656983062625" lon="-4.832549979910255">
        <ele>815.06899999999996</ele>
        <time>2011-01-02T12:09:45Z</time>
      </trkpt>
      <trkpt lat="31.217815987765789" lon="-4.832656010985375">
        <ele>815.58799999999997</ele>
        <time>2011-01-02T12:09:47Z</time>
      </trkpt>
      <trkpt lat="31.218429962173104" lon="-4.833065969869494">
        <ele>817.72900000000004</ele>
        <time>2011-01-02T12:09:56Z</time>
      </trkpt>
      <trkpt lat="31.219066986814141" lon="-4.833491016179323">
        <ele>817.077</ele>
        <time>2011-01-02T12:10:06Z</time>
      </trkpt>
      <trkpt lat="31.219239989295602" lon="-4.833698971197009">
        <ele>815.947</ele>
        <time>2011-01-02T12:10:12Z</time>
      </trkpt>
      <trkpt lat="31.219473006203771" lon="-4.834055034443736">
        <ele>815.54700000000003</ele>
        <time>2011-01-02T12:10:18Z</time>
      </trkpt>
      <trkpt lat="31.219943985342979" lon="-4.83477302826941">
        <ele>816.75800000000004</ele>
        <time>2011-01-02T12:10:28Z</time>
      </trkpt>
      <trkpt lat="31.220429968088865" lon="-4.835514994338155">
        <ele>818.92399999999998</ele>
        <time>2011-01-02T12:10:38Z</time>
      </trkpt>
      <trkpt lat="31.220935983583331" lon="-4.836385035887361">
        <ele>821.40200000000004</ele>
        <time>2011-01-02T12:10:50Z</time>
      </trkpt>
      <trkpt lat="31.221143016591668" lon="-4.836817961186171">
        <ele>821.971</ele>
        <time>2011-01-02T12:10:58Z</time>
      </trkpt>
      <trkpt lat="31.221391959115863" lon="-4.837337974458933">
        <ele>821.26099999999997</ele>
        <time>2011-01-02T12:11:06Z</time>
      </trkpt>
      <trkpt lat="31.221560016274452" lon="-4.837690014392138">
        <ele>820.64099999999996</ele>
        <time>2011-01-02T12:11:13Z</time>
      </trkpt>
      <trkpt lat="31.221089959144592" lon="-4.838539017364383">
        <ele>820.38099999999997</ele>
        <time>2011-01-02T12:11:21Z</time>
      </trkpt>
      <trkpt lat="31.221174029633403" lon="-4.839041009545326">
        <ele>821.25</ele>
        <time>2011-01-02T12:11:29Z</time>
      </trkpt>
      <trkpt lat="31.22129900380969" lon="-4.839541995897889">
        <ele>821.596</ele>
        <time>2011-01-02T12:11:37Z</time>
      </trkpt>
      <trkpt lat="31.221346026286483" lon="-4.839833015576005">
        <ele>822.49099999999999</ele>
        <time>2011-01-02T12:11:42Z</time>
      </trkpt>
      <trkpt lat="31.221559010446072" lon="-4.840383036062121">
        <ele>824.46900000000005</ele>
        <time>2011-01-02T12:11:50Z</time>
      </trkpt>
      <trkpt lat="31.221660012379289" lon="-4.841194991022348">
        <ele>822.625</ele>
        <time>2011-01-02T12:12:00Z</time>
      </trkpt>
      <trkpt lat="31.221839971840382" lon="-4.841578966006637">
        <ele>822.49599999999998</ele>
        <time>2011-01-02T12:12:05Z</time>
      </trkpt>
      <trkpt lat="31.221967041492462" lon="-4.841694971546531">
        <ele>822.86699999999996</ele>
        <time>2011-01-02T12:12:07Z</time>
      </trkpt>
      <trkpt lat="31.222429974004626" lon="-4.842220013961196">
        <ele>824.18700000000001</ele>
        <time>2011-01-02T12:12:15Z</time>
      </trkpt>
      <trkpt lat="31.223075967282057" lon="-4.842566018924117">
        <ele>827.13</ele>
        <time>2011-01-02T12:12:24Z</time>
      </trkpt>
      <trkpt lat="31.223212005570531" lon="-4.842641036957502">
        <ele>827.68899999999996</ele>
        <time>2011-01-02T12:12:26Z</time>
      </trkpt>
      <trkpt lat="31.223555998876691" lon="-4.842640031129122">
        <ele>830.00800000000004</ele>
        <time>2011-01-02T12:12:31Z</time>
      </trkpt>
      <trkpt lat="31.223690025508404" lon="-4.842593008652329">
        <ele>830.54700000000003</ele>
        <time>2011-01-02T12:12:33Z</time>
      </trkpt>
      <trkpt lat="31.224065031856298" lon="-4.842477003112435">
        <ele>828.84199999999998</ele>
        <time>2011-01-02T12:12:39Z</time>
      </trkpt>
      <trkpt lat="31.22436803765595" lon="-4.842209033668041">
        <ele>829.64300000000003</ele>
        <time>2011-01-02T12:12:45Z</time>
      </trkpt>
      <trkpt lat="31.224582027643919" lon="-4.841989008709788">
        <ele>830.44200000000001</ele>
        <time>2011-01-02T12:12:49Z</time>
      </trkpt>
      <trkpt lat="31.224999027326703" lon="-4.841516017913818">
        <ele>828.33100000000002</ele>
        <time>2011-01-02T12:12:54Z</time>
      </trkpt>
      <trkpt lat="31.225214023143053" lon="-4.841637974604964">
        <ele>828.54200000000003</ele>
        <time>2011-01-02T12:12:58Z</time>
      </trkpt>
      <trkpt lat="31.225542007014155" lon="-4.84182296320796">
        <ele>827.94299999999998</ele>
        <time>2011-01-02T12:13:04Z</time>
      </trkpt>
      <trkpt lat="31.226555965840816" lon="-4.841061970219016">
        <ele>826.19200000000001</ele>
        <time>2011-01-02T12:13:15Z</time>
      </trkpt>
      <trkpt lat="31.226703990250826" lon="-4.841006984934211">
        <ele>826.072</ele>
        <time>2011-01-02T12:13:17Z</time>
      </trkpt>
      <trkpt lat="31.226812032982707" lon="-4.840782014653087">
        <ele>825.28099999999995</ele>
        <time>2011-01-02T12:13:22Z</time>
      </trkpt>
      <trkpt lat="31.227004984393716" lon="-4.840460987761617">
        <ele>825.56200000000001</ele>
        <time>2011-01-02T12:13:27Z</time>
      </trkpt>
      <trkpt lat="31.227799002081156" lon="-4.839834021404386">
        <ele>826.44000000000005</ele>
        <time>2011-01-02T12:13:39Z</time>
      </trkpt>
      <trkpt lat="31.228248020634055" lon="-4.839291041716933">
        <ele>826.89099999999996</ele>
        <time>2011-01-02T12:13:48Z</time>
      </trkpt>
      <trkpt lat="31.228714976459742" lon="-4.838713025674224">
        <ele>825.88999999999999</ele>
        <time>2011-01-02T12:13:57Z</time>
      </trkpt>
      <trkpt lat="31.229156032204628" lon="-4.838127968832851">
        <ele>824.25900000000001</ele>
        <time>2011-01-02T12:14:07Z</time>
      </trkpt>
      <trkpt lat="31.229313025251031" lon="-4.837922025471926">
        <ele>824.09000000000003</ele>
        <time>2011-01-02T12:14:10Z</time>
      </trkpt>
      <trkpt lat="31.229595998302102" lon="-4.837748017162085">
        <ele>825.73099999999999</ele>
        <time>2011-01-02T12:14:14Z</time>
      </trkpt>
      <trkpt lat="31.23017099685967" lon="-4.837609967216849">
        <ele>830.67999999999995</ele>
        <time>2011-01-02T12:14:22Z</time>
      </trkpt>
      <trkpt lat="31.230388004332781" lon="-4.837396983057261">
        <ele>829.20799999999997</ele>
        <time>2011-01-02T12:14:27Z</time>
      </trkpt>
      <trkpt lat="31.230661002919078" lon="-4.836780996993184">
        <ele>829.26800000000003</ele>
        <time>2011-01-02T12:14:36Z</time>
      </trkpt>
      <trkpt lat="31.230853032320738" lon="-4.836242040619254">
        <ele>828.13699999999994</ele>
        <time>2011-01-02T12:14:45Z</time>
      </trkpt>
      <trkpt lat="31.231186967343092" lon="-4.835758991539478">
        <ele>827.51700000000005</ele>
        <time>2011-01-02T12:14:55Z</time>
      </trkpt>
      <trkpt lat="31.231446973979473" lon="-4.835277032107115">
        <ele>826.71000000000004</ele>
        <time>2011-01-02T12:15:04Z</time>
      </trkpt>
      <trkpt lat="31.231548981741071" lon="-4.834904037415981">
        <ele>826.93899999999996</ele>
        <time>2011-01-02T12:15:09Z</time>
      </trkpt>
      <trkpt lat="31.231646966189146" lon="-4.834661968052387">
        <ele>826.15599999999995</ele>
        <time>2011-01-02T12:15:12Z</time>
      </trkpt>
      <trkpt lat="31.23171603307128" lon="-4.834026033058763">
        <ele>832.40899999999999</ele>
        <time>2011-01-02T12:15:19Z</time>
      </trkpt>
      <trkpt lat="31.23189196921885" lon="-4.83322698622942">
        <ele>836.88199999999995</ele>
        <time>2011-01-02T12:15:28Z</time>
      </trkpt>
      <trkpt lat="31.232350962236524" lon="-4.83245400711894">
        <ele>834.36599999999999</ele>
        <time>2011-01-02T12:15:38Z</time>
      </trkpt>
      <trkpt lat="31.232600994408131" lon="-4.832047987729311">
        <ele>832.56700000000001</ele>
        <time>2011-01-02T12:15:44Z</time>
      </trkpt>
      <trkpt lat="31.233300967141986" lon="-4.831319013610482">
        <ele>832.86000000000001</ele>
        <time>2011-01-02T12:15:55Z</time>
      </trkpt>
      <trkpt lat="31.233964981511235" lon="-4.830824984237552">
        <ele>832.75099999999998</ele>
        <time>2011-01-02T12:16:04Z</time>
      </trkpt>
      <trkpt lat="31.234567975625396" lon="-4.830308994278312">
        <ele>834.84100000000001</ele>
        <time>2011-01-02T12:16:13Z</time>
      </trkpt>
      <trkpt lat="31.234925966709852" lon="-4.830185025930405">
        <ele>834.35900000000004</ele>
        <time>2011-01-02T12:16:17Z</time>
      </trkpt>
      <trkpt lat="31.2359509896487" lon="-4.830058962106705">
        <ele>839.63099999999997</ele>
        <time>2011-01-02T12:16:26Z</time>
      </trkpt>
      <trkpt lat="31.23674500733614" lon="-4.829758973792195">
        <ele>838.36900000000003</ele>
        <time>2011-01-02T12:16:34Z</time>
      </trkpt>
      <trkpt lat="31.237431988120079" lon="-4.829237032681704">
        <ele>838.74599999999998</ele>
        <time>2011-01-02T12:16:42Z</time>
      </trkpt>
      <trkpt lat="31.238287026062608" lon="-4.828389035537839">
        <ele>837.40499999999997</ele>
        <time>2011-01-02T12:16:53Z</time>
      </trkpt>
      <trkpt lat="31.239340966567397" lon="-4.82736099511385">
        <ele>835.23500000000001</ele>
        <time>2011-01-02T12:17:07Z</time>
      </trkpt>
      <trkpt lat="31.239816974848509" lon="-4.826917005702853">
        <ele>835.42700000000002</ele>
        <time>2011-01-02T12:17:14Z</time>
      </trkpt>
      <trkpt lat="31.240336988121271" lon="-4.826161041855812">
        <ele>835.16399999999999</ele>
        <time>2011-01-02T12:17:23Z</time>
      </trkpt>
      <trkpt lat="31.240815008059144" lon="-4.825468026101589">
        <ele>834.75800000000004</ele>
        <time>2011-01-02T12:17:32Z</time>
      </trkpt>
      <trkpt lat="31.241385983303189" lon="-4.824663028120995">
        <ele>834.20399999999995</ele>
        <time>2011-01-02T12:17:41Z</time>
      </trkpt>
      <trkpt lat="31.241999035701156" lon="-4.823797009885311">
        <ele>833.32500000000005</ele>
        <time>2011-01-02T12:17:51Z</time>
      </trkpt>
      <trkpt lat="31.2424820009619" lon="-4.823035011067987">
        <ele>833.92600000000004</ele>
        <time>2011-01-02T12:18:00Z</time>
      </trkpt>
      <trkpt lat="31.242944011464715" lon="-4.822308970615268">
        <ele>835.81600000000003</ele>
        <time>2011-01-02T12:18:08Z</time>
      </trkpt>
      <trkpt lat="31.243281969800591" lon="-4.821636993438005">
        <ele>836.673</ele>
        <time>2011-01-02T12:18:15Z</time>
      </trkpt>
      <trkpt lat="31.243324968963861" lon="-4.82153800316155">
        <ele>836.54100000000005</ele>
        <time>2011-01-02T12:18:16Z</time>
      </trkpt>
      <trkpt lat="31.243453966453671" lon="-4.820969961583614">
        <ele>839.75300000000004</ele>
        <time>2011-01-02T12:18:21Z</time>
      </trkpt>
      <trkpt lat="31.243506018072367" lon="-4.820749014616013">
        <ele>840.85199999999998</ele>
        <time>2011-01-02T12:18:23Z</time>
      </trkpt>
      <trkpt lat="31.243653958663344" lon="-4.820151971653104">
        <ele>839.14200000000005</ele>
        <time>2011-01-02T12:18:29Z</time>
      </trkpt>
      <trkpt lat="31.244079004973173" lon="-4.819357031956315">
        <ele>836.654</ele>
        <time>2011-01-02T12:18:39Z</time>
      </trkpt>
      <trkpt lat="31.244300035759807" lon="-4.819106999784708">
        <ele>836.10400000000004</ele>
        <time>2011-01-02T12:18:43Z</time>
      </trkpt>
      <trkpt lat="31.244539003819227" lon="-4.818940032273531">
        <ele>835.524</ele>
        <time>2011-01-02T12:18:46Z</time>
      </trkpt>
      <trkpt lat="31.244746036827564" lon="-4.81857399456203">
        <ele>835.61500000000001</ele>
        <time>2011-01-02T12:18:51Z</time>
      </trkpt>
      <trkpt lat="31.244800016283989" lon="-4.81840199790895">
        <ele>836.005</ele>
        <time>2011-01-02T12:18:53Z</time>
      </trkpt>
      <trkpt lat="31.244980981573462" lon="-4.818000001832843">
        <ele>836.36400000000003</ele>
        <time>2011-01-02T12:18:57Z</time>
      </trkpt>
      <trkpt lat="31.245162030681968" lon="-4.817729014903307">
        <ele>836.63499999999999</ele>
        <time>2011-01-02T12:19:00Z</time>
      </trkpt>
      <trkpt lat="31.245581964030862" lon="-4.816925022751093">
        <ele>840.43600000000004</ele>
        <time>2011-01-02T12:19:08Z</time>
      </trkpt>
      <trkpt lat="31.246110023930669" lon="-4.815915003418922">
        <ele>839.16399999999999</ele>
        <time>2011-01-02T12:19:17Z</time>
      </trkpt>
      <trkpt lat="31.246791975572705" lon="-4.814718989655376">
        <ele>838.97400000000005</ele>
        <time>2011-01-02T12:19:26Z</time>
      </trkpt>
      <trkpt lat="31.247637961059809" lon="-4.813363971188664">
        <ele>840.81600000000003</ele>
        <time>2011-01-02T12:19:35Z</time>
      </trkpt>
      <trkpt lat="31.248551001772285" lon="-4.811879033222795">
        <ele>841.16300000000001</ele>
        <time>2011-01-02T12:19:45Z</time>
      </trkpt>
      <trkpt lat="31.248942017555237" lon="-4.811185011640191">
        <ele>841.19399999999996</ele>
        <time>2011-01-02T12:19:50Z</time>
      </trkpt>
      <trkpt lat="31.249321969226003" lon="-4.810752002522349">
        <ele>841.08500000000004</ele>
        <time>2011-01-02T12:19:54Z</time>
      </trkpt>
      <trkpt lat="31.249628998339176" lon="-4.810258978977799">
        <ele>841.22500000000002</ele>
        <time>2011-01-02T12:19:58Z</time>
      </trkpt>
      <trkpt lat="31.250062007457018" lon="-4.809001022949815">
        <ele>839.524</ele>
        <time>2011-01-02T12:20:06Z</time>
      </trkpt>
      <trkpt lat="31.250226041302085" lon="-4.808392999693751">
        <ele>841.39499999999998</ele>
        <time>2011-01-02T12:20:10Z</time>
      </trkpt>
      <trkpt lat="31.250683022662997" lon="-4.807540979236364">
        <ele>841.87599999999998</ele>
        <time>2011-01-02T12:20:17Z</time>
      </trkpt>
      <trkpt lat="31.251474022865295" lon="-4.806272964924574">
        <ele>843.19399999999996</ele>
        <time>2011-01-02T12:20:27Z</time>
      </trkpt>
      <trkpt lat="31.25161400064826" lon="-4.806060986593366">
        <ele>843.43399999999997</ele>
        <time>2011-01-02T12:20:29Z</time>
      </trkpt>
      <trkpt lat="31.251866966485977" lon="-4.805605011060834">
        <ele>843.55399999999997</ele>
        <time>2011-01-02T12:20:34Z</time>
      </trkpt>
      <trkpt lat="31.252227975055575" lon="-4.805325977504253">
        <ele>847.73599999999999</ele>
        <time>2011-01-02T12:20:39Z</time>
      </trkpt>
      <trkpt lat="31.252503991127014" lon="-4.804997993633151">
        <ele>848.30499999999995</ele>
        <time>2011-01-02T12:20:43Z</time>
      </trkpt>
      <trkpt lat="31.253153001889586" lon="-4.804077995941043">
        <ele>847.10299999999995</ele>
        <time>2011-01-02T12:20:51Z</time>
      </trkpt>
      <trkpt lat="31.253721965476871" lon="-4.803333012387157">
        <ele>846.66499999999996</ele>
        <time>2011-01-02T12:20:58Z</time>
      </trkpt>
      <trkpt lat="31.254604998975992" lon="-4.802097016945481">
        <ele>845.64499999999998</ele>
        <time>2011-01-02T12:21:09Z</time>
      </trkpt>
      <trkpt lat="31.255186032503843" lon="-4.80136401951313">
        <ele>846.55499999999995</ele>
        <time>2011-01-02T12:21:15Z</time>
      </trkpt>
      <trkpt lat="31.256467960774899" lon="-4.799642963334918">
        <ele>847.90499999999997</ele>
        <time>2011-01-02T12:21:27Z</time>
      </trkpt>
      <trkpt lat="31.257257033139467" lon="-4.79850796982646">
        <ele>848.88499999999999</ele>
        <time>2011-01-02T12:21:35Z</time>
      </trkpt>
      <trkpt lat="31.257967986166477" lon="-4.797446988523006">
        <ele>849.37300000000005</ele>
        <time>2011-01-02T12:21:42Z</time>
      </trkpt>
      <trkpt lat="31.259396011009812" lon="-4.795373976230621">
        <ele>851.54399999999998</ele>
        <time>2011-01-02T12:21:55Z</time>
      </trkpt>
      <trkpt lat="31.260416004806757" lon="-4.793876968324184">
        <ele>852.92399999999998</ele>
        <time>2011-01-02T12:22:05Z</time>
      </trkpt>
      <trkpt lat="31.260945992544293" lon="-4.793118992820382">
        <ele>853.12199999999996</ele>
        <time>2011-01-02T12:22:11Z</time>
      </trkpt>
      <trkpt lat="31.261127041652799" lon="-4.792810035869479">
        <ele>853.07500000000005</ele>
        <time>2011-01-02T12:22:16Z</time>
      </trkpt>
      <trkpt lat="31.261455025523901" lon="-4.792411979287863">
        <ele>854.03499999999997</ele>
        <time>2011-01-02T12:22:22Z</time>
      </trkpt>
      <trkpt lat="31.261950982734561" lon="-4.791543027386069">
        <ele>856.17600000000004</ele>
        <time>2011-01-02T12:22:29Z</time>
      </trkpt>
      <trkpt lat="31.26255196519196" lon="-4.790585981681943">
        <ele>858.59699999999998</ele>
        <time>2011-01-02T12:22:36Z</time>
      </trkpt>
      <trkpt lat="31.263168035075068" lon="-4.789626002311707">
        <ele>861.23500000000001</ele>
        <time>2011-01-02T12:22:43Z</time>
      </trkpt>
      <trkpt lat="31.263783015310764" lon="-4.788799965754151">
        <ele>860.63099999999997</ele>
        <time>2011-01-02T12:22:50Z</time>
      </trkpt>
      <trkpt lat="31.264492040500045" lon="-4.787834035232663">
        <ele>861.154</ele>
        <time>2011-01-02T12:22:58Z</time>
      </trkpt>
      <trkpt lat="31.265422012656927" lon="-4.786565015092492">
        <ele>863.52599999999995</ele>
        <time>2011-01-02T12:23:08Z</time>
      </trkpt>
      <trkpt lat="31.266379980370402" lon="-4.785278979688883">
        <ele>864.91300000000001</ele>
        <time>2011-01-02T12:23:17Z</time>
      </trkpt>
      <trkpt lat="31.26764296554029" lon="-4.783597989007831">
        <ele>866.47400000000005</ele>
        <time>2011-01-02T12:23:28Z</time>
      </trkpt>
      <trkpt lat="31.268850965425372" lon="-4.782258979976177">
        <ele>869.28200000000004</ele>
        <time>2011-01-02T12:23:38Z</time>
      </trkpt>
      <trkpt lat="31.269545992836356" lon="-4.781501004472375">
        <ele>867.88800000000003</ele>
        <time>2011-01-02T12:23:45Z</time>
      </trkpt>
      <trkpt lat="31.270549977198243" lon="-4.780389983206987">
        <ele>871.56200000000001</ele>
        <time>2011-01-02T12:23:54Z</time>
      </trkpt>
      <trkpt lat="31.271337037906051" lon="-4.779498986899853">
        <ele>867.89099999999996</ele>
        <time>2011-01-02T12:24:02Z</time>
      </trkpt>
      <trkpt lat="31.271944977343082" lon="-4.778815023601055">
        <ele>864.97000000000003</ele>
        <time>2011-01-02T12:24:09Z</time>
      </trkpt>
      <trkpt lat="31.272582001984119" lon="-4.778113961219788">
        <ele>866.40499999999997</ele>
        <time>2011-01-02T12:24:16Z</time>
      </trkpt>
      <trkpt lat="31.273501999676228" lon="-4.77721500210464">
        <ele>868.81399999999996</ele>
        <time>2011-01-02T12:24:24Z</time>
      </trkpt>
      <trkpt lat="31.275623040273786" lon="-4.775595031678677">
        <ele>870.44200000000001</ele>
        <time>2011-01-02T12:24:40Z</time>
      </trkpt>
      <trkpt lat="31.277262037619948" lon="-4.774340009316802">
        <ele>876.45100000000002</ele>
        <time>2011-01-02T12:24:52Z</time>
      </trkpt>
      <trkpt lat="31.278241965919733" lon="-4.773675994947553">
        <ele>872.12699999999995</ele>
        <time>2011-01-02T12:25:00Z</time>
      </trkpt>
      <trkpt lat="31.279420964419842" lon="-4.773120023310185">
        <ele>868.21600000000001</ele>
        <time>2011-01-02T12:25:09Z</time>
      </trkpt>
      <trkpt lat="31.280542965978384" lon="-4.772848030552268">
        <ele>869.69799999999998</ele>
        <time>2011-01-02T12:25:17Z</time>
      </trkpt>
      <trkpt lat="31.281743003055453" lon="-4.772232966497541">
        <ele>877.73900000000003</ele>
        <time>2011-01-02T12:25:25Z</time>
      </trkpt>
      <trkpt lat="31.281888009980321" lon="-4.772161971777678">
        <ele>877.35000000000002</ele>
        <time>2011-01-02T12:25:26Z</time>
      </trkpt>
      <trkpt lat="31.283138003200293" lon="-4.771763999015093">
        <ele>877.62800000000004</ele>
        <time>2011-01-02T12:25:35Z</time>
      </trkpt>
      <trkpt lat="31.283786008134484" lon="-4.771240968257189">
        <ele>879.57899999999995</ele>
        <time>2011-01-02T12:25:41Z</time>
      </trkpt>
      <trkpt lat="31.284557981416583" lon="-4.770316025242209">
        <ele>877.30799999999999</ele>
        <time>2011-01-02T12:25:49Z</time>
      </trkpt>
      <trkpt lat="31.284977998584509" lon="-4.769858038052917">
        <ele>873.09799999999996</ele>
        <time>2011-01-02T12:25:55Z</time>
      </trkpt>
      <trkpt lat="31.285368008539081" lon="-4.769489988684654">
        <ele>874.17999999999995</ele>
        <time>2011-01-02T12:26:01Z</time>
      </trkpt>
      <trkpt lat="31.285461969673634" lon="-4.76933098398149">
        <ele>875.46000000000004</ele>
        <time>2011-01-02T12:26:05Z</time>
      </trkpt>
      <trkpt lat="31.285773022100329" lon="-4.768941979855299">
        <ele>874.49000000000001</ele>
        <time>2011-01-02T12:26:11Z</time>
      </trkpt>
      <trkpt lat="31.286009978502989" lon="-4.76874802261591">
        <ele>873</ele>
        <time>2011-01-02T12:26:15Z</time>
      </trkpt>
      <trkpt lat="31.286230003461242" lon="-4.76846999488771">
        <ele>871.41800000000001</ele>
        <time>2011-01-02T12:26:21Z</time>
      </trkpt>
      <trkpt lat="31.286431001499295" lon="-4.767917962744832">
        <ele>871.62099999999998</ele>
        <time>2011-01-02T12:26:30Z</time>
      </trkpt>
      <trkpt lat="31.286777006462216" lon="-4.767200974747539">
        <ele>869.35000000000002</ele>
        <time>2011-01-02T12:26:37Z</time>
      </trkpt>
      <trkpt lat="31.286982027813792" lon="-4.76675103418529">
        <ele>867.38</ele>
        <time>2011-01-02T12:26:42Z</time>
      </trkpt>
      <trkpt lat="31.287432974204421" lon="-4.765961961820722">
        <ele>871.71400000000006</ele>
        <time>2011-01-02T12:26:49Z</time>
      </trkpt>
      <trkpt lat="31.288215005770326" lon="-4.764660000801086">
        <ele>880.18299999999999</ele>
        <time>2011-01-02T12:26:58Z</time>
      </trkpt>
      <trkpt lat="31.289227036759257" lon="-4.762985967099667">
        <ele>887.41200000000003</ele>
        <time>2011-01-02T12:27:09Z</time>
      </trkpt>
      <trkpt lat="31.29054400138557" lon="-4.760795021429658">
        <ele>890.89099999999996</ele>
        <time>2011-01-02T12:27:23Z</time>
      </trkpt>
      <trkpt lat="31.290679033845663" lon="-4.760554041713476">
        <ele>891.77099999999996</ele>
        <time>2011-01-02T12:27:25Z</time>
      </trkpt>
      <trkpt lat="31.290926970541477" lon="-4.759580986574292">
        <ele>892.721</ele>
        <time>2011-01-02T12:27:32Z</time>
      </trkpt>
      <trkpt lat="31.29108102992177" lon="-4.758805995807052">
        <ele>892.04100000000005</ele>
        <time>2011-01-02T12:27:38Z</time>
      </trkpt>
      <trkpt lat="31.291300971060991" lon="-4.75777099840343">
        <ele>891.14099999999996</ele>
        <time>2011-01-02T12:27:47Z</time>
      </trkpt>
      <trkpt lat="31.291442960500717" lon="-4.757025009021163">
        <ele>888.399</ele>
        <time>2011-01-02T12:27:54Z</time>
      </trkpt>
      <trkpt lat="31.291553014889359" lon="-4.756402987986803">
        <ele>883.97000000000003</ele>
        <time>2011-01-02T12:28:02Z</time>
      </trkpt>
      <trkpt lat="31.291615962982178" lon="-4.756191009655595">
        <ele>882.23000000000002</ele>
        <time>2011-01-02T12:28:05Z</time>
      </trkpt>
      <trkpt lat="31.291666002944112" lon="-4.755892027169466">
        <ele>882.76099999999997</ele>
        <time>2011-01-02T12:28:09Z</time>
      </trkpt>
      <trkpt lat="31.291830036789179" lon="-4.755218960344791">
        <ele>887.41399999999999</ele>
        <time>2011-01-02T12:28:18Z</time>
      </trkpt>
      <trkpt lat="31.291956016793847" lon="-4.754640022292733">
        <ele>888.46299999999997</ele>
        <time>2011-01-02T12:28:24Z</time>
      </trkpt>
      <trkpt lat="31.292116027325392" lon="-4.753890009596944">
        <ele>883.27800000000002</ele>
        <time>2011-01-02T12:28:32Z</time>
      </trkpt>
      <trkpt lat="31.292141005396843" lon="-4.753729999065399">
        <ele>883.47199999999998</ele>
        <time>2011-01-02T12:28:35Z</time>
      </trkpt>
      <trkpt lat="31.292268997058272" lon="-4.753129016608">
        <ele>882.95100000000002</ele>
        <time>2011-01-02T12:28:42Z</time>
      </trkpt>
      <trkpt lat="31.292488016188145" lon="-4.752071974799037">
        <ele>879.16399999999999</ele>
        <time>2011-01-02T12:28:50Z</time>
      </trkpt>
      <trkpt lat="31.292636040598154" lon="-4.751356998458505">
        <ele>875.84400000000005</ele>
        <time>2011-01-02T12:28:56Z</time>
      </trkpt>
      <trkpt lat="31.292832009494305" lon="-4.7504230029881">
        <ele>872.303</ele>
        <time>2011-01-02T12:29:03Z</time>
      </trkpt>
      <trkpt lat="31.293118000030518" lon="-4.749149959534407">
        <ele>876.87599999999998</ele>
        <time>2011-01-02T12:29:12Z</time>
      </trkpt>
      <trkpt lat="31.293481020256877" lon="-4.74750199355185">
        <ele>873.01300000000003</ele>
        <time>2011-01-02T12:29:23Z</time>
      </trkpt>
      <trkpt lat="31.293700039386749" lon="-4.746508989483118">
        <ele>872.09400000000005</ele>
        <time>2011-01-02T12:29:31Z</time>
      </trkpt>
      <trkpt lat="31.293965997174382" lon="-4.745311969891191">
        <ele>869.774</ele>
        <time>2011-01-02T12:29:40Z</time>
      </trkpt>
      <trkpt lat="31.294228015467525" lon="-4.744223998859525">
        <ele>868.32600000000002</ele>
        <time>2011-01-02T12:29:48Z</time>
      </trkpt>
      <trkpt lat="31.294465977698565" lon="-4.743192018941045">
        <ele>866.82799999999997</ele>
        <time>2011-01-02T12:29:57Z</time>
      </trkpt>
      <trkpt lat="31.294794967398047" lon="-4.741757959127426">
        <ele>876.77999999999997</ele>
        <time>2011-01-02T12:30:06Z</time>
      </trkpt>
      <trkpt lat="31.295310035347939" lon="-4.74013396538794">
        <ele>880.99099999999999</ele>
        <time>2011-01-02T12:30:16Z</time>
      </trkpt>
      <trkpt lat="31.295767016708851" lon="-4.739039959385991">
        <ele>887.45000000000005</ele>
        <time>2011-01-02T12:30:24Z</time>
      </trkpt>
      <trkpt lat="31.295942030847073" lon="-4.738613991066814">
        <ele>889.24900000000002</ele>
        <time>2011-01-02T12:30:29Z</time>
      </trkpt>
      <trkpt lat="31.296219974756241" lon="-4.737980989739299">
        <ele>895.274</ele>
        <time>2011-01-02T12:30:35Z</time>
      </trkpt>
      <trkpt lat="31.296391971409321" lon="-4.737397022545338">
        <ele>900.19799999999998</ele>
        <time>2011-01-02T12:30:41Z</time>
      </trkpt>
      <trkpt lat="31.29645399749279" lon="-4.73699402064085">
        <ele>904.03899999999999</ele>
        <time>2011-01-02T12:30:45Z</time>
      </trkpt>
      <trkpt lat="31.296458020806313" lon="-4.736302010715008">
        <ele>909.077</ele>
        <time>2011-01-02T12:30:50Z</time>
      </trkpt>
      <trkpt lat="31.296230033040047" lon="-4.734968030825257">
        <ele>910.11400000000003</ele>
        <time>2011-01-02T12:31:00Z</time>
      </trkpt>
      <trkpt lat="31.296247970312834" lon="-4.733926998451352">
        <ele>908.67700000000002</ele>
        <time>2011-01-02T12:31:07Z</time>
      </trkpt>
      <trkpt lat="31.296561034396291" lon="-4.732846990227699">
        <ele>906.57799999999997</ele>
        <time>2011-01-02T12:31:14Z</time>
      </trkpt>
      <trkpt lat="31.29720501601696" lon="-4.731463976204395">
        <ele>905.83900000000006</ele>
        <time>2011-01-02T12:31:24Z</time>
      </trkpt>
      <trkpt lat="31.297666020691395" lon="-4.730437025427818">
        <ele>907.90999999999997</ele>
        <time>2011-01-02T12:31:32Z</time>
      </trkpt>
      <trkpt lat="31.29770097322762" lon="-4.730324959382415">
        <ele>907.90899999999999</ele>
        <time>2011-01-02T12:31:33Z</time>
      </trkpt>
      <trkpt lat="31.298158038407564" lon="-4.729448966681957">
        <ele>911.67100000000005</ele>
        <time>2011-01-02T12:31:42Z</time>
      </trkpt>
      <trkpt lat="31.298676040023565" lon="-4.728477001190186">
        <ele>913.64999999999998</ele>
        <time>2011-01-02T12:31:49Z</time>
      </trkpt>
      <trkpt lat="31.298814006149769" lon="-4.728196039795876">
        <ele>914.25300000000004</ele>
        <time>2011-01-02T12:31:51Z</time>
      </trkpt>
      <trkpt lat="31.298977034166455" lon="-4.727445021271706">
        <ele>915.37300000000005</ele>
        <time>2011-01-02T12:31:56Z</time>
      </trkpt>
      <trkpt lat="31.299001006409526" lon="-4.727180991321802">
        <ele>916.04200000000003</ele>
        <time>2011-01-02T12:31:58Z</time>
      </trkpt>
      <trkpt lat="31.299259001389146" lon="-4.726153034716845">
        <ele>918.49300000000005</ele>
        <time>2011-01-02T12:32:05Z</time>
      </trkpt>
      <trkpt lat="31.29969603382051" lon="-4.72519900649786">
        <ele>921.00400000000002</ele>
        <time>2011-01-02T12:32:11Z</time>
      </trkpt>
      <trkpt lat="31.300109010189772" lon="-4.724466009065509">
        <ele>920.67999999999995</ele>
        <time>2011-01-02T12:32:17Z</time>
      </trkpt>
      <trkpt lat="31.300801020115614" lon="-4.723229007795453">
        <ele>920.05200000000002</ele>
        <time>2011-01-02T12:32:27Z</time>
      </trkpt>
      <trkpt lat="31.301421029493213" lon="-4.722080016508699">
        <ele>921.23199999999997</ele>
        <time>2011-01-02T12:32:36Z</time>
      </trkpt>
      <trkpt lat="31.301493030041456" lon="-4.721511974930763">
        <ele>915.279</ele>
        <time>2011-01-02T12:32:44Z</time>
      </trkpt>
      <trkpt lat="31.301511973142624" lon="-4.721384989097714">
        <ele>916.70399999999995</ele>
        <time>2011-01-02T12:32:46Z</time>
      </trkpt>
      <trkpt lat="31.301681036129594" lon="-4.721049964427948">
        <ele>918.41499999999996</ele>
        <time>2011-01-02T12:32:50Z</time>
      </trkpt>
      <trkpt lat="31.302107004448771" lon="-4.720445964485407">
        <ele>918.52099999999996</ele>
        <time>2011-01-02T12:32:56Z</time>
      </trkpt>
      <trkpt lat="31.302822986617684" lon="-4.719870965927839">
        <ele>921.13499999999999</ele>
        <time>2011-01-02T12:33:03Z</time>
      </trkpt>
      <trkpt lat="31.302933963015676" lon="-4.71980701200664">
        <ele>921.60799999999995</ele>
        <time>2011-01-02T12:33:04Z</time>
      </trkpt>
      <trkpt lat="31.303610969334841" lon="-4.719621017575264">
        <ele>922.995</ele>
        <time>2011-01-02T12:33:10Z</time>
      </trkpt>
      <trkpt lat="31.303870975971222" lon="-4.719397975131869">
        <ele>923.14300000000003</ele>
        <time>2011-01-02T12:33:15Z</time>
      </trkpt>
      <trkpt lat="31.303899977356195" lon="-4.718867987394333">
        <ele>924.73599999999999</ele>
        <time>2011-01-02T12:33:20Z</time>
      </trkpt>
      <trkpt lat="31.303871981799603" lon="-4.718748964369297">
        <ele>924.93499999999995</ele>
        <time>2011-01-02T12:33:21Z</time>
      </trkpt>
      <trkpt lat="31.303730998188257" lon="-4.717901973053813">
        <ele>925.86300000000006</ele>
        <time>2011-01-02T12:33:28Z</time>
      </trkpt>
      <trkpt lat="31.303663020953536" lon="-4.717659987509251">
        <ele>926.33500000000004</ele>
        <time>2011-01-02T12:33:31Z</time>
      </trkpt>
      <trkpt lat="31.303605018183589" lon="-4.717246005311608">
        <ele>926.505</ele>
        <time>2011-01-02T12:33:38Z</time>
      </trkpt>
      <trkpt lat="31.303700990974903" lon="-4.716869993135333">
        <ele>926.80399999999997</ele>
        <time>2011-01-02T12:33:43Z</time>
      </trkpt>
      <trkpt lat="31.304342960938811" lon="-4.715925017371774">
        <ele>927.72500000000002</ele>
        <time>2011-01-02T12:33:54Z</time>
      </trkpt>
      <trkpt lat="31.305269999429584" lon="-4.714916003867984">
        <ele>928.32600000000002</ele>
        <time>2011-01-02T12:34:05Z</time>
      </trkpt>
      <trkpt lat="31.305663026869297" lon="-4.714344022795558">
        <ele>929.43600000000004</ele>
        <time>2011-01-02T12:34:11Z</time>
      </trkpt>
      <trkpt lat="31.306068040430546" lon="-4.713552016764879">
        <ele>931.29499999999996</ele>
        <time>2011-01-02T12:34:18Z</time>
      </trkpt>
      <trkpt lat="31.30618697963655" lon="-4.713285975158215">
        <ele>931.65599999999995</ele>
        <time>2011-01-02T12:34:22Z</time>
      </trkpt>
      <trkpt lat="31.306231990456581" lon="-4.713155971840024">
        <ele>932.02599999999995</ele>
        <time>2011-01-02T12:34:24Z</time>
      </trkpt>
      <trkpt lat="31.306599033996463" lon="-4.712357008829713">
        <ele>933.09500000000003</ele>
        <time>2011-01-02T12:34:32Z</time>
      </trkpt>
      <trkpt lat="31.307029025629163" lon="-4.711691988632083">
        <ele>934.63699999999994</ele>
        <time>2011-01-02T12:34:40Z</time>
      </trkpt>
      <trkpt lat="31.307706031948328" lon="-4.710948010906577">
        <ele>936.92700000000002</ele>
        <time>2011-01-02T12:34:49Z</time>
      </trkpt>
      <trkpt lat="31.308050025254488" lon="-4.710679035633802">
        <ele>938.12599999999998</ele>
        <time>2011-01-02T12:34:53Z</time>
      </trkpt>
      <trkpt lat="31.308279018849134" lon="-4.710349040105939">
        <ele>938.90499999999997</ele>
        <time>2011-01-02T12:34:57Z</time>
      </trkpt>
      <trkpt lat="31.30861597135663" lon="-4.709478998556733">
        <ele>939.06299999999999</ele>
        <time>2011-01-02T12:35:06Z</time>
      </trkpt>
      <trkpt lat="31.308843037113547" lon="-4.708773996680975">
        <ele>939.74400000000003</ele>
        <time>2011-01-02T12:35:15Z</time>
      </trkpt>
      <trkpt lat="31.308921994641423" lon="-4.707963969558477">
        <ele>940.255</ele>
        <time>2011-01-02T12:35:22Z</time>
      </trkpt>
      <trkpt lat="31.308876983821392" lon="-4.706907011568546">
        <ele>942.20500000000004</ele>
        <time>2011-01-02T12:35:30Z</time>
      </trkpt>
      <trkpt lat="31.308867009356618" lon="-4.706769967451692">
        <ele>942.41399999999999</ele>
        <time>2011-01-02T12:35:31Z</time>
      </trkpt>
      <trkpt lat="31.308628041297197" lon="-4.705254016444087">
        <ele>943.41300000000001</ele>
        <time>2011-01-02T12:35:42Z</time>
      </trkpt>
      <trkpt lat="31.308599961921573" lon="-4.705126024782658">
        <ele>943.57399999999996</ele>
        <time>2011-01-02T12:35:43Z</time>
      </trkpt>
      <trkpt lat="31.308525027707219" lon="-4.704885967075825">
        <ele>943.54399999999998</ele>
        <time>2011-01-02T12:35:45Z</time>
      </trkpt>
      <trkpt lat="31.308389995247126" lon="-4.7039910312742">
        <ele>943.61900000000003</ele>
        <time>2011-01-02T12:35:53Z</time>
      </trkpt>
      <trkpt lat="31.308061005547643" lon="-4.703414021059871">
        <ele>942.24800000000005</ele>
        <time>2011-01-02T12:35:59Z</time>
      </trkpt>
      <trkpt lat="31.307759005576372" lon="-4.70304798334837">
        <ele>940.71799999999996</ele>
        <time>2011-01-02T12:36:03Z</time>
      </trkpt>
      <trkpt lat="31.307055009528995" lon="-4.702597036957741">
        <ele>938.58600000000001</ele>
        <time>2011-01-02T12:36:10Z</time>
      </trkpt>
      <trkpt lat="31.306288987398148" lon="-4.702271986752749">
        <ele>938.12599999999998</ele>
        <time>2011-01-02T12:36:18Z</time>
      </trkpt>
      <trkpt lat="31.305834017693996" lon="-4.702137960121036">
        <ele>936.54600000000005</ele>
        <time>2011-01-02T12:36:23Z</time>
      </trkpt>
      <trkpt lat="31.305611981078982" lon="-4.701923970133066">
        <ele>933.65499999999997</ele>
        <time>2011-01-02T12:36:27Z</time>
      </trkpt>
      <trkpt lat="31.305352980270982" lon="-4.701529014855623">
        <ele>929.62699999999995</ele>
        <time>2011-01-02T12:36:35Z</time>
      </trkpt>
      <trkpt lat="31.305358009412885" lon="-4.701218968257308">
        <ele>932.34900000000005</ele>
        <time>2011-01-02T12:36:41Z</time>
      </trkpt>
      <trkpt lat="31.305728992447257" lon="-4.700560988858342">
        <ele>935.55999999999995</ele>
        <time>2011-01-02T12:36:48Z</time>
      </trkpt>
      <trkpt lat="31.306303991004825" lon="-4.699505958706141">
        <ele>939.72699999999998</ele>
        <time>2011-01-02T12:36:56Z</time>
      </trkpt>
      <trkpt lat="31.307148970663548" lon="-4.697911972180009">
        <ele>945.96699999999998</ele>
        <time>2011-01-02T12:37:08Z</time>
      </trkpt>
      <trkpt lat="31.30814197473228" lon="-4.696033000946045">
        <ele>951.85599999999999</ele>
        <time>2011-01-02T12:37:21Z</time>
      </trkpt>
      <trkpt lat="31.308748992159963" lon="-4.69494997523725">
        <ele>955.14599999999996</ele>
        <time>2011-01-02T12:37:29Z</time>
      </trkpt>
      <trkpt lat="31.309341005980968" lon="-4.693764019757509">
        <ele>957.51499999999999</ele>
        <time>2011-01-02T12:37:38Z</time>
      </trkpt>
      <trkpt lat="31.310014994814992" lon="-4.692622991278768">
        <ele>960.27499999999998</ele>
        <time>2011-01-02T12:37:47Z</time>
      </trkpt>
      <trkpt lat="31.310668028891087" lon="-4.691652031615377">
        <ele>962.93600000000004</ele>
        <time>2011-01-02T12:37:55Z</time>
      </trkpt>
      <trkpt lat="31.311788018792868" lon="-4.690303970128298">
        <ele>965.72799999999995</ele>
        <time>2011-01-02T12:38:06Z</time>
      </trkpt>
      <trkpt lat="31.312065040692687" lon="-4.68998403288424">
        <ele>966.14599999999996</ele>
        <time>2011-01-02T12:38:10Z</time>
      </trkpt>
      <trkpt lat="31.312614977359772" lon="-4.689418002963066">
        <ele>967.875</ele>
        <time>2011-01-02T12:38:17Z</time>
      </trkpt>
      <trkpt lat="31.313489964231849" lon="-4.688582997769117">
        <ele>970.22500000000002</ele>
        <time>2011-01-02T12:38:27Z</time>
      </trkpt>
      <trkpt lat="31.313987011089921" lon="-4.687938010320067">
        <ele>972.096</ele>
        <time>2011-01-02T12:38:33Z</time>
      </trkpt>
      <trkpt lat="31.314831990748644" lon="-4.686832018196583">
        <ele>975.50900000000001</ele>
        <time>2011-01-02T12:38:42Z</time>
      </trkpt>
      <trkpt lat="31.315385028719902" lon="-4.686070019379258">
        <ele>976.42200000000003</ele>
        <time>2011-01-02T12:38:49Z</time>
      </trkpt>
      <trkpt lat="31.31551000289619" lon="-4.685932975262404">
        <ele>975.83100000000002</ele>
        <time>2011-01-02T12:38:51Z</time>
      </trkpt>
      <trkpt lat="31.315889032557607" lon="-4.685334004461765">
        <ele>978.22400000000005</ele>
        <time>2011-01-02T12:38:59Z</time>
      </trkpt>
      <trkpt lat="31.316379038617015" lon="-4.68461299315095">
        <ele>979.673</ele>
        <time>2011-01-02T12:39:06Z</time>
      </trkpt>
      <trkpt lat="31.316755972802639" lon="-4.68414100818336">
        <ele>979.12099999999998</ele>
        <time>2011-01-02T12:39:12Z</time>
      </trkpt>
      <trkpt lat="31.317150006070733" lon="-4.6835380140692">
        <ele>978.86000000000001</ele>
        <time>2011-01-02T12:39:18Z</time>
      </trkpt>
      <trkpt lat="31.317794993519783" lon="-4.682383993640542">
        <ele>979.31100000000004</ele>
        <time>2011-01-02T12:39:28Z</time>
      </trkpt>
      <trkpt lat="31.317949974909425" lon="-4.681959031149745">
        <ele>980.053</ele>
        <time>2011-01-02T12:39:35Z</time>
      </trkpt>
      <trkpt lat="31.318182991817594" lon="-4.681673962622881">
        <ele>980.78300000000002</ele>
        <time>2011-01-02T12:39:39Z</time>
      </trkpt>
      <trkpt lat="31.318686995655298" lon="-4.68089897185564">
        <ele>982.68399999999997</ele>
        <time>2011-01-02T12:39:47Z</time>
      </trkpt>
      <trkpt lat="31.318988995626569" lon="-4.680685987696052">
        <ele>983.36400000000003</ele>
        <time>2011-01-02T12:39:51Z</time>
      </trkpt>
      <trkpt lat="31.319874040782452" lon="-4.679967993870378">
        <ele>985.96299999999997</ele>
        <time>2011-01-02T12:40:01Z</time>
      </trkpt>
      <trkpt lat="31.319951992481947" lon="-4.679891970008612">
        <ele>986.16300000000001</ele>
        <time>2011-01-02T12:40:02Z</time>
      </trkpt>
      <trkpt lat="31.320290034636855" lon="-4.679487040266395">
        <ele>987.18200000000002</ele>
        <time>2011-01-02T12:40:07Z</time>
      </trkpt>
      <trkpt lat="31.321231992915273" lon="-4.678735015913844">
        <ele>988.74300000000005</ele>
        <time>2011-01-02T12:40:18Z</time>
      </trkpt>
      <trkpt lat="31.321922997012734" lon="-4.67805901542306">
        <ele>990.12300000000005</ele>
        <time>2011-01-02T12:40:26Z</time>
      </trkpt>
      <trkpt lat="31.322577958926558" lon="-4.67705000191927">
        <ele>990.35799999999995</ele>
        <time>2011-01-02T12:40:34Z</time>
      </trkpt>
      <trkpt lat="31.323081040754914" lon="-4.675947027280927">
        <ele>988.64200000000005</ele>
        <time>2011-01-02T12:40:42Z</time>
      </trkpt>
      <trkpt lat="31.323630977421999" lon="-4.674833994358778">
        <ele>986.05799999999999</ele>
        <time>2011-01-02T12:40:51Z</time>
      </trkpt>
      <trkpt lat="31.324206981807947" lon="-4.673893041908741">
        <ele>984.55799999999999</ele>
        <time>2011-01-02T12:40:59Z</time>
      </trkpt>
      <trkpt lat="31.324863033369184" lon="-4.672723012045026">
        <ele>983.40800000000002</ele>
        <time>2011-01-02T12:41:09Z</time>
      </trkpt>
      <trkpt lat="31.325411964207888" lon="-4.671774012967944">
        <ele>982.45799999999997</ele>
        <time>2011-01-02T12:41:17Z</time>
      </trkpt>
      <trkpt lat="31.3259950093925" lon="-4.670801963657141">
        <ele>981.21699999999998</ele>
        <time>2011-01-02T12:41:26Z</time>
      </trkpt>
      <trkpt lat="31.326630022376776" lon="-4.670107020065188">
        <ele>980.02800000000002</ele>
        <time>2011-01-02T12:41:33Z</time>
      </trkpt>
      <trkpt lat="31.32762998342514" lon="-4.669007984921336">
        <ele>977.95600000000002</ele>
        <time>2011-01-02T12:41:42Z</time>
      </trkpt>
      <trkpt lat="31.32818897254765" lon="-4.668397027999163">
        <ele>976.92700000000002</ele>
        <time>2011-01-02T12:41:48Z</time>
      </trkpt>
      <trkpt lat="31.328429030254483" lon="-4.667879026383162">
        <ele>976.15599999999995</ele>
        <time>2011-01-02T12:41:54Z</time>
      </trkpt>
      <trkpt lat="31.328461971133947" lon="-4.667567973956466">
        <ele>976.50900000000001</ele>
        <time>2011-01-02T12:42:02Z</time>
      </trkpt>
      <trkpt lat="31.3285300321877" lon="-4.667234038934112">
        <ele>977.12900000000002</ele>
        <time>2011-01-02T12:42:08Z</time>
      </trkpt>
      <trkpt lat="31.32852902635932" lon="-4.666646970435977">
        <ele>977.048</ele>
        <time>2011-01-02T12:42:18Z</time>
      </trkpt>
      <trkpt lat="31.328470017760992" lon="-4.666408002376556">
        <ele>975.98800000000006</ele>
        <time>2011-01-02T12:42:27Z</time>
      </trkpt>
      <trkpt lat="31.328491978347301" lon="-4.666218990460038">
        <ele>975.34799999999996</ele>
        <time>2011-01-02T12:42:37Z</time>
      </trkpt>
      <trkpt lat="31.328506981953979" lon="-4.665898969396949">
        <ele>974.42600000000004</ele>
        <time>2011-01-02T12:42:42Z</time>
      </trkpt>
      <trkpt lat="31.328629022464156" lon="-4.665371999144554">
        <ele>973.846</ele>
        <time>2011-01-02T12:42:50Z</time>
      </trkpt>
      <trkpt lat="31.32870496250689" lon="-4.665184998884797">
        <ele>973.55799999999999</ele>
        <time>2011-01-02T12:42:53Z</time>
      </trkpt>
      <trkpt lat="31.328815016895533" lon="-4.664756013080478">
        <ele>972.68899999999996</ele>
        <time>2011-01-02T12:42:59Z</time>
      </trkpt>
      <trkpt lat="31.329050967469811" lon="-4.664260977879167">
        <ele>971.79899999999998</ele>
        <time>2011-01-02T12:43:06Z</time>
      </trkpt>
      <trkpt lat="31.329160016030073" lon="-4.663976998999715">
        <ele>971.38900000000001</ele>
        <time>2011-01-02T12:43:09Z</time>
      </trkpt>
      <trkpt lat="31.329395966604352" lon="-4.663780024275184">
        <ele>970.45799999999997</ele>
        <time>2011-01-02T12:43:14Z</time>
      </trkpt>
      <trkpt lat="31.329781031236053" lon="-4.66400801204145">
        <ele>969.17100000000005</ele>
        <time>2011-01-02T12:43:24Z</time>
      </trkpt>
      <trkpt lat="31.330003989860415" lon="-4.664023015648127">
        <ele>970.05200000000002</ele>
        <time>2011-01-02T12:43:28Z</time>
      </trkpt>
      <trkpt lat="31.330680996179581" lon="-4.66400801204145">
        <ele>971.21100000000001</ele>
        <time>2011-01-02T12:43:36Z</time>
      </trkpt>
      <trkpt lat="31.331094978377223" lon="-4.663835009559989">
        <ele>971.76900000000001</ele>
        <time>2011-01-02T12:43:43Z</time>
      </trkpt>
      <trkpt lat="31.331528993323445" lon="-4.663162026554346">
        <ele>971.72799999999995</ele>
        <time>2011-01-02T12:43:51Z</time>
      </trkpt>
      <trkpt lat="31.332063004374504" lon="-4.662245968356729">
        <ele>971.50800000000004</ele>
        <time>2011-01-02T12:44:00Z</time>
      </trkpt>
      <trkpt lat="31.332704974338412" lon="-4.661240978166461">
        <ele>971.11699999999996</ele>
        <time>2011-01-02T12:44:09Z</time>
      </trkpt>
      <trkpt lat="31.3334930408746" lon="-4.660052005201578">
        <ele>972.12900000000002</ele>
        <time>2011-01-02T12:44:20Z</time>
      </trkpt>
      <trkpt lat="31.333984974771738" lon="-4.659243989735842">
        <ele>973.84000000000003</ele>
        <time>2011-01-02T12:44:28Z</time>
      </trkpt>
      <trkpt lat="31.33454798720777" lon="-4.658369002863765">
        <ele>973.80600000000004</ele>
        <time>2011-01-02T12:44:36Z</time>
      </trkpt>
      <trkpt lat="31.335054002702236" lon="-4.657644974067807">
        <ele>972.29600000000005</ele>
        <time>2011-01-02T12:44:44Z</time>
      </trkpt>
      <trkpt lat="31.335194986313581" lon="-4.657450011000037">
        <ele>972.22799999999995</ele>
        <time>2011-01-02T12:44:49Z</time>
      </trkpt>
      <trkpt lat="31.335294982418418" lon="-4.657365018501878">
        <ele>971.26800000000003</ele>
        <time>2011-01-02T12:47:24Z</time>
      </trkpt>
      <trkpt lat="31.335681974887848" lon="-4.656925974413753">
        <ele>970.81700000000001</ele>
        <time>2011-01-02T12:47:31Z</time>
      </trkpt>
      <trkpt lat="31.336433999240398" lon="-4.656031960621476">
        <ele>971.64999999999998</ele>
        <time>2011-01-02T12:47:42Z</time>
      </trkpt>
      <trkpt lat="31.337129026651382" lon="-4.65530700981617">
        <ele>973.77800000000002</ele>
        <time>2011-01-02T12:47:51Z</time>
      </trkpt>
      <trkpt lat="31.337378975003958" lon="-4.655043985694647">
        <ele>974.12900000000002</ele>
        <time>2011-01-02T12:47:54Z</time>
      </trkpt>
      <trkpt lat="31.337748030200601" lon="-4.654839970171452">
        <ele>974.42899999999997</ele>
        <time>2011-01-02T12:47:58Z</time>
      </trkpt>
      <trkpt lat="31.338545987382531" lon="-4.654694963246584">
        <ele>977.34199999999998</ele>
        <time>2011-01-02T12:48:06Z</time>
      </trkpt>
      <trkpt lat="31.339490963146091" lon="-4.654690017923713">
        <ele>976.71400000000006</ele>
        <time>2011-01-02T12:48:15Z</time>
      </trkpt>
      <trkpt lat="31.340466029942036" lon="-4.654858997091651">
        <ele>974.12199999999996</ele>
        <time>2011-01-02T12:48:25Z</time>
      </trkpt>
      <trkpt lat="31.340805999934673" lon="-4.654811974614859">
        <ele>973.92399999999998</ele>
        <time>2011-01-02T12:48:31Z</time>
      </trkpt>
      <trkpt lat="31.340913958847523" lon="-4.654785990715027">
        <ele>975.17700000000002</ele>
        <time>2011-01-02T12:48:41Z</time>
      </trkpt>
      <trkpt lat="31.341478982940316" lon="-4.654778027907014">
        <ele>976.24599999999998</ele>
        <time>2011-01-02T12:48:50Z</time>
      </trkpt>
      <trkpt lat="31.341776959598064" lon="-4.654790014028549">
        <ele>976.90599999999995</ele>
        <time>2011-01-02T12:48:55Z</time>
      </trkpt>
      <trkpt lat="31.341888019815087" lon="-4.655064018443227">
        <ele>977.75199999999995</ele>
        <time>2011-01-02T12:49:03Z</time>
      </trkpt>
      <trkpt lat="31.341949040070176" lon="-4.655272979289293">
        <ele>978.59199999999998</ele>
        <time>2011-01-02T12:49:10Z</time>
      </trkpt>
      <trkpt lat="31.341996984556317" lon="-4.655417986214161">
        <ele>979.47199999999998</ele>
        <time>2011-01-02T12:49:17Z</time>
      </trkpt>
      <trkpt lat="31.341863963752985" lon="-4.655450005084276">
        <ele>1013.543</ele>
        <time>2011-01-02T12:51:25Z</time>
      </trkpt>
      <trkpt lat="31.341678975149989" lon="-4.655172983184457">
        <ele>1013.151</ele>
        <time>2011-01-02T13:01:39Z</time>
      </trkpt>
      <trkpt lat="31.341806966811419" lon="-4.655364006757736">
        <ele>965.35000000000002</ele>
        <time>2011-01-02T13:02:19Z</time>
      </trkpt>
      <trkpt lat="31.341891959309578" lon="-4.65547900646925">
        <ele>958.19100000000003</ele>
        <time>2011-01-02T13:06:01Z</time>
      </trkpt>
      <trkpt lat="31.341924984008074" lon="-4.655656032264233">
        <ele>960.07299999999998</ele>
        <time>2011-01-02T13:06:51Z</time>
      </trkpt>
      <trkpt lat="31.342052975669503" lon="-4.656414007768035">
        <ele>962.73400000000004</ele>
        <time>2011-01-02T13:07:00Z</time>
      </trkpt>
      <trkpt lat="31.342294961214066" lon="-4.657484041526914">
        <ele>964.81500000000005</ele>
        <time>2011-01-02T13:07:10Z</time>
      </trkpt>
      <trkpt lat="31.342612970620394" lon="-4.658478973433375">
        <ele>967.01099999999997</ele>
        <time>2011-01-02T13:07:19Z</time>
      </trkpt>
      <trkpt lat="31.34296802803874" lon="-4.659706000238657">
        <ele>969.17999999999995</ele>
        <time>2011-01-02T13:07:29Z</time>
      </trkpt>
      <trkpt lat="31.343307998031378" lon="-4.660952975973487">
        <ele>971.65300000000002</ele>
        <time>2011-01-02T13:07:39Z</time>
      </trkpt>
      <trkpt lat="31.343746036291122" lon="-4.661827040836215">
        <ele>974.86099999999999</ele>
        <time>2011-01-02T13:07:47Z</time>
      </trkpt>
      <trkpt lat="31.344431005418301" lon="-4.662806969136">
        <ele>981.98299999999995</ele>
        <time>2011-01-02T13:07:57Z</time>
      </trkpt>
      <trkpt lat="31.345084961503744" lon="-4.663458997383714">
        <ele>986.81100000000004</ele>
        <time>2011-01-02T13:08:05Z</time>
      </trkpt>
      <trkpt lat="31.345400037243962" lon="-4.663556981831789">
        <ele>987.96900000000005</ele>
        <time>2011-01-02T13:08:09Z</time>
      </trkpt>
      <trkpt lat="31.345578990876675" lon="-4.663567040115595">
        <ele>987.74699999999996</ele>
        <time>2011-01-02T13:08:11Z</time>
      </trkpt>
      <trkpt lat="31.345919966697693" lon="-4.663615990430117">
        <ele>987.83799999999997</ele>
        <time>2011-01-02T13:08:17Z</time>
      </trkpt>
      <trkpt lat="31.346289021894336" lon="-4.663607021793723">
        <ele>990.72299999999996</ele>
        <time>2011-01-02T13:08:25Z</time>
      </trkpt>
      <trkpt lat="31.346622034907341" lon="-4.663395965471864">
        <ele>992.43399999999997</ele>
        <time>2011-01-02T13:08:30Z</time>
      </trkpt>
      <trkpt lat="31.34737498126924" lon="-4.663222962990403">
        <ele>995.16200000000003</ele>
        <time>2011-01-02T13:08:39Z</time>
      </trkpt>
      <trkpt lat="31.348196994513273" lon="-4.663389008492231">
        <ele>998.846</ele>
        <time>2011-01-02T13:08:48Z</time>
      </trkpt>
      <trkpt lat="31.34887701831758" lon="-4.663738030940294">
        <ele>1001.246</ele>
        <time>2011-01-02T13:08:56Z</time>
      </trkpt>
      <trkpt lat="31.349275996908545" lon="-4.664204986765981">
        <ele>1003.1950000000001</ele>
        <time>2011-01-02T13:09:02Z</time>
      </trkpt>
      <trkpt lat="31.349432989954948" lon="-4.664689963683486">
        <ele>1001.748</ele>
        <time>2011-01-02T13:09:08Z</time>
      </trkpt>
      <trkpt lat="31.349653014913201" lon="-4.664862966164947">
        <ele>1000.306</ele>
        <time>2011-01-02T13:09:14Z</time>
      </trkpt>
      <trkpt lat="31.349860969930887" lon="-4.664978971704841">
        <ele>1001.548</ele>
        <time>2011-01-02T13:09:20Z</time>
      </trkpt>
      <trkpt lat="31.34967296384275" lon="-4.665611973032355">
        <ele>1001.7089999999999</ele>
        <time>2011-01-02T13:09:29Z</time>
      </trkpt>
      <trkpt lat="31.349610015749931" lon="-4.665811965242028">
        <ele>1002.8</ele>
        <time>2011-01-02T13:09:33Z</time>
      </trkpt>
      <trkpt lat="31.349747981876135" lon="-4.665958983823657">
        <ele>1004.759</ele>
        <time>2011-01-02T13:09:39Z</time>
      </trkpt>
      <trkpt lat="31.349892988801003" lon="-4.665973987430334">
        <ele>1006.08</ele>
        <time>2011-01-02T13:09:42Z</time>
      </trkpt>
      <trkpt lat="31.350207980722189" lon="-4.666203986853361">
        <ele>1008.8819999999999</ele>
        <time>2011-01-02T13:09:48Z</time>
      </trkpt>
      <trkpt lat="31.350606959313154" lon="-4.666938995942473">
        <ele>1010.865</ele>
        <time>2011-01-02T13:09:58Z</time>
      </trkpt>
      <trkpt lat="31.351210959255695" lon="-4.66764098033309">
        <ele>1010.965</ele>
        <time>2011-01-02T13:10:07Z</time>
      </trkpt>
      <trkpt lat="31.351323025301099" lon="-4.667808031663299">
        <ele>1011.125</ele>
        <time>2011-01-02T13:10:09Z</time>
      </trkpt>
      <trkpt lat="31.351405000314116" lon="-4.668235005810857">
        <ele>1009.204</ele>
        <time>2011-01-02T13:10:15Z</time>
      </trkpt>
      <trkpt lat="31.351343980059028" lon="-4.668828025460243">
        <ele>1013.264</ele>
        <time>2011-01-02T13:10:25Z</time>
      </trkpt>
      <trkpt lat="31.351427966728806" lon="-4.669375028461218">
        <ele>1012.103</ele>
        <time>2011-01-02T13:10:31Z</time>
      </trkpt>
      <trkpt lat="31.351549001410604" lon="-4.670408014208078">
        <ele>1013.293</ele>
        <time>2011-01-02T13:10:39Z</time>
      </trkpt>
      <trkpt lat="31.351557970046997" lon="-4.670521002262831">
        <ele>1013.684</ele>
        <time>2011-01-02T13:10:40Z</time>
      </trkpt>
      <trkpt lat="31.351479012519121" lon="-4.670976977795363">
        <ele>1015.335</ele>
        <time>2011-01-02T13:10:44Z</time>
      </trkpt>
      <trkpt lat="31.351287988945842" lon="-4.671565974131227">
        <ele>1013.01</ele>
        <time>2011-01-02T13:10:51Z</time>
      </trkpt>
      <trkpt lat="31.351193021982908" lon="-4.672036031261087">
        <ele>1014.845</ele>
        <time>2011-01-02T13:10:58Z</time>
      </trkpt>
      <trkpt lat="31.351005015894771" lon="-4.672914035618305">
        <ele>1018.328</ele>
        <time>2011-01-02T13:11:06Z</time>
      </trkpt>
      <trkpt lat="31.350864032283425" lon="-4.674178026616573">
        <ele>1023.025</ele>
        <time>2011-01-02T13:11:16Z</time>
      </trkpt>
      <trkpt lat="31.350826984271407" lon="-4.674401991069317">
        <ele>1023.775</ele>
        <time>2011-01-02T13:11:18Z</time>
      </trkpt>
      <trkpt lat="31.350505035370588" lon="-4.675012025982142">
        <ele>1022.699</ele>
        <time>2011-01-02T13:11:25Z</time>
      </trkpt>
      <trkpt lat="31.350434962660074" lon="-4.675426008179784">
        <ele>1024.7529999999999</ele>
        <time>2011-01-02T13:11:30Z</time>
      </trkpt>
      <trkpt lat="31.350371008738875" lon="-4.676512973383069">
        <ele>1028.5150000000001</ele>
        <time>2011-01-02T13:11:38Z</time>
      </trkpt>
      <trkpt lat="31.350334966555238" lon="-4.676993004977703">
        <ele>1030.0899999999999</ele>
        <time>2011-01-02T13:11:42Z</time>
      </trkpt>
      <trkpt lat="31.350462036207318" lon="-4.677798002958298">
        <ele>1029.472</ele>
        <time>2011-01-02T13:11:50Z</time>
      </trkpt>
      <trkpt lat="31.350569995120168" lon="-4.678353974595666">
        <ele>1030.0809999999999</ele>
        <time>2011-01-02T13:11:55Z</time>
      </trkpt>
      <trkpt lat="31.350568989291787" lon="-4.679227033630014">
        <ele>1031.48</ele>
        <time>2011-01-02T13:12:02Z</time>
      </trkpt>
      <trkpt lat="31.350637972354889" lon="-4.680130016058683">
        <ele>1031.3979999999999</ele>
        <time>2011-01-02T13:12:09Z</time>
      </trkpt>
      <trkpt lat="31.350756995379925" lon="-4.680649023503065">
        <ele>1030.2190000000001</ele>
        <time>2011-01-02T13:12:15Z</time>
      </trkpt>
      <trkpt lat="31.350796977058053" lon="-4.680891009047627">
        <ele>1030.5809999999999</ele>
        <time>2011-01-02T13:12:18Z</time>
      </trkpt>
      <trkpt lat="31.350957993417978" lon="-4.681204995140433">
        <ele>1031.4549999999999</ele>
        <time>2011-01-02T13:12:23Z</time>
      </trkpt>
      <trkpt lat="31.351095959544182" lon="-4.681566003710032">
        <ele>1031.354</ele>
        <time>2011-01-02T13:12:29Z</time>
      </trkpt>
      <trkpt lat="31.351121021434665" lon="-4.681726014241576">
        <ele>1031.595</ele>
        <time>2011-01-02T13:12:31Z</time>
      </trkpt>
      <trkpt lat="31.351412963122129" lon="-4.682703008875251">
        <ele>1033.9690000000001</ele>
        <time>2011-01-02T13:12:42Z</time>
      </trkpt>
      <trkpt lat="31.351595018059015" lon="-4.683315977454186">
        <ele>1036.5360000000001</ele>
        <time>2011-01-02T13:12:50Z</time>
      </trkpt>
      <trkpt lat="31.351827029138803" lon="-4.684104965999723">
        <ele>1040.6980000000001</ele>
        <time>2011-01-02T13:12:59Z</time>
      </trkpt>
      <trkpt lat="31.351968012750149" lon="-4.684689017012715">
        <ele>1042.9069999999999</ele>
        <time>2011-01-02T13:13:05Z</time>
      </trkpt>
      <trkpt lat="31.352119976654649" lon="-4.685321012511849">
        <ele>1044.7260000000001</ele>
        <time>2011-01-02T13:13:11Z</time>
      </trkpt>
      <trkpt lat="31.352356011047959" lon="-4.686517026275396">
        <ele>1046.4559999999999</ele>
        <time>2011-01-02T13:13:20Z</time>
      </trkpt>
      <trkpt lat="31.352304965257645" lon="-4.687586976215243">
        <ele>1049.8599999999999</ele>
        <time>2011-01-02T13:13:29Z</time>
      </trkpt>
      <trkpt lat="31.352025009691715" lon="-4.68841603025794">
        <ele>1049.087</ele>
        <time>2011-01-02T13:13:37Z</time>
      </trkpt>
      <trkpt lat="31.351903975009918" lon="-4.688777038827539">
        <ele>1046.2639999999999</ele>
        <time>2011-01-02T13:13:42Z</time>
      </trkpt>
      <trkpt lat="31.352050993591547" lon="-4.689028998836875">
        <ele>1047.6769999999999</ele>
        <time>2011-01-02T13:13:48Z</time>
      </trkpt>
      <trkpt lat="31.352447960525751" lon="-4.689077027142048">
        <ele>1048.0360000000001</ele>
        <time>2011-01-02T13:13:57Z</time>
      </trkpt>
      <trkpt lat="31.352674020454288" lon="-4.689008966088295">
        <ele>1050.78</ele>
        <time>2011-01-02T13:14:11Z</time>
      </trkpt>
      <trkpt lat="31.352909971028566" lon="-4.68899697996676">
        <ele>1050.768</ele>
        <time>2011-01-02T13:14:23Z</time>
      </trkpt>
      <trkpt lat="31.353349015116692" lon="-4.689133018255234">
        <ele>1055.079</ele>
        <time>2011-01-02T13:14:34Z</time>
      </trkpt>
      <trkpt lat="31.353767020627856" lon="-4.689477011561394">
        <ele>1060.6389999999999</ele>
        <time>2011-01-02T13:14:45Z</time>
      </trkpt>
      <trkpt lat="31.353949997574091" lon="-4.689640961587429">
        <ele>1063.489</ele>
        <time>2011-01-02T13:14:54Z</time>
      </trkpt>
      <trkpt lat="31.354138003662229" lon="-4.689870961010456">
        <ele>1066.3810000000001</ele>
        <time>2011-01-02T13:15:04Z</time>
      </trkpt>
      <trkpt lat="31.354261972010136" lon="-4.690109007060528">
        <ele>1066.5170000000001</ele>
        <time>2011-01-02T13:15:15Z</time>
      </trkpt>
      <trkpt lat="31.354374960064888" lon="-4.690422993153334">
        <ele>1066.0450000000001</ele>
        <time>2011-01-02T13:15:26Z</time>
      </trkpt>
      <trkpt lat="31.354483002796769" lon="-4.690718958154321">
        <ele>1067.818</ele>
        <time>2011-01-02T13:15:36Z</time>
      </trkpt>
      <trkpt lat="31.354569001123309" lon="-4.690981982275844">
        <ele>1069.027</ele>
        <time>2011-01-02T13:15:42Z</time>
      </trkpt>
      <trkpt lat="31.35461401194334" lon="-4.691415997222066">
        <ele>1070.0160000000001</ele>
        <time>2011-01-02T13:15:52Z</time>
      </trkpt>
      <trkpt lat="31.354620968922973" lon="-4.69166100025177">
        <ele>1070.7650000000001</ele>
        <time>2011-01-02T13:16:03Z</time>
      </trkpt>
      <trkpt lat="31.354595990851521" lon="-4.691963000223041">
        <ele>1073.145</ele>
        <time>2011-01-02T13:16:17Z</time>
      </trkpt>
      <trkpt lat="31.354522984474897" lon="-4.692254019901156">
        <ele>1075.3530000000001</ele>
        <time>2011-01-02T13:16:29Z</time>
      </trkpt>
      <trkpt lat="31.354521978646517" lon="-4.692511009052396">
        <ele>1077.444</ele>
        <time>2011-01-02T13:16:39Z</time>
      </trkpt>
      <trkpt lat="31.35455098003149" lon="-4.692892972379923">
        <ele>1079.4200000000001</ele>
        <time>2011-01-02T13:16:50Z</time>
      </trkpt>
      <trkpt lat="31.354497000575066" lon="-4.693365963175893">
        <ele>1076.9490000000001</ele>
        <time>2011-01-02T13:17:02Z</time>
      </trkpt>
      <trkpt lat="31.354423994198442" lon="-4.69372202642262">
        <ele>1079.144</ele>
        <time>2011-01-02T13:17:12Z</time>
      </trkpt>
      <trkpt lat="31.354691963642836" lon="-4.693954037502408">
        <ele>1081.3530000000001</ele>
        <time>2011-01-02T13:17:19Z</time>
      </trkpt>
      <trkpt lat="31.354826996102929" lon="-4.694101978093386">
        <ele>1084.6510000000001</ele>
        <time>2011-01-02T13:18:18Z</time>
      </trkpt>
      <trkpt lat="31.354976026341319" lon="-4.694418981671333">
        <ele>1085.1300000000001</ele>
        <time>2011-01-02T13:18:28Z</time>
      </trkpt>
      <trkpt lat="31.35506596416235" lon="-4.694591984152794">
        <ele>1083.9680000000001</ele>
        <time>2011-01-02T13:18:47Z</time>
      </trkpt>
      <trkpt lat="31.355186998844147" lon="-4.694830030202866">
        <ele>1082.7180000000001</ele>
        <time>2011-01-02T13:18:54Z</time>
      </trkpt>
      <trkpt lat="31.355296969413757" lon="-4.695192966610193">
        <ele>1081.508</ele>
        <time>2011-01-02T13:19:01Z</time>
      </trkpt>
      <trkpt lat="31.355462009087205" lon="-4.695483986288309">
        <ele>1081.941</ele>
        <time>2011-01-02T13:19:09Z</time>
      </trkpt>
      <trkpt lat="31.35562201961875" lon="-4.695800989866257">
        <ele>1082.8610000000001</ele>
        <time>2011-01-02T13:19:18Z</time>
      </trkpt>
      <trkpt lat="31.355742970481515" lon="-4.69602101482451">
        <ele>1085</ele>
        <time>2011-01-02T13:19:27Z</time>
      </trkpt>
      <trkpt lat="31.355916978791356" lon="-4.696336006745696">
        <ele>1087.421</ele>
        <time>2011-01-02T13:19:38Z</time>
      </trkpt>
      <trkpt lat="31.356045976281166" lon="-4.6965810097754">
        <ele>1089.1610000000001</ele>
        <time>2011-01-02T13:19:48Z</time>
      </trkpt>
      <trkpt lat="31.356213027611375" lon="-4.697102028876543">
        <ele>1090.8099999999999</ele>
        <time>2011-01-02T13:20:00Z</time>
      </trkpt>
      <trkpt lat="31.356305982917547" lon="-4.697405034676194">
        <ele>1092.049</ele>
        <time>2011-01-02T13:20:09Z</time>
      </trkpt>
      <trkpt lat="31.356197018176317" lon="-4.697523973882198">
        <ele>1092.97</ele>
        <time>2011-01-02T13:20:13Z</time>
      </trkpt>
      <trkpt lat="31.355999959632754" lon="-4.697578959167004">
        <ele>1094.3820000000001</ele>
        <time>2011-01-02T13:20:18Z</time>
      </trkpt>
      <trkpt lat="31.356341019272804" lon="-4.697969974949956">
        <ele>1099.702</ele>
        <time>2011-01-02T13:20:32Z</time>
      </trkpt>
      <trkpt lat="31.356466999277472" lon="-4.698182959109545">
        <ele>1102.489</ele>
        <time>2011-01-02T13:20:40Z</time>
      </trkpt>
      <trkpt lat="31.356451995670795" lon="-4.698299970477819">
        <ele>1099.7449999999999</ele>
        <time>2011-01-02T13:26:15Z</time>
      </trkpt>
      <trkpt lat="31.356517039239407" lon="-4.698638012632728">
        <ele>1096.8710000000001</ele>
        <time>2011-01-02T13:26:28Z</time>
      </trkpt>
      <trkpt lat="31.35650203563273" lon="-4.698969013988972">
        <ele>1095.6130000000001</ele>
        <time>2011-01-02T13:26:41Z</time>
      </trkpt>
      <trkpt lat="31.356587028130889" lon="-4.699386013671756">
        <ele>1093.0329999999999</ele>
        <time>2011-01-02T13:26:53Z</time>
      </trkpt>
      <trkpt lat="31.356715019792318" lon="-4.699740987271071">
        <ele>1086.72</ele>
        <time>2011-01-02T13:27:04Z</time>
      </trkpt>
      <trkpt lat="31.356836976483464" lon="-4.700064025819302">
        <ele>1086.0429999999999</ele>
        <time>2011-01-02T13:27:16Z</time>
      </trkpt>
      <trkpt lat="31.35701903142035" lon="-4.700647993013263">
        <ele>1083.25</ele>
        <time>2011-01-02T13:27:29Z</time>
      </trkpt>
      <trkpt lat="31.357131013646722" lon="-4.701260961592197">
        <ele>1083</ele>
        <time>2011-01-02T13:27:40Z</time>
      </trkpt>
      <trkpt lat="31.357199996709824" lon="-4.701663963496685">
        <ele>1079.6500000000001</ele>
        <time>2011-01-02T13:27:51Z</time>
      </trkpt>
      <trkpt lat="31.357288006693125" lon="-4.702070988714695">
        <ele>1076.539</ele>
        <time>2011-01-02T13:28:02Z</time>
      </trkpt>
      <trkpt lat="31.357352966442704" lon="-4.702513972297311">
        <ele>1074.3209999999999</ele>
        <time>2011-01-02T13:28:13Z</time>
      </trkpt>
      <trkpt lat="31.357372999191284" lon="-4.70306902192533">
        <ele>1072.28</ele>
        <time>2011-01-02T13:28:24Z</time>
      </trkpt>
      <trkpt lat="31.357389008626342" lon="-4.703696994110942">
        <ele>1070.538</ele>
        <time>2011-01-02T13:28:36Z</time>
      </trkpt>
      <trkpt lat="31.35740602388978" lon="-4.704235028475523">
        <ele>1070.6700000000001</ele>
        <time>2011-01-02T13:28:45Z</time>
      </trkpt>
      <trkpt lat="31.357331005856395" lon="-4.704767027869821">
        <ele>1071.8910000000001</ele>
        <time>2011-01-02T13:28:55Z</time>
      </trkpt>
      <trkpt lat="31.357197985053062" lon="-4.705271031707525">
        <ele>1074.0820000000001</ele>
        <time>2011-01-02T13:29:05Z</time>
      </trkpt>
      <trkpt lat="31.357098994776607" lon="-4.705580994486809">
        <ele>1074.6010000000001</ele>
        <time>2011-01-02T13:29:15Z</time>
      </trkpt>
      <trkpt lat="31.356856003403664" lon="-4.705963041633368">
        <ele>1074.451</ele>
        <time>2011-01-02T13:29:25Z</time>
      </trkpt>
      <trkpt lat="31.356606977060437" lon="-4.706359002739191">
        <ele>1077.6020000000001</ele>
        <time>2011-01-02T13:29:37Z</time>
      </trkpt>
      <trkpt lat="31.356412013992667" lon="-4.706783965229988">
        <ele>1075.9059999999999</ele>
        <time>2011-01-02T13:29:48Z</time>
      </trkpt>
      <trkpt lat="31.356271030381322" lon="-4.70730003900826">
        <ele>1075.4190000000001</ele>
        <time>2011-01-02T13:29:57Z</time>
      </trkpt>
      <trkpt lat="31.356068020686507" lon="-4.707998000085354">
        <ele>1073.117</ele>
        <time>2011-01-02T13:30:07Z</time>
      </trkpt>
      <trkpt lat="31.355904992669821" lon="-4.708491023629904">
        <ele>1071.184</ele>
        <time>2011-01-02T13:30:14Z</time>
      </trkpt>
      <trkpt lat="31.355756968259811" lon="-4.708969965577126">
        <ele>1069.472</ele>
        <time>2011-01-02T13:30:22Z</time>
      </trkpt>
      <trkpt lat="31.355611039325595" lon="-4.709561979398131">
        <ele>1069.4780000000001</ele>
        <time>2011-01-02T13:30:33Z</time>
      </trkpt>
      <trkpt lat="31.355592012405396" lon="-4.709911001846194">
        <ele>1070.1410000000001</ele>
        <time>2011-01-02T13:30:42Z</time>
      </trkpt>
      <trkpt lat="31.355571979656816" lon="-4.710386004298925">
        <ele>1071.011</ele>
        <time>2011-01-02T13:30:50Z</time>
      </trkpt>
      <trkpt lat="31.355548007413745" lon="-4.71099796704948">
        <ele>1071.7190000000001</ele>
        <time>2011-01-02T13:31:00Z</time>
      </trkpt>
      <trkpt lat="31.355547001585364" lon="-4.711138028651476">
        <ele>1071.829</ele>
        <time>2011-01-02T13:31:03Z</time>
      </trkpt>
      <trkpt lat="31.355662001296878" lon="-4.711408009752631">
        <ele>1070.047</ele>
        <time>2011-01-02T13:31:09Z</time>
      </trkpt>
      <trkpt lat="31.356187965720892" lon="-4.711723001673818">
        <ele>1064.2819999999999</ele>
        <time>2011-01-02T13:31:20Z</time>
      </trkpt>
      <trkpt lat="31.356283016502857" lon="-4.711771029978991">
        <ele>1063.9169999999999</ele>
        <time>2011-01-02T13:31:23Z</time>
      </trkpt>
      <trkpt lat="31.356435986235738" lon="-4.711854010820389">
        <ele>1063.5170000000001</ele>
        <time>2011-01-02T13:31:26Z</time>
      </trkpt>
      <trkpt lat="31.356632960960269" lon="-4.711877983063459">
        <ele>1063.107</ele>
        <time>2011-01-02T13:31:30Z</time>
      </trkpt>
      <trkpt lat="31.357016013935208" lon="-4.711714033037424">
        <ele>1063.885</ele>
        <time>2011-01-02T13:31:40Z</time>
      </trkpt>
      <trkpt lat="31.357265962287784" lon="-4.711623005568981">
        <ele>1065.6990000000001</ele>
        <time>2011-01-02T13:31:50Z</time>
      </trkpt>
      <trkpt lat="31.357507025822997" lon="-4.711557039991021">
        <ele>1068.4190000000001</ele>
        <time>2011-01-02T13:31:57Z</time>
      </trkpt>
      <trkpt lat="31.357690002769232" lon="-4.711574977263808">
        <ele>1068.748</ele>
        <time>2011-01-02T13:32:01Z</time>
      </trkpt>
      <trkpt lat="31.358462981879711" lon="-4.711772035807371">
        <ele>1068.347</ele>
        <time>2011-01-02T13:32:14Z</time>
      </trkpt>
      <trkpt lat="31.35908399708569" lon="-4.71198501996696">
        <ele>1067.9659999999999</ele>
        <time>2011-01-02T13:32:23Z</time>
      </trkpt>
      <trkpt lat="31.359327994287014" lon="-4.712224993854761">
        <ele>1066.454</ele>
        <time>2011-01-02T13:32:30Z</time>
      </trkpt>
      <trkpt lat="31.359531003981829" lon="-4.712468991056085">
        <ele>1066.251</ele>
        <time>2011-01-02T13:32:36Z</time>
      </trkpt>
      <trkpt lat="31.359613984823227" lon="-4.712829999625683">
        <ele>1062.883</ele>
        <time>2011-01-02T13:32:42Z</time>
      </trkpt>
      <trkpt lat="31.359908021986485" lon="-4.713368033990264">
        <ele>1060.2139999999999</ele>
        <time>2011-01-02T13:32:52Z</time>
      </trkpt>
      <trkpt lat="31.360213039442897" lon="-4.714106982573867">
        <ele>1060.424</ele>
        <time>2011-01-02T13:33:01Z</time>
      </trkpt>
      <trkpt lat="31.360505986958742" lon="-4.71508196555078">
        <ele>1059.7760000000001</ele>
        <time>2011-01-02T13:33:11Z</time>
      </trkpt>
      <trkpt lat="31.360961040481925" lon="-4.716607974842191">
        <ele>1059.114</ele>
        <time>2011-01-02T13:33:25Z</time>
      </trkpt>
      <trkpt lat="31.361420033499599" lon="-4.717841036617756">
        <ele>1058.6669999999999</ele>
        <time>2011-01-02T13:33:36Z</time>
      </trkpt>
      <trkpt lat="31.36180903762579" lon="-4.718931019306183">
        <ele>1056.8779999999999</ele>
        <time>2011-01-02T13:33:45Z</time>
      </trkpt>
      <trkpt lat="31.36194096878171" lon="-4.719907008111477">
        <ele>1055.598</ele>
        <time>2011-01-02T13:33:53Z</time>
      </trkpt>
      <trkpt lat="31.362250009551644" lon="-4.720981987193227">
        <ele>1053.9280000000001</ele>
        <time>2011-01-02T13:34:02Z</time>
      </trkpt>
      <trkpt lat="31.36230600066483" lon="-4.721206035465002">
        <ele>1054.1189999999999</ele>
        <time>2011-01-02T13:34:04Z</time>
      </trkpt>
      <trkpt lat="31.362463999539614" lon="-4.721646001562476">
        <ele>1054.1489999999999</ele>
        <time>2011-01-02T13:34:08Z</time>
      </trkpt>
      <trkpt lat="31.36271302588284" lon="-4.722616961225867">
        <ele>1055.298</ele>
        <time>2011-01-02T13:34:17Z</time>
      </trkpt>
      <trkpt lat="31.362785026431084" lon="-4.722929019480944">
        <ele>1055.5889999999999</ele>
        <time>2011-01-02T13:34:20Z</time>
      </trkpt>
      <trkpt lat="31.363161960616708" lon="-4.723410978913307">
        <ele>1056.509</ele>
        <time>2011-01-02T13:34:27Z</time>
      </trkpt>
      <trkpt lat="31.363920019939542" lon="-4.723984971642494">
        <ele>1057.97</ele>
        <time>2011-01-02T13:34:37Z</time>
      </trkpt>
      <trkpt lat="31.364169968292117" lon="-4.72423198632896">
        <ele>1057.3489999999999</ele>
        <time>2011-01-02T13:34:43Z</time>
      </trkpt>
      <trkpt lat="31.364723006263375" lon="-4.724835986271501">
        <ele>1059.5039999999999</ele>
        <time>2011-01-02T13:34:52Z</time>
      </trkpt>
      <trkpt lat="31.364866001531482" lon="-4.725346025079489">
        <ele>1060.049</ele>
        <time>2011-01-02T13:34:59Z</time>
      </trkpt>
      <trkpt lat="31.365060964599252" lon="-4.726393008604646">
        <ele>1063.991</ele>
        <time>2011-01-02T13:35:09Z</time>
      </trkpt>
      <trkpt lat="31.365320971235633" lon="-4.727853974327445">
        <ele>1071.7739999999999</ele>
        <time>2011-01-02T13:35:22Z</time>
      </trkpt>
      <trkpt lat="31.365299010649323" lon="-4.728278014808893">
        <ele>1074.201</ele>
        <time>2011-01-02T13:35:27Z</time>
      </trkpt>
      <trkpt lat="31.365131959319115" lon="-4.72904596477747">
        <ele>1073.913</ele>
        <time>2011-01-02T13:35:35Z</time>
      </trkpt>
      <trkpt lat="31.365016037598252" lon="-4.729266995564103">
        <ele>1074.9739999999999</ele>
        <time>2011-01-02T13:35:39Z</time>
      </trkpt>
      <trkpt lat="31.364891985431314" lon="-4.729864038527012">
        <ele>1077.6859999999999</ele>
        <time>2011-01-02T13:35:45Z</time>
      </trkpt>
      <trkpt lat="31.364684030413628" lon="-4.73104395903647">
        <ele>1081.2249999999999</ele>
        <time>2011-01-02T13:35:56Z</time>
      </trkpt>
      <trkpt lat="31.364372977986932" lon="-4.73201097920537">
        <ele>1083.894</ele>
        <time>2011-01-02T13:36:06Z</time>
      </trkpt>
      <trkpt lat="31.364201987162232" lon="-4.732298981398344">
        <ele>1085.325</ele>
        <time>2011-01-02T13:36:13Z</time>
      </trkpt>
      <trkpt lat="31.363904010504484" lon="-4.73284799605608">
        <ele>1089.3589999999999</ele>
        <time>2011-01-02T13:36:22Z</time>
      </trkpt>
      <trkpt lat="31.363820023834705" lon="-4.733129041269422">
        <ele>1090.8979999999999</ele>
        <time>2011-01-02T13:36:25Z</time>
      </trkpt>
      <trkpt lat="31.363624976947904" lon="-4.734520018100739">
        <ele>1095.0440000000001</ele>
        <time>2011-01-02T13:36:37Z</time>
      </trkpt>
      <trkpt lat="31.36340000666678" lon="-4.735871013253927">
        <ele>1087.441</ele>
        <time>2011-01-02T13:36:49Z</time>
      </trkpt>
      <trkpt lat="31.363084008917212" lon="-4.736694032326341">
        <ele>1091.7739999999999</ele>
        <time>2011-01-02T13:36:57Z</time>
      </trkpt>
      <trkpt lat="31.362913018092513" lon="-4.737124023959041">
        <ele>1094.0139999999999</ele>
        <time>2011-01-02T13:37:01Z</time>
      </trkpt>
      <trkpt lat="31.362677989527583" lon="-4.737425018101931">
        <ele>1095.0940000000001</ele>
        <time>2011-01-02T13:37:05Z</time>
      </trkpt>
      <trkpt lat="31.362364003434777" lon="-4.737715031951666">
        <ele>1096.915</ele>
        <time>2011-01-02T13:37:09Z</time>
      </trkpt>
      <trkpt lat="31.362229976803064" lon="-4.738077968358994">
        <ele>1098.9459999999999</ele>
        <time>2011-01-02T13:37:14Z</time>
      </trkpt>
      <trkpt lat="31.362221008166671" lon="-4.738553976640105">
        <ele>1101.184</ele>
        <time>2011-01-02T13:37:19Z</time>
      </trkpt>
      <trkpt lat="31.361942980438471" lon="-4.739405997097492">
        <ele>1103.9649999999999</ele>
        <time>2011-01-02T13:37:27Z</time>
      </trkpt>
      <trkpt lat="31.361853964626789" lon="-4.739698022603989">
        <ele>1104.4359999999999</ele>
        <time>2011-01-02T13:37:30Z</time>
      </trkpt>
      <trkpt lat="31.361751034855843" lon="-4.740739976987243">
        <ele>1101.943</ele>
        <time>2011-01-02T13:37:40Z</time>
      </trkpt>
      <trkpt lat="31.361679034307599" lon="-4.741482026875019">
        <ele>1101.701</ele>
        <time>2011-01-02T13:37:49Z</time>
      </trkpt>
      <trkpt lat="31.361638968810439" lon="-4.741884022951126">
        <ele>1102.5519999999999</ele>
        <time>2011-01-02T13:37:57Z</time>
      </trkpt>
      <trkpt lat="31.361540984362364" lon="-4.742588018998504">
        <ele>1104.375</ele>
        <time>2011-01-02T13:38:04Z</time>
      </trkpt>
      <trkpt lat="31.361405029892921" lon="-4.743631985038519">
        <ele>1105.0509999999999</ele>
        <time>2011-01-02T13:38:15Z</time>
      </trkpt>
      <trkpt lat="31.361272009089589" lon="-4.74447101354599">
        <ele>1105.961</ele>
        <time>2011-01-02T13:38:23Z</time>
      </trkpt>
      <trkpt lat="31.361071011051536" lon="-4.745493018999696">
        <ele>1107.104</ele>
        <time>2011-01-02T13:38:34Z</time>
      </trkpt>
      <trkpt lat="31.360920974984765" lon="-4.746507983654738">
        <ele>1108.377</ele>
        <time>2011-01-02T13:38:46Z</time>
      </trkpt>
      <trkpt lat="31.360888034105301" lon="-4.746758015826345">
        <ele>1108.297</ele>
        <time>2011-01-02T13:38:49Z</time>
      </trkpt>
      <trkpt lat="31.36101895943284" lon="-4.747336031869054">
        <ele>1106.9169999999999</ele>
        <time>2011-01-02T13:38:57Z</time>
      </trkpt>
      <trkpt lat="31.361195985227823" lon="-4.748039022088051">
        <ele>1106.3699999999999</ele>
        <time>2011-01-02T13:39:08Z</time>
      </trkpt>
      <trkpt lat="31.361352978274226" lon="-4.748498015105724">
        <ele>1107.048</ele>
        <time>2011-01-02T13:39:19Z</time>
      </trkpt>
      <trkpt lat="31.361314002424479" lon="-4.748630030080676">
        <ele>1108.896</ele>
        <time>2011-01-02T13:39:49Z</time>
      </trkpt>
      <trkpt lat="31.361213000491261" lon="-4.748551994562149">
        <ele>1112.9449999999999</ele>
        <time>2011-01-02T13:40:03Z</time>
      </trkpt>
      <trkpt lat="31.361561017110944" lon="-4.748634975403547">
        <ele>1122.585</ele>
        <time>2011-01-02T14:31:28Z</time>
      </trkpt>
      <trkpt lat="31.361496979370713" lon="-4.748766990378499">
        <ele>1115.5840000000001</ele>
        <time>2011-01-02T14:36:45Z</time>
      </trkpt>
      <trkpt lat="31.3614890165627" lon="-4.748540008440614">
        <ele>1094.8340000000001</ele>
        <time>2011-01-02T14:38:34Z</time>
      </trkpt>
      <trkpt lat="31.361437970772386" lon="-4.748435989022255">
        <ele>1043.566</ele>
        <time>2011-01-02T14:42:56Z</time>
      </trkpt>
      <trkpt lat="31.361609967425466" lon="-4.748563980683684">
        <ele>1039.7049999999999</ele>
        <time>2011-01-02T14:43:14Z</time>
      </trkpt>
      <trkpt lat="31.361782969906926" lon="-4.749134033918381">
        <ele>1038.1759999999999</ele>
        <time>2011-01-02T14:43:24Z</time>
      </trkpt>
      <trkpt lat="31.362065020948648" lon="-4.75009803660214">
        <ele>1037.193</ele>
        <time>2011-01-02T14:43:37Z</time>
      </trkpt>
      <trkpt lat="31.362180020660162" lon="-4.750473964959383">
        <ele>1034.5409999999999</ele>
        <time>2011-01-02T14:43:44Z</time>
      </trkpt>
      <trkpt lat="31.362258978188038" lon="-4.750741012394428">
        <ele>1032.615</ele>
        <time>2011-01-02T14:43:55Z</time>
      </trkpt>
      <trkpt lat="31.362442960962653" lon="-4.751373007893562">
        <ele>1034.4079999999999</ele>
        <time>2011-01-02T14:44:08Z</time>
      </trkpt>
      <trkpt lat="31.36266902089119" lon="-4.752116985619068">
        <ele>1036.068</ele>
        <time>2011-01-02T14:44:20Z</time>
      </trkpt>
      <trkpt lat="31.362824002280831" lon="-4.752639010548592">
        <ele>1040.3979999999999</ele>
        <time>2011-01-02T14:44:31Z</time>
      </trkpt>
      <trkpt lat="31.363087026402354" lon="-4.753228006884456">
        <ele>1042.4749999999999</ele>
        <time>2011-01-02T14:44:40Z</time>
      </trkpt>
      <trkpt lat="31.363418027758598" lon="-4.753935020416975">
        <ele>1044.395</ele>
        <time>2011-01-02T14:44:50Z</time>
      </trkpt>
      <trkpt lat="31.363728996366262" lon="-4.75459199398756">
        <ele>1046.1130000000001</ele>
        <time>2011-01-02T14:45:00Z</time>
      </trkpt>
      <trkpt lat="31.364018004387617" lon="-4.755162969231606">
        <ele>1047.9639999999999</ele>
        <time>2011-01-02T14:45:09Z</time>
      </trkpt>
      <trkpt lat="31.36438999325037" lon="-4.75585900247097">
        <ele>1050.991</ele>
        <time>2011-01-02T14:45:21Z</time>
      </trkpt>
      <trkpt lat="31.364464005455375" lon="-4.755960004404187">
        <ele>1050.309</ele>
        <time>2011-01-02T14:45:23Z</time>
      </trkpt>
      <trkpt lat="31.364521002396941" lon="-4.756161002442241">
        <ele>1049.1379999999999</ele>
        <time>2011-01-02T14:45:27Z</time>
      </trkpt>
      <trkpt lat="31.364584034308791" lon="-4.75688997656107">
        <ele>1051.903</ele>
        <time>2011-01-02T14:45:39Z</time>
      </trkpt>
      <trkpt lat="31.364615969359875" lon="-4.757185019552708">
        <ele>1054.454</ele>
        <time>2011-01-02T14:45:45Z</time>
      </trkpt>
      <trkpt lat="31.364770028740168" lon="-4.757347041741014">
        <ele>1059.7840000000001</ele>
        <time>2011-01-02T14:45:51Z</time>
      </trkpt>
      <trkpt lat="31.364901959896088" lon="-4.757531024515629">
        <ele>1067.4870000000001</ele>
        <time>2011-01-02T14:45:59Z</time>
      </trkpt>
      <trkpt lat="31.364882010966539" lon="-4.757897984236479">
        <ele>1076.873</ele>
        <time>2011-01-02T14:46:06Z</time>
      </trkpt>
      <trkpt lat="31.364927021786571" lon="-4.758216999471188">
        <ele>1079.4010000000001</ele>
        <time>2011-01-02T14:46:10Z</time>
      </trkpt>
      <trkpt lat="31.365277972072363" lon="-4.759204974398017">
        <ele>1078.4549999999999</ele>
        <time>2011-01-02T14:46:22Z</time>
      </trkpt>
      <trkpt lat="31.36559103615582" lon="-4.759996980428696">
        <ele>1073.164</ele>
        <time>2011-01-02T14:46:32Z</time>
      </trkpt>
      <trkpt lat="31.365821035578847" lon="-4.760283976793289">
        <ele>1071.663</ele>
        <time>2011-01-02T14:46:37Z</time>
      </trkpt>
      <trkpt lat="31.366604994982481" lon="-4.760872973129153">
        <ele>1076.904</ele>
        <time>2011-01-02T14:46:48Z</time>
      </trkpt>
      <trkpt lat="31.367241013795137" lon="-4.761137003079057">
        <ele>1078.0029999999999</ele>
        <time>2011-01-02T14:46:57Z</time>
      </trkpt>
      <trkpt lat="31.367604034021497" lon="-4.76123096421361">
        <ele>1081.654</ele>
        <time>2011-01-02T14:47:05Z</time>
      </trkpt>
      <trkpt lat="31.367990020662546" lon="-4.761235993355513">
        <ele>1087.0340000000001</ele>
        <time>2011-01-02T14:47:13Z</time>
      </trkpt>
      <trkpt lat="31.368534006178379" lon="-4.761076988652349">
        <ele>1087.155</ele>
        <time>2011-01-02T14:47:22Z</time>
      </trkpt>
      <trkpt lat="31.3687729742378" lon="-4.761111019179225">
        <ele>1086.2729999999999</ele>
        <time>2011-01-02T14:47:29Z</time>
      </trkpt>
      <trkpt lat="31.369076985865831" lon="-4.76114303804934">
        <ele>1087.9110000000001</ele>
        <time>2011-01-02T14:47:37Z</time>
      </trkpt>
      <trkpt lat="31.369651984423399" lon="-4.761155024170876">
        <ele>1096.9670000000001</ele>
        <time>2011-01-02T14:47:46Z</time>
      </trkpt>
      <trkpt lat="31.370011987164617" lon="-4.761426011100411">
        <ele>1098.9639999999999</ele>
        <time>2011-01-02T14:47:53Z</time>
      </trkpt>
      <trkpt lat="31.370224971324205" lon="-4.761678976938129">
        <ele>1097.453</ele>
        <time>2011-01-02T14:47:58Z</time>
      </trkpt>
      <trkpt lat="31.370367966592312" lon="-4.761817026883364">
        <ele>1095.8109999999999</ele>
        <time>2011-01-02T14:48:01Z</time>
      </trkpt>
      <trkpt lat="31.370502999052405" lon="-4.76213201880455">
        <ele>1092.922</ele>
        <time>2011-01-02T14:48:06Z</time>
      </trkpt>
      <trkpt lat="31.370781026780605" lon="-4.762716991826892">
        <ele>1090.2819999999999</ele>
        <time>2011-01-02T14:48:14Z</time>
      </trkpt>
      <trkpt lat="31.371089983731508" lon="-4.762952020391822">
        <ele>1088.6389999999999</ele>
        <time>2011-01-02T14:48:19Z</time>
      </trkpt>
      <trkpt lat="31.371518969535828" lon="-4.76305696181953">
        <ele>1087.991</ele>
        <time>2011-01-02T14:48:24Z</time>
      </trkpt>
      <trkpt lat="31.371938986703753" lon="-4.763061990961433">
        <ele>1087.45</ele>
        <time>2011-01-02T14:48:31Z</time>
      </trkpt>
      <trkpt lat="31.372477021068335" lon="-4.76301102899015">
        <ele>1087.9359999999999</ele>
        <time>2011-01-02T14:48:39Z</time>
      </trkpt>
      <trkpt lat="31.373046990483999" lon="-4.762955037876964">
        <ele>1103.671</ele>
        <time>2011-01-02T14:48:49Z</time>
      </trkpt>
      <trkpt lat="31.373659037053585" lon="-4.76297196932137">
        <ele>1123.471</ele>
        <time>2011-01-02T14:49:00Z</time>
      </trkpt>
      <trkpt lat="31.374067990109324" lon="-4.763153018429875">
        <ele>1137.972</ele>
        <time>2011-01-02T14:49:09Z</time>
      </trkpt>
      <trkpt lat="31.374661009758711" lon="-4.763732962310314">
        <ele>1161.373</ele>
        <time>2011-01-02T14:49:23Z</time>
      </trkpt>
      <trkpt lat="31.375053031370044" lon="-4.764186004176736">
        <ele>1163.021</ele>
        <time>2011-01-02T14:49:33Z</time>
      </trkpt>
      <trkpt lat="31.375427031889558" lon="-4.764562016353011">
        <ele>1163.6849999999999</ele>
        <time>2011-01-02T14:49:41Z</time>
      </trkpt>
      <trkpt lat="31.375728026032448" lon="-4.764925958588719">
        <ele>1164.127</ele>
        <time>2011-01-02T14:49:49Z</time>
      </trkpt>
      <trkpt lat="31.376040000468493" lon="-4.765469022095203">
        <ele>1163.1869999999999</ele>
        <time>2011-01-02T14:49:59Z</time>
      </trkpt>
      <trkpt lat="31.376521037891507" lon="-4.765792982652783">
        <ele>1161.9549999999999</ele>
        <time>2011-01-02T14:50:07Z</time>
      </trkpt>
      <trkpt lat="31.376740979030728" lon="-4.765918040648103">
        <ele>1163.559</ele>
        <time>2011-01-02T14:50:10Z</time>
      </trkpt>
      <trkpt lat="31.377195026725531" lon="-4.766226997599006">
        <ele>1162.835</ele>
        <time>2011-01-02T14:50:19Z</time>
      </trkpt>
      <trkpt lat="31.377374986186624" lon="-4.766340991482139">
        <ele>1161.7159999999999</ele>
        <time>2011-01-02T14:50:28Z</time>
      </trkpt>
      <trkpt lat="31.37751798145473" lon="-4.766433024778962">
        <ele>1162.7080000000001</ele>
        <time>2011-01-02T14:50:35Z</time>
      </trkpt>
      <trkpt lat="31.377772036939859" lon="-4.766597980633378">
        <ele>1163.857</ele>
        <time>2011-01-02T14:50:40Z</time>
      </trkpt>
      <trkpt lat="31.378231029957533" lon="-4.767146995291114">
        <ele>1164.4159999999999</ele>
        <time>2011-01-02T14:50:49Z</time>
      </trkpt>
      <trkpt lat="31.378707038238645" lon="-4.767759963870049">
        <ele>1166.9259999999999</ele>
        <time>2011-01-02T14:50:59Z</time>
      </trkpt>
      <trkpt lat="31.37910601682961" lon="-4.768537972122431">
        <ele>1163.521</ele>
        <time>2011-01-02T14:51:09Z</time>
      </trkpt>
      <trkpt lat="31.379741029813886" lon="-4.769281027838588">
        <ele>1155.3389999999999</ele>
        <time>2011-01-02T14:51:20Z</time>
      </trkpt>
      <trkpt lat="31.379936998710036" lon="-4.76948001421988">
        <ele>1154.933</ele>
        <time>2011-01-02T14:51:25Z</time>
      </trkpt>
      <trkpt lat="31.380621967837214" lon="-4.769946970045567">
        <ele>1153.47</ele>
        <time>2011-01-02T14:51:34Z</time>
      </trkpt>
      <trkpt lat="31.381575996056199" lon="-4.770585000514984">
        <ele>1152.2449999999999</ele>
        <time>2011-01-02T14:51:46Z</time>
      </trkpt>
      <trkpt lat="31.382107995450497" lon="-4.770937962457538">
        <ele>1150.6890000000001</ele>
        <time>2011-01-02T14:51:54Z</time>
      </trkpt>
      <trkpt lat="31.382851973176003" lon="-4.771442972123623">
        <ele>1149.809</ele>
        <time>2011-01-02T14:52:03Z</time>
      </trkpt>
      <trkpt lat="31.383202001452446" lon="-4.771953010931611">
        <ele>1149.116</ele>
        <time>2011-01-02T14:52:09Z</time>
      </trkpt>
      <trkpt lat="31.383716985583305" lon="-4.772923970595002">
        <ele>1149.557</ele>
        <time>2011-01-02T14:52:19Z</time>
      </trkpt>
      <trkpt lat="31.384101966395974" lon="-4.773663002997637">
        <ele>1150.6880000000001</ele>
        <time>2011-01-02T14:52:27Z</time>
      </trkpt>
      <trkpt lat="31.384594989940524" lon="-4.774590963497758">
        <ele>1151.367</ele>
        <time>2011-01-02T14:52:37Z</time>
      </trkpt>
      <trkpt lat="31.385104022920132" lon="-4.77555999532342">
        <ele>1152.4110000000001</ele>
        <time>2011-01-02T14:52:46Z</time>
      </trkpt>
      <trkpt lat="31.385196978226304" lon="-4.775997027754784">
        <ele>1152.6700000000001</ele>
        <time>2011-01-02T14:52:50Z</time>
      </trkpt>
      <trkpt lat="31.385183986276388" lon="-4.776378991082311">
        <ele>1152.259</ele>
        <time>2011-01-02T14:52:56Z</time>
      </trkpt>
      <trkpt lat="31.385151967406273" lon="-4.776796996593475">
        <ele>1154.47</ele>
        <time>2011-01-02T14:53:04Z</time>
      </trkpt>
      <trkpt lat="31.385206030681729" lon="-4.777030013501644">
        <ele>1154.942</ele>
        <time>2011-01-02T14:53:11Z</time>
      </trkpt>
      <trkpt lat="31.38537903316319" lon="-4.77710603736341">
        <ele>1155.431</ele>
        <time>2011-01-02T14:53:15Z</time>
      </trkpt>
      <trkpt lat="31.385609032586217" lon="-4.777166973799467">
        <ele>1155.5989999999999</ele>
        <time>2011-01-02T14:53:21Z</time>
      </trkpt>
      <trkpt lat="31.385816987603903" lon="-4.777445001527667">
        <ele>1154.037</ele>
        <time>2011-01-02T14:53:28Z</time>
      </trkpt>
      <trkpt lat="31.386057967320085" lon="-4.777645999565721">
        <ele>1154.01</ele>
        <time>2011-01-02T14:53:34Z</time>
      </trkpt>
      <trkpt lat="31.386245973408222" lon="-4.777850015088916">
        <ele>1154.077</ele>
        <time>2011-01-02T14:53:38Z</time>
      </trkpt>
      <trkpt lat="31.386449988931417" lon="-4.778214963153005">
        <ele>1154.338</ele>
        <time>2011-01-02T14:53:46Z</time>
      </trkpt>
      <trkpt lat="31.38658300973475" lon="-4.778330968692899">
        <ele>1154.2370000000001</ele>
        <time>2011-01-02T14:53:49Z</time>
      </trkpt>
      <trkpt lat="31.387045020237565" lon="-4.778947960585356">
        <ele>1155.3679999999999</ele>
        <time>2011-01-02T14:53:57Z</time>
      </trkpt>
      <trkpt lat="31.387932999059558" lon="-4.780197031795979">
        <ele>1156.606</ele>
        <time>2011-01-02T14:54:11Z</time>
      </trkpt>
      <trkpt lat="31.38802201487124" lon="-4.780322005972266">
        <ele>1155.806</ele>
        <time>2011-01-02T14:54:13Z</time>
      </trkpt>
      <trkpt lat="31.388080017641187" lon="-4.780429964885116">
        <ele>1154.3330000000001</ele>
        <time>2011-01-02T14:54:15Z</time>
      </trkpt>
      <trkpt lat="31.388031989336014" lon="-4.780791979283094">
        <ele>1153.4829999999999</ele>
        <time>2011-01-02T14:54:21Z</time>
      </trkpt>
      <trkpt lat="31.387940039858222" lon="-4.781028013676405">
        <ele>1154.9369999999999</ele>
        <time>2011-01-02T14:54:26Z</time>
      </trkpt>
      <trkpt lat="31.388038024306297" lon="-4.781073024496436">
        <ele>1155.4670000000001</ele>
        <time>2011-01-02T14:54:29Z</time>
      </trkpt>
      <trkpt lat="31.388498023152351" lon="-4.781175032258034">
        <ele>1158.8689999999999</ele>
        <time>2011-01-02T14:54:36Z</time>
      </trkpt>
      <trkpt lat="31.388758029788733" lon="-4.781294977292419">
        <ele>1159.902</ele>
        <time>2011-01-02T14:54:39Z</time>
      </trkpt>
      <trkpt lat="31.389028010889888" lon="-4.781570993363857">
        <ele>1160.3420000000001</ele>
        <time>2011-01-02T14:54:43Z</time>
      </trkpt>
      <trkpt lat="31.390036018565297" lon="-4.783213008195162">
        <ele>1164.7349999999999</ele>
        <time>2011-01-02T14:55:00Z</time>
      </trkpt>
      <trkpt lat="31.390652004629374" lon="-4.784403992816806">
        <ele>1164.1510000000001</ele>
        <time>2011-01-02T14:55:11Z</time>
      </trkpt>
      <trkpt lat="31.391062969341874" lon="-4.785155011340976">
        <ele>1166.146</ele>
        <time>2011-01-02T14:55:18Z</time>
      </trkpt>
      <trkpt lat="31.391161037608981" lon="-4.785326002165675">
        <ele>1166.7460000000001</ele>
        <time>2011-01-02T14:55:20Z</time>
      </trkpt>
      <trkpt lat="31.391423977911472" lon="-4.785990016534925">
        <ele>1168.355</ele>
        <time>2011-01-02T14:55:27Z</time>
      </trkpt>
      <trkpt lat="31.391999982297421" lon="-4.787015039473772">
        <ele>1171.0340000000001</ele>
        <time>2011-01-02T14:55:37Z</time>
      </trkpt>
      <trkpt lat="31.392817972227931" lon="-4.788121031597257">
        <ele>1169.3320000000001</ele>
        <time>2011-01-02T14:55:47Z</time>
      </trkpt>
      <trkpt lat="31.393147967755795" lon="-4.788509029895067">
        <ele>1167.2909999999999</ele>
        <time>2011-01-02T14:55:51Z</time>
      </trkpt>
      <trkpt lat="31.393313007429242" lon="-4.788792002946138">
        <ele>1165.8879999999999</ele>
        <time>2011-01-02T14:55:54Z</time>
      </trkpt>
      <trkpt lat="31.393715003505349" lon="-4.78933297097683">
        <ele>1161.4400000000001</ele>
        <time>2011-01-02T14:56:01Z</time>
      </trkpt>
      <trkpt lat="31.394477002322674" lon="-4.789921967312694">
        <ele>1162.6120000000001</ele>
        <time>2011-01-02T14:56:09Z</time>
      </trkpt>
      <trkpt lat="31.395147973671556" lon="-4.790490008890629">
        <ele>1160.3409999999999</ele>
        <time>2011-01-02T14:56:17Z</time>
      </trkpt>
      <trkpt lat="31.395559022203088" lon="-4.79081598110497">
        <ele>1157.979</ele>
        <time>2011-01-02T14:56:23Z</time>
      </trkpt>
      <trkpt lat="31.39620996080339" lon="-4.791171038523316">
        <ele>1158.001</ele>
        <time>2011-01-02T14:56:30Z</time>
      </trkpt>
      <trkpt lat="31.397303966805339" lon="-4.791559036821127">
        <ele>1158.1210000000001</ele>
        <time>2011-01-02T14:56:40Z</time>
      </trkpt>
      <trkpt lat="31.39850702136755" lon="-4.791819965466857">
        <ele>1154.9079999999999</ele>
        <time>2011-01-02T14:56:50Z</time>
      </trkpt>
      <trkpt lat="31.39906601049006" lon="-4.791877968236804">
        <ele>1153.8920000000001</ele>
        <time>2011-01-02T14:56:55Z</time>
      </trkpt>
      <trkpt lat="31.399557022377849" lon="-4.791985005140305">
        <ele>1152.348</ele>
        <time>2011-01-02T14:57:00Z</time>
      </trkpt>
      <trkpt lat="31.399849969893694" lon="-4.791967989876866">
        <ele>1151.4580000000001</ele>
        <time>2011-01-02T14:57:04Z</time>
      </trkpt>
      <trkpt lat="31.400041999295354" lon="-4.791884003207088">
        <ele>1152.463</ele>
        <time>2011-01-02T14:57:08Z</time>
      </trkpt>
      <trkpt lat="31.400552038103342" lon="-4.791864976286888">
        <ele>1150.922</ele>
        <time>2011-01-02T14:57:14Z</time>
      </trkpt>
      <trkpt lat="31.401642020791769" lon="-4.791908981278539">
        <ele>1154.8409999999999</ele>
        <time>2011-01-02T14:57:24Z</time>
      </trkpt>
      <trkpt lat="31.402278961613774" lon="-4.791919961571693">
        <ele>1155.6420000000001</ele>
        <time>2011-01-02T14:57:30Z</time>
      </trkpt>
      <trkpt lat="31.402619015425444" lon="-4.792048959061503">
        <ele>1151.645</ele>
        <time>2011-01-02T14:57:34Z</time>
      </trkpt>
      <trkpt lat="31.403376990929246" lon="-4.79257701896131">
        <ele>1138.1500000000001</ele>
        <time>2011-01-02T14:57:44Z</time>
      </trkpt>
      <trkpt lat="31.403652001172304" lon="-4.792757984250784">
        <ele>1133.5450000000001</ele>
        <time>2011-01-02T14:57:52Z</time>
      </trkpt>
      <trkpt lat="31.40407201834023" lon="-4.793039029464126">
        <ele>1132.056</ele>
        <time>2011-01-02T14:57:59Z</time>
      </trkpt>
      <trkpt lat="31.404269998893142" lon="-4.793195016682148">
        <ele>1131.954</ele>
        <time>2011-01-02T14:58:02Z</time>
      </trkpt>
      <trkpt lat="31.404876010492444" lon="-4.793598018586636">
        <ele>1132.4169999999999</ele>
        <time>2011-01-02T14:58:11Z</time>
      </trkpt>
      <trkpt lat="31.405480010434985" lon="-4.793771021068096">
        <ele>1132.056</ele>
        <time>2011-01-02T14:58:18Z</time>
      </trkpt>
      <trkpt lat="31.40587798319757" lon="-4.794004037976265">
        <ele>1131.9849999999999</ele>
        <time>2011-01-02T14:58:25Z</time>
      </trkpt>
      <trkpt lat="31.406078981235623" lon="-4.794395975768566">
        <ele>1132.7170000000001</ele>
        <time>2011-01-02T14:58:30Z</time>
      </trkpt>
      <trkpt lat="31.40664903447032" lon="-4.794934010133147">
        <ele>1133.9200000000001</ele>
        <time>2011-01-02T14:58:38Z</time>
      </trkpt>
      <trkpt lat="31.407329980283976" lon="-4.795451005920768">
        <ele>1135.8789999999999</ele>
        <time>2011-01-02T14:58:46Z</time>
      </trkpt>
      <trkpt lat="31.408297000452876" lon="-4.796127006411552">
        <ele>1134.066</ele>
        <time>2011-01-02T14:58:56Z</time>
      </trkpt>
      <trkpt lat="31.409082971513271" lon="-4.796677026897669">
        <ele>1130.136</ele>
        <time>2011-01-02T14:59:05Z</time>
      </trkpt>
      <trkpt lat="31.409698035567999" lon="-4.79711196385324">
        <ele>1127.865</ele>
        <time>2011-01-02T14:59:12Z</time>
      </trkpt>
      <trkpt lat="31.410337993875146" lon="-4.797556959092617">
        <ele>1126.3989999999999</ele>
        <time>2011-01-02T14:59:21Z</time>
      </trkpt>
      <trkpt lat="31.410992033779621" lon="-4.798014024272561">
        <ele>1126.1510000000001</ele>
        <time>2011-01-02T14:59:29Z</time>
      </trkpt>
      <trkpt lat="31.411997023969889" lon="-4.798643002286553">
        <ele>1124.9690000000001</ele>
        <time>2011-01-02T14:59:39Z</time>
      </trkpt>
      <trkpt lat="31.412638993933797" lon="-4.798995964229107">
        <ele>1122.8630000000001</ele>
        <time>2011-01-02T14:59:46Z</time>
      </trkpt>
      <trkpt lat="31.41343804076314" lon="-4.799362001940608">
        <ele>1122.518</ele>
        <time>2011-01-02T14:59:53Z</time>
      </trkpt>
      <trkpt lat="31.414402965456247" lon="-4.799794005230069">
        <ele>1122.3499999999999</ele>
        <time>2011-01-02T15:00:02Z</time>
      </trkpt>
      <trkpt lat="31.415204023942351" lon="-4.800201030448079">
        <ele>1120.9590000000001</ele>
        <time>2011-01-02T15:00:11Z</time>
      </trkpt>
      <trkpt lat="31.415979014709592" lon="-4.800535971298814">
        <ele>1118.886</ele>
        <time>2011-01-02T15:00:20Z</time>
      </trkpt>
      <trkpt lat="31.416602963581681" lon="-4.800987001508474">
        <ele>1114.6990000000001</ele>
        <time>2011-01-02T15:00:29Z</time>
      </trkpt>
      <trkpt lat="31.416861964389682" lon="-4.801190011203289">
        <ele>1112.289</ele>
        <time>2011-01-02T15:00:34Z</time>
      </trkpt>
      <trkpt lat="31.417190032079816" lon="-4.801466027274728">
        <ele>1112.5609999999999</ele>
        <time>2011-01-02T15:00:40Z</time>
      </trkpt>
      <trkpt lat="31.417579036206007" lon="-4.801554959267378">
        <ele>1115.5889999999999</ele>
        <time>2011-01-02T15:00:46Z</time>
      </trkpt>
      <trkpt lat="31.418068036437035" lon="-4.801805997267366">
        <ele>1117.116</ele>
        <time>2011-01-02T15:00:52Z</time>
      </trkpt>
      <trkpt lat="31.419038996100426" lon="-4.80218100361526">
        <ele>1116.8420000000001</ele>
        <time>2011-01-02T15:01:02Z</time>
      </trkpt>
      <trkpt lat="31.41928500495851" lon="-4.802286028862">
        <ele>1116.3499999999999</ele>
        <time>2011-01-02T15:01:05Z</time>
      </trkpt>
      <trkpt lat="31.419996041804552" lon="-4.802537988871336">
        <ele>1116.203</ele>
        <time>2011-01-02T15:01:13Z</time>
      </trkpt>
      <trkpt lat="31.420614961534739" lon="-4.80278198607266">
        <ele>1114.5060000000001</ele>
        <time>2011-01-02T15:01:20Z</time>
      </trkpt>
      <trkpt lat="31.421504030004144" lon="-4.803221030160785">
        <ele>1110.443</ele>
        <time>2011-01-02T15:01:29Z</time>
      </trkpt>
      <trkpt lat="31.421594973653555" lon="-4.803268974646926">
        <ele>1110.3240000000001</ele>
        <time>2011-01-02T15:01:30Z</time>
      </trkpt>
      <trkpt lat="31.422009039670229" lon="-4.803322032094002">
        <ele>1109.0119999999999</ele>
        <time>2011-01-02T15:01:34Z</time>
      </trkpt>
      <trkpt lat="31.422956027090549" lon="-4.803284984081984">
        <ele>1108.6410000000001</ele>
        <time>2011-01-02T15:01:43Z</time>
      </trkpt>
      <trkpt lat="31.424261005595326" lon="-4.803366959095001">
        <ele>1107.0239999999999</ele>
        <time>2011-01-02T15:01:54Z</time>
      </trkpt>
      <trkpt lat="31.425153007730842" lon="-4.803515989333391">
        <ele>1104.3040000000001</ele>
        <time>2011-01-02T15:02:02Z</time>
      </trkpt>
      <trkpt lat="31.425764970481396" lon="-4.803529987111688">
        <ele>1098.931</ele>
        <time>2011-01-02T15:02:09Z</time>
      </trkpt>
      <trkpt lat="31.42620300874114" lon="-4.803564017638564">
        <ele>1096.5229999999999</ele>
        <time>2011-01-02T15:02:14Z</time>
      </trkpt>
      <trkpt lat="31.426450023427606" lon="-4.803782030940056">
        <ele>1090.232</ele>
        <time>2011-01-02T15:02:19Z</time>
      </trkpt>
      <trkpt lat="31.426813965663314" lon="-4.804324004799128">
        <ele>1085.9760000000001</ele>
        <time>2011-01-02T15:02:28Z</time>
      </trkpt>
      <trkpt lat="31.427127029746771" lon="-4.804312018677592">
        <ele>1086.299</ele>
        <time>2011-01-02T15:02:32Z</time>
      </trkpt>
      <trkpt lat="31.427875030785799" lon="-4.804605972021818">
        <ele>1093.1669999999999</ele>
        <time>2011-01-02T15:02:39Z</time>
      </trkpt>
      <trkpt lat="31.428940035402775" lon="-4.805109975859523">
        <ele>1097.597</ele>
        <time>2011-01-02T15:02:48Z</time>
      </trkpt>
      <trkpt lat="31.429776968434453" lon="-4.805481964722276">
        <ele>1100.4490000000001</ele>
        <time>2011-01-02T15:02:56Z</time>
      </trkpt>
      <trkpt lat="31.430267980322242" lon="-4.805636024102569">
        <ele>1101.0070000000001</ele>
        <time>2011-01-02T15:03:01Z</time>
      </trkpt>
      <trkpt lat="31.431280011311173" lon="-4.8060919996351">
        <ele>1100.6679999999999</ele>
        <time>2011-01-02T15:03:12Z</time>
      </trkpt>
      <trkpt lat="31.432302016764879" lon="-4.806535989046097">
        <ele>1101.9469999999999</ele>
        <time>2011-01-02T15:03:22Z</time>
      </trkpt>
      <trkpt lat="31.432807026430964" lon="-4.806741010397673">
        <ele>1100.3340000000001</ele>
        <time>2011-01-02T15:03:27Z</time>
      </trkpt>
      <trkpt lat="31.433285968378186" lon="-4.807154992595315">
        <ele>1095.6980000000001</ele>
        <time>2011-01-02T15:03:34Z</time>
      </trkpt>
      <trkpt lat="31.433544969186187" lon="-4.80759596452117">
        <ele>1097.0119999999999</ele>
        <time>2011-01-02T15:03:39Z</time>
      </trkpt>
      <trkpt lat="31.433976972475648" lon="-4.807911962270737">
        <ele>1096.452</ele>
        <time>2011-01-02T15:03:46Z</time>
      </trkpt>
      <trkpt lat="31.434145029634237" lon="-4.807939035817981">
        <ele>1095.21</ele>
        <time>2011-01-02T15:03:48Z</time>
      </trkpt>
      <trkpt lat="31.43505304120481" lon="-4.80802696198225">
        <ele>1090.076</ele>
        <time>2011-01-02T15:03:58Z</time>
      </trkpt>
      <trkpt lat="31.43520500510931" lon="-4.808040037751198">
        <ele>1088.4839999999999</ele>
        <time>2011-01-02T15:04:00Z</time>
      </trkpt>
      <trkpt lat="31.435458976775408" lon="-4.807964013889432">
        <ele>1086.1769999999999</ele>
        <time>2011-01-02T15:04:04Z</time>
      </trkpt>
      <trkpt lat="31.435821997001767" lon="-4.807707024738193">
        <ele>1086.069</ele>
        <time>2011-01-02T15:04:10Z</time>
      </trkpt>
      <trkpt lat="31.436394983902574" lon="-4.807663019746542">
        <ele>1084.027</ele>
        <time>2011-01-02T15:04:16Z</time>
      </trkpt>
      <trkpt lat="31.43658097833395" lon="-4.807698978111148">
        <ele>1083.0060000000001</ele>
        <time>2011-01-02T15:04:18Z</time>
      </trkpt>
      <trkpt lat="31.437487984076142" lon="-4.80780903249979">
        <ele>1080.289</ele>
        <time>2011-01-02T15:04:27Z</time>
      </trkpt>
      <trkpt lat="31.437882017344236" lon="-4.807887990027666">
        <ele>1077.826</ele>
        <time>2011-01-02T15:04:31Z</time>
      </trkpt>
      <trkpt lat="31.438436983153224" lon="-4.807804003357887">
        <ele>1076.1690000000001</ele>
        <time>2011-01-02T15:04:37Z</time>
      </trkpt>
      <trkpt lat="31.439242986962199" lon="-4.807890001684427">
        <ele>1075.992</ele>
        <time>2011-01-02T15:04:44Z</time>
      </trkpt>
      <trkpt lat="31.440157033503056" lon="-4.80821899138391">
        <ele>1074.8119999999999</ele>
        <time>2011-01-02T15:04:52Z</time>
      </trkpt>
      <trkpt lat="31.440428020432591" lon="-4.80834798887372">
        <ele>1071.981</ele>
        <time>2011-01-02T15:04:55Z</time>
      </trkpt>
      <trkpt lat="31.440645027905703" lon="-4.808437004685402">
        <ele>1068.1179999999999</ele>
        <time>2011-01-02T15:04:58Z</time>
      </trkpt>
      <trkpt lat="31.441142996773124" lon="-4.808380007743835">
        <ele>1067.473</ele>
        <time>2011-01-02T15:05:04Z</time>
      </trkpt>
      <trkpt lat="31.441234024241567" lon="-4.808359974995256">
        <ele>1067.634</ele>
        <time>2011-01-02T15:05:05Z</time>
      </trkpt>
      <trkpt lat="31.442096019163728" lon="-4.808384031057358">
        <ele>1067.904</ele>
        <time>2011-01-02T15:05:13Z</time>
      </trkpt>
      <trkpt lat="31.442915014922619" lon="-4.80834798887372">
        <ele>1069.6479999999999</ele>
        <time>2011-01-02T15:05:20Z</time>
      </trkpt>
      <trkpt lat="31.443558996543288" lon="-4.808611012995243">
        <ele>1068.0830000000001</ele>
        <time>2011-01-02T15:05:27Z</time>
      </trkpt>
      <trkpt lat="31.443877005949616" lon="-4.808774963021278">
        <ele>1070.383</ele>
        <time>2011-01-02T15:05:30Z</time>
      </trkpt>
      <trkpt lat="31.444231979548931" lon="-4.809090960770845">
        <ele>1073.585</ele>
        <time>2011-01-02T15:05:34Z</time>
      </trkpt>
      <trkpt lat="31.444683009758592" lon="-4.809633018448949">
        <ele>1075.6010000000001</ele>
        <time>2011-01-02T15:05:41Z</time>
      </trkpt>
      <trkpt lat="31.444794991984963" lon="-4.809733014553785">
        <ele>1075.25</ele>
        <time>2011-01-02T15:05:43Z</time>
      </trkpt>
      <trkpt lat="31.445214003324509" lon="-4.809752963483334">
        <ele>1074.3240000000001</ele>
        <time>2011-01-02T15:05:49Z</time>
      </trkpt>
      <trkpt lat="31.445438973605633" lon="-4.809494968503714">
        <ele>1071.7619999999999</ele>
        <time>2011-01-02T15:05:53Z</time>
      </trkpt>
      <trkpt lat="31.445907019078732" lon="-4.808832965791225">
        <ele>1067.7529999999999</ele>
        <time>2011-01-02T15:06:01Z</time>
      </trkpt>
      <trkpt lat="31.446069041267037" lon="-4.808574970811606">
        <ele>1066.5119999999999</ele>
        <time>2011-01-02T15:06:04Z</time>
      </trkpt>
      <trkpt lat="31.4463110268116" lon="-4.808442033827305">
        <ele>1067.5840000000001</ele>
        <time>2011-01-02T15:06:08Z</time>
      </trkpt>
      <trkpt lat="31.446559969335794" lon="-4.808409009128809">
        <ele>1068.4459999999999</ele>
        <time>2011-01-02T15:06:14Z</time>
      </trkpt>
      <trkpt lat="31.446707993745804" lon="-4.808398028835654">
        <ele>1069.5260000000001</ele>
        <time>2011-01-02T15:06:33Z</time>
      </trkpt>
      <trkpt lat="31.446959031745791" lon="-4.808285040780902">
        <ele>1069.327</ele>
        <time>2011-01-02T15:06:37Z</time>
      </trkpt>
      <trkpt lat="31.447450965642929" lon="-4.807839961722493">
        <ele>1072.9480000000001</ele>
        <time>2011-01-02T15:06:45Z</time>
      </trkpt>
      <trkpt lat="31.448057983070612" lon="-4.807678023353219">
        <ele>1070.7729999999999</ele>
        <time>2011-01-02T15:06:53Z</time>
      </trkpt>
      <trkpt lat="31.448700036853552" lon="-4.807666037231684">
        <ele>1068.8409999999999</ele>
        <time>2011-01-02T15:07:01Z</time>
      </trkpt>
      <trkpt lat="31.448870021849871" lon="-4.807638041675091">
        <ele>1068.904</ele>
        <time>2011-01-02T15:07:03Z</time>
      </trkpt>
      <trkpt lat="31.449378971010447" lon="-4.807634018361569">
        <ele>1068.354</ele>
        <time>2011-01-02T15:07:11Z</time>
      </trkpt>
      <trkpt lat="31.450098976492882" lon="-4.807668970897794">
        <ele>1072.8340000000001</ele>
        <time>2011-01-02T15:07:19Z</time>
      </trkpt>
      <trkpt lat="31.451003970578313" lon="-4.807690009474754">
        <ele>1075.5930000000001</ele>
        <time>2011-01-02T15:07:28Z</time>
      </trkpt>
      <trkpt lat="31.451706038787961" lon="-4.80752999894321">
        <ele>1074.9929999999999</ele>
        <time>2011-01-02T15:07:35Z</time>
      </trkpt>
      <trkpt lat="31.452738018706441" lon="-4.807436037808657">
        <ele>1073.711</ele>
        <time>2011-01-02T15:07:45Z</time>
      </trkpt>
      <trkpt lat="31.45293097011745" lon="-4.807450035586953">
        <ele>1072.972</ele>
        <time>2011-01-02T15:07:47Z</time>
      </trkpt>
      <trkpt lat="31.453207992017269" lon="-4.807398989796639">
        <ele>1072.386</ele>
        <time>2011-01-02T15:07:50Z</time>
      </trkpt>
      <trkpt lat="31.454052971675992" lon="-4.80733796954155">
        <ele>1071.7190000000001</ele>
        <time>2011-01-02T15:07:58Z</time>
      </trkpt>
      <trkpt lat="31.454340973868966" lon="-4.807387003675103">
        <ele>1071.029</ele>
        <time>2011-01-02T15:08:01Z</time>
      </trkpt>
      <trkpt lat="31.454680021852255" lon="-4.807373005896807">
        <ele>1068.6969999999999</ele>
        <time>2011-01-02T15:08:05Z</time>
      </trkpt>
      <trkpt lat="31.455231970176101" lon="-4.807369988411665">
        <ele>1066.268</ele>
        <time>2011-01-02T15:08:13Z</time>
      </trkpt>
      <trkpt lat="31.455801017582417" lon="-4.8074010014534">
        <ele>1066.249</ele>
        <time>2011-01-02T15:08:19Z</time>
      </trkpt>
      <trkpt lat="31.456549018621445" lon="-4.807738037779927">
        <ele>1063.9169999999999</ele>
        <time>2011-01-02T15:08:26Z</time>
      </trkpt>
      <trkpt lat="31.457417970523238" lon="-4.808283029124141">
        <ele>1057.9880000000001</ele>
        <time>2011-01-02T15:08:35Z</time>
      </trkpt>
      <trkpt lat="31.457717958837748" lon="-4.808502970263362">
        <ele>1056.568</ele>
        <time>2011-01-02T15:08:41Z</time>
      </trkpt>
      <trkpt lat="31.457899007946253" lon="-4.808624004945159">
        <ele>1055.011</ele>
        <time>2011-01-02T15:08:50Z</time>
      </trkpt>
      <trkpt lat="31.458227997645736" lon="-4.808870013803244">
        <ele>1053.3499999999999</ele>
        <time>2011-01-02T15:08:55Z</time>
      </trkpt>
      <trkpt lat="31.458303015679121" lon="-4.808943020179868">
        <ele>1053.5999999999999</ele>
        <time>2011-01-02T15:08:56Z</time>
      </trkpt>
      <trkpt lat="31.458899974822998" lon="-4.80914100073278">
        <ele>1051.989</ele>
        <time>2011-01-02T15:09:02Z</time>
      </trkpt>
      <trkpt lat="31.459815027192235" lon="-4.809397989884019">
        <ele>1050.9200000000001</ele>
        <time>2011-01-02T15:09:10Z</time>
      </trkpt>
      <trkpt lat="31.460613990202546" lon="-4.809581972658634">
        <ele>1048.8399999999999</ele>
        <time>2011-01-02T15:09:17Z</time>
      </trkpt>
      <trkpt lat="31.46148101426661" lon="-4.809889001771808">
        <ele>1048.931</ele>
        <time>2011-01-02T15:09:24Z</time>
      </trkpt>
      <trkpt lat="31.462356001138687" lon="-4.809981035068631">
        <ele>1046.5989999999999</ele>
        <time>2011-01-02T15:09:31Z</time>
      </trkpt>
      <trkpt lat="31.463528964668512" lon="-4.810120007023215">
        <ele>1044.1900000000001</ele>
        <time>2011-01-02T15:09:40Z</time>
      </trkpt>
      <trkpt lat="31.464563040062785" lon="-4.810241041705012">
        <ele>1043.3620000000001</ele>
        <time>2011-01-02T15:09:48Z</time>
      </trkpt>
      <trkpt lat="31.464763032272458" lon="-4.810218997299671">
        <ele>1042.5809999999999</ele>
        <time>2011-01-02T15:09:50Z</time>
      </trkpt>
      <trkpt lat="31.465368960052729" lon="-4.810390993952751">
        <ele>1045.1500000000001</ele>
        <time>2011-01-02T15:09:56Z</time>
      </trkpt>
      <trkpt lat="31.466246964409947" lon="-4.810821991413832">
        <ele>1043.5409999999999</ele>
        <time>2011-01-02T15:10:03Z</time>
      </trkpt>
      <trkpt lat="31.466608978807926" lon="-4.811046039685607">
        <ele>1041.1800000000001</ele>
        <time>2011-01-02T15:10:06Z</time>
      </trkpt>
      <trkpt lat="31.467848997563124" lon="-4.811437977477908">
        <ele>1035.271</ele>
        <time>2011-01-02T15:10:14Z</time>
      </trkpt>
      <trkpt lat="31.469235029071569" lon="-4.811744000762701">
        <ele>1032.5809999999999</ele>
        <time>2011-01-02T15:10:23Z</time>
      </trkpt>
      <trkpt lat="31.470360970124602" lon="-4.811888001859188">
        <ele>1026.4100000000001</ele>
        <time>2011-01-02T15:10:31Z</time>
      </trkpt>
      <trkpt lat="31.471163034439087" lon="-4.811960002407432">
        <ele>1018.066</ele>
        <time>2011-01-02T15:10:38Z</time>
      </trkpt>
      <trkpt lat="31.471391022205353" lon="-4.811995038762689">
        <ele>1015.706</ele>
        <time>2011-01-02T15:10:40Z</time>
      </trkpt>
      <trkpt lat="31.47241897881031" lon="-4.811967965215445">
        <ele>1006.388</ele>
        <time>2011-01-02T15:10:48Z</time>
      </trkpt>
      <trkpt lat="31.473884973675013" lon="-4.811836034059525">
        <ele>1000.207</ele>
        <time>2011-01-02T15:10:57Z</time>
      </trkpt>
      <trkpt lat="31.474841013550758" lon="-4.811695972457528">
        <ele>996.34799999999996</ele>
        <time>2011-01-02T15:11:03Z</time>
      </trkpt>
      <trkpt lat="31.475476026535034" lon="-4.811822958290577">
        <ele>996.75199999999995</ele>
        <time>2011-01-02T15:11:07Z</time>
      </trkpt>
      <trkpt lat="31.476370962336659" lon="-4.812196958810091">
        <ele>992.54999999999995</ele>
        <time>2011-01-02T15:11:13Z</time>
      </trkpt>
      <trkpt lat="31.476786034181714" lon="-4.812595015391707">
        <ele>989.17999999999995</ele>
        <time>2011-01-02T15:11:17Z</time>
      </trkpt>
      <trkpt lat="31.477223988622427" lon="-4.813083009794354">
        <ele>984.63699999999994</ele>
        <time>2011-01-02T15:11:22Z</time>
      </trkpt>
      <trkpt lat="31.477794963866472" lon="-4.813315020874143">
        <ele>980.53399999999999</ele>
        <time>2011-01-02T15:11:26Z</time>
      </trkpt>
      <trkpt lat="31.4785429649055" lon="-4.813327006995678">
        <ele>974.01800000000003</ele>
        <time>2011-01-02T15:11:31Z</time>
      </trkpt>
      <trkpt lat="31.478834990411997" lon="-4.813241008669138">
        <ele>971.94000000000005</ele>
        <time>2011-01-02T15:11:33Z</time>
      </trkpt>
      <trkpt lat="31.479334970936179" lon="-4.813304962590337">
        <ele>968.38999999999999</ele>
        <time>2011-01-02T15:11:37Z</time>
      </trkpt>
      <trkpt lat="31.479896977543831" lon="-4.813641998916864">
        <ele>966.15700000000004</ele>
        <time>2011-01-02T15:11:42Z</time>
      </trkpt>
      <trkpt lat="31.480655958876014" lon="-4.813764039427042">
        <ele>960.34500000000003</ele>
        <time>2011-01-02T15:11:48Z</time>
      </trkpt>
      <trkpt lat="31.481055021286011" lon="-4.813716011121869">
        <ele>955.69299999999998</ele>
        <time>2011-01-02T15:11:51Z</time>
      </trkpt>
      <trkpt lat="31.482008965685964" lon="-4.81397501192987">
        <ele>951.15499999999997</ele>
        <time>2011-01-02T15:11:58Z</time>
      </trkpt>
      <trkpt lat="31.483065001666546" lon="-4.814366027712822">
        <ele>952.35699999999997</ele>
        <time>2011-01-02T15:12:07Z</time>
      </trkpt>
      <trkpt lat="31.483466997742653" lon="-4.814543975517154">
        <ele>954.07399999999996</ele>
        <time>2011-01-02T15:12:13Z</time>
      </trkpt>
      <trkpt lat="31.484080972149968" lon="-4.814818985760212">
        <ele>949.928</ele>
        <time>2011-01-02T15:12:21Z</time>
      </trkpt>
      <trkpt lat="31.485114963725209" lon="-4.81533195823431">
        <ele>947.23900000000003</ele>
        <time>2011-01-02T15:12:32Z</time>
      </trkpt>
      <trkpt lat="31.486120037734509" lon="-4.815821964293718">
        <ele>951.22400000000005</ele>
        <time>2011-01-02T15:12:40Z</time>
      </trkpt>
      <trkpt lat="31.487444965168834" lon="-4.81646896339953">
        <ele>953.82899999999995</ele>
        <time>2011-01-02T15:12:49Z</time>
      </trkpt>
      <trkpt lat="31.488563027232885" lon="-4.817042034119368">
        <ele>954.19000000000005</ele>
        <time>2011-01-02T15:12:57Z</time>
      </trkpt>
      <trkpt lat="31.489635994657874" lon="-4.81756498105824">
        <ele>952.90899999999999</ele>
        <time>2011-01-02T15:13:06Z</time>
      </trkpt>
      <trkpt lat="31.490803007036448" lon="-4.818328991532326">
        <ele>958.17399999999998</ele>
        <time>2011-01-02T15:13:16Z</time>
      </trkpt>
      <trkpt lat="31.491572968661785" lon="-4.819378992542625">
        <ele>963.45600000000002</ele>
        <time>2011-01-02T15:13:24Z</time>
      </trkpt>
      <trkpt lat="31.49233303964138" lon="-4.820931991562247">
        <ele>971.38599999999997</ele>
        <time>2011-01-02T15:13:33Z</time>
      </trkpt>
      <trkpt lat="31.493331994861364" lon="-4.822641983628273">
        <ele>982.35599999999999</ele>
        <time>2011-01-02T15:13:43Z</time>
      </trkpt>
      <trkpt lat="31.493583032861352" lon="-4.822929985821247">
        <ele>982.86400000000003</ele>
        <time>2011-01-02T15:13:45Z</time>
      </trkpt>
      <trkpt lat="31.494522979483008" lon="-4.823570027947426">
        <ele>986.78599999999994</ele>
        <time>2011-01-02T15:13:51Z</time>
      </trkpt>
      <trkpt lat="31.495581027120352" lon="-4.824162963777781">
        <ele>986.25099999999998</ele>
        <time>2011-01-02T15:13:58Z</time>
      </trkpt>
      <trkpt lat="31.496730018407106" lon="-4.824864026159048">
        <ele>980.22500000000002</ele>
        <time>2011-01-02T15:14:07Z</time>
      </trkpt>
      <trkpt lat="31.497783036902547" lon="-4.825350008904934">
        <ele>974.31200000000001</ele>
        <time>2011-01-02T15:14:14Z</time>
      </trkpt>
      <trkpt lat="31.49807003326714" lon="-4.825504990294576">
        <ele>972.86099999999999</ele>
        <time>2011-01-02T15:14:16Z</time>
      </trkpt>
      <trkpt lat="31.499120034277439" lon="-4.825874967500567">
        <ele>966.18399999999997</ele>
        <time>2011-01-02T15:14:23Z</time>
      </trkpt>
      <trkpt lat="31.499883038923144" lon="-4.826463963836432">
        <ele>964.94799999999998</ele>
        <time>2011-01-02T15:14:29Z</time>
      </trkpt>
      <trkpt lat="31.500087976455688" lon="-4.826613999903202">
        <ele>964.48500000000001</ele>
        <time>2011-01-02T15:14:31Z</time>
      </trkpt>
      <trkpt lat="31.50054101832211" lon="-4.826627997681499">
        <ele>959.27099999999996</ele>
        <time>2011-01-02T15:14:36Z</time>
      </trkpt>
      <trkpt lat="31.501367976889014" lon="-4.8262860160321">
        <ele>951.85400000000004</ele>
        <time>2011-01-02T15:14:43Z</time>
      </trkpt>
      <trkpt lat="31.501942975446582" lon="-4.82633002102375">
        <ele>946.51099999999997</ele>
        <time>2011-01-02T15:14:47Z</time>
      </trkpt>
      <trkpt lat="31.503285001963377" lon="-4.826862020418048">
        <ele>944.01199999999994</ele>
        <time>2011-01-02T15:14:56Z</time>
      </trkpt>
      <trkpt lat="31.503838961943984" lon="-4.827052960172296">
        <ele>942.13099999999997</ele>
        <time>2011-01-02T15:15:00Z</time>
      </trkpt>
      <trkpt lat="31.504546981304884" lon="-4.826990012079477">
        <ele>939.58100000000002</ele>
        <time>2011-01-02T15:15:05Z</time>
      </trkpt>
      <trkpt lat="31.505985986441374" lon="-4.826327003538609">
        <ele>932.20299999999997</ele>
        <time>2011-01-02T15:15:16Z</time>
      </trkpt>
      <trkpt lat="31.507121985778213" lon="-4.825977981090546">
        <ele>937.01700000000005</ele>
        <time>2011-01-02T15:15:24Z</time>
      </trkpt>
      <trkpt lat="31.508002001792192" lon="-4.826083006337285">
        <ele>941.303</ele>
        <time>2011-01-02T15:15:30Z</time>
      </trkpt>
      <trkpt lat="31.508133010938764" lon="-4.826118964701891">
        <ele>941.899</ele>
        <time>2011-01-02T15:15:31Z</time>
      </trkpt>
      <trkpt lat="31.50900699198246" lon="-4.82605098746717">
        <ele>949.43600000000004</ele>
        <time>2011-01-02T15:15:38Z</time>
      </trkpt>
      <trkpt lat="31.509392978623509" lon="-4.825806990265846">
        <ele>952.673</ele>
        <time>2011-01-02T15:15:42Z</time>
      </trkpt>
      <trkpt lat="31.509563969448209" lon="-4.825655026361346">
        <ele>954.19399999999996</ele>
        <time>2011-01-02T15:15:44Z</time>
      </trkpt>
      <trkpt lat="31.509998990222812" lon="-4.825603980571032">
        <ele>957.01800000000003</ele>
        <time>2011-01-02T15:15:49Z</time>
      </trkpt>
      <trkpt lat="31.510313982143998" lon="-4.826000025495887">
        <ele>962.03700000000003</ele>
        <time>2011-01-02T15:15:54Z</time>
      </trkpt>
      <trkpt lat="31.510363016277552" lon="-4.826367991045117">
        <ele>962.89300000000003</ele>
        <time>2011-01-02T15:15:57Z</time>
      </trkpt>
      <trkpt lat="31.510367039591074" lon="-4.827659977599978">
        <ele>955.50699999999995</ele>
        <time>2011-01-02T15:16:05Z</time>
      </trkpt>
      <trkpt lat="31.510211974382401" lon="-4.829192021861672">
        <ele>947.91099999999994</ele>
        <time>2011-01-02T15:16:14Z</time>
      </trkpt>
      <trkpt lat="31.510412972420454" lon="-4.830117970705032">
        <ele>950.42600000000004</ele>
        <time>2011-01-02T15:16:20Z</time>
      </trkpt>
      <trkpt lat="31.51061899960041" lon="-4.831554964184761">
        <ele>951.06100000000004</ele>
        <time>2011-01-02T15:16:28Z</time>
      </trkpt>
      <trkpt lat="31.51070399209857" lon="-4.832889027893543">
        <ele>947.46000000000004</ele>
        <time>2011-01-02T15:16:35Z</time>
      </trkpt>
      <trkpt lat="31.510990988463163" lon="-4.83389200642705">
        <ele>945.88900000000001</ele>
        <time>2011-01-02T15:16:40Z</time>
      </trkpt>
      <trkpt lat="31.511839991435409" lon="-4.83601899817586">
        <ele>940.64999999999998</ele>
        <time>2011-01-02T15:16:51Z</time>
      </trkpt>
      <trkpt lat="31.512219021096826" lon="-4.836871018633246">
        <ele>939.75800000000004</ele>
        <time>2011-01-02T15:16:56Z</time>
      </trkpt>
      <trkpt lat="31.512727970257401" lon="-4.837404023855925">
        <ele>937.01400000000001</ele>
        <time>2011-01-02T15:17:01Z</time>
      </trkpt>
      <trkpt lat="31.514322962611914" lon="-4.838370038196445">
        <ele>926.38</ele>
        <time>2011-01-02T15:17:12Z</time>
      </trkpt>
      <trkpt lat="31.516348030418158" lon="-4.839654983952642">
        <ele>917.154</ele>
        <time>2011-01-02T15:17:25Z</time>
      </trkpt>
      <trkpt lat="31.517612021416426" lon="-4.840465011075139">
        <ele>912.89599999999996</ele>
        <time>2011-01-02T15:17:34Z</time>
      </trkpt>
      <trkpt lat="31.518910964950919" lon="-4.841301022097468">
        <ele>910.27499999999998</ele>
        <time>2011-01-02T15:17:42Z</time>
      </trkpt>
      <trkpt lat="31.520957993343472" lon="-4.842618992552161">
        <ele>906.13599999999997</ele>
        <time>2011-01-02T15:17:54Z</time>
      </trkpt>
      <trkpt lat="31.523339962586761" lon="-4.844166962429881">
        <ele>901.58100000000002</ele>
        <time>2011-01-02T15:18:08Z</time>
      </trkpt>
      <trkpt lat="31.524407984688878" lon="-4.844868024811149">
        <ele>899.95299999999997</ele>
        <time>2011-01-02T15:18:15Z</time>
      </trkpt>
      <trkpt lat="31.525053977966309" lon="-4.845291981473565">
        <ele>899.125</ele>
        <time>2011-01-02T15:18:21Z</time>
      </trkpt>
      <trkpt lat="31.525939023122191" lon="-4.845847031101584">
        <ele>899.61599999999999</ele>
        <time>2011-01-02T15:18:27Z</time>
      </trkpt>
      <trkpt lat="31.527711041271687" lon="-4.84699702821672">
        <ele>899.22500000000002</ele>
        <time>2011-01-02T15:18:37Z</time>
      </trkpt>
      <trkpt lat="31.530158976092935" lon="-4.848581040278077">
        <ele>897.77300000000002</ele>
        <time>2011-01-02T15:18:51Z</time>
      </trkpt>
      <trkpt lat="31.53163100592792" lon="-4.849517969414592">
        <ele>896.52800000000002</ele>
        <time>2011-01-02T15:19:00Z</time>
      </trkpt>
      <trkpt lat="31.531937029212713" lon="-4.849757021293044">
        <ele>895.899</ele>
        <time>2011-01-02T15:19:03Z</time>
      </trkpt>
      <trkpt lat="31.532220002263784" lon="-4.850304024294019">
        <ele>895.88900000000001</ele>
        <time>2011-01-02T15:19:08Z</time>
      </trkpt>
      <trkpt lat="31.532487971708179" lon="-4.851471958681941">
        <ele>894.60000000000002</ele>
        <time>2011-01-02T15:19:17Z</time>
      </trkpt>
      <trkpt lat="31.532868007197976" lon="-4.853074997663498">
        <ele>895.70000000000005</ele>
        <time>2011-01-02T15:19:27Z</time>
      </trkpt>
      <trkpt lat="31.533194985240698" lon="-4.854213008657098">
        <ele>896.78999999999996</ele>
        <time>2011-01-02T15:19:35Z</time>
      </trkpt>
      <trkpt lat="31.533518023788929" lon="-4.854644006118178">
        <ele>897.99900000000002</ele>
        <time>2011-01-02T15:19:39Z</time>
      </trkpt>
      <trkpt lat="31.533960001543164" lon="-4.854951035231352">
        <ele>896.529</ele>
        <time>2011-01-02T15:19:45Z</time>
      </trkpt>
      <trkpt lat="31.53410199098289" lon="-4.855009038001299">
        <ele>893.173</ele>
        <time>2011-01-02T15:20:02Z</time>
      </trkpt>
      <trkpt lat="31.534634996205568" lon="-4.855386978015304">
        <ele>896.76499999999999</ele>
        <time>2011-01-02T15:20:11Z</time>
      </trkpt>
      <trkpt lat="31.535318959504366" lon="-4.855863992124796">
        <ele>897.58600000000001</ele>
        <time>2011-01-02T15:20:19Z</time>
      </trkpt>
      <trkpt lat="31.536436015740037" lon="-4.856620961800218">
        <ele>898.64499999999998</ele>
        <time>2011-01-02T15:20:30Z</time>
      </trkpt>
      <trkpt lat="31.537234978750348" lon="-4.857195960357785">
        <ele>897.45299999999997</ele>
        <time>2011-01-02T15:20:40Z</time>
      </trkpt>
      <trkpt lat="31.538388999179006" lon="-4.858058039098978">
        <ele>896.50300000000004</ele>
        <time>2011-01-02T15:20:53Z</time>
      </trkpt>
      <trkpt lat="31.539692971855402" lon="-4.859047019854188">
        <ele>894.84400000000005</ele>
        <time>2011-01-02T15:21:07Z</time>
      </trkpt>
      <trkpt lat="31.540313987061381" lon="-4.85954599454999">
        <ele>895.55600000000004</ele>
        <time>2011-01-02T15:21:16Z</time>
      </trkpt>
      <trkpt lat="31.541052013635635" lon="-4.860071036964655">
        <ele>894.72400000000005</ele>
        <time>2011-01-02T15:21:26Z</time>
      </trkpt>
      <trkpt lat="31.541674034669995" lon="-4.860313022509217">
        <ele>889.75300000000004</ele>
        <time>2011-01-02T15:21:35Z</time>
      </trkpt>
      <trkpt lat="31.54256796464324" lon="-4.860493987798691">
        <ele>885.05499999999995</ele>
        <time>2011-01-02T15:21:46Z</time>
      </trkpt>
      <trkpt lat="31.543507995083928" lon="-4.860741002485156">
        <ele>881.19500000000005</ele>
        <time>2011-01-02T15:21:58Z</time>
      </trkpt>
      <trkpt lat="31.544081987813115" lon="-4.86085700802505">
        <ele>878.346</ele>
        <time>2011-01-02T15:22:09Z</time>
      </trkpt>
      <trkpt lat="31.544224983081222" lon="-4.860689034685493">
        <ele>884.399</ele>
        <time>2011-01-02T15:22:55Z</time>
      </trkpt>
      <trkpt lat="31.544073019176722" lon="-4.860063996165991">
        <ele>885.53700000000003</ele>
        <time>2011-01-02T15:23:04Z</time>
      </trkpt>
      <trkpt lat="31.543951984494925" lon="-4.859271990135312">
        <ele>882.97199999999998</ele>
        <time>2011-01-02T15:23:12Z</time>
      </trkpt>
      <trkpt lat="31.54398500919342" lon="-4.858296001330018">
        <ele>882.673</ele>
        <time>2011-01-02T15:23:21Z</time>
      </trkpt>
      <trkpt lat="31.544177960604429" lon="-4.856729004532099">
        <ele>878.02099999999996</ele>
        <time>2011-01-02T15:23:33Z</time>
      </trkpt>
      <trkpt lat="31.544580040499568" lon="-4.854486007243395">
        <ele>875.20299999999997</ele>
        <time>2011-01-02T15:23:50Z</time>
      </trkpt>
      <trkpt lat="31.545005002990365" lon="-4.853460984304547">
        <ele>873.40800000000002</ele>
        <time>2011-01-02T15:24:00Z</time>
      </trkpt>
      <trkpt lat="31.545449998229742" lon="-4.852947006002069">
        <ele>880.45500000000004</ele>
        <time>2011-01-02T15:24:08Z</time>
      </trkpt>
      <trkpt lat="31.545922989025712" lon="-4.85245599411428">
        <ele>881.12300000000005</ele>
        <time>2011-01-02T15:24:15Z</time>
      </trkpt>
      <trkpt lat="31.546704014763236" lon="-4.852047963067889">
        <ele>881.37599999999998</ele>
        <time>2011-01-02T15:24:24Z</time>
      </trkpt>
      <trkpt lat="31.547252023592591" lon="-4.851806983351708">
        <ele>882.49599999999998</ele>
        <time>2011-01-02T15:24:32Z</time>
      </trkpt>
      <trkpt lat="31.547574978321791" lon="-4.851673040539026">
        <ele>887.23199999999997</ele>
        <time>2011-01-02T15:24:42Z</time>
      </trkpt>
      <trkpt lat="31.54768000356853" lon="-4.851635992527008">
        <ele>887.798</ele>
        <time>2011-01-02T15:24:46Z</time>
      </trkpt>
      <trkpt lat="31.5475710388273" lon="-4.85149098560214">
        <ele>883.48000000000002</ele>
        <time>2011-01-02T15:24:52Z</time>
      </trkpt>
      <trkpt lat="31.547341039404273" lon="-4.85176800750196">
        <ele>872.82000000000005</ele>
        <time>2011-01-02T15:25:05Z</time>
      </trkpt>
      <trkpt lat="31.547200977802277" lon="-4.851829027757049">
        <ele>869.80799999999999</ele>
        <time>2011-01-02T15:25:08Z</time>
      </trkpt>
      <trkpt lat="31.547428965568542" lon="-4.851730037480593">
        <ele>880.42700000000002</ele>
        <time>2011-01-02T15:25:19Z</time>
      </trkpt>
      <trkpt lat="31.547648990526795" lon="-4.852205039933324">
        <ele>883.55399999999997</ele>
        <time>2011-01-02T15:25:23Z</time>
      </trkpt>
      <trkpt lat="31.547771031036973" lon="-4.852625979110599">
        <ele>885.97299999999996</ele>
        <time>2011-01-02T15:25:29Z</time>
      </trkpt>
      <trkpt lat="31.547810006886721" lon="-4.85277802683413">
        <ele>888.45500000000004</ele>
        <time>2011-01-02T15:25:31Z</time>
      </trkpt>
      <trkpt lat="31.548146037384868" lon="-4.853357970714569">
        <ele>894.67499999999995</ele>
        <time>2011-01-02T15:25:37Z</time>
      </trkpt>
      <trkpt lat="31.54821895994246" lon="-4.853475987911224">
        <ele>895.54899999999998</ele>
        <time>2011-01-02T15:25:38Z</time>
      </trkpt>
      <trkpt lat="31.548385005444288" lon="-4.854011004790664">
        <ele>899.75199999999995</ele>
        <time>2011-01-02T15:25:42Z</time>
      </trkpt>
      <trkpt lat="31.548578962683678" lon="-4.854460023343563">
        <ele>904.03099999999995</ele>
        <time>2011-01-02T15:25:46Z</time>
      </trkpt>
      <trkpt lat="31.548814997076988" lon="-4.854767974466085">
        <ele>906.65999999999997</ele>
        <time>2011-01-02T15:25:49Z</time>
      </trkpt>
      <trkpt lat="31.549038961529732" lon="-4.855288993567228">
        <ele>909.37099999999998</ele>
        <time>2011-01-02T15:25:53Z</time>
      </trkpt>
      <trkpt lat="31.549236020073295" lon="-4.856231035664678">
        <ele>911.43700000000001</ele>
        <time>2011-01-02T15:25:59Z</time>
      </trkpt>
      <trkpt lat="31.549460990354419" lon="-4.856778038665652">
        <ele>912.72699999999998</ele>
        <time>2011-01-02T15:26:03Z</time>
      </trkpt>
      <trkpt lat="31.550248973071575" lon="-4.858156023547053">
        <ele>915.50999999999999</ele>
        <time>2011-01-02T15:26:13Z</time>
      </trkpt>
      <trkpt lat="31.550680976361036" lon="-4.859294034540653">
        <ele>922.43299999999999</ele>
        <time>2011-01-02T15:26:20Z</time>
      </trkpt>
      <trkpt lat="31.551669035106897" lon="-4.860804034397006">
        <ele>929.84699999999998</ele>
        <time>2011-01-02T15:26:30Z</time>
      </trkpt>
      <trkpt lat="31.552916010841727" lon="-4.862680993974209">
        <ele>937.38</ele>
        <time>2011-01-02T15:26:42Z</time>
      </trkpt>
      <trkpt lat="31.553547000512481" lon="-4.863295974209905">
        <ele>939.24400000000003</ele>
        <time>2011-01-02T15:26:47Z</time>
      </trkpt>
      <trkpt lat="31.553677003830671" lon="-4.863404016941786">
        <ele>939.18399999999997</ele>
        <time>2011-01-02T15:26:48Z</time>
      </trkpt>
      <trkpt lat="31.554306987673044" lon="-4.864332983270288">
        <ele>937.77800000000002</ele>
        <time>2011-01-02T15:26:54Z</time>
      </trkpt>
      <trkpt lat="31.554486025124788" lon="-4.864699020981789">
        <ele>937.55799999999999</ele>
        <time>2011-01-02T15:26:56Z</time>
      </trkpt>
      <trkpt lat="31.554825995117426" lon="-4.866281021386385">
        <ele>946.52599999999995</ele>
        <time>2011-01-02T15:27:03Z</time>
      </trkpt>
      <trkpt lat="31.555137969553471" lon="-4.867789009585977">
        <ele>950.83399999999995</ele>
        <time>2011-01-02T15:27:10Z</time>
      </trkpt>
      <trkpt lat="31.555495038628578" lon="-4.868472972884774">
        <ele>952.23299999999995</ele>
        <time>2011-01-02T15:27:14Z</time>
      </trkpt>
      <trkpt lat="31.556344963610172" lon="-4.869704023003578">
        <ele>954.13400000000001</ele>
        <time>2011-01-02T15:27:22Z</time>
      </trkpt>
      <trkpt lat="31.556460969150066" lon="-4.869825979694724">
        <ele>953.63300000000004</ele>
        <time>2011-01-02T15:27:23Z</time>
      </trkpt>
      <trkpt lat="31.557013001292944" lon="-4.870795011520386">
        <ele>954.69399999999996</ele>
        <time>2011-01-02T15:27:29Z</time>
      </trkpt>
      <trkpt lat="31.558119999244809" lon="-4.873132975772023">
        <ele>961.06500000000005</ele>
        <time>2011-01-02T15:27:41Z</time>
      </trkpt>
      <trkpt lat="31.55913001857698" lon="-4.875533971935511">
        <ele>968.66800000000001</ele>
        <time>2011-01-02T15:27:53Z</time>
      </trkpt>
      <trkpt lat="31.559534026309848" lon="-4.877814017236233">
        <ele>974.11699999999996</ele>
        <time>2011-01-02T15:28:03Z</time>
      </trkpt>
      <trkpt lat="31.559987990185618" lon="-4.879305996000767">
        <ele>973.55499999999995</ele>
        <time>2011-01-02T15:28:10Z</time>
      </trkpt>
      <trkpt lat="31.560772033408284" lon="-4.88062103278935">
        <ele>970.72199999999998</ele>
        <time>2011-01-02T15:28:18Z</time>
      </trkpt>
      <trkpt lat="31.561578037217259" lon="-4.881606996059418">
        <ele>967.93899999999996</ele>
        <time>2011-01-02T15:28:24Z</time>
      </trkpt>
      <trkpt lat="31.563018970191479" lon="-4.883464006707072">
        <ele>964.48500000000001</ele>
        <time>2011-01-02T15:28:34Z</time>
      </trkpt>
      <trkpt lat="31.563776023685932" lon="-4.884731015190482">
        <ele>965.63</ele>
        <time>2011-01-02T15:28:41Z</time>
      </trkpt>
      <trkpt lat="31.563942991197109" lon="-4.885004013776779">
        <ele>965.79899999999998</ele>
        <time>2011-01-02T15:28:43Z</time>
      </trkpt>
      <trkpt lat="31.564420005306602" lon="-4.885382959619165">
        <ele>965.33699999999999</ele>
        <time>2011-01-02T15:28:48Z</time>
      </trkpt>
      <trkpt lat="31.564598958939314" lon="-4.885764000937343">
        <ele>963.755</ele>
        <time>2011-01-02T15:28:52Z</time>
      </trkpt>
      <trkpt lat="31.564724016934633" lon="-4.88603800535202">
        <ele>962.66399999999999</ele>
        <time>2011-01-02T15:28:55Z</time>
      </trkpt>
      <trkpt lat="31.565089970827103" lon="-4.886508984491229">
        <ele>961.70799999999997</ele>
        <time>2011-01-02T15:29:00Z</time>
      </trkpt>
      <trkpt lat="31.565709980204701" lon="-4.887160006910563">
        <ele>960.92700000000002</ele>
        <time>2011-01-02T15:29:07Z</time>
      </trkpt>
      <trkpt lat="31.566459992900491" lon="-4.887802982702851">
        <ele>962.08799999999997</ele>
        <time>2011-01-02T15:29:16Z</time>
      </trkpt>
      <trkpt lat="31.567372027784586" lon="-4.888209002092481">
        <ele>959.71500000000003</ele>
        <time>2011-01-02T15:29:24Z</time>
      </trkpt>
      <trkpt lat="31.568455975502729" lon="-4.888675035908818">
        <ele>956.45500000000004</ele>
        <time>2011-01-02T15:29:34Z</time>
      </trkpt>
      <trkpt lat="31.569201964884996" lon="-4.888989022001624">
        <ele>954.07399999999996</ele>
        <time>2011-01-02T15:29:43Z</time>
      </trkpt>
      <trkpt lat="31.57043200917542" lon="-4.889500988647342">
        <ele>947.06500000000005</ele>
        <time>2011-01-02T15:29:59Z</time>
      </trkpt>
      <trkpt lat="31.571059981361032" lon="-4.889773987233639">
        <ele>943.39800000000002</ele>
        <time>2011-01-02T15:30:10Z</time>
      </trkpt>
      <trkpt lat="31.57161301933229" lon="-4.890034999698401">
        <ele>943.13900000000001</ele>
        <time>2011-01-02T15:30:22Z</time>
      </trkpt>
      <trkpt lat="31.572245014831424" lon="-4.890410006046295">
        <ele>943.10799999999995</ele>
        <time>2011-01-02T15:30:35Z</time>
      </trkpt>
      <trkpt lat="31.572855971753597" lon="-4.890858018770814">
        <ele>943.428</ele>
        <time>2011-01-02T15:30:48Z</time>
      </trkpt>
      <trkpt lat="31.573484027758241" lon="-4.891174016520381">
        <ele>942.24800000000005</ele>
        <time>2011-01-02T15:31:01Z</time>
      </trkpt>
      <trkpt lat="31.573962969705462" lon="-4.891404015943408">
        <ele>942.68399999999997</ele>
        <time>2011-01-02T15:31:12Z</time>
      </trkpt>
      <trkpt lat="31.574400002136827" lon="-4.891611970961094">
        <ele>942.65300000000002</ele>
        <time>2011-01-02T15:31:21Z</time>
      </trkpt>
      <trkpt lat="31.574910962954164" lon="-4.891893016174436">
        <ele>941.73299999999995</ele>
        <time>2011-01-02T15:31:31Z</time>
      </trkpt>
      <trkpt lat="31.575419995933771" lon="-4.892168026417494">
        <ele>936.47199999999998</ele>
        <time>2011-01-02T15:31:44Z</time>
      </trkpt>
      <trkpt lat="31.575539018958807" lon="-4.892232986167073">
        <ele>933.02200000000005</ele>
        <time>2011-01-02T15:31:51Z</time>
      </trkpt>
      <trkpt lat="31.575396023690701" lon="-4.892064006999135">
        <ele>891.91899999999998</ele>
        <time>2011-01-02T15:32:49Z</time>
      </trkpt>
      <trkpt lat="31.575853005051613" lon="-4.892501039430499">
        <ele>976.77200000000005</ele>
        <time>2011-01-02T15:45:47Z</time>
      </trkpt>
      <trkpt lat="31.576366983354092" lon="-4.892834974452853">
        <ele>976.92200000000003</ele>
        <time>2011-01-02T15:45:54Z</time>
      </trkpt>
      <trkpt lat="31.577274994924664" lon="-4.893294973298907">
        <ele>976.03399999999999</ele>
        <time>2011-01-02T15:46:02Z</time>
      </trkpt>
      <trkpt lat="31.578818019479513" lon="-4.893892016261816">
        <ele>974.44299999999998</ele>
        <time>2011-01-02T15:46:13Z</time>
      </trkpt>
      <trkpt lat="31.580397002398968" lon="-4.894520994275808">
        <ele>973.88599999999997</ele>
        <time>2011-01-02T15:46:23Z</time>
      </trkpt>
      <trkpt lat="31.582508990541101" lon="-4.895202023908496">
        <ele>973.577</ele>
        <time>2011-01-02T15:46:35Z</time>
      </trkpt>
      <trkpt lat="31.584585020318627" lon="-4.895697981119156">
        <ele>975.90599999999995</ele>
        <time>2011-01-02T15:46:46Z</time>
      </trkpt>
      <trkpt lat="31.58676297403872" lon="-4.896193016320467">
        <ele>977.85599999999999</ele>
        <time>2011-01-02T15:46:57Z</time>
      </trkpt>
      <trkpt lat="31.586919967085123" lon="-4.896212965250015">
        <ele>978.10699999999997</ele>
        <time>2011-01-02T15:46:58Z</time>
      </trkpt>
      <trkpt lat="31.587653970345855" lon="-4.896125039085746">
        <ele>979.17600000000004</ele>
        <time>2011-01-02T15:47:03Z</time>
      </trkpt>
      <trkpt lat="31.588524011895061" lon="-4.896352021023631">
        <ele>978.57600000000002</ele>
        <time>2011-01-02T15:47:09Z</time>
      </trkpt>
      <trkpt lat="31.588822994381189" lon="-4.896452017128468">
        <ele>978.31600000000003</ele>
        <time>2011-01-02T15:47:11Z</time>
      </trkpt>
      <trkpt lat="31.589436968788505" lon="-4.89654203876853">
        <ele>979.83900000000006</ele>
        <time>2011-01-02T15:47:15Z</time>
      </trkpt>
      <trkpt lat="31.590384962037206" lon="-4.897055011242628">
        <ele>980.53300000000002</ele>
        <time>2011-01-02T15:47:21Z</time>
      </trkpt>
      <trkpt lat="31.591698992997408" lon="-4.898087996989489">
        <ele>980.25900000000001</ele>
        <time>2011-01-02T15:47:29Z</time>
      </trkpt>
      <trkpt lat="31.592689985409379" lon="-4.89920798689127">
        <ele>978.87099999999998</ele>
        <time>2011-01-02T15:47:36Z</time>
      </trkpt>
      <trkpt lat="31.593946013599634" lon="-4.899969985708594">
        <ele>977.73900000000003</ele>
        <time>2011-01-02T15:47:43Z</time>
      </trkpt>
      <trkpt lat="31.595184020698071" lon="-4.900236027315259">
        <ele>975.79899999999998</ele>
        <time>2011-01-02T15:47:49Z</time>
      </trkpt>
      <trkpt lat="31.596340974792838" lon="-4.900127984583378">
        <ele>971.70799999999997</ele>
        <time>2011-01-02T15:47:55Z</time>
      </trkpt>
      <trkpt lat="31.5968800149858" lon="-4.900049027055502">
        <ele>970.56899999999996</ele>
        <time>2011-01-02T15:47:58Z</time>
      </trkpt>
      <trkpt lat="31.597924986854196" lon="-4.900359995663166">
        <ele>969.53999999999996</ele>
        <time>2011-01-02T15:48:04Z</time>
      </trkpt>
      <trkpt lat="31.598547007888556" lon="-4.900644980370998">
        <ele>969.45100000000002</ele>
        <time>2011-01-02T15:48:08Z</time>
      </trkpt>
      <trkpt lat="31.599059980362654" lon="-4.901212016120553">
        <ele>971.30200000000002</ele>
        <time>2011-01-02T15:48:13Z</time>
      </trkpt>
      <trkpt lat="31.599530959501863" lon="-4.901556009426713">
        <ele>972.33199999999999</ele>
        <time>2011-01-02T15:48:17Z</time>
      </trkpt>
      <trkpt lat="31.600863011553884" lon="-4.902104018256068">
        <ele>973.67399999999998</ele>
        <time>2011-01-02T15:48:25Z</time>
      </trkpt>
      <trkpt lat="31.601857021450996" lon="-4.902797034010291">
        <ele>974.03399999999999</ele>
        <time>2011-01-02T15:48:31Z</time>
      </trkpt>
      <trkpt lat="31.603258978575468" lon="-4.903713008388877">
        <ele>975.94799999999998</ele>
        <time>2011-01-02T15:48:39Z</time>
      </trkpt>
      <trkpt lat="31.604231027886271" lon="-4.904351960867643">
        <ele>977.55700000000002</ele>
        <time>2011-01-02T15:48:45Z</time>
      </trkpt>
      <trkpt lat="31.60470200702548" lon="-4.904642980545759">
        <ele>978.279</ele>
        <time>2011-01-02T15:48:48Z</time>
      </trkpt>
      <trkpt lat="31.605297038331628" lon="-4.90543900988996">
        <ele>979.42700000000002</ele>
        <time>2011-01-02T15:48:53Z</time>
      </trkpt>
      <trkpt lat="31.606101030483842" lon="-4.906543996185064">
        <ele>981.53899999999999</ele>
        <time>2011-01-02T15:49:00Z</time>
      </trkpt>
      <trkpt lat="31.607855027541518" lon="-4.908148040995002">
        <ele>984.19899999999996</ele>
        <time>2011-01-02T15:49:12Z</time>
      </trkpt>
      <trkpt lat="31.608865968883038" lon="-4.909072984009981">
        <ele>984.99800000000005</ele>
        <time>2011-01-02T15:49:20Z</time>
      </trkpt>
      <trkpt lat="31.610642010346055" lon="-4.910687003284693">
        <ele>985.31299999999999</ele>
        <time>2011-01-02T15:49:36Z</time>
      </trkpt>
      <trkpt lat="31.611253973096609" lon="-4.91123903542757">
        <ele>985.96100000000001</ele>
        <time>2011-01-02T15:49:43Z</time>
      </trkpt>
      <trkpt lat="31.611736016348004" lon="-4.911658968776465">
        <ele>986.58199999999999</ele>
        <time>2011-01-02T15:49:51Z</time>
      </trkpt>
      <trkpt lat="31.612408999353647" lon="-4.912265986204147">
        <ele>987.73199999999997</ele>
        <time>2011-01-02T15:50:01Z</time>
      </trkpt>
      <trkpt lat="31.61301501095295" lon="-4.912865040823817">
        <ele>991.11199999999997</ele>
        <time>2011-01-02T15:50:13Z</time>
      </trkpt>
      <trkpt lat="31.613207962363958" lon="-4.91304500028491">
        <ele>994.61099999999999</ele>
        <time>2011-01-02T15:50:20Z</time>
      </trkpt>
      <trkpt lat="31.613305024802685" lon="-4.91312999278307">
        <ele>998.08500000000004</ele>
        <time>2011-01-02T15:50:28Z</time>
      </trkpt>
      <trkpt lat="31.613840041682124" lon="-4.913694011047483">
        <ele>1002.494</ele>
        <time>2011-01-02T15:50:39Z</time>
      </trkpt>
      <trkpt lat="31.614573039114475" lon="-4.914494985714555">
        <ele>1006.364</ele>
        <time>2011-01-02T15:50:51Z</time>
      </trkpt>
      <trkpt lat="31.614841008558869" lon="-4.914754992350936">
        <ele>1007.063</ele>
        <time>2011-01-02T15:50:55Z</time>
      </trkpt>
      <trkpt lat="31.615496976301074" lon="-4.915035031735897">
        <ele>1005.752</ele>
        <time>2011-01-02T15:51:03Z</time>
      </trkpt>
      <trkpt lat="31.616338016465306" lon="-4.915306018665433">
        <ele>1003.662</ele>
        <time>2011-01-02T15:51:11Z</time>
      </trkpt>
      <trkpt lat="31.61797902546823" lon="-4.915855033323169">
        <ele>1003.009</ele>
        <time>2011-01-02T15:51:26Z</time>
      </trkpt>
      <trkpt lat="31.618789974600077" lon="-4.916345961391926">
        <ele>1003.126</ele>
        <time>2011-01-02T15:51:35Z</time>
      </trkpt>
      <trkpt lat="31.619342006742954" lon="-4.916839990764856">
        <ele>1003.276</ele>
        <time>2011-01-02T15:51:41Z</time>
      </trkpt>
      <trkpt lat="31.619682982563972" lon="-4.917587991803885">
        <ele>1004.106</ele>
        <time>2011-01-02T15:51:47Z</time>
      </trkpt>
      <trkpt lat="31.619658004492521" lon="-4.91800800897181">
        <ele>1004.037</ele>
        <time>2011-01-02T15:51:50Z</time>
      </trkpt>
      <trkpt lat="31.619198005646467" lon="-4.919782960787416">
        <ele>997.096</ele>
        <time>2011-01-02T15:52:03Z</time>
      </trkpt>
      <trkpt lat="31.618746975436807" lon="-4.921010993421078">
        <ele>995.72699999999998</ele>
        <time>2011-01-02T15:52:10Z</time>
      </trkpt>
      <trkpt lat="31.618222016841173" lon="-4.922728026285768">
        <ele>993.55799999999999</ele>
        <time>2011-01-02T15:52:18Z</time>
      </trkpt>
      <trkpt lat="31.617639977484941" lon="-4.92447498254478">
        <ele>991.76199999999994</ele>
        <time>2011-01-02T15:52:26Z</time>
      </trkpt>
      <trkpt lat="31.616729032248259" lon="-4.927260959520936">
        <ele>989.30200000000002</ele>
        <time>2011-01-02T15:52:39Z</time>
      </trkpt>
      <trkpt lat="31.615930991247296" lon="-4.930364023894072">
        <ele>985.94200000000001</ele>
        <time>2011-01-02T15:52:53Z</time>
      </trkpt>
      <trkpt lat="31.615321962162852" lon="-4.932722020894289">
        <ele>981.71199999999999</ele>
        <time>2011-01-02T15:53:04Z</time>
      </trkpt>
      <trkpt lat="31.615134961903095" lon="-4.933531964197755">
        <ele>979.84100000000001</ele>
        <time>2011-01-02T15:53:09Z</time>
      </trkpt>
      <trkpt lat="31.614828016608953" lon="-4.934420026838779">
        <ele>977.55100000000004</ele>
        <time>2011-01-02T15:53:17Z</time>
      </trkpt>
      <trkpt lat="31.614717962220311" lon="-4.93472202681005">
        <ele>975.42999999999995</ele>
        <time>2011-01-02T15:53:23Z</time>
      </trkpt>
      <trkpt lat="31.614665994420648" lon="-4.934882959350944">
        <ele>973.36800000000005</ele>
        <time>2011-01-02T15:53:38Z</time>
      </trkpt>
      <trkpt lat="31.614690972492099" lon="-4.935069037601352">
        <ele>974.52700000000004</ele>
        <time>2011-01-02T15:53:46Z</time>
      </trkpt>
      <trkpt lat="31.614826004952192" lon="-4.934996031224728">
        <ele>967.93700000000001</ele>
        <time>2011-01-02T15:53:52Z</time>
      </trkpt>
      <trkpt lat="31.61510000936687" lon="-4.934288011863828">
        <ele>978.37800000000004</ele>
        <time>2011-01-02T15:54:02Z</time>
      </trkpt>
      <trkpt lat="31.615527989342809" lon="-4.932998036965728">
        <ele>986.14599999999996</ele>
        <time>2011-01-02T15:54:13Z</time>
      </trkpt>
      <trkpt lat="31.615910036489367" lon="-4.93141402490437">
        <ele>993.92700000000002</ele>
        <time>2011-01-02T15:54:25Z</time>
      </trkpt>
      <trkpt lat="31.616322007030249" lon="-4.929911987856031">
        <ele>998.21600000000001</ele>
        <time>2011-01-02T15:54:36Z</time>
      </trkpt>
      <trkpt lat="31.616740012541413" lon="-4.928195038810372">
        <ele>1000.677</ele>
        <time>2011-01-02T15:54:48Z</time>
      </trkpt>
      <trkpt lat="31.616902034729719" lon="-4.927308987826109">
        <ele>1002.6660000000001</ele>
        <time>2011-01-02T15:54:56Z</time>
      </trkpt>
      <trkpt lat="31.617015022784472" lon="-4.926831973716617">
        <ele>1004.418</ele>
        <time>2011-01-02T15:55:02Z</time>
      </trkpt>
      <trkpt lat="31.617374019697309" lon="-4.926274996250868">
        <ele>1005.647</ele>
        <time>2011-01-02T15:55:09Z</time>
      </trkpt>
      <trkpt lat="31.617553979158401" lon="-4.92580896243453">
        <ele>1007.6180000000001</ele>
        <time>2011-01-02T15:55:16Z</time>
      </trkpt>
      <trkpt lat="31.617567976936698" lon="-4.925553984940052">
        <ele>1008.878</ele>
        <time>2011-01-02T15:55:24Z</time>
      </trkpt>
      <trkpt lat="31.617475021630526" lon="-4.925060961395502">
        <ele>1003.25</ele>
        <time>2011-01-02T15:55:33Z</time>
      </trkpt>
      <trkpt lat="31.61741903051734" lon="-4.924954008311033">
        <ele>999.18100000000004</ele>
        <time>2011-01-02T15:55:49Z</time>
      </trkpt>
      <trkpt lat="31.617536041885614" lon="-4.924480011686683">
        <ele>997.74900000000002</ele>
        <time>2011-01-02T15:55:55Z</time>
      </trkpt>
      <trkpt lat="31.617874000221491" lon="-4.923535035923123">
        <ele>993.63800000000003</ele>
        <time>2011-01-02T15:56:02Z</time>
      </trkpt>
      <trkpt lat="31.618248000741005" lon="-4.922116985544562">
        <ele>990.25900000000001</ele>
        <time>2011-01-02T15:56:10Z</time>
      </trkpt>
      <trkpt lat="31.618747981265187" lon="-4.920556023716927">
        <ele>986.12800000000004</ele>
        <time>2011-01-02T15:56:18Z</time>
      </trkpt>
      <trkpt lat="31.619155006483197" lon="-4.919157000258565">
        <ele>982.06899999999996</ele>
        <time>2011-01-02T15:56:26Z</time>
      </trkpt>
      <trkpt lat="31.619428005069494" lon="-4.917855961248279">
        <ele>980.05100000000004</ele>
        <time>2011-01-02T15:56:35Z</time>
      </trkpt>
      <trkpt lat="31.619835030287504" lon="-4.91706202737987">
        <ele>979.89200000000005</ele>
        <time>2011-01-02T15:56:43Z</time>
      </trkpt>
      <trkpt lat="31.620173994451761" lon="-4.916397007182241">
        <ele>980.86300000000006</ele>
        <time>2011-01-02T15:56:50Z</time>
      </trkpt>
      <trkpt lat="31.620489992201328" lon="-4.916286030784249">
        <ele>979.09100000000001</ele>
        <time>2011-01-02T15:56:56Z</time>
      </trkpt>
      <trkpt lat="31.620849994942546" lon="-4.916540002450347">
        <ele>978.62199999999996</ele>
        <time>2011-01-02T15:57:00Z</time>
      </trkpt>
      <trkpt lat="31.6217399854213" lon="-4.917509034276009">
        <ele>978.84299999999996</ele>
        <time>2011-01-02T15:57:10Z</time>
      </trkpt>
      <trkpt lat="31.622125972062349" lon="-4.918022006750107">
        <ele>981.39400000000001</ele>
        <time>2011-01-02T15:57:15Z</time>
      </trkpt>
      <trkpt lat="31.622713962569833" lon="-4.91871502250433">
        <ele>984.87300000000005</ele>
        <time>2011-01-02T15:57:23Z</time>
      </trkpt>
      <trkpt lat="31.62300799973309" lon="-4.919305024668574">
        <ele>985.57399999999996</ele>
        <time>2011-01-02T15:57:28Z</time>
      </trkpt>
      <trkpt lat="31.623143032193184" lon="-4.919537035748363">
        <ele>986.06899999999996</ele>
        <time>2011-01-02T15:57:30Z</time>
      </trkpt>
      <trkpt lat="31.623475039377809" lon="-4.92039198987186">
        <ele>987.00800000000004</ele>
        <time>2011-01-02T15:57:37Z</time>
      </trkpt>
      <trkpt lat="31.623601019382477" lon="-4.920744029805064">
        <ele>987.47799999999995</ele>
        <time>2011-01-02T15:57:40Z</time>
      </trkpt>
      <trkpt lat="31.624095970764756" lon="-4.921458000317216">
        <ele>990.24900000000002</ele>
        <time>2011-01-02T15:57:47Z</time>
      </trkpt>
      <trkpt lat="31.62483299151063" lon="-4.922825004905462">
        <ele>991.80899999999997</ele>
        <time>2011-01-02T15:57:58Z</time>
      </trkpt>
      <trkpt lat="31.625383011996746" lon="-4.923469992354512">
        <ele>988.55799999999999</ele>
        <time>2011-01-02T15:58:05Z</time>
      </trkpt>
      <trkpt lat="31.626116009429097" lon="-4.924222016707063">
        <ele>990.46000000000004</ele>
        <time>2011-01-02T15:58:16Z</time>
      </trkpt>
      <trkpt lat="31.626806007698178" lon="-4.924931041896343">
        <ele>993.44799999999998</ele>
        <time>2011-01-02T15:58:25Z</time>
      </trkpt>
      <trkpt lat="31.627867994830012" lon="-4.926112974062562">
        <ele>997.01099999999997</ele>
        <time>2011-01-02T15:58:36Z</time>
      </trkpt>
      <trkpt lat="31.628815988078713" lon="-4.927216032519937">
        <ele>1000.33</ele>
        <time>2011-01-02T15:58:47Z</time>
      </trkpt>
      <trkpt lat="31.629308005794883" lon="-4.927797988057137">
        <ele>1000.539</ele>
        <time>2011-01-02T15:58:56Z</time>
      </trkpt>
      <trkpt lat="31.629534987732768" lon="-4.928257986903191">
        <ele>1001.168</ele>
        <time>2011-01-02T15:59:04Z</time>
      </trkpt>
      <trkpt lat="31.629898007959127" lon="-4.9292659945786">
        <ele>1001.088</ele>
        <time>2011-01-02T15:59:14Z</time>
      </trkpt>
      <trkpt lat="31.630329005420208" lon="-4.930407023057342">
        <ele>1001.8579999999999</ele>
        <time>2011-01-02T15:59:25Z</time>
      </trkpt>
      <trkpt lat="31.630594963207841" lon="-4.930981015786529">
        <ele>1002.3099999999999</ele>
        <time>2011-01-02T15:59:30Z</time>
      </trkpt>
      <trkpt lat="31.631270963698626" lon="-4.931778972968459">
        <ele>1004.622</ele>
        <time>2011-01-02T15:59:38Z</time>
      </trkpt>
      <trkpt lat="31.632020976394415" lon="-4.932417003437877">
        <ele>1002.611</ele>
        <time>2011-01-02T15:59:46Z</time>
      </trkpt>
      <trkpt lat="31.632664036005735" lon="-4.932813970372081">
        <ele>997.21000000000004</ele>
        <time>2011-01-02T15:59:53Z</time>
      </trkpt>
      <trkpt lat="31.633198969066143" lon="-4.933100966736674">
        <ele>994.279</ele>
        <time>2011-01-02T15:59:59Z</time>
      </trkpt>
      <trkpt lat="31.633657962083817" lon="-4.933676971122623">
        <ele>994.86400000000003</ele>
        <time>2011-01-02T16:00:05Z</time>
      </trkpt>
      <trkpt lat="31.634250981733203" lon="-4.93418600410223">
        <ele>994.84199999999998</ele>
        <time>2011-01-02T16:00:12Z</time>
      </trkpt>
      <trkpt lat="31.635092021897435" lon="-4.934740969911218">
        <ele>992.64999999999998</ele>
        <time>2011-01-02T16:00:21Z</time>
      </trkpt>
      <trkpt lat="31.635184977203608" lon="-4.93478799238801">
        <ele>992.16899999999998</ele>
        <time>2011-01-02T16:00:22Z</time>
      </trkpt>
      <trkpt lat="31.635824013501406" lon="-4.935358967632055">
        <ele>991.93100000000004</ele>
        <time>2011-01-02T16:00:29Z</time>
      </trkpt>
      <trkpt lat="31.635987041518092" lon="-4.935918962582946">
        <ele>993.56200000000001</ele>
        <time>2011-01-02T16:00:35Z</time>
      </trkpt>
      <trkpt lat="31.63613598793745" lon="-4.936287011951208">
        <ele>995.16399999999999</ele>
        <time>2011-01-02T16:00:39Z</time>
      </trkpt>
      <trkpt lat="31.636518035084009" lon="-4.93678699247539">
        <ele>997.00300000000004</ele>
        <time>2011-01-02T16:00:45Z</time>
      </trkpt>
      <trkpt lat="31.636851970106363" lon="-4.936836026608944">
        <ele>993.06899999999996</ele>
        <time>2011-01-02T16:00:51Z</time>
      </trkpt>
      <trkpt lat="31.63727399893105" lon="-4.936646008864045">
        <ele>989.80100000000004</ele>
        <time>2011-01-02T16:00:57Z</time>
      </trkpt>
      <trkpt lat="31.637602988630533" lon="-4.936565961688757">
        <ele>988.76999999999998</ele>
        <time>2011-01-02T16:01:01Z</time>
      </trkpt>
      <trkpt lat="31.638076985254884" lon="-4.936553975567222">
        <ele>986.59000000000003</ele>
        <time>2011-01-02T16:01:08Z</time>
      </trkpt>
      <trkpt lat="31.638515023514628" lon="-4.936882965266705">
        <ele>987.45399999999995</ele>
        <time>2011-01-02T16:01:14Z</time>
      </trkpt>
      <trkpt lat="31.638570008799434" lon="-4.936983967199922">
        <ele>987.46299999999997</ele>
        <time>2011-01-02T16:01:15Z</time>
      </trkpt>
      <trkpt lat="31.63916202262044" lon="-4.937973031774163">
        <ele>988.26300000000003</ele>
        <time>2011-01-02T16:01:24Z</time>
      </trkpt>
      <trkpt lat="31.64017497561872" lon="-4.93910601362586">
        <ele>989.71500000000003</ele>
        <time>2011-01-02T16:01:35Z</time>
      </trkpt>
      <trkpt lat="31.641029007732868" lon="-4.940000027418137">
        <ele>992.54600000000005</ele>
        <time>2011-01-02T16:01:44Z</time>
      </trkpt>
      <trkpt lat="31.641501998528838" lon="-4.940449967980385">
        <ele>993.96699999999998</ele>
        <time>2011-01-02T16:01:50Z</time>
      </trkpt>
      <trkpt lat="31.642261985689402" lon="-4.941044999286532">
        <ele>993.62599999999998</ele>
        <time>2011-01-02T16:01:58Z</time>
      </trkpt>
      <trkpt lat="31.642986014485359" lon="-4.941579010337591">
        <ele>998.63099999999997</ele>
        <time>2011-01-02T16:02:05Z</time>
      </trkpt>
      <trkpt lat="31.643765028566122" lon="-4.942428013309836">
        <ele>998.30499999999995</ele>
        <time>2011-01-02T16:02:14Z</time>
      </trkpt>
      <trkpt lat="31.644256040453911" lon="-4.942969987168908">
        <ele>998.83600000000001</ele>
        <time>2011-01-02T16:02:20Z</time>
      </trkpt>
      <trkpt lat="31.645090961828828" lon="-4.943606005981565">
        <ele>1001.136</ele>
        <time>2011-01-02T16:02:28Z</time>
      </trkpt>
      <trkpt lat="31.645710971206427" lon="-4.943923009559512">
        <ele>997.28399999999999</ele>
        <time>2011-01-02T16:02:34Z</time>
      </trkpt>
      <trkpt lat="31.646413961425424" lon="-4.94449800811708">
        <ele>998.13699999999994</ele>
        <time>2011-01-02T16:02:42Z</time>
      </trkpt>
      <trkpt lat="31.647279979661107" lon="-4.945049034431577">
        <ele>995.11599999999999</ele>
        <time>2011-01-02T16:02:51Z</time>
      </trkpt>
      <trkpt lat="31.647650962695479" lon="-4.945526970550418">
        <ele>997.20600000000002</ele>
        <time>2011-01-02T16:02:57Z</time>
      </trkpt>
      <trkpt lat="31.648047007620335" lon="-4.945863001048565">
        <ele>999.09699999999998</ele>
        <time>2011-01-02T16:03:03Z</time>
      </trkpt>
      <trkpt lat="31.648840019479394" lon="-4.946430958807468">
        <ele>1000.025</ele>
        <time>2011-01-02T16:03:12Z</time>
      </trkpt>
      <trkpt lat="31.649908041581511" lon="-4.947180971503258">
        <ele>994.48400000000004</ele>
        <time>2011-01-02T16:03:23Z</time>
      </trkpt>
      <trkpt lat="31.650928035378456" lon="-4.948003990575671">
        <ele>994.82600000000002</ele>
        <time>2011-01-02T16:03:33Z</time>
      </trkpt>
      <trkpt lat="31.651821965351701" lon="-4.949144013226032">
        <ele>995.62599999999998</ele>
        <time>2011-01-02T16:03:42Z</time>
      </trkpt>
      <trkpt lat="31.652776999399066" lon="-4.950237013399601">
        <ele>996.24599999999998</ele>
        <time>2011-01-02T16:03:51Z</time>
      </trkpt>
      <trkpt lat="31.653502034023404" lon="-4.951090039685369">
        <ele>997.97699999999998</ele>
        <time>2011-01-02T16:03:58Z</time>
      </trkpt>
      <trkpt lat="31.654575001448393" lon="-4.952255040407181">
        <ele>1000.817</ele>
        <time>2011-01-02T16:04:09Z</time>
      </trkpt>
      <trkpt lat="31.655419981107116" lon="-4.953118963167071">
        <ele>1003.297</ele>
        <time>2011-01-02T16:04:17Z</time>
      </trkpt>
      <trkpt lat="31.65652203373611" lon="-4.95399403385818">
        <ele>1003.616</ele>
        <time>2011-01-02T16:04:26Z</time>
      </trkpt>
      <trkpt lat="31.657669013366103" lon="-4.954843958839774">
        <ele>1006.698</ele>
        <time>2011-01-02T16:04:35Z</time>
      </trkpt>
      <trkpt lat="31.658449033275247" lon="-4.955459022894502">
        <ele>1009.125</ele>
        <time>2011-01-02T16:04:43Z</time>
      </trkpt>
      <trkpt lat="31.659468021243811" lon="-4.956239964812994">
        <ele>1010.174</ele>
        <time>2011-01-02T16:04:51Z</time>
      </trkpt>
      <trkpt lat="31.660984978079796" lon="-4.957415023818612">
        <ele>1012.504</ele>
        <time>2011-01-02T16:05:03Z</time>
      </trkpt>
      <trkpt lat="31.661527035757899" lon="-4.95782196521759">
        <ele>1013.514</ele>
        <time>2011-01-02T16:05:09Z</time>
      </trkpt>
      <trkpt lat="31.66223899461329" lon="-4.958371985703707">
        <ele>1014.686</ele>
        <time>2011-01-02T16:05:16Z</time>
      </trkpt>
      <trkpt lat="31.663155974820256" lon="-4.959078999236226">
        <ele>1015.616</ele>
        <time>2011-01-02T16:05:23Z</time>
      </trkpt>
      <trkpt lat="31.66404202580452" lon="-4.959458028897643">
        <ele>1015.165</ele>
        <time>2011-01-02T16:05:29Z</time>
      </trkpt>
      <trkpt lat="31.66552796959877" lon="-4.960050964727998">
        <ele>1016.253</ele>
        <time>2011-01-02T16:05:39Z</time>
      </trkpt>
      <trkpt lat="31.666922969743609" lon="-4.960636021569371">
        <ele>1017.764</ele>
        <time>2011-01-02T16:05:49Z</time>
      </trkpt>
      <trkpt lat="31.668817028403282" lon="-4.96138502843678">
        <ele>1020.063</ele>
        <time>2011-01-02T16:06:02Z</time>
      </trkpt>
      <trkpt lat="31.670332979410887" lon="-4.962004031985998">
        <ele>1021.343</ele>
        <time>2011-01-02T16:06:13Z</time>
      </trkpt>
      <trkpt lat="31.671202015131712" lon="-4.962366968393326">
        <ele>1022.495</ele>
        <time>2011-01-02T16:06:20Z</time>
      </trkpt>
      <trkpt lat="31.672369027510285" lon="-4.962839037179947">
        <ele>1024.0940000000001</ele>
        <time>2011-01-02T16:06:29Z</time>
      </trkpt>
      <trkpt lat="31.673359014093876" lon="-4.96321496553719">
        <ele>1024.6320000000001</ele>
        <time>2011-01-02T16:06:37Z</time>
      </trkpt>
      <trkpt lat="31.673719016835093" lon="-4.963415041565895">
        <ele>1024.5999999999999</ele>
        <time>2011-01-02T16:06:41Z</time>
      </trkpt>
      <trkpt lat="31.674132999032736" lon="-4.96353498660028">
        <ele>1025.1510000000001</ele>
        <time>2011-01-02T16:06:45Z</time>
      </trkpt>
      <trkpt lat="31.674462994560599" lon="-4.963581003248692">
        <ele>1025.6320000000001</ele>
        <time>2011-01-02T16:06:48Z</time>
      </trkpt>
      <trkpt lat="31.675519030541182" lon="-4.963558036834002">
        <ele>1027.021</ele>
        <time>2011-01-02T16:06:57Z</time>
      </trkpt>
      <trkpt lat="31.675713993608952" lon="-4.963538004085422">
        <ele>1027.3620000000001</ele>
        <time>2011-01-02T16:06:59Z</time>
      </trkpt>
      <trkpt lat="31.676484039053321" lon="-4.963665995746851">
        <ele>1028.222</ele>
        <time>2011-01-02T16:07:08Z</time>
      </trkpt>
      <trkpt lat="31.676845969632268" lon="-4.963705977424979">
        <ele>1028.941</ele>
        <time>2011-01-02T16:07:15Z</time>
      </trkpt>
      <trkpt lat="31.676931967958808" lon="-4.963757023215294">
        <ele>1026.6669999999999</ele>
        <time>2011-01-02T16:09:38Z</time>
      </trkpt>
      <trkpt lat="31.677347961813211" lon="-4.964046031236649">
        <ele>1025.0239999999999</ele>
        <time>2011-01-02T16:09:49Z</time>
      </trkpt>
      <trkpt lat="31.677702013403177" lon="-4.964271001517773">
        <ele>1014.673</ele>
        <time>2011-01-02T16:10:01Z</time>
      </trkpt>
      <trkpt lat="31.677952967584133" lon="-4.964420031756163">
        <ele>1012.0650000000001</ele>
        <time>2011-01-02T16:10:12Z</time>
      </trkpt>
      <trkpt lat="31.678501982241869" lon="-4.964326992630959">
        <ele>1012.818</ele>
        <time>2011-01-02T16:10:20Z</time>
      </trkpt>
      <trkpt lat="31.679318966343999" lon="-4.96389901265502">
        <ele>1013.258</ele>
        <time>2011-01-02T16:10:30Z</time>
      </trkpt>
      <trkpt lat="31.680204011499882" lon="-4.963358966633678">
        <ele>1017.427</ele>
        <time>2011-01-02T16:10:41Z</time>
      </trkpt>
      <trkpt lat="31.68127303943038" lon="-4.962451960891485">
        <ele>1020.6849999999999</ele>
        <time>2011-01-02T16:10:53Z</time>
      </trkpt>
      <trkpt lat="31.682243999093771" lon="-4.961623996496201">
        <ele>1019.324</ele>
        <time>2011-01-02T16:11:04Z</time>
      </trkpt>
      <trkpt lat="31.683531040325761" lon="-4.960525967180729">
        <ele>1021.515</ele>
        <time>2011-01-02T16:11:19Z</time>
      </trkpt>
      <trkpt lat="31.684770975261927" lon="-4.959464985877276">
        <ele>1023.914</ele>
        <time>2011-01-02T16:11:33Z</time>
      </trkpt>
      <trkpt lat="31.685671024024487" lon="-4.958697035908699">
        <ele>1024.5309999999999</ele>
        <time>2011-01-02T16:11:45Z</time>
      </trkpt>
      <trkpt lat="31.686461018398404" lon="-4.958068979904056">
        <ele>1024.069</ele>
        <time>2011-01-02T16:11:57Z</time>
      </trkpt>
      <trkpt lat="31.687315972521901" lon="-4.957414017990232">
        <ele>1024.739</ele>
        <time>2011-01-02T16:12:10Z</time>
      </trkpt>
      <trkpt lat="31.687872027978301" lon="-4.956980003044009">
        <ele>1026.2919999999999</ele>
        <time>2011-01-02T16:12:21Z</time>
      </trkpt>
      <trkpt lat="31.688334960490465" lon="-4.95661798864603">
        <ele>1027.4190000000001</ele>
        <time>2011-01-02T16:12:32Z</time>
      </trkpt>
      <trkpt lat="31.688762018457055" lon="-4.956283969804645">
        <ele>1025.038</ele>
        <time>2011-01-02T16:12:40Z</time>
      </trkpt>
      <trkpt lat="31.689603980630636" lon="-4.95552197098732">
        <ele>1027.951</ele>
        <time>2011-01-02T16:12:57Z</time>
      </trkpt>
      <trkpt lat="31.69016900472343" lon="-4.954948984086514">
        <ele>1030.4390000000001</ele>
        <time>2011-01-02T16:13:09Z</time>
      </trkpt>
      <trkpt lat="31.690690023824573" lon="-4.954450009390712">
        <ele>1032.319</ele>
        <time>2011-01-02T16:13:22Z</time>
      </trkpt>
      <trkpt lat="31.691096965223551" lon="-4.954116996377707">
        <ele>1031.1890000000001</ele>
        <time>2011-01-02T16:13:34Z</time>
      </trkpt>
      <trkpt lat="31.691182041540742" lon="-4.954048013314605">
        <ele>1030.856</ele>
        <time>2011-01-02T16:14:49Z</time>
      </trkpt>
      <trkpt lat="31.691303998231888" lon="-4.953957991674542">
        <ele>1031.5940000000001</ele>
        <time>2011-01-02T16:20:45Z</time>
      </trkpt>
      <trkpt lat="31.691104006022215" lon="-4.954111967235804">
        <ele>1031.162</ele>
        <time>2011-01-02T16:20:53Z</time>
      </trkpt>
      <trkpt lat="31.690636966377497" lon="-4.954494014382362">
        <ele>1030.7149999999999</ele>
        <time>2011-01-02T16:21:01Z</time>
      </trkpt>
      <trkpt lat="31.690099015831947" lon="-4.955018972977996">
        <ele>1030.5060000000001</ele>
        <time>2011-01-02T16:21:11Z</time>
      </trkpt>
      <trkpt lat="31.690089963376522" lon="-4.955217959359288">
        <ele>1029.0640000000001</ele>
        <time>2011-01-02T16:21:17Z</time>
      </trkpt>
      <trkpt lat="31.690466981381178" lon="-4.955738978460431">
        <ele>1029.5940000000001</ele>
        <time>2011-01-02T16:21:30Z</time>
      </trkpt>
      <trkpt lat="31.690648030489683" lon="-4.955967972055078">
        <ele>1033.135</ele>
        <time>2011-01-02T16:21:41Z</time>
      </trkpt>
      <trkpt lat="31.690795971080661" lon="-4.956197971478105">
        <ele>1033.8040000000001</ele>
        <time>2011-01-02T16:21:49Z</time>
      </trkpt>
      <trkpt lat="31.690952964127064" lon="-4.956438029184938">
        <ele>1032.644</ele>
        <time>2011-01-02T16:21:59Z</time>
      </trkpt>
      <trkpt lat="31.691001998260617" lon="-4.956561997532845">
        <ele>1035.134</ele>
        <time>2011-01-02T16:22:40Z</time>
      </trkpt>
      <trkpt lat="31.691208025440574" lon="-4.956884030252695">
        <ele>1031.4300000000001</ele>
        <time>2011-01-02T16:22:49Z</time>
      </trkpt>
      <trkpt lat="31.691194027662277" lon="-4.957116963341832">
        <ele>1031.8309999999999</ele>
        <time>2011-01-02T16:22:56Z</time>
      </trkpt>
      <trkpt lat="31.690847016870975" lon="-4.957319973036647">
        <ele>1033.183</ele>
        <time>2011-01-02T16:23:06Z</time>
      </trkpt>
      <trkpt lat="31.690738974139094" lon="-4.957184018567205">
        <ele>1033.914</ele>
        <time>2011-01-02T16:23:13Z</time>
      </trkpt>
      <trkpt lat="31.690664039924741" lon="-4.957031970843673">
        <ele>1033.8620000000001</ele>
        <time>2011-01-02T16:23:26Z</time>
      </trkpt>
      <trkpt lat="31.690437979996204" lon="-4.956700969487429">
        <ele>1032.5830000000001</ele>
        <time>2011-01-02T16:23:50Z</time>
      </trkpt>
      <trkpt lat="31.69023203663528" lon="-4.956382960081101">
        <ele>1032.404</ele>
        <time>2011-01-02T16:24:00Z</time>
      </trkpt>
      <trkpt lat="31.690082000568509" lon="-4.956132005900145">
        <ele>1036.9369999999999</ele>
        <time>2011-01-02T16:24:14Z</time>
      </trkpt>
      <trkpt lat="31.68997404165566" lon="-4.955910975113511">
        <ele>1034.7639999999999</ele>
        <time>2011-01-02T16:24:26Z</time>
      </trkpt>
      <trkpt lat="31.689813025295734" lon="-4.955658009275794">
        <ele>1032.5250000000001</ele>
        <time>2011-01-02T16:24:36Z</time>
      </trkpt>
      <trkpt lat="31.68969701975584" lon="-4.955587014555931">
        <ele>1021.585</ele>
        <time>2011-01-02T16:25:32Z</time>
      </trkpt>
      <trkpt lat="31.689570033922791" lon="-4.955405965447426">
        <ele>1035.325</ele>
        <time>2011-01-02T16:34:10Z</time>
      </trkpt>
      <trkpt lat="31.689807996153831" lon="-4.955315021798015">
        <ele>1032.826</ele>
        <time>2011-01-02T16:34:19Z</time>
      </trkpt>
      <trkpt lat="31.6904710046947" lon="-4.954642038792372">
        <ele>1034.3099999999999</ele>
        <time>2011-01-02T16:34:33Z</time>
      </trkpt>
      <trkpt lat="31.690972996875644" lon="-4.954219004139304">
        <ele>1033.4960000000001</ele>
        <time>2011-01-02T16:34:43Z</time>
      </trkpt>
      <trkpt lat="31.691173994913697" lon="-4.954054970294237">
        <ele>1032.7460000000001</ele>
        <time>2011-01-02T16:34:49Z</time>
      </trkpt>
      <trkpt lat="31.691250018775463" lon="-4.9539930280298">
        <ele>1037.857</ele>
        <time>2011-01-02T16:35:11Z</time>
      </trkpt>
      <trkpt lat="31.691527040675282" lon="-4.953765962272883">
        <ele>1032.663</ele>
        <time>2011-01-02T16:49:37Z</time>
      </trkpt>
      <trkpt lat="31.691944040358067" lon="-4.953425992280245">
        <ele>1032.086</ele>
        <time>2011-01-02T16:49:45Z</time>
      </trkpt>
      <trkpt lat="31.69242599979043" lon="-4.953047968447208">
        <ele>1034.991</ele>
        <time>2011-01-02T16:49:54Z</time>
      </trkpt>
      <trkpt lat="31.692657005041838" lon="-4.952888041734695">
        <ele>1034.8510000000001</ele>
        <time>2011-01-02T16:49:59Z</time>
      </trkpt>
      <trkpt lat="31.692897984758019" lon="-4.952779999002814">
        <ele>1033.9570000000001</ele>
        <time>2011-01-02T16:50:05Z</time>
      </trkpt>
      <trkpt lat="31.692989012226462" lon="-4.952835990116">
        <ele>1033.2139999999999</ele>
        <time>2011-01-02T16:50:07Z</time>
      </trkpt>
      <trkpt lat="31.693510031327605" lon="-4.953155005350709">
        <ele>1030.922</ele>
        <time>2011-01-02T16:50:15Z</time>
      </trkpt>
      <trkpt lat="31.693931976333261" lon="-4.953408977016807">
        <ele>1030.124</ele>
        <time>2011-01-02T16:50:22Z</time>
      </trkpt>
      <trkpt lat="31.693813959136605" lon="-4.954296033829451">
        <ele>1031.183</ele>
        <time>2011-01-02T16:50:26Z</time>
      </trkpt>
      <trkpt lat="31.694302037358284" lon="-4.955071024596691">
        <ele>1030.6110000000001</ele>
        <time>2011-01-02T16:50:38Z</time>
      </trkpt>
      <trkpt lat="31.694661034271121" lon="-4.955550972372294">
        <ele>1031.0429999999999</ele>
        <time>2011-01-02T16:50:47Z</time>
      </trkpt>
      <trkpt lat="31.694979965686798" lon="-4.955937964841723">
        <ele>1031.653</ele>
        <time>2011-01-02T16:50:54Z</time>
      </trkpt>
      <trkpt lat="31.695392020046711" lon="-4.956467030569911">
        <ele>1033.5450000000001</ele>
        <time>2011-01-02T16:51:05Z</time>
      </trkpt>
      <trkpt lat="31.695721009746194" lon="-4.95687598362565">
        <ele>1033.694</ele>
        <time>2011-01-02T16:51:15Z</time>
      </trkpt>
      <trkpt lat="31.696042036637664" lon="-4.957392979413271">
        <ele>1034.8800000000001</ele>
        <time>2011-01-02T16:51:25Z</time>
      </trkpt>
      <trkpt lat="31.696544028818607" lon="-4.957837974652648">
        <ele>1034.528</ele>
        <time>2011-01-02T16:51:35Z</time>
      </trkpt>
      <trkpt lat="31.696825996041298" lon="-4.958198983222246">
        <ele>1034.4690000000001</ele>
        <time>2011-01-02T16:51:46Z</time>
      </trkpt>
      <trkpt lat="31.696965973824263" lon="-4.958397969603539">
        <ele>1034.1679999999999</ele>
        <time>2011-01-02T16:51:49Z</time>
      </trkpt>
      <trkpt lat="31.69732203707099" lon="-4.959058966487646">
        <ele>1033.559</ele>
        <time>2011-01-02T16:51:58Z</time>
      </trkpt>
      <trkpt lat="31.697686985135078" lon="-4.95973396115005">
        <ele>1034.288</ele>
        <time>2011-01-02T16:52:06Z</time>
      </trkpt>
      <trkpt lat="31.697883037850261" lon="-4.960799971595407">
        <ele>1035.8199999999999</ele>
        <time>2011-01-02T16:52:15Z</time>
      </trkpt>
      <trkpt lat="31.697808019816875" lon="-4.961458034813404">
        <ele>1037.826</ele>
        <time>2011-01-02T16:52:22Z</time>
      </trkpt>
      <trkpt lat="31.697654966264963" lon="-4.962550029158592">
        <ele>1036.3299999999999</ele>
        <time>2011-01-02T16:52:32Z</time>
      </trkpt>
      <trkpt lat="31.697713974863291" lon="-4.962884970009327">
        <ele>1036.3720000000001</ele>
        <time>2011-01-02T16:52:35Z</time>
      </trkpt>
      <trkpt lat="31.697865016758442" lon="-4.963718969374895">
        <ele>1037.2349999999999</ele>
        <time>2011-01-02T16:52:42Z</time>
      </trkpt>
      <trkpt lat="31.698041036725044" lon="-4.964374015107751">
        <ele>1036.8240000000001</ele>
        <time>2011-01-02T16:52:47Z</time>
      </trkpt>
      <trkpt lat="31.698416965082288" lon="-4.965402977541089">
        <ele>1036.7239999999999</ele>
        <time>2011-01-02T16:52:55Z</time>
      </trkpt>
      <trkpt lat="31.698712008073926" lon="-4.966087024658918">
        <ele>1036.4749999999999</ele>
        <time>2011-01-02T16:53:02Z</time>
      </trkpt>
      <trkpt lat="31.698869001120329" lon="-4.966428000479937">
        <ele>1037.0440000000001</ele>
        <time>2011-01-02T16:53:06Z</time>
      </trkpt>
      <trkpt lat="31.699327994138002" lon="-4.967047004029155">
        <ele>1036.954</ele>
        <time>2011-01-02T16:53:14Z</time>
      </trkpt>
      <trkpt lat="31.699373004958034" lon="-4.967442965134978">
        <ele>1037.769</ele>
        <time>2011-01-02T16:53:18Z</time>
      </trkpt>
      <trkpt lat="31.699342997744679" lon="-4.96783297508955">
        <ele>1039.0699999999999</ele>
        <time>2011-01-02T16:53:22Z</time>
      </trkpt>
      <trkpt lat="31.699192961677909" lon="-4.968492966145277">
        <ele>1039.7090000000001</ele>
        <time>2011-01-02T16:53:29Z</time>
      </trkpt>
      <trkpt lat="31.699456991627812" lon="-4.968830002471805">
        <ele>1040.1880000000001</ele>
        <time>2011-01-02T16:53:35Z</time>
      </trkpt>
      <trkpt lat="31.69971096329391" lon="-4.969018008559942">
        <ele>1040.1559999999999</ele>
        <time>2011-01-02T16:53:39Z</time>
      </trkpt>
      <trkpt lat="31.699969964101911" lon="-4.96950801461935">
        <ele>1040.5070000000001</ele>
        <time>2011-01-02T16:53:46Z</time>
      </trkpt>
      <trkpt lat="31.699950015172362" lon="-4.969704989343882">
        <ele>1040.4970000000001</ele>
        <time>2011-01-02T16:53:48Z</time>
      </trkpt>
      <trkpt lat="31.699865022674203" lon="-4.970528008416295">
        <ele>1040.057</ele>
        <time>2011-01-02T16:53:57Z</time>
      </trkpt>
      <trkpt lat="31.699829986318946" lon="-4.970873007550836">
        <ele>1033.825</ele>
        <time>2011-01-02T16:56:31Z</time>
      </trkpt>
      <trkpt lat="31.699766032397747" lon="-4.971487987786531">
        <ele>1034.838</ele>
        <time>2011-01-02T16:56:44Z</time>
      </trkpt>
      <trkpt lat="31.69973099604249" lon="-4.971867017447949">
        <ele>1039.98</ele>
        <time>2011-01-02T16:56:54Z</time>
      </trkpt>
      <trkpt lat="31.699713980779052" lon="-4.97204102575779">
        <ele>1039.357</ele>
        <time>2011-01-02T16:56:57Z</time>
      </trkpt>
      <trkpt lat="31.69964499771595" lon="-4.972780980169773">
        <ele>1039.587</ele>
        <time>2011-01-02T16:57:08Z</time>
      </trkpt>
      <trkpt lat="31.69957903213799" lon="-4.973484976217151">
        <ele>1040.2159999999999</ele>
        <time>2011-01-02T16:57:17Z</time>
      </trkpt>
      <trkpt lat="31.699451962485909" lon="-4.974517039954662">
        <ele>1039.683</ele>
        <time>2011-01-02T16:57:31Z</time>
      </trkpt>
      <trkpt lat="31.699402006343007" lon="-4.975571986287832">
        <ele>1040.8130000000001</ele>
        <time>2011-01-02T16:57:44Z</time>
      </trkpt>
      <trkpt lat="31.699551036581397" lon="-4.975826041772962">
        <ele>1041.875</ele>
        <time>2011-01-02T16:57:48Z</time>
      </trkpt>
      <trkpt lat="31.699764020740986" lon="-4.976108008995652">
        <ele>1042.6969999999999</ele>
        <time>2011-01-02T16:57:54Z</time>
      </trkpt>
      <trkpt lat="31.699910033494234" lon="-4.976176992058754">
        <ele>1043.7070000000001</ele>
        <time>2011-01-02T16:57:57Z</time>
      </trkpt>
      <trkpt lat="31.700124023482203" lon="-4.976277993991971">
        <ele>1046.4670000000001</ele>
        <time>2011-01-02T16:58:04Z</time>
      </trkpt>
      <trkpt lat="31.700331978499889" lon="-4.976375978440046">
        <ele>1046.9939999999999</ele>
        <time>2011-01-02T16:58:13Z</time>
      </trkpt>
      <trkpt lat="31.700772028416395" lon="-4.976481003686786">
        <ele>1047.3510000000001</ele>
        <time>2011-01-02T16:58:24Z</time>
      </trkpt>
      <trkpt lat="31.701477030292153" lon="-4.976573036983609">
        <ele>1048.662</ele>
        <time>2011-01-02T16:58:37Z</time>
      </trkpt>
      <trkpt lat="31.702264007180929" lon="-4.976717960089445">
        <ele>1047.5899999999999</ele>
        <time>2011-01-02T16:58:49Z</time>
      </trkpt>
      <trkpt lat="31.703423978760839" lon="-4.97702700085938">
        <ele>1047.4400000000001</ele>
        <time>2011-01-02T16:59:04Z</time>
      </trkpt>
      <trkpt lat="31.704340036958456" lon="-4.977230010554195">
        <ele>1046.96</ele>
        <time>2011-01-02T16:59:15Z</time>
      </trkpt>
      <trkpt lat="31.705565974116325" lon="-4.977492028847337">
        <ele>1047.3050000000001</ele>
        <time>2011-01-02T16:59:27Z</time>
      </trkpt>
      <trkpt lat="31.707302033901215" lon="-4.977900981903076">
        <ele>1045.874</ele>
        <time>2011-01-02T16:59:41Z</time>
      </trkpt>
      <trkpt lat="31.708586979657412" lon="-4.978194013237953">
        <ele>1044.0429999999999</ele>
        <time>2011-01-02T16:59:52Z</time>
      </trkpt>
      <trkpt lat="31.709609990939498" lon="-4.978629034012556">
        <ele>1043.605</ele>
        <time>2011-01-02T17:00:03Z</time>
      </trkpt>
      <trkpt lat="31.710320021957159" lon="-4.979253988713026">
        <ele>1043.7860000000001</ele>
        <time>2011-01-02T17:00:11Z</time>
      </trkpt>
      <trkpt lat="31.711238007992506" lon="-4.980044988915324">
        <ele>1043.7660000000001</ele>
        <time>2011-01-02T17:00:21Z</time>
      </trkpt>
      <trkpt lat="31.712367972359061" lon="-4.980935985222459">
        <ele>1044.614</ele>
        <time>2011-01-02T17:00:32Z</time>
      </trkpt>
      <trkpt lat="31.713238013908267" lon="-4.981165984645486">
        <ele>1044.885</ele>
        <time>2011-01-02T17:00:39Z</time>
      </trkpt>
      <trkpt lat="31.714832000434399" lon="-4.981454992666841">
        <ele>1046.3789999999999</ele>
        <time>2011-01-02T17:00:52Z</time>
      </trkpt>
      <trkpt lat="31.716087022796273" lon="-4.981698989868164">
        <ele>1048.2280000000001</ele>
        <time>2011-01-02T17:01:03Z</time>
      </trkpt>
      <trkpt lat="31.717408010736108" lon="-4.981991015374661">
        <ele>1048.7570000000001</ele>
        <time>2011-01-02T17:01:13Z</time>
      </trkpt>
      <trkpt lat="31.719083972275257" lon="-4.982427963986993">
        <ele>1048.346</ele>
        <time>2011-01-02T17:01:25Z</time>
      </trkpt>
      <trkpt lat="31.720500010997057" lon="-4.983352990821004">
        <ele>1051.6769999999999</ele>
        <time>2011-01-02T17:01:36Z</time>
      </trkpt>
      <trkpt lat="31.721263015642762" lon="-4.983931006863713">
        <ele>1051.0050000000001</ele>
        <time>2011-01-02T17:01:43Z</time>
      </trkpt>
      <trkpt lat="31.722812997177243" lon="-4.985068012028933">
        <ele>1051.038</ele>
        <time>2011-01-02T17:01:56Z</time>
      </trkpt>
      <trkpt lat="31.724220989271998" lon="-4.986139973625541">
        <ele>1052.4300000000001</ele>
        <time>2011-01-02T17:02:07Z</time>
      </trkpt>
      <trkpt lat="31.725389007478952" lon="-4.986897027119994">
        <ele>1054.1679999999999</ele>
        <time>2011-01-02T17:02:16Z</time>
      </trkpt>
      <trkpt lat="31.726243039593101" lon="-4.987000962719321">
        <ele>1051.4970000000001</ele>
        <time>2011-01-02T17:02:22Z</time>
      </trkpt>
      <trkpt lat="31.726570017635822" lon="-4.987014038488269">
        <ele>1050.5350000000001</ele>
        <time>2011-01-02T17:02:26Z</time>
      </trkpt>
      <trkpt lat="31.726972013711929" lon="-4.987030969932675">
        <ele>1050.222</ele>
        <time>2011-01-02T17:02:36Z</time>
      </trkpt>
      <trkpt lat="31.72746998257935" lon="-4.987047985196114">
        <ele>1051.107</ele>
        <time>2011-01-02T17:02:44Z</time>
      </trkpt>
      <trkpt lat="31.728355027735233" lon="-4.986971961334348">
        <ele>1054.0319999999999</ele>
        <time>2011-01-02T17:02:54Z</time>
      </trkpt>
      <trkpt lat="31.729092970490456" lon="-4.986595027148724">
        <ele>1056.8510000000001</ele>
        <time>2011-01-02T17:03:01Z</time>
      </trkpt>
      <trkpt lat="31.729988995939493" lon="-4.985864041373134">
        <ele>1059.77</ele>
        <time>2011-01-02T17:03:09Z</time>
      </trkpt>
      <trkpt lat="31.731315013021231" lon="-4.984700968489051">
        <ele>1061.4280000000001</ele>
        <time>2011-01-02T17:03:20Z</time>
      </trkpt>
      <trkpt lat="31.732714036479592" lon="-4.983521969988942">
        <ele>1063.2449999999999</ele>
        <time>2011-01-02T17:03:31Z</time>
      </trkpt>
      <trkpt lat="31.733723971992731" lon="-4.983398001641035">
        <ele>1063.8230000000001</ele>
        <time>2011-01-02T17:03:37Z</time>
      </trkpt>
      <trkpt lat="31.735015036538243" lon="-4.983419962227345">
        <ele>1064.8530000000001</ele>
        <time>2011-01-02T17:03:45Z</time>
      </trkpt>
      <trkpt lat="31.737043038010597" lon="-4.983501015231013">
        <ele>1066.654</ele>
        <time>2011-01-02T17:03:58Z</time>
      </trkpt>
      <trkpt lat="31.739132981747389" lon="-4.983607968315482">
        <ele>1068.393</ele>
        <time>2011-01-02T17:04:12Z</time>
      </trkpt>
      <trkpt lat="31.74085303209722" lon="-4.983695978298783">
        <ele>1069.482</ele>
        <time>2011-01-02T17:04:24Z</time>
      </trkpt>
      <trkpt lat="31.742335958406329" lon="-4.983770996332169">
        <ele>1070.1220000000001</ele>
        <time>2011-01-02T17:04:34Z</time>
      </trkpt>
      <trkpt lat="31.744532017037272" lon="-4.983883984386921">
        <ele>1070.711</ele>
        <time>2011-01-02T17:04:47Z</time>
      </trkpt>
      <trkpt lat="31.746378969401121" lon="-4.98394601047039">
        <ele>1072.184</ele>
        <time>2011-01-02T17:04:58Z</time>
      </trkpt>
      <trkpt lat="31.748001035302877" lon="-4.984033014625311">
        <ele>1073.162</ele>
        <time>2011-01-02T17:05:10Z</time>
      </trkpt>
      <trkpt lat="31.750011015683413" lon="-4.984170980751514">
        <ele>1074.6199999999999</ele>
        <time>2011-01-02T17:05:25Z</time>
      </trkpt>
      <trkpt lat="31.751583041623235" lon="-4.984148014336824">
        <ele>1075.3420000000001</ele>
        <time>2011-01-02T17:05:36Z</time>
      </trkpt>
      <trkpt lat="31.752764973789454" lon="-4.983909968286753">
        <ele>1075.5329999999999</ele>
        <time>2011-01-02T17:05:45Z</time>
      </trkpt>
      <trkpt lat="31.754114041104913" lon="-4.983491962775588">
        <ele>1075.605</ele>
        <time>2011-01-02T17:05:56Z</time>
      </trkpt>
      <trkpt lat="31.75486103631556" lon="-4.983205972239375">
        <ele>1076.126</ele>
        <time>2011-01-02T17:06:04Z</time>
      </trkpt>
      <trkpt lat="31.755292033776641" lon="-4.98302198946476">
        <ele>1076.3150000000001</ele>
        <time>2011-01-02T17:06:12Z</time>
      </trkpt>
      <trkpt lat="31.755515998229384" lon="-4.98291696421802">
        <ele>1076.181</ele>
        <time>2011-01-02T17:06:21Z</time>
      </trkpt>
      <trkpt lat="31.755900979042053" lon="-4.982513040304184">
        <ele>1076.1790000000001</ele>
        <time>2011-01-02T17:06:29Z</time>
      </trkpt>
      <trkpt lat="31.756017990410328" lon="-4.98229100368917">
        <ele>1076.221</ele>
        <time>2011-01-02T17:06:33Z</time>
      </trkpt>
      <trkpt lat="31.756188981235027" lon="-4.981912979856134">
        <ele>1075.701</ele>
        <time>2011-01-02T17:06:44Z</time>
      </trkpt>
      <trkpt lat="31.757145021110773" lon="-4.982014987617731">
        <ele>1076.3340000000001</ele>
        <time>2011-01-02T17:06:53Z</time>
      </trkpt>
      <trkpt lat="31.757480967789888" lon="-4.981975005939603">
        <ele>1076.7059999999999</ele>
        <time>2011-01-02T17:07:02Z</time>
      </trkpt>
      <trkpt lat="31.758006010204554" lon="-4.981923038139939">
        <ele>1077.9639999999999</ele>
        <time>2011-01-02T17:07:15Z</time>
      </trkpt>
      <trkpt lat="31.758439019322395" lon="-4.981970982626081">
        <ele>1078.7670000000001</ele>
        <time>2011-01-02T17:07:26Z</time>
      </trkpt>
      <trkpt lat="31.758877979591489" lon="-4.981935024261475">
        <ele>1078.2190000000001</ele>
        <time>2011-01-02T17:07:34Z</time>
      </trkpt>
      <trkpt lat="31.759076965972781" lon="-4.982011970132589">
        <ele>1078.3589999999999</ele>
        <time>2011-01-02T17:07:41Z</time>
      </trkpt>
      <trkpt lat="31.759306965395808" lon="-4.982180027291179">
        <ele>1078.5309999999999</ele>
        <time>2011-01-02T17:07:52Z</time>
      </trkpt>
      <trkpt lat="31.759390030056238" lon="-4.982231995090842">
        <ele>1078.694</ele>
        <time>2011-01-02T17:08:00Z</time>
      </trkpt>
      <trkpt lat="31.759576024487615" lon="-4.98222503811121">
        <ele>1079.0799999999999</ele>
        <time>2011-01-02T17:08:27Z</time>
      </trkpt>
      <trkpt lat="31.759819015860558" lon="-4.982084976509213">
        <ele>1079.6700000000001</ele>
        <time>2011-01-02T17:08:38Z</time>
      </trkpt>
      <trkpt lat="31.760063013061881" lon="-4.981911974027753">
        <ele>1079.269</ele>
        <time>2011-01-02T17:08:48Z</time>
      </trkpt>
      <trkpt lat="31.76025403663516" lon="-4.981808038428426">
        <ele>1078.799</ele>
        <time>2011-01-02T17:08:56Z</time>
      </trkpt>
      <trkpt lat="31.760410023853183" lon="-4.982022028416395">
        <ele>1078.5509999999999</ele>
        <time>2011-01-02T17:09:02Z</time>
      </trkpt>
      <trkpt lat="31.760523011907935" lon="-4.982599038630724">
        <ele>1078.6099999999999</ele>
        <time>2011-01-02T17:09:11Z</time>
      </trkpt>
      <trkpt lat="31.760418992489576" lon="-4.983154004439712">
        <ele>1077.999</ele>
        <time>2011-01-02T17:09:18Z</time>
      </trkpt>
      <trkpt lat="31.760302986949682" lon="-4.98355901800096">
        <ele>1077.9690000000001</ele>
        <time>2011-01-02T17:09:24Z</time>
      </trkpt>
      <trkpt lat="31.76001800224185" lon="-4.984037959948182">
        <ele>1077.1769999999999</ele>
        <time>2011-01-02T17:09:32Z</time>
      </trkpt>
      <trkpt lat="31.759876012802124" lon="-4.984275000169873">
        <ele>1077.4280000000001</ele>
        <time>2011-01-02T17:09:36Z</time>
      </trkpt>
      <trkpt lat="31.759805018082261" lon="-4.984555961564183">
        <ele>1076.7539999999999</ele>
        <time>2011-01-02T17:09:40Z</time>
      </trkpt>
      <trkpt lat="31.759794037789106" lon="-4.984874976798892">
        <ele>1075.886</ele>
        <time>2011-01-02T17:09:44Z</time>
      </trkpt>
      <trkpt lat="31.759881963953376" lon="-4.985086033120751">
        <ele>1075.596</ele>
        <time>2011-01-02T17:09:48Z</time>
      </trkpt>
      <trkpt lat="31.759962011128664" lon="-4.985373029485345">
        <ele>1075.6669999999999</ele>
        <time>2011-01-02T17:09:53Z</time>
      </trkpt>
      <trkpt lat="31.759900990873575" lon="-4.985990021377802">
        <ele>1076.1869999999999</ele>
        <time>2011-01-02T17:10:01Z</time>
      </trkpt>
      <trkpt lat="31.759980032220483" lon="-4.986546998843551">
        <ele>1076.748</ele>
        <time>2011-01-02T17:10:08Z</time>
      </trkpt>
      <trkpt lat="31.759958993643522" lon="-4.986692005768418">
        <ele>1076.9380000000001</ele>
        <time>2011-01-02T17:10:10Z</time>
      </trkpt>
      <trkpt lat="31.759973997250199" lon="-4.987124009057879">
        <ele>1077.1569999999999</ele>
        <time>2011-01-02T17:10:18Z</time>
      </trkpt>
      <trkpt lat="31.760153034701943" lon="-4.987265998497605">
        <ele>1076.557</ele>
        <time>2011-01-02T17:10:24Z</time>
      </trkpt>
      <trkpt lat="31.760001992806792" lon="-4.986649006605148">
        <ele>1078.8140000000001</ele>
        <time>2011-01-02T17:14:53Z</time>
      </trkpt>
      <trkpt lat="31.759898979216814" lon="-4.986137039959431">
        <ele>1078.7940000000001</ele>
        <time>2011-01-02T17:15:01Z</time>
      </trkpt>
      <trkpt lat="31.759895961731672" lon="-4.98574904166162">
        <ele>1078.915</ele>
        <time>2011-01-02T17:15:06Z</time>
      </trkpt>
      <trkpt lat="31.759937033057213" lon="-4.985333969816566">
        <ele>1078.5239999999999</ele>
        <time>2011-01-02T17:15:11Z</time>
      </trkpt>
      <trkpt lat="31.759774005040526" lon="-4.984885035082698">
        <ele>1078.5650000000001</ele>
        <time>2011-01-02T17:15:18Z</time>
      </trkpt>
      <trkpt lat="31.759765036404133" lon="-4.984765006229281">
        <ele>1078.4639999999999</ele>
        <time>2011-01-02T17:15:20Z</time>
      </trkpt>
      <trkpt lat="31.759791020303965" lon="-4.984443979337812">
        <ele>1078.4469999999999</ele>
        <time>2011-01-02T17:15:24Z</time>
      </trkpt>
      <trkpt lat="31.759928986430168" lon="-4.984083976596594">
        <ele>1078.4059999999999</ele>
        <time>2011-01-02T17:15:28Z</time>
      </trkpt>
      <trkpt lat="31.760205002501607" lon="-4.983643004670739">
        <ele>1078.7760000000001</ele>
        <time>2011-01-02T17:15:33Z</time>
      </trkpt>
      <trkpt lat="31.760462997481227" lon="-4.982852004468441">
        <ele>1078.8779999999999</ele>
        <time>2011-01-02T17:15:41Z</time>
      </trkpt>
      <trkpt lat="31.760497028008103" lon="-4.982654023915529">
        <ele>1079.028</ele>
        <time>2011-01-02T17:15:43Z</time>
      </trkpt>
      <trkpt lat="31.760441958904266" lon="-4.982104003429413">
        <ele>1078.9880000000001</ele>
        <time>2011-01-02T17:15:49Z</time>
      </trkpt>
      <trkpt lat="31.760309021919966" lon="-4.981868974864483">
        <ele>1078.806</ele>
        <time>2011-01-02T17:15:53Z</time>
      </trkpt>
      <trkpt lat="31.759965028613806" lon="-4.981852965429425">
        <ele>1077.806</ele>
        <time>2011-01-02T17:15:59Z</time>
      </trkpt>
      <trkpt lat="31.759596979245543" lon="-4.982121018692851">
        <ele>1077.4269999999999</ele>
        <time>2011-01-02T17:16:04Z</time>
      </trkpt>
      <trkpt lat="31.759224990382791" lon="-4.982158988714218">
        <ele>1077.346</ele>
        <time>2011-01-02T17:16:10Z</time>
      </trkpt>
      <trkpt lat="31.759119965136051" lon="-4.982000989839435">
        <ele>1077.2460000000001</ele>
        <time>2011-01-02T17:16:15Z</time>
      </trkpt>
      <trkpt lat="31.758840009570122" lon="-4.981852965429425">
        <ele>1077.4369999999999</ele>
        <time>2011-01-02T17:16:22Z</time>
      </trkpt>
      <trkpt lat="31.758691985160112" lon="-4.981880038976669">
        <ele>1077.2070000000001</ele>
        <time>2011-01-02T17:16:24Z</time>
      </trkpt>
      <trkpt lat="31.758167026564479" lon="-4.981942987069488">
        <ele>1077.4770000000001</ele>
        <time>2011-01-02T17:16:30Z</time>
      </trkpt>
      <trkpt lat="31.757978014647961" lon="-4.981952039524913">
        <ele>1077.347</ele>
        <time>2011-01-02T17:16:32Z</time>
      </trkpt>
      <trkpt lat="31.757554979994893" lon="-4.982020016759634">
        <ele>1076.3889999999999</ele>
        <time>2011-01-02T17:16:37Z</time>
      </trkpt>
      <trkpt lat="31.757377032190561" lon="-4.982000989839435">
        <ele>1076.5509999999999</ele>
        <time>2011-01-02T17:16:40Z</time>
      </trkpt>
      <trkpt lat="31.756873028352857" lon="-4.982126969844103">
        <ele>1075.6600000000001</ele>
        <time>2011-01-02T17:16:49Z</time>
      </trkpt>
      <trkpt lat="31.75658100284636" lon="-4.982235012575984">
        <ele>1075.0899999999999</ele>
        <time>2011-01-02T17:16:58Z</time>
      </trkpt>
      <trkpt lat="31.756119998171926" lon="-4.982066033408046">
        <ele>1075.2819999999999</ele>
        <time>2011-01-02T17:17:15Z</time>
      </trkpt>
      <trkpt lat="31.756012039259076" lon="-4.982288992032409">
        <ele>1075.22</ele>
        <time>2011-01-02T17:17:23Z</time>
      </trkpt>
      <trkpt lat="31.756088985130191" lon="-4.982134010642767">
        <ele>1074.48</ele>
        <time>2011-01-02T17:17:29Z</time>
      </trkpt>
      <trkpt lat="31.756256958469748" lon="-4.981415010988712">
        <ele>1074.2719999999999</ele>
        <time>2011-01-02T17:17:36Z</time>
      </trkpt>
      <trkpt lat="31.756245978176594" lon="-4.980339026078582">
        <ele>1073.8</ele>
        <time>2011-01-02T17:17:44Z</time>
      </trkpt>
      <trkpt lat="31.756118992343545" lon="-4.978588968515396">
        <ele>1074.145</ele>
        <time>2011-01-02T17:17:56Z</time>
      </trkpt>
      <trkpt lat="31.756418980658054" lon="-4.977677017450333">
        <ele>1075.087</ele>
        <time>2011-01-02T17:18:02Z</time>
      </trkpt>
      <trkpt lat="31.757147032767534" lon="-4.977042004466057">
        <ele>1075.4680000000001</ele>
        <time>2011-01-02T17:18:08Z</time>
      </trkpt>
      <trkpt lat="31.757832001894712" lon="-4.976917030289769">
        <ele>1075.4770000000001</ele>
        <time>2011-01-02T17:18:12Z</time>
      </trkpt>
      <trkpt lat="31.76003803499043" lon="-4.976400034502149">
        <ele>1077.501</ele>
        <time>2011-01-02T17:18:24Z</time>
      </trkpt>
      <trkpt lat="31.761989006772637" lon="-4.975918997079134">
        <ele>1080.088</ele>
        <time>2011-01-02T17:18:35Z</time>
      </trkpt>
      <trkpt lat="31.763878036290407" lon="-4.975500991567969">
        <ele>1081.0909999999999</ele>
        <time>2011-01-02T17:18:45Z</time>
      </trkpt>
      <trkpt lat="31.765279993414879" lon="-4.975014002993703">
        <ele>1082.0029999999999</ele>
        <time>2011-01-02T17:18:53Z</time>
      </trkpt>
      <trkpt lat="31.766735007986426" lon="-4.974211016669869">
        <ele>1083.173</ele>
        <time>2011-01-02T17:19:01Z</time>
      </trkpt>
      <trkpt lat="31.768800979480147" lon="-4.973006034269929">
        <ele>1086.1079999999999</ele>
        <time>2011-01-02T17:19:12Z</time>
      </trkpt>
      <trkpt lat="31.770665030926466" lon="-4.971799040213227">
        <ele>1088.7429999999999</ele>
        <time>2011-01-02T17:19:23Z</time>
      </trkpt>
      <trkpt lat="31.772704012691975" lon="-4.970465982332826">
        <ele>1089.711</ele>
        <time>2011-01-02T17:19:35Z</time>
      </trkpt>
      <trkpt lat="31.775561990216374" lon="-4.968644008040428">
        <ele>1091.884</ele>
        <time>2011-01-02T17:19:52Z</time>
      </trkpt>
      <trkpt lat="31.777532994747162" lon="-4.967374987900257">
        <ele>1093.175</ele>
        <time>2011-01-02T17:20:04Z</time>
      </trkpt>
      <trkpt lat="31.778721967712045" lon="-4.966636039316654">
        <ele>1093.1310000000001</ele>
        <time>2011-01-02T17:20:12Z</time>
      </trkpt>
      <trkpt lat="31.779984030872583" lon="-4.965760968625546">
        <ele>1093.232</ele>
        <time>2011-01-02T17:20:20Z</time>
      </trkpt>
      <trkpt lat="31.782029969617724" lon="-4.964493960142136">
        <ele>1094.0530000000001</ele>
        <time>2011-01-02T17:20:31Z</time>
      </trkpt>
      <trkpt lat="31.78382596001029" lon="-4.963497016578913">
        <ele>1094.846</ele>
        <time>2011-01-02T17:20:40Z</time>
      </trkpt>
      <trkpt lat="31.786765996366739" lon="-4.962130011990666">
        <ele>1097.0170000000001</ele>
        <time>2011-01-02T17:20:54Z</time>
      </trkpt>
      <trkpt lat="31.789672002196312" lon="-4.960923017933965">
        <ele>1100.2190000000001</ele>
        <time>2011-01-02T17:21:08Z</time>
      </trkpt>
      <trkpt lat="31.792462002485991" lon="-4.9596450291574">
        <ele>1102.105</ele>
        <time>2011-01-02T17:21:22Z</time>
      </trkpt>
      <trkpt lat="31.796546000987291" lon="-4.957893965765834">
        <ele>1104.2349999999999</ele>
        <time>2011-01-02T17:21:41Z</time>
      </trkpt>
      <trkpt lat="31.800820017233491" lon="-4.956093030050397">
        <ele>1105.5840000000001</ele>
        <time>2011-01-02T17:22:00Z</time>
      </trkpt>
      <trkpt lat="31.802739975973964" lon="-4.955229023471475">
        <ele>1106.0530000000001</ele>
        <time>2011-01-02T17:22:09Z</time>
      </trkpt>
      <trkpt lat="31.805585967376828" lon="-4.953839974477887">
        <ele>1107.077</ele>
        <time>2011-01-02T17:22:22Z</time>
      </trkpt>
      <trkpt lat="31.808419972658157" lon="-4.952571038156748">
        <ele>1114.3440000000001</ele>
        <time>2011-01-02T17:22:35Z</time>
      </trkpt>
      <trkpt lat="31.809837017208338" lon="-4.952006014063954">
        <ele>1119.0060000000001</ele>
        <time>2011-01-02T17:22:42Z</time>
      </trkpt>
      <trkpt lat="31.810527015477419" lon="-4.95176000520587">
        <ele>1118.691</ele>
        <time>2011-01-02T17:22:47Z</time>
      </trkpt>
      <trkpt lat="31.811753958463669" lon="-4.951363960281014">
        <ele>1115.0650000000001</ele>
        <time>2011-01-02T17:22:57Z</time>
      </trkpt>
      <trkpt lat="31.811996027827263" lon="-4.951341999694705">
        <ele>1114.845</ele>
        <time>2011-01-02T17:22:59Z</time>
      </trkpt>
      <trkpt lat="31.812432976439595" lon="-4.951430009678006">
        <ele>1114.8389999999999</ele>
        <time>2011-01-02T17:23:03Z</time>
      </trkpt>
      <trkpt lat="31.813212996348739" lon="-4.951789006590843">
        <ele>1114.521</ele>
        <time>2011-01-02T17:23:10Z</time>
      </trkpt>
      <trkpt lat="31.813995027914643" lon="-4.952427037060261">
        <ele>1114.4839999999999</ele>
        <time>2011-01-02T17:23:18Z</time>
      </trkpt>
      <trkpt lat="31.814730037003756" lon="-4.95322197675705">
        <ele>1115.4749999999999</ele>
        <time>2011-01-02T17:23:25Z</time>
      </trkpt>
      <trkpt lat="31.815966032445431" lon="-4.95451002381742">
        <ele>1117.9059999999999</ele>
        <time>2011-01-02T17:23:35Z</time>
      </trkpt>
      <trkpt lat="31.816509012132883" lon="-4.955191975459456">
        <ele>1119.5170000000001</ele>
        <time>2011-01-02T17:23:41Z</time>
      </trkpt>
      <trkpt lat="31.817077975720167" lon="-4.955998985096812">
        <ele>1121.396</ele>
        <time>2011-01-02T17:23:50Z</time>
      </trkpt>
      <trkpt lat="31.817367989569902" lon="-4.956428976729512">
        <ele>1122.164</ele>
        <time>2011-01-02T17:23:58Z</time>
      </trkpt>
      <trkpt lat="31.817723968997598" lon="-4.957023002207279">
        <ele>1122.703</ele>
        <time>2011-01-02T17:24:07Z</time>
      </trkpt>
      <trkpt lat="31.818242976441979" lon="-4.957888014614582">
        <ele>1123.674</ele>
        <time>2011-01-02T17:24:17Z</time>
      </trkpt>
      <trkpt lat="31.818426037207246" lon="-4.958192026242614">
        <ele>1124.3240000000001</ele>
        <time>2011-01-02T17:24:22Z</time>
      </trkpt>
      <trkpt lat="31.818832978606224" lon="-4.958795020356774">
        <ele>1124.604</ele>
        <time>2011-01-02T17:24:30Z</time>
      </trkpt>
      <trkpt lat="31.819443013519049" lon="-4.959637988358736">
        <ele>1125.2840000000001</ele>
        <time>2011-01-02T17:24:39Z</time>
      </trkpt>
      <trkpt lat="31.820121025666595" lon="-4.960609031841159">
        <ele>1126.617</ele>
        <time>2011-01-02T17:24:49Z</time>
      </trkpt>
      <trkpt lat="31.820788979530334" lon="-4.961391985416412">
        <ele>1128.289</ele>
        <time>2011-01-02T17:24:57Z</time>
      </trkpt>
      <trkpt lat="31.821514014154673" lon="-4.962237970903516">
        <ele>1126.788</ele>
        <time>2011-01-02T17:25:06Z</time>
      </trkpt>
      <trkpt lat="31.821577968075871" lon="-4.962322963401675">
        <ele>1126.3679999999999</ele>
        <time>2011-01-02T17:25:07Z</time>
      </trkpt>
      <trkpt lat="31.822026986628771" lon="-4.962785979732871">
        <ele>1126.5340000000001</ele>
        <time>2011-01-02T17:25:13Z</time>
      </trkpt>
      <trkpt lat="31.822381960228086" lon="-4.963403977453709">
        <ele>1126.883</ele>
        <time>2011-01-02T17:25:21Z</time>
      </trkpt>
      <trkpt lat="31.822472987696528" lon="-4.963677981868386">
        <ele>1126.7139999999999</ele>
        <time>2011-01-02T17:25:25Z</time>
      </trkpt>
      <trkpt lat="31.822550017386675" lon="-4.96452396735549">
        <ele>1127.5160000000001</ele>
        <time>2011-01-02T17:25:33Z</time>
      </trkpt>
      <trkpt lat="31.822521016001701" lon="-4.965193010866642">
        <ele>1130.117</ele>
        <time>2011-01-02T17:25:40Z</time>
      </trkpt>
      <trkpt lat="31.822675997391343" lon="-4.965525018051267">
        <ele>1128.7660000000001</ele>
        <time>2011-01-02T17:25:47Z</time>
      </trkpt>
      <trkpt lat="31.82296802289784" lon="-4.965775972232223">
        <ele>1128.6590000000001</ele>
        <time>2011-01-02T17:25:56Z</time>
      </trkpt>
      <trkpt lat="31.823594989255071" lon="-4.965976970270276">
        <ele>1129.922</ele>
        <time>2011-01-02T17:26:06Z</time>
      </trkpt>
      <trkpt lat="31.823953986167908" lon="-4.966084007173777">
        <ele>1128.6489999999999</ele>
        <time>2011-01-02T17:26:11Z</time>
      </trkpt>
      <trkpt lat="31.824273001402617" lon="-4.96621803380549">
        <ele>1128.5889999999999</ele>
        <time>2011-01-02T17:26:15Z</time>
      </trkpt>
      <trkpt lat="31.824620012193918" lon="-4.96647703461349">
        <ele>1128.9069999999999</ele>
        <time>2011-01-02T17:26:20Z</time>
      </trkpt>
      <trkpt lat="31.82473199442029" lon="-4.966656994074583">
        <ele>1129.066</ele>
        <time>2011-01-02T17:26:24Z</time>
      </trkpt>
      <trkpt lat="31.824803994968534" lon="-4.966852962970734">
        <ele>1129.1130000000001</ele>
        <time>2011-01-02T17:26:58Z</time>
      </trkpt>
      <trkpt lat="31.825110018253326" lon="-4.967043986544013">
        <ele>1128.152</ele>
        <time>2011-01-02T17:27:04Z</time>
      </trkpt>
      <trkpt lat="31.825502039864659" lon="-4.966871989890933">
        <ele>1128.9159999999999</ele>
        <time>2011-01-02T17:27:09Z</time>
      </trkpt>
      <trkpt lat="31.826134035363793" lon="-4.966986989602447">
        <ele>1130.623</ele>
        <time>2011-01-02T17:27:16Z</time>
      </trkpt>
      <trkpt lat="31.82623797096312" lon="-4.966994030401111">
        <ele>1130.982</ele>
        <time>2011-01-02T17:27:17Z</time>
      </trkpt>
      <trkpt lat="31.826958982273936" lon="-4.966933010146022">
        <ele>1133.873</ele>
        <time>2011-01-02T17:27:24Z</time>
      </trkpt>
      <trkpt lat="31.827708994969726" lon="-4.966780040413141">
        <ele>1133.481</ele>
        <time>2011-01-02T17:27:31Z</time>
      </trkpt>
      <trkpt lat="31.82808400131762" lon="-4.966602008789778">
        <ele>1132.9000000000001</ele>
        <time>2011-01-02T17:27:35Z</time>
      </trkpt>
      <trkpt lat="31.828829990699887" lon="-4.966590022668243">
        <ele>1135.681</ele>
        <time>2011-01-02T17:27:42Z</time>
      </trkpt>
      <trkpt lat="31.828931998461485" lon="-4.966622963547707">
        <ele>1135.3879999999999</ele>
        <time>2011-01-02T17:27:43Z</time>
      </trkpt>
      <trkpt lat="31.829514959827065" lon="-4.966824967414141">
        <ele>1135.211</ele>
        <time>2011-01-02T17:27:48Z</time>
      </trkpt>
      <trkpt lat="31.830607037991285" lon="-4.966935021802783">
        <ele>1135.059</ele>
        <time>2011-01-02T17:27:55Z</time>
      </trkpt>
      <trkpt lat="31.831849990412593" lon="-4.967438019812107">
        <ele>1134.748</ele>
        <time>2011-01-02T17:28:03Z</time>
      </trkpt>
      <trkpt lat="31.833365019410849" lon="-4.968074960634112">
        <ele>1134.1990000000001</ele>
        <time>2011-01-02T17:28:13Z</time>
      </trkpt>
      <trkpt lat="31.834058035165071" lon="-4.968142015859485">
        <ele>1134.902</ele>
        <time>2011-01-02T17:28:17Z</time>
      </trkpt>
      <trkpt lat="31.834720959886909" lon="-4.96763801202178">
        <ele>1136.568</ele>
        <time>2011-01-02T17:28:22Z</time>
      </trkpt>
      <trkpt lat="31.835117004811764" lon="-4.967357972636819">
        <ele>1138.874</ele>
        <time>2011-01-02T17:28:25Z</time>
      </trkpt>
      <trkpt lat="31.835385980084538" lon="-4.967211037874222">
        <ele>1140.3150000000001</ele>
        <time>2011-01-02T17:28:27Z</time>
      </trkpt>
      <trkpt lat="31.836335984990001" lon="-4.966546017676592">
        <ele>1142.4770000000001</ele>
        <time>2011-01-02T17:28:34Z</time>
      </trkpt>
      <trkpt lat="31.837229998782277" lon="-4.966195989400148">
        <ele>1143.376</ele>
        <time>2011-01-02T17:28:40Z</time>
      </trkpt>
      <trkpt lat="31.837723022326827" lon="-4.965794999152422">
        <ele>1143.1289999999999</ele>
        <time>2011-01-02T17:28:44Z</time>
      </trkpt>
      <trkpt lat="31.83908399194479" lon="-4.96411501429975">
        <ele>1136.5730000000001</ele>
        <time>2011-01-02T17:28:55Z</time>
      </trkpt>
      <trkpt lat="31.839840039610863" lon="-4.963047998026013">
        <ele>1134.403</ele>
        <time>2011-01-02T17:29:02Z</time>
      </trkpt>
      <trkpt lat="31.840100968256593" lon="-4.962527984753251">
        <ele>1134.029</ele>
        <time>2011-01-02T17:29:05Z</time>
      </trkpt>
      <trkpt lat="31.840977966785431" lon="-4.96194401755929">
        <ele>1133.982</ele>
        <time>2011-01-02T17:29:11Z</time>
      </trkpt>
      <trkpt lat="31.842529037967324" lon="-4.96048104017973">
        <ele>1138.0540000000001</ele>
        <time>2011-01-02T17:29:21Z</time>
      </trkpt>
      <trkpt lat="31.843133959919214" lon="-4.960237964987755">
        <ele>1140.0889999999999</ele>
        <time>2011-01-02T17:29:25Z</time>
      </trkpt>
      <trkpt lat="31.843800991773605" lon="-4.960380960255861">
        <ele>1140.1020000000001</ele>
        <time>2011-01-02T17:29:30Z</time>
      </trkpt>
      <trkpt lat="31.844864990562201" lon="-4.960111984983087">
        <ele>1139.72</ele>
        <time>2011-01-02T17:29:37Z</time>
      </trkpt>
      <trkpt lat="31.846061004325747" lon="-4.959641005843878">
        <ele>1139.9639999999999</ele>
        <time>2011-01-02T17:29:44Z</time>
      </trkpt>
      <trkpt lat="31.847261963412166" lon="-4.958826033398509">
        <ele>1143.143</ele>
        <time>2011-01-02T17:29:52Z</time>
      </trkpt>
      <trkpt lat="31.848169974982738" lon="-4.958044001832604">
        <ele>1142.6410000000001</ele>
        <time>2011-01-02T17:29:58Z</time>
      </trkpt>
      <trkpt lat="31.849189968779683" lon="-4.957093996927142">
        <ele>1142.2840000000001</ele>
        <time>2011-01-02T17:30:05Z</time>
      </trkpt>
      <trkpt lat="31.850046012550592" lon="-4.956392012536526">
        <ele>1141.8720000000001</ele>
        <time>2011-01-02T17:30:11Z</time>
      </trkpt>
      <trkpt lat="31.851107999682426" lon="-4.955428009852767">
        <ele>1139.828</ele>
        <time>2011-01-02T17:30:18Z</time>
      </trkpt>
      <trkpt lat="31.851227022707462" lon="-4.955244027078152">
        <ele>1139.6990000000001</ele>
        <time>2011-01-02T17:30:19Z</time>
      </trkpt>
      <trkpt lat="31.851397007703781" lon="-4.954354958608747">
        <ele>1140.6679999999999</ele>
        <time>2011-01-02T17:30:24Z</time>
      </trkpt>
      <trkpt lat="31.851340010762215" lon="-4.95399403385818">
        <ele>1141.52</ele>
        <time>2011-01-02T17:30:26Z</time>
      </trkpt>
      <trkpt lat="31.851254012435675" lon="-4.952618982642889">
        <ele>1144.7449999999999</ele>
        <time>2011-01-02T17:30:33Z</time>
      </trkpt>
      <trkpt lat="31.851276978850365" lon="-4.951776014640927">
        <ele>1145.4400000000001</ele>
        <time>2011-01-02T17:30:37Z</time>
      </trkpt>
      <trkpt lat="31.851468002423644" lon="-4.950949978083372">
        <ele>1144.865</ele>
        <time>2011-01-02T17:30:41Z</time>
      </trkpt>
      <trkpt lat="31.852473998442292" lon="-4.949021972715855">
        <ele>1145.672</ele>
        <time>2011-01-02T17:30:51Z</time>
      </trkpt>
      <trkpt lat="31.853338005021214" lon="-4.948103986680508">
        <ele>1146.1579999999999</ele>
        <time>2011-01-02T17:30:57Z</time>
      </trkpt>
      <trkpt lat="31.854389011859894" lon="-4.947314998134971">
        <ele>1147.914</ele>
        <time>2011-01-02T17:31:04Z</time>
      </trkpt>
      <trkpt lat="31.855300962924957" lon="-4.946598010137677">
        <ele>1145.2059999999999</ele>
        <time>2011-01-02T17:31:11Z</time>
      </trkpt>
      <trkpt lat="31.855553006753325" lon="-4.946332974359393">
        <ele>1142.711</ele>
        <time>2011-01-02T17:31:14Z</time>
      </trkpt>
      <trkpt lat="31.855849977582693" lon="-4.946073973551393">
        <ele>1139.2170000000001</ele>
        <time>2011-01-02T17:31:20Z</time>
      </trkpt>
      <trkpt lat="31.856073020026088" lon="-4.946184027940035">
        <ele>1138.1969999999999</ele>
        <time>2011-01-02T17:31:22Z</time>
      </trkpt>
      <trkpt lat="31.856117025017738" lon="-4.946606978774071">
        <ele>1137.845</ele>
        <time>2011-01-02T17:31:30Z</time>
      </trkpt>
      <trkpt lat="31.857015984132886" lon="-4.947006963193417">
        <ele>1141.6500000000001</ele>
        <time>2011-01-02T17:31:37Z</time>
      </trkpt>
      <trkpt lat="31.857116986066103" lon="-4.947048034518957">
        <ele>1142.625</ele>
        <time>2011-01-02T17:31:38Z</time>
      </trkpt>
      <trkpt lat="31.857778988778591" lon="-4.946983996778727">
        <ele>1146.3119999999999</ele>
        <time>2011-01-02T17:31:44Z</time>
      </trkpt>
      <trkpt lat="31.858113007619977" lon="-4.946568002924323">
        <ele>1148.155</ele>
        <time>2011-01-02T17:31:48Z</time>
      </trkpt>
      <trkpt lat="31.858569988980889" lon="-4.945619003847241">
        <ele>1149.732</ele>
        <time>2011-01-02T17:31:54Z</time>
      </trkpt>
      <trkpt lat="31.859398959204555" lon="-4.944287035614252">
        <ele>1149.5599999999999</ele>
        <time>2011-01-02T17:32:01Z</time>
      </trkpt>
      <trkpt lat="31.860477039590478" lon="-4.942648960277438">
        <ele>1152.3009999999999</ele>
        <time>2011-01-02T17:32:09Z</time>
      </trkpt>
      <trkpt lat="31.86188000254333" lon="-4.940359024330974">
        <ele>1154.0419999999999</ele>
        <time>2011-01-02T17:32:20Z</time>
      </trkpt>
      <trkpt lat="31.863149022683501" lon="-4.939544973894954">
        <ele>1154.5050000000001</ele>
        <time>2011-01-02T17:32:27Z</time>
      </trkpt>
      <trkpt lat="31.864763963967562" lon="-4.938399000093341">
        <ele>1155.4459999999999</ele>
        <time>2011-01-02T17:32:36Z</time>
      </trkpt>
      <trkpt lat="31.866423999890685" lon="-4.937110031023622">
        <ele>1155.9880000000001</ele>
        <time>2011-01-02T17:32:46Z</time>
      </trkpt>
      <trkpt lat="31.866765981540084" lon="-4.936789004132152">
        <ele>1156.6110000000001</ele>
        <time>2011-01-02T17:32:49Z</time>
      </trkpt>
      <trkpt lat="31.867253975942731" lon="-4.936865027993918">
        <ele>1157.644</ele>
        <time>2011-01-02T17:32:54Z</time>
      </trkpt>
      <trkpt lat="31.867914972826838" lon="-4.937197035178542">
        <ele>1159.0509999999999</ele>
        <time>2011-01-02T17:32:59Z</time>
      </trkpt>
      <trkpt lat="31.868916023522615" lon="-4.937132997438312">
        <ele>1160.0360000000001</ele>
        <time>2011-01-02T17:33:05Z</time>
      </trkpt>
      <trkpt lat="31.870166016742587" lon="-4.937491994351149">
        <ele>1164.7070000000001</ele>
        <time>2011-01-02T17:33:13Z</time>
      </trkpt>
      <trkpt lat="31.871451968327165" lon="-4.936752039939165">
        <ele>1173.4690000000001</ele>
        <time>2011-01-02T17:33:20Z</time>
      </trkpt>
      <trkpt lat="31.871732007712126" lon="-4.936605021357536">
        <ele>1176.913</ele>
        <time>2011-01-02T17:33:22Z</time>
      </trkpt>
      <trkpt lat="31.872144984081388" lon="-4.935990963131189">
        <ele>1183.6310000000001</ele>
        <time>2011-01-02T17:33:27Z</time>
      </trkpt>
      <trkpt lat="31.872646976262331" lon="-4.935501040890813">
        <ele>1185.414</ele>
        <time>2011-01-02T17:33:29Z</time>
      </trkpt>
      <trkpt lat="31.872701039537787" lon="-4.935030983760953">
        <ele>1186.4159999999999</ele>
        <time>2011-01-02T17:33:34Z</time>
      </trkpt>
      <trkpt lat="31.873229015618563" lon="-4.934715991839767">
        <ele>1185.7529999999999</ele>
        <time>2011-01-02T17:33:38Z</time>
      </trkpt>
      <trkpt lat="31.874292008578777" lon="-4.934675004333258">
        <ele>1184.797</ele>
        <time>2011-01-02T17:33:45Z</time>
      </trkpt>
      <trkpt lat="31.874420000240207" lon="-4.934628987684846">
        <ele>1184.7729999999999</ele>
        <time>2011-01-02T17:33:46Z</time>
      </trkpt>
      <trkpt lat="31.874685036018491" lon="-4.934177035465837">
        <ele>1185.2529999999999</ele>
        <time>2011-01-02T17:33:51Z</time>
      </trkpt>
      <trkpt lat="31.874928027391434" lon="-4.933706978335977">
        <ele>1186.3199999999999</ele>
        <time>2011-01-02T17:33:56Z</time>
      </trkpt>
      <trkpt lat="31.875166995450854" lon="-4.933957010507584">
        <ele>1185.7819999999999</ele>
        <time>2011-01-02T17:34:00Z</time>
      </trkpt>
      <trkpt lat="31.875554993748665" lon="-4.934065975248814">
        <ele>1186.374</ele>
        <time>2011-01-02T17:34:05Z</time>
      </trkpt>
      <trkpt lat="31.87623200006783" lon="-4.934095982462168">
        <ele>1188.1669999999999</ele>
        <time>2011-01-02T17:34:11Z</time>
      </trkpt>
      <trkpt lat="31.877289963886142" lon="-4.934766031801701">
        <ele>1192.7729999999999</ele>
        <time>2011-01-02T17:34:19Z</time>
      </trkpt>
      <trkpt lat="31.878569964319468" lon="-4.935103990137577">
        <ele>1197.0940000000001</ele>
        <time>2011-01-02T17:34:27Z</time>
      </trkpt>
      <trkpt lat="31.879721973091364" lon="-4.935304988175631">
        <ele>1199.5050000000001</ele>
        <time>2011-01-02T17:34:34Z</time>
      </trkpt>
      <trkpt lat="31.879992038011551" lon="-4.935386041179299">
        <ele>1200.5029999999999</ele>
        <time>2011-01-02T17:34:36Z</time>
      </trkpt>
      <trkpt lat="31.880563013255596" lon="-4.935284033417702">
        <ele>1203.6569999999999</ele>
        <time>2011-01-02T17:34:41Z</time>
      </trkpt>
      <trkpt lat="31.881588036194444" lon="-4.934450034052134">
        <ele>1210.9649999999999</ele>
        <time>2011-01-02T17:34:49Z</time>
      </trkpt>
      <trkpt lat="31.882641976699233" lon="-4.933514026924968">
        <ele>1217.462</ele>
        <time>2011-01-02T17:34:56Z</time>
      </trkpt>
      <trkpt lat="31.883383020758629" lon="-4.932423960417509">
        <ele>1217.4580000000001</ele>
        <time>2011-01-02T17:35:03Z</time>
      </trkpt>
      <trkpt lat="31.884878017008305" lon="-4.930694019421935">
        <ele>1208.194</ele>
        <time>2011-01-02T17:35:15Z</time>
      </trkpt>
      <trkpt lat="31.88600798137486" lon="-4.929990023374558">
        <ele>1201.588</ele>
        <time>2011-01-02T17:35:22Z</time>
      </trkpt>
      <trkpt lat="31.887213969603181" lon="-4.928980004042387">
        <ele>1196.3240000000001</ele>
        <time>2011-01-02T17:35:30Z</time>
      </trkpt>
      <trkpt lat="31.888376036658883" lon="-4.927904019132257">
        <ele>1192.7739999999999</ele>
        <time>2011-01-02T17:35:38Z</time>
      </trkpt>
      <trkpt lat="31.889354037120938" lon="-4.926772965118289">
        <ele>1191.634</ele>
        <time>2011-01-02T17:35:45Z</time>
      </trkpt>
      <trkpt lat="31.890360033139586" lon="-4.92625798098743">
        <ele>1191.049</ele>
        <time>2011-01-02T17:35:51Z</time>
      </trkpt>
      <trkpt lat="31.891514975577593" lon="-4.925567982718349">
        <ele>1188.058</ele>
        <time>2011-01-02T17:35:59Z</time>
      </trkpt>
      <trkpt lat="31.892687017098069" lon="-4.925013016909361">
        <ele>1189.3699999999999</ele>
        <time>2011-01-02T17:36:08Z</time>
      </trkpt>
      <trkpt lat="31.892963033169508" lon="-4.92516397498548">
        <ele>1188.95</ele>
        <time>2011-01-02T17:36:13Z</time>
      </trkpt>
      <trkpt lat="31.893245000392199" lon="-4.925618022680283">
        <ele>1186.828</ele>
        <time>2011-01-02T17:36:18Z</time>
      </trkpt>
      <trkpt lat="31.893655965104699" lon="-4.925958998501301">
        <ele>1186.1780000000001</ele>
        <time>2011-01-02T17:36:23Z</time>
      </trkpt>
      <trkpt lat="31.894722981378436" lon="-4.926295028999448">
        <ele>1186.4559999999999</ele>
        <time>2011-01-02T17:36:32Z</time>
      </trkpt>
      <trkpt lat="31.89524601213634" lon="-4.926351020112634">
        <ele>1185.8789999999999</ele>
        <time>2011-01-02T17:36:36Z</time>
      </trkpt>
      <trkpt lat="31.895816987380385" lon="-4.926695013418794">
        <ele>1186.2139999999999</ele>
        <time>2011-01-02T17:36:41Z</time>
      </trkpt>
      <trkpt lat="31.896544033661485" lon="-4.926862986758351">
        <ele>1187.287</ele>
        <time>2011-01-02T17:36:47Z</time>
      </trkpt>
      <trkpt lat="31.897930987179279" lon="-4.926672969013453">
        <ele>1190.1990000000001</ele>
        <time>2011-01-02T17:36:56Z</time>
      </trkpt>
      <trkpt lat="31.89883497543633" lon="-4.926223028451204">
        <ele>1193.143</ele>
        <time>2011-01-02T17:37:03Z</time>
      </trkpt>
      <trkpt lat="31.899403017014265" lon="-4.926048014312983">
        <ele>1194.6969999999999</ele>
        <time>2011-01-02T17:37:07Z</time>
      </trkpt>
      <trkpt lat="31.899881958961487" lon="-4.926282037049532">
        <ele>1195.5239999999999</ele>
        <time>2011-01-02T17:37:12Z</time>
      </trkpt>
      <trkpt lat="31.900017997249961" lon="-4.926467025652528">
        <ele>1194.0709999999999</ele>
        <time>2011-01-02T17:37:14Z</time>
      </trkpt>
      <trkpt lat="31.900200974196196" lon="-4.926830967888236">
        <ele>1190.9929999999999</ele>
        <time>2011-01-02T17:37:18Z</time>
      </trkpt>
      <trkpt lat="31.900399038568139" lon="-4.927510991692543">
        <ele>1187.847</ele>
        <time>2011-01-02T17:37:27Z</time>
      </trkpt>
      <trkpt lat="31.900442959740758" lon="-4.928398970514536">
        <ele>1186.5340000000001</ele>
        <time>2011-01-02T17:37:35Z</time>
      </trkpt>
      <trkpt lat="31.900227963924408" lon="-4.929400021210313">
        <ele>1184.691</ele>
        <time>2011-01-02T17:37:44Z</time>
      </trkpt>
      <trkpt lat="31.900397026911378" lon="-4.930324964225292">
        <ele>1186.7429999999999</ele>
        <time>2011-01-02T17:37:52Z</time>
      </trkpt>
      <trkpt lat="31.900546979159117" lon="-4.930648002773523">
        <ele>1187.7840000000001</ele>
        <time>2011-01-02T17:37:55Z</time>
      </trkpt>
      <trkpt lat="31.90083397552371" lon="-4.9309859611094">
        <ele>1189.6610000000001</ele>
        <time>2011-01-02T17:37:59Z</time>
      </trkpt>
      <trkpt lat="31.901173023506999" lon="-4.931544028222561">
        <ele>1193.6199999999999</ele>
        <time>2011-01-02T17:38:04Z</time>
      </trkpt>
      <trkpt lat="31.901162965223193" lon="-4.93201601319015">
        <ele>1195.5830000000001</ele>
        <time>2011-01-02T17:38:07Z</time>
      </trkpt>
      <trkpt lat="31.901109991595149" lon="-4.93233704008162">
        <ele>1197.143</ele>
        <time>2011-01-02T17:38:09Z</time>
      </trkpt>
      <trkpt lat="31.901158019900322" lon="-4.932906003668904">
        <ele>1199.423</ele>
        <time>2011-01-02T17:38:14Z</time>
      </trkpt>
      <trkpt lat="31.901363041251898" lon="-4.933114964514971">
        <ele>1199.7190000000001</ele>
        <time>2011-01-02T17:38:16Z</time>
      </trkpt>
      <trkpt lat="31.901751961559057" lon="-4.933291990309954">
        <ele>1199.48</ele>
        <time>2011-01-02T17:38:19Z</time>
      </trkpt>
      <trkpt lat="31.902447994798422" lon="-4.933332977816463">
        <ele>1200.1320000000001</ele>
        <time>2011-01-02T17:38:24Z</time>
      </trkpt>
      <trkpt lat="31.903868978843093" lon="-4.933300036936998">
        <ele>1203.885</ele>
        <time>2011-01-02T17:38:33Z</time>
      </trkpt>
      <trkpt lat="31.904843961820006" lon="-4.932848000898957">
        <ele>1204.442</ele>
        <time>2011-01-02T17:38:40Z</time>
      </trkpt>
      <trkpt lat="31.905047977343202" lon="-4.932797038927674">
        <ele>1204.183</ele>
        <time>2011-01-02T17:38:44Z</time>
      </trkpt>
      <trkpt lat="31.905363975092769" lon="-4.93283299729228">
        <ele>1203.078</ele>
        <time>2011-01-02T17:38:50Z</time>
      </trkpt>
      <trkpt lat="31.905444022268057" lon="-4.932903992012143">
        <ele>1202.9490000000001</ele>
        <time>2011-01-02T17:38:52Z</time>
      </trkpt>
      <trkpt lat="31.905541000887752" lon="-4.933318980038166">
        <ele>1206.2429999999999</ele>
        <time>2011-01-02T17:38:57Z</time>
      </trkpt>
      <trkpt lat="31.905677961185575" lon="-4.933978971093893">
        <ele>1211.2739999999999</ele>
        <time>2011-01-02T17:39:06Z</time>
      </trkpt>
      <trkpt lat="31.90575297921896" lon="-4.934867033734918">
        <ele>1217.654</ele>
        <time>2011-01-02T17:39:16Z</time>
      </trkpt>
      <trkpt lat="31.905672010034323" lon="-4.935571029782295">
        <ele>1220.039</ele>
        <time>2011-01-02T17:39:22Z</time>
      </trkpt>
      <trkpt lat="31.905412003397942" lon="-4.936660006642342">
        <ele>1221.835</ele>
        <time>2011-01-02T17:39:29Z</time>
      </trkpt>
      <trkpt lat="31.90500196069479" lon="-4.937177002429962">
        <ele>1220.443</ele>
        <time>2011-01-02T17:39:34Z</time>
      </trkpt>
      <trkpt lat="31.904900958761573" lon="-4.937740014865995">
        <ele>1220.4659999999999</ele>
        <time>2011-01-02T17:39:38Z</time>
      </trkpt>
      <trkpt lat="31.905016964301467" lon="-4.937945958226919">
        <ele>1220.8199999999999</ele>
        <time>2011-01-02T17:39:40Z</time>
      </trkpt>
      <trkpt lat="31.905573019757867" lon="-4.939018003642559">
        <ele>1223.405</ele>
        <time>2011-01-02T17:39:47Z</time>
      </trkpt>
      <trkpt lat="31.90631297416985" lon="-4.940703017637134">
        <ele>1222.8699999999999</ele>
        <time>2011-01-02T17:39:57Z</time>
      </trkpt>
      <trkpt lat="31.906344993039966" lon="-4.940823968499899">
        <ele>1222.748</ele>
        <time>2011-01-02T17:39:58Z</time>
      </trkpt>
      <trkpt lat="31.906184982508421" lon="-4.941386980935931">
        <ele>1222.3</ele>
        <time>2011-01-02T17:40:03Z</time>
      </trkpt>
      <trkpt lat="31.906094960868359" lon="-4.941514972597361">
        <ele>1222.2139999999999</ele>
        <time>2011-01-02T17:40:04Z</time>
      </trkpt>
      <trkpt lat="31.905177980661392" lon="-4.942893963307142">
        <ele>1225.913</ele>
        <time>2011-01-02T17:40:13Z</time>
      </trkpt>
      <trkpt lat="31.904424028471112" lon="-4.944107998162508">
        <ele>1228.9090000000001</ele>
        <time>2011-01-02T17:40:21Z</time>
      </trkpt>
      <trkpt lat="31.903854981064796" lon="-4.945498974993825">
        <ele>1229.828</ele>
        <time>2011-01-02T17:40:29Z</time>
      </trkpt>
      <trkpt lat="31.90381801687181" lon="-4.945664014667273">
        <ele>1229.7439999999999</ele>
        <time>2011-01-02T17:40:30Z</time>
      </trkpt>
      <trkpt lat="31.903822962194681" lon="-4.94641000404954">
        <ele>1225.4290000000001</ele>
        <time>2011-01-02T17:40:36Z</time>
      </trkpt>
      <trkpt lat="31.904103001579642" lon="-4.946831027045846">
        <ele>1220.9090000000001</ele>
        <time>2011-01-02T17:40:42Z</time>
      </trkpt>
      <trkpt lat="31.903867973014712" lon="-4.946934962645173">
        <ele>1220.0740000000001</ele>
        <time>2011-01-02T17:40:45Z</time>
      </trkpt>
      <trkpt lat="31.903551975265145" lon="-4.947052979841828">
        <ele>1218.6849999999999</ele>
        <time>2011-01-02T17:40:48Z</time>
      </trkpt>
      <trkpt lat="31.903068004176021" lon="-4.947877004742622">
        <ele>1216.6849999999999</ele>
        <time>2011-01-02T17:40:54Z</time>
      </trkpt>
      <trkpt lat="31.903051994740963" lon="-4.948009019717574">
        <ele>1216.691</ele>
        <time>2011-01-02T17:40:55Z</time>
      </trkpt>
      <trkpt lat="31.90319599583745" lon="-4.948441023007035">
        <ele>1216.26</ele>
        <time>2011-01-02T17:41:00Z</time>
      </trkpt>
      <trkpt lat="31.903272019699216" lon="-4.948548981919885">
        <ele>1215.894</ele>
        <time>2011-01-02T17:41:01Z</time>
      </trkpt>
      <trkpt lat="31.903449967503548" lon="-4.949232023209333">
        <ele>1216.3869999999999</ele>
        <time>2011-01-02T17:41:07Z</time>
      </trkpt>
      <trkpt lat="31.903376961126924" lon="-4.949346017092466">
        <ele>1216.7629999999999</ele>
        <time>2011-01-02T17:41:08Z</time>
      </trkpt>
      <trkpt lat="31.902993991971016" lon="-4.949885979294777">
        <ele>1217.2260000000001</ele>
        <time>2011-01-02T17:41:13Z</time>
      </trkpt>
      <trkpt lat="31.902985023334622" lon="-4.950423007830977">
        <ele>1215.367</ele>
        <time>2011-01-02T17:41:18Z</time>
      </trkpt>
      <trkpt lat="31.903030034154654" lon="-4.95053700171411">
        <ele>1214.7090000000001</ele>
        <time>2011-01-02T17:41:19Z</time>
      </trkpt>
      <trkpt lat="31.903031039983034" lon="-4.951234040781856">
        <ele>1210.499</ele>
        <time>2011-01-02T17:41:24Z</time>
      </trkpt>
      <trkpt lat="31.903031039983034" lon="-4.952086983248591">
        <ele>1203.8889999999999</ele>
        <time>2011-01-02T17:41:29Z</time>
      </trkpt>
      <trkpt lat="31.903323987498879" lon="-4.953017039224505">
        <ele>1198.7940000000001</ele>
        <time>2011-01-02T17:41:35Z</time>
      </trkpt>
      <trkpt lat="31.903756996616721" lon="-4.954033009707928">
        <ele>1196.569</ele>
        <time>2011-01-02T17:41:41Z</time>
      </trkpt>
      <trkpt lat="31.904340041801333" lon="-4.955045040696859">
        <ele>1196.828</ele>
        <time>2011-01-02T17:41:48Z</time>
      </trkpt>
      <trkpt lat="31.904360996559262" lon="-4.95519801042974">
        <ele>1197.153</ele>
        <time>2011-01-02T17:41:49Z</time>
      </trkpt>
      <trkpt lat="31.904813032597303" lon="-4.955653985962272">
        <ele>1198.931</ele>
        <time>2011-01-02T17:41:55Z</time>
      </trkpt>
      <trkpt lat="31.905163982883096" lon="-4.955894965678453">
        <ele>1200.114</ele>
        <time>2011-01-02T17:42:00Z</time>
      </trkpt>
      <trkpt lat="31.905354000627995" lon="-4.95625102892518">
        <ele>1201.009</ele>
        <time>2011-01-02T17:42:04Z</time>
      </trkpt>
      <trkpt lat="31.905609983950853" lon="-4.957619961351156">
        <ele>1203.0740000000001</ele>
        <time>2011-01-02T17:42:13Z</time>
      </trkpt>
      <trkpt lat="31.906004017218947" lon="-4.958741962909699">
        <ele>1203.3230000000001</ele>
        <time>2011-01-02T17:42:21Z</time>
      </trkpt>
      <trkpt lat="31.90641900524497" lon="-4.959576968103647">
        <ele>1203.278</ele>
        <time>2011-01-02T17:42:27Z</time>
      </trkpt>
      <trkpt lat="31.906845979392529" lon="-4.960127994418144">
        <ele>1203.2670000000001</ele>
        <time>2011-01-02T17:42:31Z</time>
      </trkpt>
      <trkpt lat="31.907097017392516" lon="-4.961136002093554">
        <ele>1204.4649999999999</ele>
        <time>2011-01-02T17:42:37Z</time>
      </trkpt>
      <trkpt lat="31.907167006283998" lon="-4.961660960689187">
        <ele>1204.828</ele>
        <time>2011-01-02T17:42:40Z</time>
      </trkpt>
      <trkpt lat="31.907322993502021" lon="-4.962999969720841">
        <ele>1205.184</ele>
        <time>2011-01-02T17:42:48Z</time>
      </trkpt>
      <trkpt lat="31.907659024000168" lon="-4.963875040411949">
        <ele>1204.5360000000001</ele>
        <time>2011-01-02T17:42:54Z</time>
      </trkpt>
      <trkpt lat="31.907787015661597" lon="-4.964171005412936">
        <ele>1204.1020000000001</ele>
        <time>2011-01-02T17:42:56Z</time>
      </trkpt>
      <trkpt lat="31.90792003646493" lon="-4.964721025899053">
        <ele>1204.338</ele>
        <time>2011-01-02T17:43:00Z</time>
      </trkpt>
      <trkpt lat="31.908261012285948" lon="-4.965198962017894">
        <ele>1205.365</ele>
        <time>2011-01-02T17:43:03Z</time>
      </trkpt>
      <trkpt lat="31.908558988943696" lon="-4.965399960055947">
        <ele>1205.3440000000001</ele>
        <time>2011-01-02T17:43:06Z</time>
      </trkpt>
      <trkpt lat="31.909008007496595" lon="-4.965555025264621">
        <ele>1205.6369999999999</ele>
        <time>2011-01-02T17:43:11Z</time>
      </trkpt>
      <trkpt lat="31.909529026597738" lon="-4.965816959738731">
        <ele>1205.816</ele>
        <time>2011-01-02T17:43:18Z</time>
      </trkpt>
      <trkpt lat="31.909838989377022" lon="-4.966031033545733">
        <ele>1204.3920000000001</ele>
        <time>2011-01-02T17:43:24Z</time>
      </trkpt>
      <trkpt lat="31.910036969929934" lon="-4.966121977195144">
        <ele>1202.3900000000001</ele>
        <time>2011-01-02T17:43:29Z</time>
      </trkpt>
      <trkpt lat="31.910398984327912" lon="-4.966208981350064">
        <ele>1204.1590000000001</ele>
        <time>2011-01-02T17:43:35Z</time>
      </trkpt>
      <trkpt lat="31.911197025328875" lon="-4.966447027400136">
        <ele>1207.1089999999999</ele>
        <time>2011-01-02T17:43:42Z</time>
      </trkpt>
      <trkpt lat="31.91157697699964" lon="-4.966582981869578">
        <ele>1208.4860000000001</ele>
        <time>2011-01-02T17:43:45Z</time>
      </trkpt>
      <trkpt lat="31.912196986377239" lon="-4.96699201874435">
        <ele>1210.164</ele>
        <time>2011-01-02T17:43:51Z</time>
      </trkpt>
      <trkpt lat="31.912422962486744" lon="-4.967265017330647">
        <ele>1211.3389999999999</ele>
        <time>2011-01-02T17:43:54Z</time>
      </trkpt>
      <trkpt lat="31.912772990763187" lon="-4.969188999384642">
        <ele>1215.614</ele>
        <time>2011-01-02T17:44:04Z</time>
      </trkpt>
      <trkpt lat="31.912385998293757" lon="-4.971200991421938">
        <ele>1225.1279999999999</ele>
        <time>2011-01-02T17:44:14Z</time>
      </trkpt>
      <trkpt lat="31.912487000226974" lon="-4.971649004146457">
        <ele>1227.9739999999999</ele>
        <time>2011-01-02T17:44:17Z</time>
      </trkpt>
      <trkpt lat="31.912912968546152" lon="-4.972282005473971">
        <ele>1231.819</ele>
        <time>2011-01-02T17:44:23Z</time>
      </trkpt>
      <trkpt lat="31.913678990676999" lon="-4.97311701066792">
        <ele>1237.7539999999999</ele>
        <time>2011-01-02T17:44:32Z</time>
      </trkpt>
      <trkpt lat="31.914243008941412" lon="-4.973357990384102">
        <ele>1242.095</ele>
        <time>2011-01-02T17:44:38Z</time>
      </trkpt>
      <trkpt lat="31.915315976366401" lon="-4.973217006772757">
        <ele>1244.8520000000001</ele>
        <time>2011-01-02T17:44:46Z</time>
      </trkpt>
      <trkpt lat="31.915686037391424" lon="-4.973360002040863">
        <ele>1243.1479999999999</ele>
        <time>2011-01-02T17:44:49Z</time>
      </trkpt>
      <trkpt lat="31.916076969355345" lon="-4.973844978958368">
        <ele>1239.097</ele>
        <time>2011-01-02T17:44:53Z</time>
      </trkpt>
      <trkpt lat="31.916549960151315" lon="-4.974681995809078">
        <ele>1233.7760000000001</ele>
        <time>2011-01-02T17:44:59Z</time>
      </trkpt>
      <trkpt lat="31.916937036439776" lon="-4.975976999849081">
        <ele>1231.9480000000001</ele>
        <time>2011-01-02T17:45:06Z</time>
      </trkpt>
      <trkpt lat="31.917283963412046" lon="-4.977278960868716">
        <ele>1226.434</ele>
        <time>2011-01-02T17:45:15Z</time>
      </trkpt>
      <trkpt lat="31.917043989524245" lon="-4.979015020653606">
        <ele>1220.153</ele>
        <time>2011-01-02T17:45:25Z</time>
      </trkpt>
      <trkpt lat="31.917777992784977" lon="-4.97960502281785">
        <ele>1215.8430000000001</ele>
        <time>2011-01-02T17:45:31Z</time>
      </trkpt>
      <trkpt lat="31.918030036613345" lon="-4.980432987213135">
        <ele>1215.558</ele>
        <time>2011-01-02T17:45:38Z</time>
      </trkpt>
      <trkpt lat="31.918563041836023" lon="-4.98104696162045">
        <ele>1212.8599999999999</ele>
        <time>2011-01-02T17:45:46Z</time>
      </trkpt>
      <trkpt lat="31.919135022908449" lon="-4.981623971834779">
        <ele>1213.7439999999999</ele>
        <time>2011-01-02T17:45:52Z</time>
      </trkpt>
      <trkpt lat="31.919871959835291" lon="-4.982398962602019">
        <ele>1221.3900000000001</ele>
        <time>2011-01-02T17:45:58Z</time>
      </trkpt>
      <trkpt lat="31.920897988602519" lon="-4.982948983088136">
        <ele>1225.96</ele>
        <time>2011-01-02T17:46:06Z</time>
      </trkpt>
      <trkpt lat="31.921097980812192" lon="-4.983050990849733">
        <ele>1224.5740000000001</ele>
        <time>2011-01-02T17:46:09Z</time>
      </trkpt>
      <trkpt lat="31.92128598690033" lon="-4.983050990849733">
        <ele>1220.923</ele>
        <time>2011-01-02T17:46:14Z</time>
      </trkpt>
      <trkpt lat="31.921396963298321" lon="-4.983090972527862">
        <ele>1220.9359999999999</ele>
        <time>2011-01-02T17:46:17Z</time>
      </trkpt>
      <trkpt lat="31.921600978821516" lon="-4.983222987502813">
        <ele>1223.105</ele>
        <time>2011-01-02T17:46:22Z</time>
      </trkpt>
      <trkpt lat="31.921721007674932" lon="-4.983307980000973">
        <ele>1224.125</ele>
        <time>2011-01-02T17:46:24Z</time>
      </trkpt>
      <trkpt lat="31.921907002106309" lon="-4.983554994687438">
        <ele>1227.008</ele>
        <time>2011-01-02T17:46:28Z</time>
      </trkpt>
      <trkpt lat="31.922240015119314" lon="-4.983956990763545">
        <ele>1228.9880000000001</ele>
        <time>2011-01-02T17:46:32Z</time>
      </trkpt>
      <trkpt lat="31.922901012003422" lon="-4.984307019039989">
        <ele>1230.8579999999999</ele>
        <time>2011-01-02T17:46:37Z</time>
      </trkpt>
      <trkpt lat="31.923432005569339" lon="-4.983862023800612">
        <ele>1233.2260000000001</ele>
        <time>2011-01-02T17:46:41Z</time>
      </trkpt>
      <trkpt lat="31.923741968348622" lon="-4.98312902636826">
        <ele>1234.3679999999999</ele>
        <time>2011-01-02T17:46:46Z</time>
      </trkpt>
      <trkpt lat="31.923830984160304" lon="-4.982681013643742">
        <ele>1235.5050000000001</ele>
        <time>2011-01-02T17:46:49Z</time>
      </trkpt>
      <trkpt lat="31.923382971435785" lon="-4.980997005477548">
        <ele>1236.1790000000001</ele>
        <time>2011-01-02T17:46:59Z</time>
      </trkpt>
      <trkpt lat="31.923414990305901" lon="-4.980359980836511">
        <ele>1233.711</ele>
        <time>2011-01-02T17:47:04Z</time>
      </trkpt>
      <trkpt lat="31.923523033037782" lon="-4.979784982278943">
        <ele>1232.4190000000001</ele>
        <time>2011-01-02T17:47:12Z</time>
      </trkpt>
      <trkpt lat="31.923514986410737" lon="-4.979568980634213">
        <ele>1232.3800000000001</ele>
        <time>2011-01-02T17:47:15Z</time>
      </trkpt>
      <trkpt lat="31.923479028046131" lon="-4.978686030954123">
        <ele>1239.299</ele>
        <time>2011-01-02T17:47:23Z</time>
      </trkpt>
      <trkpt lat="31.923512974753976" lon="-4.978348994627595">
        <ele>1239.7090000000001</ele>
        <time>2011-01-02T17:47:26Z</time>
      </trkpt>
      <trkpt lat="31.923770969733596" lon="-4.977809032425284">
        <ele>1238.337</ele>
        <time>2011-01-02T17:47:31Z</time>
      </trkpt>
      <trkpt lat="31.924112029373646" lon="-4.977334029972553">
        <ele>1235.7190000000001</ele>
        <time>2011-01-02T17:47:36Z</time>
      </trkpt>
      <trkpt lat="31.924971006810665" lon="-4.977363031357527">
        <ele>1234.3820000000001</ele>
        <time>2011-01-02T17:47:41Z</time>
      </trkpt>
      <trkpt lat="31.926211025565863" lon="-4.978383025154471">
        <ele>1230.2529999999999</ele>
        <time>2011-01-02T17:47:52Z</time>
      </trkpt>
      <trkpt lat="31.9265509955585" lon="-4.978568013757467">
        <ele>1236.1859999999999</ele>
        <time>2011-01-02T17:47:55Z</time>
      </trkpt>
      <trkpt lat="31.926967995241284" lon="-4.978889962658286">
        <ele>1236.742</ele>
        <time>2011-01-02T17:47:59Z</time>
      </trkpt>
      <trkpt lat="31.927449032664299" lon="-4.979577027261257">
        <ele>1232.433</ele>
        <time>2011-01-02T17:48:06Z</time>
      </trkpt>
      <trkpt lat="31.927607031539083" lon="-4.979925965890288">
        <ele>1231.953</ele>
        <time>2011-01-02T17:48:12Z</time>
      </trkpt>
      <trkpt lat="31.928158979862928" lon="-4.980027973651886">
        <ele>1238.127</ele>
        <time>2011-01-02T17:48:19Z</time>
      </trkpt>
      <trkpt lat="31.928336005657911" lon="-4.980177003890276">
        <ele>1243.4659999999999</ele>
        <time>2011-01-02T17:48:26Z</time>
      </trkpt>
      <trkpt lat="31.928629959002137" lon="-4.980503981932998">
        <ele>1244.3589999999999</ele>
        <time>2011-01-02T17:48:28Z</time>
      </trkpt>
      <trkpt lat="31.929176039993763" lon="-4.980811011046171">
        <ele>1246.3040000000001</ele>
        <time>2011-01-02T17:48:33Z</time>
      </trkpt>
      <trkpt lat="31.929610976949334" lon="-4.980849986895919">
        <ele>1245.182</ele>
        <time>2011-01-02T17:48:39Z</time>
      </trkpt>
      <trkpt lat="31.929631009697914" lon="-4.980965992435813">
        <ele>1245.0509999999999</ele>
        <time>2011-01-02T17:48:40Z</time>
      </trkpt>
      <trkpt lat="31.929713990539312" lon="-4.981651967391372">
        <ele>1245.279</ele>
        <time>2011-01-02T17:48:47Z</time>
      </trkpt>
      <trkpt lat="31.929742991924286" lon="-4.981882972642779">
        <ele>1246.0920000000001</ele>
        <time>2011-01-02T17:48:49Z</time>
      </trkpt>
      <trkpt lat="31.929202023893595" lon="-4.982537012547255">
        <ele>1250.183</ele>
        <time>2011-01-02T17:48:53Z</time>
      </trkpt>
      <trkpt lat="31.929222978651524" lon="-4.982716972008348">
        <ele>1251.8800000000001</ele>
        <time>2011-01-02T17:48:55Z</time>
      </trkpt>
      <trkpt lat="31.929281987249851" lon="-4.983220975846052">
        <ele>1255.6590000000001</ele>
        <time>2011-01-02T17:49:00Z</time>
      </trkpt>
      <trkpt lat="31.930091008543968" lon="-4.98433199711144">
        <ele>1257.7660000000001</ele>
        <time>2011-01-02T17:49:08Z</time>
      </trkpt>
      <trkpt lat="31.930232997983694" lon="-4.98549297451973">
        <ele>1261.5840000000001</ele>
        <time>2011-01-02T17:49:14Z</time>
      </trkpt>
      <trkpt lat="31.929655987769365" lon="-4.986912030726671">
        <ele>1264.8510000000001</ele>
        <time>2011-01-02T17:49:21Z</time>
      </trkpt>
      <trkpt lat="31.929737962782383" lon="-4.988304013386369">
        <ele>1266.856</ele>
        <time>2011-01-02T17:49:29Z</time>
      </trkpt>
      <trkpt lat="31.929747015237808" lon="-4.988466035574675">
        <ele>1266.896</ele>
        <time>2011-01-02T17:49:30Z</time>
      </trkpt>
      <trkpt lat="31.929639978334308" lon="-4.989290982484818">
        <ele>1268.057</ele>
        <time>2011-01-02T17:49:35Z</time>
      </trkpt>
      <trkpt lat="31.930059995502234" lon="-4.9899170268327">
        <ele>1270.51</ele>
        <time>2011-01-02T17:49:41Z</time>
      </trkpt>
      <trkpt lat="31.93056701682508" lon="-4.9903279915452">
        <ele>1272.0609999999999</ele>
        <time>2011-01-02T17:49:46Z</time>
      </trkpt>
      <trkpt lat="31.930817971006036" lon="-4.990955041721463">
        <ele>1268.8879999999999</ele>
        <time>2011-01-02T17:49:52Z</time>
      </trkpt>
      <trkpt lat="31.930600041523576" lon="-4.991563986986876">
        <ele>1267.3330000000001</ele>
        <time>2011-01-02T17:49:57Z</time>
      </trkpt>
      <trkpt lat="31.930211959406734" lon="-4.991817036643624">
        <ele>1267.2</ele>
        <time>2011-01-02T17:50:01Z</time>
      </trkpt>
      <trkpt lat="31.930084973573685" lon="-4.991844026371837">
        <ele>1267.731</ele>
        <time>2011-01-02T17:50:02Z</time>
      </trkpt>
      <trkpt lat="31.928672958165407" lon="-4.991627018898726">
        <ele>1269.7190000000001</ele>
        <time>2011-01-02T17:50:11Z</time>
      </trkpt>
      <trkpt lat="31.928171971812844" lon="-4.992143008857966">
        <ele>1270.752</ele>
        <time>2011-01-02T17:50:17Z</time>
      </trkpt>
      <trkpt lat="31.927783973515034" lon="-4.992541987448931">
        <ele>1272.693</ele>
        <time>2011-01-02T17:50:21Z</time>
      </trkpt>
      <trkpt lat="31.92745003849268" lon="-4.993215976282954">
        <ele>1275.894</ele>
        <time>2011-01-02T17:50:27Z</time>
      </trkpt>
      <trkpt lat="31.927208974957466" lon="-4.993774965405464">
        <ele>1271.127</ele>
        <time>2011-01-02T17:50:32Z</time>
      </trkpt>
      <trkpt lat="31.927025998011231" lon="-4.994199005886912">
        <ele>1267.364</ele>
        <time>2011-01-02T17:50:37Z</time>
      </trkpt>
      <trkpt lat="31.927968040108681" lon="-4.995563998818398">
        <ele>1267.433</ele>
        <time>2011-01-02T17:50:45Z</time>
      </trkpt>
      <trkpt lat="31.928346985951066" lon="-4.996851962059736">
        <ele>1261.2090000000001</ele>
        <time>2011-01-02T17:50:52Z</time>
      </trkpt>
      <trkpt lat="31.928524011746049" lon="-4.997000992298126">
        <ele>1259.5360000000001</ele>
        <time>2011-01-02T17:50:54Z</time>
      </trkpt>
      <trkpt lat="31.928962972015142" lon="-4.99737398698926">
        <ele>1256.721</ele>
        <time>2011-01-02T17:50:59Z</time>
      </trkpt>
      <trkpt lat="31.929070008918643" lon="-4.997465014457703">
        <ele>1256.2</ele>
        <time>2011-01-02T17:51:00Z</time>
      </trkpt>
      <trkpt lat="31.93018002435565" lon="-4.998458018526435">
        <ele>1250.8109999999999</ele>
        <time>2011-01-02T17:51:09Z</time>
      </trkpt>
      <trkpt lat="31.930683022364974" lon="-4.998918017372489">
        <ele>1251.098</ele>
        <time>2011-01-02T17:51:13Z</time>
      </trkpt>
      <trkpt lat="31.931459018960595" lon="-4.999626958742738">
        <ele>1252.633</ele>
        <time>2011-01-02T17:51:19Z</time>
      </trkpt>
      <trkpt lat="31.93157703615725" lon="-4.999735001474619">
        <ele>1252.645</ele>
        <time>2011-01-02T17:51:20Z</time>
      </trkpt>
      <trkpt lat="31.931885993108153" lon="-5.00001696869731">
        <ele>1252.4069999999999</ele>
        <time>2011-01-02T17:51:23Z</time>
      </trkpt>
      <trkpt lat="31.932273991405964" lon="-5.000375965610147">
        <ele>1253.8579999999999</ele>
        <time>2011-01-02T17:51:27Z</time>
      </trkpt>
      <trkpt lat="31.932473983615637" lon="-5.000549973919988">
        <ele>1255.838</ele>
        <time>2011-01-02T17:51:29Z</time>
      </trkpt>
      <trkpt lat="31.932880003005266" lon="-5.000838981941342">
        <ele>1256.7760000000001</ele>
        <time>2011-01-02T17:51:33Z</time>
      </trkpt>
      <trkpt lat="31.933185020461679" lon="-5.001055989414454">
        <ele>1255.9100000000001</ele>
        <time>2011-01-02T17:51:37Z</time>
      </trkpt>
      <trkpt lat="31.934131002053618" lon="-5.001728972420096">
        <ele>1259.5930000000001</ele>
        <time>2011-01-02T17:51:46Z</time>
      </trkpt>
      <trkpt lat="31.935029039159417" lon="-5.002235993742943">
        <ele>1258.693</ele>
        <time>2011-01-02T17:51:54Z</time>
      </trkpt>
      <trkpt lat="31.935385018587112" lon="-5.002360967919231">
        <ele>1259.991</ele>
        <time>2011-01-02T17:51:57Z</time>
      </trkpt>
      <trkpt lat="31.935762958601117" lon="-5.002493988722563">
        <ele>1264.365</ele>
        <time>2011-01-02T17:52:01Z</time>
      </trkpt>
      <trkpt lat="31.936019025743008" lon="-5.003730989992619">
        <ele>1272.7370000000001</ele>
        <time>2011-01-02T17:52:07Z</time>
      </trkpt>
      <trkpt lat="31.937066009268165" lon="-5.004412019625306">
        <ele>1283</ele>
        <time>2011-01-02T17:52:15Z</time>
      </trkpt>
      <trkpt lat="31.93830301053822" lon="-5.005247024819255">
        <ele>1290.607</ele>
        <time>2011-01-02T17:52:23Z</time>
      </trkpt>
      <trkpt lat="31.939103985205293" lon="-5.006143972277641">
        <ele>1292.595</ele>
        <time>2011-01-02T17:52:29Z</time>
      </trkpt>
      <trkpt lat="31.940643992275" lon="-5.007992014288902">
        <ele>1290.864</ele>
        <time>2011-01-02T17:52:41Z</time>
      </trkpt>
      <trkpt lat="31.941176997497678" lon="-5.008619986474514">
        <ele>1289.077</ele>
        <time>2011-01-02T17:52:46Z</time>
      </trkpt>
      <trkpt lat="31.941716037690639" lon="-5.008813021704555">
        <ele>1293.8409999999999</ele>
        <time>2011-01-02T17:52:51Z</time>
      </trkpt>
      <trkpt lat="31.941831037402153" lon="-5.008779997006059">
        <ele>1294.9570000000001</ele>
        <time>2011-01-02T17:52:52Z</time>
      </trkpt>
      <trkpt lat="31.942421039566398" lon="-5.008642030879855">
        <ele>1300.442</ele>
        <time>2011-01-02T17:52:57Z</time>
      </trkpt>
      <trkpt lat="31.943100979551673" lon="-5.008239028975368">
        <ele>1305.011</ele>
        <time>2011-01-02T17:53:03Z</time>
      </trkpt>
      <trkpt lat="31.943925004452467" lon="-5.007608039304614">
        <ele>1314.086</ele>
        <time>2011-01-02T17:53:10Z</time>
      </trkpt>
      <trkpt lat="31.945024961605668" lon="-5.007226997986436">
        <ele>1329.95</ele>
        <time>2011-01-02T17:53:18Z</time>
      </trkpt>
      <trkpt lat="31.94618996232748" lon="-5.00687001273036">
        <ele>1341.462</ele>
        <time>2011-01-02T17:53:26Z</time>
      </trkpt>
      <trkpt lat="31.946634035557508" lon="-5.006669014692307">
        <ele>1343.807</ele>
        <time>2011-01-02T17:53:29Z</time>
      </trkpt>
      <trkpt lat="31.947126975283027" lon="-5.006593996658921">
        <ele>1348.7429999999999</ele>
        <time>2011-01-02T17:53:33Z</time>
      </trkpt>
      <trkpt lat="31.947330990806222" lon="-5.006625009700656">
        <ele>1351.471</ele>
        <time>2011-01-02T17:53:35Z</time>
      </trkpt>
      <trkpt lat="31.947721000760794" lon="-5.006472039967775">
        <ele>1353.595</ele>
        <time>2011-01-02T17:53:40Z</time>
      </trkpt>
      <trkpt lat="31.947935996577144" lon="-5.006238017231226">
        <ele>1354.182</ele>
        <time>2011-01-02T17:53:43Z</time>
      </trkpt>
      <trkpt lat="31.948633035644889" lon="-5.005714986473322">
        <ele>1353.7149999999999</ele>
        <time>2011-01-02T17:53:49Z</time>
      </trkpt>
      <trkpt lat="31.949064033105969" lon="-5.005763014778495">
        <ele>1356.4390000000001</ele>
        <time>2011-01-02T17:53:53Z</time>
      </trkpt>
      <trkpt lat="31.94911097176373" lon="-5.006489977240562">
        <ele>1358.239</ele>
        <time>2011-01-02T17:53:57Z</time>
      </trkpt>
      <trkpt lat="31.949106026440859" lon="-5.006616963073611">
        <ele>1358.816</ele>
        <time>2011-01-02T17:53:58Z</time>
      </trkpt>
      <trkpt lat="31.94932303391397" lon="-5.007060030475259">
        <ele>1365.3499999999999</ele>
        <time>2011-01-02T17:54:04Z</time>
      </trkpt>
      <trkpt lat="31.94951799698174" lon="-5.007013007998467">
        <ele>1368.0329999999999</ele>
        <time>2011-01-02T17:54:06Z</time>
      </trkpt>
      <trkpt lat="31.950477976351976" lon="-5.00661101192236">
        <ele>1373.239</ele>
        <time>2011-01-02T17:54:14Z</time>
      </trkpt>
      <trkpt lat="31.951480032876134" lon="-5.00603299587965">
        <ele>1380.1089999999999</ele>
        <time>2011-01-02T17:54:22Z</time>
      </trkpt>
      <trkpt lat="31.951571982353926" lon="-5.006043976172805">
        <ele>1380.8820000000001</ele>
        <time>2011-01-02T17:54:23Z</time>
      </trkpt>
      <trkpt lat="31.951974984258413" lon="-5.006088986992836">
        <ele>1382.953</ele>
        <time>2011-01-02T17:54:28Z</time>
      </trkpt>
      <trkpt lat="31.952071040868759" lon="-5.006099967285991">
        <ele>1383.3889999999999</ele>
        <time>2011-01-02T17:54:30Z</time>
      </trkpt>
      <trkpt lat="31.952450992539525" lon="-5.007132031023502">
        <ele>1382.441</ele>
        <time>2011-01-02T17:54:37Z</time>
      </trkpt>
      <trkpt lat="31.952772019430995" lon="-5.007660007104278">
        <ele>1379.7470000000001</ele>
        <time>2011-01-02T17:54:41Z</time>
      </trkpt>
      <trkpt lat="31.953339977189898" lon="-5.008100979030132">
        <ele>1375.393</ele>
        <time>2011-01-02T17:54:46Z</time>
      </trkpt>
      <trkpt lat="31.953894020989537" lon="-5.008308012038469">
        <ele>1373.126</ele>
        <time>2011-01-02T17:54:50Z</time>
      </trkpt>
      <trkpt lat="31.954472037032247" lon="-5.008195023983717">
        <ele>1371.886</ele>
        <time>2011-01-02T17:54:55Z</time>
      </trkpt>
      <trkpt lat="31.954559963196516" lon="-5.008092010393739">
        <ele>1372.691</ele>
        <time>2011-01-02T17:54:56Z</time>
      </trkpt>
      <trkpt lat="31.954727014526725" lon="-5.007878020405769">
        <ele>1374.1420000000001</ele>
        <time>2011-01-02T17:54:58Z</time>
      </trkpt>
      <trkpt lat="31.955335959792137" lon="-5.007550036534667">
        <ele>1372.875</ele>
        <time>2011-01-02T17:55:04Z</time>
      </trkpt>
      <trkpt lat="31.956196026876569" lon="-5.007422966882587">
        <ele>1366.0309999999999</ele>
        <time>2011-01-02T17:55:10Z</time>
      </trkpt>
      <trkpt lat="31.956758033484221" lon="-5.007009990513325">
        <ele>1364.828</ele>
        <time>2011-01-02T17:55:15Z</time>
      </trkpt>
      <trkpt lat="31.957336971536279" lon="-5.006065014749765">
        <ele>1365.79</ele>
        <time>2011-01-02T17:55:21Z</time>
      </trkpt>
      <trkpt lat="31.957991011440754" lon="-5.005767038092017">
        <ele>1362.895</ele>
        <time>2011-01-02T17:55:26Z</time>
      </trkpt>
      <trkpt lat="31.958631975576282" lon="-5.005476018413901">
        <ele>1365.2650000000001</ele>
        <time>2011-01-02T17:55:31Z</time>
      </trkpt>
      <trkpt lat="31.958843031898141" lon="-5.005379961803556">
        <ele>1366.886</ele>
        <time>2011-01-02T17:55:33Z</time>
      </trkpt>
      <trkpt lat="31.959285009652376" lon="-5.005178963765502">
        <ele>1367.1569999999999</ele>
        <time>2011-01-02T17:55:38Z</time>
      </trkpt>
      <trkpt lat="31.960054971277714" lon="-5.004931027069688">
        <ele>1368.009</ele>
        <time>2011-01-02T17:55:45Z</time>
      </trkpt>
      <trkpt lat="31.960508013144135" lon="-5.004863971844316">
        <ele>1370.597</ele>
        <time>2011-01-02T17:55:49Z</time>
      </trkpt>
      <trkpt lat="31.961302030831575" lon="-5.003726966679096">
        <ele>1378.511</ele>
        <time>2011-01-02T17:55:57Z</time>
      </trkpt>
      <trkpt lat="31.961698997765779" lon="-5.003535021096468">
        <ele>1382.0319999999999</ele>
        <time>2011-01-02T17:56:02Z</time>
      </trkpt>
      <trkpt lat="31.961836963891983" lon="-5.003774994984269">
        <ele>1383.086</ele>
        <time>2011-01-02T17:56:06Z</time>
      </trkpt>
      <trkpt lat="31.96193503215909" lon="-5.004200041294098">
        <ele>1384.873</ele>
        <time>2011-01-02T17:56:10Z</time>
      </trkpt>
      <trkpt lat="31.962169976904988" lon="-5.004732962697744">
        <ele>1389</ele>
        <time>2011-01-02T17:56:15Z</time>
      </trkpt>
      <trkpt lat="31.962545989081264" lon="-5.005009984597564">
        <ele>1391.9390000000001</ele>
        <time>2011-01-02T17:56:20Z</time>
      </trkpt>
      <trkpt lat="31.962791997939348" lon="-5.005191033706069">
        <ele>1393.5260000000001</ele>
        <time>2011-01-02T17:56:24Z</time>
      </trkpt>
      <trkpt lat="31.963387029245496" lon="-5.004832958802581">
        <ele>1395.105</ele>
        <time>2011-01-02T17:56:30Z</time>
      </trkpt>
      <trkpt lat="31.963451988995075" lon="-5.005191033706069">
        <ele>1393.5139999999999</ele>
        <time>2011-01-02T17:56:34Z</time>
      </trkpt>
      <trkpt lat="31.963405972346663" lon="-5.005412986502051">
        <ele>1392.077</ele>
        <time>2011-01-02T17:56:36Z</time>
      </trkpt>
      <trkpt lat="31.963561037555337" lon="-5.005821017548442">
        <ele>1388.885</ele>
        <time>2011-01-02T17:56:40Z</time>
      </trkpt>
      <trkpt lat="31.964164031669497" lon="-5.006902031600475">
        <ele>1383.605</ele>
        <time>2011-01-02T17:56:48Z</time>
      </trkpt>
      <trkpt lat="31.964375004172325" lon="-5.008921986445785">
        <ele>1383.4159999999999</ele>
        <time>2011-01-02T17:56:58Z</time>
      </trkpt>
      <trkpt lat="31.964496038854122" lon="-5.00981499440968">
        <ele>1387.586</ele>
        <time>2011-01-02T17:57:04Z</time>
      </trkpt>
      <trkpt lat="31.964787980541587" lon="-5.01007198356092">
        <ele>1390.3710000000001</ele>
        <time>2011-01-02T17:57:09Z</time>
      </trkpt>
      <trkpt lat="31.965669002383947" lon="-5.009666969999671">
        <ele>1383.8630000000001</ele>
        <time>2011-01-02T17:57:18Z</time>
      </trkpt>
      <trkpt lat="31.965777967125177" lon="-5.00962003134191">
        <ele>1382.7049999999999</ele>
        <time>2011-01-02T17:57:19Z</time>
      </trkpt>
      <trkpt lat="31.966403005644679" lon="-5.009215017780662">
        <ele>1378.2819999999999</ele>
        <time>2011-01-02T17:57:23Z</time>
      </trkpt>
      <trkpt lat="31.966731995344162" lon="-5.009365975856781">
        <ele>1376.104</ele>
        <time>2011-01-02T17:57:26Z</time>
      </trkpt>
      <trkpt lat="31.967033995315433" lon="-5.009451974183321">
        <ele>1373.1479999999999</ele>
        <time>2011-01-02T17:57:31Z</time>
      </trkpt>
      <trkpt lat="31.967085041105747" lon="-5.009349966421723">
        <ele>1372.4549999999999</ele>
        <time>2011-01-02T17:57:32Z</time>
      </trkpt>
      <trkpt lat="31.967334989458323" lon="-5.008719982579351">
        <ele>1368.4359999999999</ele>
        <time>2011-01-02T17:57:37Z</time>
      </trkpt>
      <trkpt lat="31.967731034383178" lon="-5.008341958746314">
        <ele>1366.8019999999999</ele>
        <time>2011-01-02T17:57:42Z</time>
      </trkpt>
      <trkpt lat="31.967944018542767" lon="-5.008345982059836">
        <ele>1366.644</ele>
        <time>2011-01-02T17:57:44Z</time>
      </trkpt>
      <trkpt lat="31.968390019610524" lon="-5.008432986214757">
        <ele>1368.385</ele>
        <time>2011-01-02T17:57:48Z</time>
      </trkpt>
      <trkpt lat="31.968852030113339" lon="-5.008269958198071">
        <ele>1366.758</ele>
        <time>2011-01-02T17:57:53Z</time>
      </trkpt>
      <trkpt lat="31.969114970415831" lon="-5.008036019280553">
        <ele>1364.1790000000001</ele>
        <time>2011-01-02T17:57:56Z</time>
      </trkpt>
      <trkpt lat="31.969531970098615" lon="-5.007871985435486">
        <ele>1359.059</ele>
        <time>2011-01-02T17:58:00Z</time>
      </trkpt>
      <trkpt lat="31.970837032422423" lon="-5.007827980443835">
        <ele>1347.6659999999999</ele>
        <time>2011-01-02T17:58:10Z</time>
      </trkpt>
      <trkpt lat="31.971427034586668" lon="-5.007708035409451">
        <ele>1343.1969999999999</ele>
        <time>2011-01-02T17:58:15Z</time>
      </trkpt>
      <trkpt lat="31.972119966521859" lon="-5.007869973778725">
        <ele>1338.768</ele>
        <time>2011-01-02T17:58:21Z</time>
      </trkpt>
      <trkpt lat="31.972973998636007" lon="-5.007799984887242">
        <ele>1337.971</ele>
        <time>2011-01-02T17:58:27Z</time>
      </trkpt>
      <trkpt lat="31.974187027662992" lon="-5.007521035149694">
        <ele>1344.7090000000001</ele>
        <time>2011-01-02T17:58:34Z</time>
      </trkpt>
      <trkpt lat="31.976774018257856" lon="-5.006917035207152">
        <ele>1351.125</ele>
        <time>2011-01-02T17:58:48Z</time>
      </trkpt>
      <trkpt lat="31.97781597264111" lon="-5.006674965843558">
        <ele>1353.8679999999999</ele>
        <time>2011-01-02T17:58:55Z</time>
      </trkpt>
      <trkpt lat="31.977931978181005" lon="-5.006638001650572">
        <ele>1354.297</ele>
        <time>2011-01-02T17:58:56Z</time>
      </trkpt>
      <trkpt lat="31.978575037792325" lon="-5.006180014461279">
        <ele>1356.7159999999999</ele>
        <time>2011-01-02T17:59:02Z</time>
      </trkpt>
      <trkpt lat="31.97946997359395" lon="-5.005382979288697">
        <ele>1360.1990000000001</ele>
        <time>2011-01-02T17:59:09Z</time>
      </trkpt>
      <trkpt lat="31.980612007901073" lon="-5.004332978278399">
        <ele>1354.047</ele>
        <time>2011-01-02T17:59:18Z</time>
      </trkpt>
      <trkpt lat="31.982179004698992" lon="-5.002730023115873">
        <ele>1348.8689999999999</ele>
        <time>2011-01-02T17:59:30Z</time>
      </trkpt>
      <trkpt lat="31.983070001006126" lon="-5.001746993511915">
        <ele>1346.578</ele>
        <time>2011-01-02T17:59:38Z</time>
      </trkpt>
      <trkpt lat="31.983503010123968" lon="-5.000946018844843">
        <ele>1342.712</ele>
        <time>2011-01-02T17:59:43Z</time>
      </trkpt>
      <trkpt lat="31.983794029802084" lon="-4.999897023662925">
        <ele>1343.2349999999999</ele>
        <time>2011-01-02T17:59:48Z</time>
      </trkpt>
      <trkpt lat="31.984038027003407" lon="-4.99874702654779">
        <ele>1344.461</ele>
        <time>2011-01-02T17:59:54Z</time>
      </trkpt>
      <trkpt lat="31.984327035024762" lon="-4.998316029086709">
        <ele>1343.309</ele>
        <time>2011-01-02T17:59:59Z</time>
      </trkpt>
      <trkpt lat="31.984616965055466" lon="-4.998289961367846">
        <ele>1342.454</ele>
        <time>2011-01-02T18:00:02Z</time>
      </trkpt>
      <trkpt lat="31.985216019675136" lon="-4.998408984392881">
        <ele>1338.671</ele>
        <time>2011-01-02T18:00:07Z</time>
      </trkpt>
      <trkpt lat="31.985971983522177" lon="-4.998256014660001">
        <ele>1332.962</ele>
        <time>2011-01-02T18:00:13Z</time>
      </trkpt>
      <trkpt lat="31.987177971750498" lon="-4.997909003868699">
        <ele>1326.922</ele>
        <time>2011-01-02T18:00:22Z</time>
      </trkpt>
      <trkpt lat="31.988073997199535" lon="-4.997772965580225">
        <ele>1322.8409999999999</ele>
        <time>2011-01-02T18:00:29Z</time>
      </trkpt>
      <trkpt lat="31.988849993795156" lon="-4.997892994433641">
        <ele>1323.7909999999999</ele>
        <time>2011-01-02T18:00:36Z</time>
      </trkpt>
      <trkpt lat="31.989260036498308" lon="-4.997789980843663">
        <ele>1322.2170000000001</ele>
        <time>2011-01-02T18:00:42Z</time>
      </trkpt>
      <trkpt lat="31.989894965663552" lon="-4.997206013649702">
        <ele>1320.1859999999999</ele>
        <time>2011-01-02T18:00:54Z</time>
      </trkpt>
      <trkpt lat="31.990106021985412" lon="-4.997039968147874">
        <ele>1320.5540000000001</ele>
        <time>2011-01-02T18:00:57Z</time>
      </trkpt>
      <trkpt lat="31.990813035517931" lon="-4.996788008138537">
        <ele>1321.6669999999999</ele>
        <time>2011-01-02T18:01:02Z</time>
      </trkpt>
      <trkpt lat="31.991313016042113" lon="-4.997672969475389">
        <ele>1321.1099999999999</ele>
        <time>2011-01-02T18:01:11Z</time>
      </trkpt>
      <trkpt lat="31.99186697602272" lon="-4.998697992414236">
        <ele>1323.883</ele>
        <time>2011-01-02T18:01:19Z</time>
      </trkpt>
      <trkpt lat="31.992082977667451" lon="-4.9997169803828">
        <ele>1324.489</ele>
        <time>2011-01-02T18:01:26Z</time>
      </trkpt>
      <trkpt lat="31.992122959345579" lon="-5.000517033040524">
        <ele>1319.8520000000001</ele>
        <time>2011-01-02T18:01:34Z</time>
      </trkpt>
      <trkpt lat="31.992209041491151" lon="-5.000709984451532">
        <ele>1321.825</ele>
        <time>2011-01-02T18:01:37Z</time>
      </trkpt>
      <trkpt lat="31.992433005943894" lon="-5.001033022999764">
        <ele>1324.722</ele>
        <time>2011-01-02T18:01:43Z</time>
      </trkpt>
      <trkpt lat="31.992872972041368" lon="-5.001482041552663">
        <ele>1329.327</ele>
        <time>2011-01-02T18:01:50Z</time>
      </trkpt>
      <trkpt lat="31.993431961163878" lon="-5.001890994608402">
        <ele>1330.3499999999999</ele>
        <time>2011-01-02T18:01:57Z</time>
      </trkpt>
      <trkpt lat="31.99382096529007" lon="-5.002077994868159">
        <ele>1332.9870000000001</ele>
        <time>2011-01-02T18:02:01Z</time>
      </trkpt>
      <trkpt lat="31.994746997952461" lon="-5.002062991261482">
        <ele>1339.777</ele>
        <time>2011-01-02T18:02:09Z</time>
      </trkpt>
      <trkpt lat="31.995295006781816" lon="-5.001998031511903">
        <ele>1343.6659999999999</ele>
        <time>2011-01-02T18:02:17Z</time>
      </trkpt>
      <trkpt lat="31.995487036183476" lon="-5.002026027068496">
        <ele>1344.9300000000001</ele>
        <time>2011-01-02T18:02:23Z</time>
      </trkpt>
      <trkpt lat="31.995626008138061" lon="-5.001840032637119">
        <ele>1342.7439999999999</ele>
        <time>2011-01-02T18:02:31Z</time>
      </trkpt>
      <trkpt lat="31.995705971494317" lon="-5.002106996253133">
        <ele>1338.0519999999999</ele>
        <time>2011-01-02T18:03:11Z</time>
      </trkpt>
      <trkpt lat="31.995816025882959" lon="-5.00223096460104">
        <ele>1337.7470000000001</ele>
        <time>2011-01-02T18:03:13Z</time>
      </trkpt>
      <trkpt lat="31.996331010013819" lon="-5.002974020317197">
        <ele>1342.019</ele>
        <time>2011-01-02T18:03:24Z</time>
      </trkpt>
      <trkpt lat="31.99736500158906" lon="-5.002905037254095">
        <ele>1343.5640000000001</ele>
        <time>2011-01-02T18:03:31Z</time>
      </trkpt>
      <trkpt lat="31.998189026489854" lon="-5.003409963101149">
        <ele>1345.4390000000001</ele>
        <time>2011-01-02T18:03:39Z</time>
      </trkpt>
      <trkpt lat="31.998896962031722" lon="-5.003746999427676">
        <ele>1347.9680000000001</ele>
        <time>2011-01-02T18:03:45Z</time>
      </trkpt>
      <trkpt lat="31.999537004157901" lon="-5.003943974152207">
        <ele>1348.9469999999999</ele>
        <time>2011-01-02T18:03:51Z</time>
      </trkpt>
      <trkpt lat="31.999629959464073" lon="-5.003935005515814">
        <ele>1348.7360000000001</ele>
        <time>2011-01-02T18:03:52Z</time>
      </trkpt>
      <trkpt lat="32.000102028250694" lon="-5.002823984250426">
        <ele>1347.578</ele>
        <time>2011-01-02T18:03:58Z</time>
      </trkpt>
      <trkpt lat="32.001180024817586" lon="-5.001400988548994">
        <ele>1350.4760000000001</ele>
        <time>2011-01-02T18:04:07Z</time>
      </trkpt>
      <trkpt lat="32.001540027558804" lon="-5.000606970861554">
        <ele>1356.711</ele>
        <time>2011-01-02T18:04:12Z</time>
      </trkpt>
      <trkpt lat="32.001471966505051" lon="-4.9997169803828">
        <ele>1361.105</ele>
        <time>2011-01-02T18:04:16Z</time>
      </trkpt>
      <trkpt lat="32.002985989674926" lon="-4.998837970197201">
        <ele>1365.5360000000001</ele>
        <time>2011-01-02T18:04:25Z</time>
      </trkpt>
      <trkpt lat="32.004524990916252" lon="-4.997349008917809">
        <ele>1371.1900000000001</ele>
        <time>2011-01-02T18:04:35Z</time>
      </trkpt>
      <trkpt lat="32.005320014432073" lon="-4.996509980410337">
        <ele>1373.827</ele>
        <time>2011-01-02T18:04:41Z</time>
      </trkpt>
      <trkpt lat="32.006615018472075" lon="-4.994750032201409">
        <ele>1379.6410000000001</ele>
        <time>2011-01-02T18:04:51Z</time>
      </trkpt>
      <trkpt lat="32.007734002545476" lon="-4.993159985169768">
        <ele>1384.5599999999999</ele>
        <time>2011-01-02T18:05:01Z</time>
      </trkpt>
      <trkpt lat="32.008822979405522" lon="-4.991661971434951">
        <ele>1387.5139999999999</ele>
        <time>2011-01-02T18:05:11Z</time>
      </trkpt>
      <trkpt lat="32.00916001573205" lon="-4.991154028102756">
        <ele>1388.4349999999999</ele>
        <time>2011-01-02T18:05:14Z</time>
      </trkpt>
      <trkpt lat="32.009654967114329" lon="-4.990022974088788">
        <ele>1389.009</ele>
        <time>2011-01-02T18:05:21Z</time>
      </trkpt>
      <trkpt lat="32.010116977617145" lon="-4.988597966730595">
        <ele>1390.835</ele>
        <time>2011-01-02T18:05:29Z</time>
      </trkpt>
      <trkpt lat="32.009696960449219" lon="-4.987776959314942">
        <ele>1391.0650000000001</ele>
        <time>2011-01-02T18:05:34Z</time>
      </trkpt>
      <trkpt lat="32.009725039824843" lon="-4.987564980983734">
        <ele>1390.627</ele>
        <time>2011-01-02T18:06:28Z</time>
      </trkpt>
      <trkpt lat="32.00987096875906" lon="-4.986943965777755">
        <ele>1390.9860000000001</ele>
        <time>2011-01-02T18:06:34Z</time>
      </trkpt>
      <trkpt lat="32.01008596457541" lon="-4.985999995842576">
        <ele>1389.835</ele>
        <time>2011-01-02T18:06:40Z</time>
      </trkpt>
      <trkpt lat="32.010903032496572" lon="-4.984512040391564">
        <ele>1390.6569999999999</ele>
        <time>2011-01-02T18:06:48Z</time>
      </trkpt>
      <trkpt lat="32.01081401668489" lon="-4.983269004151225">
        <ele>1387.126</ele>
        <time>2011-01-02T18:06:54Z</time>
      </trkpt>
      <trkpt lat="32.010567001998425" lon="-4.981332030147314">
        <ele>1381.076</ele>
        <time>2011-01-02T18:07:03Z</time>
      </trkpt>
      <trkpt lat="32.010452002286911" lon="-4.979995032772422">
        <ele>1375.8499999999999</ele>
        <time>2011-01-02T18:07:10Z</time>
      </trkpt>
      <trkpt lat="32.010616958141327" lon="-4.97880999930203">
        <ele>1368.627</ele>
        <time>2011-01-02T18:07:16Z</time>
      </trkpt>
      <trkpt lat="32.010962041094899" lon="-4.97661997564137">
        <ele>1363.9960000000001</ele>
        <time>2011-01-02T18:07:26Z</time>
      </trkpt>
      <trkpt lat="32.011368982493877" lon="-4.974039020016789">
        <ele>1366.252</ele>
        <time>2011-01-02T18:07:37Z</time>
      </trkpt>
      <trkpt lat="32.011787993833423" lon="-4.971669958904386">
        <ele>1377.521</ele>
        <time>2011-01-02T18:07:47Z</time>
      </trkpt>
      <trkpt lat="32.012016987428069" lon="-4.97064501978457">
        <ele>1377.6010000000001</ele>
        <time>2011-01-02T18:07:52Z</time>
      </trkpt>
      <trkpt lat="32.012271964922547" lon="-4.969952004030347">
        <ele>1374.9949999999999</ele>
        <time>2011-01-02T18:07:56Z</time>
      </trkpt>
      <trkpt lat="32.0134780369699" lon="-4.967821994796395">
        <ele>1374.5319999999999</ele>
        <time>2011-01-02T18:08:07Z</time>
      </trkpt>
      <trkpt lat="32.014319999143481" lon="-4.96628500521183">
        <ele>1365.3789999999999</ele>
        <time>2011-01-02T18:08:15Z</time>
      </trkpt>
      <trkpt lat="32.015315014868975" lon="-4.964541988447309">
        <ele>1367.769</ele>
        <time>2011-01-02T18:08:24Z</time>
      </trkpt>
      <trkpt lat="32.015869980677962" lon="-4.96407201513648">
        <ele>1370.4349999999999</ele>
        <time>2011-01-02T18:08:29Z</time>
      </trkpt>
      <trkpt lat="32.01713397167623" lon="-4.963701032102108">
        <ele>1370.78</ele>
        <time>2011-01-02T18:08:38Z</time>
      </trkpt>
      <trkpt lat="32.017438989132643" lon="-4.963616961613298">
        <ele>1370.954</ele>
        <time>2011-01-02T18:08:40Z</time>
      </trkpt>
      <trkpt lat="32.01812001876533" lon="-4.963141959160566">
        <ele>1371.5239999999999</ele>
        <time>2011-01-02T18:08:45Z</time>
      </trkpt>
      <trkpt lat="32.019446035847068" lon="-4.961160980165005">
        <ele>1375.588</ele>
        <time>2011-01-02T18:08:56Z</time>
      </trkpt>
      <trkpt lat="32.020761994645" lon="-4.959149993956089">
        <ele>1379.7180000000001</ele>
        <time>2011-01-02T18:09:07Z</time>
      </trkpt>
      <trkpt lat="32.021009009331465" lon="-4.958809018135071">
        <ele>1380.248</ele>
        <time>2011-01-02T18:09:09Z</time>
      </trkpt>
      <trkpt lat="32.022473998367786" lon="-4.95758400298655">
        <ele>1384.1279999999999</ele>
        <time>2011-01-02T18:09:18Z</time>
      </trkpt>
      <trkpt lat="32.024794025346637" lon="-4.955769991502166">
        <ele>1383.6289999999999</ele>
        <time>2011-01-02T18:09:32Z</time>
      </trkpt>
      <trkpt lat="32.024945989251137" lon="-4.955647028982639">
        <ele>1383.1469999999999</ele>
        <time>2011-01-02T18:09:33Z</time>
      </trkpt>
      <trkpt lat="32.026162035763264" lon="-4.954048013314605">
        <ele>1380.998</ele>
        <time>2011-01-02T18:09:43Z</time>
      </trkpt>
      <trkpt lat="32.027430972084403" lon="-4.952218998223543">
        <ele>1383.0540000000001</ele>
        <time>2011-01-02T18:09:53Z</time>
      </trkpt>
      <trkpt lat="32.027769014239311" lon="-4.951711976900697">
        <ele>1386.586</ele>
        <time>2011-01-02T18:09:56Z</time>
      </trkpt>
      <trkpt lat="32.027946040034294" lon="-4.950975039973855">
        <ele>1392.135</ele>
        <time>2011-01-02T18:10:01Z</time>
      </trkpt>
      <trkpt lat="32.028135973960161" lon="-4.949888996779919">
        <ele>1395.307</ele>
        <time>2011-01-02T18:10:07Z</time>
      </trkpt>
      <trkpt lat="32.028813986107707" lon="-4.94866699911654">
        <ele>1393.0830000000001</ele>
        <time>2011-01-02T18:10:14Z</time>
      </trkpt>
      <trkpt lat="32.029295023530722" lon="-4.947523958981037">
        <ele>1393.751</ele>
        <time>2011-01-02T18:10:20Z</time>
      </trkpt>
      <trkpt lat="32.029352020472288" lon="-4.946464989334345">
        <ele>1395.078</ele>
        <time>2011-01-02T18:10:25Z</time>
      </trkpt>
      <trkpt lat="32.029457967728376" lon="-4.94353199377656">
        <ele>1399.105</ele>
        <time>2011-01-02T18:10:38Z</time>
      </trkpt>
      <trkpt lat="32.029879996553063" lon="-4.941610023379326">
        <ele>1397.1220000000001</ele>
        <time>2011-01-02T18:10:46Z</time>
      </trkpt>
      <trkpt lat="32.030394980683923" lon="-4.940103963017464">
        <ele>1396.3979999999999</ele>
        <time>2011-01-02T18:10:53Z</time>
      </trkpt>
      <trkpt lat="32.031222023069859" lon="-4.938344014808536">
        <ele>1399.325</ele>
        <time>2011-01-02T18:11:01Z</time>
      </trkpt>
      <trkpt lat="32.032513003796339" lon="-4.935632972046733">
        <ele>1403.586</ele>
        <time>2011-01-02T18:11:13Z</time>
      </trkpt>
      <trkpt lat="32.033637017011642" lon="-4.933707984164357">
        <ele>1404.9069999999999</ele>
        <time>2011-01-02T18:11:22Z</time>
      </trkpt>
      <trkpt lat="32.035170989111066" lon="-4.932019030675292">
        <ele>1408.03</ele>
        <time>2011-01-02T18:11:31Z</time>
      </trkpt>
      <trkpt lat="32.036796994507313" lon="-4.930151039734483">
        <ele>1410.998</ele>
        <time>2011-01-02T18:11:41Z</time>
      </trkpt>
      <trkpt lat="32.039018031209707" lon="-4.927665973082185">
        <ele>1413.1110000000001</ele>
        <time>2011-01-02T18:11:54Z</time>
      </trkpt>
      <trkpt lat="32.040659040212631" lon="-4.92582798935473">
        <ele>1415.2539999999999</ele>
        <time>2011-01-02T18:12:04Z</time>
      </trkpt>
      <trkpt lat="32.042485037818551" lon="-4.923866037279367">
        <ele>1416.2929999999999</ele>
        <time>2011-01-02T18:12:15Z</time>
      </trkpt>
      <trkpt lat="32.044495018199086" lon="-4.921904001384974">
        <ele>1425.0119999999999</ele>
        <time>2011-01-02T18:12:27Z</time>
      </trkpt>
      <trkpt lat="32.046398967504501" lon="-4.920678986236453">
        <ele>1432.1669999999999</ele>
        <time>2011-01-02T18:12:37Z</time>
      </trkpt>
      <trkpt lat="32.048292020335793" lon="-4.91942597553134">
        <ele>1428.7809999999999</ele>
        <time>2011-01-02T18:12:48Z</time>
      </trkpt>
      <trkpt lat="32.050118017941713" lon="-4.918260974809527">
        <ele>1427.6759999999999</ele>
        <time>2011-01-02T18:12:59Z</time>
      </trkpt>
      <trkpt lat="32.051533972844481" lon="-4.917337959632278">
        <ele>1427.086</ele>
        <time>2011-01-02T18:13:07Z</time>
      </trkpt>
      <trkpt lat="32.053649984300137" lon="-4.915881017223001">
        <ele>1431.7349999999999</ele>
        <time>2011-01-02T18:13:18Z</time>
      </trkpt>
      <trkpt lat="32.054925039410591" lon="-4.914777958765626">
        <ele>1435.2670000000001</ele>
        <time>2011-01-02T18:13:26Z</time>
      </trkpt>
      <trkpt lat="32.055408004671335" lon="-4.914459027349949">
        <ele>1439.069</ele>
        <time>2011-01-02T18:13:30Z</time>
      </trkpt>
      <trkpt lat="32.055552005767822" lon="-4.914438994601369">
        <ele>1439.663</ele>
        <time>2011-01-02T18:13:31Z</time>
      </trkpt>
      <trkpt lat="32.056219959631562" lon="-4.914586013182998">
        <ele>1443.8219999999999</ele>
        <time>2011-01-02T18:13:36Z</time>
      </trkpt>
      <trkpt lat="32.056593960151076" lon="-4.914687015116215">
        <ele>1445.9259999999999</ele>
        <time>2011-01-02T18:13:41Z</time>
      </trkpt>
      <trkpt lat="32.056703008711338" lon="-4.914667988196015">
        <ele>1445.7750000000001</ele>
        <time>2011-01-02T18:13:42Z</time>
      </trkpt>
      <trkpt lat="32.057069968432188" lon="-4.914303962141275">
        <ele>1445.896</ele>
        <time>2011-01-02T18:13:45Z</time>
      </trkpt>
      <trkpt lat="32.057747980579734" lon="-4.913715971633792">
        <ele>1443.373</ele>
        <time>2011-01-02T18:13:51Z</time>
      </trkpt>
      <trkpt lat="32.059428971260786" lon="-4.912845008075237">
        <ele>1440.5840000000001</ele>
        <time>2011-01-02T18:14:01Z</time>
      </trkpt>
      <trkpt lat="32.060651974752545" lon="-4.912189040333033">
        <ele>1435.9469999999999</ele>
        <time>2011-01-02T18:14:09Z</time>
      </trkpt>
      <trkpt lat="32.06166903488338" lon="-4.91167196072638">
        <ele>1436.9939999999999</ele>
        <time>2011-01-02T18:14:15Z</time>
      </trkpt>
      <trkpt lat="32.063392018899322" lon="-4.910728996619582">
        <ele>1438.242</ele>
        <time>2011-01-02T18:14:24Z</time>
      </trkpt>
      <trkpt lat="32.06523603759706" lon="-4.909743033349514">
        <ele>1438.721</ele>
        <time>2011-01-02T18:14:34Z</time>
      </trkpt>
      <trkpt lat="32.066706977784634" lon="-4.909097040072084">
        <ele>1438.6279999999999</ele>
        <time>2011-01-02T18:14:42Z</time>
      </trkpt>
      <trkpt lat="32.068247990682721" lon="-4.908536961302161">
        <ele>1435.9949999999999</ele>
        <time>2011-01-02T18:14:50Z</time>
      </trkpt>
      <trkpt lat="32.070312034338713" lon="-4.907808993011713">
        <ele>1437.0419999999999</ele>
        <time>2011-01-02T18:15:00Z</time>
      </trkpt>
      <trkpt lat="32.071645008400083" lon="-4.90698697976768">
        <ele>1436.346</ele>
        <time>2011-01-02T18:15:07Z</time>
      </trkpt>
      <trkpt lat="32.072437014430761" lon="-4.90638398565352">
        <ele>1436.539</ele>
        <time>2011-01-02T18:15:12Z</time>
      </trkpt>
      <trkpt lat="32.073623975738883" lon="-4.905534982681274">
        <ele>1433.4059999999999</ele>
        <time>2011-01-02T18:15:19Z</time>
      </trkpt>
      <trkpt lat="32.074967008084059" lon="-4.904546001926065">
        <ele>1441.8030000000001</ele>
        <time>2011-01-02T18:15:27Z</time>
      </trkpt>
      <trkpt lat="32.076583039015532" lon="-4.903383012861013">
        <ele>1444.999</ele>
        <time>2011-01-02T18:15:36Z</time>
      </trkpt>
      <trkpt lat="32.078016009181738" lon="-4.902319014072418">
        <ele>1450.3779999999999</ele>
        <time>2011-01-02T18:15:44Z</time>
      </trkpt>
      <trkpt lat="32.079445961862803" lon="-4.901131968945265">
        <ele>1451.74</ele>
        <time>2011-01-02T18:15:53Z</time>
      </trkpt>
      <trkpt lat="32.080812966451049" lon="-4.899996975436807">
        <ele>1454.6379999999999</ele>
        <time>2011-01-02T18:16:01Z</time>
      </trkpt>
      <trkpt lat="32.082161027938128" lon="-4.898909004405141">
        <ele>1456.4680000000001</ele>
        <time>2011-01-02T18:16:09Z</time>
      </trkpt>
      <trkpt lat="32.083285041153431" lon="-4.897632021456957">
        <ele>1455.0930000000001</ele>
        <time>2011-01-02T18:16:16Z</time>
      </trkpt>
      <trkpt lat="32.084677023813128" lon="-4.895998975262046">
        <ele>1455.8879999999999</ele>
        <time>2011-01-02T18:16:25Z</time>
      </trkpt>
      <trkpt lat="32.085676984861493" lon="-4.895301014184952">
        <ele>1454.1669999999999</ele>
        <time>2011-01-02T18:16:31Z</time>
      </trkpt>
      <trkpt lat="32.088002040982246" lon="-4.89424497820437">
        <ele>1459.088</ele>
        <time>2011-01-02T18:16:43Z</time>
      </trkpt>
      <trkpt lat="32.089846981689334" lon="-4.893395975232124">
        <ele>1462.8019999999999</ele>
        <time>2011-01-02T18:16:53Z</time>
      </trkpt>
      <trkpt lat="32.090691039338708" lon="-4.892629031091929">
        <ele>1457.7550000000001</ele>
        <time>2011-01-02T18:16:59Z</time>
      </trkpt>
      <trkpt lat="32.091891998425126" lon="-4.89100000821054">
        <ele>1453.2550000000001</ele>
        <time>2011-01-02T18:17:08Z</time>
      </trkpt>
      <trkpt lat="32.09213700145483" lon="-4.890654003247619">
        <ele>1453.271</ele>
        <time>2011-01-02T18:17:10Z</time>
      </trkpt>
      <trkpt lat="32.092891959473491" lon="-4.890029970556498">
        <ele>1454.4649999999999</ele>
        <time>2011-01-02T18:17:15Z</time>
      </trkpt>
      <trkpt lat="32.094545038416982" lon="-4.889553040266037">
        <ele>1459.836</ele>
        <time>2011-01-02T18:17:24Z</time>
      </trkpt>
      <trkpt lat="32.095486996695399" lon="-4.889063034206629">
        <ele>1460.4849999999999</ele>
        <time>2011-01-02T18:17:30Z</time>
      </trkpt>
      <trkpt lat="32.097303019836545" lon="-4.887595027685165">
        <ele>1464.5519999999999</ele>
        <time>2011-01-02T18:17:41Z</time>
      </trkpt>
      <trkpt lat="32.099593039602041" lon="-4.885732987895608">
        <ele>1469.4970000000001</ele>
        <time>2011-01-02T18:17:54Z</time>
      </trkpt>
      <trkpt lat="32.100670030340552" lon="-4.885037038475275">
        <ele>1471.4639999999999</ele>
        <time>2011-01-02T18:18:00Z</time>
      </trkpt>
      <trkpt lat="32.101201023906469" lon="-4.88474702462554">
        <ele>1474.318</ele>
        <time>2011-01-02T18:18:03Z</time>
      </trkpt>
      <trkpt lat="32.101747021079063" lon="-4.88440403714776">
        <ele>1474.569</ele>
        <time>2011-01-02T18:18:07Z</time>
      </trkpt>
      <trkpt lat="32.102368958294392" lon="-4.883466018363833">
        <ele>1472.366</ele>
        <time>2011-01-02T18:18:13Z</time>
      </trkpt>
      <trkpt lat="32.102748993784189" lon="-4.883063016459346">
        <ele>1472.1759999999999</ele>
        <time>2011-01-02T18:18:17Z</time>
      </trkpt>
      <trkpt lat="32.104033017531037" lon="-4.882795969024301">
        <ele>1469.347</ele>
        <time>2011-01-02T18:18:26Z</time>
      </trkpt>
      <trkpt lat="32.104459991678596" lon="-4.882737966254354">
        <ele>1469.9110000000001</ele>
        <time>2011-01-02T18:18:29Z</time>
      </trkpt>
      <trkpt lat="32.104976987466216" lon="-4.88262003287673">
        <ele>1471.0809999999999</ele>
        <time>2011-01-02T18:18:33Z</time>
      </trkpt>
      <trkpt lat="32.106149028986692" lon="-4.881744962185621">
        <ele>1471.0730000000001</ele>
        <time>2011-01-02T18:18:41Z</time>
      </trkpt>
      <trkpt lat="32.107665985822678" lon="-4.88045196980238">
        <ele>1477.934</ele>
        <time>2011-01-02T18:18:51Z</time>
      </trkpt>
      <trkpt lat="32.109601031988859" lon="-4.879127964377403">
        <ele>1475.0640000000001</ele>
        <time>2011-01-02T18:19:03Z</time>
      </trkpt>
      <trkpt lat="32.110305028036237" lon="-4.878598982468247">
        <ele>1475.377</ele>
        <time>2011-01-02T18:19:08Z</time>
      </trkpt>
      <trkpt lat="32.111041964963078" lon="-4.878335036337376">
        <ele>1473.451</ele>
        <time>2011-01-02T18:19:13Z</time>
      </trkpt>
      <trkpt lat="32.111782003194094" lon="-4.878353979438543">
        <ele>1467.3299999999999</ele>
        <time>2011-01-02T18:19:19Z</time>
      </trkpt>
      <trkpt lat="32.112792022526264" lon="-4.877768000587821">
        <ele>1466.5509999999999</ele>
        <time>2011-01-02T18:19:26Z</time>
      </trkpt>
      <trkpt lat="32.113732974976301" lon="-4.877428030595183">
        <ele>1467.8019999999999</ele>
        <time>2011-01-02T18:19:32Z</time>
      </trkpt>
      <trkpt lat="32.115488983690739" lon="-4.877208005636931">
        <ele>1468.9259999999999</ele>
        <time>2011-01-02T18:19:41Z</time>
      </trkpt>
      <trkpt lat="32.117109037935734" lon="-4.876988986507058">
        <ele>1473.1130000000001</ele>
        <time>2011-01-02T18:19:49Z</time>
      </trkpt>
      <trkpt lat="32.11811101064086" lon="-4.877092000097036">
        <ele>1473.174</ele>
        <time>2011-01-02T18:19:55Z</time>
      </trkpt>
      <trkpt lat="32.119423029944301" lon="-4.877659035846591">
        <ele>1476.1510000000001</ele>
        <time>2011-01-02T18:20:03Z</time>
      </trkpt>
      <trkpt lat="32.120432965457439" lon="-4.87787202000618">
        <ele>1477.491</ele>
        <time>2011-01-02T18:20:09Z</time>
      </trkpt>
      <trkpt lat="32.121757976710796" lon="-4.877899009734392">
        <ele>1479.5820000000001</ele>
        <time>2011-01-02T18:20:16Z</time>
      </trkpt>
      <trkpt lat="32.123324973508716" lon="-4.877519980072975">
        <ele>1483.1220000000001</ele>
        <time>2011-01-02T18:20:24Z</time>
      </trkpt>
      <trkpt lat="32.124799015000463" lon="-4.877208005636931">
        <ele>1480.0029999999999</ele>
        <time>2011-01-02T18:20:32Z</time>
      </trkpt>
      <trkpt lat="32.12614799849689" lon="-4.876900976523757">
        <ele>1483.662</ele>
        <time>2011-01-02T18:20:39Z</time>
      </trkpt>
      <trkpt lat="32.12771600112319" lon="-4.876224976032972">
        <ele>1490.78</ele>
        <time>2011-01-02T18:20:47Z</time>
      </trkpt>
      <trkpt lat="32.128327041864395" lon="-4.875878971070051">
        <ele>1491.4000000000001</ele>
        <time>2011-01-02T18:20:51Z</time>
      </trkpt>
      <trkpt lat="32.129645012319088" lon="-4.874132014811039">
        <ele>1494.809</ele>
        <time>2011-01-02T18:21:02Z</time>
      </trkpt>
      <trkpt lat="32.130554029718041" lon="-4.872945975512266">
        <ele>1498.7380000000001</ele>
        <time>2011-01-02T18:21:11Z</time>
      </trkpt>
      <trkpt lat="32.131225001066923" lon="-4.872289001941681">
        <ele>1501.3230000000001</ele>
        <time>2011-01-02T18:21:19Z</time>
      </trkpt>
      <trkpt lat="32.13201298378408" lon="-4.871745016425848">
        <ele>1502.6890000000001</ele>
        <time>2011-01-02T18:21:29Z</time>
      </trkpt>
      <trkpt lat="32.13233401067555" lon="-4.87140404060483">
        <ele>1503.125</ele>
        <time>2011-01-02T18:21:33Z</time>
      </trkpt>
      <trkpt lat="32.132699964568019" lon="-4.870788976550102">
        <ele>1503.0809999999999</ele>
        <time>2011-01-02T18:21:39Z</time>
      </trkpt>
      <trkpt lat="32.133178990334272" lon="-4.8701829649508">
        <ele>1500.155</ele>
        <time>2011-01-02T18:21:45Z</time>
      </trkpt>
      <trkpt lat="32.133621973916888" lon="-4.869914995506406">
        <ele>1498.7629999999999</ele>
        <time>2011-01-02T18:21:49Z</time>
      </trkpt>
      <trkpt lat="32.134191021323204" lon="-4.869760014116764">
        <ele>1501.1189999999999</ele>
        <time>2011-01-02T18:21:54Z</time>
      </trkpt>
      <trkpt lat="32.134876996278763" lon="-4.86996796913445">
        <ele>1504.248</ele>
        <time>2011-01-02T18:22:00Z</time>
      </trkpt>
      <trkpt lat="32.135006999596953" lon="-4.869937961921096">
        <ele>1505.049</ele>
        <time>2011-01-02T18:22:01Z</time>
      </trkpt>
      <trkpt lat="32.136498978361487" lon="-4.869266990572214">
        <ele>1510.404</ele>
        <time>2011-01-02T18:22:11Z</time>
      </trkpt>
      <trkpt lat="32.138111991807818" lon="-4.868512032553554">
        <ele>1511.3510000000001</ele>
        <time>2011-01-02T18:22:21Z</time>
      </trkpt>
      <trkpt lat="32.138668969273567" lon="-4.868092015385628">
        <ele>1511.864</ele>
        <time>2011-01-02T18:22:25Z</time>
      </trkpt>
      <trkpt lat="32.138881031423807" lon="-4.867740981280804">
        <ele>1512.7639999999999</ele>
        <time>2011-01-02T18:22:27Z</time>
      </trkpt>
      <trkpt lat="32.139373971149325" lon="-4.867067998275161">
        <ele>1514.624</ele>
        <time>2011-01-02T18:22:32Z</time>
      </trkpt>
      <trkpt lat="32.140823034569621" lon="-4.866274986416102">
        <ele>1517.374</ele>
        <time>2011-01-02T18:22:41Z</time>
      </trkpt>
      <trkpt lat="32.14146701619029" lon="-4.86564701423049">
        <ele>1519.1389999999999</ele>
        <time>2011-01-02T18:22:46Z</time>
      </trkpt>
      <trkpt lat="32.141542034223676" lon="-4.865440987050533">
        <ele>1518.6320000000001</ele>
        <time>2011-01-02T18:22:47Z</time>
      </trkpt>
      <trkpt lat="32.141807992011309" lon="-4.864257965236902">
        <ele>1516.3820000000001</ele>
        <time>2011-01-02T18:22:53Z</time>
      </trkpt>
      <trkpt lat="32.142162965610623" lon="-4.863594034686685">
        <ele>1516.828</ele>
        <time>2011-01-02T18:22:58Z</time>
      </trkpt>
      <trkpt lat="32.142375027760863" lon="-4.863408962264657">
        <ele>1516.9960000000001</ele>
        <time>2011-01-02T18:23:00Z</time>
      </trkpt>
      <trkpt lat="32.143725017085671" lon="-4.862750982865691">
        <ele>1517.2550000000001</ele>
        <time>2011-01-02T18:23:09Z</time>
      </trkpt>
      <trkpt lat="32.145502986386418" lon="-4.861917989328504">
        <ele>1519.722</ele>
        <time>2011-01-02T18:23:19Z</time>
      </trkpt>
      <trkpt lat="32.147271987050772" lon="-4.861251041293144">
        <ele>1521.896</ele>
        <time>2011-01-02T18:23:28Z</time>
      </trkpt>
      <trkpt lat="32.147858971729875" lon="-4.86105197109282">
        <ele>1522.7329999999999</ele>
        <time>2011-01-02T18:23:31Z</time>
      </trkpt>
      <trkpt lat="32.148953983560205" lon="-4.860379993915558">
        <ele>1524.135</ele>
        <time>2011-01-02T18:23:37Z</time>
      </trkpt>
      <trkpt lat="32.149122962728143" lon="-4.860232975333929">
        <ele>1524.5170000000001</ele>
        <time>2011-01-02T18:23:38Z</time>
      </trkpt>
      <trkpt lat="32.149842968210578" lon="-4.859094964340329">
        <ele>1524.1469999999999</ele>
        <time>2011-01-02T18:23:44Z</time>
      </trkpt>
      <trkpt lat="32.150320988148451" lon="-4.85814998857677">
        <ele>1523.502</ele>
        <time>2011-01-02T18:23:49Z</time>
      </trkpt>
      <trkpt lat="32.151067983359098" lon="-4.857265027239919">
        <ele>1529.5070000000001</ele>
        <time>2011-01-02T18:23:55Z</time>
      </trkpt>
      <trkpt lat="32.1522749774158" lon="-4.856200022622943">
        <ele>1534.654</ele>
        <time>2011-01-02T18:24:03Z</time>
      </trkpt>
      <trkpt lat="32.153838034719229" lon="-4.855254041031003">
        <ele>1536.4739999999999</ele>
        <time>2011-01-02T18:24:12Z</time>
      </trkpt>
      <trkpt lat="32.154002990573645" lon="-4.855132000520825">
        <ele>1537.0319999999999</ele>
        <time>2011-01-02T18:24:13Z</time>
      </trkpt>
      <trkpt lat="32.15485299937427" lon="-4.854072025045753">
        <ele>1540.104</ele>
        <time>2011-01-02T18:24:19Z</time>
      </trkpt>
      <trkpt lat="32.156511023640633" lon="-4.851648984476924">
        <ele>1549.1030000000001</ele>
        <time>2011-01-02T18:24:31Z</time>
      </trkpt>
      <trkpt lat="32.157840980216861" lon="-4.849600028246641">
        <ele>1557.904</ele>
        <time>2011-01-02T18:24:41Z</time>
      </trkpt>
      <trkpt lat="32.158927023410797" lon="-4.847399024292827">
        <ele>1561.5550000000001</ele>
        <time>2011-01-02T18:24:51Z</time>
      </trkpt>
      <trkpt lat="32.160192020237446" lon="-4.844901971518993">
        <ele>1562.306</ele>
        <time>2011-01-02T18:25:02Z</time>
      </trkpt>
      <trkpt lat="32.161387028172612" lon="-4.842167962342501">
        <ele>1564.0640000000001</ele>
        <time>2011-01-02T18:25:13Z</time>
      </trkpt>
      <trkpt lat="32.162605002522469" lon="-4.839373016729951">
        <ele>1562.5599999999999</ele>
        <time>2011-01-02T18:25:24Z</time>
      </trkpt>
      <trkpt lat="32.163270022720098" lon="-4.83831899240613">
        <ele>1563.25</ele>
        <time>2011-01-02T18:25:29Z</time>
      </trkpt>
      <trkpt lat="32.165149999782443" lon="-4.835821017622948">
        <ele>1564.6959999999999</ele>
        <time>2011-01-02T18:25:41Z</time>
      </trkpt>
      <trkpt lat="32.165903029963374" lon="-4.834808986634016">
        <ele>1566.181</ele>
        <time>2011-01-02T18:25:46Z</time>
      </trkpt>
      <trkpt lat="32.167059984058142" lon="-4.834119994193316">
        <ele>1567.771</ele>
        <time>2011-01-02T18:25:52Z</time>
      </trkpt>
      <trkpt lat="32.168656988069415" lon="-4.833113998174667">
        <ele>1570.7760000000001</ele>
        <time>2011-01-02T18:26:00Z</time>
      </trkpt>
      <trkpt lat="32.170550962910056" lon="-4.831466032192111">
        <ele>1573.748</ele>
        <time>2011-01-02T18:26:10Z</time>
      </trkpt>
      <trkpt lat="32.170726982876658" lon="-4.831320019438863">
        <ele>1573.944</ele>
        <time>2011-01-02T18:26:11Z</time>
      </trkpt>
      <trkpt lat="32.17167497612536" lon="-4.830901008099318">
        <ele>1575.5899999999999</ele>
        <time>2011-01-02T18:26:16Z</time>
      </trkpt>
      <trkpt lat="32.172604026272893" lon="-4.830593978986144">
        <ele>1577.1099999999999</ele>
        <time>2011-01-02T18:26:21Z</time>
      </trkpt>
      <trkpt lat="32.174779968336225" lon="-4.829411963000894">
        <ele>1583.0940000000001</ele>
        <time>2011-01-02T18:26:32Z</time>
      </trkpt>
      <trkpt lat="32.17532797716558" lon="-4.829070987179875">
        <ele>1585.403</ele>
        <time>2011-01-02T18:26:35Z</time>
      </trkpt>
      <trkpt lat="32.175943963229656" lon="-4.828490959480405">
        <ele>1586.4949999999999</ele>
        <time>2011-01-02T18:26:40Z</time>
      </trkpt>
      <trkpt lat="32.176676038652658" lon="-4.82699696905911">
        <ele>1583.2560000000001</ele>
        <time>2011-01-02T18:26:48Z</time>
      </trkpt>
      <trkpt lat="32.177139976993203" lon="-4.826399004086852">
        <ele>1580.971</ele>
        <time>2011-01-02T18:26:52Z</time>
      </trkpt>
      <trkpt lat="32.178488960489631" lon="-4.825390996411443">
        <ele>1577.1400000000001</ele>
        <time>2011-01-02T18:27:00Z</time>
      </trkpt>
      <trkpt lat="32.180648976936936" lon="-4.823856018483639">
        <ele>1574.5219999999999</ele>
        <time>2011-01-02T18:27:11Z</time>
      </trkpt>
      <trkpt lat="32.183223981410265" lon="-4.822002025321126">
        <ele>1573.4449999999999</ele>
        <time>2011-01-02T18:27:23Z</time>
      </trkpt>
      <trkpt lat="32.185867968946695" lon="-4.82012003660202">
        <ele>1572.5640000000001</ele>
        <time>2011-01-02T18:27:35Z</time>
      </trkpt>
      <trkpt lat="32.188512040302157" lon="-4.818309964612126">
        <ele>1570.1700000000001</ele>
        <time>2011-01-02T18:27:47Z</time>
      </trkpt>
      <trkpt lat="32.192206028848886" lon="-4.815693972632289">
        <ele>1568.5799999999999</ele>
        <time>2011-01-02T18:28:04Z</time>
      </trkpt>
      <trkpt lat="32.194670978933573" lon="-4.813941987231374">
        <ele>1571.3499999999999</ele>
        <time>2011-01-02T18:28:16Z</time>
      </trkpt>
      <trkpt lat="32.19644601456821" lon="-4.812620999291539">
        <ele>1570.1890000000001</ele>
        <time>2011-01-02T18:28:25Z</time>
      </trkpt>
      <trkpt lat="32.197293005883694" lon="-4.811981962993741">
        <ele>1571.5250000000001</ele>
        <time>2011-01-02T18:28:30Z</time>
      </trkpt>
      <trkpt lat="32.197773037478328" lon="-4.811443006619811">
        <ele>1572.2660000000001</ele>
        <time>2011-01-02T18:28:34Z</time>
      </trkpt>
      <trkpt lat="32.198623968288302" lon="-4.809390027076006">
        <ele>1561.259</ele>
        <time>2011-01-02T18:28:46Z</time>
      </trkpt>
      <trkpt lat="32.199224028736353" lon="-4.808692988008261">
        <ele>1559.52</ele>
        <time>2011-01-02T18:28:52Z</time>
      </trkpt>
      <trkpt lat="32.199332993477583" lon="-4.808621993288398">
        <ele>1559.9480000000001</ele>
        <time>2011-01-02T18:28:53Z</time>
      </trkpt>
      <trkpt lat="32.199800033122301" lon="-4.808406997472048">
        <ele>1561.7919999999999</ele>
        <time>2011-01-02T18:28:58Z</time>
      </trkpt>
      <trkpt lat="32.200654987245798" lon="-4.808559967204928">
        <ele>1566.855</ele>
        <time>2011-01-02T18:29:06Z</time>
      </trkpt>
      <trkpt lat="32.201712029054761" lon="-4.808743027970195">
        <ele>1571.6030000000001</ele>
        <time>2011-01-02T18:29:13Z</time>
      </trkpt>
      <trkpt lat="32.202519038692117" lon="-4.808815028518438">
        <ele>1571.2739999999999</ele>
        <time>2011-01-02T18:29:18Z</time>
      </trkpt>
      <trkpt lat="32.203210964798927" lon="-4.808714026585221">
        <ele>1571.288</ele>
        <time>2011-01-02T18:29:23Z</time>
      </trkpt>
      <trkpt lat="32.204064996913075" lon="-4.807451041415334">
        <ele>1573.6859999999999</ele>
        <time>2011-01-02T18:29:30Z</time>
      </trkpt>
      <trkpt lat="32.205243995413184" lon="-4.805435026064515">
        <ele>1573.7840000000001</ele>
        <time>2011-01-02T18:29:40Z</time>
      </trkpt>
      <trkpt lat="32.206446966156363" lon="-4.803496040403843">
        <ele>1573.4580000000001</ele>
        <time>2011-01-02T18:29:49Z</time>
      </trkpt>
      <trkpt lat="32.208418976515532" lon="-4.800567990168929">
        <ele>1574.4349999999999</ele>
        <time>2011-01-02T18:30:02Z</time>
      </trkpt>
      <trkpt lat="32.210136009380221" lon="-4.797965995967388">
        <ele>1570.3440000000001</ele>
        <time>2011-01-02T18:30:14Z</time>
      </trkpt>
      <trkpt lat="32.210592990741134" lon="-4.796814993023872">
        <ele>1568.038</ele>
        <time>2011-01-02T18:30:19Z</time>
      </trkpt>
      <trkpt lat="32.211060030385852" lon="-4.796172017231584">
        <ele>1567.914</ele>
        <time>2011-01-02T18:30:23Z</time>
      </trkpt>
      <trkpt lat="32.211967036128044" lon="-4.795465003699064">
        <ele>1567.1690000000001</ele>
        <time>2011-01-02T18:30:29Z</time>
      </trkpt>
      <trkpt lat="32.212456036359072" lon="-4.794859997928143">
        <ele>1566.9839999999999</ele>
        <time>2011-01-02T18:30:33Z</time>
      </trkpt>
      <trkpt lat="32.213358012959361" lon="-4.793094014748931">
        <ele>1565.768</ele>
        <time>2011-01-02T18:30:41Z</time>
      </trkpt>
      <trkpt lat="32.214504992589355" lon="-4.790800977498293">
        <ele>1564.001</ele>
        <time>2011-01-02T18:30:51Z</time>
      </trkpt>
      <trkpt lat="32.215251987800002" lon="-4.789199028164148">
        <ele>1563.635</ele>
        <time>2011-01-02T18:30:58Z</time>
      </trkpt>
      <trkpt lat="32.215897981077433" lon="-4.788628974929452">
        <ele>1563.2829999999999</ele>
        <time>2011-01-02T18:31:03Z</time>
      </trkpt>
      <trkpt lat="32.216048017144203" lon="-4.788538031280041">
        <ele>1562.875</ele>
        <time>2011-01-02T18:31:04Z</time>
      </trkpt>
      <trkpt lat="32.217236990109086" lon="-4.788045007735491">
        <ele>1560.626</ele>
        <time>2011-01-02T18:31:12Z</time>
      </trkpt>
      <trkpt lat="32.217827998101711" lon="-4.787478977814317">
        <ele>1559.616</ele>
        <time>2011-01-02T18:31:17Z</time>
      </trkpt>
      <trkpt lat="32.217876026406884" lon="-4.787301030009985">
        <ele>1559.2149999999999</ele>
        <time>2011-01-02T18:31:18Z</time>
      </trkpt>
      <trkpt lat="32.218185989186168" lon="-4.785558013245463">
        <ele>1555.702</ele>
        <time>2011-01-02T18:31:26Z</time>
      </trkpt>
      <trkpt lat="32.218536017462611" lon="-4.783428004011512">
        <ele>1551.298</ele>
        <time>2011-01-02T18:31:35Z</time>
      </trkpt>
      <trkpt lat="32.218885961920023" lon="-4.781252983957529">
        <ele>1548.2239999999999</ele>
        <time>2011-01-02T18:31:43Z</time>
      </trkpt>
      <trkpt lat="32.219418967142701" lon="-4.779192041605711">
        <ele>1545.752</ele>
        <time>2011-01-02T18:31:51Z</time>
      </trkpt>
      <trkpt lat="32.220176020637155" lon="-4.776239013299346">
        <ele>1537.7550000000001</ele>
        <time>2011-01-02T18:32:02Z</time>
      </trkpt>
      <trkpt lat="32.220324967056513" lon="-4.775424962863326">
        <ele>1536.175</ele>
        <time>2011-01-02T18:32:05Z</time>
      </trkpt>
      <trkpt lat="32.220278028398752" lon="-4.774048989638686">
        <ele>1534.3140000000001</ele>
        <time>2011-01-02T18:32:11Z</time>
      </trkpt>
      <trkpt lat="32.220069989562035" lon="-4.771756958216429">
        <ele>1530.9069999999999</ele>
        <time>2011-01-02T18:32:20Z</time>
      </trkpt>
      <trkpt lat="32.219767989590764" lon="-4.768699994310737">
        <ele>1528.211</ele>
        <time>2011-01-02T18:32:31Z</time>
      </trkpt>
      <trkpt lat="32.219774024561048" lon="-4.768435964360833">
        <ele>1528.1300000000001</ele>
        <time>2011-01-02T18:32:32Z</time>
      </trkpt>
      <trkpt lat="32.21999597735703" lon="-4.767255038022995">
        <ele>1526.944</ele>
        <time>2011-01-02T18:32:37Z</time>
      </trkpt>
      <trkpt lat="32.220686981454492" lon="-4.764682967215776">
        <ele>1522.0619999999999</ele>
        <time>2011-01-02T18:32:48Z</time>
      </trkpt>
      <trkpt lat="32.221104986965656" lon="-4.763032989576459">
        <ele>1519.289</ele>
        <time>2011-01-02T18:32:56Z</time>
      </trkpt>
      <trkpt lat="32.221525004133582" lon="-4.761848039925098">
        <ele>1513.4079999999999</ele>
        <time>2011-01-02T18:33:04Z</time>
      </trkpt>
      <trkpt lat="32.221846031025052" lon="-4.761233981698751">
        <ele>1508.0119999999999</ele>
        <time>2011-01-02T18:33:09Z</time>
      </trkpt>
      <trkpt lat="32.22216697409749" lon="-4.76088697090745">
        <ele>1507.4169999999999</ele>
        <time>2011-01-02T18:33:13Z</time>
      </trkpt>
      <trkpt lat="32.222627978771925" lon="-4.760654037818313">
        <ele>1506.905</ele>
        <time>2011-01-02T18:33:17Z</time>
      </trkpt>
      <trkpt lat="32.223383020609617" lon="-4.760535014793277">
        <ele>1513.056</ele>
        <time>2011-01-02T18:33:23Z</time>
      </trkpt>
      <trkpt lat="32.224039994180202" lon="-4.760571978986263">
        <ele>1516.556</ele>
        <time>2011-01-02T18:33:28Z</time>
      </trkpt>
      <trkpt lat="32.224262030795217" lon="-4.760459996759892">
        <ele>1516.8099999999999</ele>
        <time>2011-01-02T18:33:29Z</time>
      </trkpt>
      <trkpt lat="32.2252800129354" lon="-4.75925400853157">
        <ele>1516.046</ele>
        <time>2011-01-02T18:33:37Z</time>
      </trkpt>
      <trkpt lat="32.226473009213805" lon="-4.757737973704934">
        <ele>1513.9459999999999</ele>
        <time>2011-01-02T18:33:45Z</time>
      </trkpt>
      <trkpt lat="32.228463040664792" lon="-4.755204040557146">
        <ele>1511.4159999999999</ele>
        <time>2011-01-02T18:33:58Z</time>
      </trkpt>
      <trkpt lat="32.229010965675116" lon="-4.754176000133157">
        <ele>1510.424</ele>
        <time>2011-01-02T18:34:03Z</time>
      </trkpt>
      <trkpt lat="32.22949099726975" lon="-4.752284958958626">
        <ele>1508.3299999999999</ele>
        <time>2011-01-02T18:34:11Z</time>
      </trkpt>
      <trkpt lat="32.230288032442331" lon="-4.74909296259284">
        <ele>1504.8140000000001</ele>
        <time>2011-01-02T18:34:24Z</time>
      </trkpt>
      <trkpt lat="32.230979958549142" lon="-4.746322995051742">
        <ele>1502.1179999999999</ele>
        <time>2011-01-02T18:34:35Z</time>
      </trkpt>
      <trkpt lat="32.231676997616887" lon="-4.743818985298276">
        <ele>1498.825</ele>
        <time>2011-01-02T18:34:45Z</time>
      </trkpt>
      <trkpt lat="32.232483001425862" lon="-4.74152896553278">
        <ele>1495.2909999999999</ele>
        <time>2011-01-02T18:34:55Z</time>
      </trkpt>
      <trkpt lat="32.233038973063231" lon="-4.740532021969557">
        <ele>1493.1849999999999</ele>
        <time>2011-01-02T18:35:00Z</time>
      </trkpt>
      <trkpt lat="32.234791964292526" lon="-4.738073023036122">
        <ele>1491.1769999999999</ele>
        <time>2011-01-02T18:35:12Z</time>
      </trkpt>
      <trkpt lat="32.235281970351934" lon="-4.737271964550018">
        <ele>1490.5519999999999</ele>
        <time>2011-01-02T18:35:16Z</time>
      </trkpt>
      <trkpt lat="32.235376015305519" lon="-4.736008979380131">
        <ele>1489.703</ele>
        <time>2011-01-02T18:35:21Z</time>
      </trkpt>
      <trkpt lat="32.235108967870474" lon="-4.734906004741788">
        <ele>1489.519</ele>
        <time>2011-01-02T18:35:27Z</time>
      </trkpt>
      <trkpt lat="32.234980976209044" lon="-4.734570980072022">
        <ele>1489.086</ele>
        <time>2011-01-02T18:35:32Z</time>
      </trkpt>
      <trkpt lat="32.234257031232119" lon="-4.734751023352146">
        <ele>1492.019</ele>
        <time>2011-01-02T18:35:46Z</time>
      </trkpt>
      <trkpt lat="32.233886970207095" lon="-4.734378028661013">
        <ele>1495.095</ele>
        <time>2011-01-02T18:35:52Z</time>
      </trkpt>
      <trkpt lat="32.233750009909272" lon="-4.734154986217618">
        <ele>1495.7</ele>
        <time>2011-01-02T18:35:54Z</time>
      </trkpt>
      <trkpt lat="32.233714973554015" lon="-4.733862038701773">
        <ele>1493.7429999999999</ele>
        <time>2011-01-02T18:35:58Z</time>
      </trkpt>
      <trkpt lat="32.233222033828497" lon="-4.733260972425342">
        <ele>1488.2650000000001</ele>
        <time>2011-01-02T18:36:03Z</time>
      </trkpt>
      <trkpt lat="32.233850006014109" lon="-4.732007961720228">
        <ele>1482.287</ele>
        <time>2011-01-02T18:36:11Z</time>
      </trkpt>
      <trkpt lat="32.233989983797073" lon="-4.731694981455803">
        <ele>1481.4090000000001</ele>
        <time>2011-01-02T18:36:13Z</time>
      </trkpt>
      <trkpt lat="32.234418969601393" lon="-4.730931976810098">
        <ele>1478.53</ele>
        <time>2011-01-02T18:36:17Z</time>
      </trkpt>
      <trkpt lat="32.23391898907721" lon="-4.729308988898993">
        <ele>1479.1479999999999</ele>
        <time>2011-01-02T18:36:26Z</time>
      </trkpt>
      <trkpt lat="32.23348899744451" lon="-4.727664040401578">
        <ele>1480.0239999999999</ele>
        <time>2011-01-02T18:36:34Z</time>
      </trkpt>
      <trkpt lat="32.232966972514987" lon="-4.725329009816051">
        <ele>1480.9280000000001</ele>
        <time>2011-01-02T18:36:44Z</time>
      </trkpt>
      <trkpt lat="32.232363978400826" lon="-4.72268401645124">
        <ele>1481.8589999999999</ele>
        <time>2011-01-02T18:36:55Z</time>
      </trkpt>
      <trkpt lat="32.231711028143764" lon="-4.72000096924603">
        <ele>1479.873</ele>
        <time>2011-01-02T18:37:05Z</time>
      </trkpt>
      <trkpt lat="32.2309510409832" lon="-4.717929968610406">
        <ele>1478.682</ele>
        <time>2011-01-02T18:37:13Z</time>
      </trkpt>
      <trkpt lat="32.229702975600958" lon="-4.714961014688015">
        <ele>1475.954</ele>
        <time>2011-01-02T18:37:25Z</time>
      </trkpt>
      <trkpt lat="32.229248005896807" lon="-4.714250983670354">
        <ele>1473.7049999999999</ele>
        <time>2011-01-02T18:37:29Z</time>
      </trkpt>
      <trkpt lat="32.22852498292923" lon="-4.713772963732481">
        <ele>1472.9380000000001</ele>
        <time>2011-01-02T18:37:34Z</time>
      </trkpt>
      <trkpt lat="32.228157017379999" lon="-4.713598033413291">
        <ele>1471.433</ele>
        <time>2011-01-02T18:37:36Z</time>
      </trkpt>
      <trkpt lat="32.226479966193438" lon="-4.712811978533864">
        <ele>1471.2170000000001</ele>
        <time>2011-01-02T18:37:45Z</time>
      </trkpt>
      <trkpt lat="32.226344011723995" lon="-4.712684992700815">
        <ele>1471.346</ele>
        <time>2011-01-02T18:37:46Z</time>
      </trkpt>
      <trkpt lat="32.225817041471601" lon="-4.711716966703534">
        <ele>1473.4849999999999</ele>
        <time>2011-01-02T18:37:52Z</time>
      </trkpt>
      <trkpt lat="32.225738000124693" lon="-4.711499959230423">
        <ele>1473.6220000000001</ele>
        <time>2011-01-02T18:37:53Z</time>
      </trkpt>
      <trkpt lat="32.224891008809209" lon="-4.709157971665263">
        <ele>1469.806</ele>
        <time>2011-01-02T18:38:04Z</time>
      </trkpt>
      <trkpt lat="32.224771985784173" lon="-4.708979018032551">
        <ele>1469.519</ele>
        <time>2011-01-02T18:38:05Z</time>
      </trkpt>
      <trkpt lat="32.224063966423273" lon="-4.708273010328412">
        <ele>1472.691</ele>
        <time>2011-01-02T18:38:10Z</time>
      </trkpt>
      <trkpt lat="32.22358200699091" lon="-4.7075380012393">
        <ele>1473.8689999999999</ele>
        <time>2011-01-02T18:38:15Z</time>
      </trkpt>
      <trkpt lat="32.223587036132813" lon="-4.70678798854351">
        <ele>1474.116</ele>
        <time>2011-01-02T18:38:20Z</time>
      </trkpt>
      <trkpt lat="32.223631963133812" lon="-4.70637802965939">
        <ele>1473.2380000000001</ele>
        <time>2011-01-02T18:38:23Z</time>
      </trkpt>
      <trkpt lat="32.223802031949162" lon="-4.705679984763265">
        <ele>1472.0509999999999</ele>
        <time>2011-01-02T18:38:26Z</time>
      </trkpt>
      <trkpt lat="32.223584018647671" lon="-4.704651022329927">
        <ele>1469.8320000000001</ele>
        <time>2011-01-02T18:38:31Z</time>
      </trkpt>
      <trkpt lat="32.223283024504781" lon="-4.703238001093268">
        <ele>1465.7429999999999</ele>
        <time>2011-01-02T18:38:39Z</time>
      </trkpt>
      <trkpt lat="32.222979012876749" lon="-4.701115032657981">
        <ele>1465.829</ele>
        <time>2011-01-02T18:38:49Z</time>
      </trkpt>
      <trkpt lat="32.222544997930527" lon="-4.699655994772911">
        <ele>1466.4259999999999</ele>
        <time>2011-01-02T18:38:56Z</time>
      </trkpt>
      <trkpt lat="32.22156498581171" lon="-4.697047965601087">
        <ele>1466.2950000000001</ele>
        <time>2011-01-02T18:39:10Z</time>
      </trkpt>
      <trkpt lat="32.221562974154949" lon="-4.696071976795793">
        <ele>1466.4110000000001</ele>
        <time>2011-01-02T18:39:15Z</time>
      </trkpt>
      <trkpt lat="32.221812000498176" lon="-4.693253980949521">
        <ele>1462.231</ele>
        <time>2011-01-02T18:39:27Z</time>
      </trkpt>
      <trkpt lat="32.222090028226376" lon="-4.689668035134673">
        <ele>1458.79</ele>
        <time>2011-01-02T18:39:41Z</time>
      </trkpt>
      <trkpt lat="32.22218700684607" lon="-4.687702981755137">
        <ele>1458.7149999999999</ele>
        <time>2011-01-02T18:39:49Z</time>
      </trkpt>
      <trkpt lat="32.222312986850739" lon="-4.685554029420018">
        <ele>1460.172</ele>
        <time>2011-01-02T18:39:59Z</time>
      </trkpt>
      <trkpt lat="32.22246796824038" lon="-4.68259303830564">
        <ele>1460.9400000000001</ele>
        <time>2011-01-02T18:40:13Z</time>
      </trkpt>
      <trkpt lat="32.222351040691137" lon="-4.680344006046653">
        <ele>1460.8399999999999</ele>
        <time>2011-01-02T18:40:23Z</time>
      </trkpt>
      <trkpt lat="32.222182983532548" lon="-4.678966021165252">
        <ele>1461.8330000000001</ele>
        <time>2011-01-02T18:40:30Z</time>
      </trkpt>
      <trkpt lat="32.222028002142906" lon="-4.677605973556638">
        <ele>1460.011</ele>
        <time>2011-01-02T18:40:38Z</time>
      </trkpt>
      <trkpt lat="32.221833039075136" lon="-4.675848037004471">
        <ele>1460.479</ele>
        <time>2011-01-02T18:40:47Z</time>
      </trkpt>
      <trkpt lat="32.221924988552928" lon="-4.67486098408699">
        <ele>1460.712</ele>
        <time>2011-01-02T18:40:53Z</time>
      </trkpt>
      <trkpt lat="32.222293959930539" lon="-4.673950038850308">
        <ele>1460.54</ele>
        <time>2011-01-02T18:40:59Z</time>
      </trkpt>
      <trkpt lat="32.222816990688443" lon="-4.673146968707442">
        <ele>1459.941</ele>
        <time>2011-01-02T18:41:04Z</time>
      </trkpt>
      <trkpt lat="32.2241420019418" lon="-4.671510988846421">
        <ele>1457.76</ele>
        <time>2011-01-02T18:41:14Z</time>
      </trkpt>
      <trkpt lat="32.226542998105288" lon="-4.668577993288636">
        <ele>1456.7829999999999</ele>
        <time>2011-01-02T18:41:30Z</time>
      </trkpt>
      <trkpt lat="32.22729803994298" lon="-4.667645003646612">
        <ele>1452.577</ele>
        <time>2011-01-02T18:41:36Z</time>
      </trkpt>
      <trkpt lat="32.228170009329915" lon="-4.666445972397924">
        <ele>1446.0239999999999</ele>
        <time>2011-01-02T18:41:44Z</time>
      </trkpt>
      <trkpt lat="32.228695973753929" lon="-4.665214000269771">
        <ele>1442.001</ele>
        <time>2011-01-02T18:41:50Z</time>
      </trkpt>
      <trkpt lat="32.229269966483116" lon="-4.663269985467196">
        <ele>1448.0129999999999</ele>
        <time>2011-01-02T18:41:59Z</time>
      </trkpt>
      <trkpt lat="32.22992098890245" lon="-4.660699004307389">
        <ele>1453.9580000000001</ele>
        <time>2011-01-02T18:42:11Z</time>
      </trkpt>
      <trkpt lat="32.230078987777233" lon="-4.658703021705151">
        <ele>1452.9649999999999</ele>
        <time>2011-01-02T18:42:19Z</time>
      </trkpt>
      <trkpt lat="32.230272023007274" lon="-4.65571696870029">
        <ele>1453.432</ele>
        <time>2011-01-02T18:42:30Z</time>
      </trkpt>
      <trkpt lat="32.23047997802496" lon="-4.652615999802947">
        <ele>1452.53</ele>
        <time>2011-01-02T18:42:42Z</time>
      </trkpt>
      <trkpt lat="32.230549966916442" lon="-4.651427026838064">
        <ele>1451.7</ele>
        <time>2011-01-02T18:42:48Z</time>
      </trkpt>
      <trkpt lat="32.230678964406252" lon="-4.650165969505906">
        <ele>1450.8119999999999</ele>
        <time>2011-01-02T18:42:55Z</time>
      </trkpt>
      <trkpt lat="32.230719029903412" lon="-4.650003025308251">
        <ele>1450.6610000000001</ele>
        <time>2011-01-02T18:42:56Z</time>
      </trkpt>
      <trkpt lat="32.231150027364492" lon="-4.649058971554041">
        <ele>1449.1379999999999</ele>
        <time>2011-01-02T18:43:03Z</time>
      </trkpt>
      <trkpt lat="32.231652019545436" lon="-4.648439968004823">
        <ele>1442.752</ele>
        <time>2011-01-02T18:43:09Z</time>
      </trkpt>
      <trkpt lat="32.232553996145725" lon="-4.647390972822905">
        <ele>1441.412</ele>
        <time>2011-01-02T18:43:17Z</time>
      </trkpt>
      <trkpt lat="32.233041990548372" lon="-4.646263020113111">
        <ele>1448.0050000000001</ele>
        <time>2011-01-02T18:43:23Z</time>
      </trkpt>
      <trkpt lat="32.233421020209789" lon="-4.644266031682491">
        <ele>1448.47</ele>
        <time>2011-01-02T18:43:33Z</time>
      </trkpt>
      <trkpt lat="32.233842965215445" lon="-4.641890013590455">
        <ele>1444.9680000000001</ele>
        <time>2011-01-02T18:43:43Z</time>
      </trkpt>
      <trkpt lat="32.234083022922277" lon="-4.639636036008596">
        <ele>1439.5250000000001</ele>
        <time>2011-01-02T18:43:52Z</time>
      </trkpt>
      <trkpt lat="32.234408995136619" lon="-4.635445000603795">
        <ele>1435.694</ele>
        <time>2011-01-02T18:44:08Z</time>
      </trkpt>
      <trkpt lat="32.234872011467814" lon="-4.633163027465344">
        <ele>1434.5039999999999</ele>
        <time>2011-01-02T18:44:17Z</time>
      </trkpt>
      <trkpt lat="32.235692013055086" lon="-4.629386980086565">
        <ele>1433.3240000000001</ele>
        <time>2011-01-02T18:44:31Z</time>
      </trkpt>
      <trkpt lat="32.236224012449384" lon="-4.626479968428612">
        <ele>1430.4380000000001</ele>
        <time>2011-01-02T18:44:41Z</time>
      </trkpt>
      <trkpt lat="32.236718963831663" lon="-4.623127039521933">
        <ele>1428.123</ele>
        <time>2011-01-02T18:44:52Z</time>
      </trkpt>
      <trkpt lat="32.237219028174877" lon="-4.619773020967841">
        <ele>1425.8230000000001</ele>
        <time>2011-01-02T18:45:04Z</time>
      </trkpt>
      <trkpt lat="32.23741902038455" lon="-4.618111979216337">
        <ele>1425.202</ele>
        <time>2011-01-02T18:45:11Z</time>
      </trkpt>
      <trkpt lat="32.237492026761174" lon="-4.616446997970343">
        <ele>1425.683</ele>
        <time>2011-01-02T18:45:20Z</time>
      </trkpt>
      <trkpt lat="32.237371997907758" lon="-4.614485967904329">
        <ele>1427.1099999999999</ele>
        <time>2011-01-02T18:45:30Z</time>
      </trkpt>
      <trkpt lat="32.237420026212931" lon="-4.612776981666684">
        <ele>1431.0809999999999</ele>
        <time>2011-01-02T18:45:40Z</time>
      </trkpt>
      <trkpt lat="32.237669974565506" lon="-4.611743995919824">
        <ele>1429.3</ele>
        <time>2011-01-02T18:45:46Z</time>
      </trkpt>
      <trkpt lat="32.23817297257483" lon="-4.60986502468586">
        <ele>1422.8199999999999</ele>
        <time>2011-01-02T18:45:56Z</time>
      </trkpt>
      <trkpt lat="32.238814020529389" lon="-4.607727974653244">
        <ele>1422.0170000000001</ele>
        <time>2011-01-02T18:46:07Z</time>
      </trkpt>
      <trkpt lat="32.239364963024855" lon="-4.605556977912784">
        <ele>1421.1579999999999</ele>
        <time>2011-01-02T18:46:17Z</time>
      </trkpt>
      <trkpt lat="32.239841977134347" lon="-4.603043999522924">
        <ele>1418.9090000000001</ele>
        <time>2011-01-02T18:46:27Z</time>
      </trkpt>
      <trkpt lat="32.240279009565711" lon="-4.600606961175799">
        <ele>1416.057</ele>
        <time>2011-01-02T18:46:37Z</time>
      </trkpt>
      <trkpt lat="32.240590984001756" lon="-4.598905015736818">
        <ele>1414.7049999999999</ele>
        <time>2011-01-02T18:46:45Z</time>
      </trkpt>
      <trkpt lat="32.240808997303247" lon="-4.597724005579948">
        <ele>1413.278</ele>
        <time>2011-01-02T18:46:51Z</time>
      </trkpt>
      <trkpt lat="32.241048971191049" lon="-4.597130985930562">
        <ele>1411.9079999999999</ele>
        <time>2011-01-02T18:46:55Z</time>
      </trkpt>
      <trkpt lat="32.241924963891506" lon="-4.595775967463851">
        <ele>1409.3050000000001</ele>
        <time>2011-01-02T18:47:03Z</time>
      </trkpt>
      <trkpt lat="32.243288028985262" lon="-4.594069998711348">
        <ele>1405.8240000000001</ele>
        <time>2011-01-02T18:47:13Z</time>
      </trkpt>
      <trkpt lat="32.243859004229307" lon="-4.593309005722404">
        <ele>1406.204</ele>
        <time>2011-01-02T18:47:18Z</time>
      </trkpt>
      <trkpt lat="32.244594013318419" lon="-4.592296974733472">
        <ele>1408.048</ele>
        <time>2011-01-02T18:47:25Z</time>
      </trkpt>
      <trkpt lat="32.245067004114389" lon="-4.591286033391953">
        <ele>1408.096</ele>
        <time>2011-01-02T18:47:30Z</time>
      </trkpt>
      <trkpt lat="32.245374033227563" lon="-4.589900001883507">
        <ele>1406.925</ele>
        <time>2011-01-02T18:47:36Z</time>
      </trkpt>
      <trkpt lat="32.245787009596825" lon="-4.587687011808157">
        <ele>1408.6310000000001</ele>
        <time>2011-01-02T18:47:45Z</time>
      </trkpt>
      <trkpt lat="32.246184982359409" lon="-4.585808040574193">
        <ele>1411.9069999999999</ele>
        <time>2011-01-02T18:47:53Z</time>
      </trkpt>
      <trkpt lat="32.246712036430836" lon="-4.584623007103801">
        <ele>1409.1289999999999</ele>
        <time>2011-01-02T18:47:59Z</time>
      </trkpt>
      <trkpt lat="32.247527008876204" lon="-4.583517014980316">
        <ele>1407.171</ele>
        <time>2011-01-02T18:48:05Z</time>
      </trkpt>
      <trkpt lat="32.249183021485806" lon="-4.581461017951369">
        <ele>1402.8309999999999</ele>
        <time>2011-01-02T18:48:16Z</time>
      </trkpt>
      <trkpt lat="32.250216007232666" lon="-4.580211024731398">
        <ele>1400.8309999999999</ele>
        <time>2011-01-02T18:48:23Z</time>
      </trkpt>
      <trkpt lat="32.251067021861672" lon="-4.578837985172868">
        <ele>1400.0160000000001</ele>
        <time>2011-01-02T18:48:30Z</time>
      </trkpt>
      <trkpt lat="32.251622993499041" lon="-4.577122963964939">
        <ele>1400.4770000000001</ele>
        <time>2011-01-02T18:48:38Z</time>
      </trkpt>
      <trkpt lat="32.251955000683665" lon="-4.575359998270869">
        <ele>1400.479</ele>
        <time>2011-01-02T18:48:47Z</time>
      </trkpt>
      <trkpt lat="32.252323972061276" lon="-4.57336300984025">
        <ele>1397.922</ele>
        <time>2011-01-02T18:48:57Z</time>
      </trkpt>
      <trkpt lat="32.252658996731043" lon="-4.571485966444016">
        <ele>1397.827</ele>
        <time>2011-01-02T18:49:05Z</time>
      </trkpt>
      <trkpt lat="32.253112960606813" lon="-4.569159988313913">
        <ele>1397.3630000000001</ele>
        <time>2011-01-02T18:49:14Z</time>
      </trkpt>
      <trkpt lat="32.253604978322983" lon="-4.567243969067931">
        <ele>1395.952</ele>
        <time>2011-01-02T18:49:22Z</time>
      </trkpt>
      <trkpt lat="32.254250971600413" lon="-4.565081018954516">
        <ele>1394.6279999999999</ele>
        <time>2011-01-02T18:49:32Z</time>
      </trkpt>
      <trkpt lat="32.254869975149632" lon="-4.562653033062816">
        <ele>1393.9459999999999</ele>
        <time>2011-01-02T18:49:42Z</time>
      </trkpt>
      <trkpt lat="32.255057981237769" lon="-4.56047298386693">
        <ele>1393.1099999999999</ele>
        <time>2011-01-02T18:49:51Z</time>
      </trkpt>
      <trkpt lat="32.255218997597694" lon="-4.558730972930789">
        <ele>1393.5260000000001</ele>
        <time>2011-01-02T18:49:59Z</time>
      </trkpt>
      <trkpt lat="32.255324022844434" lon="-4.557169005274773">
        <ele>1391.9929999999999</ele>
        <time>2011-01-02T18:50:06Z</time>
      </trkpt>
      <trkpt lat="32.254885984584689" lon="-4.556129984557629">
        <ele>1390.8720000000001</ele>
        <time>2011-01-02T18:50:11Z</time>
      </trkpt>
      <trkpt lat="32.254593037068844" lon="-4.555785991251469">
        <ele>1390.3309999999999</ele>
        <time>2011-01-02T18:50:13Z</time>
      </trkpt>
      <trkpt lat="32.253707991912961" lon="-4.554658038541675">
        <ele>1392.076</ele>
        <time>2011-01-02T18:50:20Z</time>
      </trkpt>
      <trkpt lat="32.253477992489934" lon="-4.553536958992481">
        <ele>1392.866</ele>
        <time>2011-01-02T18:50:26Z</time>
      </trkpt>
      <trkpt lat="32.253451002761722" lon="-4.551537958905101">
        <ele>1390.9069999999999</ele>
        <time>2011-01-02T18:50:35Z</time>
      </trkpt>
      <trkpt lat="32.253553010523319" lon="-4.549160012975335">
        <ele>1387.8779999999999</ele>
        <time>2011-01-02T18:50:45Z</time>
      </trkpt>
      <trkpt lat="32.253874959424138" lon="-4.547337032854557">
        <ele>1386.46</ele>
        <time>2011-01-02T18:50:53Z</time>
      </trkpt>
      <trkpt lat="32.254401007667184" lon="-4.544652979820967">
        <ele>1383.4110000000001</ele>
        <time>2011-01-02T18:51:04Z</time>
      </trkpt>
      <trkpt lat="32.254938036203384" lon="-4.541974039748311">
        <ele>1380.479</ele>
        <time>2011-01-02T18:51:15Z</time>
      </trkpt>
      <trkpt lat="32.255440028384328" lon="-4.53997596167028">
        <ele>1377.712</ele>
        <time>2011-01-02T18:51:24Z</time>
      </trkpt>
      <trkpt lat="32.255969010293484" lon="-4.538541985675693">
        <ele>1379.3340000000001</ele>
        <time>2011-01-02T18:51:31Z</time>
      </trkpt>
      <trkpt lat="32.256158022210002" lon="-4.537319988012314">
        <ele>1378.2349999999999</ele>
        <time>2011-01-02T18:51:38Z</time>
      </trkpt>
      <trkpt lat="32.256406964734197" lon="-4.536092039197683">
        <ele>1376.5360000000001</ele>
        <time>2011-01-02T18:51:45Z</time>
      </trkpt>
      <trkpt lat="32.256850032135844" lon="-4.534240979701281">
        <ele>1375.124</ele>
        <time>2011-01-02T18:51:55Z</time>
      </trkpt>
      <trkpt lat="32.256994033232331" lon="-4.532688986510038">
        <ele>1371.001</ele>
        <time>2011-01-02T18:52:03Z</time>
      </trkpt>
      <trkpt lat="32.25724901072681" lon="-4.531409991905093">
        <ele>1369.038</ele>
        <time>2011-01-02T18:52:10Z</time>
      </trkpt>
      <trkpt lat="32.257492002099752" lon="-4.530527964234352">
        <ele>1368.03</ele>
        <time>2011-01-02T18:52:16Z</time>
      </trkpt>
      <trkpt lat="32.257829960435629" lon="-4.529288029298186">
        <ele>1370.7170000000001</ele>
        <time>2011-01-02T18:52:24Z</time>
      </trkpt>
      <trkpt lat="32.258199015632272" lon="-4.528016997501254">
        <ele>1373.3040000000001</ele>
        <time>2011-01-02T18:52:30Z</time>
      </trkpt>
      <trkpt lat="32.258901000022888" lon="-4.525482980534434">
        <ele>1370.2860000000001</ele>
        <time>2011-01-02T18:52:41Z</time>
      </trkpt>
      <trkpt lat="32.259049024432898" lon="-4.524841010570526">
        <ele>1368.941</ele>
        <time>2011-01-02T18:52:44Z</time>
      </trkpt>
      <trkpt lat="32.2590989805758" lon="-4.523597974330187">
        <ele>1367.28</ele>
        <time>2011-01-02T18:52:50Z</time>
      </trkpt>
      <trkpt lat="32.259080959483981" lon="-4.522128039970994">
        <ele>1366.9469999999999</ele>
        <time>2011-01-02T18:52:57Z</time>
      </trkpt>
      <trkpt lat="32.259056987240911" lon="-4.51943501830101">
        <ele>1365.433</ele>
        <time>2011-01-02T18:53:09Z</time>
      </trkpt>
      <trkpt lat="32.259004013612866" lon="-4.517776994034648">
        <ele>1366.492</ele>
        <time>2011-01-02T18:53:17Z</time>
      </trkpt>
      <trkpt lat="32.258880967274308" lon="-4.516373025253415">
        <ele>1366.5920000000001</ele>
        <time>2011-01-02T18:53:25Z</time>
      </trkpt>
      <trkpt lat="32.258821036666632" lon="-4.515669029206038">
        <ele>1366.472</ele>
        <time>2011-01-02T18:53:31Z</time>
      </trkpt>
      <trkpt lat="32.258755993098021" lon="-4.51518002897501">
        <ele>1364.5350000000001</ele>
        <time>2011-01-02T18:53:39Z</time>
      </trkpt>
      <trkpt lat="32.258735038340092" lon="-4.514586003497243">
        <ele>1363.8209999999999</ele>
        <time>2011-01-02T18:53:48Z</time>
      </trkpt>
      <trkpt lat="32.258821958675981" lon="-4.513748986646533">
        <ele>1360.4480000000001</ele>
        <time>2011-01-02T18:53:56Z</time>
      </trkpt>
      <trkpt lat="32.259051036089659" lon="-4.512622961774468">
        <ele>1356.6869999999999</ele>
        <time>2011-01-02T18:54:06Z</time>
      </trkpt>
      <trkpt lat="32.2590989805758" lon="-4.512028014287353">
        <ele>1354.4090000000001</ele>
        <time>2011-01-02T18:54:10Z</time>
      </trkpt>
      <trkpt lat="32.258837968111038" lon="-4.511072980239987">
        <ele>1350.144</ele>
        <time>2011-01-02T18:54:16Z</time>
      </trkpt>
      <trkpt lat="32.258762028068304" lon="-4.510934008285403">
        <ele>1350.1569999999999</ele>
        <time>2011-01-02T18:54:17Z</time>
      </trkpt>
      <trkpt lat="32.257863990962505" lon="-4.509410010650754">
        <ele>1356.674</ele>
        <time>2011-01-02T18:54:28Z</time>
      </trkpt>
      <trkpt lat="32.257241969928145" lon="-4.508153982460499">
        <ele>1360.6610000000001</ele>
        <time>2011-01-02T18:54:39Z</time>
      </trkpt>
      <trkpt lat="32.257320005446672" lon="-4.507987014949322">
        <ele>1353.848</ele>
        <time>2011-01-02T18:54:46Z</time>
      </trkpt>
      <trkpt lat="32.257383037358522" lon="-4.507891964167357">
        <ele>1354.2070000000001</ele>
        <time>2011-01-02T18:54:48Z</time>
      </trkpt>
      <trkpt lat="32.257959041744471" lon="-4.507591975852847">
        <ele>1348.508</ele>
        <time>2011-01-02T18:54:56Z</time>
      </trkpt>
      <trkpt lat="32.258111005648971" lon="-4.507474964484572">
        <ele>1346.606</ele>
        <time>2011-01-02T18:55:03Z</time>
      </trkpt>
      <trkpt lat="32.258310997858644" lon="-4.507325012236834">
        <ele>1344.9259999999999</ele>
        <time>2011-01-02T18:55:15Z</time>
      </trkpt>
      <trkpt lat="32.258030036464334" lon="-4.506871970370412">
        <ele>1345.1079999999999</ele>
        <time>2011-01-02T18:55:23Z</time>
      </trkpt>
      <trkpt lat="32.257796013727784" lon="-4.506826037541032">
        <ele>1345.048</ele>
        <time>2011-01-02T18:55:31Z</time>
      </trkpt>
      <trkpt lat="32.257473981007934" lon="-4.506792007014155">
        <ele>1340.3330000000001</ele>
        <time>2011-01-02T18:55:41Z</time>
      </trkpt>
      <trkpt lat="32.257114984095097" lon="-4.506725035607815">
        <ele>1344.5070000000001</ele>
        <time>2011-01-02T18:55:51Z</time>
      </trkpt>
      <trkpt lat="32.256664037704468" lon="-4.506639037281275">
        <ele>1346.107</ele>
        <time>2011-01-02T18:56:06Z</time>
      </trkpt>
      <trkpt lat="32.256380980834365" lon="-4.506598971784115">
        <ele>1345.1690000000001</ele>
        <time>2011-01-02T18:56:19Z</time>
      </trkpt>
      <trkpt lat="32.256145030260086" lon="-4.50656795874238">
        <ele>1347.9480000000001</ele>
        <time>2011-01-02T18:56:27Z</time>
      </trkpt>
      <trkpt lat="32.255812017247081" lon="-4.506523031741381">
        <ele>1348.8779999999999</ele>
        <time>2011-01-02T18:56:35Z</time>
      </trkpt>
      <trkpt lat="32.255347995087504" lon="-4.506451031193137">
        <ele>1347.9390000000001</ele>
        <time>2011-01-02T18:56:43Z</time>
      </trkpt>
      <trkpt lat="32.254971982911229" lon="-4.506291020661593">
        <ele>1347.6020000000001</ele>
        <time>2011-01-02T18:56:51Z</time>
      </trkpt>
      <trkpt lat="32.254507038742304" lon="-4.506117012351751">
        <ele>1347.6210000000001</ele>
        <time>2011-01-02T18:57:01Z</time>
      </trkpt>
      <trkpt lat="32.254332024604082" lon="-4.50604802928865">
        <ele>1347.0799999999999</ele>
        <time>2011-01-02T18:57:07Z</time>
      </trkpt>
      <trkpt lat="32.254454987123609" lon="-4.506066972389817">
        <ele>1342.011</ele>
        <time>2011-01-02T18:57:21Z</time>
      </trkpt>
      <trkpt lat="32.254868969321251" lon="-4.506254978477955">
        <ele>1342.6120000000001</ele>
        <time>2011-01-02T18:57:30Z</time>
      </trkpt>
      <trkpt lat="32.255127970129251" lon="-4.506311975419521">
        <ele>1341.3810000000001</ele>
        <time>2011-01-02T18:57:35Z</time>
      </trkpt>
      <trkpt lat="32.255791984498501" lon="-4.506477015092969">
        <ele>1340.722</ele>
        <time>2011-01-02T18:57:47Z</time>
      </trkpt>
      <trkpt lat="32.255914025008678" lon="-4.50647902674973">
        <ele>1339.1500000000001</ele>
        <time>2011-01-02T18:57:53Z</time>
      </trkpt>
      <trkpt lat="32.256235973909497" lon="-4.506536023691297">
        <ele>1340.2429999999999</ele>
        <time>2011-01-02T18:58:02Z</time>
      </trkpt>
      <trkpt lat="32.256582984700799" lon="-4.506576005369425">
        <ele>1339.5619999999999</ele>
        <time>2011-01-02T18:58:12Z</time>
      </trkpt>
      <trkpt lat="32.257015993818641" lon="-4.506636019796133">
        <ele>1338.171</ele>
        <time>2011-01-02T18:58:27Z</time>
      </trkpt>
      <trkpt lat="32.257199976593256" lon="-4.506667032837868">
        <ele>1341.144</ele>
        <time>2011-01-02T18:58:36Z</time>
      </trkpt>
      <trkpt lat="32.257516980171204" lon="-4.506729980930686">
        <ele>1346.663</ele>
        <time>2011-01-02T18:58:47Z</time>
      </trkpt>
      <trkpt lat="32.257907995954156" lon="-4.506787983700633">
        <ele>1346.1510000000001</ele>
        <time>2011-01-02T18:59:00Z</time>
      </trkpt>
      <trkpt lat="32.258315021172166" lon="-4.506895020604134">
        <ele>1347.769</ele>
        <time>2011-01-02T18:59:13Z</time>
      </trkpt>
      <trkpt lat="32.258595982566476" lon="-4.507084032520652">
        <ele>1347.0540000000001</ele>
        <time>2011-01-02T18:59:21Z</time>
      </trkpt>
      <trkpt lat="32.258770996704698" lon="-4.506917987018824">
        <ele>1347.732</ele>
        <time>2011-01-02T18:59:30Z</time>
      </trkpt>
      <trkpt lat="32.258841991424561" lon="-4.506797958165407">
        <ele>1346.048</ele>
        <time>2011-01-02T18:59:48Z</time>
      </trkpt>
      <trkpt lat="32.258927989751101" lon="-4.506382970139384">
        <ele>1347.711</ele>
        <time>2011-01-02T18:59:58Z</time>
      </trkpt>
      <trkpt lat="32.259104009717703" lon="-4.50587703846395">
        <ele>1347.6859999999999</ele>
        <time>2011-01-02T19:00:11Z</time>
      </trkpt>
      <trkpt lat="32.259282963350415" lon="-4.505860023200512">
        <ele>1353.076</ele>
        <time>2011-01-02T19:00:27Z</time>
      </trkpt>
      <trkpt lat="32.259070985019207" lon="-4.505816018208861">
        <ele>1353.146</ele>
        <time>2011-01-02T19:00:35Z</time>
      </trkpt>
      <trkpt lat="32.259207023307681" lon="-4.505253005772829">
        <ele>1352.672</ele>
        <time>2011-01-02T19:00:49Z</time>
      </trkpt>
      <trkpt lat="32.259340966120362" lon="-4.504681024700403">
        <ele>1352.4749999999999</ele>
        <time>2011-01-02T19:00:56Z</time>
      </trkpt>
      <trkpt lat="32.259564008563757" lon="-4.503387026488781">
        <ele>1352.7950000000001</ele>
        <time>2011-01-02T19:01:09Z</time>
      </trkpt>
      <trkpt lat="32.259713960811496" lon="-4.502407014369965">
        <ele>1353.298</ele>
        <time>2011-01-02T19:01:20Z</time>
      </trkpt>
      <trkpt lat="32.259874977171421" lon="-4.501326000317931">
        <ele>1352.9169999999999</ele>
        <time>2011-01-02T19:01:31Z</time>
      </trkpt>
      <trkpt lat="32.260001040995121" lon="-4.500288991257548">
        <ele>1353.6479999999999</ele>
        <time>2011-01-02T19:01:41Z</time>
      </trkpt>
      <trkpt lat="32.259991988539696" lon="-4.499015025794506">
        <ele>1354.421</ele>
        <time>2011-01-02T19:01:53Z</time>
      </trkpt>
      <trkpt lat="32.260081004351377" lon="-4.498086981475353">
        <ele>1354.47</ele>
        <time>2011-01-02T19:02:02Z</time>
      </trkpt>
      <trkpt lat="32.260229028761387" lon="-4.4972850009799">
        <ele>1354.4300000000001</ele>
        <time>2011-01-02T19:02:11Z</time>
      </trkpt>
      <trkpt lat="32.260413011536002" lon="-4.496444966644049">
        <ele>1355.011</ele>
        <time>2011-01-02T19:02:20Z</time>
      </trkpt>
      <trkpt lat="32.260788017883897" lon="-4.495810959488154">
        <ele>1354.319</ele>
        <time>2011-01-02T19:02:29Z</time>
      </trkpt>
      <trkpt lat="32.26114097982645" lon="-4.495249036699534">
        <ele>1351.9690000000001</ele>
        <time>2011-01-02T19:02:39Z</time>
      </trkpt>
      <trkpt lat="32.26158999837935" lon="-4.494589967653155">
        <ele>1350.1990000000001</ele>
        <time>2011-01-02T19:02:49Z</time>
      </trkpt>
      <trkpt lat="32.261772975325584" lon="-4.494360974058509">
        <ele>1349.6900000000001</ele>
        <time>2011-01-02T19:02:53Z</time>
      </trkpt>
      <trkpt lat="32.262231968343258" lon="-4.49393198825419">
        <ele>1348.569</ele>
        <time>2011-01-02T19:03:01Z</time>
      </trkpt>
      <trkpt lat="32.263067979365587" lon="-4.493368975818157">
        <ele>1346.3979999999999</ele>
        <time>2011-01-02T19:03:10Z</time>
      </trkpt>
      <trkpt lat="32.264385027810931" lon="-4.492496000602841">
        <ele>1346.952</ele>
        <time>2011-01-02T19:03:22Z</time>
      </trkpt>
      <trkpt lat="32.265340983867645" lon="-4.491883032023907">
        <ele>1348.3720000000001</ele>
        <time>2011-01-02T19:03:32Z</time>
      </trkpt>
      <trkpt lat="32.265757983550429" lon="-4.491608021780849">
        <ele>1348.451</ele>
        <time>2011-01-02T19:03:39Z</time>
      </trkpt>
      <trkpt lat="32.266301969066262" lon="-4.49124600738287">
        <ele>1348.73</ele>
        <time>2011-01-02T19:03:53Z</time>
      </trkpt>
      <trkpt lat="32.26674797013402" lon="-4.490944007411599">
        <ele>1348.9670000000001</ele>
        <time>2011-01-02T19:03:59Z</time>
      </trkpt>
      <trkpt lat="32.26739396341145" lon="-4.490528013557196">
        <ele>1348.135</ele>
        <time>2011-01-02T19:04:08Z</time>
      </trkpt>
      <trkpt lat="32.268246989697218" lon="-4.489967012777925">
        <ele>1346.566</ele>
        <time>2011-01-02T19:04:18Z</time>
      </trkpt>
      <trkpt lat="32.2685950063169" lon="-4.489724021404982">
        <ele>1346.998</ele>
        <time>2011-01-02T19:04:23Z</time>
      </trkpt>
      <trkpt lat="32.26921602152288" lon="-4.489318002015352">
        <ele>1348.809</ele>
        <time>2011-01-02T19:04:33Z</time>
      </trkpt>
      <trkpt lat="32.269774004817009" lon="-4.488949030637741">
        <ele>1350.329</ele>
        <time>2011-01-02T19:04:39Z</time>
      </trkpt>
      <trkpt lat="32.271101027727127" lon="-4.488057028502226">
        <ele>1352.1579999999999</ele>
        <time>2011-01-02T19:04:53Z</time>
      </trkpt>
      <trkpt lat="32.272317996248603" lon="-4.487257981672883">
        <ele>1355.556</ele>
        <time>2011-01-02T19:05:07Z</time>
      </trkpt>
      <trkpt lat="32.273366991430521" lon="-4.486558008939028">
        <ele>1358.2349999999999</ele>
        <time>2011-01-02T19:05:19Z</time>
      </trkpt>
      <trkpt lat="32.274195961654186" lon="-4.48600203730166">
        <ele>1360.2550000000001</ele>
        <time>2011-01-02T19:05:30Z</time>
      </trkpt>
      <trkpt lat="32.274470971897244" lon="-4.485821994021535">
        <ele>1359.5840000000001</ele>
        <time>2011-01-02T19:05:37Z</time>
      </trkpt>
      <trkpt lat="32.274725027382374" lon="-4.485949985682964">
        <ele>1357.6410000000001</ele>
        <time>2011-01-02T19:06:03Z</time>
      </trkpt>
      <trkpt lat="32.275135992094874" lon="-4.486945001408458">
        <ele>1357.0709999999999</ele>
        <time>2011-01-02T19:06:15Z</time>
      </trkpt>
      <trkpt lat="32.275508986786008" lon="-4.487821999937296">
        <ele>1356.51</ele>
        <time>2011-01-02T19:06:23Z</time>
      </trkpt>
      <trkpt lat="32.276282971724868" lon="-4.489651015028358">
        <ele>1355.6010000000001</ele>
        <time>2011-01-02T19:06:37Z</time>
      </trkpt>
      <trkpt lat="32.276853024959564" lon="-4.490980971604586">
        <ele>1356.671</ele>
        <time>2011-01-02T19:06:45Z</time>
      </trkpt>
      <trkpt lat="32.277624998241663" lon="-4.492804035544395">
        <ele>1358.394</ele>
        <time>2011-01-02T19:06:54Z</time>
      </trkpt>
      <trkpt lat="32.279093004763126" lon="-4.496238017454743">
        <ele>1360.8399999999999</ele>
        <time>2011-01-02T19:07:10Z</time>
      </trkpt>
      <trkpt lat="32.280158009380102" lon="-4.498529965057969">
        <ele>1358.835</ele>
        <time>2011-01-02T19:07:21Z</time>
      </trkpt>
      <trkpt lat="32.281371038407087" lon="-4.50108602643013">
        <ele>1361.557</ele>
        <time>2011-01-02T19:07:33Z</time>
      </trkpt>
      <trkpt lat="32.282886989414692" lon="-4.504014998674393">
        <ele>1367.24</ele>
        <time>2011-01-02T19:07:46Z</time>
      </trkpt>
      <trkpt lat="32.284498997032642" lon="-4.506709026172757">
        <ele>1371.056</ele>
        <time>2011-01-02T19:07:58Z</time>
      </trkpt>
      <trkpt lat="32.287032008171082" lon="-4.510680958628655">
        <ele>1374.854</ele>
        <time>2011-01-02T19:08:16Z</time>
      </trkpt>
      <trkpt lat="32.289143996313214" lon="-4.513915032148361">
        <ele>1378.2750000000001</ele>
        <time>2011-01-02T19:08:31Z</time>
      </trkpt>
      <trkpt lat="32.291078036651015" lon="-4.516870994120836">
        <ele>1382.472</ele>
        <time>2011-01-02T19:08:45Z</time>
      </trkpt>
      <trkpt lat="32.292881989851594" lon="-4.519656971096993">
        <ele>1384.6659999999999</ele>
        <time>2011-01-02T19:08:58Z</time>
      </trkpt>
      <trkpt lat="32.295102020725608" lon="-4.523080978542566">
        <ele>1388.548</ele>
        <time>2011-01-02T19:09:14Z</time>
      </trkpt>
      <trkpt lat="32.297331020236015" lon="-4.526492999866605">
        <ele>1392.3679999999999</ele>
        <time>2011-01-02T19:09:30Z</time>
      </trkpt>
      <trkpt lat="32.299025002866983" lon="-4.529127012938261">
        <ele>1394.8679999999999</ele>
        <time>2011-01-02T19:09:42Z</time>
      </trkpt>
      <trkpt lat="32.301020985469222" lon="-4.53228497877717">
        <ele>1397.0229999999999</ele>
        <time>2011-01-02T19:09:56Z</time>
      </trkpt>
      <trkpt lat="32.302048020064831" lon="-4.534074012190104">
        <ele>1396.78</ele>
        <time>2011-01-02T19:10:05Z</time>
      </trkpt>
      <trkpt lat="32.303855996578932" lon="-4.537306996062398">
        <ele>1397.4970000000001</ele>
        <time>2011-01-02T19:10:21Z</time>
      </trkpt>
      <trkpt lat="32.30516298674047" lon="-4.539767000824213">
        <ele>1396.3969999999999</ele>
        <time>2011-01-02T19:10:33Z</time>
      </trkpt>
      <trkpt lat="32.305805962532759" lon="-4.541013976559043">
        <ele>1393.8620000000001</ele>
        <time>2011-01-02T19:10:40Z</time>
      </trkpt>
      <trkpt lat="32.306131012737751" lon="-4.541464000940323">
        <ele>1392.3430000000001</ele>
        <time>2011-01-02T19:10:43Z</time>
      </trkpt>
      <trkpt lat="32.307244967669249" lon="-4.542286014184356">
        <ele>1390.768</ele>
        <time>2011-01-02T19:10:50Z</time>
      </trkpt>
      <trkpt lat="32.309630960226059" lon="-4.543873965740204">
        <ele>1397.7149999999999</ele>
        <time>2011-01-02T19:11:03Z</time>
      </trkpt>
      <trkpt lat="32.311626020818949" lon="-4.544994039461017">
        <ele>1397.414</ele>
        <time>2011-01-02T19:11:13Z</time>
      </trkpt>
      <trkpt lat="32.313623009249568" lon="-4.545744974166155">
        <ele>1392.7270000000001</ele>
        <time>2011-01-02T19:11:22Z</time>
      </trkpt>
      <trkpt lat="32.316405968740582" lon="-4.54682799987495">
        <ele>1393.1980000000001</ele>
        <time>2011-01-02T19:11:35Z</time>
      </trkpt>
      <trkpt lat="32.318840995430946" lon="-4.547793008387089">
        <ele>1394.6179999999999</ele>
        <time>2011-01-02T19:11:47Z</time>
      </trkpt>
      <trkpt lat="32.320177992805839" lon="-4.548730021342635">
        <ele>1395.595</ele>
        <time>2011-01-02T19:11:54Z</time>
      </trkpt>
      <trkpt lat="32.321088016033173" lon="-4.549308037385345">
        <ele>1396.9739999999999</ele>
        <time>2011-01-02T19:11:59Z</time>
      </trkpt>
      <trkpt lat="32.321970965713263" lon="-4.5495589915663">
        <ele>1397.896</ele>
        <time>2011-01-02T19:12:04Z</time>
      </trkpt>
      <trkpt lat="32.322352007031441" lon="-4.549481961876154">
        <ele>1398.1279999999999</ele>
        <time>2011-01-02T19:12:06Z</time>
      </trkpt>
      <trkpt lat="32.323312992230058" lon="-4.549412978813052">
        <ele>1397.961</ele>
        <time>2011-01-02T19:12:11Z</time>
      </trkpt>
      <trkpt lat="32.323931995779276" lon="-4.549596961587668">
        <ele>1397.048</ele>
        <time>2011-01-02T19:12:15Z</time>
      </trkpt>
      <trkpt lat="32.324598021805286" lon="-4.549735011532903">
        <ele>1396.1089999999999</ele>
        <time>2011-01-02T19:12:20Z</time>
      </trkpt>
      <trkpt lat="32.324741017073393" lon="-4.549735011532903">
        <ele>1396.279</ele>
        <time>2011-01-02T19:12:21Z</time>
      </trkpt>
      <trkpt lat="32.325578033924103" lon="-4.549369979649782">
        <ele>1398.4090000000001</ele>
        <time>2011-01-02T19:12:27Z</time>
      </trkpt>
      <trkpt lat="32.326373979449272" lon="-4.549503000453115">
        <ele>1400.6980000000001</ele>
        <time>2011-01-02T19:12:33Z</time>
      </trkpt>
      <trkpt lat="32.326762983575463" lon="-4.549788990989327">
        <ele>1403.04</ele>
        <time>2011-01-02T19:12:36Z</time>
      </trkpt>
      <trkpt lat="32.327461028471589" lon="-4.551106039434671">
        <ele>1409.8489999999999</ele>
        <time>2011-01-02T19:12:45Z</time>
      </trkpt>
      <trkpt lat="32.328297961503267" lon="-4.551689000800252">
        <ele>1411.2329999999999</ele>
        <time>2011-01-02T19:12:51Z</time>
      </trkpt>
      <trkpt lat="32.329793963581324" lon="-4.552378999069333">
        <ele>1411.2380000000001</ele>
        <time>2011-01-02T19:13:01Z</time>
      </trkpt>
      <trkpt lat="32.33081697486341" lon="-4.552447982132435">
        <ele>1411.405</ele>
        <time>2011-01-02T19:13:07Z</time>
      </trkpt>
      <trkpt lat="32.3316549975425" lon="-4.552053026854992">
        <ele>1411.9670000000001</ele>
        <time>2011-01-02T19:13:12Z</time>
      </trkpt>
      <trkpt lat="32.332753026857972" lon="-4.551186002790928">
        <ele>1413.3199999999999</ele>
        <time>2011-01-02T19:13:19Z</time>
      </trkpt>
      <trkpt lat="32.334994012489915" lon="-4.548883996903896">
        <ele>1418.8530000000001</ele>
        <time>2011-01-02T19:13:34Z</time>
      </trkpt>
      <trkpt lat="32.33702402561903" lon="-4.546950962394476">
        <ele>1423.211</ele>
        <time>2011-01-02T19:13:47Z</time>
      </trkpt>
      <trkpt lat="32.338793026283383" lon="-4.545405004173517">
        <ele>1424.115</ele>
        <time>2011-01-02T19:13:58Z</time>
      </trkpt>
      <trkpt lat="32.341024037450552" lon="-4.54343399964273">
        <ele>1426.124</ele>
        <time>2011-01-02T19:14:11Z</time>
      </trkpt>
      <trkpt lat="32.343132002279162" lon="-4.541598027572036">
        <ele>1431.269</ele>
        <time>2011-01-02T19:14:23Z</time>
      </trkpt>
      <trkpt lat="32.344718025997281" lon="-4.540151981636882">
        <ele>1435.0039999999999</ele>
        <time>2011-01-02T19:14:33Z</time>
      </trkpt>
      <trkpt lat="32.345248013734818" lon="-4.53965300694108">
        <ele>1435.633</ele>
        <time>2011-01-02T19:14:39Z</time>
      </trkpt>
      <trkpt lat="32.345901969820261" lon="-4.539040038362145">
        <ele>1436.4929999999999</ele>
        <time>2011-01-02T19:14:45Z</time>
      </trkpt>
      <trkpt lat="32.347770966589451" lon="-4.53733297996223">
        <ele>1440.4949999999999</ele>
        <time>2011-01-02T19:14:59Z</time>
      </trkpt>
      <trkpt lat="32.349827969446778" lon="-4.535534977912903">
        <ele>1444.519</ele>
        <time>2011-01-02T19:15:13Z</time>
      </trkpt>
      <trkpt lat="32.35202201642096" lon="-4.533458026126027">
        <ele>1449.77</ele>
        <time>2011-01-02T19:15:27Z</time>
      </trkpt>
      <trkpt lat="32.354012969881296" lon="-4.531708974391222">
        <ele>1455.7339999999999</ele>
        <time>2011-01-02T19:15:39Z</time>
      </trkpt>
      <trkpt lat="32.355553982779384" lon="-4.530292013660073">
        <ele>1460.7239999999999</ele>
        <time>2011-01-02T19:15:48Z</time>
      </trkpt>
      <trkpt lat="32.357323989272118" lon="-4.528701966628432">
        <ele>1465.2819999999999</ele>
        <time>2011-01-02T19:15:57Z</time>
      </trkpt>
      <trkpt lat="32.359602022916079" lon="-4.526631971821189">
        <ele>1466.6869999999999</ele>
        <time>2011-01-02T19:16:08Z</time>
      </trkpt>
      <trkpt lat="32.361963959410787" lon="-4.524470027536154">
        <ele>1463.8430000000001</ele>
        <time>2011-01-02T19:16:20Z</time>
      </trkpt>
      <trkpt lat="32.364264959469438" lon="-4.522360973060131">
        <ele>1467.9059999999999</ele>
        <time>2011-01-02T19:16:32Z</time>
      </trkpt>
      <trkpt lat="32.367628030478954" lon="-4.519330998882651">
        <ele>1476.1410000000001</ele>
        <time>2011-01-02T19:16:50Z</time>
      </trkpt>
      <trkpt lat="32.370615005493164" lon="-4.516582991927862">
        <ele>1482.4100000000001</ele>
        <time>2011-01-02T19:17:06Z</time>
      </trkpt>
      <trkpt lat="32.373338034376502" lon="-4.514121981337667">
        <ele>1486.3330000000001</ele>
        <time>2011-01-02T19:17:20Z</time>
      </trkpt>
      <trkpt lat="32.375898035243154" lon="-4.511776976287365">
        <ele>1486.817</ele>
        <time>2011-01-02T19:17:33Z</time>
      </trkpt>
      <trkpt lat="32.378056040033698" lon="-4.50978803448379">
        <ele>1486.8040000000001</ele>
        <time>2011-01-02T19:17:44Z</time>
      </trkpt>
      <trkpt lat="32.380670020356774" lon="-4.507413022220135">
        <ele>1486.78</ele>
        <time>2011-01-02T19:17:58Z</time>
      </trkpt>
      <trkpt lat="32.383126001805067" lon="-4.505175976082683">
        <ele>1485.1590000000001</ele>
        <time>2011-01-02T19:18:11Z</time>
      </trkpt>
      <trkpt lat="32.385339997708797" lon="-4.503264985978603">
        <ele>1480.4760000000001</ele>
        <time>2011-01-02T19:18:23Z</time>
      </trkpt>
      <trkpt lat="32.386326966807246" lon="-4.502721000462771">
        <ele>1475.681</ele>
        <time>2011-01-02T19:18:28Z</time>
      </trkpt>
      <trkpt lat="32.387461960315704" lon="-4.502528971061111">
        <ele>1473.673</ele>
        <time>2011-01-02T19:18:33Z</time>
      </trkpt>
      <trkpt lat="32.389157032594085" lon="-4.502785038203001">
        <ele>1475.299</ele>
        <time>2011-01-02T19:18:40Z</time>
      </trkpt>
      <trkpt lat="32.39140497520566" lon="-4.503237996250391">
        <ele>1477.501</ele>
        <time>2011-01-02T19:18:50Z</time>
      </trkpt>
      <trkpt lat="32.393133994191885" lon="-4.503308990970254">
        <ele>1477.4490000000001</ele>
        <time>2011-01-02T19:18:58Z</time>
      </trkpt>
      <trkpt lat="32.394108977168798" lon="-4.502851003780961">
        <ele>1477.4000000000001</ele>
        <time>2011-01-02T19:19:03Z</time>
      </trkpt>
      <trkpt lat="32.394826970994473" lon="-4.501992026343942">
        <ele>1478.3800000000001</ele>
        <time>2011-01-02T19:19:08Z</time>
      </trkpt>
      <trkpt lat="32.395446980372071" lon="-4.501229021698237">
        <ele>1479.2090000000001</ele>
        <time>2011-01-02T19:19:14Z</time>
      </trkpt>
      <trkpt lat="32.396316016092896" lon="-4.500158987939358">
        <ele>1482.2760000000001</ele>
        <time>2011-01-02T19:19:22Z</time>
      </trkpt>
      <trkpt lat="32.397186979651451" lon="-4.499386008828878">
        <ele>1483.441</ele>
        <time>2011-01-02T19:19:28Z</time>
      </trkpt>
      <trkpt lat="32.398682981729507" lon="-4.498257972300053">
        <ele>1483.308</ele>
        <time>2011-01-02T19:19:39Z</time>
      </trkpt>
      <trkpt lat="32.400355003774166" lon="-4.497060030698776">
        <ele>1485.51</ele>
        <time>2011-01-02T19:19:51Z</time>
      </trkpt>
      <trkpt lat="32.401483040302992" lon="-4.496251009404659">
        <ele>1487.7809999999999</ele>
        <time>2011-01-02T19:19:58Z</time>
      </trkpt>
      <trkpt lat="32.402902012690902" lon="-4.495033035054803">
        <ele>1488.625</ele>
        <time>2011-01-02T19:20:06Z</time>
      </trkpt>
      <trkpt lat="32.405078960582614" lon="-4.49320200830698">
        <ele>1489.675</ele>
        <time>2011-01-02T19:20:17Z</time>
      </trkpt>
      <trkpt lat="32.407507030293345" lon="-4.49118297547102">
        <ele>1492.662</ele>
        <time>2011-01-02T19:20:29Z</time>
      </trkpt>
      <trkpt lat="32.410050015896559" lon="-4.489060007035732">
        <ele>1496.9870000000001</ele>
        <time>2011-01-02T19:20:42Z</time>
      </trkpt>
      <trkpt lat="32.413292974233627" lon="-4.486333038657904">
        <ele>1501.575</ele>
        <time>2011-01-02T19:20:59Z</time>
      </trkpt>
      <trkpt lat="32.415505964308977" lon="-4.484447026625276">
        <ele>1508.6479999999999</ele>
        <time>2011-01-02T19:21:11Z</time>
      </trkpt>
      <trkpt lat="32.418090021237731" lon="-4.482274018228054">
        <ele>1511.788</ele>
        <time>2011-01-02T19:21:25Z</time>
      </trkpt>
      <trkpt lat="32.420686986297369" lon="-4.480091035366058">
        <ele>1517.9670000000001</ele>
        <time>2011-01-02T19:21:39Z</time>
      </trkpt>
      <trkpt lat="32.422807021066546" lon="-4.478552034124732">
        <ele>1521.4269999999999</ele>
        <time>2011-01-02T19:21:50Z</time>
      </trkpt>
      <trkpt lat="32.42520097643137" lon="-4.4768510106951">
        <ele>1524.1469999999999</ele>
        <time>2011-01-02T19:22:02Z</time>
      </trkpt>
      <trkpt lat="32.428342010825872" lon="-4.474615976214409">
        <ele>1530.8579999999999</ele>
        <time>2011-01-02T19:22:17Z</time>
      </trkpt>
      <trkpt lat="32.42962502874434" lon="-4.47375699877739">
        <ele>1536.123</ele>
        <time>2011-01-02T19:22:24Z</time>
      </trkpt>
      <trkpt lat="32.430728003382683" lon="-4.473416022956371">
        <ele>1538.8389999999999</ele>
        <time>2011-01-02T19:22:30Z</time>
      </trkpt>
      <trkpt lat="32.431931979954243" lon="-4.473388027399778">
        <ele>1540.846</ele>
        <time>2011-01-02T19:22:37Z</time>
      </trkpt>
      <trkpt lat="32.432867987081409" lon="-4.473815001547337">
        <ele>1539.386</ele>
        <time>2011-01-02T19:22:43Z</time>
      </trkpt>
      <trkpt lat="32.433011988177896" lon="-4.47390896268189">
        <ele>1538.596</ele>
        <time>2011-01-02T19:22:44Z</time>
      </trkpt>
      <trkpt lat="32.433441979810596" lon="-4.474483961239457">
        <ele>1536.366</ele>
        <time>2011-01-02T19:22:48Z</time>
      </trkpt>
      <trkpt lat="32.433855039998889" lon="-4.475717023015022">
        <ele>1534.1279999999999</ele>
        <time>2011-01-02T19:22:54Z</time>
      </trkpt>
      <trkpt lat="32.433840036392212" lon="-4.476825026795268">
        <ele>1538.6780000000001</ele>
        <time>2011-01-02T19:22:59Z</time>
      </trkpt>
      <trkpt lat="32.433757977560163" lon="-4.477038010954857">
        <ele>1538.51</ele>
        <time>2011-01-02T19:23:00Z</time>
      </trkpt>
      <trkpt lat="32.433415995910764" lon="-4.478176021948457">
        <ele>1538.576</ele>
        <time>2011-01-02T19:23:05Z</time>
      </trkpt>
      <trkpt lat="32.433545999228954" lon="-4.479555012658238">
        <ele>1541.597</ele>
        <time>2011-01-02T19:23:11Z</time>
      </trkpt>
      <trkpt lat="32.433738028630614" lon="-4.479981986805797">
        <ele>1542.567</ele>
        <time>2011-01-02T19:23:13Z</time>
      </trkpt>
      <trkpt lat="32.434572027996182" lon="-4.48112896643579">
        <ele>1544.5260000000001</ele>
        <time>2011-01-02T19:23:19Z</time>
      </trkpt>
      <trkpt lat="32.435784973204136" lon="-4.481917032971978">
        <ele>1544.213</ele>
        <time>2011-01-02T19:23:25Z</time>
      </trkpt>
      <trkpt lat="32.438038028776646" lon="-4.48321002535522">
        <ele>1541.364</ele>
        <time>2011-01-02T19:23:35Z</time>
      </trkpt>
      <trkpt lat="32.440236015245318" lon="-4.4845010060817">
        <ele>1545.4100000000001</ele>
        <time>2011-01-02T19:23:45Z</time>
      </trkpt>
      <trkpt lat="32.441094992682338" lon="-4.485472971573472">
        <ele>1548.251</ele>
        <time>2011-01-02T19:23:50Z</time>
      </trkpt>
      <trkpt lat="32.442169971764088" lon="-4.486939972266555">
        <ele>1552.2470000000001</ele>
        <time>2011-01-02T19:23:57Z</time>
      </trkpt>
      <trkpt lat="32.443002965301275" lon="-4.48750801384449">
        <ele>1552.357</ele>
        <time>2011-01-02T19:24:02Z</time>
      </trkpt>
      <trkpt lat="32.443545022979379" lon="-4.487469037994742">
        <ele>1553.377</ele>
        <time>2011-01-02T19:24:05Z</time>
      </trkpt>
      <trkpt lat="32.444990985095501" lon="-4.486995963379741">
        <ele>1555.741</ele>
        <time>2011-01-02T19:24:12Z</time>
      </trkpt>
      <trkpt lat="32.44612698443234" lon="-4.486636966466904">
        <ele>1557.8910000000001</ele>
        <time>2011-01-02T19:24:17Z</time>
      </trkpt>
      <trkpt lat="32.44730900041759" lon="-4.48671399615705">
        <ele>1560.0909999999999</ele>
        <time>2011-01-02T19:24:22Z</time>
      </trkpt>
      <trkpt lat="32.448194967582822" lon="-4.487104006111622">
        <ele>1560.961</ele>
        <time>2011-01-02T19:24:26Z</time>
      </trkpt>
      <trkpt lat="32.449457030743361" lon="-4.488214021548629">
        <ele>1567.0170000000001</ele>
        <time>2011-01-02T19:24:33Z</time>
      </trkpt>
      <trkpt lat="32.450567968189716" lon="-4.489387990906835">
        <ele>1576.7470000000001</ele>
        <time>2011-01-02T19:24:40Z</time>
      </trkpt>
      <trkpt lat="32.45111396536231" lon="-4.490577969700098">
        <ele>1585.848</ele>
        <time>2011-01-02T19:24:46Z</time>
      </trkpt>
      <trkpt lat="32.451181020587683" lon="-4.490772010758519">
        <ele>1587.229</ele>
        <time>2011-01-02T19:24:47Z</time>
      </trkpt>
      <trkpt lat="32.451299037784338" lon="-4.49180499650538">
        <ele>1592.3879999999999</ele>
        <time>2011-01-02T19:24:52Z</time>
      </trkpt>
      <trkpt lat="32.451587961986661" lon="-4.492709990590811">
        <ele>1595.732</ele>
        <time>2011-01-02T19:24:57Z</time>
      </trkpt>
      <trkpt lat="32.452172012999654" lon="-4.493388002738357">
        <ele>1598.575</ele>
        <time>2011-01-02T19:25:02Z</time>
      </trkpt>
      <trkpt lat="32.452766038477421" lon="-4.49403801932931">
        <ele>1600.4290000000001</ele>
        <time>2011-01-02T19:25:08Z</time>
      </trkpt>
      <trkpt lat="32.452742988243699" lon="-4.494184032082558">
        <ele>1599.8969999999999</ele>
        <time>2011-01-02T19:25:09Z</time>
      </trkpt>
      <trkpt lat="32.452871985733509" lon="-4.494957011193037">
        <ele>1597.287</ele>
        <time>2011-01-02T19:25:14Z</time>
      </trkpt>
      <trkpt lat="32.452984973788261" lon="-4.495895029976964">
        <ele>1594.1980000000001</ele>
        <time>2011-01-02T19:25:20Z</time>
      </trkpt>
      <trkpt lat="32.45276402682066" lon="-4.496357040479779">
        <ele>1592.1289999999999</ele>
        <time>2011-01-02T19:25:23Z</time>
      </trkpt>
      <trkpt lat="32.452305033802986" lon="-4.497292963787913">
        <ele>1587.3869999999999</ele>
        <time>2011-01-02T19:25:29Z</time>
      </trkpt>
      <trkpt lat="32.452317019924521" lon="-4.498145990073681">
        <ele>1584.6949999999999</ele>
        <time>2011-01-02T19:25:34Z</time>
      </trkpt>
      <trkpt lat="32.452709963545203" lon="-4.498643958941102">
        <ele>1583.268</ele>
        <time>2011-01-02T19:25:38Z</time>
      </trkpt>
      <trkpt lat="32.453178009018302" lon="-4.498995998874307">
        <ele>1582.51</ele>
        <time>2011-01-02T19:25:42Z</time>
      </trkpt>
      <trkpt lat="32.453974038362503" lon="-4.499184004962444">
        <ele>1580.278</ele>
        <time>2011-01-02T19:25:48Z</time>
      </trkpt>
      <trkpt lat="32.455104002729058" lon="-4.498816039413214">
        <ele>1579.1310000000001</ele>
        <time>2011-01-02T19:25:56Z</time>
      </trkpt>
      <trkpt lat="32.456121984869242" lon="-4.498428963124752">
        <ele>1579.383</ele>
        <time>2011-01-02T19:26:02Z</time>
      </trkpt>
      <trkpt lat="32.457080958411098" lon="-4.498463999480009">
        <ele>1579.873</ele>
        <time>2011-01-02T19:26:08Z</time>
      </trkpt>
      <trkpt lat="32.457728963345289" lon="-4.49889600276947">
        <ele>1579.162</ele>
        <time>2011-01-02T19:26:13Z</time>
      </trkpt>
      <trkpt lat="32.459290008991957" lon="-4.500523013994098">
        <ele>1578.3969999999999</ele>
        <time>2011-01-02T19:26:26Z</time>
      </trkpt>
      <trkpt lat="32.459612963721156" lon="-4.500628961250186">
        <ele>1579.2619999999999</ele>
        <time>2011-01-02T19:26:28Z</time>
      </trkpt>
      <trkpt lat="32.460575038567185" lon="-4.500690987333655">
        <ele>1582.7260000000001</ele>
        <time>2011-01-02T19:26:34Z</time>
      </trkpt>
      <trkpt lat="32.461196975782514" lon="-4.500368032604456">
        <ele>1584.9359999999999</ele>
        <time>2011-01-02T19:26:38Z</time>
      </trkpt>
      <trkpt lat="32.462544031441212" lon="-4.499230021610856">
        <ele>1588.2670000000001</ele>
        <time>2011-01-02T19:26:47Z</time>
      </trkpt>
      <trkpt lat="32.463561007753015" lon="-4.498505992814899">
        <ele>1590.758</ele>
        <time>2011-01-02T19:26:54Z</time>
      </trkpt>
      <trkpt lat="32.464434988796711" lon="-4.498252021148801">
        <ele>1591.896</ele>
        <time>2011-01-02T19:27:00Z</time>
      </trkpt>
      <trkpt lat="32.465658998116851" lon="-4.497968964278698">
        <ele>1592.0540000000001</ele>
        <time>2011-01-02T19:27:07Z</time>
      </trkpt>
      <trkpt lat="32.468109028413892" lon="-4.497389020398259">
        <ele>1595.46</ele>
        <time>2011-01-02T19:27:20Z</time>
      </trkpt>
      <trkpt lat="32.469268999993801" lon="-4.496932039037347">
        <ele>1596.9449999999999</ele>
        <time>2011-01-02T19:27:27Z</time>
      </trkpt>
      <trkpt lat="32.470431989058852" lon="-4.496069038286805">
        <ele>1596.924</ele>
        <time>2011-01-02T19:27:34Z</time>
      </trkpt>
      <trkpt lat="32.472225967794657" lon="-4.494694992899895">
        <ele>1601.432</ele>
        <time>2011-01-02T19:27:44Z</time>
      </trkpt>
      <trkpt lat="32.474394030869007" lon="-4.493031017482281">
        <ele>1603.617</ele>
        <time>2011-01-02T19:27:56Z</time>
      </trkpt>
      <trkpt lat="32.475664978846908" lon="-4.492270024493337">
        <ele>1604.556</ele>
        <time>2011-01-02T19:28:03Z</time>
      </trkpt>
      <trkpt lat="32.477701026946306" lon="-4.491499979048967">
        <ele>1604.8040000000001</ele>
        <time>2011-01-02T19:28:13Z</time>
      </trkpt>
      <trkpt lat="32.479641018435359" lon="-4.490949036553502">
        <ele>1606.6579999999999</ele>
        <time>2011-01-02T19:28:22Z</time>
      </trkpt>
      <trkpt lat="32.481548991054296" lon="-4.490507980808616">
        <ele>1608.837</ele>
        <time>2011-01-02T19:28:31Z</time>
      </trkpt>
      <trkpt lat="32.484165988862514" lon="-4.489626036956906">
        <ele>1613.2360000000001</ele>
        <time>2011-01-02T19:28:43Z</time>
      </trkpt>
      <trkpt lat="32.486343020573258" lon="-4.488934027031064">
        <ele>1616.1769999999999</ele>
        <time>2011-01-02T19:28:53Z</time>
      </trkpt>
      <trkpt lat="32.488829009234905" lon="-4.488142021000385">
        <ele>1616.8340000000001</ele>
        <time>2011-01-02T19:29:04Z</time>
      </trkpt>
      <trkpt lat="32.490787021815777" lon="-4.487513964995742">
        <ele>1619.2370000000001</ele>
        <time>2011-01-02T19:29:13Z</time>
      </trkpt>
      <trkpt lat="32.493288014084101" lon="-4.486724976450205">
        <ele>1624.4559999999999</ele>
        <time>2011-01-02T19:29:26Z</time>
      </trkpt>
      <trkpt lat="32.494882000610232" lon="-4.486226001754403">
        <ele>1627.8710000000001</ele>
        <time>2011-01-02T19:29:35Z</time>
      </trkpt>
      <trkpt lat="32.497113011777401" lon="-4.485526029020548">
        <ele>1633.9639999999999</ele>
        <time>2011-01-02T19:29:47Z</time>
      </trkpt>
      <trkpt lat="32.499760016798973" lon="-4.484702004119754">
        <ele>1637.22</ele>
        <time>2011-01-02T19:30:00Z</time>
      </trkpt>
      <trkpt lat="32.502476004883647" lon="-4.483850989490748">
        <ele>1640.0830000000001</ele>
        <time>2011-01-02T19:30:12Z</time>
      </trkpt>
      <trkpt lat="32.50377201475203" lon="-4.483542032539845">
        <ele>1641.511</ele>
        <time>2011-01-02T19:30:18Z</time>
      </trkpt>
      <trkpt lat="32.506144009530544" lon="-4.483408005908132">
        <ele>1642.578</ele>
        <time>2011-01-02T19:30:29Z</time>
      </trkpt>
      <trkpt lat="32.509215977042913" lon="-4.483238020911813">
        <ele>1648.0830000000001</ele>
        <time>2011-01-02T19:30:43Z</time>
      </trkpt>
      <trkpt lat="32.512374026700854" lon="-4.482992012053728">
        <ele>1650.8920000000001</ele>
        <time>2011-01-02T19:30:58Z</time>
      </trkpt>
      <trkpt lat="32.51436498016119" lon="-4.482779027894139">
        <ele>1654.4590000000001</ele>
        <time>2011-01-02T19:31:08Z</time>
      </trkpt>
      <trkpt lat="32.516245041042566" lon="-4.482571994885802">
        <ele>1659.633</ele>
        <time>2011-01-02T19:31:18Z</time>
      </trkpt>
      <trkpt lat="32.518655005842447" lon="-4.482218027114868">
        <ele>1664.6120000000001</ele>
        <time>2011-01-02T19:31:30Z</time>
      </trkpt>
      <trkpt lat="32.520888028666377" lon="-4.481967994943261">
        <ele>1668.894</ele>
        <time>2011-01-02T19:31:41Z</time>
      </trkpt>
      <trkpt lat="32.522710002958775" lon="-4.482134962454438">
        <ele>1668.7639999999999</ele>
        <time>2011-01-02T19:31:50Z</time>
      </trkpt>
      <trkpt lat="32.524879993870854" lon="-4.482362028211355">
        <ele>1668.674</ele>
        <time>2011-01-02T19:32:00Z</time>
      </trkpt>
      <trkpt lat="32.527097007259727" lon="-4.482693029567599">
        <ele>1668.7270000000001</ele>
        <time>2011-01-02T19:32:10Z</time>
      </trkpt>
      <trkpt lat="32.530313981696963" lon="-4.483223017305136">
        <ele>1674.8789999999999</ele>
        <time>2011-01-02T19:32:24Z</time>
      </trkpt>
      <trkpt lat="32.532943971455097" lon="-4.483858030289412">
        <ele>1678.8810000000001</ele>
        <time>2011-01-02T19:32:36Z</time>
      </trkpt>
      <trkpt lat="32.535797003656626" lon="-4.484550040215254">
        <ele>1680.2729999999999</ele>
        <time>2011-01-02T19:32:50Z</time>
      </trkpt>
      <trkpt lat="32.537207007408142" lon="-4.485073992982507">
        <ele>1681.461</ele>
        <time>2011-01-02T19:32:58Z</time>
      </trkpt>
      <trkpt lat="32.539010960608721" lon="-4.485754016786814">
        <ele>1683.5940000000001</ele>
        <time>2011-01-02T19:33:07Z</time>
      </trkpt>
      <trkpt lat="32.541018007323146" lon="-4.48632700368762">
        <ele>1680.627</ele>
        <time>2011-01-02T19:33:17Z</time>
      </trkpt>
      <trkpt lat="32.543553030118346" lon="-4.48695195838809">
        <ele>1685.9839999999999</ele>
        <time>2011-01-02T19:33:29Z</time>
      </trkpt>
      <trkpt lat="32.54620498046279" lon="-4.487569034099579">
        <ele>1691.182</ele>
        <time>2011-01-02T19:33:41Z</time>
      </trkpt>
      <trkpt lat="32.549202013760805" lon="-4.487805990502238">
        <ele>1695.3710000000001</ele>
        <time>2011-01-02T19:33:54Z</time>
      </trkpt>
      <trkpt lat="32.552654016762972" lon="-4.488060967996717">
        <ele>1708.5139999999999</ele>
        <time>2011-01-02T19:34:09Z</time>
      </trkpt>
      <trkpt lat="32.55602203309536" lon="-4.488305971026421">
        <ele>1714.8150000000001</ele>
        <time>2011-01-02T19:34:23Z</time>
      </trkpt>
      <trkpt lat="32.560185994952917" lon="-4.488614005967975">
        <ele>1722.162</ele>
        <time>2011-01-02T19:34:40Z</time>
      </trkpt>
      <trkpt lat="32.563490979373455" lon="-4.488853979855776">
        <ele>1728.2329999999999</ele>
        <time>2011-01-02T19:34:53Z</time>
      </trkpt>
      <trkpt lat="32.565743029117584" lon="-4.488887004554272">
        <ele>1732.5509999999999</ele>
        <time>2011-01-02T19:35:02Z</time>
      </trkpt>
      <trkpt lat="32.567444974556565" lon="-4.488407978788018">
        <ele>1739.3040000000001</ele>
        <time>2011-01-02T19:35:09Z</time>
      </trkpt>
      <trkpt lat="32.569617982953787" lon="-4.487898023799062">
        <ele>1744.0840000000001</ele>
        <time>2011-01-02T19:35:18Z</time>
      </trkpt>
      <trkpt lat="32.572557013481855" lon="-4.487623013556004">
        <ele>1751.232</ele>
        <time>2011-01-02T19:35:30Z</time>
      </trkpt>
      <trkpt lat="32.573854029178619" lon="-4.487526034936309">
        <ele>1755.5319999999999</ele>
        <time>2011-01-02T19:35:36Z</time>
      </trkpt>
      <trkpt lat="32.574756005778909" lon="-4.487689984962344">
        <ele>1755.5699999999999</ele>
        <time>2011-01-02T19:35:41Z</time>
      </trkpt>
      <trkpt lat="32.575801983475685" lon="-4.488249979913235">
        <ele>1755.2850000000001</ele>
        <time>2011-01-02T19:35:47Z</time>
      </trkpt>
      <trkpt lat="32.577835014089942" lon="-4.489581026136875">
        <ele>1757.6469999999999</ele>
        <time>2011-01-02T19:35:58Z</time>
      </trkpt>
      <trkpt lat="32.579773999750614" lon="-4.49083998799324">
        <ele>1763.1179999999999</ele>
        <time>2011-01-02T19:36:08Z</time>
      </trkpt>
      <trkpt lat="32.582513960078359" lon="-4.492627009749413">
        <ele>1774.403</ele>
        <time>2011-01-02T19:36:22Z</time>
      </trkpt>
      <trkpt lat="32.585029033944011" lon="-4.494257038459182">
        <ele>1789.1289999999999</ele>
        <time>2011-01-02T19:36:35Z</time>
      </trkpt>
      <trkpt lat="32.586586978286505" lon="-4.495466966181994">
        <ele>1798.8489999999999</ele>
        <time>2011-01-02T19:36:44Z</time>
      </trkpt>
      <trkpt lat="32.588179036974907" lon="-4.497448028996587">
        <ele>1809.2550000000001</ele>
        <time>2011-01-02T19:36:55Z</time>
      </trkpt>
      <trkpt lat="32.589464988559484" lon="-4.499073028564453">
        <ele>1818.3240000000001</ele>
        <time>2011-01-02T19:37:05Z</time>
      </trkpt>
      <trkpt lat="32.590367970988154" lon="-4.500210033729672">
        <ele>1825.068</ele>
        <time>2011-01-02T19:37:14Z</time>
      </trkpt>
      <trkpt lat="32.591481003910303" lon="-4.501608973369002">
        <ele>1833.6410000000001</ele>
        <time>2011-01-02T19:37:26Z</time>
      </trkpt>
      <trkpt lat="32.592489011585712" lon="-4.502867013216019">
        <ele>1841.018</ele>
        <time>2011-01-02T19:37:37Z</time>
      </trkpt>
      <trkpt lat="32.593032997101545" lon="-4.503734037280083">
        <ele>1841.5139999999999</ele>
        <time>2011-01-02T19:37:45Z</time>
      </trkpt>
      <trkpt lat="32.593314964324236" lon="-4.504623021930456">
        <ele>1839.172</ele>
        <time>2011-01-02T19:37:52Z</time>
      </trkpt>
      <trkpt lat="32.593342959880829" lon="-4.505551988258958">
        <ele>1835.211</ele>
        <time>2011-01-02T19:37:58Z</time>
      </trkpt>
      <trkpt lat="32.593221003189683" lon="-4.507525004446507">
        <ele>1839.0260000000001</ele>
        <time>2011-01-02T19:38:09Z</time>
      </trkpt>
      <trkpt lat="32.592995027080178" lon="-4.509219992905855">
        <ele>1842.74</ele>
        <time>2011-01-02T19:38:18Z</time>
      </trkpt>
      <trkpt lat="32.592655979096889" lon="-4.510565036907792">
        <ele>1845.0129999999999</ele>
        <time>2011-01-02T19:38:26Z</time>
      </trkpt>
      <trkpt lat="32.592641981318593" lon="-4.51161403208971">
        <ele>1847.691</ele>
        <time>2011-01-02T19:38:32Z</time>
      </trkpt>
      <trkpt lat="32.592713981866837" lon="-4.514275034889579">
        <ele>1853.008</ele>
        <time>2011-01-02T19:38:46Z</time>
      </trkpt>
      <trkpt lat="32.592632006853819" lon="-4.515896011143923">
        <ele>1847.8230000000001</ele>
        <time>2011-01-02T19:38:55Z</time>
      </trkpt>
      <trkpt lat="32.59241902269423" lon="-4.517805995419622">
        <ele>1842.2570000000001</ele>
        <time>2011-01-02T19:39:06Z</time>
      </trkpt>
      <trkpt lat="32.592556988820434" lon="-4.519395036622882">
        <ele>1844.479</ele>
        <time>2011-01-02T19:39:15Z</time>
      </trkpt>
      <trkpt lat="32.592950016260147" lon="-4.521805001422763">
        <ele>1856.6959999999999</ele>
        <time>2011-01-02T19:39:29Z</time>
      </trkpt>
      <trkpt lat="32.593409009277821" lon="-4.523437041789293">
        <ele>1864.0920000000001</ele>
        <time>2011-01-02T19:39:38Z</time>
      </trkpt>
      <trkpt lat="32.594168996438384" lon="-4.525481974706054">
        <ele>1868.7449999999999</ele>
        <time>2011-01-02T19:39:50Z</time>
      </trkpt>
      <trkpt lat="32.595194019377232" lon="-4.527714997529984">
        <ele>1876.577</ele>
        <time>2011-01-02T19:40:03Z</time>
      </trkpt>
      <trkpt lat="32.595461988821626" lon="-4.528183965012431">
        <ele>1878.8009999999999</ele>
        <time>2011-01-02T19:40:06Z</time>
      </trkpt>
      <trkpt lat="32.595931040123105" lon="-4.528681011870503">
        <ele>1882.021</ele>
        <time>2011-01-02T19:40:10Z</time>
      </trkpt>
      <trkpt lat="32.596806026995182" lon="-4.529258022084832">
        <ele>1883.471</ele>
        <time>2011-01-02T19:40:18Z</time>
      </trkpt>
      <trkpt lat="32.597859967499971" lon="-4.529912983998656">
        <ele>1883.289</ele>
        <time>2011-01-02T19:40:30Z</time>
      </trkpt>
      <trkpt lat="32.598922960460186" lon="-4.530437020584941">
        <ele>1884.48</ele>
        <time>2011-01-02T19:40:42Z</time>
      </trkpt>
      <trkpt lat="32.600188963115215" lon="-4.530628966167569">
        <ele>1878.999</ele>
        <time>2011-01-02T19:40:53Z</time>
      </trkpt>
      <trkpt lat="32.600629013031721" lon="-4.530670959502459">
        <ele>1878.3299999999999</ele>
        <time>2011-01-02T19:40:57Z</time>
      </trkpt>
      <trkpt lat="32.601065961644053" lon="-4.530557971447706">
        <ele>1878.9179999999999</ele>
        <time>2011-01-02T19:41:01Z</time>
      </trkpt>
      <trkpt lat="32.601279029622674" lon="-4.530449006706476">
        <ele>1878.9570000000001</ele>
        <time>2011-01-02T19:41:03Z</time>
      </trkpt>
      <trkpt lat="32.60183097794652" lon="-4.530374994501472">
        <ele>1878.1659999999999</ele>
        <time>2011-01-02T19:41:08Z</time>
      </trkpt>
      <trkpt lat="32.602188969030976" lon="-4.530179025605321">
        <ele>1875.432</ele>
        <time>2011-01-02T19:41:12Z</time>
      </trkpt>
      <trkpt lat="32.602923978120089" lon="-4.529222985729575">
        <ele>1868.4829999999999</ele>
        <time>2011-01-02T19:41:21Z</time>
      </trkpt>
      <trkpt lat="32.603513980284333" lon="-4.528403989970684">
        <ele>1863.875</ele>
        <time>2011-01-02T19:41:28Z</time>
      </trkpt>
      <trkpt lat="32.603799970820546" lon="-4.527640985324979">
        <ele>1859.857</ele>
        <time>2011-01-02T19:41:34Z</time>
      </trkpt>
      <trkpt lat="32.604126026853919" lon="-4.527343008667231">
        <ele>1857.0889999999999</ele>
        <time>2011-01-02T19:41:39Z</time>
      </trkpt>
      <trkpt lat="32.60430296882987" lon="-4.527404028922319">
        <ele>1856.249</ele>
        <time>2011-01-02T19:41:41Z</time>
      </trkpt>
      <trkpt lat="32.605274012312293" lon="-4.528051028028131">
        <ele>1846.3140000000001</ele>
        <time>2011-01-02T19:41:52Z</time>
      </trkpt>
      <trkpt lat="32.605350036174059" lon="-4.528117999434471">
        <ele>1845.2470000000001</ele>
        <time>2011-01-02T19:41:53Z</time>
      </trkpt>
      <trkpt lat="32.60589100420475" lon="-4.528206009417772">
        <ele>1842.3889999999999</ele>
        <time>2011-01-02T19:41:59Z</time>
      </trkpt>
      <trkpt lat="32.606564993038774" lon="-4.52777199447155">
        <ele>1838.943</ele>
        <time>2011-01-02T19:42:06Z</time>
      </trkpt>
      <trkpt lat="32.606744030490518" lon="-4.527570996433497">
        <ele>1836.9659999999999</ele>
        <time>2011-01-02T19:42:08Z</time>
      </trkpt>
      <trkpt lat="32.607498988509178" lon="-4.52706397511065">
        <ele>1832.1849999999999</ele>
        <time>2011-01-02T19:42:15Z</time>
      </trkpt>
      <trkpt lat="32.607968039810658" lon="-4.526669019833207">
        <ele>1828.643</ele>
        <time>2011-01-02T19:42:20Z</time>
      </trkpt>
      <trkpt lat="32.608364000916481" lon="-4.526575980708003">
        <ele>1823.097</ele>
        <time>2011-01-02T19:42:25Z</time>
      </trkpt>
      <trkpt lat="32.608473971486092" lon="-4.526899019256234">
        <ele>1818.5820000000001</ele>
        <time>2011-01-02T19:42:29Z</time>
      </trkpt>
      <trkpt lat="32.608401970937848" lon="-4.527107980102301">
        <ele>1816.3710000000001</ele>
        <time>2011-01-02T19:42:31Z</time>
      </trkpt>
      <trkpt lat="32.60816803202033" lon="-4.528014985844493">
        <ele>1809.2149999999999</ele>
        <time>2011-01-02T19:42:39Z</time>
      </trkpt>
      <trkpt lat="32.608163002878428" lon="-4.528143983334303">
        <ele>1808.482</ele>
        <time>2011-01-02T19:42:40Z</time>
      </trkpt>
      <trkpt lat="32.608366012573242" lon="-4.528686041012406">
        <ele>1804.5429999999999</ele>
        <time>2011-01-02T19:42:45Z</time>
      </trkpt>
      <trkpt lat="32.608572039753199" lon="-4.528720993548632">
        <ele>1803.252</ele>
        <time>2011-01-02T19:42:47Z</time>
      </trkpt>
      <trkpt lat="32.609151983633637" lon="-4.529002960771322">
        <ele>1798.422</ele>
        <time>2011-01-02T19:42:53Z</time>
      </trkpt>
      <trkpt lat="32.609625980257988" lon="-4.529186021536589">
        <ele>1794.6389999999999</ele>
        <time>2011-01-02T19:42:58Z</time>
      </trkpt>
      <trkpt lat="32.609839970245957" lon="-4.529117038473487">
        <ele>1794.99</ele>
        <time>2011-01-02T19:43:00Z</time>
      </trkpt>
      <trkpt lat="32.610528962686658" lon="-4.528795005753636">
        <ele>1793.5650000000001</ele>
        <time>2011-01-02T19:43:06Z</time>
      </trkpt>
      <trkpt lat="32.610924001783133" lon="-4.528925009071827">
        <ele>1790.528</ele>
        <time>2011-01-02T19:43:10Z</time>
      </trkpt>
      <trkpt lat="32.61098301038146" lon="-4.529031040146947">
        <ele>1790.1020000000001</ele>
        <time>2011-01-02T19:43:11Z</time>
      </trkpt>
      <trkpt lat="32.611296996474266" lon="-4.529529009014368">
        <ele>1786.2650000000001</ele>
        <time>2011-01-02T19:43:16Z</time>
      </trkpt>
      <trkpt lat="32.611793037503958" lon="-4.529802007600665">
        <ele>1783.895</ele>
        <time>2011-01-02T19:43:22Z</time>
      </trkpt>
      <trkpt lat="32.612080033868551" lon="-4.529696982353926">
        <ele>1783.7629999999999</ele>
        <time>2011-01-02T19:43:25Z</time>
      </trkpt>
      <trkpt lat="32.612886037677526" lon="-4.529459020122886">
        <ele>1780.7280000000001</ele>
        <time>2011-01-02T19:43:33Z</time>
      </trkpt>
      <trkpt lat="32.613636972382665" lon="-4.529635962098837">
        <ele>1775.856</ele>
        <time>2011-01-02T19:43:40Z</time>
      </trkpt>
      <trkpt lat="32.614166960120201" lon="-4.52981298789382">
        <ele>1772.2070000000001</ele>
        <time>2011-01-02T19:43:45Z</time>
      </trkpt>
      <trkpt lat="32.614524029195309" lon="-4.530214983969927">
        <ele>1768.4059999999999</ele>
        <time>2011-01-02T19:43:50Z</time>
      </trkpt>
      <trkpt lat="32.614884031936526" lon="-4.530568029731512">
        <ele>1765.9269999999999</ele>
        <time>2011-01-02T19:43:56Z</time>
      </trkpt>
      <trkpt lat="32.615671008825302" lon="-4.530366025865078">
        <ele>1763.876</ele>
        <time>2011-01-02T19:44:04Z</time>
      </trkpt>
      <trkpt lat="32.616449017077684" lon="-4.530528970062733">
        <ele>1761.165</ele>
        <time>2011-01-02T19:44:11Z</time>
      </trkpt>
      <trkpt lat="32.616787981241941" lon="-4.53067003749311">
        <ele>1758.942</ele>
        <time>2011-01-02T19:44:14Z</time>
      </trkpt>
      <trkpt lat="32.617477979511023" lon="-4.53122902661562">
        <ele>1752.414</ele>
        <time>2011-01-02T19:44:21Z</time>
      </trkpt>
      <trkpt lat="32.617899002507329" lon="-4.531268002465367">
        <ele>1749.307</ele>
        <time>2011-01-02T19:44:25Z</time>
      </trkpt>
      <trkpt lat="32.61839697137475" lon="-4.531366992741823">
        <ele>1746.6669999999999</ele>
        <time>2011-01-02T19:44:30Z</time>
      </trkpt>
      <trkpt lat="32.619171040132642" lon="-4.53181098215282">
        <ele>1741.7280000000001</ele>
        <time>2011-01-02T19:44:38Z</time>
      </trkpt>
      <trkpt lat="32.619529031217098" lon="-4.532265029847622">
        <ele>1736.248</ele>
        <time>2011-01-02T19:44:43Z</time>
      </trkpt>
      <trkpt lat="32.619847040623426" lon="-4.532598964869976">
        <ele>1732.22</ele>
        <time>2011-01-02T19:44:47Z</time>
      </trkpt>
      <trkpt lat="32.620299998670816" lon="-4.532851008698344">
        <ele>1729.0889999999999</ele>
        <time>2011-01-02T19:44:52Z</time>
      </trkpt>
      <trkpt lat="32.620670981705189" lon="-4.532826030626893">
        <ele>1728.482</ele>
        <time>2011-01-02T19:44:57Z</time>
      </trkpt>
      <trkpt lat="32.620853036642075" lon="-4.532657973468304">
        <ele>1727.421</ele>
        <time>2011-01-02T19:45:00Z</time>
      </trkpt>
      <trkpt lat="32.621032996103168" lon="-4.53236703760922">
        <ele>1726.3910000000001</ele>
        <time>2011-01-02T19:45:04Z</time>
      </trkpt>
      <trkpt lat="32.621370032429695" lon="-4.532113987952471">
        <ele>1725.6189999999999</ele>
        <time>2011-01-02T19:45:10Z</time>
      </trkpt>
      <trkpt lat="32.621625009924173" lon="-4.532168973237276">
        <ele>1725.7</ele>
        <time>2011-01-02T19:45:13Z</time>
      </trkpt>
      <trkpt lat="32.622015019878745" lon="-4.532148018479347">
        <ele>1724.559</ele>
        <time>2011-01-02T19:45:17Z</time>
      </trkpt>
      <trkpt lat="32.622286006808281" lon="-4.532043999060988">
        <ele>1724.1289999999999</ele>
        <time>2011-01-02T19:45:20Z</time>
      </trkpt>
      <trkpt lat="32.622839966788888" lon="-4.532093033194542">
        <ele>1722.896</ele>
        <time>2011-01-02T19:45:26Z</time>
      </trkpt>
      <trkpt lat="32.623226959258318" lon="-4.532150030136108">
        <ele>1721.1310000000001</ele>
        <time>2011-01-02T19:45:30Z</time>
      </trkpt>
      <trkpt lat="32.623676983639598" lon="-4.532482037320733">
        <ele>1713.317</ele>
        <time>2011-01-02T19:45:36Z</time>
      </trkpt>
      <trkpt lat="32.623755019158125" lon="-4.532694015651941">
        <ele>1710.498</ele>
        <time>2011-01-02T19:45:38Z</time>
      </trkpt>
      <trkpt lat="32.623802963644266" lon="-4.532919991761446">
        <ele>1707.627</ele>
        <time>2011-01-02T19:45:40Z</time>
      </trkpt>
      <trkpt lat="32.624019971117377" lon="-4.53327102586627">
        <ele>1704.79</ele>
        <time>2011-01-02T19:45:44Z</time>
      </trkpt>
      <trkpt lat="32.624244019389153" lon="-4.533490967005491">
        <ele>1703.3440000000001</ele>
        <time>2011-01-02T19:45:47Z</time>
      </trkpt>
      <trkpt lat="32.624608967453241" lon="-4.533648965880275">
        <ele>1700.662</ele>
        <time>2011-01-02T19:45:51Z</time>
      </trkpt>
      <trkpt lat="32.625006018206477" lon="-4.533724989742041">
        <ele>1697.952</ele>
        <time>2011-01-02T19:45:55Z</time>
      </trkpt>
      <trkpt lat="32.625513039529324" lon="-4.533698000013828">
        <ele>1694.4290000000001</ele>
        <time>2011-01-02T19:46:00Z</time>
      </trkpt>
      <trkpt lat="32.625617980957031" lon="-4.533674027770758">
        <ele>1694.2919999999999</ele>
        <time>2011-01-02T19:46:01Z</time>
      </trkpt>
      <trkpt lat="32.626034980639815" lon="-4.533556010574102">
        <ele>1692.672</ele>
        <time>2011-01-02T19:46:05Z</time>
      </trkpt>
      <trkpt lat="32.626499002799392" lon="-4.533332968130708">
        <ele>1690.2629999999999</ele>
        <time>2011-01-02T19:46:11Z</time>
      </trkpt>
      <trkpt lat="32.626982973888516" lon="-4.533181004226208">
        <ele>1687.0419999999999</ele>
        <time>2011-01-02T19:46:18Z</time>
      </trkpt>
      <trkpt lat="32.627078024670482" lon="-4.532897025346756">
        <ele>1684.989</ele>
        <time>2011-01-02T19:46:21Z</time>
      </trkpt>
      <trkpt lat="32.627150025218725" lon="-4.532596031203866">
        <ele>1683.0329999999999</ele>
        <time>2011-01-02T19:46:24Z</time>
      </trkpt>
      <trkpt lat="32.627521008253098" lon="-4.532214989885688">
        <ele>1680.0139999999999</ele>
        <time>2011-01-02T19:46:30Z</time>
      </trkpt>
      <trkpt lat="32.627621004357934" lon="-4.532203003764153">
        <ele>1679.6469999999999</ele>
        <time>2011-01-02T19:46:31Z</time>
      </trkpt>
      <trkpt lat="32.628141017630696" lon="-4.532243991270661">
        <ele>1677.5830000000001</ele>
        <time>2011-01-02T19:46:36Z</time>
      </trkpt>
      <trkpt lat="32.628887007012963" lon="-4.532269975170493">
        <ele>1673.4860000000001</ele>
        <time>2011-01-02T19:46:43Z</time>
      </trkpt>
      <trkpt lat="32.629498969763517" lon="-4.532170984894037">
        <ele>1670.5350000000001</ele>
        <time>2011-01-02T19:46:50Z</time>
      </trkpt>
      <trkpt lat="32.629706002771854" lon="-4.532328983768821">
        <ele>1667.9380000000001</ele>
        <time>2011-01-02T19:46:53Z</time>
      </trkpt>
      <trkpt lat="32.630091989412904" lon="-4.532823013141751">
        <ele>1661.498</ele>
        <time>2011-01-02T19:46:59Z</time>
      </trkpt>
      <trkpt lat="32.630077991634607" lon="-4.533253004774451">
        <ele>1655.7660000000001</ele>
        <time>2011-01-02T19:47:04Z</time>
      </trkpt>
      <trkpt lat="32.629943965002894" lon="-4.533393988385797">
        <ele>1654.047</ele>
        <time>2011-01-02T19:47:06Z</time>
      </trkpt>
      <trkpt lat="32.629796024411917" lon="-4.533518040552735">
        <ele>1652.374</ele>
        <time>2011-01-02T19:47:08Z</time>
      </trkpt>
      <trkpt lat="32.629615981131792" lon="-4.533996982499957">
        <ele>1647.587</ele>
        <time>2011-01-02T19:47:14Z</time>
      </trkpt>
      <trkpt lat="32.629506010562181" lon="-4.534498974680901">
        <ele>1642.7560000000001</ele>
        <time>2011-01-02T19:47:20Z</time>
      </trkpt>
      <trkpt lat="32.629338959231973" lon="-4.534742971882224">
        <ele>1643.039</ele>
        <time>2011-01-02T19:47:23Z</time>
      </trkpt>
      <trkpt lat="32.629062021151185" lon="-4.535004990175366">
        <ele>1641.008</ele>
        <time>2011-01-02T19:47:27Z</time>
      </trkpt>
      <trkpt lat="32.628876026719809" lon="-4.535230966284871">
        <ele>1638.9659999999999</ele>
        <time>2011-01-02T19:47:30Z</time>
      </trkpt>
      <trkpt lat="32.628589030355215" lon="-4.535993970930576">
        <ele>1633.403</ele>
        <time>2011-01-02T19:47:38Z</time>
      </trkpt>
      <trkpt lat="32.62804496102035" lon="-4.53684096224606">
        <ele>1629.395</ele>
        <time>2011-01-02T19:47:47Z</time>
      </trkpt>
      <trkpt lat="32.627894002944231" lon="-4.536986974999309">
        <ele>1627.865</ele>
        <time>2011-01-02T19:47:49Z</time>
      </trkpt>
      <trkpt lat="32.62737700715661" lon="-4.537240024656057">
        <ele>1621.8050000000001</ele>
        <time>2011-01-02T19:47:55Z</time>
      </trkpt>
      <trkpt lat="32.626978028565645" lon="-4.537158971652389">
        <ele>1615.104</ele>
        <time>2011-01-02T19:48:00Z</time>
      </trkpt>
      <trkpt lat="32.626831009984016" lon="-4.537065010517836">
        <ele>1613.222</ele>
        <time>2011-01-02T19:48:02Z</time>
      </trkpt>
      <trkpt lat="32.626464972272515" lon="-4.53711898997426">
        <ele>1610.875</ele>
        <time>2011-01-02T19:48:07Z</time>
      </trkpt>
      <trkpt lat="32.626135982573032" lon="-4.537331974133849">
        <ele>1609.655</ele>
        <time>2011-01-02T19:48:12Z</time>
      </trkpt>
      <trkpt lat="32.62524900957942" lon="-4.537727013230324">
        <ele>1605.2660000000001</ele>
        <time>2011-01-02T19:48:22Z</time>
      </trkpt>
      <trkpt lat="32.624993026256561" lon="-4.538163039833307">
        <ele>1602.627</ele>
        <time>2011-01-02T19:48:27Z</time>
      </trkpt>
      <trkpt lat="32.625121017917991" lon="-4.538519019261003">
        <ele>1600.768</ele>
        <time>2011-01-02T19:48:31Z</time>
      </trkpt>
      <trkpt lat="32.625383958220482" lon="-4.538887990638614">
        <ele>1601.76</ele>
        <time>2011-01-02T19:48:36Z</time>
      </trkpt>
      <trkpt lat="32.625704985111952" lon="-4.539010031148791">
        <ele>1604.5219999999999</ele>
        <time>2011-01-02T19:48:41Z</time>
      </trkpt>
      <trkpt lat="32.626243019476533" lon="-4.538981029763818">
        <ele>1602.261</ele>
        <time>2011-01-02T19:48:49Z</time>
      </trkpt>
      <trkpt lat="32.626403030008078" lon="-4.539230978116393">
        <ele>1603.04</ele>
        <time>2011-01-02T19:48:52Z</time>
      </trkpt>
      <trkpt lat="32.626612996682525" lon="-4.539461983367801">
        <ele>1604.752</ele>
        <time>2011-01-02T19:48:55Z</time>
      </trkpt>
      <trkpt lat="32.626836039125919" lon="-4.540033964440227">
        <ele>1602.4200000000001</ele>
        <time>2011-01-02T19:49:01Z</time>
      </trkpt>
      <trkpt lat="32.626825980842113" lon="-4.54014896415174">
        <ele>1601.8050000000001</ele>
        <time>2011-01-02T19:49:02Z</time>
      </trkpt>
      <trkpt lat="32.626798991113901" lon="-4.540486000478268">
        <ele>1600.2090000000001</ele>
        <time>2011-01-02T19:49:05Z</time>
      </trkpt>
      <trkpt lat="32.626907033845782" lon="-4.541001990437508">
        <ele>1599.0909999999999</ele>
        <time>2011-01-02T19:49:10Z</time>
      </trkpt>
      <trkpt lat="32.62692597694695" lon="-4.541413960978389">
        <ele>1596.998</ele>
        <time>2011-01-02T19:49:14Z</time>
      </trkpt>
      <trkpt lat="32.62694600969553" lon="-4.542075963690877">
        <ele>1595.1410000000001</ele>
        <time>2011-01-02T19:49:20Z</time>
      </trkpt>
      <trkpt lat="32.626926982775331" lon="-4.542181994765997">
        <ele>1594.8109999999999</ele>
        <time>2011-01-02T19:49:21Z</time>
      </trkpt>
      <trkpt lat="32.626712992787361" lon="-4.543050024658442">
        <ele>1591.4280000000001</ele>
        <time>2011-01-02T19:49:29Z</time>
      </trkpt>
      <trkpt lat="32.626804020255804" lon="-4.543744968250394">
        <ele>1587.972</ele>
        <time>2011-01-02T19:49:35Z</time>
      </trkpt>
      <trkpt lat="32.627251027151942" lon="-4.544347040355206">
        <ele>1582.5889999999999</ele>
        <time>2011-01-02T19:49:41Z</time>
      </trkpt>
      <trkpt lat="32.627469040453434" lon="-4.54446698538959">
        <ele>1580.53</ele>
        <time>2011-01-02T19:49:43Z</time>
      </trkpt>
      <trkpt lat="32.628994965925813" lon="-4.544995967298746">
        <ele>1568.037</ele>
        <time>2011-01-02T19:49:55Z</time>
      </trkpt>
      <trkpt lat="32.629840029403567" lon="-4.545597033575177">
        <ele>1564.7360000000001</ele>
        <time>2011-01-02T19:50:02Z</time>
      </trkpt>
      <trkpt lat="32.630216041579843" lon="-4.545826027169824">
        <ele>1562.72</ele>
        <time>2011-01-02T19:50:05Z</time>
      </trkpt>
      <trkpt lat="32.631044005975127" lon="-4.545914037153125">
        <ele>1556.818</ele>
        <time>2011-01-02T19:50:11Z</time>
      </trkpt>
      <trkpt lat="32.632741006091237" lon="-4.545881012454629">
        <ele>1553.5350000000001</ele>
        <time>2011-01-02T19:50:23Z</time>
      </trkpt>
      <trkpt lat="32.634136006236076" lon="-4.545828038826585">
        <ele>1546.683</ele>
        <time>2011-01-02T19:50:33Z</time>
      </trkpt>
      <trkpt lat="32.63491602614522" lon="-4.545822003856301">
        <ele>1543.511</ele>
        <time>2011-01-02T19:50:39Z</time>
      </trkpt>
      <trkpt lat="32.635483983904123" lon="-4.546107994392514">
        <ele>1538.5440000000001</ele>
        <time>2011-01-02T19:50:44Z</time>
      </trkpt>
      <trkpt lat="32.635698979720473" lon="-4.54648400656879">
        <ele>1535.29</ele>
        <time>2011-01-02T19:50:47Z</time>
      </trkpt>
      <trkpt lat="32.636331981047988" lon="-4.547656970098615">
        <ele>1526.268</ele>
        <time>2011-01-02T19:50:56Z</time>
      </trkpt>
      <trkpt lat="32.636753004044294" lon="-4.548206990584731">
        <ele>1525.0740000000001</ele>
        <time>2011-01-02T19:51:01Z</time>
      </trkpt>
      <trkpt lat="32.636928018182516" lon="-4.548666989430785">
        <ele>1524.2760000000001</ele>
        <time>2011-01-02T19:51:05Z</time>
      </trkpt>
      <trkpt lat="32.637074030935764" lon="-4.549925029277802">
        <ele>1523.088</ele>
        <time>2011-01-02T19:51:13Z</time>
      </trkpt>
      <trkpt lat="32.637308975681663" lon="-4.551979014649987">
        <ele>1523.1959999999999</ele>
        <time>2011-01-02T19:51:24Z</time>
      </trkpt>
      <trkpt lat="32.63758197426796" lon="-4.554413035511971">
        <ele>1518.394</ele>
        <time>2011-01-02T19:51:37Z</time>
      </trkpt>
      <trkpt lat="32.63762203976512" lon="-4.554581008851528">
        <ele>1517.6600000000001</ele>
        <time>2011-01-02T19:51:38Z</time>
      </trkpt>
      <trkpt lat="32.638149010017514" lon="-4.555418025702238">
        <ele>1515.633</ele>
        <time>2011-01-02T19:51:44Z</time>
      </trkpt>
      <trkpt lat="32.639054004102945" lon="-4.556521000340581">
        <ele>1517.2809999999999</ele>
        <time>2011-01-02T19:51:53Z</time>
      </trkpt>
      <trkpt lat="32.639195993542671" lon="-4.556768015027046">
        <ele>1518.2919999999999</ele>
        <time>2011-01-02T19:51:55Z</time>
      </trkpt>
      <trkpt lat="32.639356004074216" lon="-4.55757200717926">
        <ele>1520.8130000000001</ele>
        <time>2011-01-02T19:52:01Z</time>
      </trkpt>
      <trkpt lat="32.639348041266203" lon="-4.557712990790606">
        <ele>1520.9839999999999</ele>
        <time>2011-01-02T19:52:02Z</time>
      </trkpt>
      <trkpt lat="32.639161041006446" lon="-4.558909004554153">
        <ele>1522.491</ele>
        <time>2011-01-02T19:52:09Z</time>
      </trkpt>
      <trkpt lat="32.638767007738352" lon="-4.561256021261215">
        <ele>1527.252</ele>
        <time>2011-01-02T19:52:21Z</time>
      </trkpt>
      <trkpt lat="32.638468025252223" lon="-4.563298020511866">
        <ele>1531.3209999999999</ele>
        <time>2011-01-02T19:52:32Z</time>
      </trkpt>
      <trkpt lat="32.638712022453547" lon="-4.564006961882114">
        <ele>1532.231</ele>
        <time>2011-01-02T19:52:37Z</time>
      </trkpt>
      <trkpt lat="32.638816041871905" lon="-4.56412497907877">
        <ele>1532.8330000000001</ele>
        <time>2011-01-02T19:52:38Z</time>
      </trkpt>
      <trkpt lat="32.640243982896209" lon="-4.56543498672545">
        <ele>1537.346</ele>
        <time>2011-01-02T19:52:50Z</time>
      </trkpt>
      <trkpt lat="32.640613960102201" lon="-4.565687030553818">
        <ele>1537.078</ele>
        <time>2011-01-02T19:52:53Z</time>
      </trkpt>
      <trkpt lat="32.641360033303499" lon="-4.565871013328433">
        <ele>1536.155</ele>
        <time>2011-01-02T19:52:58Z</time>
      </trkpt>
      <trkpt lat="32.64351200312376" lon="-4.565890962257981">
        <ele>1528.0699999999999</ele>
        <time>2011-01-02T19:53:10Z</time>
      </trkpt>
      <trkpt lat="32.645834963768721" lon="-4.5659089833498">
        <ele>1521.605</ele>
        <time>2011-01-02T19:53:21Z</time>
      </trkpt>
      <trkpt lat="32.64868900179863" lon="-4.565933961421251">
        <ele>1503.8599999999999</ele>
        <time>2011-01-02T19:53:35Z</time>
      </trkpt>
      <trkpt lat="32.650867039337754" lon="-4.565960029140115">
        <ele>1498.49</ele>
        <time>2011-01-02T19:53:46Z</time>
      </trkpt>
      <trkpt lat="32.651376994326711" lon="-4.56603697501123">
        <ele>1498.318</ele>
        <time>2011-01-02T19:53:49Z</time>
      </trkpt>
      <trkpt lat="32.651960961520672" lon="-4.5663389749825">
        <ele>1495.9860000000001</ele>
        <time>2011-01-02T19:53:53Z</time>
      </trkpt>
      <trkpt lat="32.653464004397392" lon="-4.567549992352724">
        <ele>1489.0219999999999</ele>
        <time>2011-01-02T19:54:04Z</time>
      </trkpt>
      <trkpt lat="32.653584033250809" lon="-4.567670021206141">
        <ele>1488.2539999999999</ele>
        <time>2011-01-02T19:54:05Z</time>
      </trkpt>
      <trkpt lat="32.653958033770323" lon="-4.568281983956695">
        <ele>1485.625</ele>
        <time>2011-01-02T19:54:09Z</time>
      </trkpt>
      <trkpt lat="32.65472698956728" lon="-4.570425990968943">
        <ele>1484.973</ele>
        <time>2011-01-02T19:54:21Z</time>
      </trkpt>
      <trkpt lat="32.655703984200954" lon="-4.573221020400524">
        <ele>1486.559</ele>
        <time>2011-01-02T19:54:37Z</time>
      </trkpt>
      <trkpt lat="32.656443016603589" lon="-4.575324961915612">
        <ele>1487.2460000000001</ele>
        <time>2011-01-02T19:54:49Z</time>
      </trkpt>
      <trkpt lat="32.657174002379179" lon="-4.577429993078113">
        <ele>1487.6669999999999</ele>
        <time>2011-01-02T19:55:00Z</time>
      </trkpt>
      <trkpt lat="32.657807003706694" lon="-4.579233024269342">
        <ele>1487.886</ele>
        <time>2011-01-02T19:55:09Z</time>
      </trkpt>
      <trkpt lat="32.658604960888624" lon="-4.58150502294302">
        <ele>1489.9079999999999</ele>
        <time>2011-01-02T19:55:21Z</time>
      </trkpt>
      <trkpt lat="32.659202003851533" lon="-4.583247033879161">
        <ele>1491.7080000000001</ele>
        <time>2011-01-02T19:55:32Z</time>
      </trkpt>
      <trkpt lat="32.659323960542679" lon="-4.583894032984972">
        <ele>1492.018</ele>
        <time>2011-01-02T19:55:36Z</time>
      </trkpt>
      <trkpt lat="32.659188006073236" lon="-4.584873961284757">
        <ele>1490.52</ele>
        <time>2011-01-02T19:55:42Z</time>
      </trkpt>
      <trkpt lat="32.658960018306971" lon="-4.585338989272714">
        <ele>1487.979</ele>
        <time>2011-01-02T19:55:45Z</time>
      </trkpt>
      <trkpt lat="32.657887972891331" lon="-4.586838008835912">
        <ele>1481.384</ele>
        <time>2011-01-02T19:55:54Z</time>
      </trkpt>
      <trkpt lat="32.656891029328108" lon="-4.58825103007257">
        <ele>1485.643</ele>
        <time>2011-01-02T19:56:02Z</time>
      </trkpt>
      <trkpt lat="32.656470006331801" lon="-4.589451989158988">
        <ele>1487.607</ele>
        <time>2011-01-02T19:56:08Z</time>
      </trkpt>
      <trkpt lat="32.656418960541487" lon="-4.590842965990305">
        <ele>1485.7190000000001</ele>
        <time>2011-01-02T19:56:14Z</time>
      </trkpt>
      <trkpt lat="32.656413009390235" lon="-4.593643024563789">
        <ele>1488.0150000000001</ele>
        <time>2011-01-02T19:56:25Z</time>
      </trkpt>
      <trkpt lat="32.656403034925461" lon="-4.597163004800677">
        <ele>1506.135</ele>
        <time>2011-01-02T19:56:39Z</time>
      </trkpt>
      <trkpt lat="32.656407980248332" lon="-4.598622964695096">
        <ele>1512.0609999999999</ele>
        <time>2011-01-02T19:56:46Z</time>
      </trkpt>
      <trkpt lat="32.656677961349487" lon="-4.600622970610857">
        <ele>1512.8910000000001</ele>
        <time>2011-01-02T19:56:56Z</time>
      </trkpt>
      <trkpt lat="32.657080041244626" lon="-4.60208997130394">
        <ele>1509.241</ele>
        <time>2011-01-02T19:57:04Z</time>
      </trkpt>
      <trkpt lat="32.657799040898681" lon="-4.604354007169604">
        <ele>1507.076</ele>
        <time>2011-01-02T19:57:16Z</time>
      </trkpt>
      <trkpt lat="32.658374039456248" lon="-4.606229960918427">
        <ele>1503.0889999999999</ele>
        <time>2011-01-02T19:57:25Z</time>
      </trkpt>
      <trkpt lat="32.659137966111302" lon="-4.60855501703918">
        <ele>1502.3219999999999</ele>
        <time>2011-01-02T19:57:36Z</time>
      </trkpt>
      <trkpt lat="32.659948999062181" lon="-4.610441029071808">
        <ele>1502.8420000000001</ele>
        <time>2011-01-02T19:57:46Z</time>
      </trkpt>
      <trkpt lat="32.660961030051112" lon="-4.612629041075707">
        <ele>1502.21</ele>
        <time>2011-01-02T19:57:59Z</time>
      </trkpt>
      <trkpt lat="32.661931989714503" lon="-4.614728959277272">
        <ele>1499.8589999999999</ele>
        <time>2011-01-02T19:58:11Z</time>
      </trkpt>
      <trkpt lat="32.662929017096758" lon="-4.616894004866481">
        <ele>1500.502</ele>
        <time>2011-01-02T19:58:23Z</time>
      </trkpt>
      <trkpt lat="32.663994021713734" lon="-4.619198022410274">
        <ele>1500.3009999999999</ele>
        <time>2011-01-02T19:58:35Z</time>
      </trkpt>
      <trkpt lat="32.665100013837218" lon="-4.621560964733362">
        <ele>1499.4280000000001</ele>
        <time>2011-01-02T19:58:46Z</time>
      </trkpt>
      <trkpt lat="32.665958991274238" lon="-4.623390985652804">
        <ele>1498.347</ele>
        <time>2011-01-02T19:58:54Z</time>
      </trkpt>
      <trkpt lat="32.666215980425477" lon="-4.623951986432076">
        <ele>1497.847</ele>
        <time>2011-01-02T19:58:58Z</time>
      </trkpt>
      <trkpt lat="32.666793996468186" lon="-4.625203991308808">
        <ele>1496.818</ele>
        <time>2011-01-02T19:59:10Z</time>
      </trkpt>
      <trkpt lat="32.667475026100874" lon="-4.626708962023258">
        <ele>1496.1179999999999</ele>
        <time>2011-01-02T19:59:25Z</time>
      </trkpt>
      <trkpt lat="32.667678035795689" lon="-4.627149011939764">
        <ele>1496.1579999999999</ele>
        <time>2011-01-02T19:59:31Z</time>
      </trkpt>
      <trkpt lat="32.667765039950609" lon="-4.627315979450941">
        <ele>1497.1410000000001</ele>
        <time>2011-01-02T20:00:03Z</time>
      </trkpt>
      <trkpt lat="32.66798104159534" lon="-4.627777989953756">
        <ele>1496.3009999999999</ele>
        <time>2011-01-02T20:00:15Z</time>
      </trkpt>
      <trkpt lat="32.668178016319871" lon="-4.628226002678275">
        <ele>1495.6510000000001</ele>
        <time>2011-01-02T20:00:22Z</time>
      </trkpt>
      <trkpt lat="32.668473981320858" lon="-4.628863027319312">
        <ele>1494.99</ele>
        <time>2011-01-02T20:00:28Z</time>
      </trkpt>
      <trkpt lat="32.669150987640023" lon="-4.630327010527253">
        <ele>1493.27</ele>
        <time>2011-01-02T20:00:39Z</time>
      </trkpt>
      <trkpt lat="32.669977024197578" lon="-4.63212501257658">
        <ele>1491.9659999999999</ele>
        <time>2011-01-02T20:00:51Z</time>
      </trkpt>
      <trkpt lat="32.67079702578485" lon="-4.633892001584172">
        <ele>1490.4949999999999</ele>
        <time>2011-01-02T20:01:01Z</time>
      </trkpt>
      <trkpt lat="32.672137962654233" lon="-4.636795995756984">
        <ele>1487.655</ele>
        <time>2011-01-02T20:01:17Z</time>
      </trkpt>
      <trkpt lat="32.673067012801766" lon="-4.638827014714479">
        <ele>1486.3299999999999</ele>
        <time>2011-01-02T20:01:28Z</time>
      </trkpt>
      <trkpt lat="32.674064040184021" lon="-4.641018966212869">
        <ele>1485.615</ele>
        <time>2011-01-02T20:01:40Z</time>
      </trkpt>
      <trkpt lat="32.675304980948567" lon="-4.643560023978353">
        <ele>1492.875</ele>
        <time>2011-01-02T20:01:54Z</time>
      </trkpt>
      <trkpt lat="32.676363028585911" lon="-4.645790029317141">
        <ele>1498.5250000000001</ele>
        <time>2011-01-02T20:02:06Z</time>
      </trkpt>
      <trkpt lat="32.677857019007206" lon="-4.648986971005797">
        <ele>1506.347</ele>
        <time>2011-01-02T20:02:23Z</time>
      </trkpt>
      <trkpt lat="32.679122015833855" lon="-4.65169700793922">
        <ele>1514.327</ele>
        <time>2011-01-02T20:02:37Z</time>
      </trkpt>
      <trkpt lat="32.680026004090905" lon="-4.653628030791879">
        <ele>1518.693</ele>
        <time>2011-01-02T20:02:47Z</time>
      </trkpt>
      <trkpt lat="32.68106997013092" lon="-4.655941016972065">
        <ele>1519.6880000000001</ele>
        <time>2011-01-02T20:02:59Z</time>
      </trkpt>
      <trkpt lat="32.681265017017722" lon="-4.657095037400723">
        <ele>1517.6690000000001</ele>
        <time>2011-01-02T20:03:05Z</time>
      </trkpt>
      <trkpt lat="32.681083967909217" lon="-4.658227013424039">
        <ele>1513.1759999999999</ele>
        <time>2011-01-02T20:03:11Z</time>
      </trkpt>
      <trkpt lat="32.68042397685349" lon="-4.65988302603364">
        <ele>1503.893</ele>
        <time>2011-01-02T20:03:20Z</time>
      </trkpt>
      <trkpt lat="32.679566005244851" lon="-4.661942962557077">
        <ele>1496.518</ele>
        <time>2011-01-02T20:03:31Z</time>
      </trkpt>
      <trkpt lat="32.679183036088943" lon="-4.663261016830802">
        <ele>1495.193</ele>
        <time>2011-01-02T20:03:38Z</time>
      </trkpt>
      <trkpt lat="32.679139031097293" lon="-4.664745032787323">
        <ele>1494.6400000000001</ele>
        <time>2011-01-02T20:03:46Z</time>
      </trkpt>
      <trkpt lat="32.679124027490616" lon="-4.666440021246672">
        <ele>1493.0650000000001</ele>
        <time>2011-01-02T20:03:55Z</time>
      </trkpt>
      <trkpt lat="32.679107012227178" lon="-4.66892902739346">
        <ele>1491.2570000000001</ele>
        <time>2011-01-02T20:04:06Z</time>
      </trkpt>
      <trkpt lat="32.679130984470248" lon="-4.670984018594027">
        <ele>1492.0360000000001</ele>
        <time>2011-01-02T20:04:15Z</time>
      </trkpt>
      <trkpt lat="32.679307004436851" lon="-4.672371977940202">
        <ele>1492.605</ele>
        <time>2011-01-02T20:04:21Z</time>
      </trkpt>
      <trkpt lat="32.679684022441506" lon="-4.674445996060967">
        <ele>1491.463</ele>
        <time>2011-01-02T20:04:29Z</time>
      </trkpt>
      <trkpt lat="32.680156007409096" lon="-4.677330041304231">
        <ele>1486.6099999999999</ele>
        <time>2011-01-02T20:04:40Z</time>
      </trkpt>
      <trkpt lat="32.680607959628105" lon="-4.680071007460356">
        <ele>1486.1189999999999</ele>
        <time>2011-01-02T20:04:51Z</time>
      </trkpt>
      <trkpt lat="32.681163009256124" lon="-4.68276503495872">
        <ele>1486.835</ele>
        <time>2011-01-02T20:05:02Z</time>
      </trkpt>
      <trkpt lat="32.681793998926878" lon="-4.685366023331881">
        <ele>1490.299</ele>
        <time>2011-01-02T20:05:13Z</time>
      </trkpt>
      <trkpt lat="32.682500006631017" lon="-4.688219977542758">
        <ele>1492.2670000000001</ele>
        <time>2011-01-02T20:05:25Z</time>
      </trkpt>
      <trkpt lat="32.683058995753527" lon="-4.690474960952997">
        <ele>1492.1959999999999</ele>
        <time>2011-01-02T20:05:35Z</time>
      </trkpt>
      <trkpt lat="32.683380022644997" lon="-4.692089986056089">
        <ele>1490.9760000000001</ele>
        <time>2011-01-02T20:05:43Z</time>
      </trkpt>
      <trkpt lat="32.683295030146837" lon="-4.693254986777902">
        <ele>1489.7059999999999</ele>
        <time>2011-01-02T20:05:49Z</time>
      </trkpt>
      <trkpt lat="32.682948019355536" lon="-4.695332022383809">
        <ele>1488.25</ele>
        <time>2011-01-02T20:06:00Z</time>
      </trkpt>
      <trkpt lat="32.68261500634253" lon="-4.697253992781043">
        <ele>1488.798</ele>
        <time>2011-01-02T20:06:11Z</time>
      </trkpt>
      <trkpt lat="32.682404033839703" lon="-4.698670031502843">
        <ele>1488.537</ele>
        <time>2011-01-02T20:06:19Z</time>
      </trkpt>
      <trkpt lat="32.68246203660965" lon="-4.699385007843375">
        <ele>1487.7059999999999</ele>
        <time>2011-01-02T20:06:23Z</time>
      </trkpt>
      <trkpt lat="32.682890016585588" lon="-4.701044037938118">
        <ele>1487.9390000000001</ele>
        <time>2011-01-02T20:06:32Z</time>
      </trkpt>
      <trkpt lat="32.683006022125483" lon="-4.702279027551413">
        <ele>1489.481</ele>
        <time>2011-01-02T20:06:38Z</time>
      </trkpt>
      <trkpt lat="32.683061007410288" lon="-4.704592013731599">
        <ele>1492.7729999999999</ele>
        <time>2011-01-02T20:06:49Z</time>
      </trkpt>
      <trkpt lat="32.683112975209951" lon="-4.706252971664071">
        <ele>1494.9929999999999</ele>
        <time>2011-01-02T20:06:59Z</time>
      </trkpt>
      <trkpt lat="32.683052038773894" lon="-4.707743022590876">
        <ele>1498.1949999999999</ele>
        <time>2011-01-02T20:07:08Z</time>
      </trkpt>
      <trkpt lat="32.682754984125495" lon="-4.708885978907347">
        <ele>1498.489</ele>
        <time>2011-01-02T20:07:16Z</time>
      </trkpt>
      <trkpt lat="32.682413002476096" lon="-4.710222976282239">
        <ele>1494.6369999999999</ele>
        <time>2011-01-02T20:07:25Z</time>
      </trkpt>
      <trkpt lat="32.682132041081786" lon="-4.712081998586655">
        <ele>1494.192</ele>
        <time>2011-01-02T20:07:37Z</time>
      </trkpt>
      <trkpt lat="32.681917967274785" lon="-4.712929995730519">
        <ele>1495.3520000000001</ele>
        <time>2011-01-02T20:07:44Z</time>
      </trkpt>
      <trkpt lat="32.681858958676457" lon="-4.713172987103462">
        <ele>1495.4570000000001</ele>
        <time>2011-01-02T20:07:49Z</time>
      </trkpt>
      <trkpt lat="32.681663995608687" lon="-4.71334096044302">
        <ele>1495.847</ele>
        <time>2011-01-02T20:08:09Z</time>
      </trkpt>
      <trkpt lat="32.681663995608687" lon="-4.713185979053378">
        <ele>1497.106</ele>
        <time>2011-01-02T20:08:41Z</time>
      </trkpt>
      <trkpt lat="32.681614961475134" lon="-4.713161000981927">
        <ele>1496.0170000000001</ele>
        <time>2011-01-02T20:08:57Z</time>
      </trkpt>
    </trkseg>
  </trk>

  <trk>
    <name>110103---Marr</name>
    <extensions>
      <gpxx:TrackExtension xmlns:gpxx="http://www.garmin.com/xmlschemas/GpxExtensions/v3">
        <gpxx:DisplayColor>Blue</gpxx:DisplayColor>
      </gpxx:TrackExtension>
    </extensions>
    <trkseg>
      <trkpt lat="32.681688973680139" lon="-4.713264014571905">
        <ele>1509.8879999999999</ele>
        <time>2011-01-03T07:28:34Z</time>
      </trkpt>
      <trkpt lat="32.681700037792325" lon="-4.71372501924634">
        <ele>1509.8879999999999</ele>
        <time>2011-01-03T07:29:52Z</time>
      </trkpt>
      <trkpt lat="32.681556958705187" lon="-4.714404037222266">
        <ele>1507.4849999999999</ele>
        <time>2011-01-03T07:29:58Z</time>
      </trkpt>
      <trkpt lat="32.681222017854452" lon="-4.715655958279967">
        <ele>1503.6389999999999</ele>
        <time>2011-01-03T07:30:06Z</time>
      </trkpt>
      <trkpt lat="32.681125039234757" lon="-4.716594982892275">
        <ele>1500.2750000000001</ele>
        <time>2011-01-03T07:30:12Z</time>
      </trkpt>
      <trkpt lat="32.681102994829416" lon="-4.71754901111126">
        <ele>1497.8710000000001</ele>
        <time>2011-01-03T07:30:20Z</time>
      </trkpt>
      <trkpt lat="32.681095032021403" lon="-4.718307992443442">
        <ele>1495.9490000000001</ele>
        <time>2011-01-03T07:30:28Z</time>
      </trkpt>
      <trkpt lat="32.68106997013092" lon="-4.719296973198652">
        <ele>1492.5840000000001</ele>
        <time>2011-01-03T07:30:35Z</time>
      </trkpt>
      <trkpt lat="32.680942984297872" lon="-4.720718963071704">
        <ele>1489.2190000000001</ele>
        <time>2011-01-03T07:30:43Z</time>
      </trkpt>
      <trkpt lat="32.680577030405402" lon="-4.72309397533536">
        <ele>1487.297</ele>
        <time>2011-01-03T07:30:55Z</time>
      </trkpt>
      <trkpt lat="32.680349964648485" lon="-4.724474977701902">
        <ele>1489.7</ele>
        <time>2011-01-03T07:31:03Z</time>
      </trkpt>
      <trkpt lat="32.679974958300591" lon="-4.726019008085132">
        <ele>1493.5450000000001</ele>
        <time>2011-01-03T07:31:13Z</time>
      </trkpt>
      <trkpt lat="32.679691985249519" lon="-4.727105973288417">
        <ele>1493.0650000000001</ele>
        <time>2011-01-03T07:31:22Z</time>
      </trkpt>
      <trkpt lat="32.679399037733674" lon="-4.728154968470335">
        <ele>1490.181</ele>
        <time>2011-01-03T07:31:32Z</time>
      </trkpt>
      <trkpt lat="32.679102988913655" lon="-4.729284010827541">
        <ele>1487.297</ele>
        <time>2011-01-03T07:31:42Z</time>
      </trkpt>
      <trkpt lat="32.678837031126022" lon="-4.730280032381415">
        <ele>1485.374</ele>
        <time>2011-01-03T07:31:53Z</time>
      </trkpt>
      <trkpt lat="32.678681965917349" lon="-4.73091303370893">
        <ele>1484.413</ele>
        <time>2011-01-03T07:32:03Z</time>
      </trkpt>
      <trkpt lat="32.678614994511008" lon="-4.731605965644121">
        <ele>1482.971</ele>
        <time>2011-01-03T07:32:14Z</time>
      </trkpt>
      <trkpt lat="32.678713984787464" lon="-4.732411969453096">
        <ele>1482.01</ele>
        <time>2011-01-03T07:32:25Z</time>
      </trkpt>
      <trkpt lat="32.67907097004354" lon="-4.733295002952218">
        <ele>1481.048</ele>
        <time>2011-01-03T07:32:37Z</time>
      </trkpt>
      <trkpt lat="32.679485036060214" lon="-4.734241990372539">
        <ele>1477.684</ele>
        <time>2011-01-03T07:32:49Z</time>
      </trkpt>
      <trkpt lat="32.679633982479572" lon="-4.73495596088469">
        <ele>1474.8</ele>
        <time>2011-01-03T07:32:57Z</time>
      </trkpt>
      <trkpt lat="32.679660972207785" lon="-4.736019959673286">
        <ele>1474.319</ele>
        <time>2011-01-03T07:33:06Z</time>
      </trkpt>
      <trkpt lat="32.679466009140015" lon="-4.737098962068558">
        <ele>1474.8</ele>
        <time>2011-01-03T07:33:16Z</time>
      </trkpt>
      <trkpt lat="32.679260987788439" lon="-4.738187016919255">
        <ele>1476.722</ele>
        <time>2011-01-03T07:33:27Z</time>
      </trkpt>
      <trkpt lat="32.679159985855222" lon="-4.739151019603014">
        <ele>1477.203</ele>
        <time>2011-01-03T07:33:38Z</time>
      </trkpt>
      <trkpt lat="32.67928303219378" lon="-4.740080991759896">
        <ele>1477.684</ele>
        <time>2011-01-03T07:33:49Z</time>
      </trkpt>
      <trkpt lat="32.679572040215135" lon="-4.740535039454699">
        <ele>1476.722</ele>
        <time>2011-01-03T07:33:57Z</time>
      </trkpt>
      <trkpt lat="32.679796004667878" lon="-4.740584995597601">
        <ele>1476.722</ele>
        <time>2011-01-03T07:34:01Z</time>
      </trkpt>
      <trkpt lat="32.680508969351649" lon="-4.740563035011292">
        <ele>1476.722</ele>
        <time>2011-01-03T07:34:09Z</time>
      </trkpt>
      <trkpt lat="32.681392002850771" lon="-4.740752968937159">
        <ele>1477.684</ele>
        <time>2011-01-03T07:34:18Z</time>
      </trkpt>
      <trkpt lat="32.68225098028779" lon="-4.741167034953833">
        <ele>1478.164</ele>
        <time>2011-01-03T07:34:27Z</time>
      </trkpt>
      <trkpt lat="32.682896973565221" lon="-4.741815961897373">
        <ele>1477.684</ele>
        <time>2011-01-03T07:34:35Z</time>
      </trkpt>
      <trkpt lat="32.683480018749833" lon="-4.74279697984457">
        <ele>1476.242</ele>
        <time>2011-01-03T07:34:46Z</time>
      </trkpt>
      <trkpt lat="32.683825017884374" lon="-4.743015998974443">
        <ele>1474.319</ele>
        <time>2011-01-03T07:34:51Z</time>
      </trkpt>
      <trkpt lat="32.684915000572801" lon="-4.743392011150718">
        <ele>1471.4349999999999</ele>
        <time>2011-01-03T07:35:04Z</time>
      </trkpt>
      <trkpt lat="32.685909010469913" lon="-4.74376299418509">
        <ele>1468.0709999999999</ele>
        <time>2011-01-03T07:35:17Z</time>
      </trkpt>
      <trkpt lat="32.686681989580393" lon="-4.744375962764025">
        <ele>1463.7439999999999</ele>
        <time>2011-01-03T07:35:27Z</time>
      </trkpt>
      <trkpt lat="32.68753501586616" lon="-4.745388999581337">
        <ele>1457.4960000000001</ele>
        <time>2011-01-03T07:35:39Z</time>
      </trkpt>
      <trkpt lat="32.688215961679816" lon="-4.74619198590517">
        <ele>1455.5730000000001</ele>
        <time>2011-01-03T07:35:50Z</time>
      </trkpt>
      <trkpt lat="32.688638996332884" lon="-4.746710993349552">
        <ele>1455.0930000000001</ele>
        <time>2011-01-03T07:35:59Z</time>
      </trkpt>
      <trkpt lat="32.689043004065752" lon="-4.747193036600947">
        <ele>1454.6120000000001</ele>
        <time>2011-01-03T07:36:05Z</time>
      </trkpt>
      <trkpt lat="32.690079007297754" lon="-4.748416962102056">
        <ele>1455.0930000000001</ele>
        <time>2011-01-03T07:36:18Z</time>
      </trkpt>
      <trkpt lat="32.691280972212553" lon="-4.749838029965758">
        <ele>1456.5350000000001</ele>
        <time>2011-01-03T07:36:32Z</time>
      </trkpt>
      <trkpt lat="32.692276993766427" lon="-4.751016022637487">
        <ele>1457.9770000000001</ele>
        <time>2011-01-03T07:36:45Z</time>
      </trkpt>
      <trkpt lat="32.692625010386109" lon="-4.751393040642142">
        <ele>1458.9380000000001</ele>
        <time>2011-01-03T07:36:52Z</time>
      </trkpt>
      <trkpt lat="32.693139994516969" lon="-4.751822026446462">
        <ele>1460.3800000000001</ele>
        <time>2011-01-03T07:37:01Z</time>
      </trkpt>
      <trkpt lat="32.693985980004072" lon="-4.75239903666079">
        <ele>1459.8989999999999</ele>
        <time>2011-01-03T07:37:10Z</time>
      </trkpt>
      <trkpt lat="32.69496900960803" lon="-4.752994989976287">
        <ele>1459.4190000000001</ele>
        <time>2011-01-03T07:37:18Z</time>
      </trkpt>
      <trkpt lat="32.695880038663745" lon="-4.753190958872438">
        <ele>1459.4190000000001</ele>
        <time>2011-01-03T07:37:24Z</time>
      </trkpt>
      <trkpt lat="32.69735399633646" lon="-4.75353897549212">
        <ele>1458.9380000000001</ele>
        <time>2011-01-03T07:37:34Z</time>
      </trkpt>
      <trkpt lat="32.698281034827232" lon="-4.754185974597931">
        <ele>1457.0150000000001</ele>
        <time>2011-01-03T07:37:41Z</time>
      </trkpt>
      <trkpt lat="32.699033981189132" lon="-4.75517101585865">
        <ele>1455.5730000000001</ele>
        <time>2011-01-03T07:37:48Z</time>
      </trkpt>
      <trkpt lat="32.699517030268908" lon="-4.756217999383807">
        <ele>1456.5350000000001</ele>
        <time>2011-01-03T07:37:55Z</time>
      </trkpt>
      <trkpt lat="32.700380031019449" lon="-4.758193027228117">
        <ele>1458.4570000000001</ele>
        <time>2011-01-03T07:38:09Z</time>
      </trkpt>
      <trkpt lat="32.700899038463831" lon="-4.759399015456438">
        <ele>1457.9770000000001</ele>
        <time>2011-01-03T07:38:17Z</time>
      </trkpt>
      <trkpt lat="32.701117973774672" lon="-4.760393025353551">
        <ele>1457.9770000000001</ele>
        <time>2011-01-03T07:38:23Z</time>
      </trkpt>
      <trkpt lat="32.70104899071157" lon="-4.761589961126447">
        <ele>1458.9380000000001</ele>
        <time>2011-01-03T07:38:29Z</time>
      </trkpt>
      <trkpt lat="32.70081396214664" lon="-4.763366002589464">
        <ele>1459.4190000000001</ele>
        <time>2011-01-03T07:38:37Z</time>
      </trkpt>
      <trkpt lat="32.70074900239706" lon="-4.764777012169361">
        <ele>1457.4960000000001</ele>
        <time>2011-01-03T07:38:44Z</time>
      </trkpt>
      <trkpt lat="32.701043039560318" lon="-4.766317019239068">
        <ele>1452.2090000000001</ele>
        <time>2011-01-03T07:38:51Z</time>
      </trkpt>
      <trkpt lat="32.701702024787664" lon="-4.769596019759774">
        <ele>1445.96</ele>
        <time>2011-01-03T07:39:05Z</time>
      </trkpt>
      <trkpt lat="32.70236000418663" lon="-4.772867979481816">
        <ele>1443.557</ele>
        <time>2011-01-03T07:39:19Z</time>
      </trkpt>
      <trkpt lat="32.702814973890781" lon="-4.774253005161881">
        <ele>1442.596</ele>
        <time>2011-01-03T07:39:26Z</time>
      </trkpt>
      <trkpt lat="32.703911997377872" lon="-4.77601102553308">
        <ele>1433.463</ele>
        <time>2011-01-03T07:39:36Z</time>
      </trkpt>
      <trkpt lat="32.705492991954088" lon="-4.778559040278196">
        <ele>1425.2919999999999</ele>
        <time>2011-01-03T07:39:50Z</time>
      </trkpt>
      <trkpt lat="32.705845031887293" lon="-4.779613986611366">
        <ele>1425.2919999999999</ele>
        <time>2011-01-03T07:39:55Z</time>
      </trkpt>
      <trkpt lat="32.705922983586788" lon="-4.781013010069728">
        <ele>1427.2149999999999</ele>
        <time>2011-01-03T07:40:01Z</time>
      </trkpt>
      <trkpt lat="32.706035971641541" lon="-4.783906023949385">
        <ele>1432.502</ele>
        <time>2011-01-03T07:40:14Z</time>
      </trkpt>
      <trkpt lat="32.70616102963686" lon="-4.787018978968263">
        <ele>1433.463</ele>
        <time>2011-01-03T07:40:28Z</time>
      </trkpt>
      <trkpt lat="32.706305030733347" lon="-4.790152972564101">
        <ele>1438.27</ele>
        <time>2011-01-03T07:40:41Z</time>
      </trkpt>
      <trkpt lat="32.706447020173073" lon="-4.793396014720202">
        <ele>1442.596</ele>
        <time>2011-01-03T07:40:54Z</time>
      </trkpt>
      <trkpt lat="32.706534024327993" lon="-4.796880958601832">
        <ele>1445.479</ele>
        <time>2011-01-03T07:41:08Z</time>
      </trkpt>
      <trkpt lat="32.706235041841865" lon="-4.798358017578721">
        <ele>1448.8440000000001</ele>
        <time>2011-01-03T07:41:14Z</time>
      </trkpt>
      <trkpt lat="32.705583013594151" lon="-4.801071994006634">
        <ele>1451.7280000000001</ele>
        <time>2011-01-03T07:41:25Z</time>
      </trkpt>
      <trkpt lat="32.704807016998529" lon="-4.804355017840862">
        <ele>1455.0930000000001</ele>
        <time>2011-01-03T07:41:39Z</time>
      </trkpt>
      <trkpt lat="32.704586992040277" lon="-4.804991036653519">
        <ele>1456.0540000000001</ele>
        <time>2011-01-03T07:41:42Z</time>
      </trkpt>
      <trkpt lat="32.703740000724792" lon="-4.806210016831756">
        <ele>1457.9770000000001</ele>
        <time>2011-01-03T07:41:49Z</time>
      </trkpt>
      <trkpt lat="32.701891958713531" lon="-4.808602966368198">
        <ele>1461.8219999999999</ele>
        <time>2011-01-03T07:42:03Z</time>
      </trkpt>
      <trkpt lat="32.700073001906276" lon="-4.811012009158731">
        <ele>1472.396</ele>
        <time>2011-01-03T07:42:16Z</time>
      </trkpt>
      <trkpt lat="32.698977990075946" lon="-4.812582023441792">
        <ele>1476.722</ele>
        <time>2011-01-03T07:42:25Z</time>
      </trkpt>
      <trkpt lat="32.698675990104675" lon="-4.813594976440072">
        <ele>1475.761</ele>
        <time>2011-01-03T07:42:30Z</time>
      </trkpt>
      <trkpt lat="32.698410032317042" lon="-4.815691038966179">
        <ele>1477.203</ele>
        <time>2011-01-03T07:42:39Z</time>
      </trkpt>
      <trkpt lat="32.698117000982165" lon="-4.817986004054546">
        <ele>1478.164</ele>
        <time>2011-01-03T07:42:48Z</time>
      </trkpt>
      <trkpt lat="32.697784993797541" lon="-4.820624040439725">
        <ele>1479.606</ele>
        <time>2011-01-03T07:42:57Z</time>
      </trkpt>
      <trkpt lat="32.697433959692717" lon="-4.823822993785143">
        <ele>1485.855</ele>
        <time>2011-01-03T07:43:08Z</time>
      </trkpt>
      <trkpt lat="32.697494979947805" lon="-4.827386979013681">
        <ele>1487.778</ele>
        <time>2011-01-03T07:43:20Z</time>
      </trkpt>
      <trkpt lat="32.697579972445965" lon="-4.832190982997417">
        <ele>1492.104</ele>
        <time>2011-01-03T07:43:36Z</time>
      </trkpt>
      <trkpt lat="32.697643004357815" lon="-4.836434992030263">
        <ele>1494.9870000000001</ele>
        <time>2011-01-03T07:43:50Z</time>
      </trkpt>
      <trkpt lat="32.697708969935775" lon="-4.840611023828387">
        <ele>1501.7170000000001</ele>
        <time>2011-01-03T07:44:03Z</time>
      </trkpt>
      <trkpt lat="32.697782982140779" lon="-4.842284973710775">
        <ele>1507.0039999999999</ele>
        <time>2011-01-03T07:44:09Z</time>
      </trkpt>
      <trkpt lat="32.697889013215899" lon="-4.842786965891719">
        <ele>1508.4459999999999</ele>
        <time>2011-01-03T07:44:11Z</time>
      </trkpt>
      <trkpt lat="32.698467029258609" lon="-4.843917014077306">
        <ele>1511.8109999999999</ele>
        <time>2011-01-03T07:44:16Z</time>
      </trkpt>
      <trkpt lat="32.698626033961773" lon="-4.844111977145076">
        <ele>1512.2909999999999</ele>
        <time>2011-01-03T07:44:17Z</time>
      </trkpt>
      <trkpt lat="32.700755037367344" lon="-4.846283979713917">
        <ele>1518.059</ele>
        <time>2011-01-03T07:44:29Z</time>
      </trkpt>
      <trkpt lat="32.703147986903787" lon="-4.848745996132493">
        <ele>1528.634</ele>
        <time>2011-01-03T07:44:43Z</time>
      </trkpt>
      <trkpt lat="32.704736022278666" lon="-4.850636031478643">
        <ele>1535.8440000000001</ele>
        <time>2011-01-03T07:44:53Z</time>
      </trkpt>
      <trkpt lat="32.705166013911366" lon="-4.851851994171739">
        <ele>1540.6500000000001</ele>
        <time>2011-01-03T07:44:58Z</time>
      </trkpt>
      <trkpt lat="32.705896999686956" lon="-4.855113979429007">
        <ele>1543.0530000000001</ele>
        <time>2011-01-03T07:45:10Z</time>
      </trkpt>
      <trkpt lat="32.7065060287714" lon="-4.85776299610734">
        <ele>1543.0530000000001</ele>
        <time>2011-01-03T07:45:20Z</time>
      </trkpt>
      <trkpt lat="32.707170965149999" lon="-4.860653998330236">
        <ele>1541.6110000000001</ele>
        <time>2011-01-03T07:45:32Z</time>
      </trkpt>
      <trkpt lat="32.708003958687186" lon="-4.864253019914031">
        <ele>1548.8209999999999</ele>
        <time>2011-01-03T07:45:46Z</time>
      </trkpt>
      <trkpt lat="32.708421964198351" lon="-4.866072982549667">
        <ele>1551.7049999999999</ele>
        <time>2011-01-03T07:45:54Z</time>
      </trkpt>
      <trkpt lat="32.708898978307843" lon="-4.868149012327194">
        <ele>1552.6669999999999</ele>
        <time>2011-01-03T07:46:05Z</time>
      </trkpt>
      <trkpt lat="32.709375992417336" lon="-4.870239039883018">
        <ele>1554.1089999999999</ele>
        <time>2011-01-03T07:46:16Z</time>
      </trkpt>
      <trkpt lat="32.709822999313474" lon="-4.871979961171746">
        <ele>1556.992</ele>
        <time>2011-01-03T07:46:25Z</time>
      </trkpt>
      <trkpt lat="32.710339995101094" lon="-4.872895013540983">
        <ele>1556.992</ele>
        <time>2011-01-03T07:46:30Z</time>
      </trkpt>
      <trkpt lat="32.711268039420247" lon="-4.874342987313867">
        <ele>1554.1089999999999</ele>
        <time>2011-01-03T07:46:37Z</time>
      </trkpt>
      <trkpt lat="32.712676031515002" lon="-4.876457992941141">
        <ele>1553.6279999999999</ele>
        <time>2011-01-03T07:46:46Z</time>
      </trkpt>
      <trkpt lat="32.714466992765665" lon="-4.879124024882913">
        <ele>1552.1859999999999</ele>
        <time>2011-01-03T07:46:57Z</time>
      </trkpt>
      <trkpt lat="32.716115964576602" lon="-4.881631974130869">
        <ele>1548.3409999999999</ele>
        <time>2011-01-03T07:47:08Z</time>
      </trkpt>
      <trkpt lat="32.717481963336468" lon="-4.883724013343453">
        <ele>1543.0530000000001</ele>
        <time>2011-01-03T07:47:18Z</time>
      </trkpt>
      <trkpt lat="32.718621985986829" lon="-4.885316994041205">
        <ele>1539.2080000000001</ele>
        <time>2011-01-03T07:47:27Z</time>
      </trkpt>
      <trkpt lat="32.719551958143711" lon="-4.885991988703609">
        <ele>1537.7660000000001</ele>
        <time>2011-01-03T07:47:33Z</time>
      </trkpt>
      <trkpt lat="32.720760963857174" lon="-4.886981975287199">
        <ele>1534.8820000000001</ele>
        <time>2011-01-03T07:47:41Z</time>
      </trkpt>
      <trkpt lat="32.721656989306211" lon="-4.88831402733922">
        <ele>1531.998</ele>
        <time>2011-01-03T07:47:48Z</time>
      </trkpt>
      <trkpt lat="32.723015025258064" lon="-4.890433978289366">
        <ele>1524.308</ele>
        <time>2011-01-03T07:47:58Z</time>
      </trkpt>
      <trkpt lat="32.723978022113442" lon="-4.891896033659577">
        <ele>1518.54</ele>
        <time>2011-01-03T07:48:04Z</time>
      </trkpt>
      <trkpt lat="32.725689020007849" lon="-4.89450397901237">
        <ele>1508.4459999999999</ele>
        <time>2011-01-03T07:48:15Z</time>
      </trkpt>
      <trkpt lat="32.727747028693557" lon="-4.897650964558125">
        <ele>1500.2750000000001</ele>
        <time>2011-01-03T07:48:29Z</time>
      </trkpt>
      <trkpt lat="32.72990302182734" lon="-4.900953015312553">
        <ele>1491.1420000000001</ele>
        <time>2011-01-03T07:48:43Z</time>
      </trkpt>
      <trkpt lat="32.732186000794172" lon="-4.904426978901029">
        <ele>1489.7</ele>
        <time>2011-01-03T07:48:58Z</time>
      </trkpt>
      <trkpt lat="32.734235040843487" lon="-4.907571030780673">
        <ele>1484.413</ele>
        <time>2011-01-03T07:49:12Z</time>
      </trkpt>
      <trkpt lat="32.735374979674816" lon="-4.909172980114818">
        <ele>1482.01</ele>
        <time>2011-01-03T07:49:20Z</time>
      </trkpt>
      <trkpt lat="32.73555301129818" lon="-4.909331984817982">
        <ele>1481.529</ele>
        <time>2011-01-03T07:49:21Z</time>
      </trkpt>
      <trkpt lat="32.736826976761222" lon="-4.910011002793908">
        <ele>1482.01</ele>
        <time>2011-01-03T07:49:27Z</time>
      </trkpt>
      <trkpt lat="32.739217998459935" lon="-4.910996966063976">
        <ele>1481.048</ele>
        <time>2011-01-03T07:49:38Z</time>
      </trkpt>
      <trkpt lat="32.742389040067792" lon="-4.912337986752391">
        <ele>1470.9549999999999</ele>
        <time>2011-01-03T07:49:54Z</time>
      </trkpt>
      <trkpt lat="32.743434011936188" lon="-4.912778958678246">
        <ele>1470.9549999999999</ele>
        <time>2011-01-03T07:50:00Z</time>
      </trkpt>
      <trkpt lat="32.744423998519778" lon="-4.913117000833154">
        <ele>1470.9549999999999</ele>
        <time>2011-01-03T07:50:07Z</time>
      </trkpt>
      <trkpt lat="32.745163030922413" lon="-4.913181960582733">
        <ele>1472.877</ele>
        <time>2011-01-03T07:50:13Z</time>
      </trkpt>
      <trkpt lat="32.745997030287981" lon="-4.913144996389747">
        <ele>1474.8</ele>
        <time>2011-01-03T07:50:20Z</time>
      </trkpt>
      <trkpt lat="32.747066980227828" lon="-4.913341971114278">
        <ele>1475.761</ele>
        <time>2011-01-03T07:50:27Z</time>
      </trkpt>
      <trkpt lat="32.747983038425446" lon="-4.913943959400058">
        <ele>1478.645</ele>
        <time>2011-01-03T07:50:33Z</time>
      </trkpt>
      <trkpt lat="32.748697008937597" lon="-4.914821041747928">
        <ele>1483.451</ele>
        <time>2011-01-03T07:50:39Z</time>
      </trkpt>
      <trkpt lat="32.749890005216002" lon="-4.916591970250011">
        <ele>1489.7</ele>
        <time>2011-01-03T07:50:50Z</time>
      </trkpt>
      <trkpt lat="32.751375027000904" lon="-4.918776964768767">
        <ele>1496.9100000000001</ele>
        <time>2011-01-03T07:51:03Z</time>
      </trkpt>
      <trkpt lat="32.752317991107702" lon="-4.920150004327297">
        <ele>1498.8330000000001</ele>
        <time>2011-01-03T07:51:10Z</time>
      </trkpt>
      <trkpt lat="32.754061007872224" lon="-4.922635992988944">
        <ele>1498.3520000000001</ele>
        <time>2011-01-03T07:51:22Z</time>
      </trkpt>
      <trkpt lat="32.755826991051435" lon="-4.925177972763777">
        <ele>1501.7170000000001</ele>
        <time>2011-01-03T07:51:34Z</time>
      </trkpt>
      <trkpt lat="32.756822006776929" lon="-4.926225962117314">
        <ele>1503.6389999999999</ele>
        <time>2011-01-03T07:51:40Z</time>
      </trkpt>
      <trkpt lat="32.757691964507103" lon="-4.926624018698931">
        <ele>1505.0809999999999</ele>
        <time>2011-01-03T07:51:44Z</time>
      </trkpt>
      <trkpt lat="32.760124979540706" lon="-4.927357016131282">
        <ele>1505.0809999999999</ele>
        <time>2011-01-03T07:51:54Z</time>
      </trkpt>
      <trkpt lat="32.764250971376896" lon="-4.928608015179634">
        <ele>1508.4459999999999</ele>
        <time>2011-01-03T07:52:10Z</time>
      </trkpt>
      <trkpt lat="32.767813028767705" lon="-4.929685005918145">
        <ele>1507.9649999999999</ele>
        <time>2011-01-03T07:52:23Z</time>
      </trkpt>
      <trkpt lat="32.770156022161245" lon="-4.930392019450665">
        <ele>1507.4849999999999</ele>
        <time>2011-01-03T07:52:32Z</time>
      </trkpt>
      <trkpt lat="32.773241987451911" lon="-4.931339006870985">
        <ele>1510.8489999999999</ele>
        <time>2011-01-03T07:52:45Z</time>
      </trkpt>
      <trkpt lat="32.776593994349241" lon="-4.932388002052903">
        <ele>1512.2909999999999</ele>
        <time>2011-01-03T07:52:59Z</time>
      </trkpt>
      <trkpt lat="32.77927896939218" lon="-4.93323901668191">
        <ele>1514.2139999999999</ele>
        <time>2011-01-03T07:53:11Z</time>
      </trkpt>
      <trkpt lat="32.783041018992662" lon="-4.934441987425089">
        <ele>1514.2139999999999</ele>
        <time>2011-01-03T07:53:28Z</time>
      </trkpt>
      <trkpt lat="32.786031011492014" lon="-4.935392998158932">
        <ele>1514.2139999999999</ele>
        <time>2011-01-03T07:53:41Z</time>
      </trkpt>
      <trkpt lat="32.788679022341967" lon="-4.936235966160893">
        <ele>1516.617</ele>
        <time>2011-01-03T07:53:53Z</time>
      </trkpt>
      <trkpt lat="32.790581965819001" lon="-4.93689302355051">
        <ele>1517.578</ele>
        <time>2011-01-03T07:54:03Z</time>
      </trkpt>
      <trkpt lat="32.791387969627976" lon="-4.937524013221264">
        <ele>1518.059</ele>
        <time>2011-01-03T07:54:08Z</time>
      </trkpt>
      <trkpt lat="32.791994987055659" lon="-4.938419032841921">
        <ele>1517.578</ele>
        <time>2011-01-03T07:54:13Z</time>
      </trkpt>
      <trkpt lat="32.79343499802053" lon="-4.940878031775355">
        <ele>1513.252</ele>
        <time>2011-01-03T07:54:25Z</time>
      </trkpt>
      <trkpt lat="32.794525986537337" lon="-4.942362969741225">
        <ele>1510.8489999999999</ele>
        <time>2011-01-03T07:54:33Z</time>
      </trkpt>
      <trkpt lat="32.795471968129277" lon="-4.942910978570581">
        <ele>1508.9269999999999</ele>
        <time>2011-01-03T07:54:38Z</time>
      </trkpt>
      <trkpt lat="32.797780008986592" lon="-4.943957962095738">
        <ele>1507.0039999999999</ele>
        <time>2011-01-03T07:54:50Z</time>
      </trkpt>
      <trkpt lat="32.799355974420905" lon="-4.944648966193199">
        <ele>1504.1199999999999</ele>
        <time>2011-01-03T07:54:57Z</time>
      </trkpt>
      <trkpt lat="32.799596032127738" lon="-4.944746028631926">
        <ele>1503.6389999999999</ele>
        <time>2011-01-03T07:54:58Z</time>
      </trkpt>
      <trkpt lat="32.803162029013038" lon="-4.947004029527307">
        <ele>1492.104</ele>
        <time>2011-01-03T07:55:16Z</time>
      </trkpt>
      <trkpt lat="32.805337971076369" lon="-4.948907978832722">
        <ele>1490.181</ele>
        <time>2011-01-03T07:55:28Z</time>
      </trkpt>
      <trkpt lat="32.807704014703631" lon="-4.950962970033288">
        <ele>1485.374</ele>
        <time>2011-01-03T07:55:40Z</time>
      </trkpt>
      <trkpt lat="32.810775982216001" lon="-4.953613998368383">
        <ele>1481.048</ele>
        <time>2011-01-03T07:55:56Z</time>
      </trkpt>
      <trkpt lat="32.812264021486044" lon="-4.954899027943611">
        <ele>1476.722</ele>
        <time>2011-01-03T07:56:05Z</time>
      </trkpt>
      <trkpt lat="32.814185991883278" lon="-4.956567026674748">
        <ele>1472.877</ele>
        <time>2011-01-03T07:56:18Z</time>
      </trkpt>
      <trkpt lat="32.815632959827781" lon="-4.95782196521759">
        <ele>1470.9549999999999</ele>
        <time>2011-01-03T07:56:29Z</time>
      </trkpt>
      <trkpt lat="32.816830985248089" lon="-4.958740035071969">
        <ele>1469.5129999999999</ele>
        <time>2011-01-03T07:56:39Z</time>
      </trkpt>
      <trkpt lat="32.817996991798282" lon="-4.959341017529368">
        <ele>1470.4739999999999</ele>
        <time>2011-01-03T07:56:49Z</time>
      </trkpt>
      <trkpt lat="32.818956971168518" lon="-4.95960496366024">
        <ele>1470.9549999999999</ele>
        <time>2011-01-03T07:56:58Z</time>
      </trkpt>
      <trkpt lat="32.819514032453299" lon="-4.959641005843878">
        <ele>1470.9549999999999</ele>
        <time>2011-01-03T07:57:06Z</time>
      </trkpt>
      <trkpt lat="32.819821983575821" lon="-4.959648968651891">
        <ele>1470.9549999999999</ele>
        <time>2011-01-03T07:57:13Z</time>
      </trkpt>
      <trkpt lat="32.820490021258593" lon="-4.959681993350387">
        <ele>1471.4349999999999</ele>
        <time>2011-01-03T07:57:21Z</time>
      </trkpt>
      <trkpt lat="32.821385962888598" lon="-4.960012994706631">
        <ele>1470.9549999999999</ele>
        <time>2011-01-03T07:57:29Z</time>
      </trkpt>
      <trkpt lat="32.822493966668844" lon="-4.960795026272535">
        <ele>1471.9159999999999</ele>
        <time>2011-01-03T07:57:39Z</time>
      </trkpt>
      <trkpt lat="32.823552014306188" lon="-4.961368013173342">
        <ele>1474.319</ele>
        <time>2011-01-03T07:57:47Z</time>
      </trkpt>
      <trkpt lat="32.824609978124499" lon="-4.961478989571333">
        <ele>1474.8</ele>
        <time>2011-01-03T07:57:54Z</time>
      </trkpt>
      <trkpt lat="32.826313013210893" lon="-4.961338005959988">
        <ele>1473.3579999999999</ele>
        <time>2011-01-03T07:58:04Z</time>
      </trkpt>
      <trkpt lat="32.828516028821468" lon="-4.961183024570346">
        <ele>1471.4349999999999</ele>
        <time>2011-01-03T07:58:16Z</time>
      </trkpt>
      <trkpt lat="32.830330962315202" lon="-4.96104103513062">
        <ele>1472.877</ele>
        <time>2011-01-03T07:58:25Z</time>
      </trkpt>
      <trkpt lat="32.833062959834933" lon="-4.960798965767026">
        <ele>1473.838</ele>
        <time>2011-01-03T07:58:38Z</time>
      </trkpt>
      <trkpt lat="32.834067028015852" lon="-4.96035497635603">
        <ele>1474.319</ele>
        <time>2011-01-03T07:58:43Z</time>
      </trkpt>
      <trkpt lat="32.835430009290576" lon="-4.95923699811101">
        <ele>1471.4349999999999</ele>
        <time>2011-01-03T07:58:50Z</time>
      </trkpt>
      <trkpt lat="32.837521964684129" lon="-4.957470009103417">
        <ele>1472.877</ele>
        <time>2011-01-03T07:59:00Z</time>
      </trkpt>
      <trkpt lat="32.840118007734418" lon="-4.95530404150486">
        <ele>1472.877</ele>
        <time>2011-01-03T07:59:13Z</time>
      </trkpt>
      <trkpt lat="32.842951007187366" lon="-4.952945038676262">
        <ele>1471.9159999999999</ele>
        <time>2011-01-03T07:59:27Z</time>
      </trkpt>
      <trkpt lat="32.844452038407326" lon="-4.951987992972136">
        <ele>1470.9549999999999</ele>
        <time>2011-01-03T07:59:34Z</time>
      </trkpt>
      <trkpt lat="32.845829017460346" lon="-4.95156898163259">
        <ele>1469.9929999999999</ele>
        <time>2011-01-03T07:59:40Z</time>
      </trkpt>
      <trkpt lat="32.846815986558795" lon="-4.95105299167335">
        <ele>1469.5129999999999</ele>
        <time>2011-01-03T07:59:45Z</time>
      </trkpt>
      <trkpt lat="32.847645962610841" lon="-4.950230978429318">
        <ele>1465.6669999999999</ele>
        <time>2011-01-03T07:59:50Z</time>
      </trkpt>
      <trkpt lat="32.848898973315954" lon="-4.948862968012691">
        <ele>1461.8219999999999</ele>
        <time>2011-01-03T07:59:58Z</time>
      </trkpt>
      <trkpt lat="32.8498550131917" lon="-4.948341026902199">
        <ele>1461.3409999999999</ele>
        <time>2011-01-03T08:00:03Z</time>
      </trkpt>
      <trkpt lat="32.851156974211335" lon="-4.94804497808218">
        <ele>1462.3019999999999</ele>
        <time>2011-01-03T08:00:09Z</time>
      </trkpt>
      <trkpt lat="32.853441964834929" lon="-4.947532005608082">
        <ele>1464.7059999999999</ele>
        <time>2011-01-03T08:00:19Z</time>
      </trkpt>
      <trkpt lat="32.856475040316582" lon="-4.94653900153935">
        <ele>1467.5899999999999</ele>
        <time>2011-01-03T08:00:32Z</time>
      </trkpt>
      <trkpt lat="32.858926998451352" lon="-4.945754958316684">
        <ele>1476.722</ele>
        <time>2011-01-03T08:00:43Z</time>
      </trkpt>
      <trkpt lat="32.860993975773454" lon="-4.945346005260944">
        <ele>1474.8</ele>
        <time>2011-01-03T08:00:52Z</time>
      </trkpt>
      <trkpt lat="32.863660007715225" lon="-4.944824986159802">
        <ele>1476.722</ele>
        <time>2011-01-03T08:01:03Z</time>
      </trkpt>
      <trkpt lat="32.866877987980843" lon="-4.944190979003906">
        <ele>1482.01</ele>
        <time>2011-01-03T08:01:16Z</time>
      </trkpt>
      <trkpt lat="32.869377974420786" lon="-4.943862995132804">
        <ele>1482.49</ele>
        <time>2011-01-03T08:01:26Z</time>
      </trkpt>
      <trkpt lat="32.871011020615697" lon="-4.943958967924118">
        <ele>1484.413</ele>
        <time>2011-01-03T08:01:33Z</time>
      </trkpt>
      <trkpt lat="32.873082021251321" lon="-4.944585012272">
        <ele>1481.529</ele>
        <time>2011-01-03T08:01:42Z</time>
      </trkpt>
      <trkpt lat="32.875522999092937" lon="-4.94533502496779">
        <ele>1483.451</ele>
        <time>2011-01-03T08:01:53Z</time>
      </trkpt>
      <trkpt lat="32.89551199413836" lon="-5.002973014488816">
        <ele>1562.28</ele>
        <time>2011-01-03T08:06:18Z</time>
      </trkpt>
      <trkpt lat="32.896802974864841" lon="-5.007002027705312">
        <ele>1573.8150000000001</ele>
        <time>2011-01-03T08:06:33Z</time>
      </trkpt>
      <trkpt lat="32.898313980549574" lon="-5.012049023061991">
        <ele>1580.0640000000001</ele>
        <time>2011-01-03T08:06:51Z</time>
      </trkpt>
      <trkpt lat="32.899505970999599" lon="-5.016082981601358">
        <ele>1587.2739999999999</ele>
        <time>2011-01-03T08:07:05Z</time>
      </trkpt>
      <trkpt lat="32.900526970624924" lon="-5.019554011523724">
        <ele>1596.4069999999999</ele>
        <time>2011-01-03T08:07:17Z</time>
      </trkpt>
      <trkpt lat="32.901073973625898" lon="-5.021326029673219">
        <ele>1602.174</ele>
        <time>2011-01-03T08:07:24Z</time>
      </trkpt>
      <trkpt lat="32.901552999392152" lon="-5.022827982902527">
        <ele>1606.981</ele>
        <time>2011-01-03T08:07:31Z</time>
      </trkpt>
      <trkpt lat="32.902166973799467" lon="-5.02429498359561">
        <ele>1612.268</ele>
        <time>2011-01-03T08:07:39Z</time>
      </trkpt>
      <trkpt lat="32.902871975675225" lon="-5.025150021538138">
        <ele>1615.633</ele>
        <time>2011-01-03T08:07:45Z</time>
      </trkpt>
      <trkpt lat="32.9041269980371" lon="-5.026402026414871">
        <ele>1617.5550000000001</ele>
        <time>2011-01-03T08:07:56Z</time>
      </trkpt>
      <trkpt lat="32.904907017946243" lon="-5.027190009132028">
        <ele>1618.998</ele>
        <time>2011-01-03T08:08:05Z</time>
      </trkpt>
      <trkpt lat="32.905132994055748" lon="-5.027403999119997">
        <ele>1620.9200000000001</ele>
        <time>2011-01-03T08:08:10Z</time>
      </trkpt>
      <trkpt lat="32.905366010963917" lon="-5.02762402407825">
        <ele>1641.588</ele>
        <time>2011-01-03T08:11:30Z</time>
      </trkpt>
      <trkpt lat="32.905776975676417" lon="-5.028012022376061">
        <ele>1644.953</ele>
        <time>2011-01-03T08:11:37Z</time>
      </trkpt>
      <trkpt lat="32.906400002539158" lon="-5.02861401066184">
        <ele>1649.76</ele>
        <time>2011-01-03T08:11:44Z</time>
      </trkpt>
      <trkpt lat="32.907476993277669" lon="-5.029652025550604">
        <ele>1656.9690000000001</ele>
        <time>2011-01-03T08:11:53Z</time>
      </trkpt>
      <trkpt lat="32.908630007877946" lon="-5.030790958553553">
        <ele>1664.1790000000001</ele>
        <time>2011-01-03T08:12:01Z</time>
      </trkpt>
      <trkpt lat="32.910793041810393" lon="-5.03288702107966">
        <ele>1672.3510000000001</ele>
        <time>2011-01-03T08:12:15Z</time>
      </trkpt>
      <trkpt lat="32.912737978622317" lon="-5.034740008413792">
        <ele>1677.6379999999999</ele>
        <time>2011-01-03T08:12:27Z</time>
      </trkpt>
      <trkpt lat="32.914787018671632" lon="-5.036730039864779">
        <ele>1687.732</ele>
        <time>2011-01-03T08:12:39Z</time>
      </trkpt>
      <trkpt lat="32.916564987972379" lon="-5.03841002471745">
        <ele>1695.903</ele>
        <time>2011-01-03T08:12:49Z</time>
      </trkpt>
      <trkpt lat="32.918943017721176" lon="-5.040725022554398">
        <ele>1703.1130000000001</ele>
        <time>2011-01-03T08:13:02Z</time>
      </trkpt>
      <trkpt lat="32.920207008719444" lon="-5.04193402826786">
        <ele>1709.8420000000001</ele>
        <time>2011-01-03T08:13:10Z</time>
      </trkpt>
      <trkpt lat="32.920790975913405" lon="-5.04249201156199">
        <ele>1712.2449999999999</ele>
        <time>2011-01-03T08:13:15Z</time>
      </trkpt>
      <trkpt lat="32.921468988060951" lon="-5.043139010667801">
        <ele>1714.6489999999999</ele>
        <time>2011-01-03T08:13:23Z</time>
      </trkpt>
      <trkpt lat="32.922224029898643" lon="-5.043860021978617">
        <ele>1718.0129999999999</ele>
        <time>2011-01-03T08:13:29Z</time>
      </trkpt>
      <trkpt lat="32.923404034227133" lon="-5.044980011880398">
        <ele>1723.7809999999999</ele>
        <time>2011-01-03T08:13:37Z</time>
      </trkpt>
      <trkpt lat="32.925090976059437" lon="-5.046567963436246">
        <ele>1731.472</ele>
        <time>2011-01-03T08:13:47Z</time>
      </trkpt>
      <trkpt lat="32.926592007279396" lon="-5.047938991338015">
        <ele>1738.682</ele>
        <time>2011-01-03T08:13:56Z</time>
      </trkpt>
      <trkpt lat="32.927484009414911" lon="-5.048785982653499">
        <ele>1743.4880000000001</ele>
        <time>2011-01-03T08:14:03Z</time>
      </trkpt>
      <trkpt lat="32.928854031488299" lon="-5.050172014161944">
        <ele>1747.8140000000001</ele>
        <time>2011-01-03T08:14:15Z</time>
      </trkpt>
      <trkpt lat="32.930333018302917" lon="-5.051695005968213">
        <ele>1756.9469999999999</ele>
        <time>2011-01-03T08:14:28Z</time>
      </trkpt>
      <trkpt lat="32.930816989392042" lon="-5.052789011970162">
        <ele>1764.6369999999999</ele>
        <time>2011-01-03T08:14:35Z</time>
      </trkpt>
      <trkpt lat="32.931440016254783" lon="-5.053925011307001">
        <ele>1768.002</ele>
        <time>2011-01-03T08:14:43Z</time>
      </trkpt>
      <trkpt lat="32.932239985093474" lon="-5.054437983781099">
        <ele>1765.5989999999999</ele>
        <time>2011-01-03T08:14:49Z</time>
      </trkpt>
      <trkpt lat="32.932562017813325" lon="-5.054482994601131">
        <ele>1765.1179999999999</ele>
        <time>2011-01-03T08:14:51Z</time>
      </trkpt>
      <trkpt lat="32.93358301743865" lon="-5.054935030639172">
        <ele>1763.1949999999999</ele>
        <time>2011-01-03T08:14:58Z</time>
      </trkpt>
      <trkpt lat="32.935039037838578" lon="-5.05579300224781">
        <ele>1768.963</ele>
        <time>2011-01-03T08:15:08Z</time>
      </trkpt>
      <trkpt lat="32.936834022402763" lon="-5.05705900490284">
        <ele>1779.538</ele>
        <time>2011-01-03T08:15:21Z</time>
      </trkpt>
      <trkpt lat="32.937669027596712" lon="-5.057483967393637">
        <ele>1784.3440000000001</ele>
        <time>2011-01-03T08:15:27Z</time>
      </trkpt>
      <trkpt lat="32.938360031694174" lon="-5.057760989293456">
        <ele>1784.825</ele>
        <time>2011-01-03T08:15:32Z</time>
      </trkpt>
      <trkpt lat="32.938937041908503" lon="-5.058228028938174">
        <ele>1788.6700000000001</ele>
        <time>2011-01-03T08:15:37Z</time>
      </trkpt>
      <trkpt lat="32.939072996377945" lon="-5.058567998930812">
        <ele>1789.6320000000001</ele>
        <time>2011-01-03T08:15:39Z</time>
      </trkpt>
      <trkpt lat="32.939633997157216" lon="-5.060125021263957">
        <ele>1797.8030000000001</ele>
        <time>2011-01-03T08:15:48Z</time>
      </trkpt>
      <trkpt lat="32.940098019316792" lon="-5.060747964307666">
        <ele>1802.1279999999999</ele>
        <time>2011-01-03T08:15:53Z</time>
      </trkpt>
      <trkpt lat="32.940691960975528" lon="-5.060789035633206">
        <ele>1804.5319999999999</ele>
        <time>2011-01-03T08:15:57Z</time>
      </trkpt>
      <trkpt lat="32.942429026588798" lon="-5.060326019302011">
        <ele>1808.8579999999999</ele>
        <time>2011-01-03T08:16:07Z</time>
      </trkpt>
      <trkpt lat="32.944876039400697" lon="-5.059567037969828">
        <ele>1822.316</ele>
        <time>2011-01-03T08:16:20Z</time>
      </trkpt>
      <trkpt lat="32.94602301903069" lon="-5.059046018868685">
        <ele>1826.162</ele>
        <time>2011-01-03T08:16:26Z</time>
      </trkpt>
      <trkpt lat="32.947804005816579" lon="-5.057861991226673">
        <ele>1837.2170000000001</ele>
        <time>2011-01-03T08:16:36Z</time>
      </trkpt>
      <trkpt lat="32.949617011472583" lon="-5.056642005220056">
        <ele>1848.2719999999999</ele>
        <time>2011-01-03T08:16:46Z</time>
      </trkpt>
      <trkpt lat="32.95152498409152" lon="-5.055456971749663">
        <ele>1856.924</ele>
        <time>2011-01-03T08:16:55Z</time>
      </trkpt>
      <trkpt lat="32.953508980572224" lon="-5.05405199714005">
        <ele>1866.056</ele>
        <time>2011-01-03T08:17:05Z</time>
      </trkpt>
      <trkpt lat="32.954626036807895" lon="-5.053485967218876">
        <ele>1865.576</ele>
        <time>2011-01-03T08:17:11Z</time>
      </trkpt>
      <trkpt lat="32.956059006974101" lon="-5.053006019443274">
        <ele>1869.421</ele>
        <time>2011-01-03T08:17:19Z</time>
      </trkpt>
      <trkpt lat="32.95712904073298" lon="-5.052920021116734">
        <ele>1871.3440000000001</ele>
        <time>2011-01-03T08:17:25Z</time>
      </trkpt>
      <trkpt lat="32.958265962079167" lon="-5.05319201387465">
        <ele>1871.8240000000001</ele>
        <time>2011-01-03T08:17:32Z</time>
      </trkpt>
      <trkpt lat="32.959257960319519" lon="-5.053762989118695">
        <ele>1877.1120000000001</ele>
        <time>2011-01-03T08:17:38Z</time>
      </trkpt>
      <trkpt lat="32.961682006716728" lon="-5.05549100227654">
        <ele>1900.664</ele>
        <time>2011-01-03T08:17:53Z</time>
      </trkpt>
      <trkpt lat="32.962698983028531" lon="-5.056011015549302">
        <ele>1909.316</ele>
        <time>2011-01-03T08:17:59Z</time>
      </trkpt>
      <trkpt lat="32.963728029280901" lon="-5.056218970566988">
        <ele>1916.5260000000001</ele>
        <time>2011-01-03T08:18:05Z</time>
      </trkpt>
      <trkpt lat="32.965399967506528" lon="-5.056762034073472">
        <ele>1934.3099999999999</ele>
        <time>2011-01-03T08:18:15Z</time>
      </trkpt>
      <trkpt lat="32.967545986175537" lon="-5.057559991255403">
        <ele>1955.9390000000001</ele>
        <time>2011-01-03T08:18:27Z</time>
      </trkpt>
      <trkpt lat="32.968839984387159" lon="-5.058085033670068">
        <ele>1968.4369999999999</ele>
        <time>2011-01-03T08:18:35Z</time>
      </trkpt>
      <trkpt lat="32.969155982136726" lon="-5.058129038661718">
        <ele>1970.8399999999999</ele>
        <time>2011-01-03T08:18:37Z</time>
      </trkpt>
      <trkpt lat="32.969762999564409" lon="-5.058070030063391">
        <ele>1973.2429999999999</ele>
        <time>2011-01-03T08:18:42Z</time>
      </trkpt>
      <trkpt lat="32.9698930028826" lon="-5.057985037565231">
        <ele>1973.7239999999999</ele>
        <time>2011-01-03T08:18:43Z</time>
      </trkpt>
      <trkpt lat="32.970622982829809" lon="-5.057569965720177">
        <ele>1975.646</ele>
        <time>2011-01-03T08:18:49Z</time>
      </trkpt>
      <trkpt lat="32.971066972240806" lon="-5.057454966008663">
        <ele>1978.05</ele>
        <time>2011-01-03T08:18:52Z</time>
      </trkpt>
      <trkpt lat="32.971950005739927" lon="-5.05708197131753">
        <ele>1982.376</ele>
        <time>2011-01-03T08:18:58Z</time>
      </trkpt>
      <trkpt lat="32.972612008452415" lon="-5.057161012664437">
        <ele>1986.221</ele>
        <time>2011-01-03T08:19:03Z</time>
      </trkpt>
      <trkpt lat="32.972807977348566" lon="-5.057301996275783">
        <ele>1989.105</ele>
        <time>2011-01-03T08:19:05Z</time>
      </trkpt>
      <trkpt lat="32.973345005884767" lon="-5.057798037305474">
        <ele>1995.354</ele>
        <time>2011-01-03T08:19:10Z</time>
      </trkpt>
      <trkpt lat="32.974022012203932" lon="-5.058550983667374">
        <ele>2004.4860000000001</ele>
        <time>2011-01-03T08:19:17Z</time>
      </trkpt>
      <trkpt lat="32.974204989150167" lon="-5.059147020801902">
        <ele>2008.8119999999999</ele>
        <time>2011-01-03T08:19:22Z</time>
      </trkpt>
      <trkpt lat="32.974243964999914" lon="-5.05927199497819">
        <ele>2008.3309999999999</ele>
        <time>2011-01-03T08:19:23Z</time>
      </trkpt>
      <trkpt lat="32.974551999941468" lon="-5.059939026832581">
        <ele>2011.6959999999999</ele>
        <time>2011-01-03T08:19:29Z</time>
      </trkpt>
      <trkpt lat="32.974819969385862" lon="-5.060223005712032">
        <ele>2014.0989999999999</ele>
        <time>2011-01-03T08:19:32Z</time>
      </trkpt>
      <trkpt lat="32.975562019273639" lon="-5.060790963470936">
        <ele>2020.829</ele>
        <time>2011-01-03T08:19:38Z</time>
      </trkpt>
      <trkpt lat="32.976034004241228" lon="-5.061143003404141">
        <ele>2025.154</ele>
        <time>2011-01-03T08:19:42Z</time>
      </trkpt>
      <trkpt lat="32.976542031392455" lon="-5.06176401861012">
        <ele>2030.923</ele>
        <time>2011-01-03T08:19:47Z</time>
      </trkpt>
      <trkpt lat="32.976978980004787" lon="-5.062649985775352">
        <ele>2029.48</ele>
        <time>2011-01-03T08:19:53Z</time>
      </trkpt>
      <trkpt lat="32.977256001904607" lon="-5.063259014859796">
        <ele>2030.442</ele>
        <time>2011-01-03T08:19:57Z</time>
      </trkpt>
      <trkpt lat="32.977669984102249" lon="-5.063740974292159">
        <ele>2031.403</ele>
        <time>2011-01-03T08:20:01Z</time>
      </trkpt>
      <trkpt lat="32.978173987939954" lon="-5.064102988690138">
        <ele>2033.806</ele>
        <time>2011-01-03T08:20:05Z</time>
      </trkpt>
      <trkpt lat="32.978845965117216" lon="-5.064705982804298">
        <ele>2035.729</ele>
        <time>2011-01-03T08:20:11Z</time>
      </trkpt>
      <trkpt lat="32.979569993913174" lon="-5.065593961626291">
        <ele>2039.0940000000001</ele>
        <time>2011-01-03T08:20:18Z</time>
      </trkpt>
      <trkpt lat="32.980078021064401" lon="-5.065769981592894">
        <ele>2041.9780000000001</ele>
        <time>2011-01-03T08:20:23Z</time>
      </trkpt>
      <trkpt lat="32.981276968494058" lon="-5.065628997981548">
        <ele>2049.6680000000001</ele>
        <time>2011-01-03T08:20:32Z</time>
      </trkpt>
      <trkpt lat="32.981735039502382" lon="-5.065918006002903">
        <ele>2054.4749999999999</ele>
        <time>2011-01-03T08:20:37Z</time>
      </trkpt>
      <trkpt lat="32.981823971495032" lon="-5.066072987392545">
        <ele>2053.9940000000001</ele>
        <time>2011-01-03T08:20:38Z</time>
      </trkpt>
      <trkpt lat="32.982331998646259" lon="-5.066833980381489">
        <ele>2056.8780000000002</ele>
        <time>2011-01-03T08:20:44Z</time>
      </trkpt>
      <trkpt lat="32.98299903050065" lon="-5.067132962867618">
        <ele>2061.2040000000002</ele>
        <time>2011-01-03T08:20:50Z</time>
      </trkpt>
      <trkpt lat="32.983432961627841" lon="-5.067233964800835">
        <ele>2060.2429999999999</ele>
        <time>2011-01-03T08:20:54Z</time>
      </trkpt>
      <trkpt lat="32.984067974612117" lon="-5.067517021670938">
        <ele>2061.6849999999999</ele>
        <time>2011-01-03T08:21:00Z</time>
      </trkpt>
      <trkpt lat="32.984309960156679" lon="-5.067731011658907">
        <ele>2063.127</ele>
        <time>2011-01-03T08:21:02Z</time>
      </trkpt>
      <trkpt lat="32.985066007822752" lon="-5.068355966359377">
        <ele>2068.4140000000002</ele>
        <time>2011-01-03T08:21:08Z</time>
      </trkpt>
      <trkpt lat="32.985640000551939" lon="-5.068890983238816">
        <ele>2073.2199999999998</ele>
        <time>2011-01-03T08:21:13Z</time>
      </trkpt>
      <trkpt lat="32.986466037109494" lon="-5.070276008918881">
        <ele>2080.9110000000001</ele>
        <time>2011-01-03T08:21:22Z</time>
      </trkpt>
      <trkpt lat="32.986832996830344" lon="-5.070850001648068">
        <ele>2083.7950000000001</ele>
        <time>2011-01-03T08:21:26Z</time>
      </trkpt>
      <trkpt lat="32.987448982894421" lon="-5.071193994954228">
        <ele>2084.2759999999998</ele>
        <time>2011-01-03T08:21:31Z</time>
      </trkpt>
      <trkpt lat="32.987766992300749" lon="-5.071178991347551">
        <ele>2082.8330000000001</ele>
        <time>2011-01-03T08:21:33Z</time>
      </trkpt>
      <trkpt lat="32.989948969334364" lon="-5.070741036906838">
        <ele>2091.0050000000001</ele>
        <time>2011-01-03T08:21:46Z</time>
      </trkpt>
      <trkpt lat="32.991946041584015" lon="-5.070367958396673">
        <ele>2101.0990000000002</ele>
        <time>2011-01-03T08:21:58Z</time>
      </trkpt>
      <trkpt lat="32.992268996313214" lon="-5.070330994203687">
        <ele>2103.0210000000002</ele>
        <time>2011-01-03T08:22:00Z</time>
      </trkpt>
      <trkpt lat="32.993237022310495" lon="-5.070565016940236">
        <ele>2109.27</ele>
        <time>2011-01-03T08:22:06Z</time>
      </trkpt>
      <trkpt lat="32.993657039478421" lon="-5.070774983614683">
        <ele>2112.154</ele>
        <time>2011-01-03T08:22:09Z</time>
      </trkpt>
      <trkpt lat="32.994486009702086" lon="-5.071566989645362">
        <ele>2120.3249999999998</ele>
        <time>2011-01-03T08:22:16Z</time>
      </trkpt>
      <trkpt lat="32.994977021589875" lon="-5.072514982894063">
        <ele>2125.1320000000001</ele>
        <time>2011-01-03T08:22:22Z</time>
      </trkpt>
      <trkpt lat="32.995071988552809" lon="-5.072650015354157">
        <ele>2125.6120000000001</ele>
        <time>2011-01-03T08:22:23Z</time>
      </trkpt>
      <trkpt lat="32.99567699432373" lon="-5.07310900837183">
        <ele>2128.0160000000001</ele>
        <time>2011-01-03T08:22:28Z</time>
      </trkpt>
      <trkpt lat="32.996011013165116" lon="-5.073074977844954">
        <ele>2128.0160000000001</ele>
        <time>2011-01-03T08:22:30Z</time>
      </trkpt>
      <trkpt lat="32.996548963710666" lon="-5.073171034455299">
        <ele>2129.4580000000001</ele>
        <time>2011-01-03T08:22:33Z</time>
      </trkpt>
      <trkpt lat="32.997168973088264" lon="-5.073505975306034">
        <ele>2131.8609999999999</ele>
        <time>2011-01-03T08:22:37Z</time>
      </trkpt>
      <trkpt lat="32.997813960537314" lon="-5.073708985000849">
        <ele>2133.7829999999999</ele>
        <time>2011-01-03T08:22:41Z</time>
      </trkpt>
      <trkpt lat="32.998656006529927" lon="-5.073691969737411">
        <ele>2137.6289999999999</ele>
        <time>2011-01-03T08:22:46Z</time>
      </trkpt>
      <trkpt lat="32.999233016744256" lon="-5.073983995243907">
        <ele>2142.4360000000001</ele>
        <time>2011-01-03T08:22:51Z</time>
      </trkpt>
      <trkpt lat="32.999318009242415" lon="-5.074112992733717">
        <ele>2142.9160000000002</ele>
        <time>2011-01-03T08:22:52Z</time>
      </trkpt>
      <trkpt lat="32.999893007799983" lon="-5.074589001014829">
        <ele>2148.6840000000002</ele>
        <time>2011-01-03T08:22:58Z</time>
      </trkpt>
      <trkpt lat="33.000379996374249" lon="-5.074350032955408">
        <ele>2150.6060000000002</ele>
        <time>2011-01-03T08:23:02Z</time>
      </trkpt>
      <trkpt lat="33.000721978023648" lon="-5.074064964428544">
        <ele>2151.087</ele>
        <time>2011-01-03T08:23:05Z</time>
      </trkpt>
      <trkpt lat="33.001209972426295" lon="-5.073786014690995">
        <ele>2153.0100000000002</ele>
        <time>2011-01-03T08:23:09Z</time>
      </trkpt>
      <trkpt lat="33.002620982006192" lon="-5.073479991406202">
        <ele>2155.8939999999998</ele>
        <time>2011-01-03T08:23:18Z</time>
      </trkpt>
      <trkpt lat="33.003835016861558" lon="-5.073098028078675">
        <ele>2162.1419999999998</ele>
        <time>2011-01-03T08:23:26Z</time>
      </trkpt>
      <trkpt lat="33.004746967926621" lon="-5.072961989790201">
        <ele>2164.0650000000001</ele>
        <time>2011-01-03T08:23:32Z</time>
      </trkpt>
      <trkpt lat="33.006241964176297" lon="-5.072915973141789">
        <ele>2170.3130000000001</ele>
        <time>2011-01-03T08:23:41Z</time>
      </trkpt>
      <trkpt lat="33.007752969861031" lon="-5.072594024240971">
        <ele>2175.6010000000001</ele>
        <time>2011-01-03T08:23:50Z</time>
      </trkpt>
      <trkpt lat="33.009032970294356" lon="-5.072297975420952">
        <ele>2181.8490000000002</ele>
        <time>2011-01-03T08:23:59Z</time>
      </trkpt>
      <trkpt lat="33.010032009333372" lon="-5.072118015959859">
        <ele>2186.1750000000002</ele>
        <time>2011-01-03T08:24:07Z</time>
      </trkpt>
      <trkpt lat="33.01101403310895" lon="-5.072087002918124">
        <ele>2186.6559999999999</ele>
        <time>2011-01-03T08:24:13Z</time>
      </trkpt>
      <trkpt lat="33.01266803406179" lon="-5.072176018729806">
        <ele>2186.1750000000002</ele>
        <time>2011-01-03T08:24:22Z</time>
      </trkpt>
      <trkpt lat="33.013915009796619" lon="-5.072030005976558">
        <ele>2183.2910000000002</ele>
        <time>2011-01-03T08:24:29Z</time>
      </trkpt>
      <trkpt lat="33.014423958957195" lon="-5.071934033185244">
        <ele>2182.8110000000001</ele>
        <time>2011-01-03T08:24:32Z</time>
      </trkpt>
      <trkpt lat="33.015118986368179" lon="-5.071869995445013">
        <ele>2181.8490000000002</ele>
        <time>2011-01-03T08:24:36Z</time>
      </trkpt>
      <trkpt lat="33.017023019492626" lon="-5.072348015382886">
        <ele>2187.6170000000002</ele>
        <time>2011-01-03T08:24:46Z</time>
      </trkpt>
      <trkpt lat="33.017682004719973" lon="-5.072548007592559">
        <ele>2190.0210000000002</ele>
        <time>2011-01-03T08:24:50Z</time>
      </trkpt>
      <trkpt lat="33.018281981348991" lon="-5.072864005342126">
        <ele>2193.866</ele>
        <time>2011-01-03T08:24:54Z</time>
      </trkpt>
      <trkpt lat="33.018862009048462" lon="-5.073118982836604">
        <ele>2196.75</ele>
        <time>2011-01-03T08:24:58Z</time>
      </trkpt>
      <trkpt lat="33.019339023157954" lon="-5.073157958686352">
        <ele>2197.7109999999998</ele>
        <time>2011-01-03T08:25:01Z</time>
      </trkpt>
      <trkpt lat="33.019945034757257" lon="-5.073083024471998">
        <ele>2198.192</ele>
        <time>2011-01-03T08:25:05Z</time>
      </trkpt>
      <trkpt lat="33.021179018542171" lon="-5.072574997320771">
        <ele>2196.75</ele>
        <time>2011-01-03T08:25:13Z</time>
      </trkpt>
      <trkpt lat="33.022401016205549" lon="-5.072543984279037">
        <ele>2193.3850000000002</ele>
        <time>2011-01-03T08:25:20Z</time>
      </trkpt>
      <trkpt lat="33.024146966636181" lon="-5.07252898067236">
        <ele>2179.9270000000001</ele>
        <time>2011-01-03T08:25:30Z</time>
      </trkpt>
      <trkpt lat="33.025480024516582" lon="-5.072487993165851">
        <ele>2167.4290000000001</ele>
        <time>2011-01-03T08:25:37Z</time>
      </trkpt>
      <trkpt lat="33.026543017476797" lon="-5.072173001244664">
        <ele>2157.3359999999998</ele>
        <time>2011-01-03T08:25:43Z</time>
      </trkpt>
      <trkpt lat="33.027341980487108" lon="-5.071851974353194">
        <ele>2152.0479999999998</ele>
        <time>2011-01-03T08:25:49Z</time>
      </trkpt>
      <trkpt lat="33.028189977630973" lon="-5.07175600156188">
        <ele>2148.203</ele>
        <time>2011-01-03T08:25:55Z</time>
      </trkpt>
      <trkpt lat="33.028488960117102" lon="-5.071715014055371">
        <ele>2146.2809999999999</ele>
        <time>2011-01-03T08:25:57Z</time>
      </trkpt>
      <trkpt lat="33.029197985306382" lon="-5.071425000205636">
        <ele>2141.9549999999999</ele>
        <time>2011-01-03T08:26:02Z</time>
      </trkpt>
      <trkpt lat="33.030518973246217" lon="-5.070011978968978">
        <ele>2140.9929999999999</ele>
        <time>2011-01-03T08:26:13Z</time>
      </trkpt>
      <trkpt lat="33.031605016440153" lon="-5.068499967455864">
        <ele>2143.877</ele>
        <time>2011-01-03T08:26:23Z</time>
      </trkpt>
      <trkpt lat="33.032374978065491" lon="-5.066850995644927">
        <ele>2146.2809999999999</ele>
        <time>2011-01-03T08:26:32Z</time>
      </trkpt>
      <trkpt lat="33.032881999388337" lon="-5.065673002973199">
        <ele>2155.413</ele>
        <time>2011-01-03T08:26:39Z</time>
      </trkpt>
      <trkpt lat="33.033101018518209" lon="-5.065275030210614">
        <ele>2158.297</ele>
        <time>2011-01-03T08:26:42Z</time>
      </trkpt>
      <trkpt lat="33.033733014017344" lon="-5.064497021958232">
        <ele>2157.3359999999998</ele>
        <time>2011-01-03T08:26:48Z</time>
      </trkpt>
      <trkpt lat="33.035077974200249" lon="-5.063335038721561">
        <ele>2152.0479999999998</ele>
        <time>2011-01-03T08:26:57Z</time>
      </trkpt>
      <trkpt lat="33.036876982077956" lon="-5.061629991978407">
        <ele>2151.087</ele>
        <time>2011-01-03T08:27:09Z</time>
      </trkpt>
      <trkpt lat="33.038097973912954" lon="-5.060607986524701">
        <ele>2151.087</ele>
        <time>2011-01-03T08:27:17Z</time>
      </trkpt>
      <trkpt lat="33.039929000660777" lon="-5.059529989957809">
        <ele>2147.2420000000002</ele>
        <time>2011-01-03T08:27:28Z</time>
      </trkpt>
      <trkpt lat="33.040754031389952" lon="-5.058826999738812">
        <ele>2147.723</ele>
        <time>2011-01-03T08:27:34Z</time>
      </trkpt>
      <trkpt lat="33.04154796525836" lon="-5.057602990418673">
        <ele>2147.2420000000002</ele>
        <time>2011-01-03T08:27:41Z</time>
      </trkpt>
      <trkpt lat="33.042852021753788" lon="-5.055264020338655">
        <ele>2149.165</ele>
        <time>2011-01-03T08:27:53Z</time>
      </trkpt>
      <trkpt lat="33.043767996132374" lon="-5.053625022992492">
        <ele>2146.2809999999999</ele>
        <time>2011-01-03T08:28:01Z</time>
      </trkpt>
      <trkpt lat="33.045032992959023" lon="-5.051664998754859">
        <ele>2142.9160000000002</ele>
        <time>2011-01-03T08:28:11Z</time>
      </trkpt>
      <trkpt lat="33.045830028131604" lon="-5.050363959744573">
        <ele>2143.3969999999999</ele>
        <time>2011-01-03T08:28:19Z</time>
      </trkpt>
      <trkpt lat="33.045921977609396" lon="-5.05012197420001">
        <ele>2143.877</ele>
        <time>2011-01-03T08:28:21Z</time>
      </trkpt>
      <trkpt lat="33.046125993132591" lon="-5.049305995926261">
        <ele>2145.319</ele>
        <time>2011-01-03T08:28:29Z</time>
      </trkpt>
      <trkpt lat="33.046485995873809" lon="-5.048304023221135">
        <ele>2146.761</ele>
        <time>2011-01-03T08:28:41Z</time>
      </trkpt>
      <trkpt lat="33.046738039702177" lon="-5.047648977488279">
        <ele>2143.3969999999999</ele>
        <time>2011-01-03T08:28:47Z</time>
      </trkpt>
      <trkpt lat="33.047367017716169" lon="-5.046806009486318">
        <ele>2136.6669999999999</ele>
        <time>2011-01-03T08:28:53Z</time>
      </trkpt>
      <trkpt lat="33.048863019794226" lon="-5.045355018228293">
        <ele>2121.7669999999998</ele>
        <time>2011-01-03T08:29:03Z</time>
      </trkpt>
      <trkpt lat="33.050380982458591" lon="-5.044005028903484">
        <ele>2113.1149999999998</ele>
        <time>2011-01-03T08:29:12Z</time>
      </trkpt>
      <trkpt lat="33.052646024152637" lon="-5.042134020477533">
        <ele>2108.3090000000002</ele>
        <time>2011-01-03T08:29:25Z</time>
      </trkpt>
      <trkpt lat="33.054983988404274" lon="-5.040325038135052">
        <ele>2106.386</ele>
        <time>2011-01-03T08:29:38Z</time>
      </trkpt>
      <trkpt lat="33.057604003697634" lon="-5.038382029160857">
        <ele>2113.1149999999998</ele>
        <time>2011-01-03T08:29:53Z</time>
      </trkpt>
      <trkpt lat="33.059162031859159" lon="-5.037360023707151">
        <ele>2111.6729999999998</ele>
        <time>2011-01-03T08:30:02Z</time>
      </trkpt>
      <trkpt lat="33.060110025107861" lon="-5.036660972982645">
        <ele>2109.27</ele>
        <time>2011-01-03T08:30:08Z</time>
      </trkpt>
      <trkpt lat="33.060654010623693" lon="-5.03611103631556">
        <ele>2108.3090000000002</ele>
        <time>2011-01-03T08:30:12Z</time>
      </trkpt>
      <trkpt lat="33.061411986127496" lon="-5.034774038940668">
        <ele>2105.9050000000002</ele>
        <time>2011-01-03T08:30:19Z</time>
      </trkpt>
      <trkpt lat="33.061953959986567" lon="-5.034153023734689">
        <ele>2106.386</ele>
        <time>2011-01-03T08:30:23Z</time>
      </trkpt>
      <trkpt lat="33.063808958977461" lon="-5.032936977222562">
        <ele>2107.3470000000002</ele>
        <time>2011-01-03T08:30:33Z</time>
      </trkpt>
      <trkpt lat="33.065485004335642" lon="-5.03166301175952">
        <ele>2106.866</ele>
        <time>2011-01-03T08:30:42Z</time>
      </trkpt>
      <trkpt lat="33.066328978165984" lon="-5.030605969950557">
        <ele>2106.866</ele>
        <time>2011-01-03T08:30:48Z</time>
      </trkpt>
      <trkpt lat="33.067055018618703" lon="-5.029761996120215">
        <ele>2105.9050000000002</ele>
        <time>2011-01-03T08:30:53Z</time>
      </trkpt>
      <trkpt lat="33.068237034603953" lon="-5.028763962909579">
        <ele>2106.386</ele>
        <time>2011-01-03T08:31:00Z</time>
      </trkpt>
      <trkpt lat="33.069728007540107" lon="-5.026855990290642">
        <ele>2104.944</ele>
        <time>2011-01-03T08:31:10Z</time>
      </trkpt>
      <trkpt lat="33.070904994383454" lon="-5.025400975719094">
        <ele>2105.4250000000002</ele>
        <time>2011-01-03T08:31:18Z</time>
      </trkpt>
      <trkpt lat="33.071679985150695" lon="-5.024602012708783">
        <ele>2104.944</ele>
        <time>2011-01-03T08:31:23Z</time>
      </trkpt>
      <trkpt lat="33.072509039193392" lon="-5.02358696423471">
        <ele>2104.944</ele>
        <time>2011-01-03T08:31:29Z</time>
      </trkpt>
      <trkpt lat="33.073376985266805" lon="-5.02225499600172">
        <ele>2104.944</ele>
        <time>2011-01-03T08:31:36Z</time>
      </trkpt>
      <trkpt lat="33.075008019804955" lon="-5.020761005580425">
        <ele>2105.9050000000002</ele>
        <time>2011-01-03T08:31:46Z</time>
      </trkpt>
      <trkpt lat="33.076450964435935" lon="-5.019886018708348">
        <ele>2106.866</ele>
        <time>2011-01-03T08:31:54Z</time>
      </trkpt>
      <trkpt lat="33.076630001887679" lon="-5.01980597153306">
        <ele>2107.3470000000002</ele>
        <time>2011-01-03T08:31:55Z</time>
      </trkpt>
      <trkpt lat="33.077929029241204" lon="-5.01935301348567">
        <ele>2110.2310000000002</ele>
        <time>2011-01-03T08:32:02Z</time>
      </trkpt>
      <trkpt lat="33.078581979498267" lon="-5.019010026007891">
        <ele>2111.1930000000002</ele>
        <time>2011-01-03T08:32:06Z</time>
      </trkpt>
      <trkpt lat="33.080363972112536" lon="-5.017727008089423">
        <ele>2104.4630000000002</ele>
        <time>2011-01-03T08:32:17Z</time>
      </trkpt>
      <trkpt lat="33.081178022548556" lon="-5.017512012273073">
        <ele>2101.5790000000002</ele>
        <time>2011-01-03T08:32:22Z</time>
      </trkpt>
      <trkpt lat="33.083496037870646" lon="-5.01769800670445">
        <ele>2091.9659999999999</ele>
        <time>2011-01-03T08:32:34Z</time>
      </trkpt>
      <trkpt lat="33.085694024339318" lon="-5.01789003610611">
        <ele>2081.3919999999998</ele>
        <time>2011-01-03T08:32:44Z</time>
      </trkpt>
      <trkpt lat="33.088138019666076" lon="-5.018180971965194">
        <ele>2070.3359999999998</ele>
        <time>2011-01-03T08:32:54Z</time>
      </trkpt>
      <trkpt lat="33.089731000363827" lon="-5.018642982468009">
        <ele>2065.5300000000002</ele>
        <time>2011-01-03T08:33:01Z</time>
      </trkpt>
      <trkpt lat="33.090097038075328" lon="-5.018850015476346">
        <ele>2065.049</ele>
        <time>2011-01-03T08:33:03Z</time>
      </trkpt>
      <trkpt lat="33.090733978897333" lon="-5.019363993778825">
        <ele>2064.0880000000002</ele>
        <time>2011-01-03T08:33:07Z</time>
      </trkpt>
      <trkpt lat="33.091985983774066" lon="-5.020579034462571">
        <ele>2059.2809999999999</ele>
        <time>2011-01-03T08:33:15Z</time>
      </trkpt>
      <trkpt lat="33.092920985072851" lon="-5.021208012476564">
        <ele>2055.9169999999999</ele>
        <time>2011-01-03T08:33:20Z</time>
      </trkpt>
      <trkpt lat="33.095298008993268" lon="-5.02253201790154">
        <ele>2048.2260000000001</ele>
        <time>2011-01-03T08:33:31Z</time>
      </trkpt>
      <trkpt lat="33.097033984959126" lon="-5.023301979526877">
        <ele>2042.4580000000001</ele>
        <time>2011-01-03T08:33:39Z</time>
      </trkpt>
      <trkpt lat="33.097647037357092" lon="-5.023531978949904">
        <ele>2040.0550000000001</ele>
        <time>2011-01-03T08:33:42Z</time>
      </trkpt>
      <trkpt lat="33.098827041685581" lon="-5.02410102635622">
        <ele>2038.6130000000001</ele>
        <time>2011-01-03T08:33:48Z</time>
      </trkpt>
      <trkpt lat="33.099189978092909" lon="-5.024281991645694">
        <ele>2039.0940000000001</ele>
        <time>2011-01-03T08:33:50Z</time>
      </trkpt>
      <trkpt lat="33.10073995962739" lon="-5.024809967726469">
        <ele>2035.248</ele>
        <time>2011-01-03T08:33:58Z</time>
      </trkpt>
      <trkpt lat="33.101535988971591" lon="-5.024936031550169">
        <ele>2031.884</ele>
        <time>2011-01-03T08:34:02Z</time>
      </trkpt>
      <trkpt lat="33.10234903357923" lon="-5.024871993809938">
        <ele>2027.558</ele>
        <time>2011-01-03T08:34:06Z</time>
      </trkpt>
      <trkpt lat="33.104249965399504" lon="-5.024160034954548">
        <ele>2017.4639999999999</ele>
        <time>2011-01-03T08:34:15Z</time>
      </trkpt>
      <trkpt lat="33.10467098839581" lon="-5.024062972515822">
        <ele>2017.4639999999999</ele>
        <time>2011-01-03T08:34:17Z</time>
      </trkpt>
      <trkpt lat="33.105949983000755" lon="-5.02422901801765">
        <ele>2017.4639999999999</ele>
        <time>2011-01-03T08:34:23Z</time>
      </trkpt>
      <trkpt lat="33.107165023684502" lon="-5.024928990751505">
        <ele>2014.5799999999999</ele>
        <time>2011-01-03T08:34:29Z</time>
      </trkpt>
      <trkpt lat="33.108760016039014" lon="-5.026137996464968">
        <ele>2010.7349999999999</ele>
        <time>2011-01-03T08:34:37Z</time>
      </trkpt>
      <trkpt lat="33.10978596098721" lon="-5.026524988934398">
        <ele>2006.8889999999999</ele>
        <time>2011-01-03T08:34:42Z</time>
      </trkpt>
      <trkpt lat="33.11227697879076" lon="-5.027268966659904">
        <ele>2001.6020000000001</ele>
        <time>2011-01-03T08:34:53Z</time>
      </trkpt>
      <trkpt lat="33.113055992871523" lon="-5.027587981894612">
        <ele>2000.1600000000001</ele>
        <time>2011-01-03T08:34:57Z</time>
      </trkpt>
      <trkpt lat="33.113739034160972" lon="-5.028220983222127">
        <ele>1999.6800000000001</ele>
        <time>2011-01-03T08:35:01Z</time>
      </trkpt>
      <trkpt lat="33.114775959402323" lon="-5.02925799228251">
        <ele>2000.1600000000001</ele>
        <time>2011-01-03T08:35:07Z</time>
      </trkpt>
      <trkpt lat="33.115936014801264" lon="-5.029958970844746">
        <ele>1998.2380000000001</ele>
        <time>2011-01-03T08:35:13Z</time>
      </trkpt>
      <trkpt lat="33.116965983062983" lon="-5.030239010229707">
        <ele>1995.354</ele>
        <time>2011-01-03T08:35:18Z</time>
      </trkpt>
      <trkpt lat="33.118229974061251" lon="-5.030221994966269">
        <ele>1986.702</ele>
        <time>2011-01-03T08:35:24Z</time>
      </trkpt>
      <trkpt lat="33.120669024065137" lon="-5.029979003593326">
        <ele>1971.3209999999999</ele>
        <time>2011-01-03T08:35:35Z</time>
      </trkpt>
      <trkpt lat="33.121742997318506" lon="-5.030260970816016">
        <ele>1965.5530000000001</ele>
        <time>2011-01-03T08:35:40Z</time>
      </trkpt>
      <trkpt lat="33.12282501719892" lon="-5.030795987695456">
        <ele>1965.0719999999999</ele>
        <time>2011-01-03T08:35:45Z</time>
      </trkpt>
      <trkpt lat="33.125054016709328" lon="-5.032275980338454">
        <ele>1968.9169999999999</ele>
        <time>2011-01-03T08:35:55Z</time>
      </trkpt>
      <trkpt lat="33.127346970140934" lon="-5.033923024311662">
        <ele>1961.7080000000001</ele>
        <time>2011-01-03T08:36:06Z</time>
      </trkpt>
      <trkpt lat="33.128812965005636" lon="-5.034761969000101">
        <ele>1957.8620000000001</ele>
        <time>2011-01-03T08:36:13Z</time>
      </trkpt>
      <trkpt lat="33.129640007391572" lon="-5.034892978146672">
        <ele>1955.9390000000001</ele>
        <time>2011-01-03T08:36:17Z</time>
      </trkpt>
      <trkpt lat="33.130062036216259" lon="-5.034920973703265">
        <ele>1954.9780000000001</ele>
        <time>2011-01-03T08:36:19Z</time>
      </trkpt>
      <trkpt lat="33.131015980616212" lon="-5.035249041393399">
        <ele>1954.0170000000001</ele>
        <time>2011-01-03T08:36:24Z</time>
      </trkpt>
      <trkpt lat="33.13133399002254" lon="-5.03559404052794">
        <ele>1954.0170000000001</ele>
        <time>2011-01-03T08:36:26Z</time>
      </trkpt>
      <trkpt lat="33.132853964343667" lon="-5.037690019235015">
        <ele>1952.575</ele>
        <time>2011-01-03T08:36:36Z</time>
      </trkpt>
      <trkpt lat="33.13412600196898" lon="-5.039980039000511">
        <ele>1951.614</ele>
        <time>2011-01-03T08:36:45Z</time>
      </trkpt>
      <trkpt lat="33.136521968990564" lon="-5.044139977544546">
        <ele>1949.21</ele>
        <time>2011-01-03T08:37:01Z</time>
      </trkpt>
      <trkpt lat="33.138357019051909" lon="-5.047113038599491">
        <ele>1948.73</ele>
        <time>2011-01-03T08:37:13Z</time>
      </trkpt>
      <trkpt lat="33.139556972309947" lon="-5.048771984875202">
        <ele>1947.288</ele>
        <time>2011-01-03T08:37:20Z</time>
      </trkpt>
      <trkpt lat="33.142493991181254" lon="-5.052152993157506">
        <ele>1945.365</ele>
        <time>2011-01-03T08:37:35Z</time>
      </trkpt>
      <trkpt lat="33.143734009936452" lon="-5.053590992465615">
        <ele>1943.923</ele>
        <time>2011-01-03T08:37:42Z</time>
      </trkpt>
      <trkpt lat="33.144476981833577" lon="-5.054063983261585">
        <ele>1942</ele>
        <time>2011-01-03T08:37:46Z</time>
      </trkpt>
      <trkpt lat="33.146645966917276" lon="-5.054776025936008">
        <ele>1939.597</ele>
        <time>2011-01-03T08:37:56Z</time>
      </trkpt>
      <trkpt lat="33.148745968937874" lon="-5.055537018924952">
        <ele>1938.636</ele>
        <time>2011-01-03T08:38:07Z</time>
      </trkpt>
      <trkpt lat="33.149506961926818" lon="-5.05615996196866">
        <ele>1938.155</ele>
        <time>2011-01-03T08:38:12Z</time>
      </trkpt>
      <trkpt lat="33.149840980768204" lon="-5.05693000741303">
        <ele>1934.7909999999999</ele>
        <time>2011-01-03T08:38:16Z</time>
      </trkpt>
      <trkpt lat="33.149893032386899" lon="-5.057397969067097">
        <ele>1932.3869999999999</ele>
        <time>2011-01-03T08:38:18Z</time>
      </trkpt>
      <trkpt lat="33.150321012362838" lon="-5.05942203104496">
        <ele>1929.5029999999999</ele>
        <time>2011-01-03T08:38:27Z</time>
      </trkpt>
      <trkpt lat="33.150969017297029" lon="-5.061188014224172">
        <ele>1924.2159999999999</ele>
        <time>2011-01-03T08:38:35Z</time>
      </trkpt>
      <trkpt lat="33.151820031926036" lon="-5.062590977177024">
        <ele>1920.3710000000001</ele>
        <time>2011-01-03T08:38:42Z</time>
      </trkpt>
      <trkpt lat="33.152198977768421" lon="-5.063795959576964">
        <ele>1918.4480000000001</ele>
        <time>2011-01-03T08:38:47Z</time>
      </trkpt>
      <trkpt lat="33.152359994128346" lon="-5.065262960270047">
        <ele>1918.4480000000001</ele>
        <time>2011-01-03T08:38:53Z</time>
      </trkpt>
      <trkpt lat="33.152589993551373" lon="-5.066380016505718">
        <ele>1918.9290000000001</ele>
        <time>2011-01-03T08:38:58Z</time>
      </trkpt>
      <trkpt lat="33.153004981577396" lon="-5.067320968955755">
        <ele>1918.4480000000001</ele>
        <time>2011-01-03T08:39:03Z</time>
      </trkpt>
      <trkpt lat="33.153565982356668" lon="-5.067913988605142">
        <ele>1916.0450000000001</ele>
        <time>2011-01-03T08:39:07Z</time>
      </trkpt>
      <trkpt lat="33.154121031984687" lon="-5.06821196526289">
        <ele>1915.0830000000001</ele>
        <time>2011-01-03T08:39:10Z</time>
      </trkpt>
      <trkpt lat="33.155112024396658" lon="-5.068167960271239">
        <ele>1913.6410000000001</ele>
        <time>2011-01-03T08:39:15Z</time>
      </trkpt>
      <trkpt lat="33.155307993292809" lon="-5.068085985258222">
        <ele>1913.1610000000001</ele>
        <time>2011-01-03T08:39:16Z</time>
      </trkpt>
      <trkpt lat="33.157213032245636" lon="-5.067169005051255">
        <ele>1910.277</ele>
        <time>2011-01-03T08:39:25Z</time>
      </trkpt>
      <trkpt lat="33.159501040354371" lon="-5.066101988777518">
        <ele>1904.509</ele>
        <time>2011-01-03T08:39:36Z</time>
      </trkpt>
      <trkpt lat="33.159888032823801" lon="-5.0659320037812">
        <ele>1902.586</ele>
        <time>2011-01-03T08:39:38Z</time>
      </trkpt>
      <trkpt lat="33.160666041076183" lon="-5.065923035144806">
        <ele>1901.625</ele>
        <time>2011-01-03T08:39:42Z</time>
      </trkpt>
      <trkpt lat="33.163600964471698" lon="-5.066524017602205">
        <ele>1900.664</ele>
        <time>2011-01-03T08:39:56Z</time>
      </trkpt>
      <trkpt lat="33.164175041019917" lon="-5.066599035635591">
        <ele>1903.548</ele>
        <time>2011-01-03T08:39:59Z</time>
      </trkpt>
      <trkpt lat="33.165127979591489" lon="-5.066358977928758">
        <ele>1904.99</ele>
        <time>2011-01-03T08:40:04Z</time>
      </trkpt>
      <trkpt lat="33.167151035740972" lon="-5.065248040482402">
        <ele>1897.299</ele>
        <time>2011-01-03T08:40:14Z</time>
      </trkpt>
      <trkpt lat="33.170060981065035" lon="-5.063657993450761">
        <ele>1887.2049999999999</ele>
        <time>2011-01-03T08:40:27Z</time>
      </trkpt>
      <trkpt lat="33.172226026654243" lon="-5.062414035201073">
        <ele>1889.6089999999999</ele>
        <time>2011-01-03T08:40:37Z</time>
      </trkpt>
      <trkpt lat="33.173307962715626" lon="-5.061852028593421">
        <ele>1893.9349999999999</ele>
        <time>2011-01-03T08:40:43Z</time>
      </trkpt>
      <trkpt lat="33.174051018431783" lon="-5.061639966443181">
        <ele>1897.78</ele>
        <time>2011-01-03T08:40:47Z</time>
      </trkpt>
      <trkpt lat="33.176637003198266" lon="-5.061680031940341">
        <ele>1898.26</ele>
        <time>2011-01-03T08:41:00Z</time>
      </trkpt>
      <trkpt lat="33.177034975960851" lon="-5.061604008078575">
        <ele>1896.818</ele>
        <time>2011-01-03T08:41:02Z</time>
      </trkpt>
      <trkpt lat="33.178392006084323" lon="-5.061092041432858">
        <ele>1892.0119999999999</ele>
        <time>2011-01-03T08:41:09Z</time>
      </trkpt>
      <trkpt lat="33.179130032658577" lon="-5.060735978186131">
        <ele>1891.5309999999999</ele>
        <time>2011-01-03T08:41:13Z</time>
      </trkpt>
      <trkpt lat="33.180099986493587" lon="-5.060566999018192">
        <ele>1886.7249999999999</ele>
        <time>2011-01-03T08:41:18Z</time>
      </trkpt>
      <trkpt lat="33.182109966874123" lon="-5.061215003952384">
        <ele>1881.4369999999999</ele>
        <time>2011-01-03T08:41:27Z</time>
      </trkpt>
      <trkpt lat="33.184317005798221" lon="-5.061928974464536">
        <ele>1886.7249999999999</ele>
        <time>2011-01-03T08:41:37Z</time>
      </trkpt>
      <trkpt lat="33.186020040884614" lon="-5.062143970280886">
        <ele>1888.1669999999999</ele>
        <time>2011-01-03T08:41:45Z</time>
      </trkpt>
      <trkpt lat="33.187282020226121" lon="-5.062018996104598">
        <ele>1880.9570000000001</ele>
        <time>2011-01-03T08:41:51Z</time>
      </trkpt>
      <trkpt lat="33.188609965145588" lon="-5.061887986958027">
        <ele>1875.1890000000001</ele>
        <time>2011-01-03T08:41:57Z</time>
      </trkpt>
      <trkpt lat="33.191367024555802" lon="-5.062159979715943">
        <ele>1857.405</ele>
        <time>2011-01-03T08:42:09Z</time>
      </trkpt>
      <trkpt lat="33.192418031394482" lon="-5.062509002164006">
        <ele>1852.598</ele>
        <time>2011-01-03T08:42:14Z</time>
      </trkpt>
      <trkpt lat="33.193986034020782" lon="-5.063275024294853">
        <ele>1852.117</ele>
        <time>2011-01-03T08:42:22Z</time>
      </trkpt>
      <trkpt lat="33.195051960647106" lon="-5.063506029546261">
        <ele>1855.482</ele>
        <time>2011-01-03T08:42:27Z</time>
      </trkpt>
      <trkpt lat="33.198013035580516" lon="-5.063919005915523">
        <ele>1847.7909999999999</ele>
        <time>2011-01-03T08:42:40Z</time>
      </trkpt>
      <trkpt lat="33.199353972449899" lon="-5.063877012580633">
        <ele>1846.3489999999999</ele>
        <time>2011-01-03T08:42:46Z</time>
      </trkpt>
      <trkpt lat="33.201192039996386" lon="-5.063525978475809">
        <ele>1846.3489999999999</ele>
        <time>2011-01-03T08:42:54Z</time>
      </trkpt>
      <trkpt lat="33.204278005287051" lon="-5.062498021870852">
        <ele>1851.1559999999999</ele>
        <time>2011-01-03T08:43:07Z</time>
      </trkpt>
      <trkpt lat="33.206311035901308" lon="-5.061747003346682">
        <ele>1862.692</ele>
        <time>2011-01-03T08:43:16Z</time>
      </trkpt>
      <trkpt lat="33.208225965499878" lon="-5.061146020889282">
        <ele>1867.018</ele>
        <time>2011-01-03T08:43:26Z</time>
      </trkpt>
      <trkpt lat="33.209897987544537" lon="-5.060424003750086">
        <ele>1857.885</ele>
        <time>2011-01-03T08:43:35Z</time>
      </trkpt>
      <trkpt lat="33.210853021591902" lon="-5.059978002682328">
        <ele>1852.117</ele>
        <time>2011-01-03T08:43:40Z</time>
      </trkpt>
      <trkpt lat="33.211634969338775" lon="-5.059775998815894">
        <ele>1842.9849999999999</ele>
        <time>2011-01-03T08:43:44Z</time>
      </trkpt>
      <trkpt lat="33.213997995480895" lon="-5.059762001037598">
        <ele>1833.8520000000001</ele>
        <time>2011-01-03T08:43:54Z</time>
      </trkpt>
      <trkpt lat="33.217132994905114" lon="-5.059782033786178">
        <ele>1831.4490000000001</ele>
        <time>2011-01-03T08:44:06Z</time>
      </trkpt>
      <trkpt lat="33.220165986567736" lon="-5.059958975762129">
        <ele>1828.5650000000001</ele>
        <time>2011-01-03T08:44:18Z</time>
      </trkpt>
      <trkpt lat="33.223357982933521" lon="-5.060029970481992">
        <ele>1826.162</ele>
        <time>2011-01-03T08:44:30Z</time>
      </trkpt>
      <trkpt lat="33.224546033889055" lon="-5.060042962431908">
        <ele>1828.0840000000001</ele>
        <time>2011-01-03T08:44:35Z</time>
      </trkpt>
      <trkpt lat="33.225812036544085" lon="-5.060077998787165">
        <ele>1840.5809999999999</ele>
        <time>2011-01-03T08:44:42Z</time>
      </trkpt>
      <trkpt lat="33.228330966085196" lon="-5.060075987130404">
        <ele>1852.598</ele>
        <time>2011-01-03T08:44:56Z</time>
      </trkpt>
      <trkpt lat="33.229483980685472" lon="-5.059941960498691">
        <ele>1854.04</ele>
        <time>2011-01-03T08:45:03Z</time>
      </trkpt>
      <trkpt lat="33.229810036718845" lon="-5.059772981330752">
        <ele>1853.559</ele>
        <time>2011-01-03T08:45:05Z</time>
      </trkpt>
      <trkpt lat="33.230817038565874" lon="-5.058963038027287">
        <ele>1851.636</ele>
        <time>2011-01-03T08:45:12Z</time>
      </trkpt>
      <trkpt lat="33.231652965769172" lon="-5.058321990072727">
        <ele>1845.8689999999999</ele>
        <time>2011-01-03T08:45:18Z</time>
      </trkpt>
      <trkpt lat="33.232390992343426" lon="-5.05811202339828">
        <ele>1841.5429999999999</ele>
        <time>2011-01-03T08:45:23Z</time>
      </trkpt>
      <trkpt lat="33.23356001637876" lon="-5.058191986754537">
        <ele>1830.4880000000001</ele>
        <time>2011-01-03T08:45:32Z</time>
      </trkpt>
      <trkpt lat="33.234718982130289" lon="-5.058368006721139">
        <ele>1822.797</ele>
        <time>2011-01-03T08:45:42Z</time>
      </trkpt>
      <trkpt lat="33.236106019467115" lon="-5.058892965316773">
        <ele>1827.123</ele>
        <time>2011-01-03T08:45:54Z</time>
      </trkpt>
      <trkpt lat="33.236810015514493" lon="-5.059411972761154">
        <ele>1829.0450000000001</ele>
        <time>2011-01-03T08:46:01Z</time>
      </trkpt>
      <trkpt lat="33.237071027979255" lon="-5.059897033497691">
        <ele>1822.316</ele>
        <time>2011-01-03T08:46:07Z</time>
      </trkpt>
      <trkpt lat="33.237317958846688" lon="-5.060364995151758">
        <ele>1816.068</ele>
        <time>2011-01-03T08:46:14Z</time>
      </trkpt>
      <trkpt lat="33.237718027085066" lon="-5.061187008395791">
        <ele>1809.3389999999999</ele>
        <time>2011-01-03T08:46:23Z</time>
      </trkpt>
      <trkpt lat="33.238108959048986" lon="-5.062039028853178">
        <ele>1805.4929999999999</ele>
        <time>2011-01-03T08:46:32Z</time>
      </trkpt>
      <trkpt lat="33.238650010898709" lon="-5.063280975446105">
        <ele>1803.0899999999999</ele>
        <time>2011-01-03T08:46:44Z</time>
      </trkpt>
      <trkpt lat="33.2390390150249" lon="-5.064525017514825">
        <ele>1803.5709999999999</ele>
        <time>2011-01-03T08:46:54Z</time>
      </trkpt>
      <trkpt lat="33.23944604024291" lon="-5.065947007387877">
        <ele>1803.0899999999999</ele>
        <time>2011-01-03T08:47:04Z</time>
      </trkpt>
      <trkpt lat="33.239819034934044" lon="-5.067337984219194">
        <ele>1809.819</ele>
        <time>2011-01-03T08:47:12Z</time>
      </trkpt>
      <trkpt lat="33.24030602350831" lon="-5.069230031222105">
        <ele>1817.51</ele>
        <time>2011-01-03T08:47:21Z</time>
      </trkpt>
      <trkpt lat="33.240568041801453" lon="-5.070306016132236">
        <ele>1820.875</ele>
        <time>2011-01-03T08:47:26Z</time>
      </trkpt>
      <trkpt lat="33.240999039262533" lon="-5.070919990539551">
        <ele>1820.875</ele>
        <time>2011-01-03T08:47:30Z</time>
      </trkpt>
      <trkpt lat="33.241526009514928" lon="-5.071415025740862">
        <ele>1818.471</ele>
        <time>2011-01-03T08:47:34Z</time>
      </trkpt>
      <trkpt lat="33.2426050119102" lon="-5.071767987683415">
        <ele>1812.222</ele>
        <time>2011-01-03T08:47:40Z</time>
      </trkpt>
      <trkpt lat="33.242809027433395" lon="-5.071762036532164">
        <ele>1810.3</ele>
        <time>2011-01-03T08:47:41Z</time>
      </trkpt>
      <trkpt lat="33.24539802968502" lon="-5.071575958281755">
        <ele>1798.7639999999999</ele>
        <time>2011-01-03T08:47:53Z</time>
      </trkpt>
      <trkpt lat="33.248694967478514" lon="-5.071286028251052">
        <ele>1792.5160000000001</ele>
        <time>2011-01-03T08:48:08Z</time>
      </trkpt>
      <trkpt lat="33.251584963873029" lon="-5.07109098136425">
        <ele>1788.6700000000001</ele>
        <time>2011-01-03T08:48:21Z</time>
      </trkpt>
      <trkpt lat="33.254699008539319" lon="-5.070747993886471">
        <ele>1777.615</ele>
        <time>2011-01-03T08:48:35Z</time>
      </trkpt>
      <trkpt lat="33.256053021177649" lon="-5.070840027183294">
        <ele>1779.057</ele>
        <time>2011-01-03T08:48:41Z</time>
      </trkpt>
      <trkpt lat="33.2571089733392" lon="-5.071317041292787">
        <ele>1781.941</ele>
        <time>2011-01-03T08:48:46Z</time>
      </trkpt>
      <trkpt lat="33.258624002337456" lon="-5.072239972651005">
        <ele>1788.1900000000001</ele>
        <time>2011-01-03T08:48:54Z</time>
      </trkpt>
      <trkpt lat="33.259779028594494" lon="-5.072492016479373">
        <ele>1789.6320000000001</ele>
        <time>2011-01-03T08:49:00Z</time>
      </trkpt>
      <trkpt lat="33.262314973399043" lon="-5.072736013680697">
        <ele>1793.4770000000001</ele>
        <time>2011-01-03T08:49:13Z</time>
      </trkpt>
      <trkpt lat="33.264060001820326" lon="-5.072871968150139">
        <ele>1792.9960000000001</ele>
        <time>2011-01-03T08:49:21Z</time>
      </trkpt>
      <trkpt lat="33.265859009698033" lon="-5.073070032522082">
        <ele>1800.6869999999999</ele>
        <time>2011-01-03T08:49:30Z</time>
      </trkpt>
      <trkpt lat="33.26830199919641" lon="-5.073287962004542">
        <ele>1806.4549999999999</ele>
        <time>2011-01-03T08:49:42Z</time>
      </trkpt>
      <trkpt lat="33.271150002256036" lon="-5.073675038293004">
        <ele>1812.222</ele>
        <time>2011-01-03T08:49:56Z</time>
      </trkpt>
      <trkpt lat="33.273507999256253" lon="-5.073986006900668">
        <ele>1814.145</ele>
        <time>2011-01-03T08:50:07Z</time>
      </trkpt>
      <trkpt lat="33.275958029553294" lon="-5.074331006035209">
        <ele>1810.7809999999999</ele>
        <time>2011-01-03T08:50:18Z</time>
      </trkpt>
      <trkpt lat="33.277945965528488" lon="-5.074744988232851">
        <ele>1808.8579999999999</ele>
        <time>2011-01-03T08:50:26Z</time>
      </trkpt>
      <trkpt lat="33.280112016946077" lon="-5.07521596737206">
        <ele>1805.9739999999999</ele>
        <time>2011-01-03T08:50:34Z</time>
      </trkpt>
      <trkpt lat="33.282705964520574" lon="-5.075824996456504">
        <ele>1807.4159999999999</ele>
        <time>2011-01-03T08:50:44Z</time>
      </trkpt>
      <trkpt lat="33.285788996145129" lon="-5.076652960851789">
        <ele>1809.819</ele>
        <time>2011-01-03T08:50:57Z</time>
      </trkpt>
      <trkpt lat="33.28823802061379" lon="-5.07734396494925">
        <ele>1816.068</ele>
        <time>2011-01-03T08:51:08Z</time>
      </trkpt>
      <trkpt lat="33.288428038358688" lon="-5.077414959669113">
        <ele>1817.029</ele>
        <time>2011-01-03T08:51:09Z</time>
      </trkpt>
      <trkpt lat="33.289521038532257" lon="-5.078058019280434">
        <ele>1821.355</ele>
        <time>2011-01-03T08:51:15Z</time>
      </trkpt>
      <trkpt lat="33.290346991270781" lon="-5.078830998390913">
        <ele>1824.239</ele>
        <time>2011-01-03T08:51:20Z</time>
      </trkpt>
      <trkpt lat="33.291609976440668" lon="-5.080751040950418">
        <ele>1828.5650000000001</ele>
        <time>2011-01-03T08:51:29Z</time>
      </trkpt>
      <trkpt lat="33.293490037322044" lon="-5.08404303342104">
        <ele>1845.3879999999999</ele>
        <time>2011-01-03T08:51:43Z</time>
      </trkpt>
      <trkpt lat="33.295423993840814" lon="-5.087419012561441">
        <ele>1853.559</ele>
        <time>2011-01-03T08:51:57Z</time>
      </trkpt>
      <trkpt lat="33.296888982877135" lon="-5.090259974822402">
        <ele>1856.443</ele>
        <time>2011-01-03T08:52:08Z</time>
      </trkpt>
      <trkpt lat="33.29842303879559" lon="-5.093420036137104">
        <ele>1858.846</ele>
        <time>2011-01-03T08:52:20Z</time>
      </trkpt>
      <trkpt lat="33.299919040873647" lon="-5.096017001196742">
        <ele>1856.443</ele>
        <time>2011-01-03T08:52:31Z</time>
      </trkpt>
      <trkpt lat="33.301011035218835" lon="-5.097465980798006">
        <ele>1857.405</ele>
        <time>2011-01-03T08:52:38Z</time>
      </trkpt>
      <trkpt lat="33.301747972145677" lon="-5.098759979009628">
        <ele>1858.846</ele>
        <time>2011-01-03T08:52:44Z</time>
      </trkpt>
      <trkpt lat="33.302320959046483" lon="-5.100108040496707">
        <ele>1862.692</ele>
        <time>2011-01-03T08:52:50Z</time>
      </trkpt>
      <trkpt lat="33.303082035854459" lon="-5.102958977222443">
        <ele>1870.3820000000001</ele>
        <time>2011-01-03T08:53:02Z</time>
      </trkpt>
      <trkpt lat="33.303865995258093" lon="-5.104556987062097">
        <ele>1872.7860000000001</ele>
        <time>2011-01-03T08:53:09Z</time>
      </trkpt>
      <trkpt lat="33.305023033171892" lon="-5.106563027948141">
        <ele>1869.421</ele>
        <time>2011-01-03T08:53:18Z</time>
      </trkpt>
      <trkpt lat="33.306530015543103" lon="-5.109010962769389">
        <ele>1865.095</ele>
        <time>2011-01-03T08:53:29Z</time>
      </trkpt>
      <trkpt lat="33.308179993182421" lon="-5.111194029450417">
        <ele>1870.3820000000001</ele>
        <time>2011-01-03T08:53:40Z</time>
      </trkpt>
      <trkpt lat="33.310488034039736" lon="-5.113939018920064">
        <ele>1882.8789999999999</ele>
        <time>2011-01-03T08:53:55Z</time>
      </trkpt>
      <trkpt lat="33.311798963695765" lon="-5.115439966320992">
        <ele>1889.6089999999999</ele>
        <time>2011-01-03T08:54:03Z</time>
      </trkpt>
      <trkpt lat="33.313212990760803" lon="-5.116397012025118">
        <ele>1898.741</ele>
        <time>2011-01-03T08:54:10Z</time>
      </trkpt>
      <trkpt lat="33.3154839836061" lon="-5.11788496747613">
        <ele>1909.796</ele>
        <time>2011-01-03T08:54:21Z</time>
      </trkpt>
      <trkpt lat="33.316414961591363" lon="-5.118838995695114">
        <ele>1913.1610000000001</ele>
        <time>2011-01-03T08:54:26Z</time>
      </trkpt>
      <trkpt lat="33.318522004410625" lon="-5.12149597518146">
        <ele>1920.8520000000001</ele>
        <time>2011-01-03T08:54:38Z</time>
      </trkpt>
      <trkpt lat="33.320512035861611" lon="-5.124151026830077">
        <ele>1923.2550000000001</ele>
        <time>2011-01-03T08:54:49Z</time>
      </trkpt>
      <trkpt lat="33.322856035083532" lon="-5.127245038747788">
        <ele>1931.4259999999999</ele>
        <time>2011-01-03T08:55:02Z</time>
      </trkpt>
      <trkpt lat="33.323670001700521" lon="-5.12791701592505">
        <ele>1931.4259999999999</ele>
        <time>2011-01-03T08:55:06Z</time>
      </trkpt>
      <trkpt lat="33.325993968173862" lon="-5.129449982196093">
        <ele>1930.9449999999999</ele>
        <time>2011-01-03T08:55:16Z</time>
      </trkpt>
      <trkpt lat="33.327271034941077" lon="-5.130477016791701">
        <ele>1933.3489999999999</ele>
        <time>2011-01-03T08:55:22Z</time>
      </trkpt>
      <trkpt lat="33.328236965462565" lon="-5.131318978965282">
        <ele>1931.4259999999999</ele>
        <time>2011-01-03T08:55:27Z</time>
      </trkpt>
      <trkpt lat="33.329343041405082" lon="-5.131771015003324">
        <ele>1928.0609999999999</ele>
        <time>2011-01-03T08:55:32Z</time>
      </trkpt>
      <trkpt lat="33.331376994028687" lon="-5.132347019389272">
        <ele>1918.9290000000001</ele>
        <time>2011-01-03T08:55:40Z</time>
      </trkpt>
      <trkpt lat="33.334209993481636" lon="-5.133131984621286">
        <ele>1909.316</ele>
        <time>2011-01-03T08:55:51Z</time>
      </trkpt>
      <trkpt lat="33.335412964224815" lon="-5.133617967367172">
        <ele>1911.7190000000001</ele>
        <time>2011-01-03T08:55:56Z</time>
      </trkpt>
      <trkpt lat="33.338383007794619" lon="-5.135297030210495">
        <ele>1918.9290000000001</ele>
        <time>2011-01-03T08:56:09Z</time>
      </trkpt>
      <trkpt lat="33.341562012210488" lon="-5.137143982574344">
        <ele>1917.0060000000001</ele>
        <time>2011-01-03T08:56:22Z</time>
      </trkpt>
      <trkpt lat="33.344257967546582" lon="-5.138655994087458">
        <ele>1914.6030000000001</ele>
        <time>2011-01-03T08:56:33Z</time>
      </trkpt>
      <trkpt lat="33.34794600494206" lon="-5.140708973631263">
        <ele>1916.5260000000001</ele>
        <time>2011-01-03T08:56:48Z</time>
      </trkpt>
      <trkpt lat="33.351394990459085" lon="-5.142606971785426">
        <ele>1922.7739999999999</ele>
        <time>2011-01-03T08:57:02Z</time>
      </trkpt>
      <trkpt lat="33.353710994124413" lon="-5.144017981365323">
        <ele>1921.3320000000001</ele>
        <time>2011-01-03T08:57:12Z</time>
      </trkpt>
      <trkpt lat="33.353952979668975" lon="-5.144134992733598">
        <ele>1920.8520000000001</ele>
        <time>2011-01-03T08:57:13Z</time>
      </trkpt>
      <trkpt lat="33.354812040925026" lon="-5.144852986559272">
        <ele>1920.8520000000001</ele>
        <time>2011-01-03T08:57:17Z</time>
      </trkpt>
      <trkpt lat="33.3569719735533" lon="-5.14802603982389">
        <ele>1935.752</ele>
        <time>2011-01-03T08:57:30Z</time>
      </trkpt>
      <trkpt lat="33.358137980103493" lon="-5.149593958631158">
        <ele>1940.078</ele>
        <time>2011-01-03T08:57:38Z</time>
      </trkpt>
      <trkpt lat="33.358982959762216" lon="-5.150010036304593">
        <ele>1937.675</ele>
        <time>2011-01-03T08:57:43Z</time>
      </trkpt>
      <trkpt lat="33.360806023702025" lon="-5.149927977472544">
        <ele>1924.6969999999999</ele>
        <time>2011-01-03T08:57:51Z</time>
      </trkpt>
      <trkpt lat="33.363801967352629" lon="-5.14978900551796">
        <ele>1914.1220000000001</ele>
        <time>2011-01-03T08:58:03Z</time>
      </trkpt>
      <trkpt lat="33.364841993898153" lon="-5.150143979117274">
        <ele>1911.2380000000001</ele>
        <time>2011-01-03T08:58:08Z</time>
      </trkpt>
      <trkpt lat="33.366050999611616" lon="-5.150932967662811">
        <ele>1904.99</ele>
        <time>2011-01-03T08:58:16Z</time>
      </trkpt>
      <trkpt lat="33.367139976471663" lon="-5.151706030592322">
        <ele>1902.586</ele>
        <time>2011-01-03T08:58:22Z</time>
      </trkpt>
      <trkpt lat="33.369651027023792" lon="-5.153510989621282">
        <ele>1903.067</ele>
        <time>2011-01-03T08:58:35Z</time>
      </trkpt>
      <trkpt lat="33.372266013175249" lon="-5.155427008867264">
        <ele>1911.2380000000001</ele>
        <time>2011-01-03T08:58:48Z</time>
      </trkpt>
      <trkpt lat="33.374490989372134" lon="-5.156941032037139">
        <ele>1911.7190000000001</ele>
        <time>2011-01-03T08:58:58Z</time>
      </trkpt>
      <trkpt lat="33.378071989864111" lon="-5.15956599265337">
        <ele>1921.8130000000001</ele>
        <time>2011-01-03T08:59:14Z</time>
      </trkpt>
      <trkpt lat="33.381365993991494" lon="-5.161827011033893">
        <ele>1941.039</ele>
        <time>2011-01-03T08:59:29Z</time>
      </trkpt>
      <trkpt lat="33.38313901796937" lon="-5.162984970957041">
        <ele>1952.575</ele>
        <time>2011-01-03T08:59:38Z</time>
      </trkpt>
      <trkpt lat="33.384188013151288" lon="-5.163408005610108">
        <ele>1953.056</ele>
        <time>2011-01-03T08:59:43Z</time>
      </trkpt>
      <trkpt lat="33.385927006602287" lon="-5.164093980565667">
        <ele>1949.691</ele>
        <time>2011-01-03T08:59:51Z</time>
      </trkpt>
      <trkpt lat="33.386744996532798" lon="-5.164432022720575">
        <ele>1949.21</ele>
        <time>2011-01-03T08:59:56Z</time>
      </trkpt>
      <trkpt lat="33.387956013903022" lon="-5.164949018508196">
        <ele>1942.481</ele>
        <time>2011-01-03T09:00:03Z</time>
      </trkpt>
      <trkpt lat="33.389825010672212" lon="-5.16581897623837">
        <ele>1929.0219999999999</ele>
        <time>2011-01-03T09:00:12Z</time>
      </trkpt>
      <trkpt lat="33.39246497489512" lon="-5.167114986106753">
        <ele>1915.5640000000001</ele>
        <time>2011-01-03T09:00:24Z</time>
      </trkpt>
      <trkpt lat="33.393714968115091" lon="-5.167866004630923">
        <ele>1907.874</ele>
        <time>2011-01-03T09:00:30Z</time>
      </trkpt>
      <trkpt lat="33.395415991544724" lon="-5.169539032503963">
        <ele>1902.106</ele>
        <time>2011-01-03T09:00:39Z</time>
      </trkpt>
      <trkpt lat="33.396516032516956" lon="-5.171223040670157">
        <ele>1904.99</ele>
        <time>2011-01-03T09:00:46Z</time>
      </trkpt>
      <trkpt lat="33.398054027929902" lon="-5.173442987725139">
        <ele>1901.145</ele>
        <time>2011-01-03T09:00:56Z</time>
      </trkpt>
      <trkpt lat="33.399612978100777" lon="-5.175512982532382">
        <ele>1884.3219999999999</ele>
        <time>2011-01-03T09:01:06Z</time>
      </trkpt>
      <trkpt lat="33.40004900470376" lon="-5.176406996324658">
        <ele>1877.1120000000001</ele>
        <time>2011-01-03T09:01:10Z</time>
      </trkpt>
      <trkpt lat="33.401052989065647" lon="-5.179228009656072">
        <ele>1854.521</ele>
        <time>2011-01-03T09:01:21Z</time>
      </trkpt>
      <trkpt lat="33.401611978188157" lon="-5.180139960721135">
        <ele>1846.8299999999999</ele>
        <time>2011-01-03T09:01:25Z</time>
      </trkpt>
      <trkpt lat="33.402958028018475" lon="-5.181483998894692">
        <ele>1834.3330000000001</ele>
        <time>2011-01-03T09:01:32Z</time>
      </trkpt>
      <trkpt lat="33.403985984623432" lon="-5.182788977399468">
        <ele>1827.123</ele>
        <time>2011-01-03T09:01:38Z</time>
      </trkpt>
      <trkpt lat="33.404920985922217" lon="-5.183985996991396">
        <ele>1827.123</ele>
        <time>2011-01-03T09:01:44Z</time>
      </trkpt>
      <trkpt lat="33.40554996393621" lon="-5.1845090277493">
        <ele>1826.6420000000001</ele>
        <time>2011-01-03T09:01:48Z</time>
      </trkpt>
      <trkpt lat="33.40686097741127" lon="-5.185161978006363">
        <ele>1823.278</ele>
        <time>2011-01-03T09:01:56Z</time>
      </trkpt>
      <trkpt lat="33.407005984336138" lon="-5.185181004926562">
        <ele>1821.836</ele>
        <time>2011-01-03T09:01:57Z</time>
      </trkpt>
      <trkpt lat="33.407811988145113" lon="-5.185129037126899">
        <ele>1816.548</ele>
        <time>2011-01-03T09:02:02Z</time>
      </trkpt>
      <trkpt lat="33.408704996109009" lon="-5.184491006657481">
        <ele>1815.106</ele>
        <time>2011-01-03T09:02:08Z</time>
      </trkpt>
      <trkpt lat="33.410527976229787" lon="-5.183174964040518">
        <ele>1799.7249999999999</ele>
        <time>2011-01-03T09:02:19Z</time>
      </trkpt>
      <trkpt lat="33.412407031282783" lon="-5.181718021631241">
        <ele>1780.499</ele>
        <time>2011-01-03T09:02:30Z</time>
      </trkpt>
      <trkpt lat="33.414331013336778" lon="-5.180242974311113">
        <ele>1778.096</ele>
        <time>2011-01-03T09:02:41Z</time>
      </trkpt>
      <trkpt lat="33.415610007941723" lon="-5.179467983543873">
        <ele>1774.25</ele>
        <time>2011-01-03T09:02:48Z</time>
      </trkpt>
      <trkpt lat="33.41715102083981" lon="-5.178908994421363">
        <ele>1770.405</ele>
        <time>2011-01-03T09:02:56Z</time>
      </trkpt>
      <trkpt lat="33.418438984081149" lon="-5.178481014445424">
        <ele>1764.1559999999999</ele>
        <time>2011-01-03T09:03:04Z</time>
      </trkpt>
      <trkpt lat="33.419542964547873" lon="-5.178117994219065">
        <ele>1749.7370000000001</ele>
        <time>2011-01-03T09:03:13Z</time>
      </trkpt>
      <trkpt lat="33.420068006962538" lon="-5.177992014214397">
        <ele>1740.604</ele>
        <time>2011-01-03T09:03:21Z</time>
      </trkpt>
      <trkpt lat="33.420313009992242" lon="-5.177961001172662">
        <ele>1738.682</ele>
        <time>2011-01-03T09:03:24Z</time>
      </trkpt>
      <trkpt lat="33.420855989679694" lon="-5.178085975348949">
        <ele>1735.317</ele>
        <time>2011-01-03T09:03:29Z</time>
      </trkpt>
      <trkpt lat="33.421409027650952" lon="-5.17843097448349">
        <ele>1727.146</ele>
        <time>2011-01-03T09:03:34Z</time>
      </trkpt>
      <trkpt lat="33.421951001510024" lon="-5.178655022755265">
        <ele>1720.8969999999999</ele>
        <time>2011-01-03T09:03:39Z</time>
      </trkpt>
      <trkpt lat="33.422334976494312" lon="-5.178680000826716">
        <ele>1723.3009999999999</ele>
        <time>2011-01-03T09:03:42Z</time>
      </trkpt>
      <trkpt lat="33.423180039972067" lon="-5.178810004144907">
        <ele>1730.51</ele>
        <time>2011-01-03T09:03:48Z</time>
      </trkpt>
      <trkpt lat="33.424205984920263" lon="-5.179077973589301">
        <ele>1729.068</ele>
        <time>2011-01-03T09:03:55Z</time>
      </trkpt>
      <trkpt lat="33.424353003501892" lon="-5.179080991074443">
        <ele>1728.107</ele>
        <time>2011-01-03T09:03:56Z</time>
      </trkpt>
      <trkpt lat="33.424941999837756" lon="-5.179013013839722">
        <ele>1723.3009999999999</ele>
        <time>2011-01-03T09:04:00Z</time>
      </trkpt>
      <trkpt lat="33.425810029730201" lon="-5.178332990035415">
        <ele>1714.1679999999999</ele>
        <time>2011-01-03T09:04:07Z</time>
      </trkpt>
      <trkpt lat="33.426039023324847" lon="-5.177934011444449">
        <ele>1710.3230000000001</ele>
        <time>2011-01-03T09:04:10Z</time>
      </trkpt>
      <trkpt lat="33.426158968359232" lon="-5.17726899124682">
        <ele>1704.5550000000001</ele>
        <time>2011-01-03T09:04:14Z</time>
      </trkpt>
      <trkpt lat="33.426405983045697" lon="-5.176507998257875">
        <ele>1699.748</ele>
        <time>2011-01-03T09:04:19Z</time>
      </trkpt>
      <trkpt lat="33.427245011553168" lon="-5.175230009481311">
        <ele>1691.096</ele>
        <time>2011-01-03T09:04:28Z</time>
      </trkpt>
      <trkpt lat="33.427804000675678" lon="-5.17464897595346">
        <ele>1686.77</ele>
        <time>2011-01-03T09:04:33Z</time>
      </trkpt>
      <trkpt lat="33.428269028663635" lon="-5.174244968220592">
        <ele>1682.925</ele>
        <time>2011-01-03T09:04:37Z</time>
      </trkpt>
      <trkpt lat="33.428684016689658" lon="-5.174061991274357">
        <ele>1681.4829999999999</ele>
        <time>2011-01-03T09:04:40Z</time>
      </trkpt>
      <trkpt lat="33.429319029673934" lon="-5.174091998487711">
        <ele>1676.1959999999999</ele>
        <time>2011-01-03T09:04:45Z</time>
      </trkpt>
      <trkpt lat="33.430601041764021" lon="-5.174384023994207">
        <ele>1648.798</ele>
        <time>2011-01-03T09:04:55Z</time>
      </trkpt>
      <trkpt lat="33.431491032242775" lon="-5.174908982589841">
        <ele>1630.0530000000001</ele>
        <time>2011-01-03T09:05:02Z</time>
      </trkpt>
      <trkpt lat="33.431827984750271" lon="-5.175411980599165">
        <ele>1618.998</ele>
        <time>2011-01-03T09:05:06Z</time>
      </trkpt>
      <trkpt lat="33.432712024077773" lon="-5.177258010953665">
        <ele>1598.329</ele>
        <time>2011-01-03T09:05:17Z</time>
      </trkpt>
      <trkpt lat="33.433635039255023" lon="-5.179063975811005">
        <ele>1612.268</ele>
        <time>2011-01-03T09:05:26Z</time>
      </trkpt>
      <trkpt lat="33.434689985588193" lon="-5.181018970906735">
        <ele>1621.8810000000001</ele>
        <time>2011-01-03T09:05:36Z</time>
      </trkpt>
      <trkpt lat="33.434886038303375" lon="-5.182483959943056">
        <ele>1621.8810000000001</ele>
        <time>2011-01-03T09:05:43Z</time>
      </trkpt>
      <trkpt lat="33.435083013027906" lon="-5.184415988624096">
        <ele>1614.191</ele>
        <time>2011-01-03T09:05:52Z</time>
      </trkpt>
      <trkpt lat="33.435173034667969" lon="-5.185160972177982">
        <ele>1610.826</ele>
        <time>2011-01-03T09:05:56Z</time>
      </trkpt>
      <trkpt lat="33.434987040236592" lon="-5.185852982103825">
        <ele>1604.578</ele>
        <time>2011-01-03T09:06:01Z</time>
      </trkpt>
      <trkpt lat="33.434713035821915" lon="-5.186061020940542">
        <ele>1603.136</ele>
        <time>2011-01-03T09:06:03Z</time>
      </trkpt>
      <trkpt lat="33.434325037524104" lon="-5.186346005648375">
        <ele>1601.213</ele>
        <time>2011-01-03T09:06:06Z</time>
      </trkpt>
      <trkpt lat="33.433992024511099" lon="-5.186651023104787">
        <ele>1600.732</ele>
        <time>2011-01-03T09:06:09Z</time>
      </trkpt>
      <trkpt lat="33.433505035936832" lon="-5.187011025846005">
        <ele>1595.9259999999999</ele>
        <time>2011-01-03T09:06:13Z</time>
      </trkpt>
      <trkpt lat="33.432386973872781" lon="-5.187671016901732">
        <ele>1586.7929999999999</ele>
        <time>2011-01-03T09:06:21Z</time>
      </trkpt>
      <trkpt lat="33.431650036945939" lon="-5.188101008534432">
        <ele>1582.4680000000001</ele>
        <time>2011-01-03T09:06:26Z</time>
      </trkpt>
      <trkpt lat="33.430185969918966" lon="-5.189126031473279">
        <ele>1569.009</ele>
        <time>2011-01-03T09:06:36Z</time>
      </trkpt>
      <trkpt lat="33.429574007168412" lon="-5.189469018951058">
        <ele>1562.76</ele>
        <time>2011-01-03T09:06:40Z</time>
      </trkpt>
      <trkpt lat="33.428460974246264" lon="-5.190142001956701">
        <ele>1553.6279999999999</ele>
        <time>2011-01-03T09:06:47Z</time>
      </trkpt>
      <trkpt lat="33.427742980420589" lon="-5.190763017162681">
        <ele>1547.8599999999999</ele>
        <time>2011-01-03T09:06:52Z</time>
      </trkpt>
      <trkpt lat="33.427114002406597" lon="-5.19147296436131">
        <ele>1542.0920000000001</ele>
        <time>2011-01-03T09:06:58Z</time>
      </trkpt>
      <trkpt lat="33.426635982468724" lon="-5.191818969324231">
        <ele>1537.2850000000001</ele>
        <time>2011-01-03T09:07:02Z</time>
      </trkpt>
      <trkpt lat="33.426272962242365" lon="-5.192064978182316">
        <ele>1530.556</ele>
        <time>2011-01-03T09:07:05Z</time>
      </trkpt>
      <trkpt lat="33.425882030278444" lon="-5.192625978961587">
        <ele>1514.2139999999999</ele>
        <time>2011-01-03T09:07:10Z</time>
      </trkpt>
      <trkpt lat="33.425528984516859" lon="-5.194621039554477">
        <ele>1483.451</ele>
        <time>2011-01-03T09:07:21Z</time>
      </trkpt>
      <trkpt lat="33.42557298950851" lon="-5.195812024176121">
        <ele>1474.319</ele>
        <time>2011-01-03T09:07:27Z</time>
      </trkpt>
      <trkpt lat="33.425683965906501" lon="-5.196375958621502">
        <ele>1469.5129999999999</ele>
        <time>2011-01-03T09:07:30Z</time>
      </trkpt>
      <trkpt lat="33.425942966714501" lon="-5.197219010442495">
        <ele>1465.6669999999999</ele>
        <time>2011-01-03T09:07:35Z</time>
      </trkpt>
      <trkpt lat="33.426909986883402" lon="-5.198294995352626">
        <ele>1457.9770000000001</ele>
        <time>2011-01-03T09:07:43Z</time>
      </trkpt>
      <trkpt lat="33.427552962675691" lon="-5.198854990303516">
        <ele>1457.0150000000001</ele>
        <time>2011-01-03T09:07:48Z</time>
      </trkpt>
      <trkpt lat="33.427882036194205" lon="-5.19942001439631">
        <ele>1458.9380000000001</ele>
        <time>2011-01-03T09:07:53Z</time>
      </trkpt>
      <trkpt lat="33.427912965416908" lon="-5.199588993564248">
        <ele>1460.3800000000001</ele>
        <time>2011-01-03T09:07:54Z</time>
      </trkpt>
      <trkpt lat="33.427912965416908" lon="-5.200908975675702">
        <ele>1460.3800000000001</ele>
        <time>2011-01-03T09:08:01Z</time>
      </trkpt>
      <trkpt lat="33.428305992856622" lon="-5.202204985544086">
        <ele>1455.5730000000001</ele>
        <time>2011-01-03T09:08:08Z</time>
      </trkpt>
      <trkpt lat="33.428785018622875" lon="-5.202843016013503">
        <ele>1449.325</ele>
        <time>2011-01-03T09:08:13Z</time>
      </trkpt>
      <trkpt lat="33.429350964725018" lon="-5.202952986583114">
        <ele>1443.557</ele>
        <time>2011-01-03T09:08:17Z</time>
      </trkpt>
      <trkpt lat="33.429508041590452" lon="-5.202924991026521">
        <ele>1442.596</ele>
        <time>2011-01-03T09:08:18Z</time>
      </trkpt>
      <trkpt lat="33.430990967899561" lon="-5.202691974118352">
        <ele>1431.0599999999999</ele>
        <time>2011-01-03T09:08:27Z</time>
      </trkpt>
      <trkpt lat="33.431914988905191" lon="-5.20296698436141">
        <ele>1425.7719999999999</ele>
        <time>2011-01-03T09:08:33Z</time>
      </trkpt>
      <trkpt lat="33.432919979095459" lon="-5.203560004010797">
        <ele>1418.0820000000001</ele>
        <time>2011-01-03T09:08:40Z</time>
      </trkpt>
      <trkpt lat="33.434314979240298" lon="-5.204571029171348">
        <ele>1404.624</ele>
        <time>2011-01-03T09:08:50Z</time>
      </trkpt>
      <trkpt lat="33.434991985559464" lon="-5.205119038000703">
        <ele>1398.855</ele>
        <time>2011-01-03T09:08:57Z</time>
      </trkpt>
      <trkpt lat="33.435407979413867" lon="-5.205502007156611">
        <ele>1395.972</ele>
        <time>2011-01-03T09:09:04Z</time>
      </trkpt>
      <trkpt lat="33.435605959966779" lon="-5.205752961337566">
        <ele>1395.972</ele>
        <time>2011-01-03T09:09:17Z</time>
      </trkpt>
      <trkpt lat="33.436068976297975" lon="-5.206385040655732">
        <ele>1392.607</ele>
        <time>2011-01-03T09:09:24Z</time>
      </trkpt>
      <trkpt lat="33.436998026445508" lon="-5.20771399140358">
        <ele>1383.4739999999999</ele>
        <time>2011-01-03T09:09:36Z</time>
      </trkpt>
      <trkpt lat="33.437590962275863" lon="-5.208893995732069">
        <ele>1375.7840000000001</ele>
        <time>2011-01-03T09:09:45Z</time>
      </trkpt>
      <trkpt lat="33.438070993870497" lon="-5.210440959781408">
        <ele>1364.248</ele>
        <time>2011-01-03T09:09:56Z</time>
      </trkpt>
      <trkpt lat="33.438498973846436" lon="-5.211648037657142">
        <ele>1357.038</ele>
        <time>2011-01-03T09:10:05Z</time>
      </trkpt>
      <trkpt lat="33.438538033515215" lon="-5.211763959378004">
        <ele>1356.558</ele>
        <time>2011-01-03T09:10:06Z</time>
      </trkpt>
      <trkpt lat="33.438655966892838" lon="-5.212218007072806">
        <ele>1353.193</ele>
        <time>2011-01-03T09:10:10Z</time>
      </trkpt>
      <trkpt lat="33.438735008239746" lon="-5.213650977239013">
        <ele>1342.6189999999999</ele>
        <time>2011-01-03T09:10:21Z</time>
      </trkpt>
      <trkpt lat="33.438609028235078" lon="-5.215063998475671">
        <ele>1325.7950000000001</ele>
        <time>2011-01-03T09:10:30Z</time>
      </trkpt>
      <trkpt lat="33.438267968595028" lon="-5.216221958398819">
        <ele>1313.298</ele>
        <time>2011-01-03T09:10:38Z</time>
      </trkpt>
      <trkpt lat="33.437481997534633" lon="-5.217993976548314">
        <ele>1286.8620000000001</ele>
        <time>2011-01-03T09:10:53Z</time>
      </trkpt>
      <trkpt lat="33.437126018106937" lon="-5.218857983127236">
        <ele>1273.404</ele>
        <time>2011-01-03T09:11:00Z</time>
      </trkpt>
      <trkpt lat="33.437069021165371" lon="-5.219659963622689">
        <ele>1262.348</ele>
        <time>2011-01-03T09:11:06Z</time>
      </trkpt>
      <trkpt lat="33.437441010028124" lon="-5.220697978511453">
        <ele>1258.9839999999999</ele>
        <time>2011-01-03T09:11:15Z</time>
      </trkpt>
      <trkpt lat="33.437551986426115" lon="-5.221070973202586">
        <ele>1253.2159999999999</ele>
        <time>2011-01-03T09:11:21Z</time>
      </trkpt>
      <trkpt lat="33.437609989196062" lon="-5.221321005374193">
        <ele>1252.2539999999999</ele>
        <time>2011-01-03T09:11:28Z</time>
      </trkpt>
      <trkpt lat="33.437652988359332" lon="-5.221543963998556">
        <ele>1252.2539999999999</ele>
        <time>2011-01-03T09:11:37Z</time>
      </trkpt>
      <trkpt lat="33.437674026936293" lon="-5.22182802669704">
        <ele>1250.8130000000001</ele>
        <time>2011-01-03T09:11:51Z</time>
      </trkpt>
      <trkpt lat="33.437537988647819" lon="-5.222519030794501">
        <ele>1242.6410000000001</ele>
        <time>2011-01-03T09:12:00Z</time>
      </trkpt>
      <trkpt lat="33.437481997534633" lon="-5.222662026062608">
        <ele>1241.6800000000001</ele>
        <time>2011-01-03T09:12:05Z</time>
      </trkpt>
      <trkpt lat="33.437806963920593" lon="-5.223322017118335">
        <ele>1240.7190000000001</ele>
        <time>2011-01-03T09:12:16Z</time>
      </trkpt>
      <trkpt lat="33.438531998544931" lon="-5.22393599152565">
        <ele>1238.796</ele>
        <time>2011-01-03T09:12:25Z</time>
      </trkpt>
      <trkpt lat="33.439529025927186" lon="-5.224578967317939">
        <ele>1236.873</ele>
        <time>2011-01-03T09:12:35Z</time>
      </trkpt>
      <trkpt lat="33.440435025840998" lon="-5.225185984745622">
        <ele>1230.144</ele>
        <time>2011-01-03T09:12:45Z</time>
      </trkpt>
      <trkpt lat="33.440708024427295" lon="-5.225378014147282">
        <ele>1226.299</ele>
        <time>2011-01-03T09:12:51Z</time>
      </trkpt>
      <trkpt lat="33.441066015511751" lon="-5.22565403021872">
        <ele>1221.973</ele>
        <time>2011-01-03T09:13:01Z</time>
      </trkpt>
      <trkpt lat="33.441691976040602" lon="-5.226222993806005">
        <ele>1219.0889999999999</ele>
        <time>2011-01-03T09:13:12Z</time>
      </trkpt>
      <trkpt lat="33.442235039547086" lon="-5.22679396905005">
        <ele>1222.934</ele>
        <time>2011-01-03T09:13:22Z</time>
      </trkpt>
      <trkpt lat="33.442877009510994" lon="-5.227465024217963">
        <ele>1221.492</ele>
        <time>2011-01-03T09:13:32Z</time>
      </trkpt>
      <trkpt lat="33.443587962538004" lon="-5.228057038038969">
        <ele>1218.6079999999999</ele>
        <time>2011-01-03T09:13:44Z</time>
      </trkpt>
      <trkpt lat="33.444418022409081" lon="-5.228629019111395">
        <ele>1212.8409999999999</ele>
        <time>2011-01-03T09:13:57Z</time>
      </trkpt>
      <trkpt lat="33.44491196796298" lon="-5.228973012417555">
        <ele>1210.9179999999999</ele>
        <time>2011-01-03T09:14:06Z</time>
      </trkpt>
      <trkpt lat="33.445184966549277" lon="-5.229164035990834">
        <ele>1208.5139999999999</ele>
        <time>2011-01-03T09:14:14Z</time>
      </trkpt>
      <trkpt lat="33.445738004520535" lon="-5.229551028460264">
        <ele>1206.1110000000001</ele>
        <time>2011-01-03T09:14:22Z</time>
      </trkpt>
      <trkpt lat="33.446605028584599" lon="-5.230131978169084">
        <ele>1201.7850000000001</ele>
        <time>2011-01-03T09:14:33Z</time>
      </trkpt>
      <trkpt lat="33.447629967704415" lon="-5.230877967551351">
        <ele>1196.498</ele>
        <time>2011-01-03T09:14:45Z</time>
      </trkpt>
      <trkpt lat="33.447855021804571" lon="-5.231051975861192">
        <ele>1195.056</ele>
        <time>2011-01-03T09:14:48Z</time>
      </trkpt>
      <trkpt lat="33.448071023449302" lon="-5.231220033019781">
        <ele>1192.653</ele>
        <time>2011-01-03T09:14:52Z</time>
      </trkpt>
      <trkpt lat="33.44826296903193" lon="-5.231368979439139">
        <ele>1192.172</ele>
        <time>2011-01-03T09:14:56Z</time>
      </trkpt>
      <trkpt lat="33.448545020073652" lon="-5.231558997184038">
        <ele>1194.095</ele>
        <time>2011-01-03T09:15:01Z</time>
      </trkpt>
      <trkpt lat="33.449569959193468" lon="-5.232230974361301">
        <ele>1190.25</ele>
        <time>2011-01-03T09:15:14Z</time>
      </trkpt>
      <trkpt lat="33.45047595910728" lon="-5.232838997617364">
        <ele>1188.808</ele>
        <time>2011-01-03T09:15:25Z</time>
      </trkpt>
      <trkpt lat="33.451375002041459" lon="-5.233473004773259">
        <ele>1189.769</ele>
        <time>2011-01-03T09:15:35Z</time>
      </trkpt>
      <trkpt lat="33.452414022758603" lon="-5.23420499637723">
        <ele>1191.211</ele>
        <time>2011-01-03T09:15:44Z</time>
      </trkpt>
      <trkpt lat="33.453966015949845" lon="-5.235282992944121">
        <ele>1192.172</ele>
        <time>2011-01-03T09:15:55Z</time>
      </trkpt>
      <trkpt lat="33.455625968053937" lon="-5.236499039456248">
        <ele>1194.575</ele>
        <time>2011-01-03T09:16:06Z</time>
      </trkpt>
      <trkpt lat="33.455768963322043" lon="-5.236623007804155">
        <ele>1195.056</ele>
        <time>2011-01-03T09:16:07Z</time>
      </trkpt>
      <trkpt lat="33.456495003774762" lon="-5.237693963572383">
        <ele>1199.8630000000001</ele>
        <time>2011-01-03T09:16:14Z</time>
      </trkpt>
      <trkpt lat="33.456723997369409" lon="-5.237952964380384">
        <ele>1201.7850000000001</ele>
        <time>2011-01-03T09:16:16Z</time>
      </trkpt>
      <trkpt lat="33.457254990935326" lon="-5.238357977941632">
        <ele>1203.2270000000001</ele>
        <time>2011-01-03T09:16:20Z</time>
      </trkpt>
      <trkpt lat="33.4587880410254" lon="-5.238891988992691">
        <ele>1207.5530000000001</ele>
        <time>2011-01-03T09:16:28Z</time>
      </trkpt>
      <trkpt lat="33.460944034159184" lon="-5.239508980885148">
        <ele>1210.9179999999999</ele>
        <time>2011-01-03T09:16:39Z</time>
      </trkpt>
      <trkpt lat="33.461485002189875" lon="-5.239722970873117">
        <ele>1210.9179999999999</ele>
        <time>2011-01-03T09:16:42Z</time>
      </trkpt>
      <trkpt lat="33.462256975471973" lon="-5.240314984694123">
        <ele>1208.0340000000001</ele>
        <time>2011-01-03T09:16:47Z</time>
      </trkpt>
      <trkpt lat="33.463403033092618" lon="-5.241809980943799">
        <ele>1198.9010000000001</ele>
        <time>2011-01-03T09:16:56Z</time>
      </trkpt>
      <trkpt lat="33.464359994977713" lon="-5.242908010259271">
        <ele>1188.327</ele>
        <time>2011-01-03T09:17:05Z</time>
      </trkpt>
      <trkpt lat="33.465559026226401" lon="-5.243532964959741">
        <ele>1184.962</ele>
        <time>2011-01-03T09:17:13Z</time>
      </trkpt>
      <trkpt lat="33.466790998354554" lon="-5.243624998256564">
        <ele>1187.846</ele>
        <time>2011-01-03T09:17:20Z</time>
      </trkpt>
      <trkpt lat="33.467129040509462" lon="-5.24361502379179">
        <ele>1188.808</ele>
        <time>2011-01-03T09:17:22Z</time>
      </trkpt>
      <trkpt lat="33.467775033786893" lon="-5.243341019377112">
        <ele>1196.498</ele>
        <time>2011-01-03T09:17:26Z</time>
      </trkpt>
      <trkpt lat="33.468232015147805" lon="-5.243081012740731">
        <ele>1199.8630000000001</ele>
        <time>2011-01-03T09:17:29Z</time>
      </trkpt>
      <trkpt lat="33.469156036153436" lon="-5.242721009999514">
        <ele>1204.1890000000001</ele>
        <time>2011-01-03T09:17:35Z</time>
      </trkpt>
      <trkpt lat="33.470018031075597" lon="-5.242977999150753">
        <ele>1205.6310000000001</ele>
        <time>2011-01-03T09:17:40Z</time>
      </trkpt>
      <trkpt lat="33.471634984016418" lon="-5.244149034842849">
        <ele>1209.4760000000001</ele>
        <time>2011-01-03T09:17:50Z</time>
      </trkpt>
      <trkpt lat="33.472804008051753" lon="-5.245198030024767">
        <ele>1216.2049999999999</ele>
        <time>2011-01-03T09:17:58Z</time>
      </trkpt>
      <trkpt lat="33.473444972187281" lon="-5.246221963316202">
        <ele>1220.05</ele>
        <time>2011-01-03T09:18:04Z</time>
      </trkpt>
      <trkpt lat="33.474372010678053" lon="-5.24769801646471">
        <ele>1219.5699999999999</ele>
        <time>2011-01-03T09:18:12Z</time>
      </trkpt>
      <trkpt lat="33.475607000291348" lon="-5.249261995777488">
        <ele>1216.6859999999999</ele>
        <time>2011-01-03T09:18:21Z</time>
      </trkpt>
      <trkpt lat="33.476645015180111" lon="-5.250752968713641">
        <ele>1221.0119999999999</ele>
        <time>2011-01-03T09:18:29Z</time>
      </trkpt>
      <trkpt lat="33.477723011747003" lon="-5.252376962453127">
        <ele>1227.741</ele>
        <time>2011-01-03T09:18:37Z</time>
      </trkpt>
      <trkpt lat="33.478523986414075" lon="-5.253292014822364">
        <ele>1232.067</ele>
        <time>2011-01-03T09:18:42Z</time>
      </trkpt>
      <trkpt lat="33.480166001245379" lon="-5.254774019122124">
        <ele>1242.1610000000001</ele>
        <time>2011-01-03T09:18:51Z</time>
      </trkpt>
      <trkpt lat="33.481168979778886" lon="-5.256064999848604">
        <ele>1248.4090000000001</ele>
        <time>2011-01-03T09:18:58Z</time>
      </trkpt>
      <trkpt lat="33.481703996658325" lon="-5.256676040589809">
        <ele>1250.8130000000001</ele>
        <time>2011-01-03T09:19:03Z</time>
      </trkpt>
      <trkpt lat="33.482382008805871" lon="-5.257446002215147">
        <ele>1253.6969999999999</ele>
        <time>2011-01-03T09:19:11Z</time>
      </trkpt>
      <trkpt lat="33.483103020116687" lon="-5.258296011015773">
        <ele>1255.1379999999999</ele>
        <time>2011-01-03T09:19:21Z</time>
      </trkpt>
      <trkpt lat="33.483813973143697" lon="-5.259146019816399">
        <ele>1256.5799999999999</ele>
        <time>2011-01-03T09:19:28Z</time>
      </trkpt>
      <trkpt lat="33.484995989128947" lon="-5.2605049777776">
        <ele>1261.8679999999999</ele>
        <time>2011-01-03T09:19:37Z</time>
      </trkpt>
      <trkpt lat="33.486400041729212" lon="-5.261735022068024">
        <ele>1266.674</ele>
        <time>2011-01-03T09:19:46Z</time>
      </trkpt>
      <trkpt lat="33.487328002229333" lon="-5.262117991223931">
        <ele>1272.442</ele>
        <time>2011-01-03T09:19:51Z</time>
      </trkpt>
      <trkpt lat="33.489151988178492" lon="-5.262409010902047">
        <ele>1285.9010000000001</ele>
        <time>2011-01-03T09:20:00Z</time>
      </trkpt>
      <trkpt lat="33.490729965269566" lon="-5.262601040303707">
        <ele>1295.5139999999999</ele>
        <time>2011-01-03T09:20:08Z</time>
      </trkpt>
      <trkpt lat="33.491090973839164" lon="-5.262601040303707">
        <ele>1298.3979999999999</ele>
        <time>2011-01-03T09:20:10Z</time>
      </trkpt>
      <trkpt lat="33.491960009559989" lon="-5.262718973681331">
        <ele>1303.204</ele>
        <time>2011-01-03T09:20:15Z</time>
      </trkpt>
      <trkpt lat="33.493493981659412" lon="-5.263368990272284">
        <ele>1315.221</ele>
        <time>2011-01-03T09:20:24Z</time>
      </trkpt>
      <trkpt lat="33.494177022948861" lon="-5.263303024694324">
        <ele>1318.585</ele>
        <time>2011-01-03T09:20:29Z</time>
      </trkpt>
      <trkpt lat="33.494336027652025" lon="-5.263164974749088">
        <ele>1319.547</ele>
        <time>2011-01-03T09:20:30Z</time>
      </trkpt>
      <trkpt lat="33.4950159676373" lon="-5.262100975960493">
        <ele>1326.7570000000001</ele>
        <time>2011-01-03T09:20:37Z</time>
      </trkpt>
      <trkpt lat="33.49591601639986" lon="-5.261186007410288">
        <ele>1334.9280000000001</ele>
        <time>2011-01-03T09:20:44Z</time>
      </trkpt>
      <trkpt lat="33.49709602072835" lon="-5.260498020797968">
        <ele>1345.502</ele>
        <time>2011-01-03T09:20:52Z</time>
      </trkpt>
      <trkpt lat="33.497789958491921" lon="-5.260506989434362">
        <ele>1349.828</ele>
        <time>2011-01-03T09:20:57Z</time>
      </trkpt>
      <trkpt lat="33.49802297540009" lon="-5.261053992435336">
        <ele>1351.751</ele>
        <time>2011-01-03T09:21:00Z</time>
      </trkpt>
      <trkpt lat="33.498011995106936" lon="-5.261413995176554">
        <ele>1352.231</ele>
        <time>2011-01-03T09:21:02Z</time>
      </trkpt>
      <trkpt lat="33.497878974303603" lon="-5.263227000832558">
        <ele>1354.154</ele>
        <time>2011-01-03T09:21:11Z</time>
      </trkpt>
      <trkpt lat="33.497730027884245" lon="-5.265407972037792">
        <ele>1360.884</ele>
        <time>2011-01-03T09:21:21Z</time>
      </trkpt>
      <trkpt lat="33.4977219812572" lon="-5.266277007758617">
        <ele>1364.248</ele>
        <time>2011-01-03T09:21:25Z</time>
      </trkpt>
      <trkpt lat="33.497468009591103" lon="-5.267198011279106">
        <ele>1368.0930000000001</ele>
        <time>2011-01-03T09:21:30Z</time>
      </trkpt>
      <trkpt lat="33.496954031288624" lon="-5.267500011250377">
        <ele>1372.9000000000001</ele>
        <time>2011-01-03T09:21:33Z</time>
      </trkpt>
      <trkpt lat="33.496035961434245" lon="-5.268242983147502">
        <ele>1386.3579999999999</ele>
        <time>2011-01-03T09:21:40Z</time>
      </trkpt>
      <trkpt lat="33.496084995567799" lon="-5.268742963671684">
        <ele>1393.568</ele>
        <time>2011-01-03T09:21:44Z</time>
      </trkpt>
      <trkpt lat="33.496377021074295" lon="-5.269100032746792">
        <ele>1398.375</ele>
        <time>2011-01-03T09:21:47Z</time>
      </trkpt>
      <trkpt lat="33.496738029643893" lon="-5.269380994141102">
        <ele>1405.104</ele>
        <time>2011-01-03T09:21:50Z</time>
      </trkpt>
      <trkpt lat="33.497295007109642" lon="-5.26993696577847">
        <ele>1408.9490000000001</ele>
        <time>2011-01-03T09:21:55Z</time>
      </trkpt>
      <trkpt lat="33.497418975457549" lon="-5.270467959344387">
        <ele>1407.9880000000001</ele>
        <time>2011-01-03T09:21:57Z</time>
      </trkpt>
      <trkpt lat="33.497623996809125" lon="-5.272769965231419">
        <ele>1411.8330000000001</ele>
        <time>2011-01-03T09:22:07Z</time>
      </trkpt>
      <trkpt lat="33.497906969860196" lon="-5.273900013417006">
        <ele>1414.2370000000001</ele>
        <time>2011-01-03T09:22:12Z</time>
      </trkpt>
      <trkpt lat="33.498667040839791" lon="-5.275104995816946">
        <ele>1418.0820000000001</ele>
        <time>2011-01-03T09:22:18Z</time>
      </trkpt>
      <trkpt lat="33.50051399320364" lon="-5.277705984190106">
        <ele>1423.8499999999999</ele>
        <time>2011-01-03T09:22:31Z</time>
      </trkpt>
      <trkpt lat="33.501500962302089" lon="-5.279355961829424">
        <ele>1426.2529999999999</ele>
        <time>2011-01-03T09:22:39Z</time>
      </trkpt>
      <trkpt lat="33.501917961984873" lon="-5.280445022508502">
        <ele>1424.3309999999999</ele>
        <time>2011-01-03T09:22:44Z</time>
      </trkpt>
      <trkpt lat="33.502282993867993" lon="-5.283427974209189">
        <ele>1415.6790000000001</ele>
        <time>2011-01-03T09:22:56Z</time>
      </trkpt>
      <trkpt lat="33.502219039946795" lon="-5.285495035350323">
        <ele>1409.4300000000001</ele>
        <time>2011-01-03T09:23:04Z</time>
      </trkpt>
      <trkpt lat="33.50176197476685" lon="-5.288400035351515">
        <ele>1402.701</ele>
        <time>2011-01-03T09:23:15Z</time>
      </trkpt>
      <trkpt lat="33.501670025289059" lon="-5.2899169921875">
        <ele>1397.894</ele>
        <time>2011-01-03T09:23:21Z</time>
      </trkpt>
      <trkpt lat="33.501831041648984" lon="-5.291729997843504">
        <ele>1396.933</ele>
        <time>2011-01-03T09:23:28Z</time>
      </trkpt>
      <trkpt lat="33.50236102938652" lon="-5.29316196218133">
        <ele>1398.855</ele>
        <time>2011-01-03T09:23:34Z</time>
      </trkpt>
      <trkpt lat="33.5026849899441" lon="-5.293782977387309">
        <ele>1403.662</ele>
        <time>2011-01-03T09:23:37Z</time>
      </trkpt>
      <trkpt lat="33.50343500263989" lon="-5.294565008953214">
        <ele>1408.9490000000001</ele>
        <time>2011-01-03T09:23:42Z</time>
      </trkpt>
      <trkpt lat="33.505113981664181" lon="-5.295497998595238">
        <ele>1415.6790000000001</ele>
        <time>2011-01-03T09:23:51Z</time>
      </trkpt>
      <trkpt lat="33.506060969084501" lon="-5.296453032642603">
        <ele>1417.6010000000001</ele>
        <time>2011-01-03T09:23:57Z</time>
      </trkpt>
      <trkpt lat="33.506896980106831" lon="-5.297595988959074">
        <ele>1423.8499999999999</ele>
        <time>2011-01-03T09:24:03Z</time>
      </trkpt>
      <trkpt lat="33.508298015221953" lon="-5.299502033740282">
        <ele>1433.944</ele>
        <time>2011-01-03T09:24:13Z</time>
      </trkpt>
      <trkpt lat="33.509542979300022" lon="-5.301124015823007">
        <ele>1438.27</ele>
        <time>2011-01-03T09:24:22Z</time>
      </trkpt>
      <trkpt lat="33.509799968451262" lon="-5.301426015794277">
        <ele>1438.27</ele>
        <time>2011-01-03T09:24:24Z</time>
      </trkpt>
      <trkpt lat="33.510608989745378" lon="-5.301829017698765">
        <ele>1439.231</ele>
        <time>2011-01-03T09:24:29Z</time>
      </trkpt>
      <trkpt lat="33.512665992602706" lon="-5.301865981891751">
        <ele>1437.308</ele>
        <time>2011-01-03T09:24:40Z</time>
      </trkpt>
      <trkpt lat="33.513937024399638" lon="-5.301428027451038">
        <ele>1433.944</ele>
        <time>2011-01-03T09:24:47Z</time>
      </trkpt>
      <trkpt lat="33.514600032940507" lon="-5.301276985555887">
        <ele>1430.579</ele>
        <time>2011-01-03T09:24:51Z</time>
      </trkpt>
      <trkpt lat="33.515260023996234" lon="-5.301396008580923">
        <ele>1431.0599999999999</ele>
        <time>2011-01-03T09:24:55Z</time>
      </trkpt>
      <trkpt lat="33.516962975263596" lon="-5.302264960482717">
        <ele>1438.27</ele>
        <time>2011-01-03T09:25:05Z</time>
      </trkpt>
      <trkpt lat="33.518770029768348" lon="-5.303153023123741">
        <ele>1443.076</ele>
        <time>2011-01-03T09:25:15Z</time>
      </trkpt>
      <trkpt lat="33.520292015746236" lon="-5.303416969254613">
        <ele>1445.479</ele>
        <time>2011-01-03T09:25:22Z</time>
      </trkpt>
      <trkpt lat="33.521627001464367" lon="-5.303864981979132">
        <ele>1443.557</ele>
        <time>2011-01-03T09:25:28Z</time>
      </trkpt>
      <trkpt lat="33.523666989058256" lon="-5.304453978314996">
        <ele>1443.076</ele>
        <time>2011-01-03T09:25:37Z</time>
      </trkpt>
      <trkpt lat="33.526806011795998" lon="-5.304943984374404">
        <ele>1444.999</ele>
        <time>2011-01-03T09:25:50Z</time>
      </trkpt>
      <trkpt lat="33.529146993532777" lon="-5.305260987952352">
        <ele>1445.96</ele>
        <time>2011-01-03T09:26:00Z</time>
      </trkpt>
      <trkpt lat="33.530539982020855" lon="-5.305570028722286">
        <ele>1447.402</ele>
        <time>2011-01-03T09:26:06Z</time>
      </trkpt>
      <trkpt lat="33.531825011596084" lon="-5.306156007573009">
        <ele>1451.2470000000001</ele>
        <time>2011-01-03T09:26:12Z</time>
      </trkpt>
      <trkpt lat="33.532871995121241" lon="-5.307141970843077">
        <ele>1452.6890000000001</ele>
        <time>2011-01-03T09:26:18Z</time>
      </trkpt>
      <trkpt lat="33.534114025533199" lon="-5.309020020067692">
        <ele>1455.0930000000001</ele>
        <time>2011-01-03T09:26:27Z</time>
      </trkpt>
      <trkpt lat="33.534633032977581" lon="-5.309888971969485">
        <ele>1456.5350000000001</ele>
        <time>2011-01-03T09:26:31Z</time>
      </trkpt>
      <trkpt lat="33.535396959632635" lon="-5.310740992426872">
        <ele>1455.0930000000001</ele>
        <time>2011-01-03T09:26:36Z</time>
      </trkpt>
      <trkpt lat="33.537384979426861" lon="-5.311920996755362">
        <ele>1447.402</ele>
        <time>2011-01-03T09:26:46Z</time>
      </trkpt>
      <trkpt lat="33.538934038951993" lon="-5.312877958640456">
        <ele>1443.076</ele>
        <time>2011-01-03T09:26:54Z</time>
      </trkpt>
      <trkpt lat="33.540235999971628" lon="-5.313716987147927">
        <ele>1440.192</ele>
        <time>2011-01-03T09:27:02Z</time>
      </trkpt>
      <trkpt lat="33.541097994893789" lon="-5.314275976270437">
        <ele>1438.27</ele>
        <time>2011-01-03T09:27:07Z</time>
      </trkpt>
      <trkpt lat="33.542098961770535" lon="-5.315163033083081">
        <ele>1434.905</ele>
        <time>2011-01-03T09:27:13Z</time>
      </trkpt>
      <trkpt lat="33.543291036039591" lon="-5.316951982676983">
        <ele>1430.579</ele>
        <time>2011-01-03T09:27:22Z</time>
      </trkpt>
      <trkpt lat="33.543970976024866" lon="-5.318475980311632">
        <ele>1429.1369999999999</ele>
        <time>2011-01-03T09:27:30Z</time>
      </trkpt>
      <trkpt lat="33.5447290353477" lon="-5.319711975753307">
        <ele>1427.2149999999999</ele>
        <time>2011-01-03T09:27:38Z</time>
      </trkpt>
      <trkpt lat="33.545385003089905" lon="-5.320594003424048">
        <ele>1425.2919999999999</ele>
        <time>2011-01-03T09:27:44Z</time>
      </trkpt>
      <trkpt lat="33.546285973861814" lon="-5.321878027170897">
        <ele>1423.8499999999999</ele>
        <time>2011-01-03T09:27:52Z</time>
      </trkpt>
      <trkpt lat="33.547519035637379" lon="-5.323774013668299">
        <ele>1420.0050000000001</ele>
        <time>2011-01-03T09:28:05Z</time>
      </trkpt>
      <trkpt lat="33.548423023894429" lon="-5.32526096329093">
        <ele>1417.1210000000001</ele>
        <time>2011-01-03T09:28:15Z</time>
      </trkpt>
      <trkpt lat="33.548967009410262" lon="-5.326521014794707">
        <ele>1413.7560000000001</ele>
        <time>2011-01-03T09:28:23Z</time>
      </trkpt>
      <trkpt lat="33.549545025452971" lon="-5.328023973852396">
        <ele>1412.7950000000001</ele>
        <time>2011-01-03T09:28:32Z</time>
      </trkpt>
      <trkpt lat="33.549979962408543" lon="-5.328856967389584">
        <ele>1409.4300000000001</ele>
        <time>2011-01-03T09:28:37Z</time>
      </trkpt>
      <trkpt lat="33.550261007621884" lon="-5.329112028703094">
        <ele>1407.508</ele>
        <time>2011-01-03T09:28:39Z</time>
      </trkpt>
      <trkpt lat="33.551642009988427" lon="-5.330047030001879">
        <ele>1395.972</ele>
        <time>2011-01-03T09:28:47Z</time>
      </trkpt>
      <trkpt lat="33.55321504175663" lon="-5.330786984413862">
        <ele>1383.9549999999999</ele>
        <time>2011-01-03T09:28:56Z</time>
      </trkpt>
      <trkpt lat="33.554394962266088" lon="-5.331400036811829">
        <ele>1375.3030000000001</ele>
        <time>2011-01-03T09:29:03Z</time>
      </trkpt>
      <trkpt lat="33.555359970778227" lon="-5.33235196955502">
        <ele>1367.6130000000001</ele>
        <time>2011-01-03T09:29:09Z</time>
      </trkpt>
      <trkpt lat="33.556438973173499" lon="-5.333670023828745">
        <ele>1363.7670000000001</ele>
        <time>2011-01-03T09:29:15Z</time>
      </trkpt>
      <trkpt lat="33.557715034112334" lon="-5.33570297062397">
        <ele>1362.325</ele>
        <time>2011-01-03T09:29:23Z</time>
      </trkpt>
      <trkpt lat="33.559352019801736" lon="-5.337856030091643">
        <ele>1360.403</ele>
        <time>2011-01-03T09:29:33Z</time>
      </trkpt>
      <trkpt lat="33.561191009357572" lon="-5.340318968519568">
        <ele>1356.077</ele>
        <time>2011-01-03T09:29:44Z</time>
      </trkpt>
      <trkpt lat="33.563947984948754" lon="-5.343424966558814">
        <ele>1357.038</ele>
        <time>2011-01-03T09:29:59Z</time>
      </trkpt>
      <trkpt lat="33.566112024709582" lon="-5.345872985199094">
        <ele>1353.674</ele>
        <time>2011-01-03T09:30:11Z</time>
      </trkpt>
      <trkpt lat="33.568534981459379" lon="-5.348795000463724">
        <ele>1354.635</ele>
        <time>2011-01-03T09:30:25Z</time>
      </trkpt>
      <trkpt lat="33.57077001594007" lon="-5.351480981335044">
        <ele>1352.712</ele>
        <time>2011-01-03T09:30:38Z</time>
      </trkpt>
      <trkpt lat="33.572899019345641" lon="-5.353999994695187">
        <ele>1351.27</ele>
        <time>2011-01-03T09:30:51Z</time>
      </trkpt>
      <trkpt lat="33.574639018625021" lon="-5.356106031686068">
        <ele>1349.348</ele>
        <time>2011-01-03T09:31:02Z</time>
      </trkpt>
      <trkpt lat="33.575679967179894" lon="-5.357074979692698">
        <ele>1349.828</ele>
        <time>2011-01-03T09:31:08Z</time>
      </trkpt>
      <trkpt lat="33.5771319642663" lon="-5.357818035408855">
        <ele>1350.309</ele>
        <time>2011-01-03T09:31:15Z</time>
      </trkpt>
      <trkpt lat="33.579931017011404" lon="-5.359240025281906">
        <ele>1345.0219999999999</ele>
        <time>2011-01-03T09:31:28Z</time>
      </trkpt>
      <trkpt lat="33.5819430090487" lon="-5.36013001576066">
        <ele>1345.9829999999999</ele>
        <time>2011-01-03T09:31:37Z</time>
      </trkpt>
      <trkpt lat="33.584040999412537" lon="-5.360541986301541">
        <ele>1348.867</ele>
        <time>2011-01-03T09:31:46Z</time>
      </trkpt>
      <trkpt lat="33.585131987929344" lon="-5.360930990427733">
        <ele>1349.348</ele>
        <time>2011-01-03T09:31:51Z</time>
      </trkpt>
      <trkpt lat="33.587201982736588" lon="-5.362086016684771">
        <ele>1345.9829999999999</ele>
        <time>2011-01-03T09:32:01Z</time>
      </trkpt>
      <trkpt lat="33.589513963088393" lon="-5.363879995420575">
        <ele>1337.8119999999999</ele>
        <time>2011-01-03T09:32:13Z</time>
      </trkpt>
      <trkpt lat="33.59049397520721" lon="-5.364443007856607">
        <ele>1337.3309999999999</ele>
        <time>2011-01-03T09:32:18Z</time>
      </trkpt>
      <trkpt lat="33.593020029366016" lon="-5.365758966654539">
        <ele>1329.1600000000001</ele>
        <time>2011-01-03T09:32:30Z</time>
      </trkpt>
      <trkpt lat="33.595062028616667" lon="-5.366522977128625">
        <ele>1322.431</ele>
        <time>2011-01-03T09:32:39Z</time>
      </trkpt>
      <trkpt lat="33.598179006949067" lon="-5.367416990920901">
        <ele>1314.26</ele>
        <time>2011-01-03T09:32:52Z</time>
      </trkpt>
      <trkpt lat="33.599352976307273" lon="-5.367560992017388">
        <ele>1311.856</ele>
        <time>2011-01-03T09:32:57Z</time>
      </trkpt>
      <trkpt lat="33.600069964304566" lon="-5.367416990920901">
        <ele>1308.972</ele>
        <time>2011-01-03T09:33:00Z</time>
      </trkpt>
      <trkpt lat="33.601369997486472" lon="-5.366840986534953">
        <ele>1307.05</ele>
        <time>2011-01-03T09:33:06Z</time>
      </trkpt>
      <trkpt lat="33.60241798684001" lon="-5.366648035123944">
        <ele>1303.204</ele>
        <time>2011-01-03T09:33:11Z</time>
      </trkpt>
      <trkpt lat="33.603733023628592" lon="-5.366552984341979">
        <ele>1298.8779999999999</ele>
        <time>2011-01-03T09:33:17Z</time>
      </trkpt>
      <trkpt lat="33.604827029630542" lon="-5.366481989622116">
        <ele>1298.8779999999999</ele>
        <time>2011-01-03T09:33:22Z</time>
      </trkpt>
      <trkpt lat="33.606041986495256" lon="-5.366418035700917">
        <ele>1299.3589999999999</ele>
        <time>2011-01-03T09:33:28Z</time>
      </trkpt>
      <trkpt lat="33.607688024640083" lon="-5.366638982668519">
        <ele>1299.3589999999999</ele>
        <time>2011-01-03T09:33:36Z</time>
      </trkpt>
      <trkpt lat="33.608854031190276" lon="-5.367095964029431">
        <ele>1297.9169999999999</ele>
        <time>2011-01-03T09:33:42Z</time>
      </trkpt>
      <trkpt lat="33.609874024987221" lon="-5.36786399781704">
        <ele>1290.7070000000001</ele>
        <time>2011-01-03T09:33:48Z</time>
      </trkpt>
      <trkpt lat="33.610036969184875" lon="-5.368009004741907">
        <ele>1289.7460000000001</ele>
        <time>2011-01-03T09:33:49Z</time>
      </trkpt>
      <trkpt lat="33.610972976312041" lon="-5.368477972224355">
        <ele>1284.9390000000001</ele>
        <time>2011-01-03T09:33:54Z</time>
      </trkpt>
      <trkpt lat="33.611395005136728" lon="-5.36848702467978">
        <ele>1283.4970000000001</ele>
        <time>2011-01-03T09:33:56Z</time>
      </trkpt>
      <trkpt lat="33.612570986151695" lon="-5.368398008868098">
        <ele>1280.614</ele>
        <time>2011-01-03T09:34:02Z</time>
      </trkpt>
      <trkpt lat="33.613469023257494" lon="-5.368528012186289">
        <ele>1280.614</ele>
        <time>2011-01-03T09:34:07Z</time>
      </trkpt>
      <trkpt lat="33.613638002425432" lon="-5.368582997471094">
        <ele>1280.614</ele>
        <time>2011-01-03T09:34:08Z</time>
      </trkpt>
      <trkpt lat="33.615413038060069" lon="-5.369747998192906">
        <ele>1272.442</ele>
        <time>2011-01-03T09:34:19Z</time>
      </trkpt>
      <trkpt lat="33.615757031366229" lon="-5.369872972369194">
        <ele>1272.923</ele>
        <time>2011-01-03T09:34:21Z</time>
      </trkpt>
      <trkpt lat="33.616637969389558" lon="-5.369973974302411">
        <ele>1272.442</ele>
        <time>2011-01-03T09:34:26Z</time>
      </trkpt>
      <trkpt lat="33.618505038321018" lon="-5.369770964607596">
        <ele>1273.884</ele>
        <time>2011-01-03T09:34:36Z</time>
      </trkpt>
      <trkpt lat="33.619364015758038" lon="-5.370097020640969">
        <ele>1276.768</ele>
        <time>2011-01-03T09:34:41Z</time>
      </trkpt>
      <trkpt lat="33.620505966246128" lon="-5.370968990027905">
        <ele>1282.5360000000001</ele>
        <time>2011-01-03T09:34:49Z</time>
      </trkpt>
      <trkpt lat="33.62162696197629" lon="-5.371972974389792">
        <ele>1287.3430000000001</ele>
        <time>2011-01-03T09:34:58Z</time>
      </trkpt>
      <trkpt lat="33.622526004910469" lon="-5.372890960425139">
        <ele>1288.3040000000001</ele>
        <time>2011-01-03T09:35:05Z</time>
      </trkpt>
      <trkpt lat="33.622810989618301" lon="-5.37319396622479">
        <ele>1288.7850000000001</ele>
        <time>2011-01-03T09:35:07Z</time>
      </trkpt>
      <trkpt lat="33.623470980674028" lon="-5.373681038618088">
        <ele>1287.8230000000001</ele>
        <time>2011-01-03T09:35:11Z</time>
      </trkpt>
      <trkpt lat="33.625488001853228" lon="-5.374486958608031">
        <ele>1280.614</ele>
        <time>2011-01-03T09:35:21Z</time>
      </trkpt>
      <trkpt lat="33.626514030620456" lon="-5.374792981892824">
        <ele>1280.133</ele>
        <time>2011-01-03T09:35:26Z</time>
      </trkpt>
      <trkpt lat="33.627496976405382" lon="-5.374683011323214">
        <ele>1279.171</ele>
        <time>2011-01-03T09:35:31Z</time>
      </trkpt>
      <trkpt lat="33.627694034948945" lon="-5.374628026038408">
        <ele>1279.652</ele>
        <time>2011-01-03T09:35:32Z</time>
      </trkpt>
      <trkpt lat="33.629706026986241" lon="-5.373792015016079">
        <ele>1275.807</ele>
        <time>2011-01-03T09:35:42Z</time>
      </trkpt>
      <trkpt lat="33.631185013800859" lon="-5.373353976756334">
        <ele>1269.558</ele>
        <time>2011-01-03T09:35:49Z</time>
      </trkpt>
      <trkpt lat="33.633511997759342" lon="-5.373290022835136">
        <ele>1257.5419999999999</ele>
        <time>2011-01-03T09:35:59Z</time>
      </trkpt>
      <trkpt lat="33.635556008666754" lon="-5.373048959299922">
        <ele>1246.0060000000001</ele>
        <time>2011-01-03T09:36:07Z</time>
      </trkpt>
      <trkpt lat="33.638938022777438" lon="-5.372563982382417">
        <ele>1226.299</ele>
        <time>2011-01-03T09:36:20Z</time>
      </trkpt>
      <trkpt lat="33.641952993348241" lon="-5.372165003791452">
        <ele>1214.7629999999999</ele>
        <time>2011-01-03T09:36:32Z</time>
      </trkpt>
      <trkpt lat="33.642179975286126" lon="-5.372211020439863">
        <ele>1215.7249999999999</ele>
        <time>2011-01-03T09:36:33Z</time>
      </trkpt>
      <trkpt lat="33.643443966284394" lon="-5.37269800901413">
        <ele>1215.2439999999999</ele>
        <time>2011-01-03T09:36:39Z</time>
      </trkpt>
      <trkpt lat="33.64470100030303" lon="-5.372996991500258">
        <ele>1210.9179999999999</ele>
        <time>2011-01-03T09:36:45Z</time>
      </trkpt>
      <trkpt lat="33.646290963515639" lon="-5.373082989826798">
        <ele>1205.1500000000001</ele>
        <time>2011-01-03T09:36:53Z</time>
      </trkpt>
      <trkpt lat="33.647629972547293" lon="-5.373135963454843">
        <ele>1199.8630000000001</ele>
        <time>2011-01-03T09:37:01Z</time>
      </trkpt>
      <trkpt lat="33.648515017703176" lon="-5.373264960944653">
        <ele>1194.095</ele>
        <time>2011-01-03T09:37:08Z</time>
      </trkpt>
      <trkpt lat="33.648905027657747" lon="-5.37336696870625">
        <ele>1190.25</ele>
        <time>2011-01-03T09:37:12Z</time>
      </trkpt>
      <trkpt lat="33.649092027917504" lon="-5.373414997011423">
        <ele>1186.404</ele>
        <time>2011-01-03T09:37:18Z</time>
      </trkpt>
      <trkpt lat="33.649689992889762" lon="-5.373748010024428">
        <ele>1191.211</ele>
        <time>2011-01-03T09:39:06Z</time>
      </trkpt>
      <trkpt lat="33.650620970875025" lon="-5.374495005235076">
        <ele>1180.1559999999999</ele>
        <time>2011-01-03T09:39:14Z</time>
      </trkpt>
      <trkpt lat="33.651743978261948" lon="-5.375129012390971">
        <ele>1169.5809999999999</ele>
        <time>2011-01-03T09:39:21Z</time>
      </trkpt>
      <trkpt lat="33.653057003393769" lon="-5.375382984057069">
        <ele>1157.0840000000001</ele>
        <time>2011-01-03T09:39:28Z</time>
      </trkpt>
      <trkpt lat="33.654266009107232" lon="-5.375337973237038">
        <ele>1146.51</ele>
        <time>2011-01-03T09:39:34Z</time>
      </trkpt>
      <trkpt lat="33.656213041394949" lon="-5.375034967437387">
        <ele>1132.5709999999999</ele>
        <time>2011-01-03T09:39:43Z</time>
      </trkpt>
      <trkpt lat="33.658094024285674" lon="-5.374943017959595">
        <ele>1120.5540000000001</ele>
        <time>2011-01-03T09:39:51Z</time>
      </trkpt>
      <trkpt lat="33.660115990787745" lon="-5.374859031289816">
        <ele>1109.018</ele>
        <time>2011-01-03T09:40:00Z</time>
      </trkpt>
      <trkpt lat="33.661655997857451" lon="-5.374645963311195">
        <ele>1098.924</ele>
        <time>2011-01-03T09:40:08Z</time>
      </trkpt>
      <trkpt lat="33.663725992664695" lon="-5.37441797554493">
        <ele>1093.6369999999999</ele>
        <time>2011-01-03T09:40:20Z</time>
      </trkpt>
      <trkpt lat="33.665922973304987" lon="-5.374054033309221">
        <ele>1087.3879999999999</ele>
        <time>2011-01-03T09:40:33Z</time>
      </trkpt>
      <trkpt lat="33.66777503862977" lon="-5.373849011957645">
        <ele>1077.7750000000001</ele>
        <time>2011-01-03T09:40:44Z</time>
      </trkpt>
      <trkpt lat="33.669606987386942" lon="-5.373663017526269">
        <ele>1067.201</ele>
        <time>2011-01-03T09:40:56Z</time>
      </trkpt>
      <trkpt lat="33.671802962198853" lon="-5.37338599562645">
        <ele>1057.107</ele>
        <time>2011-01-03T09:41:11Z</time>
      </trkpt>
      <trkpt lat="33.673450006172061" lon="-5.373153984546661">
        <ele>1052.3</ele>
        <time>2011-01-03T09:41:22Z</time>
      </trkpt>
      <trkpt lat="33.6749969702214" lon="-5.372932031750679">
        <ele>1047.9739999999999</ele>
        <time>2011-01-03T09:41:33Z</time>
      </trkpt>
      <trkpt lat="33.676545023918152" lon="-5.372769003733993">
        <ele>1044.6099999999999</ele>
        <time>2011-01-03T09:41:45Z</time>
      </trkpt>
      <trkpt lat="33.678071033209562" lon="-5.372576974332333">
        <ele>1037.8810000000001</ele>
        <time>2011-01-03T09:41:57Z</time>
      </trkpt>
      <trkpt lat="33.678405974060297" lon="-5.372530035674572">
        <ele>1035.9580000000001</ele>
        <time>2011-01-03T09:42:00Z</time>
      </trkpt>
      <trkpt lat="33.678665980696678" lon="-5.372492987662554">
        <ele>1034.0350000000001</ele>
        <time>2011-01-03T09:42:04Z</time>
      </trkpt>
      <trkpt lat="33.678962029516697" lon="-5.372450994327664">
        <ele>1032.1130000000001</ele>
        <time>2011-01-03T09:42:11Z</time>
      </trkpt>
      <trkpt lat="33.67916202172637" lon="-5.372422998771071">
        <ele>1031.6320000000001</ele>
        <time>2011-01-03T09:42:14Z</time>
      </trkpt>
      <trkpt lat="33.680008007213473" lon="-5.372341023758054">
        <ele>1028.748</ele>
        <time>2011-01-03T09:42:22Z</time>
      </trkpt>
      <trkpt lat="33.681130008772016" lon="-5.372490976005793">
        <ele>1027.306</ele>
        <time>2011-01-03T09:42:32Z</time>
      </trkpt>
      <trkpt lat="33.682088982313871" lon="-5.372745031490922">
        <ele>1024.903</ele>
        <time>2011-01-03T09:42:41Z</time>
      </trkpt>
      <trkpt lat="33.682597009465098" lon="-5.372887020930648">
        <ele>1025.864</ele>
        <time>2011-01-03T09:42:46Z</time>
      </trkpt>
      <trkpt lat="33.683237973600626" lon="-5.372903030365706">
        <ele>1024.422</ele>
        <time>2011-01-03T09:42:53Z</time>
      </trkpt>
      <trkpt lat="33.684289986267686" lon="-5.37207598797977">
        <ele>1040.2840000000001</ele>
        <time>2011-01-03T09:43:07Z</time>
      </trkpt>
      <trkpt lat="33.685306962579489" lon="-5.371175017207861">
        <ele>1041.7260000000001</ele>
        <time>2011-01-03T09:43:19Z</time>
      </trkpt>
      <trkpt lat="33.685988998040557" lon="-5.370570011436939">
        <ele>1041.2449999999999</ele>
        <time>2011-01-03T09:43:28Z</time>
      </trkpt>
      <trkpt lat="33.686736999079585" lon="-5.370115963742137">
        <ele>1035.4770000000001</ele>
        <time>2011-01-03T09:43:37Z</time>
      </trkpt>
      <trkpt lat="33.686949983239174" lon="-5.370132979005575">
        <ele>1032.1130000000001</ele>
        <time>2011-01-03T09:43:39Z</time>
      </trkpt>
      <trkpt lat="33.687511989846826" lon="-5.370273962616921">
        <ele>1028.748</ele>
        <time>2011-01-03T09:43:45Z</time>
      </trkpt>
      <trkpt lat="33.687674012035131" lon="-5.370345041155815">
        <ele>1025.383</ele>
        <time>2011-01-03T09:43:47Z</time>
      </trkpt>
      <trkpt lat="33.687880039215088" lon="-5.370455011725426">
        <ele>1023.461</ele>
        <time>2011-01-03T09:43:49Z</time>
      </trkpt>
      <trkpt lat="33.688383037224412" lon="-5.371198989450932">
        <ele>1016.251</ele>
        <time>2011-01-03T09:43:56Z</time>
      </trkpt>
      <trkpt lat="33.68844598531723" lon="-5.371467964723706">
        <ele>1013.367</ele>
        <time>2011-01-03T09:43:58Z</time>
      </trkpt>
      <trkpt lat="33.688560985028744" lon="-5.372058972716332">
        <ele>1007.599</ele>
        <time>2011-01-03T09:44:02Z</time>
      </trkpt>
      <trkpt lat="33.688791990280151" lon="-5.37319497205317">
        <ele>1003.273</ele>
        <time>2011-01-03T09:44:10Z</time>
      </trkpt>
      <trkpt lat="33.6892160307616" lon="-5.374337006360292">
        <ele>994.62099999999998</ele>
        <time>2011-01-03T09:44:20Z</time>
      </trkpt>
      <trkpt lat="33.689251989126205" lon="-5.375259015709162">
        <ele>992.21799999999996</ele>
        <time>2011-01-03T09:44:26Z</time>
      </trkpt>
      <trkpt lat="33.689030958339572" lon="-5.376307005062699">
        <ele>985.96900000000005</ele>
        <time>2011-01-03T09:44:33Z</time>
      </trkpt>
      <trkpt lat="33.688850998878479" lon="-5.377055006101728">
        <ele>978.279</ele>
        <time>2011-01-03T09:44:38Z</time>
      </trkpt>
      <trkpt lat="33.688883017748594" lon="-5.377885987982154">
        <ele>970.58799999999997</ele>
        <time>2011-01-03T09:44:43Z</time>
      </trkpt>
      <trkpt lat="33.68895904161036" lon="-5.37824397906661">
        <ele>970.10699999999997</ele>
        <time>2011-01-03T09:44:45Z</time>
      </trkpt>
      <trkpt lat="33.689460027962923" lon="-5.378968007862568">
        <ele>963.85900000000004</ele>
        <time>2011-01-03T09:44:50Z</time>
      </trkpt>
      <trkpt lat="33.689600005745888" lon="-5.37906096316874">
        <ele>961.93700000000001</ele>
        <time>2011-01-03T09:44:51Z</time>
      </trkpt>
      <trkpt lat="33.691405970603228" lon="-5.380064025521278">
        <ele>941.74900000000002</ele>
        <time>2011-01-03T09:45:03Z</time>
      </trkpt>
      <trkpt lat="33.692556973546743" lon="-5.380437020212412">
        <ele>928.77099999999996</ele>
        <time>2011-01-03T09:45:10Z</time>
      </trkpt>
      <trkpt lat="33.693175977095962" lon="-5.381044959649444">
        <ele>919.63800000000003</ele>
        <time>2011-01-03T09:45:15Z</time>
      </trkpt>
      <trkpt lat="33.693506978452206" lon="-5.381725989282131">
        <ele>912.428</ele>
        <time>2011-01-03T09:45:19Z</time>
      </trkpt>
      <trkpt lat="33.693532962352037" lon="-5.381930004805327">
        <ele>910.50599999999997</ele>
        <time>2011-01-03T09:45:20Z</time>
      </trkpt>
      <trkpt lat="33.693570010364056" lon="-5.382772972807288">
        <ele>904.25699999999995</ele>
        <time>2011-01-03T09:45:24Z</time>
      </trkpt>
      <trkpt lat="33.693262981250882" lon="-5.383780980482698">
        <ele>895.125</ele>
        <time>2011-01-03T09:45:29Z</time>
      </trkpt>
      <trkpt lat="33.692452032119036" lon="-5.384921003133059">
        <ele>884.54999999999995</ele>
        <time>2011-01-03T09:45:36Z</time>
      </trkpt>
      <trkpt lat="33.692343989387155" lon="-5.385088976472616">
        <ele>883.10799999999995</ele>
        <time>2011-01-03T09:45:37Z</time>
      </trkpt>
      <trkpt lat="33.692003013566136" lon="-5.385802024975419">
        <ele>878.78200000000004</ele>
        <time>2011-01-03T09:45:41Z</time>
      </trkpt>
      <trkpt lat="33.691543014720082" lon="-5.388133032247424">
        <ele>871.572</ele>
        <time>2011-01-03T09:45:52Z</time>
      </trkpt>
      <trkpt lat="33.691122997552156" lon="-5.390325989574194">
        <ele>866.28499999999997</ele>
        <time>2011-01-03T09:46:03Z</time>
      </trkpt>
      <trkpt lat="33.690629974007607" lon="-5.392942987382412">
        <ele>852.827</ele>
        <time>2011-01-03T09:46:15Z</time>
      </trkpt>
      <trkpt lat="33.690365022048354" lon="-5.395327974110842">
        <ele>844.65599999999995</ele>
        <time>2011-01-03T09:46:25Z</time>
      </trkpt>
      <trkpt lat="33.690491002053022" lon="-5.396553995087743">
        <ele>842.73299999999995</ele>
        <time>2011-01-03T09:46:30Z</time>
      </trkpt>
      <trkpt lat="33.691118974238634" lon="-5.398705964908004">
        <ele>846.09799999999996</ele>
        <time>2011-01-03T09:46:39Z</time>
      </trkpt>
      <trkpt lat="33.691421980038285" lon="-5.399242993444204">
        <ele>844.65599999999995</ele>
        <time>2011-01-03T09:46:42Z</time>
      </trkpt>
      <trkpt lat="33.691835040226579" lon="-5.399884041398764">
        <ele>841.29100000000005</ele>
        <time>2011-01-03T09:46:47Z</time>
      </trkpt>
      <trkpt lat="33.691907040774822" lon="-5.399998035281897">
        <ele>840.33000000000004</ele>
        <time>2011-01-03T09:46:48Z</time>
      </trkpt>
      <trkpt lat="33.692059004679322" lon="-5.400257958099246">
        <ele>837.92600000000004</ele>
        <time>2011-01-03T09:46:50Z</time>
      </trkpt>
      <trkpt lat="33.692663004621863" lon="-5.401293961331248">
        <ele>830.71699999999998</ele>
        <time>2011-01-03T09:46:56Z</time>
      </trkpt>
      <trkpt lat="33.693972006440163" lon="-5.403157006949186">
        <ele>818.70000000000005</ele>
        <time>2011-01-03T09:47:06Z</time>
      </trkpt>
      <trkpt lat="33.694914970546961" lon="-5.404589977115393">
        <ele>811.971</ele>
        <time>2011-01-03T09:47:13Z</time>
      </trkpt>
      <trkpt lat="33.6961770337075" lon="-5.406503984704614">
        <ele>803.79999999999995</ele>
        <time>2011-01-03T09:47:21Z</time>
      </trkpt>
      <trkpt lat="33.69837099686265" lon="-5.410365024581552">
        <ele>790.822</ele>
        <time>2011-01-03T09:47:35Z</time>
      </trkpt>
      <trkpt lat="33.701113974675536" lon="-5.415012035518885">
        <ele>776.88300000000004</ele>
        <time>2011-01-03T09:47:52Z</time>
      </trkpt>
      <trkpt lat="33.703267034143209" lon="-5.41863402351737">
        <ele>779.76599999999996</ele>
        <time>2011-01-03T09:48:06Z</time>
      </trkpt>
      <trkpt lat="33.704973002895713" lon="-5.421657962724567">
        <ele>792.74400000000003</ele>
        <time>2011-01-03T09:48:18Z</time>
      </trkpt>
      <trkpt lat="33.706110008060932" lon="-5.423607006669045">
        <ele>792.26400000000001</ele>
        <time>2011-01-03T09:48:27Z</time>
      </trkpt>
      <trkpt lat="33.706996981054544" lon="-5.425137039273977">
        <ele>793.70600000000002</ele>
        <time>2011-01-03T09:48:35Z</time>
      </trkpt>
      <trkpt lat="33.707382967695594" lon="-5.42656296864152">
        <ele>794.18600000000004</ele>
        <time>2011-01-03T09:48:41Z</time>
      </trkpt>
      <trkpt lat="33.707518000155687" lon="-5.428234990686178">
        <ele>796.59000000000003</ele>
        <time>2011-01-03T09:48:47Z</time>
      </trkpt>
      <trkpt lat="33.70776099152863" lon="-5.430909991264343">
        <ele>800.91600000000005</ele>
        <time>2011-01-03T09:48:56Z</time>
      </trkpt>
      <trkpt lat="33.708271030336618" lon="-5.432327035814524">
        <ele>797.07000000000005</ele>
        <time>2011-01-03T09:49:01Z</time>
      </trkpt>
      <trkpt lat="33.70977901853621" lon="-5.435263970866799">
        <ele>793.70600000000002</ele>
        <time>2011-01-03T09:49:12Z</time>
      </trkpt>
      <trkpt lat="33.711549025028944" lon="-5.438776994124055">
        <ele>791.30200000000002</ele>
        <time>2011-01-03T09:49:25Z</time>
      </trkpt>
      <trkpt lat="33.713224986568093" lon="-5.442183986306191">
        <ele>786.01499999999999</ele>
        <time>2011-01-03T09:49:37Z</time>
      </trkpt>
      <trkpt lat="33.714461987838149" lon="-5.444603003561497">
        <ele>781.68899999999996</ele>
        <time>2011-01-03T09:49:46Z</time>
      </trkpt>
      <trkpt lat="33.715420039370656" lon="-5.446545006707311">
        <ele>776.88300000000004</ele>
        <time>2011-01-03T09:49:54Z</time>
      </trkpt>
      <trkpt lat="33.716653017327189" lon="-5.449213972315192">
        <ele>769.673</ele>
        <time>2011-01-03T09:50:06Z</time>
      </trkpt>
      <trkpt lat="33.718000994995236" lon="-5.452355006709695">
        <ele>764.86599999999999</ele>
        <time>2011-01-03T09:50:20Z</time>
      </trkpt>
      <trkpt lat="33.718814961612225" lon="-5.453911023214459">
        <ele>763.90499999999997</ele>
        <time>2011-01-03T09:50:27Z</time>
      </trkpt>
      <trkpt lat="33.719779970124364" lon="-5.455187000334263">
        <ele>761.02099999999996</ele>
        <time>2011-01-03T09:50:33Z</time>
      </trkpt>
      <trkpt lat="33.721989020705223" lon="-5.457809027284384">
        <ele>753.33000000000004</ele>
        <time>2011-01-03T09:50:45Z</time>
      </trkpt>
      <trkpt lat="33.724388005211949" lon="-5.460305996239185">
        <ele>753.81100000000004</ele>
        <time>2011-01-03T09:50:57Z</time>
      </trkpt>
      <trkpt lat="33.726423969492316" lon="-5.462676985189319">
        <ele>755.25300000000004</ele>
        <time>2011-01-03T09:51:08Z</time>
      </trkpt>
      <trkpt lat="33.728316016495228" lon="-5.464815963059664">
        <ele>747.56200000000001</ele>
        <time>2011-01-03T09:51:18Z</time>
      </trkpt>
      <trkpt lat="33.730638977140188" lon="-5.467403959482908">
        <ele>730.25900000000001</ele>
        <time>2011-01-03T09:51:31Z</time>
      </trkpt>
      <trkpt lat="33.731107022613287" lon="-5.467933025211096">
        <ele>729.77800000000002</ele>
        <time>2011-01-03T09:51:35Z</time>
      </trkpt>
      <trkpt lat="33.73135001398623" lon="-5.468212980777025">
        <ele>728.81700000000001</ele>
        <time>2011-01-03T09:51:38Z</time>
      </trkpt>
      <trkpt lat="33.731624018400908" lon="-5.468527972698212">
        <ele>728.33600000000001</ele>
        <time>2011-01-03T09:51:42Z</time>
      </trkpt>
      <trkpt lat="33.732154006138444" lon="-5.469056032598019">
        <ele>730.25900000000001</ele>
        <time>2011-01-03T09:51:48Z</time>
      </trkpt>
      <trkpt lat="33.733075009658933" lon="-5.469825994223356">
        <ele>734.58500000000004</ele>
        <time>2011-01-03T09:51:55Z</time>
      </trkpt>
      <trkpt lat="33.73437998816371" lon="-5.470854034647346">
        <ele>738.91099999999994</ele>
        <time>2011-01-03T09:52:03Z</time>
      </trkpt>
      <trkpt lat="33.736458029597998" lon="-5.472258003428578">
        <ele>737.46900000000005</ele>
        <time>2011-01-03T09:52:14Z</time>
      </trkpt>
      <trkpt lat="33.738009016960859" lon="-5.472939033061266">
        <ele>733.14300000000003</ele>
        <time>2011-01-03T09:52:21Z</time>
      </trkpt>
      <trkpt lat="33.741152985021472" lon="-5.474248034879565">
        <ele>725.452</ele>
        <time>2011-01-03T09:52:35Z</time>
      </trkpt>
      <trkpt lat="33.742947969585657" lon="-5.475009027868509">
        <ele>720.16499999999996</ele>
        <time>2011-01-03T09:52:44Z</time>
      </trkpt>
      <trkpt lat="33.744751000776887" lon="-5.476319035515189">
        <ele>714.87699999999995</ele>
        <time>2011-01-03T09:52:54Z</time>
      </trkpt>
      <trkpt lat="33.746438026428223" lon="-5.477801039814949">
        <ele>712.47400000000005</ele>
        <time>2011-01-03T09:53:04Z</time>
      </trkpt>
      <trkpt lat="33.748166039586067" lon="-5.47958797775209">
        <ele>710.07100000000003</ele>
        <time>2011-01-03T09:53:16Z</time>
      </trkpt>
      <trkpt lat="33.749406980350614" lon="-5.480808969587088">
        <ele>706.70600000000002</ele>
        <time>2011-01-03T09:53:26Z</time>
      </trkpt>
      <trkpt lat="33.749690037220716" lon="-5.481078028678894">
        <ele>706.226</ele>
        <time>2011-01-03T09:53:29Z</time>
      </trkpt>
      <trkpt lat="33.750038975849748" lon="-5.481444988399744">
        <ele>706.70600000000002</ele>
        <time>2011-01-03T09:53:33Z</time>
      </trkpt>
      <trkpt lat="33.750836011022329" lon="-5.482322992756963">
        <ele>709.59000000000003</ele>
        <time>2011-01-03T09:53:40Z</time>
      </trkpt>
      <trkpt lat="33.752162028104067" lon="-5.483558988198638">
        <ele>714.39700000000005</ele>
        <time>2011-01-03T09:53:50Z</time>
      </trkpt>
      <trkpt lat="33.753066016361117" lon="-5.484084030613303">
        <ele>713.91600000000005</ele>
        <time>2011-01-03T09:53:57Z</time>
      </trkpt>
      <trkpt lat="33.753708992153406" lon="-5.484324004501104">
        <ele>717.28099999999995</ele>
        <time>2011-01-03T09:54:04Z</time>
      </trkpt>
      <trkpt lat="33.75461901538074" lon="-5.484491977840662">
        <ele>716.32000000000005</ele>
        <time>2011-01-03T09:54:13Z</time>
      </trkpt>
      <trkpt lat="33.755744034424424" lon="-5.484764976426959">
        <ele>708.14800000000002</ele>
        <time>2011-01-03T09:54:26Z</time>
      </trkpt>
      <trkpt lat="33.756641987711191" lon="-5.484950970858336">
        <ele>700.93799999999999</ele>
        <time>2011-01-03T09:54:36Z</time>
      </trkpt>
      <trkpt lat="33.757647983729839" lon="-5.485096983611584">
        <ele>696.61300000000006</ele>
        <time>2011-01-03T09:54:47Z</time>
      </trkpt>
      <trkpt lat="33.758581979200244" lon="-5.485264034941793">
        <ele>696.61300000000006</ele>
        <time>2011-01-03T09:54:58Z</time>
      </trkpt>
      <trkpt lat="33.759291004389524" lon="-5.485402001067996">
        <ele>698.05399999999997</ele>
        <time>2011-01-03T09:55:07Z</time>
      </trkpt>
      <trkpt lat="33.759898021817207" lon="-5.485534016042948">
        <ele>706.226</ele>
        <time>2011-01-03T09:55:16Z</time>
      </trkpt>
      <trkpt lat="33.760589025914669" lon="-5.485693020746112">
        <ele>708.14800000000002</ele>
        <time>2011-01-03T09:55:23Z</time>
      </trkpt>
      <trkpt lat="33.761487985029817" lon="-5.485898964107037">
        <ele>705.26400000000001</ele>
        <time>2011-01-03T09:55:32Z</time>
      </trkpt>
      <trkpt lat="33.762762034311891" lon="-5.486189983785152">
        <ele>704.303</ele>
        <time>2011-01-03T09:55:42Z</time>
      </trkpt>
      <trkpt lat="33.763848999515176" lon="-5.486421994864941">
        <ele>703.82299999999998</ele>
        <time>2011-01-03T09:55:51Z</time>
      </trkpt>
      <trkpt lat="33.765003019943833" lon="-5.486703040078282">
        <ele>704.303</ele>
        <time>2011-01-03T09:56:01Z</time>
      </trkpt>
      <trkpt lat="33.766168020665646" lon="-5.487006967887282">
        <ele>705.26400000000001</ele>
        <time>2011-01-03T09:56:09Z</time>
      </trkpt>
      <trkpt lat="33.767556985840201" lon="-5.487612979486585">
        <ele>705.745</ele>
        <time>2011-01-03T09:56:17Z</time>
      </trkpt>
      <trkpt lat="33.768644034862518" lon="-5.488414037972689">
        <ele>704.78399999999999</ele>
        <time>2011-01-03T09:56:23Z</time>
      </trkpt>
      <trkpt lat="33.770707994699478" lon="-5.489776013419032">
        <ele>703.34199999999998</ele>
        <time>2011-01-03T09:56:33Z</time>
      </trkpt>
      <trkpt lat="33.771921023726463" lon="-5.490017998963594">
        <ele>702.38</ele>
        <time>2011-01-03T09:56:38Z</time>
      </trkpt>
      <trkpt lat="33.7748599704355" lon="-5.490280017256737">
        <ele>700.93799999999999</ele>
        <time>2011-01-03T09:56:50Z</time>
      </trkpt>
      <trkpt lat="33.77694396302104" lon="-5.49048000946641">
        <ele>700.45799999999997</ele>
        <time>2011-01-03T09:56:59Z</time>
      </trkpt>
      <trkpt lat="33.779255021363497" lon="-5.49065301194787">
        <ele>695.65099999999995</ele>
        <time>2011-01-03T09:57:09Z</time>
      </trkpt>
      <trkpt lat="33.782312991097569" lon="-5.490965992212296">
        <ele>688.44100000000003</ele>
        <time>2011-01-03T09:57:22Z</time>
      </trkpt>
      <trkpt lat="33.786017037928104" lon="-5.491649033501744">
        <ele>680.75099999999998</ele>
        <time>2011-01-03T09:57:38Z</time>
      </trkpt>
      <trkpt lat="33.78873897716403" lon="-5.492312964051962">
        <ele>682.19299999999998</ele>
        <time>2011-01-03T09:57:50Z</time>
      </trkpt>
      <trkpt lat="33.791457982733846" lon="-5.493312003090978">
        <ele>676.90599999999995</ele>
        <time>2011-01-03T09:58:02Z</time>
      </trkpt>
      <trkpt lat="33.794871009886265" lon="-5.494688982143998">
        <ele>674.50199999999995</ele>
        <time>2011-01-03T09:58:17Z</time>
      </trkpt>
      <trkpt lat="33.796682003885508" lon="-5.495435977354646">
        <ele>671.13800000000003</ele>
        <time>2011-01-03T09:58:25Z</time>
      </trkpt>
      <trkpt lat="33.798794997856021" lon="-5.497074974700809">
        <ele>656.71799999999996</ele>
        <time>2011-01-03T09:58:36Z</time>
      </trkpt>
      <trkpt lat="33.799499999731779" lon="-5.49810997210443">
        <ele>650.46900000000005</ele>
        <time>2011-01-03T09:58:41Z</time>
      </trkpt>
      <trkpt lat="33.800092013552785" lon="-5.499519975855947">
        <ele>647.10400000000004</ele>
        <time>2011-01-03T09:58:47Z</time>
      </trkpt>
      <trkpt lat="33.80066198296845" lon="-5.500710960477591">
        <ele>646.14300000000003</ele>
        <time>2011-01-03T09:58:53Z</time>
      </trkpt>
      <trkpt lat="33.801099015399814" lon="-5.501372963190079">
        <ele>646.14300000000003</ele>
        <time>2011-01-03T09:58:58Z</time>
      </trkpt>
      <trkpt lat="33.801180990412831" lon="-5.501474970951676">
        <ele>645.66300000000001</ele>
        <time>2011-01-03T09:58:59Z</time>
      </trkpt>
      <trkpt lat="33.80195003002882" lon="-5.502265971153975">
        <ele>645.18200000000002</ele>
        <time>2011-01-03T09:59:06Z</time>
      </trkpt>
      <trkpt lat="33.802916966378689" lon="-5.503055965527892">
        <ele>644.221</ele>
        <time>2011-01-03T09:59:12Z</time>
      </trkpt>
      <trkpt lat="33.804451022297144" lon="-5.504334960132837">
        <ele>639.41399999999999</ele>
        <time>2011-01-03T09:59:20Z</time>
      </trkpt>
      <trkpt lat="33.807003982365131" lon="-5.5059929843992">
        <ele>636.04999999999995</ele>
        <time>2011-01-03T09:59:32Z</time>
      </trkpt>
      <trkpt lat="33.808705005794764" lon="-5.506882974877954">
        <ele>636.52999999999997</ele>
        <time>2011-01-03T09:59:40Z</time>
      </trkpt>
      <trkpt lat="33.810168989002705" lon="-5.507528968155384">
        <ele>633.64599999999996</ele>
        <time>2011-01-03T09:59:48Z</time>
      </trkpt>
      <trkpt lat="33.811368020251393" lon="-5.507997013628483">
        <ele>629.80100000000004</ele>
        <time>2011-01-03T09:59:56Z</time>
      </trkpt>
      <trkpt lat="33.811579998582602" lon="-5.508085023611784">
        <ele>629.32000000000005</ele>
        <time>2011-01-03T09:59:58Z</time>
      </trkpt>
      <trkpt lat="33.81226303987205" lon="-5.508410995826125">
        <ele>628.35900000000004</ele>
        <time>2011-01-03T10:00:04Z</time>
      </trkpt>
      <trkpt lat="33.813170967623591" lon="-5.50887300632894">
        <ele>626.43600000000004</ele>
        <time>2011-01-03T10:00:10Z</time>
      </trkpt>
      <trkpt lat="33.814581977203488" lon="-5.509728966280818">
        <ele>623.072</ele>
        <time>2011-01-03T10:00:18Z</time>
      </trkpt>
      <trkpt lat="33.817245997488499" lon="-5.511184986680746">
        <ele>621.63</ele>
        <time>2011-01-03T10:00:32Z</time>
      </trkpt>
      <trkpt lat="33.818482998758554" lon="-5.511799966916442">
        <ele>622.59100000000001</ele>
        <time>2011-01-03T10:00:39Z</time>
      </trkpt>
      <trkpt lat="33.819780014455318" lon="-5.512149995192885">
        <ele>627.87800000000004</ele>
        <time>2011-01-03T10:00:46Z</time>
      </trkpt>
      <trkpt lat="33.821381963789463" lon="-5.512469010427594">
        <ele>633.64599999999996</ele>
        <time>2011-01-03T10:00:54Z</time>
      </trkpt>
      <trkpt lat="33.82270404137671" lon="-5.513160014525056">
        <ele>634.60699999999997</ele>
        <time>2011-01-03T10:01:01Z</time>
      </trkpt>
      <trkpt lat="33.824648978188634" lon="-5.514289978891611">
        <ele>639.89499999999998</ele>
        <time>2011-01-03T10:01:12Z</time>
      </trkpt>
      <trkpt lat="33.825753964483738" lon="-5.514598013833165">
        <ele>641.81700000000001</ele>
        <time>2011-01-03T10:01:19Z</time>
      </trkpt>
      <trkpt lat="33.82665703073144" lon="-5.514828013256192">
        <ele>642.298</ele>
        <time>2011-01-03T10:01:26Z</time>
      </trkpt>
      <trkpt lat="33.826776975765824" lon="-5.514846034348011">
        <ele>642.779</ele>
        <time>2011-01-03T10:01:27Z</time>
      </trkpt>
      <trkpt lat="33.827384999021888" lon="-5.51493002101779">
        <ele>642.779</ele>
        <time>2011-01-03T10:01:33Z</time>
      </trkpt>
      <trkpt lat="33.827503016218543" lon="-5.514947036281228">
        <ele>642.779</ele>
        <time>2011-01-03T10:01:34Z</time>
      </trkpt>
      <trkpt lat="33.828700035810471" lon="-5.515073016285896">
        <ele>643.25900000000001</ele>
        <time>2011-01-03T10:01:42Z</time>
      </trkpt>
      <trkpt lat="33.830026974901557" lon="-5.515263034030795">
        <ele>642.298</ele>
        <time>2011-01-03T10:01:50Z</time>
      </trkpt>
      <trkpt lat="33.831868981942534" lon="-5.515840966254473">
        <ele>640.375</ele>
        <time>2011-01-03T10:02:02Z</time>
      </trkpt>
      <trkpt lat="33.832673979923129" lon="-5.516507998108864">
        <ele>639.89499999999998</ele>
        <time>2011-01-03T10:02:09Z</time>
      </trkpt>
      <trkpt lat="33.833023002371192" lon="-5.516893984749913">
        <ele>639.89499999999998</ele>
        <time>2011-01-03T10:02:13Z</time>
      </trkpt>
      <trkpt lat="33.833351992070675" lon="-5.517127001658082">
        <ele>639.41399999999999</ele>
        <time>2011-01-03T10:02:17Z</time>
      </trkpt>
      <trkpt lat="33.833544021472335" lon="-5.517223980277777">
        <ele>638.45299999999997</ele>
        <time>2011-01-03T10:02:20Z</time>
      </trkpt>
      <trkpt lat="33.83381400257349" lon="-5.517132030799985">
        <ele>640.85599999999999</ele>
        <time>2011-01-03T10:02:24Z</time>
      </trkpt>
      <trkpt lat="33.83402799256146" lon="-5.517196990549564">
        <ele>641.81700000000001</ele>
        <time>2011-01-03T10:02:29Z</time>
      </trkpt>
      <trkpt lat="33.834660993888974" lon="-5.517814988270402">
        <ele>640.375</ele>
        <time>2011-01-03T10:02:36Z</time>
      </trkpt>
      <trkpt lat="33.836037972941995" lon="-5.518599031493068">
        <ele>638.93399999999997</ele>
        <time>2011-01-03T10:02:46Z</time>
      </trkpt>
      <trkpt lat="33.83761896751821" lon="-5.519533026963472">
        <ele>636.52999999999997</ele>
        <time>2011-01-03T10:02:56Z</time>
      </trkpt>
      <trkpt lat="33.839225023984909" lon="-5.520501974970102">
        <ele>632.20399999999995</ele>
        <time>2011-01-03T10:03:06Z</time>
      </trkpt>
      <trkpt lat="33.841215977445245" lon="-5.521452985703945">
        <ele>625.95600000000002</ele>
        <time>2011-01-03T10:03:18Z</time>
      </trkpt>
      <trkpt lat="33.843366019427776" lon="-5.522489994764328">
        <ele>621.149</ele>
        <time>2011-01-03T10:03:32Z</time>
      </trkpt>
      <trkpt lat="33.844233965501189" lon="-5.522911017760634">
        <ele>619.226</ele>
        <time>2011-01-03T10:03:39Z</time>
      </trkpt>
      <trkpt lat="33.844405962154269" lon="-5.523003973066807">
        <ele>621.63</ele>
        <time>2011-01-03T10:03:43Z</time>
      </trkpt>
      <trkpt lat="33.844500007107854" lon="-5.523055018857122">
        <ele>624.99400000000003</ele>
        <time>2011-01-03T10:03:50Z</time>
      </trkpt>
      <trkpt lat="33.844616012647748" lon="-5.522897019982338">
        <ele>624.99400000000003</ele>
        <time>2011-01-03T10:03:51Z</time>
      </trkpt>
      <trkpt lat="33.844940979033709" lon="-5.523012019693852">
        <ele>625.95600000000002</ele>
        <time>2011-01-03T10:03:56Z</time>
      </trkpt>
      <trkpt lat="33.845621002838016" lon="-5.523530021309853">
        <ele>625.47500000000002</ele>
        <time>2011-01-03T10:04:05Z</time>
      </trkpt>
      <trkpt lat="33.846369003877044" lon="-5.523855993524194">
        <ele>624.99400000000003</ele>
        <time>2011-01-03T10:04:14Z</time>
      </trkpt>
      <trkpt lat="33.846805030480027" lon="-5.524046011269093">
        <ele>624.99400000000003</ele>
        <time>2011-01-03T10:04:23Z</time>
      </trkpt>
      <trkpt lat="33.847361002117395" lon="-5.524297971278429">
        <ele>625.47500000000002</ele>
        <time>2011-01-03T10:04:34Z</time>
      </trkpt>
      <trkpt lat="33.847969025373459" lon="-5.524589996784926">
        <ele>624.51400000000001</ele>
        <time>2011-01-03T10:04:40Z</time>
      </trkpt>
      <trkpt lat="33.849097983911633" lon="-5.525131970643997">
        <ele>623.072</ele>
        <time>2011-01-03T10:04:48Z</time>
      </trkpt>
      <trkpt lat="33.850589962676167" lon="-5.525831021368504">
        <ele>620.66800000000001</ele>
        <time>2011-01-03T10:04:59Z</time>
      </trkpt>
      <trkpt lat="33.851532004773617" lon="-5.526260007172823">
        <ele>618.26499999999999</ele>
        <time>2011-01-03T10:05:07Z</time>
      </trkpt>
      <trkpt lat="33.853338975459337" lon="-5.5271349940449">
        <ele>615.86199999999997</ele>
        <time>2011-01-03T10:05:21Z</time>
      </trkpt>
      <trkpt lat="33.854673039168119" lon="-5.527575965970755">
        <ele>609.61300000000006</ele>
        <time>2011-01-03T10:05:31Z</time>
      </trkpt>
      <trkpt lat="33.855918003246188" lon="-5.527905039489269">
        <ele>602.40300000000002</ele>
        <time>2011-01-03T10:05:41Z</time>
      </trkpt>
      <trkpt lat="33.857074035331607" lon="-5.528419017791748">
        <ele>599.51900000000001</ele>
        <time>2011-01-03T10:05:50Z</time>
      </trkpt>
      <trkpt lat="33.858850998803973" lon="-5.529314959421754">
        <ele>593.75099999999998</ele>
        <time>2011-01-03T10:06:03Z</time>
      </trkpt>
      <trkpt lat="33.860622011125088" lon="-5.530305029824376">
        <ele>592.78999999999996</ele>
        <time>2011-01-03T10:06:16Z</time>
      </trkpt>
      <trkpt lat="33.861407982185483" lon="-5.53106501698494">
        <ele>590.38699999999994</ele>
        <time>2011-01-03T10:06:23Z</time>
      </trkpt>
      <trkpt lat="33.862528977915645" lon="-5.532478960230947">
        <ele>587.02200000000005</ele>
        <time>2011-01-03T10:06:35Z</time>
      </trkpt>
      <trkpt lat="33.862739028409123" lon="-5.532753970474005">
        <ele>587.02200000000005</ele>
        <time>2011-01-03T10:06:40Z</time>
      </trkpt>
      <trkpt lat="33.86292602866888" lon="-5.53300098516047">
        <ele>586.06100000000004</ele>
        <time>2011-01-03T10:06:50Z</time>
      </trkpt>
      <trkpt lat="33.863091990351677" lon="-5.53321598097682">
        <ele>585.58000000000004</ele>
        <time>2011-01-03T10:06:57Z</time>
      </trkpt>
      <trkpt lat="33.863250995054841" lon="-5.533415973186493">
        <ele>585.58000000000004</ele>
        <time>2011-01-03T10:07:28Z</time>
      </trkpt>
      <trkpt lat="33.863728009164333" lon="-5.533914025872946">
        <ele>585.58000000000004</ele>
        <time>2011-01-03T10:07:36Z</time>
      </trkpt>
      <trkpt lat="33.864749008789659" lon="-5.534706031903625">
        <ele>584.13800000000003</ele>
        <time>2011-01-03T10:07:47Z</time>
      </trkpt>
      <trkpt lat="33.86574000120163" lon="-5.535566015169025">
        <ele>581.25400000000002</ele>
        <time>2011-01-03T10:07:56Z</time>
      </trkpt>
      <trkpt lat="33.866696041077375" lon="-5.536668989807367">
        <ele>575.48599999999999</ele>
        <time>2011-01-03T10:08:07Z</time>
      </trkpt>
      <trkpt lat="33.86724497191608" lon="-5.537354964762926">
        <ele>571.64099999999996</ele>
        <time>2011-01-03T10:08:15Z</time>
      </trkpt>
      <trkpt lat="33.86763297021389" lon="-5.537798032164574">
        <ele>569.23800000000006</ele>
        <time>2011-01-03T10:08:24Z</time>
      </trkpt>
      <trkpt lat="33.868234036490321" lon="-5.538341011852026">
        <ele>566.35400000000004</ele>
        <time>2011-01-03T10:08:32Z</time>
      </trkpt>
      <trkpt lat="33.868832001462579" lon="-5.53869397379458">
        <ele>563.47000000000003</ele>
        <time>2011-01-03T10:08:40Z</time>
      </trkpt>
      <trkpt lat="33.869470031931996" lon="-5.538788018748164">
        <ele>560.58600000000001</ele>
        <time>2011-01-03T10:08:48Z</time>
      </trkpt>
      <trkpt lat="33.870248040184379" lon="-5.538647035136819">
        <ele>558.18299999999999</ele>
        <time>2011-01-03T10:08:56Z</time>
      </trkpt>
      <trkpt lat="33.870998974889517" lon="-5.538183012977243">
        <ele>551.45299999999997</ele>
        <time>2011-01-03T10:09:04Z</time>
      </trkpt>
      <trkpt lat="33.871982004493475" lon="-5.537333004176617">
        <ele>546.64700000000005</ele>
        <time>2011-01-03T10:09:13Z</time>
      </trkpt>
      <trkpt lat="33.87285296805203" lon="-5.536550972610712">
        <ele>544.72400000000005</ele>
        <time>2011-01-03T10:09:22Z</time>
      </trkpt>
      <trkpt lat="33.873084979131818" lon="-5.536356009542942">
        <ele>544.72400000000005</ele>
        <time>2011-01-03T10:09:27Z</time>
      </trkpt>
      <trkpt lat="33.873167037963867" lon="-5.53628702647984">
        <ele>546.16600000000005</ele>
        <time>2011-01-03T10:09:34Z</time>
      </trkpt>
      <trkpt lat="33.873310033231974" lon="-5.536168003454804">
        <ele>547.60799999999995</ele>
        <time>2011-01-03T10:09:43Z</time>
      </trkpt>
      <trkpt lat="33.873817976564169" lon="-5.535742035135627">
        <ele>545.68600000000004</ele>
        <time>2011-01-03T10:09:51Z</time>
      </trkpt>
      <trkpt lat="33.874566983431578" lon="-5.535051031038165">
        <ele>544.72400000000005</ele>
        <time>2011-01-03T10:09:59Z</time>
      </trkpt>
      <trkpt lat="33.875434007495642" lon="-5.53435399197042">
        <ele>545.68600000000004</ele>
        <time>2011-01-03T10:10:06Z</time>
      </trkpt>
      <trkpt lat="33.876948030665517" lon="-5.533200977370143">
        <ele>546.64700000000005</ele>
        <time>2011-01-03T10:10:19Z</time>
      </trkpt>
      <trkpt lat="33.877860987558961" lon="-5.532822031527758">
        <ele>545.20500000000004</ele>
        <time>2011-01-03T10:10:26Z</time>
      </trkpt>
      <trkpt lat="33.878946024924517" lon="-5.532838962972164">
        <ele>546.16600000000005</ele>
        <time>2011-01-03T10:10:33Z</time>
      </trkpt>
      <trkpt lat="33.880078000947833" lon="-5.532861007377505">
        <ele>550.49199999999996</ele>
        <time>2011-01-03T10:10:41Z</time>
      </trkpt>
      <trkpt lat="33.881366970017552" lon="-5.532941976562142">
        <ele>554.81799999999998</ele>
        <time>2011-01-03T10:10:51Z</time>
      </trkpt>
      <trkpt lat="33.882073983550072" lon="-5.533315977081657">
        <ele>557.221</ele>
        <time>2011-01-03T10:10:57Z</time>
      </trkpt>
      <trkpt lat="33.88245603069663" lon="-5.534055009484291">
        <ele>560.10500000000002</ele>
        <time>2011-01-03T10:11:02Z</time>
      </trkpt>
      <trkpt lat="33.882785020396113" lon="-5.535314977169037">
        <ele>558.18299999999999</ele>
        <time>2011-01-03T10:11:10Z</time>
      </trkpt>
      <trkpt lat="33.883216017857194" lon="-5.535914031788707">
        <ele>558.18299999999999</ele>
        <time>2011-01-03T10:11:15Z</time>
      </trkpt>
      <trkpt lat="33.884513033553958" lon="-5.537093030288816">
        <ele>558.18299999999999</ele>
        <time>2011-01-03T10:11:27Z</time>
      </trkpt>
      <trkpt lat="33.88550796546042" lon="-5.538095002993941">
        <ele>556.74099999999999</ele>
        <time>2011-01-03T10:11:36Z</time>
      </trkpt>
      <trkpt lat="33.886508010327816" lon="-5.539298979565501">
        <ele>553.85699999999997</ele>
        <time>2011-01-03T10:11:47Z</time>
      </trkpt>
      <trkpt lat="33.887260034680367" lon="-5.540376976132393">
        <ele>551.93399999999997</ele>
        <time>2011-01-03T10:11:56Z</time>
      </trkpt>
      <trkpt lat="33.888165028765798" lon="-5.542142959311605">
        <ele>549.04999999999995</ele>
        <time>2011-01-03T10:12:08Z</time>
      </trkpt>
      <trkpt lat="33.888786965981126" lon="-5.543136969208717">
        <ele>546.64700000000005</ele>
        <time>2011-01-03T10:12:16Z</time>
      </trkpt>
      <trkpt lat="33.890073001384735" lon="-5.544890966266394">
        <ele>540.39800000000002</ele>
        <time>2011-01-03T10:12:30Z</time>
      </trkpt>
      <trkpt lat="33.891278989613056" lon="-5.546101983636618">
        <ele>535.59199999999998</ele>
        <time>2011-01-03T10:12:41Z</time>
      </trkpt>
      <trkpt lat="33.892478020861745" lon="-5.547507964074612">
        <ele>532.22699999999998</ele>
        <time>2011-01-03T10:12:52Z</time>
      </trkpt>
      <trkpt lat="33.893228033557534" lon="-5.548306005075574">
        <ele>526.94000000000005</ele>
        <time>2011-01-03T10:13:00Z</time>
      </trkpt>
      <trkpt lat="33.893427019938827" lon="-5.548487976193428">
        <ele>525.49800000000005</ele>
        <time>2011-01-03T10:13:03Z</time>
      </trkpt>
      <trkpt lat="33.893921971321106" lon="-5.549004971981049">
        <ele>521.65300000000002</ele>
        <time>2011-01-03T10:13:13Z</time>
      </trkpt>
      <trkpt lat="33.894100002944469" lon="-5.54920001886785">
        <ele>519.73000000000002</ele>
        <time>2011-01-03T10:13:21Z</time>
      </trkpt>
      <trkpt lat="33.894337965175509" lon="-5.549418032169342">
        <ele>519.73000000000002</ele>
        <time>2011-01-03T10:13:30Z</time>
      </trkpt>
      <trkpt lat="33.894515996798873" lon="-5.549674015492201">
        <ele>519.24900000000002</ele>
        <time>2011-01-03T10:13:38Z</time>
      </trkpt>
      <trkpt lat="33.894581040367484" lon="-5.549841988831759">
        <ele>518.76900000000001</ele>
        <time>2011-01-03T10:13:43Z</time>
      </trkpt>
      <trkpt lat="33.894603000953794" lon="-5.550048016011715">
        <ele>517.327</ele>
        <time>2011-01-03T10:13:48Z</time>
      </trkpt>
      <trkpt lat="33.894240986555815" lon="-5.550830969586968">
        <ele>515.88499999999999</ele>
        <time>2011-01-03T10:13:57Z</time>
      </trkpt>
      <trkpt lat="33.894068989902735" lon="-5.55164803750813">
        <ele>513.96199999999999</ele>
        <time>2011-01-03T10:14:06Z</time>
      </trkpt>
      <trkpt lat="33.894122969359159" lon="-5.552098983898759">
        <ele>512.51999999999998</ele>
        <time>2011-01-03T10:14:10Z</time>
      </trkpt>
      <trkpt lat="33.894497975707054" lon="-5.553138004615903">
        <ele>509.63600000000002</ele>
        <time>2011-01-03T10:14:19Z</time>
      </trkpt>
      <trkpt lat="33.895138017833233" lon="-5.554423034191132">
        <ele>503.387</ele>
        <time>2011-01-03T10:14:30Z</time>
      </trkpt>
      <trkpt lat="33.895516963675618" lon="-5.555149996653199">
        <ele>500.02300000000002</ele>
        <time>2011-01-03T10:14:37Z</time>
      </trkpt>
      <trkpt lat="33.895659036934376" lon="-5.555467000231147">
        <ele>499.06200000000001</ele>
        <time>2011-01-03T10:14:44Z</time>
      </trkpt>
      <trkpt lat="33.896218026056886" lon="-5.555412014946342">
        <ele>501.46499999999997</ele>
        <time>2011-01-03T10:15:12Z</time>
      </trkpt>
      <trkpt lat="33.896323973312974" lon="-5.555262984707952">
        <ele>502.90699999999998</ele>
        <time>2011-01-03T10:15:14Z</time>
      </trkpt>
      <trkpt lat="33.897074991837144" lon="-5.554430996999145">
        <ele>510.59699999999998</ele>
        <time>2011-01-03T10:15:24Z</time>
      </trkpt>
      <trkpt lat="33.897267021238804" lon="-5.554212983697653">
        <ele>513.96199999999999</ele>
        <time>2011-01-03T10:15:29Z</time>
      </trkpt>
      <trkpt lat="33.897401969879866" lon="-5.554047022014856">
        <ele>516.36500000000001</ele>
        <time>2011-01-03T10:15:35Z</time>
      </trkpt>
      <trkpt lat="33.897755015641451" lon="-5.553632033988833">
        <ele>520.69100000000003</ele>
        <time>2011-01-03T10:15:46Z</time>
      </trkpt>
      <trkpt lat="33.897897005081177" lon="-5.553472023457289">
        <ele>523.57500000000005</ele>
        <time>2011-01-03T10:16:18Z</time>
      </trkpt>
      <trkpt lat="33.898060033097863" lon="-5.553294997662306">
        <ele>524.53599999999994</ele>
        <time>2011-01-03T10:16:22Z</time>
      </trkpt>
      <trkpt lat="33.898215014487505" lon="-5.553136998787522">
        <ele>524.53599999999994</ele>
        <time>2011-01-03T10:16:27Z</time>
      </trkpt>
      <trkpt lat="33.898630002513528" lon="-5.553403040394187">
        <ele>523.09500000000003</ele>
        <time>2011-01-03T10:16:58Z</time>
      </trkpt>
      <trkpt lat="33.898776015266776" lon="-5.553463976830244">
        <ele>522.61400000000003</ele>
        <time>2011-01-03T10:17:04Z</time>
      </trkpt>
      <trkpt lat="33.899026969447732" lon="-5.553570007905364">
        <ele>524.53599999999994</ele>
        <time>2011-01-03T10:17:11Z</time>
      </trkpt>
      <trkpt lat="33.899423014372587" lon="-5.55375499650836">
        <ele>523.09500000000003</ele>
        <time>2011-01-03T10:17:19Z</time>
      </trkpt>
      <trkpt lat="33.899706993252039" lon="-5.553888017311692">
        <ele>522.61400000000003</ele>
        <time>2011-01-03T10:17:23Z</time>
      </trkpt>
      <trkpt lat="33.900716006755829" lon="-5.554174007847905">
        <ele>516.36500000000001</ele>
        <time>2011-01-03T10:17:38Z</time>
      </trkpt>
      <trkpt lat="33.901451015844941" lon="-5.554294036701322">
        <ele>511.55900000000003</ele>
        <time>2011-01-03T10:17:50Z</time>
      </trkpt>
      <trkpt lat="33.902085023000836" lon="-5.554440971463919">
        <ele>506.75200000000001</ele>
        <time>2011-01-03T10:17:58Z</time>
      </trkpt>
      <trkpt lat="33.902562037110329" lon="-5.554650016129017">
        <ele>506.27100000000002</ele>
        <time>2011-01-03T10:18:06Z</time>
      </trkpt>
      <trkpt lat="33.903222028166056" lon="-5.554983029142022">
        <ele>505.791</ele>
        <time>2011-01-03T10:18:17Z</time>
      </trkpt>
      <trkpt lat="33.904013028368354" lon="-5.555331967771053">
        <ele>498.10000000000002</ele>
        <time>2011-01-03T10:18:25Z</time>
      </trkpt>
      <trkpt lat="33.905199989676476" lon="-5.556047027930617">
        <ele>490.41000000000003</ele>
        <time>2011-01-03T10:18:38Z</time>
      </trkpt>
      <trkpt lat="33.906361972913146" lon="-5.556550025939941">
        <ele>482.23899999999998</ele>
        <time>2011-01-03T10:18:50Z</time>
      </trkpt>
      <trkpt lat="33.907334022223949" lon="-5.556705007329583">
        <ele>475.50900000000001</ele>
        <time>2011-01-03T10:19:00Z</time>
      </trkpt>
      <trkpt lat="33.907815981656313" lon="-5.556747000664473">
        <ele>473.58699999999999</ele>
        <time>2011-01-03T10:19:07Z</time>
      </trkpt>
      <trkpt lat="33.908342029899359" lon="-5.556752029806376">
        <ele>470.22199999999998</ele>
        <time>2011-01-03T10:19:15Z</time>
      </trkpt>
      <trkpt lat="33.909187009558082" lon="-5.556724034249783">
        <ele>465.416</ele>
        <time>2011-01-03T10:19:23Z</time>
      </trkpt>
      <trkpt lat="33.9100650139153" lon="-5.556897958740592">
        <ele>462.05099999999999</ele>
        <time>2011-01-03T10:19:30Z</time>
      </trkpt>
      <trkpt lat="33.911257004365325" lon="-5.557409003376961">
        <ele>455.80200000000002</ele>
        <time>2011-01-03T10:19:39Z</time>
      </trkpt>
      <trkpt lat="33.912701038643718" lon="-5.558091960847378">
        <ele>447.14999999999998</ele>
        <time>2011-01-03T10:19:48Z</time>
      </trkpt>
      <trkpt lat="33.914224030449986" lon="-5.558858988806605">
        <ele>438.01799999999997</ele>
        <time>2011-01-03T10:19:57Z</time>
      </trkpt>
      <trkpt lat="33.915102034807205" lon="-5.559270959347487">
        <ele>431.76900000000001</ele>
        <time>2011-01-03T10:20:03Z</time>
      </trkpt>
      <trkpt lat="33.916471973061562" lon="-5.559897003695369">
        <ele>421.67500000000001</ele>
        <time>2011-01-03T10:20:13Z</time>
      </trkpt>
      <trkpt lat="33.918018015101552" lon="-5.560622960329056">
        <ele>409.65899999999999</ele>
        <time>2011-01-03T10:20:24Z</time>
      </trkpt>
      <trkpt lat="33.919307989999652" lon="-5.561299966648221">
        <ele>398.12299999999999</ele>
        <time>2011-01-03T10:20:34Z</time>
      </trkpt>
      <trkpt lat="33.919892041012645" lon="-5.561412032693625">
        <ele>394.27800000000002</ele>
        <time>2011-01-03T10:20:40Z</time>
      </trkpt>
      <trkpt lat="33.920409958809614" lon="-5.56136098690331">
        <ele>392.35500000000002</ele>
        <time>2011-01-03T10:20:46Z</time>
      </trkpt>
      <trkpt lat="33.921154020354152" lon="-5.5612129624933">
        <ele>391.39400000000001</ele>
        <time>2011-01-03T10:20:52Z</time>
      </trkpt>
      <trkpt lat="33.921457026153803" lon="-5.561125036329031">
        <ele>389.952</ele>
        <time>2011-01-03T10:20:55Z</time>
      </trkpt>
      <trkpt lat="33.921758020296693" lon="-5.561039038002491">
        <ele>388.50999999999999</ele>
        <time>2011-01-03T10:20:59Z</time>
      </trkpt>
      <trkpt lat="33.922478025779128" lon="-5.560794034972787">
        <ele>385.62599999999998</ele>
        <time>2011-01-03T10:21:06Z</time>
      </trkpt>
      <trkpt lat="33.923372961580753" lon="-5.560648022219539">
        <ele>384.66500000000002</ele>
        <time>2011-01-03T10:21:12Z</time>
      </trkpt>
      <trkpt lat="33.924372000619769" lon="-5.560849020257592">
        <ele>380.339</ele>
        <time>2011-01-03T10:21:18Z</time>
      </trkpt>
      <trkpt lat="33.926205039024353" lon="-5.561530971899629">
        <ele>367.84199999999998</ele>
        <time>2011-01-03T10:21:28Z</time>
      </trkpt>
      <trkpt lat="33.927744962275028" lon="-5.56202600710094">
        <ele>370.726</ele>
        <time>2011-01-03T10:21:36Z</time>
      </trkpt>
      <trkpt lat="33.92877803184092" lon="-5.5625219643116">
        <ele>369.76400000000001</ele>
        <time>2011-01-03T10:21:42Z</time>
      </trkpt>
      <trkpt lat="33.930359026417136" lon="-5.56329402141273">
        <ele>366.88</ele>
        <time>2011-01-03T10:21:51Z</time>
      </trkpt>
      <trkpt lat="33.931475998833776" lon="-5.56344497948885">
        <ele>367.36099999999999</ele>
        <time>2011-01-03T10:21:57Z</time>
      </trkpt>
      <trkpt lat="33.932504961267114" lon="-5.563663998618722">
        <ele>363.99599999999998</ele>
        <time>2011-01-03T10:22:03Z</time>
      </trkpt>
      <trkpt lat="33.93359100446105" lon="-5.564145036041737">
        <ele>356.30599999999998</ele>
        <time>2011-01-03T10:22:10Z</time>
      </trkpt>
      <trkpt lat="33.934527011588216" lon="-5.564249977469444">
        <ele>350.05700000000002</ele>
        <time>2011-01-03T10:22:16Z</time>
      </trkpt>
      <trkpt lat="33.935662005096674" lon="-5.564335975795984">
        <ele>347.173</ele>
        <time>2011-01-03T10:22:23Z</time>
      </trkpt>
      <trkpt lat="33.936789035797119" lon="-5.564385009929538">
        <ele>341.40499999999997</ele>
        <time>2011-01-03T10:22:30Z</time>
      </trkpt>
      <trkpt lat="33.938859030604362" lon="-5.564827993512154">
        <ele>329.87</ele>
        <time>2011-01-03T10:22:43Z</time>
      </trkpt>
      <trkpt lat="33.940326031297445" lon="-5.565282963216305">
        <ele>324.58199999999999</ele>
        <time>2011-01-03T10:22:52Z</time>
      </trkpt>
      <trkpt lat="33.941527996212244" lon="-5.565898027271032">
        <ele>320.73700000000002</ele>
        <time>2011-01-03T10:22:59Z</time>
      </trkpt>
      <trkpt lat="33.943533031269908" lon="-5.567354969680309">
        <ele>319.77600000000001</ele>
        <time>2011-01-03T10:23:11Z</time>
      </trkpt>
      <trkpt lat="33.944409023970366" lon="-5.568238003179431">
        <ele>321.69799999999998</ele>
        <time>2011-01-03T10:23:18Z</time>
      </trkpt>
      <trkpt lat="33.944993996992707" lon="-5.568921966478229">
        <ele>322.17899999999997</ele>
        <time>2011-01-03T10:23:23Z</time>
      </trkpt>
      <trkpt lat="33.945563966408372" lon="-5.56991103105247">
        <ele>322.66000000000003</ele>
        <time>2011-01-03T10:23:29Z</time>
      </trkpt>
      <trkpt lat="33.946213982999325" lon="-5.571555979549885">
        <ele>320.25599999999997</ele>
        <time>2011-01-03T10:23:38Z</time>
      </trkpt>
      <trkpt lat="33.946994002908468" lon="-5.572719974443317">
        <ele>322.17899999999997</ele>
        <time>2011-01-03T10:23:45Z</time>
      </trkpt>
      <trkpt lat="33.947720965370536" lon="-5.573341995477676">
        <ele>324.10199999999998</ele>
        <time>2011-01-03T10:23:50Z</time>
      </trkpt>
      <trkpt lat="33.9485689625144" lon="-5.573636032640934">
        <ele>321.21800000000002</ele>
        <time>2011-01-03T10:23:55Z</time>
      </trkpt>
      <trkpt lat="33.950053984299302" lon="-5.573740974068642">
        <ele>312.08499999999998</ele>
        <time>2011-01-03T10:24:03Z</time>
      </trkpt>
      <trkpt lat="33.952516000717878" lon="-5.573968961834908">
        <ele>302.95299999999997</ele>
        <time>2011-01-03T10:24:16Z</time>
      </trkpt>
      <trkpt lat="33.953656023368239" lon="-5.57420901954174">
        <ele>295.74299999999999</ele>
        <time>2011-01-03T10:24:23Z</time>
      </trkpt>
      <trkpt lat="33.95522503182292" lon="-5.574840009212494">
        <ele>289.01400000000001</ele>
        <time>2011-01-03T10:24:33Z</time>
      </trkpt>
      <trkpt lat="33.956266986206174" lon="-5.575118958950043">
        <ele>286.13</ele>
        <time>2011-01-03T10:24:39Z</time>
      </trkpt>
      <trkpt lat="33.95825601182878" lon="-5.575483990833163">
        <ele>285.16800000000001</ele>
        <time>2011-01-03T10:24:50Z</time>
      </trkpt>
      <trkpt lat="33.959247004240751" lon="-5.575784984976053">
        <ele>285.649</ele>
        <time>2011-01-03T10:24:56Z</time>
      </trkpt>
      <trkpt lat="33.960544019937515" lon="-5.576327964663506">
        <ele>286.13</ele>
        <time>2011-01-03T10:25:05Z</time>
      </trkpt>
      <trkpt lat="33.961474997922778" lon="-5.576622001826763">
        <ele>290.93599999999998</ele>
        <time>2011-01-03T10:25:11Z</time>
      </trkpt>
      <trkpt lat="33.962320983409882" lon="-5.576580008491874">
        <ele>295.262</ele>
        <time>2011-01-03T10:25:16Z</time>
      </trkpt>
      <trkpt lat="33.963177027180791" lon="-5.576126966625452">
        <ele>300.54899999999998</ele>
        <time>2011-01-03T10:25:21Z</time>
      </trkpt>
      <trkpt lat="33.96418402902782" lon="-5.575224990025163">
        <ele>307.279</ele>
        <time>2011-01-03T10:25:28Z</time>
      </trkpt>
      <trkpt lat="33.964979974552989" lon="-5.574677987024188">
        <ele>314.96899999999999</ele>
        <time>2011-01-03T10:25:34Z</time>
      </trkpt>
      <trkpt lat="33.966030981391668" lon="-5.574118997901678">
        <ele>324.10199999999998</ele>
        <time>2011-01-03T10:25:42Z</time>
      </trkpt>
      <trkpt lat="33.966439012438059" lon="-5.57407901622355">
        <ele>326.98599999999999</ele>
        <time>2011-01-03T10:25:45Z</time>
      </trkpt>
      <trkpt lat="33.967358004301786" lon="-5.574140958487988">
        <ele>330.83100000000002</ele>
        <time>2011-01-03T10:25:51Z</time>
      </trkpt>
      <trkpt lat="33.967770980671048" lon="-5.574395013973117">
        <ele>331.31200000000001</ele>
        <time>2011-01-03T10:25:54Z</time>
      </trkpt>
      <trkpt lat="33.969194982200861" lon="-5.575210992246866">
        <ele>329.38900000000001</ele>
        <time>2011-01-03T10:26:03Z</time>
      </trkpt>
      <trkpt lat="33.970318995416164" lon="-5.5756910238415">
        <ele>326.98599999999999</ele>
        <time>2011-01-03T10:26:10Z</time>
      </trkpt>
      <trkpt lat="33.971846010535955" lon="-5.576435001567006">
        <ele>314.00799999999998</ele>
        <time>2011-01-03T10:26:20Z</time>
      </trkpt>
      <trkpt lat="33.973615011200309" lon="-5.57726196013391">
        <ele>302.47199999999998</ele>
        <time>2011-01-03T10:26:31Z</time>
      </trkpt>
      <trkpt lat="33.974750004708767" lon="-5.577573012560606">
        <ele>308.24000000000001</ele>
        <time>2011-01-03T10:26:38Z</time>
      </trkpt>
      <trkpt lat="33.975495994091034" lon="-5.577621962875128">
        <ele>312.56599999999997</ele>
        <time>2011-01-03T10:26:43Z</time>
      </trkpt>
      <trkpt lat="33.976169982925057" lon="-5.577314011752605">
        <ele>314.488</ele>
        <time>2011-01-03T10:26:48Z</time>
      </trkpt>
      <trkpt lat="33.976637022569776" lon="-5.576740019023418">
        <ele>313.04700000000003</ele>
        <time>2011-01-03T10:26:53Z</time>
      </trkpt>
      <trkpt lat="33.976794015616179" lon="-5.576245989650488">
        <ele>310.16199999999998</ele>
        <time>2011-01-03T10:26:56Z</time>
      </trkpt>
      <trkpt lat="33.977044969797134" lon="-5.574470032006502">
        <ele>302.95299999999997</ele>
        <time>2011-01-03T10:27:04Z</time>
      </trkpt>
      <trkpt lat="33.977545034140348" lon="-5.572400959208608">
        <ele>299.10700000000003</ele>
        <time>2011-01-03T10:27:14Z</time>
      </trkpt>
      <trkpt lat="33.977925991639495" lon="-5.571272000670433">
        <ele>297.185</ele>
        <time>2011-01-03T10:27:20Z</time>
      </trkpt>
      <trkpt lat="33.97847299464047" lon="-5.569895021617413">
        <ele>290.93599999999998</ele>
        <time>2011-01-03T10:27:27Z</time>
      </trkpt>
      <trkpt lat="33.978982027620077" lon="-5.568590965121985">
        <ele>285.16800000000001</ele>
        <time>2011-01-03T10:27:33Z</time>
      </trkpt>
      <trkpt lat="33.979979977011681" lon="-5.566261969506741">
        <ele>279.88099999999997</ele>
        <time>2011-01-03T10:27:44Z</time>
      </trkpt>
      <trkpt lat="33.980854041874409" lon="-5.564439995214343">
        <ele>282.28399999999999</ele>
        <time>2011-01-03T10:27:54Z</time>
      </trkpt>
      <trkpt lat="33.981510009616613" lon="-5.563236018642783">
        <ele>287.09100000000001</ele>
        <time>2011-01-03T10:28:02Z</time>
      </trkpt>
      <trkpt lat="33.981628026813269" lon="-5.562941981479526">
        <ele>289.01400000000001</ele>
        <time>2011-01-03T10:28:05Z</time>
      </trkpt>
      <trkpt lat="33.9820840023458" lon="-5.56280099786818">
        <ele>290.45600000000002</ele>
        <time>2011-01-03T10:28:11Z</time>
      </trkpt>
      <trkpt lat="33.98227603174746" lon="-5.56284299120307">
        <ele>290.45600000000002</ele>
        <time>2011-01-03T10:28:13Z</time>
      </trkpt>
      <trkpt lat="33.983228970319033" lon="-5.563096040859819">
        <ele>294.78100000000001</ele>
        <time>2011-01-03T10:28:20Z</time>
      </trkpt>
      <trkpt lat="33.983524013310671" lon="-5.563169969245791">
        <ele>296.22399999999999</ele>
        <time>2011-01-03T10:28:22Z</time>
      </trkpt>
      <trkpt lat="33.984399000182748" lon="-5.563102997839451">
        <ele>302.47199999999998</ele>
        <time>2011-01-03T10:28:28Z</time>
      </trkpt>
      <trkpt lat="33.985547991469502" lon="-5.562819018959999">
        <ele>308.24000000000001</ele>
        <time>2011-01-03T10:28:35Z</time>
      </trkpt>
      <trkpt lat="33.987124962732196" lon="-5.562233040109277">
        <ele>317.37200000000001</ele>
        <time>2011-01-03T10:28:45Z</time>
      </trkpt>
      <trkpt lat="33.987264018505812" lon="-5.562222981825471">
        <ele>318.334</ele>
        <time>2011-01-03T10:28:46Z</time>
      </trkpt>
      <trkpt lat="33.988157026469707" lon="-5.562301017343998">
        <ele>322.17899999999997</ele>
        <time>2011-01-03T10:28:52Z</time>
      </trkpt>
      <trkpt lat="33.988309996202588" lon="-5.562314009293914">
        <ele>322.66000000000003</ele>
        <time>2011-01-03T10:28:53Z</time>
      </trkpt>
      <trkpt lat="33.989840028807521" lon="-5.562592037022114">
        <ele>330.35000000000002</ele>
        <time>2011-01-03T10:29:03Z</time>
      </trkpt>
      <trkpt lat="33.989966008812189" lon="-5.562630007043481">
        <ele>330.83100000000002</ele>
        <time>2011-01-03T10:29:04Z</time>
      </trkpt>
      <trkpt lat="33.990644020959735" lon="-5.562690021470189">
        <ele>334.19499999999999</ele>
        <time>2011-01-03T10:29:09Z</time>
      </trkpt>
      <trkpt lat="33.991796029731631" lon="-5.562557000666857">
        <ele>339.00200000000001</ele>
        <time>2011-01-03T10:29:17Z</time>
      </trkpt>
      <trkpt lat="33.99254503659904" lon="-5.562278972938657">
        <ele>342.36700000000002</ele>
        <time>2011-01-03T10:29:22Z</time>
      </trkpt>
      <trkpt lat="33.993191029876471" lon="-5.561893992125988">
        <ele>345.73099999999999</ele>
        <time>2011-01-03T10:29:27Z</time>
      </trkpt>
      <trkpt lat="33.994228038936853" lon="-5.560942981392145">
        <ele>351.49900000000002</ele>
        <time>2011-01-03T10:29:37Z</time>
      </trkpt>
      <trkpt lat="33.995284996926785" lon="-5.560120968148112">
        <ele>357.74799999999999</ele>
        <time>2011-01-03T10:29:47Z</time>
      </trkpt>
      <trkpt lat="33.996058981865644" lon="-5.559607995674014">
        <ele>360.63200000000001</ele>
        <time>2011-01-03T10:29:53Z</time>
      </trkpt>
      <trkpt lat="33.997253989800811" lon="-5.558960996568203">
        <ele>362.07400000000001</ele>
        <time>2011-01-03T10:30:00Z</time>
      </trkpt>
      <trkpt lat="33.999410988762975" lon="-5.557841006666422">
        <ele>368.322</ele>
        <time>2011-01-03T10:30:12Z</time>
      </trkpt>
      <trkpt lat="34.001990016549826" lon="-5.556649016216397">
        <ele>377.935</ele>
        <time>2011-01-03T10:30:26Z</time>
      </trkpt>
      <trkpt lat="34.002889981493354" lon="-5.55620301514864">
        <ele>382.26100000000002</ele>
        <time>2011-01-03T10:30:31Z</time>
      </trkpt>
      <trkpt lat="34.0042760130018" lon="-5.556059014052153">
        <ele>386.10700000000003</ele>
        <time>2011-01-03T10:30:38Z</time>
      </trkpt>
      <trkpt lat="34.006007965654135" lon="-5.556196980178356">
        <ele>392.35500000000002</ele>
        <time>2011-01-03T10:30:47Z</time>
      </trkpt>
      <trkpt lat="34.006664017215371" lon="-5.556536028161645">
        <ele>396.20100000000002</ele>
        <time>2011-01-03T10:30:52Z</time>
      </trkpt>
      <trkpt lat="34.006758984178305" lon="-5.55665597319603">
        <ele>396.68099999999998</ele>
        <time>2011-01-03T10:30:53Z</time>
      </trkpt>
      <trkpt lat="34.006952019408345" lon="-5.556925032287836">
        <ele>398.60399999999998</ele>
        <time>2011-01-03T10:30:55Z</time>
      </trkpt>
      <trkpt lat="34.007170032709837" lon="-5.557697005569935">
        <ele>401.00700000000001</ele>
        <time>2011-01-03T10:30:59Z</time>
      </trkpt>
      <trkpt lat="34.007251001894474" lon="-5.558108976110816">
        <ele>402.93000000000001</ele>
        <time>2011-01-03T10:31:01Z</time>
      </trkpt>
      <trkpt lat="34.007616033777595" lon="-5.558656984940171">
        <ele>407.73599999999999</ele>
        <time>2011-01-03T10:31:05Z</time>
      </trkpt>
      <trkpt lat="34.008235959336162" lon="-5.558931995183229">
        <ele>412.06200000000001</ele>
        <time>2011-01-03T10:31:09Z</time>
      </trkpt>
      <trkpt lat="34.008404016494751" lon="-5.558970971032977">
        <ele>413.50400000000002</ele>
        <time>2011-01-03T10:31:10Z</time>
      </trkpt>
      <trkpt lat="34.009938994422555" lon="-5.559166017919779">
        <ele>422.15600000000001</ele>
        <time>2011-01-03T10:31:18Z</time>
      </trkpt>
      <trkpt lat="34.01076402515173" lon="-5.559531971812248">
        <ele>426.96300000000002</ele>
        <time>2011-01-03T10:31:23Z</time>
      </trkpt>
      <trkpt lat="34.010898973792791" lon="-5.559662980958819">
        <ele>427.44299999999998</ele>
        <time>2011-01-03T10:31:24Z</time>
      </trkpt>
      <trkpt lat="34.011317985132337" lon="-5.560273015871644">
        <ele>431.28899999999999</ele>
        <time>2011-01-03T10:31:28Z</time>
      </trkpt>
      <trkpt lat="34.012198001146317" lon="-5.562170008197427">
        <ele>439.94</ele>
        <time>2011-01-03T10:31:38Z</time>
      </trkpt>
      <trkpt lat="34.01269999332726" lon="-5.563077013939619">
        <ele>438.49900000000002</ele>
        <time>2011-01-03T10:31:44Z</time>
      </trkpt>
      <trkpt lat="34.013211037963629" lon="-5.563609013333917">
        <ele>438.97899999999998</ele>
        <time>2011-01-03T10:31:49Z</time>
      </trkpt>
      <trkpt lat="34.01375200599432" lon="-5.563929034397006">
        <ele>438.97899999999998</ele>
        <time>2011-01-03T10:31:54Z</time>
      </trkpt>
      <trkpt lat="34.014315018430352" lon="-5.56400497443974">
        <ele>441.38200000000001</ele>
        <time>2011-01-03T10:31:59Z</time>
      </trkpt>
      <trkpt lat="34.014799995347857" lon="-5.564168002456427">
        <ele>443.30500000000001</ele>
        <time>2011-01-03T10:32:04Z</time>
      </trkpt>
      <trkpt lat="34.015801968052983" lon="-5.564803015440702">
        <ele>446.18900000000002</ele>
        <time>2011-01-03T10:32:11Z</time>
      </trkpt>
      <trkpt lat="34.016686007380486" lon="-5.56548597291112">
        <ele>450.51499999999999</ele>
        <time>2011-01-03T10:32:17Z</time>
      </trkpt>
      <trkpt lat="34.017197974026203" lon="-5.566227016970515">
        <ele>455.80200000000002</ele>
        <time>2011-01-03T10:32:22Z</time>
      </trkpt>
      <trkpt lat="34.017497040331364" lon="-5.566852977499366">
        <ele>457.72500000000002</ele>
        <time>2011-01-03T10:32:26Z</time>
      </trkpt>
      <trkpt lat="34.017549008131027" lon="-5.567224966362119">
        <ele>458.68599999999998</ele>
        <time>2011-01-03T10:32:28Z</time>
      </trkpt>
      <trkpt lat="34.017821000888944" lon="-5.56800196878612">
        <ele>461.56999999999999</ele>
        <time>2011-01-03T10:32:33Z</time>
      </trkpt>
      <trkpt lat="34.01798402890563" lon="-5.569066973403096">
        <ele>465.416</ele>
        <time>2011-01-03T10:32:39Z</time>
      </trkpt>
      <trkpt lat="34.017997020855546" lon="-5.569965010508895">
        <ele>469.74099999999999</ele>
        <time>2011-01-03T10:32:44Z</time>
      </trkpt>
      <trkpt lat="34.018399016931653" lon="-5.571255991235375">
        <ele>474.548</ele>
        <time>2011-01-03T10:32:51Z</time>
      </trkpt>
      <trkpt lat="34.018657011911273" lon="-5.571765024214983">
        <ele>476.95100000000002</ele>
        <time>2011-01-03T10:32:54Z</time>
      </trkpt>
      <trkpt lat="34.018977032974362" lon="-5.572420991957188">
        <ele>478.87400000000002</ele>
        <time>2011-01-03T10:32:59Z</time>
      </trkpt>
      <trkpt lat="34.019056996330619" lon="-5.572919966652989">
        <ele>479.83499999999998</ele>
        <time>2011-01-03T10:33:02Z</time>
      </trkpt>
      <trkpt lat="34.019082980230451" lon="-5.573085006326437">
        <ele>480.31599999999997</ele>
        <time>2011-01-03T10:33:03Z</time>
      </trkpt>
      <trkpt lat="34.019153974950314" lon="-5.573536036536098">
        <ele>482.23899999999998</ele>
        <time>2011-01-03T10:33:06Z</time>
      </trkpt>
      <trkpt lat="34.019427979364991" lon="-5.5742749851197">
        <ele>485.12200000000001</ele>
        <time>2011-01-03T10:33:11Z</time>
      </trkpt>
      <trkpt lat="34.020375972613692" lon="-5.575907025486231">
        <ele>494.73599999999999</ele>
        <time>2011-01-03T10:33:21Z</time>
      </trkpt>
      <trkpt lat="34.020591974258423" lon="-5.576184969395399">
        <ele>496.178</ele>
        <time>2011-01-03T10:33:23Z</time>
      </trkpt>
      <trkpt lat="34.021174013614655" lon="-5.576456962153316">
        <ele>499.54199999999997</ele>
        <time>2011-01-03T10:33:27Z</time>
      </trkpt>
      <trkpt lat="34.021599981933832" lon="-5.576605992391706">
        <ele>501.46499999999997</ele>
        <time>2011-01-03T10:33:30Z</time>
      </trkpt>
      <trkpt lat="34.022356029599905" lon="-5.576504990458489">
        <ele>502.42599999999999</ele>
        <time>2011-01-03T10:33:35Z</time>
      </trkpt>
      <trkpt lat="34.023868041113019" lon="-5.575720025226474">
        <ele>503.86799999999999</ele>
        <time>2011-01-03T10:33:44Z</time>
      </trkpt>
      <trkpt lat="34.024803964421153" lon="-5.574990967288613">
        <ele>507.714</ele>
        <time>2011-01-03T10:33:50Z</time>
      </trkpt>
      <trkpt lat="34.025700995698571" lon="-5.5745530128479">
        <ele>511.07799999999997</ele>
        <time>2011-01-03T10:33:55Z</time>
      </trkpt>
      <trkpt lat="34.027316020801663" lon="-5.574069963768125">
        <ele>516.36500000000001</ele>
        <time>2011-01-03T10:34:03Z</time>
      </trkpt>
      <trkpt lat="34.02823300100863" lon="-5.573768969625235">
        <ele>518.76900000000001</ele>
        <time>2011-01-03T10:34:08Z</time>
      </trkpt>
      <trkpt lat="34.02889802120626" lon="-5.573148960247636">
        <ele>520.69100000000003</ele>
        <time>2011-01-03T10:34:13Z</time>
      </trkpt>
      <trkpt lat="34.02917998842895" lon="-5.572634981945157">
        <ele>521.65300000000002</ele>
        <time>2011-01-03T10:34:16Z</time>
      </trkpt>
      <trkpt lat="34.029741995036602" lon="-5.571842975914478">
        <ele>524.05600000000004</ele>
        <time>2011-01-03T10:34:22Z</time>
      </trkpt>
      <trkpt lat="34.029889013618231" lon="-5.571752032265067">
        <ele>524.53599999999994</ele>
        <time>2011-01-03T10:34:23Z</time>
      </trkpt>
      <trkpt lat="34.03087698854506" lon="-5.571383982896805">
        <ele>526.94000000000005</ele>
        <time>2011-01-03T10:34:29Z</time>
      </trkpt>
      <trkpt lat="34.03171400539577" lon="-5.571334026753902">
        <ele>528.38199999999995</ele>
        <time>2011-01-03T10:34:34Z</time>
      </trkpt>
      <trkpt lat="34.03203796595335" lon="-5.571332015097141">
        <ele>529.82399999999996</ele>
        <time>2011-01-03T10:34:36Z</time>
      </trkpt>
      <trkpt lat="34.032608019188046" lon="-5.57126403786242">
        <ele>531.74599999999998</ele>
        <time>2011-01-03T10:34:40Z</time>
      </trkpt>
      <trkpt lat="34.033217970281839" lon="-5.570891965180636">
        <ele>532.70799999999997</ele>
        <time>2011-01-03T10:34:44Z</time>
      </trkpt>
      <trkpt lat="34.034189013764262" lon="-5.570391984656453">
        <ele>531.74599999999998</ele>
        <time>2011-01-03T10:34:50Z</time>
      </trkpt>
      <trkpt lat="34.034522026777267" lon="-5.570284025743604">
        <ele>531.26599999999996</ele>
        <time>2011-01-03T10:34:52Z</time>
      </trkpt>
      <trkpt lat="34.035458033904433" lon="-5.570189980790019">
        <ele>528.38199999999995</ele>
        <time>2011-01-03T10:34:58Z</time>
      </trkpt>
      <trkpt lat="34.035612009465694" lon="-5.570184029638767">
        <ele>527.90099999999995</ele>
        <time>2011-01-03T10:34:59Z</time>
      </trkpt>
      <trkpt lat="34.036552961915731" lon="-5.570229962468147">
        <ele>524.53599999999994</ele>
        <time>2011-01-03T10:35:05Z</time>
      </trkpt>
      <trkpt lat="34.03669604100287" lon="-5.570240020751953">
        <ele>523.57500000000005</ele>
        <time>2011-01-03T10:35:06Z</time>
      </trkpt>
      <trkpt lat="34.037287971004844" lon="-5.57006299495697">
        <ele>520.69100000000003</ele>
        <time>2011-01-03T10:35:11Z</time>
      </trkpt>
      <trkpt lat="34.037394002079964" lon="-5.570030976086855">
        <ele>520.21100000000001</ele>
        <time>2011-01-03T10:35:12Z</time>
      </trkpt>
      <trkpt lat="34.038218026980758" lon="-5.568964965641499">
        <ele>516.36500000000001</ele>
        <time>2011-01-03T10:35:19Z</time>
      </trkpt>
      <trkpt lat="34.038722030818462" lon="-5.568597000092268">
        <ele>514.923</ele>
        <time>2011-01-03T10:35:23Z</time>
      </trkpt>
      <trkpt lat="34.039172977209091" lon="-5.568588031455874">
        <ele>513.00099999999998</ele>
        <time>2011-01-03T10:35:27Z</time>
      </trkpt>
      <trkpt lat="34.040240999311209" lon="-5.568840997293592">
        <ele>508.19400000000002</ele>
        <time>2011-01-03T10:35:34Z</time>
      </trkpt>
      <trkpt lat="34.04054501093924" lon="-5.568989021703601">
        <ele>506.27100000000002</ele>
        <time>2011-01-03T10:35:36Z</time>
      </trkpt>
      <trkpt lat="34.041331987828016" lon="-5.5691790394485">
        <ele>501.46499999999997</ele>
        <time>2011-01-03T10:35:41Z</time>
      </trkpt>
      <trkpt lat="34.041519993916154" lon="-5.569135034456849">
        <ele>500.50400000000002</ele>
        <time>2011-01-03T10:35:42Z</time>
      </trkpt>
      <trkpt lat="34.042656999081373" lon="-5.568618960678577">
        <ele>491.85199999999998</ele>
        <time>2011-01-03T10:35:49Z</time>
      </trkpt>
      <trkpt lat="34.043511031195521" lon="-5.567792002111673">
        <ele>482.71899999999999</ele>
        <time>2011-01-03T10:35:55Z</time>
      </trkpt>
      <trkpt lat="34.044918017461896" lon="-5.566044962033629">
        <ele>470.22199999999998</ele>
        <time>2011-01-03T10:36:05Z</time>
      </trkpt>
      <trkpt lat="34.045618996024132" lon="-5.564650967717171">
        <ele>468.29899999999998</ele>
        <time>2011-01-03T10:36:12Z</time>
      </trkpt>
      <trkpt lat="34.046397004276514" lon="-5.562406964600086">
        <ele>463.49299999999999</ele>
        <time>2011-01-03T10:36:22Z</time>
      </trkpt>
      <trkpt lat="34.04694702476263" lon="-5.559790972620249">
        <ele>459.64800000000002</ele>
        <time>2011-01-03T10:36:33Z</time>
      </trkpt>
      <trkpt lat="34.047393025830388" lon="-5.557508999481797">
        <ele>445.70800000000003</ele>
        <time>2011-01-03T10:36:42Z</time>
      </trkpt>
      <trkpt lat="34.048118982464075" lon="-5.554213989526033">
        <ele>438.49900000000002</ele>
        <time>2011-01-03T10:36:55Z</time>
      </trkpt>
      <trkpt lat="34.048931021243334" lon="-5.55068202316761">
        <ele>434.65300000000002</ele>
        <time>2011-01-03T10:37:10Z</time>
      </trkpt>
      <trkpt lat="34.04944097623229" lon="-5.549333039671183">
        <ele>434.173</ele>
        <time>2011-01-03T10:37:16Z</time>
      </trkpt>
      <trkpt lat="34.050088981166482" lon="-5.548158986493945">
        <ele>434.173</ele>
        <time>2011-01-03T10:37:22Z</time>
      </trkpt>
      <trkpt lat="34.051118027418852" lon="-5.546956015750766">
        <ele>431.28899999999999</ele>
        <time>2011-01-03T10:37:30Z</time>
      </trkpt>
      <trkpt lat="34.051753040403128" lon="-5.546130985021591">
        <ele>428.40499999999997</ele>
        <time>2011-01-03T10:37:36Z</time>
      </trkpt>
      <trkpt lat="34.051826968789101" lon="-5.545959994196892">
        <ele>427.92399999999998</ele>
        <time>2011-01-03T10:37:37Z</time>
      </trkpt>
      <trkpt lat="34.051991002634168" lon="-5.544961038976908">
        <ele>425.04000000000002</ele>
        <time>2011-01-03T10:37:43Z</time>
      </trkpt>
      <trkpt lat="34.051967030391097" lon="-5.544419987127185">
        <ele>423.11700000000002</ele>
        <time>2011-01-03T10:37:46Z</time>
      </trkpt>
      <trkpt lat="34.051622031256557" lon="-5.543264038860798">
        <ele>420.714</ele>
        <time>2011-01-03T10:37:53Z</time>
      </trkpt>
      <trkpt lat="34.051171001046896" lon="-5.541850011795759">
        <ele>427.92399999999998</ele>
        <time>2011-01-03T10:38:01Z</time>
      </trkpt>
      <trkpt lat="34.05115800909698" lon="-5.541543988510966">
        <ele>430.80799999999999</ele>
        <time>2011-01-03T10:38:03Z</time>
      </trkpt>
      <trkpt lat="34.051225986331701" lon="-5.540548972785473">
        <ele>436.57600000000002</ele>
        <time>2011-01-03T10:38:09Z</time>
      </trkpt>
      <trkpt lat="34.051384991034865" lon="-5.540260970592499">
        <ele>438.49900000000002</ele>
        <time>2011-01-03T10:38:11Z</time>
      </trkpt>
      <trkpt lat="34.052299037575722" lon="-5.538677964359522">
        <ele>441.38200000000001</ele>
        <time>2011-01-03T10:38:22Z</time>
      </trkpt>
      <trkpt lat="34.052559966221452" lon="-5.53768303245306">
        <ele>439.45999999999998</ele>
        <time>2011-01-03T10:38:29Z</time>
      </trkpt>
      <trkpt lat="34.052595002576709" lon="-5.536852972581983">
        <ele>436.09500000000003</ele>
        <time>2011-01-03T10:38:35Z</time>
      </trkpt>
      <trkpt lat="34.052476985380054" lon="-5.535501977428794">
        <ele>426.48200000000003</ele>
        <time>2011-01-03T10:38:44Z</time>
      </trkpt>
      <trkpt lat="34.052474973723292" lon="-5.534875011071563">
        <ele>421.19499999999999</ele>
        <time>2011-01-03T10:38:48Z</time>
      </trkpt>
      <trkpt lat="34.052688041701913" lon="-5.5335140414536">
        <ele>411.101</ele>
        <time>2011-01-03T10:38:57Z</time>
      </trkpt>
      <trkpt lat="34.052814021706581" lon="-5.533063011243939">
        <ele>407.25599999999997</ele>
        <time>2011-01-03T10:39:01Z</time>
      </trkpt>
      <trkpt lat="34.053246024996042" lon="-5.532620027661324">
        <ele>402.44900000000001</ele>
        <time>2011-01-03T10:39:07Z</time>
      </trkpt>
      <trkpt lat="34.053550958633423" lon="-5.532587002962828">
        <ele>401.96899999999999</ele>
        <time>2011-01-03T10:39:10Z</time>
      </trkpt>
      <trkpt lat="34.05511200428009" lon="-5.532517014071345">
        <ele>405.33300000000003</ele>
        <time>2011-01-03T10:39:24Z</time>
      </trkpt>
      <trkpt lat="34.056221013888717" lon="-5.532396985217929">
        <ele>412.54300000000001</ele>
        <time>2011-01-03T10:39:34Z</time>
      </trkpt>
      <trkpt lat="34.057032968848944" lon="-5.532374018803239">
        <ele>417.82999999999998</ele>
        <time>2011-01-03T10:39:42Z</time>
      </trkpt>
      <trkpt lat="34.057835033163428" lon="-5.532383993268013">
        <ele>423.11700000000002</ele>
        <time>2011-01-03T10:39:52Z</time>
      </trkpt>
      <trkpt lat="34.058234011754394" lon="-5.532521959394217">
        <ele>426.96300000000002</ele>
        <time>2011-01-03T10:40:02Z</time>
      </trkpt>
      <trkpt lat="34.058515978977084" lon="-5.532660009339452">
        <ele>428.88499999999999</ele>
        <time>2011-01-03T10:40:10Z</time>
      </trkpt>
      <trkpt lat="34.059015037491918" lon="-5.532970977947116">
        <ele>430.80799999999999</ele>
        <time>2011-01-03T10:40:19Z</time>
      </trkpt>
      <trkpt lat="34.059299016371369" lon="-5.533255040645599">
        <ele>431.28899999999999</ele>
        <time>2011-01-03T10:40:24Z</time>
      </trkpt>
      <trkpt lat="34.059981973841786" lon="-5.533937998116016">
        <ele>432.25</ele>
        <time>2011-01-03T10:40:31Z</time>
      </trkpt>
      <trkpt lat="34.060971038416028" lon="-5.534673007205129">
        <ele>431.28899999999999</ele>
        <time>2011-01-03T10:40:38Z</time>
      </trkpt>
      <trkpt lat="34.061245964840055" lon="-5.534778032451868">
        <ele>430.327</ele>
        <time>2011-01-03T10:40:40Z</time>
      </trkpt>
      <trkpt lat="34.061826998367906" lon="-5.535009037703276">
        <ele>426.96300000000002</ele>
        <time>2011-01-03T10:40:45Z</time>
      </trkpt>
      <trkpt lat="34.062175014987588" lon="-5.535330986604095">
        <ele>425.52100000000002</ele>
        <time>2011-01-03T10:40:49Z</time>
      </trkpt>
      <trkpt lat="34.062247015535831" lon="-5.535418996587396">
        <ele>425.52100000000002</ele>
        <time>2011-01-03T10:40:50Z</time>
      </trkpt>
      <trkpt lat="34.062397973611951" lon="-5.535603985190392">
        <ele>426.00099999999998</ele>
        <time>2011-01-03T10:40:52Z</time>
      </trkpt>
      <trkpt lat="34.062779014930129" lon="-5.536026014015079">
        <ele>426.48200000000003</ele>
        <time>2011-01-03T10:40:56Z</time>
      </trkpt>
      <trkpt lat="34.063780987635255" lon="-5.537004014477134">
        <ele>427.44299999999998</ele>
        <time>2011-01-03T10:41:04Z</time>
      </trkpt>
      <trkpt lat="34.064680030569434" lon="-5.537873972207308">
        <ele>425.52100000000002</ele>
        <time>2011-01-03T10:41:11Z</time>
      </trkpt>
      <trkpt lat="34.066005041822791" lon="-5.539168976247311">
        <ele>429.36599999999999</ele>
        <time>2011-01-03T10:41:21Z</time>
      </trkpt>
      <trkpt lat="34.06669202260673" lon="-5.539478017017245">
        <ele>433.21100000000001</ele>
        <time>2011-01-03T10:41:26Z</time>
      </trkpt>
      <trkpt lat="34.067382020875812" lon="-5.539657976478338">
        <ele>436.09500000000003</ele>
        <time>2011-01-03T10:41:32Z</time>
      </trkpt>
      <trkpt lat="34.067811006680131" lon="-5.53974699229002">
        <ele>437.53699999999998</ele>
        <time>2011-01-03T10:41:36Z</time>
      </trkpt>
      <trkpt lat="34.06854098662734" lon="-5.539998030290008">
        <ele>442.34399999999999</ele>
        <time>2011-01-03T10:41:43Z</time>
      </trkpt>
      <trkpt lat="34.068933008238673" lon="-5.540071958675981">
        <ele>446.18900000000002</ele>
        <time>2011-01-03T10:41:48Z</time>
      </trkpt>
      <trkpt lat="34.069285970181227" lon="-5.540028037503362">
        <ele>447.63099999999997</ele>
        <time>2011-01-03T10:41:52Z</time>
      </trkpt>
      <trkpt lat="34.069555029273033" lon="-5.539995012804866">
        <ele>447.14999999999998</ele>
        <time>2011-01-03T10:41:55Z</time>
      </trkpt>
      <trkpt lat="34.069818975403905" lon="-5.540020996704698">
        <ele>447.14999999999998</ele>
        <time>2011-01-03T10:42:01Z</time>
      </trkpt>
      <trkpt lat="34.069917965680361" lon="-5.540413018316031">
        <ele>446.67000000000002</ele>
        <time>2011-01-03T10:42:06Z</time>
      </trkpt>
      <trkpt lat="34.069946967065334" lon="-5.540522988885641">
        <ele>446.18900000000002</ele>
        <time>2011-01-03T10:42:07Z</time>
      </trkpt>
      <trkpt lat="34.07008602283895" lon="-5.540997991338372">
        <ele>442.82400000000001</ele>
        <time>2011-01-03T10:42:11Z</time>
      </trkpt>
      <trkpt lat="34.070333037525415" lon="-5.541539965197444">
        <ele>439.94</ele>
        <time>2011-01-03T10:42:15Z</time>
      </trkpt>
      <trkpt lat="34.071257980540395" lon="-5.542418975383043">
        <ele>438.01799999999997</ele>
        <time>2011-01-03T10:42:23Z</time>
      </trkpt>
      <trkpt lat="34.071701969951391" lon="-5.54271200671792">
        <ele>436.57600000000002</ele>
        <time>2011-01-03T10:42:28Z</time>
      </trkpt>
      <trkpt lat="34.072501016780734" lon="-5.543143004179001">
        <ele>435.61500000000001</ele>
        <time>2011-01-03T10:42:37Z</time>
      </trkpt>
      <trkpt lat="34.073062017560005" lon="-5.543342996388674">
        <ele>435.13400000000001</ele>
        <time>2011-01-03T10:42:43Z</time>
      </trkpt>
      <trkpt lat="34.073755033314228" lon="-5.543569978326559">
        <ele>435.13400000000001</ele>
        <time>2011-01-03T10:42:50Z</time>
      </trkpt>
      <trkpt lat="34.073863998055458" lon="-5.543605014681816">
        <ele>434.65300000000002</ele>
        <time>2011-01-03T10:42:51Z</time>
      </trkpt>
      <trkpt lat="34.074261970818043" lon="-5.543858986347914">
        <ele>433.69200000000001</ele>
        <time>2011-01-03T10:42:55Z</time>
      </trkpt>
      <trkpt lat="34.075422026216984" lon="-5.54457999765873">
        <ele>433.69200000000001</ele>
        <time>2011-01-03T10:43:04Z</time>
      </trkpt>
      <trkpt lat="34.076448976993561" lon="-5.545238982886076">
        <ele>434.65300000000002</ele>
        <time>2011-01-03T10:43:12Z</time>
      </trkpt>
      <trkpt lat="34.077657982707024" lon="-5.545795038342476">
        <ele>438.97899999999998</ele>
        <time>2011-01-03T10:43:21Z</time>
      </trkpt>
      <trkpt lat="34.078932031989098" lon="-5.546232992783189">
        <ele>439.45999999999998</ele>
        <time>2011-01-03T10:43:29Z</time>
      </trkpt>
      <trkpt lat="34.080349998548627" lon="-5.546508003026247">
        <ele>438.01799999999997</ele>
        <time>2011-01-03T10:43:37Z</time>
      </trkpt>
      <trkpt lat="34.08160200342536" lon="-5.546487970277667">
        <ele>432.25</ele>
        <time>2011-01-03T10:43:44Z</time>
      </trkpt>
      <trkpt lat="34.082792988047004" lon="-5.546699026599526">
        <ele>427.44299999999998</ele>
        <time>2011-01-03T10:43:51Z</time>
      </trkpt>
      <trkpt lat="34.083502013236284" lon="-5.547144021838903">
        <ele>424.07900000000001</ele>
        <time>2011-01-03T10:43:56Z</time>
      </trkpt>
      <trkpt lat="34.083769982680678" lon="-5.547332027927041">
        <ele>423.59800000000001</ele>
        <time>2011-01-03T10:43:58Z</time>
      </trkpt>
      <trkpt lat="34.084039041772485" lon="-5.547535037621856">
        <ele>423.59800000000001</ele>
        <time>2011-01-03T10:44:00Z</time>
      </trkpt>
      <trkpt lat="34.084608005359769" lon="-5.547930998727679">
        <ele>425.52100000000002</ele>
        <time>2011-01-03T10:44:04Z</time>
      </trkpt>
      <trkpt lat="34.08514603972435" lon="-5.548226963728666">
        <ele>426.48200000000003</ele>
        <time>2011-01-03T10:44:08Z</time>
      </trkpt>
      <trkpt lat="34.086251026019454" lon="-5.548414969816804">
        <ele>424.55900000000003</ele>
        <time>2011-01-03T10:44:14Z</time>
      </trkpt>
      <trkpt lat="34.086592001840472" lon="-5.548399966210127">
        <ele>424.07900000000001</ele>
        <time>2011-01-03T10:44:16Z</time>
      </trkpt>
      <trkpt lat="34.087442010641098" lon="-5.548356967046857">
        <ele>421.19499999999999</ele>
        <time>2011-01-03T10:44:21Z</time>
      </trkpt>
      <trkpt lat="34.088934995234013" lon="-5.548310028389096">
        <ele>420.233</ele>
        <time>2011-01-03T10:44:29Z</time>
      </trkpt>
      <trkpt lat="34.091486027464271" lon="-5.548307010903955">
        <ele>423.11700000000002</ele>
        <time>2011-01-03T10:44:42Z</time>
      </trkpt>
      <trkpt lat="34.093259973451495" lon="-5.548149012029171">
        <ele>420.714</ele>
        <time>2011-01-03T10:44:51Z</time>
      </trkpt>
      <trkpt lat="34.095102986320853" lon="-5.548007022589445">
        <ele>417.35000000000002</ele>
        <time>2011-01-03T10:45:00Z</time>
      </trkpt>
      <trkpt lat="34.097597021609545" lon="-5.547791020944715">
        <ele>416.38799999999998</ele>
        <time>2011-01-03T10:45:12Z</time>
      </trkpt>
      <trkpt lat="34.099056981503963" lon="-5.547622963786125">
        <ele>417.82999999999998</ele>
        <time>2011-01-03T10:45:19Z</time>
      </trkpt>
      <trkpt lat="34.100844003260136" lon="-5.547374021261931">
        <ele>419.27199999999999</ele>
        <time>2011-01-03T10:45:28Z</time>
      </trkpt>
      <trkpt lat="34.101224038749933" lon="-5.547313001006842">
        <ele>420.233</ele>
        <time>2011-01-03T10:45:30Z</time>
      </trkpt>
      <trkpt lat="34.102347968146205" lon="-5.547286011278629">
        <ele>419.75299999999999</ele>
        <time>2011-01-03T10:45:36Z</time>
      </trkpt>
      <trkpt lat="34.103689994663" lon="-5.547322975471616">
        <ele>417.82999999999998</ele>
        <time>2011-01-03T10:45:43Z</time>
      </trkpt>
      <trkpt lat="34.104829011484981" lon="-5.547322975471616">
        <ele>412.06200000000001</ele>
        <time>2011-01-03T10:45:49Z</time>
      </trkpt>
      <trkpt lat="34.106124015524983" lon="-5.547322975471616">
        <ele>412.06200000000001</ele>
        <time>2011-01-03T10:45:55Z</time>
      </trkpt>
      <trkpt lat="34.107683971524239" lon="-5.547362035140395">
        <ele>413.98500000000001</ele>
        <time>2011-01-03T10:46:02Z</time>
      </trkpt>
      <trkpt lat="34.108913009986281" lon="-5.547143016010523">
        <ele>418.31099999999998</ele>
        <time>2011-01-03T10:46:08Z</time>
      </trkpt>
      <trkpt lat="34.109723037108779" lon="-5.546825006604195">
        <ele>418.31099999999998</ele>
        <time>2011-01-03T10:46:13Z</time>
      </trkpt>
      <trkpt lat="34.110484030097723" lon="-5.546673964709044">
        <ele>416.38799999999998</ele>
        <time>2011-01-03T10:46:18Z</time>
      </trkpt>
      <trkpt lat="34.110655020922422" lon="-5.54670799523592">
        <ele>415.42700000000002</ele>
        <time>2011-01-03T10:46:19Z</time>
      </trkpt>
      <trkpt lat="34.112057983875275" lon="-5.547492960467935">
        <ele>412.06200000000001</ele>
        <time>2011-01-03T10:46:27Z</time>
      </trkpt>
      <trkpt lat="34.113500006496906" lon="-5.548634994775057">
        <ele>418.79199999999997</ele>
        <time>2011-01-03T10:46:36Z</time>
      </trkpt>
      <trkpt lat="34.113817010074854" lon="-5.548866000026465">
        <ele>420.714</ele>
        <time>2011-01-03T10:46:38Z</time>
      </trkpt>
      <trkpt lat="34.115423988550901" lon="-5.549482991918922">
        <ele>426.96300000000002</ele>
        <time>2011-01-03T10:46:47Z</time>
      </trkpt>
      <trkpt lat="34.116362007334828" lon="-5.549751967191696">
        <ele>429.36599999999999</ele>
        <time>2011-01-03T10:46:52Z</time>
      </trkpt>
      <trkpt lat="34.117471016943455" lon="-5.550022032111883">
        <ele>432.73099999999999</ele>
        <time>2011-01-03T10:46:58Z</time>
      </trkpt>
      <trkpt lat="34.118233015760779" lon="-5.550182964652777">
        <ele>432.73099999999999</ele>
        <time>2011-01-03T10:47:02Z</time>
      </trkpt>
      <trkpt lat="34.118959978222847" lon="-5.550104007124901">
        <ele>431.76900000000001</ele>
        <time>2011-01-03T10:47:06Z</time>
      </trkpt>
      <trkpt lat="34.120178036391735" lon="-5.549177974462509">
        <ele>429.36599999999999</ele>
        <time>2011-01-03T10:47:14Z</time>
      </trkpt>
      <trkpt lat="34.120431002229452" lon="-5.549047971144319">
        <ele>427.92399999999998</ele>
        <time>2011-01-03T10:47:16Z</time>
      </trkpt>
      <trkpt lat="34.120754962787032" lon="-5.548978988081217">
        <ele>426.48200000000003</ele>
        <time>2011-01-03T10:47:20Z</time>
      </trkpt>
      <trkpt lat="34.12106903269887" lon="-5.549234971404076">
        <ele>426.48200000000003</ele>
        <time>2011-01-03T10:47:23Z</time>
      </trkpt>
      <trkpt lat="34.121185038238764" lon="-5.54932901635766">
        <ele>426.96300000000002</ele>
        <time>2011-01-03T10:47:24Z</time>
      </trkpt>
      <trkpt lat="34.121732041239738" lon="-5.549822961911559">
        <ele>429.36599999999999</ele>
        <time>2011-01-03T10:47:29Z</time>
      </trkpt>
      <trkpt lat="34.122289018705487" lon="-5.550342975184321">
        <ele>432.73099999999999</ele>
        <time>2011-01-03T10:47:34Z</time>
      </trkpt>
      <trkpt lat="34.122398989275098" lon="-5.5504459887743">
        <ele>433.69200000000001</ele>
        <time>2011-01-03T10:47:35Z</time>
      </trkpt>
      <trkpt lat="34.123863978311419" lon="-5.550691997632384">
        <ele>442.34399999999999</ele>
        <time>2011-01-03T10:47:44Z</time>
      </trkpt>
      <trkpt lat="34.124496979638934" lon="-5.550643969327211">
        <ele>445.70800000000003</ele>
        <time>2011-01-03T10:47:48Z</time>
      </trkpt>
      <trkpt lat="34.124938035383821" lon="-5.550611028447747">
        <ele>447.63099999999997</ele>
        <time>2011-01-03T10:47:51Z</time>
      </trkpt>
      <trkpt lat="34.12573398090899" lon="-5.550605999305844">
        <ele>452.91800000000001</ele>
        <time>2011-01-03T10:47:56Z</time>
      </trkpt>
      <trkpt lat="34.127210034057498" lon="-5.550605999305844">
        <ele>461.089</ele>
        <time>2011-01-03T10:48:04Z</time>
      </trkpt>
      <trkpt lat="34.128034980967641" lon="-5.550566017627716">
        <ele>464.935</ele>
        <time>2011-01-03T10:48:09Z</time>
      </trkpt>
      <trkpt lat="34.129178021103144" lon="-5.550385974347591">
        <ele>459.64800000000002</ele>
        <time>2011-01-03T10:48:16Z</time>
      </trkpt>
      <trkpt lat="34.130703024566174" lon="-5.550001999363303">
        <ele>460.60899999999998</ele>
        <time>2011-01-03T10:48:25Z</time>
      </trkpt>
      <trkpt lat="34.131737016141415" lon="-5.549745010212064">
        <ele>461.56999999999999</ele>
        <time>2011-01-03T10:48:31Z</time>
      </trkpt>
      <trkpt lat="34.132262980565429" lon="-5.549633027985692">
        <ele>462.05099999999999</ele>
        <time>2011-01-03T10:48:34Z</time>
      </trkpt>
      <trkpt lat="34.13372503593564" lon="-5.549260033294559">
        <ele>464.45400000000001</ele>
        <time>2011-01-03T10:48:42Z</time>
      </trkpt>
      <trkpt lat="34.134848965331912" lon="-5.548873040825129">
        <ele>459.16699999999997</ele>
        <time>2011-01-03T10:48:48Z</time>
      </trkpt>
      <trkpt lat="34.135624961927533" lon="-5.548596018925309">
        <ele>455.80200000000002</ele>
        <time>2011-01-03T10:48:52Z</time>
      </trkpt>
      <trkpt lat="34.136838996782899" lon="-5.548388985916972">
        <ele>450.99599999999998</ele>
        <time>2011-01-03T10:48:58Z</time>
      </trkpt>
      <trkpt lat="34.137044018134475" lon="-5.548374988138676">
        <ele>450.51499999999999</ele>
        <time>2011-01-03T10:48:59Z</time>
      </trkpt>
      <trkpt lat="34.137833006680012" lon="-5.548483030870557">
        <ele>449.07299999999998</ele>
        <time>2011-01-03T10:49:03Z</time>
      </trkpt>
      <trkpt lat="34.138962971046567" lon="-5.548439025878906">
        <ele>447.63099999999997</ele>
        <time>2011-01-03T10:49:09Z</time>
      </trkpt>
      <trkpt lat="34.139678031206131" lon="-5.548153035342693">
        <ele>445.22800000000001</ele>
        <time>2011-01-03T10:49:13Z</time>
      </trkpt>
      <trkpt lat="34.141625985503197" lon="-5.546541027724743">
        <ele>439.45999999999998</ele>
        <time>2011-01-03T10:49:24Z</time>
      </trkpt>
      <trkpt lat="34.143230030313134" lon="-5.544820977374911">
        <ele>442.34399999999999</ele>
        <time>2011-01-03T10:49:34Z</time>
      </trkpt>
      <trkpt lat="34.143976019695401" lon="-5.543959988281131">
        <ele>444.74700000000001</ele>
        <time>2011-01-03T10:49:39Z</time>
      </trkpt>
      <trkpt lat="34.144841032102704" lon="-5.543180974200368">
        <ele>446.67000000000002</ele>
        <time>2011-01-03T10:49:44Z</time>
      </trkpt>
      <trkpt lat="34.146066969260573" lon="-5.542455017566681">
        <ele>448.11200000000002</ele>
        <time>2011-01-03T10:49:50Z</time>
      </trkpt>
      <trkpt lat="34.14773597382009" lon="-5.541485985741019">
        <ele>448.11200000000002</ele>
        <time>2011-01-03T10:49:58Z</time>
      </trkpt>
      <trkpt lat="34.148974986746907" lon="-5.540502034127712">
        <ele>449.07299999999998</ele>
        <time>2011-01-03T10:50:04Z</time>
      </trkpt>
      <trkpt lat="34.150919001549482" lon="-5.538683999329805">
        <ele>451.95699999999999</ele>
        <time>2011-01-03T10:50:14Z</time>
      </trkpt>
      <trkpt lat="34.152201013639569" lon="-5.537481028586626">
        <ele>450.51499999999999</ele>
        <time>2011-01-03T10:50:21Z</time>
      </trkpt>
      <trkpt lat="34.154525985941291" lon="-5.535744968801737">
        <ele>441.863</ele>
        <time>2011-01-03T10:50:33Z</time>
      </trkpt>
      <trkpt lat="34.156372016295791" lon="-5.534574016928673">
        <ele>438.49900000000002</ele>
        <time>2011-01-03T10:50:43Z</time>
      </trkpt>
      <trkpt lat="34.158153003081679" lon="-5.533633986487985">
        <ele>437.53699999999998</ele>
        <time>2011-01-03T10:50:53Z</time>
      </trkpt>
      <trkpt lat="34.159262012690306" lon="-5.533250011503696">
        <ele>435.61500000000001</ele>
        <time>2011-01-03T10:51:00Z</time>
      </trkpt>
      <trkpt lat="34.160642009228468" lon="-5.532789006829262">
        <ele>432.73099999999999</ele>
        <time>2011-01-03T10:51:10Z</time>
      </trkpt>
      <trkpt lat="34.161174008622766" lon="-5.53261298686266">
        <ele>432.73099999999999</ele>
        <time>2011-01-03T10:51:15Z</time>
      </trkpt>
      <trkpt lat="34.161559995263815" lon="-5.532497987151146">
        <ele>433.21100000000001</ele>
        <time>2011-01-03T10:51:22Z</time>
      </trkpt>
      <trkpt lat="34.1620650049299" lon="-5.532348034903407">
        <ele>433.21100000000001</ele>
        <time>2011-01-03T10:51:32Z</time>
      </trkpt>
      <trkpt lat="34.162255022674799" lon="-5.532291037961841">
        <ele>433.21100000000001</ele>
        <time>2011-01-03T10:51:40Z</time>
      </trkpt>
      <trkpt lat="34.162491979077458" lon="-5.532219959422946">
        <ele>432.25</ele>
        <time>2011-01-03T10:51:53Z</time>
      </trkpt>
      <trkpt lat="34.162847036495805" lon="-5.532041005790234">
        <ele>430.80799999999999</ele>
        <time>2011-01-03T10:52:04Z</time>
      </trkpt>
      <trkpt lat="34.163092961534858" lon="-5.531916031613946">
        <ele>429.84699999999998</ele>
        <time>2011-01-03T10:52:13Z</time>
      </trkpt>
      <trkpt lat="34.163650022819638" lon="-5.531636998057365">
        <ele>426.96300000000002</ele>
        <time>2011-01-03T10:52:23Z</time>
      </trkpt>
      <trkpt lat="34.164029974490404" lon="-5.53162400610745">
        <ele>424.55900000000003</ele>
        <time>2011-01-03T10:52:30Z</time>
      </trkpt>
      <trkpt lat="34.164742017164826" lon="-5.531600033864379">
        <ele>421.19499999999999</ele>
        <time>2011-01-03T10:52:40Z</time>
      </trkpt>
      <trkpt lat="34.165681041777134" lon="-5.531465001404285">
        <ele>416.38799999999998</ele>
        <time>2011-01-03T10:52:50Z</time>
      </trkpt>
      <trkpt lat="34.16664001531899" lon="-5.531415967270732">
        <ele>411.58199999999999</ele>
        <time>2011-01-03T10:53:02Z</time>
      </trkpt>
      <trkpt lat="34.167367983609438" lon="-5.53130297921598">
        <ele>408.69799999999998</ele>
        <time>2011-01-03T10:53:13Z</time>
      </trkpt>
      <trkpt lat="34.167518019676208" lon="-5.531267020851374">
        <ele>407.73599999999999</ele>
        <time>2011-01-03T10:53:20Z</time>
      </trkpt>
      <trkpt lat="34.167335964739323" lon="-5.531153026968241">
        <ele>405.33300000000003</ele>
        <time>2011-01-03T10:53:25Z</time>
      </trkpt>
      <trkpt lat="34.166583018377423" lon="-5.530982036143541">
        <ele>404.37200000000001</ele>
        <time>2011-01-03T10:53:33Z</time>
      </trkpt>
      <trkpt lat="34.165572999045253" lon="-5.53067903034389">
        <ele>401.488</ele>
        <time>2011-01-03T10:53:40Z</time>
      </trkpt>
      <trkpt lat="34.164122007787228" lon="-5.529845030978322">
        <ele>401.488</ele>
        <time>2011-01-03T10:53:50Z</time>
      </trkpt>
      <trkpt lat="34.163670977577567" lon="-5.529245976358652">
        <ele>399.565</ele>
        <time>2011-01-03T10:53:55Z</time>
      </trkpt>
      <trkpt lat="34.163449024781585" lon="-5.528686987236142">
        <ele>397.16199999999998</ele>
        <time>2011-01-03T10:53:59Z</time>
      </trkpt>
      <trkpt lat="34.163381969556212" lon="-5.528379958122969">
        <ele>395.23899999999998</ele>
        <time>2011-01-03T10:54:01Z</time>
      </trkpt>
      <trkpt lat="34.163227993994951" lon="-5.527681997045875">
        <ele>390.91300000000001</ele>
        <time>2011-01-03T10:54:06Z</time>
      </trkpt>
      <trkpt lat="34.162684008479118" lon="-5.527431964874268">
        <ele>386.58699999999999</ele>
        <time>2011-01-03T10:54:11Z</time>
      </trkpt>
      <trkpt lat="34.162443028762937" lon="-5.527353007346392">
        <ele>384.66500000000002</ele>
        <time>2011-01-03T10:54:13Z</time>
      </trkpt>
      <trkpt lat="34.160907967016101" lon="-5.527418972924352">
        <ele>375.53199999999998</ele>
        <time>2011-01-03T10:54:25Z</time>
      </trkpt>
      <trkpt lat="34.160680985078216" lon="-5.527450991794467">
        <ele>374.08999999999997</ele>
        <time>2011-01-03T10:54:27Z</time>
      </trkpt>
      <trkpt lat="34.160294998437166" lon="-5.527511006221175">
        <ele>370.245</ele>
        <time>2011-01-03T10:54:31Z</time>
      </trkpt>
      <trkpt lat="34.160124007612467" lon="-5.527536990121007">
        <ele>367.84199999999998</ele>
        <time>2011-01-03T10:54:33Z</time>
      </trkpt>
      <trkpt lat="34.15974497795105" lon="-5.527502959594131">
        <ele>365.43799999999999</ele>
        <time>2011-01-03T10:54:38Z</time>
      </trkpt>
      <trkpt lat="34.159457981586456" lon="-5.527430037036538">
        <ele>363.51600000000002</ele>
        <time>2011-01-03T10:54:42Z</time>
      </trkpt>
      <trkpt lat="34.159351028501987" lon="-5.527402963489294">
        <ele>362.55399999999997</ele>
        <time>2011-01-03T10:54:44Z</time>
      </trkpt>
      <trkpt lat="34.158876026049256" lon="-5.527285030111671">
        <ele>358.709</ele>
        <time>2011-01-03T10:54:50Z</time>
      </trkpt>
      <trkpt lat="34.158771000802517" lon="-5.527262985706329">
        <ele>358.22800000000001</ele>
        <time>2011-01-03T10:54:51Z</time>
      </trkpt>
      <trkpt lat="34.158208994194865" lon="-5.527144968509674">
        <ele>355.34399999999999</ele>
        <time>2011-01-03T10:54:56Z</time>
      </trkpt>
      <trkpt lat="34.157584961503744" lon="-5.527085959911346">
        <ele>350.53800000000001</ele>
        <time>2011-01-03T10:55:02Z</time>
      </trkpt>
      <trkpt lat="34.157037036493421" lon="-5.527229961007834">
        <ele>347.654</ele>
        <time>2011-01-03T10:55:08Z</time>
      </trkpt>
      <trkpt lat="34.156331028789282" lon="-5.527388965710998">
        <ele>343.80900000000003</ele>
        <time>2011-01-03T10:55:16Z</time>
      </trkpt>
      <trkpt lat="34.156057024374604" lon="-5.527388965710998">
        <ele>342.36700000000002</ele>
        <time>2011-01-03T10:55:19Z</time>
      </trkpt>
      <trkpt lat="34.155499963089824" lon="-5.527388965710998">
        <ele>340.92500000000001</ele>
        <time>2011-01-03T10:55:25Z</time>
      </trkpt>
      <trkpt lat="34.155402984470129" lon="-5.527377985417843">
        <ele>340.44400000000002</ele>
        <time>2011-01-03T10:55:26Z</time>
      </trkpt>
      <trkpt lat="34.154423978179693" lon="-5.527200037613511">
        <ele>335.15699999999998</ele>
        <time>2011-01-03T10:55:33Z</time>
      </trkpt>
      <trkpt lat="34.153226958587766" lon="-5.526635013520718">
        <ele>329.38900000000001</ele>
        <time>2011-01-03T10:55:39Z</time>
      </trkpt>
      <trkpt lat="34.151180014014244" lon="-5.525592975318432">
        <ele>316.892</ele>
        <time>2011-01-03T10:55:49Z</time>
      </trkpt>
      <trkpt lat="34.149117982015014" lon="-5.524650011211634">
        <ele>307.279</ele>
        <time>2011-01-03T10:56:00Z</time>
      </trkpt>
      <trkpt lat="34.147705966606736" lon="-5.524169979617">
        <ele>298.14600000000002</ele>
        <time>2011-01-03T10:56:08Z</time>
      </trkpt>
      <trkpt lat="34.146880013868213" lon="-5.52376002073288">
        <ele>293.339</ele>
        <time>2011-01-03T10:56:13Z</time>
      </trkpt>
      <trkpt lat="34.145530024543405" lon="-5.522438026964665">
        <ele>283.726</ele>
        <time>2011-01-03T10:56:22Z</time>
      </trkpt>
      <trkpt lat="34.144855029881001" lon="-5.521337985992432">
        <ele>278.92000000000002</ele>
        <time>2011-01-03T10:56:28Z</time>
      </trkpt>
      <trkpt lat="34.144694013521075" lon="-5.52056098356843">
        <ele>274.59399999999999</ele>
        <time>2011-01-03T10:56:33Z</time>
      </trkpt>
      <trkpt lat="34.144796021282673" lon="-5.520050022751093">
        <ele>271.70999999999998</ele>
        <time>2011-01-03T10:56:36Z</time>
      </trkpt>
      <trkpt lat="34.144930969923735" lon="-5.519709968939424">
        <ele>269.78699999999998</ele>
        <time>2011-01-03T10:56:38Z</time>
      </trkpt>
      <trkpt lat="34.145360039547086" lon="-5.519345020875335">
        <ele>266.90300000000002</ele>
        <time>2011-01-03T10:56:41Z</time>
      </trkpt>
      <trkpt lat="34.146063029766083" lon="-5.519306967034936">
        <ele>262.09699999999998</ele>
        <time>2011-01-03T10:56:46Z</time>
      </trkpt>
      <trkpt lat="34.146669963374734" lon="-5.519522968679667">
        <ele>259.21300000000002</ele>
        <time>2011-01-03T10:56:50Z</time>
      </trkpt>
      <trkpt lat="34.146904991939664" lon="-5.519770989194512">
        <ele>258.73200000000003</ele>
        <time>2011-01-03T10:56:52Z</time>
      </trkpt>
      <trkpt lat="34.14758400991559" lon="-5.520187988877296">
        <ele>254.887</ele>
        <time>2011-01-03T10:56:58Z</time>
      </trkpt>
      <trkpt lat="34.148132018744946" lon="-5.519972993060947">
        <ele>250.56100000000001</ele>
        <time>2011-01-03T10:57:02Z</time>
      </trkpt>
      <trkpt lat="34.14848598651588" lon="-5.519473012536764">
        <ele>249.119</ele>
        <time>2011-01-03T10:57:05Z</time>
      </trkpt>
      <trkpt lat="34.148621018975973" lon="-5.519093982875347">
        <ele>246.23500000000001</ele>
        <time>2011-01-03T10:57:07Z</time>
      </trkpt>
      <trkpt lat="34.148564022034407" lon="-5.517723960801959">
        <ele>239.02500000000001</ele>
        <time>2011-01-03T10:57:13Z</time>
      </trkpt>
      <trkpt lat="34.148413985967636" lon="-5.516802035272121">
        <ele>234.69900000000001</ele>
        <time>2011-01-03T10:57:17Z</time>
      </trkpt>
      <trkpt lat="34.147786013782024" lon="-5.514064002782106">
        <ele>220.279</ele>
        <time>2011-01-03T10:57:28Z</time>
      </trkpt>
      <trkpt lat="34.147727005183697" lon="-5.513854958117008">
        <ele>218.83699999999999</ele>
        <time>2011-01-03T10:57:29Z</time>
      </trkpt>
      <trkpt lat="34.147535981610417" lon="-5.513180969282985">
        <ele>216.434</ele>
        <time>2011-01-03T10:57:33Z</time>
      </trkpt>
      <trkpt lat="34.147229958325624" lon="-5.512402961030603">
        <ele>211.62700000000001</ele>
        <time>2011-01-03T10:57:38Z</time>
      </trkpt>
      <trkpt lat="34.146979004144669" lon="-5.512055028229952">
        <ele>207.30099999999999</ele>
        <time>2011-01-03T10:57:41Z</time>
      </trkpt>
      <trkpt lat="34.146199990063906" lon="-5.511315995827317">
        <ele>200.09200000000001</ele>
        <time>2011-01-03T10:57:47Z</time>
      </trkpt>
      <trkpt lat="34.14633602835238" lon="-5.510671008378267">
        <ele>197.208</ele>
        <time>2011-01-03T10:57:51Z</time>
      </trkpt>
      <trkpt lat="34.146598968654871" lon="-5.510002970695496">
        <ele>194.32400000000001</ele>
        <time>2011-01-03T10:57:55Z</time>
      </trkpt>
      <trkpt lat="34.147314028814435" lon="-5.5089389719069">
        <ele>188.07499999999999</ele>
        <time>2011-01-03T10:58:01Z</time>
      </trkpt>
      <trkpt lat="34.147911993786693" lon="-5.507568027824163">
        <ele>183.268</ele>
        <time>2011-01-03T10:58:07Z</time>
      </trkpt>
      <trkpt lat="34.148475006222725" lon="-5.505317989736795">
        <ele>182.30699999999999</ele>
        <time>2011-01-03T10:58:15Z</time>
      </trkpt>
      <trkpt lat="34.149041036143899" lon="-5.503169037401676">
        <ele>186.63300000000001</ele>
        <time>2011-01-03T10:58:23Z</time>
      </trkpt>
      <trkpt lat="34.149095015600324" lon="-5.502671990543604">
        <ele>187.114</ele>
        <time>2011-01-03T10:58:25Z</time>
      </trkpt>
      <trkpt lat="34.149334989488125" lon="-5.500572994351387">
        <ele>189.036</ele>
        <time>2011-01-03T10:58:33Z</time>
      </trkpt>
      <trkpt lat="34.149571023881435" lon="-5.499229039996862">
        <ele>193.36199999999999</ele>
        <time>2011-01-03T10:58:39Z</time>
      </trkpt>
      <trkpt lat="34.149706978350878" lon="-5.498447008430958">
        <ele>192.88200000000001</ele>
        <time>2011-01-03T10:58:43Z</time>
      </trkpt>
      <trkpt lat="34.150326987728477" lon="-5.496934996917844">
        <ele>186.15199999999999</ele>
        <time>2011-01-03T10:58:51Z</time>
      </trkpt>
      <trkpt lat="34.150907015427947" lon="-5.495685003697872">
        <ele>179.904</ele>
        <time>2011-01-03T10:58:57Z</time>
      </trkpt>
      <trkpt lat="34.151421999558806" lon="-5.493459021672607">
        <ele>171.733</ele>
        <time>2011-01-03T10:59:06Z</time>
      </trkpt>
      <trkpt lat="34.151425017043948" lon="-5.492231994867325">
        <ele>168.84899999999999</ele>
        <time>2011-01-03T10:59:11Z</time>
      </trkpt>
      <trkpt lat="34.15117297321558" lon="-5.490719983354211">
        <ele>168.36799999999999</ele>
        <time>2011-01-03T10:59:17Z</time>
      </trkpt>
      <trkpt lat="34.150078967213631" lon="-5.487294970080257">
        <ele>161.63900000000001</ele>
        <time>2011-01-03T10:59:31Z</time>
      </trkpt>
      <trkpt lat="34.149648975580931" lon="-5.485160015523434">
        <ele>165.00299999999999</ele>
        <time>2011-01-03T10:59:40Z</time>
      </trkpt>
      <trkpt lat="34.149645958095789" lon="-5.483726961538196">
        <ele>170.77099999999999</ele>
        <time>2011-01-03T10:59:46Z</time>
      </trkpt>
      <trkpt lat="34.149962961673737" lon="-5.48227203078568">
        <ele>176.059</ele>
        <time>2011-01-03T10:59:52Z</time>
      </trkpt>
      <trkpt lat="34.150576014071703" lon="-5.479659978300333">
        <ele>183.268</ele>
        <time>2011-01-03T11:00:02Z</time>
      </trkpt>
      <trkpt lat="34.151009023189545" lon="-5.477730967104435">
        <ele>190.959</ele>
        <time>2011-01-03T11:00:09Z</time>
      </trkpt>
      <trkpt lat="34.151222007349133" lon="-5.475859958678484">
        <ele>199.13</ele>
        <time>2011-01-03T11:00:16Z</time>
      </trkpt>
      <trkpt lat="34.151116982102394" lon="-5.473678987473249">
        <ele>209.22399999999999</ele>
        <time>2011-01-03T11:00:24Z</time>
      </trkpt>
      <trkpt lat="34.150844989344478" lon="-5.471484018489718">
        <ele>216.434</ele>
        <time>2011-01-03T11:00:32Z</time>
      </trkpt>
      <trkpt lat="34.149632966145873" lon="-5.468936003744602">
        <ele>224.125</ele>
        <time>2011-01-03T11:00:43Z</time>
      </trkpt>
      <trkpt lat="34.148782035335898" lon="-5.467375963926315">
        <ele>229.892</ele>
        <time>2011-01-03T11:00:51Z</time>
      </trkpt>
      <trkpt lat="34.148460002616048" lon="-5.466665010899305">
        <ele>231.334</ele>
        <time>2011-01-03T11:00:56Z</time>
      </trkpt>
      <trkpt lat="34.148413985967636" lon="-5.466564008966088">
        <ele>231.815</ele>
        <time>2011-01-03T11:00:57Z</time>
      </trkpt>
      <trkpt lat="34.14811902679503" lon="-5.465911980718374">
        <ele>236.14099999999999</ele>
        <time>2011-01-03T11:01:04Z</time>
      </trkpt>
      <trkpt lat="34.148841965943575" lon="-5.46469802968204">
        <ele>236.62200000000001</ele>
        <time>2011-01-03T11:01:08Z</time>
      </trkpt>
      <trkpt lat="34.149228958413005" lon="-5.464776987209916">
        <ele>233.738</ele>
        <time>2011-01-03T11:01:13Z</time>
      </trkpt>
      <trkpt lat="34.149404978379607" lon="-5.464832978323102">
        <ele>232.77600000000001</ele>
        <time>2011-01-03T11:01:19Z</time>
      </trkpt>
      <trkpt lat="34.149902025237679" lon="-5.465059038251638">
        <ele>231.815</ele>
        <time>2011-01-03T11:01:29Z</time>
      </trkpt>
      <trkpt lat="34.150536032393575" lon="-5.465347962453961">
        <ele>230.37299999999999</ele>
        <time>2011-01-03T11:01:34Z</time>
      </trkpt>
      <trkpt lat="34.151664990931749" lon="-5.465864036232233">
        <ele>228.93100000000001</ele>
        <time>2011-01-03T11:01:41Z</time>
      </trkpt>
      <trkpt lat="34.153344975784421" lon="-5.466629974544048">
        <ele>227.489</ele>
        <time>2011-01-03T11:01:50Z</time>
      </trkpt>
      <trkpt lat="34.154795967042446" lon="-5.467306980863214">
        <ele>226.047</ele>
        <time>2011-01-03T11:01:57Z</time>
      </trkpt>
      <trkpt lat="34.155989969149232" lon="-5.467882985249162">
        <ele>223.16300000000001</ele>
        <time>2011-01-03T11:02:03Z</time>
      </trkpt>
      <trkpt lat="34.157300982624292" lon="-5.468515986576676">
        <ele>219.79900000000001</ele>
        <time>2011-01-03T11:02:11Z</time>
      </trkpt>
      <trkpt lat="34.159109964966774" lon="-5.469394996762276">
        <ele>216.91499999999999</ele>
        <time>2011-01-03T11:02:22Z</time>
      </trkpt>
      <trkpt lat="34.159965002909303" lon="-5.469817025586963">
        <ele>214.99199999999999</ele>
        <time>2011-01-03T11:02:28Z</time>
      </trkpt>
      <trkpt lat="34.161107037216425" lon="-5.470380960032344">
        <ele>211.62700000000001</ele>
        <time>2011-01-03T11:02:37Z</time>
      </trkpt>
      <trkpt lat="34.162241024896502" lon="-5.47092997469008">
        <ele>205.37899999999999</ele>
        <time>2011-01-03T11:02:47Z</time>
      </trkpt>
      <trkpt lat="34.163212990388274" lon="-5.471386034041643">
        <ele>200.572</ele>
        <time>2011-01-03T11:02:54Z</time>
      </trkpt>
      <trkpt lat="34.164559962227941" lon="-5.472018029540777">
        <ele>193.36199999999999</ele>
        <time>2011-01-03T11:03:01Z</time>
      </trkpt>
      <trkpt lat="34.166975039988756" lon="-5.473151011392474">
        <ele>177.501</ele>
        <time>2011-01-03T11:03:12Z</time>
      </trkpt>
      <trkpt lat="34.169510984793305" lon="-5.474339984357357">
        <ele>165.965</ele>
        <time>2011-01-03T11:03:24Z</time>
      </trkpt>
      <trkpt lat="34.171384004876018" lon="-5.475233998149633">
        <ele>162.59999999999999</ele>
        <time>2011-01-03T11:03:33Z</time>
      </trkpt>
      <trkpt lat="34.174142992123961" lon="-5.476575018838048">
        <ele>160.67699999999999</ele>
        <time>2011-01-03T11:03:45Z</time>
      </trkpt>
      <trkpt lat="34.17725401930511" lon="-5.478088036179543">
        <ele>154.91</ele>
        <time>2011-01-03T11:03:58Z</time>
      </trkpt>
      <trkpt lat="34.1802610270679" lon="-5.479769026860595">
        <ele>147.69999999999999</ele>
        <time>2011-01-03T11:04:11Z</time>
      </trkpt>
      <trkpt lat="34.183767009526491" lon="-5.481752017512918">
        <ele>140.49000000000001</ele>
        <time>2011-01-03T11:04:26Z</time>
      </trkpt>
      <trkpt lat="34.187875986099243" lon="-5.484071038663387">
        <ele>135.203</ele>
        <time>2011-01-03T11:04:44Z</time>
      </trkpt>
      <trkpt lat="34.190977038815618" lon="-5.485811959952116">
        <ele>132.31899999999999</ele>
        <time>2011-01-03T11:04:57Z</time>
      </trkpt>
      <trkpt lat="34.193883966654539" lon="-5.487410975620151">
        <ele>123.667</ele>
        <time>2011-01-03T11:05:09Z</time>
      </trkpt>
      <trkpt lat="34.196009030565619" lon="-5.488131986930966">
        <ele>115.496</ele>
        <time>2011-01-03T11:05:17Z</time>
      </trkpt>
      <trkpt lat="34.198222020640969" lon="-5.48848302103579">
        <ele>111.65000000000001</ele>
        <time>2011-01-03T11:05:25Z</time>
      </trkpt>
      <trkpt lat="34.200440039858222" lon="-5.488291997462511">
        <ele>109.247</ele>
        <time>2011-01-03T11:05:33Z</time>
      </trkpt>
      <trkpt lat="34.202253967523575" lon="-5.487777013331652">
        <ele>107.80500000000001</ele>
        <time>2011-01-03T11:05:40Z</time>
      </trkpt>
      <trkpt lat="34.204070996493101" lon="-5.487058013677597">
        <ele>106.363</ele>
        <time>2011-01-03T11:05:47Z</time>
      </trkpt>
      <trkpt lat="34.206700986251235" lon="-5.485741971060634">
        <ele>103.95999999999999</ele>
        <time>2011-01-03T11:05:57Z</time>
      </trkpt>
      <trkpt lat="34.211023030802608" lon="-5.483436025679112">
        <ele>100.11499999999999</ele>
        <time>2011-01-03T11:06:13Z</time>
      </trkpt>
      <trkpt lat="34.213978992775083" lon="-5.481805996969342">
        <ele>97.710999999999999</ele>
        <time>2011-01-03T11:06:24Z</time>
      </trkpt>
      <trkpt lat="34.217289006337523" lon="-5.479991985484958">
        <ele>95.308000000000007</ele>
        <time>2011-01-03T11:06:37Z</time>
      </trkpt>
      <trkpt lat="34.220175985246897" lon="-5.478394981473684">
        <ele>92.424000000000007</ele>
        <time>2011-01-03T11:06:49Z</time>
      </trkpt>
      <trkpt lat="34.222634984180331" lon="-5.47692303545773">
        <ele>90.501000000000005</ele>
        <time>2011-01-03T11:07:00Z</time>
      </trkpt>
      <trkpt lat="34.223905010148883" lon="-5.476161958649755">
        <ele>90.501000000000005</ele>
        <time>2011-01-03T11:07:07Z</time>
      </trkpt>
      <trkpt lat="34.225092977285385" lon="-5.475495010614395">
        <ele>90.021000000000001</ele>
        <time>2011-01-03T11:07:15Z</time>
      </trkpt>
      <trkpt lat="34.226474985480309" lon="-5.474738040938973">
        <ele>89.540000000000006</ele>
        <time>2011-01-03T11:07:23Z</time>
      </trkpt>
      <trkpt lat="34.228134015575051" lon="-5.473832041025162">
        <ele>87.617000000000004</ele>
        <time>2011-01-03T11:07:31Z</time>
      </trkpt>
      <trkpt lat="34.230493018403649" lon="-5.472598979249597">
        <ele>87.617000000000004</ele>
        <time>2011-01-03T11:07:41Z</time>
      </trkpt>
      <trkpt lat="34.233641009777784" lon="-5.470861997455359">
        <ele>86.656000000000006</ele>
        <time>2011-01-03T11:07:54Z</time>
      </trkpt>
      <trkpt lat="34.236525977030396" lon="-5.469223000109196">
        <ele>84.733000000000004</ele>
        <time>2011-01-03T11:08:06Z</time>
      </trkpt>
      <trkpt lat="34.238751959055662" lon="-5.468229996040463">
        <ele>82.329999999999998</ele>
        <time>2011-01-03T11:08:15Z</time>
      </trkpt>
      <trkpt lat="34.240886997431517" lon="-5.467713000252843">
        <ele>79.927000000000007</ele>
        <time>2011-01-03T11:08:23Z</time>
      </trkpt>
      <trkpt lat="34.243887970224023" lon="-5.466931974515319">
        <ele>75.120000000000005</ele>
        <time>2011-01-03T11:08:34Z</time>
      </trkpt>
      <trkpt lat="34.24809199757874" lon="-5.465861018747091">
        <ele>71.275000000000006</ele>
        <time>2011-01-03T11:08:49Z</time>
      </trkpt>
      <trkpt lat="34.252180019393563" lon="-5.464818980544806">
        <ele>67.430000000000007</ele>
        <time>2011-01-03T11:09:04Z</time>
      </trkpt>
      <trkpt lat="34.255301021039486" lon="-5.463960003107786">
        <ele>65.507000000000005</ele>
        <time>2011-01-03T11:09:16Z</time>
      </trkpt>
      <trkpt lat="34.25857599824667" lon="-5.463120974600315">
        <ele>65.507000000000005</ele>
        <time>2011-01-03T11:09:29Z</time>
      </trkpt>
      <trkpt lat="34.261615024879575" lon="-5.462260991334915">
        <ele>63.103999999999999</ele>
        <time>2011-01-03T11:09:41Z</time>
      </trkpt>
      <trkpt lat="34.263679990544915" lon="-5.461747013032436">
        <ele>63.584000000000003</ele>
        <time>2011-01-03T11:09:50Z</time>
      </trkpt>
      <trkpt lat="34.26755502820015" lon="-5.460983002558351">
        <ele>78.484999999999999</ele>
        <time>2011-01-03T11:10:07Z</time>
      </trkpt>
      <trkpt lat="34.269650001078844" lon="-5.460613025352359">
        <ele>86.174999999999997</ele>
        <time>2011-01-03T11:10:16Z</time>
      </trkpt>
      <trkpt lat="34.271842958405614" lon="-5.460489979013801">
        <ele>90.981999999999999</ele>
        <time>2011-01-03T11:10:25Z</time>
      </trkpt>
      <trkpt lat="34.273132011294365" lon="-5.460577988997102">
        <ele>95.787999999999997</ele>
        <time>2011-01-03T11:10:31Z</time>
      </trkpt>
      <trkpt lat="34.274026025086641" lon="-5.46074696816504">
        <ele>97.710999999999999</ele>
        <time>2011-01-03T11:10:36Z</time>
      </trkpt>
      <trkpt lat="34.27499296143651" lon="-5.460929023101926">
        <ele>98.191999999999993</ele>
        <time>2011-01-03T11:10:43Z</time>
      </trkpt>
      <trkpt lat="34.27673002704978" lon="-5.461093978956342">
        <ele>93.866</ele>
        <time>2011-01-03T11:10:54Z</time>
      </trkpt>
      <trkpt lat="34.278174983337522" lon="-5.461277039721608">
        <ele>86.656000000000006</ele>
        <time>2011-01-03T11:11:01Z</time>
      </trkpt>
      <trkpt lat="34.280298035591841" lon="-5.461723962798715">
        <ele>73.677999999999997</ele>
        <time>2011-01-03T11:11:11Z</time>
      </trkpt>
      <trkpt lat="34.282311033457518" lon="-5.462023029103875">
        <ele>69.832999999999998</ele>
        <time>2011-01-03T11:11:19Z</time>
      </trkpt>
      <trkpt lat="34.285361040383577" lon="-5.462439022958279">
        <ele>71.754999999999995</ele>
        <time>2011-01-03T11:11:30Z</time>
      </trkpt>
      <trkpt lat="34.289257032796741" lon="-5.46295702457428">
        <ele>77.043000000000006</ele>
        <time>2011-01-03T11:11:44Z</time>
      </trkpt>
      <trkpt lat="34.293157970532775" lon="-5.463521964848042">
        <ele>76.561999999999998</ele>
        <time>2011-01-03T11:11:58Z</time>
      </trkpt>
      <trkpt lat="34.29529401473701" lon="-5.463993027806282">
        <ele>71.275000000000006</ele>
        <time>2011-01-03T11:12:06Z</time>
      </trkpt>
      <trkpt lat="34.29735504090786" lon="-5.464743040502071">
        <ele>74.640000000000001</ele>
        <time>2011-01-03T11:12:14Z</time>
      </trkpt>
      <trkpt lat="34.29853898473084" lon="-5.465341005474329">
        <ele>80.888000000000005</ele>
        <time>2011-01-03T11:12:20Z</time>
      </trkpt>
      <trkpt lat="34.300093995407224" lon="-5.466355970129371">
        <ele>87.617000000000004</ele>
        <time>2011-01-03T11:12:29Z</time>
      </trkpt>
      <trkpt lat="34.301335019990802" lon="-5.467227017506957">
        <ele>88.097999999999999</ele>
        <time>2011-01-03T11:12:36Z</time>
      </trkpt>
      <trkpt lat="34.303052974864841" lon="-5.468491008505225">
        <ele>85.694999999999993</ele>
        <time>2011-01-03T11:12:45Z</time>
      </trkpt>
      <trkpt lat="34.304990032687783" lon="-5.469997990876436">
        <ele>85.213999999999999</ele>
        <time>2011-01-03T11:12:54Z</time>
      </trkpt>
      <trkpt lat="34.307663021609187" lon="-5.471915015950799">
        <ele>75.120000000000005</ele>
        <time>2011-01-03T11:13:06Z</time>
      </trkpt>
      <trkpt lat="34.310523010790348" lon="-5.474008983001113">
        <ele>60.219999999999999</ele>
        <time>2011-01-03T11:13:19Z</time>
      </trkpt>
      <trkpt lat="34.312831973657012" lon="-5.475751999765635">
        <ele>67.909999999999997</ele>
        <time>2011-01-03T11:13:30Z</time>
      </trkpt>
      <trkpt lat="34.314592005684972" lon="-5.477078016847372">
        <ele>69.352000000000004</ele>
        <time>2011-01-03T11:13:40Z</time>
      </trkpt>
      <trkpt lat="34.31613503023982" lon="-5.478315018117428">
        <ele>63.103999999999999</ele>
        <time>2011-01-03T11:13:48Z</time>
      </trkpt>
      <trkpt lat="34.317838987335563" lon="-5.480070021003485">
        <ele>52.048999999999999</ele>
        <time>2011-01-03T11:13:57Z</time>
      </trkpt>
      <trkpt lat="34.319099960848689" lon="-5.481776995584369">
        <ele>49.164999999999999</ele>
        <time>2011-01-03T11:14:05Z</time>
      </trkpt>
      <trkpt lat="34.320553969591856" lon="-5.483973976224661">
        <ele>48.203000000000003</ele>
        <time>2011-01-03T11:14:15Z</time>
      </trkpt>
      <trkpt lat="34.322588006034493" lon="-5.487299999222159">
        <ele>49.645000000000003</ele>
        <time>2011-01-03T11:14:30Z</time>
      </trkpt>
      <trkpt lat="34.323983006179333" lon="-5.489567974582315">
        <ele>56.375</ele>
        <time>2011-01-03T11:14:41Z</time>
      </trkpt>
      <trkpt lat="34.325177008286119" lon="-5.491113010793924">
        <ele>61.180999999999997</ele>
        <time>2011-01-03T11:14:49Z</time>
      </trkpt>
      <trkpt lat="34.326088037341833" lon="-5.491966959089041">
        <ele>62.142000000000003</ele>
        <time>2011-01-03T11:14:54Z</time>
      </trkpt>
      <trkpt lat="34.327276004478335" lon="-5.492250015959144">
        <ele>63.584000000000003</ele>
        <time>2011-01-03T11:14:59Z</time>
      </trkpt>
      <trkpt lat="34.328976022079587" lon="-5.492108026519418">
        <ele>67.909999999999997</ele>
        <time>2011-01-03T11:15:06Z</time>
      </trkpt>
      <trkpt lat="34.331856966018677" lon="-5.49091000109911">
        <ele>74.159000000000006</ele>
        <time>2011-01-03T11:15:18Z</time>
      </trkpt>
      <trkpt lat="34.333713976666331" lon="-5.490016993135214">
        <ele>72.716999999999999</ele>
        <time>2011-01-03T11:15:25Z</time>
      </trkpt>
      <trkpt lat="34.336606990545988" lon="-5.488441027700901">
        <ele>67.909999999999997</ele>
        <time>2011-01-03T11:15:36Z</time>
      </trkpt>
      <trkpt lat="34.338196031749249" lon="-5.487568974494934">
        <ele>65.988</ele>
        <time>2011-01-03T11:15:43Z</time>
      </trkpt>
      <trkpt lat="34.339807033538818" lon="-5.486769005656242">
        <ele>63.584000000000003</ele>
        <time>2011-01-03T11:15:51Z</time>
      </trkpt>
      <trkpt lat="34.340762989595532" lon="-5.486487038433552">
        <ele>62.622999999999998</ele>
        <time>2011-01-03T11:15:56Z</time>
      </trkpt>
      <trkpt lat="34.340917970985174" lon="-5.486524002626538">
        <ele>62.622999999999998</ele>
        <time>2011-01-03T11:15:57Z</time>
      </trkpt>
      <trkpt lat="34.341817013919353" lon="-5.486756013706327">
        <ele>61.661999999999999</ele>
        <time>2011-01-03T11:16:03Z</time>
      </trkpt>
      <trkpt lat="34.342857040464878" lon="-5.487120961770415">
        <ele>60.700000000000003</ele>
        <time>2011-01-03T11:16:10Z</time>
      </trkpt>
      <trkpt lat="34.344502994790673" lon="-5.487698977813125">
        <ele>61.180999999999997</ele>
        <time>2011-01-03T11:16:19Z</time>
      </trkpt>
      <trkpt lat="34.346069991588593" lon="-5.488204993307591">
        <ele>59.258000000000003</ele>
        <time>2011-01-03T11:16:28Z</time>
      </trkpt>
      <trkpt lat="34.348582969978452" lon="-5.488947965204716">
        <ele>57.335999999999999</ele>
        <time>2011-01-03T11:16:42Z</time>
      </trkpt>
      <trkpt lat="34.349705977365375" lon="-5.489421961829066">
        <ele>59.738999999999997</ele>
        <time>2011-01-03T11:16:49Z</time>
      </trkpt>
      <trkpt lat="34.350243005901575" lon="-5.489654978737235">
        <ele>61.661999999999999</ele>
        <time>2011-01-03T11:16:55Z</time>
      </trkpt>
      <trkpt lat="34.350368985906243" lon="-5.48970996402204">
        <ele>62.142000000000003</ele>
        <time>2011-01-03T11:17:01Z</time>
      </trkpt>
      <trkpt lat="34.350810963660479" lon="-5.4899019934237">
        <ele>62.622999999999998</ele>
        <time>2011-01-03T11:17:36Z</time>
      </trkpt>
      <trkpt lat="34.351666001603007" lon="-5.490273982286453">
        <ele>62.142000000000003</ele>
        <time>2011-01-03T11:17:43Z</time>
      </trkpt>
      <trkpt lat="34.353111041709781" lon="-5.490902960300446">
        <ele>59.738999999999997</ele>
        <time>2011-01-03T11:17:52Z</time>
      </trkpt>
      <trkpt lat="34.355184976011515" lon="-5.491805020719767">
        <ele>54.932000000000002</ele>
        <time>2011-01-03T11:18:03Z</time>
      </trkpt>
      <trkpt lat="34.357362007722259" lon="-5.492752008140087">
        <ele>50.125999999999998</ele>
        <time>2011-01-03T11:18:13Z</time>
      </trkpt>
      <trkpt lat="34.359923014417291" lon="-5.493946010246873">
        <ele>48.203000000000003</ele>
        <time>2011-01-03T11:18:24Z</time>
      </trkpt>
      <trkpt lat="34.363100007176399" lon="-5.495397001504898">
        <ele>48.203000000000003</ele>
        <time>2011-01-03T11:18:38Z</time>
      </trkpt>
      <trkpt lat="34.366100979968905" lon="-5.49662796780467">
        <ele>50.606999999999999</ele>
        <time>2011-01-03T11:18:51Z</time>
      </trkpt>
      <trkpt lat="34.368327967822552" lon="-5.49761300906539">
        <ele>57.335999999999999</ele>
        <time>2011-01-03T11:19:01Z</time>
      </trkpt>
      <trkpt lat="34.370322022587061" lon="-5.497960019856691">
        <ele>58.777999999999999</ele>
        <time>2011-01-03T11:19:10Z</time>
      </trkpt>
      <trkpt lat="34.37199697829783" lon="-5.497983992099762">
        <ele>56.375</ele>
        <time>2011-01-03T11:19:17Z</time>
      </trkpt>
      <trkpt lat="34.374831989407539" lon="-5.497832028195262">
        <ele>50.606999999999999</ele>
        <time>2011-01-03T11:19:28Z</time>
      </trkpt>
      <trkpt lat="34.37861398793757" lon="-5.497653996571899">
        <ele>52.048999999999999</ele>
        <time>2011-01-03T11:19:42Z</time>
      </trkpt>
      <trkpt lat="34.383150022476912" lon="-5.497460039332509">
        <ele>58.777999999999999</ele>
        <time>2011-01-03T11:19:59Z</time>
      </trkpt>
      <trkpt lat="34.387705000117421" lon="-5.497325006872416">
        <ele>62.142000000000003</ele>
        <time>2011-01-03T11:20:16Z</time>
      </trkpt>
      <trkpt lat="34.389267973601818" lon="-5.497384015470743">
        <ele>63.103999999999999</ele>
        <time>2011-01-03T11:20:22Z</time>
      </trkpt>
      <trkpt lat="34.391259010881186" lon="-5.4978939704597">
        <ele>71.754999999999995</ele>
        <time>2011-01-03T11:20:30Z</time>
      </trkpt>
      <trkpt lat="34.393492033705115" lon="-5.49896601587534">
        <ele>80.406999999999996</ele>
        <time>2011-01-03T11:20:40Z</time>
      </trkpt>
      <trkpt lat="34.394489983096719" lon="-5.499775037169457">
        <ele>84.733000000000004</ele>
        <time>2011-01-03T11:20:45Z</time>
      </trkpt>
      <trkpt lat="34.395383996888995" lon="-5.500654969364405">
        <ele>90.981999999999999</ele>
        <time>2011-01-03T11:20:50Z</time>
      </trkpt>
      <trkpt lat="34.396914029493928" lon="-5.501999007537961">
        <ele>97.230000000000004</ele>
        <time>2011-01-03T11:20:58Z</time>
      </trkpt>
      <trkpt lat="34.3980379588902" lon="-5.502567971125245">
        <ele>96.269000000000005</ele>
        <time>2011-01-03T11:21:03Z</time>
      </trkpt>
      <trkpt lat="34.399591963738203" lon="-5.503081027418375">
        <ele>95.787999999999997</ele>
        <time>2011-01-03T11:21:09Z</time>
      </trkpt>
      <trkpt lat="34.402767028659582" lon="-5.503871021792293">
        <ele>104.92100000000001</ele>
        <time>2011-01-03T11:21:21Z</time>
      </trkpt>
      <trkpt lat="34.404020039364696" lon="-5.503871021792293">
        <ele>107.324</ele>
        <time>2011-01-03T11:21:26Z</time>
      </trkpt>
      <trkpt lat="34.405716033652425" lon="-5.503728026524186">
        <ele>108.286</ele>
        <time>2011-01-03T11:21:33Z</time>
      </trkpt>
      <trkpt lat="34.407333992421627" lon="-5.503551000729203">
        <ele>111.65000000000001</ele>
        <time>2011-01-03T11:21:40Z</time>
      </trkpt>
      <trkpt lat="34.408541992306709" lon="-5.503666000440717">
        <ele>111.17</ele>
        <time>2011-01-03T11:21:45Z</time>
      </trkpt>
      <trkpt lat="34.410232035443187" lon="-5.504315011203289">
        <ele>109.247</ele>
        <time>2011-01-03T11:21:52Z</time>
      </trkpt>
      <trkpt lat="34.41148797981441" lon="-5.504687000066042">
        <ele>110.68899999999999</ele>
        <time>2011-01-03T11:21:57Z</time>
      </trkpt>
      <trkpt lat="34.414148982614279" lon="-5.504710972309113">
        <ele>113.092</ele>
        <time>2011-01-03T11:22:07Z</time>
      </trkpt>
      <trkpt lat="34.417773988097906" lon="-5.504775010049343">
        <ele>99.153000000000006</ele>
        <time>2011-01-03T11:22:21Z</time>
      </trkpt>
      <trkpt lat="34.420487964525819" lon="-5.504593960940838">
        <ele>92.905000000000001</ele>
        <time>2011-01-03T11:22:31Z</time>
      </trkpt>
      <trkpt lat="34.423452978953719" lon="-5.504032038152218">
        <ele>92.905000000000001</ele>
        <time>2011-01-03T11:22:42Z</time>
      </trkpt>
      <trkpt lat="34.425812987610698" lon="-5.503817964345217">
        <ele>88.097999999999999</ele>
        <time>2011-01-03T11:22:51Z</time>
      </trkpt>
      <trkpt lat="34.427398005500436" lon="-5.503960037603974">
        <ele>80.888000000000005</ele>
        <time>2011-01-03T11:22:57Z</time>
      </trkpt>
      <trkpt lat="34.430430997163057" lon="-5.5042730178684">
        <ele>76.081000000000003</ele>
        <time>2011-01-03T11:23:08Z</time>
      </trkpt>
      <trkpt lat="34.433210017159581" lon="-5.504548028111458">
        <ele>75.600999999999999</ele>
        <time>2011-01-03T11:23:19Z</time>
      </trkpt>
      <trkpt lat="34.436159022152424" lon="-5.504881041124463">
        <ele>75.120000000000005</ele>
        <time>2011-01-03T11:23:31Z</time>
      </trkpt>
      <trkpt lat="34.437881000339985" lon="-5.505082961171866">
        <ele>73.677999999999997</ele>
        <time>2011-01-03T11:23:39Z</time>
      </trkpt>
      <trkpt lat="34.439516980201006" lon="-5.505275996401906">
        <ele>71.275000000000006</ele>
        <time>2011-01-03T11:23:47Z</time>
      </trkpt>
      <trkpt lat="34.441495025530457" lon="-5.505488980561495">
        <ele>67.430000000000007</ele>
        <time>2011-01-03T11:23:57Z</time>
      </trkpt>
      <trkpt lat="34.4439070019871" lon="-5.505723003298044">
        <ele>59.738999999999997</ele>
        <time>2011-01-03T11:24:08Z</time>
      </trkpt>
      <trkpt lat="34.445997029542923" lon="-5.505920983850956">
        <ele>53.009999999999998</ele>
        <time>2011-01-03T11:24:18Z</time>
      </trkpt>
      <trkpt lat="34.446787023916841" lon="-5.505996001884341">
        <ele>50.606999999999999</ele>
        <time>2011-01-03T11:24:23Z</time>
      </trkpt>
      <trkpt lat="34.447198994457722" lon="-5.506033971905708">
        <ele>49.645000000000003</ele>
        <time>2011-01-03T11:24:27Z</time>
      </trkpt>
      <trkpt lat="34.447371996939182" lon="-5.50605601631105">
        <ele>49.645000000000003</ele>
        <time>2011-01-03T11:24:31Z</time>
      </trkpt>
      <trkpt lat="34.447491019964218" lon="-5.506073031574488">
        <ele>49.645000000000003</ele>
        <time>2011-01-03T11:24:35Z</time>
      </trkpt>
      <trkpt lat="34.44758104160428" lon="-5.506086023524404">
        <ele>50.606999999999999</ele>
        <time>2011-01-03T11:24:43Z</time>
      </trkpt>
      <trkpt lat="34.447385994717479" lon="-5.506058027967811">
        <ele>48.683999999999997</ele>
        <time>2011-01-03T11:30:05Z</time>
      </trkpt>
      <trkpt lat="34.447136968374252" lon="-5.506029026582837">
        <ele>49.164999999999999</ele>
        <time>2011-01-03T11:30:15Z</time>
      </trkpt>
      <trkpt lat="34.447169993072748" lon="-5.506531018763781">
        <ele>49.645000000000003</ele>
        <time>2011-01-03T11:32:25Z</time>
      </trkpt>
      <trkpt lat="34.447389012202621" lon="-5.506059033796191">
        <ele>48.203000000000003</ele>
        <time>2011-01-03T11:32:30Z</time>
      </trkpt>
      <trkpt lat="34.447855968028307" lon="-5.506123993545771">
        <ele>48.683999999999997</ele>
        <time>2011-01-03T11:32:41Z</time>
      </trkpt>
      <trkpt lat="34.448251007124782" lon="-5.506178978830576">
        <ele>48.203000000000003</ele>
        <time>2011-01-03T11:32:47Z</time>
      </trkpt>
      <trkpt lat="34.449206041172147" lon="-5.506311999633908">
        <ele>47.722999999999999</ele>
        <time>2011-01-03T11:32:55Z</time>
      </trkpt>
      <trkpt lat="34.450321001932025" lon="-5.506467986851931">
        <ele>47.241999999999997</ele>
        <time>2011-01-03T11:33:04Z</time>
      </trkpt>
      <trkpt lat="34.451566971838474" lon="-5.506596984341741">
        <ele>46.761000000000003</ele>
        <time>2011-01-03T11:33:15Z</time>
      </trkpt>
      <trkpt lat="34.452934982255101" lon="-5.506696980446577">
        <ele>46.761000000000003</ele>
        <time>2011-01-03T11:33:25Z</time>
      </trkpt>
      <trkpt lat="34.454784030094743" lon="-5.506899990141392">
        <ele>46.761000000000003</ele>
        <time>2011-01-03T11:33:37Z</time>
      </trkpt>
      <trkpt lat="34.457729011774063" lon="-5.507231997326016">
        <ele>47.722999999999999</ele>
        <time>2011-01-03T11:33:55Z</time>
      </trkpt>
      <trkpt lat="34.460557987913489" lon="-5.507537014782429">
        <ele>47.722999999999999</ele>
        <time>2011-01-03T11:34:12Z</time>
      </trkpt>
      <trkpt lat="34.462627982720733" lon="-5.507724015042186">
        <ele>49.164999999999999</ele>
        <time>2011-01-03T11:34:25Z</time>
      </trkpt>
      <trkpt lat="34.463912006467581" lon="-5.507839014753699">
        <ele>50.125999999999998</ele>
        <time>2011-01-03T11:34:35Z</time>
      </trkpt>
      <trkpt lat="34.465520996600389" lon="-5.508071025833488">
        <ele>50.125999999999998</ele>
        <time>2011-01-03T11:34:48Z</time>
      </trkpt>
      <trkpt lat="34.466668982058764" lon="-5.508396998047829">
        <ele>46.280999999999999</ele>
        <time>2011-01-03T11:34:57Z</time>
      </trkpt>
      <trkpt lat="34.46771495975554" lon="-5.50891499966383">
        <ele>44.357999999999997</ele>
        <time>2011-01-03T11:35:04Z</time>
      </trkpt>
      <trkpt lat="34.469380024820566" lon="-5.509939016774297">
        <ele>41.473999999999997</ele>
        <time>2011-01-03T11:35:14Z</time>
      </trkpt>
      <trkpt lat="34.471779009327292" lon="-5.511412974447012">
        <ele>39.070999999999998</ele>
        <time>2011-01-03T11:35:27Z</time>
      </trkpt>
      <trkpt lat="34.474187968298793" lon="-5.513033028692007">
        <ele>37.628999999999998</ele>
        <time>2011-01-03T11:35:40Z</time>
      </trkpt>
      <trkpt lat="34.476217981427908" lon="-5.514417970553041">
        <ele>37.148000000000003</ele>
        <time>2011-01-03T11:35:52Z</time>
      </trkpt>
      <trkpt lat="34.47761700488627" lon="-5.515305027365685">
        <ele>37.148000000000003</ele>
        <time>2011-01-03T11:36:01Z</time>
      </trkpt>
      <trkpt lat="34.479914987459779" lon="-5.516872024163604">
        <ele>37.148000000000003</ele>
        <time>2011-01-03T11:36:16Z</time>
      </trkpt>
      <trkpt lat="34.481894038617611" lon="-5.518353022634983">
        <ele>37.628999999999998</ele>
        <time>2011-01-03T11:36:29Z</time>
      </trkpt>
      <trkpt lat="34.482911014929414" lon="-5.518740015104413">
        <ele>38.590000000000003</ele>
        <time>2011-01-03T11:36:36Z</time>
      </trkpt>
      <trkpt lat="34.483970990404487" lon="-5.518722999840975">
        <ele>43.396999999999998</ele>
        <time>2011-01-03T11:36:43Z</time>
      </trkpt>
      <trkpt lat="34.484699964523315" lon="-5.518532982096076">
        <ele>50.125999999999998</ele>
        <time>2011-01-03T11:36:49Z</time>
      </trkpt>
      <trkpt lat="34.485407983884215" lon="-5.51828202791512">
        <ele>57.335999999999999</ele>
        <time>2011-01-03T11:36:57Z</time>
      </trkpt>
      <trkpt lat="34.486211976036429" lon="-5.517777018249035">
        <ele>63.584000000000003</ele>
        <time>2011-01-03T11:37:06Z</time>
      </trkpt>
      <trkpt lat="34.486926030367613" lon="-5.517137981951237">
        <ele>66.468000000000004</ele>
        <time>2011-01-03T11:37:14Z</time>
      </trkpt>
      <trkpt lat="34.48823100887239" lon="-5.515977004542947">
        <ele>70.313000000000002</ele>
        <time>2011-01-03T11:37:28Z</time>
      </trkpt>
      <trkpt lat="34.489254020154476" lon="-5.515071004629135">
        <ele>72.236000000000004</ele>
        <time>2011-01-03T11:37:40Z</time>
      </trkpt>
      <trkpt lat="34.489786019548774" lon="-5.514567000791431">
        <ele>73.197999999999993</ele>
        <time>2011-01-03T11:37:47Z</time>
      </trkpt>
      <trkpt lat="34.49007703922689" lon="-5.514276986941695">
        <ele>74.159000000000006</ele>
        <time>2011-01-03T11:37:52Z</time>
      </trkpt>
      <trkpt lat="34.490278037264943" lon="-5.514075988903642">
        <ele>74.640000000000001</ele>
        <time>2011-01-03T11:37:57Z</time>
      </trkpt>
      <trkpt lat="34.490584982559085" lon="-5.513768959790468">
        <ele>74.640000000000001</ele>
        <time>2011-01-03T11:38:04Z</time>
      </trkpt>
      <trkpt lat="34.491014974191785" lon="-5.513484980911017">
        <ele>72.236000000000004</ele>
        <time>2011-01-03T11:38:13Z</time>
      </trkpt>
      <trkpt lat="34.491631966084242" lon="-5.51316998898983">
        <ele>69.352000000000004</ele>
        <time>2011-01-03T11:38:20Z</time>
      </trkpt>
      <trkpt lat="34.492938034236431" lon="-5.512662967666984">
        <ele>62.622999999999998</ele>
        <time>2011-01-03T11:38:32Z</time>
      </trkpt>
      <trkpt lat="34.493971019983292" lon="-5.512277986854315">
        <ele>58.777999999999999</ele>
        <time>2011-01-03T11:38:39Z</time>
      </trkpt>
      <trkpt lat="34.495167033746839" lon="-5.511852018535137">
        <ele>60.219999999999999</ele>
        <time>2011-01-03T11:38:47Z</time>
      </trkpt>
      <trkpt lat="34.496727995574474" lon="-5.511318007484078">
        <ele>65.025999999999996</ele>
        <time>2011-01-03T11:38:56Z</time>
      </trkpt>
      <trkpt lat="34.498830009251833" lon="-5.510799000039697">
        <ele>75.600999999999999</ele>
        <time>2011-01-03T11:39:07Z</time>
      </trkpt>
      <trkpt lat="34.500417038798332" lon="-5.510274963453412">
        <ele>85.213999999999999</ele>
        <time>2011-01-03T11:39:15Z</time>
      </trkpt>
      <trkpt lat="34.501297976821661" lon="-5.509554035961628">
        <ele>92.424000000000007</ele>
        <time>2011-01-03T11:39:20Z</time>
      </trkpt>
      <trkpt lat="34.503049962222576" lon="-5.507550006732345">
        <ele>104.44</ele>
        <time>2011-01-03T11:39:31Z</time>
      </trkpt>
      <trkpt lat="34.503220031037927" lon="-5.50741002894938">
        <ele>105.402</ele>
        <time>2011-01-03T11:39:32Z</time>
      </trkpt>
      <trkpt lat="34.504587035626173" lon="-5.506746014580131">
        <ele>110.208</ele>
        <time>2011-01-03T11:39:39Z</time>
      </trkpt>
      <trkpt lat="34.506670022383332" lon="-5.506290961056948">
        <ele>114.53400000000001</ele>
        <time>2011-01-03T11:39:49Z</time>
      </trkpt>
      <trkpt lat="34.507997967302799" lon="-5.506259026005864">
        <ele>115.496</ele>
        <time>2011-01-03T11:39:55Z</time>
      </trkpt>
      <trkpt lat="34.510886035859585" lon="-5.506322979927063">
        <ele>122.22499999999999</ele>
        <time>2011-01-03T11:40:08Z</time>
      </trkpt>
      <trkpt lat="34.511488024145365" lon="-5.506376959383488">
        <ele>124.628</ele>
        <time>2011-01-03T11:40:12Z</time>
      </trkpt>
      <trkpt lat="34.512290004640818" lon="-5.506448959931731">
        <ele>127.99299999999999</ele>
        <time>2011-01-03T11:40:20Z</time>
      </trkpt>
      <trkpt lat="34.513249984011054" lon="-5.506483996286988">
        <ele>130.39599999999999</ele>
        <time>2011-01-03T11:40:28Z</time>
      </trkpt>
      <trkpt lat="34.514279030263424" lon="-5.506506962701678">
        <ele>133.75999999999999</ele>
        <time>2011-01-03T11:40:35Z</time>
      </trkpt>
      <trkpt lat="34.515317967161536" lon="-5.506375031545758">
        <ele>138.56700000000001</ele>
        <time>2011-01-03T11:40:44Z</time>
      </trkpt>
      <trkpt lat="34.516299990937114" lon="-5.506133968010545">
        <ele>138.56700000000001</ele>
        <time>2011-01-03T11:40:53Z</time>
      </trkpt>
      <trkpt lat="34.517234992235899" lon="-5.505814030766487">
        <ele>137.125</ele>
        <time>2011-01-03T11:40:59Z</time>
      </trkpt>
      <trkpt lat="34.518681960180402" lon="-5.505612026900053">
        <ele>135.68299999999999</ele>
        <time>2011-01-03T11:41:07Z</time>
      </trkpt>
      <trkpt lat="34.520497983321548" lon="-5.505407005548477">
        <ele>133.75999999999999</ele>
        <time>2011-01-03T11:41:16Z</time>
      </trkpt>
      <trkpt lat="34.522650958970189" lon="-5.505126966163516">
        <ele>133.75999999999999</ele>
        <time>2011-01-03T11:41:27Z</time>
      </trkpt>
      <trkpt lat="34.523930959403515" lon="-5.50530499778688">
        <ele>133.28</ele>
        <time>2011-01-03T11:41:34Z</time>
      </trkpt>
      <trkpt lat="34.524900997057557" lon="-5.505608003586531">
        <ele>127.99299999999999</ele>
        <time>2011-01-03T11:41:40Z</time>
      </trkpt>
      <trkpt lat="34.525762991979718" lon="-5.506205968558788">
        <ele>119.821</ele>
        <time>2011-01-03T11:41:47Z</time>
      </trkpt>
      <trkpt lat="34.526676032692194" lon="-5.506837964057922">
        <ele>113.57299999999999</ele>
        <time>2011-01-03T11:41:53Z</time>
      </trkpt>
      <trkpt lat="34.528019987046719" lon="-5.507729966193438">
        <ele>104.44</ele>
        <time>2011-01-03T11:42:00Z</time>
      </trkpt>
      <trkpt lat="34.530576970428228" lon="-5.509372986853123">
        <ele>95.308000000000007</ele>
        <time>2011-01-03T11:42:12Z</time>
      </trkpt>
      <trkpt lat="34.533761003986001" lon="-5.511352960020304">
        <ele>81.849000000000004</ele>
        <time>2011-01-03T11:42:27Z</time>
      </trkpt>
      <trkpt lat="34.53498400747776" lon="-5.512324003502727">
        <ele>80.406999999999996</ele>
        <time>2011-01-03T11:42:33Z</time>
      </trkpt>
      <trkpt lat="34.535368988290429" lon="-5.512667996808887">
        <ele>80.888000000000005</ele>
        <time>2011-01-03T11:42:35Z</time>
      </trkpt>
      <trkpt lat="34.536131992936134" lon="-5.514289978891611">
        <ele>83.290999999999997</ele>
        <time>2011-01-03T11:42:41Z</time>
      </trkpt>
      <trkpt lat="34.537117034196854" lon="-5.51585596986115">
        <ele>88.578999999999994</ele>
        <time>2011-01-03T11:42:48Z</time>
      </trkpt>
      <trkpt lat="34.538004007190466" lon="-5.51705801859498">
        <ele>86.174999999999997</ele>
        <time>2011-01-03T11:42:54Z</time>
      </trkpt>
      <trkpt lat="34.539504032582045" lon="-5.518744960427284">
        <ele>87.617000000000004</ele>
        <time>2011-01-03T11:43:03Z</time>
      </trkpt>
      <trkpt lat="34.5406339969486" lon="-5.519840978085995">
        <ele>90.501000000000005</ele>
        <time>2011-01-03T11:43:10Z</time>
      </trkpt>
      <trkpt lat="34.542166041210294" lon="-5.520776985213161">
        <ele>91.462999999999994</ele>
        <time>2011-01-03T11:43:18Z</time>
      </trkpt>
      <trkpt lat="34.543431960046291" lon="-5.521179987117648">
        <ele>90.981999999999999</ele>
        <time>2011-01-03T11:43:24Z</time>
      </trkpt>
      <trkpt lat="34.545686021447182" lon="-5.52180603146553">
        <ele>89.058999999999997</ele>
        <time>2011-01-03T11:43:34Z</time>
      </trkpt>
      <trkpt lat="34.547499027103186" lon="-5.522540034726262">
        <ele>90.021000000000001</ele>
        <time>2011-01-03T11:43:42Z</time>
      </trkpt>
      <trkpt lat="34.550364967435598" lon="-5.523757003247738">
        <ele>91.942999999999998</ele>
        <time>2011-01-03T11:43:54Z</time>
      </trkpt>
      <trkpt lat="34.553366024047136" lon="-5.524976989254355">
        <ele>103.479</ele>
        <time>2011-01-03T11:44:06Z</time>
      </trkpt>
      <trkpt lat="34.554582992568612" lon="-5.525344032794237">
        <ele>105.88200000000001</ele>
        <time>2011-01-03T11:44:11Z</time>
      </trkpt>
      <trkpt lat="34.557463014498353" lon="-5.525720966979861">
        <ele>102.518</ele>
        <time>2011-01-03T11:44:22Z</time>
      </trkpt>
      <trkpt lat="34.560473039746284" lon="-5.526358997449279">
        <ele>105.88200000000001</ele>
        <time>2011-01-03T11:44:34Z</time>
      </trkpt>
      <trkpt lat="34.563091965392232" lon="-5.526610035449266">
        <ele>109.247</ele>
        <time>2011-01-03T11:44:45Z</time>
      </trkpt>
      <trkpt lat="34.565597986802459" lon="-5.527133988216519">
        <ele>113.092</ele>
        <time>2011-01-03T11:44:57Z</time>
      </trkpt>
      <trkpt lat="34.56731996499002" lon="-5.527525003999472">
        <ele>118.379</ele>
        <time>2011-01-03T11:45:06Z</time>
      </trkpt>
      <trkpt lat="34.568742960691452" lon="-5.527981985360384">
        <ele>117.899</ele>
        <time>2011-01-03T11:45:14Z</time>
      </trkpt>
      <trkpt lat="34.570766016840935" lon="-5.528807016089559">
        <ele>110.208</ele>
        <time>2011-01-03T11:45:24Z</time>
      </trkpt>
      <trkpt lat="34.573040027171373" lon="-5.529921976849437">
        <ele>101.07599999999999</ele>
        <time>2011-01-03T11:45:34Z</time>
      </trkpt>
      <trkpt lat="34.575352007523179" lon="-5.531207006424666">
        <ele>93.866</ele>
        <time>2011-01-03T11:45:45Z</time>
      </trkpt>
      <trkpt lat="34.575990960001945" lon="-5.531500037759543">
        <ele>92.424000000000007</ele>
        <time>2011-01-03T11:45:50Z</time>
      </trkpt>
      <trkpt lat="34.576767040416598" lon="-5.531857023015618">
        <ele>90.981999999999999</ele>
        <time>2011-01-03T11:45:58Z</time>
      </trkpt>
      <trkpt lat="34.577283030375838" lon="-5.532093979418278">
        <ele>90.501000000000005</ele>
        <time>2011-01-03T11:46:06Z</time>
      </trkpt>
      <trkpt lat="34.577923994511366" lon="-5.532368989661336">
        <ele>90.501000000000005</ele>
        <time>2011-01-03T11:46:13Z</time>
      </trkpt>
      <trkpt lat="34.579153032973409" lon="-5.53289202041924">
        <ele>90.501000000000005</ele>
        <time>2011-01-03T11:46:23Z</time>
      </trkpt>
      <trkpt lat="34.580334965139627" lon="-5.53373197093606">
        <ele>88.097999999999999</ele>
        <time>2011-01-03T11:46:33Z</time>
      </trkpt>
      <trkpt lat="34.581150021404028" lon="-5.534358015283942">
        <ele>82.811000000000007</ele>
        <time>2011-01-03T11:46:40Z</time>
      </trkpt>
      <trkpt lat="34.582695979624987" lon="-5.536173032596707">
        <ele>69.832999999999998</ele>
        <time>2011-01-03T11:46:54Z</time>
      </trkpt>
      <trkpt lat="34.583858968690038" lon="-5.537416990846396">
        <ele>66.468000000000004</ele>
        <time>2011-01-03T11:47:04Z</time>
      </trkpt>
      <trkpt lat="34.584775026887655" lon="-5.537976985797286">
        <ele>66.948999999999998</ele>
        <time>2011-01-03T11:47:11Z</time>
      </trkpt>
      <trkpt lat="34.585652025416493" lon="-5.538207991048694">
        <ele>67.909999999999997</ele>
        <time>2011-01-03T11:47:17Z</time>
      </trkpt>
      <trkpt lat="34.586707977578044" lon="-5.538245039060712">
        <ele>68.872</ele>
        <time>2011-01-03T11:47:25Z</time>
      </trkpt>
      <trkpt lat="34.588039023801684" lon="-5.538544021546841">
        <ele>66.468000000000004</ele>
        <time>2011-01-03T11:47:35Z</time>
      </trkpt>
      <trkpt lat="34.589080978184938" lon="-5.538948029279709">
        <ele>65.988</ele>
        <time>2011-01-03T11:47:42Z</time>
      </trkpt>
      <trkpt lat="34.590424010530114" lon="-5.539722014218569">
        <ele>70.313000000000002</ele>
        <time>2011-01-03T11:47:52Z</time>
      </trkpt>
      <trkpt lat="34.591722032055259" lon="-5.54075600579381">
        <ele>72.716999999999999</ele>
        <time>2011-01-03T11:48:03Z</time>
      </trkpt>
      <trkpt lat="34.592793993651867" lon="-5.5415940284729">
        <ele>77.522999999999996</ele>
        <time>2011-01-03T11:48:12Z</time>
      </trkpt>
      <trkpt lat="34.594141971319914" lon="-5.542637994512916">
        <ele>86.656000000000006</ele>
        <time>2011-01-03T11:48:23Z</time>
      </trkpt>
      <trkpt lat="34.595048977062106" lon="-5.543814981356263">
        <ele>93.866</ele>
        <time>2011-01-03T11:48:32Z</time>
      </trkpt>
      <trkpt lat="34.5954620372504" lon="-5.544777978211641">
        <ele>98.671999999999997</ele>
        <time>2011-01-03T11:48:38Z</time>
      </trkpt>
      <trkpt lat="34.595736963674426" lon="-5.545968040823937">
        <ele>103.95999999999999</ele>
        <time>2011-01-03T11:48:45Z</time>
      </trkpt>
      <trkpt lat="34.59587199613452" lon="-5.547790015116334">
        <ele>111.17</ele>
        <time>2011-01-03T11:48:56Z</time>
      </trkpt>
      <trkpt lat="34.596157986670732" lon="-5.549376038834453">
        <ele>118.379</ele>
        <time>2011-01-03T11:49:06Z</time>
      </trkpt>
      <trkpt lat="34.596375999972224" lon="-5.550362002104521">
        <ele>123.18600000000001</ele>
        <time>2011-01-03T11:49:13Z</time>
      </trkpt>
      <trkpt lat="34.596633994951844" lon="-5.551536977291107">
        <ele>127.512</ele>
        <time>2011-01-03T11:49:23Z</time>
      </trkpt>
      <trkpt lat="34.596765004098415" lon="-5.552129996940494">
        <ele>128.95400000000001</ele>
        <time>2011-01-03T11:49:30Z</time>
      </trkpt>
      <trkpt lat="34.596975976601243" lon="-5.552888978272677">
        <ele>131.357</ele>
        <time>2011-01-03T11:49:37Z</time>
      </trkpt>
      <trkpt lat="34.597519040107727" lon="-5.553442016243935">
        <ele>131.83799999999999</ele>
        <time>2011-01-03T11:49:44Z</time>
      </trkpt>
      <trkpt lat="34.598165033385158" lon="-5.553757008165121">
        <ele>130.39599999999999</ele>
        <time>2011-01-03T11:49:50Z</time>
      </trkpt>
      <trkpt lat="34.599365992471576" lon="-5.553932022303343">
        <ele>126.06999999999999</ele>
        <time>2011-01-03T11:50:00Z</time>
      </trkpt>
      <trkpt lat="34.599937973544002" lon="-5.553922969847918">
        <ele>123.667</ele>
        <time>2011-01-03T11:50:05Z</time>
      </trkpt>
      <trkpt lat="34.600755963474512" lon="-5.553575959056616">
        <ele>120.30200000000001</ele>
        <time>2011-01-03T11:50:12Z</time>
      </trkpt>
      <trkpt lat="34.600851014256477" lon="-5.553504964336753">
        <ele>119.821</ele>
        <time>2011-01-03T11:50:13Z</time>
      </trkpt>
      <trkpt lat="34.601497007533908" lon="-5.552825024351478">
        <ele>116.938</ele>
        <time>2011-01-03T11:50:20Z</time>
      </trkpt>
      <trkpt lat="34.601640002802014" lon="-5.552476001903415">
        <ele>116.45699999999999</ele>
        <time>2011-01-03T11:50:22Z</time>
      </trkpt>
      <trkpt lat="34.601704962551594" lon="-5.551070021465421">
        <ele>112.131</ele>
        <time>2011-01-03T11:50:30Z</time>
      </trkpt>
      <trkpt lat="34.601741004735231" lon="-5.549075966700912">
        <ele>106.363</ele>
        <time>2011-01-03T11:50:41Z</time>
      </trkpt>
      <trkpt lat="34.601741004735231" lon="-5.547473011538386">
        <ele>105.402</ele>
        <time>2011-01-03T11:50:50Z</time>
      </trkpt>
      <trkpt lat="34.601835971698165" lon="-5.545951025560498">
        <ele>103.479</ele>
        <time>2011-01-03T11:50:58Z</time>
      </trkpt>
      <trkpt lat="34.601870002225041" lon="-5.544426022097468">
        <ele>102.03700000000001</ele>
        <time>2011-01-03T11:51:04Z</time>
      </trkpt>
      <trkpt lat="34.601870002225041" lon="-5.541556980460882">
        <ele>100.595</ele>
        <time>2011-01-03T11:51:14Z</time>
      </trkpt>
      <trkpt lat="34.602011991664767" lon="-5.538943000137806">
        <ele>100.11499999999999</ele>
        <time>2011-01-03T11:51:23Z</time>
      </trkpt>
      <trkpt lat="34.602352967485785" lon="-5.53772795945406">
        <ele>99.153000000000006</ele>
        <time>2011-01-03T11:51:28Z</time>
      </trkpt>
      <trkpt lat="34.603021005168557" lon="-5.536648035049439">
        <ele>97.710999999999999</ele>
        <time>2011-01-03T11:51:34Z</time>
      </trkpt>
      <trkpt lat="34.603968998417258" lon="-5.535881007090211">
        <ele>96.269000000000005</ele>
        <time>2011-01-03T11:51:41Z</time>
      </trkpt>
      <trkpt lat="34.604826970025897" lon="-5.535387983545661">
        <ele>95.308000000000007</ele>
        <time>2011-01-03T11:51:46Z</time>
      </trkpt>
      <trkpt lat="34.606070006266236" lon="-5.53467602469027">
        <ele>94.346999999999994</ele>
        <time>2011-01-03T11:51:52Z</time>
      </trkpt>
      <trkpt lat="34.608502015471458" lon="-5.533696012571454">
        <ele>97.230000000000004</ele>
        <time>2011-01-03T11:52:02Z</time>
      </trkpt>
      <trkpt lat="34.610415017232299" lon="-5.533115984871984">
        <ele>103.479</ele>
        <time>2011-01-03T11:52:10Z</time>
      </trkpt>
      <trkpt lat="34.612663965672255" lon="-5.532616004347801">
        <ele>105.402</ele>
        <time>2011-01-03T11:52:20Z</time>
      </trkpt>
      <trkpt lat="34.614369012415409" lon="-5.532463034614921">
        <ele>104.92100000000001</ele>
        <time>2011-01-03T11:52:28Z</time>
      </trkpt>
      <trkpt lat="34.615507023409009" lon="-5.532887997105718">
        <ele>100.595</ele>
        <time>2011-01-03T11:52:34Z</time>
      </trkpt>
      <trkpt lat="34.616631036624312" lon="-5.53358000703156">
        <ele>97.710999999999999</ele>
        <time>2011-01-03T11:52:40Z</time>
      </trkpt>
      <trkpt lat="34.617825038731098" lon="-5.534688010811806">
        <ele>90.021000000000001</ele>
        <time>2011-01-03T11:52:47Z</time>
      </trkpt>
      <trkpt lat="34.619028009474277" lon="-5.53538303822279">
        <ele>84.253</ele>
        <time>2011-01-03T11:52:53Z</time>
      </trkpt>
      <trkpt lat="34.620825005695224" lon="-5.536260036751628">
        <ele>85.213999999999999</ele>
        <time>2011-01-03T11:53:01Z</time>
      </trkpt>
      <trkpt lat="34.624466020613909" lon="-5.537861986085773">
        <ele>85.213999999999999</ele>
        <time>2011-01-03T11:53:17Z</time>
      </trkpt>
      <trkpt lat="34.626759979873896" lon="-5.538946017622948">
        <ele>86.174999999999997</ele>
        <time>2011-01-03T11:53:28Z</time>
      </trkpt>
      <trkpt lat="34.627840993925929" lon="-5.539186997339129">
        <ele>86.656000000000006</ele>
        <time>2011-01-03T11:53:34Z</time>
      </trkpt>
      <trkpt lat="34.628660995513201" lon="-5.539030004292727">
        <ele>86.656000000000006</ele>
        <time>2011-01-03T11:53:39Z</time>
      </trkpt>
      <trkpt lat="34.629402961581945" lon="-5.53860898129642">
        <ele>87.137</ele>
        <time>2011-01-03T11:53:44Z</time>
      </trkpt>
      <trkpt lat="34.630023976787925" lon="-5.537527967244387">
        <ele>87.617000000000004</ele>
        <time>2011-01-03T11:53:50Z</time>
      </trkpt>
      <trkpt lat="34.630984961986542" lon="-5.535142980515957">
        <ele>88.578999999999994</ele>
        <time>2011-01-03T11:54:00Z</time>
      </trkpt>
      <trkpt lat="34.631856009364128" lon="-5.533325029537082">
        <ele>96.269000000000005</ele>
        <time>2011-01-03T11:54:08Z</time>
      </trkpt>
      <trkpt lat="34.631959022954106" lon="-5.533154960721731">
        <ele>97.230000000000004</ele>
        <time>2011-01-03T11:54:09Z</time>
      </trkpt>
      <trkpt lat="34.632824035361409" lon="-5.532381981611252">
        <ele>103.479</ele>
        <time>2011-01-03T11:54:15Z</time>
      </trkpt>
      <trkpt lat="34.633770016953349" lon="-5.53231299854815">
        <ele>105.88200000000001</ele>
        <time>2011-01-03T11:54:20Z</time>
      </trkpt>
      <trkpt lat="34.633967997506261" lon="-5.532299000769854">
        <ele>105.88200000000001</ele>
        <time>2011-01-03T11:54:21Z</time>
      </trkpt>
      <trkpt lat="34.635800030082464" lon="-5.532718012109399">
        <ele>107.324</ele>
        <time>2011-01-03T11:54:30Z</time>
      </trkpt>
      <trkpt lat="34.635986024513841" lon="-5.532817002385855">
        <ele>107.80500000000001</ele>
        <time>2011-01-03T11:54:31Z</time>
      </trkpt>
      <trkpt lat="34.636751962825656" lon="-5.533431982621551">
        <ele>108.286</ele>
        <time>2011-01-03T11:54:36Z</time>
      </trkpt>
      <trkpt lat="34.637374989688396" lon="-5.534268999472261">
        <ele>107.80500000000001</ele>
        <time>2011-01-03T11:54:41Z</time>
      </trkpt>
      <trkpt lat="34.637524019926786" lon="-5.534738972783089">
        <ele>105.88200000000001</ele>
        <time>2011-01-03T11:54:43Z</time>
      </trkpt>
      <trkpt lat="34.637996004894376" lon="-5.536821037530899">
        <ele>96.75</ele>
        <time>2011-01-03T11:54:51Z</time>
      </trkpt>
      <trkpt lat="34.638491040095687" lon="-5.539338039234281">
        <ele>89.058999999999997</ele>
        <time>2011-01-03T11:55:00Z</time>
      </trkpt>
      <trkpt lat="34.638529010117054" lon="-5.539597040042281">
        <ele>88.578999999999994</ele>
        <time>2011-01-03T11:55:01Z</time>
      </trkpt>
      <trkpt lat="34.638998983427882" lon="-5.540550984442234">
        <ele>87.617000000000004</ele>
        <time>2011-01-03T11:55:05Z</time>
      </trkpt>
      <trkpt lat="34.640640998259187" lon="-5.54228201508522">
        <ele>92.424000000000007</ele>
        <time>2011-01-03T11:55:15Z</time>
      </trkpt>
      <trkpt lat="34.641660992056131" lon="-5.543361017480493">
        <ele>95.787999999999997</ele>
        <time>2011-01-03T11:55:22Z</time>
      </trkpt>
      <trkpt lat="34.642406981438398" lon="-5.543650025501847">
        <ele>97.230000000000004</ele>
        <time>2011-01-03T11:55:26Z</time>
      </trkpt>
      <trkpt lat="34.643315998837352" lon="-5.543492026627064">
        <ele>97.710999999999999</ele>
        <time>2011-01-03T11:55:31Z</time>
      </trkpt>
      <trkpt lat="34.645023979246616" lon="-5.5430359672755">
        <ele>95.787999999999997</ele>
        <time>2011-01-03T11:55:40Z</time>
      </trkpt>
      <trkpt lat="34.646610002964735" lon="-5.542876962572336">
        <ele>94.826999999999998</ele>
        <time>2011-01-03T11:55:47Z</time>
      </trkpt>
      <trkpt lat="34.648311026394367" lon="-5.542789958417416">
        <ele>96.269000000000005</ele>
        <time>2011-01-03T11:55:54Z</time>
      </trkpt>
      <trkpt lat="34.649780038744211" lon="-5.543327992781997">
        <ele>98.191999999999993</ele>
        <time>2011-01-03T11:56:01Z</time>
      </trkpt>
      <trkpt lat="34.651160035282373" lon="-5.544239021837711">
        <ele>98.191999999999993</ele>
        <time>2011-01-03T11:56:08Z</time>
      </trkpt>
      <trkpt lat="34.653436979278922" lon="-5.545724965631962">
        <ele>97.230000000000004</ele>
        <time>2011-01-03T11:56:19Z</time>
      </trkpt>
      <trkpt lat="34.65594501234591" lon="-5.547127006575465">
        <ele>96.75</ele>
        <time>2011-01-03T11:56:30Z</time>
      </trkpt>
      <trkpt lat="34.658578019589186" lon="-5.548698026686907">
        <ele>102.03700000000001</ele>
        <time>2011-01-03T11:56:42Z</time>
      </trkpt>
      <trkpt lat="34.66174503788352" lon="-5.550367031246424">
        <ele>108.76600000000001</ele>
        <time>2011-01-03T11:56:56Z</time>
      </trkpt>
      <trkpt lat="34.664768977090716" lon="-5.552131002768874">
        <ele>114.054</ele>
        <time>2011-01-03T11:57:09Z</time>
      </trkpt>
      <trkpt lat="34.667571969330311" lon="-5.553503036499023">
        <ele>105.88200000000001</ele>
        <time>2011-01-03T11:57:21Z</time>
      </trkpt>
      <trkpt lat="34.667808003723621" lon="-5.553503036499023">
        <ele>104.92100000000001</ele>
        <time>2011-01-03T11:57:22Z</time>
      </trkpt>
      <trkpt lat="34.668700005859137" lon="-5.553377978503704">
        <ele>102.518</ele>
        <time>2011-01-03T11:57:26Z</time>
      </trkpt>
      <trkpt lat="34.671427980065346" lon="-5.552784036844969">
        <ele>102.03700000000001</ele>
        <time>2011-01-03T11:57:37Z</time>
      </trkpt>
      <trkpt lat="34.673622027039528" lon="-5.552881015464664">
        <ele>107.324</ele>
        <time>2011-01-03T11:57:46Z</time>
      </trkpt>
      <trkpt lat="34.674498019739985" lon="-5.55313004180789">
        <ele>108.76600000000001</ele>
        <time>2011-01-03T11:57:50Z</time>
      </trkpt>
      <trkpt lat="34.675463028252125" lon="-5.553757008165121">
        <ele>108.286</ele>
        <time>2011-01-03T11:57:55Z</time>
      </trkpt>
      <trkpt lat="34.676519986242056" lon="-5.555020999163389">
        <ele>107.80500000000001</ele>
        <time>2011-01-03T11:58:02Z</time>
      </trkpt>
      <trkpt lat="34.677895959466696" lon="-5.556869963183999">
        <ele>109.247</ele>
        <time>2011-01-03T11:58:12Z</time>
      </trkpt>
      <trkpt lat="34.6789560187608" lon="-5.558107970282435">
        <ele>111.17</ele>
        <time>2011-01-03T11:58:19Z</time>
      </trkpt>
      <trkpt lat="34.679712988436222" lon="-5.558880027383566">
        <ele>115.015</ele>
        <time>2011-01-03T11:58:24Z</time>
      </trkpt>
      <trkpt lat="34.680281030014157" lon="-5.559745961800218">
        <ele>114.53400000000001</ele>
        <time>2011-01-03T11:58:30Z</time>
      </trkpt>
      <trkpt lat="34.68080397695303" lon="-5.560691021382809">
        <ele>111.65000000000001</ele>
        <time>2011-01-03T11:58:35Z</time>
      </trkpt>
      <trkpt lat="34.681981969624758" lon="-5.563244987279177">
        <ele>110.208</ele>
        <time>2011-01-03T11:58:47Z</time>
      </trkpt>
      <trkpt lat="34.68275997787714" lon="-5.564653985202313">
        <ele>110.68899999999999</ele>
        <time>2011-01-03T11:58:54Z</time>
      </trkpt>
      <trkpt lat="34.684111978858709" lon="-5.566833028569818">
        <ele>107.324</ele>
        <time>2011-01-03T11:59:05Z</time>
      </trkpt>
      <trkpt lat="34.685018984600902" lon="-5.567679014056921">
        <ele>109.72799999999999</ele>
        <time>2011-01-03T11:59:11Z</time>
      </trkpt>
      <trkpt lat="34.685405977070332" lon="-5.568040022626519">
        <ele>113.092</ele>
        <time>2011-01-03T11:59:15Z</time>
      </trkpt>
      <trkpt lat="34.686094969511032" lon="-5.568434977903962">
        <ele>117.899</ele>
        <time>2011-01-03T11:59:21Z</time>
      </trkpt>
      <trkpt lat="34.687017984688282" lon="-5.568941999226809">
        <ele>122.22499999999999</ele>
        <time>2011-01-03T11:59:28Z</time>
      </trkpt>
      <trkpt lat="34.68821601010859" lon="-5.569894015789032">
        <ele>123.18600000000001</ele>
        <time>2011-01-03T11:59:37Z</time>
      </trkpt>
      <trkpt lat="34.689280008897185" lon="-5.570616032928228">
        <ele>122.22499999999999</ele>
        <time>2011-01-03T11:59:44Z</time>
      </trkpt>
      <trkpt lat="34.689858024939895" lon="-5.571877006441355">
        <ele>119.821</ele>
        <time>2011-01-03T11:59:51Z</time>
      </trkpt>
      <trkpt lat="34.690911965444684" lon="-5.573392035439611">
        <ele>117.41800000000001</ele>
        <time>2011-01-03T12:00:01Z</time>
      </trkpt>
      <trkpt lat="34.691743031144142" lon="-5.574342040345073">
        <ele>116.938</ele>
        <time>2011-01-03T12:00:08Z</time>
      </trkpt>
      <trkpt lat="34.692402016371489" lon="-5.574786029756069">
        <ele>116.938</ele>
        <time>2011-01-03T12:00:13Z</time>
      </trkpt>
      <trkpt lat="34.693207014352083" lon="-5.575075037777424">
        <ele>116.938</ele>
        <time>2011-01-03T12:00:18Z</time>
      </trkpt>
      <trkpt lat="34.694207981228828" lon="-5.574825005605817">
        <ele>117.899</ele>
        <time>2011-01-03T12:00:24Z</time>
      </trkpt>
      <trkpt lat="34.695582026615739" lon="-5.574382022023201">
        <ele>118.379</ele>
        <time>2011-01-03T12:00:33Z</time>
      </trkpt>
      <trkpt lat="34.696371015161276" lon="-5.573701998218894">
        <ele>117.899</ele>
        <time>2011-01-03T12:00:39Z</time>
      </trkpt>
      <trkpt lat="34.696708973497152" lon="-5.573268989101052">
        <ele>118.86</ele>
        <time>2011-01-03T12:00:42Z</time>
      </trkpt>
      <trkpt lat="34.697828963398933" lon="-5.571531001478434">
        <ele>121.264</ele>
        <time>2011-01-03T12:00:53Z</time>
      </trkpt>
      <trkpt lat="34.698016969487071" lon="-5.571190025657415">
        <ele>121.264</ele>
        <time>2011-01-03T12:00:57Z</time>
      </trkpt>
      <trkpt lat="34.698273036628962" lon="-5.570726003497839">
        <ele>121.744</ele>
        <time>2011-01-03T12:01:04Z</time>
      </trkpt>
      <trkpt lat="34.698705039918423" lon="-5.569944977760315">
        <ele>122.22499999999999</ele>
        <time>2011-01-03T12:01:10Z</time>
      </trkpt>
      <trkpt lat="34.699334017932415" lon="-5.568796992301941">
        <ele>123.667</ele>
        <time>2011-01-03T12:01:17Z</time>
      </trkpt>
      <trkpt lat="34.700400028377771" lon="-5.566705036908388">
        <ele>124.14700000000001</ele>
        <time>2011-01-03T12:01:28Z</time>
      </trkpt>
      <trkpt lat="34.701917991042137" lon="-5.56400103494525">
        <ele>126.06999999999999</ele>
        <time>2011-01-03T12:01:42Z</time>
      </trkpt>
      <trkpt lat="34.702951982617378" lon="-5.562353990972042">
        <ele>127.03100000000001</ele>
        <time>2011-01-03T12:01:50Z</time>
      </trkpt>
      <trkpt lat="34.704314963892102" lon="-5.55981301702559">
        <ele>137.125</ele>
        <time>2011-01-03T12:02:01Z</time>
      </trkpt>
      <trkpt lat="34.705467978492379" lon="-5.557961035519838">
        <ele>145.29599999999999</ele>
        <time>2011-01-03T12:02:10Z</time>
      </trkpt>
      <trkpt lat="34.705908028408885" lon="-5.556466039270163">
        <ele>147.69999999999999</ele>
        <time>2011-01-03T12:02:16Z</time>
      </trkpt>
      <trkpt lat="34.706340031698346" lon="-5.554731991142035">
        <ele>149.62200000000001</ele>
        <time>2011-01-03T12:02:23Z</time>
      </trkpt>
      <trkpt lat="34.706470035016537" lon="-5.554527975618839">
        <ele>149.62200000000001</ele>
        <time>2011-01-03T12:02:24Z</time>
      </trkpt>
      <trkpt lat="34.707172019407153" lon="-5.553692970424891">
        <ele>148.661</ele>
        <time>2011-01-03T12:02:29Z</time>
      </trkpt>
      <trkpt lat="34.707877021282911" lon="-5.553200030699372">
        <ele>147.69999999999999</ele>
        <time>2011-01-03T12:02:33Z</time>
      </trkpt>
      <trkpt lat="34.71084002405405" lon="-5.552032012492418">
        <ele>137.60599999999999</ele>
        <time>2011-01-03T12:02:47Z</time>
      </trkpt>
      <trkpt lat="34.712828965857625" lon="-5.551529014483094">
        <ele>135.68299999999999</ele>
        <time>2011-01-03T12:02:56Z</time>
      </trkpt>
      <trkpt lat="34.71543800085783" lon="-5.551117965951562">
        <ele>137.125</ele>
        <time>2011-01-03T12:03:08Z</time>
      </trkpt>
      <trkpt lat="34.71799599006772" lon="-5.550652015954256">
        <ele>139.52799999999999</ele>
        <time>2011-01-03T12:03:20Z</time>
      </trkpt>
      <trkpt lat="34.720257008448243" lon="-5.550194028764963">
        <ele>141.93199999999999</ele>
        <time>2011-01-03T12:03:30Z</time>
      </trkpt>
      <trkpt lat="34.723379015922546" lon="-5.54963001050055">
        <ele>144.816</ele>
        <time>2011-01-03T12:03:43Z</time>
      </trkpt>
      <trkpt lat="34.726254008710384" lon="-5.549366986379027">
        <ele>146.25800000000001</ele>
        <time>2011-01-03T12:03:55Z</time>
      </trkpt>
      <trkpt lat="34.727686978876591" lon="-5.548825012519956">
        <ele>148.18000000000001</ele>
        <time>2011-01-03T12:04:02Z</time>
      </trkpt>
      <trkpt lat="34.728640001267195" lon="-5.548182958737016">
        <ele>148.661</ele>
        <time>2011-01-03T12:04:07Z</time>
      </trkpt>
      <trkpt lat="34.730457030236721" lon="-5.546564999967814">
        <ele>152.02600000000001</ele>
        <time>2011-01-03T12:04:17Z</time>
      </trkpt>
      <trkpt lat="34.732358967885375" lon="-5.544564994052053">
        <ele>154.429</ele>
        <time>2011-01-03T12:04:29Z</time>
      </trkpt>
      <trkpt lat="34.733103029429913" lon="-5.543953031301498">
        <ele>156.352</ele>
        <time>2011-01-03T12:04:33Z</time>
      </trkpt>
      <trkpt lat="34.734450001269579" lon="-5.543921012431383">
        <ele>160.197</ele>
        <time>2011-01-03T12:04:40Z</time>
      </trkpt>
      <trkpt lat="34.736706996336579" lon="-5.54389301687479">
        <ele>168.84899999999999</ele>
        <time>2011-01-03T12:04:51Z</time>
      </trkpt>
      <trkpt lat="34.737633028998971" lon="-5.543454978615046">
        <ele>170.77099999999999</ele>
        <time>2011-01-03T12:04:56Z</time>
      </trkpt>
      <trkpt lat="34.738531988114119" lon="-5.542603963986039">
        <ele>171.733</ele>
        <time>2011-01-03T12:05:02Z</time>
      </trkpt>
      <trkpt lat="34.740131003782153" lon="-5.541064040735364">
        <ele>173.17500000000001</ele>
        <time>2011-01-03T12:05:14Z</time>
      </trkpt>
      <trkpt lat="34.741664975881577" lon="-5.539999036118388">
        <ele>176.059</ele>
        <time>2011-01-03T12:05:24Z</time>
      </trkpt>
      <trkpt lat="34.742584973573685" lon="-5.53946603089571">
        <ele>173.655</ele>
        <time>2011-01-03T12:05:30Z</time>
      </trkpt>
      <trkpt lat="34.74435699172318" lon="-5.539020029827952">
        <ele>164.042</ele>
        <time>2011-01-03T12:05:40Z</time>
      </trkpt>
      <trkpt lat="34.744947999715805" lon="-5.538983987644315">
        <ele>162.12</ele>
        <time>2011-01-03T12:05:43Z</time>
      </trkpt>
      <trkpt lat="34.745678985491395" lon="-5.539180962368846">
        <ele>160.67699999999999</ele>
        <time>2011-01-03T12:05:47Z</time>
      </trkpt>
      <trkpt lat="34.748306041583419" lon="-5.540141025558114">
        <ele>164.042</ele>
        <time>2011-01-03T12:06:00Z</time>
      </trkpt>
      <trkpt lat="34.7500079870224" lon="-5.540912998840213">
        <ele>166.44499999999999</ele>
        <time>2011-01-03T12:06:09Z</time>
      </trkpt>
      <trkpt lat="34.752160962671041" lon="-5.541500989347696">
        <ele>167.887</ele>
        <time>2011-01-03T12:06:20Z</time>
      </trkpt>
      <trkpt lat="34.753128988668323" lon="-5.541496966034174">
        <ele>169.32900000000001</ele>
        <time>2011-01-03T12:06:25Z</time>
      </trkpt>
      <trkpt lat="34.754375964403152" lon="-5.541304014623165">
        <ele>174.136</ele>
        <time>2011-01-03T12:06:32Z</time>
      </trkpt>
      <trkpt lat="34.7552490234375" lon="-5.541288005188108">
        <ele>173.17500000000001</ele>
        <time>2011-01-03T12:06:37Z</time>
      </trkpt>
      <trkpt lat="34.756885003298521" lon="-5.541372997686267">
        <ele>174.61699999999999</ele>
        <time>2011-01-03T12:06:46Z</time>
      </trkpt>
      <trkpt lat="34.758067019283772" lon="-5.54146402515471">
        <ele>176.059</ele>
        <time>2011-01-03T12:06:52Z</time>
      </trkpt>
      <trkpt lat="34.760038023814559" lon="-5.54163702763617">
        <ele>177.501</ele>
        <time>2011-01-03T12:07:02Z</time>
      </trkpt>
      <trkpt lat="34.761962005868554" lon="-5.541656976565719">
        <ele>182.30699999999999</ele>
        <time>2011-01-03T12:07:12Z</time>
      </trkpt>
      <trkpt lat="34.764119004830718" lon="-5.541858980432153">
        <ele>181.82599999999999</ele>
        <time>2011-01-03T12:07:23Z</time>
      </trkpt>
      <trkpt lat="34.76511100307107" lon="-5.542101971805096">
        <ele>180.38499999999999</ele>
        <time>2011-01-03T12:07:28Z</time>
      </trkpt>
      <trkpt lat="34.766794005408883" lon="-5.543052982538939">
        <ele>180.38499999999999</ele>
        <time>2011-01-03T12:07:37Z</time>
      </trkpt>
      <trkpt lat="34.768947986885905" lon="-5.544267017394304">
        <ele>184.22999999999999</ele>
        <time>2011-01-03T12:07:49Z</time>
      </trkpt>
      <trkpt lat="34.770084992051125" lon="-5.544590977951884">
        <ele>186.15199999999999</ele>
        <time>2011-01-03T12:07:55Z</time>
      </trkpt>
      <trkpt lat="34.772015009075403" lon="-5.545343002304435">
        <ele>187.59399999999999</ele>
        <time>2011-01-03T12:08:06Z</time>
      </trkpt>
      <trkpt lat="34.773668004199862" lon="-5.545684983953834">
        <ele>189.99799999999999</ele>
        <time>2011-01-03T12:08:16Z</time>
      </trkpt>
      <trkpt lat="34.774898970499635" lon="-5.546012967824936">
        <ele>191.91999999999999</ele>
        <time>2011-01-03T12:08:24Z</time>
      </trkpt>
      <trkpt lat="34.776170002296567" lon="-5.546379005536437">
        <ele>192.40100000000001</ele>
        <time>2011-01-03T12:08:32Z</time>
      </trkpt>
      <trkpt lat="34.777232995256782" lon="-5.546260988339782">
        <ele>191.91999999999999</ele>
        <time>2011-01-03T12:08:38Z</time>
      </trkpt>
      <trkpt lat="34.778483994305134" lon="-5.54591397754848">
        <ele>193.36199999999999</ele>
        <time>2011-01-03T12:08:46Z</time>
      </trkpt>
      <trkpt lat="34.779521003365517" lon="-5.545864021405578">
        <ele>194.804</ele>
        <time>2011-01-03T12:08:53Z</time>
      </trkpt>
      <trkpt lat="34.781208029016852" lon="-5.545476023107767">
        <ele>196.24600000000001</ele>
        <time>2011-01-03T12:09:04Z</time>
      </trkpt>
      <trkpt lat="34.782524993643165" lon="-5.545410979539156">
        <ele>197.68799999999999</ele>
        <time>2011-01-03T12:09:13Z</time>
      </trkpt>
      <trkpt lat="34.782844008877873" lon="-5.545536037534475">
        <ele>198.16900000000001</ele>
        <time>2011-01-03T12:09:18Z</time>
      </trkpt>
      <trkpt lat="34.78331096470356" lon="-5.546165015548468">
        <ele>197.208</ele>
        <time>2011-01-03T12:09:24Z</time>
      </trkpt>
      <trkpt lat="34.784055026248097" lon="-5.547118959948421">
        <ele>198.16900000000001</ele>
        <time>2011-01-03T12:09:31Z</time>
      </trkpt>
      <trkpt lat="34.784401031211019" lon="-5.547434035688639">
        <ele>198.65000000000001</ele>
        <time>2011-01-03T12:09:34Z</time>
      </trkpt>
      <trkpt lat="34.785499982535839" lon="-5.548775978386402">
        <ele>201.053</ele>
        <time>2011-01-03T12:09:43Z</time>
      </trkpt>
      <trkpt lat="34.785616993904114" lon="-5.549744004383683">
        <ele>202.01400000000001</ele>
        <time>2011-01-03T12:09:48Z</time>
      </trkpt>
      <trkpt lat="34.785878006368876" lon="-5.551290968433023">
        <ele>203.45599999999999</ele>
        <time>2011-01-03T12:09:55Z</time>
      </trkpt>
      <trkpt lat="34.786390978842974" lon="-5.552396960556507">
        <ele>204.898</ele>
        <time>2011-01-03T12:10:01Z</time>
      </trkpt>
      <trkpt lat="34.786856006830931" lon="-5.552997021004558">
        <ele>207.30099999999999</ele>
        <time>2011-01-03T12:10:05Z</time>
      </trkpt>
      <trkpt lat="34.787894021719694" lon="-5.553692970424891">
        <ele>211.14699999999999</ele>
        <time>2011-01-03T12:10:12Z</time>
      </trkpt>
      <trkpt lat="34.788429038599133" lon="-5.553987007588148">
        <ele>214.03100000000001</ele>
        <time>2011-01-03T12:10:16Z</time>
      </trkpt>
      <trkpt lat="34.789613988250494" lon="-5.554523030295968">
        <ele>223.64400000000001</ele>
        <time>2011-01-03T12:10:25Z</time>
      </trkpt>
      <trkpt lat="34.79087102226913" lon="-5.555004989728332">
        <ele>230.85400000000001</ele>
        <time>2011-01-03T12:10:33Z</time>
      </trkpt>
      <trkpt lat="34.79233399964869" lon="-5.555673027411103">
        <ele>237.583</ele>
        <time>2011-01-03T12:10:43Z</time>
      </trkpt>
      <trkpt lat="34.793746015056968" lon="-5.556359002366662">
        <ele>245.273</ele>
        <time>2011-01-03T12:10:52Z</time>
      </trkpt>
      <trkpt lat="34.794624019414186" lon="-5.556837022304535">
        <ele>251.52199999999999</ele>
        <time>2011-01-03T12:10:59Z</time>
      </trkpt>
      <trkpt lat="34.795055016875267" lon="-5.557305989786983">
        <ele>254.887</ele>
        <time>2011-01-03T12:11:06Z</time>
      </trkpt>
      <trkpt lat="34.795617023482919" lon="-5.55796698667109">
        <ele>258.25099999999998</ele>
        <time>2011-01-03T12:11:15Z</time>
      </trkpt>
      <trkpt lat="34.796220017597079" lon="-5.558878015726805">
        <ele>262.577</ele>
        <time>2011-01-03T12:11:25Z</time>
      </trkpt>
      <trkpt lat="34.796659983694553" lon="-5.559846041724086">
        <ele>266.42200000000003</ele>
        <time>2011-01-03T12:11:35Z</time>
      </trkpt>
      <trkpt lat="34.79706097394228" lon="-5.560770984739065">
        <ele>270.26799999999997</ele>
        <time>2011-01-03T12:11:43Z</time>
      </trkpt>
      <trkpt lat="34.79749096557498" lon="-5.561969010159373">
        <ele>275.07400000000001</ele>
        <time>2011-01-03T12:11:51Z</time>
      </trkpt>
      <trkpt lat="34.797602025792003" lon="-5.563676990568638">
        <ele>283.726</ele>
        <time>2011-01-03T12:12:01Z</time>
      </trkpt>
      <trkpt lat="34.797570006921887" lon="-5.564917009323835">
        <ele>286.61000000000001</ele>
        <time>2011-01-03T12:12:09Z</time>
      </trkpt>
      <trkpt lat="34.797475961968303" lon="-5.565725024789572">
        <ele>285.16800000000001</ele>
        <time>2011-01-03T12:12:15Z</time>
      </trkpt>
      <trkpt lat="34.797164993360639" lon="-5.567154977470636">
        <ele>279.88099999999997</ele>
        <time>2011-01-03T12:12:27Z</time>
      </trkpt>
      <trkpt lat="34.796817982569337" lon="-5.56853799149394">
        <ele>279.88099999999997</ele>
        <time>2011-01-03T12:12:40Z</time>
      </trkpt>
      <trkpt lat="34.796721003949642" lon="-5.569078037515283">
        <ele>280.36200000000002</ele>
        <time>2011-01-03T12:12:45Z</time>
      </trkpt>
      <trkpt lat="34.796769032254815" lon="-5.569485984742641">
        <ele>279.88099999999997</ele>
        <time>2011-01-03T12:12:50Z</time>
      </trkpt>
      <trkpt lat="34.7969960141927" lon="-5.570622989907861">
        <ele>278.43900000000002</ele>
        <time>2011-01-03T12:12:59Z</time>
      </trkpt>
      <trkpt lat="34.797258032485843" lon="-5.57150099426508">
        <ele>278.43900000000002</ele>
        <time>2011-01-03T12:13:07Z</time>
      </trkpt>
      <trkpt lat="34.797520972788334" lon="-5.572277996689081">
        <ele>280.36200000000002</ele>
        <time>2011-01-03T12:13:16Z</time>
      </trkpt>
      <trkpt lat="34.797570006921887" lon="-5.572598017752171">
        <ele>280.84199999999998</ele>
        <time>2011-01-03T12:13:24Z</time>
      </trkpt>
      <trkpt lat="34.797602025792003" lon="-5.572803961113095">
        <ele>280.36200000000002</ele>
        <time>2011-01-03T12:13:28Z</time>
      </trkpt>
      <trkpt lat="34.797700010240078" lon="-5.5734340287745">
        <ele>280.36200000000002</ele>
        <time>2011-01-03T12:13:38Z</time>
      </trkpt>
      <trkpt lat="34.797836970537901" lon="-5.57405998930335">
        <ele>281.80399999999997</ele>
        <time>2011-01-03T12:13:47Z</time>
      </trkpt>
      <trkpt lat="34.79787603020668" lon="-5.574184041470289">
        <ele>282.76499999999999</ele>
        <time>2011-01-03T12:13:50Z</time>
      </trkpt>
      <trkpt lat="34.79794098995626" lon="-5.574394008144736">
        <ele>283.726</ele>
        <time>2011-01-03T12:13:58Z</time>
      </trkpt>
      <trkpt lat="34.798051966354251" lon="-5.574750993400812">
        <ele>286.13</ele>
        <time>2011-01-03T12:14:39Z</time>
      </trkpt>
      <trkpt lat="34.79815598577261" lon="-5.575084006413817">
        <ele>287.09100000000001</ele>
        <time>2011-01-03T12:14:48Z</time>
      </trkpt>
      <trkpt lat="34.798164032399654" lon="-5.575391035526991">
        <ele>287.57100000000003</ele>
        <time>2011-01-03T12:15:00Z</time>
      </trkpt>
      <trkpt lat="34.798354972153902" lon="-5.575457001104951">
        <ele>288.53300000000002</ele>
        <time>2011-01-03T12:15:09Z</time>
      </trkpt>
      <trkpt lat="34.798659989610314" lon="-5.575353987514973">
        <ele>287.57100000000003</ele>
        <time>2011-01-03T12:15:20Z</time>
      </trkpt>
      <trkpt lat="34.798934999853373" lon="-5.575242005288601">
        <ele>283.726</ele>
        <time>2011-01-03T12:15:32Z</time>
      </trkpt>
      <trkpt lat="34.799157958477736" lon="-5.575156006962061">
        <ele>281.32299999999998</ele>
        <time>2011-01-03T12:15:42Z</time>
      </trkpt>
      <trkpt lat="34.799388963729143" lon="-5.575060034170747">
        <ele>279.39999999999998</ele>
        <time>2011-01-03T12:15:54Z</time>
      </trkpt>
      <trkpt lat="34.799656011164188" lon="-5.574933970347047">
        <ele>278.92000000000002</ele>
        <time>2011-01-03T12:16:05Z</time>
      </trkpt>
      <trkpt lat="34.800135036930442" lon="-5.57487303391099">
        <ele>280.36200000000002</ele>
        <time>2011-01-03T12:16:16Z</time>
      </trkpt>
      <trkpt lat="34.800642980262637" lon="-5.575027009472251">
        <ele>278.43900000000002</ele>
        <time>2011-01-03T12:16:23Z</time>
      </trkpt>
      <trkpt lat="34.800964007154107" lon="-5.575050981715322">
        <ele>276.99700000000001</ele>
        <time>2011-01-03T12:16:27Z</time>
      </trkpt>
      <trkpt lat="34.801725000143051" lon="-5.574952997267246">
        <ele>271.22899999999998</ele>
        <time>2011-01-03T12:16:37Z</time>
      </trkpt>
      <trkpt lat="34.802279965952039" lon="-5.57491603307426">
        <ele>267.38400000000001</ele>
        <time>2011-01-03T12:16:46Z</time>
      </trkpt>
      <trkpt lat="34.802823029458523" lon="-5.574807990342379">
        <ele>265.94200000000001</ele>
        <time>2011-01-03T12:16:54Z</time>
      </trkpt>
      <trkpt lat="34.803313035517931" lon="-5.574502972885966">
        <ele>264.5</ele>
        <time>2011-01-03T12:17:02Z</time>
      </trkpt>
      <trkpt lat="34.803375983610749" lon="-5.574326030910015">
        <ele>262.577</ele>
        <time>2011-01-03T12:17:09Z</time>
      </trkpt>
      <trkpt lat="34.803084963932633" lon="-5.573982959613204">
        <ele>263.05799999999999</ele>
        <time>2011-01-03T12:17:18Z</time>
      </trkpt>
      <trkpt lat="34.802865022793412" lon="-5.573828984051943">
        <ele>263.53899999999999</ele>
        <time>2011-01-03T12:17:24Z</time>
      </trkpt>
      <trkpt lat="34.802753962576389" lon="-5.573726976290345">
        <ele>264.5</ele>
        <time>2011-01-03T12:17:31Z</time>
      </trkpt>
      <trkpt lat="34.802851025015116" lon="-5.57380098849535">
        <ele>264.5</ele>
        <time>2011-01-03T12:17:38Z</time>
      </trkpt>
      <trkpt lat="34.803090998902917" lon="-5.573974996805191">
        <ele>262.577</ele>
        <time>2011-01-03T12:17:53Z</time>
      </trkpt>
      <trkpt lat="34.803384030237794" lon="-5.574371963739395">
        <ele>257.77100000000002</ele>
        <time>2011-01-03T12:18:06Z</time>
      </trkpt>
      <trkpt lat="34.803172973915935" lon="-5.574621995911002">
        <ele>257.29000000000002</ele>
        <time>2011-01-03T12:18:12Z</time>
      </trkpt>
      <trkpt lat="34.802865022793412" lon="-5.57479097507894">
        <ele>257.77100000000002</ele>
        <time>2011-01-03T12:18:17Z</time>
      </trkpt>
      <trkpt lat="34.802411980926991" lon="-5.57491997256875">
        <ele>260.17399999999998</ele>
        <time>2011-01-03T12:18:26Z</time>
      </trkpt>
      <trkpt lat="34.8021300137043" lon="-5.574932964518666">
        <ele>263.05799999999999</ele>
        <time>2011-01-03T12:18:39Z</time>
      </trkpt>
      <trkpt lat="34.801951982080936" lon="-5.57494000531733">
        <ele>263.53899999999999</ele>
        <time>2011-01-03T12:18:42Z</time>
      </trkpt>
      <trkpt lat="34.801064003258944" lon="-5.575058022513986">
        <ele>268.82600000000002</ele>
        <time>2011-01-03T12:18:53Z</time>
      </trkpt>
      <trkpt lat="34.800810031592846" lon="-5.575094986706972">
        <ele>270.74799999999999</ele>
        <time>2011-01-03T12:18:56Z</time>
      </trkpt>
      <trkpt lat="34.800518006086349" lon="-5.575036983937025">
        <ele>273.63200000000001</ele>
        <time>2011-01-03T12:19:00Z</time>
      </trkpt>
      <trkpt lat="34.79989699088037" lon="-5.57489600032568">
        <ele>276.51600000000002</ele>
        <time>2011-01-03T12:19:10Z</time>
      </trkpt>
      <trkpt lat="34.799437997862697" lon="-5.57506799697876">
        <ele>278.92000000000002</ele>
        <time>2011-01-03T12:19:19Z</time>
      </trkpt>
      <trkpt lat="34.799172040075064" lon="-5.575162963941693">
        <ele>280.84199999999998</ele>
        <time>2011-01-03T12:19:27Z</time>
      </trkpt>
      <trkpt lat="34.798683961853385" lon="-5.575358010828495">
        <ele>282.76499999999999</ele>
        <time>2011-01-03T12:19:37Z</time>
      </trkpt>
      <trkpt lat="34.798164032399654" lon="-5.575553979724646">
        <ele>284.68799999999999</ele>
        <time>2011-01-03T12:19:48Z</time>
      </trkpt>
      <trkpt lat="34.798164032399654" lon="-5.575809041038156">
        <ele>285.649</ele>
        <time>2011-01-03T12:19:57Z</time>
      </trkpt>
      <trkpt lat="34.798164032399654" lon="-5.57644497603178">
        <ele>286.61000000000001</ele>
        <time>2011-01-03T12:20:08Z</time>
      </trkpt>
      <trkpt lat="34.798148022964597" lon="-5.577007988467813">
        <ele>287.57100000000003</ele>
        <time>2011-01-03T12:20:17Z</time>
      </trkpt>
      <trkpt lat="34.798128996044397" lon="-5.577475028112531">
        <ele>287.57100000000003</ele>
        <time>2011-01-03T12:20:28Z</time>
      </trkpt>
      <trkpt lat="34.798124972730875" lon="-5.577594973146915">
        <ele>288.05200000000002</ele>
        <time>2011-01-03T12:20:31Z</time>
      </trkpt>
      <trkpt lat="34.798743976280093" lon="-5.577735034748912">
        <ele>288.05200000000002</ele>
        <time>2011-01-03T12:20:40Z</time>
      </trkpt>
      <trkpt lat="34.799599014222622" lon="-5.577552979812026">
        <ele>284.68799999999999</ele>
        <time>2011-01-03T12:20:50Z</time>
      </trkpt>
      <trkpt lat="34.799777967855334" lon="-5.577507968991995">
        <ele>283.24599999999998</ele>
        <time>2011-01-03T12:20:56Z</time>
      </trkpt>
      <trkpt lat="34.799534976482391" lon="-5.57762598618865">
        <ele>283.726</ele>
        <time>2011-01-03T12:21:12Z</time>
      </trkpt>
      <trkpt lat="34.799191989004612" lon="-5.57768801227212">
        <ele>284.68799999999999</ele>
        <time>2011-01-03T12:21:20Z</time>
      </trkpt>
      <trkpt lat="34.798640962690115" lon="-5.577808963134885">
        <ele>287.09100000000001</ele>
        <time>2011-01-03T12:21:29Z</time>
      </trkpt>
      <trkpt lat="34.798121033236384" lon="-5.577686000615358">
        <ele>288.53300000000002</ele>
        <time>2011-01-03T12:21:35Z</time>
      </trkpt>
      <trkpt lat="34.798288000747561" lon="-5.577834025025368">
        <ele>289.49400000000003</ele>
        <time>2011-01-03T12:21:47Z</time>
      </trkpt>
      <trkpt lat="34.798125978559256" lon="-5.577564965933561">
        <ele>289.49400000000003</ele>
        <time>2011-01-03T12:21:53Z</time>
      </trkpt>
      <trkpt lat="34.798137964680791" lon="-5.577249974012375">
        <ele>289.97500000000002</ele>
        <time>2011-01-03T12:21:59Z</time>
      </trkpt>
      <trkpt lat="34.798147017136216" lon="-5.577017962932587">
        <ele>289.49400000000003</ele>
        <time>2011-01-03T12:22:03Z</time>
      </trkpt>
      <trkpt lat="34.798164032399654" lon="-5.576437013223767">
        <ele>287.09100000000001</ele>
        <time>2011-01-03T12:22:12Z</time>
      </trkpt>
      <trkpt lat="34.798164032399654" lon="-5.576187986880541">
        <ele>287.09100000000001</ele>
        <time>2011-01-03T12:22:17Z</time>
      </trkpt>
      <trkpt lat="34.798164032399654" lon="-5.575556997209787">
        <ele>288.53300000000002</ele>
        <time>2011-01-03T12:22:28Z</time>
      </trkpt>
      <trkpt lat="34.798164032399654" lon="-5.575224990025163">
        <ele>287.09100000000001</ele>
        <time>2011-01-03T12:22:33Z</time>
      </trkpt>
      <trkpt lat="34.79796496219933" lon="-5.574471037834883">
        <ele>281.80399999999997</ele>
        <time>2011-01-03T12:22:42Z</time>
      </trkpt>
      <trkpt lat="34.797694981098175" lon="-5.573404021561146">
        <ele>277.95800000000003</ele>
        <time>2011-01-03T12:22:54Z</time>
      </trkpt>
      <trkpt lat="34.79757503606379" lon="-5.572628024965525">
        <ele>276.99700000000001</ele>
        <time>2011-01-03T12:23:04Z</time>
      </trkpt>
      <trkpt lat="34.797544023022056" lon="-5.572429038584232">
        <ele>276.51600000000002</ele>
        <time>2011-01-03T12:23:08Z</time>
      </trkpt>
      <trkpt lat="34.797634966671467" lon="-5.57186502031982">
        <ele>275.55500000000001</ele>
        <time>2011-01-03T12:23:15Z</time>
      </trkpt>
      <trkpt lat="34.797907965257764" lon="-5.570884002372623">
        <ele>274.59399999999999</ele>
        <time>2011-01-03T12:23:24Z</time>
      </trkpt>
      <trkpt lat="34.798235027119517" lon="-5.569892004132271">
        <ele>274.113</ele>
        <time>2011-01-03T12:23:32Z</time>
      </trkpt>
      <trkpt lat="34.798379028216004" lon="-5.569467963650823">
        <ele>273.63200000000001</ele>
        <time>2011-01-03T12:23:37Z</time>
      </trkpt>
      <trkpt lat="34.79850098490715" lon="-5.56937400251627">
        <ele>274.59399999999999</ele>
        <time>2011-01-03T12:23:42Z</time>
      </trkpt>
      <trkpt lat="34.798827040940523" lon="-5.569123970344663">
        <ele>275.55500000000001</ele>
        <time>2011-01-03T12:23:50Z</time>
      </trkpt>
      <trkpt lat="34.799549980089068" lon="-5.569045012816787">
        <ele>277.47800000000001</ele>
        <time>2011-01-03T12:23:59Z</time>
      </trkpt>
      <trkpt lat="34.800322959199548" lon="-5.569218015298247">
        <ele>277.47800000000001</ele>
        <time>2011-01-03T12:24:10Z</time>
      </trkpt>
      <trkpt lat="34.801309006288648" lon="-5.569441979750991">
        <ele>278.92000000000002</ele>
        <time>2011-01-03T12:24:22Z</time>
      </trkpt>
      <trkpt lat="34.802477024495602" lon="-5.569745991379023">
        <ele>285.16800000000001</ele>
        <time>2011-01-03T12:24:34Z</time>
      </trkpt>
      <trkpt lat="34.803641019389033" lon="-5.570054026320577">
        <ele>288.53300000000002</ele>
        <time>2011-01-03T12:24:47Z</time>
      </trkpt>
      <trkpt lat="34.804160026833415" lon="-5.570108005777001">
        <ele>286.13</ele>
        <time>2011-01-03T12:24:53Z</time>
      </trkpt>
      <trkpt lat="34.804597981274128" lon="-5.56982503272593">
        <ele>284.20699999999999</ele>
        <time>2011-01-03T12:24:59Z</time>
      </trkpt>
      <trkpt lat="34.804676016792655" lon="-5.569769963622093">
        <ele>283.726</ele>
        <time>2011-01-03T12:25:00Z</time>
      </trkpt>
      <trkpt lat="34.80556701309979" lon="-5.568984998390079">
        <ele>284.68799999999999</ele>
        <time>2011-01-03T12:25:10Z</time>
      </trkpt>
      <trkpt lat="34.80632096529007" lon="-5.568110011518002">
        <ele>278.92000000000002</ele>
        <time>2011-01-03T12:25:17Z</time>
      </trkpt>
      <trkpt lat="34.807509016245604" lon="-5.566935958340764">
        <ele>267.38400000000001</ele>
        <time>2011-01-03T12:25:26Z</time>
      </trkpt>
      <trkpt lat="34.808992026373744" lon="-5.565467029809952">
        <ele>261.61599999999999</ele>
        <time>2011-01-03T12:25:37Z</time>
      </trkpt>
      <trkpt lat="34.809849997982383" lon="-5.564353996887803">
        <ele>257.77100000000002</ele>
        <time>2011-01-03T12:25:44Z</time>
      </trkpt>
      <trkpt lat="34.81132403947413" lon="-5.562360025942326">
        <ele>256.32900000000001</ele>
        <time>2011-01-03T12:25:55Z</time>
      </trkpt>
      <trkpt lat="34.812706969678402" lon="-5.560239991173148">
        <ele>250.56100000000001</ele>
        <time>2011-01-03T12:26:06Z</time>
      </trkpt>
      <trkpt lat="34.813064960762858" lon="-5.559630962088704">
        <ele>250.08000000000001</ele>
        <time>2011-01-03T12:26:09Z</time>
      </trkpt>
      <trkpt lat="34.813494030386209" lon="-5.558799980208278">
        <ele>252.00299999999999</ele>
        <time>2011-01-03T12:26:13Z</time>
      </trkpt>
      <trkpt lat="34.814247982576489" lon="-5.55616001598537">
        <ele>264.98099999999999</ele>
        <time>2011-01-03T12:26:24Z</time>
      </trkpt>
      <trkpt lat="34.81433498673141" lon="-5.555954994633794">
        <ele>265.94200000000001</ele>
        <time>2011-01-03T12:26:25Z</time>
      </trkpt>
      <trkpt lat="34.814991038292646" lon="-5.554839028045535">
        <ele>271.22899999999998</ele>
        <time>2011-01-03T12:26:32Z</time>
      </trkpt>
      <trkpt lat="34.815956968814135" lon="-5.553524997085333">
        <ele>279.88099999999997</ele>
        <time>2011-01-03T12:26:42Z</time>
      </trkpt>
      <trkpt lat="34.816990960389376" lon="-5.551933022215962">
        <ele>281.32299999999998</ele>
        <time>2011-01-03T12:26:54Z</time>
      </trkpt>
      <trkpt lat="34.817966027185321" lon="-5.55078998208046">
        <ele>274.113</ele>
        <time>2011-01-03T12:27:03Z</time>
      </trkpt>
      <trkpt lat="34.818217987194657" lon="-5.550653021782637">
        <ele>272.67099999999999</ele>
        <time>2011-01-03T12:27:05Z</time>
      </trkpt>
      <trkpt lat="34.818980991840363" lon="-5.550344986841083">
        <ele>267.86500000000001</ele>
        <time>2011-01-03T12:27:11Z</time>
      </trkpt>
      <trkpt lat="34.820657959207892" lon="-5.550085986033082">
        <ele>260.17399999999998</ele>
        <time>2011-01-03T12:27:23Z</time>
      </trkpt>
      <trkpt lat="34.822459984570742" lon="-5.54986696690321">
        <ele>253.44499999999999</ele>
        <time>2011-01-03T12:27:34Z</time>
      </trkpt>
      <trkpt lat="34.824363011866808" lon="-5.549834026023746">
        <ele>248.15799999999999</ele>
        <time>2011-01-03T12:27:45Z</time>
      </trkpt>
      <trkpt lat="34.825902013108134" lon="-5.549421971663833">
        <ele>243.351</ele>
        <time>2011-01-03T12:27:54Z</time>
      </trkpt>
      <trkpt lat="34.826190015301108" lon="-5.549218039959669">
        <ele>241.428</ele>
        <time>2011-01-03T12:27:56Z</time>
      </trkpt>
      <trkpt lat="34.827041029930115" lon="-5.548461992293596">
        <ele>237.583</ele>
        <time>2011-01-03T12:28:02Z</time>
      </trkpt>
      <trkpt lat="34.828341985121369" lon="-5.547070009633899">
        <ele>241.428</ele>
        <time>2011-01-03T12:28:11Z</time>
      </trkpt>
      <trkpt lat="34.829816026613116" lon="-5.54610600695014">
        <ele>239.98599999999999</ele>
        <time>2011-01-03T12:28:19Z</time>
      </trkpt>
      <trkpt lat="34.831117987632751" lon="-5.545173017308116">
        <ele>234.69900000000001</ele>
        <time>2011-01-03T12:28:26Z</time>
      </trkpt>
      <trkpt lat="34.832619018852711" lon="-5.544040035456419">
        <ele>225.08600000000001</ele>
        <time>2011-01-03T12:28:35Z</time>
      </trkpt>
      <trkpt lat="34.833669019863009" lon="-5.543294968083501">
        <ele>221.24100000000001</ele>
        <time>2011-01-03T12:28:42Z</time>
      </trkpt>
      <trkpt lat="34.835087992250919" lon="-5.542533975094557">
        <ele>217.39500000000001</ele>
        <time>2011-01-03T12:28:52Z</time>
      </trkpt>
      <trkpt lat="34.836128018796444" lon="-5.542032988741994">
        <ele>215.47300000000001</ele>
        <time>2011-01-03T12:29:00Z</time>
      </trkpt>
      <trkpt lat="34.837128985673189" lon="-5.541592016816139">
        <ele>214.511</ele>
        <time>2011-01-03T12:29:08Z</time>
      </trkpt>
      <trkpt lat="34.837659979239106" lon="-5.54135799407959">
        <ele>214.99199999999999</ele>
        <time>2011-01-03T12:29:15Z</time>
      </trkpt>
      <trkpt lat="34.838200025260448" lon="-5.541119026020169">
        <ele>213.06899999999999</ele>
        <time>2011-01-03T12:29:25Z</time>
      </trkpt>
      <trkpt lat="34.838710986077785" lon="-5.540893971920013">
        <ele>213.06899999999999</ele>
        <time>2011-01-03T12:29:35Z</time>
      </trkpt>
      <trkpt lat="34.839188000187278" lon="-5.540739996358752">
        <ele>212.108</ele>
        <time>2011-01-03T12:29:45Z</time>
      </trkpt>
      <trkpt lat="34.839444989338517" lon="-5.540666989982128">
        <ele>211.14699999999999</ele>
        <time>2011-01-03T12:29:52Z</time>
      </trkpt>
      <trkpt lat="34.839714970439672" lon="-5.540589960291982">
        <ele>210.666</ele>
        <time>2011-01-03T12:29:59Z</time>
      </trkpt>
      <trkpt lat="34.840337997302413" lon="-5.540414024144411">
        <ele>210.666</ele>
        <time>2011-01-03T12:30:10Z</time>
      </trkpt>
      <trkpt lat="34.840886006131768" lon="-5.540258036926389">
        <ele>210.185</ele>
        <time>2011-01-03T12:30:20Z</time>
      </trkpt>
      <trkpt lat="34.841268975287676" lon="-5.540148988366127">
        <ele>210.185</ele>
        <time>2011-01-03T12:30:27Z</time>
      </trkpt>
      <trkpt lat="34.841788988560438" lon="-5.540000963956118">
        <ele>208.74299999999999</ele>
        <time>2011-01-03T12:30:33Z</time>
      </trkpt>
      <trkpt lat="34.842658024281263" lon="-5.539771970361471">
        <ele>204.898</ele>
        <time>2011-01-03T12:30:39Z</time>
      </trkpt>
      <trkpt lat="34.844031985849142" lon="-5.539803989231587">
        <ele>200.572</ele>
        <time>2011-01-03T12:30:47Z</time>
      </trkpt>
      <trkpt lat="34.845292959362268" lon="-5.539813041687012">
        <ele>199.13</ele>
        <time>2011-01-03T12:30:54Z</time>
      </trkpt>
      <trkpt lat="34.847186012193561" lon="-5.539567032828927">
        <ele>195.285</ele>
        <time>2011-01-03T12:31:03Z</time>
      </trkpt>
      <trkpt lat="34.848658964037895" lon="-5.539284981787205">
        <ele>194.804</ele>
        <time>2011-01-03T12:31:10Z</time>
      </trkpt>
      <trkpt lat="34.849217031151056" lon="-5.539113990962505">
        <ele>193.84299999999999</ele>
        <time>2011-01-03T12:31:13Z</time>
      </trkpt>
      <trkpt lat="34.850123031064868" lon="-5.538836969062686">
        <ele>192.40100000000001</ele>
        <time>2011-01-03T12:31:18Z</time>
      </trkpt>
      <trkpt lat="34.850671039894223" lon="-5.538676036521792">
        <ele>191.44</ele>
        <time>2011-01-03T12:31:21Z</time>
      </trkpt>
      <trkpt lat="34.851564969867468" lon="-5.538676036521792">
        <ele>189.036</ele>
        <time>2011-01-03T12:31:26Z</time>
      </trkpt>
      <trkpt lat="34.852293021976948" lon="-5.538676036521792">
        <ele>187.114</ele>
        <time>2011-01-03T12:31:30Z</time>
      </trkpt>
      <trkpt lat="34.853469002991915" lon="-5.538676036521792">
        <ele>185.672</ele>
        <time>2011-01-03T12:31:36Z</time>
      </trkpt>
      <trkpt lat="34.855476971715689" lon="-5.538561958819628">
        <ele>183.749</ele>
        <time>2011-01-03T12:31:45Z</time>
      </trkpt>
      <trkpt lat="34.858680032193661" lon="-5.537908002734184">
        <ele>185.672</ele>
        <time>2011-01-03T12:31:59Z</time>
      </trkpt>
      <trkpt lat="34.861153028905392" lon="-5.537569960579276">
        <ele>182.78800000000001</ele>
        <time>2011-01-03T12:32:10Z</time>
      </trkpt>
      <trkpt lat="34.86372803337872" lon="-5.537587981671095">
        <ele>185.191</ele>
        <time>2011-01-03T12:32:22Z</time>
      </trkpt>
      <trkpt lat="34.86555403098464" lon="-5.537750003859401">
        <ele>181.82599999999999</ele>
        <time>2011-01-03T12:32:32Z</time>
      </trkpt>
      <trkpt lat="34.867544984444976" lon="-5.53785502910614">
        <ele>177.98099999999999</ele>
        <time>2011-01-03T12:32:42Z</time>
      </trkpt>
      <trkpt lat="34.869441976770759" lon="-5.538023002445698">
        <ele>175.09700000000001</ele>
        <time>2011-01-03T12:32:50Z</time>
      </trkpt>
      <trkpt lat="34.871941041201353" lon="-5.538370013237">
        <ele>177.501</ele>
        <time>2011-01-03T12:33:01Z</time>
      </trkpt>
      <trkpt lat="34.874911000952125" lon="-5.538824982941151">
        <ele>185.191</ele>
        <time>2011-01-03T12:33:14Z</time>
      </trkpt>
      <trkpt lat="34.876672038808465" lon="-5.539153972640634">
        <ele>192.40100000000001</ele>
        <time>2011-01-03T12:33:22Z</time>
      </trkpt>
      <trkpt lat="34.877880038693547" lon="-5.539566027000547">
        <ele>196.24600000000001</ele>
        <time>2011-01-03T12:33:29Z</time>
      </trkpt>
      <trkpt lat="34.879645016044378" lon="-5.540300030261278">
        <ele>188.55600000000001</ele>
        <time>2011-01-03T12:33:39Z</time>
      </trkpt>
      <trkpt lat="34.881589030846953" lon="-5.541059011593461">
        <ele>176.53899999999999</ele>
        <time>2011-01-03T12:33:49Z</time>
      </trkpt>
      <trkpt lat="34.882349018007517" lon="-5.541000002995133">
        <ele>172.21299999999999</ele>
        <time>2011-01-03T12:33:53Z</time>
      </trkpt>
      <trkpt lat="34.884811034426093" lon="-5.540546961128712">
        <ele>159.23500000000001</ele>
        <time>2011-01-03T12:34:06Z</time>
      </trkpt>
      <trkpt lat="34.886154988780618" lon="-5.539947990328074">
        <ele>159.71600000000001</ele>
        <time>2011-01-03T12:34:15Z</time>
      </trkpt>
      <trkpt lat="34.887009020894766" lon="-5.539405010640621">
        <ele>159.71600000000001</ele>
        <time>2011-01-03T12:34:21Z</time>
      </trkpt>
      <trkpt lat="34.888252979144454" lon="-5.538318967446685">
        <ele>157.31299999999999</ele>
        <time>2011-01-03T12:34:29Z</time>
      </trkpt>
      <trkpt lat="34.888379964977503" lon="-5.538183012977243">
        <ele>156.83199999999999</ele>
        <time>2011-01-03T12:34:30Z</time>
      </trkpt>
      <trkpt lat="34.88886896520853" lon="-5.537656964734197">
        <ele>157.31299999999999</ele>
        <time>2011-01-03T12:34:34Z</time>
      </trkpt>
      <trkpt lat="34.88946701399982" lon="-5.536908963695169">
        <ele>161.15799999999999</ele>
        <time>2011-01-03T12:34:39Z</time>
      </trkpt>
      <trkpt lat="34.889965988695621" lon="-5.536336982622743">
        <ele>161.63900000000001</ele>
        <time>2011-01-03T12:34:43Z</time>
      </trkpt>
      <trkpt lat="34.891266021877527" lon="-5.535352025181055">
        <ele>154.91</ele>
        <time>2011-01-03T12:34:51Z</time>
      </trkpt>
      <trkpt lat="34.893092019483447" lon="-5.534437978640199">
        <ele>148.18000000000001</ele>
        <time>2011-01-03T12:35:00Z</time>
      </trkpt>
      <trkpt lat="34.895422020927072" lon="-5.533456960693002">
        <ele>145.77699999999999</ele>
        <time>2011-01-03T12:35:11Z</time>
      </trkpt>
      <trkpt lat="34.898392986506224" lon="-5.532029019668698">
        <ele>150.584</ele>
        <time>2011-01-03T12:35:26Z</time>
      </trkpt>
      <trkpt lat="34.900200963020325" lon="-5.531272972002626">
        <ele>149.62200000000001</ele>
        <time>2011-01-03T12:35:35Z</time>
      </trkpt>
      <trkpt lat="34.901422960683703" lon="-5.531342038884759">
        <ele>149.62200000000001</ele>
        <time>2011-01-03T12:35:41Z</time>
      </trkpt>
      <trkpt lat="34.901605015620589" lon="-5.531442034989595">
        <ele>149.142</ele>
        <time>2011-01-03T12:35:42Z</time>
      </trkpt>
      <trkpt lat="34.902323009446263" lon="-5.531845036894083">
        <ele>148.18000000000001</ele>
        <time>2011-01-03T12:35:46Z</time>
      </trkpt>
      <trkpt lat="34.904170967638493" lon="-5.533133000135422">
        <ele>150.584</ele>
        <time>2011-01-03T12:35:56Z</time>
      </trkpt>
      <trkpt lat="34.905348960310221" lon="-5.534302024170756">
        <ele>153.94800000000001</ele>
        <time>2011-01-03T12:36:04Z</time>
      </trkpt>
      <trkpt lat="34.906659973785281" lon="-5.535464007407427">
        <ele>147.21899999999999</ele>
        <time>2011-01-03T12:36:13Z</time>
      </trkpt>
      <trkpt lat="34.907496990635991" lon="-5.535887964069843">
        <ele>143.374</ele>
        <time>2011-01-03T12:36:18Z</time>
      </trkpt>
      <trkpt lat="34.908580016344786" lon="-5.536185018718243">
        <ele>140.97</ele>
        <time>2011-01-03T12:36:25Z</time>
      </trkpt>
      <trkpt lat="34.909482998773456" lon="-5.536494981497526">
        <ele>138.08699999999999</ele>
        <time>2011-01-03T12:36:31Z</time>
      </trkpt>
      <trkpt lat="34.910396039485931" lon="-5.536745013669133">
        <ele>137.60599999999999</ele>
        <time>2011-01-03T12:36:37Z</time>
      </trkpt>
      <trkpt lat="34.911011019721627" lon="-5.536745013669133">
        <ele>137.60599999999999</ele>
        <time>2011-01-03T12:36:41Z</time>
      </trkpt>
      <trkpt lat="34.91174996830523" lon="-5.536729004234076">
        <ele>137.125</ele>
        <time>2011-01-03T12:36:46Z</time>
      </trkpt>
      <trkpt lat="34.912380035966635" lon="-5.536715006455779">
        <ele>136.64500000000001</ele>
        <time>2011-01-03T12:36:50Z</time>
      </trkpt>
      <trkpt lat="34.913367005065084" lon="-5.53671701811254">
        <ele>134.72200000000001</ele>
        <time>2011-01-03T12:36:56Z</time>
      </trkpt>
      <trkpt lat="34.914320027455688" lon="-5.536855990067124">
        <ele>133.28</ele>
        <time>2011-01-03T12:37:02Z</time>
      </trkpt>
      <trkpt lat="34.914967026561499" lon="-5.537293022498488">
        <ele>130.39599999999999</ele>
        <time>2011-01-03T12:37:07Z</time>
      </trkpt>
      <trkpt lat="34.915200965479016" lon="-5.537526961416006">
        <ele>128.47300000000001</ele>
        <time>2011-01-03T12:37:09Z</time>
      </trkpt>
      <trkpt lat="34.916376024484634" lon="-5.539512969553471">
        <ele>127.512</ele>
        <time>2011-01-03T12:37:20Z</time>
      </trkpt>
      <trkpt lat="34.916708031669259" lon="-5.539928041398525">
        <ele>126.551</ele>
        <time>2011-01-03T12:37:23Z</time>
      </trkpt>
      <trkpt lat="34.917326029390097" lon="-5.540340011939406">
        <ele>125.10899999999999</ele>
        <time>2011-01-03T12:37:27Z</time>
      </trkpt>
      <trkpt lat="34.918693033978343" lon="-5.540920961648226">
        <ele>124.14700000000001</ele>
        <time>2011-01-03T12:37:35Z</time>
      </trkpt>
      <trkpt lat="34.919682014733553" lon="-5.540737984701991">
        <ele>124.14700000000001</ele>
        <time>2011-01-03T12:37:41Z</time>
      </trkpt>
      <trkpt lat="34.920357009395957" lon="-5.540261976420879">
        <ele>124.14700000000001</ele>
        <time>2011-01-03T12:37:46Z</time>
      </trkpt>
      <trkpt lat="34.92096796631813" lon="-5.539582036435604">
        <ele>126.551</ele>
        <time>2011-01-03T12:37:51Z</time>
      </trkpt>
      <trkpt lat="34.921082966029644" lon="-5.539439963176847">
        <ele>127.03100000000001</ele>
        <time>2011-01-03T12:37:52Z</time>
      </trkpt>
      <trkpt lat="34.921430982649326" lon="-5.538962027058005">
        <ele>127.99299999999999</ele>
        <time>2011-01-03T12:37:55Z</time>
      </trkpt>
      <trkpt lat="34.92221100255847" lon="-5.537869026884437">
        <ele>127.03100000000001</ele>
        <time>2011-01-03T12:38:02Z</time>
      </trkpt>
      <trkpt lat="34.92232097312808" lon="-5.537713961675763">
        <ele>126.551</ele>
        <time>2011-01-03T12:38:03Z</time>
      </trkpt>
      <trkpt lat="34.922891026362777" lon="-5.536448964849114">
        <ele>125.10899999999999</ele>
        <time>2011-01-03T12:38:10Z</time>
      </trkpt>
      <trkpt lat="34.923347001895308" lon="-5.535498959943652">
        <ele>124.628</ele>
        <time>2011-01-03T12:38:16Z</time>
      </trkpt>
      <trkpt lat="34.923985032364726" lon="-5.534757999703288">
        <ele>124.14700000000001</ele>
        <time>2011-01-03T12:38:21Z</time>
      </trkpt>
      <trkpt lat="34.92425199598074" lon="-5.534451976418495">
        <ele>124.14700000000001</ele>
        <time>2011-01-03T12:38:23Z</time>
      </trkpt>
      <trkpt lat="34.926073970273137" lon="-5.533368028700352">
        <ele>121.264</ele>
        <time>2011-01-03T12:38:34Z</time>
      </trkpt>
      <trkpt lat="34.928389973938465" lon="-5.532595971599221">
        <ele>122.22499999999999</ele>
        <time>2011-01-03T12:38:47Z</time>
      </trkpt>
      <trkpt lat="34.929525973275304" lon="-5.53224602714181">
        <ele>123.667</ele>
        <time>2011-01-03T12:38:53Z</time>
      </trkpt>
      <trkpt lat="34.930284032598138" lon="-5.532339988276362">
        <ele>125.10899999999999</ele>
        <time>2011-01-03T12:38:57Z</time>
      </trkpt>
      <trkpt lat="34.931843988597393" lon="-5.532674007117748">
        <ele>129.91499999999999</ele>
        <time>2011-01-03T12:39:05Z</time>
      </trkpt>
      <trkpt lat="34.933892022818327" lon="-5.533152027055621">
        <ele>132.31899999999999</ele>
        <time>2011-01-03T12:39:15Z</time>
      </trkpt>
      <trkpt lat="34.936001999303699" lon="-5.53327901288867">
        <ele>128.95400000000001</ele>
        <time>2011-01-03T12:39:25Z</time>
      </trkpt>
      <trkpt lat="34.936467027291656" lon="-5.533339027315378">
        <ele>129.91499999999999</ele>
        <time>2011-01-03T12:39:28Z</time>
      </trkpt>
      <trkpt lat="34.937070021405816" lon="-5.533805983141065">
        <ele>129.435</ele>
        <time>2011-01-03T12:39:33Z</time>
      </trkpt>
      <trkpt lat="34.937322987243533" lon="-5.534028019756079">
        <ele>129.435</ele>
        <time>2011-01-03T12:39:35Z</time>
      </trkpt>
      <trkpt lat="34.937600009143353" lon="-5.534276962280273">
        <ele>129.91499999999999</ele>
        <time>2011-01-03T12:39:37Z</time>
      </trkpt>
      <trkpt lat="34.938405007123947" lon="-5.534713994711638">
        <ele>133.28</ele>
        <time>2011-01-03T12:39:42Z</time>
      </trkpt>
      <trkpt lat="34.939307989552617" lon="-5.534818014129996">
        <ele>139.048</ele>
        <time>2011-01-03T12:39:47Z</time>
      </trkpt>
      <trkpt lat="34.939993964508176" lon="-5.534471003338695">
        <ele>142.893</ele>
        <time>2011-01-03T12:39:51Z</time>
      </trkpt>
      <trkpt lat="34.940568963065743" lon="-5.533846970647574">
        <ele>146.738</ele>
        <time>2011-01-03T12:39:55Z</time>
      </trkpt>
      <trkpt lat="34.941542018204927" lon="-5.532841980457306">
        <ele>151.06399999999999</ele>
        <time>2011-01-03T12:40:02Z</time>
      </trkpt>
      <trkpt lat="34.942132020369172" lon="-5.532369995489717">
        <ele>150.584</ele>
        <time>2011-01-03T12:40:06Z</time>
      </trkpt>
      <trkpt lat="34.942759992554784" lon="-5.531919971108437">
        <ele>148.661</ele>
        <time>2011-01-03T12:40:10Z</time>
      </trkpt>
      <trkpt lat="34.943744027987123" lon="-5.531296022236347">
        <ele>142.41200000000001</ele>
        <time>2011-01-03T12:40:16Z</time>
      </trkpt>
      <trkpt lat="34.944197991862893" lon="-5.531053030863404">
        <ele>137.60599999999999</ele>
        <time>2011-01-03T12:40:19Z</time>
      </trkpt>
      <trkpt lat="34.944924032315612" lon="-5.53076796233654">
        <ele>129.91499999999999</ele>
        <time>2011-01-03T12:40:24Z</time>
      </trkpt>
      <trkpt lat="34.945701034739614" lon="-5.530714988708496">
        <ele>123.667</ele>
        <time>2011-01-03T12:40:29Z</time>
      </trkpt>
      <trkpt lat="34.945885017514229" lon="-5.530714988708496">
        <ele>122.705</ele>
        <time>2011-01-03T12:40:30Z</time>
      </trkpt>
      <trkpt lat="34.946786994114518" lon="-5.530669977888465">
        <ele>122.705</ele>
        <time>2011-01-03T12:40:35Z</time>
      </trkpt>
      <trkpt lat="34.947681007906795" lon="-5.530415000393987">
        <ele>128.47300000000001</ele>
        <time>2011-01-03T12:40:40Z</time>
      </trkpt>
      <trkpt lat="34.949655029922724" lon="-5.529074985533953">
        <ele>145.77699999999999</ele>
        <time>2011-01-03T12:40:52Z</time>
      </trkpt>
      <trkpt lat="34.950717017054558" lon="-5.528538040816784">
        <ele>148.661</ele>
        <time>2011-01-03T12:40:59Z</time>
      </trkpt>
      <trkpt lat="34.952079998329282" lon="-5.528147025033832">
        <ele>144.33500000000001</ele>
        <time>2011-01-03T12:41:08Z</time>
      </trkpt>
      <trkpt lat="34.952967977151275" lon="-5.527949966490269">
        <ele>137.125</ele>
        <time>2011-01-03T12:41:13Z</time>
      </trkpt>
      <trkpt lat="34.954385021701455" lon="-5.528064966201782">
        <ele>126.551</ele>
        <time>2011-01-03T12:41:20Z</time>
      </trkpt>
      <trkpt lat="34.955122964456677" lon="-5.528353974223137">
        <ele>118.86</ele>
        <time>2011-01-03T12:41:24Z</time>
      </trkpt>
      <trkpt lat="34.957691011950374" lon="-5.530489012598991">
        <ele>99.634</ele>
        <time>2011-01-03T12:41:39Z</time>
      </trkpt>
      <trkpt lat="34.958225023001432" lon="-5.531120002269745">
        <ele>97.230000000000004</ele>
        <time>2011-01-03T12:41:43Z</time>
      </trkpt>
      <trkpt lat="34.958716034889221" lon="-5.532228006049991">
        <ele>95.787999999999997</ele>
        <time>2011-01-03T12:41:49Z</time>
      </trkpt>
      <trkpt lat="34.958789041265845" lon="-5.53287198767066">
        <ele>94.826999999999998</ele>
        <time>2011-01-03T12:41:52Z</time>
      </trkpt>
      <trkpt lat="34.958918038755655" lon="-5.53557800129056">
        <ele>95.308000000000007</ele>
        <time>2011-01-03T12:42:04Z</time>
      </trkpt>
      <trkpt lat="34.959032032638788" lon="-5.536599000915885">
        <ele>93.866</ele>
        <time>2011-01-03T12:42:09Z</time>
      </trkpt>
      <trkpt lat="34.959455989301205" lon="-5.537602985277772">
        <ele>92.905000000000001</ele>
        <time>2011-01-03T12:42:14Z</time>
      </trkpt>
      <trkpt lat="34.960214970633388" lon="-5.538416029885411">
        <ele>93.385000000000005</ele>
        <time>2011-01-03T12:42:19Z</time>
      </trkpt>
      <trkpt lat="34.961991012096405" lon="-5.540000963956118">
        <ele>93.385000000000005</ele>
        <time>2011-01-03T12:42:29Z</time>
      </trkpt>
      <trkpt lat="34.963615005835891" lon="-5.540972007438541">
        <ele>93.385000000000005</ele>
        <time>2011-01-03T12:42:37Z</time>
      </trkpt>
      <trkpt lat="34.964912021532655" lon="-5.540972007438541">
        <ele>94.346999999999994</ele>
        <time>2011-01-03T12:42:43Z</time>
      </trkpt>
      <trkpt lat="34.966646991670132" lon="-5.540963038802147">
        <ele>94.346999999999994</ele>
        <time>2011-01-03T12:42:51Z</time>
      </trkpt>
      <trkpt lat="34.968527974560857" lon="-5.540922973304987">
        <ele>93.866</ele>
        <time>2011-01-03T12:43:00Z</time>
      </trkpt>
      <trkpt lat="34.969762964174151" lon="-5.541233019903302">
        <ele>92.424000000000007</ele>
        <time>2011-01-03T12:43:06Z</time>
      </trkpt>
      <trkpt lat="34.971784008666873" lon="-5.542277991771698">
        <ele>92.424000000000007</ele>
        <time>2011-01-03T12:43:17Z</time>
      </trkpt>
      <trkpt lat="34.972457997500896" lon="-5.543023981153965">
        <ele>93.385000000000005</ele>
        <time>2011-01-03T12:43:22Z</time>
      </trkpt>
      <trkpt lat="34.973084963858128" lon="-5.543940961360931">
        <ele>95.308000000000007</ele>
        <time>2011-01-03T12:43:27Z</time>
      </trkpt>
      <trkpt lat="34.973864983767271" lon="-5.545275025069714">
        <ele>94.346999999999994</ele>
        <time>2011-01-03T12:43:34Z</time>
      </trkpt>
      <trkpt lat="34.974294975399971" lon="-5.546231986954808">
        <ele>92.424000000000007</ele>
        <time>2011-01-03T12:43:39Z</time>
      </trkpt>
      <trkpt lat="34.974710969254375" lon="-5.546683017164469">
        <ele>92.424000000000007</ele>
        <time>2011-01-03T12:43:42Z</time>
      </trkpt>
      <trkpt lat="34.975512027740479" lon="-5.546764992177486">
        <ele>93.866</ele>
        <time>2011-01-03T12:43:47Z</time>
      </trkpt>
      <trkpt lat="34.976188028231263" lon="-5.54655896499753">
        <ele>94.346999999999994</ele>
        <time>2011-01-03T12:43:51Z</time>
      </trkpt>
      <trkpt lat="34.978166995570064" lon="-5.545541988685727">
        <ele>103.479</ele>
        <time>2011-01-03T12:44:02Z</time>
      </trkpt>
      <trkpt lat="34.979222025722265" lon="-5.545247029513121">
        <ele>108.76600000000001</ele>
        <time>2011-01-03T12:44:08Z</time>
      </trkpt>
      <trkpt lat="34.980486016720533" lon="-5.54473196156323">
        <ele>109.247</ele>
        <time>2011-01-03T12:44:15Z</time>
      </trkpt>
      <trkpt lat="34.981396039947867" lon="-5.544138019904494">
        <ele>108.76600000000001</ele>
        <time>2011-01-03T12:44:20Z</time>
      </trkpt>
      <trkpt lat="34.983234023675323" lon="-5.543000008910894">
        <ele>107.80500000000001</ele>
        <time>2011-01-03T12:44:29Z</time>
      </trkpt>
      <trkpt lat="34.985178038477898" lon="-5.54176602512598">
        <ele>103.95999999999999</ele>
        <time>2011-01-03T12:44:39Z</time>
      </trkpt>
      <trkpt lat="34.986478993669152" lon="-5.540877962484956">
        <ele>97.230000000000004</ele>
        <time>2011-01-03T12:44:47Z</time>
      </trkpt>
      <trkpt lat="34.987346017733216" lon="-5.539912031963468">
        <ele>92.905000000000001</ele>
        <time>2011-01-03T12:44:54Z</time>
      </trkpt>
      <trkpt lat="34.987771986052394" lon="-5.539357988163829">
        <ele>91.942999999999998</ele>
        <time>2011-01-03T12:44:59Z</time>
      </trkpt>
      <trkpt lat="34.988041967153549" lon="-5.538330031558871">
        <ele>90.501000000000005</ele>
        <time>2011-01-03T12:45:07Z</time>
      </trkpt>
      <trkpt lat="34.988303985446692" lon="-5.537327975034714">
        <ele>89.540000000000006</ele>
        <time>2011-01-03T12:45:13Z</time>
      </trkpt>
      <trkpt lat="34.988127965480089" lon="-5.536002963781357">
        <ele>87.617000000000004</ele>
        <time>2011-01-03T12:45:19Z</time>
      </trkpt>
      <trkpt lat="34.987602001056075" lon="-5.534330019727349">
        <ele>88.097999999999999</ele>
        <time>2011-01-03T12:45:27Z</time>
      </trkpt>
      <trkpt lat="34.987399997189641" lon="-5.533667011186481">
        <ele>88.097999999999999</ele>
        <time>2011-01-03T12:45:32Z</time>
      </trkpt>
      <trkpt lat="34.98735498636961" lon="-5.533512029796839">
        <ele>87.137</ele>
        <time>2011-01-03T12:45:36Z</time>
      </trkpt>
      <trkpt lat="34.987303018569946" lon="-5.533072985708714">
        <ele>83.290999999999997</ele>
        <time>2011-01-03T12:46:09Z</time>
      </trkpt>
      <trkpt lat="34.987217020243406" lon="-5.532337976619601">
        <ele>85.694999999999993</ele>
        <time>2011-01-03T12:46:14Z</time>
      </trkpt>
      <trkpt lat="34.98701199889183" lon="-5.530566964298487">
        <ele>90.501000000000005</ele>
        <time>2011-01-03T12:46:23Z</time>
      </trkpt>
      <trkpt lat="34.98696899972856" lon="-5.529534984380007">
        <ele>93.385000000000005</ele>
        <time>2011-01-03T12:46:28Z</time>
      </trkpt>
      <trkpt lat="34.987047035247087" lon="-5.528842974454165">
        <ele>94.346999999999994</ele>
        <time>2011-01-03T12:46:32Z</time>
      </trkpt>
      <trkpt lat="34.987465962767601" lon="-5.52720095962286">
        <ele>93.866</ele>
        <time>2011-01-03T12:46:40Z</time>
      </trkpt>
      <trkpt lat="34.987626979127526" lon="-5.526170991361141">
        <ele>91.942999999999998</ele>
        <time>2011-01-03T12:46:46Z</time>
      </trkpt>
      <trkpt lat="34.98769998550415" lon="-5.525455009192228">
        <ele>90.501000000000005</ele>
        <time>2011-01-03T12:46:50Z</time>
      </trkpt>
      <trkpt lat="34.987331014126539" lon="-5.523392977192998">
        <ele>90.501000000000005</ele>
        <time>2011-01-03T12:46:59Z</time>
      </trkpt>
      <trkpt lat="34.987099003046751" lon="-5.521252993494272">
        <ele>102.518</ele>
        <time>2011-01-03T12:47:09Z</time>
      </trkpt>
      <trkpt lat="34.987131021916866" lon="-5.519909039139748">
        <ele>105.88200000000001</ele>
        <time>2011-01-03T12:47:15Z</time>
      </trkpt>
      <trkpt lat="34.987562019377947" lon="-5.516817038878799">
        <ele>102.518</ele>
        <time>2011-01-03T12:47:28Z</time>
      </trkpt>
      <trkpt lat="34.987931996583939" lon="-5.514810997992754">
        <ele>95.308000000000007</ele>
        <time>2011-01-03T12:47:37Z</time>
      </trkpt>
      <trkpt lat="34.988381015136838" lon="-5.513725960627198">
        <ele>89.540000000000006</ele>
        <time>2011-01-03T12:47:42Z</time>
      </trkpt>
      <trkpt lat="34.989366978406906" lon="-5.512440009042621">
        <ele>85.213999999999999</ele>
        <time>2011-01-03T12:47:50Z</time>
      </trkpt>
      <trkpt lat="34.99016996473074" lon="-5.511950002983213">
        <ele>83.772000000000006</ele>
        <time>2011-01-03T12:47:55Z</time>
      </trkpt>
      <trkpt lat="34.99033902771771" lon="-5.511846989393234">
        <ele>83.290999999999997</ele>
        <time>2011-01-03T12:47:56Z</time>
      </trkpt>
      <trkpt lat="34.992364011704922" lon="-5.511506013572216">
        <ele>81.369</ele>
        <time>2011-01-03T12:48:06Z</time>
      </trkpt>
      <trkpt lat="34.993046969175339" lon="-5.511226980015636">
        <ele>80.888000000000005</ele>
        <time>2011-01-03T12:48:10Z</time>
      </trkpt>
      <trkpt lat="34.993876023218036" lon="-5.510889021679759">
        <ele>80.888000000000005</ele>
        <time>2011-01-03T12:48:15Z</time>
      </trkpt>
      <trkpt lat="34.994046008214355" lon="-5.510819032788277">
        <ele>80.888000000000005</ele>
        <time>2011-01-03T12:48:16Z</time>
      </trkpt>
      <trkpt lat="34.995686011388898" lon="-5.509221022948623">
        <ele>86.174999999999997</ele>
        <time>2011-01-03T12:48:26Z</time>
      </trkpt>
      <trkpt lat="34.997285027056932" lon="-5.507151028141379">
        <ele>90.501000000000005</ele>
        <time>2011-01-03T12:48:36Z</time>
      </trkpt>
      <trkpt lat="34.999091997742653" lon="-5.505044991150498">
        <ele>96.269000000000005</ele>
        <time>2011-01-03T12:48:47Z</time>
      </trkpt>
      <trkpt lat="35.000136969611049" lon="-5.504066990688443">
        <ele>96.75</ele>
        <time>2011-01-03T12:48:53Z</time>
      </trkpt>
      <trkpt lat="35.001624003052711" lon="-5.503151016309857">
        <ele>99.634</ele>
        <time>2011-01-03T12:49:00Z</time>
      </trkpt>
      <trkpt lat="35.002267984673381" lon="-5.502645000815392">
        <ele>104.44</ele>
        <time>2011-01-03T12:49:04Z</time>
      </trkpt>
      <trkpt lat="35.002907020971179" lon="-5.501995990052819">
        <ele>110.68899999999999</ele>
        <time>2011-01-03T12:49:09Z</time>
      </trkpt>
      <trkpt lat="35.003196028992534" lon="-5.501407999545336">
        <ele>112.61199999999999</ele>
        <time>2011-01-03T12:49:12Z</time>
      </trkpt>
      <trkpt lat="35.003752000629902" lon="-5.498864008113742">
        <ele>114.53400000000001</ele>
        <time>2011-01-03T12:49:22Z</time>
      </trkpt>
      <trkpt lat="35.004404028877616" lon="-5.495817018672824">
        <ele>112.61199999999999</ele>
        <time>2011-01-03T12:49:34Z</time>
      </trkpt>
      <trkpt lat="35.004866039380431" lon="-5.494674984365702">
        <ele>109.247</ele>
        <time>2011-01-03T12:49:39Z</time>
      </trkpt>
      <trkpt lat="35.005723005160689" lon="-5.492975972592831">
        <ele>106.84399999999999</ele>
        <time>2011-01-03T12:49:46Z</time>
      </trkpt>
      <trkpt lat="35.006602015346289" lon="-5.491162966936827">
        <ele>116.45699999999999</ele>
        <time>2011-01-03T12:49:54Z</time>
      </trkpt>
      <trkpt lat="35.00684198923409" lon="-5.490571036934853">
        <ele>123.18600000000001</ele>
        <time>2011-01-03T12:49:57Z</time>
      </trkpt>
      <trkpt lat="35.00727198086679" lon="-5.489839967340231">
        <ele>131.83799999999999</ele>
        <time>2011-01-03T12:50:02Z</time>
      </trkpt>
      <trkpt lat="35.007741032168269" lon="-5.48923697322607">
        <ele>140.49000000000001</ele>
        <time>2011-01-03T12:50:08Z</time>
      </trkpt>
      <trkpt lat="35.007955022156239" lon="-5.489089032635093">
        <ele>140.00899999999999</ele>
        <time>2011-01-03T12:50:10Z</time>
      </trkpt>
      <trkpt lat="35.009172996506095" lon="-5.488489978015423">
        <ele>137.125</ele>
        <time>2011-01-03T12:50:18Z</time>
      </trkpt>
      <trkpt lat="35.010791039094329" lon="-5.487811965867877">
        <ele>130.87700000000001</ele>
        <time>2011-01-03T12:50:26Z</time>
      </trkpt>
      <trkpt lat="35.012560961768031" lon="-5.486924992874265">
        <ele>135.68299999999999</ele>
        <time>2011-01-03T12:50:35Z</time>
      </trkpt>
      <trkpt lat="35.014279000461102" lon="-5.485985968261957">
        <ele>149.62200000000001</ele>
        <time>2011-01-03T12:50:45Z</time>
      </trkpt>
      <trkpt lat="35.015067989006639" lon="-5.485556982457638">
        <ele>156.83199999999999</ele>
        <time>2011-01-03T12:50:50Z</time>
      </trkpt>
      <trkpt lat="35.015738038346171" lon="-5.484952982515097">
        <ele>164.042</ele>
        <time>2011-01-03T12:50:55Z</time>
      </trkpt>
      <trkpt lat="35.015845997259021" lon="-5.484845023602247">
        <ele>165.48400000000001</ele>
        <time>2011-01-03T12:50:56Z</time>
      </trkpt>
      <trkpt lat="35.016219997778535" lon="-5.483861993998289">
        <ele>173.17500000000001</ele>
        <time>2011-01-03T12:51:03Z</time>
      </trkpt>
      <trkpt lat="35.016426024958491" lon="-5.483020031824708">
        <ele>179.423</ele>
        <time>2011-01-03T12:51:12Z</time>
      </trkpt>
      <trkpt lat="35.016773035749793" lon="-5.482105985283852">
        <ele>186.15199999999999</ele>
        <time>2011-01-03T12:51:19Z</time>
      </trkpt>
      <trkpt lat="35.017296988517046" lon="-5.480993036180735">
        <ele>195.285</ele>
        <time>2011-01-03T12:51:26Z</time>
      </trkpt>
      <trkpt lat="35.017967037856579" lon="-5.479884026572108">
        <ele>204.417</ele>
        <time>2011-01-03T12:51:33Z</time>
      </trkpt>
      <trkpt lat="35.018149008974433" lon="-5.478996969759464">
        <ele>210.185</ele>
        <time>2011-01-03T12:51:38Z</time>
      </trkpt>
      <trkpt lat="35.018256967887282" lon="-5.477544972673059">
        <ele>218.83699999999999</ele>
        <time>2011-01-03T12:51:46Z</time>
      </trkpt>
      <trkpt lat="35.018567014485598" lon="-5.476628998294473">
        <ele>226.52799999999999</ele>
        <time>2011-01-03T12:51:52Z</time>
      </trkpt>
      <trkpt lat="35.018875971436501" lon="-5.476168999448419">
        <ele>231.815</ele>
        <time>2011-01-03T12:51:56Z</time>
      </trkpt>
      <trkpt lat="35.019361032173038" lon="-5.475845038890839">
        <ele>233.738</ele>
        <time>2011-01-03T12:52:00Z</time>
      </trkpt>
      <trkpt lat="35.020607002079487" lon="-5.475830035284162">
        <ele>231.815</ele>
        <time>2011-01-03T12:52:08Z</time>
      </trkpt>
      <trkpt lat="35.021898988634348" lon="-5.476218033581972">
        <ele>224.60499999999999</ele>
        <time>2011-01-03T12:52:16Z</time>
      </trkpt>
      <trkpt lat="35.022879000753164" lon="-5.476848017424345">
        <ele>211.14699999999999</ele>
        <time>2011-01-03T12:52:22Z</time>
      </trkpt>
      <trkpt lat="35.024688988924026" lon="-5.477744964882731">
        <ele>188.07499999999999</ele>
        <time>2011-01-03T12:52:32Z</time>
      </trkpt>
      <trkpt lat="35.025599012151361" lon="-5.478097004815936">
        <ele>178.46199999999999</ele>
        <time>2011-01-03T12:52:37Z</time>
      </trkpt>
      <trkpt lat="35.027707982808352" lon="-5.478636967018247">
        <ele>161.63900000000001</ele>
        <time>2011-01-03T12:52:48Z</time>
      </trkpt>
      <trkpt lat="35.028032027184963" lon="-5.478636967018247">
        <ele>158.755</ele>
        <time>2011-01-03T12:52:50Z</time>
      </trkpt>
      <trkpt lat="35.028665028512478" lon="-5.478574018925428">
        <ele>150.584</ele>
        <time>2011-01-03T12:52:54Z</time>
      </trkpt>
      <trkpt lat="35.029517970979214" lon="-5.478017963469029">
        <ele>140.00899999999999</ele>
        <time>2011-01-03T12:53:00Z</time>
      </trkpt>
      <trkpt lat="35.029836986213923" lon="-5.477594006806612">
        <ele>133.28</ele>
        <time>2011-01-03T12:53:04Z</time>
      </trkpt>
      <trkpt lat="35.030341995880008" lon="-5.476905014365912">
        <ele>131.83799999999999</ele>
        <time>2011-01-03T12:53:10Z</time>
      </trkpt>
      <trkpt lat="35.030803000554442" lon="-5.476493965834379">
        <ele>126.06999999999999</ele>
        <time>2011-01-03T12:53:14Z</time>
      </trkpt>
      <trkpt lat="35.031945034861565" lon="-5.47591301612556">
        <ele>116.45699999999999</ele>
        <time>2011-01-03T12:53:22Z</time>
      </trkpt>
      <trkpt lat="35.033127972856164" lon="-5.475716041401029">
        <ele>108.76600000000001</ele>
        <time>2011-01-03T12:53:29Z</time>
      </trkpt>
      <trkpt lat="35.033924002200365" lon="-5.475335000082851">
        <ele>101.556</ele>
        <time>2011-01-03T12:53:34Z</time>
      </trkpt>
      <trkpt lat="35.034535964950919" lon="-5.474769975990057">
        <ele>93.385000000000005</ele>
        <time>2011-01-03T12:53:39Z</time>
      </trkpt>
      <trkpt lat="35.034684995189309" lon="-5.474549029022455">
        <ele>91.942999999999998</ele>
        <time>2011-01-03T12:53:40Z</time>
      </trkpt>
      <trkpt lat="35.034856991842389" lon="-5.472772987559438">
        <ele>82.811000000000007</ele>
        <time>2011-01-03T12:53:48Z</time>
      </trkpt>
      <trkpt lat="35.034715002402663" lon="-5.470880018547177">
        <ele>79.927000000000007</ele>
        <time>2011-01-03T12:53:56Z</time>
      </trkpt>
      <trkpt lat="35.03483796492219" lon="-5.46944797039032">
        <ele>78.484999999999999</ele>
        <time>2011-01-03T12:54:03Z</time>
      </trkpt>
      <trkpt lat="35.035239960998297" lon="-5.468726959079504">
        <ele>78.004000000000005</ele>
        <time>2011-01-03T12:54:08Z</time>
      </trkpt>
      <trkpt lat="35.035729967057705" lon="-5.468104016035795">
        <ele>80.406999999999996</ele>
        <time>2011-01-03T12:54:12Z</time>
      </trkpt>
      <trkpt lat="35.037955027073622" lon="-5.466296961531043">
        <ele>90.981999999999999</ele>
        <time>2011-01-03T12:54:25Z</time>
      </trkpt>
      <trkpt lat="35.038843005895615" lon="-5.465572010725737">
        <ele>103.95999999999999</ele>
        <time>2011-01-03T12:54:31Z</time>
      </trkpt>
      <trkpt lat="35.039188005030155" lon="-5.4649349860847">
        <ele>107.324</ele>
        <time>2011-01-03T12:54:36Z</time>
      </trkpt>
      <trkpt lat="35.039387997239828" lon="-5.464492002502084">
        <ele>108.286</ele>
        <time>2011-01-03T12:54:39Z</time>
      </trkpt>
      <trkpt lat="35.03943401388824" lon="-5.462990971282125">
        <ele>106.84399999999999</ele>
        <time>2011-01-03T12:54:46Z</time>
      </trkpt>
      <trkpt lat="35.039276015013456" lon="-5.461503015831113">
        <ele>105.88200000000001</ele>
        <time>2011-01-03T12:54:52Z</time>
      </trkpt>
      <trkpt lat="35.038903020322323" lon="-5.459926966577768">
        <ele>103.479</ele>
        <time>2011-01-03T12:54:58Z</time>
      </trkpt>
      <trkpt lat="35.037872968241572" lon="-5.456765983253717">
        <ele>100.595</ele>
        <time>2011-01-03T12:55:10Z</time>
      </trkpt>
      <trkpt lat="35.037300987169147" lon="-5.455507021397352">
        <ele>100.11499999999999</ele>
        <time>2011-01-03T12:55:16Z</time>
      </trkpt>
      <trkpt lat="35.036550974473357" lon="-5.454863961786032">
        <ele>90.981999999999999</ele>
        <time>2011-01-03T12:55:21Z</time>
      </trkpt>
      <trkpt lat="35.034789014607668" lon="-5.453167967498303">
        <ele>96.269000000000005</ele>
        <time>2011-01-03T12:55:32Z</time>
      </trkpt>
      <trkpt lat="35.033919978886843" lon="-5.452093994244933">
        <ele>99.153000000000006</ele>
        <time>2011-01-03T12:55:38Z</time>
      </trkpt>
      <trkpt lat="35.033284965902567" lon="-5.450949026271701">
        <ele>102.998</ele>
        <time>2011-01-03T12:55:44Z</time>
      </trkpt>
      <trkpt lat="35.033027976751328" lon="-5.45039196498692">
        <ele>104.92100000000001</ele>
        <time>2011-01-03T12:55:47Z</time>
      </trkpt>
      <trkpt lat="35.032953964546323" lon="-5.449462998658419">
        <ele>108.286</ele>
        <time>2011-01-03T12:55:52Z</time>
      </trkpt>
      <trkpt lat="35.032953964546323" lon="-5.448947008699179">
        <ele>110.208</ele>
        <time>2011-01-03T12:55:55Z</time>
      </trkpt>
      <trkpt lat="35.032895961776376" lon="-5.447785025462508">
        <ele>112.131</ele>
        <time>2011-01-03T12:56:01Z</time>
      </trkpt>
      <trkpt lat="35.032821027562022" lon="-5.446906015276909">
        <ele>102.518</ele>
        <time>2011-01-03T12:56:05Z</time>
      </trkpt>
      <trkpt lat="35.032576024532318" lon="-5.445772027596831">
        <ele>99.634</ele>
        <time>2011-01-03T12:56:10Z</time>
      </trkpt>
      <trkpt lat="35.032342001795769" lon="-5.444965017959476">
        <ele>98.191999999999993</ele>
        <time>2011-01-03T12:56:14Z</time>
      </trkpt>
      <trkpt lat="35.032120971009135" lon="-5.444230008870363">
        <ele>95.787999999999997</ele>
        <time>2011-01-03T12:56:18Z</time>
      </trkpt>
      <trkpt lat="35.031796004623175" lon="-5.443254020065069">
        <ele>91.462999999999994</ele>
        <time>2011-01-03T12:56:23Z</time>
      </trkpt>
      <trkpt lat="35.031551001593471" lon="-5.442152973264456">
        <ele>87.617000000000004</ele>
        <time>2011-01-03T12:56:28Z</time>
      </trkpt>
      <trkpt lat="35.030719013884664" lon="-5.440512970089912">
        <ele>82.329999999999998</ele>
        <time>2011-01-03T12:56:35Z</time>
      </trkpt>
      <trkpt lat="35.030370997264981" lon="-5.440120026469231">
        <ele>81.849000000000004</ele>
        <time>2011-01-03T12:56:38Z</time>
      </trkpt>
      <trkpt lat="35.029618972912431" lon="-5.439609987661243">
        <ele>93.866</ele>
        <time>2011-01-03T12:56:43Z</time>
      </trkpt>
      <trkpt lat="35.02918504178524" lon="-5.439291978254914">
        <ele>97.710999999999999</ele>
        <time>2011-01-03T12:56:46Z</time>
      </trkpt>
      <trkpt lat="35.028667962178588" lon="-5.438857041299343">
        <ele>100.11499999999999</ele>
        <time>2011-01-03T12:56:50Z</time>
      </trkpt>
      <trkpt lat="35.028281975537539" lon="-5.437901001423597">
        <ele>101.07599999999999</ele>
        <time>2011-01-03T12:56:55Z</time>
      </trkpt>
      <trkpt lat="35.027909986674786" lon="-5.43672401458025">
        <ele>97.230000000000004</ele>
        <time>2011-01-03T12:57:01Z</time>
      </trkpt>
      <trkpt lat="35.027515031397343" lon="-5.435237986966968">
        <ele>93.385000000000005</ele>
        <time>2011-01-03T12:57:07Z</time>
      </trkpt>
      <trkpt lat="35.027328031137586" lon="-5.432324018329382">
        <ele>95.308000000000007</ele>
        <time>2011-01-03T12:57:18Z</time>
      </trkpt>
      <trkpt lat="35.026895022019744" lon="-5.43096799403429">
        <ele>98.191999999999993</ele>
        <time>2011-01-03T12:57:24Z</time>
      </trkpt>
      <trkpt lat="35.026041995733976" lon="-5.429331008344889">
        <ele>91.462999999999994</ele>
        <time>2011-01-03T12:57:31Z</time>
      </trkpt>
      <trkpt lat="35.024887975305319" lon="-5.427381964400411">
        <ele>91.942999999999998</ele>
        <time>2011-01-03T12:57:40Z</time>
      </trkpt>
      <trkpt lat="35.024297973141074" lon="-5.426255017518997">
        <ele>106.84399999999999</ele>
        <time>2011-01-03T12:57:46Z</time>
      </trkpt>
      <trkpt lat="35.023658014833927" lon="-5.424964036792517">
        <ele>106.84399999999999</ele>
        <time>2011-01-03T12:57:52Z</time>
      </trkpt>
      <trkpt lat="35.022888975217938" lon="-5.42346996255219">
        <ele>106.84399999999999</ele>
        <time>2011-01-03T12:57:59Z</time>
      </trkpt>
      <trkpt lat="35.022698035463691" lon="-5.423100991174579">
        <ele>107.324</ele>
        <time>2011-01-03T12:58:01Z</time>
      </trkpt>
      <trkpt lat="35.021982975304127" lon="-5.422176970168948">
        <ele>114.054</ele>
        <time>2011-01-03T12:58:07Z</time>
      </trkpt>
      <trkpt lat="35.021741995587945" lon="-5.421412037685514">
        <ele>117.41800000000001</ele>
        <time>2011-01-03T12:58:12Z</time>
      </trkpt>
      <trkpt lat="35.021864958107471" lon="-5.420703012496233">
        <ele>123.667</ele>
        <time>2011-01-03T12:58:16Z</time>
      </trkpt>
      <trkpt lat="35.021907035261393" lon="-5.420491034165025">
        <ele>124.628</ele>
        <time>2011-01-03T12:58:17Z</time>
      </trkpt>
      <trkpt lat="35.02235496416688" lon="-5.418390026316047">
        <ele>136.16399999999999</ele>
        <time>2011-01-03T12:58:26Z</time>
      </trkpt>
      <trkpt lat="35.022416990250349" lon="-5.417979983612895">
        <ele>140.00899999999999</ele>
        <time>2011-01-03T12:58:28Z</time>
      </trkpt>
      <trkpt lat="35.022345995530486" lon="-5.41704498231411">
        <ele>145.77699999999999</ele>
        <time>2011-01-03T12:58:33Z</time>
      </trkpt>
      <trkpt lat="35.022166036069393" lon="-5.415165005251765">
        <ele>157.31299999999999</ele>
        <time>2011-01-03T12:58:42Z</time>
      </trkpt>
      <trkpt lat="35.022177016362548" lon="-5.414677010849118">
        <ele>162.12</ele>
        <time>2011-01-03T12:58:45Z</time>
      </trkpt>
      <trkpt lat="35.0222900044173" lon="-5.41410000063479">
        <ele>166.44499999999999</ele>
        <time>2011-01-03T12:58:49Z</time>
      </trkpt>
      <trkpt lat="35.022442974150181" lon="-5.412934999912977">
        <ele>177.02000000000001</ele>
        <time>2011-01-03T12:58:59Z</time>
      </trkpt>
      <trkpt lat="35.022468036040664" lon="-5.412405012175441">
        <ele>181.82599999999999</ele>
        <time>2011-01-03T12:59:05Z</time>
      </trkpt>
      <trkpt lat="35.022499971091747" lon="-5.411720965057612">
        <ele>186.15199999999999</ele>
        <time>2011-01-03T12:59:15Z</time>
      </trkpt>
      <trkpt lat="35.022526038810611" lon="-5.41117899119854">
        <ele>186.63300000000001</ele>
        <time>2011-01-03T12:59:20Z</time>
      </trkpt>
      <trkpt lat="35.023009004071355" lon="-5.410787975415587">
        <ele>182.78800000000001</ele>
        <time>2011-01-03T12:59:24Z</time>
      </trkpt>
      <trkpt lat="35.023754993453622" lon="-5.410502990707755">
        <ele>177.501</ele>
        <time>2011-01-03T12:59:29Z</time>
      </trkpt>
      <trkpt lat="35.024415990337729" lon="-5.41040601208806">
        <ele>172.21299999999999</ele>
        <time>2011-01-03T12:59:33Z</time>
      </trkpt>
      <trkpt lat="35.025952979922295" lon="-5.409840987995267">
        <ele>158.755</ele>
        <time>2011-01-03T12:59:43Z</time>
      </trkpt>
      <trkpt lat="35.026658987626433" lon="-5.40939599275589">
        <ele>152.02600000000001</ele>
        <time>2011-01-03T12:59:48Z</time>
      </trkpt>
      <trkpt lat="35.027111023664474" lon="-5.408742036670446">
        <ele>147.21899999999999</ele>
        <time>2011-01-03T12:59:52Z</time>
      </trkpt>
      <trkpt lat="35.027569010853767" lon="-5.40810601785779">
        <ele>142.41200000000001</ele>
        <time>2011-01-03T12:59:57Z</time>
      </trkpt>
      <trkpt lat="35.027927001938224" lon="-5.407615005970001">
        <ele>142.41200000000001</ele>
        <time>2011-01-03T13:00:02Z</time>
      </trkpt>
      <trkpt lat="35.028523039072752" lon="-5.406635999679565">
        <ele>141.93199999999999</ele>
        <time>2011-01-03T13:00:10Z</time>
      </trkpt>
      <trkpt lat="35.02931303344667" lon="-5.405088029801846">
        <ele>145.77699999999999</ele>
        <time>2011-01-03T13:00:21Z</time>
      </trkpt>
      <trkpt lat="35.029901023954153" lon="-5.404138024896383">
        <ele>146.738</ele>
        <time>2011-01-03T13:00:27Z</time>
      </trkpt>
      <trkpt lat="35.030091963708401" lon="-5.403868965804577">
        <ele>147.21899999999999</ele>
        <time>2011-01-03T13:00:29Z</time>
      </trkpt>
      <trkpt lat="35.030528996139765" lon="-5.40325197391212">
        <ele>148.661</ele>
        <time>2011-01-03T13:00:34Z</time>
      </trkpt>
      <trkpt lat="35.030803000554442" lon="-5.40286498144269">
        <ele>149.62200000000001</ele>
        <time>2011-01-03T13:00:37Z</time>
      </trkpt>
      <trkpt lat="35.031202984973788" lon="-5.402304986491799">
        <ele>152.02600000000001</ele>
        <time>2011-01-03T13:00:41Z</time>
      </trkpt>
      <trkpt lat="35.031999014317989" lon="-5.400762967765331">
        <ele>162.12</ele>
        <time>2011-01-03T13:00:50Z</time>
      </trkpt>
      <trkpt lat="35.032046036794782" lon="-5.400600023567677">
        <ele>163.08099999999999</ele>
        <time>2011-01-03T13:00:51Z</time>
      </trkpt>
      <trkpt lat="35.032052993774414" lon="-5.399932991713285">
        <ele>167.40700000000001</ele>
        <time>2011-01-03T13:00:56Z</time>
      </trkpt>
      <trkpt lat="35.031342040747404" lon="-5.398639999330044">
        <ele>177.501</ele>
        <time>2011-01-03T13:01:04Z</time>
      </trkpt>
      <trkpt lat="35.030201012268662" lon="-5.397414984181523">
        <ele>187.114</ele>
        <time>2011-01-03T13:01:12Z</time>
      </trkpt>
      <trkpt lat="35.029018996283412" lon="-5.395910013467073">
        <ele>183.749</ele>
        <time>2011-01-03T13:01:21Z</time>
      </trkpt>
      <trkpt lat="35.02774897031486" lon="-5.394537979736924">
        <ele>177.02000000000001</ele>
        <time>2011-01-03T13:01:31Z</time>
      </trkpt>
      <trkpt lat="35.027107000350952" lon="-5.393950995057821">
        <ele>172.69399999999999</ele>
        <time>2011-01-03T13:01:36Z</time>
      </trkpt>
      <trkpt lat="35.026568965986371" lon="-5.393155971542001">
        <ele>168.36799999999999</ele>
        <time>2011-01-03T13:01:41Z</time>
      </trkpt>
      <trkpt lat="35.026224972680211" lon="-5.391810005530715">
        <ele>165.48400000000001</ele>
        <time>2011-01-03T13:01:48Z</time>
      </trkpt>
      <trkpt lat="35.026232013478875" lon="-5.391623005270958">
        <ele>165.00299999999999</ele>
        <time>2011-01-03T13:01:49Z</time>
      </trkpt>
      <trkpt lat="35.026259003207088" lon="-5.390697978436947">
        <ele>163.56200000000001</ele>
        <time>2011-01-03T13:01:54Z</time>
      </trkpt>
      <trkpt lat="35.026236958801746" lon="-5.389356035739183">
        <ele>159.23500000000001</ele>
        <time>2011-01-03T13:02:01Z</time>
      </trkpt>
      <trkpt lat="35.02609102986753" lon="-5.388453975319862">
        <ele>157.31299999999999</ele>
        <time>2011-01-03T13:02:06Z</time>
      </trkpt>
      <trkpt lat="35.025225011631846" lon="-5.386653961613774">
        <ele>158.755</ele>
        <time>2011-01-03T13:02:15Z</time>
      </trkpt>
      <trkpt lat="35.024934997782111" lon="-5.38524798117578">
        <ele>160.67699999999999</ele>
        <time>2011-01-03T13:02:22Z</time>
      </trkpt>
      <trkpt lat="35.024904990568757" lon="-5.384418005123735">
        <ele>160.67699999999999</ele>
        <time>2011-01-03T13:02:26Z</time>
      </trkpt>
      <trkpt lat="35.025046980008483" lon="-5.383195001631975">
        <ele>160.197</ele>
        <time>2011-01-03T13:02:32Z</time>
      </trkpt>
      <trkpt lat="35.025284020230174" lon="-5.382537022233009">
        <ele>162.12</ele>
        <time>2011-01-03T13:02:36Z</time>
      </trkpt>
      <trkpt lat="35.025406982749701" lon="-5.382195040583611">
        <ele>163.08099999999999</ele>
        <time>2011-01-03T13:02:38Z</time>
      </trkpt>
      <trkpt lat="35.025672018527985" lon="-5.381309995427728">
        <ele>165.48400000000001</ele>
        <time>2011-01-03T13:02:43Z</time>
      </trkpt>
      <trkpt lat="35.026032021269202" lon="-5.37906096316874">
        <ele>164.042</ele>
        <time>2011-01-03T13:02:53Z</time>
      </trkpt>
      <trkpt lat="35.026165964081883" lon="-5.378174996003509">
        <ele>163.08099999999999</ele>
        <time>2011-01-03T13:02:57Z</time>
      </trkpt>
      <trkpt lat="35.026320023462176" lon="-5.377391958609223">
        <ele>164.042</ele>
        <time>2011-01-03T13:03:02Z</time>
      </trkpt>
      <trkpt lat="35.026380959898233" lon="-5.3771030344069">
        <ele>165.965</ele>
        <time>2011-01-03T13:03:04Z</time>
      </trkpt>
      <trkpt lat="35.026540970429778" lon="-5.376345980912447">
        <ele>169.81</ele>
        <time>2011-01-03T13:03:09Z</time>
      </trkpt>
      <trkpt lat="35.026921005919576" lon="-5.374918961897492">
        <ele>173.655</ele>
        <time>2011-01-03T13:03:16Z</time>
      </trkpt>
      <trkpt lat="35.027242032811046" lon="-5.37284997291863">
        <ele>181.82599999999999</ele>
        <time>2011-01-03T13:03:25Z</time>
      </trkpt>
      <trkpt lat="35.027522994205356" lon="-5.371799971908331">
        <ele>184.22999999999999</ele>
        <time>2011-01-03T13:03:31Z</time>
      </trkpt>
      <trkpt lat="35.028021968901157" lon="-5.371018024161458">
        <ele>182.78800000000001</ele>
        <time>2011-01-03T13:03:36Z</time>
      </trkpt>
      <trkpt lat="35.029394002631307" lon="-5.369394030421972">
        <ele>178.94300000000001</ele>
        <time>2011-01-03T13:03:45Z</time>
      </trkpt>
      <trkpt lat="35.030976003035903" lon="-5.367854023352265">
        <ele>176.53899999999999</ele>
        <time>2011-01-03T13:03:55Z</time>
      </trkpt>
      <trkpt lat="35.031227963045239" lon="-5.367528973147273">
        <ele>176.53899999999999</ele>
        <time>2011-01-03T13:03:57Z</time>
      </trkpt>
      <trkpt lat="35.031892983242869" lon="-5.366620039567351">
        <ele>175.09700000000001</ele>
        <time>2011-01-03T13:04:03Z</time>
      </trkpt>
      <trkpt lat="35.03230101428926" lon="-5.366062978282571">
        <ele>175.09700000000001</ele>
        <time>2011-01-03T13:04:07Z</time>
      </trkpt>
      <trkpt lat="35.033177006989717" lon="-5.364819020032883">
        <ele>177.02000000000001</ele>
        <time>2011-01-03T13:04:14Z</time>
      </trkpt>
      <trkpt lat="35.034381989389658" lon="-5.363442040979862">
        <ele>181.82599999999999</ele>
        <time>2011-01-03T13:04:22Z</time>
      </trkpt>
      <trkpt lat="35.035339035093784" lon="-5.362418023869395">
        <ele>185.191</ele>
        <time>2011-01-03T13:04:28Z</time>
      </trkpt>
      <trkpt lat="35.036916006356478" lon="-5.361007014289498">
        <ele>194.804</ele>
        <time>2011-01-03T13:04:37Z</time>
      </trkpt>
      <trkpt lat="35.037334011867642" lon="-5.360680036246777">
        <ele>195.285</ele>
        <time>2011-01-03T13:04:40Z</time>
      </trkpt>
      <trkpt lat="35.038061980158091" lon="-5.360396979376674">
        <ele>191.91999999999999</ele>
        <time>2011-01-03T13:04:45Z</time>
      </trkpt>
      <trkpt lat="35.039768032729626" lon="-5.360212996602058">
        <ele>188.07499999999999</ele>
        <time>2011-01-03T13:04:54Z</time>
      </trkpt>
      <trkpt lat="35.040546040982008" lon="-5.360009986907244">
        <ele>187.59399999999999</ele>
        <time>2011-01-03T13:04:59Z</time>
      </trkpt>
      <trkpt lat="35.040847035124898" lon="-5.359553005546331">
        <ele>186.63300000000001</ele>
        <time>2011-01-03T13:05:04Z</time>
      </trkpt>
      <trkpt lat="35.041189016774297" lon="-5.358955040574074">
        <ele>185.191</ele>
        <time>2011-01-03T13:05:08Z</time>
      </trkpt>
      <trkpt lat="35.041266968473792" lon="-5.358772985637188">
        <ele>185.191</ele>
        <time>2011-01-03T13:05:09Z</time>
      </trkpt>
      <trkpt lat="35.041408035904169" lon="-5.358440978452563">
        <ele>184.71100000000001</ele>
        <time>2011-01-03T13:05:11Z</time>
      </trkpt>
      <trkpt lat="35.041794022545218" lon="-5.357533972710371">
        <ele>185.672</ele>
        <time>2011-01-03T13:05:16Z</time>
      </trkpt>
      <trkpt lat="35.04229299724102" lon="-5.356079963967204">
        <ele>191.91999999999999</ele>
        <time>2011-01-03T13:05:23Z</time>
      </trkpt>
      <trkpt lat="35.042718965560198" lon="-5.354062020778656">
        <ele>192.40100000000001</ele>
        <time>2011-01-03T13:05:32Z</time>
      </trkpt>
      <trkpt lat="35.042873024940491" lon="-5.353604033589363">
        <ele>192.40100000000001</ele>
        <time>2011-01-03T13:05:34Z</time>
      </trkpt>
      <trkpt lat="35.043432014063001" lon="-5.353111010044813">
        <ele>191.44</ele>
        <time>2011-01-03T13:05:39Z</time>
      </trkpt>
      <trkpt lat="35.044017992913723" lon="-5.35286701284349">
        <ele>190.959</ele>
        <time>2011-01-03T13:05:43Z</time>
      </trkpt>
      <trkpt lat="35.044615035876632" lon="-5.352898025885224">
        <ele>194.804</ele>
        <time>2011-01-03T13:05:47Z</time>
      </trkpt>
      <trkpt lat="35.046012969687581" lon="-5.35318803973496">
        <ele>198.16900000000001</ele>
        <time>2011-01-03T13:05:55Z</time>
      </trkpt>
      <trkpt lat="35.046689976006746" lon="-5.353208994492889">
        <ele>196.727</ele>
        <time>2011-01-03T13:05:59Z</time>
      </trkpt>
      <trkpt lat="35.04740696400404" lon="-5.352988969534636">
        <ele>194.804</ele>
        <time>2011-01-03T13:06:04Z</time>
      </trkpt>
      <trkpt lat="35.047573009505868" lon="-5.352882016450167">
        <ele>194.32400000000001</ele>
        <time>2011-01-03T13:06:05Z</time>
      </trkpt>
      <trkpt lat="35.048912018537521" lon="-5.351834027096629">
        <ele>194.32400000000001</ele>
        <time>2011-01-03T13:06:13Z</time>
      </trkpt>
      <trkpt lat="35.050978995859623" lon="-5.349840978160501">
        <ele>198.65000000000001</ele>
        <time>2011-01-03T13:06:28Z</time>
      </trkpt>
      <trkpt lat="35.05168198607862" lon="-5.348888961598277">
        <ele>200.572</ele>
        <time>2011-01-03T13:06:34Z</time>
      </trkpt>
      <trkpt lat="35.052644982933998" lon="-5.347416009753943">
        <ele>202.97499999999999</ele>
        <time>2011-01-03T13:06:43Z</time>
      </trkpt>
      <trkpt lat="35.053446041420102" lon="-5.345698976889253">
        <ele>203.93700000000001</ele>
        <time>2011-01-03T13:06:51Z</time>
      </trkpt>
      <trkpt lat="35.054340977221727" lon="-5.343662006780505">
        <ele>210.185</ele>
        <time>2011-01-03T13:07:01Z</time>
      </trkpt>
      <trkpt lat="35.054469974711537" lon="-5.343503002077341">
        <ele>210.666</ele>
        <time>2011-01-03T13:07:02Z</time>
      </trkpt>
      <trkpt lat="35.055432971566916" lon="-5.342318974435329">
        <ele>217.39500000000001</ele>
        <time>2011-01-03T13:07:09Z</time>
      </trkpt>
      <trkpt lat="35.055901017040014" lon="-5.341398976743221">
        <ele>221.721</ele>
        <time>2011-01-03T13:07:14Z</time>
      </trkpt>
      <trkpt lat="35.056361015886068" lon="-5.340317962691188">
        <ele>221.721</ele>
        <time>2011-01-03T13:07:20Z</time>
      </trkpt>
      <trkpt lat="35.057242959737778" lon="-5.33858098089695">
        <ele>217.876</ele>
        <time>2011-01-03T13:07:28Z</time>
      </trkpt>
      <trkpt lat="35.05890198983252" lon="-5.33600103110075">
        <ele>217.39500000000001</ele>
        <time>2011-01-03T13:07:41Z</time>
      </trkpt>
      <trkpt lat="35.059174988418818" lon="-5.335715040564537">
        <ele>217.876</ele>
        <time>2011-01-03T13:07:43Z</time>
      </trkpt>
      <trkpt lat="35.059942016378045" lon="-5.335093019530177">
        <ele>219.79900000000001</ele>
        <time>2011-01-03T13:07:48Z</time>
      </trkpt>
      <trkpt lat="35.061008026823401" lon="-5.334655987098813">
        <ele>220.279</ele>
        <time>2011-01-03T13:07:54Z</time>
      </trkpt>
      <trkpt lat="35.061185974627733" lon="-5.334612987935543">
        <ele>220.75999999999999</ele>
        <time>2011-01-03T13:07:55Z</time>
      </trkpt>
      <trkpt lat="35.062231030315161" lon="-5.334160029888153">
        <ele>222.202</ele>
        <time>2011-01-03T13:08:01Z</time>
      </trkpt>
      <trkpt lat="35.062376959249377" lon="-5.334034971892834">
        <ele>223.16300000000001</ele>
        <time>2011-01-03T13:08:02Z</time>
      </trkpt>
      <trkpt lat="35.063286982476711" lon="-5.333442036062479">
        <ele>227.00899999999999</ele>
        <time>2011-01-03T13:08:08Z</time>
      </trkpt>
      <trkpt lat="35.063621001318097" lon="-5.333193009719253">
        <ele>227.97</ele>
        <time>2011-01-03T13:08:10Z</time>
      </trkpt>
      <trkpt lat="35.064172027632594" lon="-5.332641983404756">
        <ele>227.97</ele>
        <time>2011-01-03T13:08:14Z</time>
      </trkpt>
      <trkpt lat="35.065026981756091" lon="-5.331875961273909">
        <ele>226.52799999999999</ele>
        <time>2011-01-03T13:08:20Z</time>
      </trkpt>
      <trkpt lat="35.065963994711637" lon="-5.331301968544722">
        <ele>226.52799999999999</ele>
        <time>2011-01-03T13:08:26Z</time>
      </trkpt>
      <trkpt lat="35.06626901216805" lon="-5.331083033233881">
        <ele>227.489</ele>
        <time>2011-01-03T13:08:28Z</time>
      </trkpt>
      <trkpt lat="35.066982982680202" lon="-5.330483978614211">
        <ele>232.29599999999999</ele>
        <time>2011-01-03T13:08:33Z</time>
      </trkpt>
      <trkpt lat="35.067354971542954" lon="-5.330163035541773">
        <ele>236.14099999999999</ele>
        <time>2011-01-03T13:08:36Z</time>
      </trkpt>
      <trkpt lat="35.068055028095841" lon="-5.329311015084386">
        <ele>242.87</ele>
        <time>2011-01-03T13:08:42Z</time>
      </trkpt>
      <trkpt lat="35.068180002272129" lon="-5.329159973189235">
        <ele>243.83199999999999</ele>
        <time>2011-01-03T13:08:43Z</time>
      </trkpt>
      <trkpt lat="35.068586021661758" lon="-5.328318011015654">
        <ele>248.63800000000001</ele>
        <time>2011-01-03T13:08:48Z</time>
      </trkpt>
      <trkpt lat="35.068974019959569" lon="-5.327463978901506">
        <ele>253.44499999999999</ele>
        <time>2011-01-03T13:08:53Z</time>
      </trkpt>
      <trkpt lat="35.069046020507812" lon="-5.327287958934903">
        <ele>253.44499999999999</ele>
        <time>2011-01-03T13:08:54Z</time>
      </trkpt>
      <trkpt lat="35.069339973852038" lon="-5.326557978987694">
        <ele>255.84800000000001</ele>
        <time>2011-01-03T13:08:58Z</time>
      </trkpt>
      <trkpt lat="35.069623030722141" lon="-5.326139973476529">
        <ele>256.80900000000003</ele>
        <time>2011-01-03T13:09:01Z</time>
      </trkpt>
      <trkpt lat="35.070315040647984" lon="-5.325447963550687">
        <ele>255.36699999999999</ele>
        <time>2011-01-03T13:09:06Z</time>
      </trkpt>
      <trkpt lat="35.070456024259329" lon="-5.325306979939342">
        <ele>254.887</ele>
        <time>2011-01-03T13:09:07Z</time>
      </trkpt>
      <trkpt lat="35.071482975035906" lon="-5.324568031355739">
        <ele>249.119</ele>
        <time>2011-01-03T13:09:13Z</time>
      </trkpt>
      <trkpt lat="35.071905003860593" lon="-5.324075007811189">
        <ele>247.67699999999999</ele>
        <time>2011-01-03T13:09:16Z</time>
      </trkpt>
      <trkpt lat="35.072400961071253" lon="-5.323480982333422">
        <ele>246.23500000000001</ele>
        <time>2011-01-03T13:09:20Z</time>
      </trkpt>
      <trkpt lat="35.072621991857886" lon="-5.323186023160815">
        <ele>246.715</ele>
        <time>2011-01-03T13:09:22Z</time>
      </trkpt>
      <trkpt lat="35.073232026770711" lon="-5.322369961068034">
        <ele>248.63800000000001</ele>
        <time>2011-01-03T13:09:27Z</time>
      </trkpt>
      <trkpt lat="35.073896963149309" lon="-5.321401013061404">
        <ele>251.041</ele>
        <time>2011-01-03T13:09:33Z</time>
      </trkpt>
      <trkpt lat="35.074062002822757" lon="-5.320612024515867">
        <ele>252.00299999999999</ele>
        <time>2011-01-03T13:09:38Z</time>
      </trkpt>
      <trkpt lat="35.07406703196466" lon="-5.320389987900853">
        <ele>252.00299999999999</ele>
        <time>2011-01-03T13:09:39Z</time>
      </trkpt>
      <trkpt lat="35.074057979509234" lon="-5.318360980600119">
        <ele>258.25099999999998</ele>
        <time>2011-01-03T13:09:48Z</time>
      </trkpt>
      <trkpt lat="35.074054962024093" lon="-5.318180015310645">
        <ele>259.69299999999998</ele>
        <time>2011-01-03T13:09:49Z</time>
      </trkpt>
      <trkpt lat="35.074044987559319" lon="-5.317533016204834">
        <ele>260.17399999999998</ele>
        <time>2011-01-03T13:09:53Z</time>
      </trkpt>
      <trkpt lat="35.074039036408067" lon="-5.317164966836572">
        <ele>259.69299999999998</ele>
        <time>2011-01-03T13:09:55Z</time>
      </trkpt>
      <trkpt lat="35.074093015864491" lon="-5.315936012193561">
        <ele>260.17399999999998</ele>
        <time>2011-01-03T13:10:01Z</time>
      </trkpt>
      <trkpt lat="35.074141966179013" lon="-5.315743982791901">
        <ele>260.65499999999997</ele>
        <time>2011-01-03T13:10:02Z</time>
      </trkpt>
      <trkpt lat="35.074456036090851" lon="-5.314634973183274">
        <ele>263.53899999999999</ele>
        <time>2011-01-03T13:10:08Z</time>
      </trkpt>
      <trkpt lat="35.074552008882165" lon="-5.314498012885451">
        <ele>264.01900000000001</ele>
        <time>2011-01-03T13:10:09Z</time>
      </trkpt>
      <trkpt lat="35.075123989954591" lon="-5.313798962160945">
        <ele>268.82600000000002</ele>
        <time>2011-01-03T13:10:14Z</time>
      </trkpt>
      <trkpt lat="35.075554987415671" lon="-5.31363601796329">
        <ele>271.22899999999998</ele>
        <time>2011-01-03T13:10:17Z</time>
      </trkpt>
      <trkpt lat="35.076119005680084" lon="-5.313606010749936">
        <ele>276.036</ele>
        <time>2011-01-03T13:10:21Z</time>
      </trkpt>
      <trkpt lat="35.076882010325789" lon="-5.313473995774984">
        <ele>281.80399999999997</ele>
        <time>2011-01-03T13:10:26Z</time>
      </trkpt>
      <trkpt lat="35.077290963381529" lon="-5.313049033284187">
        <ele>286.61000000000001</ele>
        <time>2011-01-03T13:10:31Z</time>
      </trkpt>
      <trkpt lat="35.077536972239614" lon="-5.312655000016093">
        <ele>290.93599999999998</ele>
        <time>2011-01-03T13:10:34Z</time>
      </trkpt>
      <trkpt lat="35.077779963612556" lon="-5.312265995889902">
        <ele>295.74299999999999</ele>
        <time>2011-01-03T13:10:37Z</time>
      </trkpt>
      <trkpt lat="35.078239962458611" lon="-5.311808008700609">
        <ele>301.02999999999997</ele>
        <time>2011-01-03T13:10:42Z</time>
      </trkpt>
      <trkpt lat="35.07875301875174" lon="-5.311312973499298">
        <ele>307.75900000000001</ele>
        <time>2011-01-03T13:10:47Z</time>
      </trkpt>
      <trkpt lat="35.078854020684958" lon="-5.311215994879603">
        <ele>308.72000000000003</ele>
        <time>2011-01-03T13:10:48Z</time>
      </trkpt>
      <trkpt lat="35.079418960958719" lon="-5.310681983828545">
        <ele>314.488</ele>
        <time>2011-01-03T13:10:53Z</time>
      </trkpt>
      <trkpt lat="35.079671004787087" lon="-5.310447039082646">
        <ele>316.892</ele>
        <time>2011-01-03T13:10:55Z</time>
      </trkpt>
      <trkpt lat="35.080369971692562" lon="-5.309794005006552">
        <ele>325.06299999999999</ele>
        <time>2011-01-03T13:11:01Z</time>
      </trkpt>
      <trkpt lat="35.080580022186041" lon="-5.309598036110401">
        <ele>327.46600000000001</ele>
        <time>2011-01-03T13:11:03Z</time>
      </trkpt>
      <trkpt lat="35.081205982714891" lon="-5.309169972315431">
        <ele>334.19499999999999</ele>
        <time>2011-01-03T13:11:08Z</time>
      </trkpt>
      <trkpt lat="35.081938980147243" lon="-5.308723971247673">
        <ele>340.44400000000002</ele>
        <time>2011-01-03T13:11:14Z</time>
      </trkpt>
      <trkpt lat="35.082511967048049" lon="-5.30841400846839">
        <ele>344.28899999999999</ele>
        <time>2011-01-03T13:11:19Z</time>
      </trkpt>
      <trkpt lat="35.082656973972917" lon="-5.30841400846839">
        <ele>344.76999999999998</ele>
        <time>2011-01-03T13:11:20Z</time>
      </trkpt>
      <trkpt lat="35.083559034392238" lon="-5.30841400846839">
        <ele>350.05700000000002</ele>
        <time>2011-01-03T13:11:26Z</time>
      </trkpt>
      <trkpt lat="35.084284991025925" lon="-5.308321975171566">
        <ele>355.82499999999999</ele>
        <time>2011-01-03T13:11:31Z</time>
      </trkpt>
      <trkpt lat="35.084926960989833" lon="-5.308004971593618">
        <ele>361.59300000000002</ele>
        <time>2011-01-03T13:11:36Z</time>
      </trkpt>
      <trkpt lat="35.085409004241228" lon="-5.307589983567596">
        <ele>365.91899999999998</ele>
        <time>2011-01-03T13:11:40Z</time>
      </trkpt>
      <trkpt lat="35.086051980033517" lon="-5.30721003189683">
        <ele>372.16699999999997</ele>
        <time>2011-01-03T13:11:45Z</time>
      </trkpt>
      <trkpt lat="35.086733009666204" lon="-5.307012973353267">
        <ele>376.97399999999999</ele>
        <time>2011-01-03T13:11:50Z</time>
      </trkpt>
      <trkpt lat="35.086888996884227" lon="-5.307008028030396">
        <ele>377.935</ele>
        <time>2011-01-03T13:11:51Z</time>
      </trkpt>
      <trkpt lat="35.087211029604077" lon="-5.30699897557497">
        <ele>378.89699999999999</ele>
        <time>2011-01-03T13:11:53Z</time>
      </trkpt>
      <trkpt lat="35.088235968723893" lon="-5.307249007746577">
        <ele>380.81900000000002</ele>
        <time>2011-01-03T13:11:59Z</time>
      </trkpt>
      <trkpt lat="35.08837703615427" lon="-5.307312961667776">
        <ele>381.30000000000001</ele>
        <time>2011-01-03T13:12:00Z</time>
      </trkpt>
      <trkpt lat="35.088913980871439" lon="-5.30746903270483">
        <ele>383.22300000000001</ele>
        <time>2011-01-03T13:12:05Z</time>
      </trkpt>
      <trkpt lat="35.08960297331214" lon="-5.30746903270483">
        <ele>385.14499999999998</ele>
        <time>2011-01-03T13:12:11Z</time>
      </trkpt>
      <trkpt lat="35.090202027931809" lon="-5.307436008006334">
        <ele>387.06799999999998</ele>
        <time>2011-01-03T13:12:16Z</time>
      </trkpt>
      <trkpt lat="35.09056999348104" lon="-5.307397032156587">
        <ele>390.43299999999999</ele>
        <time>2011-01-03T13:12:20Z</time>
      </trkpt>
      <trkpt lat="35.091153960675001" lon="-5.307298041880131">
        <ele>395.72000000000003</ele>
        <time>2011-01-03T13:12:26Z</time>
      </trkpt>
      <trkpt lat="35.091402987018228" lon="-5.307298041880131">
        <ele>396.20100000000002</ele>
        <time>2011-01-03T13:12:28Z</time>
      </trkpt>
      <trkpt lat="35.092684999108315" lon="-5.307790981605649">
        <ele>402.93000000000001</ele>
        <time>2011-01-03T13:12:37Z</time>
      </trkpt>
      <trkpt lat="35.093173999339342" lon="-5.308117037639022">
        <ele>406.77499999999998</ele>
        <time>2011-01-03T13:12:41Z</time>
      </trkpt>
      <trkpt lat="35.093570966273546" lon="-5.308731012046337">
        <ele>410.62</ele>
        <time>2011-01-03T13:12:46Z</time>
      </trkpt>
      <trkpt lat="35.093656964600086" lon="-5.308863027021289">
        <ele>411.101</ele>
        <time>2011-01-03T13:12:47Z</time>
      </trkpt>
      <trkpt lat="35.09402995929122" lon="-5.309244990348816">
        <ele>417.35000000000002</ele>
        <time>2011-01-03T13:12:51Z</time>
      </trkpt>
      <trkpt lat="35.094448970630765" lon="-5.309674981981516">
        <ele>422.15600000000001</ele>
        <time>2011-01-03T13:12:56Z</time>
      </trkpt>
      <trkpt lat="35.095441974699497" lon="-5.309515977278352">
        <ele>428.88499999999999</ele>
        <time>2011-01-03T13:13:04Z</time>
      </trkpt>
      <trkpt lat="35.095994006842375" lon="-5.308920023962855">
        <ele>433.69200000000001</ele>
        <time>2011-01-03T13:13:09Z</time>
      </trkpt>
      <trkpt lat="35.096114035695791" lon="-5.308791026473045">
        <ele>434.65300000000002</ele>
        <time>2011-01-03T13:13:10Z</time>
      </trkpt>
      <trkpt lat="35.097309965640306" lon="-5.307284966111183">
        <ele>446.67000000000002</ele>
        <time>2011-01-03T13:13:20Z</time>
      </trkpt>
      <trkpt lat="35.097563015297055" lon="-5.30663101002574">
        <ele>450.51499999999999</ele>
        <time>2011-01-03T13:13:24Z</time>
      </trkpt>
      <trkpt lat="35.097495960071683" lon="-5.305888038128614">
        <ele>453.88</ele>
        <time>2011-01-03T13:13:29Z</time>
      </trkpt>
      <trkpt lat="35.097307031974196" lon="-5.305545972660184">
        <ele>455.322</ele>
        <time>2011-01-03T13:13:31Z</time>
      </trkpt>
      <trkpt lat="35.096975024789572" lon="-5.304207969456911">
        <ele>461.089</ele>
        <time>2011-01-03T13:13:38Z</time>
      </trkpt>
      <trkpt lat="35.096952980384231" lon="-5.303618973121047">
        <ele>462.05099999999999</ele>
        <time>2011-01-03T13:13:42Z</time>
      </trkpt>
      <trkpt lat="35.097051970660686" lon="-5.302471993491054">
        <ele>457.72500000000002</ele>
        <time>2011-01-03T13:13:49Z</time>
      </trkpt>
      <trkpt lat="35.097706010565162" lon="-5.30121898278594">
        <ele>448.59199999999998</ele>
        <time>2011-01-03T13:13:57Z</time>
      </trkpt>
      <trkpt lat="35.097783962264657" lon="-5.30111001804471">
        <ele>447.63099999999997</ele>
        <time>2011-01-03T13:13:58Z</time>
      </trkpt>
      <trkpt lat="35.098468009382486" lon="-5.30031600035727">
        <ele>441.38200000000001</ele>
        <time>2011-01-03T13:14:04Z</time>
      </trkpt>
      <trkpt lat="35.099345007911325" lon="-5.299579985439777">
        <ele>435.61500000000001</ele>
        <time>2011-01-03T13:14:10Z</time>
      </trkpt>
      <trkpt lat="35.100101977586746" lon="-5.298712961375713">
        <ele>430.327</ele>
        <time>2011-01-03T13:14:16Z</time>
      </trkpt>
      <trkpt lat="35.100515959784389" lon="-5.297977030277252">
        <ele>426.96300000000002</ele>
        <time>2011-01-03T13:14:21Z</time>
      </trkpt>
      <trkpt lat="35.100811002776027" lon="-5.297334976494312">
        <ele>422.637</ele>
        <time>2011-01-03T13:14:25Z</time>
      </trkpt>
      <trkpt lat="35.101197995245457" lon="-5.296452026814222">
        <ele>418.31099999999998</ele>
        <time>2011-01-03T13:14:30Z</time>
      </trkpt>
      <trkpt lat="35.102495010942221" lon="-5.294802971184254">
        <ele>407.73599999999999</ele>
        <time>2011-01-03T13:14:40Z</time>
      </trkpt>
      <trkpt lat="35.103560015559196" lon="-5.293435966596007">
        <ele>401.488</ele>
        <time>2011-01-03T13:14:48Z</time>
      </trkpt>
      <trkpt lat="35.10414800606668" lon="-5.292683020234108">
        <ele>399.565</ele>
        <time>2011-01-03T13:14:53Z</time>
      </trkpt>
      <trkpt lat="35.104692997410893" lon="-5.291762016713619">
        <ele>397.642</ele>
        <time>2011-01-03T13:14:59Z</time>
      </trkpt>
      <trkpt lat="35.105177974328399" lon="-5.290879989042878">
        <ele>395.23899999999998</ele>
        <time>2011-01-03T13:15:04Z</time>
      </trkpt>
      <trkpt lat="35.106157986447215" lon="-5.290126036852598">
        <ele>390.91300000000001</ele>
        <time>2011-01-03T13:15:11Z</time>
      </trkpt>
      <trkpt lat="35.10631799697876" lon="-5.29004598967731">
        <ele>390.43299999999999</ele>
        <time>2011-01-03T13:15:12Z</time>
      </trkpt>
      <trkpt lat="35.106961978599429" lon="-5.289723034948111">
        <ele>388.029</ele>
        <time>2011-01-03T13:15:16Z</time>
      </trkpt>
      <trkpt lat="35.108601981773973" lon="-5.28890403918922">
        <ele>384.66500000000002</ele>
        <time>2011-01-03T13:15:28Z</time>
      </trkpt>
      <trkpt lat="35.108991991728544" lon="-5.288707986474037">
        <ele>383.70299999999997</ele>
        <time>2011-01-03T13:15:31Z</time>
      </trkpt>
      <trkpt lat="35.109672015532851" lon="-5.288012959063053">
        <ele>381.30000000000001</ele>
        <time>2011-01-03T13:15:38Z</time>
      </trkpt>
      <trkpt lat="35.110145006328821" lon="-5.287391021847725">
        <ele>379.37700000000001</ele>
        <time>2011-01-03T13:15:44Z</time>
      </trkpt>
      <trkpt lat="35.110458992421627" lon="-5.286977039650083">
        <ele>378.416</ele>
        <time>2011-01-03T13:15:51Z</time>
      </trkpt>
      <trkpt lat="35.110812038183212" lon="-5.28705800883472">
        <ele>377.45499999999998</ele>
        <time>2011-01-03T13:15:57Z</time>
      </trkpt>
      <trkpt lat="35.111615024507046" lon="-5.287241991609335">
        <ele>375.53199999999998</ele>
        <time>2011-01-03T13:16:05Z</time>
      </trkpt>
      <trkpt lat="35.112670976668596" lon="-5.287355985492468">
        <ele>374.57100000000003</ele>
        <time>2011-01-03T13:16:14Z</time>
      </trkpt>
      <trkpt lat="35.113912001252174" lon="-5.287715988233686">
        <ele>373.12900000000002</ele>
        <time>2011-01-03T13:16:22Z</time>
      </trkpt>
      <trkpt lat="35.114843985065818" lon="-5.288039026781917">
        <ele>371.68700000000001</ele>
        <time>2011-01-03T13:16:29Z</time>
      </trkpt>
      <trkpt lat="35.115937991067767" lon="-5.288641015067697">
        <ele>370.245</ele>
        <time>2011-01-03T13:16:39Z</time>
      </trkpt>
      <trkpt lat="35.11682303622365" lon="-5.289385998621583">
        <ele>367.84199999999998</ele>
        <time>2011-01-03T13:16:48Z</time>
      </trkpt>
      <trkpt lat="35.117241041734815" lon="-5.289711970835924">
        <ele>366.88</ele>
        <time>2011-01-03T13:16:54Z</time>
      </trkpt>
      <trkpt lat="35.117517979815602" lon="-5.289885979145765">
        <ele>366.39999999999998</ele>
        <time>2011-01-03T13:16:58Z</time>
      </trkpt>
      <trkpt lat="35.118218036368489" lon="-5.290300967171788">
        <ele>365.43799999999999</ele>
        <time>2011-01-03T13:17:05Z</time>
      </trkpt>
      <trkpt lat="35.119142979383469" lon="-5.290997000411153">
        <ele>363.51600000000002</ele>
        <time>2011-01-03T13:17:13Z</time>
      </trkpt>
      <trkpt lat="35.120113017037511" lon="-5.291975000873208">
        <ele>360.63200000000001</ele>
        <time>2011-01-03T13:17:21Z</time>
      </trkpt>
      <trkpt lat="35.120227010920644" lon="-5.292068962007761">
        <ele>360.15100000000001</ele>
        <time>2011-01-03T13:17:22Z</time>
      </trkpt>
      <trkpt lat="35.120796980336308" lon="-5.292375991120935">
        <ele>359.67000000000002</ele>
        <time>2011-01-03T13:17:27Z</time>
      </trkpt>
      <trkpt lat="35.121071990579367" lon="-5.292265014722943">
        <ele>359.19</ele>
        <time>2011-01-03T13:17:29Z</time>
      </trkpt>
      <trkpt lat="35.122638987377286" lon="-5.29163402505219">
        <ele>361.59300000000002</ele>
        <time>2011-01-03T13:17:39Z</time>
      </trkpt>
      <trkpt lat="35.12331398203969" lon="-5.291841980069876">
        <ele>361.11200000000002</ele>
        <time>2011-01-03T13:17:44Z</time>
      </trkpt>
      <trkpt lat="35.123459994792938" lon="-5.291937030851841">
        <ele>360.63200000000001</ele>
        <time>2011-01-03T13:17:45Z</time>
      </trkpt>
      <trkpt lat="35.124570010229945" lon="-5.292776981368661">
        <ele>359.19</ele>
        <time>2011-01-03T13:17:53Z</time>
      </trkpt>
      <trkpt lat="35.124678974971175" lon="-5.292856022715569">
        <ele>359.19</ele>
        <time>2011-01-03T13:17:54Z</time>
      </trkpt>
      <trkpt lat="35.125125981867313" lon="-5.293003963306546">
        <ele>358.22800000000001</ele>
        <time>2011-01-03T13:17:58Z</time>
      </trkpt>
      <trkpt lat="35.125843975692987" lon="-5.293306969106197">
        <ele>355.34399999999999</ele>
        <time>2011-01-03T13:18:04Z</time>
      </trkpt>
      <trkpt lat="35.125970039516687" lon="-5.293415011838079">
        <ele>354.86399999999998</ele>
        <time>2011-01-03T13:18:05Z</time>
      </trkpt>
      <trkpt lat="35.126983998343349" lon="-5.294745974242687">
        <ele>351.49900000000002</ele>
        <time>2011-01-03T13:18:14Z</time>
      </trkpt>
      <trkpt lat="35.1273940410465" lon="-5.295321978628635">
        <ele>351.98000000000002</ele>
        <time>2011-01-03T13:18:18Z</time>
      </trkpt>
      <trkpt lat="35.128008015453815" lon="-5.295764962211251">
        <ele>352.94099999999997</ele>
        <time>2011-01-03T13:18:23Z</time>
      </trkpt>
      <trkpt lat="35.129483984783292" lon="-5.296119013801217">
        <ele>352.94099999999997</ele>
        <time>2011-01-03T13:18:32Z</time>
      </trkpt>
      <trkpt lat="35.130040040239692" lon="-5.296633997932077">
        <ele>351.01799999999997</ele>
        <time>2011-01-03T13:18:37Z</time>
      </trkpt>
      <trkpt lat="35.130130983889103" lon="-5.296794008463621">
        <ele>350.53800000000001</ele>
        <time>2011-01-03T13:18:38Z</time>
      </trkpt>
      <trkpt lat="35.130500961095095" lon="-5.297448970377445">
        <ele>346.69299999999998</ele>
        <time>2011-01-03T13:18:42Z</time>
      </trkpt>
      <trkpt lat="35.13139103539288" lon="-5.29825204052031">
        <ele>341.40499999999997</ele>
        <time>2011-01-03T13:18:49Z</time>
      </trkpt>
      <trkpt lat="35.132200978696346" lon="-5.298602990806103">
        <ele>339.00200000000001</ele>
        <time>2011-01-03T13:18:54Z</time>
      </trkpt>
      <trkpt lat="35.134052960202098" lon="-5.29896299354732">
        <ele>337.07900000000001</ele>
        <time>2011-01-03T13:19:04Z</time>
      </trkpt>
      <trkpt lat="35.135465981438756" lon="-5.299043040722609">
        <ele>336.11799999999999</ele>
        <time>2011-01-03T13:19:11Z</time>
      </trkpt>
      <trkpt lat="35.136842038482428" lon="-5.299163991585374">
        <ele>333.71499999999997</ele>
        <time>2011-01-03T13:19:18Z</time>
      </trkpt>
      <trkpt lat="35.137596996501088" lon="-5.299257030710578">
        <ele>331.79199999999997</ele>
        <time>2011-01-03T13:19:22Z</time>
      </trkpt>
      <trkpt lat="35.13880499638617" lon="-5.299218976870179">
        <ele>328.428</ele>
        <time>2011-01-03T13:19:30Z</time>
      </trkpt>
      <trkpt lat="35.139788025990129" lon="-5.299253007397056">
        <ele>326.505</ele>
        <time>2011-01-03T13:19:36Z</time>
      </trkpt>
      <trkpt lat="35.141454013064504" lon="-5.299417963251472">
        <ele>323.13999999999999</ele>
        <time>2011-01-03T13:19:44Z</time>
      </trkpt>
      <trkpt lat="35.142776006832719" lon="-5.299530029296875">
        <ele>320.25599999999997</ele>
        <time>2011-01-03T13:19:51Z</time>
      </trkpt>
      <trkpt lat="35.143562983721495" lon="-5.299185030162334">
        <ele>317.37200000000001</ele>
        <time>2011-01-03T13:19:56Z</time>
      </trkpt>
      <trkpt lat="35.144637962803245" lon="-5.298071997240186">
        <ele>314.00799999999998</ele>
        <time>2011-01-03T13:20:04Z</time>
      </trkpt>
      <trkpt lat="35.145685030147433" lon="-5.296801971271634">
        <ele>311.60399999999998</ele>
        <time>2011-01-03T13:20:12Z</time>
      </trkpt>
      <trkpt lat="35.145804975181818" lon="-5.296688983216882">
        <ele>311.60399999999998</ele>
        <time>2011-01-03T13:20:13Z</time>
      </trkpt>
      <trkpt lat="35.146328005939722" lon="-5.296690994873643">
        <ele>312.08499999999998</ele>
        <time>2011-01-03T13:20:18Z</time>
      </trkpt>
      <trkpt lat="35.14673201367259" lon="-5.296924011781812">
        <ele>310.64299999999997</ele>
        <time>2011-01-03T13:20:21Z</time>
      </trkpt>
      <trkpt lat="35.147167034447193" lon="-5.297287032008171">
        <ele>309.68200000000002</ele>
        <time>2011-01-03T13:20:24Z</time>
      </trkpt>
      <trkpt lat="35.148115027695894" lon="-5.297606969252229">
        <ele>310.64299999999997</ele>
        <time>2011-01-03T13:20:29Z</time>
      </trkpt>
      <trkpt lat="35.149407014250755" lon="-5.297996979206801">
        <ele>311.60399999999998</ele>
        <time>2011-01-03T13:20:36Z</time>
      </trkpt>
      <trkpt lat="35.150287030264735" lon="-5.298498971387744">
        <ele>311.12400000000002</ele>
        <time>2011-01-03T13:20:41Z</time>
      </trkpt>
      <trkpt lat="35.151384975761175" lon="-5.299463979899883">
        <ele>310.64299999999997</ele>
        <time>2011-01-03T13:20:48Z</time>
      </trkpt>
      <trkpt lat="35.151837011799216" lon="-5.300299990922213">
        <ele>309.68200000000002</ele>
        <time>2011-01-03T13:20:52Z</time>
      </trkpt>
      <trkpt lat="35.152394995093346" lon="-5.302265966311097">
        <ele>309.20100000000002</ele>
        <time>2011-01-03T13:21:00Z</time>
      </trkpt>
      <trkpt lat="35.152690960094333" lon="-5.303920973092318">
        <ele>308.72000000000003</ele>
        <time>2011-01-03T13:21:07Z</time>
      </trkpt>
      <trkpt lat="35.152780981734395" lon="-5.304294973611832">
        <ele>308.24000000000001</ele>
        <time>2011-01-03T13:21:09Z</time>
      </trkpt>
      <trkpt lat="35.153099996969104" lon="-5.304952031001449">
        <ele>307.75900000000001</ele>
        <time>2011-01-03T13:21:13Z</time>
      </trkpt>
      <trkpt lat="35.153230000287294" lon="-5.305105000734329">
        <ele>308.24000000000001</ele>
        <time>2011-01-03T13:21:14Z</time>
      </trkpt>
      <trkpt lat="35.153807010501623" lon="-5.305542033165693">
        <ele>308.24000000000001</ele>
        <time>2011-01-03T13:21:18Z</time>
      </trkpt>
      <trkpt lat="35.154417967423797" lon="-5.305615961551666">
        <ele>307.75900000000001</ele>
        <time>2011-01-03T13:21:22Z</time>
      </trkpt>
      <trkpt lat="35.155284991487861" lon="-5.305483024567366">
        <ele>310.64299999999997</ele>
        <time>2011-01-03T13:21:27Z</time>
      </trkpt>
      <trkpt lat="35.155902989208698" lon="-5.305583020672202">
        <ele>314.488</ele>
        <time>2011-01-03T13:21:31Z</time>
      </trkpt>
      <trkpt lat="35.156709998846054" lon="-5.306027010083199">
        <ele>315.44999999999999</ele>
        <time>2011-01-03T13:21:36Z</time>
      </trkpt>
      <trkpt lat="35.157235963270068" lon="-5.306595973670483">
        <ele>315.93000000000001</ele>
        <time>2011-01-03T13:21:40Z</time>
      </trkpt>
      <trkpt lat="35.15786200761795" lon="-5.307651003822684">
        <ele>317.37200000000001</ele>
        <time>2011-01-03T13:21:46Z</time>
      </trkpt>
      <trkpt lat="35.158078009262681" lon="-5.308713996782899">
        <ele>319.29500000000002</ele>
        <time>2011-01-03T13:21:52Z</time>
      </trkpt>
      <trkpt lat="35.158245982602239" lon="-5.310453996062279">
        <ele>321.21800000000002</ele>
        <time>2011-01-03T13:22:01Z</time>
      </trkpt>
      <trkpt lat="35.158299040049314" lon="-5.310633033514023">
        <ele>321.69799999999998</ele>
        <time>2011-01-03T13:22:02Z</time>
      </trkpt>
      <trkpt lat="35.158726014196873" lon="-5.311275003477931">
        <ele>322.17899999999997</ele>
        <time>2011-01-03T13:22:07Z</time>
      </trkpt>
      <trkpt lat="35.159013010561466" lon="-5.311433002352715">
        <ele>321.21800000000002</ele>
        <time>2011-01-03T13:22:09Z</time>
      </trkpt>
      <trkpt lat="35.159466974437237" lon="-5.31163802370429">
        <ele>320.73700000000002</ele>
        <time>2011-01-03T13:22:12Z</time>
      </trkpt>
      <trkpt lat="35.159995034337044" lon="-5.312099028378725">
        <ele>319.77600000000001</ele>
        <time>2011-01-03T13:22:16Z</time>
      </trkpt>
      <trkpt lat="35.16037498600781" lon="-5.312544023618102">
        <ele>320.25599999999997</ele>
        <time>2011-01-03T13:22:19Z</time>
      </trkpt>
      <trkpt lat="35.16097798012197" lon="-5.312803024426103">
        <ele>317.37200000000001</ele>
        <time>2011-01-03T13:22:23Z</time>
      </trkpt>
      <trkpt lat="35.162833984941244" lon="-5.313053978607059">
        <ele>311.12400000000002</ele>
        <time>2011-01-03T13:22:32Z</time>
      </trkpt>
      <trkpt lat="35.163390962406993" lon="-5.313199991360307">
        <ele>309.20100000000002</ele>
        <time>2011-01-03T13:22:35Z</time>
      </trkpt>
      <trkpt lat="35.164252035319805" lon="-5.313626965507865">
        <ele>305.83699999999999</ele>
        <time>2011-01-03T13:22:40Z</time>
      </trkpt>
      <trkpt lat="35.164981009438634" lon="-5.313736014068127">
        <ele>303.43299999999999</ele>
        <time>2011-01-03T13:22:44Z</time>
      </trkpt>
      <trkpt lat="35.166912032291293" lon="-5.313921002671123">
        <ele>301.02999999999997</ele>
        <time>2011-01-03T13:22:54Z</time>
      </trkpt>
      <trkpt lat="35.167832029983401" lon="-5.314231971278787">
        <ele>297.185</ele>
        <time>2011-01-03T13:22:59Z</time>
      </trkpt>
      <trkpt lat="35.16920599155128" lon="-5.31473396345973">
        <ele>293.339</ele>
        <time>2011-01-03T13:23:06Z</time>
      </trkpt>
      <trkpt lat="35.170375015586615" lon="-5.314893973991275">
        <ele>291.89699999999999</ele>
        <time>2011-01-03T13:23:12Z</time>
      </trkpt>
      <trkpt lat="35.171296019107103" lon="-5.314549980685115">
        <ele>289.97500000000002</ele>
        <time>2011-01-03T13:23:17Z</time>
      </trkpt>
      <trkpt lat="35.17320298589766" lon="-5.313395038247109">
        <ele>286.61000000000001</ele>
        <time>2011-01-03T13:23:26Z</time>
      </trkpt>
      <trkpt lat="35.174688007682562" lon="-5.312441010028124">
        <ele>288.53300000000002</ele>
        <time>2011-01-03T13:23:34Z</time>
      </trkpt>
      <trkpt lat="35.175814032554626" lon="-5.311797028407455">
        <ele>288.53300000000002</ele>
        <time>2011-01-03T13:23:41Z</time>
      </trkpt>
      <trkpt lat="35.176528003066778" lon="-5.311803985387087">
        <ele>288.05200000000002</ele>
        <time>2011-01-03T13:23:46Z</time>
      </trkpt>
      <trkpt lat="35.177014991641045" lon="-5.312263984233141">
        <ele>285.649</ele>
        <time>2011-01-03T13:23:50Z</time>
      </trkpt>
      <trkpt lat="35.177115993574262" lon="-5.312430029734969">
        <ele>285.16800000000001</ele>
        <time>2011-01-03T13:23:51Z</time>
      </trkpt>
      <trkpt lat="35.178146967664361" lon="-5.313950004056096">
        <ele>285.649</ele>
        <time>2011-01-03T13:24:00Z</time>
      </trkpt>
      <trkpt lat="35.17908800393343" lon="-5.314852986484766">
        <ele>286.61000000000001</ele>
        <time>2011-01-03T13:24:06Z</time>
      </trkpt>
      <trkpt lat="35.17975402995944" lon="-5.31533201225102">
        <ele>286.61000000000001</ele>
        <time>2011-01-03T13:24:10Z</time>
      </trkpt>
      <trkpt lat="35.180946020409465" lon="-5.315770972520113">
        <ele>286.61000000000001</ele>
        <time>2011-01-03T13:24:16Z</time>
      </trkpt>
      <trkpt lat="35.182547969743609" lon="-5.316160982474685">
        <ele>285.16800000000001</ele>
        <time>2011-01-03T13:24:24Z</time>
      </trkpt>
      <trkpt lat="35.183355985209346" lon="-5.315967025235295">
        <ele>283.24599999999998</ele>
        <time>2011-01-03T13:24:29Z</time>
      </trkpt>
      <trkpt lat="35.183504009619355" lon="-5.315843978896737">
        <ele>282.76499999999999</ele>
        <time>2011-01-03T13:24:30Z</time>
      </trkpt>
      <trkpt lat="35.18504099920392" lon="-5.314492983743548">
        <ele>280.36200000000002</ele>
        <time>2011-01-03T13:24:39Z</time>
      </trkpt>
      <trkpt lat="35.186835983768106" lon="-5.312923975288868">
        <ele>276.99700000000001</ele>
        <time>2011-01-03T13:24:48Z</time>
      </trkpt>
      <trkpt lat="35.188538013026118" lon="-5.31142596155405">
        <ele>274.113</ele>
        <time>2011-01-03T13:24:57Z</time>
      </trkpt>
      <trkpt lat="35.189019972458482" lon="-5.311064030975103">
        <ele>274.113</ele>
        <time>2011-01-03T13:25:00Z</time>
      </trkpt>
      <trkpt lat="35.189970983192325" lon="-5.310862027108669">
        <ele>273.63200000000001</ele>
        <time>2011-01-03T13:25:05Z</time>
      </trkpt>
      <trkpt lat="35.191865041851997" lon="-5.310560027137399">
        <ele>272.67099999999999</ele>
        <time>2011-01-03T13:25:14Z</time>
      </trkpt>
      <trkpt lat="35.193601017817855" lon="-5.310330027714372">
        <ele>271.70999999999998</ele>
        <time>2011-01-03T13:25:23Z</time>
      </trkpt>
      <trkpt lat="35.194055987522006" lon="-5.310279987752438">
        <ele>271.22899999999998</ele>
        <time>2011-01-03T13:25:27Z</time>
      </trkpt>
      <trkpt lat="35.194457983598113" lon="-5.310315024107695">
        <ele>270.74799999999999</ele>
        <time>2011-01-03T13:25:33Z</time>
      </trkpt>
      <trkpt lat="35.194571977481246" lon="-5.310365986078978">
        <ele>270.26799999999997</ele>
        <time>2011-01-03T13:25:35Z</time>
      </trkpt>
      <trkpt lat="35.195430032908916" lon="-5.310763036832213">
        <ele>269.30700000000002</ele>
        <time>2011-01-03T13:25:42Z</time>
      </trkpt>
      <trkpt lat="35.195876033976674" lon="-5.310978032648563">
        <ele>270.26799999999997</ele>
        <time>2011-01-03T13:25:45Z</time>
      </trkpt>
      <trkpt lat="35.196786979213357" lon="-5.3110780287534">
        <ele>273.15199999999999</ele>
        <time>2011-01-03T13:25:51Z</time>
      </trkpt>
      <trkpt lat="35.197396008297801" lon="-5.311306016519666">
        <ele>274.59399999999999</ele>
        <time>2011-01-03T13:25:55Z</time>
      </trkpt>
      <trkpt lat="35.197871010750532" lon="-5.311516989022493">
        <ele>274.59399999999999</ele>
        <time>2011-01-03T13:25:58Z</time>
      </trkpt>
      <trkpt lat="35.198916988447309" lon="-5.311926025897265">
        <ele>274.113</ele>
        <time>2011-01-03T13:26:04Z</time>
      </trkpt>
      <trkpt lat="35.1995840203017" lon="-5.31217597424984">
        <ele>274.113</ele>
        <time>2011-01-03T13:26:08Z</time>
      </trkpt>
      <trkpt lat="35.200499994680285" lon="-5.312569001689553">
        <ele>271.70999999999998</ele>
        <time>2011-01-03T13:26:14Z</time>
      </trkpt>
      <trkpt lat="35.201505990698934" lon="-5.313079040497541">
        <ele>268.82600000000002</ele>
        <time>2011-01-03T13:26:20Z</time>
      </trkpt>
      <trkpt lat="35.202377960085869" lon="-5.313653033226728">
        <ele>267.38400000000001</ele>
        <time>2011-01-03T13:26:25Z</time>
      </trkpt>
      <trkpt lat="35.203632982447743" lon="-5.314664980396628">
        <ele>266.90300000000002</ele>
        <time>2011-01-03T13:26:33Z</time>
      </trkpt>
      <trkpt lat="35.205047009512782" lon="-5.315889995545149">
        <ele>267.38400000000001</ele>
        <time>2011-01-03T13:26:42Z</time>
      </trkpt>
      <trkpt lat="35.206304965540767" lon="-5.317027000710368">
        <ele>268.34500000000003</ele>
        <time>2011-01-03T13:26:50Z</time>
      </trkpt>
      <trkpt lat="35.206920029595494" lon="-5.317446012049913">
        <ele>269.78699999999998</ele>
        <time>2011-01-03T13:26:55Z</time>
      </trkpt>
      <trkpt lat="35.207132007926702" lon="-5.317518012598157">
        <ele>270.26799999999997</ele>
        <time>2011-01-03T13:26:58Z</time>
      </trkpt>
      <trkpt lat="35.207553030923009" lon="-5.317663019523025">
        <ele>271.22899999999998</ele>
        <time>2011-01-03T13:27:05Z</time>
      </trkpt>
      <trkpt lat="35.208077989518642" lon="-5.317837027832866">
        <ele>270.74799999999999</ele>
        <time>2011-01-03T13:27:10Z</time>
      </trkpt>
      <trkpt lat="35.208776034414768" lon="-5.317906010895968">
        <ele>269.30700000000002</ele>
        <time>2011-01-03T13:27:15Z</time>
      </trkpt>
      <trkpt lat="35.210377983748913" lon="-5.317694032564759">
        <ele>267.86500000000001</ele>
        <time>2011-01-03T13:27:24Z</time>
      </trkpt>
      <trkpt lat="35.21151197142899" lon="-5.317404018715024">
        <ele>267.86500000000001</ele>
        <time>2011-01-03T13:27:30Z</time>
      </trkpt>
      <trkpt lat="35.213547013700008" lon="-5.316870007663965">
        <ele>266.42200000000003</ele>
        <time>2011-01-03T13:27:40Z</time>
      </trkpt>
      <trkpt lat="35.215885983780026" lon="-5.316123012453318">
        <ele>267.38400000000001</ele>
        <time>2011-01-03T13:27:50Z</time>
      </trkpt>
      <trkpt lat="35.218446990475059" lon="-5.315481964498758">
        <ele>270.74799999999999</ele>
        <time>2011-01-03T13:28:01Z</time>
      </trkpt>
      <trkpt lat="35.219910973683" lon="-5.315165966749191">
        <ele>275.07400000000001</ele>
        <time>2011-01-03T13:28:08Z</time>
      </trkpt>
      <trkpt lat="35.220497036352754" lon="-5.315496968105435">
        <ele>276.036</ele>
        <time>2011-01-03T13:28:13Z</time>
      </trkpt>
      <trkpt lat="35.220857039093971" lon="-5.315778013318777">
        <ele>274.113</ele>
        <time>2011-01-03T13:28:16Z</time>
      </trkpt>
      <trkpt lat="35.221671005710959" lon="-5.31713898293674">
        <ele>272.67099999999999</ele>
        <time>2011-01-03T13:28:23Z</time>
      </trkpt>
      <trkpt lat="35.222654035314918" lon="-5.319144017994404">
        <ele>272.19</ele>
        <time>2011-01-03T13:28:32Z</time>
      </trkpt>
      <trkpt lat="35.223504966124892" lon="-5.320634990930557">
        <ele>274.113</ele>
        <time>2011-01-03T13:28:40Z</time>
      </trkpt>
      <trkpt lat="35.224232012405992" lon="-5.321449041366577">
        <ele>275.07400000000001</ele>
        <time>2011-01-03T13:28:46Z</time>
      </trkpt>
      <trkpt lat="35.224763005971909" lon="-5.321765961125493">
        <ele>276.036</ele>
        <time>2011-01-03T13:28:51Z</time>
      </trkpt>
      <trkpt lat="35.225042961537838" lon="-5.321889007464051">
        <ele>276.036</ele>
        <time>2011-01-03T13:28:53Z</time>
      </trkpt>
      <trkpt lat="35.226836018264294" lon="-5.322067039087415">
        <ele>276.51600000000002</ele>
        <time>2011-01-03T13:29:03Z</time>
      </trkpt>
      <trkpt lat="35.228244010359049" lon="-5.322291003540158">
        <ele>278.43900000000002</ele>
        <time>2011-01-03T13:29:12Z</time>
      </trkpt>
      <trkpt lat="35.229499032720923" lon="-5.322687970474362">
        <ele>278.43900000000002</ele>
        <time>2011-01-03T13:29:21Z</time>
      </trkpt>
      <trkpt lat="35.230693034827709" lon="-5.323362965136766">
        <ele>279.88099999999997</ele>
        <time>2011-01-03T13:29:29Z</time>
      </trkpt>
      <trkpt lat="35.232374025508761" lon="-5.324195036664605">
        <ele>283.24599999999998</ele>
        <time>2011-01-03T13:29:40Z</time>
      </trkpt>
      <trkpt lat="35.232810974121094" lon="-5.324313975870609">
        <ele>284.68799999999999</ele>
        <time>2011-01-03T13:29:43Z</time>
      </trkpt>
      <trkpt lat="35.233418997377157" lon="-5.324313975870609">
        <ele>286.13</ele>
        <time>2011-01-03T13:29:47Z</time>
      </trkpt>
      <trkpt lat="35.234527001157403" lon="-5.323873003944755">
        <ele>287.09100000000001</ele>
        <time>2011-01-03T13:29:54Z</time>
      </trkpt>
      <trkpt lat="35.235913032665849" lon="-5.323897982016206">
        <ele>288.05200000000002</ele>
        <time>2011-01-03T13:30:02Z</time>
      </trkpt>
      <trkpt lat="35.23681903257966" lon="-5.324027985334396">
        <ele>288.05200000000002</ele>
        <time>2011-01-03T13:30:08Z</time>
      </trkpt>
      <trkpt lat="35.238411007449031" lon="-5.3245510160923">
        <ele>289.49400000000003</ele>
        <time>2011-01-03T13:30:19Z</time>
      </trkpt>
      <trkpt lat="35.238886009901762" lon="-5.32474597916007">
        <ele>290.45600000000002</ele>
        <time>2011-01-03T13:30:24Z</time>
      </trkpt>
      <trkpt lat="35.239851018413901" lon="-5.325112016871572">
        <ele>291.41699999999997</ele>
        <time>2011-01-03T13:30:33Z</time>
      </trkpt>
      <trkpt lat="35.240065008401871" lon="-5.325191980227828">
        <ele>291.89699999999999</ele>
        <time>2011-01-03T13:30:35Z</time>
      </trkpt>
      <trkpt lat="35.240517966449261" lon="-5.325372023507953">
        <ele>291.89699999999999</ele>
        <time>2011-01-03T13:30:41Z</time>
      </trkpt>
      <trkpt lat="35.24066498503089" lon="-5.32543396577239">
        <ele>291.89699999999999</ele>
        <time>2011-01-03T13:30:48Z</time>
      </trkpt>
      <trkpt lat="35.241058012470603" lon="-5.325601017102599">
        <ele>293.339</ele>
        <time>2011-01-03T13:30:56Z</time>
      </trkpt>
      <trkpt lat="35.241613984107971" lon="-5.325836967676878">
        <ele>293.81999999999999</ele>
        <time>2011-01-03T13:31:08Z</time>
      </trkpt>
      <trkpt lat="35.24231999181211" lon="-5.32614198513329">
        <ele>293.81999999999999</ele>
        <time>2011-01-03T13:31:18Z</time>
      </trkpt>
      <trkpt lat="35.242745038121939" lon="-5.326472986489534">
        <ele>293.81999999999999</ele>
        <time>2011-01-03T13:31:23Z</time>
      </trkpt>
      <trkpt lat="35.243189027532935" lon="-5.327030969783664">
        <ele>294.78100000000001</ele>
        <time>2011-01-03T13:31:28Z</time>
      </trkpt>
      <trkpt lat="35.243939962238073" lon="-5.328894015401602">
        <ele>298.14600000000002</ele>
        <time>2011-01-03T13:31:41Z</time>
      </trkpt>
      <trkpt lat="35.2444670163095" lon="-5.329919038340449">
        <ele>300.06900000000002</ele>
        <time>2011-01-03T13:31:49Z</time>
      </trkpt>
      <trkpt lat="35.244955010712147" lon="-5.33039596863091">
        <ele>301.51100000000002</ele>
        <time>2011-01-03T13:31:54Z</time>
      </trkpt>
      <trkpt lat="35.245071016252041" lon="-5.330499988049269">
        <ele>301.51100000000002</ele>
        <time>2011-01-03T13:31:55Z</time>
      </trkpt>
      <trkpt lat="35.245765037834644" lon="-5.331122009083629">
        <ele>301.02999999999997</ele>
        <time>2011-01-03T13:32:00Z</time>
      </trkpt>
      <trkpt lat="35.246366020292044" lon="-5.331629030406475">
        <ele>301.51100000000002</ele>
        <time>2011-01-03T13:32:04Z</time>
      </trkpt>
      <trkpt lat="35.247078984975815" lon="-5.332182990387082">
        <ele>303.43299999999999</ele>
        <time>2011-01-03T13:32:09Z</time>
      </trkpt>
      <trkpt lat="35.247964030131698" lon="-5.332899978384376">
        <ele>303.91399999999999</ele>
        <time>2011-01-03T13:32:15Z</time>
      </trkpt>
      <trkpt lat="35.249360958114266" lon="-5.334215015172958">
        <ele>306.31700000000001</ele>
        <time>2011-01-03T13:32:24Z</time>
      </trkpt>
      <trkpt lat="35.250494023784995" lon="-5.33542200922966">
        <ele>307.75900000000001</ele>
        <time>2011-01-03T13:32:31Z</time>
      </trkpt>
      <trkpt lat="35.252135032787919" lon="-5.337138036265969">
        <ele>308.72000000000003</ele>
        <time>2011-01-03T13:32:40Z</time>
      </trkpt>
      <trkpt lat="35.253589041531086" lon="-5.338459024205804">
        <ele>311.60399999999998</ele>
        <time>2011-01-03T13:32:48Z</time>
      </trkpt>
      <trkpt lat="35.255430964753032" lon="-5.340308994054794">
        <ele>318.334</ele>
        <time>2011-01-03T13:33:00Z</time>
      </trkpt>
      <trkpt lat="35.255873026326299" lon="-5.340791959315538">
        <ele>322.66000000000003</ele>
        <time>2011-01-03T13:33:05Z</time>
      </trkpt>
      <trkpt lat="35.256247026845813" lon="-5.341198984533548">
        <ele>324.10199999999998</ele>
        <time>2011-01-03T13:33:11Z</time>
      </trkpt>
      <trkpt lat="35.256924033164978" lon="-5.341938016936183">
        <ele>325.06299999999999</ele>
        <time>2011-01-03T13:33:18Z</time>
      </trkpt>
      <trkpt lat="35.25800596922636" lon="-5.343112992122769">
        <ele>327.947</ele>
        <time>2011-01-03T13:33:27Z</time>
      </trkpt>
      <trkpt lat="35.258925966918468" lon="-5.343872979283333">
        <ele>330.83100000000002</ele>
        <time>2011-01-03T13:33:35Z</time>
      </trkpt>
      <trkpt lat="35.259106010198593" lon="-5.344090992584825">
        <ele>332.27300000000002</ele>
        <time>2011-01-03T13:33:37Z</time>
      </trkpt>
      <trkpt lat="35.259433994069695" lon="-5.344778979197145">
        <ele>334.19499999999999</ele>
        <time>2011-01-03T13:33:42Z</time>
      </trkpt>
      <trkpt lat="35.259787039831281" lon="-5.345852030441165">
        <ele>336.59899999999999</ele>
        <time>2011-01-03T13:33:49Z</time>
      </trkpt>
      <trkpt lat="35.260083004832268" lon="-5.34653096459806">
        <ele>339.00200000000001</ele>
        <time>2011-01-03T13:33:54Z</time>
      </trkpt>
      <trkpt lat="35.260486006736755" lon="-5.34706799313426">
        <ele>340.44400000000002</ele>
        <time>2011-01-03T13:33:59Z</time>
      </trkpt>
      <trkpt lat="35.261700041592121" lon="-5.347715998068452">
        <ele>347.173</ele>
        <time>2011-01-03T13:34:09Z</time>
      </trkpt>
      <trkpt lat="35.262237992137671" lon="-5.34796804189682">
        <ele>350.05700000000002</ele>
        <time>2011-01-03T13:34:14Z</time>
      </trkpt>
      <trkpt lat="35.262485006824136" lon="-5.347988996654749">
        <ele>351.49900000000002</ele>
        <time>2011-01-03T13:34:16Z</time>
      </trkpt>
      <trkpt lat="35.263286987319589" lon="-5.348210027441382">
        <ele>357.267</ele>
        <time>2011-01-03T13:34:22Z</time>
      </trkpt>
      <trkpt lat="35.263642966747284" lon="-5.348459975793958">
        <ele>359.67000000000002</ele>
        <time>2011-01-03T13:34:25Z</time>
      </trkpt>
      <trkpt lat="35.264244033023715" lon="-5.349107980728149">
        <ele>364.47699999999998</ele>
        <time>2011-01-03T13:34:30Z</time>
      </trkpt>
      <trkpt lat="35.264994967728853" lon="-5.349482987076044">
        <ele>370.245</ele>
        <time>2011-01-03T13:34:35Z</time>
      </trkpt>
      <trkpt lat="35.265524033457041" lon="-5.349453985691071">
        <ele>374.57100000000003</ele>
        <time>2011-01-03T13:34:40Z</time>
      </trkpt>
      <trkpt lat="35.26573701761663" lon="-5.349415009841323">
        <ele>376.01299999999998</ele>
        <time>2011-01-03T13:34:42Z</time>
      </trkpt>
      <trkpt lat="35.266542015597224" lon="-5.349046038463712">
        <ele>380.81900000000002</ele>
        <time>2011-01-03T13:34:50Z</time>
      </trkpt>
      <trkpt lat="35.267058005556464" lon="-5.348779996857047">
        <ele>384.66500000000002</ele>
        <time>2011-01-03T13:34:55Z</time>
      </trkpt>
      <trkpt lat="35.267612971365452" lon="-5.348915029317141">
        <ele>388.029</ele>
        <time>2011-01-03T13:35:00Z</time>
      </trkpt>
      <trkpt lat="35.267719002440572" lon="-5.348999015986919">
        <ele>388.50999999999999</ele>
        <time>2011-01-03T13:35:01Z</time>
      </trkpt>
      <trkpt lat="35.268593989312649" lon="-5.350130992010236">
        <ele>392.35500000000002</ele>
        <time>2011-01-03T13:35:09Z</time>
      </trkpt>
      <trkpt lat="35.268985005095601" lon="-5.35031296312809">
        <ele>394.27800000000002</ele>
        <time>2011-01-03T13:35:12Z</time>
      </trkpt>
      <trkpt lat="35.269493032246828" lon="-5.350456964224577">
        <ele>396.20100000000002</ele>
        <time>2011-01-03T13:35:17Z</time>
      </trkpt>
      <trkpt lat="35.269830990582705" lon="-5.35052603110671">
        <ele>397.16199999999998</ele>
        <time>2011-01-03T13:35:20Z</time>
      </trkpt>
      <trkpt lat="35.270385034382343" lon="-5.350594008341432">
        <ele>399.565</ele>
        <time>2011-01-03T13:35:24Z</time>
      </trkpt>
      <trkpt lat="35.271062962710857" lon="-5.350577998906374">
        <ele>402.93000000000001</ele>
        <time>2011-01-03T13:35:29Z</time>
      </trkpt>
      <trkpt lat="35.271737035363913" lon="-5.350540028885007">
        <ele>407.25599999999997</ele>
        <time>2011-01-03T13:35:34Z</time>
      </trkpt>
      <trkpt lat="35.272304993122816" lon="-5.350225036963821">
        <ele>411.101</ele>
        <time>2011-01-03T13:35:39Z</time>
      </trkpt>
      <trkpt lat="35.272427033632994" lon="-5.35016099922359">
        <ele>411.58199999999999</ele>
        <time>2011-01-03T13:35:40Z</time>
      </trkpt>
      <trkpt lat="35.273444009944797" lon="-5.349075039848685">
        <ele>420.233</ele>
        <time>2011-01-03T13:35:48Z</time>
      </trkpt>
      <trkpt lat="35.273848017677665" lon="-5.348512027412653">
        <ele>424.55900000000003</ele>
        <time>2011-01-03T13:35:52Z</time>
      </trkpt>
      <trkpt lat="35.274451011791825" lon="-5.348193012177944">
        <ele>429.36599999999999</ele>
        <time>2011-01-03T13:35:57Z</time>
      </trkpt>
      <trkpt lat="35.275504030287266" lon="-5.34820499829948">
        <ele>437.53699999999998</ele>
        <time>2011-01-03T13:36:04Z</time>
      </trkpt>
      <trkpt lat="35.276024965569377" lon="-5.348543040454388">
        <ele>442.82400000000001</ele>
        <time>2011-01-03T13:36:09Z</time>
      </trkpt>
      <trkpt lat="35.276282038539648" lon="-5.348898014053702">
        <ele>447.14999999999998</ele>
        <time>2011-01-03T13:36:12Z</time>
      </trkpt>
      <trkpt lat="35.276465015485883" lon="-5.349354995414615">
        <ele>450.99599999999998</ele>
        <time>2011-01-03T13:36:16Z</time>
      </trkpt>
      <trkpt lat="35.276672970503569" lon="-5.34992597065866">
        <ele>453.88</ele>
        <time>2011-01-03T13:36:20Z</time>
      </trkpt>
      <trkpt lat="35.276838010177016" lon="-5.350145995616913">
        <ele>455.80200000000002</ele>
        <time>2011-01-03T13:36:22Z</time>
      </trkpt>
      <trkpt lat="35.277765970677137" lon="-5.351022994145751">
        <ele>460.12799999999999</ele>
        <time>2011-01-03T13:36:29Z</time>
      </trkpt>
      <trkpt lat="35.278776995837688" lon="-5.351770995184779">
        <ele>464.935</ele>
        <time>2011-01-03T13:36:36Z</time>
      </trkpt>
      <trkpt lat="35.279150996357203" lon="-5.351956989616156">
        <ele>467.33800000000002</ele>
        <time>2011-01-03T13:36:39Z</time>
      </trkpt>
      <trkpt lat="35.279823979362845" lon="-5.352204004302621">
        <ele>469.26100000000002</ele>
        <time>2011-01-03T13:36:44Z</time>
      </trkpt>
      <trkpt lat="35.280693015083671" lon="-5.352166034281254">
        <ele>472.14499999999998</ele>
        <time>2011-01-03T13:36:49Z</time>
      </trkpt>
      <trkpt lat="35.281391981989145" lon="-5.351769989356399">
        <ele>473.58699999999999</ele>
        <time>2011-01-03T13:36:54Z</time>
      </trkpt>
      <trkpt lat="35.282750017940998" lon="-5.350399967283011">
        <ele>476.95100000000002</ele>
        <time>2011-01-03T13:37:04Z</time>
      </trkpt>
      <trkpt lat="35.283403974026442" lon="-5.349948015064001">
        <ele>479.83499999999998</ele>
        <time>2011-01-03T13:37:09Z</time>
      </trkpt>
      <trkpt lat="35.283863972872496" lon="-5.349656995385885">
        <ele>483.19999999999999</ele>
        <time>2011-01-03T13:37:13Z</time>
      </trkpt>
      <trkpt lat="35.284218024462461" lon="-5.349447028711438">
        <ele>486.56400000000002</ele>
        <time>2011-01-03T13:37:16Z</time>
      </trkpt>
      <trkpt lat="35.284758992493153" lon="-5.349152991548181">
        <ele>490.41000000000003</ele>
        <time>2011-01-03T13:37:20Z</time>
      </trkpt>
      <trkpt lat="35.285309012979269" lon="-5.348917040973902">
        <ele>493.29399999999998</ele>
        <time>2011-01-03T13:37:24Z</time>
      </trkpt>
      <trkpt lat="35.286048967391253" lon="-5.348840011283755">
        <ele>498.10000000000002</ele>
        <time>2011-01-03T13:37:29Z</time>
      </trkpt>
      <trkpt lat="35.286554982885718" lon="-5.348840011283755">
        <ele>501.94600000000003</ele>
        <time>2011-01-03T13:37:32Z</time>
      </trkpt>
      <trkpt lat="35.287335002794862" lon="-5.348840011283755">
        <ele>509.63600000000002</ele>
        <time>2011-01-03T13:37:37Z</time>
      </trkpt>
      <trkpt lat="35.288027012720704" lon="-5.348942019045353">
        <ele>517.327</ele>
        <time>2011-01-03T13:37:42Z</time>
      </trkpt>
      <trkpt lat="35.288843996822834" lon="-5.349418027326465">
        <ele>524.53599999999994</ele>
        <time>2011-01-03T13:37:48Z</time>
      </trkpt>
      <trkpt lat="35.28939401730895" lon="-5.349547024816275">
        <ele>528.38199999999995</ele>
        <time>2011-01-03T13:37:53Z</time>
      </trkpt>
      <trkpt lat="35.289540030062199" lon="-5.349566973745823">
        <ele>529.34299999999996</ele>
        <time>2011-01-03T13:37:54Z</time>
      </trkpt>
      <trkpt lat="35.290879039093852" lon="-5.349334040656686">
        <ele>539.43700000000001</ele>
        <time>2011-01-03T13:38:02Z</time>
      </trkpt>
      <trkpt lat="35.291762994602323" lon="-5.349244019016624">
        <ele>545.68600000000004</ele>
        <time>2011-01-03T13:38:07Z</time>
      </trkpt>
      <trkpt lat="35.292772008106112" lon="-5.349313002079725">
        <ele>552.89499999999998</ele>
        <time>2011-01-03T13:38:13Z</time>
      </trkpt>
      <trkpt lat="35.292912991717458" lon="-5.349400006234646">
        <ele>553.85699999999997</ele>
        <time>2011-01-03T13:38:14Z</time>
      </trkpt>
      <trkpt lat="35.29349603690207" lon="-5.349755985662341">
        <ele>557.221</ele>
        <time>2011-01-03T13:38:18Z</time>
      </trkpt>
      <trkpt lat="35.294676963239908" lon="-5.350455036386848">
        <ele>564.91200000000003</ele>
        <time>2011-01-03T13:38:26Z</time>
      </trkpt>
      <trkpt lat="35.294992960989475" lon="-5.350529970601201">
        <ele>566.83399999999995</ele>
        <time>2011-01-03T13:38:28Z</time>
      </trkpt>
      <trkpt lat="35.29562302865088" lon="-5.350679000839591">
        <ele>569.71900000000005</ele>
        <time>2011-01-03T13:38:32Z</time>
      </trkpt>
      <trkpt lat="35.296652996912599" lon="-5.350728034973145">
        <ele>574.04399999999998</ele>
        <time>2011-01-03T13:38:38Z</time>
      </trkpt>
      <trkpt lat="35.297260014340281" lon="-5.350686963647604">
        <ele>575.96699999999998</ele>
        <time>2011-01-03T13:38:42Z</time>
      </trkpt>
      <trkpt lat="35.297529995441437" lon="-5.350666008889675">
        <ele>577.40899999999999</ele>
        <time>2011-01-03T13:38:44Z</time>
      </trkpt>
      <trkpt lat="35.298127960413694" lon="-5.350544974207878">
        <ele>578.851</ele>
        <time>2011-01-03T13:38:49Z</time>
      </trkpt>
      <trkpt lat="35.298271961510181" lon="-5.350498035550118">
        <ele>578.851</ele>
        <time>2011-01-03T13:38:50Z</time>
      </trkpt>
      <trkpt lat="35.298879984766245" lon="-5.350285973399878">
        <ele>575.96699999999998</ele>
        <time>2011-01-03T13:38:54Z</time>
      </trkpt>
      <trkpt lat="35.299845999106765" lon="-5.349871991202235">
        <ele>575.00599999999997</ele>
        <time>2011-01-03T13:39:00Z</time>
      </trkpt>
      <trkpt lat="35.301017034798861" lon="-5.349218035116792">
        <ele>573.08299999999997</ele>
        <time>2011-01-03T13:39:08Z</time>
      </trkpt>
      <trkpt lat="35.301578035578132" lon="-5.349036986008287">
        <ele>572.12199999999996</ele>
        <time>2011-01-03T13:39:12Z</time>
      </trkpt>
      <trkpt lat="35.302279014140368" lon="-5.349035980179906">
        <ele>570.19899999999996</ele>
        <time>2011-01-03T13:39:17Z</time>
      </trkpt>
      <trkpt lat="35.303611988201737" lon="-5.349460020661354">
        <ele>568.75699999999995</ele>
        <time>2011-01-03T13:39:25Z</time>
      </trkpt>
      <trkpt lat="35.304844966158271" lon="-5.350005012005568">
        <ele>568.27599999999995</ele>
        <time>2011-01-03T13:39:33Z</time>
      </trkpt>
      <trkpt lat="35.305810980498791" lon="-5.350508010014892">
        <ele>569.71900000000005</ele>
        <time>2011-01-03T13:39:40Z</time>
      </trkpt>
      <trkpt lat="35.306610027328134" lon="-5.350990975275636">
        <ele>570.19899999999996</ele>
        <time>2011-01-03T13:39:46Z</time>
      </trkpt>
      <trkpt lat="35.307009005919099" lon="-5.351265985518694">
        <ele>570.67999999999995</ele>
        <time>2011-01-03T13:39:49Z</time>
      </trkpt>
      <trkpt lat="35.307767987251282" lon="-5.351721961051226">
        <ele>571.64099999999996</ele>
        <time>2011-01-03T13:39:55Z</time>
      </trkpt>
      <trkpt lat="35.307875024154782" lon="-5.351767977699637">
        <ele>572.12199999999996</ele>
        <time>2011-01-03T13:39:56Z</time>
      </trkpt>
      <trkpt lat="35.308371987193823" lon="-5.351940980181098">
        <ele>572.12199999999996</ele>
        <time>2011-01-03T13:40:01Z</time>
      </trkpt>
      <trkpt lat="35.309173967689276" lon="-5.351827992126346">
        <ele>574.04399999999998</ele>
        <time>2011-01-03T13:40:09Z</time>
      </trkpt>
      <trkpt lat="35.309402039274573" lon="-5.351809971034527">
        <ele>575.00599999999997</ele>
        <time>2011-01-03T13:40:12Z</time>
      </trkpt>
      <trkpt lat="35.310035040602088" lon="-5.352009041234851">
        <ele>576.44799999999998</ele>
        <time>2011-01-03T13:40:18Z</time>
      </trkpt>
      <trkpt lat="35.310133025050163" lon="-5.352039970457554">
        <ele>576.928</ele>
        <time>2011-01-03T13:40:19Z</time>
      </trkpt>
      <trkpt lat="35.311219990253448" lon="-5.352790988981724">
        <ele>582.69600000000003</ele>
        <time>2011-01-03T13:40:29Z</time>
      </trkpt>
      <trkpt lat="35.311508998274803" lon="-5.353079997003079">
        <ele>585.10000000000002</ele>
        <time>2011-01-03T13:40:32Z</time>
      </trkpt>
      <trkpt lat="35.311964973807335" lon="-5.353500014171004">
        <ele>589.42600000000004</ele>
        <time>2011-01-03T13:40:37Z</time>
      </trkpt>
      <trkpt lat="35.312916990369558" lon="-5.354041988030076">
        <ele>596.63499999999999</ele>
        <time>2011-01-03T13:40:45Z</time>
      </trkpt>
      <trkpt lat="35.314003033563495" lon="-5.354567030444741">
        <ele>603.84500000000003</ele>
        <time>2011-01-03T13:40:54Z</time>
      </trkpt>
      <trkpt lat="35.315356962382793" lon="-5.355158038437367">
        <ele>604.32600000000002</ele>
        <time>2011-01-03T13:41:04Z</time>
      </trkpt>
      <trkpt lat="35.316693037748337" lon="-5.355646032840014">
        <ele>604.32600000000002</ele>
        <time>2011-01-03T13:41:14Z</time>
      </trkpt>
      <trkpt lat="35.317630972713232" lon="-5.355907967314124">
        <ele>607.21000000000004</ele>
        <time>2011-01-03T13:41:22Z</time>
      </trkpt>
      <trkpt lat="35.318561028689146" lon="-5.356328990310431">
        <ele>609.61300000000006</ele>
        <time>2011-01-03T13:41:31Z</time>
      </trkpt>
      <trkpt lat="35.319220013916492" lon="-5.356726041063666">
        <ele>611.05499999999995</ele>
        <time>2011-01-03T13:41:40Z</time>
      </trkpt>
      <trkpt lat="35.320221986621618" lon="-5.357128959149122">
        <ele>610.57399999999996</ele>
        <time>2011-01-03T13:41:49Z</time>
      </trkpt>
      <trkpt lat="35.321422023698688" lon="-5.357582001015544">
        <ele>608.17100000000005</ele>
        <time>2011-01-03T13:41:58Z</time>
      </trkpt>
      <trkpt lat="35.322866979986429" lon="-5.358293959870935">
        <ele>608.17100000000005</ele>
        <time>2011-01-03T13:42:07Z</time>
      </trkpt>
      <trkpt lat="35.324752992019057" lon="-5.35879603587091">
        <ele>612.49699999999996</ele>
        <time>2011-01-03T13:42:18Z</time>
      </trkpt>
      <trkpt lat="35.326647972688079" lon="-5.359108010306954">
        <ele>616.34199999999998</ele>
        <time>2011-01-03T13:42:28Z</time>
      </trkpt>
      <trkpt lat="35.328739006072283" lon="-5.359555017203093">
        <ele>622.11000000000001</ele>
        <time>2011-01-03T13:42:40Z</time>
      </trkpt>
      <trkpt lat="35.330701963976026" lon="-5.360042005777359">
        <ele>622.11000000000001</ele>
        <time>2011-01-03T13:42:50Z</time>
      </trkpt>
      <trkpt lat="35.332752009853721" lon="-5.360550032928586">
        <ele>624.51400000000001</ele>
        <time>2011-01-03T13:43:00Z</time>
      </trkpt>
      <trkpt lat="35.334988972172141" lon="-5.360726974904537">
        <ele>631.72299999999996</ele>
        <time>2011-01-03T13:43:11Z</time>
      </trkpt>
      <trkpt lat="35.336209964007139" lon="-5.361043978482485">
        <ele>639.89499999999998</ele>
        <time>2011-01-03T13:43:18Z</time>
      </trkpt>
      <trkpt lat="35.336804995313287" lon="-5.36148302257061">
        <ele>645.18200000000002</ele>
        <time>2011-01-03T13:43:23Z</time>
      </trkpt>
      <trkpt lat="35.337474038824439" lon="-5.362216020002961">
        <ele>651.42999999999995</ele>
        <time>2011-01-03T13:43:31Z</time>
      </trkpt>
      <trkpt lat="35.338107962161303" lon="-5.362873999401927">
        <ele>657.19799999999998</ele>
        <time>2011-01-03T13:43:39Z</time>
      </trkpt>
      <trkpt lat="35.338512975722551" lon="-5.363215981051326">
        <ele>660.56299999999999</ele>
        <time>2011-01-03T13:43:45Z</time>
      </trkpt>
      <trkpt lat="35.338902985677123" lon="-5.363522004336119">
        <ele>662.005</ele>
        <time>2011-01-03T13:43:50Z</time>
      </trkpt>
      <trkpt lat="35.339684011414647" lon="-5.364121980965138">
        <ele>655.27599999999995</ele>
        <time>2011-01-03T13:43:56Z</time>
      </trkpt>
      <trkpt lat="35.340683972463012" lon="-5.364861013367772">
        <ele>646.62400000000002</ele>
        <time>2011-01-03T13:44:03Z</time>
      </trkpt>
      <trkpt lat="35.34147597849369" lon="-5.365582024678588">
        <ele>638.45299999999997</ele>
        <time>2011-01-03T13:44:11Z</time>
      </trkpt>
      <trkpt lat="35.341544961556792" lon="-5.365680009126663">
        <ele>637.97199999999998</ele>
        <time>2011-01-03T13:44:12Z</time>
      </trkpt>
      <trkpt lat="35.34186196513474" lon="-5.366131961345673">
        <ele>634.60699999999997</ele>
        <time>2011-01-03T13:44:17Z</time>
      </trkpt>
      <trkpt lat="35.341949975118041" lon="-5.366259030997753">
        <ele>634.12699999999995</ele>
        <time>2011-01-03T13:44:19Z</time>
      </trkpt>
      <trkpt lat="35.342024993151426" lon="-5.366862025111914">
        <ele>628.35900000000004</ele>
        <time>2011-01-03T13:44:27Z</time>
      </trkpt>
      <trkpt lat="35.342094982042909" lon="-5.368015039712191">
        <ele>622.59100000000001</ele>
        <time>2011-01-03T13:44:35Z</time>
      </trkpt>
      <trkpt lat="35.34216002561152" lon="-5.368332965299487">
        <ele>622.11000000000001</ele>
        <time>2011-01-03T13:44:37Z</time>
      </trkpt>
      <trkpt lat="35.342389019206166" lon="-5.368901006877422">
        <ele>620.18799999999999</ele>
        <time>2011-01-03T13:44:42Z</time>
      </trkpt>
      <trkpt lat="35.342654976993799" lon="-5.369062023237348">
        <ele>619.226</ele>
        <time>2011-01-03T13:44:45Z</time>
      </trkpt>
      <trkpt lat="35.342927975580096" lon="-5.369133017957211">
        <ele>617.78399999999999</ele>
        <time>2011-01-03T13:44:47Z</time>
      </trkpt>
      <trkpt lat="35.343561982735991" lon="-5.369083983823657">
        <ele>616.82299999999998</ele>
        <time>2011-01-03T13:44:52Z</time>
      </trkpt>
      <trkpt lat="35.343682011589408" lon="-5.36902598105371">
        <ele>616.34199999999998</ele>
        <time>2011-01-03T13:44:53Z</time>
      </trkpt>
      <trkpt lat="35.345043987035751" lon="-5.368104977533221">
        <ele>611.53599999999994</ele>
        <time>2011-01-03T13:45:05Z</time>
      </trkpt>
      <trkpt lat="35.346118966117501" lon="-5.367742963135243">
        <ele>606.24900000000002</ele>
        <time>2011-01-03T13:45:13Z</time>
      </trkpt>
      <trkpt lat="35.346660017967224" lon="-5.367559986189008">
        <ele>603.36500000000001</ele>
        <time>2011-01-03T13:45:18Z</time>
      </trkpt>
      <trkpt lat="35.346764037385583" lon="-5.367525033652782">
        <ele>602.40300000000002</ele>
        <time>2011-01-03T13:45:19Z</time>
      </trkpt>
      <trkpt lat="35.347346998751163" lon="-5.367407016456127">
        <ele>599.51900000000001</ele>
        <time>2011-01-03T13:45:25Z</time>
      </trkpt>
      <trkpt lat="35.347786964848638" lon="-5.367297967895865">
        <ele>596.15499999999997</ele>
        <time>2011-01-03T13:45:31Z</time>
      </trkpt>
      <trkpt lat="35.347953010350466" lon="-5.36724298261106">
        <ele>595.67399999999998</ele>
        <time>2011-01-03T13:45:33Z</time>
      </trkpt>
      <trkpt lat="35.348120983690023" lon="-5.367183974012733">
        <ele>595.67399999999998</ele>
        <time>2011-01-03T13:45:35Z</time>
      </trkpt>
      <trkpt lat="35.348517028614879" lon="-5.367032010108233">
        <ele>594.71299999999997</ele>
        <time>2011-01-03T13:45:39Z</time>
      </trkpt>
      <trkpt lat="35.349649004638195" lon="-5.366712994873524">
        <ele>589.42600000000004</ele>
        <time>2011-01-03T13:45:47Z</time>
      </trkpt>
      <trkpt lat="35.350048989057541" lon="-5.36674995906651">
        <ele>587.98299999999995</ele>
        <time>2011-01-03T13:45:50Z</time>
      </trkpt>
      <trkpt lat="35.350377978757024" lon="-5.367095964029431">
        <ele>585.10000000000002</ele>
        <time>2011-01-03T13:45:55Z</time>
      </trkpt>
      <trkpt lat="35.350542012602091" lon="-5.367407016456127">
        <ele>583.17700000000002</ele>
        <time>2011-01-03T13:45:58Z</time>
      </trkpt>
      <trkpt lat="35.35056103952229" lon="-5.367554035037756">
        <ele>582.21600000000001</ele>
        <time>2011-01-03T13:45:59Z</time>
      </trkpt>
      <trkpt lat="35.35064703784883" lon="-5.368081005290151">
        <ele>578.37</ele>
        <time>2011-01-03T13:46:03Z</time>
      </trkpt>
      <trkpt lat="35.350820040330291" lon="-5.368714006617665">
        <ele>575.48599999999999</ele>
        <time>2011-01-03T13:46:08Z</time>
      </trkpt>
      <trkpt lat="35.350871002301574" lon="-5.368903018534184">
        <ele>573.08299999999997</ele>
        <time>2011-01-03T13:46:10Z</time>
      </trkpt>
      <trkpt lat="35.352297015488148" lon="-5.369706004858017">
        <ele>563.47000000000003</ele>
        <time>2011-01-03T13:46:23Z</time>
      </trkpt>
      <trkpt lat="35.353049039840698" lon="-5.369873978197575">
        <ele>559.14400000000001</ele>
        <time>2011-01-03T13:46:29Z</time>
      </trkpt>
      <trkpt lat="35.354103986173868" lon="-5.370196010917425">
        <ele>553.37599999999998</ele>
        <time>2011-01-03T13:46:37Z</time>
      </trkpt>
      <trkpt lat="35.354227032512426" lon="-5.370234986767173">
        <ele>552.41499999999996</ele>
        <time>2011-01-03T13:46:38Z</time>
      </trkpt>
      <trkpt lat="35.354744028300047" lon="-5.370401032269001">
        <ele>548.56899999999996</ele>
        <time>2011-01-03T13:46:42Z</time>
      </trkpt>
      <trkpt lat="35.355419022962451" lon="-5.3707430139184">
        <ele>544.24400000000003</ele>
        <time>2011-01-03T13:46:47Z</time>
      </trkpt>
      <trkpt lat="35.356144979596138" lon="-5.371141992509365">
        <ele>540.87900000000002</ele>
        <time>2011-01-03T13:46:53Z</time>
      </trkpt>
      <trkpt lat="35.356659963726997" lon="-5.37145203910768">
        <ele>538.95600000000002</ele>
        <time>2011-01-03T13:46:57Z</time>
      </trkpt>
      <trkpt lat="35.358120007440448" lon="-5.372372958809137">
        <ele>533.18799999999999</ele>
        <time>2011-01-03T13:47:08Z</time>
      </trkpt>
      <trkpt lat="35.359077975153923" lon="-5.372816026210785">
        <ele>529.34299999999996</ele>
        <time>2011-01-03T13:47:15Z</time>
      </trkpt>
      <trkpt lat="35.359420040622354" lon="-5.372885009273887">
        <ele>527.90099999999995</ele>
        <time>2011-01-03T13:47:18Z</time>
      </trkpt>
      <trkpt lat="35.359941981732845" lon="-5.372746037319303">
        <ele>525.97799999999995</ele>
        <time>2011-01-03T13:47:22Z</time>
      </trkpt>
      <trkpt lat="35.361171020194888" lon="-5.372157962992787">
        <ele>522.13300000000004</ele>
        <time>2011-01-03T13:47:32Z</time>
      </trkpt>
      <trkpt lat="35.36194802261889" lon="-5.37130200304091">
        <ele>520.21100000000001</ele>
        <time>2011-01-03T13:47:39Z</time>
      </trkpt>
      <trkpt lat="35.363426003605127" lon="-5.370512008666992">
        <ele>514.44299999999998</ele>
        <time>2011-01-03T13:47:50Z</time>
      </trkpt>
      <trkpt lat="35.363722974434495" lon="-5.370474960654974">
        <ele>513.00099999999998</ele>
        <time>2011-01-03T13:47:53Z</time>
      </trkpt>
      <trkpt lat="35.364215997979045" lon="-5.370488958433271">
        <ele>509.15499999999997</ele>
        <time>2011-01-03T13:47:58Z</time>
      </trkpt>
      <trkpt lat="35.36521696485579" lon="-5.37085298448801">
        <ele>502.90699999999998</ele>
        <time>2011-01-03T13:48:05Z</time>
      </trkpt>
      <trkpt lat="35.366119025275111" lon="-5.37169000133872">
        <ele>501.46499999999997</ele>
        <time>2011-01-03T13:48:13Z</time>
      </trkpt>
      <trkpt lat="35.36656703799963" lon="-5.372151006013155">
        <ele>500.02300000000002</ele>
        <time>2011-01-03T13:48:18Z</time>
      </trkpt>
      <trkpt lat="35.366985965520144" lon="-5.3727219812572">
        <ele>498.10000000000002</ele>
        <time>2011-01-03T13:48:24Z</time>
      </trkpt>
      <trkpt lat="35.367378992959857" lon="-5.372919039800763">
        <ele>497.13900000000001</ele>
        <time>2011-01-03T13:48:29Z</time>
      </trkpt>
      <trkpt lat="35.367673030123115" lon="-5.373051976785064">
        <ele>496.178</ele>
        <time>2011-01-03T13:48:32Z</time>
      </trkpt>
      <trkpt lat="35.368217015638947" lon="-5.373145015910268">
        <ele>494.255</ele>
        <time>2011-01-03T13:48:36Z</time>
      </trkpt>
      <trkpt lat="35.36884599365294" lon="-5.3731519728899">
        <ele>491.85199999999998</ele>
        <time>2011-01-03T13:48:41Z</time>
      </trkpt>
      <trkpt lat="35.36914698779583" lon="-5.373138980939984">
        <ele>491.37099999999998</ele>
        <time>2011-01-03T13:48:44Z</time>
      </trkpt>
      <trkpt lat="35.369549989700317" lon="-5.373226990923286">
        <ele>488.00599999999997</ele>
        <time>2011-01-03T13:48:49Z</time>
      </trkpt>
      <trkpt lat="35.36992097273469" lon="-5.373481968417764">
        <ele>484.642</ele>
        <time>2011-01-03T13:48:53Z</time>
      </trkpt>
      <trkpt lat="35.370015017688274" lon="-5.373584982007742">
        <ele>484.161</ele>
        <time>2011-01-03T13:48:54Z</time>
      </trkpt>
      <trkpt lat="35.370431011542678" lon="-5.373989995568991">
        <ele>480.79700000000003</ele>
        <time>2011-01-03T13:48:59Z</time>
      </trkpt>
      <trkpt lat="35.370791014283895" lon="-5.374172972515225">
        <ele>477.91199999999998</ele>
        <time>2011-01-03T13:49:04Z</time>
      </trkpt>
      <trkpt lat="35.371049009263515" lon="-5.374365001916885">
        <ele>477.43200000000002</ele>
        <time>2011-01-03T13:49:08Z</time>
      </trkpt>
      <trkpt lat="35.371333993971348" lon="-5.374253019690514">
        <ele>478.87400000000002</ele>
        <time>2011-01-03T13:49:11Z</time>
      </trkpt>
      <trkpt lat="35.371289988979697" lon="-5.373440980911255">
        <ele>478.87400000000002</ele>
        <time>2011-01-03T13:49:15Z</time>
      </trkpt>
      <trkpt lat="35.372114013880491" lon="-5.37338700145483">
        <ele>479.35399999999998</ele>
        <time>2011-01-03T13:49:20Z</time>
      </trkpt>
      <trkpt lat="35.372634027153254" lon="-5.372943012043834">
        <ele>479.35399999999998</ele>
        <time>2011-01-03T13:49:26Z</time>
      </trkpt>
      <trkpt lat="35.373064018785954" lon="-5.37272097542882">
        <ele>478.87400000000002</ele>
        <time>2011-01-03T13:49:30Z</time>
      </trkpt>
      <trkpt lat="35.373665001243353" lon="-5.37259298376739">
        <ele>478.87400000000002</ele>
        <time>2011-01-03T13:49:35Z</time>
      </trkpt>
      <trkpt lat="35.374080995097756" lon="-5.372572029009461">
        <ele>479.35399999999998</ele>
        <time>2011-01-03T13:49:38Z</time>
      </trkpt>
      <trkpt lat="35.374627998098731" lon="-5.372729022055864">
        <ele>478.39299999999997</ele>
        <time>2011-01-03T13:49:42Z</time>
      </trkpt>
      <trkpt lat="35.375757962465286" lon="-5.373704005032778">
        <ele>475.50900000000001</ele>
        <time>2011-01-03T13:49:51Z</time>
      </trkpt>
      <trkpt lat="35.376595985144377" lon="-5.374354021623731">
        <ele>474.06700000000001</ele>
        <time>2011-01-03T13:49:58Z</time>
      </trkpt>
      <trkpt lat="35.376951964572072" lon="-5.374545967206359">
        <ele>474.06700000000001</ele>
        <time>2011-01-03T13:50:01Z</time>
      </trkpt>
      <trkpt lat="35.377566022798419" lon="-5.374544961377978">
        <ele>472.625</ele>
        <time>2011-01-03T13:50:06Z</time>
      </trkpt>
      <trkpt lat="35.377813959494233" lon="-5.374405989423394">
        <ele>472.14499999999998</ele>
        <time>2011-01-03T13:50:08Z</time>
      </trkpt>
      <trkpt lat="35.378883993253112" lon="-5.373566960915923">
        <ele>465.416</ele>
        <time>2011-01-03T13:50:17Z</time>
      </trkpt>
      <trkpt lat="35.380113031715155" lon="-5.372599018737674">
        <ele>454.84100000000001</ele>
        <time>2011-01-03T13:50:27Z</time>
      </trkpt>
      <trkpt lat="35.380460964515805" lon="-5.372518971562386">
        <ele>451.95699999999999</ele>
        <time>2011-01-03T13:50:30Z</time>
      </trkpt>
      <trkpt lat="35.380916018038988" lon="-5.372426016256213">
        <ele>447.63099999999997</ele>
        <time>2011-01-03T13:50:35Z</time>
      </trkpt>
      <trkpt lat="35.381225980818272" lon="-5.372680993750691">
        <ele>446.18900000000002</ele>
        <time>2011-01-03T13:50:38Z</time>
      </trkpt>
      <trkpt lat="35.381817994639277" lon="-5.373337967321277">
        <ele>446.67000000000002</ele>
        <time>2011-01-03T13:50:45Z</time>
      </trkpt>
      <trkpt lat="35.382273970171809" lon="-5.373481968417764">
        <ele>447.63099999999997</ele>
        <time>2011-01-03T13:50:50Z</time>
      </trkpt>
      <trkpt lat="35.382455019280314" lon="-5.37353896535933">
        <ele>448.11200000000002</ele>
        <time>2011-01-03T13:50:52Z</time>
      </trkpt>
      <trkpt lat="35.382947959005833" lon="-5.373647008091211">
        <ele>449.07299999999998</ele>
        <time>2011-01-03T13:50:57Z</time>
      </trkpt>
      <trkpt lat="35.383516000583768" lon="-5.373804001137614">
        <ele>447.63099999999997</ele>
        <time>2011-01-03T13:51:02Z</time>
      </trkpt>
      <trkpt lat="35.383646003901958" lon="-5.373885976150632">
        <ele>447.14999999999998</ele>
        <time>2011-01-03T13:51:03Z</time>
      </trkpt>
      <trkpt lat="35.385154997929931" lon="-5.374510008841753">
        <ele>438.49900000000002</ele>
        <time>2011-01-03T13:51:14Z</time>
      </trkpt>
      <trkpt lat="35.385791016742587" lon="-5.374716036021709">
        <ele>434.65300000000002</ele>
        <time>2011-01-03T13:51:22Z</time>
      </trkpt>
      <trkpt lat="35.386317986994982" lon="-5.374612016603351">
        <ele>433.69200000000001</ele>
        <time>2011-01-03T13:51:27Z</time>
      </trkpt>
      <trkpt lat="35.386428041383624" lon="-5.37458997219801">
        <ele>433.21100000000001</ele>
        <time>2011-01-03T13:51:28Z</time>
      </trkpt>
      <trkpt lat="35.38749698549509" lon="-5.374212032184005">
        <ele>430.327</ele>
        <time>2011-01-03T13:51:39Z</time>
      </trkpt>
      <trkpt lat="35.38837599568069" lon="-5.373745998367667">
        <ele>425.52100000000002</ele>
        <time>2011-01-03T13:51:48Z</time>
      </trkpt>
      <trkpt lat="35.388689981773496" lon="-5.37357802502811">
        <ele>424.55900000000003</ele>
        <time>2011-01-03T13:51:52Z</time>
      </trkpt>
      <trkpt lat="35.389380985870957" lon="-5.37321500480175">
        <ele>420.233</ele>
        <time>2011-01-03T13:51:58Z</time>
      </trkpt>
      <trkpt lat="35.390456970781088" lon="-5.372909987345338">
        <ele>413.024</ele>
        <time>2011-01-03T13:52:05Z</time>
      </trkpt>
      <trkpt lat="35.391476964578032" lon="-5.372724998742342">
        <ele>406.77499999999998</ele>
        <time>2011-01-03T13:52:11Z</time>
      </trkpt>
      <trkpt lat="35.392957041040063" lon="-5.37233498878777">
        <ele>396.68099999999998</ele>
        <time>2011-01-03T13:52:19Z</time>
      </trkpt>
      <trkpt lat="35.394325973466039" lon="-5.371834002435207">
        <ele>388.029</ele>
        <time>2011-01-03T13:52:28Z</time>
      </trkpt>
      <trkpt lat="35.395174976438284" lon="-5.371576007455587">
        <ele>383.22300000000001</ele>
        <time>2011-01-03T13:52:35Z</time>
      </trkpt>
      <trkpt lat="35.395651990547776" lon="-5.371455978602171">
        <ele>377.935</ele>
        <time>2011-01-03T13:52:41Z</time>
      </trkpt>
      <trkpt lat="35.396707020699978" lon="-5.371181974187493">
        <ele>368.803</ele>
        <time>2011-01-03T13:52:55Z</time>
      </trkpt>
      <trkpt lat="35.397728020325303" lon="-5.370871005579829">
        <ele>359.67000000000002</ele>
        <time>2011-01-03T13:53:08Z</time>
      </trkpt>
      <trkpt lat="35.398150971159339" lon="-5.370886009186506">
        <ele>354.86399999999998</ele>
        <time>2011-01-03T13:53:15Z</time>
      </trkpt>
      <trkpt lat="35.398364961147308" lon="-5.371021963655949">
        <ele>352.94099999999997</ele>
        <time>2011-01-03T13:53:18Z</time>
      </trkpt>
      <trkpt lat="35.398920010775328" lon="-5.37168899551034">
        <ele>346.69299999999998</ele>
        <time>2011-01-03T13:53:29Z</time>
      </trkpt>
      <trkpt lat="35.399246988818049" lon="-5.37224798463285">
        <ele>341.88600000000002</ele>
        <time>2011-01-03T13:53:37Z</time>
      </trkpt>
      <trkpt lat="35.399805977940559" lon="-5.373125988990068">
        <ele>335.15699999999998</ele>
        <time>2011-01-03T13:53:47Z</time>
      </trkpt>
      <trkpt lat="35.400423975661397" lon="-5.373920006677508">
        <ele>328.90800000000002</ele>
        <time>2011-01-03T13:53:58Z</time>
      </trkpt>
      <trkpt lat="35.400863019749522" lon="-5.374311022460461">
        <ele>325.54399999999998</ele>
        <time>2011-01-03T13:54:05Z</time>
      </trkpt>
      <trkpt lat="35.401622001081705" lon="-5.374605981633067">
        <ele>320.25599999999997</ele>
        <time>2011-01-03T13:54:14Z</time>
      </trkpt>
      <trkpt lat="35.402250979095697" lon="-5.374856013804674">
        <ele>315.44999999999999</ele>
        <time>2011-01-03T13:54:22Z</time>
      </trkpt>
      <trkpt lat="35.402554990723729" lon="-5.374978976324201">
        <ele>314.96899999999999</ele>
        <time>2011-01-03T13:54:26Z</time>
      </trkpt>
      <trkpt lat="35.403058994561434" lon="-5.375171005725861">
        <ele>312.56599999999997</ele>
        <time>2011-01-03T13:54:34Z</time>
      </trkpt>
      <trkpt lat="35.40320098400116" lon="-5.375209981575608">
        <ele>312.08499999999998</ele>
        <time>2011-01-03T13:54:36Z</time>
      </trkpt>
      <trkpt lat="35.403540031984448" lon="-5.375302014872432">
        <ele>310.64299999999997</ele>
        <time>2011-01-03T13:54:40Z</time>
      </trkpt>
      <trkpt lat="35.404438991099596" lon="-5.375523967668414">
        <ele>302.47199999999998</ele>
        <time>2011-01-03T13:54:49Z</time>
      </trkpt>
      <trkpt lat="35.405314983800054" lon="-5.375669980421662">
        <ele>296.22399999999999</ele>
        <time>2011-01-03T13:54:59Z</time>
      </trkpt>
      <trkpt lat="35.406193993985653" lon="-5.376040041446686">
        <ele>290.45600000000002</ele>
        <time>2011-01-03T13:55:11Z</time>
      </trkpt>
      <trkpt lat="35.406969990581274" lon="-5.376419993117452">
        <ele>284.68799999999999</ele>
        <time>2011-01-03T13:55:22Z</time>
      </trkpt>
      <trkpt lat="35.407170988619328" lon="-5.376504985615611">
        <ele>283.726</ele>
        <time>2011-01-03T13:55:24Z</time>
      </trkpt>
      <trkpt lat="35.407428983598948" lon="-5.37654597312212">
        <ele>281.80399999999997</ele>
        <time>2011-01-03T13:55:28Z</time>
      </trkpt>
      <trkpt lat="35.408256025984883" lon="-5.37729799747467">
        <ele>273.63200000000001</ele>
        <time>2011-01-03T13:55:41Z</time>
      </trkpt>
      <trkpt lat="35.408630026504397" lon="-5.378503985702992">
        <ele>266.42200000000003</ele>
        <time>2011-01-03T13:55:54Z</time>
      </trkpt>
      <trkpt lat="35.408690040931106" lon="-5.379160037264228">
        <ele>263.53899999999999</ele>
        <time>2011-01-03T13:56:00Z</time>
      </trkpt>
      <trkpt lat="35.408710995689034" lon="-5.379305966198444">
        <ele>263.05799999999999</ele>
        <time>2011-01-03T13:56:01Z</time>
      </trkpt>
      <trkpt lat="35.408892966806889" lon="-5.379902003332973">
        <ele>259.21300000000002</ele>
        <time>2011-01-03T13:56:08Z</time>
      </trkpt>
      <trkpt lat="35.409089019522071" lon="-5.380547996610403">
        <ele>256.80900000000003</ele>
        <time>2011-01-03T13:56:14Z</time>
      </trkpt>
      <trkpt lat="35.409295968711376" lon="-5.380775984376669">
        <ele>254.887</ele>
        <time>2011-01-03T13:56:18Z</time>
      </trkpt>
      <trkpt lat="35.410318979993463" lon="-5.381223997101188">
        <ele>252.964</ele>
        <time>2011-01-03T13:56:29Z</time>
      </trkpt>
      <trkpt lat="35.410659033805132" lon="-5.381458019837737">
        <ele>252.00299999999999</ele>
        <time>2011-01-03T13:56:33Z</time>
      </trkpt>
      <trkpt lat="35.411098999902606" lon="-5.381845012307167">
        <ele>249.59899999999999</ele>
        <time>2011-01-03T13:56:38Z</time>
      </trkpt>
      <trkpt lat="35.412021009251475" lon="-5.382966008037329">
        <ele>242.87</ele>
        <time>2011-01-03T13:56:46Z</time>
      </trkpt>
      <trkpt lat="35.413122978061438" lon="-5.383890029042959">
        <ele>237.583</ele>
        <time>2011-01-03T13:56:54Z</time>
      </trkpt>
      <trkpt lat="35.414256965741515" lon="-5.384653033688664">
        <ele>231.334</ele>
        <time>2011-01-03T13:57:00Z</time>
      </trkpt>
      <trkpt lat="35.41624397970736" lon="-5.385834965854883">
        <ele>225.08600000000001</ele>
        <time>2011-01-03T13:57:10Z</time>
      </trkpt>
      <trkpt lat="35.418123034760356" lon="-5.387617964297533">
        <ele>220.279</ele>
        <time>2011-01-03T13:57:21Z</time>
      </trkpt>
      <trkpt lat="35.418913029134274" lon="-5.388536034151912">
        <ele>219.79900000000001</ele>
        <time>2011-01-03T13:57:27Z</time>
      </trkpt>
      <trkpt lat="35.418983018025756" lon="-5.388670982792974">
        <ele>219.79900000000001</ele>
        <time>2011-01-03T13:57:28Z</time>
      </trkpt>
      <trkpt lat="35.419294992461801" lon="-5.389279006049037">
        <ele>219.79900000000001</ele>
        <time>2011-01-03T13:57:32Z</time>
      </trkpt>
      <trkpt lat="35.420102002099156" lon="-5.390430008992553">
        <ele>221.24100000000001</ele>
        <time>2011-01-03T13:57:39Z</time>
      </trkpt>
      <trkpt lat="35.420587984845042" lon="-5.390971982851625">
        <ele>223.16300000000001</ele>
        <time>2011-01-03T13:57:43Z</time>
      </trkpt>
      <trkpt lat="35.421200031414628" lon="-5.391375990584493">
        <ele>224.60499999999999</ele>
        <time>2011-01-03T13:57:48Z</time>
      </trkpt>
      <trkpt lat="35.421511000022292" lon="-5.391552010551095">
        <ele>224.60499999999999</ele>
        <time>2011-01-03T13:57:50Z</time>
      </trkpt>
      <trkpt lat="35.423208000138402" lon="-5.392134971916676">
        <ele>225.08600000000001</ele>
        <time>2011-01-03T13:57:59Z</time>
      </trkpt>
      <trkpt lat="35.425314037129283" lon="-5.392716005444527">
        <ele>219.79900000000001</ele>
        <time>2011-01-03T13:58:09Z</time>
      </trkpt>
      <trkpt lat="35.427546976134181" lon="-5.393064022064209">
        <ele>212.108</ele>
        <time>2011-01-03T13:58:20Z</time>
      </trkpt>
      <trkpt lat="35.428435038775206" lon="-5.393064022064209">
        <ele>208.74299999999999</ele>
        <time>2011-01-03T13:58:25Z</time>
      </trkpt>
      <trkpt lat="35.429300973191857" lon="-5.39298296906054">
        <ele>205.85900000000001</ele>
        <time>2011-01-03T13:58:30Z</time>
      </trkpt>
      <trkpt lat="35.431136023253202" lon="-5.392128014937043">
        <ele>202.97499999999999</ele>
        <time>2011-01-03T13:58:39Z</time>
      </trkpt>
      <trkpt lat="35.432904018089175" lon="-5.391187984496355">
        <ele>203.45599999999999</ele>
        <time>2011-01-03T13:58:48Z</time>
      </trkpt>
      <trkpt lat="35.433809012174606" lon="-5.39109000004828">
        <ele>204.898</ele>
        <time>2011-01-03T13:58:53Z</time>
      </trkpt>
      <trkpt lat="35.433978997170925" lon="-5.39109000004828">
        <ele>205.37899999999999</ele>
        <time>2011-01-03T13:58:54Z</time>
      </trkpt>
      <trkpt lat="35.434563970193267" lon="-5.391073990613222">
        <ele>205.37899999999999</ele>
        <time>2011-01-03T13:58:58Z</time>
      </trkpt>
      <trkpt lat="35.43474200181663" lon="-5.39098204113543">
        <ele>205.85900000000001</ele>
        <time>2011-01-03T13:59:00Z</time>
      </trkpt>
      <trkpt lat="35.435227984562516" lon="-5.390818007290363">
        <ele>205.85900000000001</ele>
        <time>2011-01-03T13:59:04Z</time>
      </trkpt>
      <trkpt lat="35.435325969010592" lon="-5.390822030603886">
        <ele>205.37899999999999</ele>
        <time>2011-01-03T13:59:05Z</time>
      </trkpt>
      <trkpt lat="35.435645990073681" lon="-5.390836028382182">
        <ele>204.898</ele>
        <time>2011-01-03T13:59:08Z</time>
      </trkpt>
      <trkpt lat="35.43611504137516" lon="-5.390920015051961">
        <ele>204.417</ele>
        <time>2011-01-03T13:59:13Z</time>
      </trkpt>
      <trkpt lat="35.436355015262961" lon="-5.391366016119719">
        <ele>204.898</ele>
        <time>2011-01-03T13:59:16Z</time>
      </trkpt>
      <trkpt lat="35.436574034392834" lon="-5.391553016379476">
        <ele>206.34</ele>
        <time>2011-01-03T13:59:18Z</time>
      </trkpt>
      <trkpt lat="35.43695499189198" lon="-5.391828026622534">
        <ele>210.185</ele>
        <time>2011-01-03T13:59:22Z</time>
      </trkpt>
      <trkpt lat="35.437308037653565" lon="-5.391796007752419">
        <ele>213.55000000000001</ele>
        <time>2011-01-03T13:59:25Z</time>
      </trkpt>
      <trkpt lat="35.438059978187084" lon="-5.391532983630896">
        <ele>219.79900000000001</ele>
        <time>2011-01-03T13:59:30Z</time>
      </trkpt>
      <trkpt lat="35.438602035865188" lon="-5.391258979216218">
        <ele>222.68199999999999</ele>
        <time>2011-01-03T13:59:34Z</time>
      </trkpt>
      <trkpt lat="35.439695036038756" lon="-5.390885984525085">
        <ele>227.97</ele>
        <time>2011-01-03T13:59:41Z</time>
      </trkpt>
      <trkpt lat="35.440037017688155" lon="-5.390905011445284">
        <ele>229.892</ele>
        <time>2011-01-03T13:59:43Z</time>
      </trkpt>
      <trkpt lat="35.440730033442378" lon="-5.391207011416555">
        <ele>232.29599999999999</ele>
        <time>2011-01-03T13:59:48Z</time>
      </trkpt>
      <trkpt lat="35.441009989008307" lon="-5.391505993902683">
        <ele>234.69900000000001</ele>
        <time>2011-01-03T13:59:51Z</time>
      </trkpt>
      <trkpt lat="35.441278964281082" lon="-5.391796007752419">
        <ele>236.62200000000001</ele>
        <time>2011-01-03T13:59:54Z</time>
      </trkpt>
      <trkpt lat="35.441715996712446" lon="-5.392157016322017">
        <ele>238.06399999999999</ele>
        <time>2011-01-03T13:59:58Z</time>
      </trkpt>
      <trkpt lat="35.442149005830288" lon="-5.392459016293287">
        <ele>238.54400000000001</ele>
        <time>2011-01-03T14:00:02Z</time>
      </trkpt>
      <trkpt lat="35.442773038521409" lon="-5.39240000769496">
        <ele>239.02500000000001</ele>
        <time>2011-01-03T14:00:07Z</time>
      </trkpt>
      <trkpt lat="35.442892983555794" lon="-5.392371006309986">
        <ele>239.505</ele>
        <time>2011-01-03T14:00:08Z</time>
      </trkpt>
      <trkpt lat="35.443481979891658" lon="-5.392276961356401">
        <ele>241.90899999999999</ele>
        <time>2011-01-03T14:00:13Z</time>
      </trkpt>
      <trkpt lat="35.443628998473287" lon="-5.392324989661574">
        <ele>241.428</ele>
        <time>2011-01-03T14:00:14Z</time>
      </trkpt>
      <trkpt lat="35.445285011082888" lon="-5.39280703291297">
        <ele>246.23500000000001</ele>
        <time>2011-01-03T14:00:25Z</time>
      </trkpt>
      <trkpt lat="35.44554996304214" lon="-5.392868975177407">
        <ele>247.196</ele>
        <time>2011-01-03T14:00:27Z</time>
      </trkpt>
      <trkpt lat="35.446535004302859" lon="-5.393274994567037">
        <ele>250.08000000000001</ele>
        <time>2011-01-03T14:00:34Z</time>
      </trkpt>
      <trkpt lat="35.447049988433719" lon="-5.39362502284348">
        <ele>248.63800000000001</ele>
        <time>2011-01-03T14:00:38Z</time>
      </trkpt>
      <trkpt lat="35.447492972016335" lon="-5.393916964530945">
        <ele>247.196</ele>
        <time>2011-01-03T14:00:42Z</time>
      </trkpt>
      <trkpt lat="35.447666980326176" lon="-5.394030036404729">
        <ele>246.23500000000001</ele>
        <time>2011-01-03T14:00:44Z</time>
      </trkpt>
      <trkpt lat="35.448006028309464" lon="-5.394424991682172">
        <ele>243.351</ele>
        <time>2011-01-03T14:00:49Z</time>
      </trkpt>
      <trkpt lat="35.448103006929159" lon="-5.394578967243433">
        <ele>241.90899999999999</ele>
        <time>2011-01-03T14:00:51Z</time>
      </trkpt>
      <trkpt lat="35.448314985260367" lon="-5.395004013553262">
        <ele>238.06399999999999</ele>
        <time>2011-01-03T14:00:55Z</time>
      </trkpt>
      <trkpt lat="35.448606004938483" lon="-5.395558979362249">
        <ele>232.77600000000001</ele>
        <time>2011-01-03T14:01:00Z</time>
      </trkpt>
      <trkpt lat="35.448753023520112" lon="-5.395814040675759">
        <ele>231.334</ele>
        <time>2011-01-03T14:01:02Z</time>
      </trkpt>
      <trkpt lat="35.44924596324563" lon="-5.396303040906787">
        <ele>227.489</ele>
        <time>2011-01-03T14:01:06Z</time>
      </trkpt>
      <trkpt lat="35.449814004823565" lon="-5.396705036982894">
        <ele>223.64400000000001</ele>
        <time>2011-01-03T14:01:11Z</time>
      </trkpt>
      <trkpt lat="35.449900003150105" lon="-5.396766979247332">
        <ele>222.68199999999999</ele>
        <time>2011-01-03T14:01:12Z</time>
      </trkpt>
      <trkpt lat="35.450008967891335" lon="-5.396792963147163">
        <ele>221.721</ele>
        <time>2011-01-03T14:01:14Z</time>
      </trkpt>
      <trkpt lat="35.450427979230881" lon="-5.396763039752841">
        <ele>218.357</ele>
        <time>2011-01-03T14:01:19Z</time>
      </trkpt>
      <trkpt lat="35.450900970026851" lon="-5.396670000627637">
        <ele>214.511</ele>
        <time>2011-01-03T14:01:23Z</time>
      </trkpt>
      <trkpt lat="35.452011991292238" lon="-5.395689988508821">
        <ele>207.30099999999999</ele>
        <time>2011-01-03T14:01:30Z</time>
      </trkpt>
      <trkpt lat="35.452313991263509" lon="-5.395514974370599">
        <ele>205.85900000000001</ele>
        <time>2011-01-03T14:01:32Z</time>
      </trkpt>
      <trkpt lat="35.452795028686523" lon="-5.395874977111816">
        <ele>204.417</ele>
        <time>2011-01-03T14:01:37Z</time>
      </trkpt>
      <trkpt lat="35.452842973172665" lon="-5.396151999011636">
        <ele>204.417</ele>
        <time>2011-01-03T14:01:40Z</time>
      </trkpt>
      <trkpt lat="35.452994015067816" lon="-5.396862030029297">
        <ele>208.74299999999999</ele>
        <time>2011-01-03T14:01:44Z</time>
      </trkpt>
      <trkpt lat="35.45308998785913" lon="-5.397250028327107">
        <ele>210.666</ele>
        <time>2011-01-03T14:01:46Z</time>
      </trkpt>
      <trkpt lat="35.453501036390662" lon="-5.397997023537755">
        <ele>215.47300000000001</ele>
        <time>2011-01-03T14:01:51Z</time>
      </trkpt>
      <trkpt lat="35.454103024676442" lon="-5.398558024317026">
        <ele>219.79900000000001</ele>
        <time>2011-01-03T14:01:56Z</time>
      </trkpt>
      <trkpt lat="35.455448990687728" lon="-5.399495037272573">
        <ele>224.60499999999999</ele>
        <time>2011-01-03T14:02:04Z</time>
      </trkpt>
      <trkpt lat="35.455615036189556" lon="-5.399593021720648">
        <ele>225.08600000000001</ele>
        <time>2011-01-03T14:02:05Z</time>
      </trkpt>
      <trkpt lat="35.456766961142421" lon="-5.399818997830153">
        <ele>231.815</ele>
        <time>2011-01-03T14:02:11Z</time>
      </trkpt>
      <trkpt lat="35.457267025485635" lon="-5.399889992550015">
        <ele>235.18000000000001</ele>
        <time>2011-01-03T14:02:14Z</time>
      </trkpt>
      <trkpt lat="35.457713026553392" lon="-5.399970961734653">
        <ele>239.02500000000001</ele>
        <time>2011-01-03T14:02:18Z</time>
      </trkpt>
      <trkpt lat="35.458515007048845" lon="-5.400720974430442">
        <ele>243.351</ele>
        <time>2011-01-03T14:02:25Z</time>
      </trkpt>
      <trkpt lat="35.458877021446824" lon="-5.401306031271815">
        <ele>240.94800000000001</ele>
        <time>2011-01-03T14:02:30Z</time>
      </trkpt>
      <trkpt lat="35.458932006731629" lon="-5.403101015836">
        <ele>230.85400000000001</ele>
        <time>2011-01-03T14:02:39Z</time>
      </trkpt>
      <trkpt lat="35.458932006731629" lon="-5.403254991397262">
        <ele>229.892</ele>
        <time>2011-01-03T14:02:40Z</time>
      </trkpt>
      <trkpt lat="35.458901999518275" lon="-5.403762012720108">
        <ele>227.00899999999999</ele>
        <time>2011-01-03T14:02:44Z</time>
      </trkpt>
      <trkpt lat="35.458790017291903" lon="-5.404211031273007">
        <ele>223.64400000000001</ele>
        <time>2011-01-03T14:02:47Z</time>
      </trkpt>
      <trkpt lat="35.458817007020116" lon="-5.4048209823668">
        <ele>218.357</ele>
        <time>2011-01-03T14:02:52Z</time>
      </trkpt>
      <trkpt lat="35.459004007279873" lon="-5.405202023684979">
        <ele>214.511</ele>
        <time>2011-01-03T14:02:56Z</time>
      </trkpt>
      <trkpt lat="35.45938303694129" lon="-5.405278969556093">
        <ele>209.70500000000001</ele>
        <time>2011-01-03T14:03:00Z</time>
      </trkpt>
      <trkpt lat="35.459484038874507" lon="-5.405286010354757">
        <ele>208.74299999999999</ele>
        <time>2011-01-03T14:03:01Z</time>
      </trkpt>
      <trkpt lat="35.459936996921897" lon="-5.404955008998513">
        <ele>205.85900000000001</ele>
        <time>2011-01-03T14:03:04Z</time>
      </trkpt>
      <trkpt lat="35.460420968011022" lon="-5.404735989868641">
        <ele>201.53399999999999</ele>
        <time>2011-01-03T14:03:09Z</time>
      </trkpt>
      <trkpt lat="35.460563963279128" lon="-5.404762979596853">
        <ele>200.572</ele>
        <time>2011-01-03T14:03:10Z</time>
      </trkpt>
      <trkpt lat="35.460863029584289" lon="-5.40481997653842">
        <ele>198.65000000000001</ele>
        <time>2011-01-03T14:03:12Z</time>
      </trkpt>
      <trkpt lat="35.461567025631666" lon="-5.404803967103362">
        <ele>194.804</ele>
        <time>2011-01-03T14:03:17Z</time>
      </trkpt>
      <trkpt lat="35.461852010339499" lon="-5.404784018173814">
        <ele>193.36199999999999</ele>
        <time>2011-01-03T14:03:19Z</time>
      </trkpt>
      <trkpt lat="35.462862029671669" lon="-5.404600035399199">
        <ele>187.59399999999999</ele>
        <time>2011-01-03T14:03:25Z</time>
      </trkpt>
      <trkpt lat="35.464018983766437" lon="-5.404321001842618">
        <ele>180.86500000000001</ele>
        <time>2011-01-03T14:03:32Z</time>
      </trkpt>
      <trkpt lat="35.46486496925354" lon="-5.403972985222936">
        <ele>176.059</ele>
        <time>2011-01-03T14:03:38Z</time>
      </trkpt>
      <trkpt lat="35.464994972571731" lon="-5.403887992724776">
        <ele>175.578</ele>
        <time>2011-01-03T14:03:39Z</time>
      </trkpt>
      <trkpt lat="35.465461006388068" lon="-5.403489014133811">
        <ele>173.17500000000001</ele>
        <time>2011-01-03T14:03:43Z</time>
      </trkpt>
      <trkpt lat="35.465956963598728" lon="-5.402909992262721">
        <ele>173.655</ele>
        <time>2011-01-03T14:03:49Z</time>
      </trkpt>
      <trkpt lat="35.466459039598703" lon="-5.402982998639345">
        <ele>174.136</ele>
        <time>2011-01-03T14:03:53Z</time>
      </trkpt>
      <trkpt lat="35.466675041243434" lon="-5.403207968920469">
        <ele>174.61699999999999</ele>
        <time>2011-01-03T14:03:55Z</time>
      </trkpt>
      <trkpt lat="35.466972012072802" lon="-5.403330009430647">
        <ele>177.501</ele>
        <time>2011-01-03T14:03:58Z</time>
      </trkpt>
      <trkpt lat="35.467537036165595" lon="-5.403459006920457">
        <ele>181.346</ele>
        <time>2011-01-03T14:04:03Z</time>
      </trkpt>
      <trkpt lat="35.467737028375268" lon="-5.403492031618953">
        <ele>183.268</ele>
        <time>2011-01-03T14:04:05Z</time>
      </trkpt>
      <trkpt lat="35.468132989481091" lon="-5.403492031618953">
        <ele>187.59399999999999</ele>
        <time>2011-01-03T14:04:11Z</time>
      </trkpt>
      <trkpt lat="35.46834597364068" lon="-5.403492031618953">
        <ele>190.47800000000001</ele>
        <time>2011-01-03T14:04:19Z</time>
      </trkpt>
      <trkpt lat="35.468453010544181" lon="-5.403492031618953">
        <ele>191.44</ele>
        <time>2011-01-03T14:04:26Z</time>
      </trkpt>
      <trkpt lat="35.468617966398597" lon="-5.403492031618953">
        <ele>190.959</ele>
        <time>2011-01-03T14:04:43Z</time>
      </trkpt>
      <trkpt lat="35.46913999132812" lon="-5.403410978615284">
        <ele>190.47800000000001</ele>
        <time>2011-01-03T14:04:49Z</time>
      </trkpt>
      <trkpt lat="35.470156967639923" lon="-5.403086012229323">
        <ele>189.99799999999999</ele>
        <time>2011-01-03T14:04:57Z</time>
      </trkpt>
      <trkpt lat="35.471209986135364" lon="-5.402886020019651">
        <ele>189.517</ele>
        <time>2011-01-03T14:05:05Z</time>
      </trkpt>
      <trkpt lat="35.471754977479577" lon="-5.403114007785916">
        <ele>189.036</ele>
        <time>2011-01-03T14:05:10Z</time>
      </trkpt>
      <trkpt lat="35.472243977710605" lon="-5.403449032455683">
        <ele>188.55600000000001</ele>
        <time>2011-01-03T14:05:14Z</time>
      </trkpt>
      <trkpt lat="35.472340034320951" lon="-5.403590016067028">
        <ele>188.07499999999999</ele>
        <time>2011-01-03T14:05:15Z</time>
      </trkpt>
      <trkpt lat="35.472614960744977" lon="-5.403993017971516">
        <ele>187.59399999999999</ele>
        <time>2011-01-03T14:05:18Z</time>
      </trkpt>
      <trkpt lat="35.473040007054806" lon="-5.404557958245277">
        <ele>185.672</ele>
        <time>2011-01-03T14:05:23Z</time>
      </trkpt>
      <trkpt lat="35.473140003159642" lon="-5.404677987098694">
        <ele>185.191</ele>
        <time>2011-01-03T14:05:24Z</time>
      </trkpt>
      <trkpt lat="35.473432028666139" lon="-5.405031032860279">
        <ele>183.749</ele>
        <time>2011-01-03T14:05:27Z</time>
      </trkpt>
      <trkpt lat="35.47397400252521" lon="-5.405702004209161">
        <ele>181.346</ele>
        <time>2011-01-03T14:05:32Z</time>
      </trkpt>
      <trkpt lat="35.474427966400981" lon="-5.406218999996781">
        <ele>179.423</ele>
        <time>2011-01-03T14:05:36Z</time>
      </trkpt>
      <trkpt lat="35.47491897828877" lon="-5.406523011624813">
        <ele>177.501</ele>
        <time>2011-01-03T14:05:40Z</time>
      </trkpt>
      <trkpt lat="35.475211003795266" lon="-5.406640022993088">
        <ele>176.53899999999999</ele>
        <time>2011-01-03T14:05:42Z</time>
      </trkpt>
      <trkpt lat="35.475791031494737" lon="-5.406868010759354">
        <ele>175.09700000000001</ele>
        <time>2011-01-03T14:05:46Z</time>
      </trkpt>
      <trkpt lat="35.47711000777781" lon="-5.407385006546974">
        <ele>172.21299999999999</ele>
        <time>2011-01-03T14:05:55Z</time>
      </trkpt>
      <trkpt lat="35.477581992745399" lon="-5.407567983493209">
        <ele>171.25200000000001</ele>
        <time>2011-01-03T14:05:58Z</time>
      </trkpt>
      <trkpt lat="35.478154979646206" lon="-5.407771999016404">
        <ele>169.81</ele>
        <time>2011-01-03T14:06:02Z</time>
      </trkpt>
      <trkpt lat="35.478701982647181" lon="-5.408072993159294">
        <ele>168.84899999999999</ele>
        <time>2011-01-03T14:06:06Z</time>
      </trkpt>
      <trkpt lat="35.479217972606421" lon="-5.408391002565622">
        <ele>167.40700000000001</ele>
        <time>2011-01-03T14:06:10Z</time>
      </trkpt>
      <trkpt lat="35.479750977829099" lon="-5.408677998930216">
        <ele>165.965</ele>
        <time>2011-01-03T14:06:14Z</time>
      </trkpt>
      <trkpt lat="35.480380961671472" lon="-5.409060968086124">
        <ele>164.523</ele>
        <time>2011-01-03T14:06:19Z</time>
      </trkpt>
      <trkpt lat="35.48050400801003" lon="-5.409182002767921">
        <ele>164.042</ele>
        <time>2011-01-03T14:06:20Z</time>
      </trkpt>
      <trkpt lat="35.480845989659429" lon="-5.409516021609306">
        <ele>163.56200000000001</ele>
        <time>2011-01-03T14:06:23Z</time>
      </trkpt>
      <trkpt lat="35.48138502985239" lon="-5.41004098020494">
        <ele>161.15799999999999</ele>
        <time>2011-01-03T14:06:28Z</time>
      </trkpt>
      <trkpt lat="35.481694992631674" lon="-5.410339962691069">
        <ele>159.71600000000001</ele>
        <time>2011-01-03T14:06:31Z</time>
      </trkpt>
      <trkpt lat="35.48222104087472" lon="-5.410908004269004">
        <ele>158.274</ele>
        <time>2011-01-03T14:06:36Z</time>
      </trkpt>
      <trkpt lat="35.482333023101091" lon="-5.411034990102053">
        <ele>157.79400000000001</ele>
        <time>2011-01-03T14:06:37Z</time>
      </trkpt>
      <trkpt lat="35.482858987525105" lon="-5.411645025014877">
        <ele>156.83199999999999</ele>
        <time>2011-01-03T14:06:42Z</time>
      </trkpt>
      <trkpt lat="35.483309011906385" lon="-5.412197979167104">
        <ele>154.429</ele>
        <time>2011-01-03T14:06:47Z</time>
      </trkpt>
      <trkpt lat="35.483399033546448" lon="-5.412308033555746">
        <ele>153.94800000000001</ele>
        <time>2011-01-03T14:06:48Z</time>
      </trkpt>
      <trkpt lat="35.483656022697687" lon="-5.412621013820171">
        <ele>153.46799999999999</ele>
        <time>2011-01-03T14:06:51Z</time>
      </trkpt>
      <trkpt lat="35.484178969636559" lon="-5.413256026804447">
        <ele>152.02600000000001</ele>
        <time>2011-01-03T14:06:56Z</time>
      </trkpt>
      <trkpt lat="35.484296986833215" lon="-5.413399022072554">
        <ele>152.02600000000001</ele>
        <time>2011-01-03T14:06:57Z</time>
      </trkpt>
      <trkpt lat="35.484898975118995" lon="-5.414739036932588">
        <ele>150.584</ele>
        <time>2011-01-03T14:07:03Z</time>
      </trkpt>
      <trkpt lat="35.485509010031819" lon="-5.416236966848373">
        <ele>148.661</ele>
        <time>2011-01-03T14:07:09Z</time>
      </trkpt>
      <trkpt lat="35.486002033576369" lon="-5.417658034712076">
        <ele>145.29599999999999</ele>
        <time>2011-01-03T14:07:15Z</time>
      </trkpt>
      <trkpt lat="35.486791022121906" lon="-5.419596014544368">
        <ele>140.97</ele>
        <time>2011-01-03T14:07:24Z</time>
      </trkpt>
      <trkpt lat="35.487373983487487" lon="-5.420636963099241">
        <ele>138.56700000000001</ele>
        <time>2011-01-03T14:07:30Z</time>
      </trkpt>
      <trkpt lat="35.48757498152554" lon="-5.420877020806074">
        <ele>137.60599999999999</ele>
        <time>2011-01-03T14:07:32Z</time>
      </trkpt>
      <trkpt lat="35.488137993961573" lon="-5.421248003840447">
        <ele>135.68299999999999</ele>
        <time>2011-01-03T14:07:37Z</time>
      </trkpt>
      <trkpt lat="35.488270008936524" lon="-5.421322016045451">
        <ele>135.203</ele>
        <time>2011-01-03T14:07:38Z</time>
      </trkpt>
      <trkpt lat="35.488854981958866" lon="-5.421559978276491">
        <ele>133.28</ele>
        <time>2011-01-03T14:07:42Z</time>
      </trkpt>
      <trkpt lat="35.48940097913146" lon="-5.421782014891505">
        <ele>132.31899999999999</ele>
        <time>2011-01-03T14:07:46Z</time>
      </trkpt>
      <trkpt lat="35.489947982132435" lon="-5.422012014314532">
        <ele>131.83799999999999</ele>
        <time>2011-01-03T14:07:50Z</time>
      </trkpt>
      <trkpt lat="35.490491967648268" lon="-5.422246959060431">
        <ele>129.435</ele>
        <time>2011-01-03T14:07:54Z</time>
      </trkpt>
      <trkpt lat="35.490772007033229" lon="-5.422367993742228">
        <ele>128.47300000000001</ele>
        <time>2011-01-03T14:07:56Z</time>
      </trkpt>
      <trkpt lat="35.491397967562079" lon="-5.422795973718166">
        <ele>127.03100000000001</ele>
        <time>2011-01-03T14:08:01Z</time>
      </trkpt>
      <trkpt lat="35.491641964763403" lon="-5.423277011141181">
        <ele>127.03100000000001</ele>
        <time>2011-01-03T14:08:04Z</time>
      </trkpt>
      <trkpt lat="35.491872970014811" lon="-5.423755031079054">
        <ele>127.03100000000001</ele>
        <time>2011-01-03T14:08:07Z</time>
      </trkpt>
      <trkpt lat="35.492230961099267" lon="-5.424553994089365">
        <ele>125.10899999999999</ele>
        <time>2011-01-03T14:08:12Z</time>
      </trkpt>
      <trkpt lat="35.492351995781064" lon="-5.42488600127399">
        <ele>124.14700000000001</ele>
        <time>2011-01-03T14:08:14Z</time>
      </trkpt>
      <trkpt lat="35.492609990760684" lon="-5.425592008978128">
        <ele>123.18600000000001</ele>
        <time>2011-01-03T14:08:18Z</time>
      </trkpt>
      <trkpt lat="35.493079964071512" lon="-5.426831021904945">
        <ele>118.86</ele>
        <time>2011-01-03T14:08:26Z</time>
      </trkpt>
      <trkpt lat="35.493263024836779" lon="-5.427171997725964">
        <ele>117.41800000000001</ele>
        <time>2011-01-03T14:08:30Z</time>
      </trkpt>
      <trkpt lat="35.493687987327576" lon="-5.42765898630023">
        <ele>115.015</ele>
        <time>2011-01-03T14:08:36Z</time>
      </trkpt>
      <trkpt lat="35.493788989260793" lon="-5.427693016827107">
        <ele>114.53400000000001</ele>
        <time>2011-01-03T14:08:37Z</time>
      </trkpt>
      <trkpt lat="35.494638998061419" lon="-5.428027035668492">
        <ele>112.61199999999999</ele>
        <time>2011-01-03T14:08:45Z</time>
      </trkpt>
      <trkpt lat="35.495107965543866" lon="-5.428369017317891">
        <ele>111.65000000000001</ele>
        <time>2011-01-03T14:08:50Z</time>
      </trkpt>
      <trkpt lat="35.495618004351854" lon="-5.4289919603616">
        <ele>110.68899999999999</ele>
        <time>2011-01-03T14:08:57Z</time>
      </trkpt>
      <trkpt lat="35.495899971574545" lon="-5.429374007508159">
        <ele>109.72799999999999</ele>
        <time>2011-01-03T14:09:01Z</time>
      </trkpt>
      <trkpt lat="35.496043972671032" lon="-5.429568970575929">
        <ele>109.247</ele>
        <time>2011-01-03T14:09:03Z</time>
      </trkpt>
      <trkpt lat="35.496370028704405" lon="-5.430240025743842">
        <ele>107.80500000000001</ele>
        <time>2011-01-03T14:09:09Z</time>
      </trkpt>
      <trkpt lat="35.496593993157148" lon="-5.430831033736467">
        <ele>107.324</ele>
        <time>2011-01-03T14:09:14Z</time>
      </trkpt>
      <trkpt lat="35.496879983693361" lon="-5.432655019685626">
        <ele>104.44</ele>
        <time>2011-01-03T14:09:27Z</time>
      </trkpt>
      <trkpt lat="35.497203022241592" lon="-5.433884980157018">
        <ele>101.556</ele>
        <time>2011-01-03T14:09:35Z</time>
      </trkpt>
      <trkpt lat="35.498197032138705" lon="-5.435277968645096">
        <ele>98.671999999999997</ele>
        <time>2011-01-03T14:09:48Z</time>
      </trkpt>
      <trkpt lat="35.498477993533015" lon="-5.435481984168291">
        <ele>97.710999999999999</ele>
        <time>2011-01-03T14:09:51Z</time>
      </trkpt>
      <trkpt lat="35.498912008479238" lon="-5.435524983331561">
        <ele>97.230000000000004</ele>
        <time>2011-01-03T14:09:57Z</time>
      </trkpt>
      <trkpt lat="35.499273017048836" lon="-5.435338988900185">
        <ele>96.75</ele>
        <time>2011-01-03T14:10:01Z</time>
      </trkpt>
      <trkpt lat="35.499947005882859" lon="-5.434902962297201">
        <ele>96.269000000000005</ele>
        <time>2011-01-03T14:10:07Z</time>
      </trkpt>
      <trkpt lat="35.50046400167048" lon="-5.434835990890861">
        <ele>95.308000000000007</ele>
        <time>2011-01-03T14:10:12Z</time>
      </trkpt>
      <trkpt lat="35.500844037160277" lon="-5.434854011982679">
        <ele>94.346999999999994</ele>
        <time>2011-01-03T14:10:15Z</time>
      </trkpt>
      <trkpt lat="35.50177501514554" lon="-5.435230024158955">
        <ele>93.385000000000005</ele>
        <time>2011-01-03T14:10:23Z</time>
      </trkpt>
      <trkpt lat="35.502645978704095" lon="-5.435612993314862">
        <ele>92.424000000000007</ele>
        <time>2011-01-03T14:10:32Z</time>
      </trkpt>
      <trkpt lat="35.503203039988875" lon="-5.435769986361265">
        <ele>92.424000000000007</ele>
        <time>2011-01-03T14:10:40Z</time>
      </trkpt>
      <trkpt lat="35.503784995526075" lon="-5.435926979407668">
        <ele>91.462999999999994</ele>
        <time>2011-01-03T14:10:45Z</time>
      </trkpt>
      <trkpt lat="35.504468036815524" lon="-5.43608003295958">
        <ele>91.462999999999994</ele>
        <time>2011-01-03T14:10:50Z</time>
      </trkpt>
      <trkpt lat="35.505044041201472" lon="-5.436601974070072">
        <ele>91.942999999999998</ele>
        <time>2011-01-03T14:10:55Z</time>
      </trkpt>
      <trkpt lat="35.505189970135689" lon="-5.436911014840007">
        <ele>91.462999999999994</ele>
        <time>2011-01-03T14:10:57Z</time>
      </trkpt>
      <trkpt lat="35.505744013935328" lon="-5.43799496255815">
        <ele>90.501000000000005</ele>
        <time>2011-01-03T14:11:03Z</time>
      </trkpt>
      <trkpt lat="35.506271990016103" lon="-5.438748998567462">
        <ele>88.578999999999994</ele>
        <time>2011-01-03T14:11:08Z</time>
      </trkpt>
      <trkpt lat="35.506378021091223" lon="-5.438879001885653">
        <ele>88.097999999999999</ele>
        <time>2011-01-03T14:11:09Z</time>
      </trkpt>
      <trkpt lat="35.508380960673094" lon="-5.440065963193774">
        <ele>81.849000000000004</ele>
        <time>2011-01-03T14:11:21Z</time>
      </trkpt>
      <trkpt lat="35.509296013042331" lon="-5.44022798538208">
        <ele>79.927000000000007</ele>
        <time>2011-01-03T14:11:26Z</time>
      </trkpt>
      <trkpt lat="35.510221039876342" lon="-5.440111979842186">
        <ele>79.927000000000007</ele>
        <time>2011-01-03T14:11:31Z</time>
      </trkpt>
      <trkpt lat="35.510831996798515" lon="-5.43975499458611">
        <ele>79.445999999999998</ele>
        <time>2011-01-03T14:11:35Z</time>
      </trkpt>
      <trkpt lat="35.511650992557406" lon="-5.438824016600847">
        <ele>79.445999999999998</ele>
        <time>2011-01-03T14:11:42Z</time>
      </trkpt>
      <trkpt lat="35.511990962550044" lon="-5.438526961952448">
        <ele>79.445999999999998</ele>
        <time>2011-01-03T14:11:45Z</time>
      </trkpt>
      <trkpt lat="35.512663023546338" lon="-5.438167965039611">
        <ele>78.004000000000005</ele>
        <time>2011-01-03T14:11:50Z</time>
      </trkpt>
      <trkpt lat="35.514425989240408" lon="-5.43805799447">
        <ele>76.561999999999998</ele>
        <time>2011-01-03T14:12:01Z</time>
      </trkpt>
      <trkpt lat="35.515201985836029" lon="-5.437976019456983">
        <ele>75.600999999999999</ele>
        <time>2011-01-03T14:12:06Z</time>
      </trkpt>
      <trkpt lat="35.51632096990943" lon="-5.43743303976953">
        <ele>73.197999999999993</ele>
        <time>2011-01-03T14:12:14Z</time>
      </trkpt>
      <trkpt lat="35.517122028395534" lon="-5.437031965702772">
        <ele>72.236000000000004</ele>
        <time>2011-01-03T14:12:20Z</time>
      </trkpt>
      <trkpt lat="35.517699960619211" lon="-5.436748992651701">
        <ele>72.716999999999999</ele>
        <time>2011-01-03T14:12:25Z</time>
      </trkpt>
      <trkpt lat="35.518133975565434" lon="-5.436539025977254">
        <ele>72.716999999999999</ele>
        <time>2011-01-03T14:12:29Z</time>
      </trkpt>
      <trkpt lat="35.518794972449541" lon="-5.436243982985616">
        <ele>73.677999999999997</ele>
        <time>2011-01-03T14:12:35Z</time>
      </trkpt>
      <trkpt lat="35.51898499019444" lon="-5.436139963567257">
        <ele>74.159000000000006</ele>
        <time>2011-01-03T14:12:37Z</time>
      </trkpt>
      <trkpt lat="35.519324038177729" lon="-5.435910969972611">
        <ele>74.640000000000001</ele>
        <time>2011-01-03T14:12:41Z</time>
      </trkpt>
      <trkpt lat="35.519851008430123" lon="-5.435707960277796">
        <ele>75.120000000000005</ele>
        <time>2011-01-03T14:12:47Z</time>
      </trkpt>
      <trkpt lat="35.520551986992359" lon="-5.435733022168279">
        <ele>74.640000000000001</ele>
        <time>2011-01-03T14:12:53Z</time>
      </trkpt>
      <trkpt lat="35.521038975566626" lon="-5.43586503714323">
        <ele>73.677999999999997</ele>
        <time>2011-01-03T14:12:57Z</time>
      </trkpt>
      <trkpt lat="35.522262984886765" lon="-5.436323024332523">
        <ele>70.793999999999997</ele>
        <time>2011-01-03T14:13:08Z</time>
      </trkpt>
      <trkpt lat="35.522739998996258" lon="-5.436415979638696">
        <ele>69.352000000000004</ele>
        <time>2011-01-03T14:13:12Z</time>
      </trkpt>
      <trkpt lat="35.523069994524121" lon="-5.436507007107139">
        <ele>68.391000000000005</ele>
        <time>2011-01-03T14:13:15Z</time>
      </trkpt>
      <trkpt lat="35.523695033043623" lon="-5.436855023726821">
        <ele>65.988</ele>
        <time>2011-01-03T14:13:21Z</time>
      </trkpt>
      <trkpt lat="35.524224014952779" lon="-5.437002964317799">
        <ele>64.064999999999998</ele>
        <time>2011-01-03T14:13:26Z</time>
      </trkpt>
      <trkpt lat="35.524783004075289" lon="-5.43700598180294">
        <ele>62.142000000000003</ele>
        <time>2011-01-03T14:13:31Z</time>
      </trkpt>
      <trkpt lat="35.525757987052202" lon="-5.436229985207319">
        <ele>59.738999999999997</ele>
        <time>2011-01-03T14:13:41Z</time>
      </trkpt>
      <trkpt lat="35.526416972279549" lon="-5.435570999979973">
        <ele>58.296999999999997</ele>
        <time>2011-01-03T14:13:48Z</time>
      </trkpt>
      <trkpt lat="35.527051985263824" lon="-5.434618983417749">
        <ele>58.296999999999997</ele>
        <time>2011-01-03T14:13:57Z</time>
      </trkpt>
      <trkpt lat="35.527591025456786" lon="-5.433852961286902">
        <ele>59.258000000000003</ele>
        <time>2011-01-03T14:14:04Z</time>
      </trkpt>
      <trkpt lat="35.527725974097848" lon="-5.43360996991396">
        <ele>59.258000000000003</ele>
        <time>2011-01-03T14:14:06Z</time>
      </trkpt>
      <trkpt lat="35.528023028746247" lon="-5.433162963017821">
        <ele>59.738999999999997</ele>
        <time>2011-01-03T14:14:10Z</time>
      </trkpt>
      <trkpt lat="35.528706992045045" lon="-5.43234002776444">
        <ele>59.258000000000003</ele>
        <time>2011-01-03T14:14:19Z</time>
      </trkpt>
      <trkpt lat="35.529292970895767" lon="-5.431634020060301">
        <ele>58.777999999999999</ele>
        <time>2011-01-03T14:14:26Z</time>
      </trkpt>
      <trkpt lat="35.530130993574858" lon="-5.430626012384892">
        <ele>58.777999999999999</ele>
        <time>2011-01-03T14:14:35Z</time>
      </trkpt>
      <trkpt lat="35.531070018187165" lon="-5.429494958370924">
        <ele>58.296999999999997</ele>
        <time>2011-01-03T14:14:45Z</time>
      </trkpt>
      <trkpt lat="35.531888008117676" lon="-5.428504971787334">
        <ele>56.854999999999997</ele>
        <time>2011-01-03T14:14:52Z</time>
      </trkpt>
      <trkpt lat="35.532875983044505" lon="-5.427200999110937">
        <ele>54.932000000000002</ele>
        <time>2011-01-03T14:15:01Z</time>
      </trkpt>
      <trkpt lat="35.533481994643807" lon="-5.426653996109963">
        <ele>54.451999999999998</ele>
        <time>2011-01-03T14:15:06Z</time>
      </trkpt>
      <trkpt lat="35.53406797349453" lon="-5.426082015037537">
        <ele>54.932000000000002</ele>
        <time>2011-01-03T14:15:12Z</time>
      </trkpt>
      <trkpt lat="35.534384977072477" lon="-5.425720000639558">
        <ele>54.932000000000002</ele>
        <time>2011-01-03T14:15:16Z</time>
      </trkpt>
      <trkpt lat="35.534846987575293" lon="-5.425281040370464">
        <ele>53.970999999999997</ele>
        <time>2011-01-03T14:15:21Z</time>
      </trkpt>
      <trkpt lat="35.535042034462094" lon="-5.4251220356673">
        <ele>53.490000000000002</ele>
        <time>2011-01-03T14:15:23Z</time>
      </trkpt>
      <trkpt lat="35.536080971360207" lon="-5.424645021557808">
        <ele>51.567999999999998</ele>
        <time>2011-01-03T14:15:32Z</time>
      </trkpt>
      <trkpt lat="35.536890998482704" lon="-5.424440000206232">
        <ele>51.567999999999998</ele>
        <time>2011-01-03T14:15:39Z</time>
      </trkpt>
      <trkpt lat="35.537592982873321" lon="-5.424165995791555">
        <ele>51.087000000000003</ele>
        <time>2011-01-03T14:15:45Z</time>
      </trkpt>
      <trkpt lat="35.537706976756454" lon="-5.424139006063342">
        <ele>50.606999999999999</ele>
        <time>2011-01-03T14:15:46Z</time>
      </trkpt>
      <trkpt lat="35.53834299556911" lon="-5.424014031887054">
        <ele>50.125999999999998</ele>
        <time>2011-01-03T14:15:51Z</time>
      </trkpt>
      <trkpt lat="35.539075993001461" lon="-5.423915041610599">
        <ele>50.125999999999998</ele>
        <time>2011-01-03T14:15:56Z</time>
      </trkpt>
      <trkpt lat="35.539967995136976" lon="-5.423899032175541">
        <ele>50.606999999999999</ele>
        <time>2011-01-03T14:16:03Z</time>
      </trkpt>
      <trkpt lat="35.540607031434774" lon="-5.423899032175541">
        <ele>50.606999999999999</ele>
        <time>2011-01-03T14:16:08Z</time>
      </trkpt>
      <trkpt lat="35.54072798229754" lon="-5.423899032175541">
        <ele>51.087000000000003</ele>
        <time>2011-01-03T14:16:09Z</time>
      </trkpt>
      <trkpt lat="35.541383028030396" lon="-5.424042027443647">
        <ele>51.087000000000003</ele>
        <time>2011-01-03T14:16:14Z</time>
      </trkpt>
      <trkpt lat="35.541949979960918" lon="-5.424207989126444">
        <ele>50.606999999999999</ele>
        <time>2011-01-03T14:16:18Z</time>
      </trkpt>
      <trkpt lat="35.543278008699417" lon="-5.424604034051299">
        <ele>47.722999999999999</ele>
        <time>2011-01-03T14:16:27Z</time>
      </trkpt>
      <trkpt lat="35.544691029936075" lon="-5.424797991290689">
        <ele>46.761000000000003</ele>
        <time>2011-01-03T14:16:36Z</time>
      </trkpt>
      <trkpt lat="35.545137031003833" lon="-5.424849959090352">
        <ele>46.280999999999999</ele>
        <time>2011-01-03T14:16:39Z</time>
      </trkpt>
      <trkpt lat="35.546113019809127" lon="-5.42478097602725">
        <ele>43.877000000000002</ele>
        <time>2011-01-03T14:16:45Z</time>
      </trkpt>
      <trkpt lat="35.547074005007744" lon="-5.424169013276696">
        <ele>41.954999999999998</ele>
        <time>2011-01-03T14:16:52Z</time>
      </trkpt>
      <trkpt lat="35.548093998804688" lon="-5.423187995329499">
        <ele>39.070999999999998</ele>
        <time>2011-01-03T14:17:01Z</time>
      </trkpt>
      <trkpt lat="35.549175012856722" lon="-5.422120979055762">
        <ele>36.186999999999998</ele>
        <time>2011-01-03T14:17:10Z</time>
      </trkpt>
      <trkpt lat="35.550299026072025" lon="-5.420986991375685">
        <ele>34.264000000000003</ele>
        <time>2011-01-03T14:17:20Z</time>
      </trkpt>
      <trkpt lat="35.551142999902368" lon="-5.420236978679895">
        <ele>32.822000000000003</ele>
        <time>2011-01-03T14:17:28Z</time>
      </trkpt>
      <trkpt lat="35.552099039778113" lon="-5.419431980699301">
        <ele>30.899999999999999</ele>
        <time>2011-01-03T14:17:37Z</time>
      </trkpt>
      <trkpt lat="35.552912000566721" lon="-5.418582977727056">
        <ele>28.495999999999999</ele>
        <time>2011-01-03T14:17:46Z</time>
      </trkpt>
      <trkpt lat="35.553431008011103" lon="-5.417692987248302">
        <ele>27.053999999999998</ele>
        <time>2011-01-03T14:17:53Z</time>
      </trkpt>
      <trkpt lat="35.553730996325612" lon="-5.417077001184225">
        <ele>25.611999999999998</ele>
        <time>2011-01-03T14:17:59Z</time>
      </trkpt>
      <trkpt lat="35.554016986861825" lon="-5.416494039818645">
        <ele>25.132000000000001</ele>
        <time>2011-01-03T14:18:04Z</time>
      </trkpt>
      <trkpt lat="35.554659962654114" lon="-5.415158970281482">
        <ele>24.651</ele>
        <time>2011-01-03T14:18:13Z</time>
      </trkpt>
      <trkpt lat="35.555368987843394" lon="-5.413935966789722">
        <ele>24.170000000000002</ele>
        <time>2011-01-03T14:18:23Z</time>
      </trkpt>
      <trkpt lat="35.556040965020657" lon="-5.4133690148592">
        <ele>21.766999999999999</ele>
        <time>2011-01-03T14:18:30Z</time>
      </trkpt>
      <trkpt lat="35.556975966319442" lon="-5.413040025159717">
        <ele>18.882999999999999</ele>
        <time>2011-01-03T14:18:38Z</time>
      </trkpt>
      <trkpt lat="35.557593964040279" lon="-5.412835003808141">
        <ele>16.960000000000001</ele>
        <time>2011-01-03T14:18:45Z</time>
      </trkpt>
      <trkpt lat="35.558163011446595" lon="-5.412692008540034">
        <ele>15.999000000000001</ele>
        <time>2011-01-03T14:18:51Z</time>
      </trkpt>
      <trkpt lat="35.559136988595128" lon="-5.412548007443547">
        <ele>14.076000000000001</ele>
        <time>2011-01-03T14:18:58Z</time>
      </trkpt>
      <trkpt lat="35.56036502122879" lon="-5.412428984418511">
        <ele>13.115</ele>
        <time>2011-01-03T14:19:07Z</time>
      </trkpt>
      <trkpt lat="35.561523986980319" lon="-5.4123380407691">
        <ele>12.154</ele>
        <time>2011-01-03T14:19:17Z</time>
      </trkpt>
      <trkpt lat="35.562410037964582" lon="-5.412290012463927">
        <ele>11.193</ele>
        <time>2011-01-03T14:19:27Z</time>
      </trkpt>
      <trkpt lat="35.563425002619624" lon="-5.412406018003821">
        <ele>11.193</ele>
        <time>2011-01-03T14:19:39Z</time>
      </trkpt>
      <trkpt lat="35.564596960321069" lon="-5.412563011050224">
        <ele>8.308999999999999</ele>
        <time>2011-01-03T14:19:52Z</time>
      </trkpt>
      <trkpt lat="35.56492100469768" lon="-5.412611039355397">
        <ele>9.27</ele>
        <time>2011-01-03T14:19:58Z</time>
      </trkpt>
      <trkpt lat="35.565036004409194" lon="-5.412625037133694">
        <ele>10.231</ele>
        <time>2011-01-03T14:20:04Z</time>
      </trkpt>
      <trkpt lat="35.5651789996773" lon="-5.412649009376764">
        <ele>11.193</ele>
        <time>2011-01-03T14:20:16Z</time>
      </trkpt>
      <trkpt lat="35.565519975498319" lon="-5.412140982225537">
        <ele>17.440999999999999</ele>
        <time>2011-01-03T14:20:22Z</time>
      </trkpt>
      <trkpt lat="35.565769001841545" lon="-5.411009006202221">
        <ele>20.324999999999999</ele>
        <time>2011-01-03T14:20:30Z</time>
      </trkpt>
      <trkpt lat="35.566265964880586" lon="-5.410093031823635">
        <ele>19.844000000000001</ele>
        <time>2011-01-03T14:20:36Z</time>
      </trkpt>
      <trkpt lat="35.566777009516954" lon="-5.40911796502769">
        <ele>19.844000000000001</ele>
        <time>2011-01-03T14:20:41Z</time>
      </trkpt>
      <trkpt lat="35.567125026136637" lon="-5.407693041488528">
        <ele>19.844000000000001</ele>
        <time>2011-01-03T14:20:47Z</time>
      </trkpt>
      <trkpt lat="35.567327030003071" lon="-5.406220005825162">
        <ele>19.364000000000001</ele>
        <time>2011-01-03T14:20:54Z</time>
      </trkpt>
      <trkpt lat="35.567357959225774" lon="-5.405866038054228">
        <ele>18.402000000000001</ele>
        <time>2011-01-03T14:20:58Z</time>
      </trkpt>
      <trkpt lat="35.567357959225774" lon="-5.405648024752736">
        <ele>17.440999999999999</ele>
        <time>2011-01-03T14:21:03Z</time>
      </trkpt>
      <trkpt lat="35.567301968112588" lon="-5.405018040910363">
        <ele>15.038</ele>
        <time>2011-01-03T14:21:08Z</time>
      </trkpt>
      <trkpt lat="35.567049002274871" lon="-5.404141964390874">
        <ele>14.076000000000001</ele>
        <time>2011-01-03T14:21:13Z</time>
      </trkpt>
      <trkpt lat="35.566498981788754" lon="-5.403244011104107">
        <ele>12.634</ele>
        <time>2011-01-03T14:21:18Z</time>
      </trkpt>
      <trkpt lat="35.565632041543722" lon="-5.402214964851737">
        <ele>13.596</ele>
        <time>2011-01-03T14:21:25Z</time>
      </trkpt>
      <trkpt lat="35.565362982451916" lon="-5.401608031243086">
        <ele>12.634</ele>
        <time>2011-01-03T14:21:30Z</time>
      </trkpt>
      <trkpt lat="35.56530799716711" lon="-5.401422036811709">
        <ele>11.193</ele>
        <time>2011-01-03T14:21:35Z</time>
      </trkpt>
      <trkpt lat="35.565280001610518" lon="-5.401248028501868">
        <ele>9.750999999999999</ele>
        <time>2011-01-03T14:21:41Z</time>
      </trkpt>
      <trkpt lat="35.565240019932389" lon="-5.400923984125257">
        <ele>8.789</ele>
        <time>2011-01-03T14:21:44Z</time>
      </trkpt>
      <trkpt lat="35.565311014652252" lon="-5.400272039696574">
        <ele>8.308999999999999</ele>
        <time>2011-01-03T14:21:48Z</time>
      </trkpt>
      <trkpt lat="35.56554302573204" lon="-5.39865399710834">
        <ele>9.27</ele>
        <time>2011-01-03T14:21:57Z</time>
      </trkpt>
      <trkpt lat="35.565533973276615" lon="-5.398500021547079">
        <ele>9.27</ele>
        <time>2011-01-03T14:21:58Z</time>
      </trkpt>
      <trkpt lat="35.565428026020527" lon="-5.398078998550773">
        <ele>9.750999999999999</ele>
        <time>2011-01-03T14:22:02Z</time>
      </trkpt>
      <trkpt lat="35.565320989117026" lon="-5.397839024662972">
        <ele>11.193</ele>
        <time>2011-01-03T14:22:08Z</time>
      </trkpt>
      <trkpt lat="35.565062994137406" lon="-5.397281041368842">
        <ele>13.115</ele>
        <time>2011-01-03T14:22:14Z</time>
      </trkpt>
      <trkpt lat="35.564910024404526" lon="-5.396767985075712">
        <ele>14.076000000000001</ele>
        <time>2011-01-03T14:22:18Z</time>
      </trkpt>
      <trkpt lat="35.56487800553441" lon="-5.396184017881751">
        <ele>14.557</ele>
        <time>2011-01-03T14:22:22Z</time>
      </trkpt>
      <trkpt lat="35.565041033551097" lon="-5.394562035799027">
        <ele>14.557</ele>
        <time>2011-01-03T14:22:31Z</time>
      </trkpt>
      <trkpt lat="35.565153015777469" lon="-5.393680008128285">
        <ele>13.115</ele>
        <time>2011-01-03T14:22:37Z</time>
      </trkpt>
      <trkpt lat="35.565172964707017" lon="-5.393513040617108">
        <ele>12.634</ele>
        <time>2011-01-03T14:22:39Z</time>
      </trkpt>
      <trkpt lat="35.565189979970455" lon="-5.393364010378718">
        <ele>11.673</ele>
        <time>2011-01-03T14:22:46Z</time>
      </trkpt>
      <trkpt lat="35.565109010785818" lon="-5.392912980169058">
        <ele>10.712</ele>
        <time>2011-01-03T14:22:51Z</time>
      </trkpt>
      <trkpt lat="35.56498403660953" lon="-5.392188029363751">
        <ele>9.750999999999999</ele>
        <time>2011-01-03T14:22:56Z</time>
      </trkpt>
      <trkpt lat="35.565009014680982" lon="-5.390996038913727">
        <ele>7.828</ele>
        <time>2011-01-03T14:23:02Z</time>
      </trkpt>
      <trkpt lat="35.565343033522367" lon="-5.389870014041662">
        <ele>7.347</ele>
        <time>2011-01-03T14:23:07Z</time>
      </trkpt>
      <trkpt lat="35.566147025674582" lon="-5.387810999527574">
        <ele>7.347</ele>
        <time>2011-01-03T14:23:16Z</time>
      </trkpt>
      <trkpt lat="35.566449025645852" lon="-5.386395966634154">
        <ele>7.828</ele>
        <time>2011-01-03T14:23:22Z</time>
      </trkpt>
      <trkpt lat="35.566400997340679" lon="-5.385234989225864">
        <ele>8.308999999999999</ele>
        <time>2011-01-03T14:23:27Z</time>
      </trkpt>
      <trkpt lat="35.566046023741364" lon="-5.383927999064326">
        <ele>8.308999999999999</ele>
        <time>2011-01-03T14:23:33Z</time>
      </trkpt>
      <trkpt lat="35.565431965515018" lon="-5.382263017818332">
        <ele>8.789</ele>
        <time>2011-01-03T14:23:42Z</time>
      </trkpt>
      <trkpt lat="35.565298022702336" lon="-5.381841994822025">
        <ele>9.27</ele>
        <time>2011-01-03T14:23:47Z</time>
      </trkpt>
      <trkpt lat="35.564947994425893" lon="-5.380882015451789">
        <ele>8.789</ele>
        <time>2011-01-03T14:23:53Z</time>
      </trkpt>
      <trkpt lat="35.564472991973162" lon="-5.37955298088491">
        <ele>7.828</ele>
        <time>2011-01-03T14:24:00Z</time>
      </trkpt>
      <trkpt lat="35.563707975670695" lon="-5.37749002687633">
        <ele>6.866</ele>
        <time>2011-01-03T14:24:10Z</time>
      </trkpt>
      <trkpt lat="35.563268009573221" lon="-5.376313040032983">
        <ele>6.386</ele>
        <time>2011-01-03T14:24:17Z</time>
      </trkpt>
      <trkpt lat="35.562698962166905" lon="-5.374755011871457">
        <ele>6.386</ele>
        <time>2011-01-03T14:24:25Z</time>
      </trkpt>
      <trkpt lat="35.561860017478466" lon="-5.372392991557717">
        <ele>6.386</ele>
        <time>2011-01-03T14:24:37Z</time>
      </trkpt>
      <trkpt lat="35.561480987817049" lon="-5.371355982497335">
        <ele>5.905</ele>
        <time>2011-01-03T14:24:44Z</time>
      </trkpt>
      <trkpt lat="35.561345033347607" lon="-5.37093797698617">
        <ele>7.347</ele>
        <time>2011-01-03T14:24:50Z</time>
      </trkpt>
      <trkpt lat="35.561284013092518" lon="-5.370751982554793">
        <ele>7.347</ele>
        <time>2011-01-03T14:24:57Z</time>
      </trkpt>
      <trkpt lat="35.561219975352287" lon="-5.370555007830262">
        <ele>6.386</ele>
        <time>2011-01-03T14:25:05Z</time>
      </trkpt>
      <trkpt lat="35.560985030606389" lon="-5.370169021189213">
        <ele>7.347</ele>
        <time>2011-01-03T14:25:18Z</time>
      </trkpt>
      <trkpt lat="35.560915963724256" lon="-5.369806000962853">
        <ele>7.347</ele>
        <time>2011-01-03T14:25:21Z</time>
      </trkpt>
      <trkpt lat="35.560600971803069" lon="-5.368902012705803">
        <ele>8.308999999999999</ele>
        <time>2011-01-03T14:25:27Z</time>
      </trkpt>
      <trkpt lat="35.560138039290905" lon="-5.367510030046105">
        <ele>7.347</ele>
        <time>2011-01-03T14:25:34Z</time>
      </trkpt>
      <trkpt lat="35.559924971312284" lon="-5.366106983274221">
        <ele>6.386</ele>
        <time>2011-01-03T14:25:40Z</time>
      </trkpt>
      <trkpt lat="35.559961013495922" lon="-5.364611987024546">
        <ele>5.425</ele>
        <time>2011-01-03T14:25:46Z</time>
      </trkpt>
      <trkpt lat="35.560296038165689" lon="-5.363052031025291">
        <ele>4.944</ele>
        <time>2011-01-03T14:25:52Z</time>
      </trkpt>
      <trkpt lat="35.56109600700438" lon="-5.36101003177464">
        <ele>3.502</ele>
        <time>2011-01-03T14:26:00Z</time>
      </trkpt>
      <trkpt lat="35.562210967764258" lon="-5.358199998736382">
        <ele>3.502</ele>
        <time>2011-01-03T14:26:11Z</time>
      </trkpt>
      <trkpt lat="35.563259040936828" lon="-5.355728007853031">
        <ele>3.502</ele>
        <time>2011-01-03T14:26:22Z</time>
      </trkpt>
      <trkpt lat="35.563902016729116" lon="-5.354751013219357">
        <ele>3.502</ele>
        <time>2011-01-03T14:26:28Z</time>
      </trkpt>
      <trkpt lat="35.564438961446285" lon="-5.354247009381652">
        <ele>3.502</ele>
        <time>2011-01-03T14:26:33Z</time>
      </trkpt>
      <trkpt lat="35.564674995839596" lon="-5.354033019393683">
        <ele>3.983</ele>
        <time>2011-01-03T14:26:38Z</time>
      </trkpt>
      <trkpt lat="35.564760994166136" lon="-5.353689026087523">
        <ele>3.021</ele>
        <time>2011-01-03T14:26:45Z</time>
      </trkpt>
      <trkpt lat="35.565486028790474" lon="-5.353380991145968">
        <ele>2.06</ele>
        <time>2011-01-03T14:26:52Z</time>
      </trkpt>
      <trkpt lat="35.566395968198776" lon="-5.352701973170042">
        <ele>2.06</ele>
        <time>2011-01-03T14:26:59Z</time>
      </trkpt>
      <trkpt lat="35.567578990012407" lon="-5.351822040975094">
        <ele>1.579</ele>
        <time>2011-01-03T14:27:06Z</time>
      </trkpt>
      <trkpt lat="35.569266015663743" lon="-5.350533993914723">
        <ele>1.579</ele>
        <time>2011-01-03T14:27:15Z</time>
      </trkpt>
      <trkpt lat="35.570905013009906" lon="-5.349242007359862">
        <ele>2.541</ele>
        <time>2011-01-03T14:27:24Z</time>
      </trkpt>
      <trkpt lat="35.571887958794832" lon="-5.348083963617683">
        <ele>3.021</ele>
        <time>2011-01-03T14:27:30Z</time>
      </trkpt>
      <trkpt lat="35.572892026975751" lon="-5.34665996208787">
        <ele>3.983</ele>
        <time>2011-01-03T14:27:37Z</time>
      </trkpt>
      <trkpt lat="35.573356971144676" lon="-5.345447016879916">
        <ele>5.425</ele>
        <time>2011-01-03T14:27:42Z</time>
      </trkpt>
      <trkpt lat="35.573539026081562" lon="-5.344200963154435">
        <ele>6.386</ele>
        <time>2011-01-03T14:27:47Z</time>
      </trkpt>
      <trkpt lat="35.573799032717943" lon="-5.341593017801642">
        <ele>6.386</ele>
        <time>2011-01-03T14:27:57Z</time>
      </trkpt>
      <trkpt lat="35.574326002970338" lon="-5.339834997430444">
        <ele>3.983</ele>
        <time>2011-01-03T14:28:04Z</time>
      </trkpt>
      <trkpt lat="35.575141981244087" lon="-5.337971029803157">
        <ele>2.541</ele>
        <time>2011-01-03T14:28:12Z</time>
      </trkpt>
      <trkpt lat="35.576207991689444" lon="-5.335513036698103">
        <ele>2.541</ele>
        <time>2011-01-03T14:28:22Z</time>
      </trkpt>
      <trkpt lat="35.577418003231287" lon="-5.332972984761">
        <ele>1.579</ele>
        <time>2011-01-03T14:28:33Z</time>
      </trkpt>
      <trkpt lat="35.578215960413218" lon="-5.332001019269228">
        <ele>1.099</ele>
        <time>2011-01-03T14:28:38Z</time>
      </trkpt>
      <trkpt lat="35.579146016389132" lon="-5.331357959657908">
        <ele>1.579</ele>
        <time>2011-01-03T14:28:43Z</time>
      </trkpt>
      <trkpt lat="35.580224012956023" lon="-5.330981025472283">
        <ele>2.06</ele>
        <time>2011-01-03T14:28:49Z</time>
      </trkpt>
      <trkpt lat="35.581292035058141" lon="-5.330940037965775">
        <ele>2.06</ele>
        <time>2011-01-03T14:28:55Z</time>
      </trkpt>
      <trkpt lat="35.582394003868103" lon="-5.331228962168098">
        <ele>2.541</ele>
        <time>2011-01-03T14:29:02Z</time>
      </trkpt>
      <trkpt lat="35.582905970513821" lon="-5.331466002389789">
        <ele>4.463</ele>
        <time>2011-01-03T14:29:07Z</time>
      </trkpt>
      <trkpt lat="35.583106968551874" lon="-5.331574967131019">
        <ele>6.386</ele>
        <time>2011-01-03T14:29:12Z</time>
      </trkpt>
      <trkpt lat="35.583228003233671" lon="-5.33164001069963">
        <ele>7.347</ele>
        <time>2011-01-03T14:29:15Z</time>
      </trkpt>
      <trkpt lat="35.583393964916468" lon="-5.331731038168073">
        <ele>8.308999999999999</ele>
        <time>2011-01-03T14:29:19Z</time>
      </trkpt>
      <trkpt lat="35.583686996251345" lon="-5.331608997657895">
        <ele>7.347</ele>
        <time>2011-01-03T14:29:27Z</time>
      </trkpt>
      <trkpt lat="35.583995031192899" lon="-5.332019962370396">
        <ele>6.386</ele>
        <time>2011-01-03T14:29:30Z</time>
      </trkpt>
      <trkpt lat="35.584917962551117" lon="-5.332511980086565">
        <ele>4.944</ele>
        <time>2011-01-03T14:29:37Z</time>
      </trkpt>
      <trkpt lat="35.586541034281254" lon="-5.333357965573669">
        <ele>2.06</ele>
        <time>2011-01-03T14:29:47Z</time>
      </trkpt>
      <trkpt lat="35.588657967746258" lon="-5.33443202264607">
        <ele>1.099</ele>
        <time>2011-01-03T14:29:59Z</time>
      </trkpt>
      <trkpt lat="35.590602988377213" lon="-5.335388984531164">
        <ele>4.944</ele>
        <time>2011-01-03T14:30:10Z</time>
      </trkpt>
      <trkpt lat="35.591458026319742" lon="-5.335824005305767">
        <ele>8.308999999999999</ele>
        <time>2011-01-03T14:30:16Z</time>
      </trkpt>
      <trkpt lat="35.591561961919069" lon="-5.335878990590572">
        <ele>10.231</ele>
        <time>2011-01-03T14:30:20Z</time>
      </trkpt>
      <trkpt lat="35.592041993513703" lon="-5.336108990013599">
        <ele>10.712</ele>
        <time>2011-01-03T14:30:25Z</time>
      </trkpt>
      <trkpt lat="35.593157960101962" lon="-5.336602013558149">
        <ele>10.712</ele>
        <time>2011-01-03T14:30:34Z</time>
      </trkpt>
      <trkpt lat="35.594811039045453" lon="-5.337181035429239">
        <ele>5.905</ele>
        <time>2011-01-03T14:30:45Z</time>
      </trkpt>
      <trkpt lat="35.596633013337851" lon="-5.337847983464599">
        <ele>4.944</ele>
        <time>2011-01-03T14:30:55Z</time>
      </trkpt>
      <trkpt lat="35.598449958488345" lon="-5.338476039469242">
        <ele>6.866</ele>
        <time>2011-01-03T14:31:05Z</time>
      </trkpt>
      <trkpt lat="35.600647022947669" lon="-5.339162014424801">
        <ele>11.193</ele>
        <time>2011-01-03T14:31:14Z</time>
      </trkpt>
      <trkpt lat="35.601570960134268" lon="-5.33901197835803">
        <ele>13.115</ele>
        <time>2011-01-03T14:31:18Z</time>
      </trkpt>
      <trkpt lat="35.603256979957223" lon="-5.338425999507308">
        <ele>15.518000000000001</ele>
        <time>2011-01-03T14:31:25Z</time>
      </trkpt>
      <trkpt lat="35.605554040521383" lon="-5.337950997054577">
        <ele>15.999000000000001</ele>
        <time>2011-01-03T14:31:34Z</time>
      </trkpt>
      <trkpt lat="35.607787985354662" lon="-5.337739018723369">
        <ele>15.518000000000001</ele>
        <time>2011-01-03T14:31:42Z</time>
      </trkpt>
      <trkpt lat="35.610123015940189" lon="-5.337887965142727">
        <ele>17.922000000000001</ele>
        <time>2011-01-03T14:31:50Z</time>
      </trkpt>
      <trkpt lat="35.612754011526704" lon="-5.338315023109317">
        <ele>22.248000000000001</ele>
        <time>2011-01-03T14:31:59Z</time>
      </trkpt>
      <trkpt lat="35.61450800858438" lon="-5.338423987850547">
        <ele>23.690000000000001</ele>
        <time>2011-01-03T14:32:05Z</time>
      </trkpt>
      <trkpt lat="35.616296036168933" lon="-5.338139003142715">
        <ele>23.209</ele>
        <time>2011-01-03T14:32:11Z</time>
      </trkpt>
      <trkpt lat="35.618022959679365" lon="-5.337389996275306">
        <ele>21.286000000000001</ele>
        <time>2011-01-03T14:32:17Z</time>
      </trkpt>
      <trkpt lat="35.620235027745366" lon="-5.335968006402254">
        <ele>20.324999999999999</ele>
        <time>2011-01-03T14:32:25Z</time>
      </trkpt>
      <trkpt lat="35.623460970818996" lon="-5.333839002996683">
        <ele>28.015999999999998</ele>
        <time>2011-01-03T14:32:37Z</time>
      </trkpt>
      <trkpt lat="35.6257039681077" lon="-5.332797970622778">
        <ele>30.419</ele>
        <time>2011-01-03T14:32:45Z</time>
      </trkpt>
      <trkpt lat="35.628137988969684" lon="-5.332158012315631">
        <ele>27.535</ele>
        <time>2011-01-03T14:32:53Z</time>
      </trkpt>
      <trkpt lat="35.630769990384579" lon="-5.331859029829502">
        <ele>18.882999999999999</ele>
        <time>2011-01-03T14:33:01Z</time>
      </trkpt>
      <trkpt lat="35.634370017796755" lon="-5.331372041255236">
        <ele>8.789</ele>
        <time>2011-01-03T14:33:12Z</time>
      </trkpt>
      <trkpt lat="35.637157000601292" lon="-5.33065102994442">
        <ele>5.905</ele>
        <time>2011-01-03T14:33:21Z</time>
      </trkpt>
      <trkpt lat="35.642095031216741" lon="-5.329289976507425">
        <ele>9.27</ele>
        <time>2011-01-03T14:33:37Z</time>
      </trkpt>
      <trkpt lat="35.646125972270966" lon="-5.328334020450711">
        <ele>11.193</ele>
        <time>2011-01-03T14:33:50Z</time>
      </trkpt>
      <trkpt lat="35.64804500900209" lon="-5.328349024057388">
        <ele>10.231</ele>
        <time>2011-01-03T14:33:56Z</time>
      </trkpt>
      <trkpt lat="35.649964967742562" lon="-5.328840035945177">
        <ele>9.27</ele>
        <time>2011-01-03T14:34:02Z</time>
      </trkpt>
      <trkpt lat="35.651473039761186" lon="-5.329587031155825">
        <ele>9.750999999999999</ele>
        <time>2011-01-03T14:34:07Z</time>
      </trkpt>
      <trkpt lat="35.653125029057264" lon="-5.330720013007522">
        <ele>11.673</ele>
        <time>2011-01-03T14:34:13Z</time>
      </trkpt>
      <trkpt lat="35.654519023373723" lon="-5.33213404007256">
        <ele>15.999000000000001</ele>
        <time>2011-01-03T14:34:19Z</time>
      </trkpt>
      <trkpt lat="35.655686035752296" lon="-5.333817964419723">
        <ele>21.286000000000001</ele>
        <time>2011-01-03T14:34:25Z</time>
      </trkpt>
      <trkpt lat="35.656634029000998" lon="-5.335728032514453">
        <ele>24.170000000000002</ele>
        <time>2011-01-03T14:34:31Z</time>
      </trkpt>
      <trkpt lat="35.657298965379596" lon="-5.33787296153605">
        <ele>21.766999999999999</ele>
        <time>2011-01-03T14:34:37Z</time>
      </trkpt>
      <trkpt lat="35.658586006611586" lon="-5.342292990535498">
        <ele>19.844000000000001</ele>
        <time>2011-01-03T14:34:49Z</time>
      </trkpt>
      <trkpt lat="35.65943400375545" lon="-5.34395101480186">
        <ele>21.766999999999999</ele>
        <time>2011-01-03T14:34:54Z</time>
      </trkpt>
      <trkpt lat="35.660563968122005" lon="-5.345297986641526">
        <ele>26.093</ele>
        <time>2011-01-03T14:34:59Z</time>
      </trkpt>
      <trkpt lat="35.661907000467181" lon="-5.346225025132299">
        <ele>31.379999999999999</ele>
        <time>2011-01-03T14:35:04Z</time>
      </trkpt>
      <trkpt lat="35.663341982290149" lon="-5.346759036183357">
        <ele>37.148000000000003</ele>
        <time>2011-01-03T14:35:09Z</time>
      </trkpt>
      <trkpt lat="35.664813006296754" lon="-5.346950981765986">
        <ele>44.838999999999999</ele>
        <time>2011-01-03T14:35:14Z</time>
      </trkpt>
      <trkpt lat="35.666276989504695" lon="-5.346812009811401">
        <ele>51.567999999999998</ele>
        <time>2011-01-03T14:35:19Z</time>
      </trkpt>
      <trkpt lat="35.668878983706236" lon="-5.346328038722277">
        <ele>64.546000000000006</ele>
        <time>2011-01-03T14:35:28Z</time>
      </trkpt>
      <trkpt lat="35.672828033566475" lon="-5.345681961625814">
        <ele>86.174999999999997</ele>
        <time>2011-01-03T14:35:42Z</time>
      </trkpt>
      <trkpt lat="35.674801971763372" lon="-5.345389014109969">
        <ele>94.346999999999994</ele>
        <time>2011-01-03T14:35:49Z</time>
      </trkpt>
      <trkpt lat="35.67655798047781" lon="-5.345653966069222">
        <ele>97.230000000000004</ele>
        <time>2011-01-03T14:35:55Z</time>
      </trkpt>
      <trkpt lat="35.678283981978893" lon="-5.346430968493223">
        <ele>96.269000000000005</ele>
        <time>2011-01-03T14:36:01Z</time>
      </trkpt>
      <trkpt lat="35.681012962013483" lon="-5.347555987536907">
        <ele>90.981999999999999</ele>
        <time>2011-01-03T14:36:10Z</time>
      </trkpt>
      <trkpt lat="35.683165015652776" lon="-5.348126962780953">
        <ele>80.406999999999996</ele>
        <time>2011-01-03T14:36:17Z</time>
      </trkpt>
      <trkpt lat="35.685482025146484" lon="-5.3483110293746">
        <ele>63.103999999999999</ele>
        <time>2011-01-03T14:36:24Z</time>
      </trkpt>
      <trkpt lat="35.688784997910261" lon="-5.348685029894114">
        <ele>41.473999999999997</ele>
        <time>2011-01-03T14:36:34Z</time>
      </trkpt>
      <trkpt lat="35.691427979618311" lon="-5.349206971004605">
        <ele>29.457999999999998</ele>
        <time>2011-01-03T14:36:42Z</time>
      </trkpt>
      <trkpt lat="35.695517007261515" lon="-5.349994031712413">
        <ele>19.364000000000001</ele>
        <time>2011-01-03T14:36:55Z</time>
      </trkpt>
      <trkpt lat="35.697959996759892" lon="-5.350704984739423">
        <ele>15.038</ele>
        <time>2011-01-03T14:37:03Z</time>
      </trkpt>
      <trkpt lat="35.699779959395528" lon="-5.351606961339712">
        <ele>12.154</ele>
        <time>2011-01-03T14:37:09Z</time>
      </trkpt>
      <trkpt lat="35.702154971659184" lon="-5.353219974786043">
        <ele>9.27</ele>
        <time>2011-01-03T14:37:17Z</time>
      </trkpt>
      <trkpt lat="35.704333009198308" lon="-5.354451024904847">
        <ele>8.308999999999999</ele>
        <time>2011-01-03T14:37:24Z</time>
      </trkpt>
      <trkpt lat="35.706612970679998" lon="-5.35527496598661">
        <ele>8.308999999999999</ele>
        <time>2011-01-03T14:37:31Z</time>
      </trkpt>
      <trkpt lat="35.708951018750668" lon="-5.355661036446691">
        <ele>8.789</ele>
        <time>2011-01-03T14:37:38Z</time>
      </trkpt>
      <trkpt lat="35.711309015750885" lon="-5.355616025626659">
        <ele>8.308999999999999</ele>
        <time>2011-01-03T14:37:45Z</time>
      </trkpt>
      <trkpt lat="35.713663995265961" lon="-5.3551459684968">
        <ele>7.347</ele>
        <time>2011-01-03T14:37:52Z</time>
      </trkpt>
      <trkpt lat="35.716275963932276" lon="-5.35420099273324">
        <ele>11.673</ele>
        <time>2011-01-03T14:38:00Z</time>
      </trkpt>
      <trkpt lat="35.718878963962197" lon="-5.35344896838069">
        <ele>16.48</ele>
        <time>2011-01-03T14:38:08Z</time>
      </trkpt>
      <trkpt lat="35.721754962578416" lon="-5.352758970111609">
        <ele>21.766999999999999</ele>
        <time>2011-01-03T14:38:17Z</time>
      </trkpt>
      <trkpt lat="35.724814021959901" lon="-5.352931972593069">
        <ele>28.977</ele>
        <time>2011-01-03T14:38:26Z</time>
      </trkpt>
      <trkpt lat="35.729400012642145" lon="-5.352931972593069">
        <ele>36.186999999999998</ele>
        <time>2011-01-03T14:38:40Z</time>
      </trkpt>
      <trkpt lat="35.734147019684315" lon="-5.35293297842145">
        <ele>32.341999999999999</ele>
        <time>2011-01-03T14:38:54Z</time>
      </trkpt>
      <trkpt lat="35.73643796145916" lon="-5.352921998128295">
        <ele>32.341999999999999</ele>
        <time>2011-01-03T14:39:01Z</time>
      </trkpt>
      <trkpt lat="35.739020006731153" lon="-5.352928033098579">
        <ele>36.186999999999998</ele>
        <time>2011-01-03T14:39:10Z</time>
      </trkpt>
      <trkpt lat="35.741108022630215" lon="-5.352960973978043">
        <ele>40.993000000000002</ele>
        <time>2011-01-03T14:39:18Z</time>
      </trkpt>
      <trkpt lat="35.742423981428146" lon="-5.353073040023446">
        <ele>44.357999999999997</ele>
        <time>2011-01-03T14:39:24Z</time>
      </trkpt>
      <trkpt lat="35.743407011032104" lon="-5.35321201197803">
        <ele>47.722999999999999</ele>
        <time>2011-01-03T14:39:30Z</time>
      </trkpt>
      <trkpt lat="35.743944039568305" lon="-5.353303039446473">
        <ele>49.164999999999999</ele>
        <time>2011-01-03T14:39:35Z</time>
      </trkpt>
      <trkpt lat="35.744216032326221" lon="-5.353354001417756">
        <ele>48.683999999999997</ele>
        <time>2011-01-03T14:39:41Z</time>
      </trkpt>
      <trkpt lat="35.744323991239071" lon="-5.353388031944633">
        <ele>53.970999999999997</ele>
        <time>2011-01-03T14:40:00Z</time>
      </trkpt>
      <trkpt lat="35.744813997298479" lon="-5.353502025827766">
        <ele>52.529000000000003</ele>
        <time>2011-01-03T14:40:05Z</time>
      </trkpt>
      <trkpt lat="35.745894005522132" lon="-5.353744011372328">
        <ele>53.009999999999998</ele>
        <time>2011-01-03T14:40:12Z</time>
      </trkpt>
      <trkpt lat="35.747353965416551" lon="-5.354137038812041">
        <ele>52.048999999999999</ele>
        <time>2011-01-03T14:40:19Z</time>
      </trkpt>
      <trkpt lat="35.749302003532648" lon="-5.354687981307507">
        <ele>53.490000000000002</ele>
        <time>2011-01-03T14:40:27Z</time>
      </trkpt>
      <trkpt lat="35.751951020210981" lon="-5.355437994003296">
        <ele>57.335999999999999</ele>
        <time>2011-01-03T14:40:37Z</time>
      </trkpt>
      <trkpt lat="35.753723038360476" lon="-5.355935040861368">
        <ele>59.738999999999997</ele>
        <time>2011-01-03T14:40:44Z</time>
      </trkpt>
      <trkpt lat="35.756358979269862" lon="-5.356678012758493">
        <ele>63.584000000000003</ele>
        <time>2011-01-03T14:40:54Z</time>
      </trkpt>
      <trkpt lat="35.759492972865701" lon="-5.357591975480318">
        <ele>67.430000000000007</ele>
        <time>2011-01-03T14:41:05Z</time>
      </trkpt>
      <trkpt lat="35.762976994737983" lon="-5.358902988955379">
        <ele>67.909999999999997</ele>
        <time>2011-01-03T14:41:17Z</time>
      </trkpt>
      <trkpt lat="35.764530999585986" lon="-5.359544958919287">
        <ele>67.430000000000007</ele>
        <time>2011-01-03T14:41:23Z</time>
      </trkpt>
      <trkpt lat="35.767613025382161" lon="-5.36083702929318">
        <ele>67.909999999999997</ele>
        <time>2011-01-03T14:41:36Z</time>
      </trkpt>
      <trkpt lat="35.768972989171743" lon="-5.361398030072451">
        <ele>67.430000000000007</ele>
        <time>2011-01-03T14:41:43Z</time>
      </trkpt>
      <trkpt lat="35.770535040646791" lon="-5.362045029178262">
        <ele>65.025999999999996</ele>
        <time>2011-01-03T14:41:52Z</time>
      </trkpt>
      <trkpt lat="35.771840019151568" lon="-5.362585997208953">
        <ele>61.180999999999997</ele>
        <time>2011-01-03T14:42:01Z</time>
      </trkpt>
      <trkpt lat="35.773105015978217" lon="-5.363108022138476">
        <ele>56.375</ele>
        <time>2011-01-03T14:42:11Z</time>
      </trkpt>
      <trkpt lat="35.774467997252941" lon="-5.363724008202553">
        <ele>49.164999999999999</ele>
        <time>2011-01-03T14:42:20Z</time>
      </trkpt>
      <trkpt lat="35.775436023250222" lon="-5.364261958748102">
        <ele>43.396999999999998</ele>
        <time>2011-01-03T14:42:27Z</time>
      </trkpt>
      <trkpt lat="35.776473032310605" lon="-5.36494399420917">
        <ele>37.148000000000003</ele>
        <time>2011-01-03T14:42:33Z</time>
      </trkpt>
      <trkpt lat="35.777920000255108" lon="-5.366069013252854">
        <ele>29.457999999999998</ele>
        <time>2011-01-03T14:42:40Z</time>
      </trkpt>
      <trkpt lat="35.779399992898107" lon="-5.367578007280827">
        <ele>24.170000000000002</ele>
        <time>2011-01-03T14:42:47Z</time>
      </trkpt>
      <trkpt lat="35.781338978558779" lon="-5.369929969310761">
        <ele>20.324999999999999</ele>
        <time>2011-01-03T14:42:56Z</time>
      </trkpt>
      <trkpt lat="35.784640023484826" lon="-5.373992007225752">
        <ele>22.248000000000001</ele>
        <time>2011-01-03T14:43:11Z</time>
      </trkpt>
      <trkpt lat="35.786458980292082" lon="-5.375899979844689">
        <ele>22.728000000000002</ele>
        <time>2011-01-03T14:43:19Z</time>
      </trkpt>
      <trkpt lat="35.788039974868298" lon="-5.377045031636953">
        <ele>20.806000000000001</ele>
        <time>2011-01-03T14:43:25Z</time>
      </trkpt>
      <trkpt lat="35.789793971925974" lon="-5.377884982153773">
        <ele>16.48</ele>
        <time>2011-01-03T14:43:31Z</time>
      </trkpt>
      <trkpt lat="35.791683001443744" lon="-5.378353027626872">
        <ele>12.154</ele>
        <time>2011-01-03T14:43:37Z</time>
      </trkpt>
      <trkpt lat="35.793615030124784" lon="-5.37843600846827">
        <ele>10.231</ele>
        <time>2011-01-03T14:43:43Z</time>
      </trkpt>
      <trkpt lat="35.79554202966392" lon="-5.378126967698336">
        <ele>11.193</ele>
        <time>2011-01-03T14:43:49Z</time>
      </trkpt>
      <trkpt lat="35.79741396009922" lon="-5.377451973035932">
        <ele>12.154</ele>
        <time>2011-01-03T14:43:55Z</time>
      </trkpt>
      <trkpt lat="35.798876015469432" lon="-5.376546978950501">
        <ele>12.154</ele>
        <time>2011-01-03T14:44:00Z</time>
      </trkpt>
      <trkpt lat="35.800774013623595" lon="-5.374875040724874">
        <ele>14.557</ele>
        <time>2011-01-03T14:44:07Z</time>
      </trkpt>
      <trkpt lat="35.804055025801063" lon="-5.37132597528398">
        <ele>18.402000000000001</ele>
        <time>2011-01-03T14:44:20Z</time>
      </trkpt>
      <trkpt lat="35.80589703284204" lon="-5.369576001539826">
        <ele>21.286000000000001</ele>
        <time>2011-01-03T14:44:27Z</time>
      </trkpt>
      <trkpt lat="35.807667039334774" lon="-5.368507979437709">
        <ele>25.132000000000001</ele>
        <time>2011-01-03T14:44:33Z</time>
      </trkpt>
      <trkpt lat="35.809231018647552" lon="-5.367977991700172">
        <ele>29.937999999999999</ele>
        <time>2011-01-03T14:44:38Z</time>
      </trkpt>
      <trkpt lat="35.811122981831431" lon="-5.367761990055442">
        <ele>36.186999999999998</ele>
        <time>2011-01-03T14:44:44Z</time>
      </trkpt>
      <trkpt lat="35.815445026382804" lon="-5.367697030305862">
        <ele>49.164999999999999</ele>
        <time>2011-01-03T14:44:58Z</time>
      </trkpt>
      <trkpt lat="35.818867022171617" lon="-5.367352031171322">
        <ele>52.048999999999999</ele>
        <time>2011-01-03T14:45:09Z</time>
      </trkpt>
      <trkpt lat="35.82186103798449" lon="-5.366877028718591">
        <ele>49.164999999999999</ele>
        <time>2011-01-03T14:45:19Z</time>
      </trkpt>
      <trkpt lat="35.823435997590423" lon="-5.36644603125751">
        <ele>45.319000000000003</ele>
        <time>2011-01-03T14:45:25Z</time>
      </trkpt>
      <trkpt lat="35.82491297274828" lon="-5.365668023005128">
        <ele>41.954999999999998</ele>
        <time>2011-01-03T14:45:31Z</time>
      </trkpt>
      <trkpt lat="35.826294980943203" lon="-5.364548033103347">
        <ele>39.070999999999998</ele>
        <time>2011-01-03T14:45:37Z</time>
      </trkpt>
      <trkpt lat="35.827515972778201" lon="-5.363440029323101">
        <ele>37.628999999999998</ele>
        <time>2011-01-03T14:45:43Z</time>
      </trkpt>
      <trkpt lat="35.828084014356136" lon="-5.362919010221958">
        <ele>37.148000000000003</ele>
        <time>2011-01-03T14:45:47Z</time>
      </trkpt>
      <trkpt lat="35.828271014615893" lon="-5.362735027447343">
        <ele>37.148000000000003</ele>
        <time>2011-01-03T14:45:49Z</time>
      </trkpt>
      <trkpt lat="35.828433958813548" lon="-5.362464962527156">
        <ele>38.109000000000002</ele>
        <time>2011-01-03T14:45:52Z</time>
      </trkpt>
      <trkpt lat="35.828658007085323" lon="-5.362262958660722">
        <ele>38.109000000000002</ele>
        <time>2011-01-03T14:45:56Z</time>
      </trkpt>
      <trkpt lat="35.829053968191147" lon="-5.361775970086455">
        <ele>36.186999999999998</ele>
        <time>2011-01-03T14:46:02Z</time>
      </trkpt>
      <trkpt lat="35.829776991158724" lon="-5.360733009874821">
        <ele>32.341999999999999</ele>
        <time>2011-01-03T14:46:09Z</time>
      </trkpt>
      <trkpt lat="35.830758009105921" lon="-5.35944496281445">
        <ele>26.574000000000002</ele>
        <time>2011-01-03T14:46:16Z</time>
      </trkpt>
      <trkpt lat="35.831684963777661" lon="-5.358736021444202">
        <ele>25.132000000000001</ele>
        <time>2011-01-03T14:46:21Z</time>
      </trkpt>
      <trkpt lat="35.832900004461408" lon="-5.358247021213174">
        <ele>27.535</ele>
        <time>2011-01-03T14:46:27Z</time>
      </trkpt>
      <trkpt lat="35.833857972174883" lon="-5.357760032638907">
        <ele>31.379999999999999</ele>
        <time>2011-01-03T14:46:33Z</time>
      </trkpt>
      <trkpt lat="35.834287963807583" lon="-5.357389971613884">
        <ele>34.264000000000003</ele>
        <time>2011-01-03T14:46:37Z</time>
      </trkpt>
      <trkpt lat="35.834579989314079" lon="-5.357037009671331">
        <ele>35.225000000000001</ele>
        <time>2011-01-03T14:46:43Z</time>
      </trkpt>
      <trkpt lat="35.834861034527421" lon="-5.356917986646295">
        <ele>36.186999999999998</ele>
        <time>2011-01-03T14:46:47Z</time>
      </trkpt>
      <trkpt lat="35.835583973675966" lon="-5.356306023895741">
        <ele>37.148000000000003</ele>
        <time>2011-01-03T14:46:54Z</time>
      </trkpt>
      <trkpt lat="35.836142962798476" lon="-5.356038976460695">
        <ele>37.148000000000003</ele>
        <time>2011-01-03T14:46:59Z</time>
      </trkpt>
      <trkpt lat="35.836431970819831" lon="-5.355911990627646">
        <ele>36.667000000000002</ele>
        <time>2011-01-03T14:47:02Z</time>
      </trkpt>
      <trkpt lat="35.836697006598115" lon="-5.355560034513474">
        <ele>34.744999999999997</ele>
        <time>2011-01-03T14:47:08Z</time>
      </trkpt>
      <trkpt lat="35.836704969406128" lon="-5.35531603731215">
        <ele>34.264000000000003</ele>
        <time>2011-01-03T14:47:14Z</time>
      </trkpt>
      <trkpt lat="35.836942009627819" lon="-5.355388959869742">
        <ele>33.302999999999997</ele>
        <time>2011-01-03T14:47:18Z</time>
      </trkpt>
      <trkpt lat="35.83771700039506" lon="-5.355632035061717">
        <ele>32.822000000000003</ele>
        <time>2011-01-03T14:47:25Z</time>
      </trkpt>
      <trkpt lat="35.838858028873801" lon="-5.356002012267709">
        <ele>29.937999999999999</ele>
        <time>2011-01-03T14:47:33Z</time>
      </trkpt>
      <trkpt lat="35.839125998318195" lon="-5.356064960360527">
        <ele>28.977</ele>
        <time>2011-01-03T14:47:35Z</time>
      </trkpt>
      <trkpt lat="35.839639976620674" lon="-5.355957001447678">
        <ele>25.132000000000001</ele>
        <time>2011-01-03T14:47:39Z</time>
      </trkpt>
      <trkpt lat="35.841016033664346" lon="-5.355244958773255">
        <ele>14.557</ele>
        <time>2011-01-03T14:47:50Z</time>
      </trkpt>
      <trkpt lat="35.841588014736772" lon="-5.354934995993972">
        <ele>9.750999999999999</ele>
        <time>2011-01-03T14:47:57Z</time>
      </trkpt>
      <trkpt lat="35.84169496782124" lon="-5.35488503985107">
        <ele>6.866</ele>
        <time>2011-01-03T14:48:02Z</time>
      </trkpt>
      <trkpt lat="35.842092018574476" lon="-5.354712959378958">
        <ele>3.502</ele>
        <time>2011-01-03T14:48:08Z</time>
      </trkpt>
      <trkpt lat="35.842886036261916" lon="-5.354304006323218">
        <ele>2.06</ele>
        <time>2011-01-03T14:48:16Z</time>
      </trkpt>
      <trkpt lat="35.843605035915971" lon="-5.353998988866806">
        <ele>1.579</ele>
        <time>2011-01-03T14:48:23Z</time>
      </trkpt>
      <trkpt lat="35.843796981498599" lon="-5.353967975825071">
        <ele>1.099</ele>
        <time>2011-01-03T14:48:25Z</time>
      </trkpt>
      <trkpt lat="35.844232002273202" lon="-5.354021033272147">
        <ele>0.618</ele>
        <time>2011-01-03T14:48:29Z</time>
      </trkpt>
      <trkpt lat="35.845143031328917" lon="-5.354161011055112">
        <ele>0.618</ele>
        <time>2011-01-03T14:48:37Z</time>
      </trkpt>
      <trkpt lat="35.845795981585979" lon="-5.354126980528235">
        <ele>2.541</ele>
        <time>2011-01-03T14:48:45Z</time>
      </trkpt>
      <trkpt lat="35.846512969583273" lon="-5.353802014142275">
        <ele>3.021</ele>
        <time>2011-01-03T14:48:52Z</time>
      </trkpt>
      <trkpt lat="35.847441013902426" lon="-5.353473024442792">
        <ele>3.502</ele>
        <time>2011-01-03T14:48:59Z</time>
      </trkpt>
      <trkpt lat="35.848820004612207" lon="-5.353151997551322">
        <ele>3.983</ele>
        <time>2011-01-03T14:49:08Z</time>
      </trkpt>
      <trkpt lat="35.849828012287617" lon="-5.35267598927021">
        <ele>4.463</ele>
        <time>2011-01-03T14:49:15Z</time>
      </trkpt>
      <trkpt lat="35.850681038573384" lon="-5.35205103456974">
        <ele>3.983</ele>
        <time>2011-01-03T14:49:22Z</time>
      </trkpt>
      <trkpt lat="35.851012961938977" lon="-5.351707963272929">
        <ele>3.983</ele>
        <time>2011-01-03T14:49:27Z</time>
      </trkpt>
      <trkpt lat="35.851471032947302" lon="-5.35110798664391">
        <ele>3.983</ele>
        <time>2011-01-03T14:49:33Z</time>
      </trkpt>
      <trkpt lat="35.852200007066131" lon="-5.349929993972182">
        <ele>3.502</ele>
        <time>2011-01-03T14:49:41Z</time>
      </trkpt>
      <trkpt lat="35.853114975616336" lon="-5.348773039877415">
        <ele>2.06</ele>
        <time>2011-01-03T14:49:49Z</time>
      </trkpt>
      <trkpt lat="35.854122983291745" lon="-5.347778024151921">
        <ele>1.579</ele>
        <time>2011-01-03T14:49:57Z</time>
      </trkpt>
      <trkpt lat="35.855122022330761" lon="-5.347337974235416">
        <ele>1.579</ele>
        <time>2011-01-03T14:50:03Z</time>
      </trkpt>
      <trkpt lat="35.856229020282626" lon="-5.347337974235416">
        <ele>1.099</ele>
        <time>2011-01-03T14:50:09Z</time>
      </trkpt>
      <trkpt lat="35.857106018811464" lon="-5.347319031134248">
        <ele>2.06</ele>
        <time>2011-01-03T14:50:15Z</time>
      </trkpt>
      <trkpt lat="35.857816971838474" lon="-5.347076961770654">
        <ele>3.502</ele>
        <time>2011-01-03T14:50:22Z</time>
      </trkpt>
      <trkpt lat="35.858662035316229" lon="-5.346757024526596">
        <ele>4.463</ele>
        <time>2011-01-03T14:50:29Z</time>
      </trkpt>
      <trkpt lat="35.859559988602996" lon="-5.346555020660162">
        <ele>5.905</ele>
        <time>2011-01-03T14:50:35Z</time>
      </trkpt>
      <trkpt lat="35.861346004530787" lon="-5.346117988228798">
        <ele>7.347</ele>
        <time>2011-01-03T14:50:45Z</time>
      </trkpt>
      <trkpt lat="35.862530032172799" lon="-5.345964012667537">
        <ele>7.828</ele>
        <time>2011-01-03T14:50:52Z</time>
      </trkpt>
      <trkpt lat="35.863953027874231" lon="-5.345730995759368">
        <ele>7.828</ele>
        <time>2011-01-03T14:51:00Z</time>
      </trkpt>
      <trkpt lat="35.864955000579357" lon="-5.345212994143367">
        <ele>8.308999999999999</ele>
        <time>2011-01-03T14:51:06Z</time>
      </trkpt>
      <trkpt lat="35.865865023806691" lon="-5.345010990276933">
        <ele>9.27</ele>
        <time>2011-01-03T14:51:12Z</time>
      </trkpt>
      <trkpt lat="35.866458965465426" lon="-5.345051977783442">
        <ele>8.789</ele>
        <time>2011-01-03T14:51:18Z</time>
      </trkpt>
      <trkpt lat="35.866644037887454" lon="-5.34509195946157">
        <ele>7.828</ele>
        <time>2011-01-03T14:51:23Z</time>
      </trkpt>
      <trkpt lat="35.866803964599967" lon="-5.345123978331685">
        <ele>6.866</ele>
        <time>2011-01-03T14:51:27Z</time>
      </trkpt>
      <trkpt lat="35.867119040340185" lon="-5.345163038000464">
        <ele>6.866</ele>
        <time>2011-01-03T14:51:38Z</time>
      </trkpt>
      <trkpt lat="35.867575015872717" lon="-5.345169994980097">
        <ele>4.463</ele>
        <time>2011-01-03T14:51:51Z</time>
      </trkpt>
      <trkpt lat="35.868189996108413" lon="-5.345106963068247">
        <ele>3.502</ele>
        <time>2011-01-03T14:52:08Z</time>
      </trkpt>
      <trkpt lat="35.869161961600184" lon="-5.344930021092296">
        <ele>3.983</ele>
        <time>2011-01-03T14:52:18Z</time>
      </trkpt>
      <trkpt lat="35.869287019595504" lon="-5.344904037192464">
        <ele>3.983</ele>
        <time>2011-01-03T14:52:20Z</time>
      </trkpt>
      <trkpt lat="35.869475025683641" lon="-5.344864977523685">
        <ele>2.06</ele>
        <time>2011-01-03T14:52:27Z</time>
      </trkpt>
      <trkpt lat="35.869583990424871" lon="-5.344843016937375">
        <ele>-0.824</ele>
        <time>2011-01-03T14:54:04Z</time>
      </trkpt>
      <trkpt lat="35.869746012613177" lon="-5.344808986410499">
        <ele>3.021</ele>
        <time>2011-01-03T15:02:28Z</time>
      </trkpt>
      <trkpt lat="35.869885990396142" lon="-5.344785014167428">
        <ele>1.099</ele>
        <time>2011-01-03T15:03:38Z</time>
      </trkpt>
      <trkpt lat="35.870047006756067" lon="-5.344707984477282">
        <ele>-21.012</ele>
        <time>2011-01-03T15:05:41Z</time>
      </trkpt>
      <trkpt lat="35.87022302672267" lon="-5.344628021121025">
        <ele>-17.166</ele>
        <time>2011-01-03T15:05:46Z</time>
      </trkpt>
      <trkpt lat="35.870817974209785" lon="-5.344565995037556">
        <ele>-10.917999999999999</ele>
        <time>2011-01-03T15:05:56Z</time>
      </trkpt>
      <trkpt lat="35.871147969737649" lon="-5.344493994489312">
        <ele>-7.553</ele>
        <time>2011-01-03T15:06:05Z</time>
      </trkpt>
      <trkpt lat="35.871582990512252" lon="-5.344297019764781">
        <ele>-3.708</ele>
        <time>2011-01-03T15:06:16Z</time>
      </trkpt>
      <trkpt lat="35.871700001880527" lon="-5.344214038923383">
        <ele>-1.305</ele>
        <time>2011-01-03T15:06:52Z</time>
      </trkpt>
      <trkpt lat="35.871786000207067" lon="-5.344153018668294">
        <ele>-1.785</ele>
        <time>2011-01-03T15:07:00Z</time>
      </trkpt>
      <trkpt lat="35.871994961053133" lon="-5.343965012580156">
        <ele>-9.476000000000001</ele>
        <time>2011-01-03T15:07:21Z</time>
      </trkpt>
      <trkpt lat="35.872129993513227" lon="-5.343854958191514">
        <ele>-7.553</ele>
        <time>2011-01-03T15:07:28Z</time>
      </trkpt>
      <trkpt lat="35.872321017086506" lon="-5.343704000115395">
        <ele>-5.15</ele>
        <time>2011-01-03T15:08:17Z</time>
      </trkpt>
      <trkpt lat="35.872595021501184" lon="-5.343449022620916">
        <ele>-0.824</ele>
        <time>2011-01-03T15:08:58Z</time>
      </trkpt>
      <trkpt lat="35.873183012008667" lon="-5.342982988804579">
        <ele>-1.305</ele>
        <time>2011-01-03T15:09:09Z</time>
      </trkpt>
      <trkpt lat="35.873987004160881" lon="-5.34238301217556">
        <ele>-0.824</ele>
        <time>2011-01-03T15:09:21Z</time>
      </trkpt>
      <trkpt lat="35.874706003814936" lon="-5.341831985861063">
        <ele>-0.824</ele>
        <time>2011-01-03T15:09:30Z</time>
      </trkpt>
      <trkpt lat="35.875806966796517" lon="-5.340961022302508">
        <ele>-0.343</ele>
        <time>2011-01-03T15:09:42Z</time>
      </trkpt>
      <trkpt lat="35.876742973923683" lon="-5.340075977146626">
        <ele>0.137</ele>
        <time>2011-01-03T15:09:53Z</time>
      </trkpt>
      <trkpt lat="35.877504972741008" lon="-5.339175006374717">
        <ele>0.137</ele>
        <time>2011-01-03T15:10:01Z</time>
      </trkpt>
      <trkpt lat="35.878520021215081" lon="-5.338001037016511">
        <ele>0.137</ele>
        <time>2011-01-03T15:10:11Z</time>
      </trkpt>
      <trkpt lat="35.879086973145604" lon="-5.337030999362469">
        <ele>0.137</ele>
        <time>2011-01-03T15:10:19Z</time>
      </trkpt>
      <trkpt lat="35.879429038614035" lon="-5.336266988888383">
        <ele>0.618</ele>
        <time>2011-01-03T15:10:27Z</time>
      </trkpt>
      <trkpt lat="35.879499027505517" lon="-5.336094992235303">
        <ele>0.137</ele>
        <time>2011-01-03T15:10:33Z</time>
      </trkpt>
      <trkpt lat="35.879659960046411" lon="-5.335743958130479">
        <ele>0.618</ele>
        <time>2011-01-03T15:10:39Z</time>
      </trkpt>
      <trkpt lat="35.87993698194623" lon="-5.335053959861398">
        <ele>2.06</ele>
        <time>2011-01-03T15:10:46Z</time>
      </trkpt>
      <trkpt lat="35.879959026351571" lon="-5.334936026483774">
        <ele>2.541</ele>
        <time>2011-01-03T15:10:47Z</time>
      </trkpt>
      <trkpt lat="35.879977969452739" lon="-5.333822993561626">
        <ele>5.425</ele>
        <time>2011-01-03T15:10:55Z</time>
      </trkpt>
      <trkpt lat="35.879926001653075" lon="-5.33353297971189">
        <ele>6.386</ele>
        <time>2011-01-03T15:10:57Z</time>
      </trkpt>
      <trkpt lat="35.879503972828388" lon="-5.332066984847188">
        <ele>7.828</ele>
        <time>2011-01-03T15:11:06Z</time>
      </trkpt>
      <trkpt lat="35.878866026178002" lon="-5.329890036955476">
        <ele>5.425</ele>
        <time>2011-01-03T15:11:18Z</time>
      </trkpt>
      <trkpt lat="35.878654969856143" lon="-5.32908596098423">
        <ele>4.463</ele>
        <time>2011-01-03T15:11:23Z</time>
      </trkpt>
      <trkpt lat="35.87883903644979" lon="-5.328260008245707">
        <ele>3.983</ele>
        <time>2011-01-03T15:11:28Z</time>
      </trkpt>
      <trkpt lat="35.879296017810702" lon="-5.327847031876445">
        <ele>3.502</ele>
        <time>2011-01-03T15:11:32Z</time>
      </trkpt>
      <trkpt lat="35.879970006644726" lon="-5.32742902636528">
        <ele>3.502</ele>
        <time>2011-01-03T15:11:37Z</time>
      </trkpt>
      <trkpt lat="35.880892015993595" lon="-5.326228989288211">
        <ele>3.021</ele>
        <time>2011-01-03T15:11:46Z</time>
      </trkpt>
      <trkpt lat="35.881438013166189" lon="-5.325553994625807">
        <ele>3.021</ele>
        <time>2011-01-03T15:11:52Z</time>
      </trkpt>
      <trkpt lat="35.88206397369504" lon="-5.325040016323328">
        <ele>3.502</ele>
        <time>2011-01-03T15:12:00Z</time>
      </trkpt>
      <trkpt lat="35.882926974445581" lon="-5.32459401525557">
        <ele>5.905</ele>
        <time>2011-01-03T15:12:07Z</time>
      </trkpt>
      <trkpt lat="35.883769020438194" lon="-5.323904016986489">
        <ele>8.308999999999999</ele>
        <time>2011-01-03T15:12:14Z</time>
      </trkpt>
      <trkpt lat="35.885346997529268" lon="-5.32246601767838">
        <ele>8.308999999999999</ele>
        <time>2011-01-03T15:12:27Z</time>
      </trkpt>
      <trkpt lat="35.886436980217695" lon="-5.321262963116169">
        <ele>8.308999999999999</ele>
        <time>2011-01-03T15:12:38Z</time>
      </trkpt>
      <trkpt lat="35.886723976582289" lon="-5.320773040875793">
        <ele>7.828</ele>
        <time>2011-01-03T15:12:43Z</time>
      </trkpt>
      <trkpt lat="35.886981971561909" lon="-5.320337014272809">
        <ele>7.347</ele>
        <time>2011-01-03T15:12:51Z</time>
      </trkpt>
      <trkpt lat="35.887213982641697" lon="-5.319861005991697">
        <ele>7.347</ele>
        <time>2011-01-03T15:12:57Z</time>
      </trkpt>
      <trkpt lat="35.887304004281759" lon="-5.319637041538954">
        <ele>7.347</ele>
        <time>2011-01-03T15:12:59Z</time>
      </trkpt>
      <trkpt lat="35.887415986508131" lon="-5.318629033863545">
        <ele>7.347</ele>
        <time>2011-01-03T15:13:06Z</time>
      </trkpt>
      <trkpt lat="35.887463008984923" lon="-5.317726973444223">
        <ele>7.347</ele>
        <time>2011-01-03T15:13:13Z</time>
      </trkpt>
      <trkpt lat="35.887473989278078" lon="-5.317433020099998">
        <ele>6.866</ele>
        <time>2011-01-03T15:13:18Z</time>
      </trkpt>
      <trkpt lat="35.887484969571233" lon="-5.317203020676971">
        <ele>5.425</ele>
        <time>2011-01-03T15:13:53Z</time>
      </trkpt>
      <trkpt lat="35.887483963742852" lon="-5.317048961296678">
        <ele>4.944</ele>
        <time>2011-01-03T15:13:57Z</time>
      </trkpt>
      <trkpt lat="35.887653026729822" lon="-5.317091038450599">
        <ele>4.463</ele>
        <time>2011-01-03T15:14:01Z</time>
      </trkpt>
      <trkpt lat="35.888072960078716" lon="-5.317165972664952">
        <ele>3.021</ele>
        <time>2011-01-03T15:14:09Z</time>
      </trkpt>
      <trkpt lat="35.888682994991541" lon="-5.317089026793838">
        <ele>0.137</ele>
        <time>2011-01-03T15:14:21Z</time>
      </trkpt>
      <trkpt lat="35.889077028259635" lon="-5.317074023187161">
        <ele>-0.824</ele>
        <time>2011-01-03T15:14:31Z</time>
      </trkpt>
      <trkpt lat="35.889114998281002" lon="-5.317255994305015">
        <ele>-0.343</ele>
        <time>2011-01-03T15:14:35Z</time>
      </trkpt>
      <trkpt lat="35.889206025749445" lon="-5.317757986485958">
        <ele>1.099</ele>
        <time>2011-01-03T15:14:41Z</time>
      </trkpt>
      <trkpt lat="35.889486987143755" lon="-5.318038025870919">
        <ele>3.983</ele>
        <time>2011-01-03T15:14:46Z</time>
      </trkpt>
      <trkpt lat="35.889887977391481" lon="-5.318098040297627">
        <ele>2.06</ele>
        <time>2011-01-03T15:14:53Z</time>
      </trkpt>
      <trkpt lat="35.890589039772749" lon="-5.317360013723373">
        <ele>-3.227</ele>
        <time>2011-01-03T15:15:06Z</time>
      </trkpt>
      <trkpt lat="35.890918029472232" lon="-5.317253982648253">
        <ele>-4.189</ele>
        <time>2011-01-03T15:15:13Z</time>
      </trkpt>
      <trkpt lat="35.890971003100276" lon="-5.31797700561583">
        <ele>-4.189</ele>
        <time>2011-01-03T15:15:25Z</time>
      </trkpt>
      <trkpt lat="35.891078962013125" lon="-5.318498024716973">
        <ele>-1.785</ele>
        <time>2011-01-03T15:15:39Z</time>
      </trkpt>
      <trkpt lat="35.891178958117962" lon="-5.318898009136319">
        <ele>-1.305</ele>
        <time>2011-01-03T15:15:48Z</time>
      </trkpt>
      <trkpt lat="35.891308961436152" lon="-5.319403018802404">
        <ele>-0.343</ele>
        <time>2011-01-03T15:15:55Z</time>
      </trkpt>
      <trkpt lat="35.891394959762692" lon="-5.31967400573194">
        <ele>0.137</ele>
        <time>2011-01-03T15:15:59Z</time>
      </trkpt>
      <trkpt lat="35.891513982787728" lon="-5.319886989891529">
        <ele>0.618</ele>
        <time>2011-01-03T15:16:03Z</time>
      </trkpt>
      <trkpt lat="35.891707018017769" lon="-5.320154959335923">
        <ele>0.618</ele>
        <time>2011-01-03T15:16:08Z</time>
      </trkpt>
      <trkpt lat="35.892171962186694" lon="-5.320805981755257">
        <ele>0.137</ele>
        <time>2011-01-03T15:16:17Z</time>
      </trkpt>
      <trkpt lat="35.892497012391686" lon="-5.321271009743214">
        <ele>-0.343</ele>
        <time>2011-01-03T15:16:24Z</time>
      </trkpt>
      <trkpt lat="35.892570018768311" lon="-5.321374023333192">
        <ele>-0.343</ele>
        <time>2011-01-03T15:16:28Z</time>
      </trkpt>
      <trkpt lat="35.892719971016049" lon="-5.321378968656063">
        <ele>-0.824</ele>
        <time>2011-01-03T15:16:36Z</time>
      </trkpt>
      <trkpt lat="35.892719971016049" lon="-5.321523975580931">
        <ele>-0.824</ele>
        <time>2011-01-03T15:16:45Z</time>
      </trkpt>
      <trkpt lat="35.893116015940905" lon="-5.322082964703441">
        <ele>-1.305</ele>
        <time>2011-01-03T15:16:51Z</time>
      </trkpt>
      <trkpt lat="35.893617002293468" lon="-5.322696017101407">
        <ele>-0.824</ele>
        <time>2011-01-03T15:16:59Z</time>
      </trkpt>
      <trkpt lat="35.893778018653393" lon="-5.322900032624602">
        <ele>-0.824</ele>
        <time>2011-01-03T15:17:10Z</time>
      </trkpt>
      <trkpt lat="35.893877008929849" lon="-5.323036992922425">
        <ele>-1.305</ele>
        <time>2011-01-03T15:17:14Z</time>
      </trkpt>
      <trkpt lat="35.894213039427996" lon="-5.323446029797196">
        <ele>-1.305</ele>
        <time>2011-01-03T15:17:25Z</time>
      </trkpt>
      <trkpt lat="35.89452400803566" lon="-5.323739983141422">
        <ele>-0.824</ele>
        <time>2011-01-03T15:17:35Z</time>
      </trkpt>
      <trkpt lat="35.894918041303754" lon="-5.324212973937392">
        <ele>0.137</ele>
        <time>2011-01-03T15:17:42Z</time>
      </trkpt>
      <trkpt lat="35.89542799629271" lon="-5.324832983314991">
        <ele>0.137</ele>
        <time>2011-01-03T15:17:50Z</time>
      </trkpt>
      <trkpt lat="35.89559898711741" lon="-5.325033981353045">
        <ele>-0.824</ele>
        <time>2011-01-03T15:17:57Z</time>
      </trkpt>
      <trkpt lat="35.895676016807556" lon="-5.324946977198124">
        <ele>-5.63</ele>
        <time>2011-01-03T15:19:44Z</time>
      </trkpt>
      <trkpt lat="35.89559898711741" lon="-5.325019983574748">
        <ele>-18.128</ele>
        <time>2011-01-03T15:20:20Z</time>
      </trkpt>
      <trkpt lat="35.895594041794538" lon="-5.324900038540363">
        <ele>-8.994999999999999</ele>
        <time>2011-01-03T15:20:39Z</time>
      </trkpt>
      <trkpt lat="35.894973026588559" lon="-5.324279023334384">
        <ele>-1.305</ele>
        <time>2011-01-03T15:23:38Z</time>
      </trkpt>
      <trkpt lat="35.894442033022642" lon="-5.323659013956785">
        <ele>-2.747</ele>
        <time>2011-01-03T15:23:49Z</time>
      </trkpt>
      <trkpt lat="35.894340025261045" lon="-5.32356396317482">
        <ele>-3.227</ele>
        <time>2011-01-03T15:23:55Z</time>
      </trkpt>
      <trkpt lat="35.894427029415965" lon="-5.323644010350108">
        <ele>-4.189</ele>
        <time>2011-01-03T15:24:00Z</time>
      </trkpt>
      <trkpt lat="35.894894991070032" lon="-5.32418598420918">
        <ele>-5.15</ele>
        <time>2011-01-03T15:24:08Z</time>
      </trkpt>
      <trkpt lat="35.895887995138764" lon="-5.32534402795136">
        <ele>-4.189</ele>
        <time>2011-01-03T15:24:24Z</time>
      </trkpt>
      <trkpt lat="35.896120006218553" lon="-5.326037965714932">
        <ele>-3.227</ele>
        <time>2011-01-03T15:24:33Z</time>
      </trkpt>
      <trkpt lat="35.896297032013535" lon="-5.326439961791039">
        <ele>-1.785</ele>
        <time>2011-01-03T15:24:41Z</time>
      </trkpt>
      <trkpt lat="35.896290997043252" lon="-5.326669039204717">
        <ele>-2.266</ele>
        <time>2011-01-03T15:24:47Z</time>
      </trkpt>
      <trkpt lat="35.896160993725061" lon="-5.326637020334601">
        <ele>-4.189</ele>
        <time>2011-01-03T15:24:51Z</time>
      </trkpt>
      <trkpt lat="35.896303988993168" lon="-5.326540041714907">
        <ele>-4.669</ele>
        <time>2011-01-03T15:24:52Z</time>
      </trkpt>
      <trkpt lat="35.896088993176818" lon="-5.326154977083206">
        <ele>-5.15</ele>
        <time>2011-01-03T15:24:57Z</time>
      </trkpt>
      <trkpt lat="35.895525980740786" lon="-5.324942031875253">
        <ele>-5.63</ele>
        <time>2011-01-03T15:25:10Z</time>
      </trkpt>
      <trkpt lat="35.8948690071702" lon="-5.324154971167445">
        <ele>-6.111</ele>
        <time>2011-01-03T15:25:19Z</time>
      </trkpt>
      <trkpt lat="35.8938829600811" lon="-5.32304503954947">
        <ele>-5.15</ele>
        <time>2011-01-03T15:25:32Z</time>
      </trkpt>
      <trkpt lat="35.893636029213667" lon="-5.322718983516097">
        <ele>-4.669</ele>
        <time>2011-01-03T15:25:38Z</time>
      </trkpt>
      <trkpt lat="35.893194973468781" lon="-5.322179021313787">
        <ele>-4.189</ele>
        <time>2011-01-03T15:25:45Z</time>
      </trkpt>
      <trkpt lat="35.892723994329572" lon="-5.321580972522497">
        <ele>-4.669</ele>
        <time>2011-01-03T15:25:53Z</time>
      </trkpt>
      <trkpt lat="35.892415037378669" lon="-5.321157015860081">
        <ele>-4.189</ele>
        <time>2011-01-03T15:26:00Z</time>
      </trkpt>
      <trkpt lat="35.892284028232098" lon="-5.320969009771943">
        <ele>-3.227</ele>
        <time>2011-01-03T15:26:06Z</time>
      </trkpt>
      <trkpt lat="35.892122006043792" lon="-5.320733981207013">
        <ele>-2.747</ele>
        <time>2011-01-03T15:26:13Z</time>
      </trkpt>
      <trkpt lat="35.891722021624446" lon="-5.320177003741264">
        <ele>-2.747</ele>
        <time>2011-01-03T15:26:22Z</time>
      </trkpt>
      <trkpt lat="35.891647003591061" lon="-5.320065021514893">
        <ele>-2.266</ele>
        <time>2011-01-03T15:26:25Z</time>
      </trkpt>
      <trkpt lat="35.891292029991746" lon="-5.319318026304245">
        <ele>-2.266</ele>
        <time>2011-01-03T15:26:33Z</time>
      </trkpt>
      <trkpt lat="35.891017019748688" lon="-5.318240029737353">
        <ele>-0.343</ele>
        <time>2011-01-03T15:26:44Z</time>
      </trkpt>
      <trkpt lat="35.890868995338678" lon="-5.317521030083299">
        <ele>0.137</ele>
        <time>2011-01-03T15:26:52Z</time>
      </trkpt>
      <trkpt lat="35.890709990635514" lon="-5.317318020388484">
        <ele>0.137</ele>
        <time>2011-01-03T15:26:59Z</time>
      </trkpt>
      <trkpt lat="35.890523996204138" lon="-5.317393960431218">
        <ele>0.618</ele>
        <time>2011-01-03T15:27:03Z</time>
      </trkpt>
      <trkpt lat="35.890195006504655" lon="-5.317778019234538">
        <ele>4.944</ele>
        <time>2011-01-03T15:27:13Z</time>
      </trkpt>
      <trkpt lat="35.890124011784792" lon="-5.318133998662233">
        <ele>4.944</ele>
        <time>2011-01-03T15:27:22Z</time>
      </trkpt>
      <trkpt lat="35.889973975718021" lon="-5.318731963634491">
        <ele>4.463</ele>
        <time>2011-01-03T15:27:30Z</time>
      </trkpt>
      <trkpt lat="35.889916978776455" lon="-5.319234039634466">
        <ele>3.502</ele>
        <time>2011-01-03T15:27:35Z</time>
      </trkpt>
      <trkpt lat="35.889814971014857" lon="-5.319578032940626">
        <ele>3.502</ele>
        <time>2011-01-03T15:27:39Z</time>
      </trkpt>
      <trkpt lat="35.889385985210538" lon="-5.320138027891517">
        <ele>5.905</ele>
        <time>2011-01-03T15:27:47Z</time>
      </trkpt>
      <trkpt lat="35.889194961637259" lon="-5.320314969867468">
        <ele>6.866</ele>
        <time>2011-01-03T15:27:51Z</time>
      </trkpt>
      <trkpt lat="35.888791037723422" lon="-5.320415971800685">
        <ele>7.347</ele>
        <time>2011-01-03T15:27:57Z</time>
      </trkpt>
      <trkpt lat="35.888217967003584" lon="-5.320455031469464">
        <ele>8.308999999999999</ele>
        <time>2011-01-03T15:28:05Z</time>
      </trkpt>
      <trkpt lat="35.888043958693743" lon="-5.320494007319212">
        <ele>9.27</ele>
        <time>2011-01-03T15:28:08Z</time>
      </trkpt>
      <trkpt lat="35.887584965676069" lon="-5.32066298648715">
        <ele>10.712</ele>
        <time>2011-01-03T15:28:14Z</time>
      </trkpt>
      <trkpt lat="35.887331999838352" lon="-5.320531977340579">
        <ele>9.27</ele>
        <time>2011-01-03T15:28:19Z</time>
      </trkpt>
      <trkpt lat="35.887200990691781" lon="-5.320256967097521">
        <ele>6.386</ele>
        <time>2011-01-03T15:28:23Z</time>
      </trkpt>
      <trkpt lat="35.88717601262033" lon="-5.319968964904547">
        <ele>4.463</ele>
        <time>2011-01-03T15:28:27Z</time>
      </trkpt>
      <trkpt lat="35.887278020381927" lon="-5.319700995460153">
        <ele>3.502</ele>
        <time>2011-01-03T15:28:30Z</time>
      </trkpt>
      <trkpt lat="35.887416992336512" lon="-5.318615958094597">
        <ele>3.983</ele>
        <time>2011-01-03T15:28:39Z</time>
      </trkpt>
      <trkpt lat="35.88745797984302" lon="-5.317888995632529">
        <ele>4.463</ele>
        <time>2011-01-03T15:28:47Z</time>
      </trkpt>
      <trkpt lat="35.887463008984923" lon="-5.317565035074949">
        <ele>-3.708</ele>
        <time>2011-01-03T15:29:04Z</time>
      </trkpt>
      <trkpt lat="35.887481030076742" lon="-5.316989030689001">
        <ele>-6.592</ele>
        <time>2011-01-03T15:29:13Z</time>
      </trkpt>
      <trkpt lat="35.887442976236343" lon="-5.316185038536787">
        <ele>-9.957000000000001</ele>
        <time>2011-01-03T15:29:22Z</time>
      </trkpt>
      <trkpt lat="35.88756401091814" lon="-5.316171962767839">
        <ele>-11.398</ele>
        <time>2011-01-03T15:29:28Z</time>
      </trkpt>
      <trkpt lat="35.888087041676044" lon="-5.316248992457986">
        <ele>-10.917999999999999</ele>
        <time>2011-01-03T15:29:39Z</time>
      </trkpt>
      <trkpt lat="35.888212015852332" lon="-5.316259972751141">
        <ele>-11.398</ele>
        <time>2011-01-03T15:29:47Z</time>
      </trkpt>
      <trkpt lat="35.888350987806916" lon="-5.316267013549805">
        <ele>-12.84</ele>
        <time>2011-01-03T15:29:55Z</time>
      </trkpt>
      <trkpt lat="35.888489037752151" lon="-5.316287968307734">
        <ele>-12.359999999999999</ele>
        <time>2011-01-03T15:29:59Z</time>
      </trkpt>
      <trkpt lat="35.888634966686368" lon="-5.316449990496039">
        <ele>-12.359999999999999</ele>
        <time>2011-01-03T15:30:05Z</time>
      </trkpt>
      <trkpt lat="35.88870202191174" lon="-5.316910995170474">
        <ele>-13.321</ele>
        <time>2011-01-03T15:30:17Z</time>
      </trkpt>
      <trkpt lat="35.888546034693718" lon="-5.317108975723386">
        <ele>-12.84</ele>
        <time>2011-01-03T15:30:22Z</time>
      </trkpt>
      <trkpt lat="35.888147978112102" lon="-5.317163961008191">
        <ele>-11.879</ele>
        <time>2011-01-03T15:30:31Z</time>
      </trkpt>
      <trkpt lat="35.888085030019283" lon="-5.317019037902355">
        <ele>-10.917999999999999</ele>
        <time>2011-01-03T15:30:37Z</time>
      </trkpt>
      <trkpt lat="35.888085030019283" lon="-5.316799012944102">
        <ele>-9.957000000000001</ele>
        <time>2011-01-03T15:30:46Z</time>
      </trkpt>
      <trkpt lat="35.888078995049" lon="-5.316614024341106">
        <ele>-5.15</ele>
        <time>2011-01-03T15:30:56Z</time>
      </trkpt>
      <trkpt lat="35.888063991442323" lon="-5.316418977454305">
        <ele>-3.227</ele>
        <time>2011-01-03T15:31:02Z</time>
      </trkpt>
      <trkpt lat="35.888042030856013" lon="-5.316245974972844">
        <ele>-5.15</ele>
        <time>2011-01-03T15:31:11Z</time>
      </trkpt>
      <trkpt lat="35.88814202696085" lon="-5.316254021599889">
        <ele>-4.669</ele>
        <time>2011-01-03T15:31:17Z</time>
      </trkpt>
      <trkpt lat="35.888473028317094" lon="-5.316284028813243">
        <ele>-5.63</ele>
        <time>2011-01-03T15:31:42Z</time>
      </trkpt>
      <trkpt lat="35.888621974736452" lon="-5.316287968307734">
        <ele>-4.669</ele>
        <time>2011-01-03T15:31:52Z</time>
      </trkpt>
      <trkpt lat="35.888989018276334" lon="-5.316156037151814">
        <ele>-3.708</ele>
        <time>2011-01-03T15:31:58Z</time>
      </trkpt>
      <trkpt lat="35.889092031866312" lon="-5.315653961151838">
        <ele>-6.111</ele>
        <time>2011-01-03T15:32:11Z</time>
      </trkpt>
      <trkpt lat="35.888993963599205" lon="-5.315047027543187">
        <ele>-4.669</ele>
        <time>2011-01-03T15:32:21Z</time>
      </trkpt>
      <trkpt lat="35.888847028836608" lon="-5.314267007634044">
        <ele>-0.824</ele>
        <time>2011-01-03T15:32:32Z</time>
      </trkpt>
      <trkpt lat="35.888824984431267" lon="-5.313995014876127">
        <ele>0.618</ele>
        <time>2011-01-03T15:32:37Z</time>
      </trkpt>
      <trkpt lat="35.888835964724422" lon="-5.313415993005037">
        <ele>-2.266</ele>
        <time>2011-01-03T15:32:48Z</time>
      </trkpt>
      <trkpt lat="35.888740997761488" lon="-5.313078034669161">
        <ele>-8.515000000000001</ele>
        <time>2011-01-03T15:33:05Z</time>
      </trkpt>
      <trkpt lat="35.888707973062992" lon="-5.312850968912244">
        <ele>-10.436999999999999</ele>
        <time>2011-01-03T15:33:09Z</time>
      </trkpt>
      <trkpt lat="35.888730017468333" lon="-5.312216039747">
        <ele>-14.763</ele>
        <time>2011-01-03T15:33:18Z</time>
      </trkpt>
      <trkpt lat="35.888774022459984" lon="-5.311543978750706">
        <ele>-17.166</ele>
        <time>2011-01-03T15:33:28Z</time>
      </trkpt>
      <trkpt lat="35.888883993029594" lon="-5.310513004660606">
        <ele>-18.608000000000001</ele>
        <time>2011-01-03T15:33:39Z</time>
      </trkpt>
      <trkpt lat="35.889030005782843" lon="-5.309829963371158">
        <ele>-19.088999999999999</ele>
        <time>2011-01-03T15:33:51Z</time>
      </trkpt>
      <trkpt lat="35.888953981921077" lon="-5.308836959302425">
        <ele>-19.57</ele>
        <time>2011-01-03T15:33:58Z</time>
      </trkpt>
      <trkpt lat="35.889280959963799" lon="-5.307982005178928">
        <ele>-18.608000000000001</ele>
        <time>2011-01-03T15:34:08Z</time>
      </trkpt>
      <trkpt lat="35.889836009591818" lon="-5.307007022202015">
        <ele>-17.646999999999998</ele>
        <time>2011-01-03T15:34:21Z</time>
      </trkpt>
      <trkpt lat="35.889996020123363" lon="-5.306562026962638">
        <ele>-18.608000000000001</ele>
        <time>2011-01-03T15:34:30Z</time>
      </trkpt>
      <trkpt lat="35.890373960137367" lon="-5.306552974507213">
        <ele>-19.088999999999999</ele>
        <time>2011-01-03T15:34:40Z</time>
      </trkpt>
      <trkpt lat="35.890795988962054" lon="-5.30650201253593">
        <ele>-20.050000000000001</ele>
        <time>2011-01-03T15:34:49Z</time>
      </trkpt>
      <trkpt lat="35.891158003360033" lon="-5.306448033079505">
        <ele>-19.57</ele>
        <time>2011-01-03T15:34:59Z</time>
      </trkpt>
      <trkpt lat="35.891270991414785" lon="-5.306405033916235">
        <ele>-19.57</ele>
        <time>2011-01-03T15:35:02Z</time>
      </trkpt>
      <trkpt lat="35.891497973352671" lon="-5.306105967611074">
        <ele>-20.050000000000001</ele>
        <time>2011-01-03T15:35:10Z</time>
      </trkpt>
      <trkpt lat="35.891627976670861" lon="-5.305826012045145">
        <ele>-20.050000000000001</ele>
        <time>2011-01-03T15:35:16Z</time>
      </trkpt>
      <trkpt lat="35.89175496250391" lon="-5.305950986221433">
        <ele>-20.050000000000001</ele>
        <time>2011-01-03T15:35:22Z</time>
      </trkpt>
      <trkpt lat="35.891508031636477" lon="-5.306291962042451">
        <ele>-20.050000000000001</ele>
        <time>2011-01-03T15:35:32Z</time>
      </trkpt>
      <trkpt lat="35.8913220372051" lon="-5.30641702003777">
        <ele>-20.530999999999999</ele>
        <time>2011-01-03T15:35:37Z</time>
      </trkpt>
      <trkpt lat="35.891133025288582" lon="-5.306497989222407">
        <ele>-20.530999999999999</ele>
        <time>2011-01-03T15:35:41Z</time>
      </trkpt>
      <trkpt lat="35.890022004023194" lon="-5.306457001715899">
        <ele>-20.530999999999999</ele>
        <time>2011-01-03T15:35:53Z</time>
      </trkpt>
      <trkpt lat="35.889923013746738" lon="-5.306805018335581">
        <ele>-22.454000000000001</ele>
        <time>2011-01-03T15:36:04Z</time>
      </trkpt>
      <trkpt lat="35.889658983796835" lon="-5.307321008294821">
        <ele>-22.454000000000001</ele>
        <time>2011-01-03T15:36:14Z</time>
      </trkpt>
      <trkpt lat="35.889322031289339" lon="-5.307902041822672">
        <ele>-19.57</ele>
        <time>2011-01-03T15:36:24Z</time>
      </trkpt>
      <trkpt lat="35.889049032703042" lon="-5.308631015941501">
        <ele>-16.686</ele>
        <time>2011-01-03T15:36:34Z</time>
      </trkpt>
      <trkpt lat="35.888799000531435" lon="-5.309413969516754">
        <ele>-21.972999999999999</ele>
        <time>2011-01-03T15:36:46Z</time>
      </trkpt>
      <trkpt lat="35.888636978343129" lon="-5.310381995514035">
        <ele>-25.338000000000001</ele>
        <time>2011-01-03T15:36:58Z</time>
      </trkpt>
      <trkpt lat="35.888432040810585" lon="-5.311654033139348">
        <ele>-24.856999999999999</ele>
        <time>2011-01-03T15:37:14Z</time>
      </trkpt>
      <trkpt lat="35.88872398249805" lon="-5.312337996438146">
        <ele>-24.376000000000001</ele>
        <time>2011-01-03T15:37:23Z</time>
      </trkpt>
      <trkpt lat="35.888707973062992" lon="-5.312742004171014">
        <ele>-23.414999999999999</ele>
        <time>2011-01-03T15:37:28Z</time>
      </trkpt>
      <trkpt lat="35.888713002204895" lon="-5.312935039401054">
        <ele>-22.454000000000001</ele>
        <time>2011-01-03T15:37:32Z</time>
      </trkpt>
      <trkpt lat="35.888737980276346" lon="-5.313069988042116">
        <ele>-21.012</ele>
        <time>2011-01-03T15:37:37Z</time>
      </trkpt>
      <trkpt lat="35.888661034405231" lon="-5.31314299441874">
        <ele>-22.454000000000001</ele>
        <time>2011-01-03T15:37:49Z</time>
      </trkpt>
      <trkpt lat="35.888387029990554" lon="-5.313059007748961">
        <ele>-21.492000000000001</ele>
        <time>2011-01-03T15:37:55Z</time>
      </trkpt>
      <trkpt lat="35.888224001973867" lon="-5.313123967498541">
        <ele>-20.050000000000001</ele>
        <time>2011-01-03T15:38:04Z</time>
      </trkpt>
      <trkpt lat="35.888153007254004" lon="-5.312805036082864">
        <ele>-19.088999999999999</ele>
        <time>2011-01-03T15:38:11Z</time>
      </trkpt>
      <trkpt lat="35.888045970350504" lon="-5.312503036111593">
        <ele>-18.608000000000001</ele>
        <time>2011-01-03T15:38:20Z</time>
      </trkpt>
      <trkpt lat="35.888339001685381" lon="-5.312195001170039">
        <ele>-12.359999999999999</ele>
        <time>2011-01-03T15:38:37Z</time>
      </trkpt>
      <trkpt lat="35.888457018882036" lon="-5.311482036486268">
        <ele>-10.436999999999999</ele>
        <time>2011-01-03T15:38:45Z</time>
      </trkpt>
      <trkpt lat="35.888612000271678" lon="-5.310548041015863">
        <ele>-5.63</ele>
        <time>2011-01-03T15:38:56Z</time>
      </trkpt>
      <trkpt lat="35.888758013024926" lon="-5.309628965333104">
        <ele>-1.305</ele>
        <time>2011-01-03T15:39:07Z</time>
      </trkpt>
      <trkpt lat="35.888800006359816" lon="-5.309412041679025">
        <ele>-0.343</ele>
        <time>2011-01-03T15:39:11Z</time>
      </trkpt>
      <trkpt lat="35.888883993029594" lon="-5.309069976210594">
        <ele>0.618</ele>
        <time>2011-01-03T15:39:21Z</time>
      </trkpt>
      <trkpt lat="35.888936966657639" lon="-5.308894040063024">
        <ele>1.579</ele>
        <time>2011-01-03T15:39:39Z</time>
      </trkpt>
      <trkpt lat="35.889238966628909" lon="-5.308119971305132">
        <ele>1.579</ele>
        <time>2011-01-03T15:39:50Z</time>
      </trkpt>
      <trkpt lat="35.889555970206857" lon="-5.307498034089804">
        <ele>5.905</ele>
        <time>2011-01-03T15:40:00Z</time>
      </trkpt>
      <trkpt lat="35.889830980449915" lon="-5.307015990838409">
        <ele>5.425</ele>
        <time>2011-01-03T15:40:07Z</time>
      </trkpt>
      <trkpt lat="35.889898035675287" lon="-5.306881964206696">
        <ele>5.425</ele>
        <time>2011-01-03T15:40:09Z</time>
      </trkpt>
      <trkpt lat="35.890176985412836" lon="-5.305831041187048">
        <ele>3.983</ele>
        <time>2011-01-03T15:40:21Z</time>
      </trkpt>
      <trkpt lat="35.890375971794128" lon="-5.305036017671228">
        <ele>3.502</ele>
        <time>2011-01-03T15:40:30Z</time>
      </trkpt>
      <trkpt lat="35.890450989827514" lon="-5.304797971621156">
        <ele>3.021</ele>
        <time>2011-01-03T15:40:33Z</time>
      </trkpt>
      <trkpt lat="35.891074016690254" lon="-5.303768003359437">
        <ele>5.905</ele>
        <time>2011-01-03T15:40:48Z</time>
      </trkpt>
      <trkpt lat="35.891503002494574" lon="-5.303348992019892">
        <ele>8.308999999999999</ele>
        <time>2011-01-03T15:40:57Z</time>
      </trkpt>
      <trkpt lat="35.891712969169021" lon="-5.303117986768484">
        <ele>8.308999999999999</ele>
        <time>2011-01-03T15:41:02Z</time>
      </trkpt>
      <trkpt lat="35.891811037436128" lon="-5.302973985671997">
        <ele>8.308999999999999</ele>
        <time>2011-01-03T15:41:05Z</time>
      </trkpt>
      <trkpt lat="35.892103984951973" lon="-5.302338972687721">
        <ele>10.712</ele>
        <time>2011-01-03T15:41:15Z</time>
      </trkpt>
      <trkpt lat="35.892325015738606" lon="-5.3018600307405">
        <ele>7.828</ele>
        <time>2011-01-03T15:41:22Z</time>
      </trkpt>
      <trkpt lat="35.892592985183001" lon="-5.30130104161799">
        <ele>8.308999999999999</ele>
        <time>2011-01-03T15:41:30Z</time>
      </trkpt>
      <trkpt lat="35.892901020124555" lon="-5.300909020006657">
        <ele>12.634</ele>
        <time>2011-01-03T15:41:39Z</time>
      </trkpt>
      <trkpt lat="35.893090032041073" lon="-5.300764013081789">
        <ele>15.038</ele>
        <time>2011-01-03T15:41:43Z</time>
      </trkpt>
      <trkpt lat="35.893806014209986" lon="-5.300456983968616">
        <ele>15.518000000000001</ele>
        <time>2011-01-03T15:41:54Z</time>
      </trkpt>
      <trkpt lat="35.894563989713788" lon="-5.300360005348921">
        <ele>14.076000000000001</ele>
        <time>2011-01-03T15:42:04Z</time>
      </trkpt>
      <trkpt lat="35.894947964698076" lon="-5.300134029239416">
        <ele>13.596</ele>
        <time>2011-01-03T15:42:11Z</time>
      </trkpt>
      <trkpt lat="35.895252982154489" lon="-5.29977897182107">
        <ele>12.154</ele>
        <time>2011-01-03T15:42:19Z</time>
      </trkpt>
      <trkpt lat="35.895643997937441" lon="-5.299158040434122">
        <ele>12.154</ele>
        <time>2011-01-03T15:42:28Z</time>
      </trkpt>
      <trkpt lat="35.896046999841928" lon="-5.298606008291245">
        <ele>13.596</ele>
        <time>2011-01-03T15:42:37Z</time>
      </trkpt>
      <trkpt lat="35.896156970411539" lon="-5.298501988872886">
        <ele>13.596</ele>
        <time>2011-01-03T15:42:39Z</time>
      </trkpt>
      <trkpt lat="35.896580005064607" lon="-5.298399981111288">
        <ele>13.596</ele>
        <time>2011-01-03T15:42:45Z</time>
      </trkpt>
      <trkpt lat="35.896752001717687" lon="-5.298389000818133">
        <ele>14.076000000000001</ele>
        <time>2011-01-03T15:42:47Z</time>
      </trkpt>
      <trkpt lat="35.897798985242844" lon="-5.298501988872886">
        <ele>15.999000000000001</ele>
        <time>2011-01-03T15:43:00Z</time>
      </trkpt>
      <trkpt lat="35.898857032880187" lon="-5.298760989680886">
        <ele>17.440999999999999</ele>
        <time>2011-01-03T15:43:13Z</time>
      </trkpt>
      <trkpt lat="35.899212006479502" lon="-5.29872796498239">
        <ele>16.960000000000001</ele>
        <time>2011-01-03T15:43:18Z</time>
      </trkpt>
      <trkpt lat="35.899610985070467" lon="-5.298692006617785">
        <ele>16.960000000000001</ele>
        <time>2011-01-03T15:43:24Z</time>
      </trkpt>
      <trkpt lat="35.900415983051062" lon="-5.298233013600111">
        <ele>15.038</ele>
        <time>2011-01-03T15:43:35Z</time>
      </trkpt>
      <trkpt lat="35.901044039055705" lon="-5.297480989247561">
        <ele>13.115</ele>
        <time>2011-01-03T15:43:46Z</time>
      </trkpt>
      <trkpt lat="35.901539996266365" lon="-5.296779004856944">
        <ele>12.154</ele>
        <time>2011-01-03T15:43:58Z</time>
      </trkpt>
      <trkpt lat="35.901878960430622" lon="-5.296299979090691">
        <ele>10.712</ele>
        <time>2011-01-03T15:44:07Z</time>
      </trkpt>
      <trkpt lat="35.902075013145804" lon="-5.29558701440692">
        <ele>9.27</ele>
        <time>2011-01-03T15:44:16Z</time>
      </trkpt>
      <trkpt lat="35.902180960401893" lon="-5.295073036104441">
        <ele>9.27</ele>
        <time>2011-01-03T15:44:22Z</time>
      </trkpt>
      <trkpt lat="35.90232303366065" lon="-5.294382032006979">
        <ele>10.712</ele>
        <time>2011-01-03T15:44:30Z</time>
      </trkpt>
      <trkpt lat="35.902104014530778" lon="-5.293013015761972">
        <ele>17.922000000000001</ele>
        <time>2011-01-03T15:44:43Z</time>
      </trkpt>
      <trkpt lat="35.902197975665331" lon="-5.2926039788872">
        <ele>20.806000000000001</ele>
        <time>2011-01-03T15:44:50Z</time>
      </trkpt>
      <trkpt lat="35.902476003393531" lon="-5.291980030015111">
        <ele>24.170000000000002</ele>
        <time>2011-01-03T15:44:58Z</time>
      </trkpt>
      <trkpt lat="35.902627967298031" lon="-5.291640982031822">
        <ele>26.574000000000002</ele>
        <time>2011-01-03T15:45:02Z</time>
      </trkpt>
      <trkpt lat="35.902606006711721" lon="-5.290411021560431">
        <ele>35.225000000000001</ele>
        <time>2011-01-03T15:45:13Z</time>
      </trkpt>
      <trkpt lat="35.902127986773849" lon="-5.289329001680017">
        <ele>42.915999999999997</ele>
        <time>2011-01-03T15:45:23Z</time>
      </trkpt>
      <trkpt lat="35.901476964354515" lon="-5.28806802816689">
        <ele>52.529000000000003</ele>
        <time>2011-01-03T15:45:35Z</time>
      </trkpt>
      <trkpt lat="35.901448968797922" lon="-5.287583973258734">
        <ele>55.893999999999998</ele>
        <time>2011-01-03T15:45:40Z</time>
      </trkpt>
      <trkpt lat="35.901437988504767" lon="-5.28740300796926">
        <ele>58.777999999999999</ele>
        <time>2011-01-03T15:45:44Z</time>
      </trkpt>
      <trkpt lat="35.901419967412949" lon="-5.28710201382637">
        <ele>61.180999999999997</ele>
        <time>2011-01-03T15:45:48Z</time>
      </trkpt>
      <trkpt lat="35.901362970471382" lon="-5.286861034110189">
        <ele>63.103999999999999</ele>
        <time>2011-01-03T15:45:52Z</time>
      </trkpt>
      <trkpt lat="35.900997016578913" lon="-5.286299027502537">
        <ele>67.909999999999997</ele>
        <time>2011-01-03T15:45:59Z</time>
      </trkpt>
      <trkpt lat="35.900810016319156" lon="-5.286012031137943">
        <ele>70.313000000000002</ele>
        <time>2011-01-03T15:46:03Z</time>
      </trkpt>
      <trkpt lat="35.900746984407306" lon="-5.285638030618429">
        <ele>73.197999999999993</ele>
        <time>2011-01-03T15:46:08Z</time>
      </trkpt>
      <trkpt lat="35.900670038536191" lon="-5.285174008458853">
        <ele>76.081000000000003</ele>
        <time>2011-01-03T15:46:15Z</time>
      </trkpt>
      <trkpt lat="35.900640031322837" lon="-5.284994971007109">
        <ele>77.522999999999996</ele>
        <time>2011-01-03T15:46:18Z</time>
      </trkpt>
      <trkpt lat="35.900575993582606" lon="-5.284854993224144">
        <ele>78.484999999999999</ele>
        <time>2011-01-03T15:46:20Z</time>
      </trkpt>
      <trkpt lat="35.900373989716172" lon="-5.284440005198121">
        <ele>81.369</ele>
        <time>2011-01-03T15:46:25Z</time>
      </trkpt>
      <trkpt lat="35.899911979213357" lon="-5.28349201194942">
        <ele>88.097999999999999</ele>
        <time>2011-01-03T15:46:35Z</time>
      </trkpt>
      <trkpt lat="35.899797985330224" lon="-5.28325698338449">
        <ele>90.501000000000005</ele>
        <time>2011-01-03T15:46:38Z</time>
      </trkpt>
      <trkpt lat="35.899620959535241" lon="-5.2828040253371">
        <ele>93.866</ele>
        <time>2011-01-03T15:46:43Z</time>
      </trkpt>
      <trkpt lat="35.899418033659458" lon="-5.282282000407577">
        <ele>96.269000000000005</ele>
        <time>2011-01-03T15:46:49Z</time>
      </trkpt>
      <trkpt lat="35.899267997592688" lon="-5.281498041003943">
        <ele>101.07599999999999</ele>
        <time>2011-01-03T15:46:57Z</time>
      </trkpt>
      <trkpt lat="35.899241007864475" lon="-5.281162010505796">
        <ele>102.998</ele>
        <time>2011-01-03T15:47:00Z</time>
      </trkpt>
      <trkpt lat="35.899191973730922" lon="-5.280606038868427">
        <ele>105.88200000000001</ele>
        <time>2011-01-03T15:47:05Z</time>
      </trkpt>
      <trkpt lat="35.898871030658484" lon="-5.280123995617032">
        <ele>109.247</ele>
        <time>2011-01-03T15:47:11Z</time>
      </trkpt>
      <trkpt lat="35.898468028753996" lon="-5.279946969822049">
        <ele>109.72799999999999</ele>
        <time>2011-01-03T15:47:15Z</time>
      </trkpt>
      <trkpt lat="35.898020016029477" lon="-5.280304038897157">
        <ele>109.247</ele>
        <time>2011-01-03T15:47:20Z</time>
      </trkpt>
      <trkpt lat="35.898006018251181" lon="-5.280578965321183">
        <ele>109.247</ele>
        <time>2011-01-03T15:47:25Z</time>
      </trkpt>
      <trkpt lat="35.897492039948702" lon="-5.280664963647723">
        <ele>110.68899999999999</ele>
        <time>2011-01-03T15:47:32Z</time>
      </trkpt>
      <trkpt lat="35.897257011383772" lon="-5.280409986153245">
        <ele>66.468000000000004</ele>
        <time>2011-01-03T15:50:32Z</time>
      </trkpt>
      <trkpt lat="35.897504026070237" lon="-5.280611990019679">
        <ele>114.53400000000001</ele>
        <time>2011-01-03T15:52:40Z</time>
      </trkpt>
      <trkpt lat="35.898014986887574" lon="-5.280396994203329">
        <ele>112.131</ele>
        <time>2011-01-03T15:54:29Z</time>
      </trkpt>
      <trkpt lat="35.898628039285541" lon="-5.279953004792333">
        <ele>111.65000000000001</ele>
        <time>2011-01-03T15:54:39Z</time>
      </trkpt>
      <trkpt lat="35.898919980973005" lon="-5.280159031972289">
        <ele>110.68899999999999</ele>
        <time>2011-01-03T15:54:45Z</time>
      </trkpt>
      <trkpt lat="35.899188034236431" lon="-5.280561028048396">
        <ele>107.324</ele>
        <time>2011-01-03T15:54:50Z</time>
      </trkpt>
      <trkpt lat="35.899198008701205" lon="-5.280675021931529">
        <ele>106.84399999999999</ele>
        <time>2011-01-03T15:54:51Z</time>
      </trkpt>
      <trkpt lat="35.899230027571321" lon="-5.281035024672747">
        <ele>103.95999999999999</ele>
        <time>2011-01-03T15:54:54Z</time>
      </trkpt>
      <trkpt lat="35.899367993697524" lon="-5.282155014574528">
        <ele>96.269000000000005</ele>
        <time>2011-01-03T15:55:03Z</time>
      </trkpt>
      <trkpt lat="35.899572009220719" lon="-5.282676033675671">
        <ele>94.826999999999998</ele>
        <time>2011-01-03T15:55:08Z</time>
      </trkpt>
      <trkpt lat="35.899690026417375" lon="-5.282979039475322">
        <ele>92.905000000000001</ele>
        <time>2011-01-03T15:55:12Z</time>
      </trkpt>
      <trkpt lat="35.899747023358941" lon="-5.283124968409538">
        <ele>92.424000000000007</ele>
        <time>2011-01-03T15:55:14Z</time>
      </trkpt>
      <trkpt lat="35.899898987263441" lon="-5.283466028049588">
        <ele>90.021000000000001</ele>
        <time>2011-01-03T15:55:18Z</time>
      </trkpt>
      <trkpt lat="35.900169974192977" lon="-5.284021999686956">
        <ele>85.213999999999999</ele>
        <time>2011-01-03T15:55:24Z</time>
      </trkpt>
      <trkpt lat="35.90043400414288" lon="-5.284561961889267">
        <ele>81.369</ele>
        <time>2011-01-03T15:55:30Z</time>
      </trkpt>
      <trkpt lat="35.90062502771616" lon="-5.2849539835006">
        <ele>78.965000000000003</ele>
        <time>2011-01-03T15:55:35Z</time>
      </trkpt>
      <trkpt lat="35.900702979415655" lon="-5.285370983183384">
        <ele>76.081000000000003</ele>
        <time>2011-01-03T15:55:42Z</time>
      </trkpt>
      <trkpt lat="35.900747990235686" lon="-5.28563903644681">
        <ele>73.677999999999997</ele>
        <time>2011-01-03T15:55:46Z</time>
      </trkpt>
      <trkpt lat="35.900805993005633" lon="-5.285988980904222">
        <ele>69.832999999999998</ele>
        <time>2011-01-03T15:55:51Z</time>
      </trkpt>
      <trkpt lat="35.901011014357209" lon="-5.286319982260466">
        <ele>65.988</ele>
        <time>2011-01-03T15:55:56Z</time>
      </trkpt>
      <trkpt lat="35.901412004604936" lon="-5.286959018558264">
        <ele>60.219999999999999</ele>
        <time>2011-01-03T15:56:06Z</time>
      </trkpt>
      <trkpt lat="35.901436982676387" lon="-5.287389010190964">
        <ele>57.817</ele>
        <time>2011-01-03T15:56:11Z</time>
      </trkpt>
      <trkpt lat="35.901448968797922" lon="-5.287581961601973">
        <ele>56.854999999999997</ele>
        <time>2011-01-03T15:56:14Z</time>
      </trkpt>
      <trkpt lat="35.901473024860024" lon="-5.287993010133505">
        <ele>52.529000000000003</ele>
        <time>2011-01-03T15:56:20Z</time>
      </trkpt>
      <trkpt lat="35.901484005153179" lon="-5.288190990686417">
        <ele>51.567999999999998</ele>
        <time>2011-01-03T15:56:22Z</time>
      </trkpt>
      <trkpt lat="35.90232303366065" lon="-5.289617003872991">
        <ele>39.551000000000002</ele>
        <time>2011-01-03T15:56:36Z</time>
      </trkpt>
      <trkpt lat="35.902612963691354" lon="-5.290490984916687">
        <ele>34.264000000000003</ele>
        <time>2011-01-03T15:56:43Z</time>
      </trkpt>
      <trkpt lat="35.90266702696681" lon="-5.291551966220141">
        <ele>28.977</ele>
        <time>2011-01-03T15:56:51Z</time>
      </trkpt>
      <trkpt lat="35.902622016146779" lon="-5.291653973981738">
        <ele>28.495999999999999</ele>
        <time>2011-01-03T15:56:52Z</time>
      </trkpt>
      <trkpt lat="35.902402997016907" lon="-5.292144985869527">
        <ele>25.611999999999998</ele>
        <time>2011-01-03T15:56:57Z</time>
      </trkpt>
      <trkpt lat="35.902176015079021" lon="-5.292654018849134">
        <ele>23.690000000000001</ele>
        <time>2011-01-03T15:57:02Z</time>
      </trkpt>
      <trkpt lat="35.902102002874017" lon="-5.293005974963307">
        <ele>20.806000000000001</ele>
        <time>2011-01-03T15:57:07Z</time>
      </trkpt>
      <trkpt lat="35.902334013953805" lon="-5.294328974559903">
        <ele>12.154</ele>
        <time>2011-01-03T15:57:21Z</time>
      </trkpt>
      <trkpt lat="35.902296965941787" lon="-5.294509017840028">
        <ele>11.193</ele>
        <time>2011-01-03T15:57:23Z</time>
      </trkpt>
      <trkpt lat="35.902166040614247" lon="-5.295143024995923">
        <ele>9.750999999999999</ele>
        <time>2011-01-03T15:57:29Z</time>
      </trkpt>
      <trkpt lat="35.901775024831295" lon="-5.296446997672319">
        <ele>10.231</ele>
        <time>2011-01-03T15:57:41Z</time>
      </trkpt>
      <trkpt lat="35.901344027370214" lon="-5.297056026756764">
        <ele>8.789</ele>
        <time>2011-01-03T15:57:48Z</time>
      </trkpt>
      <trkpt lat="35.900975978001952" lon="-5.297576962038875">
        <ele>9.750999999999999</ele>
        <time>2011-01-03T15:57:56Z</time>
      </trkpt>
      <trkpt lat="35.900871036574244" lon="-5.297545026987791">
        <ele>9.27</ele>
        <time>2011-01-03T16:11:52Z</time>
      </trkpt>
      <trkpt lat="35.900635002180934" lon="-5.297978036105633">
        <ele>9.750999999999999</ele>
        <time>2011-01-03T16:12:56Z</time>
      </trkpt>
      <trkpt lat="35.90011297725141" lon="-5.298585975542665">
        <ele>9.750999999999999</ele>
        <time>2011-01-03T16:13:07Z</time>
      </trkpt>
      <trkpt lat="35.89953001588583" lon="-5.298698963597417">
        <ele>10.712</ele>
        <time>2011-01-03T16:13:16Z</time>
      </trkpt>
      <trkpt lat="35.899073034524918" lon="-5.298741040751338">
        <ele>9.750999999999999</ele>
        <time>2011-01-03T16:13:22Z</time>
      </trkpt>
      <trkpt lat="35.898212967440486" lon="-5.298634003847837">
        <ele>9.750999999999999</ele>
        <time>2011-01-03T16:13:32Z</time>
      </trkpt>
      <trkpt lat="35.897685997188091" lon="-5.298465024679899">
        <ele>9.750999999999999</ele>
        <time>2011-01-03T16:13:39Z</time>
      </trkpt>
      <trkpt lat="35.897127008065581" lon="-5.29838103801012">
        <ele>9.750999999999999</ele>
        <time>2011-01-03T16:13:46Z</time>
      </trkpt>
      <trkpt lat="35.896658962592483" lon="-5.298395035788417">
        <ele>9.750999999999999</ele>
        <time>2011-01-03T16:13:52Z</time>
      </trkpt>
      <trkpt lat="35.896131992340088" lon="-5.298522021621466">
        <ele>9.750999999999999</ele>
        <time>2011-01-03T16:13:58Z</time>
      </trkpt>
      <trkpt lat="35.895966030657291" lon="-5.298687983304262">
        <ele>9.27</ele>
        <time>2011-01-03T16:14:00Z</time>
      </trkpt>
      <trkpt lat="35.895317019894719" lon="-5.299702025949955">
        <ele>6.866</ele>
        <time>2011-01-03T16:14:09Z</time>
      </trkpt>
      <trkpt lat="35.89489096775651" lon="-5.300191026180983">
        <ele>7.828</ele>
        <time>2011-01-03T16:14:16Z</time>
      </trkpt>
      <trkpt lat="35.894462987780571" lon="-5.300408033654094">
        <ele>8.308999999999999</ele>
        <time>2011-01-03T16:14:24Z</time>
      </trkpt>
      <trkpt lat="35.893931994214654" lon="-5.300442986190319">
        <ele>9.750999999999999</ele>
        <time>2011-01-03T16:14:34Z</time>
      </trkpt>
      <trkpt lat="35.8933200314641" lon="-5.30061598867178">
        <ele>9.750999999999999</ele>
        <time>2011-01-03T16:14:41Z</time>
      </trkpt>
      <trkpt lat="35.89310796931386" lon="-5.300752026960254">
        <ele>9.750999999999999</ele>
        <time>2011-01-03T16:14:46Z</time>
      </trkpt>
      <trkpt lat="35.893001016229391" lon="-5.300823021680117">
        <ele>9.27</ele>
        <time>2011-01-03T16:14:52Z</time>
      </trkpt>
      <trkpt lat="35.892770010977983" lon="-5.301028965041041">
        <ele>9.27</ele>
        <time>2011-01-03T16:14:57Z</time>
      </trkpt>
      <trkpt lat="35.892382012680173" lon="-5.30173497274518">
        <ele>8.308999999999999</ele>
        <time>2011-01-03T16:15:06Z</time>
      </trkpt>
      <trkpt lat="35.892169028520584" lon="-5.302197989076376">
        <ele>7.828</ele>
        <time>2011-01-03T16:15:11Z</time>
      </trkpt>
      <trkpt lat="35.891830986365676" lon="-5.302928974851966">
        <ele>4.463</ele>
        <time>2011-01-03T16:15:20Z</time>
      </trkpt>
      <trkpt lat="35.891753034666181" lon="-5.303074987605214">
        <ele>3.502</ele>
        <time>2011-01-03T16:15:22Z</time>
      </trkpt>
      <trkpt lat="35.891477018594742" lon="-5.303377993404865">
        <ele>3.021</ele>
        <time>2011-01-03T16:15:28Z</time>
      </trkpt>
      <trkpt lat="35.891083991155028" lon="-5.303759034723043">
        <ele>1.099</ele>
        <time>2011-01-03T16:15:38Z</time>
      </trkpt>
      <trkpt lat="35.890978965908289" lon="-5.303854001685977">
        <ele>0.618</ele>
        <time>2011-01-03T16:15:40Z</time>
      </trkpt>
      <trkpt lat="35.890666991472244" lon="-5.304291034117341">
        <ele>2.06</ele>
        <time>2011-01-03T16:15:48Z</time>
      </trkpt>
      <trkpt lat="35.890566995367408" lon="-5.304501000791788">
        <ele>2.541</ele>
        <time>2011-01-03T16:16:03Z</time>
      </trkpt>
      <trkpt lat="35.890349987894297" lon="-5.30512603931129">
        <ele>2.541</ele>
        <time>2011-01-03T16:16:13Z</time>
      </trkpt>
      <trkpt lat="35.890192994847894" lon="-5.305765997618437">
        <ele>3.021</ele>
        <time>2011-01-03T16:16:23Z</time>
      </trkpt>
      <trkpt lat="35.890022004023194" lon="-5.30646001920104">
        <ele>0.618</ele>
        <time>2011-01-03T16:16:33Z</time>
      </trkpt>
      <trkpt lat="35.889965007081628" lon="-5.306679038330913">
        <ele>6.386</ele>
        <time>2011-01-03T16:17:12Z</time>
      </trkpt>
      <trkpt lat="35.889692008495331" lon="-5.307263005524874">
        <ele>5.905</ele>
        <time>2011-01-03T16:17:20Z</time>
      </trkpt>
      <trkpt lat="35.889424961060286" lon="-5.307724010199308">
        <ele>5.905</ele>
        <time>2011-01-03T16:17:28Z</time>
      </trkpt>
      <trkpt lat="35.889290012419224" lon="-5.307957027107477">
        <ele>9.27</ele>
        <time>2011-01-03T16:17:34Z</time>
      </trkpt>
      <trkpt lat="35.889170989394188" lon="-5.308348964899778">
        <ele>8.789</ele>
        <time>2011-01-03T16:17:40Z</time>
      </trkpt>
      <trkpt lat="35.888886004686356" lon="-5.309065030887723">
        <ele>6.866</ele>
        <time>2011-01-03T16:17:48Z</time>
      </trkpt>
      <trkpt lat="35.888843005523086" lon="-5.309206014499068">
        <ele>5.425</ele>
        <time>2011-01-03T16:17:53Z</time>
      </trkpt>
      <trkpt lat="35.888801012188196" lon="-5.309406006708741">
        <ele>3.021</ele>
        <time>2011-01-03T16:17:59Z</time>
      </trkpt>
      <trkpt lat="35.888748960569501" lon="-5.309675987809897">
        <ele>4.944</ele>
        <time>2011-01-03T16:18:05Z</time>
      </trkpt>
      <trkpt lat="35.888699004426599" lon="-5.309949992224574">
        <ele>5.905</ele>
        <time>2011-01-03T16:18:12Z</time>
      </trkpt>
      <trkpt lat="35.888625998049974" lon="-5.310465982183814">
        <ele>-0.343</ele>
        <time>2011-01-03T16:18:22Z</time>
      </trkpt>
      <trkpt lat="35.888598002493382" lon="-5.310618029907346">
        <ele>9.27</ele>
        <time>2011-01-03T16:18:48Z</time>
      </trkpt>
      <trkpt lat="35.888531031087041" lon="-5.310973003506661">
        <ele>5.905</ele>
        <time>2011-01-03T16:18:54Z</time>
      </trkpt>
      <trkpt lat="35.888419970870018" lon="-5.311709018424153">
        <ele>4.944</ele>
        <time>2011-01-03T16:19:04Z</time>
      </trkpt>
      <trkpt lat="35.888320980593562" lon="-5.312337996438146">
        <ele>5.905</ele>
        <time>2011-01-03T16:19:12Z</time>
      </trkpt>
      <trkpt lat="35.888300025835633" lon="-5.312671009451151">
        <ele>8.789</ele>
        <time>2011-01-03T16:19:18Z</time>
      </trkpt>
      <trkpt lat="35.88840102776885" lon="-5.312924981117249">
        <ele>7.828</ele>
        <time>2011-01-03T16:19:23Z</time>
      </trkpt>
      <trkpt lat="35.888492977246642" lon="-5.313048027455807">
        <ele>6.866</ele>
        <time>2011-01-03T16:19:27Z</time>
      </trkpt>
      <trkpt lat="35.888776034116745" lon="-5.313155986368656">
        <ele>4.944</ele>
        <time>2011-01-03T16:19:34Z</time>
      </trkpt>
      <trkpt lat="35.888878963887691" lon="-5.313155986368656">
        <ele>4.463</ele>
        <time>2011-01-03T16:19:38Z</time>
      </trkpt>
      <trkpt lat="35.888901008293033" lon="-5.313283978030086">
        <ele>3.021</ele>
        <time>2011-01-03T16:19:43Z</time>
      </trkpt>
      <trkpt lat="35.888821966946125" lon="-5.31357198022306">
        <ele>1.099</ele>
        <time>2011-01-03T16:19:51Z</time>
      </trkpt>
      <trkpt lat="35.88883001357317" lon="-5.314062992110848">
        <ele>-0.824</ele>
        <time>2011-01-03T16:19:57Z</time>
      </trkpt>
      <trkpt lat="35.888922968879342" lon="-5.314726000651717">
        <ele>-0.343</ele>
        <time>2011-01-03T16:20:02Z</time>
      </trkpt>
      <trkpt lat="35.88928397744894" lon="-5.316629027947784">
        <ele>0.137</ele>
        <time>2011-01-03T16:20:14Z</time>
      </trkpt>
      <trkpt lat="35.889391014352441" lon="-5.317027000710368">
        <ele>0.618</ele>
        <time>2011-01-03T16:20:17Z</time>
      </trkpt>
      <trkpt lat="35.889639034867287" lon="-5.317422039806843">
        <ele>3.983</ele>
        <time>2011-01-03T16:20:24Z</time>
      </trkpt>
      <trkpt lat="35.889793010428548" lon="-5.317664025351405">
        <ele>6.866</ele>
        <time>2011-01-03T16:20:32Z</time>
      </trkpt>
      <trkpt lat="35.889897029846907" lon="-5.317829987034202">
        <ele>7.347</ele>
        <time>2011-01-03T16:20:39Z</time>
      </trkpt>
      <trkpt lat="35.889952015131712" lon="-5.317919002845883">
        <ele>7.828</ele>
        <time>2011-01-03T16:20:44Z</time>
      </trkpt>
      <trkpt lat="35.890215961262584" lon="-5.317752035334706">
        <ele>6.866</ele>
        <time>2011-01-03T16:20:48Z</time>
      </trkpt>
      <trkpt lat="35.890628015622497" lon="-5.317345010116696">
        <ele>3.502</ele>
        <time>2011-01-03T16:20:54Z</time>
      </trkpt>
      <trkpt lat="35.890938984230161" lon="-5.317276027053595">
        <ele>2.541</ele>
        <time>2011-01-03T16:21:00Z</time>
      </trkpt>
      <trkpt lat="35.890918029472232" lon="-5.317425979301333">
        <ele>1.579</ele>
        <time>2011-01-03T16:21:03Z</time>
      </trkpt>
      <trkpt lat="35.891158003360033" lon="-5.318823996931315">
        <ele>0.618</ele>
        <time>2011-01-03T16:21:15Z</time>
      </trkpt>
      <trkpt lat="35.891407029703259" lon="-5.319708958268166">
        <ele>-0.343</ele>
        <time>2011-01-03T16:21:25Z</time>
      </trkpt>
      <trkpt lat="35.891519011929631" lon="-5.319893024861813">
        <ele>-0.824</ele>
        <time>2011-01-03T16:21:31Z</time>
      </trkpt>
      <trkpt lat="35.892255026847124" lon="-5.320928022265434">
        <ele>0.137</ele>
        <time>2011-01-03T16:21:41Z</time>
      </trkpt>
      <trkpt lat="35.892528025433421" lon="-5.321315014734864">
        <ele>0.618</ele>
        <time>2011-01-03T16:21:47Z</time>
      </trkpt>
      <trkpt lat="35.892820972949266" lon="-5.32171399332583">
        <ele>1.099</ele>
        <time>2011-01-03T16:21:58Z</time>
      </trkpt>
      <trkpt lat="35.893353978171945" lon="-5.322373984381557">
        <ele>2.06</ele>
        <time>2011-01-03T16:22:07Z</time>
      </trkpt>
      <trkpt lat="35.893591018393636" lon="-5.322665004059672">
        <ele>2.06</ele>
        <time>2011-01-03T16:22:11Z</time>
      </trkpt>
      <trkpt lat="35.893724039196968" lon="-5.322827026247978">
        <ele>1.579</ele>
        <time>2011-01-03T16:22:15Z</time>
      </trkpt>
      <trkpt lat="35.893852030858397" lon="-5.3230020403862">
        <ele>1.099</ele>
        <time>2011-01-03T16:22:19Z</time>
      </trkpt>
      <trkpt lat="35.894161993637681" lon="-5.323394984006882">
        <ele>0.618</ele>
        <time>2011-01-03T16:22:25Z</time>
      </trkpt>
      <trkpt lat="35.894386041909456" lon="-5.32360696233809">
        <ele>0.618</ele>
        <time>2011-01-03T16:22:29Z</time>
      </trkpt>
      <trkpt lat="35.894923992455006" lon="-5.324220014736056">
        <ele>0.618</ele>
        <time>2011-01-03T16:22:37Z</time>
      </trkpt>
      <trkpt lat="35.895410981029272" lon="-5.324814962223172">
        <ele>1.579</ele>
        <time>2011-01-03T16:22:46Z</time>
      </trkpt>
      <trkpt lat="35.895487004891038" lon="-5.324896015226841">
        <ele>1.579</ele>
        <time>2011-01-03T16:22:53Z</time>
      </trkpt>
      <trkpt lat="35.895559005439281" lon="-5.324982013553381">
        <ele>8.789</ele>
        <time>2011-01-03T16:31:18Z</time>
      </trkpt>
      <trkpt lat="35.895737037062645" lon="-5.325222993269563">
        <ele>-7.553</ele>
        <time>2011-01-03T16:32:53Z</time>
      </trkpt>
      <trkpt lat="35.895853964611888" lon="-5.32532399520278">
        <ele>-4.669</ele>
        <time>2011-01-03T16:32:57Z</time>
      </trkpt>
      <trkpt lat="35.896131992340088" lon="-5.325192986056209">
        <ele>-1.305</ele>
        <time>2011-01-03T16:33:03Z</time>
      </trkpt>
      <trkpt lat="35.896125035360456" lon="-5.32485201023519">
        <ele>-0.343</ele>
        <time>2011-01-03T16:33:17Z</time>
      </trkpt>
      <trkpt lat="35.895983967930079" lon="-5.32465998083353">
        <ele>-10.917999999999999</ele>
        <time>2011-01-03T16:33:47Z</time>
      </trkpt>
      <trkpt lat="35.895696971565485" lon="-5.324310036376119">
        <ele>-3.708</ele>
        <time>2011-01-03T16:33:56Z</time>
      </trkpt>
      <trkpt lat="35.895174024626613" lon="-5.323577038943768">
        <ele>0.137</ele>
        <time>2011-01-03T16:34:08Z</time>
      </trkpt>
      <trkpt lat="35.894464999437332" lon="-5.322570037096739">
        <ele>1.579</ele>
        <time>2011-01-03T16:34:21Z</time>
      </trkpt>
      <trkpt lat="35.894172973930836" lon="-5.322181032970548">
        <ele>2.06</ele>
        <time>2011-01-03T16:34:29Z</time>
      </trkpt>
      <trkpt lat="35.894111031666398" lon="-5.322096962481737">
        <ele>2.06</ele>
        <time>2011-01-03T16:34:37Z</time>
      </trkpt>
      <trkpt lat="35.894046993926167" lon="-5.321994032710791">
        <ele>2.06</ele>
        <time>2011-01-03T17:07:44Z</time>
      </trkpt>
      <trkpt lat="35.894115976989269" lon="-5.321770990267396">
        <ele>2.541</ele>
        <time>2011-01-03T17:08:28Z</time>
      </trkpt>
      <trkpt lat="35.894188983365893" lon="-5.321690021082759">
        <ele>0.618</ele>
        <time>2011-01-03T17:08:50Z</time>
      </trkpt>
      <trkpt lat="35.894270036369562" lon="-5.321583990007639">
        <ele>2.06</ele>
        <time>2011-01-03T17:21:20Z</time>
      </trkpt>
      <trkpt lat="35.894345976412296" lon="-5.321319038048387">
        <ele>1.579</ele>
        <time>2011-01-03T17:21:32Z</time>
      </trkpt>
      <trkpt lat="35.894472962245345" lon="-5.321202026680112">
        <ele>2.06</ele>
        <time>2011-01-03T17:21:43Z</time>
      </trkpt>
      <trkpt lat="35.894590979442" lon="-5.32102600671351">
        <ele>4.463</ele>
        <time>2011-01-03T17:22:09Z</time>
      </trkpt>
      <trkpt lat="35.894489977508783" lon="-5.320819979533553">
        <ele>7.828</ele>
        <time>2011-01-03T17:22:29Z</time>
      </trkpt>
      <trkpt lat="35.894136009737849" lon="-5.321074035018683">
        <ele>5.905</ele>
        <time>2011-01-03T17:23:50Z</time>
      </trkpt>
      <trkpt lat="35.894343964755535" lon="-5.321474019438028">
        <ele>7.347</ele>
        <time>2011-01-03T17:24:00Z</time>
      </trkpt>
      <trkpt lat="35.894343964755535" lon="-5.321474019438028">
        <ele>9.27</ele>
        <time>2011-01-03T17:24:15Z</time>
      </trkpt>
    </trkseg>
  </trk>

  <trk>
    <name>110103--Estrecho</name>
    <extensions>
      <gpxx:TrackExtension xmlns:gpxx="http://www.garmin.com/xmlschemas/GpxExtensions/v3">
        <gpxx:DisplayColor>Magenta</gpxx:DisplayColor>
      </gpxx:TrackExtension>
    </extensions>
    <trkseg>
      <trkpt lat="35.894327955320477" lon="-5.319998469203711">
        <ele>2.06005859375</ele>
        <time>2011-01-03T17:24:23Z</time>
      </trkpt>
      <trkpt lat="35.894282273948193" lon="-5.320737333968282">
        <ele>-15.24365234375</ele>
        <time>2011-01-03T17:24:29Z</time>
      </trkpt>
      <trkpt lat="35.89421521872282" lon="-5.320644043385983">
        <ele>-39.75732421875</ele>
        <time>2011-01-03T17:24:57Z</time>
      </trkpt>
      <trkpt lat="35.894178422167897" lon="-5.320525774732232">
        <ele>-34.4700927734375</ele>
        <time>2011-01-03T17:25:27Z</time>
      </trkpt>
      <trkpt lat="35.894092172384262" lon="-5.320300385355949">
        <ele>-30.624755859375</ele>
        <time>2011-01-03T17:25:44Z</time>
      </trkpt>
      <trkpt lat="35.894069792702794" lon="-5.32010056078434">
        <ele>-4.6693115234375</ele>
        <time>2011-01-03T17:25:54Z</time>
      </trkpt>
      <trkpt lat="35.893973065540195" lon="-5.320150936022401">
        <ele>-4.1885986328125</ele>
        <time>2011-01-03T17:26:09Z</time>
      </trkpt>
      <trkpt lat="35.89418638497591" lon="-5.320174237713218">
        <ele>-1.3046875</ele>
        <time>2011-01-03T17:26:59Z</time>
      </trkpt>
      <trkpt lat="35.894206836819649" lon="-5.320369116961956">
        <ele>3.982666015625</ele>
        <time>2011-01-03T17:27:13Z</time>
      </trkpt>
      <trkpt lat="35.894369445741177" lon="-5.320530636236072">
        <ele>-20.0504150390625</ele>
        <time>2011-01-03T17:27:42Z</time>
      </trkpt>
      <trkpt lat="35.89416635222733" lon="-5.320342881605029">
        <ele>-15.24365234375</ele>
        <time>2011-01-03T17:28:54Z</time>
      </trkpt>
      <trkpt lat="35.893974239006639" lon="-5.320203825831413">
        <ele>-5.14990234375</ele>
        <time>2011-01-03T17:29:09Z</time>
      </trkpt>
      <trkpt lat="35.893854629248381" lon="-5.320104835554957">
        <ele>9.7506103515625</ele>
        <time>2011-01-03T17:29:34Z</time>
      </trkpt>
      <trkpt lat="35.893767792731524" lon="-5.320202065631747">
        <ele>23.208984375</ele>
        <time>2011-01-03T17:30:54Z</time>
      </trkpt>
      <trkpt lat="35.893857730552554" lon="-5.320140542462468">
        <ele>24.1702880859375</ele>
        <time>2011-01-03T17:31:39Z</time>
      </trkpt>
      <trkpt lat="35.89382722042501" lon="-5.320020094513893">
        <ele>22.728271484375</ele>
        <time>2011-01-03T17:44:32Z</time>
      </trkpt>
      <trkpt lat="35.893935849890113" lon="-5.319843655452132">
        <ele>15.5184326171875</ele>
        <time>2011-01-03T17:46:43Z</time>
      </trkpt>
      <trkpt lat="35.894165933132172" lon="-5.320214973762631">
        <ele>20.324951171875</ele>
        <time>2011-01-03T17:48:03Z</time>
      </trkpt>
      <trkpt lat="35.894462484866381" lon="-5.320438854396343">
        <ele>16.479736328125</ele>
        <time>2011-01-03T17:48:25Z</time>
      </trkpt>
      <trkpt lat="35.894763143733144" lon="-5.320342546328902">
        <ele>3.501953125</ele>
        <time>2011-01-03T17:48:42Z</time>
      </trkpt>
      <trkpt lat="35.894958693534136" lon="-5.32003995962441">
        <ele>7.34716796875</ele>
        <time>2011-01-03T17:48:56Z</time>
      </trkpt>
      <trkpt lat="35.895001273602247" lon="-5.319430762901902">
        <ele>15.9990234375</ele>
        <time>2011-01-03T17:49:12Z</time>
      </trkpt>
      <trkpt lat="35.894883843138814" lon="-5.318435579538345">
        <ele>28.4962158203125</ele>
        <time>2011-01-03T17:49:33Z</time>
      </trkpt>
      <trkpt lat="35.894728945568204" lon="-5.316827176138759">
        <ele>33.3028564453125</ele>
        <time>2011-01-03T17:50:00Z</time>
      </trkpt>
      <trkpt lat="35.894468938931823" lon="-5.314674954861403">
        <ele>35.7060546875</ele>
        <time>2011-01-03T17:50:33Z</time>
      </trkpt>
      <trkpt lat="35.894333487376571" lon="-5.313232261687517">
        <ele>28.0155029296875</ele>
        <time>2011-01-03T17:50:56Z</time>
      </trkpt>
      <trkpt lat="35.894442955031991" lon="-5.312250489369035">
        <ele>24.6510009765625</ele>
        <time>2011-01-03T17:51:12Z</time>
      </trkpt>
      <trkpt lat="35.894799437373877" lon="-5.311196884140372">
        <ele>12.15380859375</ele>
        <time>2011-01-03T17:51:30Z</time>
      </trkpt>
      <trkpt lat="35.895365551114082" lon="-5.310222823172808">
        <ele>5.9052734375</ele>
        <time>2011-01-03T17:51:49Z</time>
      </trkpt>
      <trkpt lat="35.895999725908041" lon="-5.309527292847633">
        <ele>8.30859375</ele>
        <time>2011-01-03T17:52:06Z</time>
      </trkpt>
      <trkpt lat="35.89677857235074" lon="-5.309020858258009">
        <ele>4.94384765625</ele>
        <time>2011-01-03T17:52:22Z</time>
      </trkpt>
      <trkpt lat="35.897707371041179" lon="-5.308677535504103">
        <ele>6.3858642578125</ele>
        <time>2011-01-03T17:52:38Z</time>
      </trkpt>
      <trkpt lat="35.898868851363659" lon="-5.308502521365881">
        <ele>8.30859375</ele>
        <time>2011-01-03T17:52:54Z</time>
      </trkpt>
      <trkpt lat="35.90024046599865" lon="-5.308398585766554">
        <ele>9.7506103515625</ele>
        <time>2011-01-03T17:53:09Z</time>
      </trkpt>
      <trkpt lat="35.901785334572196" lon="-5.308422725647688">
        <ele>10.231201171875</ele>
        <time>2011-01-03T17:53:23Z</time>
      </trkpt>
      <trkpt lat="35.904099158942699" lon="-5.308661190792918">
        <ele>8.30859375</ele>
        <time>2011-01-03T17:53:42Z</time>
      </trkpt>
      <trkpt lat="35.907633388414979" lon="-5.309104258194566">
        <ele>9.7506103515625</ele>
        <time>2011-01-03T17:54:10Z</time>
      </trkpt>
      <trkpt lat="35.9109668713063" lon="-5.309517486020923">
        <ele>10.7117919921875</ele>
        <time>2011-01-03T17:54:36Z</time>
      </trkpt>
      <trkpt lat="35.913341799750924" lon="-5.309999696910381">
        <ele>6.3858642578125</ele>
        <time>2011-01-03T17:54:55Z</time>
      </trkpt>
      <trkpt lat="35.915005523711443" lon="-5.310649629682303">
        <ele>4.4632568359375</ele>
        <time>2011-01-03T17:55:09Z</time>
      </trkpt>
      <trkpt lat="35.918623153120279" lon="-5.312178153544664">
        <ele>13.1151123046875</ele>
        <time>2011-01-03T17:55:39Z</time>
      </trkpt>
      <trkpt lat="35.921653294935822" lon="-5.31344105489552">
        <ele>15.5184326171875</ele>
        <time>2011-01-03T17:56:04Z</time>
      </trkpt>
      <trkpt lat="35.925317276269197" lon="-5.314942337572575">
        <ele>16.479736328125</ele>
        <time>2011-01-03T17:56:34Z</time>
      </trkpt>
      <trkpt lat="35.928497789427638" lon="-5.316245220601559">
        <ele>15.0377197265625</ele>
        <time>2011-01-03T17:57:00Z</time>
      </trkpt>
      <trkpt lat="35.931318551301956" lon="-5.317401085048914">
        <ele>13.5958251953125</ele>
        <time>2011-01-03T17:57:23Z</time>
      </trkpt>
      <trkpt lat="35.934263784438372" lon="-5.318577317520976">
        <ele>12.6343994140625</ele>
        <time>2011-01-03T17:57:47Z</time>
      </trkpt>
      <trkpt lat="35.936967534944415" lon="-5.319579625502229">
        <ele>15.9990234375</ele>
        <time>2011-01-03T17:58:09Z</time>
      </trkpt>
      <trkpt lat="35.939678326249123" lon="-5.320597440004349">
        <ele>16.96044921875</ele>
        <time>2011-01-03T17:58:31Z</time>
      </trkpt>
      <trkpt lat="35.942770326510072" lon="-5.321735367178917">
        <ele>18.883056640625</ele>
        <time>2011-01-03T17:58:56Z</time>
      </trkpt>
      <trkpt lat="35.945965340360999" lon="-5.322911683470011">
        <ele>22.24755859375</ele>
        <time>2011-01-03T17:59:22Z</time>
      </trkpt>
      <trkpt lat="35.94914585351944" lon="-5.324116246774793">
        <ele>21.286376953125</ele>
        <time>2011-01-03T17:59:48Z</time>
      </trkpt>
      <trkpt lat="35.951852453872561" lon="-5.325115285813808">
        <ele>20.8056640625</ele>
        <time>2011-01-03T18:00:10Z</time>
      </trkpt>
      <trkpt lat="35.954710347577929" lon="-5.326131675392389">
        <ele>24.1702880859375</ele>
        <time>2011-01-03T18:00:33Z</time>
      </trkpt>
      <trkpt lat="35.957823134958744" lon="-5.327252335846424">
        <ele>32.341552734375</ele>
        <time>2011-01-03T18:00:58Z</time>
      </trkpt>
      <trkpt lat="35.961051173508167" lon="-5.328399147838354">
        <ele>32.341552734375</ele>
        <time>2011-01-03T18:01:24Z</time>
      </trkpt>
      <trkpt lat="35.964515833184123" lon="-5.329583929851651">
        <ele>30.8995361328125</ele>
        <time>2011-01-03T18:01:52Z</time>
      </trkpt>
      <trkpt lat="35.96786473877728" lon="-5.330743566155434">
        <ele>32.341552734375</ele>
        <time>2011-01-03T18:02:19Z</time>
      </trkpt>
      <trkpt lat="35.971076181158423" lon="-5.331876967102289">
        <ele>32.341552734375</ele>
        <time>2011-01-03T18:02:45Z</time>
      </trkpt>
      <trkpt lat="35.973424119874835" lon="-5.332675175741315">
        <ele>32.341552734375</ele>
        <time>2011-01-03T18:03:04Z</time>
      </trkpt>
      <trkpt lat="35.976391397416592" lon="-5.333651835098863">
        <ele>29.45751953125</ele>
        <time>2011-01-03T18:03:28Z</time>
      </trkpt>
      <trkpt lat="35.97936999052763" lon="-5.334618017077446">
        <ele>26.5736083984375</ele>
        <time>2011-01-03T18:03:52Z</time>
      </trkpt>
      <trkpt lat="35.982444724068046" lon="-5.335651421919465">
        <ele>25.6123046875</ele>
        <time>2011-01-03T18:04:17Z</time>
      </trkpt>
      <trkpt lat="35.985156940296292" lon="-5.336568150669336">
        <ele>26.5736083984375</ele>
        <time>2011-01-03T18:04:39Z</time>
      </trkpt>
      <trkpt lat="35.988365449011326" lon="-5.337637597694993">
        <ele>25.6123046875</ele>
        <time>2011-01-03T18:05:05Z</time>
      </trkpt>
      <trkpt lat="35.991946365684271" lon="-5.338848866522312">
        <ele>26.0928955078125</ele>
        <time>2011-01-03T18:05:34Z</time>
      </trkpt>
      <trkpt lat="35.994780119508505" lon="-5.339788645505905">
        <ele>24.6510009765625</ele>
        <time>2011-01-03T18:05:57Z</time>
      </trkpt>
      <trkpt lat="35.997494347393513" lon="-5.340656591579318">
        <ele>21.7669677734375</ele>
        <time>2011-01-03T18:06:19Z</time>
      </trkpt>
      <trkpt lat="36.000573774799705" lon="-5.341663341969252">
        <ele>19.8443603515625</ele>
        <time>2011-01-03T18:06:44Z</time>
      </trkpt>
      <trkpt lat="36.003984455019236" lon="-5.342757599428296">
        <ele>10.7117919921875</ele>
        <time>2011-01-03T18:07:12Z</time>
      </trkpt>
      <trkpt lat="36.006690384820104" lon="-5.343645662069321">
        <ele>12.6343994140625</ele>
        <time>2011-01-03T18:07:34Z</time>
      </trkpt>
      <trkpt lat="36.009788671508431" lon="-5.344636822119355">
        <ele>14.5570068359375</ele>
        <time>2011-01-03T18:07:59Z</time>
      </trkpt>
      <trkpt lat="36.013129195198417" lon="-5.345715153962374">
        <ele>17.9217529296875</ele>
        <time>2011-01-03T18:08:26Z</time>
      </trkpt>
      <trkpt lat="36.016224296763539" lon="-5.346755431964994">
        <ele>23.208984375</ele>
        <time>2011-01-03T18:08:51Z</time>
      </trkpt>
      <trkpt lat="36.019071293994784" lon="-5.347707867622376">
        <ele>28.0155029296875</ele>
        <time>2011-01-03T18:09:14Z</time>
      </trkpt>
      <trkpt lat="36.022418523207307" lon="-5.34879382699728">
        <ele>31.380126953125</ele>
        <time>2011-01-03T18:09:41Z</time>
      </trkpt>
      <trkpt lat="36.026018550619483" lon="-5.349935190752149">
        <ele>30.4188232421875</ele>
        <time>2011-01-03T18:10:10Z</time>
      </trkpt>
      <trkpt lat="36.029789820313454" lon="-5.351142855361104">
        <ele>32.341552734375</ele>
        <time>2011-01-03T18:10:40Z</time>
      </trkpt>
      <trkpt lat="36.033440055325627" lon="-5.352300647646189">
        <ele>36.66748046875</ele>
        <time>2011-01-03T18:11:09Z</time>
      </trkpt>
      <trkpt lat="36.036678152158856" lon="-5.353411668911576">
        <ele>45.7999267578125</ele>
        <time>2011-01-03T18:11:35Z</time>
      </trkpt>
      <trkpt lat="36.04025311768055" lon="-5.354676162824035">
        <ele>44.3580322265625</ele>
        <time>2011-01-03T18:12:04Z</time>
      </trkpt>
      <trkpt lat="36.043243026360869" lon="-5.355731444433332">
        <ele>41.9547119140625</ele>
        <time>2011-01-03T18:12:28Z</time>
      </trkpt>
      <trkpt lat="36.046247016638517" lon="-5.356724280864">
        <ele>37.628662109375</ele>
        <time>2011-01-03T18:12:52Z</time>
      </trkpt>
      <trkpt lat="36.049782335758209" lon="-5.357927083969116">
        <ele>39.55126953125</ele>
        <time>2011-01-03T18:13:20Z</time>
      </trkpt>
      <trkpt lat="36.053274571895599" lon="-5.359232230111957">
        <ele>40.0321044921875</ele>
        <time>2011-01-03T18:13:48Z</time>
      </trkpt>
      <trkpt lat="36.056626997888088" lon="-5.360490269958973">
        <ele>39.0706787109375</ele>
        <time>2011-01-03T18:14:15Z</time>
      </trkpt>
      <trkpt lat="36.059556724503636" lon="-5.361588634550571">
        <ele>37.1480712890625</ele>
        <time>2011-01-03T18:14:39Z</time>
      </trkpt>
      <trkpt lat="36.063506696373224" lon="-5.363087486475706">
        <ele>34.744873046875</ele>
        <time>2011-01-03T18:15:11Z</time>
      </trkpt>
      <trkpt lat="36.06785723939538" lon="-5.364770237356424">
        <ele>33.783447265625</ele>
        <time>2011-01-03T18:15:46Z</time>
      </trkpt>
      <trkpt lat="36.071361461654305" lon="-5.366124752908945">
        <ele>28.4962158203125</ele>
        <time>2011-01-03T18:16:14Z</time>
      </trkpt>
      <trkpt lat="36.074850345030427" lon="-5.367600386962295">
        <ele>21.286376953125</ele>
        <time>2011-01-03T18:16:42Z</time>
      </trkpt>
      <trkpt lat="36.078211236745119" lon="-5.368956243619323">
        <ele>15.9990234375</ele>
        <time>2011-01-03T18:17:09Z</time>
      </trkpt>
      <trkpt lat="36.080009071156383" lon="-5.369850676506758">
        <ele>17.441162109375</ele>
        <time>2011-01-03T18:17:24Z</time>
      </trkpt>
      <trkpt lat="36.082852967083454" lon="-5.371344834566116">
        <ele>18.883056640625</ele>
        <time>2011-01-03T18:17:48Z</time>
      </trkpt>
      <trkpt lat="36.085798032581806" lon="-5.372908562421799">
        <ele>24.1702880859375</ele>
        <time>2011-01-03T18:18:13Z</time>
      </trkpt>
      <trkpt lat="36.088881231844425" lon="-5.374483270570636">
        <ele>25.1317138671875</ele>
        <time>2011-01-03T18:18:39Z</time>
      </trkpt>
      <trkpt lat="36.091479370370507" lon="-5.375820435583592">
        <ele>25.1317138671875</ele>
        <time>2011-01-03T18:19:01Z</time>
      </trkpt>
      <trkpt lat="36.094703134149313" lon="-5.377402016893029">
        <ele>22.24755859375</ele>
        <time>2011-01-03T18:19:28Z</time>
      </trkpt>
      <trkpt lat="36.0981903411448" lon="-5.379059622064233">
        <ele>23.6895751953125</ele>
        <time>2011-01-03T18:19:57Z</time>
      </trkpt>
      <trkpt lat="36.101113529875875" lon="-5.380374575033784">
        <ele>24.1702880859375</ele>
        <time>2011-01-03T18:20:21Z</time>
      </trkpt>
      <trkpt lat="36.104618590325117" lon="-5.382006028667092">
        <ele>29.45751953125</ele>
        <time>2011-01-03T18:20:50Z</time>
      </trkpt>
      <trkpt lat="36.107650743797421" lon="-5.383431287482381">
        <ele>29.45751953125</ele>
        <time>2011-01-03T18:21:15Z</time>
      </trkpt>
      <trkpt lat="36.110090296715498" lon="-5.384872471913695">
        <ele>28.4962158203125</ele>
        <time>2011-01-03T18:21:36Z</time>
      </trkpt>
      <trkpt lat="36.11313208937645" lon="-5.386993093416095">
        <ele>30.8995361328125</ele>
        <time>2011-01-03T18:22:03Z</time>
      </trkpt>
      <trkpt lat="36.116154436022043" lon="-5.389190157875419">
        <ele>33.783447265625</ele>
        <time>2011-01-03T18:22:30Z</time>
      </trkpt>
      <trkpt lat="36.119667124003172" lon="-5.391693748533726">
        <ele>32.822265625</ele>
        <time>2011-01-03T18:23:01Z</time>
      </trkpt>
      <trkpt lat="36.122131152078509" lon="-5.393509855493903">
        <ele>26.0928955078125</ele>
        <time>2011-01-03T18:23:23Z</time>
      </trkpt>
      <trkpt lat="36.124822497367859" lon="-5.395525367930532">
        <ele>20.8056640625</ele>
        <time>2011-01-03T18:23:47Z</time>
      </trkpt>
      <trkpt lat="36.127418037503958" lon="-5.397435519844294">
        <ele>17.441162109375</ele>
        <time>2011-01-03T18:24:10Z</time>
      </trkpt>
      <trkpt lat="36.130454884842038" lon="-5.399706680327654">
        <ele>14.5570068359375</ele>
        <time>2011-01-03T18:24:37Z</time>
      </trkpt>
      <trkpt lat="36.133490977808833" lon="-5.402001226320863">
        <ele>9.7506103515625</ele>
        <time>2011-01-03T18:25:04Z</time>
      </trkpt>
      <trkpt lat="36.13610646687448" lon="-5.403977846726775">
        <ele>7.34716796875</ele>
        <time>2011-01-03T18:25:28Z</time>
      </trkpt>
      <trkpt lat="36.137365428730845" lon="-5.404922487214208">
        <ele>7.827880859375</ele>
        <time>2011-01-03T18:25:42Z</time>
      </trkpt>
      <trkpt lat="36.138894958421588" lon="-5.406043399125338">
        <ele>8.7891845703125</ele>
        <time>2011-01-03T18:26:02Z</time>
      </trkpt>
      <trkpt lat="36.140310075134039" lon="-5.407062973827124">
        <ele>11.1925048828125</ele>
        <time>2011-01-03T18:26:23Z</time>
      </trkpt>
      <trkpt lat="36.142251659184694" lon="-5.408508433029056">
        <ele>16.479736328125</ele>
        <time>2011-01-03T18:26:55Z</time>
      </trkpt>
      <trkpt lat="36.143963327631354" lon="-5.409736130386591">
        <ele>18.883056640625</ele>
        <time>2011-01-03T18:27:24Z</time>
      </trkpt>
      <trkpt lat="36.144968485459685" lon="-5.410719076171517">
        <ele>19.8443603515625</ele>
        <time>2011-01-03T18:27:44Z</time>
      </trkpt>
      <trkpt lat="36.14562981761992" lon="-5.411765892058611">
        <ele>21.286376953125</ele>
        <time>2011-01-03T18:28:01Z</time>
      </trkpt>
      <trkpt lat="36.146429535001516" lon="-5.413351748138666">
        <ele>17.9217529296875</ele>
        <time>2011-01-03T18:28:25Z</time>
      </trkpt>
      <trkpt lat="36.147046443074942" lon="-5.414954451844096">
        <ele>12.6343994140625</ele>
        <time>2011-01-03T18:28:48Z</time>
      </trkpt>
      <trkpt lat="36.147705260664225" lon="-5.416860580444336">
        <ele>9.7506103515625</ele>
        <time>2011-01-03T18:29:14Z</time>
      </trkpt>
      <trkpt lat="36.14861193113029" lon="-5.419266354292631">
        <ele>20.8056640625</ele>
        <time>2011-01-03T18:29:48Z</time>
      </trkpt>
      <trkpt lat="36.149146528914571" lon="-5.420939633622766">
        <ele>-6.5919189453125</ele>
        <time>2011-01-03T18:30:11Z</time>
      </trkpt>
      <trkpt lat="36.149589093402028" lon="-5.422729169949889">
        <ele>-11.879150390625</ele>
        <time>2011-01-03T18:30:35Z</time>
      </trkpt>
      <trkpt lat="36.149890758097172" lon="-5.424102880060673">
        <ele>2.06005859375</ele>
        <time>2011-01-03T18:30:55Z</time>
      </trkpt>
      <trkpt lat="36.149942390620708" lon="-5.425142655149102">
        <ele>4.94384765625</ele>
        <time>2011-01-03T18:31:11Z</time>
      </trkpt>
      <trkpt lat="36.149794952943921" lon="-5.426365742459893">
        <ele>7.827880859375</ele>
        <time>2011-01-03T18:31:31Z</time>
      </trkpt>
      <trkpt lat="36.149400249123573" lon="-5.427708020433784">
        <ele>9.7506103515625</ele>
        <time>2011-01-03T18:31:54Z</time>
      </trkpt>
      <trkpt lat="36.148907477036119" lon="-5.428675627335906">
        <ele>7.34716796875</ele>
        <time>2011-01-03T18:32:13Z</time>
      </trkpt>
      <trkpt lat="36.148378076031804" lon="-5.429355148226023">
        <ele>15.9990234375</ele>
        <time>2011-01-03T18:32:31Z</time>
      </trkpt>
      <trkpt lat="36.147531922906637" lon="-5.429849177598953">
        <ele>15.0377197265625</ele>
        <time>2011-01-03T18:32:52Z</time>
      </trkpt>
      <trkpt lat="36.146248821169138" lon="-5.430461475625634">
        <ele>16.96044921875</ele>
        <time>2011-01-03T18:33:24Z</time>
      </trkpt>
      <trkpt lat="36.144924061372876" lon="-5.431081736460328">
        <ele>12.6343994140625</ele>
        <time>2011-01-03T18:33:57Z</time>
      </trkpt>
      <trkpt lat="36.143957460299134" lon="-5.431458586826921">
        <ele>13.5958251953125</ele>
        <time>2011-01-03T18:34:22Z</time>
      </trkpt>
      <trkpt lat="36.142930928617716" lon="-5.431600157171488">
        <ele>16.96044921875</ele>
        <time>2011-01-03T18:34:48Z</time>
      </trkpt>
      <trkpt lat="36.141543556004763" lon="-5.43170727789402">
        <ele>15.0377197265625</ele>
        <time>2011-01-03T18:35:21Z</time>
      </trkpt>
      <trkpt lat="36.140045123174787" lon="-5.431817080825567">
        <ele>10.7117919921875</ele>
        <time>2011-01-03T18:35:56Z</time>
      </trkpt>
      <trkpt lat="36.138689266517758" lon="-5.43196476995945">
        <ele>-6.1112060546875</ele>
        <time>2011-01-03T18:36:26Z</time>
      </trkpt>
      <trkpt lat="36.137319160625339" lon="-5.432139281183481">
        <ele>-16.2052001953125</ele>
        <time>2011-01-03T18:36:57Z</time>
      </trkpt>
      <trkpt lat="36.135999765247107" lon="-5.432216394692659">
        <ele>-11.3984375</ele>
        <time>2011-01-03T18:37:29Z</time>
      </trkpt>
      <trkpt lat="36.135075744241476" lon="-5.43216803111136">
        <ele>-3.227294921875</ele>
        <time>2011-01-03T18:37:51Z</time>
      </trkpt>
      <trkpt lat="36.134021217003465" lon="-5.432137437164784">
        <ele>-5.6304931640625</ele>
        <time>2011-01-03T18:38:15Z</time>
      </trkpt>
      <trkpt lat="36.133621316403151" lon="-5.43219686485827">
        <ele>-3.7078857421875</ele>
        <time>2011-01-03T18:38:24Z</time>
      </trkpt>
      <trkpt lat="36.133109349757433" lon="-5.432407753542066">
        <ele>3.501953125</ele>
        <time>2011-01-03T18:38:37Z</time>
      </trkpt>
      <trkpt lat="36.132688578218222" lon="-5.432653846219182">
        <ele>4.94384765625</ele>
        <time>2011-01-03T18:38:48Z</time>
      </trkpt>
      <trkpt lat="36.132294125854969" lon="-5.43300068937242">
        <ele>2.5406494140625</ele>
        <time>2011-01-03T18:39:00Z</time>
      </trkpt>
      <trkpt lat="36.131945438683033" lon="-5.433416264131665">
        <ele>-0.3433837890625</ele>
        <time>2011-01-03T18:39:12Z</time>
      </trkpt>
      <trkpt lat="36.13160228356719" lon="-5.433881543576717">
        <ele>-4.1885986328125</ele>
        <time>2011-01-03T18:39:24Z</time>
      </trkpt>
      <trkpt lat="36.131213195621967" lon="-5.434258980676532">
        <ele>-7.072509765625</ele>
        <time>2011-01-03T18:39:35Z</time>
      </trkpt>
      <trkpt lat="36.13114689476788" lon="-5.434411698952317">
        <ele>-6.5919189453125</ele>
        <time>2011-01-03T18:39:38Z</time>
      </trkpt>
      <trkpt lat="36.131023429334164" lon="-5.434609679505229">
        <ele>-2.7467041015625</ele>
        <time>2011-01-03T18:39:42Z</time>
      </trkpt>
      <trkpt lat="36.130906417965889" lon="-5.434685284271836">
        <ele>1.579345703125</ele>
        <time>2011-01-03T18:39:44Z</time>
      </trkpt>
      <trkpt lat="36.130625121295452" lon="-5.434904554858804">
        <ele>4.4632568359375</ele>
        <time>2011-01-03T18:39:51Z</time>
      </trkpt>
      <trkpt lat="36.129577467218041" lon="-5.435638893395662">
        <ele>12.6343994140625</ele>
        <time>2011-01-03T18:40:06Z</time>
      </trkpt>
    </trkseg>
  </trk>

  <trk>
    <name>110103-España</name>
    <extensions>
      <gpxx:TrackExtension xmlns:gpxx="http://www.garmin.com/xmlschemas/GpxExtensions/v3">
        <gpxx:DisplayColor>Cyan</gpxx:DisplayColor>
      </gpxx:TrackExtension>
    </extensions>
    <trkseg>
      <trkpt lat="36.128333173692226" lon="-5.436557214707136">
        <ele>66.948974609375</ele>
        <time>2011-01-03T18:40:25Z</time>
      </trkpt>
      <trkpt lat="36.129658352583647" lon="-5.438263854011893">
        <ele>-29.182861328125</ele>
        <time>2011-01-03T18:47:04Z</time>
      </trkpt>
      <trkpt lat="36.12976354546845" lon="-5.438161175698042">
        <ele>-31.10546875</ele>
        <time>2011-01-03T18:47:15Z</time>
      </trkpt>
      <trkpt lat="36.129773519933224" lon="-5.438012480735779">
        <ele>-20.531005859375</ele>
        <time>2011-01-03T18:47:49Z</time>
      </trkpt>
      <trkpt lat="36.129994299262762" lon="-5.438104765489698">
        <ele>-30.624755859375</ele>
        <time>2011-01-03T18:48:06Z</time>
      </trkpt>
      <trkpt lat="36.130007458850741" lon="-5.438218843191862">
        <ele>-28.2215576171875</ele>
        <time>2011-01-03T18:48:09Z</time>
      </trkpt>
      <trkpt lat="36.130022294819355" lon="-5.438586976379156">
        <ele>-15.724365234375</ele>
        <time>2011-01-03T18:48:21Z</time>
      </trkpt>
      <trkpt lat="36.130209127441049" lon="-5.438826028257608">
        <ele>-9.95654296875</ele>
        <time>2011-01-03T18:48:30Z</time>
      </trkpt>
      <trkpt lat="36.130410460755229" lon="-5.439009089022875">
        <ele>-6.1112060546875</ele>
        <time>2011-01-03T18:48:40Z</time>
      </trkpt>
      <trkpt lat="36.130563849583268" lon="-5.439153425395489">
        <ele>-1.7852783203125</ele>
        <time>2011-01-03T18:48:50Z</time>
      </trkpt>
      <trkpt lat="36.130662756040692" lon="-5.43927806429565">
        <ele>6.866455078125</ele>
        <time>2011-01-03T18:49:26Z</time>
      </trkpt>
      <trkpt lat="36.130816228687763" lon="-5.439350651577115">
        <ele>14.076416015625</ele>
        <time>2011-01-03T18:50:16Z</time>
      </trkpt>
      <trkpt lat="36.131014544516802" lon="-5.439559193328023">
        <ele>11.6732177734375</ele>
        <time>2011-01-03T18:50:31Z</time>
      </trkpt>
      <trkpt lat="36.131083527579904" lon="-5.439754156395793">
        <ele>10.231201171875</ele>
        <time>2011-01-03T18:50:41Z</time>
      </trkpt>
      <trkpt lat="36.131028458476067" lon="-5.439976025372744">
        <ele>7.827880859375</ele>
        <time>2011-01-03T18:50:54Z</time>
      </trkpt>
      <trkpt lat="36.130932318046689" lon="-5.440111644566059">
        <ele>3.021240234375</ele>
        <time>2011-01-03T18:51:34Z</time>
      </trkpt>
      <trkpt lat="36.13087079487741" lon="-5.440213149413467">
        <ele>3.021240234375</ele>
        <time>2011-01-03T18:51:45Z</time>
      </trkpt>
      <trkpt lat="36.13078773021698" lon="-5.440392941236496">
        <ele>2.5406494140625</ele>
        <time>2011-01-03T18:52:36Z</time>
      </trkpt>
      <trkpt lat="36.130749089643359" lon="-5.440541552379727">
        <ele>2.5406494140625</ele>
        <time>2011-01-03T18:52:44Z</time>
      </trkpt>
      <trkpt lat="36.130639119073749" lon="-5.440814467146993">
        <ele>2.5406494140625</ele>
        <time>2011-01-03T18:52:56Z</time>
      </trkpt>
      <trkpt lat="36.130494782701135" lon="-5.441072881221771">
        <ele>2.5406494140625</ele>
        <time>2011-01-03T18:53:11Z</time>
      </trkpt>
      <trkpt lat="36.130388751626015" lon="-5.441359877586365">
        <ele>3.982666015625</ele>
        <time>2011-01-03T18:53:29Z</time>
      </trkpt>
      <trkpt lat="36.130158752202988" lon="-5.441669169813395">
        <ele>3.501953125</ele>
        <time>2011-01-03T18:53:35Z</time>
      </trkpt>
      <trkpt lat="36.130063533782959" lon="-5.441895229741931">
        <ele>3.021240234375</ele>
        <time>2011-01-03T18:53:39Z</time>
      </trkpt>
      <trkpt lat="36.129806041717529" lon="-5.442287418991327">
        <ele>3.501953125</ele>
        <time>2011-01-03T18:53:46Z</time>
      </trkpt>
      <trkpt lat="36.129681654274464" lon="-5.442453464493156">
        <ele>3.501953125</ele>
        <time>2011-01-03T18:53:49Z</time>
      </trkpt>
      <trkpt lat="36.129266917705536" lon="-5.443438589572907">
        <ele>3.501953125</ele>
        <time>2011-01-03T18:54:01Z</time>
      </trkpt>
      <trkpt lat="36.129189971834421" lon="-5.443617543205619">
        <ele>3.982666015625</ele>
        <time>2011-01-03T18:54:07Z</time>
      </trkpt>
      <trkpt lat="36.12915669567883" lon="-5.443772524595261">
        <ele>3.501953125</ele>
        <time>2011-01-03T18:54:14Z</time>
      </trkpt>
      <trkpt lat="36.129306731745601" lon="-5.443942928686738">
        <ele>2.5406494140625</ele>
        <time>2011-01-03T18:54:18Z</time>
      </trkpt>
      <trkpt lat="36.129779890179634" lon="-5.44422933831811">
        <ele>1.579345703125</ele>
        <time>2011-01-03T18:54:26Z</time>
      </trkpt>
      <trkpt lat="36.130157159641385" lon="-5.444100927561522">
        <ele>1.0986328125</ele>
        <time>2011-01-03T18:54:33Z</time>
      </trkpt>
      <trkpt lat="36.130325384438038" lon="-5.443855253979564">
        <ele>1.0986328125</ele>
        <time>2011-01-03T18:54:36Z</time>
      </trkpt>
      <trkpt lat="36.130913123488426" lon="-5.442558322101831">
        <ele>0.6180419921875</ele>
        <time>2011-01-03T18:54:47Z</time>
      </trkpt>
      <trkpt lat="36.131402458995581" lon="-5.441848877817392">
        <ele>1.0986328125</ele>
        <time>2011-01-03T18:54:53Z</time>
      </trkpt>
      <trkpt lat="36.132027497515082" lon="-5.441448641940951">
        <ele>1.0986328125</ele>
        <time>2011-01-03T18:54:58Z</time>
      </trkpt>
      <trkpt lat="36.133045731112361" lon="-5.44126189313829">
        <ele>1.579345703125</ele>
        <time>2011-01-03T18:55:05Z</time>
      </trkpt>
      <trkpt lat="36.134340148419142" lon="-5.441046226769686">
        <ele>2.5406494140625</ele>
        <time>2011-01-03T18:55:15Z</time>
      </trkpt>
      <trkpt lat="36.134621445089579" lon="-5.440894346684218">
        <ele>2.5406494140625</ele>
        <time>2011-01-03T18:55:19Z</time>
      </trkpt>
      <trkpt lat="36.134927719831467" lon="-5.440914295613766">
        <ele>3.501953125</ele>
        <time>2011-01-03T18:55:24Z</time>
      </trkpt>
      <trkpt lat="36.135654430836439" lon="-5.441124932840467">
        <ele>3.501953125</ele>
        <time>2011-01-03T18:55:31Z</time>
      </trkpt>
      <trkpt lat="36.136741228401661" lon="-5.44108746573329">
        <ele>3.501953125</ele>
        <time>2011-01-03T18:55:38Z</time>
      </trkpt>
      <trkpt lat="36.137930788099766" lon="-5.441047064960003">
        <ele>3.501953125</ele>
        <time>2011-01-03T18:55:46Z</time>
      </trkpt>
      <trkpt lat="36.138894455507398" lon="-5.441058799624443">
        <ele>3.501953125</ele>
        <time>2011-01-03T18:55:54Z</time>
      </trkpt>
      <trkpt lat="36.140037160366774" lon="-5.441028457134962">
        <ele>3.021240234375</ele>
        <time>2011-01-03T18:56:02Z</time>
      </trkpt>
      <trkpt lat="36.14144372753799" lon="-5.440959222614765">
        <ele>2.5406494140625</ele>
        <time>2011-01-03T18:56:12Z</time>
      </trkpt>
      <trkpt lat="36.143221193924546" lon="-5.440911278128624">
        <ele>2.5406494140625</ele>
        <time>2011-01-03T18:56:25Z</time>
      </trkpt>
      <trkpt lat="36.144763045012951" lon="-5.440828548744321">
        <ele>8.30859375</ele>
        <time>2011-01-03T18:56:35Z</time>
      </trkpt>
      <trkpt lat="36.146378740668297" lon="-5.440862495452166">
        <ele>15.5184326171875</ele>
        <time>2011-01-03T18:56:44Z</time>
      </trkpt>
      <trkpt lat="36.147323548793793" lon="-5.441204644739628">
        <ele>19.36376953125</ele>
        <time>2011-01-03T18:56:49Z</time>
      </trkpt>
      <trkpt lat="36.148184621706605" lon="-5.441905539482832">
        <ele>20.324951171875</ele>
        <time>2011-01-03T18:56:54Z</time>
      </trkpt>
      <trkpt lat="36.14885332994163" lon="-5.442906254902482">
        <ele>19.8443603515625</ele>
        <time>2011-01-03T18:56:59Z</time>
      </trkpt>
      <trkpt lat="36.149255074560642" lon="-5.444041667506099">
        <ele>16.479736328125</ele>
        <time>2011-01-03T18:57:04Z</time>
      </trkpt>
      <trkpt lat="36.149463867768645" lon="-5.44492369517684">
        <ele>13.5958251953125</ele>
        <time>2011-01-03T18:57:09Z</time>
      </trkpt>
      <trkpt lat="36.149712558835745" lon="-5.446030776947737">
        <ele>10.7117919921875</ele>
        <time>2011-01-03T18:57:18Z</time>
      </trkpt>
      <trkpt lat="36.149793863296509" lon="-5.446406956762075">
        <ele>9.7506103515625</ele>
        <time>2011-01-03T18:57:24Z</time>
      </trkpt>
      <trkpt lat="36.149865780025721" lon="-5.446732426062226">
        <ele>9.2698974609375</ele>
        <time>2011-01-03T18:57:32Z</time>
      </trkpt>
      <trkpt lat="36.149898720905185" lon="-5.446884138509631">
        <ele>8.30859375</ele>
        <time>2011-01-03T18:57:36Z</time>
      </trkpt>
      <trkpt lat="36.150018917396665" lon="-5.447369953617454">
        <ele>7.827880859375</ele>
        <time>2011-01-03T18:57:42Z</time>
      </trkpt>
      <trkpt lat="36.150127965956926" lon="-5.447635073214769">
        <ele>8.7891845703125</ele>
        <time>2011-01-03T18:57:44Z</time>
      </trkpt>
      <trkpt lat="36.15051512606442" lon="-5.448183752596378">
        <ele>9.7506103515625</ele>
        <time>2011-01-03T18:57:48Z</time>
      </trkpt>
      <trkpt lat="36.151231443509459" lon="-5.448579294607043">
        <ele>11.6732177734375</ele>
        <time>2011-01-03T18:57:53Z</time>
      </trkpt>
      <trkpt lat="36.151913478970528" lon="-5.448530344292522">
        <ele>13.1151123046875</ele>
        <time>2011-01-03T18:57:57Z</time>
      </trkpt>
      <trkpt lat="36.152585120871663" lon="-5.448095742613077">
        <ele>13.1151123046875</ele>
        <time>2011-01-03T18:58:01Z</time>
      </trkpt>
      <trkpt lat="36.152740018442273" lon="-5.447934726253152">
        <ele>13.5958251953125</ele>
        <time>2011-01-03T18:58:02Z</time>
      </trkpt>
      <trkpt lat="36.153378551825881" lon="-5.447297366335988">
        <ele>13.5958251953125</ele>
        <time>2011-01-03T18:58:06Z</time>
      </trkpt>
      <trkpt lat="36.154313888400793" lon="-5.446958485990763">
        <ele>13.1151123046875</ele>
        <time>2011-01-03T18:58:11Z</time>
      </trkpt>
      <trkpt lat="36.155091980472207" lon="-5.447188233956695">
        <ele>11.1925048828125</ele>
        <time>2011-01-03T18:58:15Z</time>
      </trkpt>
      <trkpt lat="36.155713079497218" lon="-5.447846883907914">
        <ele>9.2698974609375</ele>
        <time>2011-01-03T18:58:19Z</time>
      </trkpt>
      <trkpt lat="36.156023293733597" lon="-5.448762774467468">
        <ele>8.30859375</ele>
        <time>2011-01-03T18:58:23Z</time>
      </trkpt>
      <trkpt lat="36.156066376715899" lon="-5.449281949549913">
        <ele>8.7891845703125</ele>
        <time>2011-01-03T18:58:25Z</time>
      </trkpt>
      <trkpt lat="36.156079284846783" lon="-5.451308023184538">
        <ele>15.9990234375</ele>
        <time>2011-01-03T18:58:33Z</time>
      </trkpt>
      <trkpt lat="36.156097976490855" lon="-5.453401822596788">
        <ele>20.324951171875</ele>
        <time>2011-01-03T18:58:43Z</time>
      </trkpt>
      <trkpt lat="36.156157068908215" lon="-5.456182938069105">
        <ele>25.6123046875</ele>
        <time>2011-01-03T18:58:58Z</time>
      </trkpt>
      <trkpt lat="36.157007496803999" lon="-5.456380834802985">
        <ele>29.45751953125</ele>
        <time>2011-01-03T18:59:03Z</time>
      </trkpt>
      <trkpt lat="36.157950796186924" lon="-5.457604927942157">
        <ele>22.24755859375</ele>
        <time>2011-01-03T18:59:11Z</time>
      </trkpt>
      <trkpt lat="36.15913012996316" lon="-5.458823572844267">
        <ele>15.0377197265625</ele>
        <time>2011-01-03T18:59:18Z</time>
      </trkpt>
      <trkpt lat="36.160391187295318" lon="-5.459559252485633">
        <ele>9.7506103515625</ele>
        <time>2011-01-03T18:59:24Z</time>
      </trkpt>
      <trkpt lat="36.161309340968728" lon="-5.459637958556414">
        <ele>6.3858642578125</ele>
        <time>2011-01-03T18:59:28Z</time>
      </trkpt>
      <trkpt lat="36.162671651691198" lon="-5.459265299141407">
        <ele>3.021240234375</ele>
        <time>2011-01-03T18:59:34Z</time>
      </trkpt>
      <trkpt lat="36.165355956181884" lon="-5.458167940378189">
        <ele>0.137451171875</ele>
        <time>2011-01-03T18:59:46Z</time>
      </trkpt>
      <trkpt lat="36.1679298710078" lon="-5.456925071775913">
        <ele>0.6180419921875</ele>
        <time>2011-01-03T18:59:57Z</time>
      </trkpt>
      <trkpt lat="36.169433249160647" lon="-5.45661854557693">
        <ele>0.137451171875</ele>
        <time>2011-01-03T19:00:03Z</time>
      </trkpt>
      <trkpt lat="36.170960599556565" lon="-5.456135580316186">
        <ele>-0.3433837890625</ele>
        <time>2011-01-03T19:00:09Z</time>
      </trkpt>
      <trkpt lat="36.173346759751439" lon="-5.455214492976666">
        <ele>0.137451171875</ele>
        <time>2011-01-03T19:00:18Z</time>
      </trkpt>
      <trkpt lat="36.175014423206449" lon="-5.454247556626797">
        <ele>1.0986328125</ele>
        <time>2011-01-03T19:00:25Z</time>
      </trkpt>
      <trkpt lat="36.175748342648149" lon="-5.453316662460566">
        <ele>3.021240234375</ele>
        <time>2011-01-03T19:00:29Z</time>
      </trkpt>
      <trkpt lat="36.17712683044374" lon="-5.451020523905754">
        <ele>2.5406494140625</ele>
        <time>2011-01-03T19:00:38Z</time>
      </trkpt>
      <trkpt lat="36.178650995716453" lon="-5.448445519432426">
        <ele>3.501953125</ele>
        <time>2011-01-03T19:00:48Z</time>
      </trkpt>
      <trkpt lat="36.181323565542698" lon="-5.444041332229972">
        <ele>5.424560546875</ele>
        <time>2011-01-03T19:01:05Z</time>
      </trkpt>
      <trkpt lat="36.183364726603031" lon="-5.440669292584062">
        <ele>6.3858642578125</ele>
        <time>2011-01-03T19:01:18Z</time>
      </trkpt>
      <trkpt lat="36.184513885527849" lon="-5.439145881682634">
        <ele>8.7891845703125</ele>
        <time>2011-01-03T19:01:25Z</time>
      </trkpt>
      <trkpt lat="36.186299733817577" lon="-5.437526497989893">
        <ele>10.7117919921875</ele>
        <time>2011-01-03T19:01:34Z</time>
      </trkpt>
      <trkpt lat="36.188515992835164" lon="-5.435546524822712">
        <ele>9.7506103515625</ele>
        <time>2011-01-03T19:01:45Z</time>
      </trkpt>
      <trkpt lat="36.190537791699171" lon="-5.433763694018126">
        <ele>9.2698974609375</ele>
        <time>2011-01-03T19:01:54Z</time>
      </trkpt>
      <trkpt lat="36.193217318505049" lon="-5.431412486359477">
        <ele>10.231201171875</ele>
        <time>2011-01-03T19:02:05Z</time>
      </trkpt>
      <trkpt lat="36.194856986403465" lon="-5.430157547816634">
        <ele>10.231201171875</ele>
        <time>2011-01-03T19:02:12Z</time>
      </trkpt>
      <trkpt lat="36.1973487585783" lon="-5.428285785019398">
        <ele>9.2698974609375</ele>
        <time>2011-01-03T19:02:23Z</time>
      </trkpt>
      <trkpt lat="36.198787847533822" lon="-5.427112989127636">
        <ele>7.34716796875</ele>
        <time>2011-01-03T19:02:30Z</time>
      </trkpt>
      <trkpt lat="36.200183853507042" lon="-5.425769034773111">
        <ele>6.866455078125</ele>
        <time>2011-01-03T19:02:38Z</time>
      </trkpt>
      <trkpt lat="36.201667534187436" lon="-5.424183765426278">
        <ele>6.866455078125</ele>
        <time>2011-01-03T19:02:48Z</time>
      </trkpt>
      <trkpt lat="36.203097319230437" lon="-5.422441922128201">
        <ele>7.34716796875</ele>
        <time>2011-01-03T19:02:58Z</time>
      </trkpt>
      <trkpt lat="36.203530244529247" lon="-5.421184888109565">
        <ele>8.7891845703125</ele>
        <time>2011-01-03T19:03:03Z</time>
      </trkpt>
      <trkpt lat="36.203700061887503" lon="-5.419477326795459">
        <ele>10.7117919921875</ele>
        <time>2011-01-03T19:03:09Z</time>
      </trkpt>
      <trkpt lat="36.203964594751596" lon="-5.417813351377845">
        <ele>11.1925048828125</ele>
        <time>2011-01-03T19:03:15Z</time>
      </trkpt>
      <trkpt lat="36.204558536410332" lon="-5.416565788909793">
        <ele>11.6732177734375</ele>
        <time>2011-01-03T19:03:20Z</time>
      </trkpt>
      <trkpt lat="36.205326486378908" lon="-5.414971634745598">
        <ele>12.15380859375</ele>
        <time>2011-01-03T19:03:26Z</time>
      </trkpt>
      <trkpt lat="36.206306666135788" lon="-5.412191022187471">
        <ele>11.6732177734375</ele>
        <time>2011-01-03T19:03:35Z</time>
      </trkpt>
      <trkpt lat="36.206913851201534" lon="-5.409850794821978">
        <ele>8.7891845703125</ele>
        <time>2011-01-03T19:03:42Z</time>
      </trkpt>
      <trkpt lat="36.207296568900347" lon="-5.407662531360984">
        <ele>6.866455078125</ele>
        <time>2011-01-03T19:03:49Z</time>
      </trkpt>
      <trkpt lat="36.207815073430538" lon="-5.404267776757479">
        <ele>8.7891845703125</ele>
        <time>2011-01-03T19:04:00Z</time>
      </trkpt>
      <trkpt lat="36.207724129781127" lon="-5.402745371684432">
        <ele>9.2698974609375</ele>
        <time>2011-01-03T19:04:05Z</time>
      </trkpt>
      <trkpt lat="36.207378627732396" lon="-5.399322537705302">
        <ele>10.7117919921875</ele>
        <time>2011-01-03T19:04:16Z</time>
      </trkpt>
      <trkpt lat="36.206993982195854" lon="-5.39549058303237">
        <ele>22.728271484375</ele>
        <time>2011-01-03T19:04:28Z</time>
      </trkpt>
      <trkpt lat="36.206983923912048" lon="-5.393597446382046">
        <ele>30.4188232421875</ele>
        <time>2011-01-03T19:04:34Z</time>
      </trkpt>
      <trkpt lat="36.207502260804176" lon="-5.389867164194584">
        <ele>44.3580322265625</ele>
        <time>2011-01-03T19:04:46Z</time>
      </trkpt>
      <trkpt lat="36.207607788965106" lon="-5.388321541249752">
        <ele>49.645263671875</ele>
        <time>2011-01-03T19:04:51Z</time>
      </trkpt>
      <trkpt lat="36.207383740693331" lon="-5.387196689844132">
        <ele>52.5291748046875</ele>
        <time>2011-01-03T19:04:55Z</time>
      </trkpt>
      <trkpt lat="36.206662897020578" lon="-5.385271953418851">
        <ele>55.893798828125</ele>
        <time>2011-01-03T19:05:02Z</time>
      </trkpt>
      <trkpt lat="36.206590142101049" lon="-5.383747033774853">
        <ele>57.3358154296875</ele>
        <time>2011-01-03T19:05:07Z</time>
      </trkpt>
      <trkpt lat="36.206953329965472" lon="-5.382608184590936">
        <ele>59.7391357421875</ele>
        <time>2011-01-03T19:05:11Z</time>
      </trkpt>
      <trkpt lat="36.20761432684958" lon="-5.381717691197991">
        <ele>64.0650634765625</ele>
        <time>2011-01-03T19:05:15Z</time>
      </trkpt>
      <trkpt lat="36.208246070891619" lon="-5.381275964900851">
        <ele>67.4296875</ele>
        <time>2011-01-03T19:05:18Z</time>
      </trkpt>
      <trkpt lat="36.210886621847749" lon="-5.380175756290555">
        <ele>75.600830078125</ele>
        <time>2011-01-03T19:05:29Z</time>
      </trkpt>
      <trkpt lat="36.215206319466233" lon="-5.378476660698652">
        <ele>93.8658447265625</ele>
        <time>2011-01-03T19:05:46Z</time>
      </trkpt>
      <trkpt lat="36.217204481363297" lon="-5.377462534233928">
        <ele>99.153076171875</ele>
        <time>2011-01-03T19:05:54Z</time>
      </trkpt>
      <trkpt lat="36.21864122338593" lon="-5.37626794539392">
        <ele>98.19189453125</ele>
        <time>2011-01-03T19:06:00Z</time>
      </trkpt>
      <trkpt lat="36.219896581023932" lon="-5.374692566692829">
        <ele>96.269287109375</ele>
        <time>2011-01-03T19:06:06Z</time>
      </trkpt>
      <trkpt lat="36.221689134836197" lon="-5.37207649089396">
        <ele>93.8658447265625</ele>
        <time>2011-01-03T19:06:15Z</time>
      </trkpt>
      <trkpt lat="36.223544636741281" lon="-5.369895435869694">
        <ele>96.7498779296875</ele>
        <time>2011-01-03T19:06:23Z</time>
      </trkpt>
      <trkpt lat="36.226210249587893" lon="-5.36677535623312">
        <ele>112.1309814453125</ele>
        <time>2011-01-03T19:06:35Z</time>
      </trkpt>
      <trkpt lat="36.227077776566148" lon="-5.365351857617497">
        <ele>118.37939453125</ele>
        <time>2011-01-03T19:06:40Z</time>
      </trkpt>
      <trkpt lat="36.227603573352098" lon="-5.363683355972171">
        <ele>121.744140625</ele>
        <time>2011-01-03T19:06:45Z</time>
      </trkpt>
      <trkpt lat="36.227725194767118" lon="-5.362211661413312">
        <ele>123.1861572265625</ele>
        <time>2011-01-03T19:06:49Z</time>
      </trkpt>
      <trkpt lat="36.227800799533725" lon="-5.360058769583702">
        <ele>125.1087646484375</ele>
        <time>2011-01-03T19:06:55Z</time>
      </trkpt>
      <trkpt lat="36.228207238018513" lon="-5.358366379514337">
        <ele>128.473388671875</ele>
        <time>2011-01-03T19:07:00Z</time>
      </trkpt>
      <trkpt lat="36.229066299274564" lon="-5.356479529291391">
        <ele>133.760498046875</ele>
        <time>2011-01-03T19:07:06Z</time>
      </trkpt>
      <trkpt lat="36.23137685470283" lon="-5.351724727079272">
        <ele>146.2578125</ele>
        <time>2011-01-03T19:07:21Z</time>
      </trkpt>
      <trkpt lat="36.232884675264359" lon="-5.348998764529824">
        <ele>151.064208984375</ele>
        <time>2011-01-03T19:07:30Z</time>
      </trkpt>
      <trkpt lat="36.234372295439243" lon="-5.347153320908546">
        <ele>154.428955078125</ele>
        <time>2011-01-03T19:07:37Z</time>
      </trkpt>
      <trkpt lat="36.237281654030085" lon="-5.343859065324068">
        <ele>156.8321533203125</ele>
        <time>2011-01-03T19:07:50Z</time>
      </trkpt>
      <trkpt lat="36.238863989710808" lon="-5.342598762363195">
        <ele>153.9483642578125</ele>
        <time>2011-01-03T19:07:56Z</time>
      </trkpt>
      <trkpt lat="36.240899031981826" lon="-5.341523196548224">
        <ele>145.29638671875</ele>
        <time>2011-01-03T19:08:03Z</time>
      </trkpt>
      <trkpt lat="36.243155272677541" lon="-5.340177146717906">
        <ele>134.721923828125</ele>
        <time>2011-01-03T19:08:11Z</time>
      </trkpt>
      <trkpt lat="36.245643356814981" lon="-5.338430525735021">
        <ele>122.7054443359375</ele>
        <time>2011-01-03T19:08:20Z</time>
      </trkpt>
      <trkpt lat="36.24684046022594" lon="-5.337945129722357">
        <ele>117.8988037109375</ele>
        <time>2011-01-03T19:08:24Z</time>
      </trkpt>
      <trkpt lat="36.248097494244576" lon="-5.33782166428864">
        <ele>114.0535888671875</ele>
        <time>2011-01-03T19:08:28Z</time>
      </trkpt>
      <trkpt lat="36.249344134703279" lon="-5.338042695075274">
        <ele>109.7276611328125</ele>
        <time>2011-01-03T19:08:32Z</time>
      </trkpt>
      <trkpt lat="36.250830665230751" lon="-5.338744344189763">
        <ele>103.47900390625</ele>
        <time>2011-01-03T19:08:37Z</time>
      </trkpt>
      <trkpt lat="36.252341419458389" lon="-5.339307440444827">
        <ele>101.07568359375</ele>
        <time>2011-01-03T19:08:42Z</time>
      </trkpt>
      <trkpt lat="36.253586634993553" lon="-5.33930073492229">
        <ele>104.4404296875</ele>
        <time>2011-01-03T19:08:46Z</time>
      </trkpt>
      <trkpt lat="36.254790024831891" lon="-5.338842663913965">
        <ele>105.8824462890625</ele>
        <time>2011-01-03T19:08:50Z</time>
      </trkpt>
      <trkpt lat="36.255857879295945" lon="-5.337966587394476">
        <ele>103.47900390625</ele>
        <time>2011-01-03T19:08:54Z</time>
      </trkpt>
      <trkpt lat="36.256689028814435" lon="-5.336742158979178">
        <ele>97.711181640625</ele>
        <time>2011-01-03T19:08:58Z</time>
      </trkpt>
      <trkpt lat="36.258555678650737" lon="-5.333443460986018">
        <ele>78.9654541015625</ele>
        <time>2011-01-03T19:09:08Z</time>
      </trkpt>
      <trkpt lat="36.260679988190532" lon="-5.32954964786768">
        <ele>68.87158203125</ele>
        <time>2011-01-03T19:09:20Z</time>
      </trkpt>
      <trkpt lat="36.261873990297318" lon="-5.32686316408217">
        <ele>66.948974609375</ele>
        <time>2011-01-03T19:09:28Z</time>
      </trkpt>
      <trkpt lat="36.262637916952372" lon="-5.324173327535391">
        <ele>56.8551025390625</ele>
        <time>2011-01-03T19:09:35Z</time>
      </trkpt>
      <trkpt lat="36.262996327131987" lon="-5.321688847616315">
        <ele>45.7999267578125</ele>
        <time>2011-01-03T19:09:41Z</time>
      </trkpt>
      <trkpt lat="36.263388432562351" lon="-5.319750448688865">
        <ele>37.1480712890625</ele>
        <time>2011-01-03T19:09:46Z</time>
      </trkpt>
      <trkpt lat="36.264046998694539" lon="-5.31840112991631">
        <ele>30.8995361328125</ele>
        <time>2011-01-03T19:09:50Z</time>
      </trkpt>
      <trkpt lat="36.265005050227046" lon="-5.317318020388484">
        <ele>27.534912109375</ele>
        <time>2011-01-03T19:09:54Z</time>
      </trkpt>
      <trkpt lat="36.266171140596271" lon="-5.316603798419237">
        <ele>26.5736083984375</ele>
        <time>2011-01-03T19:09:58Z</time>
      </trkpt>
      <trkpt lat="36.267443262040615" lon="-5.316335493698716">
        <ele>29.45751953125</ele>
        <time>2011-01-03T19:10:02Z</time>
      </trkpt>
      <trkpt lat="36.268702056258917" lon="-5.316513190045953">
        <ele>37.1480712890625</ele>
        <time>2011-01-03T19:10:06Z</time>
      </trkpt>
      <trkpt lat="36.270445827394724" lon="-5.317116435617209">
        <ele>49.16455078125</ele>
        <time>2011-01-03T19:10:12Z</time>
      </trkpt>
      <trkpt lat="36.271886089816689" lon="-5.317343920469284">
        <ele>58.297119140625</ele>
        <time>2011-01-03T19:10:17Z</time>
      </trkpt>
      <trkpt lat="36.273600272834301" lon="-5.317156249657273">
        <ele>68.390869140625</ele>
        <time>2011-01-03T19:10:23Z</time>
      </trkpt>
      <trkpt lat="36.275259889662266" lon="-5.316545460373163">
        <ele>73.1976318359375</ele>
        <time>2011-01-03T19:10:29Z</time>
      </trkpt>
      <trkpt lat="36.27744966186583" lon="-5.315216341987252">
        <ele>71.7554931640625</ele>
        <time>2011-01-03T19:10:37Z</time>
      </trkpt>
      <trkpt lat="36.280053583905101" lon="-5.313796196132898">
        <ele>63.1036376953125</ele>
        <time>2011-01-03T19:10:46Z</time>
      </trkpt>
      <trkpt lat="36.283699292689562" lon="-5.312445033341646">
        <ele>51.087158203125</ele>
        <time>2011-01-03T19:10:58Z</time>
      </trkpt>
      <trkpt lat="36.286082854494452" lon="-5.311221443116665">
        <ele>41.9547119140625</ele>
        <time>2011-01-03T19:11:06Z</time>
      </trkpt>
      <trkpt lat="36.287456983700395" lon="-5.310025932267308">
        <ele>32.822265625</ele>
        <time>2011-01-03T19:11:11Z</time>
      </trkpt>
      <trkpt lat="36.288667749613523" lon="-5.308488858863711">
        <ele>27.534912109375</ele>
        <time>2011-01-03T19:11:16Z</time>
      </trkpt>
      <trkpt lat="36.289605684578419" lon="-5.30668968334794">
        <ele>26.0928955078125</ele>
        <time>2011-01-03T19:11:21Z</time>
      </trkpt>
      <trkpt lat="36.290907226502895" lon="-5.303220078349114">
        <ele>24.6510009765625</ele>
        <time>2011-01-03T19:11:30Z</time>
      </trkpt>
      <trkpt lat="36.29230935126543" lon="-5.299492897465825">
        <ele>17.441162109375</ele>
        <time>2011-01-03T19:11:40Z</time>
      </trkpt>
      <trkpt lat="36.293376367539167" lon="-5.295944921672344">
        <ele>12.15380859375</ele>
        <time>2011-01-03T19:11:49Z</time>
      </trkpt>
      <trkpt lat="36.294291671365499" lon="-5.292693749070168">
        <ele>10.231201171875</ele>
        <time>2011-01-03T19:11:58Z</time>
      </trkpt>
      <trkpt lat="36.295644845813513" lon="-5.288212951272726">
        <ele>10.7117919921875</ele>
        <time>2011-01-03T19:12:11Z</time>
      </trkpt>
      <trkpt lat="36.29681252874434" lon="-5.284753488376737">
        <ele>18.40234375</ele>
        <time>2011-01-03T19:12:21Z</time>
      </trkpt>
      <trkpt lat="36.29782397300005" lon="-5.282891364768148">
        <ele>21.7669677734375</ele>
        <time>2011-01-03T19:12:27Z</time>
      </trkpt>
      <trkpt lat="36.299109421670437" lon="-5.28128145262599">
        <ele>22.728271484375</ele>
        <time>2011-01-03T19:12:33Z</time>
      </trkpt>
      <trkpt lat="36.300644483417273" lon="-5.279940934851766">
        <ele>23.208984375</ele>
        <time>2011-01-03T19:12:39Z</time>
      </trkpt>
      <trkpt lat="36.302072675898671" lon="-5.279133757576346">
        <ele>25.1317138671875</ele>
        <time>2011-01-03T19:12:44Z</time>
      </trkpt>
      <trkpt lat="36.303868079558015" lon="-5.278560938313603">
        <ele>30.4188232421875</ele>
        <time>2011-01-03T19:12:50Z</time>
      </trkpt>
      <trkpt lat="36.307173650711775" lon="-5.277996333315969">
        <ele>44.3580322265625</ele>
        <time>2011-01-03T19:13:01Z</time>
      </trkpt>
      <trkpt lat="36.309769861400127" lon="-5.277240453287959">
        <ele>55.893798828125</ele>
        <time>2011-01-03T19:13:10Z</time>
      </trkpt>
      <trkpt lat="36.312813917174935" lon="-5.275884680449963">
        <ele>69.8328857421875</ele>
        <time>2011-01-03T19:13:21Z</time>
      </trkpt>
      <trkpt lat="36.315148025751114" lon="-5.274434527382255">
        <ele>83.2913818359375</ele>
        <time>2011-01-03T19:13:30Z</time>
      </trkpt>
      <trkpt lat="36.317264623939991" lon="-5.27276024222374">
        <ele>98.6724853515625</ele>
        <time>2011-01-03T19:13:39Z</time>
      </trkpt>
      <trkpt lat="36.319359429180622" lon="-5.27068454772234">
        <ele>115.49560546875</ele>
        <time>2011-01-03T19:13:49Z</time>
      </trkpt>
      <trkpt lat="36.321018962189555" lon="-5.268678925931454">
        <ele>129.915283203125</ele>
        <time>2011-01-03T19:13:58Z</time>
      </trkpt>
      <trkpt lat="36.322931461036205" lon="-5.266428636386991">
        <ele>145.29638671875</ele>
        <time>2011-01-03T19:14:08Z</time>
      </trkpt>
      <trkpt lat="36.324350936338305" lon="-5.265364889055491">
        <ele>152.0257568359375</ele>
        <time>2011-01-03T19:14:14Z</time>
      </trkpt>
      <trkpt lat="36.325989849865437" lon="-5.264659468084574">
        <ele>156.3515625</ele>
        <time>2011-01-03T19:14:20Z</time>
      </trkpt>
      <trkpt lat="36.327442517504096" lon="-5.264427540823817">
        <ele>158.274169921875</ele>
        <time>2011-01-03T19:14:25Z</time>
      </trkpt>
      <trkpt lat="36.329262563958764" lon="-5.264588138088584">
        <ele>158.7547607421875</ele>
        <time>2011-01-03T19:14:31Z</time>
      </trkpt>
      <trkpt lat="36.330799637362361" lon="-5.265111923217773">
        <ele>157.3128662109375</ele>
        <time>2011-01-03T19:14:36Z</time>
      </trkpt>
      <trkpt lat="36.332280216738582" lon="-5.266044158488512">
        <ele>152.50634765625</ele>
        <time>2011-01-03T19:14:41Z</time>
      </trkpt>
      <trkpt lat="36.33423269726336" lon="-5.267603024840355">
        <ele>146.7384033203125</ele>
        <time>2011-01-03T19:14:48Z</time>
      </trkpt>
      <trkpt lat="36.335818134248257" lon="-5.268371226266027">
        <ele>143.8543701171875</ele>
        <time>2011-01-03T19:14:53Z</time>
      </trkpt>
      <trkpt lat="36.337524857372046" lon="-5.268730642274022">
        <ele>141.9317626953125</ele>
        <time>2011-01-03T19:14:58Z</time>
      </trkpt>
      <trkpt lat="36.339174164459109" lon="-5.268675740808249">
        <ele>140.970458984375</ele>
        <time>2011-01-03T19:15:03Z</time>
      </trkpt>
      <trkpt lat="36.34131783619523" lon="-5.268536768853664">
        <ele>139.0478515625</ele>
        <time>2011-01-03T19:15:10Z</time>
      </trkpt>
      <trkpt lat="36.342830937355757" lon="-5.268777329474688">
        <ele>136.6446533203125</ele>
        <time>2011-01-03T19:15:15Z</time>
      </trkpt>
      <trkpt lat="36.344334566965699" lon="-5.269349562004209">
        <ele>133.2799072265625</ele>
        <time>2011-01-03T19:15:20Z</time>
      </trkpt>
      <trkpt lat="36.346304565668106" lon="-5.270491177216172">
        <ele>126.5506591796875</ele>
        <time>2011-01-03T19:15:27Z</time>
      </trkpt>
      <trkpt lat="36.348089827224612" lon="-5.271207829937339">
        <ele>121.744140625</ele>
        <time>2011-01-03T19:15:33Z</time>
      </trkpt>
      <trkpt lat="36.3496567402035" lon="-5.271431375294924">
        <ele>119.3408203125</ele>
        <time>2011-01-03T19:15:38Z</time>
      </trkpt>
      <trkpt lat="36.351570161059499" lon="-5.271235322579742">
        <ele>115.49560546875</ele>
        <time>2011-01-03T19:15:44Z</time>
      </trkpt>
      <trkpt lat="36.353433625772595" lon="-5.270543228834868">
        <ele>112.1309814453125</ele>
        <time>2011-01-03T19:15:50Z</time>
      </trkpt>
      <trkpt lat="36.356471227481961" lon="-5.269020656123757">
        <ele>106.363037109375</ele>
        <time>2011-01-03T19:16:00Z</time>
      </trkpt>
      <trkpt lat="36.358708022162318" lon="-5.268295537680388">
        <ele>104.9210205078125</ele>
        <time>2011-01-03T19:16:07Z</time>
      </trkpt>
      <trkpt lat="36.36132912710309" lon="-5.267892116680741">
        <ele>110.6888427734375</ele>
        <time>2011-01-03T19:16:15Z</time>
      </trkpt>
      <trkpt lat="36.363595426082611" lon="-5.267928745597601">
        <ele>118.860107421875</ele>
        <time>2011-01-03T19:16:22Z</time>
      </trkpt>
      <trkpt lat="36.36637419462204" lon="-5.268384050577879">
        <ele>128.9541015625</ele>
        <time>2011-01-03T19:16:31Z</time>
      </trkpt>
      <trkpt lat="36.368498587980866" lon="-5.268594017252326">
        <ele>136.1639404296875</ele>
        <time>2011-01-03T19:16:38Z</time>
      </trkpt>
      <trkpt lat="36.370573863387108" lon="-5.26833769865334">
        <ele>141.9317626953125</ele>
        <time>2011-01-03T19:16:45Z</time>
      </trkpt>
      <trkpt lat="36.372253093868494" lon="-5.267771920189261">
        <ele>144.335205078125</ele>
        <time>2011-01-03T19:16:51Z</time>
      </trkpt>
      <trkpt lat="36.373979933559895" lon="-5.26681219227612">
        <ele>144.335205078125</ele>
        <time>2011-01-03T19:16:58Z</time>
      </trkpt>
      <trkpt lat="36.375145353376865" lon="-5.265900744125247">
        <ele>142.89306640625</ele>
        <time>2011-01-03T19:17:04Z</time>
      </trkpt>
      <trkpt lat="36.375833172351122" lon="-5.265296325087547">
        <ele>140.4898681640625</ele>
        <time>2011-01-03T19:17:09Z</time>
      </trkpt>
      <trkpt lat="36.376253524795175" lon="-5.264893993735313">
        <ele>138.0865478515625</ele>
        <time>2011-01-03T19:17:14Z</time>
      </trkpt>
      <trkpt lat="36.376394256949425" lon="-5.264741694554687">
        <ele>136.1639404296875</ele>
        <time>2011-01-03T19:17:20Z</time>
      </trkpt>
      <trkpt lat="36.376826679334044" lon="-5.264379177242518">
        <ele>136.1639404296875</ele>
        <time>2011-01-03T19:17:39Z</time>
      </trkpt>
      <trkpt lat="36.377454316243529" lon="-5.263894284144044">
        <ele>136.1639404296875</ele>
        <time>2011-01-03T19:17:44Z</time>
      </trkpt>
      <trkpt lat="36.378327123820782" lon="-5.263333199545741">
        <ele>133.760498046875</ele>
        <time>2011-01-03T19:17:49Z</time>
      </trkpt>
      <trkpt lat="36.379655487835407" lon="-5.26268963702023">
        <ele>129.4346923828125</ele>
        <time>2011-01-03T19:17:55Z</time>
      </trkpt>
      <trkpt lat="36.381241846829653" lon="-5.262168785557151">
        <ele>122.7054443359375</ele>
        <time>2011-01-03T19:18:01Z</time>
      </trkpt>
      <trkpt lat="36.383294323459268" lon="-5.261863097548485">
        <ele>112.1309814453125</ele>
        <time>2011-01-03T19:18:08Z</time>
      </trkpt>
      <trkpt lat="36.385639328509569" lon="-5.26170065626502">
        <ele>95.7884521484375</ele>
        <time>2011-01-03T19:18:16Z</time>
      </trkpt>
      <trkpt lat="36.387156033888459" lon="-5.261161029338837">
        <ele>85.694580078125</ele>
        <time>2011-01-03T19:18:21Z</time>
      </trkpt>
      <trkpt lat="36.388313742354512" lon="-5.260352175682783">
        <ele>79.446044921875</ele>
        <time>2011-01-03T19:18:25Z</time>
      </trkpt>
      <trkpt lat="36.389320073649287" lon="-5.259235370904207">
        <ele>75.600830078125</ele>
        <time>2011-01-03T19:18:29Z</time>
      </trkpt>
      <trkpt lat="36.390080899000168" lon="-5.257918741554022">
        <ele>73.67822265625</ele>
        <time>2011-01-03T19:18:33Z</time>
      </trkpt>
      <trkpt lat="36.390887573361397" lon="-5.255755120888352">
        <ele>74.1588134765625</ele>
        <time>2011-01-03T19:18:39Z</time>
      </trkpt>
      <trkpt lat="36.391726434230804" lon="-5.254070945084095">
        <ele>75.600830078125</ele>
        <time>2011-01-03T19:18:44Z</time>
      </trkpt>
      <trkpt lat="36.392896631732583" lon="-5.252672340720892">
        <ele>75.1202392578125</ele>
        <time>2011-01-03T19:18:49Z</time>
      </trkpt>
      <trkpt lat="36.394036067649722" lon="-5.251845633611083">
        <ele>73.67822265625</ele>
        <time>2011-01-03T19:18:53Z</time>
      </trkpt>
      <trkpt lat="36.395603734999895" lon="-5.251236269250512">
        <ele>70.794189453125</ele>
        <time>2011-01-03T19:18:58Z</time>
      </trkpt>
      <trkpt lat="36.397703569382429" lon="-5.250448873266578">
        <ele>67.4296875</ele>
        <time>2011-01-03T19:19:05Z</time>
      </trkpt>
      <trkpt lat="36.399007122963667" lon="-5.249474057927728">
        <ele>69.8328857421875</ele>
        <time>2011-01-03T19:19:10Z</time>
      </trkpt>
      <trkpt lat="36.40005586668849" lon="-5.248199589550495">
        <ele>75.600830078125</ele>
        <time>2011-01-03T19:19:15Z</time>
      </trkpt>
      <trkpt lat="36.400795234367251" lon="-5.24666897021234">
        <ele>81.849365234375</ele>
        <time>2011-01-03T19:19:20Z</time>
      </trkpt>
      <trkpt lat="36.401268728077412" lon="-5.244997031986713">
        <ele>89.059326171875</ele>
        <time>2011-01-03T19:19:25Z</time>
      </trkpt>
      <trkpt lat="36.401444664224982" lon="-5.243319645524025">
        <ele>95.3077392578125</ele>
        <time>2011-01-03T19:19:30Z</time>
      </trkpt>
      <trkpt lat="36.401636190712452" lon="-5.238562328740954">
        <ele>113.572998046875</ele>
        <time>2011-01-03T19:19:45Z</time>
      </trkpt>
      <trkpt lat="36.401888318359852" lon="-5.23255099542439">
        <ele>183.2684326171875</ele>
        <time>2011-01-03T19:20:05Z</time>
      </trkpt>
      <trkpt lat="36.407280899584293" lon="-5.228289552032948">
        <ele>94.8271484375</ele>
        <time>2011-01-03T19:20:18Z</time>
      </trkpt>
      <trkpt lat="36.409521885216236" lon="-5.225070817396045">
        <ele>96.7498779296875</ele>
        <time>2011-01-03T19:20:29Z</time>
      </trkpt>
      <trkpt lat="36.410882771015167" lon="-5.223637344315648">
        <ele>99.153076171875</ele>
        <time>2011-01-03T19:20:35Z</time>
      </trkpt>
      <trkpt lat="36.41282519325614" lon="-5.222122985869646">
        <ele>102.5177001953125</ele>
        <time>2011-01-03T19:20:43Z</time>
      </trkpt>
      <trkpt lat="36.414739536121488" lon="-5.221138531342149">
        <ele>105.8824462890625</ele>
        <time>2011-01-03T19:20:50Z</time>
      </trkpt>
      <trkpt lat="36.41681145876646" lon="-5.220484575256705">
        <ele>107.8050537109375</ele>
        <time>2011-01-03T19:20:57Z</time>
      </trkpt>
      <trkpt lat="36.418865779414773" lon="-5.219708578661084">
        <ele>111.6502685546875</ele>
        <time>2011-01-03T19:21:04Z</time>
      </trkpt>
      <trkpt lat="36.420200597494841" lon="-5.218735355883837">
        <ele>114.5341796875</ele>
        <time>2011-01-03T19:21:09Z</time>
      </trkpt>
      <trkpt lat="36.421379344537854" lon="-5.217441692948341">
        <ele>116.456787109375</ele>
        <time>2011-01-03T19:21:14Z</time>
      </trkpt>
      <trkpt lat="36.42256404273212" lon="-5.215648217126727">
        <ele>117.418212890625</ele>
        <time>2011-01-03T19:21:20Z</time>
      </trkpt>
      <trkpt lat="36.423706328496337" lon="-5.213341349735856">
        <ele>118.860107421875</ele>
        <time>2011-01-03T19:21:27Z</time>
      </trkpt>
      <trkpt lat="36.425450267270207" lon="-5.208891984075308">
        <ele>121.2635498046875</ele>
        <time>2011-01-03T19:21:40Z</time>
      </trkpt>
      <trkpt lat="36.426334893330932" lon="-5.205075619742274">
        <ele>114.0535888671875</ele>
        <time>2011-01-03T19:21:51Z</time>
      </trkpt>
      <trkpt lat="36.427548341453075" lon="-5.203053988516331">
        <ele>110.208251953125</ele>
        <time>2011-01-03T19:21:58Z</time>
      </trkpt>
      <trkpt lat="36.429713973775506" lon="-5.200207578018308">
        <ele>107.3243408203125</ele>
        <time>2011-01-03T19:22:09Z</time>
      </trkpt>
      <trkpt lat="36.434078263118863" lon="-5.194540657103062">
        <ele>102.037109375</ele>
        <time>2011-01-03T19:22:31Z</time>
      </trkpt>
      <trkpt lat="36.432574884966016" lon="-5.190776595845819">
        <ele>82.810791015625</ele>
        <time>2011-01-03T19:22:38Z</time>
      </trkpt>
      <trkpt lat="36.432745037600398" lon="-5.185823142528534">
        <ele>59.2584228515625</ele>
        <time>2011-01-03T19:22:51Z</time>
      </trkpt>
      <trkpt lat="36.433204617351294" lon="-5.182755030691624">
        <ele>56.37451171875</ele>
        <time>2011-01-03T19:22:59Z</time>
      </trkpt>
      <trkpt lat="36.433842396363616" lon="-5.178914442658424">
        <ele>65.0263671875</ele>
        <time>2011-01-03T19:23:09Z</time>
      </trkpt>
      <trkpt lat="36.433813394978642" lon="-5.176972271874547">
        <ele>69.352294921875</ele>
        <time>2011-01-03T19:23:14Z</time>
      </trkpt>
      <trkpt lat="36.433485159650445" lon="-5.174650484696031">
        <ele>70.794189453125</ele>
        <time>2011-01-03T19:23:20Z</time>
      </trkpt>
      <trkpt lat="36.433128677308559" lon="-5.172379156574607">
        <ele>70.3134765625</ele>
        <time>2011-01-03T19:23:26Z</time>
      </trkpt>
      <trkpt lat="36.433005463331938" lon="-5.169261759147048">
        <ele>58.7777099609375</ele>
        <time>2011-01-03T19:23:34Z</time>
      </trkpt>
      <trkpt lat="36.4329918846488" lon="-5.165555868297815">
        <ele>40.5128173828125</ele>
        <time>2011-01-03T19:23:43Z</time>
      </trkpt>
      <trkpt lat="36.433061035349965" lon="-5.162042258307338">
        <ele>31.8607177734375</ele>
        <time>2011-01-03T19:23:52Z</time>
      </trkpt>
      <trkpt lat="36.433454649522901" lon="-5.159375220537186">
        <ele>36.66748046875</ele>
        <time>2011-01-03T19:23:59Z</time>
      </trkpt>
      <trkpt lat="36.434247996658087" lon="-5.156340636312962">
        <ele>41.4739990234375</ele>
        <time>2011-01-03T19:24:07Z</time>
      </trkpt>
      <trkpt lat="36.435286682099104" lon="-5.152215734124184">
        <ele>48.6839599609375</ele>
        <time>2011-01-03T19:24:18Z</time>
      </trkpt>
      <trkpt lat="36.435617599636316" lon="-5.149906016886234">
        <ele>52.048583984375</ele>
        <time>2011-01-03T19:24:24Z</time>
      </trkpt>
      <trkpt lat="36.435666969045997" lon="-5.147597556933761">
        <ele>52.048583984375</ele>
        <time>2011-01-03T19:24:30Z</time>
      </trkpt>
      <trkpt lat="36.435470832511783" lon="-5.144874444231391">
        <ele>48.6839599609375</ele>
        <time>2011-01-03T19:24:37Z</time>
      </trkpt>
      <trkpt lat="36.435225829482079" lon="-5.141835166141391">
        <ele>43.3966064453125</ele>
        <time>2011-01-03T19:24:45Z</time>
      </trkpt>
      <trkpt lat="36.435374021530151" lon="-5.13993825763464">
        <ele>39.0706787109375</ele>
        <time>2011-01-03T19:24:50Z</time>
      </trkpt>
      <trkpt lat="36.435844749212265" lon="-5.138092478737235">
        <ele>33.3028564453125</ele>
        <time>2011-01-03T19:24:55Z</time>
      </trkpt>
      <trkpt lat="36.436651758849621" lon="-5.136343846097589">
        <ele>30.4188232421875</ele>
        <time>2011-01-03T19:25:00Z</time>
      </trkpt>
      <trkpt lat="36.437713159248233" lon="-5.134762432426214">
        <ele>32.822265625</ele>
        <time>2011-01-03T19:25:05Z</time>
      </trkpt>
      <trkpt lat="36.439217124134302" lon="-5.133207924664021">
        <ele>37.628662109375</ele>
        <time>2011-01-03T19:25:11Z</time>
      </trkpt>
      <trkpt lat="36.440911022946239" lon="-5.132048539817333">
        <ele>41.4739990234375</ele>
        <time>2011-01-03T19:25:17Z</time>
      </trkpt>
      <trkpt lat="36.442438289523125" lon="-5.131404977291822">
        <ele>44.3580322265625</ele>
        <time>2011-01-03T19:25:22Z</time>
      </trkpt>
      <trkpt lat="36.445907726883888" lon="-5.13032253831625">
        <ele>51.087158203125</ele>
        <time>2011-01-03T19:25:33Z</time>
      </trkpt>
      <trkpt lat="36.448061540722847" lon="-5.129360882565379">
        <ele>54.932373046875</ele>
        <time>2011-01-03T19:25:40Z</time>
      </trkpt>
      <trkpt lat="36.450134888291359" lon="-5.128071159124374">
        <ele>56.37451171875</ele>
        <time>2011-01-03T19:25:47Z</time>
      </trkpt>
      <trkpt lat="36.452360283583403" lon="-5.12620928697288">
        <ele>61.1810302734375</ele>
        <time>2011-01-03T19:25:55Z</time>
      </trkpt>
      <trkpt lat="36.454344363883138" lon="-5.124004343524575">
        <ele>69.352294921875</ele>
        <time>2011-01-03T19:26:03Z</time>
      </trkpt>
      <trkpt lat="36.456534052267671" lon="-5.121005633845925">
        <ele>79.9266357421875</ele>
        <time>2011-01-03T19:26:13Z</time>
      </trkpt>
      <trkpt lat="36.458153268322349" lon="-5.119055919349194">
        <ele>86.656005859375</ele>
        <time>2011-01-03T19:26:20Z</time>
      </trkpt>
      <trkpt lat="36.459727389737964" lon="-5.117663517594338">
        <ele>90.98193359375</ele>
        <time>2011-01-03T19:26:26Z</time>
      </trkpt>
      <trkpt lat="36.461477531120181" lon="-5.116552161052823">
        <ele>92.4239501953125</ele>
        <time>2011-01-03T19:26:32Z</time>
      </trkpt>
      <trkpt lat="36.463378546759486" lon="-5.115759819746018">
        <ele>91.4625244140625</ele>
        <time>2011-01-03T19:26:38Z</time>
      </trkpt>
      <trkpt lat="36.466029155999422" lon="-5.115059176459909">
        <ele>89.5399169921875</ele>
        <time>2011-01-03T19:26:46Z</time>
      </trkpt>
      <trkpt lat="36.468633664771914" lon="-5.114321485161781">
        <ele>87.6171875</ele>
        <time>2011-01-03T19:26:54Z</time>
      </trkpt>
      <trkpt lat="36.470122626051307" lon="-5.113424956798554">
        <ele>86.656005859375</ele>
        <time>2011-01-03T19:26:59Z</time>
      </trkpt>
      <trkpt lat="36.471418216824532" lon="-5.112181920558214">
        <ele>88.5787353515625</ele>
        <time>2011-01-03T19:27:04Z</time>
      </trkpt>
      <trkpt lat="36.472474588081241" lon="-5.110716763883829">
        <ele>93.3851318359375</ele>
        <time>2011-01-03T19:27:09Z</time>
      </trkpt>
      <trkpt lat="36.473278244957328" lon="-5.109096458181739">
        <ele>99.6337890625</ele>
        <time>2011-01-03T19:27:14Z</time>
      </trkpt>
      <trkpt lat="36.47389255464077" lon="-5.107004335150123">
        <ele>108.7662353515625</ele>
        <time>2011-01-03T19:27:20Z</time>
      </trkpt>
      <trkpt lat="36.474126745015383" lon="-5.104838535189629">
        <ele>117.418212890625</ele>
        <time>2011-01-03T19:27:26Z</time>
      </trkpt>
      <trkpt lat="36.474061869084835" lon="-5.102683044970036">
        <ele>125.1087646484375</ele>
        <time>2011-01-03T19:27:32Z</time>
      </trkpt>
      <trkpt lat="36.473759869113564" lon="-5.099196927621961">
        <ele>140.0091552734375</ele>
        <time>2011-01-03T19:27:42Z</time>
      </trkpt>
      <trkpt lat="36.473832121118903" lon="-5.09711192920804">
        <ele>145.777099609375</ele>
        <time>2011-01-03T19:27:48Z</time>
      </trkpt>
      <trkpt lat="36.474240152165294" lon="-5.095040677115321">
        <ele>148.6610107421875</ele>
        <time>2011-01-03T19:27:54Z</time>
      </trkpt>
      <trkpt lat="36.474991757422686" lon="-5.093033127486706">
        <ele>149.1416015625</ele>
        <time>2011-01-03T19:28:00Z</time>
      </trkpt>
      <trkpt lat="36.476065143942833" lon="-5.091226575896144">
        <ele>148.180419921875</ele>
        <time>2011-01-03T19:28:06Z</time>
      </trkpt>
      <trkpt lat="36.477410271763802" lon="-5.08969696238637">
        <ele>143.3736572265625</ele>
        <time>2011-01-03T19:28:12Z</time>
      </trkpt>
      <trkpt lat="36.480155680328608" lon="-5.087065044790506">
        <ele>128.9541015625</ele>
        <time>2011-01-03T19:28:23Z</time>
      </trkpt>
      <trkpt lat="36.481757964938879" lon="-5.085158664733172">
        <ele>118.37939453125</ele>
        <time>2011-01-03T19:28:30Z</time>
      </trkpt>
      <trkpt lat="36.483155647292733" lon="-5.082995379343629">
        <ele>108.7662353515625</ele>
        <time>2011-01-03T19:28:37Z</time>
      </trkpt>
      <trkpt lat="36.484310338273644" lon="-5.080609638243914">
        <ele>99.6337890625</ele>
        <time>2011-01-03T19:28:44Z</time>
      </trkpt>
      <trkpt lat="36.485207034274936" lon="-5.078025665134192">
        <ele>91.4625244140625</ele>
        <time>2011-01-03T19:28:51Z</time>
      </trkpt>
      <trkpt lat="36.485812962055206" lon="-5.075331050902605">
        <ele>88.0980224609375</ele>
        <time>2011-01-03T19:28:58Z</time>
      </trkpt>
      <trkpt lat="36.486119739711285" lon="-5.072599640116096">
        <ele>89.5399169921875</ele>
        <time>2011-01-03T19:29:05Z</time>
      </trkpt>
      <trkpt lat="36.486110268160701" lon="-5.069458689540625">
        <ele>90.5013427734375</ele>
        <time>2011-01-03T19:29:13Z</time>
      </trkpt>
      <trkpt lat="36.48579359985888" lon="-5.06671336479485">
        <ele>92.4239501953125</ele>
        <time>2011-01-03T19:29:20Z</time>
      </trkpt>
      <trkpt lat="36.485212566331029" lon="-5.064095696434379">
        <ele>95.3077392578125</ele>
        <time>2011-01-03T19:29:27Z</time>
      </trkpt>
      <trkpt lat="36.483641378581524" lon="-5.057966010645032">
        <ele>103.47900390625</ele>
        <time>2011-01-03T19:29:44Z</time>
      </trkpt>
      <trkpt lat="36.483835335820913" lon="-5.055986372753978">
        <ele>107.3243408203125</ele>
        <time>2011-01-03T19:29:49Z</time>
      </trkpt>
      <trkpt lat="36.484022168442607" lon="-5.053693084046245">
        <ele>108.7662353515625</ele>
        <time>2011-01-03T19:29:55Z</time>
      </trkpt>
      <trkpt lat="36.484593478962779" lon="-5.051102489233017">
        <ele>112.611572265625</ele>
        <time>2011-01-03T19:30:02Z</time>
      </trkpt>
      <trkpt lat="36.485355393961072" lon="-5.049010450020433">
        <ele>114.0535888671875</ele>
        <time>2011-01-03T19:30:08Z</time>
      </trkpt>
      <trkpt lat="36.486339094117284" lon="-5.04711739718914">
        <ele>118.37939453125</ele>
        <time>2011-01-03T19:30:14Z</time>
      </trkpt>
      <trkpt lat="36.487717078998685" lon="-5.045191068202257">
        <ele>125.58935546875</ele>
        <time>2011-01-03T19:30:21Z</time>
      </trkpt>
      <trkpt lat="36.489513739943504" lon="-5.043276557698846">
        <ele>135.2025146484375</ele>
        <time>2011-01-03T19:30:29Z</time>
      </trkpt>
      <trkpt lat="36.491223480552435" lon="-5.041582239791751">
        <ele>143.8543701171875</ele>
        <time>2011-01-03T19:30:37Z</time>
      </trkpt>
      <trkpt lat="36.4930609613657" lon="-5.039514759555459">
        <ele>150.10302734375</ele>
        <time>2011-01-03T19:30:46Z</time>
      </trkpt>
      <trkpt lat="36.494394019246101" lon="-5.037548029795289">
        <ele>150.5836181640625</ele>
        <time>2011-01-03T19:30:53Z</time>
      </trkpt>
      <trkpt lat="36.49555005133152" lon="-5.035222051665187">
        <ele>146.7384033203125</ele>
        <time>2011-01-03T19:31:00Z</time>
      </trkpt>
      <trkpt lat="36.496448926627636" lon="-5.032721227034926">
        <ele>138.5672607421875</ele>
        <time>2011-01-03T19:31:07Z</time>
      </trkpt>
      <trkpt lat="36.497064828872681" lon="-5.030003730207682">
        <ele>125.58935546875</ele>
        <time>2011-01-03T19:31:14Z</time>
      </trkpt>
      <trkpt lat="36.497356435284019" lon="-5.027196044102311">
        <ele>112.611572265625</ele>
        <time>2011-01-03T19:31:21Z</time>
      </trkpt>
      <trkpt lat="36.497326092794538" lon="-5.024341251701117">
        <ele>101.556396484375</ele>
        <time>2011-01-03T19:31:28Z</time>
      </trkpt>
      <trkpt lat="36.497069271281362" lon="-5.020601330325007">
        <ele>85.694580078125</ele>
        <time>2011-01-03T19:31:37Z</time>
      </trkpt>
      <trkpt lat="36.497234143316746" lon="-5.018174685537815">
        <ele>76.0814208984375</ele>
        <time>2011-01-03T19:31:43Z</time>
      </trkpt>
      <trkpt lat="36.497707888484001" lon="-5.016182726249099">
        <ele>70.794189453125</ele>
        <time>2011-01-03T19:31:48Z</time>
      </trkpt>
      <trkpt lat="36.498263357207179" lon="-5.01444473862648">
        <ele>68.390869140625</ele>
        <time>2011-01-03T19:31:53Z</time>
      </trkpt>
      <trkpt lat="36.498843636363745" lon="-5.012355884537101">
        <ele>66.948974609375</ele>
        <time>2011-01-03T19:32:00Z</time>
      </trkpt>
      <trkpt lat="36.499227192252874" lon="-5.010392591357231">
        <ele>65.507080078125</ele>
        <time>2011-01-03T19:32:07Z</time>
      </trkpt>
      <trkpt lat="36.499304641038179" lon="-5.009440826252103">
        <ele>64.545654296875</ele>
        <time>2011-01-03T19:32:12Z</time>
      </trkpt>
      <trkpt lat="36.499326936900616" lon="-5.008904132992029">
        <ele>63.5843505859375</ele>
        <time>2011-01-03T19:32:17Z</time>
      </trkpt>
      <trkpt lat="36.499341353774071" lon="-5.008668517693877">
        <ele>62.142333984375</ele>
        <time>2011-01-03T19:32:24Z</time>
      </trkpt>
      <trkpt lat="36.499371863901615" lon="-5.008445894345641">
        <ele>56.37451171875</ele>
        <time>2011-01-03T19:33:03Z</time>
      </trkpt>
      <trkpt lat="36.499362140893936" lon="-5.007652882486582">
        <ele>58.7777099609375</ele>
        <time>2011-01-03T19:33:09Z</time>
      </trkpt>
      <trkpt lat="36.499458365142345" lon="-5.006198119372129">
        <ele>61.6617431640625</ele>
        <time>2011-01-03T19:33:16Z</time>
      </trkpt>
      <trkpt lat="36.499745277687907" lon="-5.004364075139165">
        <ele>64.545654296875</ele>
        <time>2011-01-03T19:33:23Z</time>
      </trkpt>
      <trkpt lat="36.500308457762003" lon="-5.002087382599711">
        <ele>66.948974609375</ele>
        <time>2011-01-03T19:33:31Z</time>
      </trkpt>
      <trkpt lat="36.501161651685834" lon="-4.999917894601822">
        <ele>68.87158203125</ele>
        <time>2011-01-03T19:33:39Z</time>
      </trkpt>
      <trkpt lat="36.502218609675765" lon="-4.998035151511431">
        <ele>69.8328857421875</ele>
        <time>2011-01-03T19:33:46Z</time>
      </trkpt>
      <trkpt lat="36.504439478740096" lon="-4.995200056582689">
        <ele>72.2362060546875</ele>
        <time>2011-01-03T19:33:57Z</time>
      </trkpt>
      <trkpt lat="36.505987280979753" lon="-4.993894156068564">
        <ele>72.2362060546875</ele>
        <time>2011-01-03T19:34:03Z</time>
      </trkpt>
      <trkpt lat="36.507946131750941" lon="-4.992690347135067">
        <ele>72.2362060546875</ele>
        <time>2011-01-03T19:34:10Z</time>
      </trkpt>
      <trkpt lat="36.510425331071019" lon="-4.991097953170538">
        <ele>75.1202392578125</ele>
        <time>2011-01-03T19:34:19Z</time>
      </trkpt>
      <trkpt lat="36.511927787214518" lon="-4.98969373293221">
        <ele>79.9266357421875</ele>
        <time>2011-01-03T19:34:25Z</time>
      </trkpt>
      <trkpt lat="36.513441894203424" lon="-4.98773236759007">
        <ele>88.0980224609375</ele>
        <time>2011-01-03T19:34:32Z</time>
      </trkpt>
      <trkpt lat="36.515457071363926" lon="-4.984956532716751">
        <ele>103.47900390625</ele>
        <time>2011-01-03T19:34:42Z</time>
      </trkpt>
      <trkpt lat="36.517049968242645" lon="-4.983388027176261">
        <ele>114.0535888671875</ele>
        <time>2011-01-03T19:34:49Z</time>
      </trkpt>
      <trkpt lat="36.519453730434179" lon="-4.98150285333395">
        <ele>128.9541015625</ele>
        <time>2011-01-03T19:34:59Z</time>
      </trkpt>
      <trkpt lat="36.521460525691509" lon="-4.979580799117684">
        <ele>139.0478515625</ele>
        <time>2011-01-03T19:35:08Z</time>
      </trkpt>
      <trkpt lat="36.522688558325171" lon="-4.978047497570515">
        <ele>142.4124755859375</ele>
        <time>2011-01-03T19:35:14Z</time>
      </trkpt>
      <trkpt lat="36.523981550708413" lon="-4.975974150002003">
        <ele>142.89306640625</ele>
        <time>2011-01-03T19:35:21Z</time>
      </trkpt>
      <trkpt lat="36.525058876723051" lon="-4.973656218498945">
        <ele>139.0478515625</ele>
        <time>2011-01-03T19:35:28Z</time>
      </trkpt>
      <trkpt lat="36.525860941037536" lon="-4.971208786591888">
        <ele>132.79931640625</ele>
        <time>2011-01-03T19:35:35Z</time>
      </trkpt>
      <trkpt lat="36.526264697313309" lon="-4.969054134562612">
        <ele>127.0313720703125</ele>
        <time>2011-01-03T19:35:41Z</time>
      </trkpt>
      <trkpt lat="36.52639277279377" lon="-4.966896381229162">
        <ele>121.2635498046875</ele>
        <time>2011-01-03T19:35:47Z</time>
      </trkpt>
      <trkpt lat="36.526208790019155" lon="-4.964649528264999">
        <ele>115.9761962890625</ele>
        <time>2011-01-03T19:35:53Z</time>
      </trkpt>
      <trkpt lat="36.525561707094312" lon="-4.960483554750681">
        <ele>109.7276611328125</ele>
        <time>2011-01-03T19:36:04Z</time>
      </trkpt>
      <trkpt lat="36.525654662400484" lon="-4.958090437576175">
        <ele>106.8436279296875</ele>
        <time>2011-01-03T19:36:10Z</time>
      </trkpt>
      <trkpt lat="36.526056826114655" lon="-4.954954432323575">
        <ele>103.47900390625</ele>
        <time>2011-01-03T19:36:18Z</time>
      </trkpt>
      <trkpt lat="36.526230750605464" lon="-4.952262248843908">
        <ele>103.959716796875</ele>
        <time>2011-01-03T19:36:25Z</time>
      </trkpt>
      <trkpt lat="36.526033775880933" lon="-4.949619267135859">
        <ele>109.7276611328125</ele>
        <time>2011-01-03T19:36:32Z</time>
      </trkpt>
      <trkpt lat="36.525579979643226" lon="-4.947439637035132">
        <ele>115.014892578125</ele>
        <time>2011-01-03T19:36:38Z</time>
      </trkpt>
      <trkpt lat="36.52483407407999" lon="-4.945342233404517">
        <ele>117.418212890625</ele>
        <time>2011-01-03T19:36:44Z</time>
      </trkpt>
      <trkpt lat="36.523834532126784" lon="-4.943326637148857">
        <ele>117.418212890625</ele>
        <time>2011-01-03T19:36:50Z</time>
      </trkpt>
      <trkpt lat="36.522575486451387" lon="-4.941487060859799">
        <ele>114.5341796875</ele>
        <time>2011-01-03T19:36:56Z</time>
      </trkpt>
      <trkpt lat="36.521099265664816" lon="-4.939916962757707">
        <ele>108.7662353515625</ele>
        <time>2011-01-03T19:37:02Z</time>
      </trkpt>
      <trkpt lat="36.519208224490285" lon="-4.938381649553776">
        <ele>98.19189453125</ele>
        <time>2011-01-03T19:37:09Z</time>
      </trkpt>
      <trkpt lat="36.516421493142843" lon="-4.936338979750872">
        <ele>81.3687744140625</ele>
        <time>2011-01-03T19:37:19Z</time>
      </trkpt>
      <trkpt lat="36.515218270942569" lon="-4.934993349015713">
        <ele>72.2362060546875</ele>
        <time>2011-01-03T19:37:24Z</time>
      </trkpt>
      <trkpt lat="36.514275893568993" lon="-4.933378659188747">
        <ele>65.0263671875</ele>
        <time>2011-01-03T19:37:29Z</time>
      </trkpt>
      <trkpt lat="36.513216169551015" lon="-4.931113785132766">
        <ele>62.142333984375</ele>
        <time>2011-01-03T19:37:36Z</time>
      </trkpt>
      <trkpt lat="36.512814592570066" lon="-4.92932022549212">
        <ele>60.7003173828125</ele>
        <time>2011-01-03T19:37:41Z</time>
      </trkpt>
      <trkpt lat="36.512775616720319" lon="-4.927410325035453">
        <ele>60.2197265625</ele>
        <time>2011-01-03T19:37:46Z</time>
      </trkpt>
      <trkpt lat="36.513054566457868" lon="-4.922764655202627">
        <ele>64.0650634765625</ele>
        <time>2011-01-03T19:37:58Z</time>
      </trkpt>
      <trkpt lat="36.513464357703924" lon="-4.919626386836171">
        <ele>67.4296875</ele>
        <time>2011-01-03T19:38:06Z</time>
      </trkpt>
      <trkpt lat="36.514438083395362" lon="-4.912980459630489">
        <ele>73.67822265625</ele>
        <time>2011-01-03T19:38:23Z</time>
      </trkpt>
      <trkpt lat="36.515016267076135" lon="-4.910768056288362">
        <ele>76.5621337890625</ele>
        <time>2011-01-03T19:38:29Z</time>
      </trkpt>
      <trkpt lat="36.516038188710809" lon="-4.907981660217047">
        <ele>73.1976318359375</ele>
        <time>2011-01-03T19:38:37Z</time>
      </trkpt>
      <trkpt lat="36.516399867832661" lon="-4.90620176307857">
        <ele>69.8328857421875</ele>
        <time>2011-01-03T19:38:42Z</time>
      </trkpt>
      <trkpt lat="36.51644378900528" lon="-4.904095642268658">
        <ele>70.3134765625</ele>
        <time>2011-01-03T19:38:48Z</time>
      </trkpt>
      <trkpt lat="36.516483267769217" lon="-4.900744389742613">
        <ele>75.600830078125</ele>
        <time>2011-01-03T19:38:58Z</time>
      </trkpt>
      <trkpt lat="36.516812089830637" lon="-4.898750251159072">
        <ele>78.9654541015625</ele>
        <time>2011-01-03T19:39:04Z</time>
      </trkpt>
      <trkpt lat="36.517531173303723" lon="-4.89645067602396">
        <ele>82.330078125</ele>
        <time>2011-01-03T19:39:11Z</time>
      </trkpt>
      <trkpt lat="36.518763229250908" lon="-4.892371287569404">
        <ele>78.4847412109375</ele>
        <time>2011-01-03T19:39:23Z</time>
      </trkpt>
      <trkpt lat="36.5190105792135" lon="-4.890477396547794">
        <ele>74.6395263671875</ele>
        <time>2011-01-03T19:39:28Z</time>
      </trkpt>
      <trkpt lat="36.51934233494103" lon="-4.887416576966643">
        <ele>76.0814208984375</ele>
        <time>2011-01-03T19:39:36Z</time>
      </trkpt>
      <trkpt lat="36.52001716196537" lon="-4.884236566722393">
        <ele>78.4847412109375</ele>
        <time>2011-01-03T19:39:45Z</time>
      </trkpt>
      <trkpt lat="36.52066458016634" lon="-4.880803087726235">
        <ele>80.88818359375</ele>
        <time>2011-01-03T19:39:55Z</time>
      </trkpt>
      <trkpt lat="36.520573385059834" lon="-4.879096699878573">
        <ele>80.407470703125</ele>
        <time>2011-01-03T19:40:00Z</time>
      </trkpt>
      <trkpt lat="36.520132496953011" lon="-4.87738729454577">
        <ele>78.9654541015625</ele>
        <time>2011-01-03T19:40:05Z</time>
      </trkpt>
      <trkpt lat="36.519699236378074" lon="-4.87526566721499">
        <ele>77.5234375</ele>
        <time>2011-01-03T19:40:11Z</time>
      </trkpt>
      <trkpt lat="36.519639892503619" lon="-4.873441178351641">
        <ele>77.0428466796875</ele>
        <time>2011-01-03T19:40:16Z</time>
      </trkpt>
      <trkpt lat="36.519866874441504" lon="-4.871594645082951">
        <ele>78.0040283203125</ele>
        <time>2011-01-03T19:40:21Z</time>
      </trkpt>
      <trkpt lat="36.520552262663841" lon="-4.868380017578602">
        <ele>82.330078125</ele>
        <time>2011-01-03T19:40:30Z</time>
      </trkpt>
      <trkpt lat="36.520872032269835" lon="-4.865810880437493">
        <ele>86.17529296875</ele>
        <time>2011-01-03T19:40:37Z</time>
      </trkpt>
      <trkpt lat="36.521262796595693" lon="-4.862117981538177">
        <ele>90.98193359375</ele>
        <time>2011-01-03T19:40:47Z</time>
      </trkpt>
      <trkpt lat="36.521813319995999" lon="-4.860085621476173">
        <ele>91.9432373046875</ele>
        <time>2011-01-03T19:40:53Z</time>
      </trkpt>
      <trkpt lat="36.522795176133513" lon="-4.85784656368196">
        <ele>91.9432373046875</ele>
        <time>2011-01-03T19:41:00Z</time>
      </trkpt>
      <trkpt lat="36.523940563201904" lon="-4.855274073779583">
        <ele>89.5399169921875</ele>
        <time>2011-01-03T19:41:08Z</time>
      </trkpt>
      <trkpt lat="36.524333674460649" lon="-4.853567518293858">
        <ele>88.5787353515625</ele>
        <time>2011-01-03T19:41:13Z</time>
      </trkpt>
      <trkpt lat="36.524428389966488" lon="-4.851788962259889">
        <ele>89.059326171875</ele>
        <time>2011-01-03T19:41:18Z</time>
      </trkpt>
      <trkpt lat="36.524224374443293" lon="-4.849992468953133">
        <ele>90.98193359375</ele>
        <time>2011-01-03T19:41:23Z</time>
      </trkpt>
      <trkpt lat="36.523727830499411" lon="-4.848294882103801">
        <ele>93.8658447265625</ele>
        <time>2011-01-03T19:41:28Z</time>
      </trkpt>
      <trkpt lat="36.522965831682086" lon="-4.846759233623743">
        <ele>98.19189453125</ele>
        <time>2011-01-03T19:41:33Z</time>
      </trkpt>
      <trkpt lat="36.521735368296504" lon="-4.845150662586093">
        <ele>102.998291015625</ele>
        <time>2011-01-03T19:41:39Z</time>
      </trkpt>
      <trkpt lat="36.52006016112864" lon="-4.84292384237051">
        <ele>105.4017333984375</ele>
        <time>2011-01-03T19:41:47Z</time>
      </trkpt>
      <trkpt lat="36.519286343827844" lon="-4.84128593467176">
        <ele>104.4404296875</ele>
        <time>2011-01-03T19:41:52Z</time>
      </trkpt>
      <trkpt lat="36.518819136545062" lon="-4.839545851573348">
        <ele>100.5950927734375</ele>
        <time>2011-01-03T19:41:57Z</time>
      </trkpt>
      <trkpt lat="36.518583185970783" lon="-4.83732364140451">
        <ele>93.8658447265625</ele>
        <time>2011-01-03T19:42:03Z</time>
      </trkpt>
      <trkpt lat="36.518598441034555" lon="-4.834604719653726">
        <ele>81.849365234375</ele>
        <time>2011-01-03T19:42:10Z</time>
      </trkpt>
      <trkpt lat="36.518577318638563" lon="-4.83151925727725">
        <ele>67.9102783203125</ele>
        <time>2011-01-03T19:42:18Z</time>
      </trkpt>
      <trkpt lat="36.51820482686162" lon="-4.829627126455307">
        <ele>62.6229248046875</ele>
        <time>2011-01-03T19:42:23Z</time>
      </trkpt>
      <trkpt lat="36.517501920461655" lon="-4.827870363369584">
        <ele>61.1810302734375</ele>
        <time>2011-01-03T19:42:28Z</time>
      </trkpt>
      <trkpt lat="36.516282018274069" lon="-4.825615296140313">
        <ele>65.507080078125</ele>
        <time>2011-01-03T19:42:35Z</time>
      </trkpt>
      <trkpt lat="36.515275854617357" lon="-4.823299795389175">
        <ele>71.7554931640625</ele>
        <time>2011-01-03T19:42:42Z</time>
      </trkpt>
      <trkpt lat="36.514866733923554" lon="-4.821505062282085">
        <ele>75.600830078125</ele>
        <time>2011-01-03T19:42:47Z</time>
      </trkpt>
      <trkpt lat="36.514769168570638" lon="-4.819635478779674">
        <ele>78.9654541015625</ele>
        <time>2011-01-03T19:42:52Z</time>
      </trkpt>
      <trkpt lat="36.514986343681812" lon="-4.817775283008814">
        <ele>83.2913818359375</ele>
        <time>2011-01-03T19:42:57Z</time>
      </trkpt>
      <trkpt lat="36.515644993633032" lon="-4.815270099788904">
        <ele>88.5787353515625</ele>
        <time>2011-01-03T19:43:04Z</time>
      </trkpt>
      <trkpt lat="36.516764732077718" lon="-4.811451053246856">
        <ele>97.23046875</ele>
        <time>2011-01-03T19:43:15Z</time>
      </trkpt>
      <trkpt lat="36.517233867198229" lon="-4.808624088764191">
        <ele>102.998291015625</ele>
        <time>2011-01-03T19:43:23Z</time>
      </trkpt>
      <trkpt lat="36.517308549955487" lon="-4.806091580539942">
        <ele>108.28564453125</ele>
        <time>2011-01-03T19:43:30Z</time>
      </trkpt>
      <trkpt lat="36.517060194164515" lon="-4.803546750918031">
        <ele>113.09228515625</ele>
        <time>2011-01-03T19:43:37Z</time>
      </trkpt>
      <trkpt lat="36.51648829691112" lon="-4.801051877439022">
        <ele>117.418212890625</ele>
        <time>2011-01-03T19:43:44Z</time>
      </trkpt>
      <trkpt lat="36.515443660318851" lon="-4.797881338745356">
        <ele>117.418212890625</ele>
        <time>2011-01-03T19:43:53Z</time>
      </trkpt>
      <trkpt lat="36.514996066689491" lon="-4.796017035841942">
        <ele>114.0535888671875</ele>
        <time>2011-01-03T19:43:58Z</time>
      </trkpt>
      <trkpt lat="36.514777047559619" lon="-4.793721819296479">
        <ele>108.28564453125</ele>
        <time>2011-01-03T19:44:04Z</time>
      </trkpt>
      <trkpt lat="36.514776544645429" lon="-4.791112197563052">
        <ele>101.556396484375</ele>
        <time>2011-01-03T19:44:11Z</time>
      </trkpt>
      <trkpt lat="36.514542270451784" lon="-4.788956120610237">
        <ele>96.269287109375</ele>
        <time>2011-01-03T19:44:17Z</time>
      </trkpt>
      <trkpt lat="36.514051174744964" lon="-4.787192232906818">
        <ele>91.9432373046875</ele>
        <time>2011-01-03T19:44:22Z</time>
      </trkpt>
      <trkpt lat="36.512969993054867" lon="-4.784382786601782">
        <ele>87.6171875</ele>
        <time>2011-01-03T19:44:30Z</time>
      </trkpt>
      <trkpt lat="36.512546958401799" lon="-4.782555364072323">
        <ele>86.656005859375</ele>
        <time>2011-01-03T19:44:35Z</time>
      </trkpt>
      <trkpt lat="36.512433048337698" lon="-4.780661556869745">
        <ele>84.7333984375</ele>
        <time>2011-01-03T19:44:40Z</time>
      </trkpt>
      <trkpt lat="36.512541761621833" lon="-4.777591098099947">
        <ele>82.330078125</ele>
        <time>2011-01-03T19:44:48Z</time>
      </trkpt>
      <trkpt lat="36.512417122721672" lon="-4.775706846266985">
        <ele>80.88818359375</ele>
        <time>2011-01-03T19:44:53Z</time>
      </trkpt>
      <trkpt lat="36.511970618739724" lon="-4.773891074582934">
        <ele>78.9654541015625</ele>
        <time>2011-01-03T19:44:58Z</time>
      </trkpt>
      <trkpt lat="36.510881474241614" lon="-4.771135440096259">
        <ele>77.5234375</ele>
        <time>2011-01-03T19:45:06Z</time>
      </trkpt>
      <trkpt lat="36.510278647765517" lon="-4.76900358684361">
        <ele>77.0428466796875</ele>
        <time>2011-01-03T19:45:12Z</time>
      </trkpt>
      <trkpt lat="36.5100481454283" lon="-4.766781628131867">
        <ele>78.0040283203125</ele>
        <time>2011-01-03T19:45:18Z</time>
      </trkpt>
      <trkpt lat="36.509779840707779" lon="-4.763770429417491">
        <ele>79.9266357421875</ele>
        <time>2011-01-03T19:45:26Z</time>
      </trkpt>
      <trkpt lat="36.509265778586268" lon="-4.76198885589838">
        <ele>81.849365234375</ele>
        <time>2011-01-03T19:45:31Z</time>
      </trkpt>
      <trkpt lat="36.508300434798002" lon="-4.760041236877441">
        <ele>85.2139892578125</ele>
        <time>2011-01-03T19:45:37Z</time>
      </trkpt>
      <trkpt lat="36.506757074967027" lon="-4.757149061188102">
        <ele>89.5399169921875</ele>
        <time>2011-01-03T19:45:46Z</time>
      </trkpt>
      <trkpt lat="36.506201690062881" lon="-4.755392549559474">
        <ele>91.4625244140625</ele>
        <time>2011-01-03T19:45:51Z</time>
      </trkpt>
      <trkpt lat="36.505957441404462" lon="-4.753544675186276">
        <ele>93.3851318359375</ele>
        <time>2011-01-03T19:45:56Z</time>
      </trkpt>
      <trkpt lat="36.505998345091939" lon="-4.751315675675869">
        <ele>95.7884521484375</ele>
        <time>2011-01-03T19:46:02Z</time>
      </trkpt>
      <trkpt lat="36.506179645657539" lon="-4.747277358546853">
        <ele>100.114501953125</ele>
        <time>2011-01-03T19:46:13Z</time>
      </trkpt>
      <trkpt lat="36.505939336493611" lon="-4.7446293476969">
        <ele>103.47900390625</ele>
        <time>2011-01-03T19:46:20Z</time>
      </trkpt>
      <trkpt lat="36.505434326827526" lon="-4.742378052324057">
        <ele>106.363037109375</ele>
        <time>2011-01-03T19:46:26Z</time>
      </trkpt>
      <trkpt lat="36.504296232014894" lon="-4.738732343539596">
        <ele>115.9761962890625</ele>
        <time>2011-01-03T19:46:36Z</time>
      </trkpt>
      <trkpt lat="36.503833131864667" lon="-4.736518347635865">
        <ele>122.7054443359375</ele>
        <time>2011-01-03T19:46:42Z</time>
      </trkpt>
      <trkpt lat="36.503779068589211" lon="-4.734699642285705">
        <ele>127.0313720703125</ele>
        <time>2011-01-03T19:46:47Z</time>
      </trkpt>
      <trkpt lat="36.504009570926428" lon="-4.732941454276443">
        <ele>131.837890625</ele>
        <time>2011-01-03T19:46:52Z</time>
      </trkpt>
      <trkpt lat="36.504641566425562" lon="-4.730967348441482">
        <ele>138.0865478515625</ele>
        <time>2011-01-03T19:46:58Z</time>
      </trkpt>
      <trkpt lat="36.507187485694885" lon="-4.724610932171345">
        <ele>156.8321533203125</ele>
        <time>2011-01-03T19:47:18Z</time>
      </trkpt>
      <trkpt lat="36.506624640896916" lon="-4.721989575773478">
        <ele>138.5672607421875</ele>
        <time>2011-01-03T19:47:24Z</time>
      </trkpt>
      <trkpt lat="36.50633605197072" lon="-4.720296347513795">
        <ele>133.760498046875</ele>
        <time>2011-01-03T19:47:29Z</time>
      </trkpt>
      <trkpt lat="36.506081661209464" lon="-4.719286663457751">
        <ele>130.876708984375</ele>
        <time>2011-01-03T19:47:33Z</time>
      </trkpt>
      <trkpt lat="36.505846381187439" lon="-4.718423243612051">
        <ele>127.511962890625</ele>
        <time>2011-01-03T19:47:38Z</time>
      </trkpt>
      <trkpt lat="36.505714785307646" lon="-4.717907169833779">
        <ele>125.1087646484375</ele>
        <time>2011-01-03T19:47:43Z</time>
      </trkpt>
      <trkpt lat="36.505696848034859" lon="-4.717759983614087">
        <ele>122.2247314453125</ele>
        <time>2011-01-03T19:47:49Z</time>
      </trkpt>
      <trkpt lat="36.505632558837533" lon="-4.71756954677403">
        <ele>115.49560546875</ele>
        <time>2011-01-03T19:48:11Z</time>
      </trkpt>
      <trkpt lat="36.50547556579113" lon="-4.716993039473891">
        <ele>117.418212890625</ele>
        <time>2011-01-03T19:48:16Z</time>
      </trkpt>
      <trkpt lat="36.505296779796481" lon="-4.715877324342728">
        <ele>116.9375</ele>
        <time>2011-01-03T19:48:22Z</time>
      </trkpt>
      <trkpt lat="36.50524539873004" lon="-4.714391464367509">
        <ele>113.572998046875</ele>
        <time>2011-01-03T19:48:28Z</time>
      </trkpt>
      <trkpt lat="36.505385544151068" lon="-4.712958661839366">
        <ele>109.7276611328125</ele>
        <time>2011-01-03T19:48:33Z</time>
      </trkpt>
      <trkpt lat="36.505869263783097" lon="-4.711073320358992">
        <ele>102.998291015625</ele>
        <time>2011-01-03T19:48:39Z</time>
      </trkpt>
      <trkpt lat="36.506599243730307" lon="-4.709472460672259">
        <ele>96.269287109375</ele>
        <time>2011-01-03T19:48:44Z</time>
      </trkpt>
      <trkpt lat="36.507610017433763" lon="-4.708065474405885">
        <ele>88.0980224609375</ele>
        <time>2011-01-03T19:48:49Z</time>
      </trkpt>
      <trkpt lat="36.508843498304486" lon="-4.706922685727477">
        <ele>79.446044921875</ele>
        <time>2011-01-03T19:48:54Z</time>
      </trkpt>
      <trkpt lat="36.511535095050931" lon="-4.704867443069816">
        <ele>62.6229248046875</ele>
        <time>2011-01-03T19:49:04Z</time>
      </trkpt>
      <trkpt lat="36.512771425768733" lon="-4.703561877831817">
        <ele>55.893798828125</ele>
        <time>2011-01-03T19:49:09Z</time>
      </trkpt>
      <trkpt lat="36.513806087896228" lon="-4.701979290693998">
        <ele>52.048583984375</ele>
        <time>2011-01-03T19:49:14Z</time>
      </trkpt>
      <trkpt lat="36.514594489708543" lon="-4.700159663334489">
        <ele>50.6065673828125</ele>
        <time>2011-01-03T19:49:19Z</time>
      </trkpt>
      <trkpt lat="36.515219947323203" lon="-4.697747519239783">
        <ele>48.6839599609375</ele>
        <time>2011-01-03T19:49:25Z</time>
      </trkpt>
      <trkpt lat="36.516121840104461" lon="-4.694030648097396">
        <ele>47.7225341796875</ele>
        <time>2011-01-03T19:49:34Z</time>
      </trkpt>
      <trkpt lat="36.517041586339474" lon="-4.69174699857831">
        <ele>49.645263671875</ele>
        <time>2011-01-03T19:49:40Z</time>
      </trkpt>
      <trkpt lat="36.518172388896346" lon="-4.689737018197775">
        <ele>53.009765625</ele>
        <time>2011-01-03T19:49:46Z</time>
      </trkpt>
      <trkpt lat="36.519526317715645" lon="-4.687962820753455">
        <ele>57.3358154296875</ele>
        <time>2011-01-03T19:49:52Z</time>
      </trkpt>
      <trkpt lat="36.521321889013052" lon="-4.686254756525159">
        <ele>62.142333984375</ele>
        <time>2011-01-03T19:49:59Z</time>
      </trkpt>
      <trkpt lat="36.523284763097763" lon="-4.684956483542919">
        <ele>67.4296875</ele>
        <time>2011-01-03T19:50:06Z</time>
      </trkpt>
      <trkpt lat="36.525093829259276" lon="-4.684170177206397">
        <ele>71.27490234375</ele>
        <time>2011-01-03T19:50:12Z</time>
      </trkpt>
      <trkpt lat="36.528430245816708" lon="-4.683139957487583">
        <ele>78.0040283203125</ele>
        <time>2011-01-03T19:50:23Z</time>
      </trkpt>
      <trkpt lat="36.533494843170047" lon="-4.681515879929066">
        <ele>89.059326171875</ele>
        <time>2011-01-03T19:50:40Z</time>
      </trkpt>
      <trkpt lat="36.535473894327879" lon="-4.680522289127111">
        <ele>90.98193359375</ele>
        <time>2011-01-03T19:50:47Z</time>
      </trkpt>
      <trkpt lat="36.53700334019959" lon="-4.679274559020996">
        <ele>89.5399169921875</ele>
        <time>2011-01-03T19:50:53Z</time>
      </trkpt>
      <trkpt lat="36.538097597658634" lon="-4.677941668778658">
        <ele>86.656005859375</ele>
        <time>2011-01-03T19:50:58Z</time>
      </trkpt>
      <trkpt lat="36.539169391617179" lon="-4.676048448309302">
        <ele>81.3687744140625</ele>
        <time>2011-01-03T19:51:04Z</time>
      </trkpt>
      <trkpt lat="36.539801387116313" lon="-4.674253882840276">
        <ele>75.600830078125</ele>
        <time>2011-01-03T19:51:09Z</time>
      </trkpt>
      <trkpt lat="36.540165664628148" lon="-4.67230936512351">
        <ele>66.46826171875</ele>
        <time>2011-01-03T19:51:14Z</time>
      </trkpt>
      <trkpt lat="36.540317460894585" lon="-4.669859334826469">
        <ele>54.932373046875</ele>
        <time>2011-01-03T19:51:20Z</time>
      </trkpt>
      <trkpt lat="36.540349060669541" lon="-4.666204741224647">
        <ele>38.590087890625</ele>
        <time>2011-01-03T19:51:29Z</time>
      </trkpt>
      <trkpt lat="36.540573444217443" lon="-4.663816653192043">
        <ele>29.9381103515625</ele>
        <time>2011-01-03T19:51:35Z</time>
      </trkpt>
      <trkpt lat="36.54105557128787" lon="-4.661931563168764">
        <ele>26.0928955078125</ele>
        <time>2011-01-03T19:51:40Z</time>
      </trkpt>
      <trkpt lat="36.541813043877482" lon="-4.660215955227613">
        <ele>25.6123046875</ele>
        <time>2011-01-03T19:51:45Z</time>
      </trkpt>
      <trkpt lat="36.542817782610655" lon="-4.658729592338204">
        <ele>26.5736083984375</ele>
        <time>2011-01-03T19:51:50Z</time>
      </trkpt>
      <trkpt lat="36.544038942083716" lon="-4.657503738999367">
        <ele>28.0155029296875</ele>
        <time>2011-01-03T19:51:55Z</time>
      </trkpt>
      <trkpt lat="36.545432517305017" lon="-4.656582735478878">
        <ele>28.9769287109375</ele>
        <time>2011-01-03T19:52:00Z</time>
      </trkpt>
      <trkpt lat="36.546960454434156" lon="-4.656008156016469">
        <ele>29.45751953125</ele>
        <time>2011-01-03T19:52:05Z</time>
      </trkpt>
      <trkpt lat="36.548574138432741" lon="-4.655783353373408">
        <ele>30.4188232421875</ele>
        <time>2011-01-03T19:52:10Z</time>
      </trkpt>
      <trkpt lat="36.551560778170824" lon="-4.655818725004792">
        <ele>33.3028564453125</ele>
        <time>2011-01-03T19:52:19Z</time>
      </trkpt>
      <trkpt lat="36.557137677446008" lon="-4.656016370281577">
        <ele>52.048583984375</ele>
        <time>2011-01-03T19:52:36Z</time>
      </trkpt>
      <trkpt lat="36.56081423163414" lon="-4.656058950349689">
        <ele>72.2362060546875</ele>
        <time>2011-01-03T19:52:48Z</time>
      </trkpt>
      <trkpt lat="36.562558086588979" lon="-4.655745131894946">
        <ele>82.330078125</ele>
        <time>2011-01-03T19:52:54Z</time>
      </trkpt>
      <trkpt lat="36.564177135005593" lon="-4.655016744509339">
        <ele>91.4625244140625</ele>
        <time>2011-01-03T19:53:00Z</time>
      </trkpt>
      <trkpt lat="36.56561647541821" lon="-4.653910836204886">
        <ele>99.6337890625</ele>
        <time>2011-01-03T19:53:06Z</time>
      </trkpt>
      <trkpt lat="36.566855488345027" lon="-4.652458839118481">
        <ele>104.9210205078125</ele>
        <time>2011-01-03T19:53:12Z</time>
      </trkpt>
      <trkpt lat="36.567858885973692" lon="-4.650670392438769">
        <ele>107.8050537109375</ele>
        <time>2011-01-03T19:53:18Z</time>
      </trkpt>
      <trkpt lat="36.568576795980334" lon="-4.648588746786118">
        <ele>108.28564453125</ele>
        <time>2011-01-03T19:53:24Z</time>
      </trkpt>
      <trkpt lat="36.568876532837749" lon="-4.6467125415802">
        <ele>105.8824462890625</ele>
        <time>2011-01-03T19:53:29Z</time>
      </trkpt>
      <trkpt lat="36.568890530616045" lon="-4.644778249785304">
        <ele>99.6337890625</ele>
        <time>2011-01-03T19:53:34Z</time>
      </trkpt>
      <trkpt lat="36.568608647212386" lon="-4.642831217497587">
        <ele>92.904541015625</ele>
        <time>2011-01-03T19:53:39Z</time>
      </trkpt>
      <trkpt lat="36.56804546713829" lon="-4.640972446650267">
        <ele>86.656005859375</ele>
        <time>2011-01-03T19:53:44Z</time>
      </trkpt>
      <trkpt lat="36.566964788362384" lon="-4.638505484908819">
        <ele>78.0040283203125</ele>
        <time>2011-01-03T19:53:51Z</time>
      </trkpt>
      <trkpt lat="36.566016627475619" lon="-4.636084958910942">
        <ele>70.3134765625</ele>
        <time>2011-01-03T19:53:58Z</time>
      </trkpt>
      <trkpt lat="36.565646566450596" lon="-4.634201545268297">
        <ele>64.545654296875</ele>
        <time>2011-01-03T19:54:03Z</time>
      </trkpt>
      <trkpt lat="36.565644638612866" lon="-4.632186871021986">
        <ele>57.8165283203125</ele>
        <time>2011-01-03T19:54:08Z</time>
      </trkpt>
      <trkpt lat="36.565983854234219" lon="-4.630199270322919">
        <ele>52.5291748046875</ele>
        <time>2011-01-03T19:54:13Z</time>
      </trkpt>
      <trkpt lat="36.5665028616786" lon="-4.628756158053875">
        <ele>50.1259765625</ele>
        <time>2011-01-03T19:54:17Z</time>
      </trkpt>
      <trkpt lat="36.56741607002914" lon="-4.627129817381501">
        <ele>49.645263671875</ele>
        <time>2011-01-03T19:54:22Z</time>
      </trkpt>
      <trkpt lat="36.568553829565644" lon="-4.625781672075391">
        <ele>53.009765625</ele>
        <time>2011-01-03T19:54:27Z</time>
      </trkpt>
      <trkpt lat="36.570577975362539" lon="-4.623990040272474">
        <ele>64.545654296875</ele>
        <time>2011-01-03T19:54:35Z</time>
      </trkpt>
      <trkpt lat="36.573026161640882" lon="-4.621847458183765">
        <ele>81.3687744140625</ele>
        <time>2011-01-03T19:54:45Z</time>
      </trkpt>
      <trkpt lat="36.574249248951674" lon="-4.620299488306046">
        <ele>90.98193359375</ele>
        <time>2011-01-03T19:54:51Z</time>
      </trkpt>
      <trkpt lat="36.575235379859805" lon="-4.61855529807508">
        <ele>100.5950927734375</ele>
        <time>2011-01-03T19:54:57Z</time>
      </trkpt>
      <trkpt lat="36.576072061434388" lon="-4.616337446495891">
        <ele>111.6502685546875</ele>
        <time>2011-01-03T19:55:04Z</time>
      </trkpt>
      <trkpt lat="36.577374190092087" lon="-4.612545976415277">
        <ele>129.4346923828125</ele>
        <time>2011-01-03T19:55:16Z</time>
      </trkpt>
      <trkpt lat="36.578561319038272" lon="-4.610268697142601">
        <ele>141.4510498046875</ele>
        <time>2011-01-03T19:55:24Z</time>
      </trkpt>
      <trkpt lat="36.580023542046547" lon="-4.60826282389462">
        <ele>153.4676513671875</ele>
        <time>2011-01-03T19:55:32Z</time>
      </trkpt>
      <trkpt lat="36.582756377756596" lon="-4.605025816708803">
        <ele>174.1358642578125</ele>
        <time>2011-01-03T19:55:46Z</time>
      </trkpt>
      <trkpt lat="36.584775242954493" lon="-4.602430192753673">
        <ele>190.4783935546875</ele>
        <time>2011-01-03T19:55:57Z</time>
      </trkpt>
      <trkpt lat="36.585775790736079" lon="-4.60052146576345">
        <ele>200.572265625</ele>
        <time>2011-01-03T19:56:04Z</time>
      </trkpt>
      <trkpt lat="36.586496131494641" lon="-4.598441580310464">
        <ele>210.666015625</ele>
        <time>2011-01-03T19:56:11Z</time>
      </trkpt>
      <trkpt lat="36.586972391232848" lon="-4.595918878912926">
        <ele>221.72119140625</ele>
        <time>2011-01-03T19:56:19Z</time>
      </trkpt>
      <trkpt lat="36.587249329313636" lon="-4.592673657462001">
        <ele>236.1409912109375</ele>
        <time>2011-01-03T19:56:29Z</time>
      </trkpt>
      <trkpt lat="36.58765853382647" lon="-4.589082263410091">
        <ele>251.5220947265625</ele>
        <time>2011-01-03T19:56:40Z</time>
      </trkpt>
      <trkpt lat="36.588226240128279" lon="-4.58688092418015">
        <ele>262.0965576171875</ele>
        <time>2011-01-03T19:56:47Z</time>
      </trkpt>
      <trkpt lat="36.589170042425394" lon="-4.584517562761903">
        <ele>273.6324462890625</ele>
        <time>2011-01-03T19:56:55Z</time>
      </trkpt>
      <trkpt lat="36.590407965704799" lon="-4.582365592941642">
        <ele>285.168212890625</ele>
        <time>2011-01-03T19:57:03Z</time>
      </trkpt>
      <trkpt lat="36.591887790709734" lon="-4.580459464341402">
        <ele>297.1846923828125</ele>
        <time>2011-01-03T19:57:11Z</time>
      </trkpt>
      <trkpt lat="36.593930292874575" lon="-4.578303471207619">
        <ele>309.201171875</ele>
        <time>2011-01-03T19:57:21Z</time>
      </trkpt>
      <trkpt lat="36.596592469140887" lon="-4.575780434533954">
        <ele>314.9691162109375</ele>
        <time>2011-01-03T19:57:33Z</time>
      </trkpt>
      <trkpt lat="36.599561339244246" lon="-4.57300778478384">
        <ele>309.201171875</ele>
        <time>2011-01-03T19:57:46Z</time>
      </trkpt>
      <trkpt lat="36.601138897240162" lon="-4.571517398580909">
        <ele>300.0687255859375</ele>
        <time>2011-01-03T19:57:54Z</time>
      </trkpt>
      <trkpt lat="36.602474469691515" lon="-4.570279726758599">
        <ele>291.8974609375</ele>
        <time>2011-01-03T19:58:00Z</time>
      </trkpt>
      <trkpt lat="36.603510724380612" lon="-4.568966198712587">
        <ele>284.2069091796875</ele>
        <time>2011-01-03T19:58:05Z</time>
      </trkpt>
      <trkpt lat="36.604273142293096" lon="-4.567401632666588">
        <ele>276.9970703125</ele>
        <time>2011-01-03T19:58:10Z</time>
      </trkpt>
      <trkpt lat="36.604739343747497" lon="-4.565588878467679">
        <ele>270.2677001953125</ele>
        <time>2011-01-03T19:58:15Z</time>
      </trkpt>
      <trkpt lat="36.604885943233967" lon="-4.56366372294724">
        <ele>265.4613037109375</ele>
        <time>2011-01-03T19:58:20Z</time>
      </trkpt>
      <trkpt lat="36.605109237134457" lon="-4.561081677675247">
        <ele>262.5771484375</ele>
        <time>2011-01-03T19:58:27Z</time>
      </trkpt>
      <trkpt lat="36.605604272335768" lon="-4.559412924572825">
        <ele>260.1739501953125</ele>
        <time>2011-01-03T19:58:32Z</time>
      </trkpt>
      <trkpt lat="36.606437182053924" lon="-4.556790729984641">
        <ele>256.809326171875</ele>
        <time>2011-01-03T19:58:40Z</time>
      </trkpt>
      <trkpt lat="36.606609765440226" lon="-4.55496565438807">
        <ele>254.406005859375</ele>
        <time>2011-01-03T19:58:45Z</time>
      </trkpt>
      <trkpt lat="36.606411868706346" lon="-4.553137393668294">
        <ele>252.4833984375</ele>
        <time>2011-01-03T19:58:50Z</time>
      </trkpt>
      <trkpt lat="36.605800995603204" lon="-4.550313027575612">
        <ele>247.6767578125</ele>
        <time>2011-01-03T19:58:58Z</time>
      </trkpt>
      <trkpt lat="36.605688845738769" lon="-4.54821327701211">
        <ele>241.908935546875</ele>
        <time>2011-01-03T19:59:04Z</time>
      </trkpt>
      <trkpt lat="36.605959162116051" lon="-4.546096092090011">
        <ele>233.257080078125</ele>
        <time>2011-01-03T19:59:10Z</time>
      </trkpt>
      <trkpt lat="36.606611860916018" lon="-4.544077478349209">
        <ele>224.12451171875</ele>
        <time>2011-01-03T19:59:16Z</time>
      </trkpt>
      <trkpt lat="36.607829751446843" lon="-4.541513286530972">
        <ele>211.146728515625</ele>
        <time>2011-01-03T19:59:24Z</time>
      </trkpt>
      <trkpt lat="36.609575785696507" lon="-4.537626095116139">
        <ele>192.401123046875</ele>
        <time>2011-01-03T19:59:36Z</time>
      </trkpt>
      <trkpt lat="36.610182886943221" lon="-4.535490218549967">
        <ele>183.2684326171875</ele>
        <time>2011-01-03T19:59:42Z</time>
      </trkpt>
      <trkpt lat="36.610482037067413" lon="-4.533211095258594">
        <ele>175.577880859375</ele>
        <time>2011-01-03T19:59:48Z</time>
      </trkpt>
      <trkpt lat="36.610841872170568" lon="-4.531008582562208">
        <ele>168.3680419921875</ele>
        <time>2011-01-03T19:59:54Z</time>
      </trkpt>
      <trkpt lat="36.611495325341821" lon="-4.529409734532237">
        <ele>163.080810546875</ele>
        <time>2011-01-03T19:59:59Z</time>
      </trkpt>
      <trkpt lat="36.612460585311055" lon="-4.528018087148666">
        <ele>157.3128662109375</ele>
        <time>2011-01-03T20:00:04Z</time>
      </trkpt>
      <trkpt lat="36.613730359822512" lon="-4.526171218603849">
        <ele>150.5836181640625</ele>
        <time>2011-01-03T20:00:11Z</time>
      </trkpt>
      <trkpt lat="36.614300832152367" lon="-4.524633893743157">
        <ele>145.29638671875</ele>
        <time>2011-01-03T20:00:16Z</time>
      </trkpt>
      <trkpt lat="36.61483702249825" lon="-4.522455856204033">
        <ele>140.970458984375</ele>
        <time>2011-01-03T20:00:23Z</time>
      </trkpt>
      <trkpt lat="36.615424929186702" lon="-4.520993046462536">
        <ele>139.5284423828125</ele>
        <time>2011-01-03T20:00:28Z</time>
      </trkpt>
      <trkpt lat="36.616265550255775" lon="-4.519770378246903">
        <ele>140.0091552734375</ele>
        <time>2011-01-03T20:00:33Z</time>
      </trkpt>
      <trkpt lat="36.617283783853054" lon="-4.518853649497032">
        <ele>141.4510498046875</ele>
        <time>2011-01-03T20:00:38Z</time>
      </trkpt>
      <trkpt lat="36.618503518402576" lon="-4.518240345641971">
        <ele>141.9317626953125</ele>
        <time>2011-01-03T20:00:43Z</time>
      </trkpt>
      <trkpt lat="36.620141845196486" lon="-4.517862573266029">
        <ele>141.4510498046875</ele>
        <time>2011-01-03T20:00:49Z</time>
      </trkpt>
      <trkpt lat="36.622576117515564" lon="-4.517240719869733">
        <ele>135.68310546875</ele>
        <time>2011-01-03T20:00:58Z</time>
      </trkpt>
      <trkpt lat="36.624631527811289" lon="-4.516297588124871">
        <ele>127.0313720703125</ele>
        <time>2011-01-03T20:01:06Z</time>
      </trkpt>
      <trkpt lat="36.626745779067278" lon="-4.514963440597057">
        <ele>116.456787109375</ele>
        <time>2011-01-03T20:01:15Z</time>
      </trkpt>
      <trkpt lat="36.62878735922277" lon="-4.513680338859558">
        <ele>106.363037109375</ele>
        <time>2011-01-03T20:01:23Z</time>
      </trkpt>
      <trkpt lat="36.631307294592261" lon="-4.512346694245935">
        <ele>95.7884521484375</ele>
        <time>2011-01-03T20:01:32Z</time>
      </trkpt>
      <trkpt lat="36.635710140690207" lon="-4.510122975334525">
        <ele>87.6171875</ele>
        <time>2011-01-03T20:01:48Z</time>
      </trkpt>
      <trkpt lat="36.639014454558492" lon="-4.508462268859148">
        <ele>83.2913818359375</ele>
        <time>2011-01-03T20:02:00Z</time>
      </trkpt>
      <trkpt lat="36.640869285911322" lon="-4.50727597810328">
        <ele>76.0814208984375</ele>
        <time>2011-01-03T20:02:07Z</time>
      </trkpt>
      <trkpt lat="36.642027162015438" lon="-4.506063619628549">
        <ele>69.352294921875</ele>
        <time>2011-01-03T20:02:12Z</time>
      </trkpt>
      <trkpt lat="36.642703246325254" lon="-4.504845729097724">
        <ele>64.0650634765625</ele>
        <time>2011-01-03T20:02:16Z</time>
      </trkpt>
      <trkpt lat="36.643219571560621" lon="-4.503080919384956">
        <ele>56.37451171875</ele>
        <time>2011-01-03T20:02:21Z</time>
      </trkpt>
      <trkpt lat="36.643325099721551" lon="-4.501246623694897">
        <ele>49.16455078125</ele>
        <time>2011-01-03T20:02:26Z</time>
      </trkpt>
      <trkpt lat="36.643054531887174" lon="-4.499446274712682">
        <ele>42.4354248046875</ele>
        <time>2011-01-03T20:02:31Z</time>
      </trkpt>
      <trkpt lat="36.642734343186021" lon="-4.496969422325492">
        <ele>37.1480712890625</ele>
        <time>2011-01-03T20:02:38Z</time>
      </trkpt>
      <trkpt lat="36.64290189743042" lon="-4.495536955073476">
        <ele>35.2254638671875</ele>
        <time>2011-01-03T20:02:42Z</time>
      </trkpt>
      <trkpt lat="36.643496174365282" lon="-4.49382453225553">
        <ele>32.822265625</ele>
        <time>2011-01-03T20:02:47Z</time>
      </trkpt>
      <trkpt lat="36.644238224253058" lon="-4.492646874859929">
        <ele>30.8995361328125</ele>
        <time>2011-01-03T20:02:51Z</time>
      </trkpt>
      <trkpt lat="36.645415378734469" lon="-4.491566196084023">
        <ele>30.4188232421875</ele>
        <time>2011-01-03T20:02:56Z</time>
      </trkpt>
      <trkpt lat="36.647295020520687" lon="-4.490194078534842">
        <ele>31.380126953125</ele>
        <time>2011-01-03T20:03:04Z</time>
      </trkpt>
      <trkpt lat="36.648039584979415" lon="-4.489260585978627">
        <ele>31.380126953125</ele>
        <time>2011-01-03T20:03:08Z</time>
      </trkpt>
      <trkpt lat="36.648574685677886" lon="-4.48807773180306">
        <ele>30.4188232421875</ele>
        <time>2011-01-03T20:03:12Z</time>
      </trkpt>
      <trkpt lat="36.648829746991396" lon="-4.486763449385762">
        <ele>27.534912109375</ele>
        <time>2011-01-03T20:03:16Z</time>
      </trkpt>
      <trkpt lat="36.649020183831453" lon="-4.484040420502424">
        <ele>21.286376953125</ele>
        <time>2011-01-03T20:03:24Z</time>
      </trkpt>
      <trkpt lat="36.64941044524312" lon="-4.48243897408247">
        <ele>17.441162109375</ele>
        <time>2011-01-03T20:03:29Z</time>
      </trkpt>
      <trkpt lat="36.650198344141245" lon="-4.481085129082203">
        <ele>15.5184326171875</ele>
        <time>2011-01-03T20:03:34Z</time>
      </trkpt>
      <trkpt lat="36.651307940483093" lon="-4.4800422526896">
        <ele>14.5570068359375</ele>
        <time>2011-01-03T20:03:39Z</time>
      </trkpt>
      <trkpt lat="36.653811447322369" lon="-4.477973934262991">
        <ele>14.5570068359375</ele>
        <time>2011-01-03T20:03:50Z</time>
      </trkpt>
      <trkpt lat="36.655950592830777" lon="-4.476193869486451">
        <ele>10.7117919921875</ele>
        <time>2011-01-03T20:04:00Z</time>
      </trkpt>
      <trkpt lat="36.658682925626636" lon="-4.473910890519619">
        <ele>11.1925048828125</ele>
        <time>2011-01-03T20:04:13Z</time>
      </trkpt>
      <trkpt lat="36.661631846800447" lon="-4.471458345651627">
        <ele>11.6732177734375</ele>
        <time>2011-01-03T20:04:27Z</time>
      </trkpt>
      <trkpt lat="36.663854727521539" lon="-4.469598820433021">
        <ele>12.15380859375</ele>
        <time>2011-01-03T20:04:38Z</time>
      </trkpt>
      <trkpt lat="36.666179951280355" lon="-4.467713143676519">
        <ele>13.1151123046875</ele>
        <time>2011-01-03T20:04:50Z</time>
      </trkpt>
      <trkpt lat="36.667245123535395" lon="-4.467192040756345">
        <ele>13.5958251953125</ele>
        <time>2011-01-03T20:04:55Z</time>
      </trkpt>
      <trkpt lat="36.668538451194763" lon="-4.466950474306941">
        <ele>15.5184326171875</ele>
        <time>2011-01-03T20:05:01Z</time>
      </trkpt>
      <trkpt lat="36.67019622400403" lon="-4.466961957514286">
        <ele>16.96044921875</ele>
        <time>2011-01-03T20:05:09Z</time>
      </trkpt>
      <trkpt lat="36.671473542228341" lon="-4.466654760763049">
        <ele>16.479736328125</ele>
        <time>2011-01-03T20:05:15Z</time>
      </trkpt>
      <trkpt lat="36.672674417495728" lon="-4.465937772765756">
        <ele>17.441162109375</ele>
        <time>2011-01-03T20:05:21Z</time>
      </trkpt>
      <trkpt lat="36.674246694892645" lon="-4.464661041274667">
        <ele>17.441162109375</ele>
        <time>2011-01-03T20:05:29Z</time>
      </trkpt>
      <trkpt lat="36.675835736095905" lon="-4.463775577023625">
        <ele>16.96044921875</ele>
        <time>2011-01-03T20:05:36Z</time>
      </trkpt>
      <trkpt lat="36.677580177783966" lon="-4.463287582620978">
        <ele>16.96044921875</ele>
        <time>2011-01-03T20:05:43Z</time>
      </trkpt>
      <trkpt lat="36.68035576120019" lon="-4.462947361171246">
        <ele>16.479736328125</ele>
        <time>2011-01-03T20:05:54Z</time>
      </trkpt>
      <trkpt lat="36.683643897995353" lon="-4.462534384801984">
        <ele>12.6343994140625</ele>
        <time>2011-01-03T20:06:07Z</time>
      </trkpt>
      <trkpt lat="36.685944981873035" lon="-4.462144626304507">
        <ele>13.1151123046875</ele>
        <time>2011-01-03T20:06:16Z</time>
      </trkpt>
      <trkpt lat="36.687827222049236" lon="-4.462012778967619">
        <ele>15.0377197265625</ele>
        <time>2011-01-03T20:06:23Z</time>
      </trkpt>
      <trkpt lat="36.689579039812088" lon="-4.46181052364409">
        <ele>16.479736328125</ele>
        <time>2011-01-03T20:06:30Z</time>
      </trkpt>
      <trkpt lat="36.691124495118856" lon="-4.461414981633425">
        <ele>17.9217529296875</ele>
        <time>2011-01-03T20:06:37Z</time>
      </trkpt>
      <trkpt lat="36.692878156900406" lon="-4.460736298933625">
        <ele>18.883056640625</ele>
        <time>2011-01-03T20:06:45Z</time>
      </trkpt>
      <trkpt lat="36.695252498611808" lon="-4.459629217162728">
        <ele>21.7669677734375</ele>
        <time>2011-01-03T20:06:55Z</time>
      </trkpt>
      <trkpt lat="36.698203347623348" lon="-4.458461869508028">
        <ele>27.0543212890625</ele>
        <time>2011-01-03T20:07:07Z</time>
      </trkpt>
      <trkpt lat="36.700533097609878" lon="-4.457893827930093">
        <ele>28.9769287109375</ele>
        <time>2011-01-03T20:07:16Z</time>
      </trkpt>
      <trkpt lat="36.703468188643456" lon="-4.457614542916417">
        <ele>27.534912109375</ele>
        <time>2011-01-03T20:07:27Z</time>
      </trkpt>
      <trkpt lat="36.707030246034265" lon="-4.457671623677015">
        <ele>26.5736083984375</ele>
        <time>2011-01-03T20:07:40Z</time>
      </trkpt>
      <trkpt lat="36.710332045331597" lon="-4.457795089110732">
        <ele>29.45751953125</ele>
        <time>2011-01-03T20:07:52Z</time>
      </trkpt>
      <trkpt lat="36.713424799963832" lon="-4.457882596179843">
        <ele>34.744873046875</ele>
        <time>2011-01-03T20:08:03Z</time>
      </trkpt>
      <trkpt lat="36.714559374377131" lon="-4.457901371642947">
        <ele>36.66748046875</ele>
        <time>2011-01-03T20:08:08Z</time>
      </trkpt>
      <trkpt lat="36.71651135198772" lon="-4.457961218431592">
        <ele>40.0321044921875</ele>
        <time>2011-01-03T20:08:16Z</time>
      </trkpt>
      <trkpt lat="36.718538263812661" lon="-4.457768434658647">
        <ele>43.8773193359375</ele>
        <time>2011-01-03T20:08:24Z</time>
      </trkpt>
      <trkpt lat="36.720016244798899" lon="-4.457136020064354">
        <ele>47.2418212890625</ele>
        <time>2011-01-03T20:08:30Z</time>
      </trkpt>
      <trkpt lat="36.722876653075218" lon="-4.455515630543232">
        <ele>53.490478515625</ele>
        <time>2011-01-03T20:08:42Z</time>
      </trkpt>
      <trkpt lat="36.724272826686502" lon="-4.454687079414725">
        <ele>59.7391357421875</ele>
        <time>2011-01-03T20:08:49Z</time>
      </trkpt>
      <trkpt lat="36.725525166839361" lon="-4.453885098919272">
        <ele>67.4296875</ele>
        <time>2011-01-03T20:08:56Z</time>
      </trkpt>
      <trkpt lat="36.726601822301745" lon="-4.453520486131311">
        <ele>74.1588134765625</ele>
        <time>2011-01-03T20:09:01Z</time>
      </trkpt>
      <trkpt lat="36.72775617800653" lon="-4.453589050099254">
        <ele>81.3687744140625</ele>
        <time>2011-01-03T20:09:06Z</time>
      </trkpt>
      <trkpt lat="36.729590641334653" lon="-4.454110320657492">
        <ele>93.3851318359375</ele>
        <time>2011-01-03T20:09:14Z</time>
      </trkpt>
      <trkpt lat="36.731007937341928" lon="-4.454167233780026">
        <ele>101.556396484375</ele>
        <time>2011-01-03T20:09:20Z</time>
      </trkpt>
      <trkpt lat="36.732917837798595" lon="-4.453864563256502">
        <ele>113.572998046875</ele>
        <time>2011-01-03T20:09:28Z</time>
      </trkpt>
      <trkpt lat="36.73464048653841" lon="-4.453736068680883">
        <ele>121.2635498046875</ele>
        <time>2011-01-03T20:09:35Z</time>
      </trkpt>
      <trkpt lat="36.736041437834501" lon="-4.454046785831451">
        <ele>122.2247314453125</ele>
        <time>2011-01-03T20:09:41Z</time>
      </trkpt>
      <trkpt lat="36.737266620621085" lon="-4.454004876315594">
        <ele>122.7054443359375</ele>
        <time>2011-01-03T20:09:46Z</time>
      </trkpt>
      <trkpt lat="36.738006323575974" lon="-4.453717879951">
        <ele>123.1861572265625</ele>
        <time>2011-01-03T20:09:49Z</time>
      </trkpt>
      <trkpt lat="36.739078788086772" lon="-4.452772652730346">
        <ele>124.1473388671875</ele>
        <time>2011-01-03T20:09:54Z</time>
      </trkpt>
      <trkpt lat="36.739698881283402" lon="-4.451705384999514">
        <ele>125.1087646484375</ele>
        <time>2011-01-03T20:09:58Z</time>
      </trkpt>
      <trkpt lat="36.739813545718789" lon="-4.451411850750446">
        <ele>125.1087646484375</ele>
        <time>2011-01-03T20:09:59Z</time>
      </trkpt>
      <trkpt lat="36.740510249510407" lon="-4.448884036391974">
        <ele>126.5506591796875</ele>
        <time>2011-01-03T20:10:07Z</time>
      </trkpt>
      <trkpt lat="36.741249449551105" lon="-4.446657551452518">
        <ele>127.511962890625</ele>
        <time>2011-01-03T20:10:14Z</time>
      </trkpt>
      <trkpt lat="36.7420993745327" lon="-4.445251822471619">
        <ele>127.511962890625</ele>
        <time>2011-01-03T20:10:19Z</time>
      </trkpt>
      <trkpt lat="36.743426648899913" lon="-4.443882722407579">
        <ele>127.511962890625</ele>
        <time>2011-01-03T20:10:25Z</time>
      </trkpt>
      <trkpt lat="36.745548946782947" lon="-4.441808117553592">
        <ele>125.58935546875</ele>
        <time>2011-01-03T20:10:34Z</time>
      </trkpt>
      <trkpt lat="36.746266856789589" lon="-4.440803043544292">
        <ele>120.7828369140625</ele>
        <time>2011-01-03T20:10:38Z</time>
      </trkpt>
      <trkpt lat="36.746742026880383" lon="-4.439557157456875">
        <ele>115.49560546875</ele>
        <time>2011-01-03T20:10:42Z</time>
      </trkpt>
      <trkpt lat="36.746993316337466" lon="-4.437792599201202">
        <ele>111.6502685546875</ele>
        <time>2011-01-03T20:10:47Z</time>
      </trkpt>
      <trkpt lat="36.747413752600551" lon="-4.435745738446713">
        <ele>106.363037109375</ele>
        <time>2011-01-03T20:10:53Z</time>
      </trkpt>
      <trkpt lat="36.748054465278983" lon="-4.434235151857138">
        <ele>101.07568359375</ele>
        <time>2011-01-03T20:10:58Z</time>
      </trkpt>
      <trkpt lat="36.748924758285284" lon="-4.432976357638836">
        <ele>92.904541015625</ele>
        <time>2011-01-03T20:11:03Z</time>
      </trkpt>
      <trkpt lat="36.749993953853846" lon="-4.431972792372108">
        <ele>84.252685546875</ele>
        <time>2011-01-03T20:11:08Z</time>
      </trkpt>
      <trkpt lat="36.751320641487837" lon="-4.431121777743101">
        <ele>73.67822265625</ele>
        <time>2011-01-03T20:11:14Z</time>
      </trkpt>
      <trkpt lat="36.75326113589108" lon="-4.42997538484633">
        <ele>60.7003173828125</ele>
        <time>2011-01-03T20:11:24Z</time>
      </trkpt>
      <trkpt lat="36.753962198272347" lon="-4.429085897281766">
        <ele>55.893798828125</ele>
        <time>2011-01-03T20:11:29Z</time>
      </trkpt>
      <trkpt lat="36.754068145528436" lon="-4.428854892030358">
        <ele>54.932373046875</ele>
        <time>2011-01-03T20:11:30Z</time>
      </trkpt>
      <trkpt lat="36.754789156839252" lon="-4.427210027351975">
        <ele>48.203369140625</ele>
        <time>2011-01-03T20:11:37Z</time>
      </trkpt>
      <trkpt lat="36.755451075732708" lon="-4.426538133993745">
        <ele>45.3192138671875</ele>
        <time>2011-01-03T20:11:41Z</time>
      </trkpt>
      <trkpt lat="36.756765274330974" lon="-4.426281983032823">
        <ele>46.2806396484375</ele>
        <time>2011-01-03T20:11:47Z</time>
      </trkpt>
      <trkpt lat="36.758355991914868" lon="-4.42633118480444">
        <ele>54.4517822265625</ele>
        <time>2011-01-03T20:11:54Z</time>
      </trkpt>
      <trkpt lat="36.759504983201623" lon="-4.425880070775747">
        <ele>59.7391357421875</ele>
        <time>2011-01-03T20:11:59Z</time>
      </trkpt>
      <trkpt lat="36.760777188464999" lon="-4.424936436116695">
        <ele>66.46826171875</ele>
        <time>2011-01-03T20:12:05Z</time>
      </trkpt>
      <trkpt lat="36.761934394016862" lon="-4.424243671819568">
        <ele>72.7169189453125</ele>
        <time>2011-01-03T20:12:10Z</time>
      </trkpt>
      <trkpt lat="36.763263093307614" lon="-4.423921555280685">
        <ele>78.9654541015625</ele>
        <time>2011-01-03T20:12:15Z</time>
      </trkpt>
      <trkpt lat="36.765979584306479" lon="-4.423589464277029">
        <ele>92.4239501953125</ele>
        <time>2011-01-03T20:12:25Z</time>
      </trkpt>
      <trkpt lat="36.767214657738805" lon="-4.423882830888033">
        <ele>98.6724853515625</ele>
        <time>2011-01-03T20:12:30Z</time>
      </trkpt>
      <trkpt lat="36.768657183274627" lon="-4.424685398116708">
        <ele>106.363037109375</ele>
        <time>2011-01-03T20:12:36Z</time>
      </trkpt>
      <trkpt lat="36.770419562235475" lon="-4.425428370013833">
        <ele>116.456787109375</ele>
        <time>2011-01-03T20:12:43Z</time>
      </trkpt>
      <trkpt lat="36.7720259539783" lon="-4.425536161288619">
        <ele>125.1087646484375</ele>
        <time>2011-01-03T20:12:49Z</time>
      </trkpt>
      <trkpt lat="36.775630423799157" lon="-4.425527276471257">
        <ele>138.0865478515625</ele>
        <time>2011-01-03T20:13:02Z</time>
      </trkpt>
      <trkpt lat="36.776382364332676" lon="-4.425551081076264">
        <ele>138.5672607421875</ele>
        <time>2011-01-03T20:13:05Z</time>
      </trkpt>
      <trkpt lat="36.777497828006744" lon="-4.426099425181747">
        <ele>138.5672607421875</ele>
        <time>2011-01-03T20:13:10Z</time>
      </trkpt>
      <trkpt lat="36.77929381839931" lon="-4.427529880777001">
        <ele>136.6446533203125</ele>
        <time>2011-01-03T20:13:18Z</time>
      </trkpt>
      <trkpt lat="36.780550852417946" lon="-4.428136730566621">
        <ele>136.6446533203125</ele>
        <time>2011-01-03T20:13:23Z</time>
      </trkpt>
      <trkpt lat="36.781371524557471" lon="-4.428833518177271">
        <ele>136.6446533203125</ele>
        <time>2011-01-03T20:13:27Z</time>
      </trkpt>
      <trkpt lat="36.782023217529058" lon="-4.430098095908761">
        <ele>135.68310546875</ele>
        <time>2011-01-03T20:13:32Z</time>
      </trkpt>
      <trkpt lat="36.782868364825845" lon="-4.432421224191785">
        <ele>134.721923828125</ele>
        <time>2011-01-03T20:13:41Z</time>
      </trkpt>
      <trkpt lat="36.783618126064539" lon="-4.433311047032476">
        <ele>135.68310546875</ele>
        <time>2011-01-03T20:13:46Z</time>
      </trkpt>
      <trkpt lat="36.784463860094547" lon="-4.433690328150988">
        <ele>135.68310546875</ele>
        <time>2011-01-03T20:13:50Z</time>
      </trkpt>
      <trkpt lat="36.785393245518208" lon="-4.433643892407417">
        <ele>135.68310546875</ele>
        <time>2011-01-03T20:13:54Z</time>
      </trkpt>
      <trkpt lat="36.787804635241628" lon="-4.432803019881249">
        <ele>138.0865478515625</ele>
        <time>2011-01-03T20:14:04Z</time>
      </trkpt>
      <trkpt lat="36.788311069831252" lon="-4.432662958279252">
        <ele>139.5284423828125</ele>
        <time>2011-01-03T20:14:06Z</time>
      </trkpt>
      <trkpt lat="36.789598278701305" lon="-4.432782148942351">
        <ele>143.3736572265625</ele>
        <time>2011-01-03T20:14:11Z</time>
      </trkpt>
      <trkpt lat="36.791360070928931" lon="-4.43343291990459">
        <ele>149.1416015625</ele>
        <time>2011-01-03T20:14:18Z</time>
      </trkpt>
      <trkpt lat="36.792654655873775" lon="-4.433435937389731">
        <ele>153.4676513671875</ele>
        <time>2011-01-03T20:14:23Z</time>
      </trkpt>
      <trkpt lat="36.795009970664978" lon="-4.433267964050174">
        <ele>161.638916015625</ele>
        <time>2011-01-03T20:14:32Z</time>
      </trkpt>
      <trkpt lat="36.795969698578119" lon="-4.433664930984378">
        <ele>165.00341796875</ele>
        <time>2011-01-03T20:14:36Z</time>
      </trkpt>
      <trkpt lat="36.797130843624473" lon="-4.434263231232762">
        <ele>168.3680419921875</ele>
        <time>2011-01-03T20:14:41Z</time>
      </trkpt>
      <trkpt lat="36.798426769673824" lon="-4.434265494346619">
        <ele>173.1746826171875</ele>
        <time>2011-01-03T20:14:46Z</time>
      </trkpt>
      <trkpt lat="36.800616625696421" lon="-4.434096263721585">
        <ele>180.384521484375</ele>
        <time>2011-01-03T20:14:54Z</time>
      </trkpt>
      <trkpt lat="36.801949683576822" lon="-4.434639578685165">
        <ele>184.7105712890625</ele>
        <time>2011-01-03T20:14:59Z</time>
      </trkpt>
      <trkpt lat="36.804797686636448" lon="-4.436951391398907">
        <ele>194.8043212890625</ele>
        <time>2011-01-03T20:15:11Z</time>
      </trkpt>
      <trkpt lat="36.806289497762918" lon="-4.437934840098023">
        <ele>198.6495361328125</ele>
        <time>2011-01-03T20:15:17Z</time>
      </trkpt>
      <trkpt lat="36.807368751615286" lon="-4.438182692974806">
        <ele>200.572265625</ele>
        <time>2011-01-03T20:15:21Z</time>
      </trkpt>
      <trkpt lat="36.809068853035569" lon="-4.438099460676312">
        <ele>203.4561767578125</ele>
        <time>2011-01-03T20:15:27Z</time>
      </trkpt>
      <trkpt lat="36.81016294285655" lon="-4.438261399045587">
        <ele>205.3787841796875</ele>
        <time>2011-01-03T20:15:31Z</time>
      </trkpt>
      <trkpt lat="36.810901053249836" lon="-4.438601955771446">
        <ele>206.8206787109375</ele>
        <time>2011-01-03T20:15:34Z</time>
      </trkpt>
      <trkpt lat="36.811928590759635" lon="-4.439585069194436">
        <ele>208.743408203125</ele>
        <time>2011-01-03T20:15:39Z</time>
      </trkpt>
      <trkpt lat="36.812486490234733" lon="-4.440626353025436">
        <ele>210.1854248046875</ele>
        <time>2011-01-03T20:15:43Z</time>
      </trkpt>
      <trkpt lat="36.812835093587637" lon="-4.442110452800989">
        <ele>212.1080322265625</ele>
        <time>2011-01-03T20:15:48Z</time>
      </trkpt>
      <trkpt lat="36.812909441068769" lon="-4.444377170875669">
        <ele>214.991943359375</ele>
        <time>2011-01-03T20:15:55Z</time>
      </trkpt>
      <trkpt lat="36.813210099935532" lon="-4.445989346131682">
        <ele>217.3953857421875</ele>
        <time>2011-01-03T20:16:00Z</time>
      </trkpt>
      <trkpt lat="36.813792390748858" lon="-4.447128865867853">
        <ele>220.7598876953125</ele>
        <time>2011-01-03T20:16:04Z</time>
      </trkpt>
      <trkpt lat="36.814636951312423" lon="-4.447983484715223">
        <ele>224.605224609375</ele>
        <time>2011-01-03T20:16:08Z</time>
      </trkpt>
      <trkpt lat="36.815870767459273" lon="-4.448416577652097">
        <ele>230.373046875</ele>
        <time>2011-01-03T20:16:13Z</time>
      </trkpt>
      <trkpt lat="36.816835775971413" lon="-4.448233935981989">
        <ele>234.6990966796875</ele>
        <time>2011-01-03T20:16:17Z</time>
      </trkpt>
      <trkpt lat="36.817696681246161" lon="-4.447675030678511">
        <ele>239.02490234375</ele>
        <time>2011-01-03T20:16:21Z</time>
      </trkpt>
      <trkpt lat="36.817891979590058" lon="-4.447483252733946">
        <ele>239.9862060546875</ele>
        <time>2011-01-03T20:16:22Z</time>
      </trkpt>
      <trkpt lat="36.819478590041399" lon="-4.445868227630854">
        <ele>247.6767578125</ele>
        <time>2011-01-03T20:16:30Z</time>
      </trkpt>
      <trkpt lat="36.820709221065044" lon="-4.445253917947412">
        <ele>253.4447021484375</ele>
        <time>2011-01-03T20:16:35Z</time>
      </trkpt>
      <trkpt lat="36.823704326525331" lon="-4.444274827837944">
        <ele>265.4613037109375</ele>
        <time>2011-01-03T20:16:46Z</time>
      </trkpt>
      <trkpt lat="36.82541498914361" lon="-4.443999566137791">
        <ele>270.7484130859375</ele>
        <time>2011-01-03T20:16:52Z</time>
      </trkpt>
      <trkpt lat="36.826833877712488" lon="-4.444282371550798">
        <ele>274.59375</ele>
        <time>2011-01-03T20:16:57Z</time>
      </trkpt>
      <trkpt lat="36.828153943642974" lon="-4.445024840533733">
        <ele>278.43896484375</ele>
        <time>2011-01-03T20:17:02Z</time>
      </trkpt>
      <trkpt lat="36.829520696774125" lon="-4.446284724399447">
        <ele>281.322998046875</ele>
        <time>2011-01-03T20:17:08Z</time>
      </trkpt>
      <trkpt lat="36.830728193745017" lon="-4.44722156971693">
        <ele>285.168212890625</ele>
        <time>2011-01-03T20:17:13Z</time>
      </trkpt>
      <trkpt lat="36.832840517163277" lon="-4.448326220735908">
        <ele>292.8587646484375</ele>
        <time>2011-01-03T20:17:21Z</time>
      </trkpt>
      <trkpt lat="36.833983557298779" lon="-4.449405474588275">
        <ele>298.1461181640625</ele>
        <time>2011-01-03T20:17:26Z</time>
      </trkpt>
      <trkpt lat="36.835445864126086" lon="-4.450955791398883">
        <ele>304.875244140625</ele>
        <time>2011-01-03T20:17:33Z</time>
      </trkpt>
      <trkpt lat="36.836686385795474" lon="-4.451623577624559">
        <ele>309.681884765625</ele>
        <time>2011-01-03T20:17:38Z</time>
      </trkpt>
      <trkpt lat="36.837737895548344" lon="-4.451794987544417">
        <ele>313.5272216796875</ele>
        <time>2011-01-03T20:17:42Z</time>
      </trkpt>
      <trkpt lat="36.83898713439703" lon="-4.451610753312707">
        <ele>317.3724365234375</ele>
        <time>2011-01-03T20:17:47Z</time>
      </trkpt>
      <trkpt lat="36.840365035459399" lon="-4.451024774461985">
        <ele>321.2177734375</ele>
        <time>2011-01-03T20:17:53Z</time>
      </trkpt>
      <trkpt lat="36.842045439407229" lon="-4.450371321290731">
        <ele>325.06298828125</ele>
        <time>2011-01-03T20:18:00Z</time>
      </trkpt>
      <trkpt lat="36.843117568641901" lon="-4.450317174196243">
        <ele>326.5048828125</ele>
        <time>2011-01-03T20:18:04Z</time>
      </trkpt>
      <trkpt lat="36.844460936263204" lon="-4.450635770335794">
        <ele>328.4276123046875</ele>
        <time>2011-01-03T20:18:09Z</time>
      </trkpt>
      <trkpt lat="36.84702848084271" lon="-4.451313698664308">
        <ele>332.7535400390625</ele>
        <time>2011-01-03T20:18:19Z</time>
      </trkpt>
      <trkpt lat="36.848725229501724" lon="-4.451510757207871">
        <ele>335.6373291015625</ele>
        <time>2011-01-03T20:18:26Z</time>
      </trkpt>
      <trkpt lat="36.849695770069957" lon="-4.451188473030925">
        <ele>337.56005859375</ele>
        <time>2011-01-03T20:18:30Z</time>
      </trkpt>
      <trkpt lat="36.850550640374422" lon="-4.450444998219609">
        <ele>339.96337890625</ele>
        <time>2011-01-03T20:18:34Z</time>
      </trkpt>
      <trkpt lat="36.851260671392083" lon="-4.449102384969592">
        <ele>342.36669921875</ele>
        <time>2011-01-03T20:18:39Z</time>
      </trkpt>
      <trkpt lat="36.852873768657446" lon="-4.445534627884626">
        <ele>351.0184326171875</ele>
        <time>2011-01-03T20:18:52Z</time>
      </trkpt>
      <trkpt lat="36.853760993108153" lon="-4.444366274401546">
        <ele>354.86376953125</ele>
        <time>2011-01-03T20:18:57Z</time>
      </trkpt>
      <trkpt lat="36.854861956089735" lon="-4.443425070494413">
        <ele>359.189697265625</ele>
        <time>2011-01-03T20:19:02Z</time>
      </trkpt>
      <trkpt lat="36.855892259627581" lon="-4.443016955628991">
        <ele>363.0350341796875</ele>
        <time>2011-01-03T20:19:06Z</time>
      </trkpt>
      <trkpt lat="36.85751692391932" lon="-4.44281755015254">
        <ele>368.802978515625</ele>
        <time>2011-01-03T20:19:12Z</time>
      </trkpt>
      <trkpt lat="36.858275150880218" lon="-4.442547652870417">
        <ele>371.6868896484375</ele>
        <time>2011-01-03T20:19:15Z</time>
      </trkpt>
      <trkpt lat="36.859302436932921" lon="-4.441629750654101">
        <ele>376.4935302734375</ele>
        <time>2011-01-03T20:19:20Z</time>
      </trkpt>
      <trkpt lat="36.859611226245761" lon="-4.441134547814727">
        <ele>378.8968505859375</ele>
        <time>2011-01-03T20:19:22Z</time>
      </trkpt>
      <trkpt lat="36.861287271603942" lon="-4.437813134863973">
        <ele>390.9132080078125</ele>
        <time>2011-01-03T20:19:34Z</time>
      </trkpt>
      <trkpt lat="36.862294692546129" lon="-4.436677470803261">
        <ele>395.7198486328125</ele>
        <time>2011-01-03T20:19:39Z</time>
      </trkpt>
      <trkpt lat="36.863898569718003" lon="-4.435338713228703">
        <ele>402.9296875</ele>
        <time>2011-01-03T20:19:46Z</time>
      </trkpt>
      <trkpt lat="36.865718029439449" lon="-4.435852440074086">
        <ele>408.217041015625</ele>
        <time>2011-01-03T20:19:53Z</time>
      </trkpt>
      <trkpt lat="36.868579862639308" lon="-4.436062574386597">
        <ele>418.310791015625</ele>
        <time>2011-01-03T20:20:04Z</time>
      </trkpt>
      <trkpt lat="36.870029596611857" lon="-4.436188722029328">
        <ele>422.156005859375</ele>
        <time>2011-01-03T20:20:10Z</time>
      </trkpt>
      <trkpt lat="36.871130727231503" lon="-4.435966350138187">
        <ele>424.5594482421875</ele>
        <time>2011-01-03T20:20:15Z</time>
      </trkpt>
      <trkpt lat="36.873092763125896" lon="-4.435416497290134">
        <ele>429.8465576171875</ele>
        <time>2011-01-03T20:20:24Z</time>
      </trkpt>
      <trkpt lat="36.874085934832692" lon="-4.433296294882894">
        <ele>430.3272705078125</ele>
        <time>2011-01-03T20:20:30Z</time>
      </trkpt>
      <trkpt lat="36.875453777611256" lon="-4.431725861504674">
        <ele>436.575927734375</ele>
        <time>2011-01-03T20:20:37Z</time>
      </trkpt>
      <trkpt lat="36.876777866855264" lon="-4.430532278493047">
        <ele>443.3050537109375</ele>
        <time>2011-01-03T20:20:43Z</time>
      </trkpt>
      <trkpt lat="36.877990057691932" lon="-4.429263342171907">
        <ele>449.5537109375</ele>
        <time>2011-01-03T20:20:49Z</time>
      </trkpt>
      <trkpt lat="36.878733029589057" lon="-4.427892146632075">
        <ele>454.8408203125</ele>
        <time>2011-01-03T20:20:54Z</time>
      </trkpt>
      <trkpt lat="36.880222745239735" lon="-4.425076581537724">
        <ele>465.8961181640625</ele>
        <time>2011-01-03T20:21:04Z</time>
      </trkpt>
      <trkpt lat="36.88104978762567" lon="-4.424185417592526">
        <ele>468.780029296875</ele>
        <time>2011-01-03T20:21:08Z</time>
      </trkpt>
      <trkpt lat="36.882293242961168" lon="-4.423433728516102">
        <ele>470.221923828125</ele>
        <time>2011-01-03T20:21:13Z</time>
      </trkpt>
      <trkpt lat="36.884560296311975" lon="-4.42256829701364">
        <ele>472.6253662109375</ele>
        <time>2011-01-03T20:21:21Z</time>
      </trkpt>
      <trkpt lat="36.888012969866395" lon="-4.421325344592333">
        <ele>477.431884765625</ele>
        <time>2011-01-03T20:21:33Z</time>
      </trkpt>
      <trkpt lat="36.889683566987514" lon="-4.421033570542932">
        <ele>479.3544921875</ele>
        <time>2011-01-03T20:21:39Z</time>
      </trkpt>
      <trkpt lat="36.891117375344038" lon="-4.421191485598683">
        <ele>481.2772216796875</ele>
        <time>2011-01-03T20:21:44Z</time>
      </trkpt>
      <trkpt lat="36.892529642209411" lon="-4.421748463064432">
        <ele>483.1998291015625</ele>
        <time>2011-01-03T20:21:49Z</time>
      </trkpt>
      <trkpt lat="36.894922675564885" lon="-4.423085628077388">
        <ele>490.4097900390625</ele>
        <time>2011-01-03T20:21:58Z</time>
      </trkpt>
      <trkpt lat="36.895594066008925" lon="-4.423703541979194">
        <ele>493.7742919921875</ele>
        <time>2011-01-03T20:22:01Z</time>
      </trkpt>
      <trkpt lat="36.896406356245279" lon="-4.425076078623533">
        <ele>499.542236328125</ele>
        <time>2011-01-03T20:22:06Z</time>
      </trkpt>
      <trkpt lat="36.896727299317718" lon="-4.42632531747222">
        <ele>503.387451171875</ele>
        <time>2011-01-03T20:22:10Z</time>
      </trkpt>
      <trkpt lat="36.896780356764793" lon="-4.426975836977363">
        <ele>505.3101806640625</ele>
        <time>2011-01-03T20:22:12Z</time>
      </trkpt>
      <trkpt lat="36.896752025932074" lon="-4.430293394252658">
        <ele>516.365234375</ele>
        <time>2011-01-03T20:22:22Z</time>
      </trkpt>
      <trkpt lat="36.897004572674632" lon="-4.432196924462915">
        <ele>525.0172119140625</ele>
        <time>2011-01-03T20:22:28Z</time>
      </trkpt>
      <trkpt lat="36.897574122995138" lon="-4.434335986152291">
        <ele>533.1883544921875</ele>
        <time>2011-01-03T20:22:35Z</time>
      </trkpt>
      <trkpt lat="36.898416671901941" lon="-4.435637025162578">
        <ele>534.63037109375</ele>
        <time>2011-01-03T20:22:40Z</time>
      </trkpt>
      <trkpt lat="36.900313664227724" lon="-4.437682293355465">
        <ele>525.9783935546875</ele>
        <time>2011-01-03T20:22:49Z</time>
      </trkpt>
      <trkpt lat="36.901975125074387" lon="-4.439729070290923">
        <ele>513.9620361328125</ele>
        <time>2011-01-03T20:22:57Z</time>
      </trkpt>
      <trkpt lat="36.903600879013538" lon="-4.442421840503812">
        <ele>506.271484375</ele>
        <time>2011-01-03T20:23:06Z</time>
      </trkpt>
      <trkpt lat="36.905021360144019" lon="-4.444695431739092">
        <ele>503.8681640625</ele>
        <time>2011-01-03T20:23:14Z</time>
      </trkpt>
      <trkpt lat="36.905929623171687" lon="-4.445538818836212">
        <ele>503.387451171875</ele>
        <time>2011-01-03T20:23:18Z</time>
      </trkpt>
      <trkpt lat="36.90701306797564" lon="-4.446022287011147">
        <ele>502.4261474609375</ele>
        <time>2011-01-03T20:23:22Z</time>
      </trkpt>
      <trkpt lat="36.908136997371912" lon="-4.446108369156718">
        <ele>500.984130859375</ele>
        <time>2011-01-03T20:23:26Z</time>
      </trkpt>
      <trkpt lat="36.90918942913413" lon="-4.445815673097968">
        <ele>500.5035400390625</ele>
        <time>2011-01-03T20:23:30Z</time>
      </trkpt>
      <trkpt lat="36.910340767353773" lon="-4.445060295984149">
        <ele>500.5035400390625</ele>
        <time>2011-01-03T20:23:35Z</time>
      </trkpt>
      <trkpt lat="36.91239139996469" lon="-4.443587847054005">
        <ele>503.8681640625</ele>
        <time>2011-01-03T20:23:44Z</time>
      </trkpt>
      <trkpt lat="36.913636531680822" lon="-4.443265227600932">
        <ele>506.271484375</ele>
        <time>2011-01-03T20:23:49Z</time>
      </trkpt>
      <trkpt lat="36.914866240695119" lon="-4.443424819037318">
        <ele>507.7135009765625</ele>
        <time>2011-01-03T20:23:54Z</time>
      </trkpt>
      <trkpt lat="36.916022021323442" lon="-4.444056898355484">
        <ele>510.11669921875</ele>
        <time>2011-01-03T20:23:59Z</time>
      </trkpt>
      <trkpt lat="36.91790753044188" lon="-4.445442678406835">
        <ele>512.0394287109375</ele>
        <time>2011-01-03T20:24:07Z</time>
      </trkpt>
      <trkpt lat="36.919675944373012" lon="-4.446384720504284">
        <ele>516.365234375</ele>
        <time>2011-01-03T20:24:14Z</time>
      </trkpt>
      <trkpt lat="36.921755997464061" lon="-4.447043286636472">
        <ele>524.0557861328125</ele>
        <time>2011-01-03T20:24:22Z</time>
      </trkpt>
      <trkpt lat="36.923966556787491" lon="-4.447276135906577">
        <ele>532.22705078125</ele>
        <time>2011-01-03T20:24:30Z</time>
      </trkpt>
      <trkpt lat="36.925941752269864" lon="-4.447101792320609">
        <ele>539.4368896484375</ele>
        <time>2011-01-03T20:24:37Z</time>
      </trkpt>
      <trkpt lat="36.929666250944138" lon="-4.446333926171064">
        <ele>547.608154296875</ele>
        <time>2011-01-03T20:24:50Z</time>
      </trkpt>
      <trkpt lat="36.931790225207806" lon="-4.445774769410491">
        <ele>550.011474609375</ele>
        <time>2011-01-03T20:24:58Z</time>
      </trkpt>
      <trkpt lat="36.932999482378364" lon="-4.44514243863523">
        <ele>553.856689453125</ele>
        <time>2011-01-03T20:25:03Z</time>
      </trkpt>
      <trkpt lat="36.933992234990001" lon="-4.444125462323427">
        <ele>560.105224609375</ele>
        <time>2011-01-03T20:25:08Z</time>
      </trkpt>
      <trkpt lat="36.934728417545557" lon="-4.442824674770236">
        <ele>567.315185546875</ele>
        <time>2011-01-03T20:25:13Z</time>
      </trkpt>
      <trkpt lat="36.935856621712446" lon="-4.440742945298553">
        <ele>578.370361328125</ele>
        <time>2011-01-03T20:25:21Z</time>
      </trkpt>
      <trkpt lat="36.936834789812565" lon="-4.439770895987749">
        <ele>583.657470703125</ele>
        <time>2011-01-03T20:25:26Z</time>
      </trkpt>
      <trkpt lat="36.938027534633875" lon="-4.439163794741035">
        <ele>587.502685546875</ele>
        <time>2011-01-03T20:25:31Z</time>
      </trkpt>
      <trkpt lat="36.939324047416449" lon="-4.439019123092294">
        <ele>592.3095703125</ele>
        <time>2011-01-03T20:25:36Z</time>
      </trkpt>
      <trkpt lat="36.941349282860756" lon="-4.439345598220825">
        <ele>602.403076171875</ele>
        <time>2011-01-03T20:25:44Z</time>
      </trkpt>
      <trkpt lat="36.944095026701689" lon="-4.439971894025803">
        <ele>617.7841796875</ele>
        <time>2011-01-03T20:25:55Z</time>
      </trkpt>
      <trkpt lat="36.946748737245798" lon="-4.440360898151994">
        <ele>632.2041015625</ele>
        <time>2011-01-03T20:26:05Z</time>
      </trkpt>
      <trkpt lat="36.948921494185925" lon="-4.440465085208416">
        <ele>644.701171875</ele>
        <time>2011-01-03T20:26:13Z</time>
      </trkpt>
      <trkpt lat="36.949940482154489" lon="-4.440795332193375">
        <ele>650.94970703125</ele>
        <time>2011-01-03T20:26:17Z</time>
      </trkpt>
      <trkpt lat="36.951062735170126" lon="-4.441628241911531">
        <ele>659.601806640625</ele>
        <time>2011-01-03T20:26:22Z</time>
      </trkpt>
      <trkpt lat="36.951981391757727" lon="-4.442770360037684">
        <ele>669.215087890625</ele>
        <time>2011-01-03T20:26:27Z</time>
      </trkpt>
      <trkpt lat="36.95378752425313" lon="-4.445029031485319">
        <ele>688.922119140625</ele>
        <time>2011-01-03T20:26:37Z</time>
      </trkpt>
      <trkpt lat="36.955076744779944" lon="-4.446022035554051">
        <ele>701.419189453125</ele>
        <time>2011-01-03T20:26:43Z</time>
      </trkpt>
      <trkpt lat="36.956495633348823" lon="-4.446632154285908">
        <ele>713.916015625</ele>
        <time>2011-01-03T20:26:49Z</time>
      </trkpt>
      <trkpt lat="36.957978727295995" lon="-4.446857795119286">
        <ele>725.9326171875</ele>
        <time>2011-01-03T20:26:55Z</time>
      </trkpt>
      <trkpt lat="36.959700118750334" lon="-4.446660149842501">
        <ele>739.39111328125</ele>
        <time>2011-01-03T20:27:02Z</time>
      </trkpt>
      <trkpt lat="36.961597027257085" lon="-4.445992782711983">
        <ele>753.330322265625</ele>
        <time>2011-01-03T20:27:10Z</time>
      </trkpt>
      <trkpt lat="36.963344821706414" lon="-4.444952253252268">
        <ele>766.788818359375</ele>
        <time>2011-01-03T20:27:18Z</time>
      </trkpt>
      <trkpt lat="36.965816058218479" lon="-4.443045370280743">
        <ele>787.45703125</ele>
        <time>2011-01-03T20:27:30Z</time>
      </trkpt>
      <trkpt lat="36.967040067538619" lon="-4.441724717617035">
        <ele>799.954345703125</ele>
        <time>2011-01-03T20:27:37Z</time>
      </trkpt>
      <trkpt lat="36.968360217288136" lon="-4.439662434160709">
        <ele>811.970703125</ele>
        <time>2011-01-03T20:27:46Z</time>
      </trkpt>
      <trkpt lat="36.969895865768194" lon="-4.437232855707407">
        <ele>813.412841796875</ele>
        <time>2011-01-03T20:27:56Z</time>
      </trkpt>
      <trkpt lat="36.971469484269619" lon="-4.434521142393351">
        <ele>806.20263671875</ele>
        <time>2011-01-03T20:28:06Z</time>
      </trkpt>
      <trkpt lat="36.97197524830699" lon="-4.432945931330323">
        <ele>800.43505859375</ele>
        <time>2011-01-03T20:28:11Z</time>
      </trkpt>
      <trkpt lat="36.972249168902636" lon="-4.430940393358469">
        <ele>793.224853515625</ele>
        <time>2011-01-03T20:28:17Z</time>
      </trkpt>
      <trkpt lat="36.9725894741714" lon="-4.4275869615376">
        <ele>781.208740234375</ele>
        <time>2011-01-03T20:28:27Z</time>
      </trkpt>
      <trkpt lat="36.973060872405767" lon="-4.424566626548767">
        <ele>770.634033203125</ele>
        <time>2011-01-03T20:28:36Z</time>
      </trkpt>
      <trkpt lat="36.97399185039103" lon="-4.420369472354651">
        <ele>755.733642578125</ele>
        <time>2011-01-03T20:28:48Z</time>
      </trkpt>
      <trkpt lat="36.975341839715838" lon="-4.415476452559233">
        <ele>737.94921875</ele>
        <time>2011-01-03T20:29:02Z</time>
      </trkpt>
      <trkpt lat="36.97623124346137" lon="-4.413094483315945">
        <ele>729.297119140625</ele>
        <time>2011-01-03T20:29:09Z</time>
      </trkpt>
      <trkpt lat="36.977776363492012" lon="-4.409859655424953">
        <ele>715.8388671875</ele>
        <time>2011-01-03T20:29:19Z</time>
      </trkpt>
      <trkpt lat="36.979506472125649" lon="-4.406560119241476">
        <ele>702.38037109375</ele>
        <time>2011-01-03T20:29:30Z</time>
      </trkpt>
      <trkpt lat="36.980776665732265" lon="-4.404510073363781">
        <ele>694.689697265625</ele>
        <time>2011-01-03T20:29:37Z</time>
      </trkpt>
      <trkpt lat="36.982093462720513" lon="-4.403004599735141">
        <ele>689.88330078125</ele>
        <time>2011-01-03T20:29:43Z</time>
      </trkpt>
      <trkpt lat="36.983574796468019" lon="-4.40180498175323">
        <ele>685.557373046875</ele>
        <time>2011-01-03T20:29:49Z</time>
      </trkpt>
      <trkpt lat="36.985176745802164" lon="-4.400920271873474">
        <ele>681.2314453125</ele>
        <time>2011-01-03T20:29:55Z</time>
      </trkpt>
      <trkpt lat="36.986940549686551" lon="-4.400356253609061">
        <ele>675.944091796875</ele>
        <time>2011-01-03T20:30:01Z</time>
      </trkpt>
      <trkpt lat="36.989566683769226" lon="-4.399899356067181">
        <ele>667.772705078125</ele>
        <time>2011-01-03T20:30:10Z</time>
      </trkpt>
      <trkpt lat="36.992030292749405" lon="-4.39936182461679">
        <ele>660.082275390625</ele>
        <time>2011-01-03T20:30:19Z</time>
      </trkpt>
      <trkpt lat="36.994301872327924" lon="-4.398814989253879">
        <ele>652.391845703125</ele>
        <time>2011-01-03T20:30:27Z</time>
      </trkpt>
      <trkpt lat="36.997236544266343" lon="-4.398520784452558">
        <ele>642.77880859375</ele>
        <time>2011-01-03T20:30:37Z</time>
      </trkpt>
      <trkpt lat="36.999290362000465" lon="-4.398149969056249">
        <ele>638.452880859375</ele>
        <time>2011-01-03T20:30:44Z</time>
      </trkpt>
      <trkpt lat="37.001026254147291" lon="-4.39743909984827">
        <ele>636.5302734375</ele>
        <time>2011-01-03T20:30:50Z</time>
      </trkpt>
      <trkpt lat="37.002938585355878" lon="-4.396214839071035">
        <ele>636.5302734375</ele>
        <time>2011-01-03T20:30:57Z</time>
      </trkpt>
      <trkpt lat="37.004640782251954" lon="-4.394587995484471">
        <ele>637.491455078125</ele>
        <time>2011-01-03T20:31:04Z</time>
      </trkpt>
      <trkpt lat="37.006790488958359" lon="-4.392068227753043">
        <ele>637.491455078125</ele>
        <time>2011-01-03T20:31:14Z</time>
      </trkpt>
      <trkpt lat="37.008374165743589" lon="-4.390567531809211">
        <ele>636.5302734375</ele>
        <time>2011-01-03T20:31:21Z</time>
      </trkpt>
      <trkpt lat="37.009853655472398" lon="-4.389610150828958">
        <ele>637.97216796875</ele>
        <time>2011-01-03T20:31:27Z</time>
      </trkpt>
      <trkpt lat="37.011716617271304" lon="-4.38884899020195">
        <ele>642.77880859375</ele>
        <time>2011-01-03T20:31:34Z</time>
      </trkpt>
      <trkpt lat="37.013429291546345" lon="-4.388563167303801">
        <ele>648.54638671875</ele>
        <time>2011-01-03T20:31:40Z</time>
      </trkpt>
      <trkpt lat="37.015195861458778" lon="-4.388636844232678">
        <ele>655.27587890625</ele>
        <time>2011-01-03T20:31:46Z</time>
      </trkpt>
      <trkpt lat="37.019007531926036" lon="-4.389308821409941">
        <ele>670.656982421875</ele>
        <time>2011-01-03T20:31:59Z</time>
      </trkpt>
      <trkpt lat="37.022288627922535" lon="-4.38962884247303">
        <ele>683.634521484375</ele>
        <time>2011-01-03T20:32:10Z</time>
      </trkpt>
      <trkpt lat="37.025012327358127" lon="-4.389419630169869">
        <ele>694.689697265625</ele>
        <time>2011-01-03T20:32:19Z</time>
      </trkpt>
      <trkpt lat="37.028893483802676" lon="-4.388969438150525">
        <ele>711.0322265625</ele>
        <time>2011-01-03T20:32:32Z</time>
      </trkpt>
      <trkpt lat="37.031560437753797" lon="-4.389123832806945">
        <ele>722.568115234375</ele>
        <time>2011-01-03T20:32:41Z</time>
      </trkpt>
      <trkpt lat="37.034496869891882" lon="-4.389279317110777">
        <ele>734.10400390625</ele>
        <time>2011-01-03T20:32:51Z</time>
      </trkpt>
      <trkpt lat="37.035961020737886" lon="-4.388987626880407">
        <ele>737.468505859375</ele>
        <time>2011-01-03T20:32:56Z</time>
      </trkpt>
      <trkpt lat="37.037674365565181" lon="-4.388208193704486">
        <ele>739.871826171875</ele>
        <time>2011-01-03T20:33:02Z</time>
      </trkpt>
      <trkpt lat="37.039268771186471" lon="-4.387020980939269">
        <ele>742.755859375</ele>
        <time>2011-01-03T20:33:08Z</time>
      </trkpt>
      <trkpt lat="37.040597219020128" lon="-4.385531097650528">
        <ele>747.08154296875</ele>
        <time>2011-01-03T20:33:14Z</time>
      </trkpt>
      <trkpt lat="37.041623331606388" lon="-4.383734688162804">
        <ele>752.368896484375</ele>
        <time>2011-01-03T20:33:20Z</time>
      </trkpt>
      <trkpt lat="37.043067449703813" lon="-4.380560126155615">
        <ele>759.578857421875</ele>
        <time>2011-01-03T20:33:30Z</time>
      </trkpt>
      <trkpt lat="37.044186182320118" lon="-4.378883996978402">
        <ele>762.462646484375</ele>
        <time>2011-01-03T20:33:36Z</time>
      </trkpt>
      <trkpt lat="37.045789137482643" lon="-4.37718054279685">
        <ele>764.8662109375</ele>
        <time>2011-01-03T20:33:43Z</time>
      </trkpt>
      <trkpt lat="37.047578087076545" lon="-4.375013317912817">
        <ele>764.385498046875</ele>
        <time>2011-01-03T20:33:51Z</time>
      </trkpt>
      <trkpt lat="37.048936542123556" lon="-4.372815582901239">
        <ele>762.943359375</ele>
        <time>2011-01-03T20:33:58Z</time>
      </trkpt>
      <trkpt lat="37.050222158432007" lon="-4.37003924511373">
        <ele>760.5400390625</ele>
        <time>2011-01-03T20:34:06Z</time>
      </trkpt>
      <trkpt lat="37.052226522937417" lon="-4.364954195916653">
        <ele>756.214111328125</ele>
        <time>2011-01-03T20:34:20Z</time>
      </trkpt>
      <trkpt lat="37.053821934387088" lon="-4.360781516879797">
        <ele>757.175537109375</ele>
        <time>2011-01-03T20:34:32Z</time>
      </trkpt>
      <trkpt lat="37.05548926256597" lon="-4.356945538893342">
        <ele>755.733642578125</ele>
        <time>2011-01-03T20:34:43Z</time>
      </trkpt>
      <trkpt lat="37.057341244071722" lon="-4.353270241990686">
        <ele>753.330322265625</ele>
        <time>2011-01-03T20:34:54Z</time>
      </trkpt>
      <trkpt lat="37.059567393735051" lon="-4.349483130499721">
        <ele>751.40771484375</ele>
        <time>2011-01-03T20:35:06Z</time>
      </trkpt>
      <trkpt lat="37.062015747651458" lon="-4.34577539563179">
        <ele>750.446533203125</ele>
        <time>2011-01-03T20:35:18Z</time>
      </trkpt>
      <trkpt lat="37.06348517909646" lon="-4.343409854918718">
        <ele>750.927001953125</ele>
        <time>2011-01-03T20:35:26Z</time>
      </trkpt>
      <trkpt lat="37.064689071848989" lon="-4.340913975611329">
        <ele>751.888427734375</ele>
        <time>2011-01-03T20:35:34Z</time>
      </trkpt>
      <trkpt lat="37.065560789778829" lon="-4.338205782696605">
        <ele>752.368896484375</ele>
        <time>2011-01-03T20:35:42Z</time>
      </trkpt>
      <trkpt lat="37.066023889929056" lon="-4.335737563669682">
        <ele>750.927001953125</ele>
        <time>2011-01-03T20:35:49Z</time>
      </trkpt>
      <trkpt lat="37.066467544063926" lon="-4.332095291465521">
        <ele>746.60107421875</ele>
        <time>2011-01-03T20:35:59Z</time>
      </trkpt>
      <trkpt lat="37.066970122978091" lon="-4.330085394904017">
        <ele>744.19775390625</ele>
        <time>2011-01-03T20:36:05Z</time>
      </trkpt>
      <trkpt lat="37.067799679934978" lon="-4.328192844986916">
        <ele>741.79443359375</ele>
        <time>2011-01-03T20:36:11Z</time>
      </trkpt>
      <trkpt lat="37.068941295146942" lon="-4.326463490724564">
        <ele>740.8330078125</ele>
        <time>2011-01-03T20:36:17Z</time>
      </trkpt>
      <trkpt lat="37.07110776565969" lon="-4.323821850121021">
        <ele>740.3525390625</ele>
        <time>2011-01-03T20:36:27Z</time>
      </trkpt>
      <trkpt lat="37.073241882026196" lon="-4.321712460368872">
        <ele>740.3525390625</ele>
        <time>2011-01-03T20:36:36Z</time>
      </trkpt>
      <trkpt lat="37.075313134118915" lon="-4.320111265406013">
        <ele>741.313720703125</ele>
        <time>2011-01-03T20:36:44Z</time>
      </trkpt>
      <trkpt lat="37.077813791111112" lon="-4.318662453442812">
        <ele>741.79443359375</ele>
        <time>2011-01-03T20:36:53Z</time>
      </trkpt>
      <trkpt lat="37.080753156915307" lon="-4.3174231890589">
        <ele>744.19775390625</ele>
        <time>2011-01-03T20:37:03Z</time>
      </trkpt>
      <trkpt lat="37.08338406868279" lon="-4.316657418385148">
        <ele>748.043212890625</ele>
        <time>2011-01-03T20:37:12Z</time>
      </trkpt>
      <trkpt lat="37.085427492856979" lon="-4.316375954076648">
        <ele>749.00439453125</ele>
        <time>2011-01-03T20:37:19Z</time>
      </trkpt>
      <trkpt lat="37.087755566462874" lon="-4.315970689058304">
        <ele>749.9658203125</ele>
        <time>2011-01-03T20:37:27Z</time>
      </trkpt>
      <trkpt lat="37.090444397181273" lon="-4.315554946660996">
        <ele>750.446533203125</ele>
        <time>2011-01-03T20:37:36Z</time>
      </trkpt>
      <trkpt lat="37.093172539025545" lon="-4.315538685768843">
        <ele>751.888427734375</ele>
        <time>2011-01-03T20:37:45Z</time>
      </trkpt>
      <trkpt lat="37.097661383450031" lon="-4.315406670793891">
        <ele>758.617431640625</ele>
        <time>2011-01-03T20:38:00Z</time>
      </trkpt>
      <trkpt lat="37.099728444591165" lon="-4.314915826544166">
        <ele>761.020751953125</ele>
        <time>2011-01-03T20:38:07Z</time>
      </trkpt>
      <trkpt lat="37.10168419405818" lon="-4.314038241282105">
        <ele>762.462646484375</ele>
        <time>2011-01-03T20:38:14Z</time>
      </trkpt>
      <trkpt lat="37.104381239041686" lon="-4.31240058504045">
        <ele>764.8662109375</ele>
        <time>2011-01-03T20:38:24Z</time>
      </trkpt>
      <trkpt lat="37.107269894331694" lon="-4.310288932174444">
        <ele>768.71142578125</ele>
        <time>2011-01-03T20:38:35Z</time>
      </trkpt>
      <trkpt lat="37.110267765820026" lon="-4.307579481974244">
        <ele>769.6728515625</ele>
        <time>2011-01-03T20:38:47Z</time>
      </trkpt>
      <trkpt lat="37.112650824710727" lon="-4.304957035928965">
        <ele>768.230712890625</ele>
        <time>2011-01-03T20:38:57Z</time>
      </trkpt>
      <trkpt lat="37.114893989637494" lon="-4.301996128633618">
        <ele>767.75</ele>
        <time>2011-01-03T20:39:07Z</time>
      </trkpt>
      <trkpt lat="37.116905394941568" lon="-4.298773119226098">
        <ele>767.75</ele>
        <time>2011-01-03T20:39:17Z</time>
      </trkpt>
      <trkpt lat="37.118504578247666" lon="-4.296273048967123">
        <ele>768.230712890625</ele>
        <time>2011-01-03T20:39:25Z</time>
      </trkpt>
      <trkpt lat="37.119917683303356" lon="-4.294663053005934">
        <ele>768.71142578125</ele>
        <time>2011-01-03T20:39:31Z</time>
      </trkpt>
      <trkpt lat="37.121502868831158" lon="-4.293337790295482">
        <ele>768.71142578125</ele>
        <time>2011-01-03T20:39:37Z</time>
      </trkpt>
      <trkpt lat="37.123492984101176" lon="-4.292143285274506">
        <ele>764.385498046875</ele>
        <time>2011-01-03T20:39:44Z</time>
      </trkpt>
      <trkpt lat="37.126226993277669" lon="-4.291003430262208">
        <ele>750.927001953125</ele>
        <time>2011-01-03T20:39:53Z</time>
      </trkpt>
      <trkpt lat="37.128001023083925" lon="-4.29008929990232">
        <ele>741.79443359375</ele>
        <time>2011-01-03T20:39:59Z</time>
      </trkpt>
      <trkpt lat="37.129214974120259" lon="-4.288950953632593">
        <ele>737.94921875</ele>
        <time>2011-01-03T20:40:04Z</time>
      </trkpt>
      <trkpt lat="37.130436971783638" lon="-4.287298126146197">
        <ele>736.50732421875</ele>
        <time>2011-01-03T20:40:10Z</time>
      </trkpt>
      <trkpt lat="37.131492840126157" lon="-4.286205628886819">
        <ele>735.5458984375</ele>
        <time>2011-01-03T20:40:15Z</time>
      </trkpt>
      <trkpt lat="37.1327805519104" lon="-4.285382442176342">
        <ele>734.584716796875</ele>
        <time>2011-01-03T20:40:21Z</time>
      </trkpt>
      <trkpt lat="37.134374538436532" lon="-4.284347193315625">
        <ele>730.7392578125</ele>
        <time>2011-01-03T20:40:28Z</time>
      </trkpt>
      <trkpt lat="37.135437782853842" lon="-4.283264921978116">
        <ele>730.258544921875</ele>
        <time>2011-01-03T20:40:33Z</time>
      </trkpt>
      <trkpt lat="37.136498680338264" lon="-4.281695745885372">
        <ele>732.181396484375</ele>
        <time>2011-01-03T20:40:39Z</time>
      </trkpt>
      <trkpt lat="37.138208085671067" lon="-4.278693851083517">
        <ele>736.98779296875</ele>
        <time>2011-01-03T20:40:50Z</time>
      </trkpt>
      <trkpt lat="37.139404183253646" lon="-4.27605539560318">
        <ele>749.00439453125</ele>
        <time>2011-01-03T20:40:59Z</time>
      </trkpt>
      <trkpt lat="37.140072723850608" lon="-4.273840980604291">
        <ele>757.175537109375</ele>
        <time>2011-01-03T20:41:06Z</time>
      </trkpt>
      <trkpt lat="37.141096573323011" lon="-4.270574133843184">
        <ele>760.059326171875</ele>
        <time>2011-01-03T20:41:16Z</time>
      </trkpt>
      <trkpt lat="37.142405491322279" lon="-4.267103271558881">
        <ele>754.772216796875</ele>
        <time>2011-01-03T20:41:26Z</time>
      </trkpt>
      <trkpt lat="37.143111247569323" lon="-4.264503791928291">
        <ele>745.6396484375</ele>
        <time>2011-01-03T20:41:33Z</time>
      </trkpt>
      <trkpt lat="37.143639558926225" lon="-4.261388825252652">
        <ele>737.468505859375</ele>
        <time>2011-01-03T20:41:41Z</time>
      </trkpt>
      <trkpt lat="37.1442452352494" lon="-4.259285386651754">
        <ele>735.5458984375</ele>
        <time>2011-01-03T20:41:47Z</time>
      </trkpt>
      <trkpt lat="37.145488690584898" lon="-4.256160361692309">
        <ele>732.662109375</ele>
        <time>2011-01-03T20:41:56Z</time>
      </trkpt>
      <trkpt lat="37.146114567294717" lon="-4.253941336646676">
        <ele>730.258544921875</ele>
        <time>2011-01-03T20:42:02Z</time>
      </trkpt>
      <trkpt lat="37.146416148170829" lon="-4.251685263589025">
        <ele>725.9326171875</ele>
        <time>2011-01-03T20:42:08Z</time>
      </trkpt>
      <trkpt lat="37.146375076845288" lon="-4.249133393168449">
        <ele>717.761474609375</ele>
        <time>2011-01-03T20:42:15Z</time>
      </trkpt>
      <trkpt lat="37.146040555089712" lon="-4.247024590149522">
        <ele>708.62890625</ele>
        <time>2011-01-03T20:42:21Z</time>
      </trkpt>
      <trkpt lat="37.145642917603254" lon="-4.245224576443434">
        <ele>699.496337890625</ele>
        <time>2011-01-03T20:42:27Z</time>
      </trkpt>
      <trkpt lat="37.145489444956183" lon="-4.243677360936999">
        <ele>692.28662109375</ele>
        <time>2011-01-03T20:42:32Z</time>
      </trkpt>
      <trkpt lat="37.145649120211601" lon="-4.241754552349448">
        <ele>683.634521484375</ele>
        <time>2011-01-03T20:42:38Z</time>
      </trkpt>
      <trkpt lat="37.145635457709432" lon="-4.240237595513463">
        <ele>676.905517578125</ele>
        <time>2011-01-03T20:42:43Z</time>
      </trkpt>
      <trkpt lat="37.145361369475722" lon="-4.238077830523253">
        <ele>667.772705078125</ele>
        <time>2011-01-03T20:42:50Z</time>
      </trkpt>
      <trkpt lat="37.145449882373214" lon="-4.236486945301294">
        <ele>660.56298828125</ele>
        <time>2011-01-03T20:42:55Z</time>
      </trkpt>
      <trkpt lat="37.145826397463679" lon="-4.235208788886666">
        <ele>654.795166015625</ele>
        <time>2011-01-03T20:42:59Z</time>
      </trkpt>
      <trkpt lat="37.146480018272996" lon="-4.234048817306757">
        <ele>649.5078125</ele>
        <time>2011-01-03T20:43:03Z</time>
      </trkpt>
      <trkpt lat="37.147692376747727" lon="-4.232588522136211">
        <ele>639.4140625</ele>
        <time>2011-01-03T20:43:09Z</time>
      </trkpt>
      <trkpt lat="37.148265279829502" lon="-4.23142259940505">
        <ele>633.165283203125</ele>
        <time>2011-01-03T20:43:13Z</time>
      </trkpt>
      <trkpt lat="37.148546660318971" lon="-4.230067664757371">
        <ele>627.878173828125</ele>
        <time>2011-01-03T20:43:17Z</time>
      </trkpt>
      <trkpt lat="37.148950919508934" lon="-4.228147454559803">
        <ele>619.70703125</ele>
        <time>2011-01-03T20:43:23Z</time>
      </trkpt>
      <trkpt lat="37.149221571162343" lon="-4.227587794885039">
        <ele>616.822998046875</ele>
        <time>2011-01-03T20:43:25Z</time>
      </trkpt>
      <trkpt lat="37.150220023468137" lon="-4.226473337039352">
        <ele>608.65185546875</ele>
        <time>2011-01-03T20:43:30Z</time>
      </trkpt>
      <trkpt lat="37.151241945102811" lon="-4.225984252989292">
        <ele>602.403076171875</ele>
        <time>2011-01-03T20:43:34Z</time>
      </trkpt>
      <trkpt lat="37.15333666652441" lon="-4.225303139537573">
        <ele>590.867431640625</ele>
        <time>2011-01-03T20:43:42Z</time>
      </trkpt>
      <trkpt lat="37.15449957177043" lon="-4.224388254806399">
        <ele>582.215576171875</ele>
        <time>2011-01-03T20:43:47Z</time>
      </trkpt>
      <trkpt lat="37.155417473986745" lon="-4.223056621849537">
        <ele>574.04443359375</ele>
        <time>2011-01-03T20:43:52Z</time>
      </trkpt>
      <trkpt lat="37.156209731474519" lon="-4.221112690865994">
        <ele>563.950439453125</ele>
        <time>2011-01-03T20:43:58Z</time>
      </trkpt>
      <trkpt lat="37.157291918992996" lon="-4.2186014726758">
        <ele>550.97265625</ele>
        <time>2011-01-03T20:44:06Z</time>
      </trkpt>
      <trkpt lat="37.158445185050368" lon="-4.21669727191329">
        <ele>539.9176025390625</ele>
        <time>2011-01-03T20:44:13Z</time>
      </trkpt>
      <trkpt lat="37.159017417579889" lon="-4.215159444138408">
        <ele>531.2657470703125</ele>
        <time>2011-01-03T20:44:18Z</time>
      </trkpt>
      <trkpt lat="37.1592050883919" lon="-4.213472586125135">
        <ele>523.5751953125</ele>
        <time>2011-01-03T20:44:23Z</time>
      </trkpt>
      <trkpt lat="37.158999647945166" lon="-4.211781285703182">
        <ele>514.92333984375</ele>
        <time>2011-01-03T20:44:28Z</time>
      </trkpt>
      <trkpt lat="37.158447531983256" lon="-4.210133487358689">
        <ele>506.271484375</ele>
        <time>2011-01-03T20:44:33Z</time>
      </trkpt>
      <trkpt lat="37.157358890399337" lon="-4.207229828462005">
        <ele>504.348876953125</ele>
        <time>2011-01-03T20:44:42Z</time>
      </trkpt>
      <trkpt lat="37.157004419714212" lon="-4.205593848600984">
        <ele>512.52001953125</ele>
        <time>2011-01-03T20:44:47Z</time>
      </trkpt>
      <trkpt lat="37.157053286209702" lon="-4.204265819862485">
        <ele>520.2105712890625</ele>
        <time>2011-01-03T20:44:51Z</time>
      </trkpt>
      <trkpt lat="37.157483864575624" lon="-4.202713742852211">
        <ele>528.862548828125</ele>
        <time>2011-01-03T20:44:56Z</time>
      </trkpt>
      <trkpt lat="37.158149052411318" lon="-4.200228592380881">
        <ele>540.3983154296875</ele>
        <time>2011-01-03T20:45:04Z</time>
      </trkpt>
      <trkpt lat="37.15876093134284" lon="-4.198373258113861">
        <ele>546.6468505859375</ele>
        <time>2011-01-03T20:45:10Z</time>
      </trkpt>
      <trkpt lat="37.159759886562824" lon="-4.19666008092463">
        <ele>550.011474609375</ele>
        <time>2011-01-03T20:45:16Z</time>
      </trkpt>
      <trkpt lat="37.160556083545089" lon="-4.195072380825877">
        <ele>550.011474609375</ele>
        <time>2011-01-03T20:45:21Z</time>
      </trkpt>
      <trkpt lat="37.16108581982553" lon="-4.19321428053081">
        <ele>550.011474609375</ele>
        <time>2011-01-03T20:45:26Z</time>
      </trkpt>
      <trkpt lat="37.162101957947016" lon="-4.188733734190464">
        <ele>563.950439453125</ele>
        <time>2011-01-03T20:45:38Z</time>
      </trkpt>
      <trkpt lat="37.16276815161109" lon="-4.186683185398579">
        <ele>574.04443359375</ele>
        <time>2011-01-03T20:45:44Z</time>
      </trkpt>
      <trkpt lat="37.16371413320303" lon="-4.184813685715199">
        <ele>579.812255859375</ele>
        <time>2011-01-03T20:45:50Z</time>
      </trkpt>
      <trkpt lat="37.165360590443015" lon="-4.182001557201147">
        <ele>578.370361328125</ele>
        <time>2011-01-03T20:45:59Z</time>
      </trkpt>
      <trkpt lat="37.166218562051654" lon="-4.179891999810934">
        <ele>575.486328125</ele>
        <time>2011-01-03T20:46:05Z</time>
      </trkpt>
      <trkpt lat="37.166589461266994" lon="-4.178019398823381">
        <ele>573.56396484375</ele>
        <time>2011-01-03T20:46:10Z</time>
      </trkpt>
      <trkpt lat="37.166617456823587" lon="-4.176062224432826">
        <ele>571.640869140625</ele>
        <time>2011-01-03T20:46:15Z</time>
      </trkpt>
      <trkpt lat="37.16633171774447" lon="-4.174129776656628">
        <ele>570.6796875</ele>
        <time>2011-01-03T20:46:20Z</time>
      </trkpt>
      <trkpt lat="37.165531916543841" lon="-4.171158643439412">
        <ele>577.4091796875</ele>
        <time>2011-01-03T20:46:28Z</time>
      </trkpt>
      <trkpt lat="37.164966473355889" lon="-4.168670643121004">
        <ele>585.099609375</ele>
        <time>2011-01-03T20:46:35Z</time>
      </trkpt>
      <trkpt lat="37.164761619642377" lon="-4.166477099061012">
        <ele>592.3095703125</ele>
        <time>2011-01-03T20:46:41Z</time>
      </trkpt>
      <trkpt lat="37.164621977135539" lon="-4.16333019733429">
        <ele>602.8837890625</ele>
        <time>2011-01-03T20:46:50Z</time>
      </trkpt>
      <trkpt lat="37.164318552240729" lon="-4.161683572456241">
        <ele>607.690673828125</ele>
        <time>2011-01-03T20:46:55Z</time>
      </trkpt>
      <trkpt lat="37.163655878975987" lon="-4.159821448847652">
        <ele>612.0166015625</ele>
        <time>2011-01-03T20:47:01Z</time>
      </trkpt>
      <trkpt lat="37.16253949329257" lon="-4.157816078513861">
        <ele>613.93896484375</ele>
        <time>2011-01-03T20:47:08Z</time>
      </trkpt>
      <trkpt lat="37.161308359354734" lon="-4.155500745400786">
        <ele>611.05517578125</ele>
        <time>2011-01-03T20:47:16Z</time>
      </trkpt>
      <trkpt lat="37.160831931978464" lon="-4.153864262625575">
        <ele>606.729248046875</ele>
        <time>2011-01-03T20:47:21Z</time>
      </trkpt>
      <trkpt lat="37.160467067733407" lon="-4.151519257575274">
        <ele>601.922607421875</ele>
        <time>2011-01-03T20:47:28Z</time>
      </trkpt>
      <trkpt lat="37.160025173798203" lon="-4.149602148681879">
        <ele>603.84521484375</ele>
        <time>2011-01-03T20:47:34Z</time>
      </trkpt>
      <trkpt lat="37.159382198005915" lon="-4.147311626002193">
        <ele>607.690673828125</ele>
        <time>2011-01-03T20:47:41Z</time>
      </trkpt>
      <trkpt lat="37.159285135567188" lon="-4.145548073574901">
        <ele>607.2099609375</ele>
        <time>2011-01-03T20:47:46Z</time>
      </trkpt>
      <trkpt lat="37.15951194986701" lon="-4.144159443676472">
        <ele>603.84521484375</ele>
        <time>2011-01-03T20:47:50Z</time>
      </trkpt>
      <trkpt lat="37.160166073590517" lon="-4.142005881294608">
        <ele>593.270751953125</ele>
        <time>2011-01-03T20:47:57Z</time>
      </trkpt>
      <trkpt lat="37.160581396892667" lon="-4.140160353854299">
        <ele>582.6962890625</ele>
        <time>2011-01-03T20:48:03Z</time>
      </trkpt>
      <trkpt lat="37.160577038303018" lon="-4.1385318338871">
        <ele>573.56396484375</ele>
        <time>2011-01-03T20:48:08Z</time>
      </trkpt>
      <trkpt lat="37.16021753847599" lon="-4.136930638924241">
        <ele>564.911865234375</ele>
        <time>2011-01-03T20:48:13Z</time>
      </trkpt>
      <trkpt lat="37.159367864951491" lon="-4.134186152368784">
        <ele>549.050048828125</ele>
        <time>2011-01-03T20:48:22Z</time>
      </trkpt>
      <trkpt lat="37.159195281565189" lon="-4.132632398977876">
        <ele>539.9176025390625</ele>
        <time>2011-01-03T20:48:27Z</time>
      </trkpt>
      <trkpt lat="37.159334169700742" lon="-4.131330521777272">
        <ele>533.1883544921875</ele>
        <time>2011-01-03T20:48:31Z</time>
      </trkpt>
      <trkpt lat="37.159899361431599" lon="-4.129756819456816">
        <ele>524.0557861328125</ele>
        <time>2011-01-03T20:48:36Z</time>
      </trkpt>
      <trkpt lat="37.161194365471601" lon="-4.127037646248937">
        <ele>513.4814453125</ele>
        <time>2011-01-03T20:48:45Z</time>
      </trkpt>
      <trkpt lat="37.16170247644186" lon="-4.125041244551539">
        <ele>509.1553955078125</ele>
        <time>2011-01-03T20:48:51Z</time>
      </trkpt>
      <trkpt lat="37.16252482496202" lon="-4.121251869946718">
        <ele>496.177734375</ele>
        <time>2011-01-03T20:49:02Z</time>
      </trkpt>
      <trkpt lat="37.163105271756649" lon="-4.118147129192948">
        <ele>488.4871826171875</ele>
        <time>2011-01-03T20:49:11Z</time>
      </trkpt>
      <trkpt lat="37.163091273978353" lon="-4.116351138800383">
        <ele>487.0450439453125</ele>
        <time>2011-01-03T20:49:16Z</time>
      </trkpt>
      <trkpt lat="37.162741329520941" lon="-4.114595716819167">
        <ele>486.564453125</ele>
        <time>2011-01-03T20:49:21Z</time>
      </trkpt>
      <trkpt lat="37.16200397349894" lon="-4.111460633575916">
        <ele>487.0450439453125</ele>
        <time>2011-01-03T20:49:30Z</time>
      </trkpt>
      <trkpt lat="37.161929290741682" lon="-4.109643353149295">
        <ele>488.4871826171875</ele>
        <time>2011-01-03T20:49:35Z</time>
      </trkpt>
      <trkpt lat="37.162041524425149" lon="-4.106736592948437">
        <ele>487.525634765625</ele>
        <time>2011-01-03T20:49:43Z</time>
      </trkpt>
      <trkpt lat="37.162399683147669" lon="-4.104963233694434">
        <ele>486.083740234375</ele>
        <time>2011-01-03T20:49:48Z</time>
      </trkpt>
      <trkpt lat="37.163135027512908" lon="-4.102999772876501">
        <ele>485.1224365234375</ele>
        <time>2011-01-03T20:49:54Z</time>
      </trkpt>
      <trkpt lat="37.164564477279782" lon="-4.100199798122048">
        <ele>484.1611328125</ele>
        <time>2011-01-03T20:50:03Z</time>
      </trkpt>
      <trkpt lat="37.16533737257123" lon="-4.09826441667974">
        <ele>484.641845703125</ele>
        <time>2011-01-03T20:50:09Z</time>
      </trkpt>
      <trkpt lat="37.165793683379889" lon="-4.096147818490863">
        <ele>486.083740234375</ele>
        <time>2011-01-03T20:50:15Z</time>
      </trkpt>
      <trkpt lat="37.166014797985554" lon="-4.093243321403861">
        <ele>487.0450439453125</ele>
        <time>2011-01-03T20:50:23Z</time>
      </trkpt>
      <trkpt lat="37.166313696652651" lon="-4.089593589305878">
        <ele>491.3709716796875</ele>
        <time>2011-01-03T20:50:33Z</time>
      </trkpt>
      <trkpt lat="37.166723152622581" lon="-4.088287688791752">
        <ele>492.81298828125</ele>
        <time>2011-01-03T20:50:37Z</time>
      </trkpt>
      <trkpt lat="37.167385071516037" lon="-4.087171722203493">
        <ele>492.3323974609375</ele>
        <time>2011-01-03T20:50:41Z</time>
      </trkpt>
      <trkpt lat="37.168458458036184" lon="-4.08603454940021">
        <ele>492.81298828125</ele>
        <time>2011-01-03T20:50:46Z</time>
      </trkpt>
      <trkpt lat="37.171112755313516" lon="-4.083624333143234">
        <ele>500.984130859375</ele>
        <time>2011-01-03T20:50:58Z</time>
      </trkpt>
      <trkpt lat="37.172679584473372" lon="-4.082407196983695">
        <ele>498.5809326171875</ele>
        <time>2011-01-03T20:51:05Z</time>
      </trkpt>
      <trkpt lat="37.17397827655077" lon="-4.081938732415438">
        <ele>497.61962890625</ele>
        <time>2011-01-03T20:51:10Z</time>
      </trkpt>
      <trkpt lat="37.177107995375991" lon="-4.08102217130363">
        <ele>492.3323974609375</ele>
        <time>2011-01-03T20:51:22Z</time>
      </trkpt>
      <trkpt lat="37.179069695994258" lon="-4.080210970714688">
        <ele>491.3709716796875</ele>
        <time>2011-01-03T20:51:30Z</time>
      </trkpt>
      <trkpt lat="37.180059934034944" lon="-4.079199694097042">
        <ele>491.8516845703125</ele>
        <time>2011-01-03T20:51:35Z</time>
      </trkpt>
      <trkpt lat="37.180659994482994" lon="-4.078096216544509">
        <ele>490.890380859375</ele>
        <time>2011-01-03T20:51:39Z</time>
      </trkpt>
      <trkpt lat="37.18101211823523" lon="-4.076756620779634">
        <ele>488.9677734375</ele>
        <time>2011-01-03T20:51:43Z</time>
      </trkpt>
      <trkpt lat="37.181040784344077" lon="-4.07530621625483">
        <ele>486.083740234375</ele>
        <time>2011-01-03T20:51:47Z</time>
      </trkpt>
      <trkpt lat="37.180691342800856" lon="-4.073124574497342">
        <ele>485.60302734375</ele>
        <time>2011-01-03T20:51:53Z</time>
      </trkpt>
      <trkpt lat="37.180278534069657" lon="-4.069787571206689">
        <ele>486.564453125</ele>
        <time>2011-01-03T20:52:02Z</time>
      </trkpt>
      <trkpt lat="37.180253639817238" lon="-4.066752148792148">
        <ele>486.564453125</ele>
        <time>2011-01-03T20:52:10Z</time>
      </trkpt>
      <trkpt lat="37.180355228483677" lon="-4.061587052419782">
        <ele>487.525634765625</ele>
        <time>2011-01-03T20:52:24Z</time>
      </trkpt>
      <trkpt lat="37.18042915686965" lon="-4.05796623788774">
        <ele>488.9677734375</ele>
        <time>2011-01-03T20:52:34Z</time>
      </trkpt>
      <trkpt lat="37.180748842656612" lon="-4.054216844961047">
        <ele>487.525634765625</ele>
        <time>2011-01-03T20:52:44Z</time>
      </trkpt>
      <trkpt lat="37.181187719106674" lon="-4.049577377736569">
        <ele>493.2935791015625</ele>
        <time>2011-01-03T20:52:56Z</time>
      </trkpt>
      <trkpt lat="37.181627182289958" lon="-4.044920559972525">
        <ele>506.271484375</ele>
        <time>2011-01-03T20:53:09Z</time>
      </trkpt>
      <trkpt lat="37.182057173922658" lon="-4.040361139923334">
        <ele>509.6361083984375</ele>
        <time>2011-01-03T20:53:22Z</time>
      </trkpt>
      <trkpt lat="37.182518430054188" lon="-4.037433927878737">
        <ele>511.5587158203125</ele>
        <time>2011-01-03T20:53:30Z</time>
      </trkpt>
      <trkpt lat="37.183113461360335" lon="-4.035712787881494">
        <ele>512.52001953125</ele>
        <time>2011-01-03T20:53:35Z</time>
      </trkpt>
      <trkpt lat="37.18394486233592" lon="-4.034223323687911">
        <ele>513.000732421875</ele>
        <time>2011-01-03T20:53:40Z</time>
      </trkpt>
      <trkpt lat="37.185371462255716" lon="-4.032430518418551">
        <ele>513.000732421875</ele>
        <time>2011-01-03T20:53:47Z</time>
      </trkpt>
      <trkpt lat="37.188443681225181" lon="-4.028879189863801">
        <ele>507.7135009765625</ele>
        <time>2011-01-03T20:54:01Z</time>
      </trkpt>
      <trkpt lat="37.191478936001658" lon="-4.025370441377163">
        <ele>507.2327880859375</ele>
        <time>2011-01-03T20:54:15Z</time>
      </trkpt>
      <trkpt lat="37.192842923104763" lon="-4.023755164816976">
        <ele>515.404052734375</ele>
        <time>2011-01-03T20:54:22Z</time>
      </trkpt>
      <trkpt lat="37.194028627127409" lon="-4.021961688995361">
        <ele>523.5751953125</ele>
        <time>2011-01-03T20:54:29Z</time>
      </trkpt>
      <trkpt lat="37.19464142806828" lon="-4.020437020808458">
        <ele>527.9010009765625</ele>
        <time>2011-01-03T20:54:34Z</time>
      </trkpt>
      <trkpt lat="37.195091620087624" lon="-4.018411450088024">
        <ele>530.304443359375</ele>
        <time>2011-01-03T20:54:40Z</time>
      </trkpt>
      <trkpt lat="37.19528934918344" lon="-4.01583032682538">
        <ele>531.2657470703125</ele>
        <time>2011-01-03T20:54:47Z</time>
      </trkpt>
      <trkpt lat="37.195450197905302" lon="-4.012153437361121">
        <ele>525.497802734375</ele>
        <time>2011-01-03T20:54:57Z</time>
      </trkpt>
      <trkpt lat="37.195363277569413" lon="-4.010463058948517">
        <ele>518.287841796875</ele>
        <time>2011-01-03T20:55:02Z</time>
      </trkpt>
      <trkpt lat="37.194972932338715" lon="-4.008829174563289">
        <ele>510.5972900390625</ele>
        <time>2011-01-03T20:55:07Z</time>
      </trkpt>
      <trkpt lat="37.194208418950438" lon="-4.007060844451189">
        <ele>503.387451171875</ele>
        <time>2011-01-03T20:55:13Z</time>
      </trkpt>
      <trkpt lat="37.193234441801906" lon="-4.004606371745467">
        <ele>501.945556640625</ele>
        <time>2011-01-03T20:55:21Z</time>
      </trkpt>
      <trkpt lat="37.192957419902086" lon="-4.00284256786108">
        <ele>501.46484375</ele>
        <time>2011-01-03T20:55:26Z</time>
      </trkpt>
      <trkpt lat="37.192789446562529" lon="-3.999144639819861">
        <ele>507.2327880859375</ele>
        <time>2011-01-03T20:55:36Z</time>
      </trkpt>
      <trkpt lat="37.19286429695785" lon="-3.996708523482084">
        <ele>517.32666015625</ele>
        <time>2011-01-03T20:55:43Z</time>
      </trkpt>
      <trkpt lat="37.193452790379524" lon="-3.993037333711982">
        <ele>535.1109619140625</ele>
        <time>2011-01-03T20:55:54Z</time>
      </trkpt>
      <trkpt lat="37.1938097756356" lon="-3.989733187481761">
        <ele>548.5693359375</ele>
        <time>2011-01-03T20:56:04Z</time>
      </trkpt>
      <trkpt lat="37.193676335737109" lon="-3.987667467445135">
        <ele>551.453369140625</ele>
        <time>2011-01-03T20:56:10Z</time>
      </trkpt>
      <trkpt lat="37.193179037421942" lon="-3.984403386712074">
        <ele>554.81787109375</ele>
        <time>2011-01-03T20:56:19Z</time>
      </trkpt>
      <trkpt lat="37.192403459921479" lon="-3.979422189295292">
        <ele>561.54736328125</ele>
        <time>2011-01-03T20:56:33Z</time>
      </trkpt>
      <trkpt lat="37.191928792744875" lon="-3.97736594080925">
        <ele>560.5859375</ele>
        <time>2011-01-03T20:56:39Z</time>
      </trkpt>
      <trkpt lat="37.190805366262794" lon="-3.974353233352304">
        <ele>562.028076171875</ele>
        <time>2011-01-03T20:56:48Z</time>
      </trkpt>
      <trkpt lat="37.188905272632837" lon="-3.969286372885108">
        <ele>556.260009765625</ele>
        <time>2011-01-03T20:57:03Z</time>
      </trkpt>
      <trkpt lat="37.187725184485316" lon="-3.965925397351384">
        <ele>560.105224609375</ele>
        <time>2011-01-03T20:57:13Z</time>
      </trkpt>
      <trkpt lat="37.187050860375166" lon="-3.963213935494423">
        <ele>563.469970703125</ele>
        <time>2011-01-03T20:57:21Z</time>
      </trkpt>
      <trkpt lat="37.186371339485049" lon="-3.961316775530577">
        <ele>564.911865234375</ele>
        <time>2011-01-03T20:57:27Z</time>
      </trkpt>
      <trkpt lat="37.184908697381616" lon="-3.958210358396173">
        <ele>569.23779296875</ele>
        <time>2011-01-03T20:57:37Z</time>
      </trkpt>
      <trkpt lat="37.183883590623736" lon="-3.955703498795629">
        <ele>572.6025390625</ele>
        <time>2011-01-03T20:57:45Z</time>
      </trkpt>
      <trkpt lat="37.181939743459225" lon="-3.949808841571212">
        <ele>579.812255859375</ele>
        <time>2011-01-03T20:58:03Z</time>
      </trkpt>
      <trkpt lat="37.180879348888993" lon="-3.946564877405763">
        <ele>583.657470703125</ele>
        <time>2011-01-03T20:58:13Z</time>
      </trkpt>
      <trkpt lat="37.179796742275357" lon="-3.942865524441004">
        <ele>588.945068359375</ele>
        <time>2011-01-03T20:58:24Z</time>
      </trkpt>
      <trkpt lat="37.179689453914762" lon="-3.94106182269752">
        <ele>589.90625</ele>
        <time>2011-01-03T20:58:29Z</time>
      </trkpt>
      <trkpt lat="37.179929092526436" lon="-3.938880935311317">
        <ele>587.02197265625</ele>
        <time>2011-01-03T20:58:35Z</time>
      </trkpt>
      <trkpt lat="37.180549940094352" lon="-3.934061927720904">
        <ele>597.115966796875</ele>
        <time>2011-01-03T20:58:48Z</time>
      </trkpt>
      <trkpt lat="37.18065345659852" lon="-3.930638171732426">
        <ele>600.480712890625</ele>
        <time>2011-01-03T20:58:57Z</time>
      </trkpt>
      <trkpt lat="37.180760996416211" lon="-3.92613859847188">
        <ele>595.674072265625</ele>
        <time>2011-01-03T20:59:09Z</time>
      </trkpt>
      <trkpt lat="37.180585647001863" lon="-3.92278072424233">
        <ele>589.425537109375</ele>
        <time>2011-01-03T20:59:18Z</time>
      </trkpt>
      <trkpt lat="37.180129336193204" lon="-3.919452354311943">
        <ele>582.6962890625</ele>
        <time>2011-01-03T20:59:27Z</time>
      </trkpt>
      <trkpt lat="37.179285697638988" lon="-3.914007470011711">
        <ele>584.13818359375</ele>
        <time>2011-01-03T20:59:42Z</time>
      </trkpt>
      <trkpt lat="37.178667280822992" lon="-3.909366745501757">
        <ele>587.9833984375</ele>
        <time>2011-01-03T20:59:55Z</time>
      </trkpt>
      <trkpt lat="37.178446669131517" lon="-3.905437057837844">
        <ele>590.386962890625</ele>
        <time>2011-01-03T21:00:06Z</time>
      </trkpt>
      <trkpt lat="37.178502324968576" lon="-3.902964480221272">
        <ele>587.9833984375</ele>
        <time>2011-01-03T21:00:13Z</time>
      </trkpt>
      <trkpt lat="37.178929382935166" lon="-3.901155833154917">
        <ele>581.25439453125</ele>
        <time>2011-01-03T21:00:18Z</time>
      </trkpt>
      <trkpt lat="37.179700937122107" lon="-3.899405691772699">
        <ele>575.005859375</ele>
        <time>2011-01-03T21:00:23Z</time>
      </trkpt>
      <trkpt lat="37.180802654474974" lon="-3.897153558209539">
        <ele>575.486328125</ele>
        <time>2011-01-03T21:00:30Z</time>
      </trkpt>
      <trkpt lat="37.181494077667594" lon="-3.895371062681079">
        <ele>576.928466796875</ele>
        <time>2011-01-03T21:00:36Z</time>
      </trkpt>
      <trkpt lat="37.182127330452204" lon="-3.893095375970006">
        <ele>578.370361328125</ele>
        <time>2011-01-03T21:00:43Z</time>
      </trkpt>
      <trkpt lat="37.183076161891222" lon="-3.890884062275291">
        <ele>578.85107421875</ele>
        <time>2011-01-03T21:00:50Z</time>
      </trkpt>
      <trkpt lat="37.185373557731509" lon="-3.885861374437809">
        <ele>575.967041015625</ele>
        <time>2011-01-03T21:01:06Z</time>
      </trkpt>
      <trkpt lat="37.188021652400494" lon="-3.880120441317558">
        <ele>577.4091796875</ele>
        <time>2011-01-03T21:01:24Z</time>
      </trkpt>
      <trkpt lat="37.190145291388035" lon="-3.875390868633986">
        <ele>566.353759765625</ele>
        <time>2011-01-03T21:01:39Z</time>
      </trkpt>
      <trkpt lat="37.191637856885791" lon="-3.872297862544656">
        <ele>553.856689453125</ele>
        <time>2011-01-03T21:01:49Z</time>
      </trkpt>
      <trkpt lat="37.192941159009933" lon="-3.870411347597837">
        <ele>545.204833984375</ele>
        <time>2011-01-03T21:01:56Z</time>
      </trkpt>
      <trkpt lat="37.194357281550765" lon="-3.868382340297103">
        <ele>540.87890625</ele>
        <time>2011-01-03T21:02:04Z</time>
      </trkpt>
      <trkpt lat="37.195066139101982" lon="-3.866942245513201">
        <ele>539.4368896484375</ele>
        <time>2011-01-03T21:02:09Z</time>
      </trkpt>
      <trkpt lat="37.195417759940028" lon="-3.865585550665855">
        <ele>537.03369140625</ele>
        <time>2011-01-03T21:02:13Z</time>
      </trkpt>
      <trkpt lat="37.195510463789105" lon="-3.863835576921701">
        <ele>534.149658203125</ele>
        <time>2011-01-03T21:02:18Z</time>
      </trkpt>
      <trkpt lat="37.195244254544377" lon="-3.862145449966192">
        <ele>532.22705078125</ele>
        <time>2011-01-03T21:02:23Z</time>
      </trkpt>
      <trkpt lat="37.194648887962103" lon="-3.860063720494509">
        <ele>535.1109619140625</ele>
        <time>2011-01-03T21:02:30Z</time>
      </trkpt>
      <trkpt lat="37.194232558831573" lon="-3.857926335185766">
        <ele>539.9176025390625</ele>
        <time>2011-01-03T21:02:37Z</time>
      </trkpt>
      <trkpt lat="37.194208670407534" lon="-3.855560459196568">
        <ele>545.685546875</ele>
        <time>2011-01-03T21:02:44Z</time>
      </trkpt>
      <trkpt lat="37.194137927144766" lon="-3.852490754798055">
        <ele>548.0888671875</ele>
        <time>2011-01-03T21:02:53Z</time>
      </trkpt>
      <trkpt lat="37.193945394828916" lon="-3.848671289160848">
        <ele>540.87890625</ele>
        <time>2011-01-03T21:03:04Z</time>
      </trkpt>
      <trkpt lat="37.194012198597193" lon="-3.846587045118213">
        <ele>540.87890625</ele>
        <time>2011-01-03T21:03:10Z</time>
      </trkpt>
      <trkpt lat="37.194183440878987" lon="-3.843693779781461">
        <ele>547.608154296875</ele>
        <time>2011-01-03T21:03:18Z</time>
      </trkpt>
      <trkpt lat="37.193940449506044" lon="-3.841896783560515">
        <ele>552.41455078125</ele>
        <time>2011-01-03T21:03:23Z</time>
      </trkpt>
      <trkpt lat="37.19332211650908" lon="-3.840242028236389">
        <ele>555.779296875</ele>
        <time>2011-01-03T21:03:28Z</time>
      </trkpt>
      <trkpt lat="37.192091066390276" lon="-3.838127860799432">
        <ele>558.663330078125</ele>
        <time>2011-01-03T21:03:35Z</time>
      </trkpt>
      <trkpt lat="37.189692417159677" lon="-3.834281153976917">
        <ele>563.469970703125</ele>
        <time>2011-01-03T21:03:48Z</time>
      </trkpt>
      <trkpt lat="37.189015746116638" lon="-3.832718599587679">
        <ele>566.83447265625</ele>
        <time>2011-01-03T21:03:53Z</time>
      </trkpt>
      <trkpt lat="37.18881256878376" lon="-3.831374477595091">
        <ele>568.757080078125</ele>
        <time>2011-01-03T21:03:57Z</time>
      </trkpt>
      <trkpt lat="37.188894962891936" lon="-3.829995570704341">
        <ele>570.6796875</ele>
        <time>2011-01-03T21:04:01Z</time>
      </trkpt>
      <trkpt lat="37.189362086355686" lon="-3.828415749594569">
        <ele>572.121826171875</ele>
        <time>2011-01-03T21:04:06Z</time>
      </trkpt>
      <trkpt lat="37.190311588346958" lon="-3.826419180259109">
        <ele>568.2763671875</ele>
        <time>2011-01-03T21:04:13Z</time>
      </trkpt>
      <trkpt lat="37.192212352529168" lon="-3.822741117328405">
        <ele>553.3759765625</ele>
        <time>2011-01-03T21:04:25Z</time>
      </trkpt>
      <trkpt lat="37.194182518869638" lon="-3.818872533738613">
        <ele>550.97265625</ele>
        <time>2011-01-03T21:04:38Z</time>
      </trkpt>
      <trkpt lat="37.194830356165767" lon="-3.817046284675598">
        <ele>550.4921875</ele>
        <time>2011-01-03T21:04:44Z</time>
      </trkpt>
      <trkpt lat="37.195139983668923" lon="-3.815061869099736">
        <ele>550.97265625</ele>
        <time>2011-01-03T21:04:50Z</time>
      </trkpt>
      <trkpt lat="37.195111149922013" lon="-3.812605468556285">
        <ele>551.93408203125</ele>
        <time>2011-01-03T21:04:57Z</time>
      </trkpt>
      <trkpt lat="37.194855250418186" lon="-3.80859506316483">
        <ele>554.81787109375</ele>
        <time>2011-01-03T21:05:08Z</time>
      </trkpt>
      <trkpt lat="37.194513520225883" lon="-3.80475833080709">
        <ele>556.74072265625</ele>
        <time>2011-01-03T21:05:19Z</time>
      </trkpt>
      <trkpt lat="37.194196851924062" lon="-3.801282020285726">
        <ele>557.7021484375</ele>
        <time>2011-01-03T21:05:29Z</time>
      </trkpt>
      <trkpt lat="37.193675497546792" lon="-3.798002852126956">
        <ele>557.221435546875</ele>
        <time>2011-01-03T21:05:38Z</time>
      </trkpt>
      <trkpt lat="37.192965131253004" lon="-3.793660523369908">
        <ele>557.7021484375</ele>
        <time>2011-01-03T21:05:50Z</time>
      </trkpt>
      <trkpt lat="37.191931642591953" lon="-3.787594875320792">
        <ele>560.5859375</ele>
        <time>2011-01-03T21:06:07Z</time>
      </trkpt>
      <trkpt lat="37.19108666293323" lon="-3.783664181828499">
        <ele>562.9892578125</ele>
        <time>2011-01-03T21:06:18Z</time>
      </trkpt>
      <trkpt lat="37.190706375986338" lon="-3.781723687425256">
        <ele>563.469970703125</ele>
        <time>2011-01-03T21:06:24Z</time>
      </trkpt>
      <trkpt lat="37.190678380429745" lon="-3.780061220750213">
        <ele>563.950439453125</ele>
        <time>2011-01-03T21:06:29Z</time>
      </trkpt>
      <trkpt lat="37.190634878352284" lon="-3.777038538828492">
        <ele>563.950439453125</ele>
        <time>2011-01-03T21:06:38Z</time>
      </trkpt>
      <trkpt lat="37.190395072102547" lon="-3.774726390838623">
        <ele>564.911865234375</ele>
        <time>2011-01-03T21:06:45Z</time>
      </trkpt>
      <trkpt lat="37.190542845055461" lon="-3.772654216736555">
        <ele>565.873291015625</ele>
        <time>2011-01-03T21:06:51Z</time>
      </trkpt>
      <trkpt lat="37.190561955794692" lon="-3.770211897790432">
        <ele>567.315185546875</ele>
        <time>2011-01-03T21:06:58Z</time>
      </trkpt>
      <trkpt lat="37.190541755408049" lon="-3.76659938134253">
        <ele>567.795654296875</ele>
        <time>2011-01-03T21:07:09Z</time>
      </trkpt>
      <trkpt lat="37.190849874168634" lon="-3.764783861115575">
        <ele>567.795654296875</ele>
        <time>2011-01-03T21:07:15Z</time>
      </trkpt>
      <trkpt lat="37.191156568005681" lon="-3.762560393661261">
        <ele>568.2763671875</ele>
        <time>2011-01-03T21:07:22Z</time>
      </trkpt>
      <trkpt lat="37.191481282934546" lon="-3.759146025404334">
        <ele>570.198974609375</ele>
        <time>2011-01-03T21:07:32Z</time>
      </trkpt>
      <trkpt lat="37.191822426393628" lon="-3.755303760990501">
        <ele>571.640869140625</ele>
        <time>2011-01-03T21:07:43Z</time>
      </trkpt>
      <trkpt lat="37.191727543249726" lon="-3.752799667418003">
        <ele>571.640869140625</ele>
        <time>2011-01-03T21:07:50Z</time>
      </trkpt>
      <trkpt lat="37.191296378150582" lon="-3.748942483216524">
        <ele>572.121826171875</ele>
        <time>2011-01-03T21:08:01Z</time>
      </trkpt>
      <trkpt lat="37.190736886113882" lon="-3.744044937193394">
        <ele>574.04443359375</ele>
        <time>2011-01-03T21:08:15Z</time>
      </trkpt>
      <trkpt lat="37.190611744299531" lon="-3.741299947723746">
        <ele>575.486328125</ele>
        <time>2011-01-03T21:08:23Z</time>
      </trkpt>
      <trkpt lat="37.190865883603692" lon="-3.739662459120154">
        <ele>575.967041015625</ele>
        <time>2011-01-03T21:08:28Z</time>
      </trkpt>
      <trkpt lat="37.19159971922636" lon="-3.737078318372369">
        <ele>577.4091796875</ele>
        <time>2011-01-03T21:08:36Z</time>
      </trkpt>
      <trkpt lat="37.192616276443005" lon="-3.734546229243279">
        <ele>578.370361328125</ele>
        <time>2011-01-03T21:08:44Z</time>
      </trkpt>
      <trkpt lat="37.193934665992856" lon="-3.732122518122196">
        <ele>579.33154296875</ele>
        <time>2011-01-03T21:08:52Z</time>
      </trkpt>
      <trkpt lat="37.195278033614159" lon="-3.730194680392742">
        <ele>579.812255859375</ele>
        <time>2011-01-03T21:08:59Z</time>
      </trkpt>
      <trkpt lat="37.197223724797368" lon="-3.72805193066597">
        <ele>579.812255859375</ele>
        <time>2011-01-03T21:09:08Z</time>
      </trkpt>
      <trkpt lat="37.19897604547441" lon="-3.726598592475057">
        <ele>579.812255859375</ele>
        <time>2011-01-03T21:09:15Z</time>
      </trkpt>
      <trkpt lat="37.201146958395839" lon="-3.725208286195993">
        <ele>581.73486328125</ele>
        <time>2011-01-03T21:09:23Z</time>
      </trkpt>
      <trkpt lat="37.203498752787709" lon="-3.724140264093876">
        <ele>583.1767578125</ele>
        <time>2011-01-03T21:09:31Z</time>
      </trkpt>
      <trkpt lat="37.206395538523793" lon="-3.722773678600788">
        <ele>588.945068359375</ele>
        <time>2011-01-03T21:09:41Z</time>
      </trkpt>
      <trkpt lat="37.208503168076277" lon="-3.721361495554447">
        <ele>588.945068359375</ele>
        <time>2011-01-03T21:09:49Z</time>
      </trkpt>
      <trkpt lat="37.210413236171007" lon="-3.719632979482412">
        <ele>584.13818359375</ele>
        <time>2011-01-03T21:09:57Z</time>
      </trkpt>
      <trkpt lat="37.212107386440039" lon="-3.717635655775666">
        <ele>580.773681640625</ele>
        <time>2011-01-03T21:10:05Z</time>
      </trkpt>
      <trkpt lat="37.213569190353155" lon="-3.715399699285626">
        <ele>579.812255859375</ele>
        <time>2011-01-03T21:10:13Z</time>
      </trkpt>
      <trkpt lat="37.215576823800802" lon="-3.711884245276451">
        <ele>578.85107421875</ele>
        <time>2011-01-03T21:10:25Z</time>
      </trkpt>
      <trkpt lat="37.217212216928601" lon="-3.709734957665205">
        <ele>580.773681640625</ele>
        <time>2011-01-03T21:10:33Z</time>
      </trkpt>
      <trkpt lat="37.218542257323861" lon="-3.708446994423866">
        <ele>585.580078125</ele>
        <time>2011-01-03T21:10:39Z</time>
      </trkpt>
      <trkpt lat="37.220510998740792" lon="-3.707022489979863">
        <ele>590.867431640625</ele>
        <time>2011-01-03T21:10:47Z</time>
      </trkpt>
      <trkpt lat="37.222577137872577" lon="-3.705855896696448">
        <ele>588.945068359375</ele>
        <time>2011-01-03T21:10:55Z</time>
      </trkpt>
      <trkpt lat="37.223941963165998" lon="-3.704813355579972">
        <ele>586.54150390625</ele>
        <time>2011-01-03T21:11:01Z</time>
      </trkpt>
      <trkpt lat="37.224938319995999" lon="-3.703571073710918">
        <ele>586.060791015625</ele>
        <time>2011-01-03T21:11:06Z</time>
      </trkpt>
      <trkpt lat="37.225687494501472" lon="-3.702073898166418">
        <ele>588.945068359375</ele>
        <time>2011-01-03T21:11:11Z</time>
      </trkpt>
      <trkpt lat="37.226133160293102" lon="-3.700432889163494">
        <ele>594.712646484375</ele>
        <time>2011-01-03T21:11:16Z</time>
      </trkpt>
      <trkpt lat="37.226293841376901" lon="-3.69873957708478">
        <ele>601.922607421875</ele>
        <time>2011-01-03T21:11:21Z</time>
      </trkpt>
      <trkpt lat="37.226504562422633" lon="-3.696128949522972">
        <ele>614.900390625</ele>
        <time>2011-01-03T21:11:29Z</time>
      </trkpt>
      <trkpt lat="37.226995155215263" lon="-3.694635462015867">
        <ele>622.591064453125</ele>
        <time>2011-01-03T21:11:34Z</time>
      </trkpt>
      <trkpt lat="37.227935437113047" lon="-3.693092353641987">
        <ele>630.76220703125</ele>
        <time>2011-01-03T21:11:40Z</time>
      </trkpt>
      <trkpt lat="37.230864828452468" lon="-3.688892517238855">
        <ele>652.391845703125</ele>
        <time>2011-01-03T21:11:57Z</time>
      </trkpt>
      <trkpt lat="37.231505792587996" lon="-3.687418140470982">
        <ele>655.27587890625</ele>
        <time>2011-01-03T21:12:02Z</time>
      </trkpt>
      <trkpt lat="37.23184316419065" lon="-3.685741340741515">
        <ele>657.198486328125</ele>
        <time>2011-01-03T21:12:07Z</time>
      </trkpt>
      <trkpt lat="37.231852971017361" lon="-3.683974854648113">
        <ele>656.7177734375</ele>
        <time>2011-01-03T21:12:12Z</time>
      </trkpt>
      <trkpt lat="37.231526663526893" lon="-3.680401984602213">
        <ele>649.5078125</ele>
        <time>2011-01-03T21:12:22Z</time>
      </trkpt>
      <trkpt lat="37.23115467466414" lon="-3.675703341141343">
        <ele>635.568603515625</ele>
        <time>2011-01-03T21:12:35Z</time>
      </trkpt>
      <trkpt lat="37.231175377964973" lon="-3.672793982550502">
        <ele>632.2041015625</ele>
        <time>2011-01-03T21:12:43Z</time>
      </trkpt>
      <trkpt lat="37.231463128700852" lon="-3.67034588009119">
        <ele>631.242919921875</ele>
        <time>2011-01-03T21:12:50Z</time>
      </trkpt>
      <trkpt lat="37.232066290453076" lon="-3.667895430698991">
        <ele>633.64599609375</ele>
        <time>2011-01-03T21:12:57Z</time>
      </trkpt>
      <trkpt lat="37.232906576246023" lon="-3.665650757029653">
        <ele>637.97216796875</ele>
        <time>2011-01-03T21:13:04Z</time>
      </trkpt>
      <trkpt lat="37.233869573101401" lon="-3.663727780804038">
        <ele>643.25927734375</ele>
        <time>2011-01-03T21:13:11Z</time>
      </trkpt>
      <trkpt lat="37.235515359789133" lon="-3.661005673930049">
        <ele>652.87255859375</ele>
        <time>2011-01-03T21:13:22Z</time>
      </trkpt>
      <trkpt lat="37.236853949725628" lon="-3.658953532576561">
        <ele>661.5244140625</ele>
        <time>2011-01-03T21:13:31Z</time>
      </trkpt>
      <trkpt lat="37.238569976761937" lon="-3.656380455940962">
        <ele>672.57958984375</ele>
        <time>2011-01-03T21:13:43Z</time>
      </trkpt>
      <trkpt lat="37.239387799054384" lon="-3.655146639794111">
        <ele>676.905517578125</ele>
        <time>2011-01-03T21:13:50Z</time>
      </trkpt>
      <trkpt lat="37.240157760679722" lon="-3.653890192508698">
        <ele>680.750732421875</ele>
        <time>2011-01-03T21:13:58Z</time>
      </trkpt>
      <trkpt lat="37.240281477570534" lon="-3.65367041900754">
        <ele>681.7119140625</ele>
        <time>2011-01-03T21:14:00Z</time>
      </trkpt>
      <trkpt lat="37.240465963259339" lon="-3.652742877602577">
        <ele>683.634521484375</ele>
        <time>2011-01-03T21:14:07Z</time>
      </trkpt>
      <trkpt lat="37.240313747897744" lon="-3.651480562984943">
        <ele>681.2314453125</ele>
        <time>2011-01-03T21:14:15Z</time>
      </trkpt>
      <trkpt lat="37.240274185314775" lon="-3.651324659585953">
        <ele>680.750732421875</ele>
        <time>2011-01-03T21:14:16Z</time>
      </trkpt>
      <trkpt lat="37.240054747089744" lon="-3.650851920247078">
        <ele>679.789306640625</ele>
        <time>2011-01-03T21:14:20Z</time>
      </trkpt>
      <trkpt lat="37.239418644458055" lon="-3.650114145129919">
        <ele>678.347412109375</ele>
        <time>2011-01-03T21:14:27Z</time>
      </trkpt>
      <trkpt lat="37.238393370062113" lon="-3.648954425007105">
        <ele>676.905517578125</ele>
        <time>2011-01-03T21:14:35Z</time>
      </trkpt>
      <trkpt lat="37.237232644110918" lon="-3.647339483723044">
        <ele>676.4248046875</ele>
        <time>2011-01-03T21:14:44Z</time>
      </trkpt>
      <trkpt lat="37.236158335581422" lon="-3.645601663738489">
        <ele>675.944091796875</ele>
        <time>2011-01-03T21:14:52Z</time>
      </trkpt>
      <trkpt lat="37.234415989369154" lon="-3.642910486087203">
        <ele>676.4248046875</ele>
        <time>2011-01-03T21:15:04Z</time>
      </trkpt>
      <trkpt lat="37.233003890141845" lon="-3.641361845657229">
        <ele>675.944091796875</ele>
        <time>2011-01-03T21:15:12Z</time>
      </trkpt>
      <trkpt lat="37.2314986679703" lon="-3.640197766944766">
        <ele>673.060302734375</ele>
        <time>2011-01-03T21:15:20Z</time>
      </trkpt>
      <trkpt lat="37.230051197111607" lon="-3.639127146452665">
        <ele>672.098876953125</ele>
        <time>2011-01-03T21:15:29Z</time>
      </trkpt>
      <trkpt lat="37.229316355660558" lon="-3.638605289161205">
        <ele>671.1376953125</ele>
        <time>2011-01-03T21:15:35Z</time>
      </trkpt>
      <trkpt lat="37.22862845286727" lon="-3.638208573684096">
        <ele>674.502197265625</ele>
        <time>2011-01-03T21:15:43Z</time>
      </trkpt>
      <trkpt lat="37.228403566405177" lon="-3.638146463781595">
        <ele>674.502197265625</ele>
        <time>2011-01-03T21:15:48Z</time>
      </trkpt>
      <trkpt lat="37.228297367691994" lon="-3.638171693310142">
        <ele>674.021484375</ele>
        <time>2011-01-03T21:15:53Z</time>
      </trkpt>
      <trkpt lat="37.228163760155439" lon="-3.638024674728513">
        <ele>673.541015625</ele>
        <time>2011-01-03T21:15:58Z</time>
      </trkpt>
      <trkpt lat="37.228266857564449" lon="-3.637904981151223">
        <ele>674.021484375</ele>
        <time>2011-01-03T21:16:01Z</time>
      </trkpt>
      <trkpt lat="37.228379929438233" lon="-3.63783348351717">
        <ele>674.502197265625</ele>
        <time>2011-01-03T21:16:03Z</time>
      </trkpt>
      <trkpt lat="37.228799276053905" lon="-3.637329563498497">
        <ele>674.98291015625</ele>
        <time>2011-01-03T21:16:10Z</time>
      </trkpt>
      <trkpt lat="37.229254245758057" lon="-3.636695556342602">
        <ele>674.502197265625</ele>
        <time>2011-01-03T21:16:18Z</time>
      </trkpt>
      <trkpt lat="37.229314763098955" lon="-3.636522134765983">
        <ele>674.021484375</ele>
        <time>2011-01-03T21:16:21Z</time>
      </trkpt>
      <trkpt lat="37.229488436132669" lon="-3.63630604930222">
        <ele>673.541015625</ele>
        <time>2011-01-03T21:16:25Z</time>
      </trkpt>
      <trkpt lat="37.230092938989401" lon="-3.635743036866188">
        <ele>672.57958984375</ele>
        <time>2011-01-03T21:16:33Z</time>
      </trkpt>
      <trkpt lat="37.231132462620735" lon="-3.634571665897965">
        <ele>674.98291015625</ele>
        <time>2011-01-03T21:16:47Z</time>
      </trkpt>
      <trkpt lat="37.231776528060436" lon="-3.633820479735732">
        <ele>676.905517578125</ele>
        <time>2011-01-03T21:16:56Z</time>
      </trkpt>
      <trkpt lat="37.232389999553561" lon="-3.633103240281344">
        <ele>678.828125</ele>
        <time>2011-01-03T21:17:06Z</time>
      </trkpt>
      <trkpt lat="37.233202625066042" lon="-3.63215608522296">
        <ele>684.115478515625</ele>
        <time>2011-01-03T21:17:18Z</time>
      </trkpt>
      <trkpt lat="37.233707299456" lon="-3.631569016724825">
        <ele>687.960693359375</ele>
        <time>2011-01-03T21:17:27Z</time>
      </trkpt>
      <trkpt lat="37.23390955477953" lon="-3.63125897012651">
        <ele>690.364013671875</ele>
        <time>2011-01-03T21:17:35Z</time>
      </trkpt>
      <trkpt lat="37.23412262275815" lon="-3.630995778366923">
        <ele>692.767333984375</ele>
        <time>2011-01-03T21:17:43Z</time>
      </trkpt>
      <trkpt lat="37.234256565570831" lon="-3.631112370640039">
        <ele>693.728515625</ele>
        <time>2011-01-03T21:17:49Z</time>
      </trkpt>
      <trkpt lat="37.23411968909204" lon="-3.631356535479426">
        <ele>694.209228515625</ele>
        <time>2011-01-03T21:18:41Z</time>
      </trkpt>
      <trkpt lat="37.233946351334453" lon="-3.63143146969378">
        <ele>692.28662109375</ele>
        <time>2011-01-03T21:18:44Z</time>
      </trkpt>
      <trkpt lat="37.233681483194232" lon="-3.631652081385255">
        <ele>690.844482421875</ele>
        <time>2011-01-03T21:18:49Z</time>
      </trkpt>
      <trkpt lat="37.23290984518826" lon="-3.632554057985544">
        <ele>687.960693359375</ele>
        <time>2011-01-03T21:18:59Z</time>
      </trkpt>
      <trkpt lat="37.232117922976613" lon="-3.633470954373479">
        <ele>684.115478515625</ele>
        <time>2011-01-03T21:19:09Z</time>
      </trkpt>
      <trkpt lat="37.231340333819389" lon="-3.634380558505654">
        <ele>681.2314453125</ele>
        <time>2011-01-03T21:19:17Z</time>
      </trkpt>
      <trkpt lat="37.229996044188738" lon="-3.635945543646812">
        <ele>677.38623046875</ele>
        <time>2011-01-03T21:19:32Z</time>
      </trkpt>
      <trkpt lat="37.229699240997434" lon="-3.636301439255476">
        <ele>676.4248046875</ele>
        <time>2011-01-03T21:19:37Z</time>
      </trkpt>
      <trkpt lat="37.229495057836175" lon="-3.636755989864469">
        <ele>676.905517578125</ele>
        <time>2011-01-03T21:19:44Z</time>
      </trkpt>
      <trkpt lat="37.229425571858883" lon="-3.637150442227721">
        <ele>676.4248046875</ele>
        <time>2011-01-03T21:19:48Z</time>
      </trkpt>
      <trkpt lat="37.229419788345695" lon="-3.637775396928191">
        <ele>673.541015625</ele>
        <time>2011-01-03T21:19:53Z</time>
      </trkpt>
      <trkpt lat="37.229692619293928" lon="-3.638480734080076">
        <ele>670.656982421875</ele>
        <time>2011-01-03T21:19:59Z</time>
      </trkpt>
      <trkpt lat="37.229774678125978" lon="-3.638583328574896">
        <ele>670.656982421875</ele>
        <time>2011-01-03T21:20:00Z</time>
      </trkpt>
      <trkpt lat="37.230563499033451" lon="-3.639288917183876">
        <ele>672.098876953125</ele>
        <time>2011-01-03T21:20:07Z</time>
      </trkpt>
      <trkpt lat="37.231886079534888" lon="-3.640265073627234">
        <ele>675.944091796875</ele>
        <time>2011-01-03T21:20:16Z</time>
      </trkpt>
      <trkpt lat="37.232920741662383" lon="-3.641046937555075">
        <ele>678.347412109375</ele>
        <time>2011-01-03T21:20:24Z</time>
      </trkpt>
      <trkpt lat="37.233603280037642" lon="-3.641544571146369">
        <ele>679.30859375</ele>
        <time>2011-01-03T21:20:31Z</time>
      </trkpt>
      <trkpt lat="37.233713418245316" lon="-3.641609782353044">
        <ele>679.789306640625</ele>
        <time>2011-01-03T21:20:33Z</time>
      </trkpt>
      <trkpt lat="37.233939645811915" lon="-3.641517832875252">
        <ele>680.750732421875</ele>
        <time>2011-01-03T21:20:40Z</time>
      </trkpt>
      <trkpt lat="37.234181882813573" lon="-3.640925232321024">
        <ele>681.2314453125</ele>
        <time>2011-01-03T21:20:49Z</time>
      </trkpt>
      <trkpt lat="37.234443230554461" lon="-3.640312263742089">
        <ele>683.634521484375</ele>
        <time>2011-01-03T21:20:59Z</time>
      </trkpt>
      <trkpt lat="37.234555967152119" lon="-3.640354089438915">
        <ele>685.557373046875</ele>
        <time>2011-01-03T21:21:24Z</time>
      </trkpt>
      <trkpt lat="37.234274670481682" lon="-3.64099346101284">
        <ele>683.15380859375</ele>
        <time>2011-01-03T21:21:32Z</time>
      </trkpt>
      <trkpt lat="37.233963198959827" lon="-3.641639370471239">
        <ele>681.7119140625</ele>
        <time>2011-01-03T21:21:39Z</time>
      </trkpt>
      <trkpt lat="37.234011730179191" lon="-3.641995685175061">
        <ele>680.750732421875</ele>
        <time>2011-01-03T21:21:45Z</time>
      </trkpt>
      <trkpt lat="37.23481304012239" lon="-3.642949126660824">
        <ele>680.27001953125</ele>
        <time>2011-01-03T21:21:56Z</time>
      </trkpt>
      <trkpt lat="37.235317127779126" lon="-3.643707940354943">
        <ele>679.789306640625</ele>
        <time>2011-01-03T21:22:04Z</time>
      </trkpt>
      <trkpt lat="37.235479652881622" lon="-3.643953697755933">
        <ele>679.789306640625</ele>
        <time>2011-01-03T21:22:07Z</time>
      </trkpt>
      <trkpt lat="37.235721135511994" lon="-3.64406006410718">
        <ele>679.789306640625</ele>
        <time>2011-01-03T21:22:13Z</time>
      </trkpt>
      <trkpt lat="37.23575122654438" lon="-3.644185960292816">
        <ele>678.828125</ele>
        <time>2011-01-03T21:22:20Z</time>
      </trkpt>
      <trkpt lat="37.235683752223849" lon="-3.644364159554243">
        <ele>683.15380859375</ele>
        <time>2011-01-03T22:30:13Z</time>
      </trkpt>
      <trkpt lat="37.236108295619488" lon="-3.645046362653375">
        <ele>680.750732421875</ele>
        <time>2011-01-03T22:30:26Z</time>
      </trkpt>
      <trkpt lat="37.236208794638515" lon="-3.645194889977574">
        <ele>680.27001953125</ele>
        <time>2011-01-03T22:30:29Z</time>
      </trkpt>
      <trkpt lat="37.236537951976061" lon="-3.645269153639674">
        <ele>681.7119140625</ele>
        <time>2011-01-03T22:30:35Z</time>
      </trkpt>
      <trkpt lat="37.236904744058847" lon="-3.645041417330504">
        <ele>687.47998046875</ele>
        <time>2011-01-03T22:30:45Z</time>
      </trkpt>
      <trkpt lat="37.23712426610291" lon="-3.645203523337841">
        <ele>688.44140625</ele>
        <time>2011-01-03T22:30:54Z</time>
      </trkpt>
      <trkpt lat="37.237224681302905" lon="-3.645453555509448">
        <ele>687.960693359375</ele>
        <time>2011-01-03T22:30:57Z</time>
      </trkpt>
      <trkpt lat="37.237213281914592" lon="-3.645979939028621">
        <ele>687.47998046875</ele>
        <time>2011-01-03T22:31:02Z</time>
      </trkpt>
      <trkpt lat="37.237099790945649" lon="-3.646152187138796">
        <ele>687.47998046875</ele>
        <time>2011-01-03T22:31:04Z</time>
      </trkpt>
      <trkpt lat="37.236596290022135" lon="-3.646657699719071">
        <ele>687.960693359375</ele>
        <time>2011-01-03T22:31:12Z</time>
      </trkpt>
      <trkpt lat="37.236505430191755" lon="-3.646826930344105">
        <ele>687.47998046875</ele>
        <time>2011-01-03T22:31:15Z</time>
      </trkpt>
      <trkpt lat="37.23626771941781" lon="-3.646886441856623">
        <ele>685.557373046875</ele>
        <time>2011-01-03T22:31:20Z</time>
      </trkpt>
      <trkpt lat="37.236257242038846" lon="-3.646750655025244">
        <ele>686.0380859375</ele>
        <time>2011-01-03T22:31:22Z</time>
      </trkpt>
      <trkpt lat="37.236280124634504" lon="-3.646596428006887">
        <ele>686.0380859375</ele>
        <time>2011-01-03T22:31:24Z</time>
      </trkpt>
      <trkpt lat="37.236200077459216" lon="-3.6460932623595">
        <ele>685.076904296875</ele>
        <time>2011-01-03T22:31:29Z</time>
      </trkpt>
      <trkpt lat="37.235719291493297" lon="-3.645136635750532">
        <ele>682.192626953125</ele>
        <time>2011-01-03T22:31:37Z</time>
      </trkpt>
      <trkpt lat="37.234737351536751" lon="-3.643589252606034">
        <ele>683.15380859375</ele>
        <time>2011-01-03T22:31:50Z</time>
      </trkpt>
      <trkpt lat="37.233835039660335" lon="-3.642400279641151">
        <ele>683.634521484375</ele>
        <time>2011-01-03T22:32:00Z</time>
      </trkpt>
      <trkpt lat="37.232839353382587" lon="-3.6412787809968">
        <ele>683.634521484375</ele>
        <time>2011-01-03T22:32:09Z</time>
      </trkpt>
      <trkpt lat="37.231810139492154" lon="-3.640429778024554">
        <ele>681.7119140625</ele>
        <time>2011-01-03T22:32:16Z</time>
      </trkpt>
      <trkpt lat="37.229889174923301" lon="-3.638970321044326">
        <ele>678.347412109375</ele>
        <time>2011-01-03T22:32:27Z</time>
      </trkpt>
      <trkpt lat="37.228513453155756" lon="-3.637582277879119">
        <ele>675.944091796875</ele>
        <time>2011-01-03T22:32:35Z</time>
      </trkpt>
      <trkpt lat="37.226887950673699" lon="-3.63581738434732">
        <ele>675.944091796875</ele>
        <time>2011-01-03T22:32:45Z</time>
      </trkpt>
      <trkpt lat="37.225277367979288" lon="-3.634586334228516">
        <ele>675.46337890625</ele>
        <time>2011-01-03T22:32:54Z</time>
      </trkpt>
      <trkpt lat="37.224348736926913" lon="-3.633622834458947">
        <ele>675.944091796875</ele>
        <time>2011-01-03T22:33:00Z</time>
      </trkpt>
      <trkpt lat="37.223221957683563" lon="-3.631858779117465">
        <ele>676.4248046875</ele>
        <time>2011-01-03T22:33:09Z</time>
      </trkpt>
      <trkpt lat="37.222366165369749" lon="-3.630788829177618">
        <ele>677.38623046875</ele>
        <time>2011-01-03T22:33:15Z</time>
      </trkpt>
      <trkpt lat="37.220963537693024" lon="-3.62965727224946">
        <ele>679.789306640625</ele>
        <time>2011-01-03T22:33:23Z</time>
      </trkpt>
      <trkpt lat="37.220031889155507" lon="-3.62875621765852">
        <ele>681.7119140625</ele>
        <time>2011-01-03T22:33:29Z</time>
      </trkpt>
      <trkpt lat="37.219335436820984" lon="-3.627638155594468">
        <ele>684.115478515625</ele>
        <time>2011-01-03T22:33:35Z</time>
      </trkpt>
      <trkpt lat="37.21838342025876" lon="-3.625801093876362">
        <ele>686.0380859375</ele>
        <time>2011-01-03T22:33:44Z</time>
      </trkpt>
      <trkpt lat="37.217610692605376" lon="-3.625045130029321">
        <ele>687.47998046875</ele>
        <time>2011-01-03T22:33:49Z</time>
      </trkpt>
      <trkpt lat="37.2166976518929" lon="-3.62463609315455">
        <ele>688.922119140625</ele>
        <time>2011-01-03T22:33:54Z</time>
      </trkpt>
      <trkpt lat="37.215339196845889" lon="-3.624510448426008">
        <ele>690.844482421875</ele>
        <time>2011-01-03T22:34:01Z</time>
      </trkpt>
      <trkpt lat="37.213442120701075" lon="-3.624320095404983">
        <ele>689.88330078125</ele>
        <time>2011-01-03T22:34:10Z</time>
      </trkpt>
      <trkpt lat="37.211737157776952" lon="-3.623903095722199">
        <ele>692.767333984375</ele>
        <time>2011-01-03T22:34:18Z</time>
      </trkpt>
      <trkpt lat="37.210042923688889" lon="-3.623467236757278">
        <ele>697.093017578125</ele>
        <time>2011-01-03T22:34:27Z</time>
      </trkpt>
      <trkpt lat="37.208860320970416" lon="-3.623497327789664">
        <ele>697.093017578125</ele>
        <time>2011-01-03T22:34:33Z</time>
      </trkpt>
      <trkpt lat="37.207874022424221" lon="-3.623879458755255">
        <ele>694.689697265625</ele>
        <time>2011-01-03T22:34:38Z</time>
      </trkpt>
      <trkpt lat="37.206746488809586" lon="-3.624723264947534">
        <ele>691.3251953125</ele>
        <time>2011-01-03T22:34:44Z</time>
      </trkpt>
      <trkpt lat="37.204736424610019" lon="-3.626494444906712">
        <ele>686.0380859375</ele>
        <time>2011-01-03T22:34:55Z</time>
      </trkpt>
      <trkpt lat="37.20211892388761" lon="-3.628754373639822">
        <ele>673.541015625</ele>
        <time>2011-01-03T22:35:09Z</time>
      </trkpt>
      <trkpt lat="37.199934683740139" lon="-3.630227074027062">
        <ele>662.96630859375</ele>
        <time>2011-01-03T22:35:19Z</time>
      </trkpt>
      <trkpt lat="37.19804179854691" lon="-3.631212953478098">
        <ele>659.601806640625</ele>
        <time>2011-01-03T22:35:28Z</time>
      </trkpt>
      <trkpt lat="37.195987896993756" lon="-3.63203588873148">
        <ele>660.082275390625</ele>
        <time>2011-01-03T22:35:38Z</time>
      </trkpt>
      <trkpt lat="37.193614896386862" lon="-3.632685989141464">
        <ele>655.756591796875</ele>
        <time>2011-01-03T22:35:49Z</time>
      </trkpt>
      <trkpt lat="37.190222153440118" lon="-3.633543876931071">
        <ele>657.67919921875</ele>
        <time>2011-01-03T22:36:04Z</time>
      </trkpt>
      <trkpt lat="37.188928658142686" lon="-3.633456453680992">
        <ele>655.756591796875</ele>
        <time>2011-01-03T22:36:10Z</time>
      </trkpt>
      <trkpt lat="37.187667433172464" lon="-3.632997963577509">
        <ele>652.391845703125</ele>
        <time>2011-01-03T22:36:16Z</time>
      </trkpt>
      <trkpt lat="37.186479549854994" lon="-3.632132867351174">
        <ele>649.027099609375</ele>
        <time>2011-01-03T22:36:22Z</time>
      </trkpt>
      <trkpt lat="37.185538932681084" lon="-3.630973817780614">
        <ele>647.585205078125</ele>
        <time>2011-01-03T22:36:28Z</time>
      </trkpt>
      <trkpt lat="37.184725888073444" lon="-3.629389135167003">
        <ele>648.06591796875</ele>
        <time>2011-01-03T22:36:35Z</time>
      </trkpt>
      <trkpt lat="37.183378078043461" lon="-3.626428982242942">
        <ele>652.87255859375</ele>
        <time>2011-01-03T22:36:48Z</time>
      </trkpt>
      <trkpt lat="37.181687531992793" lon="-3.62272996455431">
        <ele>659.601806640625</ele>
        <time>2011-01-03T22:37:04Z</time>
      </trkpt>
      <trkpt lat="37.180238133296371" lon="-3.61960862763226">
        <ele>662.96630859375</ele>
        <time>2011-01-03T22:37:18Z</time>
      </trkpt>
      <trkpt lat="37.178961988538504" lon="-3.617339143529534">
        <ele>663.927490234375</ele>
        <time>2011-01-03T22:37:28Z</time>
      </trkpt>
      <trkpt lat="37.177411587908864" lon="-3.615289181470871">
        <ele>664.888916015625</ele>
        <time>2011-01-03T22:37:38Z</time>
      </trkpt>
      <trkpt lat="37.175807878375053" lon="-3.613684717565775">
        <ele>664.888916015625</ele>
        <time>2011-01-03T22:37:47Z</time>
      </trkpt>
      <trkpt lat="37.174117164686322" lon="-3.612397676333785">
        <ele>663.447021484375</ele>
        <time>2011-01-03T22:37:56Z</time>
      </trkpt>
      <trkpt lat="37.172467773780227" lon="-3.611480528488755">
        <ele>662.96630859375</ele>
        <time>2011-01-03T22:38:05Z</time>
      </trkpt>
      <trkpt lat="37.170763146132231" lon="-3.6107839923352">
        <ele>663.447021484375</ele>
        <time>2011-01-03T22:38:15Z</time>
      </trkpt>
      <trkpt lat="37.169636450707912" lon="-3.610506718978286">
        <ele>664.888916015625</ele>
        <time>2011-01-03T22:38:22Z</time>
      </trkpt>
      <trkpt lat="37.168505564332008" lon="-3.61033539287746">
        <ele>662.005126953125</ele>
        <time>2011-01-03T22:38:31Z</time>
      </trkpt>
      <trkpt lat="37.16807859018445" lon="-3.610300524160266">
        <ele>659.601806640625</ele>
        <time>2011-01-03T22:38:37Z</time>
      </trkpt>
      <trkpt lat="37.167694279924035" lon="-3.610517866909504">
        <ele>658.159912109375</ele>
        <time>2011-01-03T22:38:43Z</time>
      </trkpt>
      <trkpt lat="37.167379455640912" lon="-3.610478555783629">
        <ele>657.67919921875</ele>
        <time>2011-01-03T22:38:47Z</time>
      </trkpt>
      <trkpt lat="37.167248278856277" lon="-3.610124923288822">
        <ele>658.640380859375</ele>
        <time>2011-01-03T22:38:51Z</time>
      </trkpt>
      <trkpt lat="37.167325057089329" lon="-3.609135188162327">
        <ele>659.601806640625</ele>
        <time>2011-01-03T22:39:00Z</time>
      </trkpt>
      <trkpt lat="37.167567126452923" lon="-3.608789434656501">
        <ele>660.082275390625</ele>
        <time>2011-01-03T22:39:06Z</time>
      </trkpt>
      <trkpt lat="37.16780249029398" lon="-3.608730928972364">
        <ele>659.601806640625</ele>
        <time>2011-01-03T22:39:09Z</time>
      </trkpt>
      <trkpt lat="37.168121673166752" lon="-3.608528925105929">
        <ele>660.56298828125</ele>
        <time>2011-01-03T22:39:13Z</time>
      </trkpt>
      <trkpt lat="37.168795997276902" lon="-3.607766423374414">
        <ele>662.96630859375</ele>
        <time>2011-01-03T22:39:23Z</time>
      </trkpt>
      <trkpt lat="37.169134877622128" lon="-3.60740658827126">
        <ele>663.447021484375</ele>
        <time>2011-01-03T22:39:31Z</time>
      </trkpt>
      <trkpt lat="37.169348448514938" lon="-3.607172733172774">
        <ele>663.447021484375</ele>
        <time>2011-01-03T22:39:38Z</time>
      </trkpt>
      <trkpt lat="37.169572496786714" lon="-3.606896046549082">
        <ele>664.408203125</ele>
        <time>2011-01-03T22:39:42Z</time>
      </trkpt>
      <trkpt lat="37.169682383537292" lon="-3.606710135936737">
        <ele>665.36962890625</ele>
        <time>2011-01-03T22:39:44Z</time>
      </trkpt>
      <trkpt lat="37.170125870034099" lon="-3.60598174855113">
        <ele>671.1376953125</ele>
        <time>2011-01-03T22:39:53Z</time>
      </trkpt>
      <trkpt lat="37.170303398743272" lon="-3.605609592050314">
        <ele>670.17626953125</ele>
        <time>2011-01-03T22:40:01Z</time>
      </trkpt>
      <trkpt lat="37.170393923297524" lon="-3.605373054742813">
        <ele>668.734375</ele>
        <time>2011-01-03T22:40:10Z</time>
      </trkpt>
      <trkpt lat="37.170464750379324" lon="-3.605135260149837">
        <ele>666.330810546875</ele>
        <time>2011-01-03T22:40:19Z</time>
      </trkpt>
      <trkpt lat="37.170433737337589" lon="-3.604965778067708">
        <ele>666.8115234375</ele>
        <time>2011-01-03T22:41:08Z</time>
      </trkpt>
      <trkpt lat="37.170493248850107" lon="-3.604876343160868">
        <ele>667.292236328125</ele>
        <time>2011-01-03T22:41:10Z</time>
      </trkpt>
      <trkpt lat="37.170696845278144" lon="-3.604683056473732">
        <ele>670.656982421875</ele>
        <time>2011-01-03T22:41:14Z</time>
      </trkpt>
      <trkpt lat="37.170972442254424" lon="-3.604240575805306">
        <ele>672.098876953125</ele>
        <time>2011-01-03T22:41:20Z</time>
      </trkpt>
      <trkpt lat="37.171510895714164" lon="-3.603392075747252">
        <ele>676.4248046875</ele>
        <time>2011-01-03T22:41:30Z</time>
      </trkpt>
      <trkpt lat="37.171649280935526" lon="-3.603129638358951">
        <ele>676.905517578125</ele>
        <time>2011-01-03T22:41:33Z</time>
      </trkpt>
      <trkpt lat="37.172057060524821" lon="-3.602343751117587">
        <ele>677.86669921875</ele>
        <time>2011-01-03T22:41:43Z</time>
      </trkpt>
      <trkpt lat="37.172473976388574" lon="-3.601592732593417">
        <ele>678.347412109375</ele>
        <time>2011-01-03T22:41:52Z</time>
      </trkpt>
      <trkpt lat="37.172648319974542" lon="-3.601265922188759">
        <ele>679.30859375</ele>
        <time>2011-01-03T22:41:56Z</time>
      </trkpt>
      <trkpt lat="37.172944871708751" lon="-3.600664772093296">
        <ele>680.750732421875</ele>
        <time>2011-01-03T22:42:05Z</time>
      </trkpt>
      <trkpt lat="37.173046292737126" lon="-3.60053644515574">
        <ele>683.15380859375</ele>
        <time>2011-01-03T22:42:12Z</time>
      </trkpt>
      <trkpt lat="37.173262797296047" lon="-3.600203432142735">
        <ele>686.0380859375</ele>
        <time>2011-01-03T22:42:21Z</time>
      </trkpt>
      <trkpt lat="37.173340916633606" lon="-3.599895061925054">
        <ele>686.518798828125</ele>
        <time>2011-01-03T22:43:03Z</time>
      </trkpt>
      <trkpt lat="37.173336641862988" lon="-3.599625835195184">
        <ele>686.999267578125</ele>
        <time>2011-01-03T22:43:11Z</time>
      </trkpt>
      <trkpt lat="37.173243267461658" lon="-3.599582584574819">
        <ele>686.518798828125</ele>
        <time>2011-01-03T22:43:13Z</time>
      </trkpt>
      <trkpt lat="37.172409435734153" lon="-3.599241860210896">
        <ele>696.612548828125</ele>
        <time>2011-01-03T22:43:27Z</time>
      </trkpt>
      <trkpt lat="37.171924877911806" lon="-3.598965341225267">
        <ele>693.728515625</ele>
        <time>2011-01-03T22:43:39Z</time>
      </trkpt>
      <trkpt lat="37.171806525439024" lon="-3.598887557163835">
        <ele>689.88330078125</ele>
        <time>2011-01-03T22:44:08Z</time>
      </trkpt>
      <trkpt lat="37.171558672562242" lon="-3.598785633221269">
        <ele>689.402587890625</ele>
        <time>2011-01-03T22:44:37Z</time>
      </trkpt>
      <trkpt lat="37.171557163819671" lon="-3.598630735650659">
        <ele>686.999267578125</ele>
        <time>2011-01-03T22:44:44Z</time>
      </trkpt>
      <trkpt lat="37.17165338806808" lon="-3.598458655178547">
        <ele>680.750732421875</ele>
        <time>2011-01-03T22:46:10Z</time>
      </trkpt>
      <trkpt lat="37.171611478552222" lon="-3.59828582033515">
        <ele>679.789306640625</ele>
        <time>2011-01-03T22:46:17Z</time>
      </trkpt>
      <trkpt lat="37.17141492292285" lon="-3.597975941374898">
        <ele>690.844482421875</ele>
        <time>2011-01-03T22:46:27Z</time>
      </trkpt>
      <trkpt lat="37.171338060870767" lon="-3.597858678549528">
        <ele>698.054443359375</ele>
        <time>2011-01-03T22:47:34Z</time>
      </trkpt>
      <trkpt lat="37.171263629570603" lon="-3.597788689658046">
        <ele>706.2255859375</ele>
        <time>2011-01-03T22:47:50Z</time>
      </trkpt>
      <trkpt lat="37.170945787802339" lon="-3.597444947808981">
        <ele>717.281005859375</ele>
        <time>2011-01-03T22:47:59Z</time>
      </trkpt>
      <trkpt lat="37.170690894126892" lon="-3.597134398296475">
        <ele>723.529541015625</ele>
        <time>2011-01-03T22:48:07Z</time>
      </trkpt>
      <trkpt lat="37.170583689585328" lon="-3.597119059413672">
        <ele>696.1318359375</ele>
        <time>2011-01-03T22:49:12Z</time>
      </trkpt>
    </trkseg>
  </trk>

  <trk>
    <name>110104 España</name>
    <desc>Tracklog</desc>
    <extensions>
      <gpxx:TrackExtension xmlns:gpxx="http://www.garmin.com/xmlschemas/GpxExtensions/v3">
        <gpxx:DisplayColor>Green</gpxx:DisplayColor>
      </gpxx:TrackExtension>
    </extensions>
    <trkseg>
      <trkpt lat="37.169297989457846" lon="-3.596468036994338">
        <ele>677.5</ele>
        <time>2011-01-04T06:58:49Z</time>
      </trkpt>
      <trkpt lat="37.169282985851169" lon="-3.596500977873802">
        <ele>677.60000000000002</ele>
        <time>2011-01-04T06:58:50Z</time>
      </trkpt>
      <trkpt lat="37.169266976416111" lon="-3.596530985087156">
        <ele>677.39999999999998</ele>
        <time>2011-01-04T06:58:51Z</time>
      </trkpt>
      <trkpt lat="37.169196987524629" lon="-3.596679009497166">
        <ele>676.20000000000005</ele>
        <time>2011-01-04T06:58:58Z</time>
      </trkpt>
      <trkpt lat="37.169192964211106" lon="-3.596680015325546">
        <ele>676.29999999999995</ele>
        <time>2011-01-04T06:58:59Z</time>
      </trkpt>
      <trkpt lat="37.169191036373377" lon="-3.596678003668785">
        <ele>676.70000000000005</ele>
        <time>2011-01-04T06:59:00Z</time>
      </trkpt>
      <trkpt lat="37.169185001403093" lon="-3.596679009497166">
        <ele>677.79999999999995</ele>
        <time>2011-01-04T06:59:01Z</time>
      </trkpt>
      <trkpt lat="37.16917997226119" lon="-3.596679009497166">
        <ele>679.10000000000002</ele>
        <time>2011-01-04T06:59:02Z</time>
      </trkpt>
      <trkpt lat="37.169175026938319" lon="-3.596679009497166">
        <ele>680.29999999999995</ele>
        <time>2011-01-04T06:59:03Z</time>
      </trkpt>
      <trkpt lat="37.169171003624797" lon="-3.596678003668785">
        <ele>681.39999999999998</ele>
        <time>2011-01-04T06:59:04Z</time>
      </trkpt>
      <trkpt lat="37.169167986139655" lon="-3.596676997840405">
        <ele>682.60000000000002</ele>
        <time>2011-01-04T06:59:05Z</time>
      </trkpt>
      <trkpt lat="37.169163962826133" lon="-3.596675992012024">
        <ele>683.70000000000005</ele>
        <time>2011-01-04T06:59:06Z</time>
      </trkpt>
      <trkpt lat="37.169162034988403" lon="-3.596674986183643">
        <ele>684.70000000000005</ele>
        <time>2011-01-04T06:59:07Z</time>
      </trkpt>
      <trkpt lat="37.169160023331642" lon="-3.596673980355263">
        <ele>685.70000000000005</ele>
        <time>2011-01-04T06:59:08Z</time>
      </trkpt>
      <trkpt lat="37.1691570058465" lon="-3.596671968698502">
        <ele>686.60000000000002</ele>
        <time>2011-01-04T06:59:09Z</time>
      </trkpt>
      <trkpt lat="37.169154994189739" lon="-3.596670962870121">
        <ele>687.39999999999998</ele>
        <time>2011-01-04T06:59:10Z</time>
      </trkpt>
      <trkpt lat="37.169151976704597" lon="-3.596669035032392">
        <ele>688.20000000000005</ele>
        <time>2011-01-04T06:59:11Z</time>
      </trkpt>
      <trkpt lat="37.169149965047836" lon="-3.596668029204011">
        <ele>688.89999999999998</ele>
        <time>2011-01-04T06:59:12Z</time>
      </trkpt>
      <trkpt lat="37.169148959219456" lon="-3.59666702337563">
        <ele>689.5</ele>
        <time>2011-01-04T06:59:13Z</time>
      </trkpt>
      <trkpt lat="37.169147031381726" lon="-3.596668029204011">
        <ele>689.89999999999998</ele>
        <time>2011-01-04T06:59:14Z</time>
      </trkpt>
      <trkpt lat="37.169146025553346" lon="-3.596669035032392">
        <ele>690.10000000000002</ele>
        <time>2011-01-04T06:59:15Z</time>
      </trkpt>
      <trkpt lat="37.169145019724965" lon="-3.596669035032392">
        <ele>690.39999999999998</ele>
        <time>2011-01-04T06:59:16Z</time>
      </trkpt>
      <trkpt lat="37.169144013896585" lon="-3.596670040860772">
        <ele>690.60000000000002</ele>
        <time>2011-01-04T06:59:17Z</time>
      </trkpt>
      <trkpt lat="37.169144013896585" lon="-3.596670962870121">
        <ele>690.60000000000002</ele>
        <time>2011-01-04T06:59:18Z</time>
      </trkpt>
      <trkpt lat="37.169144013896585" lon="-3.596672974526882">
        <ele>690.70000000000005</ele>
        <time>2011-01-04T06:59:19Z</time>
      </trkpt>
      <trkpt lat="37.169143008068204" lon="-3.596672974526882">
        <ele>690.79999999999995</ele>
        <time>2011-01-04T06:59:20Z</time>
      </trkpt>
      <trkpt lat="37.169143008068204" lon="-3.596671968698502">
        <ele>690.89999999999998</ele>
        <time>2011-01-04T06:59:21Z</time>
      </trkpt>
      <trkpt lat="37.169143008068204" lon="-3.596670962870121">
        <ele>690.89999999999998</ele>
        <time>2011-01-04T06:59:22Z</time>
      </trkpt>
      <trkpt lat="37.169143008068204" lon="-3.596670040860772">
        <ele>691</ele>
        <time>2011-01-04T06:59:23Z</time>
      </trkpt>
      <trkpt lat="37.169143008068204" lon="-3.596669035032392">
        <ele>691</ele>
        <time>2011-01-04T06:59:24Z</time>
      </trkpt>
      <trkpt lat="37.169144013896585" lon="-3.596668029204011">
        <ele>691</ele>
        <time>2011-01-04T06:59:25Z</time>
      </trkpt>
      <trkpt lat="37.169144013896585" lon="-3.59666702337563">
        <ele>690.89999999999998</ele>
        <time>2011-01-04T06:59:26Z</time>
      </trkpt>
      <trkpt lat="37.169142002239823" lon="-3.59666702337563">
        <ele>691</ele>
        <time>2011-01-04T06:59:27Z</time>
      </trkpt>
      <trkpt lat="37.169142002239823" lon="-3.59666601754725">
        <ele>690.89999999999998</ele>
        <time>2011-01-04T06:59:28Z</time>
      </trkpt>
      <trkpt lat="37.169142002239823" lon="-3.596665011718869">
        <ele>690.70000000000005</ele>
        <time>2011-01-04T06:59:29Z</time>
      </trkpt>
      <trkpt lat="37.169142002239823" lon="-3.596664005890489">
        <ele>690.5</ele>
        <time>2011-01-04T06:59:30Z</time>
      </trkpt>
      <trkpt lat="37.169142002239823" lon="-3.596661994233728">
        <ele>690.29999999999995</ele>
        <time>2011-01-04T06:59:31Z</time>
      </trkpt>
      <trkpt lat="37.169142002239823" lon="-3.596660988405347">
        <ele>690.10000000000002</ele>
        <time>2011-01-04T06:59:32Z</time>
      </trkpt>
      <trkpt lat="37.169142002239823" lon="-3.596659982576966">
        <ele>689.79999999999995</ele>
        <time>2011-01-04T06:59:33Z</time>
      </trkpt>
      <trkpt lat="37.169142002239823" lon="-3.596658976748586">
        <ele>689.5</ele>
        <time>2011-01-04T06:59:34Z</time>
      </trkpt>
      <trkpt lat="37.169142002239823" lon="-3.596657970920205">
        <ele>689.29999999999995</ele>
        <time>2011-01-04T06:59:35Z</time>
      </trkpt>
      <trkpt lat="37.169142002239823" lon="-3.596656965091825">
        <ele>689</ele>
        <time>2011-01-04T06:59:36Z</time>
      </trkpt>
      <trkpt lat="37.169142002239823" lon="-3.596655959263444">
        <ele>688.60000000000002</ele>
        <time>2011-01-04T06:59:37Z</time>
      </trkpt>
      <trkpt lat="37.169143008068204" lon="-3.596655037254095">
        <ele>688.29999999999995</ele>
        <time>2011-01-04T06:59:38Z</time>
      </trkpt>
      <trkpt lat="37.169143008068204" lon="-3.596654031425715">
        <ele>688</ele>
        <time>2011-01-04T06:59:39Z</time>
      </trkpt>
      <trkpt lat="37.169143008068204" lon="-3.596654031425715">
        <ele>687.60000000000002</ele>
        <time>2011-01-04T06:59:40Z</time>
      </trkpt>
      <trkpt lat="37.169143008068204" lon="-3.596654031425715">
        <ele>687.29999999999995</ele>
        <time>2011-01-04T06:59:41Z</time>
      </trkpt>
      <trkpt lat="37.169144013896585" lon="-3.596653025597334">
        <ele>686.89999999999998</ele>
        <time>2011-01-04T06:59:42Z</time>
      </trkpt>
      <trkpt lat="37.169144013896585" lon="-3.596653025597334">
        <ele>686.5</ele>
        <time>2011-01-04T06:59:43Z</time>
      </trkpt>
      <trkpt lat="37.169145019724965" lon="-3.596653025597334">
        <ele>686.10000000000002</ele>
        <time>2011-01-04T06:59:44Z</time>
      </trkpt>
      <trkpt lat="37.169145019724965" lon="-3.596652019768953">
        <ele>685.79999999999995</ele>
        <time>2011-01-04T06:59:45Z</time>
      </trkpt>
      <trkpt lat="37.169147031381726" lon="-3.596654031425715">
        <ele>685.70000000000005</ele>
        <time>2011-01-04T06:59:46Z</time>
      </trkpt>
      <trkpt lat="37.169148037210107" lon="-3.596655037254095">
        <ele>685.60000000000002</ele>
        <time>2011-01-04T06:59:47Z</time>
      </trkpt>
      <trkpt lat="37.169149965047836" lon="-3.596655959263444">
        <ele>685.5</ele>
        <time>2011-01-04T06:59:48Z</time>
      </trkpt>
      <trkpt lat="37.169150970876217" lon="-3.596656965091825">
        <ele>685.39999999999998</ele>
        <time>2011-01-04T06:59:49Z</time>
      </trkpt>
      <trkpt lat="37.169152982532978" lon="-3.596657970920205">
        <ele>685.39999999999998</ele>
        <time>2011-01-04T06:59:50Z</time>
      </trkpt>
      <trkpt lat="37.169153988361359" lon="-3.596658976748586">
        <ele>685.29999999999995</ele>
        <time>2011-01-04T06:59:51Z</time>
      </trkpt>
      <trkpt lat="37.169154994189739" lon="-3.596659982576966">
        <ele>685.29999999999995</ele>
        <time>2011-01-04T06:59:52Z</time>
      </trkpt>
      <trkpt lat="37.16915600001812" lon="-3.596660988405347">
        <ele>685.29999999999995</ele>
        <time>2011-01-04T06:59:53Z</time>
      </trkpt>
      <trkpt lat="37.1691570058465" lon="-3.596661994233728">
        <ele>685.20000000000005</ele>
        <time>2011-01-04T06:59:54Z</time>
      </trkpt>
      <trkpt lat="37.169159017503262" lon="-3.596663000062108">
        <ele>685.20000000000005</ele>
        <time>2011-01-04T06:59:55Z</time>
      </trkpt>
      <trkpt lat="37.169159017503262" lon="-3.596665011718869">
        <ele>685.20000000000005</ele>
        <time>2011-01-04T06:59:56Z</time>
      </trkpt>
      <trkpt lat="37.169153988361359" lon="-3.596673980355263">
        <ele>684.89999999999998</ele>
        <time>2011-01-04T06:59:57Z</time>
      </trkpt>
      <trkpt lat="37.169125992804766" lon="-3.596722008660436">
        <ele>684.79999999999995</ele>
        <time>2011-01-04T06:59:59Z</time>
      </trkpt>
      <trkpt lat="37.169109983369708" lon="-3.596761990338564">
        <ele>684.5</ele>
        <time>2011-01-04T07:00:00Z</time>
      </trkpt>
      <trkpt lat="37.169097997248173" lon="-3.596808006986976">
        <ele>684.10000000000002</ele>
        <time>2011-01-04T07:00:01Z</time>
      </trkpt>
      <trkpt lat="37.169094979763031" lon="-3.596854023635387">
        <ele>683.39999999999998</ele>
        <time>2011-01-04T07:00:02Z</time>
      </trkpt>
      <trkpt lat="37.169106965884566" lon="-3.596896016970277">
        <ele>683.10000000000002</ele>
        <time>2011-01-04T07:00:03Z</time>
      </trkpt>
      <trkpt lat="37.169120963662863" lon="-3.596923006698489">
        <ele>683.29999999999995</ele>
        <time>2011-01-04T07:00:04Z</time>
      </trkpt>
      <trkpt lat="37.1691760327667" lon="-3.596915965899825">
        <ele>684.70000000000005</ele>
        <time>2011-01-04T07:00:13Z</time>
      </trkpt>
      <trkpt lat="37.169186007231474" lon="-3.596910014748573">
        <ele>685.10000000000002</ele>
        <time>2011-01-04T07:00:14Z</time>
      </trkpt>
      <trkpt lat="37.169192964211106" lon="-3.596906997263432">
        <ele>685.60000000000002</ele>
        <time>2011-01-04T07:00:15Z</time>
      </trkpt>
      <trkpt lat="37.169195981696248" lon="-3.596905991435051">
        <ele>685.79999999999995</ele>
        <time>2011-01-04T07:00:16Z</time>
      </trkpt>
      <trkpt lat="37.169196987524629" lon="-3.59690498560667">
        <ele>686</ele>
        <time>2011-01-04T07:00:17Z</time>
      </trkpt>
      <trkpt lat="37.169194975867867" lon="-3.596912026405335">
        <ele>686.60000000000002</ele>
        <time>2011-01-04T07:00:18Z</time>
      </trkpt>
      <trkpt lat="37.169201010838151" lon="-3.596918983384967">
        <ele>687</ele>
        <time>2011-01-04T07:00:19Z</time>
      </trkpt>
      <trkpt lat="37.169212996959686" lon="-3.596932981163263">
        <ele>687.10000000000002</ele>
        <time>2011-01-04T07:00:20Z</time>
      </trkpt>
      <trkpt lat="37.17089700512588" lon="-3.59842898324132">
        <ele>712.70000000000005</ele>
        <time>2011-01-04T07:00:48Z</time>
      </trkpt>
      <trkpt lat="37.171172015368938" lon="-3.59862201847136">
        <ele>711.70000000000005</ele>
        <time>2011-01-04T07:00:54Z</time>
      </trkpt>
      <trkpt lat="37.171207973733544" lon="-3.598640039563179">
        <ele>711.29999999999995</ele>
        <time>2011-01-04T07:00:55Z</time>
      </trkpt>
      <trkpt lat="37.171782972291112" lon="-3.598846988752484">
        <ele>713.39999999999998</ele>
        <time>2011-01-04T07:01:31Z</time>
      </trkpt>
      <trkpt lat="37.1720340102911" lon="-3.59900901094079">
        <ele>712.60000000000002</ele>
        <time>2011-01-04T07:01:36Z</time>
      </trkpt>
      <trkpt lat="37.172825010493398" lon="-3.599423998966813">
        <ele>704.60000000000002</ele>
        <time>2011-01-04T07:01:52Z</time>
      </trkpt>
      <trkpt lat="37.173329014331102" lon="-3.599732033908367">
        <ele>713.39999999999998</ele>
        <time>2011-01-04T07:02:00Z</time>
      </trkpt>
      <trkpt lat="37.173379976302385" lon="-3.599751982837915">
        <ele>716.60000000000002</ele>
        <time>2011-01-04T07:02:01Z</time>
      </trkpt>
      <trkpt lat="37.173416018486023" lon="-3.599758017808199">
        <ele>719.29999999999995</ele>
        <time>2011-01-04T07:02:02Z</time>
      </trkpt>
      <trkpt lat="37.1734310220927" lon="-3.599731028079987">
        <ele>719.29999999999995</ele>
        <time>2011-01-04T07:02:05Z</time>
      </trkpt>
      <trkpt lat="37.173426998779178" lon="-3.599727004766464">
        <ele>719.29999999999995</ele>
        <time>2011-01-04T07:02:06Z</time>
      </trkpt>
      <trkpt lat="37.173421969637275" lon="-3.599728010594845">
        <ele>720</ele>
        <time>2011-01-04T07:02:07Z</time>
      </trkpt>
      <trkpt lat="37.173420963808894" lon="-3.599725998938084">
        <ele>720.29999999999995</ele>
        <time>2011-01-04T07:02:08Z</time>
      </trkpt>
      <trkpt lat="37.173424987122416" lon="-3.599725998938084">
        <ele>720.5</ele>
        <time>2011-01-04T07:02:09Z</time>
      </trkpt>
      <trkpt lat="37.173434039577842" lon="-3.599731028079987">
        <ele>720.5</ele>
        <time>2011-01-04T07:02:10Z</time>
      </trkpt>
      <trkpt lat="37.173446025699377" lon="-3.599746031686664">
        <ele>720.39999999999998</ele>
        <time>2011-01-04T07:02:11Z</time>
      </trkpt>
      <trkpt lat="37.173452982679009" lon="-3.599775033071637">
        <ele>720.10000000000002</ele>
        <time>2011-01-04T07:02:12Z</time>
      </trkpt>
      <trkpt lat="37.173452982679009" lon="-3.599815014749765">
        <ele>719.39999999999998</ele>
        <time>2011-01-04T07:02:13Z</time>
      </trkpt>
      <trkpt lat="37.173448959365487" lon="-3.599860025569797">
        <ele>718.70000000000005</ele>
        <time>2011-01-04T07:02:14Z</time>
      </trkpt>
      <trkpt lat="37.173438984900713" lon="-3.599940994754434">
        <ele>715.79999999999995</ele>
        <time>2011-01-04T07:02:16Z</time>
      </trkpt>
      <trkpt lat="37.173426998779178" lon="-3.599980976432562">
        <ele>714.60000000000002</ele>
        <time>2011-01-04T07:02:17Z</time>
      </trkpt>
      <trkpt lat="37.173405038192868" lon="-3.600021963939071">
        <ele>713.20000000000005</ele>
        <time>2011-01-04T07:02:18Z</time>
      </trkpt>
      <trkpt lat="37.173378970474005" lon="-3.600066974759102">
        <ele>712.20000000000005</ele>
        <time>2011-01-04T07:02:19Z</time>
      </trkpt>
      <trkpt lat="37.173342006281018" lon="-3.600105028599501">
        <ele>711</ele>
        <time>2011-01-04T07:02:20Z</time>
      </trkpt>
      <trkpt lat="37.173304036259651" lon="-3.60014702193439">
        <ele>710.29999999999995</ele>
        <time>2011-01-04T07:02:21Z</time>
      </trkpt>
      <trkpt lat="37.173205967992544" lon="-3.600292028859258">
        <ele>704.29999999999995</ele>
        <time>2011-01-04T07:02:24Z</time>
      </trkpt>
      <trkpt lat="37.170601962134242" lon="-3.604766959324479">
        <ele>682.79999999999995</ele>
        <time>2011-01-04T07:03:23Z</time>
      </trkpt>
      <trkpt lat="37.170576984062791" lon="-3.60485102981329">
        <ele>682</ele>
        <time>2011-01-04T07:03:24Z</time>
      </trkpt>
      <trkpt lat="37.170143974944949" lon="-3.605842022225261">
        <ele>678.20000000000005</ele>
        <time>2011-01-04T07:03:41Z</time>
      </trkpt>
      <trkpt lat="37.170117991045117" lon="-3.605892984196544">
        <ele>677.5</ele>
        <time>2011-01-04T07:03:42Z</time>
      </trkpt>
      <trkpt lat="37.169809034094214" lon="-3.606368992477655">
        <ele>679.39999999999998</ele>
        <time>2011-01-04T07:03:52Z</time>
      </trkpt>
      <trkpt lat="37.169792018830776" lon="-3.606388019397855">
        <ele>680.5</ele>
        <time>2011-01-04T07:03:53Z</time>
      </trkpt>
      <trkpt lat="37.169764023274183" lon="-3.606409979984164">
        <ele>681.60000000000002</ele>
        <time>2011-01-04T07:03:55Z</time>
      </trkpt>
      <trkpt lat="37.169722029939294" lon="-3.606430012732744">
        <ele>682.39999999999998</ele>
        <time>2011-01-04T07:03:59Z</time>
      </trkpt>
      <trkpt lat="37.169709959998727" lon="-3.606437975540757">
        <ele>682.29999999999995</ele>
        <time>2011-01-04T07:04:00Z</time>
      </trkpt>
      <trkpt lat="37.169697973877192" lon="-3.606448033824563">
        <ele>683</ele>
        <time>2011-01-04T07:04:01Z</time>
      </trkpt>
      <trkpt lat="37.16969202272594" lon="-3.606472006067634">
        <ele>682.29999999999995</ele>
        <time>2011-01-04T07:04:02Z</time>
      </trkpt>
      <trkpt lat="37.169687999412417" lon="-3.606504024937749">
        <ele>682</ele>
        <time>2011-01-04T07:04:03Z</time>
      </trkpt>
      <trkpt lat="37.169681964442134" lon="-3.606534032151103">
        <ele>681.79999999999995</ele>
        <time>2011-01-04T07:04:04Z</time>
      </trkpt>
      <trkpt lat="37.169678024947643" lon="-3.606563033536077">
        <ele>681.5</ele>
        <time>2011-01-04T07:04:05Z</time>
      </trkpt>
      <trkpt lat="37.169665032997727" lon="-3.606581976637244">
        <ele>681.60000000000002</ele>
        <time>2011-01-04T07:04:06Z</time>
      </trkpt>
      <trkpt lat="37.169594038277864" lon="-3.606661017984152">
        <ele>682.29999999999995</ele>
        <time>2011-01-04T07:04:11Z</time>
      </trkpt>
      <trkpt lat="37.169584985822439" lon="-3.606671998277307">
        <ele>682.5</ele>
        <time>2011-01-04T07:04:12Z</time>
      </trkpt>
      <trkpt lat="37.169581968337297" lon="-3.60667803324759">
        <ele>682.29999999999995</ele>
        <time>2011-01-04T07:04:13Z</time>
      </trkpt>
      <trkpt lat="37.169581968337297" lon="-3.60667803324759">
        <ele>682.29999999999995</ele>
        <time>2011-01-04T07:04:14Z</time>
      </trkpt>
      <trkpt lat="37.169582974165678" lon="-3.606675015762448">
        <ele>682.29999999999995</ele>
        <time>2011-01-04T07:04:15Z</time>
      </trkpt>
      <trkpt lat="37.169583979994059" lon="-3.606674009934068">
        <ele>682.20000000000005</ele>
        <time>2011-01-04T07:04:16Z</time>
      </trkpt>
      <trkpt lat="37.169583979994059" lon="-3.606671998277307">
        <ele>682.10000000000002</ele>
        <time>2011-01-04T07:04:17Z</time>
      </trkpt>
      <trkpt lat="37.169584985822439" lon="-3.606669986620545">
        <ele>682</ele>
        <time>2011-01-04T07:04:18Z</time>
      </trkpt>
      <trkpt lat="37.1695869974792" lon="-3.606668980792165">
        <ele>681.79999999999995</ele>
        <time>2011-01-04T07:04:19Z</time>
      </trkpt>
      <trkpt lat="37.1695869974792" lon="-3.606667974963784">
        <ele>681.79999999999995</ele>
        <time>2011-01-04T07:04:20Z</time>
      </trkpt>
      <trkpt lat="37.169588003307581" lon="-3.606665041297674">
        <ele>681.60000000000002</ele>
        <time>2011-01-04T07:04:21Z</time>
      </trkpt>
      <trkpt lat="37.169589009135962" lon="-3.606663029640913">
        <ele>681.60000000000002</ele>
        <time>2011-01-04T07:04:22Z</time>
      </trkpt>
      <trkpt lat="37.169590014964342" lon="-3.606662023812532">
        <ele>681.5</ele>
        <time>2011-01-04T07:04:23Z</time>
      </trkpt>
      <trkpt lat="37.169590014964342" lon="-3.606660012155771">
        <ele>681.39999999999998</ele>
        <time>2011-01-04T07:04:24Z</time>
      </trkpt>
      <trkpt lat="37.169591020792723" lon="-3.60665800049901">
        <ele>681.29999999999995</ele>
        <time>2011-01-04T07:04:25Z</time>
      </trkpt>
      <trkpt lat="37.169592026621103" lon="-3.60665699467063">
        <ele>681.29999999999995</ele>
        <time>2011-01-04T07:04:26Z</time>
      </trkpt>
      <trkpt lat="37.169592026621103" lon="-3.606654983013868">
        <ele>681.20000000000005</ele>
        <time>2011-01-04T07:04:27Z</time>
      </trkpt>
      <trkpt lat="37.169592026621103" lon="-3.606652971357107">
        <ele>681.10000000000002</ele>
        <time>2011-01-04T07:04:28Z</time>
      </trkpt>
      <trkpt lat="37.169593032449484" lon="-3.606652971357107">
        <ele>681.10000000000002</ele>
        <time>2011-01-04T07:04:29Z</time>
      </trkpt>
      <trkpt lat="37.169593032449484" lon="-3.606651965528727">
        <ele>681</ele>
        <time>2011-01-04T07:04:30Z</time>
      </trkpt>
      <trkpt lat="37.169593032449484" lon="-3.606650037690997">
        <ele>680.89999999999998</ele>
        <time>2011-01-04T07:04:31Z</time>
      </trkpt>
      <trkpt lat="37.169593032449484" lon="-3.606649031862617">
        <ele>680.89999999999998</ele>
        <time>2011-01-04T07:04:32Z</time>
      </trkpt>
      <trkpt lat="37.169593032449484" lon="-3.606648026034236">
        <ele>680.79999999999995</ele>
        <time>2011-01-04T07:04:33Z</time>
      </trkpt>
      <trkpt lat="37.169593032449484" lon="-3.606648026034236">
        <ele>680.70000000000005</ele>
        <time>2011-01-04T07:04:34Z</time>
      </trkpt>
      <trkpt lat="37.169594038277864" lon="-3.606647020205855">
        <ele>680.70000000000005</ele>
        <time>2011-01-04T07:04:35Z</time>
      </trkpt>
      <trkpt lat="37.169594038277864" lon="-3.606648026034236">
        <ele>680.70000000000005</ele>
        <time>2011-01-04T07:04:36Z</time>
      </trkpt>
      <trkpt lat="37.169594960287213" lon="-3.606648026034236">
        <ele>680.70000000000005</ele>
        <time>2011-01-04T07:04:37Z</time>
      </trkpt>
      <trkpt lat="37.169595966115594" lon="-3.606649031862617">
        <ele>680.70000000000005</ele>
        <time>2011-01-04T07:04:38Z</time>
      </trkpt>
      <trkpt lat="37.169596971943974" lon="-3.606649031862617">
        <ele>680.70000000000005</ele>
        <time>2011-01-04T07:04:39Z</time>
      </trkpt>
      <trkpt lat="37.169597977772355" lon="-3.606650037690997">
        <ele>680.60000000000002</ele>
        <time>2011-01-04T07:04:40Z</time>
      </trkpt>
      <trkpt lat="37.169598983600736" lon="-3.606650037690997">
        <ele>680.60000000000002</ele>
        <time>2011-01-04T07:04:41Z</time>
      </trkpt>
      <trkpt lat="37.169598983600736" lon="-3.606650037690997">
        <ele>680.60000000000002</ele>
        <time>2011-01-04T07:04:42Z</time>
      </trkpt>
      <trkpt lat="37.169599989429116" lon="-3.606650959700346">
        <ele>680.60000000000002</ele>
        <time>2011-01-04T07:04:43Z</time>
      </trkpt>
      <trkpt lat="37.169603006914258" lon="-3.606654983013868">
        <ele>680.70000000000005</ele>
        <time>2011-01-04T07:04:44Z</time>
      </trkpt>
      <trkpt lat="37.1696060243994" lon="-3.606662023812532">
        <ele>680</ele>
        <time>2011-01-04T07:04:45Z</time>
      </trkpt>
      <trkpt lat="37.169610969722271" lon="-3.606673004105687">
        <ele>679.5</ele>
        <time>2011-01-04T07:04:46Z</time>
      </trkpt>
      <trkpt lat="37.169611975550652" lon="-3.606681972742081">
        <ele>679</ele>
        <time>2011-01-04T07:04:47Z</time>
      </trkpt>
      <trkpt lat="37.16960996389389" lon="-3.606693036854267">
        <ele>678.29999999999995</ele>
        <time>2011-01-04T07:04:48Z</time>
      </trkpt>
      <trkpt lat="37.169604012742639" lon="-3.606714997440577">
        <ele>677.79999999999995</ele>
        <time>2011-01-04T07:04:49Z</time>
      </trkpt>
      <trkpt lat="37.169591020792723" lon="-3.606751039624214">
        <ele>677.39999999999998</ele>
        <time>2011-01-04T07:04:50Z</time>
      </trkpt>
      <trkpt lat="37.169572999700904" lon="-3.606795966625214">
        <ele>677.5</ele>
        <time>2011-01-04T07:04:51Z</time>
      </trkpt>
      <trkpt lat="37.169551039114594" lon="-3.606846006587148">
        <ele>677.89999999999998</ele>
        <time>2011-01-04T07:04:52Z</time>
      </trkpt>
      <trkpt lat="37.169526983052492" lon="-3.60689596273005">
        <ele>677.89999999999998</ele>
        <time>2011-01-04T07:04:53Z</time>
      </trkpt>
      <trkpt lat="37.16949999332428" lon="-3.606942985206842">
        <ele>678.5</ele>
        <time>2011-01-04T07:04:54Z</time>
      </trkpt>
      <trkpt lat="37.169470991939306" lon="-3.606992019340396">
        <ele>678.29999999999995</ele>
        <time>2011-01-04T07:04:55Z</time>
      </trkpt>
      <trkpt lat="37.16943696141243" lon="-3.60704398714006">
        <ele>678.5</ele>
        <time>2011-01-04T07:04:56Z</time>
      </trkpt>
      <trkpt lat="37.169398991391063" lon="-3.607097966596484">
        <ele>678.60000000000002</ele>
        <time>2011-01-04T07:04:57Z</time>
      </trkpt>
      <trkpt lat="37.168998001143336" lon="-3.60771001316607">
        <ele>682.10000000000002</ele>
        <time>2011-01-04T07:05:10Z</time>
      </trkpt>
      <trkpt lat="37.168990960344672" lon="-3.607725016772747">
        <ele>681.70000000000005</ele>
        <time>2011-01-04T07:05:11Z</time>
      </trkpt>
      <trkpt lat="37.168987020850182" lon="-3.607733985409141">
        <ele>681.5</ele>
        <time>2011-01-04T07:05:12Z</time>
      </trkpt>
      <trkpt lat="37.168986015021801" lon="-3.607741026207805">
        <ele>681.20000000000005</ele>
        <time>2011-01-04T07:05:13Z</time>
      </trkpt>
      <trkpt lat="37.168986015021801" lon="-3.607743959873915">
        <ele>681.10000000000002</ele>
        <time>2011-01-04T07:05:14Z</time>
      </trkpt>
      <trkpt lat="37.168986015021801" lon="-3.607745971530676">
        <ele>680.89999999999998</ele>
        <time>2011-01-04T07:05:15Z</time>
      </trkpt>
      <trkpt lat="37.168987020850182" lon="-3.607748989015818">
        <ele>680.79999999999995</ele>
        <time>2011-01-04T07:05:16Z</time>
      </trkpt>
      <trkpt lat="37.168988026678562" lon="-3.607751000672579">
        <ele>680.70000000000005</ele>
        <time>2011-01-04T07:05:17Z</time>
      </trkpt>
      <trkpt lat="37.168988026678562" lon="-3.60775301232934">
        <ele>680.5</ele>
        <time>2011-01-04T07:05:18Z</time>
      </trkpt>
      <trkpt lat="37.168989032506943" lon="-3.607755023986101">
        <ele>680.5</ele>
        <time>2011-01-04T07:05:19Z</time>
      </trkpt>
      <trkpt lat="37.168988026678562" lon="-3.607757035642862">
        <ele>680.29999999999995</ele>
        <time>2011-01-04T07:05:20Z</time>
      </trkpt>
      <trkpt lat="37.168988026678562" lon="-3.607758041471243">
        <ele>680.10000000000002</ele>
        <time>2011-01-04T07:05:21Z</time>
      </trkpt>
      <trkpt lat="37.168988026678562" lon="-3.607758041471243">
        <ele>679.70000000000005</ele>
        <time>2011-01-04T07:05:22Z</time>
      </trkpt>
      <trkpt lat="37.168988026678562" lon="-3.607758963480592">
        <ele>679.39999999999998</ele>
        <time>2011-01-04T07:05:23Z</time>
      </trkpt>
      <trkpt lat="37.168158972635865" lon="-3.608663035556674">
        <ele>671.10000000000002</ele>
        <time>2011-01-04T07:05:51Z</time>
      </trkpt>
      <trkpt lat="37.168122008442879" lon="-3.608716009184718">
        <ele>670.39999999999998</ele>
        <time>2011-01-04T07:05:52Z</time>
      </trkpt>
      <trkpt lat="37.168090995401144" lon="-3.608766971156001">
        <ele>669.70000000000005</ele>
        <time>2011-01-04T07:05:53Z</time>
      </trkpt>
      <trkpt lat="37.168069034814835" lon="-3.608817011117935">
        <ele>669.29999999999995</ele>
        <time>2011-01-04T07:05:54Z</time>
      </trkpt>
      <trkpt lat="37.168052019551396" lon="-3.608863027766347">
        <ele>669</ele>
        <time>2011-01-04T07:05:55Z</time>
      </trkpt>
      <trkpt lat="37.168040033429861" lon="-3.608906026929617">
        <ele>668.70000000000005</ele>
        <time>2011-01-04T07:05:56Z</time>
      </trkpt>
      <trkpt lat="37.168025029823184" lon="-3.608980039134622">
        <ele>668</ele>
        <time>2011-01-04T07:05:58Z</time>
      </trkpt>
      <trkpt lat="37.168021006509662" lon="-3.609017003327608">
        <ele>667.70000000000005</ele>
        <time>2011-01-04T07:05:59Z</time>
      </trkpt>
      <trkpt lat="37.168000973761082" lon="-3.609611028805375">
        <ele>665.39999999999998</ele>
        <time>2011-01-04T07:06:09Z</time>
      </trkpt>
      <trkpt lat="37.168014971539378" lon="-3.60968797467649">
        <ele>665.10000000000002</ele>
        <time>2011-01-04T07:06:10Z</time>
      </trkpt>
      <trkpt lat="37.168041039258242" lon="-3.609748994931579">
        <ele>664.60000000000002</ele>
        <time>2011-01-04T07:06:11Z</time>
      </trkpt>
      <trkpt lat="37.168084038421512" lon="-3.609799034893513">
        <ele>664.10000000000002</ele>
        <time>2011-01-04T07:06:12Z</time>
      </trkpt>
      <trkpt lat="37.168142963200808" lon="-3.609839016571641">
        <ele>664.10000000000002</ele>
        <time>2011-01-04T07:06:13Z</time>
      </trkpt>
      <trkpt lat="37.168216975405812" lon="-3.609858965501189">
        <ele>663.79999999999995</ele>
        <time>2011-01-04T07:06:14Z</time>
      </trkpt>
      <trkpt lat="37.171622961759567" lon="-3.610834032297134">
        <ele>661.39999999999998</ele>
        <time>2011-01-04T07:06:37Z</time>
      </trkpt>
      <trkpt lat="37.172025963664055" lon="-3.611005023121834">
        <ele>661.5</ele>
        <time>2011-01-04T07:06:39Z</time>
      </trkpt>
      <trkpt lat="37.173737967386842" lon="-3.61190096475184">
        <ele>662.29999999999995</ele>
        <time>2011-01-04T07:06:47Z</time>
      </trkpt>
      <trkpt lat="37.174810012802482" lon="-3.612612001597881">
        <ele>662</ele>
        <time>2011-01-04T07:06:52Z</time>
      </trkpt>
      <trkpt lat="37.17502199113369" lon="-3.612768994644284">
        <ele>662.29999999999995</ele>
        <time>2011-01-04T07:06:53Z</time>
      </trkpt>
      <trkpt lat="37.176661994308233" lon="-3.614168018102646">
        <ele>664.20000000000005</ele>
        <time>2011-01-04T07:07:01Z</time>
      </trkpt>
      <trkpt lat="37.177416030317545" lon="-3.614966981112957">
        <ele>664.60000000000002</ele>
        <time>2011-01-04T07:07:05Z</time>
      </trkpt>
      <trkpt lat="37.178132012486458" lon="-3.615814978256822">
        <ele>664.39999999999998</ele>
        <time>2011-01-04T07:07:09Z</time>
      </trkpt>
      <trkpt lat="37.178792003542185" lon="-3.616714021191001">
        <ele>664</ele>
        <time>2011-01-04T07:07:13Z</time>
      </trkpt>
      <trkpt lat="37.179610999301076" lon="-3.618011958897114">
        <ele>662.5</ele>
        <time>2011-01-04T07:07:19Z</time>
      </trkpt>
      <trkpt lat="37.180257998406887" lon="-3.619188023731113">
        <ele>662.5</ele>
        <time>2011-01-04T07:07:24Z</time>
      </trkpt>
      <trkpt lat="37.185968002304435" lon="-3.631190992891789">
        <ele>649.20000000000005</ele>
        <time>2011-01-04T07:08:06Z</time>
      </trkpt>
      <trkpt lat="37.18615198507905" lon="-3.631438007578254">
        <ele>649.29999999999995</ele>
        <time>2011-01-04T07:08:07Z</time>
      </trkpt>
      <trkpt lat="37.186549035832286" lon="-3.631888031959534">
        <ele>649.79999999999995</ele>
        <time>2011-01-04T07:08:09Z</time>
      </trkpt>
      <trkpt lat="37.186976009979844" lon="-3.632280975580216">
        <ele>650.60000000000002</ele>
        <time>2011-01-04T07:08:11Z</time>
      </trkpt>
      <trkpt lat="37.187425028532743" lon="-3.632622035220265">
        <ele>651.39999999999998</ele>
        <time>2011-01-04T07:08:13Z</time>
      </trkpt>
      <trkpt lat="37.187897013500333" lon="-3.632902996614575">
        <ele>652.39999999999998</ele>
        <time>2011-01-04T07:08:15Z</time>
      </trkpt>
      <trkpt lat="37.188387019559741" lon="-3.633123021572828">
        <ele>652.70000000000005</ele>
        <time>2011-01-04T07:08:17Z</time>
      </trkpt>
      <trkpt lat="37.188894040882587" lon="-3.633282026275992">
        <ele>653.20000000000005</ele>
        <time>2011-01-04T07:08:19Z</time>
      </trkpt>
      <trkpt lat="37.189414976164699" lon="-3.633385039865971">
        <ele>653.5</ele>
        <time>2011-01-04T07:08:21Z</time>
      </trkpt>
      <trkpt lat="37.189945969730616" lon="-3.633418986573815">
        <ele>653.60000000000002</ele>
        <time>2011-01-04T07:08:23Z</time>
      </trkpt>
      <trkpt lat="37.190213017165661" lon="-3.633410017937422">
        <ele>653.79999999999995</ele>
        <time>2011-01-04T07:08:24Z</time>
      </trkpt>
      <trkpt lat="37.191022038459778" lon="-3.633284037932754">
        <ele>653.70000000000005</ele>
        <time>2011-01-04T07:08:27Z</time>
      </trkpt>
      <trkpt lat="37.196779986843467" lon="-3.631589971482754">
        <ele>657</ele>
        <time>2011-01-04T07:08:51Z</time>
      </trkpt>
      <trkpt lat="37.198600033298135" lon="-3.630827972665429">
        <ele>656.20000000000005</ele>
        <time>2011-01-04T07:09:01Z</time>
      </trkpt>
      <trkpt lat="37.200450003147125" lon="-3.62981996499002">
        <ele>659.79999999999995</ele>
        <time>2011-01-04T07:09:11Z</time>
      </trkpt>
      <trkpt lat="37.200629962608218" lon="-3.629706976935267">
        <ele>660.5</ele>
        <time>2011-01-04T07:09:12Z</time>
      </trkpt>
      <trkpt lat="37.20800201408565" lon="-3.623693967238069">
        <ele>689.20000000000005</ele>
        <time>2011-01-04T07:09:57Z</time>
      </trkpt>
      <trkpt lat="37.208187002688646" lon="-3.623593971133232">
        <ele>689.60000000000002</ele>
        <time>2011-01-04T07:09:58Z</time>
      </trkpt>
      <trkpt lat="37.208568966016173" lon="-3.623425997793675">
        <ele>690.39999999999998</ele>
        <time>2011-01-04T07:10:00Z</time>
      </trkpt>
      <trkpt lat="37.208765018731356" lon="-3.623361038044095">
        <ele>690.79999999999995</ele>
        <time>2011-01-04T07:10:01Z</time>
      </trkpt>
      <trkpt lat="37.208964005112648" lon="-3.62330999225378">
        <ele>691.10000000000002</ele>
        <time>2011-01-04T07:10:02Z</time>
      </trkpt>
      <trkpt lat="37.209166008979082" lon="-3.623271016404033">
        <ele>691.5</ele>
        <time>2011-01-04T07:10:03Z</time>
      </trkpt>
      <trkpt lat="37.209574040025473" lon="-3.623230028897524">
        <ele>691.89999999999998</ele>
        <time>2011-01-04T07:10:05Z</time>
      </trkpt>
      <trkpt lat="37.209779983386397" lon="-3.623227011412382">
        <ele>691.89999999999998</ele>
        <time>2011-01-04T07:10:06Z</time>
      </trkpt>
      <trkpt lat="37.209988022223115" lon="-3.623236985877156">
        <ele>691.89999999999998</ele>
        <time>2011-01-04T07:10:07Z</time>
      </trkpt>
      <trkpt lat="37.210195977240801" lon="-3.623263975605369">
        <ele>691.89999999999998</ele>
        <time>2011-01-04T07:10:08Z</time>
      </trkpt>
      <trkpt lat="37.210824033245444" lon="-3.623399008065462">
        <ele>691.10000000000002</ele>
        <time>2011-01-04T07:10:11Z</time>
      </trkpt>
      <trkpt lat="37.215298963710666" lon="-3.624374996870756">
        <ele>685.89999999999998</ele>
        <time>2011-01-04T07:10:32Z</time>
      </trkpt>
      <trkpt lat="37.21552100032568" lon="-3.62438497133553">
        <ele>686.29999999999995</ele>
        <time>2011-01-04T07:10:33Z</time>
      </trkpt>
      <trkpt lat="37.216618023812771" lon="-3.624472981318831">
        <ele>686.39999999999998</ele>
        <time>2011-01-04T07:10:38Z</time>
      </trkpt>
      <trkpt lat="37.216835031285882" lon="-3.624516986310482">
        <ele>685.79999999999995</ele>
        <time>2011-01-04T07:10:39Z</time>
      </trkpt>
      <trkpt lat="37.217050027102232" lon="-3.624574989080429">
        <ele>685.29999999999995</ele>
        <time>2011-01-04T07:10:40Z</time>
      </trkpt>
      <trkpt lat="37.217264017090201" lon="-3.624646989628673">
        <ele>684.5</ele>
        <time>2011-01-04T07:10:41Z</time>
      </trkpt>
      <trkpt lat="37.217472977936268" lon="-3.624733993783593">
        <ele>683.89999999999998</ele>
        <time>2011-01-04T07:10:42Z</time>
      </trkpt>
      <trkpt lat="37.217677999287844" lon="-3.624838013201952">
        <ele>683.20000000000005</ele>
        <time>2011-01-04T07:10:43Z</time>
      </trkpt>
      <trkpt lat="37.217874974012375" lon="-3.624961981549859">
        <ele>682.60000000000002</ele>
        <time>2011-01-04T07:10:44Z</time>
      </trkpt>
      <trkpt lat="37.218061974272132" lon="-3.625110005959868">
        <ele>682.29999999999995</ele>
        <time>2011-01-04T07:10:45Z</time>
      </trkpt>
      <trkpt lat="37.218240005895495" lon="-3.625274961814284">
        <ele>682</ele>
        <time>2011-01-04T07:10:46Z</time>
      </trkpt>
      <trkpt lat="37.218410996720195" lon="-3.625451987609267">
        <ele>681.60000000000002</ele>
        <time>2011-01-04T07:10:47Z</time>
      </trkpt>
      <trkpt lat="37.218573018908501" lon="-3.625643011182547">
        <ele>681.29999999999995</ele>
        <time>2011-01-04T07:10:48Z</time>
      </trkpt>
      <trkpt lat="37.21872397698462" lon="-3.625848032534123">
        <ele>681</ele>
        <time>2011-01-04T07:10:49Z</time>
      </trkpt>
      <trkpt lat="37.218863032758236" lon="-3.626067973673344">
        <ele>680.89999999999998</ele>
        <time>2011-01-04T07:10:50Z</time>
      </trkpt>
      <trkpt lat="37.218991024419665" lon="-3.626298978924751">
        <ele>680.79999999999995</ele>
        <time>2011-01-04T07:10:51Z</time>
      </trkpt>
      <trkpt lat="37.220184020698071" lon="-3.628608025610447">
        <ele>677.29999999999995</ele>
        <time>2011-01-04T07:11:01Z</time>
      </trkpt>
      <trkpt lat="37.220335984602571" lon="-3.628803994506598">
        <ele>677.29999999999995</ele>
        <time>2011-01-04T07:11:02Z</time>
      </trkpt>
      <trkpt lat="37.220662962645292" lon="-3.629167014732957">
        <ele>677.10000000000002</ele>
        <time>2011-01-04T07:11:04Z</time>
      </trkpt>
      <trkpt lat="37.221010979264975" lon="-3.629491981118918">
        <ele>676.79999999999995</ele>
        <time>2011-01-04T07:11:06Z</time>
      </trkpt>
      <trkpt lat="37.222891040146351" lon="-3.631071969866753">
        <ele>673.89999999999998</ele>
        <time>2011-01-04T07:11:17Z</time>
      </trkpt>
      <trkpt lat="37.22304099239409" lon="-3.631260981783271">
        <ele>673.60000000000002</ele>
        <time>2011-01-04T07:11:18Z</time>
      </trkpt>
      <trkpt lat="37.223184993490577" lon="-3.631462985649705">
        <ele>673.29999999999995</ele>
        <time>2011-01-04T07:11:19Z</time>
      </trkpt>
      <trkpt lat="37.224788032472134" lon="-3.633942017331719">
        <ele>672.89999999999998</ele>
        <time>2011-01-04T07:11:30Z</time>
      </trkpt>
      <trkpt lat="37.224970003589988" lon="-3.634143015369773">
        <ele>672.89999999999998</ele>
        <time>2011-01-04T07:11:31Z</time>
      </trkpt>
      <trkpt lat="37.225565034896135" lon="-3.634678032249212">
        <ele>672.89999999999998</ele>
        <time>2011-01-04T07:11:34Z</time>
      </trkpt>
      <trkpt lat="37.225776007398963" lon="-3.634835025295615">
        <ele>673.10000000000002</ele>
        <time>2011-01-04T07:11:35Z</time>
      </trkpt>
      <trkpt lat="37.228179015219212" lon="-3.636898985132575">
        <ele>673.20000000000005</ele>
        <time>2011-01-04T07:11:47Z</time>
      </trkpt>
      <trkpt lat="37.230252027511597" lon="-3.639113986864686">
        <ele>675.60000000000002</ele>
        <time>2011-01-04T07:11:58Z</time>
      </trkpt>
      <trkpt lat="37.230464005842805" lon="-3.63929201848805">
        <ele>676.10000000000002</ele>
        <time>2011-01-04T07:11:59Z</time>
      </trkpt>
      <trkpt lat="37.233547959476709" lon="-3.641746994107962">
        <ele>681.29999999999995</ele>
        <time>2011-01-04T07:12:13Z</time>
      </trkpt>
      <trkpt lat="37.233752980828285" lon="-3.641959978267551">
        <ele>681.39999999999998</ele>
        <time>2011-01-04T07:12:14Z</time>
      </trkpt>
      <trkpt lat="37.234544986858964" lon="-3.642873018980026">
        <ele>681.70000000000005</ele>
        <time>2011-01-04T07:12:18Z</time>
      </trkpt>
      <trkpt lat="37.235099030658603" lon="-3.64363300614059">
        <ele>681.89999999999998</ele>
        <time>2011-01-04T07:12:21Z</time>
      </trkpt>
      <trkpt lat="37.239834973588586" lon="-3.650404997169972">
        <ele>685.20000000000005</ele>
        <time>2011-01-04T07:12:48Z</time>
      </trkpt>
      <trkpt lat="37.240045024082065" lon="-3.650612030178309">
        <ele>685.29999999999995</ele>
        <time>2011-01-04T07:12:49Z</time>
      </trkpt>
      <trkpt lat="37.241868004202843" lon="-3.652152037248015">
        <ele>686.70000000000005</ele>
        <time>2011-01-04T07:12:57Z</time>
      </trkpt>
      <trkpt lat="37.24287299439311" lon="-3.652817979454994">
        <ele>686.70000000000005</ele>
        <time>2011-01-04T07:13:01Z</time>
      </trkpt>
      <trkpt lat="37.251705005764961" lon="-3.657462978735566">
        <ele>691.79999999999995</ele>
        <time>2011-01-04T07:13:33Z</time>
      </trkpt>
      <trkpt lat="37.252813009545207" lon="-3.657904034480453">
        <ele>693.29999999999995</ele>
        <time>2011-01-04T07:13:37Z</time>
      </trkpt>
      <trkpt lat="37.253925958648324" lon="-3.65822003223002">
        <ele>695.10000000000002</ele>
        <time>2011-01-04T07:13:41Z</time>
      </trkpt>
      <trkpt lat="37.262056991457939" lon="-3.65938100963831">
        <ele>696.10000000000002</ele>
        <time>2011-01-04T07:14:10Z</time>
      </trkpt>
      <trkpt lat="37.262347005307674" lon="-3.65940498188138">
        <ele>695.5</ele>
        <time>2011-01-04T07:14:11Z</time>
      </trkpt>
      <trkpt lat="37.264131009578705" lon="-3.659466002136469">
        <ele>692</ele>
        <time>2011-01-04T07:14:17Z</time>
      </trkpt>
      <trkpt lat="37.265956001356244" lon="-3.659313032403588">
        <ele>689.10000000000002</ele>
        <time>2011-01-04T07:14:23Z</time>
      </trkpt>
      <trkpt lat="37.266868036240339" lon="-3.659122008830309">
        <ele>687</ele>
        <time>2011-01-04T07:14:26Z</time>
      </trkpt>
      <trkpt lat="37.271043984219432" lon="-3.658022973686457">
        <ele>678.79999999999995</ele>
        <time>2011-01-04T07:14:40Z</time>
      </trkpt>
      <trkpt lat="37.271347995847464" lon="-3.658011993393302">
        <ele>678.20000000000005</ele>
        <time>2011-01-04T07:14:41Z</time>
      </trkpt>
      <trkpt lat="37.271652007475495" lon="-3.658019034191966">
        <ele>677.5</ele>
        <time>2011-01-04T07:14:42Z</time>
      </trkpt>
      <trkpt lat="37.276621973142028" lon="-3.658585986122489">
        <ele>667.10000000000002</ele>
        <time>2011-01-04T07:14:59Z</time>
      </trkpt>
      <trkpt lat="37.27690301835537" lon="-3.658585986122489">
        <ele>666.29999999999995</ele>
        <time>2011-01-04T07:15:00Z</time>
      </trkpt>
      <trkpt lat="37.278284020721912" lon="-3.658453971147537">
        <ele>663</ele>
        <time>2011-01-04T07:15:05Z</time>
      </trkpt>
      <trkpt lat="37.278827000409365" lon="-3.658340983092785">
        <ele>662.20000000000005</ele>
        <time>2011-01-04T07:15:07Z</time>
      </trkpt>
      <trkpt lat="37.28253498673439" lon="-3.657456021755934">
        <ele>657.39999999999998</ele>
        <time>2011-01-04T07:15:21Z</time>
      </trkpt>
      <trkpt lat="37.282805973663926" lon="-3.657453004270792">
        <ele>657.20000000000005</ele>
        <time>2011-01-04T07:15:22Z</time>
      </trkpt>
      <trkpt lat="37.283076038584113" lon="-3.657463984563947">
        <ele>657</ele>
        <time>2011-01-04T07:15:23Z</time>
      </trkpt>
      <trkpt lat="37.283616000786424" lon="-3.657526010647416">
        <ele>656.70000000000005</ele>
        <time>2011-01-04T07:15:25Z</time>
      </trkpt>
      <trkpt lat="37.284151017665863" lon="-3.657644027844071">
        <ele>657</ele>
        <time>2011-01-04T07:15:27Z</time>
      </trkpt>
      <trkpt lat="37.287059035152197" lon="-3.658351041376591">
        <ele>658.89999999999998</ele>
        <time>2011-01-04T07:15:38Z</time>
      </trkpt>
      <trkpt lat="37.287320969626307" lon="-3.658363027498126">
        <ele>659.39999999999998</ele>
        <time>2011-01-04T07:15:39Z</time>
      </trkpt>
      <trkpt lat="37.287580976262689" lon="-3.658363027498126">
        <ele>659.79999999999995</ele>
        <time>2011-01-04T07:15:40Z</time>
      </trkpt>
      <trkpt lat="37.288095960393548" lon="-3.658318016678095">
        <ele>660.20000000000005</ele>
        <time>2011-01-04T07:15:42Z</time>
      </trkpt>
      <trkpt lat="37.288595018908381" lon="-3.658218020573258">
        <ele>660.70000000000005</ele>
        <time>2011-01-04T07:15:44Z</time>
      </trkpt>
      <trkpt lat="37.289081001654267" lon="-3.658069996163249">
        <ele>661.29999999999995</ele>
        <time>2011-01-04T07:15:46Z</time>
      </trkpt>
      <trkpt lat="37.292995015159249" lon="-3.656452959403396">
        <ele>671.89999999999998</ele>
        <time>2011-01-04T07:16:02Z</time>
      </trkpt>
      <trkpt lat="37.293258039280772" lon="-3.656408032402396">
        <ele>672.39999999999998</ele>
        <time>2011-01-04T07:16:03Z</time>
      </trkpt>
      <trkpt lat="37.293523997068405" lon="-3.656377019360662">
        <ele>672.89999999999998</ele>
        <time>2011-01-04T07:16:04Z</time>
      </trkpt>
      <trkpt lat="37.293791966512799" lon="-3.656362015753985">
        <ele>673.5</ele>
        <time>2011-01-04T07:16:05Z</time>
      </trkpt>
      <trkpt lat="37.294061025604606" lon="-3.656363021582365">
        <ele>674.10000000000002</ele>
        <time>2011-01-04T07:16:06Z</time>
      </trkpt>
      <trkpt lat="37.294332012534142" lon="-3.656379031017423">
        <ele>674.39999999999998</ele>
        <time>2011-01-04T07:16:07Z</time>
      </trkpt>
      <trkpt lat="37.294871974736452" lon="-3.65646000020206">
        <ele>674.79999999999995</ele>
        <time>2011-01-04T07:16:09Z</time>
      </trkpt>
      <trkpt lat="37.295142039656639" lon="-3.65652303211391">
        <ele>674.79999999999995</ele>
        <time>2011-01-04T07:16:10Z</time>
      </trkpt>
      <trkpt lat="37.295942008495331" lon="-3.656794019043446">
        <ele>674.5</ele>
        <time>2011-01-04T07:16:13Z</time>
      </trkpt>
      <trkpt lat="37.300709970295429" lon="-3.658771980553865">
        <ele>671.60000000000002</ele>
        <time>2011-01-04T07:16:31Z</time>
      </trkpt>
      <trkpt lat="37.300978023558855" lon="-3.658800981938839">
        <ele>671.70000000000005</ele>
        <time>2011-01-04T07:16:32Z</time>
      </trkpt>
      <trkpt lat="37.301245993003249" lon="-3.658816991373897">
        <ele>671.79999999999995</ele>
        <time>2011-01-04T07:16:33Z</time>
      </trkpt>
      <trkpt lat="37.301514968276024" lon="-3.658816991373897">
        <ele>671.60000000000002</ele>
        <time>2011-01-04T07:16:34Z</time>
      </trkpt>
      <trkpt lat="37.302054008468986" lon="-3.658769968897104">
        <ele>671.39999999999998</ele>
        <time>2011-01-04T07:16:36Z</time>
      </trkpt>
      <trkpt lat="37.302587013691664" lon="-3.658658992499113">
        <ele>670.10000000000002</ele>
        <time>2011-01-04T07:16:38Z</time>
      </trkpt>
      <trkpt lat="37.303641038015485" lon="-3.658301001414657">
        <ele>666.70000000000005</ele>
        <time>2011-01-04T07:16:42Z</time>
      </trkpt>
      <trkpt lat="37.304161973297596" lon="-3.658057004213333">
        <ele>665.60000000000002</ele>
        <time>2011-01-04T07:16:44Z</time>
      </trkpt>
      <trkpt lat="37.304666982963681" lon="-3.657753998413682">
        <ele>664.89999999999998</ele>
        <time>2011-01-04T07:16:46Z</time>
      </trkpt>
      <trkpt lat="37.305151037871838" lon="-3.657392989844084">
        <ele>664.20000000000005</ele>
        <time>2011-01-04T07:16:48Z</time>
      </trkpt>
      <trkpt lat="37.305838018655777" lon="-3.656769962981343">
        <ele>664.39999999999998</ele>
        <time>2011-01-04T07:16:51Z</time>
      </trkpt>
      <trkpt lat="37.306262981146574" lon="-3.656302001327276">
        <ele>664.79999999999995</ele>
        <time>2011-01-04T07:16:53Z</time>
      </trkpt>
      <trkpt lat="37.306657014414668" lon="-3.655791040509939">
        <ele>665.29999999999995</ele>
        <time>2011-01-04T07:16:55Z</time>
      </trkpt>
      <trkpt lat="37.307190019637346" lon="-3.65495603531599">
        <ele>666.70000000000005</ele>
        <time>2011-01-04T07:16:58Z</time>
      </trkpt>
      <trkpt lat="37.308932030573487" lon="-3.652156982570887">
        <ele>672</ele>
        <time>2011-01-04T07:17:08Z</time>
      </trkpt>
      <trkpt lat="37.309138979762793" lon="-3.651912985369563">
        <ele>672.29999999999995</ele>
        <time>2011-01-04T07:17:09Z</time>
      </trkpt>
      <trkpt lat="37.30958104133606" lon="-3.651464972645044">
        <ele>672.89999999999998</ele>
        <time>2011-01-04T07:17:11Z</time>
      </trkpt>
      <trkpt lat="37.310050008818507" lon="-3.651059037074447">
        <ele>673.20000000000005</ele>
        <time>2011-01-04T07:17:13Z</time>
      </trkpt>
      <trkpt lat="37.312942016869783" lon="-3.648783015087247">
        <ele>674</ele>
        <time>2011-01-04T07:17:25Z</time>
      </trkpt>
      <trkpt lat="37.313143014907837" lon="-3.648533988744021">
        <ele>674.39999999999998</ele>
        <time>2011-01-04T07:17:26Z</time>
      </trkpt>
      <trkpt lat="37.315039001405239" lon="-3.645958984270692">
        <ele>678.79999999999995</ele>
        <time>2011-01-04T07:17:36Z</time>
      </trkpt>
      <trkpt lat="37.315260032191873" lon="-3.64573996514082">
        <ele>679.10000000000002</ele>
        <time>2011-01-04T07:17:37Z</time>
      </trkpt>
      <trkpt lat="37.3154900316149" lon="-3.645535027608275">
        <ele>679.29999999999995</ele>
        <time>2011-01-04T07:17:38Z</time>
      </trkpt>
      <trkpt lat="37.315979031845927" lon="-3.645167984068394">
        <ele>679.5</ele>
        <time>2011-01-04T07:17:40Z</time>
      </trkpt>
      <trkpt lat="37.319334978237748" lon="-3.64290302619338">
        <ele>681.60000000000002</ele>
        <time>2011-01-04T07:17:53Z</time>
      </trkpt>
      <trkpt lat="37.319563971832395" lon="-3.642665985971689">
        <ele>681.89999999999998</ele>
        <time>2011-01-04T07:17:54Z</time>
      </trkpt>
      <trkpt lat="37.319991029798985" lon="-3.642147984355688">
        <ele>682.5</ele>
        <time>2011-01-04T07:17:56Z</time>
      </trkpt>
      <trkpt lat="37.320189010351896" lon="-3.641870962455869">
        <ele>682.79999999999995</ele>
        <time>2011-01-04T07:17:57Z</time>
      </trkpt>
      <trkpt lat="37.320549013093114" lon="-3.641286995261908">
        <ele>683.60000000000002</ele>
        <time>2011-01-04T07:17:59Z</time>
      </trkpt>
      <trkpt lat="37.32101303525269" lon="-3.640361968427897">
        <ele>685</ele>
        <time>2011-01-04T07:18:02Z</time>
      </trkpt>
      <trkpt lat="37.323167016729712" lon="-3.635746976360679">
        <ele>689.29999999999995</ele>
        <time>2011-01-04T07:18:17Z</time>
      </trkpt>
      <trkpt lat="37.323342030867934" lon="-3.635466014966369">
        <ele>689.70000000000005</ele>
        <time>2011-01-04T07:18:18Z</time>
      </trkpt>
      <trkpt lat="37.323530958965421" lon="-3.635197961702943">
        <ele>690.20000000000005</ele>
        <time>2011-01-04T07:18:19Z</time>
      </trkpt>
      <trkpt lat="37.323731034994125" lon="-3.634941978380084">
        <ele>690.60000000000002</ele>
        <time>2011-01-04T07:18:20Z</time>
      </trkpt>
      <trkpt lat="37.324165971949697" lon="-3.634472005069256">
        <ele>691.39999999999998</ele>
        <time>2011-01-04T07:18:22Z</time>
      </trkpt>
      <trkpt lat="37.324398988857865" lon="-3.634259020909667">
        <ele>691.79999999999995</ele>
        <time>2011-01-04T07:18:23Z</time>
      </trkpt>
      <trkpt lat="37.324638040736318" lon="-3.634061040356755">
        <ele>692</ele>
        <time>2011-01-04T07:18:24Z</time>
      </trkpt>
      <trkpt lat="37.324886983260512" lon="-3.633877979591489">
        <ele>692.29999999999995</ele>
        <time>2011-01-04T07:18:25Z</time>
      </trkpt>
      <trkpt lat="37.325146989896894" lon="-3.633713023737073">
        <ele>692.5</ele>
        <time>2011-01-04T07:18:26Z</time>
      </trkpt>
      <trkpt lat="37.325688963755965" lon="-3.633433990180492">
        <ele>692.70000000000005</ele>
        <time>2011-01-04T07:18:28Z</time>
      </trkpt>
      <trkpt lat="37.325969003140926" lon="-3.63332100212574">
        <ele>692.89999999999998</ele>
        <time>2011-01-04T07:18:29Z</time>
      </trkpt>
      <trkpt lat="37.326253987848759" lon="-3.633224023506045">
        <ele>693.10000000000002</ele>
        <time>2011-01-04T07:18:30Z</time>
      </trkpt>
      <trkpt lat="37.326837033033371" lon="-3.633086979389191">
        <ele>693.39999999999998</ele>
        <time>2011-01-04T07:18:32Z</time>
      </trkpt>
      <trkpt lat="37.331609018146992" lon="-3.632283993065357">
        <ele>699.10000000000002</ele>
        <time>2011-01-04T07:18:48Z</time>
      </trkpt>
      <trkpt lat="37.331892997026443" lon="-3.632148960605264">
        <ele>699.39999999999998</ele>
        <time>2011-01-04T07:18:49Z</time>
      </trkpt>
      <trkpt lat="37.332435976713896" lon="-3.631819970905781">
        <ele>700.10000000000002</ele>
        <time>2011-01-04T07:18:51Z</time>
      </trkpt>
      <trkpt lat="37.332691038027406" lon="-3.63162400200963">
        <ele>700.5</ele>
        <time>2011-01-04T07:18:52Z</time>
      </trkpt>
      <trkpt lat="37.333168974146247" lon="-3.631182024255395">
        <ele>701.29999999999995</ele>
        <time>2011-01-04T07:18:54Z</time>
      </trkpt>
      <trkpt lat="37.333393022418022" lon="-3.630939032882452">
        <ele>701.89999999999998</ele>
        <time>2011-01-04T07:18:55Z</time>
      </trkpt>
      <trkpt lat="37.334587024524808" lon="-3.629311015829444">
        <ele>705</ele>
        <time>2011-01-04T07:19:01Z</time>
      </trkpt>
      <trkpt lat="37.339251972734928" lon="-3.622562997043133">
        <ele>719.79999999999995</ele>
        <time>2011-01-04T07:19:25Z</time>
      </trkpt>
      <trkpt lat="37.339483983814716" lon="-3.622326040640473">
        <ele>720.29999999999995</ele>
        <time>2011-01-04T07:19:26Z</time>
      </trkpt>
      <trkpt lat="37.340214969590306" lon="-3.621667977422476">
        <ele>722</ele>
        <time>2011-01-04T07:19:29Z</time>
      </trkpt>
      <trkpt lat="37.340470030903816" lon="-3.621468991041184">
        <ele>722.60000000000002</ele>
        <time>2011-01-04T07:19:30Z</time>
      </trkpt>
      <trkpt lat="37.340997001156211" lon="-3.621105970814824">
        <ele>723.70000000000005</ele>
        <time>2011-01-04T07:19:32Z</time>
      </trkpt>
      <trkpt lat="37.353127039968967" lon="-3.61400599591434">
        <ele>754.39999999999998</ele>
        <time>2011-01-04T07:20:17Z</time>
      </trkpt>
      <trkpt lat="37.353399032726884" lon="-3.613870041444898">
        <ele>755</ele>
        <time>2011-01-04T07:20:18Z</time>
      </trkpt>
      <trkpt lat="37.359568029642105" lon="-3.610499007627368">
        <ele>773.20000000000005</ele>
        <time>2011-01-04T07:20:41Z</time>
      </trkpt>
      <trkpt lat="37.361120022833347" lon="-3.608922036364675">
        <ele>780.60000000000002</ele>
        <time>2011-01-04T07:20:48Z</time>
      </trkpt>
      <trkpt lat="37.36284501850605" lon="-3.607107019051909">
        <ele>787.5</ele>
        <time>2011-01-04T07:20:56Z</time>
      </trkpt>
      <trkpt lat="37.363083986565471" lon="-3.606918007135391">
        <ele>787.70000000000005</ele>
        <time>2011-01-04T07:20:57Z</time>
      </trkpt>
      <trkpt lat="37.366736987605691" lon="-3.604152984917164">
        <ele>796</ele>
        <time>2011-01-04T07:21:12Z</time>
      </trkpt>
      <trkpt lat="37.366952989250422" lon="-3.603931032121182">
        <ele>797.29999999999995</ele>
        <time>2011-01-04T07:21:13Z</time>
      </trkpt>
      <trkpt lat="37.36793601885438" lon="-3.602712973952293">
        <ele>802.89999999999998</ele>
        <time>2011-01-04T07:21:18Z</time>
      </trkpt>
      <trkpt lat="37.368118995800614" lon="-3.602456990629435">
        <ele>803.79999999999995</ele>
        <time>2011-01-04T07:21:19Z</time>
      </trkpt>
      <trkpt lat="37.382583981379867" lon="-3.585726041346788">
        <ele>845.70000000000005</ele>
        <time>2011-01-04T07:22:27Z</time>
      </trkpt>
      <trkpt lat="37.383557958528399" lon="-3.584902016445994">
        <ele>850.39999999999998</ele>
        <time>2011-01-04T07:22:31Z</time>
      </trkpt>
      <trkpt lat="37.38381402567029" lon="-3.584727002307773">
        <ele>851.70000000000005</ele>
        <time>2011-01-04T07:22:32Z</time>
      </trkpt>
      <trkpt lat="37.384337978437543" lon="-3.584418967366219">
        <ele>854.39999999999998</ele>
        <time>2011-01-04T07:22:34Z</time>
      </trkpt>
      <trkpt lat="37.384606031700969" lon="-3.584289969876409">
        <ele>855.79999999999995</ele>
        <time>2011-01-04T07:22:35Z</time>
      </trkpt>
      <trkpt lat="37.385152028873563" lon="-3.584082014858723">
        <ele>858.39999999999998</ele>
        <time>2011-01-04T07:22:37Z</time>
      </trkpt>
      <trkpt lat="37.38598502241075" lon="-3.583869030699134">
        <ele>862.20000000000005</ele>
        <time>2011-01-04T07:22:40Z</time>
      </trkpt>
      <trkpt lat="37.387886038050056" lon="-3.583398973569274">
        <ele>870.20000000000005</ele>
        <time>2011-01-04T07:22:47Z</time>
      </trkpt>
      <trkpt lat="37.388144033029675" lon="-3.583285985514522">
        <ele>871.10000000000002</ele>
        <time>2011-01-04T07:22:48Z</time>
      </trkpt>
      <trkpt lat="37.388645019382238" lon="-3.583005024120212">
        <ele>872.5</ele>
        <time>2011-01-04T07:22:50Z</time>
      </trkpt>
      <trkpt lat="37.388889016583562" lon="-3.582838978618383">
        <ele>873.20000000000005</ele>
        <time>2011-01-04T07:22:51Z</time>
      </trkpt>
      <trkpt lat="37.389125972986221" lon="-3.582657007500529">
        <ele>873.70000000000005</ele>
        <time>2011-01-04T07:22:52Z</time>
      </trkpt>
      <trkpt lat="37.389579014852643" lon="-3.582239001989365">
        <ele>874.20000000000005</ele>
        <time>2011-01-04T07:22:54Z</time>
      </trkpt>
      <trkpt lat="37.389794010668993" lon="-3.582003973424435">
        <ele>874.29999999999995</ele>
        <time>2011-01-04T07:22:55Z</time>
      </trkpt>
      <trkpt lat="37.390197012573481" lon="-3.581484965980053">
        <ele>874.10000000000002</ele>
        <time>2011-01-04T07:22:57Z</time>
      </trkpt>
      <trkpt lat="37.390558021143079" lon="-3.580913990736008">
        <ele>873.5</ele>
        <time>2011-01-04T07:22:59Z</time>
      </trkpt>
      <trkpt lat="37.394144972786307" lon="-3.574729990214109">
        <ele>859.79999999999995</ele>
        <time>2011-01-04T07:23:19Z</time>
      </trkpt>
      <trkpt lat="37.394367009401321" lon="-3.574459003284574">
        <ele>859.89999999999998</ele>
        <time>2011-01-04T07:23:20Z</time>
      </trkpt>
      <trkpt lat="37.395053990185261" lon="-3.573695998638868">
        <ele>860.10000000000002</ele>
        <time>2011-01-04T07:23:23Z</time>
      </trkpt>
      <trkpt lat="37.396013969555497" lon="-3.572810031473637">
        <ele>860.20000000000005</ele>
        <time>2011-01-04T07:23:27Z</time>
      </trkpt>
      <trkpt lat="37.396257966756821" lon="-3.57260400429368">
        <ele>860.20000000000005</ele>
        <time>2011-01-04T07:23:28Z</time>
      </trkpt>
      <trkpt lat="37.405919032171369" lon="-3.564902041107416">
        <ele>881.60000000000002</ele>
        <time>2011-01-04T07:24:10Z</time>
      </trkpt>
      <trkpt lat="37.406163029372692" lon="-3.564763991162181">
        <ele>882.5</ele>
        <time>2011-01-04T07:24:11Z</time>
      </trkpt>
      <trkpt lat="37.406664015725255" lon="-3.564529968425632">
        <ele>884.20000000000005</ele>
        <time>2011-01-04T07:24:13Z</time>
      </trkpt>
      <trkpt lat="37.406922010704875" lon="-3.564437013119459">
        <ele>885.10000000000002</ele>
        <time>2011-01-04T07:24:14Z</time>
      </trkpt>
      <trkpt lat="37.407185034826398" lon="-3.564359983429313">
        <ele>886</ele>
        <time>2011-01-04T07:24:15Z</time>
      </trkpt>
      <trkpt lat="37.407721979543567" lon="-3.564260993152857">
        <ele>887.79999999999995</ele>
        <time>2011-01-04T07:24:17Z</time>
      </trkpt>
      <trkpt lat="37.407993972301483" lon="-3.564236015081406">
        <ele>888.70000000000005</ele>
        <time>2011-01-04T07:24:18Z</time>
      </trkpt>
      <trkpt lat="37.408267976716161" lon="-3.564226040616632">
        <ele>889.39999999999998</ele>
        <time>2011-01-04T07:24:19Z</time>
      </trkpt>
      <trkpt lat="37.40854499861598" lon="-3.564229980111122">
        <ele>890.20000000000005</ele>
        <time>2011-01-04T07:24:20Z</time>
      </trkpt>
      <trkpt lat="37.409380003809929" lon="-3.564270967617631">
        <ele>891.79999999999995</ele>
        <time>2011-01-04T07:24:23Z</time>
      </trkpt>
      <trkpt lat="37.409660965204239" lon="-3.564273985102773">
        <ele>892.89999999999998</ele>
        <time>2011-01-04T07:24:24Z</time>
      </trkpt>
      <trkpt lat="37.409943016245961" lon="-3.56426602229476">
        <ele>893.89999999999998</ele>
        <time>2011-01-04T07:24:25Z</time>
      </trkpt>
      <trkpt lat="37.410509968176484" lon="-3.564200978726149">
        <ele>896.10000000000002</ele>
        <time>2011-01-04T07:24:27Z</time>
      </trkpt>
      <trkpt lat="37.410791013389826" lon="-3.56414096429944">
        <ele>897.10000000000002</ele>
        <time>2011-01-04T07:24:28Z</time>
      </trkpt>
      <trkpt lat="37.411069963127375" lon="-3.564062006771565">
        <ele>898</ele>
        <time>2011-01-04T07:24:29Z</time>
      </trkpt>
      <trkpt lat="37.41161797195673" lon="-3.563848016783595">
        <ele>899.70000000000005</ele>
        <time>2011-01-04T07:24:31Z</time>
      </trkpt>
      <trkpt lat="37.412149971351027" lon="-3.563566971570253">
        <ele>901.5</ele>
        <time>2011-01-04T07:24:33Z</time>
      </trkpt>
      <trkpt lat="37.412660010159016" lon="-3.563221972435713">
        <ele>903.5</ele>
        <time>2011-01-04T07:24:35Z</time>
      </trkpt>
      <trkpt lat="37.41290501318872" lon="-3.563020974397659">
        <ele>903.89999999999998</ele>
        <time>2011-01-04T07:24:36Z</time>
      </trkpt>
      <trkpt lat="37.413139035925269" lon="-3.562802961096168">
        <ele>904.89999999999998</ele>
        <time>2011-01-04T07:24:37Z</time>
      </trkpt>
      <trkpt lat="37.41335797123611" lon="-3.562561981379986">
        <ele>905.70000000000005</ele>
        <time>2011-01-04T07:24:38Z</time>
      </trkpt>
      <trkpt lat="37.413758961483836" lon="-3.562027970328927">
        <ele>907.29999999999995</ele>
        <time>2011-01-04T07:24:40Z</time>
      </trkpt>
      <trkpt lat="37.414115024730563" lon="-3.561441991478205">
        <ele>909.10000000000002</ele>
        <time>2011-01-04T07:24:42Z</time>
      </trkpt>
      <trkpt lat="37.414422975853086" lon="-3.560812007635832">
        <ele>911.10000000000002</ele>
        <time>2011-01-04T07:24:44Z</time>
      </trkpt>
      <trkpt lat="37.415746981278062" lon="-3.557902984321117">
        <ele>921.70000000000005</ele>
        <time>2011-01-04T07:24:53Z</time>
      </trkpt>
      <trkpt lat="37.415932975709438" lon="-3.557609030976892">
        <ele>922.60000000000002</ele>
        <time>2011-01-04T07:24:54Z</time>
      </trkpt>
      <trkpt lat="37.416130034253001" lon="-3.557324968278408">
        <ele>923.5</ele>
        <time>2011-01-04T07:24:55Z</time>
      </trkpt>
      <trkpt lat="37.416554996743798" lon="-3.556790035218">
        <ele>925.29999999999995</ele>
        <time>2011-01-04T07:24:57Z</time>
      </trkpt>
      <trkpt lat="37.416782984510064" lon="-3.556542014703155">
        <ele>926.20000000000005</ele>
        <time>2011-01-04T07:24:58Z</time>
      </trkpt>
      <trkpt lat="37.417267039418221" lon="-3.556086039170623">
        <ele>928</ele>
        <time>2011-01-04T07:25:00Z</time>
      </trkpt>
      <trkpt lat="37.417522016912699" lon="-3.555881017819047">
        <ele>929</ele>
        <time>2011-01-04T07:25:01Z</time>
      </trkpt>
      <trkpt lat="37.418058039620519" lon="-3.555519003421068">
        <ele>931</ele>
        <time>2011-01-04T07:25:03Z</time>
      </trkpt>
      <trkpt lat="37.418335983529687" lon="-3.555362010374665">
        <ele>931.89999999999998</ele>
        <time>2011-01-04T07:25:04Z</time>
      </trkpt>
      <trkpt lat="37.41861904039979" lon="-3.555223038420081">
        <ele>932.89999999999998</ele>
        <time>2011-01-04T07:25:05Z</time>
      </trkpt>
      <trkpt lat="37.41920200176537" lon="-3.554994966834784">
        <ele>935</ele>
        <time>2011-01-04T07:25:07Z</time>
      </trkpt>
      <trkpt lat="37.419499978423119" lon="-3.554907962679863">
        <ele>936</ele>
        <time>2011-01-04T07:25:08Z</time>
      </trkpt>
      <trkpt lat="37.420105990022421" lon="-3.554790029302239">
        <ele>938</ele>
        <time>2011-01-04T07:25:10Z</time>
      </trkpt>
      <trkpt lat="37.420411007478833" lon="-3.554759016260505">
        <ele>938.89999999999998</ele>
        <time>2011-01-04T07:25:11Z</time>
      </trkpt>
      <trkpt lat="37.420717030763626" lon="-3.554747030138969">
        <ele>939.60000000000002</ele>
        <time>2011-01-04T07:25:12Z</time>
      </trkpt>
      <trkpt lat="37.421023976057768" lon="-3.554753987118602">
        <ele>940.29999999999995</ele>
        <time>2011-01-04T07:25:13Z</time>
      </trkpt>
      <trkpt lat="37.421637028455734" lon="-3.554820036515594">
        <ele>941.60000000000002</ele>
        <time>2011-01-04T07:25:15Z</time>
      </trkpt>
      <trkpt lat="37.421940034255385" lon="-3.55487896129489">
        <ele>942.29999999999995</ele>
        <time>2011-01-04T07:25:16Z</time>
      </trkpt>
      <trkpt lat="37.422539005056024" lon="-3.55505196377635">
        <ele>943.39999999999998</ele>
        <time>2011-01-04T07:25:18Z</time>
      </trkpt>
      <trkpt lat="37.422832958400249" lon="-3.555165035650134">
        <ele>944.10000000000002</ele>
        <time>2011-01-04T07:25:19Z</time>
      </trkpt>
      <trkpt lat="37.423406029120088" lon="-3.555443985387683">
        <ele>946.10000000000002</ele>
        <time>2011-01-04T07:25:21Z</time>
      </trkpt>
      <trkpt lat="37.423683973029256" lon="-3.555609025061131">
        <ele>947.20000000000005</ele>
        <time>2011-01-04T07:25:22Z</time>
      </trkpt>
      <trkpt lat="37.424214966595173" lon="-3.555988976731896">
        <ele>950.39999999999998</ele>
        <time>2011-01-04T07:25:24Z</time>
      </trkpt>
      <trkpt lat="37.4247229937464" lon="-3.556416034698486">
        <ele>953.29999999999995</ele>
        <time>2011-01-04T07:25:26Z</time>
      </trkpt>
      <trkpt lat="37.425448028370738" lon="-3.557121036574245">
        <ele>957</ele>
        <time>2011-01-04T07:25:29Z</time>
      </trkpt>
      <trkpt lat="37.425680039450526" lon="-3.557368973270059">
        <ele>958</ele>
        <time>2011-01-04T07:25:30Z</time>
      </trkpt>
      <trkpt lat="37.430068971589208" lon="-3.562631970271468">
        <ele>977.20000000000005</ele>
        <time>2011-01-04T07:25:50Z</time>
      </trkpt>
      <trkpt lat="37.430319003760815" lon="-3.562841014936566">
        <ele>978.20000000000005</ele>
        <time>2011-01-04T07:25:51Z</time>
      </trkpt>
      <trkpt lat="37.430830970406532" lon="-3.563222978264093">
        <ele>980.20000000000005</ele>
        <time>2011-01-04T07:25:53Z</time>
      </trkpt>
      <trkpt lat="37.431364981457591" lon="-3.563547022640705">
        <ele>982</ele>
        <time>2011-01-04T07:25:55Z</time>
      </trkpt>
      <trkpt lat="37.43164099752903" lon="-3.563680965453386">
        <ele>982.89999999999998</ele>
        <time>2011-01-04T07:25:56Z</time>
      </trkpt>
      <trkpt lat="37.432206021621823" lon="-3.563894033432007">
        <ele>984.60000000000002</ele>
        <time>2011-01-04T07:25:58Z</time>
      </trkpt>
      <trkpt lat="37.432493017986417" lon="-3.563971985131502">
        <ele>985.70000000000005</ele>
        <time>2011-01-04T07:25:59Z</time>
      </trkpt>
      <trkpt lat="37.433071034029126" lon="-3.564066030085087">
        <ele>987.70000000000005</ele>
        <time>2011-01-04T07:26:01Z</time>
      </trkpt>
      <trkpt lat="37.433359958231449" lon="-3.564082039520145">
        <ele>988.79999999999995</ele>
        <time>2011-01-04T07:26:02Z</time>
      </trkpt>
      <trkpt lat="37.433649972081184" lon="-3.564078016206622">
        <ele>989.79999999999995</ele>
        <time>2011-01-04T07:26:03Z</time>
      </trkpt>
      <trkpt lat="37.434224970638752" lon="-3.564007021486759">
        <ele>991</ele>
        <time>2011-01-04T07:26:05Z</time>
      </trkpt>
      <trkpt lat="37.434791000559926" lon="-3.563861008733511">
        <ele>992.20000000000005</ele>
        <time>2011-01-04T07:26:07Z</time>
      </trkpt>
      <trkpt lat="37.435067016631365" lon="-3.563764030113816">
        <ele>993.29999999999995</ele>
        <time>2011-01-04T07:26:08Z</time>
      </trkpt>
      <trkpt lat="37.435614019632339" lon="-3.563510980457068">
        <ele>995.29999999999995</ele>
        <time>2011-01-04T07:26:10Z</time>
      </trkpt>
      <trkpt lat="37.435878971591592" lon="-3.563355999067426">
        <ele>995.89999999999998</ele>
        <time>2011-01-04T07:26:11Z</time>
      </trkpt>
      <trkpt lat="37.436398984864354" lon="-3.562979986891151">
        <ele>995.20000000000005</ele>
        <time>2011-01-04T07:26:13Z</time>
      </trkpt>
      <trkpt lat="37.436891002580523" lon="-3.562532979995012">
        <ele>994.79999999999995</ele>
        <time>2011-01-04T07:26:15Z</time>
      </trkpt>
      <trkpt lat="37.439346984028816" lon="-3.560117986053228">
        <ele>991.70000000000005</ele>
        <time>2011-01-04T07:26:25Z</time>
      </trkpt>
      <trkpt lat="37.439621994271874" lon="-3.559913970530033">
        <ele>990.79999999999995</ele>
        <time>2011-01-04T07:26:26Z</time>
      </trkpt>
      <trkpt lat="37.4401939753443" lon="-3.5595409758389">
        <ele>989.29999999999995</ele>
        <time>2011-01-04T07:26:28Z</time>
      </trkpt>
      <trkpt lat="37.44079302996397" lon="-3.559220032766461">
        <ele>987.60000000000002</ele>
        <time>2011-01-04T07:26:30Z</time>
      </trkpt>
      <trkpt lat="37.441102992743254" lon="-3.559079971164465">
        <ele>986.5</ele>
        <time>2011-01-04T07:26:31Z</time>
      </trkpt>
      <trkpt lat="37.441734988242388" lon="-3.558850977569819">
        <ele>984</ele>
        <time>2011-01-04T07:26:33Z</time>
      </trkpt>
      <trkpt lat="37.44238399900496" lon="-3.558695996180177">
        <ele>981.5</ele>
        <time>2011-01-04T07:26:35Z</time>
      </trkpt>
      <trkpt lat="37.443048013374209" lon="-3.558604968711734">
        <ele>978.60000000000002</ele>
        <time>2011-01-04T07:26:37Z</time>
      </trkpt>
      <trkpt lat="37.443385971710086" lon="-3.558584013953805">
        <ele>977.10000000000002</ele>
        <time>2011-01-04T07:26:38Z</time>
      </trkpt>
      <trkpt lat="37.443726025521755" lon="-3.558579990640283">
        <ele>975.60000000000002</ele>
        <time>2011-01-04T07:26:39Z</time>
      </trkpt>
      <trkpt lat="37.444068007171154" lon="-3.558592982590199">
        <ele>974.10000000000002</ele>
        <time>2011-01-04T07:26:40Z</time>
      </trkpt>
      <trkpt lat="37.444751970469952" lon="-3.558672023937106">
        <ele>970.89999999999998</ele>
        <time>2011-01-04T07:26:42Z</time>
      </trkpt>
      <trkpt lat="37.445433000102639" lon="-3.558821976184845">
        <ele>967.70000000000005</ele>
        <time>2011-01-04T07:26:44Z</time>
      </trkpt>
      <trkpt lat="37.445770036429167" lon="-3.558921972289681">
        <ele>966.20000000000005</ele>
        <time>2011-01-04T07:26:45Z</time>
      </trkpt>
      <trkpt lat="37.446426004171371" lon="-3.559166975319386">
        <ele>963.10000000000002</ele>
        <time>2011-01-04T07:26:47Z</time>
      </trkpt>
      <trkpt lat="37.447056993842125" lon="-3.559479033574462">
        <ele>960.70000000000005</ele>
        <time>2011-01-04T07:26:49Z</time>
      </trkpt>
      <trkpt lat="37.452990962192416" lon="-3.562772031873465">
        <ele>956.20000000000005</ele>
        <time>2011-01-04T07:27:09Z</time>
      </trkpt>
      <trkpt lat="37.453288016840816" lon="-3.562851995229721">
        <ele>956.29999999999995</ele>
        <time>2011-01-04T07:27:10Z</time>
      </trkpt>
      <trkpt lat="37.45476096868515" lon="-3.563114013522863">
        <ele>957.89999999999998</ele>
        <time>2011-01-04T07:27:15Z</time>
      </trkpt>
      <trkpt lat="37.45564098469913" lon="-3.563174027949572">
        <ele>959.5</ele>
        <time>2011-01-04T07:27:18Z</time>
      </trkpt>
      <trkpt lat="37.455934016034007" lon="-3.563176039606333">
        <ele>960</ele>
        <time>2011-01-04T07:27:19Z</time>
      </trkpt>
      <trkpt lat="37.456226963549852" lon="-3.563168998807669">
        <ele>960.60000000000002</ele>
        <time>2011-01-04T07:27:20Z</time>
      </trkpt>
      <trkpt lat="37.461173962801695" lon="-3.562390990555286">
        <ele>977.10000000000002</ele>
        <time>2011-01-04T07:27:37Z</time>
      </trkpt>
      <trkpt lat="37.461466994136572" lon="-3.562390990555286">
        <ele>978.29999999999995</ele>
        <time>2011-01-04T07:27:38Z</time>
      </trkpt>
      <trkpt lat="37.46176203712821" lon="-3.562412029132247">
        <ele>979.29999999999995</ele>
        <time>2011-01-04T07:27:39Z</time>
      </trkpt>
      <trkpt lat="37.462052972987294" lon="-3.562455028295517">
        <ele>980.29999999999995</ele>
        <time>2011-01-04T07:27:40Z</time>
      </trkpt>
      <trkpt lat="37.462342986837029" lon="-3.562517976388335">
        <ele>981.39999999999998</ele>
        <time>2011-01-04T07:27:41Z</time>
      </trkpt>
      <trkpt lat="37.462629983201623" lon="-3.562600035220385">
        <ele>982.39999999999998</ele>
        <time>2011-01-04T07:27:42Z</time>
      </trkpt>
      <trkpt lat="37.463192995637655" lon="-3.562816036865115">
        <ele>984.5</ele>
        <time>2011-01-04T07:27:44Z</time>
      </trkpt>
      <trkpt lat="37.463467000052333" lon="-3.562951991334558">
        <ele>985.5</ele>
        <time>2011-01-04T07:27:45Z</time>
      </trkpt>
      <trkpt lat="37.463733041658998" lon="-3.563106972724199">
        <ele>986.5</ele>
        <time>2011-01-04T07:27:46Z</time>
      </trkpt>
      <trkpt lat="37.463989024981856" lon="-3.563282992690802">
        <ele>987.89999999999998</ele>
        <time>2011-01-04T07:27:47Z</time>
      </trkpt>
      <trkpt lat="37.46423696167767" lon="-3.563478039577603">
        <ele>989.29999999999995</ele>
        <time>2011-01-04T07:27:48Z</time>
      </trkpt>
      <trkpt lat="37.464474001899362" lon="-3.563692029565573">
        <ele>990.60000000000002</ele>
        <time>2011-01-04T07:27:49Z</time>
      </trkpt>
      <trkpt lat="37.464701989665627" lon="-3.56392303481698">
        <ele>991.89999999999998</ele>
        <time>2011-01-04T07:27:50Z</time>
      </trkpt>
      <trkpt lat="37.464917991310358" lon="-3.564170971512795">
        <ele>993.20000000000005</ele>
        <time>2011-01-04T07:27:51Z</time>
      </trkpt>
      <trkpt lat="37.465123012661934" lon="-3.564436007291079">
        <ele>994.5</ele>
        <time>2011-01-04T07:27:52Z</time>
      </trkpt>
      <trkpt lat="37.465316969901323" lon="-3.564714035019279">
        <ele>995.89999999999998</ele>
        <time>2011-01-04T07:27:53Z</time>
      </trkpt>
      <trkpt lat="37.465671021491289" lon="-3.565304959192872">
        <ele>998.70000000000005</ele>
        <time>2011-01-04T07:27:55Z</time>
      </trkpt>
      <trkpt lat="37.467646971344948" lon="-3.569019986316562">
        <ele>1007.3</ele>
        <time>2011-01-04T07:28:07Z</time>
      </trkpt>
      <trkpt lat="37.467861967161298" lon="-3.569290973246098">
        <ele>1007.7</ele>
        <time>2011-01-04T07:28:08Z</time>
      </trkpt>
      <trkpt lat="37.468330012634397" lon="-3.569786008447409">
        <ele>1008.3</ele>
        <time>2011-01-04T07:28:10Z</time>
      </trkpt>
      <trkpt lat="37.468583984300494" lon="-3.5700040217489">
        <ele>1008.4</ele>
        <time>2011-01-04T07:28:11Z</time>
      </trkpt>
      <trkpt lat="37.468848014250398" lon="-3.570200996473432">
        <ele>1009</ele>
        <time>2011-01-04T07:28:12Z</time>
      </trkpt>
      <trkpt lat="37.469416977837682" lon="-3.570526968687773">
        <ele>1008.1</ele>
        <time>2011-01-04T07:28:14Z</time>
      </trkpt>
      <trkpt lat="37.470019971951842" lon="-3.570783035829663">
        <ele>1006.8</ele>
        <time>2011-01-04T07:28:16Z</time>
      </trkpt>
      <trkpt lat="37.470332030206919" lon="-3.570881020277739">
        <ele>1006</ele>
        <time>2011-01-04T07:28:17Z</time>
      </trkpt>
      <trkpt lat="37.470970982685685" lon="-3.571008006110787">
        <ele>1004</ele>
        <time>2011-01-04T07:28:19Z</time>
      </trkpt>
      <trkpt lat="37.471297038719058" lon="-3.57103600166738">
        <ele>1002.9</ele>
        <time>2011-01-04T07:28:20Z</time>
      </trkpt>
      <trkpt lat="37.471627034246922" lon="-3.571040024980903">
        <ele>1001.7</ele>
        <time>2011-01-04T07:28:21Z</time>
      </trkpt>
      <trkpt lat="37.471958035603166" lon="-3.571017980575562">
        <ele>1000.8</ele>
        <time>2011-01-04T07:28:22Z</time>
      </trkpt>
      <trkpt lat="37.472618026658893" lon="-3.570898035541177">
        <ele>999.79999999999995</ele>
        <time>2011-01-04T07:28:24Z</time>
      </trkpt>
      <trkpt lat="37.477390011772513" lon="-3.569637984037399">
        <ele>1007.7</ele>
        <time>2011-01-04T07:28:40Z</time>
      </trkpt>
      <trkpt lat="37.477683965116739" lon="-3.569625997915864">
        <ele>1008.6</ele>
        <time>2011-01-04T07:28:41Z</time>
      </trkpt>
      <trkpt lat="37.477979008108377" lon="-3.569629015401006">
        <ele>1009.6</ele>
        <time>2011-01-04T07:28:42Z</time>
      </trkpt>
      <trkpt lat="37.47856599278748" lon="-3.569667991250753">
        <ele>1011.5</ele>
        <time>2011-01-04T07:28:44Z</time>
      </trkpt>
      <trkpt lat="37.479150965809822" lon="-3.569751977920532">
        <ele>1013.3</ele>
        <time>2011-01-04T07:28:46Z</time>
      </trkpt>
      <trkpt lat="37.479442991316319" lon="-3.569812998175621">
        <ele>1014.3</ele>
        <time>2011-01-04T07:28:47Z</time>
      </trkpt>
      <trkpt lat="37.480312027037144" lon="-3.570066969841719">
        <ele>1016.5</ele>
        <time>2011-01-04T07:28:50Z</time>
      </trkpt>
      <trkpt lat="37.480887025594711" lon="-3.570296969264746">
        <ele>1017.7</ele>
        <time>2011-01-04T07:28:52Z</time>
      </trkpt>
      <trkpt lat="37.481449032202363" lon="-3.570572985336185">
        <ele>1018.8</ele>
        <time>2011-01-04T07:28:54Z</time>
      </trkpt>
      <trkpt lat="37.481995029374957" lon="-3.570895018056035">
        <ele>1020</ele>
        <time>2011-01-04T07:28:56Z</time>
      </trkpt>
      <trkpt lat="37.482521999627352" lon="-3.571259966120124">
        <ele>1021.4</ele>
        <time>2011-01-04T07:28:58Z</time>
      </trkpt>
      <trkpt lat="37.483027009293437" lon="-3.571667997166514">
        <ele>1023.3</ele>
        <time>2011-01-04T07:29:00Z</time>
      </trkpt>
      <trkpt lat="37.483737962320447" lon="-3.572362018749118">
        <ele>1026.5999999999999</ele>
        <time>2011-01-04T07:29:03Z</time>
      </trkpt>
      <trkpt lat="37.483964022248983" lon="-3.572610039263964">
        <ele>1027.4000000000001</ele>
        <time>2011-01-04T07:29:04Z</time>
      </trkpt>
      <trkpt lat="37.484599035233259" lon="-3.573413025587797">
        <ele>1029.3</ele>
        <time>2011-01-04T07:29:07Z</time>
      </trkpt>
      <trkpt lat="37.484984016045928" lon="-3.573991963639855">
        <ele>1031.3</ele>
        <time>2011-01-04T07:29:09Z</time>
      </trkpt>
      <trkpt lat="37.489631026983261" lon="-3.580801002681255">
        <ele>1023.5</ele>
        <time>2011-01-04T07:29:33Z</time>
      </trkpt>
      <trkpt lat="37.489797994494438" lon="-3.581105014309287">
        <ele>1022.3</ele>
        <time>2011-01-04T07:29:34Z</time>
      </trkpt>
      <trkpt lat="37.490104017779231" lon="-3.581738015636802">
        <ele>1019.8</ele>
        <time>2011-01-04T07:29:36Z</time>
      </trkpt>
      <trkpt lat="37.490368969738483" lon="-3.582403035834432">
        <ele>1017.4</ele>
        <time>2011-01-04T07:29:38Z</time>
      </trkpt>
      <trkpt lat="37.490482963621616" lon="-3.582747029140592">
        <ele>1016.3</ele>
        <time>2011-01-04T07:29:39Z</time>
      </trkpt>
      <trkpt lat="37.490677004680037" lon="-3.583448007702828">
        <ele>1013.8</ele>
        <time>2011-01-04T07:29:41Z</time>
      </trkpt>
      <trkpt lat="37.490756968036294" lon="-3.583803987130523">
        <ele>1012.7</ele>
        <time>2011-01-04T07:29:42Z</time>
      </trkpt>
      <trkpt lat="37.490928964689374" lon="-3.584879972040653">
        <ele>1009.2</ele>
        <time>2011-01-04T07:29:45Z</time>
      </trkpt>
      <trkpt lat="37.490964001044631" lon="-3.585239974781871">
        <ele>1008.1</ele>
        <time>2011-01-04T07:29:46Z</time>
      </trkpt>
      <trkpt lat="37.490999959409237" lon="-3.585953023284674">
        <ele>1005.8</ele>
        <time>2011-01-04T07:29:48Z</time>
      </trkpt>
      <trkpt lat="37.490998031571507" lon="-3.586302967742086">
        <ele>1004.3</ele>
        <time>2011-01-04T07:29:49Z</time>
      </trkpt>
      <trkpt lat="37.490965006873012" lon="-3.586995983496308">
        <ele>1001.7</ele>
        <time>2011-01-04T07:29:51Z</time>
      </trkpt>
      <trkpt lat="37.490890994668007" lon="-3.587684975937009">
        <ele>999.60000000000002</ele>
        <time>2011-01-04T07:29:53Z</time>
      </trkpt>
      <trkpt lat="37.490777000784874" lon="-3.588367011398077">
        <ele>997.29999999999995</ele>
        <time>2011-01-04T07:29:55Z</time>
      </trkpt>
      <trkpt lat="37.490625958889723" lon="-3.589034965261817">
        <ele>994.5</ele>
        <time>2011-01-04T07:29:57Z</time>
      </trkpt>
      <trkpt lat="37.490534009411931" lon="-3.589364038780332">
        <ele>993.20000000000005</ele>
        <time>2011-01-04T07:29:58Z</time>
      </trkpt>
      <trkpt lat="37.490315996110439" lon="-3.59000701457262">
        <ele>990.39999999999998</ele>
        <time>2011-01-04T07:30:00Z</time>
      </trkpt>
      <trkpt lat="37.489630021154881" lon="-3.591593960300088">
        <ele>985.29999999999995</ele>
        <time>2011-01-04T07:30:05Z</time>
      </trkpt>
      <trkpt lat="37.486626030877233" lon="-3.598210969939828">
        <ele>963.79999999999995</ele>
        <time>2011-01-04T07:30:25Z</time>
      </trkpt>
      <trkpt lat="37.486518993973732" lon="-3.598556974902749">
        <ele>962.79999999999995</ele>
        <time>2011-01-04T07:30:26Z</time>
      </trkpt>
      <trkpt lat="37.486355965957046" lon="-3.599268011748791">
        <ele>960.89999999999998</ele>
        <time>2011-01-04T07:30:28Z</time>
      </trkpt>
      <trkpt lat="37.48629997484386" lon="-3.59963002614677">
        <ele>960</ele>
        <time>2011-01-04T07:30:29Z</time>
      </trkpt>
      <trkpt lat="37.486233003437519" lon="-3.60036201775074">
        <ele>958.20000000000005</ele>
        <time>2011-01-04T07:30:31Z</time>
      </trkpt>
      <trkpt lat="37.486221017315984" lon="-3.600730989128351">
        <ele>957.5</ele>
        <time>2011-01-04T07:30:32Z</time>
      </trkpt>
      <trkpt lat="37.486247001215816" lon="-3.601473039016128">
        <ele>956.60000000000002</ele>
        <time>2011-01-04T07:30:34Z</time>
      </trkpt>
      <trkpt lat="37.486339034512639" lon="-3.602206036448479">
        <ele>955.79999999999995</ele>
        <time>2011-01-04T07:30:36Z</time>
      </trkpt>
      <trkpt lat="37.486410029232502" lon="-3.602566961199045">
        <ele>955.39999999999998</ele>
        <time>2011-01-04T07:30:37Z</time>
      </trkpt>
      <trkpt lat="37.486599963158369" lon="-3.603269029408693">
        <ele>954.70000000000005</ele>
        <time>2011-01-04T07:30:39Z</time>
      </trkpt>
      <trkpt lat="37.486851001158357" lon="-3.603937989100814">
        <ele>954.20000000000005</ele>
        <time>2011-01-04T07:30:41Z</time>
      </trkpt>
      <trkpt lat="37.487156018614769" lon="-3.604569984599948">
        <ele>953.89999999999998</ele>
        <time>2011-01-04T07:30:43Z</time>
      </trkpt>
      <trkpt lat="37.487326003611088" lon="-3.604870978742838">
        <ele>953.70000000000005</ele>
        <time>2011-01-04T07:30:44Z</time>
      </trkpt>
      <trkpt lat="37.488966006785631" lon="-3.608021987602115">
        <ele>952.79999999999995</ele>
        <time>2011-01-04T07:30:54Z</time>
      </trkpt>
      <trkpt lat="37.489075977355242" lon="-3.608381990343332">
        <ele>952.5</ele>
        <time>2011-01-04T07:30:55Z</time>
      </trkpt>
      <trkpt lat="37.489257026463747" lon="-3.609124962240458">
        <ele>951.79999999999995</ele>
        <time>2011-01-04T07:30:57Z</time>
      </trkpt>
      <trkpt lat="37.489390969276428" lon="-3.609885033220053">
        <ele>951.29999999999995</ele>
        <time>2011-01-04T07:30:59Z</time>
      </trkpt>
      <trkpt lat="37.489441009238362" lon="-3.61026800237596">
        <ele>951.10000000000002</ele>
        <time>2011-01-04T07:31:00Z</time>
      </trkpt>
      <trkpt lat="37.489504963159561" lon="-3.611037964001298">
        <ele>950.60000000000002</ele>
        <time>2011-01-04T07:31:02Z</time>
      </trkpt>
      <trkpt lat="37.489518960937858" lon="-3.61142504028976">
        <ele>950.29999999999995</ele>
        <time>2011-01-04T07:31:03Z</time>
      </trkpt>
      <trkpt lat="37.489513009786606" lon="-3.612196007743478">
        <ele>949.10000000000002</ele>
        <time>2011-01-04T07:31:05Z</time>
      </trkpt>
      <trkpt lat="37.489424999803305" lon="-3.613352039828897">
        <ele>947.89999999999998</ele>
        <time>2011-01-04T07:31:08Z</time>
      </trkpt>
      <trkpt lat="37.489155018702149" lon="-3.616834972053766">
        <ele>946.29999999999995</ele>
        <time>2011-01-04T07:31:17Z</time>
      </trkpt>
      <trkpt lat="37.489171028137207" lon="-3.617225987836719">
        <ele>946.39999999999998</ele>
        <time>2011-01-04T07:31:18Z</time>
      </trkpt>
      <trkpt lat="37.489249985665083" lon="-3.617998966947198">
        <ele>946.39999999999998</ele>
        <time>2011-01-04T07:31:20Z</time>
      </trkpt>
      <trkpt lat="37.489314023405313" lon="-3.618380008265376">
        <ele>946.39999999999998</ele>
        <time>2011-01-04T07:31:21Z</time>
      </trkpt>
      <trkpt lat="37.489394992589951" lon="-3.618756020441651">
        <ele>946.39999999999998</ele>
        <time>2011-01-04T07:31:22Z</time>
      </trkpt>
      <trkpt lat="37.489609988406301" lon="-3.61948499456048">
        <ele>946.29999999999995</ele>
        <time>2011-01-04T07:31:24Z</time>
      </trkpt>
      <trkpt lat="37.489744015038013" lon="-3.619835022836924">
        <ele>946.29999999999995</ele>
        <time>2011-01-04T07:31:25Z</time>
      </trkpt>
      <trkpt lat="37.490058001130819" lon="-3.620504988357425">
        <ele>946</ele>
        <time>2011-01-04T07:31:27Z</time>
      </trkpt>
      <trkpt lat="37.490428984165192" lon="-3.621127009391785">
        <ele>945.39999999999998</ele>
        <time>2011-01-04T07:31:29Z</time>
      </trkpt>
      <trkpt lat="37.49085302464664" lon="-3.621694967150688">
        <ele>944.79999999999995</ele>
        <time>2011-01-04T07:31:31Z</time>
      </trkpt>
      <trkpt lat="37.491084029898047" lon="-3.62195597961545">
        <ele>944.60000000000002</ele>
        <time>2011-01-04T07:31:32Z</time>
      </trkpt>
      <trkpt lat="37.491578981280327" lon="-3.622427964583039">
        <ele>944.39999999999998</ele>
        <time>2011-01-04T07:31:34Z</time>
      </trkpt>
      <trkpt lat="37.49238096177578" lon="-3.623025007545948">
        <ele>944</ele>
        <time>2011-01-04T07:31:37Z</time>
      </trkpt>
      <trkpt lat="37.514758966863155" lon="-3.637218000367284">
        <ele>985.20000000000005</ele>
        <time>2011-01-04T07:33:01Z</time>
      </trkpt>
      <trkpt lat="37.515040012076497" lon="-3.637356972321868">
        <ele>985.60000000000002</ele>
        <time>2011-01-04T07:33:02Z</time>
      </trkpt>
      <trkpt lat="37.515901001170278" lon="-3.637699959799647">
        <ele>987.60000000000002</ele>
        <time>2011-01-04T07:33:05Z</time>
      </trkpt>
      <trkpt lat="37.516195960342884" lon="-3.637772966176271">
        <ele>988.29999999999995</ele>
        <time>2011-01-04T07:33:06Z</time>
      </trkpt>
      <trkpt lat="37.516789985820651" lon="-3.637849995866418">
        <ele>989.79999999999995</ele>
        <time>2011-01-04T07:33:08Z</time>
      </trkpt>
      <trkpt lat="37.517087962478399" lon="-3.637857958674431">
        <ele>990.5</ele>
        <time>2011-01-04T07:33:09Z</time>
      </trkpt>
      <trkpt lat="37.51738702878356" lon="-3.637847984209657">
        <ele>991.10000000000002</ele>
        <time>2011-01-04T07:33:10Z</time>
      </trkpt>
      <trkpt lat="37.535846997052431" lon="-3.635724009945989">
        <ele>1038.8</ele>
        <time>2011-01-04T07:34:13Z</time>
      </trkpt>
      <trkpt lat="37.536154026165605" lon="-3.635723004117608">
        <ele>1037</ele>
        <time>2011-01-04T07:34:14Z</time>
      </trkpt>
      <trkpt lat="37.536459965631366" lon="-3.63572602160275">
        <ele>1035.3</ele>
        <time>2011-01-04T07:34:15Z</time>
      </trkpt>
      <trkpt lat="37.537953034043312" lon="-3.635771032422781">
        <ele>1026.9000000000001</ele>
        <time>2011-01-04T07:34:20Z</time>
      </trkpt>
      <trkpt lat="37.538245981559157" lon="-3.63577296026051">
        <ele>1025.0999999999999</ele>
        <time>2011-01-04T07:34:21Z</time>
      </trkpt>
      <trkpt lat="37.538537001237273" lon="-3.635763991624117">
        <ele>1023.3</ele>
        <time>2011-01-04T07:34:22Z</time>
      </trkpt>
      <trkpt lat="37.539396984502673" lon="-3.635656032711268">
        <ele>1017.9</ele>
        <time>2011-01-04T07:34:25Z</time>
      </trkpt>
      <trkpt lat="37.539954967796803" lon="-3.635518988594413">
        <ele>1014.4</ele>
        <time>2011-01-04T07:34:27Z</time>
      </trkpt>
      <trkpt lat="37.542660981416702" lon="-3.634706027805805">
        <ele>998.89999999999998</ele>
        <time>2011-01-04T07:34:37Z</time>
      </trkpt>
      <trkpt lat="37.542938003316522" lon="-3.634677026420832">
        <ele>997.20000000000005</ele>
        <time>2011-01-04T07:34:38Z</time>
      </trkpt>
      <trkpt lat="37.543217036873102" lon="-3.634661016985774">
        <ele>995.60000000000002</ele>
        <time>2011-01-04T07:34:39Z</time>
      </trkpt>
      <trkpt lat="37.54349498078227" lon="-3.634657999500632">
        <ele>993.79999999999995</ele>
        <time>2011-01-04T07:34:40Z</time>
      </trkpt>
      <trkpt lat="37.54377300851047" lon="-3.634665040299296">
        <ele>991.79999999999995</ele>
        <time>2011-01-04T07:34:41Z</time>
      </trkpt>
      <trkpt lat="37.54461002536118" lon="-3.63471700809896">
        <ele>986.10000000000002</ele>
        <time>2011-01-04T07:34:44Z</time>
      </trkpt>
      <trkpt lat="37.54489098675549" lon="-3.634722959250212">
        <ele>984.29999999999995</ele>
        <time>2011-01-04T07:34:45Z</time>
      </trkpt>
      <trkpt lat="37.545172031968832" lon="-3.634716002270579">
        <ele>982.5</ele>
        <time>2011-01-04T07:34:46Z</time>
      </trkpt>
      <trkpt lat="37.546025980263948" lon="-3.63461097702384">
        <ele>977.39999999999998</ele>
        <time>2011-01-04T07:34:49Z</time>
      </trkpt>
      <trkpt lat="37.5465879868716" lon="-3.634463036432862">
        <ele>973.70000000000005</ele>
        <time>2011-01-04T07:34:51Z</time>
      </trkpt>
      <trkpt lat="37.547144964337349" lon="-3.634252985939384">
        <ele>970.10000000000002</ele>
        <time>2011-01-04T07:34:53Z</time>
      </trkpt>
      <trkpt lat="37.547691967338324" lon="-3.633974958211184">
        <ele>966.20000000000005</ele>
        <time>2011-01-04T07:34:55Z</time>
      </trkpt>
      <trkpt lat="37.548218015581369" lon="-3.63364202901721">
        <ele>962.89999999999998</ele>
        <time>2011-01-04T07:34:57Z</time>
      </trkpt>
      <trkpt lat="37.548713972792029" lon="-3.6332540307194">
        <ele>959.60000000000002</ele>
        <time>2011-01-04T07:34:59Z</time>
      </trkpt>
      <trkpt lat="37.549172965809703" lon="-3.632813980802894">
        <ele>956</ele>
        <time>2011-01-04T07:35:01Z</time>
      </trkpt>
      <trkpt lat="37.552034966647625" lon="-3.629778977483511">
        <ele>935.60000000000002</ele>
        <time>2011-01-04T07:35:14Z</time>
      </trkpt>
      <trkpt lat="37.552288016304374" lon="-3.629593988880515">
        <ele>933.89999999999998</ele>
        <time>2011-01-04T07:35:15Z</time>
      </trkpt>
      <trkpt lat="37.554796971380711" lon="-3.627834962680936">
        <ele>916.70000000000005</ele>
        <time>2011-01-04T07:35:25Z</time>
      </trkpt>
      <trkpt lat="37.555020013824105" lon="-3.627618961036205">
        <ele>915.10000000000002</ele>
        <time>2011-01-04T07:35:26Z</time>
      </trkpt>
      <trkpt lat="37.55612600594759" lon="-3.626577006652951">
        <ele>908.10000000000002</ele>
        <time>2011-01-04T07:35:31Z</time>
      </trkpt>
      <trkpt lat="37.55636103451252" lon="-3.62640199251473">
        <ele>906.70000000000005</ele>
        <time>2011-01-04T07:35:32Z</time>
      </trkpt>
      <trkpt lat="37.556601008400321" lon="-3.626241981983185">
        <ele>905.10000000000002</ele>
        <time>2011-01-04T07:35:33Z</time>
      </trkpt>
      <trkpt lat="37.556847017258406" lon="-3.626099992543459">
        <ele>903.60000000000002</ele>
        <time>2011-01-04T07:35:34Z</time>
      </trkpt>
      <trkpt lat="37.557097971439362" lon="-3.625974012538791">
        <ele>902</ele>
        <time>2011-01-04T07:35:35Z</time>
      </trkpt>
      <trkpt lat="37.557353032752872" lon="-3.625863958150148">
        <ele>900.39999999999998</ele>
        <time>2011-01-04T07:35:36Z</time>
      </trkpt>
      <trkpt lat="37.557873968034983" lon="-3.62569397315383">
        <ele>897.29999999999995</ele>
        <time>2011-01-04T07:35:38Z</time>
      </trkpt>
      <trkpt lat="37.558137997984886" lon="-3.625633958727121">
        <ele>895.79999999999995</ele>
        <time>2011-01-04T07:35:39Z</time>
      </trkpt>
      <trkpt lat="37.558406973257661" lon="-3.625592971220613">
        <ele>894.29999999999995</ele>
        <time>2011-01-04T07:35:40Z</time>
      </trkpt>
      <trkpt lat="37.561211977154016" lon="-3.625364983454347">
        <ele>876.60000000000002</ele>
        <time>2011-01-04T07:35:50Z</time>
      </trkpt>
      <trkpt lat="37.561496961861849" lon="-3.625273033976555">
        <ele>875</ele>
        <time>2011-01-04T07:35:51Z</time>
      </trkpt>
      <trkpt lat="37.561779012903571" lon="-3.625159962102771">
        <ele>873.10000000000002</ele>
        <time>2011-01-04T07:35:52Z</time>
      </trkpt>
      <trkpt lat="37.562334984540939" lon="-3.624868020415306">
        <ele>869.70000000000005</ele>
        <time>2011-01-04T07:35:54Z</time>
      </trkpt>
      <trkpt lat="37.562860026955605" lon="-3.624502988532186">
        <ele>866.60000000000002</ele>
        <time>2011-01-04T07:35:56Z</time>
      </trkpt>
      <trkpt lat="37.563823023810983" lon="-3.623641999438405">
        <ele>859.70000000000005</ele>
        <time>2011-01-04T07:36:00Z</time>
      </trkpt>
      <trkpt lat="37.567382985725999" lon="-3.619980029761791">
        <ele>835.5</ele>
        <time>2011-01-04T07:36:16Z</time>
      </trkpt>
      <trkpt lat="37.567585995420814" lon="-3.619726980105043">
        <ele>834.60000000000002</ele>
        <time>2011-01-04T07:36:17Z</time>
      </trkpt>
      <trkpt lat="37.568512028083205" lon="-3.61834698356688">
        <ele>832.20000000000005</ele>
        <time>2011-01-04T07:36:22Z</time>
      </trkpt>
      <trkpt lat="37.569577032700181" lon="-3.616657024249435">
        <ele>831</ele>
        <time>2011-01-04T07:36:28Z</time>
      </trkpt>
      <trkpt lat="37.569785993546247" lon="-3.61641101539135">
        <ele>830.70000000000005</ele>
        <time>2011-01-04T07:36:29Z</time>
      </trkpt>
      <trkpt lat="37.571493973955512" lon="-3.614533971995115">
        <ele>826.5</ele>
        <time>2011-01-04T07:36:37Z</time>
      </trkpt>
      <trkpt lat="37.571670999750495" lon="-3.614255022257567">
        <ele>825.70000000000005</ele>
        <time>2011-01-04T07:36:38Z</time>
      </trkpt>
      <trkpt lat="37.571834027767181" lon="-3.613960985094309">
        <ele>825</ele>
        <time>2011-01-04T07:36:39Z</time>
      </trkpt>
      <trkpt lat="37.572120018303394" lon="-3.613335024565458">
        <ele>823.60000000000002</ele>
        <time>2011-01-04T07:36:41Z</time>
      </trkpt>
      <trkpt lat="37.57361501455307" lon="-3.60977103933692">
        <ele>816.70000000000005</ele>
        <time>2011-01-04T07:36:52Z</time>
      </trkpt>
      <trkpt lat="37.573788017034531" lon="-3.609468033537269">
        <ele>816.10000000000002</ele>
        <time>2011-01-04T07:36:53Z</time>
      </trkpt>
      <trkpt lat="37.574348011985421" lon="-3.608597991988063">
        <ele>814.39999999999998</ele>
        <time>2011-01-04T07:36:56Z</time>
      </trkpt>
      <trkpt lat="37.574752019718289" lon="-3.608051994815469">
        <ele>813.29999999999995</ele>
        <time>2011-01-04T07:36:58Z</time>
      </trkpt>
      <trkpt lat="37.57518301717937" lon="-3.607541033998132">
        <ele>812.20000000000005</ele>
        <time>2011-01-04T07:37:00Z</time>
      </trkpt>
      <trkpt lat="37.575409999117255" lon="-3.607300976291299">
        <ele>811.60000000000002</ele>
        <time>2011-01-04T07:37:01Z</time>
      </trkpt>
      <trkpt lat="37.575645027682185" lon="-3.607076006010175">
        <ele>811</ele>
        <time>2011-01-04T07:37:02Z</time>
      </trkpt>
      <trkpt lat="37.57589103654027" lon="-3.60687199048698">
        <ele>810.39999999999998</ele>
        <time>2011-01-04T07:37:03Z</time>
      </trkpt>
      <trkpt lat="37.576147019863129" lon="-3.606689013540745">
        <ele>809.70000000000005</ele>
        <time>2011-01-04T07:37:04Z</time>
      </trkpt>
      <trkpt lat="37.57640996016562" lon="-3.606525985524058">
        <ele>809</ele>
        <time>2011-01-04T07:37:05Z</time>
      </trkpt>
      <trkpt lat="37.576679019257426" lon="-3.606381984427571">
        <ele>808.20000000000005</ele>
        <time>2011-01-04T07:37:06Z</time>
      </trkpt>
      <trkpt lat="37.576955035328865" lon="-3.606257010251284">
        <ele>807.29999999999995</ele>
        <time>2011-01-04T07:37:07Z</time>
      </trkpt>
      <trkpt lat="37.577235996723175" lon="-3.606153996661305">
        <ele>806.29999999999995</ele>
        <time>2011-01-04T07:37:08Z</time>
      </trkpt>
      <trkpt lat="37.577522993087769" lon="-3.606073027476668">
        <ele>805.29999999999995</ele>
        <time>2011-01-04T07:37:09Z</time>
      </trkpt>
      <trkpt lat="37.577814012765884" lon="-3.606014018878341">
        <ele>804.39999999999998</ele>
        <time>2011-01-04T07:37:10Z</time>
      </trkpt>
      <trkpt lat="37.578108971938491" lon="-3.605977976694703">
        <ele>803.20000000000005</ele>
        <time>2011-01-04T07:37:11Z</time>
      </trkpt>
      <trkpt lat="37.580190030857921" lon="-3.605782007798553">
        <ele>795.39999999999998</ele>
        <time>2011-01-04T07:37:18Z</time>
      </trkpt>
      <trkpt lat="37.580478033050895" lon="-3.605685029178858">
        <ele>794.29999999999995</ele>
        <time>2011-01-04T07:37:19Z</time>
      </trkpt>
      <trkpt lat="37.580757988616824" lon="-3.605557037517428">
        <ele>793.5</ele>
        <time>2011-01-04T07:37:20Z</time>
      </trkpt>
      <trkpt lat="37.581030987203121" lon="-3.605399960651994">
        <ele>792.70000000000005</ele>
        <time>2011-01-04T07:37:21Z</time>
      </trkpt>
      <trkpt lat="37.581297028809786" lon="-3.605220001190901">
        <ele>791.79999999999995</ele>
        <time>2011-01-04T07:37:22Z</time>
      </trkpt>
      <trkpt lat="37.581553012132645" lon="-3.605017997324467">
        <ele>790.89999999999998</ele>
        <time>2011-01-04T07:37:23Z</time>
      </trkpt>
      <trkpt lat="37.58180002681911" lon="-3.604795038700104">
        <ele>790.20000000000005</ele>
        <time>2011-01-04T07:37:24Z</time>
      </trkpt>
      <trkpt lat="37.582259019836783" lon="-3.604296986013651">
        <ele>789</ele>
        <time>2011-01-04T07:37:26Z</time>
      </trkpt>
      <trkpt lat="37.583733983337879" lon="-3.602541983127594">
        <ele>785.29999999999995</ele>
        <time>2011-01-04T07:37:33Z</time>
      </trkpt>
      <trkpt lat="37.583976974710822" lon="-3.602348025888205">
        <ele>784.60000000000002</ele>
        <time>2011-01-04T07:37:34Z</time>
      </trkpt>
      <trkpt lat="37.584231030195951" lon="-3.602173011749983">
        <ele>783.79999999999995</ele>
        <time>2011-01-04T07:37:35Z</time>
      </trkpt>
      <trkpt lat="37.584495982155204" lon="-3.602020964026451">
        <ele>783</ele>
        <time>2011-01-04T07:37:36Z</time>
      </trkpt>
      <trkpt lat="37.584769986569881" lon="-3.601894984021783">
        <ele>782.20000000000005</ele>
        <time>2011-01-04T07:37:37Z</time>
      </trkpt>
      <trkpt lat="37.585052037611604" lon="-3.601793982088566">
        <ele>781.29999999999995</ele>
        <time>2011-01-04T07:37:38Z</time>
      </trkpt>
      <trkpt lat="37.585340961813927" lon="-3.601717036217451">
        <ele>780.39999999999998</ele>
        <time>2011-01-04T07:37:39Z</time>
      </trkpt>
      <trkpt lat="37.585632987320423" lon="-3.601663978770375">
        <ele>779.60000000000002</ele>
        <time>2011-01-04T07:37:40Z</time>
      </trkpt>
      <trkpt lat="37.585929036140442" lon="-3.601634977385402">
        <ele>778.60000000000002</ele>
        <time>2011-01-04T07:37:41Z</time>
      </trkpt>
      <trkpt lat="37.58622701279819" lon="-3.601632965728641">
        <ele>777.70000000000005</ele>
        <time>2011-01-04T07:37:42Z</time>
      </trkpt>
      <trkpt lat="37.586523983627558" lon="-3.601655010133982">
        <ele>776.70000000000005</ele>
        <time>2011-01-04T07:37:43Z</time>
      </trkpt>
      <trkpt lat="37.589491009712219" lon="-3.602117020636797">
        <ele>771.60000000000002</ele>
        <time>2011-01-04T07:37:53Z</time>
      </trkpt>
      <trkpt lat="37.589792003855109" lon="-3.602123977616429">
        <ele>771.70000000000005</ele>
        <time>2011-01-04T07:37:54Z</time>
      </trkpt>
      <trkpt lat="37.59009400382638" lon="-3.602123977616429">
        <ele>771.39999999999998</ele>
        <time>2011-01-04T07:37:55Z</time>
      </trkpt>
      <trkpt lat="37.590998997911811" lon="-3.602117020636797">
        <ele>770.10000000000002</ele>
        <time>2011-01-04T07:37:58Z</time>
      </trkpt>
      <trkpt lat="37.591302003711462" lon="-3.602118026465178">
        <ele>769.39999999999998</ele>
        <time>2011-01-04T07:37:59Z</time>
      </trkpt>
      <trkpt lat="37.596105001866817" lon="-3.602513987571001">
        <ele>756.29999999999995</ele>
        <time>2011-01-04T07:38:15Z</time>
      </trkpt>
      <trkpt lat="37.596397027373314" lon="-3.602509964257479">
        <ele>756.10000000000002</ele>
        <time>2011-01-04T07:38:16Z</time>
      </trkpt>
      <trkpt lat="37.596974959596992" lon="-3.602447016164661">
        <ele>755.5</ele>
        <time>2011-01-04T07:38:18Z</time>
      </trkpt>
      <trkpt lat="37.597259022295475" lon="-3.602387001737952">
        <ele>755.10000000000002</ele>
        <time>2011-01-04T07:38:19Z</time>
      </trkpt>
      <trkpt lat="37.597543001174927" lon="-3.602306032553315">
        <ele>755</ele>
        <time>2011-01-04T07:38:20Z</time>
      </trkpt>
      <trkpt lat="37.602499974891543" lon="-3.60008298419416">
        <ele>747.79999999999995</ele>
        <time>2011-01-04T07:38:38Z</time>
      </trkpt>
      <trkpt lat="37.602780014276505" lon="-3.600030010566115">
        <ele>746.79999999999995</ele>
        <time>2011-01-04T07:38:39Z</time>
      </trkpt>
      <trkpt lat="37.603064998984337" lon="-3.599998997524381">
        <ele>745.89999999999998</ele>
        <time>2011-01-04T07:38:40Z</time>
      </trkpt>
      <trkpt lat="37.60335199534893" lon="-3.599992040544748">
        <ele>745.10000000000002</ele>
        <time>2011-01-04T07:38:41Z</time>
      </trkpt>
      <trkpt lat="37.603639997541904" lon="-3.600007966160774">
        <ele>744.29999999999995</ele>
        <time>2011-01-04T07:38:42Z</time>
      </trkpt>
      <trkpt lat="37.603929005563259" lon="-3.600046020001173">
        <ele>743.60000000000002</ele>
        <time>2011-01-04T07:38:43Z</time>
      </trkpt>
      <trkpt lat="37.604794017970562" lon="-3.600238971412182">
        <ele>741.5</ele>
        <time>2011-01-04T07:38:46Z</time>
      </trkpt>
      <trkpt lat="37.605642015114427" lon="-3.600564021617174">
        <ele>739.20000000000005</ele>
        <time>2011-01-04T07:38:49Z</time>
      </trkpt>
      <trkpt lat="37.60704698972404" lon="-3.601172966882587">
        <ele>737.60000000000002</ele>
        <time>2011-01-04T07:38:54Z</time>
      </trkpt>
      <trkpt lat="37.607315964996815" lon="-3.601335994899273">
        <ele>737.29999999999995</ele>
        <time>2011-01-04T07:38:55Z</time>
      </trkpt>
      <trkpt lat="37.608393961563706" lon="-3.601988023146987">
        <ele>736.39999999999998</ele>
        <time>2011-01-04T07:38:59Z</time>
      </trkpt>
      <trkpt lat="37.608677018433809" lon="-3.602115008980036">
        <ele>736.20000000000005</ele>
        <time>2011-01-04T07:39:00Z</time>
      </trkpt>
      <trkpt lat="37.608966026455164" lon="-3.602215005084872">
        <ele>735.79999999999995</ele>
        <time>2011-01-04T07:39:01Z</time>
      </trkpt>
      <trkpt lat="37.609258973971009" lon="-3.602288011461496">
        <ele>735.39999999999998</ele>
        <time>2011-01-04T07:39:02Z</time>
      </trkpt>
      <trkpt lat="37.609855011105537" lon="-3.602355988696218">
        <ele>734.20000000000005</ele>
        <time>2011-01-04T07:39:04Z</time>
      </trkpt>
      <trkpt lat="37.610153993591666" lon="-3.602358000352979">
        <ele>733.5</ele>
        <time>2011-01-04T07:39:05Z</time>
      </trkpt>
      <trkpt lat="37.610453981906176" lon="-3.602336961776018">
        <ele>732.89999999999998</ele>
        <time>2011-01-04T07:39:06Z</time>
      </trkpt>
      <trkpt lat="37.610752964392304" lon="-3.602288011461496">
        <ele>731.89999999999998</ele>
        <time>2011-01-04T07:39:07Z</time>
      </trkpt>
      <trkpt lat="37.611342966556549" lon="-3.602112997323275">
        <ele>730</ele>
        <time>2011-01-04T07:39:09Z</time>
      </trkpt>
      <trkpt lat="37.613642038777471" lon="-3.601023014634848">
        <ele>722.89999999999998</ele>
        <time>2011-01-04T07:39:17Z</time>
      </trkpt>
      <trkpt lat="37.615043995901942" lon="-3.600331004709005">
        <ele>720</ele>
        <time>2011-01-04T07:39:22Z</time>
      </trkpt>
      <trkpt lat="37.615330992266536" lon="-3.600236037746072">
        <ele>719.29999999999995</ele>
        <time>2011-01-04T07:39:23Z</time>
      </trkpt>
      <trkpt lat="37.615622011944652" lon="-3.600165965035558">
        <ele>718.79999999999995</ele>
        <time>2011-01-04T07:39:24Z</time>
      </trkpt>
      <trkpt lat="37.615917976945639" lon="-3.600121960043907">
        <ele>718.29999999999995</ele>
        <time>2011-01-04T07:39:25Z</time>
      </trkpt>
      <trkpt lat="37.616216037422419" lon="-3.600106034427881">
        <ele>717.89999999999998</ele>
        <time>2011-01-04T07:39:26Z</time>
      </trkpt>
      <trkpt lat="37.616515019908547" lon="-3.600118020549417">
        <ele>717.39999999999998</ele>
        <time>2011-01-04T07:39:27Z</time>
      </trkpt>
      <trkpt lat="37.616812996566296" lon="-3.600154984742403">
        <ele>717</ele>
        <time>2011-01-04T07:39:28Z</time>
      </trkpt>
      <trkpt lat="37.617109967395663" lon="-3.600218016654253">
        <ele>716.60000000000002</ele>
        <time>2011-01-04T07:39:29Z</time>
      </trkpt>
      <trkpt lat="37.61740199290216" lon="-3.600309966132045">
        <ele>716.20000000000005</ele>
        <time>2011-01-04T07:39:30Z</time>
      </trkpt>
      <trkpt lat="37.617687983438373" lon="-3.600432006642222">
        <ele>715.79999999999995</ele>
        <time>2011-01-04T07:39:31Z</time>
      </trkpt>
      <trkpt lat="37.617965005338192" lon="-3.600580031052232">
        <ele>715.29999999999995</ele>
        <time>2011-01-04T07:39:32Z</time>
      </trkpt>
      <trkpt lat="37.618232974782586" lon="-3.600754039362073">
        <ele>714.89999999999998</ele>
        <time>2011-01-04T07:39:33Z</time>
      </trkpt>
      <trkpt lat="37.618491975590587" lon="-3.600951014086604">
        <ele>714.39999999999998</ele>
        <time>2011-01-04T07:39:34Z</time>
      </trkpt>
      <trkpt lat="37.620543027296662" lon="-3.60259797424078">
        <ele>706.10000000000002</ele>
        <time>2011-01-04T07:39:42Z</time>
      </trkpt>
      <trkpt lat="37.620836980640888" lon="-3.602733006700873">
        <ele>705.29999999999995</ele>
        <time>2011-01-04T07:39:43Z</time>
      </trkpt>
      <trkpt lat="37.621136968955398" lon="-3.602841971442103">
        <ele>704.5</ele>
        <time>2011-01-04T07:39:44Z</time>
      </trkpt>
      <trkpt lat="37.621443998068571" lon="-3.602925958111882">
        <ele>703.60000000000002</ele>
        <time>2011-01-04T07:39:45Z</time>
      </trkpt>
      <trkpt lat="37.622069958597422" lon="-3.60302796587348">
        <ele>701.79999999999995</ele>
        <time>2011-01-04T07:39:47Z</time>
      </trkpt>
      <trkpt lat="37.631169017404318" lon="-3.603557031601667">
        <ele>679.70000000000005</ele>
        <time>2011-01-04T07:40:16Z</time>
      </trkpt>
      <trkpt lat="37.63147403486073" lon="-3.603658033534885">
        <ele>678.39999999999998</ele>
        <time>2011-01-04T07:40:17Z</time>
      </trkpt>
      <trkpt lat="37.631776034832001" lon="-3.603782001882792">
        <ele>677</ele>
        <time>2011-01-04T07:40:18Z</time>
      </trkpt>
      <trkpt lat="37.632073005661368" lon="-3.603924997150898">
        <ele>675.60000000000002</ele>
        <time>2011-01-04T07:40:19Z</time>
      </trkpt>
      <trkpt lat="37.634627977386117" lon="-3.605287978425622">
        <ele>669.29999999999995</ele>
        <time>2011-01-04T07:40:28Z</time>
      </trkpt>
      <trkpt lat="37.634921008720994" lon="-3.605366013944149">
        <ele>668.79999999999995</ele>
        <time>2011-01-04T07:40:29Z</time>
      </trkpt>
      <trkpt lat="37.635512016713619" lon="-3.605460980907083">
        <ele>668.10000000000002</ele>
        <time>2011-01-04T07:40:31Z</time>
      </trkpt>
      <trkpt lat="37.637886023148894" lon="-3.605750994756818">
        <ele>665.29999999999995</ele>
        <time>2011-01-04T07:40:39Z</time>
      </trkpt>
      <trkpt lat="37.638176959007978" lon="-3.605843028053641">
        <ele>665.29999999999995</ele>
        <time>2011-01-04T07:40:40Z</time>
      </trkpt>
      <trkpt lat="37.6417469792068" lon="-3.606780041009188">
        <ele>660.10000000000002</ele>
        <time>2011-01-04T07:40:52Z</time>
      </trkpt>
      <trkpt lat="37.642686003819108" lon="-3.606876013800502">
        <ele>655.70000000000005</ele>
        <time>2011-01-04T07:40:55Z</time>
      </trkpt>
      <trkpt lat="37.644276972860098" lon="-3.606956982985139">
        <ele>648.89999999999998</ele>
        <time>2011-01-04T07:41:00Z</time>
      </trkpt>
      <trkpt lat="37.644588025286794" lon="-3.60695798881352">
        <ele>647.5</ele>
        <time>2011-01-04T07:41:01Z</time>
      </trkpt>
      <trkpt lat="37.644898993894458" lon="-3.606953965499997">
        <ele>646.29999999999995</ele>
        <time>2011-01-04T07:41:02Z</time>
      </trkpt>
      <trkpt lat="37.64836398884654" lon="-3.606580970808864">
        <ele>636.60000000000002</ele>
        <time>2011-01-04T07:41:13Z</time>
      </trkpt>
      <trkpt lat="37.650283025577664" lon="-3.606080990284681">
        <ele>634.20000000000005</ele>
        <time>2011-01-04T07:41:19Z</time>
      </trkpt>
      <trkpt lat="37.653993023559451" lon="-3.604891011491418">
        <ele>630.20000000000005</ele>
        <time>2011-01-04T07:41:31Z</time>
      </trkpt>
      <trkpt lat="37.654281025752425" lon="-3.604857986792922">
        <ele>629.79999999999995</ele>
        <time>2011-01-04T07:41:32Z</time>
      </trkpt>
      <trkpt lat="37.654568022117019" lon="-3.60485102981329">
        <ele>629.60000000000002</ele>
        <time>2011-01-04T07:41:33Z</time>
      </trkpt>
      <trkpt lat="37.654853006824851" lon="-3.604871984571219">
        <ele>629.29999999999995</ele>
        <time>2011-01-04T07:41:34Z</time>
      </trkpt>
      <trkpt lat="37.655133968219161" lon="-3.604920012876391">
        <ele>629.20000000000005</ele>
        <time>2011-01-04T07:41:35Z</time>
      </trkpt>
      <trkpt lat="37.655408978462219" lon="-3.604990001767874">
        <ele>629.29999999999995</ele>
        <time>2011-01-04T07:41:36Z</time>
      </trkpt>
      <trkpt lat="37.655679965391755" lon="-3.605081029236317">
        <ele>628.89999999999998</ele>
        <time>2011-01-04T07:41:37Z</time>
      </trkpt>
      <trkpt lat="37.655943995341659" lon="-3.605197034776211">
        <ele>629</ele>
        <time>2011-01-04T07:41:38Z</time>
      </trkpt>
      <trkpt lat="37.656201990321279" lon="-3.605336006730795">
        <ele>628.89999999999998</ele>
        <time>2011-01-04T07:41:39Z</time>
      </trkpt>
      <trkpt lat="37.656454034149647" lon="-3.605498028919101">
        <ele>629</ele>
        <time>2011-01-04T07:41:40Z</time>
      </trkpt>
      <trkpt lat="37.65669702552259" lon="-3.605683017522097">
        <ele>629.10000000000002</ele>
        <time>2011-01-04T07:41:41Z</time>
      </trkpt>
      <trkpt lat="37.656929958611727" lon="-3.605890972539783">
        <ele>629.20000000000005</ele>
        <time>2011-01-04T07:41:42Z</time>
      </trkpt>
      <trkpt lat="37.657153001055121" lon="-3.60612097196281">
        <ele>629.5</ele>
        <time>2011-01-04T07:41:43Z</time>
      </trkpt>
      <trkpt lat="37.65736497938633" lon="-3.606371004134417">
        <ele>629.5</ele>
        <time>2011-01-04T07:41:44Z</time>
      </trkpt>
      <trkpt lat="37.657563965767622" lon="-3.606640985235572">
        <ele>629.60000000000002</ele>
        <time>2011-01-04T07:41:45Z</time>
      </trkpt>
      <trkpt lat="37.657749960198998" lon="-3.606926975771785">
        <ele>629.20000000000005</ele>
        <time>2011-01-04T07:41:46Z</time>
      </trkpt>
      <trkpt lat="37.657920029014349" lon="-3.607232999056578">
        <ele>628.89999999999998</ele>
        <time>2011-01-04T07:41:47Z</time>
      </trkpt>
      <trkpt lat="37.658069981262088" lon="-3.607557965442538">
        <ele>629.10000000000002</ele>
        <time>2011-01-04T07:41:48Z</time>
      </trkpt>
      <trkpt lat="37.658205013722181" lon="-3.607897013425827">
        <ele>629</ele>
        <time>2011-01-04T07:41:49Z</time>
      </trkpt>
      <trkpt lat="37.659456012770534" lon="-3.611366031691432">
        <ele>624.20000000000005</ele>
        <time>2011-01-04T07:41:59Z</time>
      </trkpt>
      <trkpt lat="37.659632032737136" lon="-3.611673982813954">
        <ele>623.79999999999995</ele>
        <time>2011-01-04T07:42:00Z</time>
      </trkpt>
      <trkpt lat="37.659824984148145" lon="-3.611967014148831">
        <ele>623.39999999999998</ele>
        <time>2011-01-04T07:42:01Z</time>
      </trkpt>
      <trkpt lat="37.660251036286354" lon="-3.612515022978187">
        <ele>623.10000000000002</ele>
        <time>2011-01-04T07:42:03Z</time>
      </trkpt>
      <trkpt lat="37.660480029881001" lon="-3.612768994644284">
        <ele>623.20000000000005</ele>
        <time>2011-01-04T07:42:04Z</time>
      </trkpt>
      <trkpt lat="37.662345003336668" lon="-3.614661041647196">
        <ele>622.60000000000002</ele>
        <time>2011-01-04T07:42:12Z</time>
      </trkpt>
      <trkpt lat="37.662544995546341" lon="-3.614938985556364">
        <ele>622.5</ele>
        <time>2011-01-04T07:42:13Z</time>
      </trkpt>
      <trkpt lat="37.663962040096521" lon="-3.616916025057435">
        <ele>619.20000000000005</ele>
        <time>2011-01-04T07:42:20Z</time>
      </trkpt>
      <trkpt lat="37.664209976792336" lon="-3.617154993116856">
        <ele>617.79999999999995</ele>
        <time>2011-01-04T07:42:21Z</time>
      </trkpt>
      <trkpt lat="37.665021009743214" lon="-3.617785982787609">
        <ele>615.79999999999995</ele>
        <time>2011-01-04T07:42:24Z</time>
      </trkpt>
      <trkpt lat="37.665301971137524" lon="-3.617950016632676">
        <ele>615</ele>
        <time>2011-01-04T07:42:25Z</time>
      </trkpt>
      <trkpt lat="37.671152036637068" lon="-3.620680002495647">
        <ele>603.20000000000005</ele>
        <time>2011-01-04T07:42:45Z</time>
      </trkpt>
      <trkpt lat="37.671397961676121" lon="-3.620865996927023">
        <ele>602.79999999999995</ele>
        <time>2011-01-04T07:42:46Z</time>
      </trkpt>
      <trkpt lat="37.671861983835697" lon="-3.621275033801794">
        <ele>601.89999999999998</ele>
        <time>2011-01-04T07:42:48Z</time>
      </trkpt>
      <trkpt lat="37.672289041802287" lon="-3.621722962707281">
        <ele>601.10000000000002</ele>
        <time>2011-01-04T07:42:50Z</time>
      </trkpt>
      <trkpt lat="37.673688987269998" lon="-3.623269004747272">
        <ele>596.60000000000002</ele>
        <time>2011-01-04T07:42:58Z</time>
      </trkpt>
      <trkpt lat="37.673874981701374" lon="-3.623406970873475">
        <ele>596.10000000000002</ele>
        <time>2011-01-04T07:42:59Z</time>
      </trkpt>
      <trkpt lat="37.674072040244937" lon="-3.623530017212033">
        <ele>595.79999999999995</ele>
        <time>2011-01-04T07:43:00Z</time>
      </trkpt>
      <trkpt lat="37.674279995262623" lon="-3.623632024973631">
        <ele>595.70000000000005</ele>
        <time>2011-01-04T07:43:01Z</time>
      </trkpt>
      <trkpt lat="37.674498008564115" lon="-3.623710982501507">
        <ele>595.89999999999998</ele>
        <time>2011-01-04T07:43:02Z</time>
      </trkpt>
      <trkpt lat="37.674945015460253" lon="-3.623817013576627">
        <ele>597.29999999999995</ele>
        <time>2011-01-04T07:43:04Z</time>
      </trkpt>
      <trkpt lat="37.675791000947356" lon="-3.62395397387445">
        <ele>599.79999999999995</ele>
        <time>2011-01-04T07:43:09Z</time>
      </trkpt>
      <trkpt lat="37.675838023424149" lon="-3.623965959995985">
        <ele>599.89999999999998</ele>
        <time>2011-01-04T07:43:10Z</time>
      </trkpt>
      <trkpt lat="37.675835005939007" lon="-3.623989010229707">
        <ele>599.79999999999995</ele>
        <time>2011-01-04T07:43:11Z</time>
      </trkpt>
      <trkpt lat="37.675827965140343" lon="-3.624006025493145">
        <ele>599.70000000000005</ele>
        <time>2011-01-04T07:43:12Z</time>
      </trkpt>
      <trkpt lat="37.675824025645852" lon="-3.624025974422693">
        <ele>599.70000000000005</ele>
        <time>2011-01-04T07:43:13Z</time>
      </trkpt>
      <trkpt lat="37.675521019846201" lon="-3.625258030369878">
        <ele>597.29999999999995</ele>
        <time>2011-01-04T07:43:28Z</time>
      </trkpt>
      <trkpt lat="37.675516996532679" lon="-3.625331958755851">
        <ele>597.20000000000005</ele>
        <time>2011-01-04T07:43:29Z</time>
      </trkpt>
      <trkpt lat="37.675526970997453" lon="-3.625391973182559">
        <ele>597.20000000000005</ele>
        <time>2011-01-04T07:43:30Z</time>
      </trkpt>
      <trkpt lat="37.675551027059555" lon="-3.625440001487732">
        <ele>597.20000000000005</ele>
        <time>2011-01-04T07:43:31Z</time>
      </trkpt>
      <trkpt lat="37.675591008737683" lon="-3.625475037842989">
        <ele>597.10000000000002</ele>
        <time>2011-01-04T07:43:32Z</time>
      </trkpt>
      <trkpt lat="37.675644988194108" lon="-3.625501021742821">
        <ele>597</ele>
        <time>2011-01-04T07:43:33Z</time>
      </trkpt>
      <trkpt lat="37.675711959600449" lon="-3.625517031177878">
        <ele>597</ele>
        <time>2011-01-04T07:43:34Z</time>
      </trkpt>
      <trkpt lat="37.675795024260879" lon="-3.62552298232913">
        <ele>596.79999999999995</ele>
        <time>2011-01-04T07:43:35Z</time>
      </trkpt>
      <trkpt lat="37.675896026194096" lon="-3.625520970672369">
        <ele>596.60000000000002</ele>
        <time>2011-01-04T07:43:36Z</time>
      </trkpt>
      <trkpt lat="37.676226021721959" lon="-3.625505967065692">
        <ele>595.89999999999998</ele>
        <time>2011-01-04T07:43:39Z</time>
      </trkpt>
      <trkpt lat="37.676344038918614" lon="-3.625505967065692">
        <ele>595.79999999999995</ele>
        <time>2011-01-04T07:43:40Z</time>
      </trkpt>
      <trkpt lat="37.676467001438141" lon="-3.625507978722453">
        <ele>595.60000000000002</ele>
        <time>2011-01-04T07:43:41Z</time>
      </trkpt>
      <trkpt lat="37.677292032167315" lon="-3.625599006190896">
        <ele>593.39999999999998</ele>
        <time>2011-01-04T07:43:47Z</time>
      </trkpt>
      <trkpt lat="37.677437039092183" lon="-3.625624990090728">
        <ele>592.89999999999998</ele>
        <time>2011-01-04T07:43:48Z</time>
      </trkpt>
      <trkpt lat="37.678292999044061" lon="-3.625862030312419">
        <ele>590.79999999999995</ele>
        <time>2011-01-04T07:43:54Z</time>
      </trkpt>
      <trkpt lat="37.678771018981934" lon="-3.62605799920857">
        <ele>589.89999999999998</ele>
        <time>2011-01-04T07:43:58Z</time>
      </trkpt>
      <trkpt lat="37.679164968430996" lon="-3.626223038882017">
        <ele>589.10000000000002</ele>
        <time>2011-01-04T07:44:03Z</time>
      </trkpt>
      <trkpt lat="37.679220037534833" lon="-3.626248016953468">
        <ele>588.89999999999998</ele>
        <time>2011-01-04T07:44:04Z</time>
      </trkpt>
      <trkpt lat="37.679265970364213" lon="-3.626283975318074">
        <ele>588.70000000000005</ele>
        <time>2011-01-04T07:44:05Z</time>
      </trkpt>
      <trkpt lat="37.679300000891089" lon="-3.626334015280008">
        <ele>588.60000000000002</ele>
        <time>2011-01-04T07:44:06Z</time>
      </trkpt>
      <trkpt lat="37.679317016154528" lon="-3.626396041363478">
        <ele>588.5</ele>
        <time>2011-01-04T07:44:07Z</time>
      </trkpt>
      <trkpt lat="37.679313998669386" lon="-3.62646502442658">
        <ele>588.29999999999995</ele>
        <time>2011-01-04T07:44:08Z</time>
      </trkpt>
      <trkpt lat="37.679292038083076" lon="-3.62653099000454">
        <ele>588.29999999999995</ele>
        <time>2011-01-04T07:44:09Z</time>
      </trkpt>
      <trkpt lat="37.679251972585917" lon="-3.626586981117725">
        <ele>588.39999999999998</ele>
        <time>2011-01-04T07:44:10Z</time>
      </trkpt>
      <trkpt lat="37.679198998957872" lon="-3.626625034958124">
        <ele>588.60000000000002</ele>
        <time>2011-01-04T07:44:11Z</time>
      </trkpt>
      <trkpt lat="37.679137978702784" lon="-3.626639032736421">
        <ele>588.5</ele>
        <time>2011-01-04T07:44:12Z</time>
      </trkpt>
      <trkpt lat="37.679079975932837" lon="-3.626632997766137">
        <ele>588.5</ele>
        <time>2011-01-04T07:44:13Z</time>
      </trkpt>
      <trkpt lat="37.679029013961554" lon="-3.62661799415946">
        <ele>588.5</ele>
        <time>2011-01-04T07:44:14Z</time>
      </trkpt>
      <trkpt lat="37.678787028416991" lon="-3.626539036631584">
        <ele>589.79999999999995</ele>
        <time>2011-01-04T07:44:26Z</time>
      </trkpt>
      <trkpt lat="37.678766995668411" lon="-3.626528978347778">
        <ele>589.89999999999998</ele>
        <time>2011-01-04T07:44:27Z</time>
      </trkpt>
      <trkpt lat="37.678750986233354" lon="-3.626517998054624">
        <ele>590</ele>
        <time>2011-01-04T07:44:28Z</time>
      </trkpt>
      <trkpt lat="37.678737994283438" lon="-3.62650902941823">
        <ele>590.20000000000005</ele>
        <time>2011-01-04T07:44:29Z</time>
      </trkpt>
      <trkpt lat="37.678725002333522" lon="-3.626497965306044">
        <ele>590.29999999999995</ele>
        <time>2011-01-04T07:44:30Z</time>
      </trkpt>
      <trkpt lat="37.678713016211987" lon="-3.626483967527747">
        <ele>590.39999999999998</ele>
        <time>2011-01-04T07:44:31Z</time>
      </trkpt>
      <trkpt lat="37.678700024262071" lon="-3.62646603025496">
        <ele>590.5</ele>
        <time>2011-01-04T07:44:32Z</time>
      </trkpt>
      <trkpt lat="37.678688038140535" lon="-3.626443985849619">
        <ele>590.60000000000002</ele>
        <time>2011-01-04T07:44:33Z</time>
      </trkpt>
      <trkpt lat="37.67867898568511" lon="-3.626421019434929">
        <ele>590.70000000000005</ele>
        <time>2011-01-04T07:44:34Z</time>
      </trkpt>
      <trkpt lat="37.678663982078433" lon="-3.626367039978504">
        <ele>590.79999999999995</ele>
        <time>2011-01-04T07:44:36Z</time>
      </trkpt>
      <trkpt lat="37.678653001785278" lon="-3.626343989744782">
        <ele>590.89999999999998</ele>
        <time>2011-01-04T07:44:37Z</time>
      </trkpt>
      <trkpt lat="37.678639004006982" lon="-3.626329991966486">
        <ele>591.10000000000002</ele>
        <time>2011-01-04T07:44:38Z</time>
      </trkpt>
      <trkpt lat="37.678627017885447" lon="-3.626323034986854">
        <ele>591.29999999999995</ele>
        <time>2011-01-04T07:44:39Z</time>
      </trkpt>
      <trkpt lat="37.678607990965247" lon="-3.626329991966486">
        <ele>590.89999999999998</ele>
        <time>2011-01-04T07:48:55Z</time>
      </trkpt>
      <trkpt lat="37.678602961823344" lon="-3.626329991966486">
        <ele>590.89999999999998</ele>
        <time>2011-01-04T07:48:56Z</time>
      </trkpt>
      <trkpt lat="37.678589969873428" lon="-3.626329991966486">
        <ele>590.79999999999995</ele>
        <time>2011-01-04T07:48:57Z</time>
      </trkpt>
      <trkpt lat="37.678562980145216" lon="-3.626327980309725">
        <ele>590.79999999999995</ele>
        <time>2011-01-04T07:48:58Z</time>
      </trkpt>
      <trkpt lat="37.678525010123849" lon="-3.626322029158473">
        <ele>590.79999999999995</ele>
        <time>2011-01-04T07:48:59Z</time>
      </trkpt>
      <trkpt lat="37.678476981818676" lon="-3.626308031380177">
        <ele>590.70000000000005</ele>
        <time>2011-01-04T07:49:00Z</time>
      </trkpt>
      <trkpt lat="37.678425014019012" lon="-3.626283975318074">
        <ele>590.70000000000005</ele>
        <time>2011-01-04T07:49:01Z</time>
      </trkpt>
      <trkpt lat="37.678172970190644" lon="-3.626171993091703">
        <ele>590.70000000000005</ele>
        <time>2011-01-04T07:49:05Z</time>
      </trkpt>
      <trkpt lat="37.678089989349246" lon="-3.626150032505393">
        <ele>591</ele>
        <time>2011-01-04T07:49:06Z</time>
      </trkpt>
      <trkpt lat="37.677452964708209" lon="-3.625997984781861">
        <ele>593</ele>
        <time>2011-01-04T07:49:13Z</time>
      </trkpt>
      <trkpt lat="37.677370989695191" lon="-3.625960014760494">
        <ele>593.20000000000005</ele>
        <time>2011-01-04T07:49:14Z</time>
      </trkpt>
      <trkpt lat="37.677296977490187" lon="-3.625911986455321">
        <ele>593.39999999999998</ele>
        <time>2011-01-04T07:49:15Z</time>
      </trkpt>
      <trkpt lat="37.677231011912227" lon="-3.625858006998897">
        <ele>593.60000000000002</ele>
        <time>2011-01-04T07:49:16Z</time>
      </trkpt>
      <trkpt lat="37.67695901915431" lon="-3.62562901340425">
        <ele>594.5</ele>
        <time>2011-01-04T07:49:23Z</time>
      </trkpt>
      <trkpt lat="37.676918031647801" lon="-3.62560898065567">
        <ele>594.79999999999995</ele>
        <time>2011-01-04T07:49:24Z</time>
      </trkpt>
      <trkpt lat="37.676865980029106" lon="-3.625592971220613">
        <ele>595.10000000000002</ele>
        <time>2011-01-04T07:49:25Z</time>
      </trkpt>
      <trkpt lat="37.676804037764668" lon="-3.625580985099077">
        <ele>595.29999999999995</ele>
        <time>2011-01-04T07:49:26Z</time>
      </trkpt>
      <trkpt lat="37.676244964823127" lon="-3.625557012856007">
        <ele>597.5</ele>
        <time>2011-01-04T07:49:32Z</time>
      </trkpt>
      <trkpt lat="37.675721012055874" lon="-3.625570004805923">
        <ele>599</ele>
        <time>2011-01-04T07:49:37Z</time>
      </trkpt>
      <trkpt lat="37.675639959052205" lon="-3.625560030341148">
        <ele>599.29999999999995</ele>
        <time>2011-01-04T07:49:38Z</time>
      </trkpt>
      <trkpt lat="37.675578016787767" lon="-3.62554200924933">
        <ele>599.39999999999998</ele>
        <time>2011-01-04T07:49:39Z</time>
      </trkpt>
      <trkpt lat="37.675537029281259" lon="-3.625524993985891">
        <ele>599.60000000000002</ele>
        <time>2011-01-04T07:49:40Z</time>
      </trkpt>
      <trkpt lat="37.675513979047537" lon="-3.625513007864356">
        <ele>599.70000000000005</ele>
        <time>2011-01-04T07:49:41Z</time>
      </trkpt>
      <trkpt lat="37.675496963784099" lon="-3.62550001591444">
        <ele>599.79999999999995</ele>
        <time>2011-01-04T07:49:42Z</time>
      </trkpt>
      <trkpt lat="37.67547600902617" lon="-3.625474032014608">
        <ele>599.89999999999998</ele>
        <time>2011-01-04T07:49:43Z</time>
      </trkpt>
      <trkpt lat="37.67545698210597" lon="-3.625427009537816">
        <ele>600.10000000000002</ele>
        <time>2011-01-04T07:49:44Z</time>
      </trkpt>
      <trkpt lat="37.675448013469577" lon="-3.625362971797586">
        <ele>600</ele>
        <time>2011-01-04T07:49:45Z</time>
      </trkpt>
      <trkpt lat="37.675449019297957" lon="-3.625288959592581">
        <ele>600.10000000000002</ele>
        <time>2011-01-04T07:49:46Z</time>
      </trkpt>
      <trkpt lat="37.675459999591112" lon="-3.625210002064705">
        <ele>600</ele>
        <time>2011-01-04T07:49:47Z</time>
      </trkpt>
      <trkpt lat="37.675663009285927" lon="-3.624302996322513">
        <ele>599.79999999999995</ele>
        <time>2011-01-04T07:49:55Z</time>
      </trkpt>
      <trkpt lat="37.675688993185759" lon="-3.624195959419012">
        <ele>599.79999999999995</ele>
        <time>2011-01-04T07:49:56Z</time>
      </trkpt>
      <trkpt lat="37.675724029541016" lon="-3.624107027426362">
        <ele>599.70000000000005</ele>
        <time>2011-01-04T07:49:57Z</time>
      </trkpt>
      <trkpt lat="37.675770968198776" lon="-3.624045001342893">
        <ele>599.70000000000005</ele>
        <time>2011-01-04T07:49:58Z</time>
      </trkpt>
      <trkpt lat="37.675828970968723" lon="-3.624010970816016">
        <ele>599.60000000000002</ele>
        <time>2011-01-04T07:49:59Z</time>
      </trkpt>
      <trkpt lat="37.675897032022476" lon="-3.624006025493145">
        <ele>599.39999999999998</ele>
        <time>2011-01-04T07:50:00Z</time>
      </trkpt>
      <trkpt lat="37.675973977893591" lon="-3.624024968594313">
        <ele>599.10000000000002</ele>
        <time>2011-01-04T07:50:01Z</time>
      </trkpt>
      <trkpt lat="37.676060982048512" lon="-3.62406101077795">
        <ele>598.60000000000002</ele>
        <time>2011-01-04T07:50:02Z</time>
      </trkpt>
      <trkpt lat="37.67625099979341" lon="-3.624162012711167">
        <ele>597.5</ele>
        <time>2011-01-04T07:50:04Z</time>
      </trkpt>
      <trkpt lat="37.683114018291235" lon="-3.627795986831188">
        <ele>588.39999999999998</ele>
        <time>2011-01-04T07:50:41Z</time>
      </trkpt>
      <trkpt lat="37.683328008279204" lon="-3.627949040383101">
        <ele>588.60000000000002</ele>
        <time>2011-01-04T07:50:42Z</time>
      </trkpt>
      <trkpt lat="37.685061972588301" lon="-3.629189981147647">
        <ele>589.10000000000002</ele>
        <time>2011-01-04T07:50:50Z</time>
      </trkpt>
      <trkpt lat="37.685298006981611" lon="-3.629298023879528">
        <ele>589.10000000000002</ele>
        <time>2011-01-04T07:50:51Z</time>
      </trkpt>
      <trkpt lat="37.685537980869412" lon="-3.62938703969121">
        <ele>588.89999999999998</ele>
        <time>2011-01-04T07:50:52Z</time>
      </trkpt>
      <trkpt lat="37.685781978070736" lon="-3.629458034411073">
        <ele>588.79999999999995</ele>
        <time>2011-01-04T07:50:53Z</time>
      </trkpt>
      <trkpt lat="37.686285981908441" lon="-3.62953900359571">
        <ele>588.29999999999995</ele>
        <time>2011-01-04T07:50:55Z</time>
      </trkpt>
      <trkpt lat="37.68654297105968" lon="-3.629553001374006">
        <ele>588.10000000000002</ele>
        <time>2011-01-04T07:50:56Z</time>
      </trkpt>
      <trkpt lat="37.6868009660393" lon="-3.629553001374006">
        <ele>587.89999999999998</ele>
        <time>2011-01-04T07:50:57Z</time>
      </trkpt>
      <trkpt lat="37.687061978504062" lon="-3.629546966403723">
        <ele>587.70000000000005</ele>
        <time>2011-01-04T07:50:58Z</time>
      </trkpt>
      <trkpt lat="37.687325002625585" lon="-3.629544032737613">
        <ele>587.70000000000005</ele>
        <time>2011-01-04T07:50:59Z</time>
      </trkpt>
      <trkpt lat="37.687590038403869" lon="-3.629547972232103">
        <ele>587.79999999999995</ele>
        <time>2011-01-04T07:51:00Z</time>
      </trkpt>
      <trkpt lat="37.688120026141405" lon="-3.629592983052135">
        <ele>588.20000000000005</ele>
        <time>2011-01-04T07:51:02Z</time>
      </trkpt>
      <trkpt lat="37.688381960615516" lon="-3.629643023014069">
        <ele>588.5</ele>
        <time>2011-01-04T07:51:03Z</time>
      </trkpt>
      <trkpt lat="37.688640039414167" lon="-3.629713011905551">
        <ele>588.79999999999995</ele>
        <time>2011-01-04T07:51:04Z</time>
      </trkpt>
      <trkpt lat="37.688893005251884" lon="-3.629803033545613">
        <ele>589.20000000000005</ele>
        <time>2011-01-04T07:51:05Z</time>
      </trkpt>
      <trkpt lat="37.692711967974901" lon="-3.631570022553206">
        <ele>596.60000000000002</ele>
        <time>2011-01-04T07:51:21Z</time>
      </trkpt>
      <trkpt lat="37.693114969879389" lon="-3.631290988996625">
        <ele>596.5</ele>
        <time>2011-01-04T07:51:22Z</time>
      </trkpt>
      <trkpt lat="37.693396015092731" lon="-3.631331976503134">
        <ele>597</ele>
        <time>2011-01-04T07:51:23Z</time>
      </trkpt>
      <trkpt lat="37.693932959809899" lon="-3.631441025063396">
        <ele>596.60000000000002</ele>
        <time>2011-01-04T07:51:25Z</time>
      </trkpt>
      <trkpt lat="37.694196989759803" lon="-3.631530962884426">
        <ele>596.70000000000005</ele>
        <time>2011-01-04T07:51:26Z</time>
      </trkpt>
      <trkpt lat="37.694452973082662" lon="-3.631637999787927">
        <ele>596.60000000000002</ele>
        <time>2011-01-04T07:51:27Z</time>
      </trkpt>
      <trkpt lat="37.694701999425888" lon="-3.631760962307453">
        <ele>596.60000000000002</ele>
        <time>2011-01-04T07:51:28Z</time>
      </trkpt>
      <trkpt lat="37.695190999656916" lon="-3.632048964500427">
        <ele>596.39999999999998</ele>
        <time>2011-01-04T07:51:30Z</time>
      </trkpt>
      <trkpt lat="37.698429012671113" lon="-3.633934976533055">
        <ele>592.60000000000002</ele>
        <time>2011-01-04T07:51:43Z</time>
      </trkpt>
      <trkpt lat="37.698704022914171" lon="-3.634026004001498">
        <ele>591.89999999999998</ele>
        <time>2011-01-04T07:51:44Z</time>
      </trkpt>
      <trkpt lat="37.701510032638907" lon="-3.6350810341537">
        <ele>581.89999999999998</ele>
        <time>2011-01-04T07:51:54Z</time>
      </trkpt>
      <trkpt lat="37.70233104005456" lon="-3.6355110257864">
        <ele>580.29999999999995</ele>
        <time>2011-01-04T07:51:57Z</time>
      </trkpt>
      <trkpt lat="37.702599009498954" lon="-3.635661983862519">
        <ele>579.70000000000005</ele>
        <time>2011-01-04T07:51:58Z</time>
      </trkpt>
      <trkpt lat="37.709417017176747" lon="-3.639584966003895">
        <ele>548.89999999999998</ele>
        <time>2011-01-04T07:52:24Z</time>
      </trkpt>
      <trkpt lat="37.710427036508918" lon="-3.640457019209862">
        <ele>545.89999999999998</ele>
        <time>2011-01-04T07:52:28Z</time>
      </trkpt>
      <trkpt lat="37.710899021476507" lon="-3.640935039147735">
        <ele>545.70000000000005</ele>
        <time>2011-01-04T07:52:30Z</time>
      </trkpt>
      <trkpt lat="37.711548032239079" lon="-3.641699971631169">
        <ele>547.10000000000002</ele>
        <time>2011-01-04T07:52:33Z</time>
      </trkpt>
      <trkpt lat="37.717808978632092" lon="-3.649103036150336">
        <ele>590.29999999999995</ele>
        <time>2011-01-04T07:53:06Z</time>
      </trkpt>
      <trkpt lat="37.71797401830554" lon="-3.649339992552996">
        <ele>590.89999999999998</ele>
        <time>2011-01-04T07:53:07Z</time>
      </trkpt>
      <trkpt lat="37.718279035761952" lon="-3.649848019704223">
        <ele>591.89999999999998</ele>
        <time>2011-01-04T07:53:09Z</time>
      </trkpt>
      <trkpt lat="37.718419013544917" lon="-3.650120012462139">
        <ele>592.10000000000002</ele>
        <time>2011-01-04T07:53:10Z</time>
      </trkpt>
      <trkpt lat="37.718672985211015" lon="-3.650698028504849">
        <ele>592.10000000000002</ele>
        <time>2011-01-04T07:53:12Z</time>
      </trkpt>
      <trkpt lat="37.718785973265767" lon="-3.65100396797061">
        <ele>591.79999999999995</ele>
        <time>2011-01-04T07:53:13Z</time>
      </trkpt>
      <trkpt lat="37.718886975198984" lon="-3.651321977376938">
        <ele>591.29999999999995</ele>
        <time>2011-01-04T07:53:14Z</time>
      </trkpt>
      <trkpt lat="37.718976996839046" lon="-3.651650967076421">
        <ele>590.70000000000005</ele>
        <time>2011-01-04T07:53:15Z</time>
      </trkpt>
      <trkpt lat="37.719119992107153" lon="-3.652326967567205">
        <ele>590.20000000000005</ele>
        <time>2011-01-04T07:53:17Z</time>
      </trkpt>
      <trkpt lat="37.719170032069087" lon="-3.652681019157171">
        <ele>589.29999999999995</ele>
        <time>2011-01-04T07:53:18Z</time>
      </trkpt>
      <trkpt lat="37.719204984605312" lon="-3.653040016070008">
        <ele>588.20000000000005</ele>
        <time>2011-01-04T07:53:19Z</time>
      </trkpt>
      <trkpt lat="37.719225017353892" lon="-3.653402030467987">
        <ele>586.70000000000005</ele>
        <time>2011-01-04T07:53:20Z</time>
      </trkpt>
      <trkpt lat="37.719229962676764" lon="-3.653764966875315">
        <ele>585.10000000000002</ele>
        <time>2011-01-04T07:53:21Z</time>
      </trkpt>
      <trkpt lat="37.719199033454061" lon="-3.654488995671272">
        <ele>581.60000000000002</ele>
        <time>2011-01-04T07:53:23Z</time>
      </trkpt>
      <trkpt lat="37.719161985442042" lon="-3.654852015897632">
        <ele>580.10000000000002</ele>
        <time>2011-01-04T07:53:24Z</time>
      </trkpt>
      <trkpt lat="37.719110017642379" lon="-3.65521302446723">
        <ele>578.60000000000002</ele>
        <time>2011-01-04T07:53:25Z</time>
      </trkpt>
      <trkpt lat="37.719042040407658" lon="-3.655571015551686">
        <ele>577</ele>
        <time>2011-01-04T07:53:26Z</time>
      </trkpt>
      <trkpt lat="37.718956964090466" lon="-3.65592498332262">
        <ele>575.20000000000005</ele>
        <time>2011-01-04T07:53:27Z</time>
      </trkpt>
      <trkpt lat="37.718742974102497" lon="-3.656619004905224">
        <ele>571.89999999999998</ele>
        <time>2011-01-04T07:53:29Z</time>
      </trkpt>
      <trkpt lat="37.718337038531899" lon="-3.657622989267111">
        <ele>566.89999999999998</ele>
        <time>2011-01-04T07:53:32Z</time>
      </trkpt>
      <trkpt lat="37.717300029471517" lon="-3.660336965695024">
        <ele>563</ele>
        <time>2011-01-04T07:53:40Z</time>
      </trkpt>
      <trkpt lat="37.717205984517932" lon="-3.660685988143086">
        <ele>563.10000000000002</ele>
        <time>2011-01-04T07:53:41Z</time>
      </trkpt>
      <trkpt lat="37.716845981776714" lon="-3.66245498880744">
        <ele>562.60000000000002</ele>
        <time>2011-01-04T07:53:46Z</time>
      </trkpt>
      <trkpt lat="37.71670600399375" lon="-3.663545977324247">
        <ele>561.39999999999998</ele>
        <time>2011-01-04T07:53:49Z</time>
      </trkpt>
      <trkpt lat="37.71664003841579" lon="-3.664660016074777">
        <ele>559</ele>
        <time>2011-01-04T07:53:52Z</time>
      </trkpt>
      <trkpt lat="37.716678008437157" lon="-3.666188037022948">
        <ele>554.5</ele>
        <time>2011-01-04T07:53:56Z</time>
      </trkpt>
      <trkpt lat="37.717052008956671" lon="-3.671021964401007">
        <ele>536.29999999999995</ele>
        <time>2011-01-04T07:54:09Z</time>
      </trkpt>
      <trkpt lat="37.717104982584715" lon="-3.671368975192308">
        <ele>534.70000000000005</ele>
        <time>2011-01-04T07:54:10Z</time>
      </trkpt>
      <trkpt lat="37.717252001166344" lon="-3.672046987339854">
        <ele>531.5</ele>
        <time>2011-01-04T07:54:12Z</time>
      </trkpt>
      <trkpt lat="37.717347973957658" lon="-3.672373965382576">
        <ele>529.89999999999998</ele>
        <time>2011-01-04T07:54:13Z</time>
      </trkpt>
      <trkpt lat="37.7174580283463" lon="-3.672690968960524">
        <ele>528.20000000000005</ele>
        <time>2011-01-04T07:54:14Z</time>
      </trkpt>
      <trkpt lat="37.717717029154301" lon="-3.673294968903065">
        <ele>525</ele>
        <time>2011-01-04T07:54:16Z</time>
      </trkpt>
      <trkpt lat="37.718020034953952" lon="-3.673858987167478">
        <ele>522.10000000000002</ele>
        <time>2011-01-04T07:54:18Z</time>
      </trkpt>
      <trkpt lat="37.718188008293509" lon="-3.674126034602523">
        <ele>520.79999999999995</ele>
        <time>2011-01-04T07:54:19Z</time>
      </trkpt>
      <trkpt lat="37.71855597384274" lon="-3.674628026783466">
        <ele>518.70000000000005</ele>
        <time>2011-01-04T07:54:21Z</time>
      </trkpt>
      <trkpt lat="37.71896299906075" lon="-3.675079979002476">
        <ele>517</ele>
        <time>2011-01-04T07:54:23Z</time>
      </trkpt>
      <trkpt lat="37.719400031492114" lon="-3.675482980906963">
        <ele>515.5</ele>
        <time>2011-01-04T07:54:25Z</time>
      </trkpt>
      <trkpt lat="37.719868998974562" lon="-3.675835020840168">
        <ele>514.79999999999995</ele>
        <time>2011-01-04T07:54:27Z</time>
      </trkpt>
      <trkpt lat="37.733405018225312" lon="-3.68473500944674">
        <ele>492.69999999999999</ele>
        <time>2011-01-04T07:55:19Z</time>
      </trkpt>
      <trkpt lat="37.733676005154848" lon="-3.684865012764931">
        <ele>492.5</ele>
        <time>2011-01-04T07:55:20Z</time>
      </trkpt>
      <trkpt lat="37.734516961500049" lon="-3.685169024392963">
        <ele>492.30000000000001</ele>
        <time>2011-01-04T07:55:23Z</time>
      </trkpt>
      <trkpt lat="37.734803035855293" lon="-3.685238007456064">
        <ele>492.30000000000001</ele>
        <time>2011-01-04T07:55:24Z</time>
      </trkpt>
      <trkpt lat="37.735382979735732" lon="-3.685317970812321">
        <ele>492.60000000000002</ele>
        <time>2011-01-04T07:55:26Z</time>
      </trkpt>
      <trkpt lat="37.735675005242229" lon="-3.685324005782604">
        <ele>493.10000000000002</ele>
        <time>2011-01-04T07:55:27Z</time>
      </trkpt>
      <trkpt lat="37.735965019091964" lon="-3.685312019661069">
        <ele>493.39999999999998</ele>
        <time>2011-01-04T07:55:28Z</time>
      </trkpt>
      <trkpt lat="37.737105963751674" lon="-3.685166006907821">
        <ele>496.39999999999998</ele>
        <time>2011-01-04T07:55:32Z</time>
      </trkpt>
      <trkpt lat="37.73765598423779" lon="-3.685017982497811">
        <ele>498.69999999999999</ele>
        <time>2011-01-04T07:55:34Z</time>
      </trkpt>
      <trkpt lat="37.740560984238982" lon="-3.684184988960624">
        <ele>515.60000000000002</ele>
        <time>2011-01-04T07:55:45Z</time>
      </trkpt>
      <trkpt lat="37.740825014188886" lon="-3.684152970090509">
        <ele>516.89999999999998</ele>
        <time>2011-01-04T07:55:46Z</time>
      </trkpt>
      <trkpt lat="37.74135198444128" lon="-3.684119023382664">
        <ele>519.39999999999998</ele>
        <time>2011-01-04T07:55:48Z</time>
      </trkpt>
      <trkpt lat="37.741616014391184" lon="-3.684116005897522">
        <ele>520.60000000000002</ele>
        <time>2011-01-04T07:55:49Z</time>
      </trkpt>
      <trkpt lat="37.741879960522056" lon="-3.684122040867806">
        <ele>521.79999999999995</ele>
        <time>2011-01-04T07:55:50Z</time>
      </trkpt>
      <trkpt lat="37.742945970967412" lon="-3.684232011437416">
        <ele>525.70000000000005</ele>
        <time>2011-01-04T07:55:54Z</time>
      </trkpt>
      <trkpt lat="37.743484005331993" lon="-3.684342987835407">
        <ele>527.20000000000005</ele>
        <time>2011-01-04T07:55:56Z</time>
      </trkpt>
      <trkpt lat="37.744294032454491" lon="-3.68458203971386">
        <ele>528.89999999999998</ele>
        <time>2011-01-04T07:55:59Z</time>
      </trkpt>
      <trkpt lat="37.744833994656801" lon="-3.68479804135859">
        <ele>529.39999999999998</ele>
        <time>2011-01-04T07:56:01Z</time>
      </trkpt>
      <trkpt lat="37.745639998465776" lon="-3.685198025777936">
        <ele>530</ele>
        <time>2011-01-04T07:56:04Z</time>
      </trkpt>
      <trkpt lat="37.746170992031693" lon="-3.685514023527503">
        <ele>530.5</ele>
        <time>2011-01-04T07:56:06Z</time>
      </trkpt>
      <trkpt lat="37.746686981990933" lon="-3.685879977419972">
        <ele>531</ele>
        <time>2011-01-04T07:56:08Z</time>
      </trkpt>
      <trkpt lat="37.747185034677386" lon="-3.686293959617615">
        <ele>531.70000000000005</ele>
        <time>2011-01-04T07:56:10Z</time>
      </trkpt>
      <trkpt lat="37.747894981876016" lon="-3.686984963715076">
        <ele>532.5</ele>
        <time>2011-01-04T07:56:13Z</time>
      </trkpt>
      <trkpt lat="37.748556984588504" lon="-3.687728019431233">
        <ele>533.29999999999995</ele>
        <time>2011-01-04T07:56:16Z</time>
      </trkpt>
      <trkpt lat="37.748961998149753" lon="-3.688257001340389">
        <ele>533.89999999999998</ele>
        <time>2011-01-04T07:56:18Z</time>
      </trkpt>
      <trkpt lat="37.749335998669267" lon="-3.688814984634519">
        <ele>534.20000000000005</ele>
        <time>2011-01-04T07:56:20Z</time>
      </trkpt>
      <trkpt lat="37.74951302446425" lon="-3.689103992655873">
        <ele>534.29999999999995</ele>
        <time>2011-01-04T07:56:21Z</time>
      </trkpt>
      <trkpt lat="37.750153988599777" lon="-3.69032196700573">
        <ele>534.5</ele>
        <time>2011-01-04T07:56:25Z</time>
      </trkpt>
      <trkpt lat="37.750434027984738" lon="-3.69096402078867">
        <ele>534.89999999999998</ele>
        <time>2011-01-04T07:56:27Z</time>
      </trkpt>
      <trkpt lat="37.750908024609089" lon="-3.692305041477084">
        <ele>536</ele>
        <time>2011-01-04T07:56:31Z</time>
      </trkpt>
      <trkpt lat="37.752253990620375" lon="-3.695978997275233">
        <ele>539</ele>
        <time>2011-01-04T07:56:42Z</time>
      </trkpt>
      <trkpt lat="37.752564959228039" lon="-3.696606969460845">
        <ele>539.70000000000005</ele>
        <time>2011-01-04T07:56:44Z</time>
      </trkpt>
      <trkpt lat="37.753442963585258" lon="-3.698100037872791">
        <ele>540.89999999999998</ele>
        <time>2011-01-04T07:56:49Z</time>
      </trkpt>
      <trkpt lat="37.754669990390539" lon="-3.699750015512109">
        <ele>541.60000000000002</ele>
        <time>2011-01-04T07:56:55Z</time>
      </trkpt>
      <trkpt lat="37.758053010329604" lon="-3.704001987352967">
        <ele>542.29999999999995</ele>
        <time>2011-01-04T07:57:11Z</time>
      </trkpt>
      <trkpt lat="37.758228024467826" lon="-3.70430801063776">
        <ele>542.10000000000002</ele>
        <time>2011-01-04T07:57:12Z</time>
      </trkpt>
      <trkpt lat="37.758877035230398" lon="-3.705589016899467">
        <ele>540.20000000000005</ele>
        <time>2011-01-04T07:57:16Z</time>
      </trkpt>
      <trkpt lat="37.759305015206337" lon="-3.706600964069367">
        <ele>537.79999999999995</ele>
        <time>2011-01-04T07:57:19Z</time>
      </trkpt>
      <trkpt lat="37.759672980755568" lon="-3.707626992836595">
        <ele>535.20000000000005</ele>
        <time>2011-01-04T07:57:22Z</time>
      </trkpt>
      <trkpt lat="37.75978303514421" lon="-3.707971991971135">
        <ele>534.10000000000002</ele>
        <time>2011-01-04T07:57:23Z</time>
      </trkpt>
      <trkpt lat="37.760241022333503" lon="-3.709747027605772">
        <ele>527.70000000000005</ele>
        <time>2011-01-04T07:57:28Z</time>
      </trkpt>
      <trkpt lat="37.761401999741793" lon="-3.715400034561753">
        <ele>500.10000000000002</ele>
        <time>2011-01-04T07:57:44Z</time>
      </trkpt>
      <trkpt lat="37.761522028595209" lon="-3.715714020654559">
        <ele>498.5</ele>
        <time>2011-01-04T07:57:45Z</time>
      </trkpt>
      <trkpt lat="37.762068025767803" lon="-3.716913973912597">
        <ele>492.30000000000001</ele>
        <time>2011-01-04T07:57:49Z</time>
      </trkpt>
      <trkpt lat="37.762385029345751" lon="-3.71747899800539">
        <ele>489.19999999999999</ele>
        <time>2011-01-04T07:57:51Z</time>
      </trkpt>
      <trkpt lat="37.762920968234539" lon="-3.718279972672463">
        <ele>484.30000000000001</ele>
        <time>2011-01-04T07:57:54Z</time>
      </trkpt>
      <trkpt lat="37.763520022854209" lon="-3.719025040045381">
        <ele>479.30000000000001</ele>
        <time>2011-01-04T07:57:57Z</time>
      </trkpt>
      <trkpt lat="37.767835026606917" lon="-3.723901966586709">
        <ele>447.60000000000002</ele>
        <time>2011-01-04T07:58:18Z</time>
      </trkpt>
      <trkpt lat="37.767995037138462" lon="-3.724163984879851">
        <ele>446.30000000000001</ele>
        <time>2011-01-04T07:58:19Z</time>
      </trkpt>
      <trkpt lat="37.7685940079391" lon="-3.725251033902168">
        <ele>442.10000000000002</ele>
        <time>2011-01-04T07:58:23Z</time>
      </trkpt>
      <trkpt lat="37.768732979893684" lon="-3.725530989468098">
        <ele>441.19999999999999</ele>
        <time>2011-01-04T07:58:24Z</time>
      </trkpt>
      <trkpt lat="37.769464971497655" lon="-3.727265037596226">
        <ele>437.80000000000001</ele>
        <time>2011-01-04T07:58:30Z</time>
      </trkpt>
      <trkpt lat="37.76986101642251" lon="-3.728489968925715">
        <ele>435.80000000000001</ele>
        <time>2011-01-04T07:58:34Z</time>
      </trkpt>
      <trkpt lat="37.770116999745369" lon="-3.729455983266234">
        <ele>434.5</ele>
        <time>2011-01-04T07:58:37Z</time>
      </trkpt>
      <trkpt lat="37.770392009988427" lon="-3.730801027268171">
        <ele>432.60000000000002</ele>
        <time>2011-01-04T07:58:41Z</time>
      </trkpt>
      <trkpt lat="37.771926987916231" lon="-3.737720036879182">
        <ele>421.89999999999998</ele>
        <time>2011-01-04T07:59:02Z</time>
      </trkpt>
      <trkpt lat="37.772036958485842" lon="-3.738025976344943">
        <ele>421.19999999999999</ele>
        <time>2011-01-04T07:59:03Z</time>
      </trkpt>
      <trkpt lat="37.774189012125134" lon="-3.742932993918657">
        <ele>402.19999999999999</ele>
        <time>2011-01-04T07:59:19Z</time>
      </trkpt>
      <trkpt lat="37.775608990341425" lon="-3.745481008663774">
        <ele>392.80000000000001</ele>
        <time>2011-01-04T07:59:27Z</time>
      </trkpt>
      <trkpt lat="37.775805965065956" lon="-3.745794994756579">
        <ele>392.10000000000002</ele>
        <time>2011-01-04T07:59:28Z</time>
      </trkpt>
      <trkpt lat="37.780095990747213" lon="-3.7512749992311">
        <ele>397.19999999999999</ele>
        <time>2011-01-04T07:59:49Z</time>
      </trkpt>
      <trkpt lat="37.782668983563781" lon="-3.753728969022632">
        <ele>402.69999999999999</ele>
        <time>2011-01-04T08:00:01Z</time>
      </trkpt>
      <trkpt lat="37.784752976149321" lon="-3.755327984690666">
        <ele>406.60000000000002</ele>
        <time>2011-01-04T08:00:10Z</time>
      </trkpt>
      <trkpt lat="37.786734038963914" lon="-3.756499020382762">
        <ele>409.60000000000002</ele>
        <time>2011-01-04T08:00:18Z</time>
      </trkpt>
      <trkpt lat="37.788324002176523" lon="-3.757193963974714">
        <ele>409.89999999999998</ele>
        <time>2011-01-04T08:00:24Z</time>
      </trkpt>
      <trkpt lat="37.79001496732235" lon="-3.757706014439464">
        <ele>408.10000000000002</ele>
        <time>2011-01-04T08:00:30Z</time>
      </trkpt>
      <trkpt lat="37.790306992828846" lon="-3.757770974189043">
        <ele>407.80000000000001</ele>
        <time>2011-01-04T08:00:31Z</time>
      </trkpt>
      <trkpt lat="37.793337972834706" lon="-3.758095018565655">
        <ele>404.39999999999998</ele>
        <time>2011-01-04T08:00:41Z</time>
      </trkpt>
      <trkpt lat="37.793647013604641" lon="-3.758092001080513">
        <ele>404</ele>
        <time>2011-01-04T08:00:42Z</time>
      </trkpt>
      <trkpt lat="37.797966962680221" lon="-3.757796036079526">
        <ele>398.89999999999998</ele>
        <time>2011-01-04T08:00:56Z</time>
      </trkpt>
      <trkpt lat="37.798271980136633" lon="-3.757798969745636">
        <ele>398.5</ele>
        <time>2011-01-04T08:00:57Z</time>
      </trkpt>
      <trkpt lat="37.799184015020728" lon="-3.757862001657486">
        <ele>397.69999999999999</ele>
        <time>2011-01-04T08:01:00Z</time>
      </trkpt>
      <trkpt lat="37.800390003249049" lon="-3.75806400552392">
        <ele>396.5</ele>
        <time>2011-01-04T08:01:04Z</time>
      </trkpt>
      <trkpt lat="37.801288040354848" lon="-3.758296016603708">
        <ele>395.60000000000002</ele>
        <time>2011-01-04T08:01:07Z</time>
      </trkpt>
      <trkpt lat="37.80217400752008" lon="-3.75860296189785">
        <ele>394.5</ele>
        <time>2011-01-04T08:01:10Z</time>
      </trkpt>
      <trkpt lat="37.803327022120357" lon="-3.759121969342232">
        <ele>393</ele>
        <time>2011-01-04T08:01:14Z</time>
      </trkpt>
      <trkpt lat="37.804126990959048" lon="-3.759571993723512">
        <ele>392</ele>
        <time>2011-01-04T08:01:17Z</time>
      </trkpt>
      <trkpt lat="37.805115971714258" lon="-3.760239025577903">
        <ele>390.80000000000001</ele>
        <time>2011-01-04T08:01:21Z</time>
      </trkpt>
      <trkpt lat="37.810655990615487" lon="-3.764129988849163">
        <ele>389.30000000000001</ele>
        <time>2011-01-04T08:01:44Z</time>
      </trkpt>
      <trkpt lat="37.810911973938346" lon="-3.764249011874199">
        <ele>389.60000000000002</ele>
        <time>2011-01-04T08:01:45Z</time>
      </trkpt>
      <trkpt lat="37.812879038974643" lon="-3.764974968507886">
        <ele>392.39999999999998</ele>
        <time>2011-01-04T08:01:53Z</time>
      </trkpt>
      <trkpt lat="37.81379803083837" lon="-3.7651970051229">
        <ele>392.80000000000001</ele>
        <time>2011-01-04T08:01:57Z</time>
      </trkpt>
      <trkpt lat="37.816308997571468" lon="-3.765467992052436">
        <ele>389.89999999999998</ele>
        <time>2011-01-04T08:02:09Z</time>
      </trkpt>
      <trkpt lat="37.817349024116993" lon="-3.765489030629396">
        <ele>388</ele>
        <time>2011-01-04T08:02:14Z</time>
      </trkpt>
      <trkpt lat="37.817562008276582" lon="-3.765488024801016">
        <ele>387.69999999999999</ele>
        <time>2011-01-04T08:02:15Z</time>
      </trkpt>
      <trkpt lat="37.817769963294268" lon="-3.765484001487494">
        <ele>387</ele>
        <time>2011-01-04T08:02:16Z</time>
      </trkpt>
      <trkpt lat="37.817972972989082" lon="-3.765486013144255">
        <ele>386.60000000000002</ele>
        <time>2011-01-04T08:02:17Z</time>
      </trkpt>
      <trkpt lat="37.819584980607033" lon="-3.765494981780648">
        <ele>386.80000000000001</ele>
        <time>2011-01-04T08:02:25Z</time>
      </trkpt>
      <trkpt lat="37.819768041372299" lon="-3.765493975952268">
        <ele>386.89999999999998</ele>
        <time>2011-01-04T08:02:26Z</time>
      </trkpt>
      <trkpt lat="37.820090996101499" lon="-3.765472015365958">
        <ele>387</ele>
        <time>2011-01-04T08:02:28Z</time>
      </trkpt>
      <trkpt lat="37.82022200524807" lon="-3.76543496735394">
        <ele>387.10000000000002</ele>
        <time>2011-01-04T08:02:29Z</time>
      </trkpt>
      <trkpt lat="37.820304986089468" lon="-3.765345029532909">
        <ele>387.19999999999999</ele>
        <time>2011-01-04T08:02:30Z</time>
      </trkpt>
      <trkpt lat="37.82037103548646" lon="-3.765238998457789">
        <ele>387.10000000000002</ele>
        <time>2011-01-04T08:02:31Z</time>
      </trkpt>
      <trkpt lat="37.820424009114504" lon="-3.765119975432754">
        <ele>387.19999999999999</ele>
        <time>2011-01-04T08:02:32Z</time>
      </trkpt>
      <trkpt lat="37.820455022156239" lon="-3.764987960457802">
        <ele>387.19999999999999</ele>
        <time>2011-01-04T08:02:33Z</time>
      </trkpt>
      <trkpt lat="37.82046097330749" lon="-3.764847982674837">
        <ele>387.30000000000001</ele>
        <time>2011-01-04T08:02:34Z</time>
      </trkpt>
      <trkpt lat="37.820442030206323" lon="-3.764710016548634">
        <ele>387.39999999999998</ele>
        <time>2011-01-04T08:02:35Z</time>
      </trkpt>
      <trkpt lat="37.820401964709163" lon="-3.764579007402062">
        <ele>387.5</ele>
        <time>2011-01-04T08:02:36Z</time>
      </trkpt>
      <trkpt lat="37.820335999131203" lon="-3.76446601934731">
        <ele>387.69999999999999</ele>
        <time>2011-01-04T08:02:37Z</time>
      </trkpt>
      <trkpt lat="37.820250000804663" lon="-3.764372980222106">
        <ele>387.80000000000001</ele>
        <time>2011-01-04T08:02:38Z</time>
      </trkpt>
      <trkpt lat="37.820146987214684" lon="-3.764302991330624">
        <ele>388</ele>
        <time>2011-01-04T08:02:39Z</time>
      </trkpt>
      <trkpt lat="37.82002997584641" lon="-3.764255968853831">
        <ele>388.19999999999999</ele>
        <time>2011-01-04T08:02:40Z</time>
      </trkpt>
      <trkpt lat="37.819902990013361" lon="-3.764227973297238">
        <ele>388.60000000000002</ele>
        <time>2011-01-04T08:02:41Z</time>
      </trkpt>
      <trkpt lat="37.819768041372299" lon="-3.764214981347323">
        <ele>389</ele>
        <time>2011-01-04T08:02:42Z</time>
      </trkpt>
      <trkpt lat="37.819488001987338" lon="-3.764220010489225">
        <ele>390.10000000000002</ele>
        <time>2011-01-04T08:02:44Z</time>
      </trkpt>
      <trkpt lat="37.819209974259138" lon="-3.764266027137637">
        <ele>391</ele>
        <time>2011-01-04T08:02:46Z</time>
      </trkpt>
      <trkpt lat="37.819078965112567" lon="-3.764301985502243">
        <ele>391.5</ele>
        <time>2011-01-04T08:02:47Z</time>
      </trkpt>
      <trkpt lat="37.818952985107899" lon="-3.764346996322274">
        <ele>391.80000000000001</ele>
        <time>2011-01-04T08:02:48Z</time>
      </trkpt>
      <trkpt lat="37.818718040362" lon="-3.764459984377027">
        <ele>392.60000000000002</ele>
        <time>2011-01-04T08:02:50Z</time>
      </trkpt>
      <trkpt lat="37.818520981818438" lon="-3.764586970210075">
        <ele>393.10000000000002</ele>
        <time>2011-01-04T08:02:52Z</time>
      </trkpt>
      <trkpt lat="37.818315960466862" lon="-3.764757961034775">
        <ele>393.39999999999998</ele>
        <time>2011-01-04T08:02:55Z</time>
      </trkpt>
      <trkpt lat="37.818171959370375" lon="-3.7649189773947">
        <ele>393.69999999999999</ele>
        <time>2011-01-04T08:03:02Z</time>
      </trkpt>
      <trkpt lat="37.818126026540995" lon="-3.76498200930655">
        <ele>393.69999999999999</ele>
        <time>2011-01-04T08:03:04Z</time>
      </trkpt>
      <trkpt lat="37.818091996014118" lon="-3.765036994591355">
        <ele>393.60000000000002</ele>
        <time>2011-01-04T08:03:05Z</time>
      </trkpt>
      <trkpt lat="37.817978002130985" lon="-3.765265988186002">
        <ele>393.69999999999999</ele>
        <time>2011-01-04T08:03:08Z</time>
      </trkpt>
      <trkpt lat="37.815738022327423" lon="-3.770728977397084">
        <ele>400.89999999999998</ele>
        <time>2011-01-04T08:03:40Z</time>
      </trkpt>
      <trkpt lat="37.81568999402225" lon="-3.770878007635474">
        <ele>401.60000000000002</ele>
        <time>2011-01-04T08:03:41Z</time>
      </trkpt>
      <trkpt lat="37.815657975152135" lon="-3.771026032045484">
        <ele>402.39999999999998</ele>
        <time>2011-01-04T08:03:42Z</time>
      </trkpt>
      <trkpt lat="37.8156459890306" lon="-3.77116902731359">
        <ele>403.30000000000001</ele>
        <time>2011-01-04T08:03:43Z</time>
      </trkpt>
      <trkpt lat="37.815655963495374" lon="-3.771301964297891">
        <ele>404.10000000000002</ele>
        <time>2011-01-04T08:03:44Z</time>
      </trkpt>
      <trkpt lat="37.815687982365489" lon="-3.771420987322927">
        <ele>404.89999999999998</ele>
        <time>2011-01-04T08:03:45Z</time>
      </trkpt>
      <trkpt lat="37.815740033984184" lon="-3.771524000912905">
        <ele>405.89999999999998</ele>
        <time>2011-01-04T08:03:46Z</time>
      </trkpt>
      <trkpt lat="37.815808011218905" lon="-3.771608993411064">
        <ele>406.80000000000001</ele>
        <time>2011-01-04T08:03:47Z</time>
      </trkpt>
      <trkpt lat="37.815889986231923" lon="-3.771674958989024">
        <ele>407.5</ele>
        <time>2011-01-04T08:03:48Z</time>
      </trkpt>
      <trkpt lat="37.815977996215224" lon="-3.771717036142945">
        <ele>407.89999999999998</ele>
        <time>2011-01-04T08:03:49Z</time>
      </trkpt>
      <trkpt lat="37.816063994541764" lon="-3.771741008386016">
        <ele>407.89999999999998</ele>
        <time>2011-01-04T08:03:50Z</time>
      </trkpt>
      <trkpt lat="37.816240014508367" lon="-3.77177101559937">
        <ele>407.80000000000001</ele>
        <time>2011-01-04T08:03:52Z</time>
      </trkpt>
      <trkpt lat="37.816328024491668" lon="-3.771775038912892">
        <ele>407.5</ele>
        <time>2011-01-04T08:03:53Z</time>
      </trkpt>
      <trkpt lat="37.816413016989827" lon="-3.771763974800706">
        <ele>407.10000000000002</ele>
        <time>2011-01-04T08:03:54Z</time>
      </trkpt>
      <trkpt lat="37.816491974517703" lon="-3.771734973415732">
        <ele>406.69999999999999</ele>
        <time>2011-01-04T08:03:55Z</time>
      </trkpt>
      <trkpt lat="37.816561963409185" lon="-3.771692980080843">
        <ele>406.30000000000001</ele>
        <time>2011-01-04T08:03:56Z</time>
      </trkpt>
      <trkpt lat="37.816687021404505" lon="-3.771597007289529">
        <ele>405.69999999999999</ele>
        <time>2011-01-04T08:03:58Z</time>
      </trkpt>
      <trkpt lat="37.816750975325704" lon="-3.771562976762652">
        <ele>405.5</ele>
        <time>2011-01-04T08:03:59Z</time>
      </trkpt>
      <trkpt lat="37.816816018894315" lon="-3.771544033661485">
        <ele>405.39999999999998</ele>
        <time>2011-01-04T08:04:00Z</time>
      </trkpt>
      <trkpt lat="37.816992960870266" lon="-3.771516960114241">
        <ele>405.39999999999998</ele>
        <time>2011-01-04T08:04:03Z</time>
      </trkpt>
      <trkpt lat="37.817041995003819" lon="-3.771496005356312">
        <ele>405.30000000000001</ele>
        <time>2011-01-04T08:04:04Z</time>
      </trkpt>
      <trkpt lat="37.817082982510328" lon="-3.771465998142958">
        <ele>405.19999999999999</ele>
        <time>2011-01-04T08:04:05Z</time>
      </trkpt>
      <trkpt lat="37.817119024693966" lon="-3.77142702229321">
        <ele>404.89999999999998</ele>
        <time>2011-01-04T08:04:06Z</time>
      </trkpt>
      <trkpt lat="37.817146014422178" lon="-3.771378993988037">
        <ele>404.69999999999999</ele>
        <time>2011-01-04T08:04:07Z</time>
      </trkpt>
      <trkpt lat="37.817187001928687" lon="-3.771280003711581">
        <ele>404.30000000000001</ele>
        <time>2011-01-04T08:04:09Z</time>
      </trkpt>
      <trkpt lat="37.817210974171758" lon="-3.771245973184705">
        <ele>404.30000000000001</ele>
        <time>2011-01-04T08:04:10Z</time>
      </trkpt>
      <trkpt lat="37.817237041890621" lon="-3.771227030083537">
        <ele>404.10000000000002</ele>
        <time>2011-01-04T08:04:11Z</time>
      </trkpt>
      <trkpt lat="37.817256990820169" lon="-3.771216971799731">
        <ele>404</ele>
        <time>2011-01-04T08:04:12Z</time>
      </trkpt>
      <trkpt lat="37.817268976941705" lon="-3.771210014820099">
        <ele>404.10000000000002</ele>
        <time>2011-01-04T08:04:14Z</time>
      </trkpt>
      <trkpt lat="37.817259002476931" lon="-3.771214038133621">
        <ele>404.10000000000002</ele>
        <time>2011-01-04T08:04:15Z</time>
      </trkpt>
      <trkpt lat="37.817230001091957" lon="-3.771225018426776">
        <ele>404.10000000000002</ele>
        <time>2011-01-04T08:04:18Z</time>
      </trkpt>
      <trkpt lat="37.817221032455564" lon="-3.771229963749647">
        <ele>404.30000000000001</ele>
        <time>2011-01-04T08:04:19Z</time>
      </trkpt>
      <trkpt lat="37.817209968343377" lon="-3.77123398706317">
        <ele>404</ele>
        <time>2011-01-04T08:04:20Z</time>
      </trkpt>
      <trkpt lat="37.817205023020506" lon="-3.771239016205072">
        <ele>404.60000000000002</ele>
        <time>2011-01-04T08:04:21Z</time>
      </trkpt>
      <trkpt lat="37.817203011363745" lon="-3.771242033690214">
        <ele>404.89999999999998</ele>
        <time>2011-01-04T08:04:22Z</time>
      </trkpt>
      <trkpt lat="37.817198988050222" lon="-3.771240022033453">
        <ele>405.39999999999998</ele>
        <time>2011-01-04T08:04:23Z</time>
      </trkpt>
      <trkpt lat="37.8171949647367" lon="-3.771229963749647">
        <ele>405.80000000000001</ele>
        <time>2011-01-04T08:04:24Z</time>
      </trkpt>
      <trkpt lat="37.817191025242209" lon="-3.771213032305241">
        <ele>406</ele>
        <time>2011-01-04T08:04:25Z</time>
      </trkpt>
      <trkpt lat="37.81719203107059" lon="-3.771195011213422">
        <ele>406.19999999999999</ele>
        <time>2011-01-04T08:04:26Z</time>
      </trkpt>
      <trkpt lat="37.817193958908319" lon="-3.771183025091887">
        <ele>406.19999999999999</ele>
        <time>2011-01-04T08:04:27Z</time>
      </trkpt>
      <trkpt lat="37.817202005535364" lon="-3.771175984293222">
        <ele>406.30000000000001</ele>
        <time>2011-01-04T08:04:28Z</time>
      </trkpt>
      <trkpt lat="37.81721499748528" lon="-3.771171038970351">
        <ele>406.30000000000001</ele>
        <time>2011-01-04T08:04:29Z</time>
      </trkpt>
      <trkpt lat="37.817202005535364" lon="-3.771155029535294">
        <ele>395.10000000000002</ele>
        <time>2011-01-04T08:05:39Z</time>
      </trkpt>
      <trkpt lat="37.817199993878603" lon="-3.771151006221771">
        <ele>394.5</ele>
        <time>2011-01-04T08:05:40Z</time>
      </trkpt>
      <trkpt lat="37.817198988050222" lon="-3.771146982908249">
        <ele>394.10000000000002</ele>
        <time>2011-01-04T08:05:41Z</time>
      </trkpt>
      <trkpt lat="37.817198988050222" lon="-3.771142959594727">
        <ele>393.60000000000002</ele>
        <time>2011-01-04T08:05:42Z</time>
      </trkpt>
      <trkpt lat="37.817196976393461" lon="-3.771140025928617">
        <ele>393</ele>
        <time>2011-01-04T08:05:43Z</time>
      </trkpt>
      <trkpt lat="37.817195970565081" lon="-3.771137008443475">
        <ele>392.5</ele>
        <time>2011-01-04T08:05:44Z</time>
      </trkpt>
      <trkpt lat="37.817193958908319" lon="-3.771133990958333">
        <ele>391.89999999999998</ele>
        <time>2011-01-04T08:05:45Z</time>
      </trkpt>
      <trkpt lat="37.817193036898971" lon="-3.771130973473191">
        <ele>391.39999999999998</ele>
        <time>2011-01-04T08:05:46Z</time>
      </trkpt>
      <trkpt lat="37.817193958908319" lon="-3.771128039807081">
        <ele>390.80000000000001</ele>
        <time>2011-01-04T08:05:47Z</time>
      </trkpt>
      <trkpt lat="37.817193958908319" lon="-3.77112502232194">
        <ele>390.30000000000001</ele>
        <time>2011-01-04T08:05:48Z</time>
      </trkpt>
      <trkpt lat="37.817193958908319" lon="-3.771122004836798">
        <ele>389.69999999999999</ele>
        <time>2011-01-04T08:05:49Z</time>
      </trkpt>
      <trkpt lat="37.817193958908319" lon="-3.771118987351656">
        <ele>389.30000000000001</ele>
        <time>2011-01-04T08:05:50Z</time>
      </trkpt>
      <trkpt lat="37.8171949647367" lon="-3.771116975694895">
        <ele>388.69999999999999</ele>
        <time>2011-01-04T08:05:51Z</time>
      </trkpt>
      <trkpt lat="37.817195970565081" lon="-3.771114964038134">
        <ele>388.30000000000001</ele>
        <time>2011-01-04T08:05:52Z</time>
      </trkpt>
      <trkpt lat="37.817195970565081" lon="-3.771113036200404">
        <ele>387.80000000000001</ele>
        <time>2011-01-04T08:05:53Z</time>
      </trkpt>
      <trkpt lat="37.817193958908319" lon="-3.771111024543643">
        <ele>387.19999999999999</ele>
        <time>2011-01-04T08:05:54Z</time>
      </trkpt>
      <trkpt lat="37.817193958908319" lon="-3.771108007058501">
        <ele>386.30000000000001</ele>
        <time>2011-01-04T08:05:55Z</time>
      </trkpt>
      <trkpt lat="37.817193958908319" lon="-3.77110599540174">
        <ele>385.60000000000002</ele>
        <time>2011-01-04T08:05:56Z</time>
      </trkpt>
      <trkpt lat="37.817200999706984" lon="-3.771110018715262">
        <ele>386.19999999999999</ele>
        <time>2011-01-04T08:05:57Z</time>
      </trkpt>
      <trkpt lat="37.817206028848886" lon="-3.771113958209753">
        <ele>386.5</ele>
        <time>2011-01-04T08:05:58Z</time>
      </trkpt>
      <trkpt lat="37.817210974171758" lon="-3.771116975694895">
        <ele>386.80000000000001</ele>
        <time>2011-01-04T08:05:59Z</time>
      </trkpt>
      <trkpt lat="37.81721499748528" lon="-3.771118987351656">
        <ele>387</ele>
        <time>2011-01-04T08:06:00Z</time>
      </trkpt>
      <trkpt lat="37.817211980000138" lon="-3.771117981523275">
        <ele>386.10000000000002</ele>
        <time>2011-01-04T08:06:01Z</time>
      </trkpt>
      <trkpt lat="37.817208962514997" lon="-3.771117981523275">
        <ele>385.5</ele>
        <time>2011-01-04T08:06:02Z</time>
      </trkpt>
      <trkpt lat="37.817208040505648" lon="-3.771117981523275">
        <ele>384.80000000000001</ele>
        <time>2011-01-04T08:06:03Z</time>
      </trkpt>
      <trkpt lat="37.817206028848886" lon="-3.771117981523275">
        <ele>384.30000000000001</ele>
        <time>2011-01-04T08:06:04Z</time>
      </trkpt>
      <trkpt lat="37.817206028848886" lon="-3.771116975694895">
        <ele>383.80000000000001</ele>
        <time>2011-01-04T08:06:05Z</time>
      </trkpt>
      <trkpt lat="37.817206028848886" lon="-3.771115969866514">
        <ele>383.39999999999998</ele>
        <time>2011-01-04T08:06:06Z</time>
      </trkpt>
      <trkpt lat="37.817207034677267" lon="-3.771114964038134">
        <ele>383.10000000000002</ele>
        <time>2011-01-04T08:06:07Z</time>
      </trkpt>
      <trkpt lat="37.817208040505648" lon="-3.771113958209753">
        <ele>382.80000000000001</ele>
        <time>2011-01-04T08:06:08Z</time>
      </trkpt>
      <trkpt lat="37.817208040505648" lon="-3.771113958209753">
        <ele>382.5</ele>
        <time>2011-01-04T08:06:09Z</time>
      </trkpt>
      <trkpt lat="37.817208962514997" lon="-3.771113958209753">
        <ele>382.19999999999999</ele>
        <time>2011-01-04T08:06:10Z</time>
      </trkpt>
      <trkpt lat="37.817334020510316" lon="-3.77104002982378">
        <ele>340.10000000000002</ele>
        <time>2011-01-04T08:09:13Z</time>
      </trkpt>
      <trkpt lat="37.817332008853555" lon="-3.771046986803412">
        <ele>341.89999999999998</ele>
        <time>2011-01-04T08:09:14Z</time>
      </trkpt>
      <trkpt lat="37.817331003025174" lon="-3.771054027602077">
        <ele>343.39999999999998</ele>
        <time>2011-01-04T08:09:15Z</time>
      </trkpt>
      <trkpt lat="37.817327985540032" lon="-3.771060984581709">
        <ele>345.39999999999998</ele>
        <time>2011-01-04T08:09:16Z</time>
      </trkpt>
      <trkpt lat="37.817313987761736" lon="-3.771068025380373">
        <ele>350.39999999999998</ele>
        <time>2011-01-04T08:09:17Z</time>
      </trkpt>
      <trkpt lat="37.817304013296962" lon="-3.771074982360005">
        <ele>354</ele>
        <time>2011-01-04T08:09:18Z</time>
      </trkpt>
      <trkpt lat="37.817296972498298" lon="-3.771080011501908">
        <ele>356.89999999999998</ele>
        <time>2011-01-04T08:09:19Z</time>
      </trkpt>
      <trkpt lat="37.817290015518665" lon="-3.771085040643811">
        <ele>359.39999999999998</ele>
        <time>2011-01-04T08:09:20Z</time>
      </trkpt>
      <trkpt lat="37.817290015518665" lon="-3.771088980138302">
        <ele>360.10000000000002</ele>
        <time>2011-01-04T08:09:21Z</time>
      </trkpt>
      <trkpt lat="37.817289009690285" lon="-3.771093003451824">
        <ele>360.69999999999999</ele>
        <time>2011-01-04T08:09:22Z</time>
      </trkpt>
      <trkpt lat="37.817283980548382" lon="-3.771096020936966">
        <ele>362.39999999999998</ele>
        <time>2011-01-04T08:09:23Z</time>
      </trkpt>
      <trkpt lat="37.817280041053891" lon="-3.771099960431457">
        <ele>363.89999999999998</ele>
        <time>2011-01-04T08:09:24Z</time>
      </trkpt>
      <trkpt lat="37.817277023568749" lon="-3.771102977916598">
        <ele>365.19999999999999</ele>
        <time>2011-01-04T08:09:25Z</time>
      </trkpt>
      <trkpt lat="37.817273000255227" lon="-3.77110498957336">
        <ele>366.39999999999998</ele>
        <time>2011-01-04T08:09:26Z</time>
      </trkpt>
      <trkpt lat="37.817269982770085" lon="-3.771107001230121">
        <ele>367.39999999999998</ele>
        <time>2011-01-04T08:09:27Z</time>
      </trkpt>
      <trkpt lat="37.817269982770085" lon="-3.771109012886882">
        <ele>367.69999999999999</ele>
        <time>2011-01-04T08:09:28Z</time>
      </trkpt>
      <trkpt lat="37.817266965284944" lon="-3.771110018715262">
        <ele>368.5</ele>
        <time>2011-01-04T08:09:29Z</time>
      </trkpt>
      <trkpt lat="37.817265037447214" lon="-3.771111024543643">
        <ele>369.10000000000002</ele>
        <time>2011-01-04T08:09:30Z</time>
      </trkpt>
      <trkpt lat="37.817264031618834" lon="-3.771111024543643">
        <ele>369.5</ele>
        <time>2011-01-04T08:09:31Z</time>
      </trkpt>
      <trkpt lat="37.817262019962072" lon="-3.771112030372024">
        <ele>370</ele>
        <time>2011-01-04T08:09:32Z</time>
      </trkpt>
      <trkpt lat="37.817261014133692" lon="-3.771113036200404">
        <ele>370.69999999999999</ele>
        <time>2011-01-04T08:09:33Z</time>
      </trkpt>
      <trkpt lat="37.817260008305311" lon="-3.771114964038134">
        <ele>371.30000000000001</ele>
        <time>2011-01-04T08:09:34Z</time>
      </trkpt>
      <trkpt lat="37.81725799664855" lon="-3.771115969866514">
        <ele>371.89999999999998</ele>
        <time>2011-01-04T08:09:35Z</time>
      </trkpt>
      <trkpt lat="37.817256990820169" lon="-3.771116975694895">
        <ele>372.30000000000001</ele>
        <time>2011-01-04T08:09:36Z</time>
      </trkpt>
      <trkpt lat="37.817255984991789" lon="-3.771118987351656">
        <ele>372.60000000000002</ele>
        <time>2011-01-04T08:09:37Z</time>
      </trkpt>
      <trkpt lat="37.817254979163408" lon="-3.771119993180037">
        <ele>372.89999999999998</ele>
        <time>2011-01-04T08:09:38Z</time>
      </trkpt>
      <trkpt lat="37.817254979163408" lon="-3.771122004836798">
        <ele>373.19999999999999</ele>
        <time>2011-01-04T08:09:39Z</time>
      </trkpt>
      <trkpt lat="37.817253973335028" lon="-3.771123010665178">
        <ele>373.39999999999998</ele>
        <time>2011-01-04T08:09:40Z</time>
      </trkpt>
      <trkpt lat="37.817253973335028" lon="-3.771124016493559">
        <ele>373.60000000000002</ele>
        <time>2011-01-04T08:09:41Z</time>
      </trkpt>
      <trkpt lat="37.817252967506647" lon="-3.77112502232194">
        <ele>373.69999999999999</ele>
        <time>2011-01-04T08:09:42Z</time>
      </trkpt>
      <trkpt lat="37.817252967506647" lon="-3.77112602815032">
        <ele>373.80000000000001</ele>
        <time>2011-01-04T08:09:43Z</time>
      </trkpt>
      <trkpt lat="37.817252967506647" lon="-3.771128039807081">
        <ele>373.89999999999998</ele>
        <time>2011-01-04T08:09:44Z</time>
      </trkpt>
      <trkpt lat="37.817252967506647" lon="-3.771128039807081">
        <ele>374</ele>
        <time>2011-01-04T08:09:45Z</time>
      </trkpt>
      <trkpt lat="37.817252967506647" lon="-3.77112896181643">
        <ele>374.10000000000002</ele>
        <time>2011-01-04T08:09:46Z</time>
      </trkpt>
      <trkpt lat="37.817252967506647" lon="-3.771129967644811">
        <ele>374.10000000000002</ele>
        <time>2011-01-04T08:09:47Z</time>
      </trkpt>
      <trkpt lat="37.817252967506647" lon="-3.771129967644811">
        <ele>374.19999999999999</ele>
        <time>2011-01-04T08:09:48Z</time>
      </trkpt>
      <trkpt lat="37.817252967506647" lon="-3.771130973473191">
        <ele>374.19999999999999</ele>
        <time>2011-01-04T08:09:49Z</time>
      </trkpt>
      <trkpt lat="37.817252967506647" lon="-3.771131979301572">
        <ele>374.30000000000001</ele>
        <time>2011-01-04T08:09:50Z</time>
      </trkpt>
      <trkpt lat="37.817252967506647" lon="-3.771131979301572">
        <ele>374.30000000000001</ele>
        <time>2011-01-04T08:09:51Z</time>
      </trkpt>
      <trkpt lat="37.817252967506647" lon="-3.771132985129952">
        <ele>374.30000000000001</ele>
        <time>2011-01-04T08:09:52Z</time>
      </trkpt>
      <trkpt lat="37.817252967506647" lon="-3.771132985129952">
        <ele>374.30000000000001</ele>
        <time>2011-01-04T08:09:53Z</time>
      </trkpt>
      <trkpt lat="37.817252967506647" lon="-3.771132985129952">
        <ele>374.30000000000001</ele>
        <time>2011-01-04T08:09:54Z</time>
      </trkpt>
      <trkpt lat="37.817253973335028" lon="-3.771132985129952">
        <ele>374.19999999999999</ele>
        <time>2011-01-04T08:09:55Z</time>
      </trkpt>
      <trkpt lat="37.817253973335028" lon="-3.771133990958333">
        <ele>374.19999999999999</ele>
        <time>2011-01-04T08:09:56Z</time>
      </trkpt>
      <trkpt lat="37.817253973335028" lon="-3.771133990958333">
        <ele>374.19999999999999</ele>
        <time>2011-01-04T08:09:57Z</time>
      </trkpt>
      <trkpt lat="37.817254979163408" lon="-3.771133990958333">
        <ele>374.19999999999999</ele>
        <time>2011-01-04T08:09:58Z</time>
      </trkpt>
      <trkpt lat="37.817254979163408" lon="-3.771133990958333">
        <ele>374.19999999999999</ele>
        <time>2011-01-04T08:09:59Z</time>
      </trkpt>
      <trkpt lat="37.817254979163408" lon="-3.771134996786714">
        <ele>374.30000000000001</ele>
        <time>2011-01-04T08:10:00Z</time>
      </trkpt>
      <trkpt lat="37.817254979163408" lon="-3.771134996786714">
        <ele>374.39999999999998</ele>
        <time>2011-01-04T08:10:01Z</time>
      </trkpt>
      <trkpt lat="37.817254979163408" lon="-3.771134996786714">
        <ele>374.30000000000001</ele>
        <time>2011-01-04T08:10:02Z</time>
      </trkpt>
      <trkpt lat="37.817255984991789" lon="-3.771133990958333">
        <ele>374.19999999999999</ele>
        <time>2011-01-04T08:10:03Z</time>
      </trkpt>
      <trkpt lat="37.817255984991789" lon="-3.771133990958333">
        <ele>374.10000000000002</ele>
        <time>2011-01-04T08:10:04Z</time>
      </trkpt>
      <trkpt lat="37.817256990820169" lon="-3.771133990958333">
        <ele>373.89999999999998</ele>
        <time>2011-01-04T08:10:05Z</time>
      </trkpt>
      <trkpt lat="37.817256990820169" lon="-3.771133990958333">
        <ele>373.80000000000001</ele>
        <time>2011-01-04T08:10:06Z</time>
      </trkpt>
      <trkpt lat="37.817256990820169" lon="-3.771133990958333">
        <ele>373.80000000000001</ele>
        <time>2011-01-04T08:10:07Z</time>
      </trkpt>
      <trkpt lat="37.817256990820169" lon="-3.771132985129952">
        <ele>373.69999999999999</ele>
        <time>2011-01-04T08:10:08Z</time>
      </trkpt>
      <trkpt lat="37.81725799664855" lon="-3.771132985129952">
        <ele>373.69999999999999</ele>
        <time>2011-01-04T08:10:09Z</time>
      </trkpt>
      <trkpt lat="37.81725799664855" lon="-3.771132985129952">
        <ele>373.69999999999999</ele>
        <time>2011-01-04T08:10:10Z</time>
      </trkpt>
      <trkpt lat="37.81725799664855" lon="-3.771132985129952">
        <ele>373.60000000000002</ele>
        <time>2011-01-04T08:10:11Z</time>
      </trkpt>
      <trkpt lat="37.81725799664855" lon="-3.771132985129952">
        <ele>373.60000000000002</ele>
        <time>2011-01-04T08:10:12Z</time>
      </trkpt>
      <trkpt lat="37.81725799664855" lon="-3.771133990958333">
        <ele>373.69999999999999</ele>
        <time>2011-01-04T08:10:13Z</time>
      </trkpt>
      <trkpt lat="37.81725799664855" lon="-3.771133990958333">
        <ele>373.69999999999999</ele>
        <time>2011-01-04T08:10:14Z</time>
      </trkpt>
      <trkpt lat="37.81725799664855" lon="-3.771133990958333">
        <ele>373.80000000000001</ele>
        <time>2011-01-04T08:10:15Z</time>
      </trkpt>
      <trkpt lat="37.817256990820169" lon="-3.771133990958333">
        <ele>373.89999999999998</ele>
        <time>2011-01-04T08:10:16Z</time>
      </trkpt>
      <trkpt lat="37.817256990820169" lon="-3.771134996786714">
        <ele>374</ele>
        <time>2011-01-04T08:10:17Z</time>
      </trkpt>
      <trkpt lat="37.817256990820169" lon="-3.771134996786714">
        <ele>374</ele>
        <time>2011-01-04T08:10:18Z</time>
      </trkpt>
      <trkpt lat="37.81725799664855" lon="-3.771133990958333">
        <ele>374</ele>
        <time>2011-01-04T08:10:19Z</time>
      </trkpt>
      <trkpt lat="37.81725799664855" lon="-3.771133990958333">
        <ele>374</ele>
        <time>2011-01-04T08:10:20Z</time>
      </trkpt>
      <trkpt lat="37.817259002476931" lon="-3.771133990958333">
        <ele>374</ele>
        <time>2011-01-04T08:10:21Z</time>
      </trkpt>
      <trkpt lat="37.817259002476931" lon="-3.771133990958333">
        <ele>374.10000000000002</ele>
        <time>2011-01-04T08:10:22Z</time>
      </trkpt>
      <trkpt lat="37.817260008305311" lon="-3.771132985129952">
        <ele>374.10000000000002</ele>
        <time>2011-01-04T08:10:23Z</time>
      </trkpt>
      <trkpt lat="37.817260008305311" lon="-3.771132985129952">
        <ele>374.10000000000002</ele>
        <time>2011-01-04T08:10:24Z</time>
      </trkpt>
      <trkpt lat="37.817260008305311" lon="-3.771132985129952">
        <ele>374.10000000000002</ele>
        <time>2011-01-04T08:10:25Z</time>
      </trkpt>
      <trkpt lat="37.817260008305311" lon="-3.771132985129952">
        <ele>374.19999999999999</ele>
        <time>2011-01-04T08:10:26Z</time>
      </trkpt>
      <trkpt lat="37.817247016355395" lon="-3.771131979301572">
        <ele>376.69999999999999</ele>
        <time>2011-01-04T08:10:41Z</time>
      </trkpt>
      <trkpt lat="37.817246010527015" lon="-3.771130973473191">
        <ele>377</ele>
        <time>2011-01-04T08:10:42Z</time>
      </trkpt>
      <trkpt lat="37.817245004698634" lon="-3.77112896181643">
        <ele>377.39999999999998</ele>
        <time>2011-01-04T08:10:43Z</time>
      </trkpt>
      <trkpt lat="37.817243998870254" lon="-3.771128039807081">
        <ele>377.5</ele>
        <time>2011-01-04T08:10:44Z</time>
      </trkpt>
      <trkpt lat="37.817242993041873" lon="-3.771127033978701">
        <ele>377.80000000000001</ele>
        <time>2011-01-04T08:10:45Z</time>
      </trkpt>
      <trkpt lat="37.817242993041873" lon="-3.771127033978701">
        <ele>377.80000000000001</ele>
        <time>2011-01-04T08:10:46Z</time>
      </trkpt>
      <trkpt lat="37.817242993041873" lon="-3.771128039807081">
        <ele>377.80000000000001</ele>
        <time>2011-01-04T08:10:47Z</time>
      </trkpt>
      <trkpt lat="37.817243998870254" lon="-3.771128039807081">
        <ele>377.69999999999999</ele>
        <time>2011-01-04T08:10:48Z</time>
      </trkpt>
      <trkpt lat="37.817240981385112" lon="-3.77112602815032">
        <ele>378.39999999999998</ele>
        <time>2011-01-04T08:10:49Z</time>
      </trkpt>
      <trkpt lat="37.817238969728351" lon="-3.771128039807081">
        <ele>378.60000000000002</ele>
        <time>2011-01-04T08:10:50Z</time>
      </trkpt>
      <trkpt lat="37.817234024405479" lon="-3.771127033978701">
        <ele>379.39999999999998</ele>
        <time>2011-01-04T08:10:51Z</time>
      </trkpt>
      <trkpt lat="37.817210974171758" lon="-3.771108007058501">
        <ele>382.30000000000001</ele>
        <time>2011-01-04T08:10:54Z</time>
      </trkpt>
      <trkpt lat="37.817203011363745" lon="-3.771102977916598">
        <ele>383.39999999999998</ele>
        <time>2011-01-04T08:10:55Z</time>
      </trkpt>
      <trkpt lat="37.817193958908319" lon="-3.771099038422108">
        <ele>384.30000000000001</ele>
        <time>2011-01-04T08:10:56Z</time>
      </trkpt>
      <trkpt lat="37.817187001928687" lon="-3.771095015108585">
        <ele>385.19999999999999</ele>
        <time>2011-01-04T08:10:57Z</time>
      </trkpt>
      <trkpt lat="37.817182978615165" lon="-3.771090991795063">
        <ele>385.80000000000001</ele>
        <time>2011-01-04T08:10:58Z</time>
      </trkpt>
      <trkpt lat="37.817178033292294" lon="-3.771088980138302">
        <ele>386.5</ele>
        <time>2011-01-04T08:10:59Z</time>
      </trkpt>
      <trkpt lat="37.817173004150391" lon="-3.771087974309921">
        <ele>386.89999999999998</ele>
        <time>2011-01-04T08:11:00Z</time>
      </trkpt>
      <trkpt lat="37.817167975008488" lon="-3.771086968481541">
        <ele>387</ele>
        <time>2011-01-04T08:11:01Z</time>
      </trkpt>
      <trkpt lat="37.817164035513997" lon="-3.771086968481541">
        <ele>387.19999999999999</ele>
        <time>2011-01-04T08:11:02Z</time>
      </trkpt>
      <trkpt lat="37.817161018028855" lon="-3.77108596265316">
        <ele>387.19999999999999</ele>
        <time>2011-01-04T08:11:03Z</time>
      </trkpt>
      <trkpt lat="37.817160012200475" lon="-3.771085040643811">
        <ele>387.10000000000002</ele>
        <time>2011-01-04T08:11:04Z</time>
      </trkpt>
      <trkpt lat="37.817158000543714" lon="-3.771085040643811">
        <ele>387</ele>
        <time>2011-01-04T08:11:05Z</time>
      </trkpt>
      <trkpt lat="37.817155988886952" lon="-3.771085040643811">
        <ele>386.89999999999998</ele>
        <time>2011-01-04T08:11:06Z</time>
      </trkpt>
      <trkpt lat="37.817154983058572" lon="-3.771084034815431">
        <ele>387</ele>
        <time>2011-01-04T08:11:07Z</time>
      </trkpt>
      <trkpt lat="37.817152971401811" lon="-3.771084034815431">
        <ele>387</ele>
        <time>2011-01-04T08:11:08Z</time>
      </trkpt>
      <trkpt lat="37.81715196557343" lon="-3.77108302898705">
        <ele>386.80000000000001</ele>
        <time>2011-01-04T08:11:09Z</time>
      </trkpt>
      <trkpt lat="37.817150959745049" lon="-3.77108302898705">
        <ele>386.60000000000002</ele>
        <time>2011-01-04T08:11:10Z</time>
      </trkpt>
      <trkpt lat="37.817150959745049" lon="-3.77108202315867">
        <ele>386.19999999999999</ele>
        <time>2011-01-04T08:11:11Z</time>
      </trkpt>
      <trkpt lat="37.817150959745049" lon="-3.771081017330289">
        <ele>386</ele>
        <time>2011-01-04T08:11:12Z</time>
      </trkpt>
      <trkpt lat="37.817150959745049" lon="-3.771079005673528">
        <ele>386</ele>
        <time>2011-01-04T08:11:13Z</time>
      </trkpt>
      <trkpt lat="37.817150959745049" lon="-3.771079005673528">
        <ele>385.80000000000001</ele>
        <time>2011-01-04T08:11:14Z</time>
      </trkpt>
      <trkpt lat="37.817150959745049" lon="-3.771077999845147">
        <ele>385.80000000000001</ele>
        <time>2011-01-04T08:11:15Z</time>
      </trkpt>
      <trkpt lat="37.817150037735701" lon="-3.771079005673528">
        <ele>385.60000000000002</ele>
        <time>2011-01-04T08:11:16Z</time>
      </trkpt>
      <trkpt lat="37.817148026078939" lon="-3.771079005673528">
        <ele>385.30000000000001</ele>
        <time>2011-01-04T08:11:17Z</time>
      </trkpt>
      <trkpt lat="37.817146014422178" lon="-3.771080011501908">
        <ele>385.30000000000001</ele>
        <time>2011-01-04T08:11:18Z</time>
      </trkpt>
      <trkpt lat="37.817146014422178" lon="-3.771080011501908">
        <ele>385.30000000000001</ele>
        <time>2011-01-04T08:11:19Z</time>
      </trkpt>
      <trkpt lat="37.817146014422178" lon="-3.771080011501908">
        <ele>385.30000000000001</ele>
        <time>2011-01-04T08:11:20Z</time>
      </trkpt>
      <trkpt lat="37.817164035513997" lon="-3.771109012886882">
        <ele>374.60000000000002</ele>
        <time>2011-01-04T08:11:44Z</time>
      </trkpt>
      <trkpt lat="37.817165963351727" lon="-3.771110018715262">
        <ele>374.39999999999998</ele>
        <time>2011-01-04T08:11:45Z</time>
      </trkpt>
      <trkpt lat="37.817168980836868" lon="-3.771110018715262">
        <ele>374</ele>
        <time>2011-01-04T08:11:46Z</time>
      </trkpt>
      <trkpt lat="37.817169986665249" lon="-3.771111024543643">
        <ele>373.89999999999998</ele>
        <time>2011-01-04T08:11:47Z</time>
      </trkpt>
      <trkpt lat="37.817170992493629" lon="-3.771112030372024">
        <ele>373.69999999999999</ele>
        <time>2011-01-04T08:11:48Z</time>
      </trkpt>
      <trkpt lat="37.817170992493629" lon="-3.771112030372024">
        <ele>373.39999999999998</ele>
        <time>2011-01-04T08:11:49Z</time>
      </trkpt>
      <trkpt lat="37.81717199832201" lon="-3.771113036200404">
        <ele>373.19999999999999</ele>
        <time>2011-01-04T08:11:50Z</time>
      </trkpt>
      <trkpt lat="37.817173004150391" lon="-3.771113036200404">
        <ele>373.10000000000002</ele>
        <time>2011-01-04T08:11:51Z</time>
      </trkpt>
      <trkpt lat="37.817174009978771" lon="-3.771113036200404">
        <ele>373</ele>
        <time>2011-01-04T08:11:52Z</time>
      </trkpt>
      <trkpt lat="37.817175015807152" lon="-3.771113958209753">
        <ele>372.89999999999998</ele>
        <time>2011-01-04T08:11:53Z</time>
      </trkpt>
      <trkpt lat="37.817177027463913" lon="-3.771113958209753">
        <ele>372.69999999999999</ele>
        <time>2011-01-04T08:11:54Z</time>
      </trkpt>
      <trkpt lat="37.817178033292294" lon="-3.771113036200404">
        <ele>372.5</ele>
        <time>2011-01-04T08:11:55Z</time>
      </trkpt>
      <trkpt lat="37.817179039120674" lon="-3.771113036200404">
        <ele>372.39999999999998</ele>
        <time>2011-01-04T08:11:56Z</time>
      </trkpt>
      <trkpt lat="37.817180966958404" lon="-3.771113036200404">
        <ele>372.19999999999999</ele>
        <time>2011-01-04T08:11:57Z</time>
      </trkpt>
      <trkpt lat="37.817181972786784" lon="-3.771113958209753">
        <ele>372.10000000000002</ele>
        <time>2011-01-04T08:11:58Z</time>
      </trkpt>
      <trkpt lat="37.817180966958404" lon="-3.771114964038134">
        <ele>372</ele>
        <time>2011-01-04T08:11:59Z</time>
      </trkpt>
      <trkpt lat="37.817179039120674" lon="-3.771116975694895">
        <ele>372.10000000000002</ele>
        <time>2011-01-04T08:12:00Z</time>
      </trkpt>
      <trkpt lat="37.817178033292294" lon="-3.771118987351656">
        <ele>372.10000000000002</ele>
        <time>2011-01-04T08:12:01Z</time>
      </trkpt>
      <trkpt lat="37.817177027463913" lon="-3.771120999008417">
        <ele>372.19999999999999</ele>
        <time>2011-01-04T08:12:02Z</time>
      </trkpt>
      <trkpt lat="37.817176021635532" lon="-3.771123010665178">
        <ele>372.19999999999999</ele>
        <time>2011-01-04T08:12:03Z</time>
      </trkpt>
      <trkpt lat="37.817177027463913" lon="-3.771123010665178">
        <ele>372.10000000000002</ele>
        <time>2011-01-04T08:12:04Z</time>
      </trkpt>
      <trkpt lat="37.817176021635532" lon="-3.77112502232194">
        <ele>372.10000000000002</ele>
        <time>2011-01-04T08:12:05Z</time>
      </trkpt>
      <trkpt lat="37.817175015807152" lon="-3.77112602815032">
        <ele>372</ele>
        <time>2011-01-04T08:12:06Z</time>
      </trkpt>
      <trkpt lat="37.817175015807152" lon="-3.771127033978701">
        <ele>372.10000000000002</ele>
        <time>2011-01-04T08:12:07Z</time>
      </trkpt>
      <trkpt lat="37.817175015807152" lon="-3.771128039807081">
        <ele>372.10000000000002</ele>
        <time>2011-01-04T08:12:08Z</time>
      </trkpt>
      <trkpt lat="37.817176021635532" lon="-3.771128039807081">
        <ele>372.10000000000002</ele>
        <time>2011-01-04T08:12:09Z</time>
      </trkpt>
      <trkpt lat="37.817176021635532" lon="-3.771128039807081">
        <ele>372.10000000000002</ele>
        <time>2011-01-04T08:12:10Z</time>
      </trkpt>
      <trkpt lat="37.817177027463913" lon="-3.771128039807081">
        <ele>372</ele>
        <time>2011-01-04T08:12:11Z</time>
      </trkpt>
      <trkpt lat="37.817179961130023" lon="-3.771127033978701">
        <ele>371.80000000000001</ele>
        <time>2011-01-04T08:12:12Z</time>
      </trkpt>
      <trkpt lat="37.817181972786784" lon="-3.77112602815032">
        <ele>371.5</ele>
        <time>2011-01-04T08:12:13Z</time>
      </trkpt>
      <trkpt lat="37.817182978615165" lon="-3.77112602815032">
        <ele>371.39999999999998</ele>
        <time>2011-01-04T08:12:14Z</time>
      </trkpt>
      <trkpt lat="37.817184990271926" lon="-3.77112502232194">
        <ele>371.19999999999999</ele>
        <time>2011-01-04T08:12:15Z</time>
      </trkpt>
      <trkpt lat="37.817185996100307" lon="-3.77112502232194">
        <ele>371.10000000000002</ele>
        <time>2011-01-04T08:12:16Z</time>
      </trkpt>
      <trkpt lat="37.817187001928687" lon="-3.77112502232194">
        <ele>370.89999999999998</ele>
        <time>2011-01-04T08:12:17Z</time>
      </trkpt>
      <trkpt lat="37.817187001928687" lon="-3.77112502232194">
        <ele>370.89999999999998</ele>
        <time>2011-01-04T08:12:18Z</time>
      </trkpt>
      <trkpt lat="37.817187001928687" lon="-3.77112602815032">
        <ele>370.69999999999999</ele>
        <time>2011-01-04T08:12:19Z</time>
      </trkpt>
      <trkpt lat="37.817188007757068" lon="-3.77112502232194">
        <ele>370.69999999999999</ele>
        <time>2011-01-04T08:12:20Z</time>
      </trkpt>
      <trkpt lat="37.817189013585448" lon="-3.77112502232194">
        <ele>370.5</ele>
        <time>2011-01-04T08:12:21Z</time>
      </trkpt>
      <trkpt lat="37.817189013585448" lon="-3.77112502232194">
        <ele>370.39999999999998</ele>
        <time>2011-01-04T08:12:22Z</time>
      </trkpt>
      <trkpt lat="37.817189013585448" lon="-3.77112502232194">
        <ele>370.39999999999998</ele>
        <time>2011-01-04T08:12:23Z</time>
      </trkpt>
      <trkpt lat="37.817190019413829" lon="-3.77112602815032">
        <ele>370.5</ele>
        <time>2011-01-04T08:12:24Z</time>
      </trkpt>
      <trkpt lat="37.817191025242209" lon="-3.77112602815032">
        <ele>370.60000000000002</ele>
        <time>2011-01-04T08:12:25Z</time>
      </trkpt>
      <trkpt lat="37.817191025242209" lon="-3.77112602815032">
        <ele>370.69999999999999</ele>
        <time>2011-01-04T08:12:26Z</time>
      </trkpt>
      <trkpt lat="37.81719203107059" lon="-3.77112602815032">
        <ele>370.60000000000002</ele>
        <time>2011-01-04T08:12:27Z</time>
      </trkpt>
      <trkpt lat="37.81719203107059" lon="-3.77112602815032">
        <ele>370.60000000000002</ele>
        <time>2011-01-04T08:12:28Z</time>
      </trkpt>
      <trkpt lat="37.817193036898971" lon="-3.771127033978701">
        <ele>370.60000000000002</ele>
        <time>2011-01-04T08:12:29Z</time>
      </trkpt>
      <trkpt lat="37.817193036898971" lon="-3.771127033978701">
        <ele>370.60000000000002</ele>
        <time>2011-01-04T08:12:30Z</time>
      </trkpt>
      <trkpt lat="37.817193036898971" lon="-3.771127033978701">
        <ele>370.69999999999999</ele>
        <time>2011-01-04T08:12:31Z</time>
      </trkpt>
      <trkpt lat="37.817193958908319" lon="-3.771127033978701">
        <ele>370.89999999999998</ele>
        <time>2011-01-04T08:12:32Z</time>
      </trkpt>
      <trkpt lat="37.817193958908319" lon="-3.771128039807081">
        <ele>371.10000000000002</ele>
        <time>2011-01-04T08:12:33Z</time>
      </trkpt>
      <trkpt lat="37.817193958908319" lon="-3.771128039807081">
        <ele>371.30000000000001</ele>
        <time>2011-01-04T08:12:34Z</time>
      </trkpt>
      <trkpt lat="37.817193958908319" lon="-3.77112896181643">
        <ele>371.30000000000001</ele>
        <time>2011-01-04T08:12:35Z</time>
      </trkpt>
      <trkpt lat="37.817193958908319" lon="-3.77112896181643">
        <ele>371.39999999999998</ele>
        <time>2011-01-04T08:12:36Z</time>
      </trkpt>
      <trkpt lat="37.817193958908319" lon="-3.771129967644811">
        <ele>371.60000000000002</ele>
        <time>2011-01-04T08:12:37Z</time>
      </trkpt>
      <trkpt lat="37.817193958908319" lon="-3.771129967644811">
        <ele>371.69999999999999</ele>
        <time>2011-01-04T08:12:38Z</time>
      </trkpt>
      <trkpt lat="37.817193958908319" lon="-3.771129967644811">
        <ele>371.69999999999999</ele>
        <time>2011-01-04T08:12:39Z</time>
      </trkpt>
      <trkpt lat="37.817193958908319" lon="-3.771130973473191">
        <ele>371.80000000000001</ele>
        <time>2011-01-04T08:12:40Z</time>
      </trkpt>
      <trkpt lat="37.817193958908319" lon="-3.771131979301572">
        <ele>372</ele>
        <time>2011-01-04T08:12:41Z</time>
      </trkpt>
      <trkpt lat="37.817193958908319" lon="-3.771131979301572">
        <ele>372</ele>
        <time>2011-01-04T08:12:42Z</time>
      </trkpt>
      <trkpt lat="37.817193036898971" lon="-3.771132985129952">
        <ele>372.19999999999999</ele>
        <time>2011-01-04T08:12:43Z</time>
      </trkpt>
      <trkpt lat="37.817145008593798" lon="-3.771186964586377">
        <ele>388.39999999999998</ele>
        <time>2011-01-04T08:14:16Z</time>
      </trkpt>
      <trkpt lat="37.817147020250559" lon="-3.771184030920267">
        <ele>388.80000000000001</ele>
        <time>2011-01-04T08:14:17Z</time>
      </trkpt>
      <trkpt lat="37.81715196557343" lon="-3.771181013435125">
        <ele>389</ele>
        <time>2011-01-04T08:14:18Z</time>
      </trkpt>
      <trkpt lat="37.817160012200475" lon="-3.771179001778364">
        <ele>389.30000000000001</ele>
        <time>2011-01-04T08:14:19Z</time>
      </trkpt>
      <trkpt lat="37.817175015807152" lon="-3.771181013435125">
        <ele>390</ele>
        <time>2011-01-04T08:14:20Z</time>
      </trkpt>
      <trkpt lat="37.817190019413829" lon="-3.771189982071519">
        <ele>393.5</ele>
        <time>2011-01-04T08:14:21Z</time>
      </trkpt>
      <trkpt lat="37.817225977778435" lon="-3.771195011213422">
        <ele>392.10000000000002</ele>
        <time>2011-01-04T08:14:22Z</time>
      </trkpt>
      <trkpt lat="37.817254979163408" lon="-3.771218983456492">
        <ele>390.60000000000002</ele>
        <time>2011-01-04T08:14:23Z</time>
      </trkpt>
      <trkpt lat="37.817277023568749" lon="-3.771252008154988">
        <ele>389.39999999999998</ele>
        <time>2011-01-04T08:14:24Z</time>
      </trkpt>
      <trkpt lat="37.817294960841537" lon="-3.771290984004736">
        <ele>389.10000000000002</ele>
        <time>2011-01-04T08:14:25Z</time>
      </trkpt>
      <trkpt lat="37.817308036610484" lon="-3.771335994824767">
        <ele>389.19999999999999</ele>
        <time>2011-01-04T08:14:26Z</time>
      </trkpt>
      <trkpt lat="37.817312981933355" lon="-3.771386034786701">
        <ele>389.39999999999998</ele>
        <time>2011-01-04T08:14:27Z</time>
      </trkpt>
      <trkpt lat="37.817304013296962" lon="-3.771434985101223">
        <ele>389.69999999999999</ele>
        <time>2011-01-04T08:14:28Z</time>
      </trkpt>
      <trkpt lat="37.817282974720001" lon="-3.771477984264493">
        <ele>390.19999999999999</ele>
        <time>2011-01-04T08:14:29Z</time>
      </trkpt>
      <trkpt lat="37.817251039668918" lon="-3.77151302061975">
        <ele>391.39999999999998</ele>
        <time>2011-01-04T08:14:30Z</time>
      </trkpt>
      <trkpt lat="37.817212985828519" lon="-3.771536992862821">
        <ele>392.69999999999999</ele>
        <time>2011-01-04T08:14:31Z</time>
      </trkpt>
      <trkpt lat="37.817169986665249" lon="-3.771548978984356">
        <ele>393.60000000000002</ele>
        <time>2011-01-04T08:14:32Z</time>
      </trkpt>
      <trkpt lat="37.817124975845218" lon="-3.771554008126259">
        <ele>394.5</ele>
        <time>2011-01-04T08:14:33Z</time>
      </trkpt>
      <trkpt lat="37.816780982539058" lon="-3.771600024774671">
        <ele>398.89999999999998</ele>
        <time>2011-01-04T08:14:40Z</time>
      </trkpt>
      <trkpt lat="37.816719962283969" lon="-3.771617962047458">
        <ele>399.5</ele>
        <time>2011-01-04T08:14:41Z</time>
      </trkpt>
      <trkpt lat="37.816659025847912" lon="-3.771646963432431">
        <ele>400.10000000000002</ele>
        <time>2011-01-04T08:14:42Z</time>
      </trkpt>
      <trkpt lat="37.816603034734726" lon="-3.771691974252462">
        <ele>400.60000000000002</ele>
        <time>2011-01-04T08:14:43Z</time>
      </trkpt>
      <trkpt lat="37.816552994772792" lon="-3.771756011992693">
        <ele>400.80000000000001</ele>
        <time>2011-01-04T08:14:44Z</time>
      </trkpt>
      <trkpt lat="37.816515024751425" lon="-3.771833041682839">
        <ele>401</ele>
        <time>2011-01-04T08:14:45Z</time>
      </trkpt>
      <trkpt lat="37.816490968689322" lon="-3.771916022524238">
        <ele>401.30000000000001</ele>
        <time>2011-01-04T08:14:46Z</time>
      </trkpt>
      <trkpt lat="37.816479988396168" lon="-3.772007972002029">
        <ele>401.5</ele>
        <time>2011-01-04T08:14:47Z</time>
      </trkpt>
      <trkpt lat="37.816465990617871" lon="-3.772212993353605">
        <ele>401.69999999999999</ele>
        <time>2011-01-04T08:14:49Z</time>
      </trkpt>
      <trkpt lat="37.816445035859942" lon="-3.772321036085486">
        <ele>401.89999999999998</ele>
        <time>2011-01-04T08:14:50Z</time>
      </trkpt>
      <trkpt lat="37.816405976191163" lon="-3.772423965856433">
        <ele>402.19999999999999</ele>
        <time>2011-01-04T08:14:51Z</time>
      </trkpt>
      <trkpt lat="37.816347973421216" lon="-3.772509964182973">
        <ele>402.39999999999998</ele>
        <time>2011-01-04T08:14:52Z</time>
      </trkpt>
      <trkpt lat="37.816273961216211" lon="-3.772574001923204">
        <ele>402.69999999999999</ele>
        <time>2011-01-04T08:14:53Z</time>
      </trkpt>
      <trkpt lat="37.816188968718052" lon="-3.772607026621699">
        <ele>402.89999999999998</ele>
        <time>2011-01-04T08:14:54Z</time>
      </trkpt>
      <trkpt lat="37.816100958734751" lon="-3.77260803245008">
        <ele>403</ele>
        <time>2011-01-04T08:14:55Z</time>
      </trkpt>
      <trkpt lat="37.816016972064972" lon="-3.772580036893487">
        <ele>403.10000000000002</ele>
        <time>2011-01-04T08:14:56Z</time>
      </trkpt>
      <trkpt lat="37.815941032022238" lon="-3.772523961961269">
        <ele>403.19999999999999</ele>
        <time>2011-01-04T08:14:57Z</time>
      </trkpt>
      <trkpt lat="37.815879005938768" lon="-3.772445004433394">
        <ele>403.19999999999999</ele>
        <time>2011-01-04T08:14:58Z</time>
      </trkpt>
      <trkpt lat="37.815832989290357" lon="-3.772350959479809">
        <ele>403.10000000000002</ele>
        <time>2011-01-04T08:14:59Z</time>
      </trkpt>
      <trkpt lat="37.81579501926899" lon="-3.772261021658778">
        <ele>403.10000000000002</ele>
        <time>2011-01-04T08:15:00Z</time>
      </trkpt>
      <trkpt lat="37.81575595960021" lon="-3.772189021110535">
        <ele>403.19999999999999</ele>
        <time>2011-01-04T08:15:01Z</time>
      </trkpt>
      <trkpt lat="37.81570902094245" lon="-3.77213504165411">
        <ele>403.39999999999998</ele>
        <time>2011-01-04T08:15:02Z</time>
      </trkpt>
      <trkpt lat="37.815655041486025" lon="-3.772090030834079">
        <ele>403.69999999999999</ele>
        <time>2011-01-04T08:15:03Z</time>
      </trkpt>
      <trkpt lat="37.815592009574175" lon="-3.772048037499189">
        <ele>404</ele>
        <time>2011-01-04T08:15:04Z</time>
      </trkpt>
      <trkpt lat="37.81551799736917" lon="-3.772006966173649">
        <ele>404.30000000000001</ele>
        <time>2011-01-04T08:15:05Z</time>
      </trkpt>
      <trkpt lat="37.815343989059329" lon="-3.771935971453786">
        <ele>405</ele>
        <time>2011-01-04T08:15:07Z</time>
      </trkpt>
      <trkpt lat="37.814638987183571" lon="-3.771717958152294">
        <ele>406.19999999999999</ele>
        <time>2011-01-04T08:15:14Z</time>
      </trkpt>
      <trkpt lat="37.814538991078734" lon="-3.771693985909224">
        <ele>406.19999999999999</ele>
        <time>2011-01-04T08:15:15Z</time>
      </trkpt>
      <trkpt lat="37.814437989145517" lon="-3.771679988130927">
        <ele>406.19999999999999</ele>
        <time>2011-01-04T08:15:16Z</time>
      </trkpt>
      <trkpt lat="37.814340004697442" lon="-3.771677976474166">
        <ele>406.19999999999999</ele>
        <time>2011-01-04T08:15:17Z</time>
      </trkpt>
      <trkpt lat="37.814245959743857" lon="-3.771688034757972">
        <ele>406.10000000000002</ele>
        <time>2011-01-04T08:15:18Z</time>
      </trkpt>
      <trkpt lat="37.814156021922827" lon="-3.771712007001042">
        <ele>406</ele>
        <time>2011-01-04T08:15:19Z</time>
      </trkpt>
      <trkpt lat="37.814067006111145" lon="-3.771748971194029">
        <ele>406</ele>
        <time>2011-01-04T08:15:20Z</time>
      </trkpt>
      <trkpt lat="37.813982013612986" lon="-3.771800016984344">
        <ele>405.80000000000001</ele>
        <time>2011-01-04T08:15:21Z</time>
      </trkpt>
      <trkpt lat="37.813898026943207" lon="-3.771864976733923">
        <ele>405.5</ele>
        <time>2011-01-04T08:15:22Z</time>
      </trkpt>
      <trkpt lat="37.813815968111157" lon="-3.771942006424069">
        <ele>405.10000000000002</ele>
        <time>2011-01-04T08:15:23Z</time>
      </trkpt>
      <trkpt lat="37.813739022240043" lon="-3.772028004750609">
        <ele>404.69999999999999</ele>
        <time>2011-01-04T08:15:24Z</time>
      </trkpt>
      <trkpt lat="37.813672972843051" lon="-3.772120038047433">
        <ele>404.30000000000001</ele>
        <time>2011-01-04T08:15:25Z</time>
      </trkpt>
      <trkpt lat="37.813617987558246" lon="-3.77222103998065">
        <ele>403.80000000000001</ele>
        <time>2011-01-04T08:15:26Z</time>
      </trkpt>
      <trkpt lat="37.813574988394976" lon="-3.772326987236738">
        <ele>403.5</ele>
        <time>2011-01-04T08:15:27Z</time>
      </trkpt>
      <trkpt lat="37.813546992838383" lon="-3.772437041625381">
        <ele>403.10000000000002</ele>
        <time>2011-01-04T08:15:28Z</time>
      </trkpt>
      <trkpt lat="37.813537018373609" lon="-3.772548018023372">
        <ele>402.80000000000001</ele>
        <time>2011-01-04T08:15:29Z</time>
      </trkpt>
      <trkpt lat="37.813544981181622" lon="-3.772655976936221">
        <ele>402.10000000000002</ele>
        <time>2011-01-04T08:15:30Z</time>
      </trkpt>
      <trkpt lat="37.813573982566595" lon="-3.772753961384296">
        <ele>401.69999999999999</ele>
        <time>2011-01-04T08:15:31Z</time>
      </trkpt>
      <trkpt lat="37.813621005043387" lon="-3.772835014387965">
        <ele>401.10000000000002</ele>
        <time>2011-01-04T08:15:32Z</time>
      </trkpt>
      <trkpt lat="37.813684958964586" lon="-3.772887988016009">
        <ele>400.60000000000002</ele>
        <time>2011-01-04T08:15:33Z</time>
      </trkpt>
      <trkpt lat="37.813758971169591" lon="-3.772915983572602">
        <ele>399.89999999999998</ele>
        <time>2011-01-04T08:15:34Z</time>
      </trkpt>
      <trkpt lat="37.813842035830021" lon="-3.772917995229363">
        <ele>399.39999999999998</ele>
        <time>2011-01-04T08:15:35Z</time>
      </trkpt>
      <trkpt lat="37.81392996199429" lon="-3.77288899384439">
        <ele>398.80000000000001</ele>
        <time>2011-01-04T08:15:36Z</time>
      </trkpt>
      <trkpt lat="37.814017971977592" lon="-3.772829985246062">
        <ele>398.5</ele>
        <time>2011-01-04T08:15:37Z</time>
      </trkpt>
      <trkpt lat="37.814106987789273" lon="-3.772748010233045">
        <ele>398.10000000000002</ele>
        <time>2011-01-04T08:15:38Z</time>
      </trkpt>
      <trkpt lat="37.814301028847694" lon="-3.772536031901836">
        <ele>397.30000000000001</ele>
        <time>2011-01-04T08:15:40Z</time>
      </trkpt>
      <trkpt lat="37.814506972208619" lon="-3.772264961153269">
        <ele>396.69999999999999</ele>
        <time>2011-01-04T08:15:42Z</time>
      </trkpt>
      <trkpt lat="37.814705036580563" lon="-3.771950975060463">
        <ele>395.5</ele>
        <time>2011-01-04T08:15:44Z</time>
      </trkpt>
      <trkpt lat="37.815194958820939" lon="-3.770990995690227">
        <ele>394</ele>
        <time>2011-01-04T08:15:49Z</time>
      </trkpt>
      <trkpt lat="37.815743973478675" lon="-3.769702026620507">
        <ele>392.69999999999999</ele>
        <time>2011-01-04T08:15:55Z</time>
      </trkpt>
      <trkpt lat="37.815819997340441" lon="-3.769492981955409">
        <ele>392.60000000000002</ele>
        <time>2011-01-04T08:15:56Z</time>
      </trkpt>
      <trkpt lat="37.815883029252291" lon="-3.769283015280962">
        <ele>392.60000000000002</ele>
        <time>2011-01-04T08:15:57Z</time>
      </trkpt>
      <trkpt lat="37.815934997051954" lon="-3.769067013636231">
        <ele>392.80000000000001</ele>
        <time>2011-01-04T08:15:58Z</time>
      </trkpt>
      <trkpt lat="37.815971961244941" lon="-3.768844977021217">
        <ele>392.89999999999998</ele>
        <time>2011-01-04T08:15:59Z</time>
      </trkpt>
      <trkpt lat="37.815991993993521" lon="-3.76861497759819">
        <ele>393</ele>
        <time>2011-01-04T08:16:00Z</time>
      </trkpt>
      <trkpt lat="37.815991993993521" lon="-3.768380032852292">
        <ele>392.69999999999999</ele>
        <time>2011-01-04T08:16:01Z</time>
      </trkpt>
      <trkpt lat="37.815972967073321" lon="-3.76814198680222">
        <ele>392.5</ele>
        <time>2011-01-04T08:16:02Z</time>
      </trkpt>
      <trkpt lat="37.815934997051954" lon="-3.76790402457118">
        <ele>392.39999999999998</ele>
        <time>2011-01-04T08:16:03Z</time>
      </trkpt>
      <trkpt lat="37.815872970968485" lon="-3.767671007663012">
        <ele>392.30000000000001</ele>
        <time>2011-01-04T08:16:04Z</time>
      </trkpt>
      <trkpt lat="37.81538899987936" lon="-3.766302997246385">
        <ele>394.80000000000001</ele>
        <time>2011-01-04T08:16:10Z</time>
      </trkpt>
      <trkpt lat="37.815348012372851" lon="-3.766064029186964">
        <ele>394.89999999999998</ele>
        <time>2011-01-04T08:16:11Z</time>
      </trkpt>
      <trkpt lat="37.815327979624271" lon="-3.765824977308512">
        <ele>395.19999999999999</ele>
        <time>2011-01-04T08:16:12Z</time>
      </trkpt>
      <trkpt lat="37.815328985452652" lon="-3.765590032562614">
        <ele>395.30000000000001</ele>
        <time>2011-01-04T08:16:13Z</time>
      </trkpt>
      <trkpt lat="37.815348012372851" lon="-3.765359027311206">
        <ele>395.19999999999999</ele>
        <time>2011-01-04T08:16:14Z</time>
      </trkpt>
      <trkpt lat="37.815386988222599" lon="-3.765135984867811">
        <ele>395</ele>
        <time>2011-01-04T08:16:15Z</time>
      </trkpt>
      <trkpt lat="37.815443985164165" lon="-3.764921994879842">
        <ele>394.5</ele>
        <time>2011-01-04T08:16:16Z</time>
      </trkpt>
      <trkpt lat="37.81551799736917" lon="-3.764714961871505">
        <ele>393.89999999999998</ele>
        <time>2011-01-04T08:16:17Z</time>
      </trkpt>
      <trkpt lat="37.815611958503723" lon="-3.764516981318593">
        <ele>392.89999999999998</ele>
        <time>2011-01-04T08:16:18Z</time>
      </trkpt>
      <trkpt lat="37.815722012892365" lon="-3.764327969402075">
        <ele>391.69999999999999</ele>
        <time>2011-01-04T08:16:19Z</time>
      </trkpt>
      <trkpt lat="37.815850004553795" lon="-3.764151027426124">
        <ele>390.60000000000002</ele>
        <time>2011-01-04T08:16:20Z</time>
      </trkpt>
      <trkpt lat="37.815995011478662" lon="-3.763989005237818">
        <ele>389.30000000000001</ele>
        <time>2011-01-04T08:16:21Z</time>
      </trkpt>
      <trkpt lat="37.816154016181827" lon="-3.763845004141331">
        <ele>387.89999999999998</ele>
        <time>2011-01-04T08:16:22Z</time>
      </trkpt>
      <trkpt lat="37.816327018663287" lon="-3.763722963631153">
        <ele>386.5</ele>
        <time>2011-01-04T08:16:23Z</time>
      </trkpt>
      <trkpt lat="37.816512007266283" lon="-3.763622967526317">
        <ele>384.80000000000001</ele>
        <time>2011-01-04T08:16:24Z</time>
      </trkpt>
      <trkpt lat="37.816704036667943" lon="-3.763549039140344">
        <ele>383</ele>
        <time>2011-01-04T08:16:25Z</time>
      </trkpt>
      <trkpt lat="37.816901011392474" lon="-3.763494975864887">
        <ele>381.39999999999998</ele>
        <time>2011-01-04T08:16:26Z</time>
      </trkpt>
      <trkpt lat="37.817303007468581" lon="-3.763426998630166">
        <ele>379.19999999999999</ele>
        <time>2011-01-04T08:16:28Z</time>
      </trkpt>
      <trkpt lat="37.81770802102983" lon="-3.763395985588431">
        <ele>378.89999999999998</ele>
        <time>2011-01-04T08:16:30Z</time>
      </trkpt>
      <trkpt lat="37.817912036553025" lon="-3.76339296810329">
        <ele>379.5</ele>
        <time>2011-01-04T08:16:31Z</time>
      </trkpt>
      <trkpt lat="37.818114962428808" lon="-3.763397997245193">
        <ele>380.30000000000001</ele>
        <time>2011-01-04T08:16:32Z</time>
      </trkpt>
      <trkpt lat="37.818703958764672" lon="-3.763443008065224">
        <ele>379.30000000000001</ele>
        <time>2011-01-04T08:16:35Z</time>
      </trkpt>
      <trkpt lat="37.818899005651474" lon="-3.763493970036507">
        <ele>378.89999999999998</ele>
        <time>2011-01-04T08:16:36Z</time>
      </trkpt>
      <trkpt lat="37.819489007815719" lon="-3.763702008873224">
        <ele>379</ele>
        <time>2011-01-04T08:16:39Z</time>
      </trkpt>
      <trkpt lat="37.819868959486485" lon="-3.763884985819459">
        <ele>380.19999999999999</ele>
        <time>2011-01-04T08:16:41Z</time>
      </trkpt>
      <trkpt lat="37.820423003286123" lon="-3.764214981347323">
        <ele>382</ele>
        <time>2011-01-04T08:16:44Z</time>
      </trkpt>
      <trkpt lat="37.820775965228677" lon="-3.764469036832452">
        <ele>383.39999999999998</ele>
        <time>2011-01-04T08:16:46Z</time>
      </trkpt>
      <trkpt lat="37.822072980925441" lon="-3.765451982617378">
        <ele>387</ele>
        <time>2011-01-04T08:16:54Z</time>
      </trkpt>
      <trkpt lat="37.822241960093379" lon="-3.765529012307525">
        <ele>387.30000000000001</ele>
        <time>2011-01-04T08:16:55Z</time>
      </trkpt>
      <trkpt lat="37.822409011423588" lon="-3.765589026734233">
        <ele>387.89999999999998</ele>
        <time>2011-01-04T08:16:56Z</time>
      </trkpt>
      <trkpt lat="37.822575978934765" lon="-3.765634037554264">
        <ele>388.39999999999998</ele>
        <time>2011-01-04T08:16:57Z</time>
      </trkpt>
      <trkpt lat="37.822925001382828" lon="-3.76569002866745">
        <ele>390.19999999999999</ele>
        <time>2011-01-04T08:16:59Z</time>
      </trkpt>
      <trkpt lat="37.827408984303474" lon="-3.765992028638721">
        <ele>391</ele>
        <time>2011-01-04T08:17:19Z</time>
      </trkpt>
      <trkpt lat="37.827672008424997" lon="-3.765981970354915">
        <ele>390.19999999999999</ele>
        <time>2011-01-04T08:17:20Z</time>
      </trkpt>
      <trkpt lat="37.831406984478235" lon="-3.765553990378976">
        <ele>384.19999999999999</ele>
        <time>2011-01-04T08:17:34Z</time>
      </trkpt>
      <trkpt lat="37.842543013393879" lon="-3.763325996696949">
        <ele>383.89999999999998</ele>
        <time>2011-01-04T08:18:15Z</time>
      </trkpt>
      <trkpt lat="37.842808971181512" lon="-3.76332700252533">
        <ele>383.69999999999999</ele>
        <time>2011-01-04T08:18:16Z</time>
      </trkpt>
      <trkpt lat="37.845198987051845" lon="-3.763492964208126">
        <ele>381.5</ele>
        <time>2011-01-04T08:18:25Z</time>
      </trkpt>
      <trkpt lat="37.84546704031527" lon="-3.763528000563383">
        <ele>381.19999999999999</ele>
        <time>2011-01-04T08:18:26Z</time>
      </trkpt>
      <trkpt lat="37.854737006127834" lon="-3.765178984031081">
        <ele>358.89999999999998</ele>
        <time>2011-01-04T08:19:00Z</time>
      </trkpt>
      <trkpt lat="37.855019979178905" lon="-3.765175966545939">
        <ele>357.89999999999998</ele>
        <time>2011-01-04T08:19:01Z</time>
      </trkpt>
      <trkpt lat="37.857307987287641" lon="-3.764952002093196">
        <ele>351.89999999999998</ele>
        <time>2011-01-04T08:19:09Z</time>
      </trkpt>
      <trkpt lat="37.859243033453822" lon="-3.764506001025438">
        <ele>352</ele>
        <time>2011-01-04T08:19:16Z</time>
      </trkpt>
      <trkpt lat="37.863014973700047" lon="-3.763637971132994">
        <ele>353.60000000000002</ele>
        <time>2011-01-04T08:19:30Z</time>
      </trkpt>
      <trkpt lat="37.863297024741769" lon="-3.763610981404781">
        <ele>353.10000000000002</ele>
        <time>2011-01-04T08:19:31Z</time>
      </trkpt>
      <trkpt lat="37.864146027714014" lon="-3.763579968363047">
        <ele>351.39999999999998</ele>
        <time>2011-01-04T08:19:34Z</time>
      </trkpt>
      <trkpt lat="37.864430006593466" lon="-3.76358600333333">
        <ele>350.69999999999999</ele>
        <time>2011-01-04T08:19:35Z</time>
      </trkpt>
      <trkpt lat="37.865566005930305" lon="-3.763702008873224">
        <ele>347</ele>
        <time>2011-01-04T08:19:39Z</time>
      </trkpt>
      <trkpt lat="37.866417020559311" lon="-3.763884985819459">
        <ele>343.30000000000001</ele>
        <time>2011-01-04T08:19:42Z</time>
      </trkpt>
      <trkpt lat="37.867268035188317" lon="-3.764153961092234">
        <ele>339</ele>
        <time>2011-01-04T08:19:45Z</time>
      </trkpt>
      <trkpt lat="37.868122989311814" lon="-3.764504995197058">
        <ele>335.89999999999998</ele>
        <time>2011-01-04T08:19:48Z</time>
      </trkpt>
      <trkpt lat="37.881594970822334" lon="-3.77132099121809">
        <ele>322</ele>
        <time>2011-01-04T08:20:38Z</time>
      </trkpt>
      <trkpt lat="37.881850032135844" lon="-3.771469015628099">
        <ele>322</ele>
        <time>2011-01-04T08:20:39Z</time>
      </trkpt>
      <trkpt lat="37.882829960435629" lon="-3.772144010290504">
        <ele>321.60000000000002</ele>
        <time>2011-01-04T08:20:43Z</time>
      </trkpt>
      <trkpt lat="37.883292976766825" lon="-3.772538965567946">
        <ele>321.69999999999999</ele>
        <time>2011-01-04T08:20:45Z</time>
      </trkpt>
      <trkpt lat="37.883735038340092" lon="-3.772971974685788">
        <ele>322.19999999999999</ele>
        <time>2011-01-04T08:20:47Z</time>
      </trkpt>
      <trkpt lat="37.884355969727039" lon="-3.773668007925153">
        <ele>323.39999999999998</ele>
        <time>2011-01-04T08:20:50Z</time>
      </trkpt>
      <trkpt lat="37.887447969987988" lon="-3.777251020073891">
        <ele>328.89999999999998</ele>
        <time>2011-01-04T08:21:06Z</time>
      </trkpt>
      <trkpt lat="37.887671012431383" lon="-3.777429973706603">
        <ele>328.5</ele>
        <time>2011-01-04T08:21:07Z</time>
      </trkpt>
      <trkpt lat="37.888627974316478" lon="-3.778078984469175">
        <ele>326.69999999999999</ele>
        <time>2011-01-04T08:21:11Z</time>
      </trkpt>
      <trkpt lat="37.889144970104098" lon="-3.778355000540614">
        <ele>325.30000000000001</ele>
        <time>2011-01-04T08:21:13Z</time>
      </trkpt>
      <trkpt lat="37.890531001612544" lon="-3.778895968571305">
        <ele>320</ele>
        <time>2011-01-04T08:21:18Z</time>
      </trkpt>
      <trkpt lat="37.908089999109507" lon="-3.784000966697931">
        <ele>307.39999999999998</ele>
        <time>2011-01-04T08:22:17Z</time>
      </trkpt>
      <trkpt lat="37.908370038494468" lon="-3.784162988886237">
        <ele>308.19999999999999</ele>
        <time>2011-01-04T08:22:18Z</time>
      </trkpt>
      <trkpt lat="37.909710975363851" lon="-3.785092039033771">
        <ele>313.39999999999998</ele>
        <time>2011-01-04T08:22:23Z</time>
      </trkpt>
      <trkpt lat="37.913421979174018" lon="-3.787635024636984">
        <ele>323.30000000000001</ele>
        <time>2011-01-04T08:22:37Z</time>
      </trkpt>
      <trkpt lat="37.913705036044121" lon="-3.787767039611936">
        <ele>323.39999999999998</ele>
        <time>2011-01-04T08:22:38Z</time>
      </trkpt>
      <trkpt lat="37.914869030937552" lon="-3.788176998496056">
        <ele>322.30000000000001</ele>
        <time>2011-01-04T08:22:42Z</time>
      </trkpt>
      <trkpt lat="37.915464984253049" lon="-3.788305995985866">
        <ele>321.30000000000001</ele>
        <time>2011-01-04T08:22:44Z</time>
      </trkpt>
      <trkpt lat="37.916060015559196" lon="-3.788373973220587">
        <ele>320.19999999999999</ele>
        <time>2011-01-04T08:22:46Z</time>
      </trkpt>
      <trkpt lat="37.916657980531454" lon="-3.788383025676012">
        <ele>318.30000000000001</ele>
        <time>2011-01-04T08:22:48Z</time>
      </trkpt>
      <trkpt lat="37.916953023523092" lon="-3.788373973220587">
        <ele>317.30000000000001</ele>
        <time>2011-01-04T08:22:49Z</time>
      </trkpt>
      <trkpt lat="37.918133027851582" lon="-3.788213040679693">
        <ele>313.60000000000002</ele>
        <time>2011-01-04T08:22:53Z</time>
      </trkpt>
      <trkpt lat="37.918716995045543" lon="-3.788054035976529">
        <ele>312.19999999999999</ele>
        <time>2011-01-04T08:22:55Z</time>
      </trkpt>
      <trkpt lat="37.919575972482562" lon="-3.787729991599917">
        <ele>310.30000000000001</ele>
        <time>2011-01-04T08:22:58Z</time>
      </trkpt>
      <trkpt lat="37.920684982091188" lon="-3.78713202662766">
        <ele>310</ele>
        <time>2011-01-04T08:23:02Z</time>
      </trkpt>
      <trkpt lat="37.926895972341299" lon="-3.783170990645886">
        <ele>324.19999999999999</ele>
        <time>2011-01-04T08:23:27Z</time>
      </trkpt>
      <trkpt lat="37.927164025604725" lon="-3.783075017854571">
        <ele>324</ele>
        <time>2011-01-04T08:23:28Z</time>
      </trkpt>
      <trkpt lat="37.927986960858107" lon="-3.782840995118022">
        <ele>322.69999999999999</ele>
        <time>2011-01-04T08:23:31Z</time>
      </trkpt>
      <trkpt lat="37.928552990779281" lon="-3.782732030376792">
        <ele>321.89999999999998</ele>
        <time>2011-01-04T08:23:33Z</time>
      </trkpt>
      <trkpt lat="37.929418003186584" lon="-3.782647959887981">
        <ele>320.10000000000002</ele>
        <time>2011-01-04T08:23:36Z</time>
      </trkpt>
      <trkpt lat="37.929711034521461" lon="-3.782639997079969">
        <ele>319.80000000000001</ele>
        <time>2011-01-04T08:23:37Z</time>
      </trkpt>
      <trkpt lat="37.930006999522448" lon="-3.78264301456511">
        <ele>319.60000000000002</ele>
        <time>2011-01-04T08:23:38Z</time>
      </trkpt>
      <trkpt lat="37.930599013343453" lon="-3.782688025385141">
        <ele>319.10000000000002</ele>
        <time>2011-01-04T08:23:40Z</time>
      </trkpt>
      <trkpt lat="37.931492021307349" lon="-3.782839989289641">
        <ele>317</ele>
        <time>2011-01-04T08:23:43Z</time>
      </trkpt>
      <trkpt lat="37.932085040956736" lon="-3.783005028963089">
        <ele>314.30000000000001</ele>
        <time>2011-01-04T08:23:45Z</time>
      </trkpt>
      <trkpt lat="37.932672025635839" lon="-3.783222958445549">
        <ele>312.30000000000001</ele>
        <time>2011-01-04T08:23:47Z</time>
      </trkpt>
      <trkpt lat="37.933538965880871" lon="-3.783636018633843">
        <ele>310.80000000000001</ele>
        <time>2011-01-04T08:23:50Z</time>
      </trkpt>
      <trkpt lat="37.935221968218684" lon="-3.784646959975362">
        <ele>309.80000000000001</ele>
        <time>2011-01-04T08:23:56Z</time>
      </trkpt>
      <trkpt lat="37.945829015225172" lon="-3.791567981243134">
        <ele>278.69999999999999</ele>
        <time>2011-01-04T08:24:34Z</time>
      </trkpt>
      <trkpt lat="37.94612598605454" lon="-3.791670994833112">
        <ele>278.10000000000002</ele>
        <time>2011-01-04T08:24:35Z</time>
      </trkpt>
      <trkpt lat="37.948444001376629" lon="-3.792225960642099">
        <ele>279.39999999999998</ele>
        <time>2011-01-04T08:24:43Z</time>
      </trkpt>
      <trkpt lat="37.949571032077074" lon="-3.792334003373981">
        <ele>283.10000000000002</ele>
        <time>2011-01-04T08:24:47Z</time>
      </trkpt>
      <trkpt lat="37.95040100812912" lon="-3.79235303029418">
        <ele>286.80000000000001</ele>
        <time>2011-01-04T08:24:50Z</time>
      </trkpt>
      <trkpt lat="37.950674006715417" lon="-3.792348001152277">
        <ele>288.19999999999999</ele>
        <time>2011-01-04T08:24:51Z</time>
      </trkpt>
      <trkpt lat="37.953568026423454" lon="-3.791937036439776">
        <ele>304.19999999999999</ele>
        <time>2011-01-04T08:25:02Z</time>
      </trkpt>
      <trkpt lat="37.955898027867079" lon="-3.791290037333965">
        <ele>314.19999999999999</ele>
        <time>2011-01-04T08:25:11Z</time>
      </trkpt>
      <trkpt lat="37.962378999218345" lon="-3.789504021406174">
        <ele>319</ele>
        <time>2011-01-04T08:25:34Z</time>
      </trkpt>
      <trkpt lat="37.962677981704473" lon="-3.789466973394156">
        <ele>318.39999999999998</ele>
        <time>2011-01-04T08:25:35Z</time>
      </trkpt>
      <trkpt lat="37.962977970018983" lon="-3.789435960352421">
        <ele>317.69999999999999</ele>
        <time>2011-01-04T08:25:36Z</time>
      </trkpt>
      <trkpt lat="37.964497022330761" lon="-3.789381980895996">
        <ele>314.30000000000001</ele>
        <time>2011-01-04T08:25:41Z</time>
      </trkpt>
      <trkpt lat="37.966019008308649" lon="-3.789486000314355">
        <ele>311.30000000000001</ele>
        <time>2011-01-04T08:25:46Z</time>
      </trkpt>
      <trkpt lat="37.967838970944285" lon="-3.789817001670599">
        <ele>306.39999999999998</ele>
        <time>2011-01-04T08:25:52Z</time>
      </trkpt>
      <trkpt lat="37.98293000087142" lon="-3.792211040854454">
        <ele>254</ele>
        <time>2011-01-04T08:26:41Z</time>
      </trkpt>
      <trkpt lat="37.983228983357549" lon="-3.792307013645768">
        <ele>253.80000000000001</ele>
        <time>2011-01-04T08:26:42Z</time>
      </trkpt>
      <trkpt lat="37.988385027274489" lon="-3.794501982629299">
        <ele>260.39999999999998</ele>
        <time>2011-01-04T08:27:00Z</time>
      </trkpt>
      <trkpt lat="37.992166019976139" lon="-3.79596496000886">
        <ele>258.69999999999999</ele>
        <time>2011-01-04T08:27:13Z</time>
      </trkpt>
      <trkpt lat="37.992771025747061" lon="-3.796094041317701">
        <ele>258.10000000000002</ele>
        <time>2011-01-04T08:27:15Z</time>
      </trkpt>
      <trkpt lat="37.993688005954027" lon="-3.796202000230551">
        <ele>258</ele>
        <time>2011-01-04T08:27:18Z</time>
      </trkpt>
      <trkpt lat="37.993995035067201" lon="-3.796211974695325">
        <ele>257.69999999999999</ele>
        <time>2011-01-04T08:27:19Z</time>
      </trkpt>
      <trkpt lat="37.994301980361342" lon="-3.796209041029215">
        <ele>257.5</ele>
        <time>2011-01-04T08:27:20Z</time>
      </trkpt>
      <trkpt lat="37.995505034923553" lon="-3.796087000519037">
        <ele>258.30000000000001</ele>
        <time>2011-01-04T08:27:24Z</time>
      </trkpt>
      <trkpt lat="37.996377004310489" lon="-3.79587703384459">
        <ele>260.89999999999998</ele>
        <time>2011-01-04T08:27:27Z</time>
      </trkpt>
      <trkpt lat="37.997203962877393" lon="-3.795553995296359">
        <ele>263.5</ele>
        <time>2011-01-04T08:27:30Z</time>
      </trkpt>
      <trkpt lat="37.998509025201201" lon="-3.794852010905743">
        <ele>267.89999999999998</ele>
        <time>2011-01-04T08:27:35Z</time>
      </trkpt>
      <trkpt lat="37.999255014583468" lon="-3.794324034824967">
        <ele>270.60000000000002</ele>
        <time>2011-01-04T08:27:38Z</time>
      </trkpt>
      <trkpt lat="38.000197978690267" lon="-3.793473020195961">
        <ele>273.19999999999999</ele>
        <time>2011-01-04T08:27:42Z</time>
      </trkpt>
      <trkpt lat="38.000426972284913" lon="-3.793240003287792">
        <ele>273.80000000000001</ele>
        <time>2011-01-04T08:27:43Z</time>
      </trkpt>
      <trkpt lat="38.004755973815918" lon="-3.788138022646308">
        <ele>280.5</ele>
        <time>2011-01-04T08:28:03Z</time>
      </trkpt>
      <trkpt lat="38.005002988502383" lon="-3.787925960496068">
        <ele>281</ele>
        <time>2011-01-04T08:28:04Z</time>
      </trkpt>
      <trkpt lat="38.005515960976481" lon="-3.787535028532147">
        <ele>282.19999999999999</ele>
        <time>2011-01-04T08:28:06Z</time>
      </trkpt>
      <trkpt lat="38.006319031119347" lon="-3.78702700138092">
        <ele>284.69999999999999</ele>
        <time>2011-01-04T08:28:09Z</time>
      </trkpt>
      <trkpt lat="38.006871985271573" lon="-3.78674503415823">
        <ele>286.89999999999998</ele>
        <time>2011-01-04T08:28:11Z</time>
      </trkpt>
      <trkpt lat="38.007436003535986" lon="-3.786511011421681">
        <ele>289.5</ele>
        <time>2011-01-04T08:28:13Z</time>
      </trkpt>
      <trkpt lat="38.008005972951651" lon="-3.786327028647065">
        <ele>291.89999999999998</ele>
        <time>2011-01-04T08:28:15Z</time>
      </trkpt>
      <trkpt lat="38.008578959852457" lon="-3.786191996186972">
        <ele>294.30000000000001</ele>
        <time>2011-01-04T08:28:17Z</time>
      </trkpt>
      <trkpt lat="38.012303039431572" lon="-3.7853719945997">
        <ele>308.60000000000002</ele>
        <time>2011-01-04T08:28:30Z</time>
      </trkpt>
      <trkpt lat="38.012582994997501" lon="-3.785249032080174">
        <ele>309.19999999999999</ele>
        <time>2011-01-04T08:28:31Z</time>
      </trkpt>
      <trkpt lat="38.013946982100606" lon="-3.784462977200747">
        <ele>310.19999999999999</ele>
        <time>2011-01-04T08:28:36Z</time>
      </trkpt>
      <trkpt lat="38.041488993912935" lon="-3.768094964325428">
        <ele>278.39999999999998</ele>
        <time>2011-01-04T08:30:17Z</time>
      </trkpt>
      <trkpt lat="38.041745983064175" lon="-3.767890026792884">
        <ele>278.69999999999999</ele>
        <time>2011-01-04T08:30:18Z</time>
      </trkpt>
      <trkpt lat="38.046770012006164" lon="-3.763189036399126">
        <ele>277.5</ele>
        <time>2011-01-04T08:30:38Z</time>
      </trkpt>
      <trkpt lat="38.062388012185693" lon="-3.745351005345583">
        <ele>302.30000000000001</ele>
        <time>2011-01-04T08:31:47Z</time>
      </trkpt>
      <trkpt lat="38.062647012993693" lon="-3.745162999257445">
        <ele>303.30000000000001</ele>
        <time>2011-01-04T08:31:48Z</time>
      </trkpt>
      <trkpt lat="38.073486993089318" lon="-3.737357016652823">
        <ele>310.80000000000001</ele>
        <time>2011-01-04T08:32:28Z</time>
      </trkpt>
      <trkpt lat="38.073787987232208" lon="-3.737191976979375">
        <ele>311.10000000000002</ele>
        <time>2011-01-04T08:32:29Z</time>
      </trkpt>
      <trkpt lat="38.075308967381716" lon="-3.736507007852197">
        <ele>314.5</ele>
        <time>2011-01-04T08:32:34Z</time>
      </trkpt>
      <trkpt lat="38.075913973152637" lon="-3.73629704117775">
        <ele>316.19999999999999</ele>
        <time>2011-01-04T08:32:36Z</time>
      </trkpt>
      <trkpt lat="38.07742397300899" lon="-3.735911976546049">
        <ele>320.60000000000002</ele>
        <time>2011-01-04T08:32:41Z</time>
      </trkpt>
      <trkpt lat="38.078633984550834" lon="-3.73574199154973">
        <ele>325.10000000000002</ele>
        <time>2011-01-04T08:32:45Z</time>
      </trkpt>
      <trkpt lat="38.079541996121407" lon="-3.735691029578447">
        <ele>328.80000000000001</ele>
        <time>2011-01-04T08:32:48Z</time>
      </trkpt>
      <trkpt lat="38.079845001921058" lon="-3.735689017921686">
        <ele>329.80000000000001</ele>
        <time>2011-01-04T08:32:49Z</time>
      </trkpt>
      <trkpt lat="38.080147001892328" lon="-3.735696980729699">
        <ele>330.69999999999999</ele>
        <time>2011-01-04T08:32:50Z</time>
      </trkpt>
      <trkpt lat="38.08195598423481" lon="-3.735904013738036">
        <ele>333.89999999999998</ele>
        <time>2011-01-04T08:32:56Z</time>
      </trkpt>
      <trkpt lat="38.08285896666348" lon="-3.736119009554386">
        <ele>336.60000000000002</ele>
        <time>2011-01-04T08:32:59Z</time>
      </trkpt>
      <trkpt lat="38.097550012171268" lon="-3.740032017230988">
        <ele>335.60000000000002</ele>
        <time>2011-01-04T08:33:47Z</time>
      </trkpt>
      <trkpt lat="38.097850000485778" lon="-3.740159003064036">
        <ele>335.5</ele>
        <time>2011-01-04T08:33:48Z</time>
      </trkpt>
      <trkpt lat="38.099638028070331" lon="-3.741059973835945">
        <ele>334.30000000000001</ele>
        <time>2011-01-04T08:33:54Z</time>
      </trkpt>
      <trkpt lat="38.099936004728079" lon="-3.741231970489025">
        <ele>334</ele>
        <time>2011-01-04T08:33:55Z</time>
      </trkpt>
      <trkpt lat="38.109748028218746" lon="-3.748060958459973">
        <ele>350.60000000000002</ele>
        <time>2011-01-04T08:34:30Z</time>
      </trkpt>
      <trkpt lat="38.111460031941533" lon="-3.749637007713318">
        <ele>350.80000000000001</ele>
        <time>2011-01-04T08:34:37Z</time>
      </trkpt>
      <trkpt lat="38.113586017861962" lon="-3.751910012215376">
        <ele>350.19999999999999</ele>
        <time>2011-01-04T08:34:46Z</time>
      </trkpt>
      <trkpt lat="38.11921002343297" lon="-3.758487962186337">
        <ele>377.39999999999998</ele>
        <time>2011-01-04T08:35:12Z</time>
      </trkpt>
      <trkpt lat="38.119400963187218" lon="-3.758647972717881">
        <ele>377.80000000000001</ele>
        <time>2011-01-04T08:35:13Z</time>
      </trkpt>
      <trkpt lat="38.119590980932117" lon="-3.758780993521214">
        <ele>377.89999999999998</ele>
        <time>2011-01-04T08:35:14Z</time>
      </trkpt>
      <trkpt lat="38.119783010333776" lon="-3.758889958262444">
        <ele>377.69999999999999</ele>
        <time>2011-01-04T08:35:15Z</time>
      </trkpt>
      <trkpt lat="38.119980990886688" lon="-3.758977968245745">
        <ele>377.19999999999999</ele>
        <time>2011-01-04T08:35:16Z</time>
      </trkpt>
      <trkpt lat="38.120189029723406" lon="-3.759048040956259">
        <ele>376.5</ele>
        <time>2011-01-04T08:35:17Z</time>
      </trkpt>
      <trkpt lat="38.120404025539756" lon="-3.759099002927542">
        <ele>375.89999999999998</ele>
        <time>2011-01-04T08:35:18Z</time>
      </trkpt>
      <trkpt lat="38.120626984164119" lon="-3.759131021797657">
        <ele>375.39999999999998</ele>
        <time>2011-01-04T08:35:19Z</time>
      </trkpt>
      <trkpt lat="38.120857989415526" lon="-3.759135967120528">
        <ele>374.69999999999999</ele>
        <time>2011-01-04T08:35:20Z</time>
      </trkpt>
      <trkpt lat="38.121093017980456" lon="-3.759117024019361">
        <ele>373.80000000000001</ele>
        <time>2011-01-04T08:35:21Z</time>
      </trkpt>
      <trkpt lat="38.121327962726355" lon="-3.759067989885807">
        <ele>373</ele>
        <time>2011-01-04T08:35:22Z</time>
      </trkpt>
      <trkpt lat="38.121560979634523" lon="-3.758988026529551">
        <ele>372.60000000000002</ele>
        <time>2011-01-04T08:35:23Z</time>
      </trkpt>
      <trkpt lat="38.121788967400789" lon="-3.758878977969289">
        <ele>372.30000000000001</ele>
        <time>2011-01-04T08:35:24Z</time>
      </trkpt>
      <trkpt lat="38.122008992359042" lon="-3.758743023499847">
        <ele>372.10000000000002</ele>
        <time>2011-01-04T08:35:25Z</time>
      </trkpt>
      <trkpt lat="38.122429009526968" lon="-3.758403975516558">
        <ele>372.19999999999999</ele>
        <time>2011-01-04T08:35:27Z</time>
      </trkpt>
      <trkpt lat="38.131589004769921" lon="-3.750531021505594">
        <ele>357.19999999999999</ele>
        <time>2011-01-04T08:36:07Z</time>
      </trkpt>
      <trkpt lat="38.132064007222652" lon="-3.750021988525987">
        <ele>356</ele>
        <time>2011-01-04T08:36:09Z</time>
      </trkpt>
      <trkpt lat="38.133592028170824" lon="-3.748075040057302">
        <ele>352.89999999999998</ele>
        <time>2011-01-04T08:36:16Z</time>
      </trkpt>
      <trkpt lat="38.133795037865639" lon="-3.747783014550805">
        <ele>352.39999999999998</ele>
        <time>2011-01-04T08:36:17Z</time>
      </trkpt>
      <trkpt lat="38.137600002810359" lon="-3.742624958977103">
        <ele>349.80000000000001</ele>
        <time>2011-01-04T08:36:36Z</time>
      </trkpt>
      <trkpt lat="38.141217967495322" lon="-3.734384961426258">
        <ele>371</ele>
        <time>2011-01-04T08:37:03Z</time>
      </trkpt>
      <trkpt lat="38.141445033252239" lon="-3.733774004504085">
        <ele>371.10000000000002</ele>
        <time>2011-01-04T08:37:05Z</time>
      </trkpt>
      <trkpt lat="38.1416180357337" lon="-3.733124993741512">
        <ele>370.69999999999999</ele>
        <time>2011-01-04T08:37:07Z</time>
      </trkpt>
      <trkpt lat="38.143139015883207" lon="-3.726629018783569">
        <ele>370.89999999999998</ele>
        <time>2011-01-04T08:37:26Z</time>
      </trkpt>
      <trkpt lat="38.14327497035265" lon="-3.726302962750197">
        <ele>371.39999999999998</ele>
        <time>2011-01-04T08:37:27Z</time>
      </trkpt>
      <trkpt lat="38.14342500641942" lon="-3.725985959172249">
        <ele>371.5</ele>
        <time>2011-01-04T08:37:28Z</time>
      </trkpt>
      <trkpt lat="38.143590968102217" lon="-3.725681025534868">
        <ele>371.69999999999999</ele>
        <time>2011-01-04T08:37:29Z</time>
      </trkpt>
      <trkpt lat="38.143773023039103" lon="-3.725391011685133">
        <ele>371.89999999999998</ele>
        <time>2011-01-04T08:37:30Z</time>
      </trkpt>
      <trkpt lat="38.143966980278492" lon="-3.725118013098836">
        <ele>371.19999999999999</ele>
        <time>2011-01-04T08:37:31Z</time>
      </trkpt>
      <trkpt lat="38.144177030771971" lon="-3.724858006462455">
        <ele>371</ele>
        <time>2011-01-04T08:37:32Z</time>
      </trkpt>
      <trkpt lat="38.1446279771626" lon="-3.724371017888188">
        <ele>370.89999999999998</ele>
        <time>2011-01-04T08:37:34Z</time>
      </trkpt>
      <trkpt lat="38.144868034869432" lon="-3.724148981273174">
        <ele>370.89999999999998</ele>
        <time>2011-01-04T08:37:35Z</time>
      </trkpt>
      <trkpt lat="38.145118989050388" lon="-3.723944965749979">
        <ele>370.89999999999998</ele>
        <time>2011-01-04T08:37:36Z</time>
      </trkpt>
      <trkpt lat="38.145646965131164" lon="-3.723592003807426">
        <ele>370.80000000000001</ele>
        <time>2011-01-04T08:37:38Z</time>
      </trkpt>
      <trkpt lat="38.165319040417671" lon="-3.709868984296918">
        <ele>340.19999999999999</ele>
        <time>2011-01-04T08:38:53Z</time>
      </trkpt>
      <trkpt lat="38.165555996820331" lon="-3.709646025672555">
        <ele>341.10000000000002</ele>
        <time>2011-01-04T08:38:54Z</time>
      </trkpt>
      <trkpt lat="38.168022958561778" lon="-3.707747021690011">
        <ele>346.10000000000002</ele>
        <time>2011-01-04T08:39:04Z</time>
      </trkpt>
      <trkpt lat="38.172518005594611" lon="-3.705942984670401">
        <ele>354.80000000000001</ele>
        <time>2011-01-04T08:39:20Z</time>
      </trkpt>
      <trkpt lat="38.172776000574231" lon="-3.705767970532179">
        <ele>355.30000000000001</ele>
        <time>2011-01-04T08:39:21Z</time>
      </trkpt>
      <trkpt lat="38.173273969441652" lon="-3.705378966405988">
        <ele>356.5</ele>
        <time>2011-01-04T08:39:23Z</time>
      </trkpt>
      <trkpt lat="38.17374100908637" lon="-3.70493003167212">
        <ele>357.80000000000001</ele>
        <time>2011-01-04T08:39:25Z</time>
      </trkpt>
      <trkpt lat="38.174167983233929" lon="-3.704424016177654">
        <ele>359.10000000000002</ele>
        <time>2011-01-04T08:39:27Z</time>
      </trkpt>
      <trkpt lat="38.174548018723726" lon="-3.70385798625648">
        <ele>359.69999999999999</ele>
        <time>2011-01-04T08:39:29Z</time>
      </trkpt>
      <trkpt lat="38.174876002594829" lon="-3.703251974657178">
        <ele>359.69999999999999</ele>
        <time>2011-01-04T08:39:31Z</time>
      </trkpt>
      <trkpt lat="38.178706029430032" lon="-3.696619039401412">
        <ele>357.89999999999998</ele>
        <time>2011-01-04T08:39:54Z</time>
      </trkpt>
      <trkpt lat="38.178901998326182" lon="-3.696344029158354">
        <ele>357.80000000000001</ele>
        <time>2011-01-04T08:39:55Z</time>
      </trkpt>
      <trkpt lat="38.179526031017303" lon="-3.695559985935688">
        <ele>357.5</ele>
        <time>2011-01-04T08:39:58Z</time>
      </trkpt>
      <trkpt lat="38.179748989641666" lon="-3.695318000391126">
        <ele>357.30000000000001</ele>
        <time>2011-01-04T08:39:59Z</time>
      </trkpt>
      <trkpt lat="38.179982006549835" lon="-3.695086995139718">
        <ele>357</ele>
        <time>2011-01-04T08:40:00Z</time>
      </trkpt>
      <trkpt lat="38.180226003751159" lon="-3.694870993494988">
        <ele>356.80000000000001</ele>
        <time>2011-01-04T08:40:01Z</time>
      </trkpt>
      <trkpt lat="38.180480981245637" lon="-3.694671001285315">
        <ele>356.5</ele>
        <time>2011-01-04T08:40:02Z</time>
      </trkpt>
      <trkpt lat="38.180746017023921" lon="-3.69448802433908">
        <ele>356.30000000000001</ele>
        <time>2011-01-04T08:40:03Z</time>
      </trkpt>
      <trkpt lat="38.181021027266979" lon="-3.694322984665632">
        <ele>356.19999999999999</ele>
        <time>2011-01-04T08:40:04Z</time>
      </trkpt>
      <trkpt lat="38.181593008339405" lon="-3.694054009392858">
        <ele>355.60000000000002</ele>
        <time>2011-01-04T08:40:06Z</time>
      </trkpt>
      <trkpt lat="38.182177981361747" lon="-3.693853011354804">
        <ele>355.39999999999998</ele>
        <time>2011-01-04T08:40:08Z</time>
      </trkpt>
      <trkpt lat="38.185444995760918" lon="-3.692888002842665">
        <ele>353.19999999999999</ele>
        <time>2011-01-04T08:40:20Z</time>
      </trkpt>
      <trkpt lat="38.185700979083776" lon="-3.692738972604275">
        <ele>352.89999999999998</ele>
        <time>2011-01-04T08:40:21Z</time>
      </trkpt>
      <trkpt lat="38.185952017083764" lon="-3.692569993436337">
        <ele>352.60000000000002</ele>
        <time>2011-01-04T08:40:22Z</time>
      </trkpt>
      <trkpt lat="38.186434982344508" lon="-3.692174032330513">
        <ele>352</ele>
        <time>2011-01-04T08:40:24Z</time>
      </trkpt>
      <trkpt lat="38.186885006725788" lon="-3.691720990464091">
        <ele>351.5</ele>
        <time>2011-01-04T08:40:26Z</time>
      </trkpt>
      <trkpt lat="38.187092039734125" lon="-3.691477999091148">
        <ele>351.19999999999999</ele>
        <time>2011-01-04T08:40:27Z</time>
      </trkpt>
      <trkpt lat="38.187466040253639" lon="-3.690958991646767">
        <ele>350.60000000000002</ele>
        <time>2011-01-04T08:40:29Z</time>
      </trkpt>
      <trkpt lat="38.18779201246798" lon="-3.690402014181018">
        <ele>350</ele>
        <time>2011-01-04T08:40:31Z</time>
      </trkpt>
      <trkpt lat="38.188070962205529" lon="-3.689807988703251">
        <ele>349.5</ele>
        <time>2011-01-04T08:40:33Z</time>
      </trkpt>
      <trkpt lat="38.188298027962446" lon="-3.689178004860878">
        <ele>349.19999999999999</ele>
        <time>2011-01-04T08:40:35Z</time>
      </trkpt>
      <trkpt lat="38.188466001302004" lon="-3.688535029068589">
        <ele>349.39999999999998</ele>
        <time>2011-01-04T08:40:37Z</time>
      </trkpt>
      <trkpt lat="38.188583012670279" lon="-3.687896998599172">
        <ele>350.10000000000002</ele>
        <time>2011-01-04T08:40:39Z</time>
      </trkpt>
      <trkpt lat="38.188646966591477" lon="-3.687271038070321">
        <ele>350.60000000000002</ele>
        <time>2011-01-04T08:40:41Z</time>
      </trkpt>
      <trkpt lat="38.188659036532044" lon="-3.686012998223305">
        <ele>351.39999999999998</ele>
        <time>2011-01-04T08:40:45Z</time>
      </trkpt>
      <trkpt lat="38.188497014343739" lon="-3.681283006444573">
        <ele>349.5</ele>
        <time>2011-01-04T08:40:59Z</time>
      </trkpt>
      <trkpt lat="38.188534984365106" lon="-3.680915962904692">
        <ele>349.19999999999999</ele>
        <time>2011-01-04T08:41:00Z</time>
      </trkpt>
      <trkpt lat="38.18858896382153" lon="-3.680547997355461">
        <ele>349</ele>
        <time>2011-01-04T08:41:01Z</time>
      </trkpt>
      <trkpt lat="38.188659958541393" lon="-3.680182965472341">
        <ele>348.80000000000001</ele>
        <time>2011-01-04T08:41:02Z</time>
      </trkpt>
      <trkpt lat="38.188746040686965" lon="-3.679821034893394">
        <ele>348.60000000000002</ele>
        <time>2011-01-04T08:41:03Z</time>
      </trkpt>
      <trkpt lat="38.188848970457911" lon="-3.679464971646667">
        <ele>348.89999999999998</ele>
        <time>2011-01-04T08:41:04Z</time>
      </trkpt>
      <trkpt lat="38.188967993482947" lon="-3.679115027189255">
        <ele>349.39999999999998</ele>
        <time>2011-01-04T08:41:05Z</time>
      </trkpt>
      <trkpt lat="38.189103025943041" lon="-3.678773967549205">
        <ele>349.69999999999999</ele>
        <time>2011-01-04T08:41:06Z</time>
      </trkpt>
      <trkpt lat="38.189419023692608" lon="-3.678113976493478">
        <ele>349.60000000000002</ele>
        <time>2011-01-04T08:41:08Z</time>
      </trkpt>
      <trkpt lat="38.189598983153701" lon="-3.677798984572291">
        <ele>349.69999999999999</ele>
        <time>2011-01-04T08:41:09Z</time>
      </trkpt>
      <trkpt lat="38.189791012555361" lon="-3.677497990429401">
        <ele>349.5</ele>
        <time>2011-01-04T08:41:10Z</time>
      </trkpt>
      <trkpt lat="38.190211029723287" lon="-3.676931038498879">
        <ele>349.19999999999999</ele>
        <time>2011-01-04T08:41:12Z</time>
      </trkpt>
      <trkpt lat="38.190665999427438" lon="-3.676412031054497">
        <ele>349</ele>
        <time>2011-01-04T08:41:14Z</time>
      </trkpt>
      <trkpt lat="38.191637964919209" lon="-3.675459008663893">
        <ele>348.80000000000001</ele>
        <time>2011-01-04T08:41:18Z</time>
      </trkpt>
      <trkpt lat="38.196154972538352" lon="-3.67130502127111">
        <ele>343.80000000000001</ele>
        <time>2011-01-04T08:41:38Z</time>
      </trkpt>
      <trkpt lat="38.196344990283251" lon="-3.671064963564277">
        <ele>343.80000000000001</ele>
        <time>2011-01-04T08:41:39Z</time>
      </trkpt>
      <trkpt lat="38.198686977848411" lon="-3.667613966390491">
        <ele>346.80000000000001</ele>
        <time>2011-01-04T08:41:52Z</time>
      </trkpt>
      <trkpt lat="38.198918988928199" lon="-3.667398970574141">
        <ele>346.69999999999999</ele>
        <time>2011-01-04T08:41:53Z</time>
      </trkpt>
      <trkpt lat="38.199160974472761" lon="-3.667198978364468">
        <ele>346.39999999999998</ele>
        <time>2011-01-04T08:41:54Z</time>
      </trkpt>
      <trkpt lat="38.19967302493751" lon="-3.666842998936772">
        <ele>346.30000000000001</ele>
        <time>2011-01-04T08:41:56Z</time>
      </trkpt>
      <trkpt lat="38.200218016281724" lon="-3.66653798148036">
        <ele>347.69999999999999</ele>
        <time>2011-01-04T08:41:58Z</time>
      </trkpt>
      <trkpt lat="38.203831035643816" lon="-3.664660016074777">
        <ele>360.60000000000002</ele>
        <time>2011-01-04T08:42:11Z</time>
      </trkpt>
      <trkpt lat="38.20407796651125" lon="-3.664451977238059">
        <ele>361.10000000000002</ele>
        <time>2011-01-04T08:42:12Z</time>
      </trkpt>
      <trkpt lat="38.2045519631356" lon="-3.663990972563624">
        <ele>362</ele>
        <time>2011-01-04T08:42:14Z</time>
      </trkpt>
      <trkpt lat="38.204991007223725" lon="-3.663476994261146">
        <ele>362.60000000000002</ele>
        <time>2011-01-04T08:42:16Z</time>
      </trkpt>
      <trkpt lat="38.205395014956594" lon="-3.662910964339972">
        <ele>362.89999999999998</ele>
        <time>2011-01-04T08:42:18Z</time>
      </trkpt>
      <trkpt lat="38.205760968849063" lon="-3.662297995761037">
        <ele>362.69999999999999</ele>
        <time>2011-01-04T08:42:20Z</time>
      </trkpt>
      <trkpt lat="38.206083001568913" lon="-3.661642028018832">
        <ele>362.5</ele>
        <time>2011-01-04T08:42:22Z</time>
      </trkpt>
      <trkpt lat="38.206353988498449" lon="-3.660943983122706">
        <ele>362.19999999999999</ele>
        <time>2011-01-04T08:42:24Z</time>
      </trkpt>
      <trkpt lat="38.208855986595154" lon="-3.653202038258314">
        <ele>361.89999999999998</ele>
        <time>2011-01-04T08:42:45Z</time>
      </trkpt>
      <trkpt lat="38.209021026268601" lon="-3.652865001931787">
        <ele>362.39999999999998</ele>
        <time>2011-01-04T08:42:46Z</time>
      </trkpt>
      <trkpt lat="38.209197968244553" lon="-3.652539029717445">
        <ele>362.89999999999998</ele>
        <time>2011-01-04T08:42:47Z</time>
      </trkpt>
      <trkpt lat="38.209586972370744" lon="-3.65192798897624">
        <ele>363.89999999999998</ele>
        <time>2011-01-04T08:42:49Z</time>
      </trkpt>
      <trkpt lat="38.209797022864223" lon="-3.651644010096788">
        <ele>364.5</ele>
        <time>2011-01-04T08:42:50Z</time>
      </trkpt>
      <trkpt lat="38.210245035588741" lon="-3.651123996824026">
        <ele>365</ele>
        <time>2011-01-04T08:42:52Z</time>
      </trkpt>
      <trkpt lat="38.21048098616302" lon="-3.650887962430716">
        <ele>365.19999999999999</ele>
        <time>2011-01-04T08:42:53Z</time>
      </trkpt>
      <trkpt lat="38.212374038994312" lon="-3.649017037823796">
        <ele>367.80000000000001</ele>
        <time>2011-01-04T08:43:01Z</time>
      </trkpt>
      <trkpt lat="38.212584005668759" lon="-3.648746972903609">
        <ele>368.10000000000002</ele>
        <time>2011-01-04T08:43:02Z</time>
      </trkpt>
      <trkpt lat="38.213611962273717" lon="-3.647408969700337">
        <ele>370.69999999999999</ele>
        <time>2011-01-04T08:43:07Z</time>
      </trkpt>
      <trkpt lat="38.213835004717112" lon="-3.647176036611199">
        <ele>371.39999999999998</ele>
        <time>2011-01-04T08:43:08Z</time>
      </trkpt>
      <trkpt lat="38.214307995513082" lon="-3.646771023049951">
        <ele>372</ele>
        <time>2011-01-04T08:43:10Z</time>
      </trkpt>
      <trkpt lat="38.222283963114023" lon="-3.639382962137461">
        <ele>386.69999999999999</ele>
        <time>2011-01-04T08:43:45Z</time>
      </trkpt>
      <trkpt lat="38.222493007779121" lon="-3.639152040705085">
        <ele>386.89999999999998</ele>
        <time>2011-01-04T08:43:46Z</time>
      </trkpt>
      <trkpt lat="38.222887041047215" lon="-3.638648958876729">
        <ele>386.80000000000001</ele>
        <time>2011-01-04T08:43:48Z</time>
      </trkpt>
      <trkpt lat="38.223246037960052" lon="-3.638096004724503">
        <ele>387</ele>
        <time>2011-01-04T08:43:50Z</time>
      </trkpt>
      <trkpt lat="38.223568992689252" lon="-3.637503990903497">
        <ele>387.19999999999999</ele>
        <time>2011-01-04T08:43:52Z</time>
      </trkpt>
      <trkpt lat="38.223854983225465" lon="-3.636873001232743">
        <ele>387.5</ele>
        <time>2011-01-04T08:43:54Z</time>
      </trkpt>
      <trkpt lat="38.224098980426788" lon="-3.636204041540623">
        <ele>387.5</ele>
        <time>2011-01-04T08:43:56Z</time>
      </trkpt>
      <trkpt lat="38.225558018311858" lon="-3.631404982879758">
        <ele>392.10000000000002</ele>
        <time>2011-01-04T08:44:10Z</time>
      </trkpt>
      <trkpt lat="38.225706964731216" lon="-3.631104994565249">
        <ele>392.60000000000002</ele>
        <time>2011-01-04T08:44:11Z</time>
      </trkpt>
      <trkpt lat="38.225870998576283" lon="-3.630821015685797">
        <ele>393.10000000000002</ele>
        <time>2011-01-04T08:44:12Z</time>
      </trkpt>
      <trkpt lat="38.226048024371266" lon="-3.630554974079132">
        <ele>393.60000000000002</ele>
        <time>2011-01-04T08:44:13Z</time>
      </trkpt>
      <trkpt lat="38.226237958297133" lon="-3.630307037383318">
        <ele>394.30000000000001</ele>
        <time>2011-01-04T08:44:14Z</time>
      </trkpt>
      <trkpt lat="38.226439040154219" lon="-3.630077037960291">
        <ele>395</ele>
        <time>2011-01-04T08:44:15Z</time>
      </trkpt>
      <trkpt lat="38.226648001000285" lon="-3.629864975810051">
        <ele>395.19999999999999</ele>
        <time>2011-01-04T08:44:16Z</time>
      </trkpt>
      <trkpt lat="38.226866014301777" lon="-3.629666995257139">
        <ele>395.39999999999998</ele>
        <time>2011-01-04T08:44:17Z</time>
      </trkpt>
      <trkpt lat="38.227091990411282" lon="-3.629484018310905">
        <ele>395.89999999999998</ele>
        <time>2011-01-04T08:44:18Z</time>
      </trkpt>
      <trkpt lat="38.227328024804592" lon="-3.629318978637457">
        <ele>396.30000000000001</ele>
        <time>2011-01-04T08:44:19Z</time>
      </trkpt>
      <trkpt lat="38.227574033662677" lon="-3.629180006682873">
        <ele>396.80000000000001</ele>
        <time>2011-01-04T08:44:20Z</time>
      </trkpt>
      <trkpt lat="38.227829011157155" lon="-3.62906601279974">
        <ele>397.30000000000001</ele>
        <time>2011-01-04T08:44:21Z</time>
      </trkpt>
      <trkpt lat="38.228354975581169" lon="-3.628898039460182">
        <ele>398.19999999999999</ele>
        <time>2011-01-04T08:44:23Z</time>
      </trkpt>
      <trkpt lat="38.228625040501356" lon="-3.628837019205093">
        <ele>398.5</ele>
        <time>2011-01-04T08:44:24Z</time>
      </trkpt>
      <trkpt lat="38.228898039087653" lon="-3.628795025870204">
        <ele>399.19999999999999</ele>
        <time>2011-01-04T08:44:25Z</time>
      </trkpt>
      <trkpt lat="38.22917397134006" lon="-3.628777004778385">
        <ele>399.89999999999998</ele>
        <time>2011-01-04T08:44:26Z</time>
      </trkpt>
      <trkpt lat="38.229453004896641" lon="-3.628780022263527">
        <ele>400.60000000000002</ele>
        <time>2011-01-04T08:44:27Z</time>
      </trkpt>
      <trkpt lat="38.239971958100796" lon="-3.629804961383343">
        <ele>427.30000000000001</ele>
        <time>2011-01-04T08:45:04Z</time>
      </trkpt>
      <trkpt lat="38.240262977778912" lon="-3.629804961383343">
        <ele>428.5</ele>
        <time>2011-01-04T08:45:05Z</time>
      </trkpt>
      <trkpt lat="38.241407023742795" lon="-3.629722986370325">
        <ele>434.30000000000001</ele>
        <time>2011-01-04T08:45:09Z</time>
      </trkpt>
      <trkpt lat="38.241685973480344" lon="-3.62966800108552">
        <ele>435.80000000000001</ele>
        <time>2011-01-04T08:45:10Z</time>
      </trkpt>
      <trkpt lat="38.247019965201616" lon="-3.628442985936999">
        <ele>471.5</ele>
        <time>2011-01-04T08:45:30Z</time>
      </trkpt>
      <trkpt lat="38.247269997373223" lon="-3.628326980397105">
        <ele>473.39999999999998</ele>
        <time>2011-01-04T08:45:31Z</time>
      </trkpt>
      <trkpt lat="38.247515000402927" lon="-3.62818599678576">
        <ele>475.10000000000002</ele>
        <time>2011-01-04T08:45:32Z</time>
      </trkpt>
      <trkpt lat="38.247752040624619" lon="-3.628021040931344">
        <ele>476.80000000000001</ele>
        <time>2011-01-04T08:45:33Z</time>
      </trkpt>
      <trkpt lat="38.249391037970781" lon="-3.626730982214212">
        <ele>485.19999999999999</ele>
        <time>2011-01-04T08:45:40Z</time>
      </trkpt>
      <trkpt lat="38.249650960788131" lon="-3.626597039401531">
        <ele>486.19999999999999</ele>
        <time>2011-01-04T08:45:41Z</time>
      </trkpt>
      <trkpt lat="38.249918008223176" lon="-3.62648899666965">
        <ele>487.10000000000002</ele>
        <time>2011-01-04T08:45:42Z</time>
      </trkpt>
      <trkpt lat="38.250191006809473" lon="-3.626407021656632">
        <ele>488.10000000000002</ele>
        <time>2011-01-04T08:45:43Z</time>
      </trkpt>
      <trkpt lat="38.250469034537673" lon="-3.626350024715066">
        <ele>489.10000000000002</ele>
        <time>2011-01-04T08:45:44Z</time>
      </trkpt>
      <trkpt lat="38.253261968493462" lon="-3.626090018078685">
        <ele>505.30000000000001</ele>
        <time>2011-01-04T08:45:54Z</time>
      </trkpt>
      <trkpt lat="38.253513006493449" lon="-3.625993961468339">
        <ele>506.80000000000001</ele>
        <time>2011-01-04T08:45:55Z</time>
      </trkpt>
      <trkpt lat="38.253991026431322" lon="-3.625732026994228">
        <ele>510.19999999999999</ele>
        <time>2011-01-04T08:45:57Z</time>
      </trkpt>
      <trkpt lat="38.255380997434258" lon="-3.624953012913466">
        <ele>520.29999999999995</ele>
        <time>2011-01-04T08:46:03Z</time>
      </trkpt>
      <trkpt lat="38.255623988807201" lon="-3.624871959909797">
        <ele>521.79999999999995</ele>
        <time>2011-01-04T08:46:04Z</time>
      </trkpt>
      <trkpt lat="38.262015022337437" lon="-3.623242015019059">
        <ele>561.70000000000005</ele>
        <time>2011-01-04T08:46:30Z</time>
      </trkpt>
      <trkpt lat="38.262243010103703" lon="-3.623103965073824">
        <ele>562.39999999999998</ele>
        <time>2011-01-04T08:46:31Z</time>
      </trkpt>
      <trkpt lat="38.262464040890336" lon="-3.62294303253293">
        <ele>563.20000000000005</ele>
        <time>2011-01-04T08:46:32Z</time>
      </trkpt>
      <trkpt lat="38.262677025049925" lon="-3.622759971767664">
        <ele>564</ele>
        <time>2011-01-04T08:46:33Z</time>
      </trkpt>
      <trkpt lat="38.26288003474474" lon="-3.6225560400635">
        <ele>564.70000000000005</ele>
        <time>2011-01-04T08:46:34Z</time>
      </trkpt>
      <trkpt lat="38.263071980327368" lon="-3.622328974306583">
        <ele>565.60000000000002</ele>
        <time>2011-01-04T08:46:35Z</time>
      </trkpt>
      <trkpt lat="38.263251017779112" lon="-3.62208497710526">
        <ele>566.39999999999998</ele>
        <time>2011-01-04T08:46:36Z</time>
      </trkpt>
      <trkpt lat="38.263415973633528" lon="-3.621823964640498">
        <ele>566.79999999999995</ele>
        <time>2011-01-04T08:46:37Z</time>
      </trkpt>
      <trkpt lat="38.263565003871918" lon="-3.621544009074569">
        <ele>566.79999999999995</ele>
        <time>2011-01-04T08:46:38Z</time>
      </trkpt>
      <trkpt lat="38.263696013018489" lon="-3.621249971911311">
        <ele>566.89999999999998</ele>
        <time>2011-01-04T08:46:39Z</time>
      </trkpt>
      <trkpt lat="38.267602985724807" lon="-3.61028702929616">
        <ele>585.89999999999998</ele>
        <time>2011-01-04T08:47:12Z</time>
      </trkpt>
      <trkpt lat="38.267788980156183" lon="-3.609962984919548">
        <ele>586.10000000000002</ele>
        <time>2011-01-04T08:47:13Z</time>
      </trkpt>
      <trkpt lat="38.267990984022617" lon="-3.609651010483503">
        <ele>586.20000000000005</ele>
        <time>2011-01-04T08:47:14Z</time>
      </trkpt>
      <trkpt lat="38.268208997324109" lon="-3.609353033825755">
        <ele>586.10000000000002</ele>
        <time>2011-01-04T08:47:15Z</time>
      </trkpt>
      <trkpt lat="38.268438996747136" lon="-3.609070982784033">
        <ele>585.89999999999998</ele>
        <time>2011-01-04T08:47:16Z</time>
      </trkpt>
      <trkpt lat="38.268680982291698" lon="-3.6088050249964">
        <ele>585.60000000000002</ele>
        <time>2011-01-04T08:47:17Z</time>
      </trkpt>
      <trkpt lat="38.268935037776828" lon="-3.608560021966696">
        <ele>584.79999999999995</ele>
        <time>2011-01-04T08:47:18Z</time>
      </trkpt>
      <trkpt lat="38.269203007221222" lon="-3.608331028372049">
        <ele>583.79999999999995</ele>
        <time>2011-01-04T08:47:19Z</time>
      </trkpt>
      <trkpt lat="38.269482962787151" lon="-3.608121983706951">
        <ele>582.79999999999995</ele>
        <time>2011-01-04T08:47:20Z</time>
      </trkpt>
      <trkpt lat="38.269773982465267" lon="-3.607930038124323">
        <ele>581.60000000000002</ele>
        <time>2011-01-04T08:47:21Z</time>
      </trkpt>
      <trkpt lat="38.270382005721331" lon="-3.607612028717995">
        <ele>579.29999999999995</ele>
        <time>2011-01-04T08:47:23Z</time>
      </trkpt>
      <trkpt lat="38.275089031085372" lon="-3.60562501475215">
        <ele>589.70000000000005</ele>
        <time>2011-01-04T08:47:38Z</time>
      </trkpt>
      <trkpt lat="38.275357000529766" lon="-3.605422005057335">
        <ele>590.79999999999995</ele>
        <time>2011-01-04T08:47:39Z</time>
      </trkpt>
      <trkpt lat="38.275857986882329" lon="-3.604953037574887">
        <ele>593.39999999999998</ele>
        <time>2011-01-04T08:47:41Z</time>
      </trkpt>
      <trkpt lat="38.276091003790498" lon="-3.604690013453364">
        <ele>594.89999999999998</ele>
        <time>2011-01-04T08:47:42Z</time>
      </trkpt>
      <trkpt lat="38.276520995423198" lon="-3.604118032380939">
        <ele>597.89999999999998</ele>
        <time>2011-01-04T08:47:44Z</time>
      </trkpt>
      <trkpt lat="38.279711985960603" lon="-3.598731989040971">
        <ele>609.89999999999998</ele>
        <time>2011-01-04T08:48:01Z</time>
      </trkpt>
      <trkpt lat="38.28058403916657" lon="-3.597056027501822">
        <ele>607.70000000000005</ele>
        <time>2011-01-04T08:48:06Z</time>
      </trkpt>
      <trkpt lat="38.280878998339176" lon="-3.596342978999019">
        <ele>607.10000000000002</ele>
        <time>2011-01-04T08:48:08Z</time>
      </trkpt>
      <trkpt lat="38.281248975545168" lon="-3.595226006582379">
        <ele>606.60000000000002</ele>
        <time>2011-01-04T08:48:11Z</time>
      </trkpt>
      <trkpt lat="38.282277015969157" lon="-3.591881962493062">
        <ele>604.70000000000005</ele>
        <time>2011-01-04T08:48:20Z</time>
      </trkpt>
      <trkpt lat="38.282428979873657" lon="-3.591540986672044">
        <ele>604</ele>
        <time>2011-01-04T08:48:21Z</time>
      </trkpt>
      <trkpt lat="38.282597959041595" lon="-3.591214008629322">
        <ele>603.29999999999995</ele>
        <time>2011-01-04T08:48:22Z</time>
      </trkpt>
      <trkpt lat="38.282784037292004" lon="-3.590903040021658">
        <ele>602.60000000000002</ele>
        <time>2011-01-04T08:48:23Z</time>
      </trkpt>
      <trkpt lat="38.282988974824548" lon="-3.590611014515162">
        <ele>602</ele>
        <time>2011-01-04T08:48:24Z</time>
      </trkpt>
      <trkpt lat="38.283211011439562" lon="-3.590338015928865">
        <ele>601.29999999999995</ele>
        <time>2011-01-04T08:48:25Z</time>
      </trkpt>
      <trkpt lat="38.283445034176111" lon="-3.590085972100496">
        <ele>600.39999999999998</ele>
        <time>2011-01-04T08:48:26Z</time>
      </trkpt>
      <trkpt lat="38.283692970871925" lon="-3.58985697850585">
        <ele>599.5</ele>
        <time>2011-01-04T08:48:27Z</time>
      </trkpt>
      <trkpt lat="38.283949960023165" lon="-3.589655980467796">
        <ele>598.5</ele>
        <time>2011-01-04T08:48:28Z</time>
      </trkpt>
      <trkpt lat="38.284213989973068" lon="-3.589481972157955">
        <ele>597.39999999999998</ele>
        <time>2011-01-04T08:48:29Z</time>
      </trkpt>
      <trkpt lat="38.284493023529649" lon="-3.589333025738597">
        <ele>597</ele>
        <time>2011-01-04T08:48:30Z</time>
      </trkpt>
      <trkpt lat="38.28477599658072" lon="-3.589208973571658">
        <ele>596.89999999999998</ele>
        <time>2011-01-04T08:48:31Z</time>
      </trkpt>
      <trkpt lat="38.285063998773694" lon="-3.589109983295202">
        <ele>596.5</ele>
        <time>2011-01-04T08:48:32Z</time>
      </trkpt>
      <trkpt lat="38.28535501845181" lon="-3.589036976918578">
        <ele>596</ele>
        <time>2011-01-04T08:48:33Z</time>
      </trkpt>
      <trkpt lat="38.285942003130913" lon="-3.588962964713574">
        <ele>595.10000000000002</ele>
        <time>2011-01-04T08:48:35Z</time>
      </trkpt>
      <trkpt lat="38.28623604029417" lon="-3.588955001905561">
        <ele>594.60000000000002</ele>
        <time>2011-01-04T08:48:36Z</time>
      </trkpt>
      <trkpt lat="38.286530999466777" lon="-3.588962964713574">
        <ele>594.20000000000005</ele>
        <time>2011-01-04T08:48:37Z</time>
      </trkpt>
      <trkpt lat="38.291772035881877" lon="-3.589546009898186">
        <ele>616.10000000000002</ele>
        <time>2011-01-04T08:48:55Z</time>
      </trkpt>
      <trkpt lat="38.292046962305903" lon="-3.589548021554947">
        <ele>617.89999999999998</ele>
        <time>2011-01-04T08:48:56Z</time>
      </trkpt>
      <trkpt lat="38.292321972548962" lon="-3.589539974927902">
        <ele>619.39999999999998</ele>
        <time>2011-01-04T08:48:57Z</time>
      </trkpt>
      <trkpt lat="38.292866963893175" lon="-3.589477026835084">
        <ele>622.5</ele>
        <time>2011-01-04T08:48:59Z</time>
      </trkpt>
      <trkpt lat="38.29313300549984" lon="-3.589412989094853">
        <ele>623.89999999999998</ele>
        <time>2011-01-04T08:49:00Z</time>
      </trkpt>
      <trkpt lat="38.293393012136221" lon="-3.589321961626411">
        <ele>625.20000000000005</ele>
        <time>2011-01-04T08:49:01Z</time>
      </trkpt>
      <trkpt lat="38.293645977973938" lon="-3.589206039905548">
        <ele>626.5</ele>
        <time>2011-01-04T08:49:02Z</time>
      </trkpt>
      <trkpt lat="38.293891986832023" lon="-3.589066984131932">
        <ele>628.10000000000002</ele>
        <time>2011-01-04T08:49:03Z</time>
      </trkpt>
      <trkpt lat="38.294130032882094" lon="-3.588904961943626">
        <ele>629.70000000000005</ele>
        <time>2011-01-04T08:49:04Z</time>
      </trkpt>
      <trkpt lat="38.294359026476741" lon="-3.588725002482534">
        <ele>631.20000000000005</ele>
        <time>2011-01-04T08:49:05Z</time>
      </trkpt>
      <trkpt lat="38.294792035594583" lon="-3.588305991142988">
        <ele>633.70000000000005</ele>
        <time>2011-01-04T08:49:07Z</time>
      </trkpt>
      <trkpt lat="38.295195959508419" lon="-3.587833000347018">
        <ele>635.70000000000005</ele>
        <time>2011-01-04T08:49:09Z</time>
      </trkpt>
      <trkpt lat="38.30074000172317" lon="-3.57973599806428">
        <ele>664.29999999999995</ele>
        <time>2011-01-04T08:49:38Z</time>
      </trkpt>
      <trkpt lat="38.300961032509804" lon="-3.579526031389833">
        <ele>665.79999999999995</ele>
        <time>2011-01-04T08:49:39Z</time>
      </trkpt>
      <trkpt lat="38.30119002610445" lon="-3.579334001988173">
        <ele>667.39999999999998</ele>
        <time>2011-01-04T08:49:40Z</time>
      </trkpt>
      <trkpt lat="38.30142798833549" lon="-3.579162005335093">
        <ele>668.89999999999998</ele>
        <time>2011-01-04T08:49:41Z</time>
      </trkpt>
      <trkpt lat="38.301671985536814" lon="-3.579012975096703">
        <ele>670.39999999999998</ele>
        <time>2011-01-04T08:49:42Z</time>
      </trkpt>
      <trkpt lat="38.301923023536801" lon="-3.578886995092034">
        <ele>671.79999999999995</ele>
        <time>2011-01-04T08:49:43Z</time>
      </trkpt>
      <trkpt lat="38.302182024344802" lon="-3.578780964016914">
        <ele>673.29999999999995</ele>
        <time>2011-01-04T08:49:44Z</time>
      </trkpt>
      <trkpt lat="38.302713017910719" lon="-3.57861801981926">
        <ele>677.29999999999995</ele>
        <time>2011-01-04T08:49:46Z</time>
      </trkpt>
      <trkpt lat="38.308291006833315" lon="-3.577171973884106">
        <ele>710.60000000000002</ele>
        <time>2011-01-04T08:50:07Z</time>
      </trkpt>
      <trkpt lat="38.308542966842651" lon="-3.577037025243044">
        <ele>711</ele>
        <time>2011-01-04T08:50:08Z</time>
      </trkpt>
      <trkpt lat="38.308789981529117" lon="-3.57687802053988">
        <ele>711.89999999999998</ele>
        <time>2011-01-04T08:50:09Z</time>
      </trkpt>
      <trkpt lat="38.309028027579188" lon="-3.576694959774613">
        <ele>712.89999999999998</ele>
        <time>2011-01-04T08:50:10Z</time>
      </trkpt>
      <trkpt lat="38.309476040303707" lon="-3.576265973970294">
        <ele>714.89999999999998</ele>
        <time>2011-01-04T08:50:12Z</time>
      </trkpt>
      <trkpt lat="38.312366958707571" lon="-3.572844984009862">
        <ele>727.10000000000002</ele>
        <time>2011-01-04T08:50:26Z</time>
      </trkpt>
      <trkpt lat="38.312718998640776" lon="-3.572334023192525">
        <ele>728.5</ele>
        <time>2011-01-04T08:50:28Z</time>
      </trkpt>
      <trkpt lat="38.31287900917232" lon="-3.572061024606228">
        <ele>729.20000000000005</ele>
        <time>2011-01-04T08:50:29Z</time>
      </trkpt>
      <trkpt lat="38.313025021925569" lon="-3.571773022413254">
        <ele>729.89999999999998</ele>
        <time>2011-01-04T08:50:30Z</time>
      </trkpt>
      <trkpt lat="38.313154019415379" lon="-3.571470016613603">
        <ele>730.60000000000002</ele>
        <time>2011-01-04T08:50:31Z</time>
      </trkpt>
      <trkpt lat="38.313365997746587" lon="-3.570832991972566">
        <ele>731.70000000000005</ele>
        <time>2011-01-04T08:50:33Z</time>
      </trkpt>
      <trkpt lat="38.314077034592628" lon="-3.568181041628122">
        <ele>735.20000000000005</ele>
        <time>2011-01-04T08:50:41Z</time>
      </trkpt>
      <trkpt lat="38.314216006547213" lon="-3.567872000858188">
        <ele>735.39999999999998</ele>
        <time>2011-01-04T08:50:42Z</time>
      </trkpt>
      <trkpt lat="38.314371993765235" lon="-3.567576035857201">
        <ele>735.39999999999998</ele>
        <time>2011-01-04T08:50:43Z</time>
      </trkpt>
      <trkpt lat="38.314540972933173" lon="-3.567294990643859">
        <ele>735.39999999999998</ele>
        <time>2011-01-04T08:50:44Z</time>
      </trkpt>
      <trkpt lat="38.314723027870059" lon="-3.567028027027845">
        <ele>735.39999999999998</ele>
        <time>2011-01-04T08:50:45Z</time>
      </trkpt>
      <trkpt lat="38.315124018117785" lon="-3.566529974341393">
        <ele>734.70000000000005</ele>
        <time>2011-01-04T08:50:47Z</time>
      </trkpt>
      <trkpt lat="38.316523041576147" lon="-3.564827023074031">
        <ele>729.39999999999998</ele>
        <time>2011-01-04T08:50:54Z</time>
      </trkpt>
      <trkpt lat="38.316683974117041" lon="-3.564550001174212">
        <ele>728.70000000000005</ele>
        <time>2011-01-04T08:50:55Z</time>
      </trkpt>
      <trkpt lat="38.317226031795144" lon="-3.563379971310496">
        <ele>726.10000000000002</ele>
        <time>2011-01-04T08:50:59Z</time>
      </trkpt>
      <trkpt lat="38.31859303638339" lon="-3.560297023504973">
        <ele>729</ele>
        <time>2011-01-04T08:51:10Z</time>
      </trkpt>
      <trkpt lat="38.318751035258174" lon="-3.560047997161746">
        <ele>730.10000000000002</ele>
        <time>2011-01-04T08:51:11Z</time>
      </trkpt>
      <trkpt lat="38.320604022592306" lon="-3.557299990206957">
        <ele>739.70000000000005</ele>
        <time>2011-01-04T08:51:22Z</time>
      </trkpt>
      <trkpt lat="38.320799991488457" lon="-3.557068984955549">
        <ele>740.20000000000005</ele>
        <time>2011-01-04T08:51:23Z</time>
      </trkpt>
      <trkpt lat="38.321006018668413" lon="-3.556851977482438">
        <ele>740.60000000000002</ele>
        <time>2011-01-04T08:51:24Z</time>
      </trkpt>
      <trkpt lat="38.321221014484763" lon="-3.556652991101146">
        <ele>741</ele>
        <time>2011-01-04T08:51:25Z</time>
      </trkpt>
      <trkpt lat="38.322918014600873" lon="-3.555181967094541">
        <ele>744.29999999999995</ele>
        <time>2011-01-04T08:51:33Z</time>
      </trkpt>
      <trkpt lat="38.323095962405205" lon="-3.554961020126939">
        <ele>745</ele>
        <time>2011-01-04T08:51:34Z</time>
      </trkpt>
      <trkpt lat="38.330749981105328" lon="-3.543317969888449">
        <ele>735.79999999999995</ele>
        <time>2011-01-04T08:52:18Z</time>
      </trkpt>
      <trkpt lat="38.330964976921678" lon="-3.543114960193634">
        <ele>736.60000000000002</ele>
        <time>2011-01-04T08:52:19Z</time>
      </trkpt>
      <trkpt lat="38.331192964687943" lon="-3.542931983247399">
        <ele>737.29999999999995</ele>
        <time>2011-01-04T08:52:20Z</time>
      </trkpt>
      <trkpt lat="38.331433022394776" lon="-3.542769961059094">
        <ele>737.79999999999995</ele>
        <time>2011-01-04T08:52:21Z</time>
      </trkpt>
      <trkpt lat="38.331683976575732" lon="-3.54263199493289">
        <ele>738.29999999999995</ele>
        <time>2011-01-04T08:52:22Z</time>
      </trkpt>
      <trkpt lat="38.331943983212113" lon="-3.542520012706518">
        <ele>738.70000000000005</ele>
        <time>2011-01-04T08:52:23Z</time>
      </trkpt>
      <trkpt lat="38.332230979576707" lon="-3.542469972744584">
        <ele>739.39999999999998</ele>
        <time>2011-01-04T08:52:24Z</time>
      </trkpt>
      <trkpt lat="38.33279499784112" lon="-3.542395038530231">
        <ele>740.60000000000002</ele>
        <time>2011-01-04T08:52:26Z</time>
      </trkpt>
      <trkpt lat="38.333078976720572" lon="-3.542392021045089">
        <ele>741.39999999999998</ele>
        <time>2011-01-04T08:52:27Z</time>
      </trkpt>
      <trkpt lat="38.333361027762294" lon="-3.542418004944921">
        <ele>742.10000000000002</ele>
        <time>2011-01-04T08:52:28Z</time>
      </trkpt>
      <trkpt lat="38.333638971671462" lon="-3.542468966916204">
        <ele>742.60000000000002</ele>
        <time>2011-01-04T08:52:29Z</time>
      </trkpt>
      <trkpt lat="38.333909958600998" lon="-3.542543984949589">
        <ele>742.79999999999995</ele>
        <time>2011-01-04T08:52:30Z</time>
      </trkpt>
      <trkpt lat="38.334176000207663" lon="-3.542643981054425">
        <ele>742.79999999999995</ele>
        <time>2011-01-04T08:52:31Z</time>
      </trkpt>
      <trkpt lat="38.335191970691085" lon="-3.543154019862413">
        <ele>742.89999999999998</ele>
        <time>2011-01-04T08:52:35Z</time>
      </trkpt>
      <trkpt lat="38.338884031400084" lon="-3.544965013861656">
        <ele>750.20000000000005</ele>
        <time>2011-01-04T08:52:50Z</time>
      </trkpt>
      <trkpt lat="38.339144038036466" lon="-3.545033996924758">
        <ele>750.89999999999998</ele>
        <time>2011-01-04T08:52:51Z</time>
      </trkpt>
      <trkpt lat="38.339938977733254" lon="-3.545179003849626">
        <ele>753.39999999999998</ele>
        <time>2011-01-04T08:52:54Z</time>
      </trkpt>
      <trkpt lat="38.340480029582977" lon="-3.545211022719741">
        <ele>755</ele>
        <time>2011-01-04T08:52:56Z</time>
      </trkpt>
      <trkpt lat="38.340751016512513" lon="-3.545196019113064">
        <ele>755.79999999999995</ele>
        <time>2011-01-04T08:52:57Z</time>
      </trkpt>
      <trkpt lat="38.341016974300146" lon="-3.545158971101046">
        <ele>756.39999999999998</ele>
        <time>2011-01-04T08:52:58Z</time>
      </trkpt>
      <trkpt lat="38.341276980936527" lon="-3.545093005523086">
        <ele>757.10000000000002</ele>
        <time>2011-01-04T08:52:59Z</time>
      </trkpt>
      <trkpt lat="38.341532964259386" lon="-3.544998038560152">
        <ele>757.70000000000005</ele>
        <time>2011-01-04T08:53:00Z</time>
      </trkpt>
      <trkpt lat="38.341780984774232" lon="-3.544880021363497">
        <ele>758.29999999999995</ele>
        <time>2011-01-04T08:53:01Z</time>
      </trkpt>
      <trkpt lat="38.342252969741821" lon="-3.544581038877368">
        <ele>759.70000000000005</ele>
        <time>2011-01-04T08:53:03Z</time>
      </trkpt>
      <trkpt lat="38.342476012185216" lon="-3.544400995597243">
        <ele>760.39999999999998</ele>
        <time>2011-01-04T08:53:04Z</time>
      </trkpt>
      <trkpt lat="38.342688996344805" lon="-3.544197985902429">
        <ele>761.20000000000005</ele>
        <time>2011-01-04T08:53:05Z</time>
      </trkpt>
      <trkpt lat="38.342888988554478" lon="-3.543976033106446">
        <ele>762.10000000000002</ele>
        <time>2011-01-04T08:53:06Z</time>
      </trkpt>
      <trkpt lat="38.343248991295695" lon="-3.543476974591613">
        <ele>763.89999999999998</ele>
        <time>2011-01-04T08:53:08Z</time>
      </trkpt>
      <trkpt lat="38.343406990170479" lon="-3.543210010975599">
        <ele>764.29999999999995</ele>
        <time>2011-01-04T08:53:09Z</time>
      </trkpt>
      <trkpt lat="38.344738036394119" lon="-3.540866011753678">
        <ele>762</ele>
        <time>2011-01-04T08:53:19Z</time>
      </trkpt>
      <trkpt lat="38.344831997528672" lon="-3.540626959875226">
        <ele>761.20000000000005</ele>
        <time>2011-01-04T08:53:20Z</time>
      </trkpt>
      <trkpt lat="38.345221001654863" lon="-3.5393469594419">
        <ele>756.60000000000002</ele>
        <time>2011-01-04T08:53:25Z</time>
      </trkpt>
      <trkpt lat="38.34527799859643" lon="-3.539092987775803">
        <ele>756</ele>
        <time>2011-01-04T08:53:26Z</time>
      </trkpt>
      <trkpt lat="38.3453209977597" lon="-3.53884999640286">
        <ele>755.60000000000002</ele>
        <time>2011-01-04T08:53:27Z</time>
      </trkpt>
      <trkpt lat="38.34534396417439" lon="-3.53861597366631">
        <ele>754.89999999999998</ele>
        <time>2011-01-04T08:53:28Z</time>
      </trkpt>
      <trkpt lat="38.34534396417439" lon="-3.538384968414903">
        <ele>754.20000000000005</ele>
        <time>2011-01-04T08:53:29Z</time>
      </trkpt>
      <trkpt lat="38.3453209977597" lon="-3.538154968991876">
        <ele>753.70000000000005</ele>
        <time>2011-01-04T08:53:30Z</time>
      </trkpt>
      <trkpt lat="38.345280010253191" lon="-3.537924969568849">
        <ele>753.20000000000005</ele>
        <time>2011-01-04T08:53:31Z</time>
      </trkpt>
      <trkpt lat="38.345221001654863" lon="-3.537699999287725">
        <ele>753.39999999999998</ele>
        <time>2011-01-04T08:53:32Z</time>
      </trkpt>
      <trkpt lat="38.344952026382089" lon="-3.536858037114143">
        <ele>754.60000000000002</ele>
        <time>2011-01-04T08:53:36Z</time>
      </trkpt>
      <trkpt lat="38.344911960884929" lon="-3.536643963307142">
        <ele>755.39999999999998</ele>
        <time>2011-01-04T08:53:37Z</time>
      </trkpt>
      <trkpt lat="38.344884971156716" lon="-3.536427039653063">
        <ele>756.20000000000005</ele>
        <time>2011-01-04T08:53:38Z</time>
      </trkpt>
      <trkpt lat="38.3448719792068" lon="-3.536206008866429">
        <ele>756.89999999999998</ele>
        <time>2011-01-04T08:53:39Z</time>
      </trkpt>
      <trkpt lat="38.344869967550039" lon="-3.535981960594654">
        <ele>757.79999999999995</ele>
        <time>2011-01-04T08:53:40Z</time>
      </trkpt>
      <trkpt lat="38.344882959499955" lon="-3.535757996141911">
        <ele>758.39999999999998</ele>
        <time>2011-01-04T08:53:41Z</time>
      </trkpt>
      <trkpt lat="38.344910033047199" lon="-3.535533025860786">
        <ele>759.20000000000005</ele>
        <time>2011-01-04T08:53:42Z</time>
      </trkpt>
      <trkpt lat="38.344950014725327" lon="-3.535308977589011">
        <ele>759.79999999999995</ele>
        <time>2011-01-04T08:53:43Z</time>
      </trkpt>
      <trkpt lat="38.345007011666894" lon="-3.535086018964648">
        <ele>760.39999999999998</ele>
        <time>2011-01-04T08:53:44Z</time>
      </trkpt>
      <trkpt lat="38.345080018043518" lon="-3.534865994006395">
        <ele>760.79999999999995</ele>
        <time>2011-01-04T08:53:45Z</time>
      </trkpt>
      <trkpt lat="38.3451690338552" lon="-3.534655021503568">
        <ele>760.89999999999998</ele>
        <time>2011-01-04T08:53:46Z</time>
      </trkpt>
      <trkpt lat="38.345271963626146" lon="-3.534454023465514">
        <ele>760.60000000000002</ele>
        <time>2011-01-04T08:53:47Z</time>
      </trkpt>
      <trkpt lat="38.34538696333766" lon="-3.534265011548996">
        <ele>760.10000000000002</ele>
        <time>2011-01-04T08:53:48Z</time>
      </trkpt>
      <trkpt lat="38.34551696665585" lon="-3.534085974097252">
        <ele>759.60000000000002</ele>
        <time>2011-01-04T08:53:49Z</time>
      </trkpt>
      <trkpt lat="38.345659961923957" lon="-3.533923029899597">
        <ele>758.89999999999998</ele>
        <time>2011-01-04T08:53:50Z</time>
      </trkpt>
      <trkpt lat="38.345816032961011" lon="-3.533776011317968">
        <ele>758.29999999999995</ele>
        <time>2011-01-04T08:53:51Z</time>
      </trkpt>
      <trkpt lat="38.34598702378571" lon="-3.53365296497941">
        <ele>757.5</ele>
        <time>2011-01-04T08:53:52Z</time>
      </trkpt>
      <trkpt lat="38.346165977418423" lon="-3.533550035208464">
        <ele>756.60000000000002</ele>
        <time>2011-01-04T08:53:53Z</time>
      </trkpt>
      <trkpt lat="38.347572041675448" lon="-3.532826006412506">
        <ele>748.20000000000005</ele>
        <time>2011-01-04T08:54:01Z</time>
      </trkpt>
      <trkpt lat="38.347707996144891" lon="-3.532723998650909">
        <ele>747.10000000000002</ele>
        <time>2011-01-04T08:54:02Z</time>
      </trkpt>
      <trkpt lat="38.347831964492798" lon="-3.532602963969111">
        <ele>746</ele>
        <time>2011-01-04T08:54:03Z</time>
      </trkpt>
      <trkpt lat="38.34794101305306" lon="-3.532459968701005">
        <ele>745</ele>
        <time>2011-01-04T08:54:04Z</time>
      </trkpt>
      <trkpt lat="38.348013013601303" lon="-3.532283026725054">
        <ele>743.79999999999995</ele>
        <time>2011-01-04T08:54:05Z</time>
      </trkpt>
      <trkpt lat="38.348062969744205" lon="-3.532095020636916">
        <ele>743</ele>
        <time>2011-01-04T08:54:06Z</time>
      </trkpt>
      <trkpt lat="38.348086019977927" lon="-3.531897962093353">
        <ele>741.79999999999995</ele>
        <time>2011-01-04T08:54:07Z</time>
      </trkpt>
      <trkpt lat="38.348081996664405" lon="-3.531693024560809">
        <ele>740.89999999999998</ele>
        <time>2011-01-04T08:54:08Z</time>
      </trkpt>
      <trkpt lat="38.348048971965909" lon="-3.531491020694375">
        <ele>739.89999999999998</ele>
        <time>2011-01-04T08:54:09Z</time>
      </trkpt>
      <trkpt lat="38.347989963367581" lon="-3.531295973807573">
        <ele>739</ele>
        <time>2011-01-04T08:54:10Z</time>
      </trkpt>
      <trkpt lat="38.347903965041041" lon="-3.531117020174861">
        <ele>738.20000000000005</ele>
        <time>2011-01-04T08:54:11Z</time>
      </trkpt>
      <trkpt lat="38.347800029441714" lon="-3.530953992158175">
        <ele>737.20000000000005</ele>
        <time>2011-01-04T08:54:12Z</time>
      </trkpt>
      <trkpt lat="38.347475985065103" lon="-3.530467003583908">
        <ele>734.5</ele>
        <time>2011-01-04T08:54:15Z</time>
      </trkpt>
      <trkpt lat="38.347395015880466" lon="-3.530278997495771">
        <ele>733.60000000000002</ele>
        <time>2011-01-04T08:54:16Z</time>
      </trkpt>
      <trkpt lat="38.347337013110518" lon="-3.530079005286098">
        <ele>732.29999999999995</ele>
        <time>2011-01-04T08:54:17Z</time>
      </trkpt>
      <trkpt lat="38.347307005897164" lon="-3.529871972277761">
        <ele>731.29999999999995</ele>
        <time>2011-01-04T08:54:18Z</time>
      </trkpt>
      <trkpt lat="38.347311029210687" lon="-3.529662005603313">
        <ele>730.5</ele>
        <time>2011-01-04T08:54:19Z</time>
      </trkpt>
      <trkpt lat="38.347343970090151" lon="-3.529451033100486">
        <ele>729.70000000000005</ele>
        <time>2011-01-04T08:54:20Z</time>
      </trkpt>
      <trkpt lat="38.347381018102169" lon="-3.529241988435388">
        <ele>729</ele>
        <time>2011-01-04T08:54:21Z</time>
      </trkpt>
      <trkpt lat="38.347697015851736" lon="-3.527487991377711">
        <ele>725.20000000000005</ele>
        <time>2011-01-04T08:54:30Z</time>
      </trkpt>
      <trkpt lat="38.347753006964922" lon="-3.527332004159689">
        <ele>724.79999999999995</ele>
        <time>2011-01-04T08:54:31Z</time>
      </trkpt>
      <trkpt lat="38.347842022776604" lon="-3.527212981134653">
        <ele>724.39999999999998</ele>
        <time>2011-01-04T08:54:32Z</time>
      </trkpt>
      <trkpt lat="38.347959034144878" lon="-3.527135029435158">
        <ele>724.20000000000005</ele>
        <time>2011-01-04T08:54:33Z</time>
      </trkpt>
      <trkpt lat="38.348089959472418" lon="-3.527107033878565">
        <ele>724.10000000000002</ele>
        <time>2011-01-04T08:54:34Z</time>
      </trkpt>
      <trkpt lat="38.348218034952879" lon="-3.527130000293255">
        <ele>723.70000000000005</ele>
        <time>2011-01-04T08:54:35Z</time>
      </trkpt>
      <trkpt lat="38.348339991644025" lon="-3.527197977527976">
        <ele>723.29999999999995</ele>
        <time>2011-01-04T08:54:36Z</time>
      </trkpt>
      <trkpt lat="38.34843403659761" lon="-3.527292022481561">
        <ele>722.70000000000005</ele>
        <time>2011-01-04T08:54:37Z</time>
      </trkpt>
      <trkpt lat="38.34850100800395" lon="-3.527424037456513">
        <ele>722.20000000000005</ele>
        <time>2011-01-04T08:54:38Z</time>
      </trkpt>
      <trkpt lat="38.348541995510459" lon="-3.52759100496769">
        <ele>721.89999999999998</ele>
        <time>2011-01-04T08:54:39Z</time>
      </trkpt>
      <trkpt lat="38.348567979410291" lon="-3.527767024934292">
        <ele>721</ele>
        <time>2011-01-04T08:54:40Z</time>
      </trkpt>
      <trkpt lat="38.348574014380574" lon="-3.52795603685081">
        <ele>720.39999999999998</ele>
        <time>2011-01-04T08:54:41Z</time>
      </trkpt>
      <trkpt lat="38.348621958866715" lon="-3.529115002602339">
        <ele>715.10000000000002</ele>
        <time>2011-01-04T08:54:47Z</time>
      </trkpt>
      <trkpt lat="38.348665041849017" lon="-3.529295967891812">
        <ele>714</ele>
        <time>2011-01-04T08:54:48Z</time>
      </trkpt>
      <trkpt lat="38.348731007426977" lon="-3.529467964544892">
        <ele>713.29999999999995</ele>
        <time>2011-01-04T08:54:49Z</time>
      </trkpt>
      <trkpt lat="38.348823040723801" lon="-3.529623029753566">
        <ele>712.10000000000002</ele>
        <time>2011-01-04T08:54:50Z</time>
      </trkpt>
      <trkpt lat="38.348937034606934" lon="-3.529757978394628">
        <ele>711.29999999999995</ele>
        <time>2011-01-04T08:54:51Z</time>
      </trkpt>
      <trkpt lat="38.349067959934473" lon="-3.529866021126509">
        <ele>710.39999999999998</ele>
        <time>2011-01-04T08:54:52Z</time>
      </trkpt>
      <trkpt lat="38.349212966859341" lon="-3.52995403110981">
        <ele>709.20000000000005</ele>
        <time>2011-01-04T08:54:53Z</time>
      </trkpt>
      <trkpt lat="38.350581983104348" lon="-3.530650986358523">
        <ele>694.79999999999995</ele>
        <time>2011-01-04T08:55:02Z</time>
      </trkpt>
      <trkpt lat="38.350731013342738" lon="-3.530697003006935">
        <ele>693.39999999999998</ele>
        <time>2011-01-04T08:55:03Z</time>
      </trkpt>
      <trkpt lat="38.350878031924367" lon="-3.530695997178555">
        <ele>691.89999999999998</ele>
        <time>2011-01-04T08:55:04Z</time>
      </trkpt>
      <trkpt lat="38.351041981950402" lon="-3.530661966651678">
        <ele>690.5</ele>
        <time>2011-01-04T08:55:05Z</time>
      </trkpt>
      <trkpt lat="38.351196041330695" lon="-3.530612010508776">
        <ele>689.20000000000005</ele>
        <time>2011-01-04T08:55:06Z</time>
      </trkpt>
      <trkpt lat="38.351812027394772" lon="-3.530305987223983">
        <ele>684.60000000000002</ele>
        <time>2011-01-04T08:55:10Z</time>
      </trkpt>
      <trkpt lat="38.352112015709281" lon="-3.530137008056045">
        <ele>682.5</ele>
        <time>2011-01-04T08:55:12Z</time>
      </trkpt>
      <trkpt lat="38.352254005149007" lon="-3.530036006122828">
        <ele>681.5</ele>
        <time>2011-01-04T08:55:13Z</time>
      </trkpt>
      <trkpt lat="38.352385014295578" lon="-3.529918994754553">
        <ele>680.29999999999995</ele>
        <time>2011-01-04T08:55:14Z</time>
      </trkpt>
      <trkpt lat="38.352504959329963" lon="-3.529774993658066">
        <ele>679.29999999999995</ele>
        <time>2011-01-04T08:55:15Z</time>
      </trkpt>
      <trkpt lat="38.352607972919941" lon="-3.529608026146889">
        <ele>678.39999999999998</ele>
        <time>2011-01-04T08:55:16Z</time>
      </trkpt>
      <trkpt lat="38.35286496207118" lon="-3.529072003439069">
        <ele>675.79999999999995</ele>
        <time>2011-01-04T08:55:19Z</time>
      </trkpt>
      <trkpt lat="38.352898992598057" lon="-3.528874022886157">
        <ele>674.10000000000002</ele>
        <time>2011-01-04T08:55:20Z</time>
      </trkpt>
      <trkpt lat="38.353065960109234" lon="-3.527314988896251">
        <ele>665.60000000000002</ele>
        <time>2011-01-04T08:55:28Z</time>
      </trkpt>
      <trkpt lat="38.353078030049801" lon="-3.527104016393423">
        <ele>664.60000000000002</ele>
        <time>2011-01-04T08:55:29Z</time>
      </trkpt>
      <trkpt lat="38.353051962330937" lon="-3.525968017056584">
        <ele>662.10000000000002</ele>
        <time>2011-01-04T08:55:34Z</time>
      </trkpt>
      <trkpt lat="38.353027990087867" lon="-3.525740029290319">
        <ele>661.60000000000002</ele>
        <time>2011-01-04T08:55:35Z</time>
      </trkpt>
      <trkpt lat="38.35299102589488" lon="-3.525521010160446">
        <ele>660.79999999999995</ele>
        <time>2011-01-04T08:55:36Z</time>
      </trkpt>
      <trkpt lat="38.352893041446805" lon="-3.525124965235591">
        <ele>659.39999999999998</ele>
        <time>2011-01-04T08:55:38Z</time>
      </trkpt>
      <trkpt lat="38.352792961522937" lon="-3.524766974151135">
        <ele>658.39999999999998</ele>
        <time>2011-01-04T08:55:40Z</time>
      </trkpt>
      <trkpt lat="38.352762032300234" lon="-3.524591038003564">
        <ele>658</ele>
        <time>2011-01-04T08:55:41Z</time>
      </trkpt>
      <trkpt lat="38.352752979844809" lon="-3.5244130063802">
        <ele>657.5</ele>
        <time>2011-01-04T08:55:42Z</time>
      </trkpt>
      <trkpt lat="38.352767983451486" lon="-3.524234974756837">
        <ele>657</ele>
        <time>2011-01-04T08:55:43Z</time>
      </trkpt>
      <trkpt lat="38.352809976786375" lon="-3.524062978103757">
        <ele>656.60000000000002</ele>
        <time>2011-01-04T08:55:44Z</time>
      </trkpt>
      <trkpt lat="38.352865967899561" lon="-3.523899028077722">
        <ele>656.29999999999995</ele>
        <time>2011-01-04T08:55:45Z</time>
      </trkpt>
      <trkpt lat="38.353030001744628" lon="-3.523414973169565">
        <ele>655.10000000000002</ele>
        <time>2011-01-04T08:55:48Z</time>
      </trkpt>
      <trkpt lat="38.353064032271504" lon="-3.523248005658388">
        <ele>655.10000000000002</ele>
        <time>2011-01-04T08:55:49Z</time>
      </trkpt>
      <trkpt lat="38.353089010342956" lon="-3.52307902649045">
        <ele>655.20000000000005</ele>
        <time>2011-01-04T08:55:50Z</time>
      </trkpt>
      <trkpt lat="38.353199986740947" lon="-3.521921988576651">
        <ele>658.10000000000002</ele>
        <time>2011-01-04T08:55:57Z</time>
      </trkpt>
      <trkpt lat="38.353226976469159" lon="-3.521797014400363">
        <ele>657.60000000000002</ele>
        <time>2011-01-04T08:55:58Z</time>
      </trkpt>
      <trkpt lat="38.353266036137938" lon="-3.521691989153624">
        <ele>657.10000000000002</ele>
        <time>2011-01-04T08:55:59Z</time>
      </trkpt>
      <trkpt lat="38.353323033079505" lon="-3.521605990827084">
        <ele>656.79999999999995</ele>
        <time>2011-01-04T08:56:00Z</time>
      </trkpt>
      <trkpt lat="38.353395033627748" lon="-3.521541031077504">
        <ele>656.39999999999998</ele>
        <time>2011-01-04T08:56:01Z</time>
      </trkpt>
      <trkpt lat="38.353479020297527" lon="-3.52151001803577">
        <ele>655.89999999999998</ele>
        <time>2011-01-04T08:56:02Z</time>
      </trkpt>
      <trkpt lat="38.353568036109209" lon="-3.521512029692531">
        <ele>655.10000000000002</ele>
        <time>2011-01-04T08:56:03Z</time>
      </trkpt>
      <trkpt lat="38.35365797393024" lon="-3.521546982228756">
        <ele>654.29999999999995</ele>
        <time>2011-01-04T08:56:04Z</time>
      </trkpt>
      <trkpt lat="38.353739026933908" lon="-3.52161998860538">
        <ele>653.39999999999998</ele>
        <time>2011-01-04T08:56:05Z</time>
      </trkpt>
      <trkpt lat="38.353832988068461" lon="-3.521777987480164">
        <ele>653.5</ele>
        <time>2011-01-04T08:56:06Z</time>
      </trkpt>
      <trkpt lat="38.353881016373634" lon="-3.521916959434748">
        <ele>653.5</ele>
        <time>2011-01-04T08:56:07Z</time>
      </trkpt>
      <trkpt lat="38.353905994445086" lon="-3.522072024643421">
        <ele>653.39999999999998</ele>
        <time>2011-01-04T08:56:08Z</time>
      </trkpt>
      <trkpt lat="38.353895014151931" lon="-3.522247960790992">
        <ele>653.20000000000005</ele>
        <time>2011-01-04T08:56:09Z</time>
      </trkpt>
      <trkpt lat="38.353724023327231" lon="-3.52415501140058">
        <ele>648.60000000000002</ele>
        <time>2011-01-04T08:56:18Z</time>
      </trkpt>
      <trkpt lat="38.35374397225678" lon="-3.524355003610253">
        <ele>648</ele>
        <time>2011-01-04T08:56:19Z</time>
      </trkpt>
      <trkpt lat="38.35378697142005" lon="-3.524553989991546">
        <ele>647.20000000000005</ele>
        <time>2011-01-04T08:56:20Z</time>
      </trkpt>
      <trkpt lat="38.354737982153893" lon="-3.528109006583691">
        <ele>632.29999999999995</ele>
        <time>2011-01-04T08:56:38Z</time>
      </trkpt>
      <trkpt lat="38.35479699075222" lon="-3.528253007680178">
        <ele>631.39999999999998</ele>
        <time>2011-01-04T08:56:39Z</time>
      </trkpt>
      <trkpt lat="38.354872008785605" lon="-3.528373036533594">
        <ele>629.89999999999998</ele>
        <time>2011-01-04T08:56:40Z</time>
      </trkpt>
      <trkpt lat="38.355046017095447" lon="-3.528604041785002">
        <ele>628.60000000000002</ele>
        <time>2011-01-04T08:56:42Z</time>
      </trkpt>
      <trkpt lat="38.355153976008296" lon="-3.528701020404697">
        <ele>628.10000000000002</ele>
        <time>2011-01-04T08:56:43Z</time>
      </trkpt>
      <trkpt lat="38.355292025953531" lon="-3.528765980154276">
        <ele>627.29999999999995</ele>
        <time>2011-01-04T08:56:44Z</time>
      </trkpt>
      <trkpt lat="38.355853026732802" lon="-3.529001008719206">
        <ele>625</ele>
        <time>2011-01-04T08:56:48Z</time>
      </trkpt>
      <trkpt lat="38.355990992859006" lon="-3.529023975133896">
        <ele>624.20000000000005</ele>
        <time>2011-01-04T08:56:49Z</time>
      </trkpt>
      <trkpt lat="38.356132982298732" lon="-3.529015006497502">
        <ele>623.39999999999998</ele>
        <time>2011-01-04T08:56:50Z</time>
      </trkpt>
      <trkpt lat="38.35642802529037" lon="-3.528934959322214">
        <ele>621.39999999999998</ele>
        <time>2011-01-04T08:56:52Z</time>
      </trkpt>
      <trkpt lat="38.358830027282238" lon="-3.528191987425089">
        <ele>608.39999999999998</ele>
        <time>2011-01-04T08:57:08Z</time>
      </trkpt>
      <trkpt lat="38.358972016721964" lon="-3.528121998533607">
        <ele>607.60000000000002</ele>
        <time>2011-01-04T08:57:09Z</time>
      </trkpt>
      <trkpt lat="38.359108977019787" lon="-3.528025019913912">
        <ele>607.10000000000002</ele>
        <time>2011-01-04T08:57:10Z</time>
      </trkpt>
      <trkpt lat="38.359235040843487" lon="-3.527899961918593">
        <ele>606.29999999999995</ele>
        <time>2011-01-04T08:57:11Z</time>
      </trkpt>
      <trkpt lat="38.359344005584717" lon="-3.527744980528951">
        <ele>605.79999999999995</ele>
        <time>2011-01-04T08:57:12Z</time>
      </trkpt>
      <trkpt lat="38.359434027224779" lon="-3.527565021067858">
        <ele>605.5</ele>
        <time>2011-01-04T08:57:13Z</time>
      </trkpt>
      <trkpt lat="38.359509967267513" lon="-3.527367040514946">
        <ele>605.10000000000002</ele>
        <time>2011-01-04T08:57:14Z</time>
      </trkpt>
      <trkpt lat="38.360173981636763" lon="-3.525309031829238">
        <ele>599.10000000000002</ele>
        <time>2011-01-04T08:57:23Z</time>
      </trkpt>
      <trkpt lat="38.360282024368644" lon="-3.525094036012888">
        <ele>598.29999999999995</ele>
        <time>2011-01-04T08:57:24Z</time>
      </trkpt>
      <trkpt lat="38.361039999872446" lon="-3.523684032261372">
        <ele>593.10000000000002</ele>
        <time>2011-01-04T08:57:31Z</time>
      </trkpt>
      <trkpt lat="38.361160028725863" lon="-3.523513963446021">
        <ele>593</ele>
        <time>2011-01-04T08:57:32Z</time>
      </trkpt>
      <trkpt lat="38.361301012337208" lon="-3.523391000926495">
        <ele>592.5</ele>
        <time>2011-01-04T08:57:33Z</time>
      </trkpt>
      <trkpt lat="38.361452976241708" lon="-3.523309025913477">
        <ele>591.79999999999995</ele>
        <time>2011-01-04T08:57:34Z</time>
      </trkpt>
      <trkpt lat="38.361612986773252" lon="-3.523233002051711">
        <ele>591.20000000000005</ele>
        <time>2011-01-04T08:57:35Z</time>
      </trkpt>
      <trkpt lat="38.367168009281158" lon="-3.52127498947084">
        <ele>588</ele>
        <time>2011-01-04T08:58:06Z</time>
      </trkpt>
      <trkpt lat="38.367309998720884" lon="-3.521174993366003">
        <ele>587.5</ele>
        <time>2011-01-04T08:58:07Z</time>
      </trkpt>
      <trkpt lat="38.367443019524217" lon="-3.521051025018096">
        <ele>587.10000000000002</ele>
        <time>2011-01-04T08:58:08Z</time>
      </trkpt>
      <trkpt lat="38.367570005357265" lon="-3.520901994779706">
        <ele>587</ele>
        <time>2011-01-04T08:58:09Z</time>
      </trkpt>
      <trkpt lat="38.371145976707339" lon="-3.515702029690146">
        <ele>576.5</ele>
        <time>2011-01-04T08:58:37Z</time>
      </trkpt>
      <trkpt lat="38.37149097584188" lon="-3.515081014484167">
        <ele>575</ele>
        <time>2011-01-04T08:58:40Z</time>
      </trkpt>
      <trkpt lat="38.371691973879933" lon="-3.514627972617745">
        <ele>574.39999999999998</ele>
        <time>2011-01-04T08:58:42Z</time>
      </trkpt>
      <trkpt lat="38.371778978034854" lon="-3.514390010386705">
        <ele>574.29999999999995</ele>
        <time>2011-01-04T08:58:43Z</time>
      </trkpt>
      <trkpt lat="38.371919961646199" lon="-3.513893969357014">
        <ele>573.60000000000002</ele>
        <time>2011-01-04T08:58:45Z</time>
      </trkpt>
      <trkpt lat="38.372022975236177" lon="-3.513376973569393">
        <ele>573</ele>
        <time>2011-01-04T08:58:47Z</time>
      </trkpt>
      <trkpt lat="38.372111991047859" lon="-3.512581028044224">
        <ele>571.39999999999998</ele>
        <time>2011-01-04T08:58:50Z</time>
      </trkpt>
      <trkpt lat="38.372238976880908" lon="-3.510796017944813">
        <ele>570.10000000000002</ele>
        <time>2011-01-04T08:58:57Z</time>
      </trkpt>
      <trkpt lat="38.372293962165713" lon="-3.51055302657187">
        <ele>571.10000000000002</ele>
        <time>2011-01-04T08:58:58Z</time>
      </trkpt>
      <trkpt lat="38.372365962713957" lon="-3.51031799800694">
        <ele>571.70000000000005</ele>
        <time>2011-01-04T08:58:59Z</time>
      </trkpt>
      <trkpt lat="38.372455984354019" lon="-3.510094033554196">
        <ele>571.89999999999998</ele>
        <time>2011-01-04T08:59:00Z</time>
      </trkpt>
      <trkpt lat="38.372562015429139" lon="-3.509881971403956">
        <ele>571.79999999999995</ele>
        <time>2011-01-04T08:59:01Z</time>
      </trkpt>
      <trkpt lat="38.372684977948666" lon="-3.509680973365903">
        <ele>571.70000000000005</ele>
        <time>2011-01-04T08:59:02Z</time>
      </trkpt>
      <trkpt lat="38.37282101623714" lon="-3.509492967277765">
        <ele>571.70000000000005</ele>
        <time>2011-01-04T08:59:03Z</time>
      </trkpt>
      <trkpt lat="38.372971974313259" lon="-3.509318036958575">
        <ele>571.5</ele>
        <time>2011-01-04T08:59:04Z</time>
      </trkpt>
      <trkpt lat="38.373137013986707" lon="-3.509160960093141">
        <ele>571.70000000000005</ele>
        <time>2011-01-04T08:59:05Z</time>
      </trkpt>
      <trkpt lat="38.373311022296548" lon="-3.509021988138557">
        <ele>571.39999999999998</ele>
        <time>2011-01-04T08:59:06Z</time>
      </trkpt>
      <trkpt lat="38.373501040041447" lon="-3.508901037275791">
        <ele>571.60000000000002</ele>
        <time>2011-01-04T08:59:07Z</time>
      </trkpt>
      <trkpt lat="38.373699020594358" lon="-3.508801963180304">
        <ele>571.79999999999995</ele>
        <time>2011-01-04T08:59:08Z</time>
      </trkpt>
      <trkpt lat="38.373904963955283" lon="-3.508728034794331">
        <ele>571.79999999999995</ele>
        <time>2011-01-04T08:59:09Z</time>
      </trkpt>
      <trkpt lat="38.374114008620381" lon="-3.508680006489158">
        <ele>571.60000000000002</ele>
        <time>2011-01-04T08:59:10Z</time>
      </trkpt>
      <trkpt lat="38.37432699277997" lon="-3.508658967912197">
        <ele>571.29999999999995</ele>
        <time>2011-01-04T08:59:11Z</time>
      </trkpt>
      <trkpt lat="38.374545006081462" lon="-3.508666008710861">
        <ele>571.10000000000002</ele>
        <time>2011-01-04T08:59:12Z</time>
      </trkpt>
      <trkpt lat="38.374764025211334" lon="-3.508699033409357">
        <ele>571</ele>
        <time>2011-01-04T08:59:13Z</time>
      </trkpt>
      <trkpt lat="38.374981032684445" lon="-3.508757958188653">
        <ele>570.79999999999995</ele>
        <time>2011-01-04T08:59:14Z</time>
      </trkpt>
      <trkpt lat="38.375195022672415" lon="-3.508843034505844">
        <ele>570.70000000000005</ele>
        <time>2011-01-04T08:59:15Z</time>
      </trkpt>
      <trkpt lat="38.375403983518481" lon="-3.508949987590313">
        <ele>570.60000000000002</ele>
        <time>2011-01-04T08:59:16Z</time>
      </trkpt>
      <trkpt lat="38.375603975728154" lon="-3.509077979251742">
        <ele>570.5</ele>
        <time>2011-01-04T08:59:17Z</time>
      </trkpt>
      <trkpt lat="38.376548029482365" lon="-3.509848024696112">
        <ele>571.29999999999995</ele>
        <time>2011-01-04T08:59:22Z</time>
      </trkpt>
      <trkpt lat="38.37752896361053" lon="-3.510628966614604">
        <ele>576.10000000000002</ele>
        <time>2011-01-04T08:59:27Z</time>
      </trkpt>
      <trkpt lat="38.377739014104009" lon="-3.510753018781543">
        <ele>576.70000000000005</ele>
        <time>2011-01-04T08:59:28Z</time>
      </trkpt>
      <trkpt lat="38.378176968544722" lon="-3.510958962142468">
        <ele>577.89999999999998</ele>
        <time>2011-01-04T08:59:30Z</time>
      </trkpt>
      <trkpt lat="38.378402022644877" lon="-3.511038003489375">
        <ele>578.29999999999995</ele>
        <time>2011-01-04T08:59:31Z</time>
      </trkpt>
      <trkpt lat="38.378861015662551" lon="-3.511145040392876">
        <ele>579.20000000000005</ele>
        <time>2011-01-04T08:59:33Z</time>
      </trkpt>
      <trkpt lat="38.379089003428817" lon="-3.511170018464327">
        <ele>579.60000000000002</ele>
        <time>2011-01-04T08:59:34Z</time>
      </trkpt>
      <trkpt lat="38.37931296788156" lon="-3.511174041777849">
        <ele>579.89999999999998</ele>
        <time>2011-01-04T08:59:35Z</time>
      </trkpt>
      <trkpt lat="38.379530981183052" lon="-3.511159038171172">
        <ele>580.20000000000005</ele>
        <time>2011-01-04T08:59:36Z</time>
      </trkpt>
      <trkpt lat="38.379945969209075" lon="-3.511082008481026">
        <ele>580.70000000000005</ele>
        <time>2011-01-04T08:59:38Z</time>
      </trkpt>
      <trkpt lat="38.380145039409399" lon="-3.511020988225937">
        <ele>580.70000000000005</ele>
        <time>2011-01-04T08:59:39Z</time>
      </trkpt>
      <trkpt lat="38.380532031878829" lon="-3.510852009057999">
        <ele>581.70000000000005</ele>
        <time>2011-01-04T08:59:41Z</time>
      </trkpt>
      <trkpt lat="38.380908966064453" lon="-3.510630978271365">
        <ele>582.70000000000005</ele>
        <time>2011-01-04T08:59:43Z</time>
      </trkpt>
      <trkpt lat="38.3810930326581" lon="-3.510497035458684">
        <ele>583.10000000000002</ele>
        <time>2011-01-04T08:59:44Z</time>
      </trkpt>
      <trkpt lat="38.381270980462432" lon="-3.51034096442163">
        <ele>583.60000000000002</ele>
        <time>2011-01-04T08:59:45Z</time>
      </trkpt>
      <trkpt lat="38.381443982943892" lon="-3.510167039930821">
        <ele>584.29999999999995</ele>
        <time>2011-01-04T08:59:46Z</time>
      </trkpt>
      <trkpt lat="38.381766015663743" lon="-3.509773006662726">
        <ele>585.70000000000005</ele>
        <time>2011-01-04T08:59:48Z</time>
      </trkpt>
      <trkpt lat="38.382809981703758" lon="-3.508305000141263">
        <ele>588.20000000000005</ele>
        <time>2011-01-04T08:59:55Z</time>
      </trkpt>
      <trkpt lat="38.382987007498741" lon="-3.508133003488183">
        <ele>588.70000000000005</ele>
        <time>2011-01-04T08:59:56Z</time>
      </trkpt>
      <trkpt lat="38.383173001930118" lon="-3.507981961593032">
        <ele>589.20000000000005</ele>
        <time>2011-01-04T08:59:57Z</time>
      </trkpt>
      <trkpt lat="38.383369976654649" lon="-3.507855981588364">
        <ele>589.79999999999995</ele>
        <time>2011-01-04T08:59:58Z</time>
      </trkpt>
      <trkpt lat="38.383573992177844" lon="-3.50776000879705">
        <ele>590.29999999999995</ele>
        <time>2011-01-04T08:59:59Z</time>
      </trkpt>
      <trkpt lat="38.383784964680672" lon="-3.507692031562328">
        <ele>590.79999999999995</ele>
        <time>2011-01-04T09:00:00Z</time>
      </trkpt>
      <trkpt lat="38.384000966325402" lon="-3.507650038227439">
        <ele>591.70000000000005</ele>
        <time>2011-01-04T09:00:01Z</time>
      </trkpt>
      <trkpt lat="38.384217973798513" lon="-3.507638974115253">
        <ele>593</ele>
        <time>2011-01-04T09:00:02Z</time>
      </trkpt>
      <trkpt lat="38.384435987100005" lon="-3.507651966065168">
        <ele>594.10000000000002</ele>
        <time>2011-01-04T09:00:03Z</time>
      </trkpt>
      <trkpt lat="38.385676005855203" lon="-3.507832009345293">
        <ele>600.20000000000005</ele>
        <time>2011-01-04T09:00:09Z</time>
      </trkpt>
      <trkpt lat="38.385877003893256" lon="-3.507774006575346">
        <ele>602.39999999999998</ele>
        <time>2011-01-04T09:00:10Z</time>
      </trkpt>
      <trkpt lat="38.386075990274549" lon="-3.507690019905567">
        <ele>603.29999999999995</ele>
        <time>2011-01-04T09:00:11Z</time>
      </trkpt>
      <trkpt lat="38.386280005797744" lon="-3.507564961910248">
        <ele>602.60000000000002</ele>
        <time>2011-01-04T09:00:12Z</time>
      </trkpt>
      <trkpt lat="38.391480976715684" lon="-3.504140032455325">
        <ele>624.20000000000005</ele>
        <time>2011-01-04T09:00:40Z</time>
      </trkpt>
      <trkpt lat="38.39222202077508" lon="-3.505137981846929">
        <ele>625.79999999999995</ele>
        <time>2011-01-04T09:00:41Z</time>
      </trkpt>
      <trkpt lat="38.392771035432816" lon="-3.50617197342217">
        <ele>613.39999999999998</ele>
        <time>2011-01-04T09:00:42Z</time>
      </trkpt>
      <trkpt lat="38.392993994057178" lon="-3.506280016154051">
        <ele>619.70000000000005</ele>
        <time>2011-01-04T09:00:43Z</time>
      </trkpt>
      <trkpt lat="38.393229022622108" lon="-3.50630097091198">
        <ele>623.20000000000005</ele>
        <time>2011-01-04T09:00:44Z</time>
      </trkpt>
      <trkpt lat="38.393475031480193" lon="-3.506309017539024">
        <ele>626.10000000000002</ele>
        <time>2011-01-04T09:00:45Z</time>
      </trkpt>
      <trkpt lat="38.39370796456933" lon="-3.506304994225502">
        <ele>628.39999999999998</ele>
        <time>2011-01-04T09:00:46Z</time>
      </trkpt>
      <trkpt lat="38.39439201168716" lon="-3.506228970363736">
        <ele>635.5</ele>
        <time>2011-01-04T09:00:49Z</time>
      </trkpt>
      <trkpt lat="38.39486600831151" lon="-3.506101984530687">
        <ele>636.10000000000002</ele>
        <time>2011-01-04T09:00:51Z</time>
      </trkpt>
      <trkpt lat="38.395564975216985" lon="-3.50582898594439">
        <ele>636.29999999999995</ele>
        <time>2011-01-04T09:00:54Z</time>
      </trkpt>
      <trkpt lat="38.396461000666022" lon="-3.505322970449925">
        <ele>639.79999999999995</ele>
        <time>2011-01-04T09:00:58Z</time>
      </trkpt>
      <trkpt lat="38.397543020546436" lon="-3.504542028531432">
        <ele>643.39999999999998</ele>
        <time>2011-01-04T09:01:03Z</time>
      </trkpt>
      <trkpt lat="38.398168981075287" lon="-3.503995025530458">
        <ele>645.60000000000002</ele>
        <time>2011-01-04T09:01:06Z</time>
      </trkpt>
      <trkpt lat="38.398565026000142" lon="-3.50359202362597">
        <ele>647.20000000000005</ele>
        <time>2011-01-04T09:01:08Z</time>
      </trkpt>
      <trkpt lat="38.398938020691276" lon="-3.503155997022986">
        <ele>649.10000000000002</ele>
        <time>2011-01-04T09:01:10Z</time>
      </trkpt>
      <trkpt lat="38.399114040657878" lon="-3.502923985943198">
        <ele>650.10000000000002</ele>
        <time>2011-01-04T09:01:11Z</time>
      </trkpt>
      <trkpt lat="38.400825960561633" lon="-3.500289972871542">
        <ele>660.79999999999995</ele>
        <time>2011-01-04T09:01:22Z</time>
      </trkpt>
      <trkpt lat="38.400998963043094" lon="-3.500105990096927">
        <ele>661.60000000000002</ele>
        <time>2011-01-04T09:01:23Z</time>
      </trkpt>
      <trkpt lat="38.40118101797998" lon="-3.499941034242511">
        <ele>662.29999999999995</ele>
        <time>2011-01-04T09:01:24Z</time>
      </trkpt>
      <trkpt lat="38.401372963562608" lon="-3.499794015660882">
        <ele>662.89999999999998</ele>
        <time>2011-01-04T09:01:25Z</time>
      </trkpt>
      <trkpt lat="38.401573039591312" lon="-3.499663006514311">
        <ele>663.29999999999995</ele>
        <time>2011-01-04T09:01:26Z</time>
      </trkpt>
      <trkpt lat="38.401780994608998" lon="-3.499551024287939">
        <ele>663.70000000000005</ele>
        <time>2011-01-04T09:01:27Z</time>
      </trkpt>
      <trkpt lat="38.401996996253729" lon="-3.499458990991116">
        <ele>663.89999999999998</ele>
        <time>2011-01-04T09:01:28Z</time>
      </trkpt>
      <trkpt lat="38.402220038697124" lon="-3.499385984614492">
        <ele>663.89999999999998</ele>
        <time>2011-01-04T09:01:29Z</time>
      </trkpt>
      <trkpt lat="38.402448026463389" lon="-3.499333010986447">
        <ele>663.89999999999998</ele>
        <time>2011-01-04T09:01:30Z</time>
      </trkpt>
      <trkpt lat="38.403636999428272" lon="-3.499198984354734">
        <ele>663.89999999999998</ele>
        <time>2011-01-04T09:01:35Z</time>
      </trkpt>
      <trkpt lat="38.40535000897944" lon="-3.499137964099646">
        <ele>666.20000000000005</ele>
        <time>2011-01-04T09:01:42Z</time>
      </trkpt>
      <trkpt lat="38.40560800395906" lon="-3.499320019036531">
        <ele>666.79999999999995</ele>
        <time>2011-01-04T09:01:43Z</time>
      </trkpt>
      <trkpt lat="38.405861975625157" lon="-3.49950903095305">
        <ele>667.29999999999995</ele>
        <time>2011-01-04T09:01:44Z</time>
      </trkpt>
      <trkpt lat="38.406118964776397" lon="-3.499592011794448">
        <ele>667.89999999999998</ele>
        <time>2011-01-04T09:01:45Z</time>
      </trkpt>
      <trkpt lat="38.406869983300567" lon="-3.499758979305625">
        <ele>668</ele>
        <time>2011-01-04T09:01:48Z</time>
      </trkpt>
      <trkpt lat="38.40713300742209" lon="-3.499784041196108">
        <ele>668.10000000000002</ele>
        <time>2011-01-04T09:01:49Z</time>
      </trkpt>
      <trkpt lat="38.407397037371993" lon="-3.499787980690599">
        <ele>667.79999999999995</ele>
        <time>2011-01-04T09:01:50Z</time>
      </trkpt>
      <trkpt lat="38.407665006816387" lon="-3.49977096542716">
        <ele>667.79999999999995</ele>
        <time>2011-01-04T09:01:51Z</time>
      </trkpt>
      <trkpt lat="38.408762030303478" lon="-3.499534009024501">
        <ele>666.39999999999998</ele>
        <time>2011-01-04T09:01:55Z</time>
      </trkpt>
      <trkpt lat="38.412770004943013" lon="-3.498216038569808">
        <ele>675.20000000000005</ele>
        <time>2011-01-04T09:02:10Z</time>
      </trkpt>
      <trkpt lat="38.413034034892917" lon="-3.498193994164467">
        <ele>675.79999999999995</ele>
        <time>2011-01-04T09:02:11Z</time>
      </trkpt>
      <trkpt lat="38.413295969367027" lon="-3.498187037184835">
        <ele>676.60000000000002</ele>
        <time>2011-01-04T09:02:12Z</time>
      </trkpt>
      <trkpt lat="38.413559999316931" lon="-3.498193994164467">
        <ele>677.10000000000002</ele>
        <time>2011-01-04T09:02:13Z</time>
      </trkpt>
      <trkpt lat="38.414085963740945" lon="-3.498250991106033">
        <ele>677.79999999999995</ele>
        <time>2011-01-04T09:02:15Z</time>
      </trkpt>
      <trkpt lat="38.414612011983991" lon="-3.498368002474308">
        <ele>677.70000000000005</ele>
        <time>2011-01-04T09:02:17Z</time>
      </trkpt>
      <trkpt lat="38.414873024448752" lon="-3.498451989144087">
        <ele>677.5</ele>
        <time>2011-01-04T09:02:18Z</time>
      </trkpt>
      <trkpt lat="38.415390020236373" lon="-3.498665979132056">
        <ele>676.79999999999995</ele>
        <time>2011-01-04T09:02:20Z</time>
      </trkpt>
      <trkpt lat="38.415897963568568" lon="-3.498935038223863">
        <ele>675.79999999999995</ele>
        <time>2011-01-04T09:02:22Z</time>
      </trkpt>
      <trkpt lat="38.418642031028867" lon="-3.500531036406755">
        <ele>670.89999999999998</ele>
        <time>2011-01-04T09:02:33Z</time>
      </trkpt>
      <trkpt lat="38.418893991038203" lon="-3.500600019469857">
        <ele>670.79999999999995</ele>
        <time>2011-01-04T09:02:34Z</time>
      </trkpt>
      <trkpt lat="38.419151986017823" lon="-3.500646036118269">
        <ele>670.60000000000002</ele>
        <time>2011-01-04T09:02:35Z</time>
      </trkpt>
      <trkpt lat="38.419414004310966" lon="-3.500666990876198">
        <ele>670.29999999999995</ele>
        <time>2011-01-04T09:02:36Z</time>
      </trkpt>
      <trkpt lat="38.41967904008925" lon="-3.500662967562676">
        <ele>670.10000000000002</ele>
        <time>2011-01-04T09:02:37Z</time>
      </trkpt>
      <trkpt lat="38.419946003705263" lon="-3.500632960349321">
        <ele>670.10000000000002</ele>
        <time>2011-01-04T09:02:38Z</time>
      </trkpt>
      <trkpt lat="38.420212967321277" lon="-3.500579986721277">
        <ele>669.70000000000005</ele>
        <time>2011-01-04T09:02:39Z</time>
      </trkpt>
      <trkpt lat="38.420478003099561" lon="-3.500503040850163">
        <ele>669.20000000000005</ele>
        <time>2011-01-04T09:02:40Z</time>
      </trkpt>
      <trkpt lat="38.421004973351955" lon="-3.500271029770374">
        <ele>669.5</ele>
        <time>2011-01-04T09:02:42Z</time>
      </trkpt>
      <trkpt lat="38.421260034665465" lon="-3.500115964561701">
        <ele>670</ele>
        <time>2011-01-04T09:02:43Z</time>
      </trkpt>
      <trkpt lat="38.421739982441068" lon="-3.499736012890935">
        <ele>671.10000000000002</ele>
        <time>2011-01-04T09:02:45Z</time>
      </trkpt>
      <trkpt lat="38.422695016488433" lon="-3.49895004183054">
        <ele>676.60000000000002</ele>
        <time>2011-01-04T09:02:49Z</time>
      </trkpt>
      <trkpt lat="38.42294798232615" lon="-3.498797994107008">
        <ele>677.70000000000005</ele>
        <time>2011-01-04T09:02:50Z</time>
      </trkpt>
      <trkpt lat="38.423208994790912" lon="-3.498670002445579">
        <ele>678.89999999999998</ele>
        <time>2011-01-04T09:02:51Z</time>
      </trkpt>
      <trkpt lat="38.423476964235306" lon="-3.498567994683981">
        <ele>680</ele>
        <time>2011-01-04T09:02:52Z</time>
      </trkpt>
      <trkpt lat="38.423748034983873" lon="-3.498490964993835">
        <ele>681.10000000000002</ele>
        <time>2011-01-04T09:02:53Z</time>
      </trkpt>
      <trkpt lat="38.4240229614079" lon="-3.498438997194171">
        <ele>682.29999999999995</ele>
        <time>2011-01-04T09:02:54Z</time>
      </trkpt>
      <trkpt lat="38.424298977479339" lon="-3.4984150249511">
        <ele>683.20000000000005</ele>
        <time>2011-01-04T09:02:55Z</time>
      </trkpt>
      <trkpt lat="38.424575999379158" lon="-3.498409995809197">
        <ele>684.39999999999998</ele>
        <time>2011-01-04T09:02:56Z</time>
      </trkpt>
      <trkpt lat="38.424852015450597" lon="-3.49841795861721">
        <ele>685.70000000000005</ele>
        <time>2011-01-04T09:02:57Z</time>
      </trkpt>
      <trkpt lat="38.425679979845881" lon="-3.498446037992835">
        <ele>689.5</ele>
        <time>2011-01-04T09:03:00Z</time>
      </trkpt>
      <trkpt lat="38.42595499008894" lon="-3.498448971658945">
        <ele>690.79999999999995</ele>
        <time>2011-01-04T09:03:01Z</time>
      </trkpt>
      <trkpt lat="38.426230000331998" lon="-3.498443020507693">
        <ele>692.20000000000005</ele>
        <time>2011-01-04T09:03:02Z</time>
      </trkpt>
      <trkpt lat="38.427325012162328" lon="-3.498321985825896">
        <ele>697.60000000000002</ele>
        <time>2011-01-04T09:03:06Z</time>
      </trkpt>
      <trkpt lat="38.434646017849445" lon="-3.496402027085424">
        <ele>698.20000000000005</ele>
        <time>2011-01-04T09:03:33Z</time>
      </trkpt>
      <trkpt lat="38.434910969808698" lon="-3.496404960751534">
        <ele>698.20000000000005</ele>
        <time>2011-01-04T09:03:34Z</time>
      </trkpt>
      <trkpt lat="38.438435979187489" lon="-3.49671701900661">
        <ele>690.10000000000002</ele>
        <time>2011-01-04T09:03:47Z</time>
      </trkpt>
      <trkpt lat="38.438714006915689" lon="-3.496721964329481">
        <ele>689.29999999999995</ele>
        <time>2011-01-04T09:03:48Z</time>
      </trkpt>
      <trkpt lat="38.438993040472269" lon="-3.496710984036326">
        <ele>688.70000000000005</ele>
        <time>2011-01-04T09:03:49Z</time>
      </trkpt>
      <trkpt lat="38.439821004867554" lon="-3.496594978496432">
        <ele>687.70000000000005</ele>
        <time>2011-01-04T09:03:52Z</time>
      </trkpt>
      <trkpt lat="38.442001976072788" lon="-3.496142020449042">
        <ele>689.60000000000002</ele>
        <time>2011-01-04T09:04:00Z</time>
      </trkpt>
      <trkpt lat="38.442282015457749" lon="-3.496146965771914">
        <ele>689.89999999999998</ele>
        <time>2011-01-04T09:04:01Z</time>
      </trkpt>
      <trkpt lat="38.442559959366918" lon="-3.496174039319158">
        <ele>690.20000000000005</ele>
        <time>2011-01-04T09:04:02Z</time>
      </trkpt>
      <trkpt lat="38.442836981266737" lon="-3.496220977976918">
        <ele>690.39999999999998</ele>
        <time>2011-01-04T09:04:03Z</time>
      </trkpt>
      <trkpt lat="38.446105001494288" lon="-3.496945006772876">
        <ele>694.60000000000002</ele>
        <time>2011-01-04T09:04:15Z</time>
      </trkpt>
      <trkpt lat="38.446381017565727" lon="-3.496949030086398">
        <ele>695.10000000000002</ele>
        <time>2011-01-04T09:04:16Z</time>
      </trkpt>
      <trkpt lat="38.446657033637166" lon="-3.496942995116115">
        <ele>695.5</ele>
        <time>2011-01-04T09:04:17Z</time>
      </trkpt>
      <trkpt lat="38.450583033263683" lon="-3.496827995404601">
        <ele>701.70000000000005</ele>
        <time>2011-01-04T09:04:31Z</time>
      </trkpt>
      <trkpt lat="38.450865000486374" lon="-3.496830007061362">
        <ele>702.60000000000002</ele>
        <time>2011-01-04T09:04:32Z</time>
      </trkpt>
      <trkpt lat="38.451705034822226" lon="-3.496891027316451">
        <ele>706.10000000000002</ele>
        <time>2011-01-04T09:04:35Z</time>
      </trkpt>
      <trkpt lat="38.451980967074633" lon="-3.496930003166199">
        <ele>707.5</ele>
        <time>2011-01-04T09:04:36Z</time>
      </trkpt>
      <trkpt lat="38.453320981934667" lon="-3.497249018400908">
        <ele>715.39999999999998</ele>
        <time>2011-01-04T09:04:41Z</time>
      </trkpt>
      <trkpt lat="38.454094966873527" lon="-3.497528973966837">
        <ele>720.29999999999995</ele>
        <time>2011-01-04T09:04:44Z</time>
      </trkpt>
      <trkpt lat="38.464016960933805" lon="-3.502068025991321">
        <ele>763.79999999999995</ele>
        <time>2011-01-04T09:05:23Z</time>
      </trkpt>
      <trkpt lat="38.46426498144865" lon="-3.502116976305842">
        <ele>764.5</ele>
        <time>2011-01-04T09:05:24Z</time>
      </trkpt>
      <trkpt lat="38.464769991114736" lon="-3.502157963812351">
        <ele>765.60000000000002</ele>
        <time>2011-01-04T09:05:26Z</time>
      </trkpt>
      <trkpt lat="38.465025974437594" lon="-3.50215301848948">
        <ele>766</ele>
        <time>2011-01-04T09:05:27Z</time>
      </trkpt>
      <trkpt lat="38.467648001387715" lon="-3.501920001581311">
        <ele>769.29999999999995</ele>
        <time>2011-01-04T09:05:37Z</time>
      </trkpt>
      <trkpt lat="38.467909013852477" lon="-3.501926958560944">
        <ele>769.70000000000005</ele>
        <time>2011-01-04T09:05:38Z</time>
      </trkpt>
      <trkpt lat="38.468171032145619" lon="-3.501953026279807">
        <ele>770.10000000000002</ele>
        <time>2011-01-04T09:05:39Z</time>
      </trkpt>
      <trkpt lat="38.468431960791349" lon="-3.501997031271458">
        <ele>770.39999999999998</ele>
        <time>2011-01-04T09:05:40Z</time>
      </trkpt>
      <trkpt lat="38.475458007305861" lon="-3.503820011392236">
        <ele>782.70000000000005</ele>
        <time>2011-01-04T09:06:07Z</time>
      </trkpt>
      <trkpt lat="38.475583987310529" lon="-3.503810958936811">
        <ele>782</ele>
        <time>2011-01-04T09:06:08Z</time>
      </trkpt>
      <trkpt lat="38.475708961486816" lon="-3.503775000572205">
        <ele>781.29999999999995</ele>
        <time>2011-01-04T09:06:09Z</time>
      </trkpt>
      <trkpt lat="38.475837036967278" lon="-3.503718003630638">
        <ele>780.5</ele>
        <time>2011-01-04T09:06:10Z</time>
      </trkpt>
      <trkpt lat="38.477021986618638" lon="-3.503105035051704">
        <ele>774.10000000000002</ele>
        <time>2011-01-04T09:06:18Z</time>
      </trkpt>
      <trkpt lat="38.477189959958196" lon="-3.503067987039685">
        <ele>772.89999999999998</ele>
        <time>2011-01-04T09:06:19Z</time>
      </trkpt>
      <trkpt lat="38.477366985753179" lon="-3.503051977604628">
        <ele>771.79999999999995</ele>
        <time>2011-01-04T09:06:20Z</time>
      </trkpt>
      <trkpt lat="38.477551974356174" lon="-3.503054995089769">
        <ele>770.60000000000002</ele>
        <time>2011-01-04T09:06:21Z</time>
      </trkpt>
      <trkpt lat="38.479530019685626" lon="-3.503303015604615">
        <ele>761.5</ele>
        <time>2011-01-04T09:06:31Z</time>
      </trkpt>
      <trkpt lat="38.479720037430525" lon="-3.503292035311461">
        <ele>761</ele>
        <time>2011-01-04T09:06:32Z</time>
      </trkpt>
      <trkpt lat="38.479909971356392" lon="-3.503259010612965">
        <ele>760.39999999999998</ele>
        <time>2011-01-04T09:06:33Z</time>
      </trkpt>
      <trkpt lat="38.480099989101291" lon="-3.503201007843018">
        <ele>759.89999999999998</ele>
        <time>2011-01-04T09:06:34Z</time>
      </trkpt>
      <trkpt lat="38.480287995189428" lon="-3.503114003688097">
        <ele>759.70000000000005</ele>
        <time>2011-01-04T09:06:35Z</time>
      </trkpt>
      <trkpt lat="38.480476001277566" lon="-3.503003027290106">
        <ele>759.29999999999995</ele>
        <time>2011-01-04T09:06:36Z</time>
      </trkpt>
      <trkpt lat="38.482931982725859" lon="-3.501474000513554">
        <ele>766.20000000000005</ele>
        <time>2011-01-04T09:06:48Z</time>
      </trkpt>
      <trkpt lat="38.483134992420673" lon="-3.501389008015394">
        <ele>767.10000000000002</ele>
        <time>2011-01-04T09:06:49Z</time>
      </trkpt>
      <trkpt lat="38.484559999778867" lon="-3.500813003629446">
        <ele>772.39999999999998</ele>
        <time>2011-01-04T09:06:56Z</time>
      </trkpt>
      <trkpt lat="38.484776001423597" lon="-3.500751983374357">
        <ele>772.89999999999998</ele>
        <time>2011-01-04T09:06:57Z</time>
      </trkpt>
      <trkpt lat="38.484997032210231" lon="-3.500704038888216">
        <ele>773.20000000000005</ele>
        <time>2011-01-04T09:06:58Z</time>
      </trkpt>
      <trkpt lat="38.485222002491355" lon="-3.500669002532959">
        <ele>773.20000000000005</ele>
        <time>2011-01-04T09:06:59Z</time>
      </trkpt>
      <trkpt lat="38.485688036307693" lon="-3.500632038339973">
        <ele>773.20000000000005</ele>
        <time>2011-01-04T09:07:01Z</time>
      </trkpt>
      <trkpt lat="38.485925998538733" lon="-3.500630026683211">
        <ele>773.10000000000002</ele>
        <time>2011-01-04T09:07:02Z</time>
      </trkpt>
      <trkpt lat="38.486167984083295" lon="-3.500641006976366">
        <ele>773.20000000000005</ele>
        <time>2011-01-04T09:07:03Z</time>
      </trkpt>
      <trkpt lat="38.486663019284606" lon="-3.500704038888216">
        <ele>773.29999999999995</ele>
        <time>2011-01-04T09:07:05Z</time>
      </trkpt>
      <trkpt lat="38.487169034779072" lon="-3.500817026942968">
        <ele>773.29999999999995</ele>
        <time>2011-01-04T09:07:07Z</time>
      </trkpt>
      <trkpt lat="38.496220987290144" lon="-3.503634016960859">
        <ele>780.5</ele>
        <time>2011-01-04T09:07:40Z</time>
      </trkpt>
      <trkpt lat="38.49649197421968" lon="-3.503644997254014">
        <ele>780.89999999999998</ele>
        <time>2011-01-04T09:07:41Z</time>
      </trkpt>
      <trkpt lat="38.496765978634357" lon="-3.503639968112111">
        <ele>781.29999999999995</ele>
        <time>2011-01-04T09:07:42Z</time>
      </trkpt>
      <trkpt lat="38.497315999120474" lon="-3.503576014190912">
        <ele>781.60000000000002</ele>
        <time>2011-01-04T09:07:44Z</time>
      </trkpt>
      <trkpt lat="38.497864007949829" lon="-3.503435030579567">
        <ele>781.89999999999998</ele>
        <time>2011-01-04T09:07:46Z</time>
      </trkpt>
      <trkpt lat="38.49840497598052" lon="-3.503218023106456">
        <ele>782</ele>
        <time>2011-01-04T09:07:48Z</time>
      </trkpt>
      <trkpt lat="38.499729987233877" lon="-3.502448983490467">
        <ele>781.89999999999998</ele>
        <time>2011-01-04T09:07:53Z</time>
      </trkpt>
      <trkpt lat="38.499995023012161" lon="-3.502280004322529">
        <ele>782</ele>
        <time>2011-01-04T09:07:54Z</time>
      </trkpt>
      <trkpt lat="38.514652960002422" lon="-3.491584025323391">
        <ele>815.39999999999998</ele>
        <time>2011-01-04T09:08:53Z</time>
      </trkpt>
      <trkpt lat="38.514944985508919" lon="-3.491446981206536">
        <ele>814.20000000000005</ele>
        <time>2011-01-04T09:08:54Z</time>
      </trkpt>
      <trkpt lat="38.515846962109208" lon="-3.491103993728757">
        <ele>811</ele>
        <time>2011-01-04T09:08:57Z</time>
      </trkpt>
      <trkpt lat="38.516464959830046" lon="-3.490925040096045">
        <ele>809</ele>
        <time>2011-01-04T09:08:59Z</time>
      </trkpt>
      <trkpt lat="38.517411025241017" lon="-3.490751031786203">
        <ele>806.39999999999998</ele>
        <time>2011-01-04T09:09:02Z</time>
      </trkpt>
      <trkpt lat="38.518044026568532" lon="-3.490696968510747">
        <ele>804.5</ele>
        <time>2011-01-04T09:09:04Z</time>
      </trkpt>
      <trkpt lat="38.518357006832957" lon="-3.490686994045973">
        <ele>803.60000000000002</ele>
        <time>2011-01-04T09:09:05Z</time>
      </trkpt>
      <trkpt lat="38.518667975440621" lon="-3.490686994045973">
        <ele>802.70000000000005</ele>
        <time>2011-01-04T09:09:06Z</time>
      </trkpt>
      <trkpt lat="38.519596019759774" lon="-3.490753965452313">
        <ele>800</ele>
        <time>2011-01-04T09:09:09Z</time>
      </trkpt>
      <trkpt lat="38.52051199413836" lon="-3.490915987640619">
        <ele>797.89999999999998</ele>
        <time>2011-01-04T09:09:12Z</time>
      </trkpt>
      <trkpt lat="38.521406007930636" lon="-3.491159984841943">
        <ele>796.39999999999998</ele>
        <time>2011-01-04T09:09:15Z</time>
      </trkpt>
      <trkpt lat="38.524461966007948" lon="-3.492285003885627">
        <ele>790</ele>
        <time>2011-01-04T09:09:26Z</time>
      </trkpt>
      <trkpt lat="38.524996982887387" lon="-3.492517014965415">
        <ele>789.29999999999995</ele>
        <time>2011-01-04T09:09:28Z</time>
      </trkpt>
      <trkpt lat="38.525521019473672" lon="-3.492793031036854">
        <ele>788.20000000000005</ele>
        <time>2011-01-04T09:09:30Z</time>
      </trkpt>
      <trkpt lat="38.525777002796531" lon="-3.492949018254876">
        <ele>787.60000000000002</ele>
        <time>2011-01-04T09:09:31Z</time>
      </trkpt>
      <trkpt lat="38.527955962345004" lon="-3.494407972320914">
        <ele>783.20000000000005</ele>
        <time>2011-01-04T09:09:40Z</time>
      </trkpt>
      <trkpt lat="38.528198031708598" lon="-3.494516015052795">
        <ele>782.89999999999998</ele>
        <time>2011-01-04T09:09:41Z</time>
      </trkpt>
      <trkpt lat="38.528444962576032" lon="-3.494598995894194">
        <ele>782.5</ele>
        <time>2011-01-04T09:09:42Z</time>
      </trkpt>
      <trkpt lat="38.5286970064044" lon="-3.494653981178999">
        <ele>781.89999999999998</ele>
        <time>2011-01-04T09:09:43Z</time>
      </trkpt>
      <trkpt lat="38.528953995555639" lon="-3.494681976735592">
        <ele>781.39999999999998</ele>
        <time>2011-01-04T09:09:44Z</time>
      </trkpt>
      <trkpt lat="38.529215008020401" lon="-3.494680970907211">
        <ele>780.89999999999998</ele>
        <time>2011-01-04T09:09:45Z</time>
      </trkpt>
      <trkpt lat="38.529478032141924" lon="-3.494653981178999">
        <ele>780.5</ele>
        <time>2011-01-04T09:09:46Z</time>
      </trkpt>
      <trkpt lat="38.563827993348241" lon="-3.488672990351915">
        <ele>771.20000000000005</ele>
        <time>2011-01-04T09:11:43Z</time>
      </trkpt>
      <trkpt lat="38.564099986106157" lon="-3.48857500590384">
        <ele>771.5</ele>
        <time>2011-01-04T09:11:44Z</time>
      </trkpt>
      <trkpt lat="38.564367033541203" lon="-3.488452965393663">
        <ele>771.79999999999995</ele>
        <time>2011-01-04T09:11:45Z</time>
      </trkpt>
      <trkpt lat="38.564882017672062" lon="-3.488139985129237">
        <ele>772.20000000000005</ele>
        <time>2011-01-04T09:11:47Z</time>
      </trkpt>
      <trkpt lat="38.569187968969345" lon="-3.485354008153081">
        <ele>773.70000000000005</ele>
        <time>2011-01-04T09:12:04Z</time>
      </trkpt>
      <trkpt lat="38.569463985040784" lon="-3.485239008441567">
        <ele>773.20000000000005</ele>
        <time>2011-01-04T09:12:05Z</time>
      </trkpt>
      <trkpt lat="38.573962971568108" lon="-3.483763039112091">
        <ele>777.5</ele>
        <time>2011-01-04T09:12:21Z</time>
      </trkpt>
      <trkpt lat="38.579482035711408" lon="-3.482209034264088">
        <ele>804.70000000000005</ele>
        <time>2011-01-04T09:12:41Z</time>
      </trkpt>
      <trkpt lat="38.579754028469324" lon="-3.482158994302154">
        <ele>806.29999999999995</ele>
        <time>2011-01-04T09:12:42Z</time>
      </trkpt>
      <trkpt lat="38.580028032884002" lon="-3.482134016230702">
        <ele>807.60000000000002</ele>
        <time>2011-01-04T09:12:43Z</time>
      </trkpt>
      <trkpt lat="38.580302959308028" lon="-3.482130998745561">
        <ele>808.79999999999995</ele>
        <time>2011-01-04T09:12:44Z</time>
      </trkpt>
      <trkpt lat="38.580577969551086" lon="-3.482146002352238">
        <ele>809.70000000000005</ele>
        <time>2011-01-04T09:12:45Z</time>
      </trkpt>
      <trkpt lat="38.581118015572429" lon="-3.482175003737211">
        <ele>811.10000000000002</ele>
        <time>2011-01-04T09:12:47Z</time>
      </trkpt>
      <trkpt lat="38.581384979188442" lon="-3.48217198625207">
        <ele>811.60000000000002</ele>
        <time>2011-01-04T09:12:48Z</time>
      </trkpt>
      <trkpt lat="38.581653032451868" lon="-3.482152037322521">
        <ele>812</ele>
        <time>2011-01-04T09:12:49Z</time>
      </trkpt>
      <trkpt lat="38.58191798441112" lon="-3.48210702650249">
        <ele>812.29999999999995</ele>
        <time>2011-01-04T09:12:50Z</time>
      </trkpt>
      <trkpt lat="38.582180002704263" lon="-3.482034020125866">
        <ele>812.79999999999995</ele>
        <time>2011-01-04T09:12:51Z</time>
      </trkpt>
      <trkpt lat="38.582437997683883" lon="-3.481937041506171">
        <ele>812.89999999999998</ele>
        <time>2011-01-04T09:12:52Z</time>
      </trkpt>
      <trkpt lat="38.5826909635216" lon="-3.481810977682471">
        <ele>812.70000000000005</ele>
        <time>2011-01-04T09:12:53Z</time>
      </trkpt>
      <trkpt lat="38.582936972379684" lon="-3.48165599629283">
        <ele>812.29999999999995</ele>
        <time>2011-01-04T09:12:54Z</time>
      </trkpt>
      <trkpt lat="38.583174012601376" lon="-3.481476036831737">
        <ele>811.79999999999995</ele>
        <time>2011-01-04T09:12:55Z</time>
      </trkpt>
      <trkpt lat="38.583396971225739" lon="-3.481272021308541">
        <ele>811.5</ele>
        <time>2011-01-04T09:12:56Z</time>
      </trkpt>
      <trkpt lat="38.583604004234076" lon="-3.481047973036766">
        <ele>811.10000000000002</ele>
        <time>2011-01-04T09:12:57Z</time>
      </trkpt>
      <trkpt lat="38.583797961473465" lon="-3.480801964178681">
        <ele>810.29999999999995</ele>
        <time>2011-01-04T09:12:58Z</time>
      </trkpt>
      <trkpt lat="38.584154024720192" lon="-3.480250015854836">
        <ele>808.29999999999995</ele>
        <time>2011-01-04T09:13:00Z</time>
      </trkpt>
      <trkpt lat="38.587893024086952" lon="-3.473300999030471">
        <ele>785.79999999999995</ele>
        <time>2011-01-04T09:13:23Z</time>
      </trkpt>
      <trkpt lat="38.58810399658978" lon="-3.473050966858864">
        <ele>784.70000000000005</ele>
        <time>2011-01-04T09:13:24Z</time>
      </trkpt>
      <trkpt lat="38.588329972699285" lon="-3.472819961607456">
        <ele>783.79999999999995</ele>
        <time>2011-01-04T09:13:25Z</time>
      </trkpt>
      <trkpt lat="38.588571036234498" lon="-3.47261100076139">
        <ele>783</ele>
        <time>2011-01-04T09:13:26Z</time>
      </trkpt>
      <trkpt lat="38.588821990415454" lon="-3.472422994673252">
        <ele>782</ele>
        <time>2011-01-04T09:13:27Z</time>
      </trkpt>
      <trkpt lat="38.589084008708596" lon="-3.472258038818836">
        <ele>781.39999999999998</ele>
        <time>2011-01-04T09:13:28Z</time>
      </trkpt>
      <trkpt lat="38.589354995638132" lon="-3.472115965560079">
        <ele>780.79999999999995</ele>
        <time>2011-01-04T09:13:29Z</time>
      </trkpt>
      <trkpt lat="38.589636040851474" lon="-3.471999038010836">
        <ele>780.79999999999995</ele>
        <time>2011-01-04T09:13:30Z</time>
      </trkpt>
      <trkpt lat="38.589922031387687" lon="-3.471907004714012">
        <ele>780.60000000000002</ele>
        <time>2011-01-04T09:13:31Z</time>
      </trkpt>
      <trkpt lat="38.59021196141839" lon="-3.471841961145401">
        <ele>780.39999999999998</ele>
        <time>2011-01-04T09:13:32Z</time>
      </trkpt>
      <trkpt lat="38.590504992753267" lon="-3.471802985295653">
        <ele>780.10000000000002</ele>
        <time>2011-01-04T09:13:33Z</time>
      </trkpt>
      <trkpt lat="38.590801963582635" lon="-3.471787981688976">
        <ele>779.70000000000005</ele>
        <time>2011-01-04T09:13:34Z</time>
      </trkpt>
      <trkpt lat="38.591100024059415" lon="-3.47179401665926">
        <ele>779.20000000000005</ele>
        <time>2011-01-04T09:13:35Z</time>
      </trkpt>
      <trkpt lat="38.59169103205204" lon="-3.471825029700995">
        <ele>777.60000000000002</ele>
        <time>2011-01-04T09:13:37Z</time>
      </trkpt>
      <trkpt lat="38.591984985396266" lon="-3.471826035529375">
        <ele>776.70000000000005</ele>
        <time>2011-01-04T09:13:38Z</time>
      </trkpt>
      <trkpt lat="38.592279022559524" lon="-3.471808014437556">
        <ele>776</ele>
        <time>2011-01-04T09:13:39Z</time>
      </trkpt>
      <trkpt lat="38.592865001410246" lon="-3.47170801833272">
        <ele>774.70000000000005</ele>
        <time>2011-01-04T09:13:41Z</time>
      </trkpt>
      <trkpt lat="38.60374404117465" lon="-3.467920990660787">
        <ele>768.79999999999995</ele>
        <time>2011-01-04T09:14:18Z</time>
      </trkpt>
      <trkpt lat="38.604012010619044" lon="-3.467822000384331">
        <ele>769.60000000000002</ele>
        <time>2011-01-04T09:14:19Z</time>
      </trkpt>
      <trkpt lat="38.605048013851047" lon="-3.467337023466826">
        <ele>772.10000000000002</ele>
        <time>2011-01-04T09:14:23Z</time>
      </trkpt>
      <trkpt lat="38.607756961137056" lon="-3.46549903973937">
        <ele>777.89999999999998</ele>
        <time>2011-01-04T09:14:34Z</time>
      </trkpt>
      <trkpt lat="38.608025014400482" lon="-3.465411029756069">
        <ele>778.29999999999995</ele>
        <time>2011-01-04T09:14:35Z</time>
      </trkpt>
      <trkpt lat="38.608298012986779" lon="-3.465346992015839">
        <ele>778.60000000000002</ele>
        <time>2011-01-04T09:14:36Z</time>
      </trkpt>
      <trkpt lat="38.608575034886599" lon="-3.465308016166091">
        <ele>778.89999999999998</ele>
        <time>2011-01-04T09:14:37Z</time>
      </trkpt>
      <trkpt lat="38.608852978795767" lon="-3.465295024216175">
        <ele>779</ele>
        <time>2011-01-04T09:14:38Z</time>
      </trkpt>
      <trkpt lat="38.609135029837489" lon="-3.46530701033771">
        <ele>778.89999999999998</ele>
        <time>2011-01-04T09:14:39Z</time>
      </trkpt>
      <trkpt lat="38.60969896428287" lon="-3.465390997007489">
        <ele>778.29999999999995</ele>
        <time>2011-01-04T09:14:41Z</time>
      </trkpt>
      <trkpt lat="38.612278997898102" lon="-3.465825011953712">
        <ele>770.29999999999995</ele>
        <time>2011-01-04T09:14:50Z</time>
      </trkpt>
      <trkpt lat="38.612561970949173" lon="-3.465825011953712">
        <ele>769.20000000000005</ele>
        <time>2011-01-04T09:14:51Z</time>
      </trkpt>
      <trkpt lat="38.613701993599534" lon="-3.46569299697876">
        <ele>763.70000000000005</ele>
        <time>2011-01-04T09:14:55Z</time>
      </trkpt>
      <trkpt lat="38.614545967429876" lon="-3.465511025860906">
        <ele>759.20000000000005</ele>
        <time>2011-01-04T09:14:58Z</time>
      </trkpt>
      <trkpt lat="38.614815026521683" lon="-3.46541496925056">
        <ele>758</ele>
        <time>2011-01-04T09:14:59Z</time>
      </trkpt>
      <trkpt lat="38.615072015672922" lon="-3.465289995074272">
        <ele>756.70000000000005</ele>
        <time>2011-01-04T09:15:00Z</time>
      </trkpt>
      <trkpt lat="38.617828991264105" lon="-3.463515965268016">
        <ele>748.60000000000002</ele>
        <time>2011-01-04T09:15:11Z</time>
      </trkpt>
      <trkpt lat="38.618099978193641" lon="-3.463426027446985">
        <ele>748.10000000000002</ele>
        <time>2011-01-04T09:15:12Z</time>
      </trkpt>
      <trkpt lat="38.618375994265079" lon="-3.463354026898742">
        <ele>747.60000000000002</ele>
        <time>2011-01-04T09:15:13Z</time>
      </trkpt>
      <trkpt lat="38.618656033650041" lon="-3.463299963623285">
        <ele>747.20000000000005</ele>
        <time>2011-01-04T09:15:14Z</time>
      </trkpt>
      <trkpt lat="38.618940012529492" lon="-3.463264005258679">
        <ele>746.60000000000002</ele>
        <time>2011-01-04T09:15:15Z</time>
      </trkpt>
      <trkpt lat="38.619227008894086" lon="-3.463247995823622">
        <ele>746</ele>
        <time>2011-01-04T09:15:16Z</time>
      </trkpt>
      <trkpt lat="38.619516016915441" lon="-3.463246989995241">
        <ele>745.29999999999995</ele>
        <time>2011-01-04T09:15:17Z</time>
      </trkpt>
      <trkpt lat="38.619806030765176" lon="-3.463257970288396">
        <ele>744.39999999999998</ele>
        <time>2011-01-04T09:15:18Z</time>
      </trkpt>
      <trkpt lat="38.627097029238939" lon="-3.463901029899716">
        <ele>741.29999999999995</ele>
        <time>2011-01-04T09:15:42Z</time>
      </trkpt>
      <trkpt lat="38.627395005896688" lon="-3.463954003527761">
        <ele>741.29999999999995</ele>
        <time>2011-01-04T09:15:43Z</time>
      </trkpt>
      <trkpt lat="38.62798199057579" lon="-3.464108984917402">
        <ele>741</ele>
        <time>2011-01-04T09:15:45Z</time>
      </trkpt>
      <trkpt lat="38.628269992768764" lon="-3.464214010164142">
        <ele>740.29999999999995</ele>
        <time>2011-01-04T09:15:46Z</time>
      </trkpt>
      <trkpt lat="38.628833005204797" lon="-3.464473010972142">
        <ele>738.79999999999995</ele>
        <time>2011-01-04T09:15:48Z</time>
      </trkpt>
      <trkpt lat="38.629108015447855" lon="-3.464624974876642">
        <ele>738.10000000000002</ele>
        <time>2011-01-04T09:15:49Z</time>
      </trkpt>
      <trkpt lat="38.629646971821785" lon="-3.464970979839563">
        <ele>736.79999999999995</ele>
        <time>2011-01-04T09:15:51Z</time>
      </trkpt>
      <trkpt lat="38.630163967609406" lon="-3.465373981744051">
        <ele>735.5</ele>
        <time>2011-01-04T09:15:53Z</time>
      </trkpt>
      <trkpt lat="38.630654979497194" lon="-3.465832974761725">
        <ele>734.39999999999998</ele>
        <time>2011-01-04T09:15:55Z</time>
      </trkpt>
      <trkpt lat="38.641825960949063" lon="-3.477622959762812">
        <ele>720</ele>
        <time>2011-01-04T09:16:42Z</time>
      </trkpt>
      <trkpt lat="38.64209602586925" lon="-3.477797973901033">
        <ele>719.70000000000005</ele>
        <time>2011-01-04T09:16:43Z</time>
      </trkpt>
      <trkpt lat="38.642373969778419" lon="-3.477949015796185">
        <ele>719.5</ele>
        <time>2011-01-04T09:16:44Z</time>
      </trkpt>
      <trkpt lat="38.64295600913465" lon="-3.47817700356245">
        <ele>718.60000000000002</ele>
        <time>2011-01-04T09:16:46Z</time>
      </trkpt>
      <trkpt lat="38.64325599744916" lon="-3.478255961090326">
        <ele>718.10000000000002</ele>
        <time>2011-01-04T09:16:47Z</time>
      </trkpt>
      <trkpt lat="38.643561014905572" lon="-3.478312036022544">
        <ele>717.5</ele>
        <time>2011-01-04T09:16:48Z</time>
      </trkpt>
      <trkpt lat="38.644181024283171" lon="-3.478343971073628">
        <ele>716.5</ele>
        <time>2011-01-04T09:16:50Z</time>
      </trkpt>
      <trkpt lat="38.644492998719215" lon="-3.478323016315699">
        <ele>716.10000000000002</ele>
        <time>2011-01-04T09:16:51Z</time>
      </trkpt>
      <trkpt lat="38.645114013925195" lon="-3.478203993290663">
        <ele>715.60000000000002</ele>
        <time>2011-01-04T09:16:53Z</time>
      </trkpt>
      <trkpt lat="38.645717008039355" lon="-3.477991009131074">
        <ele>715.60000000000002</ele>
        <time>2011-01-04T09:16:55Z</time>
      </trkpt>
      <trkpt lat="38.646010039374232" lon="-3.477848013862968">
        <ele>715.60000000000002</ele>
        <time>2011-01-04T09:16:56Z</time>
      </trkpt>
      <trkpt lat="38.646575985476375" lon="-3.477482981979847">
        <ele>715.5</ele>
        <time>2011-01-04T09:16:58Z</time>
      </trkpt>
      <trkpt lat="38.64684697240591" lon="-3.477264968678355">
        <ele>715.39999999999998</ele>
        <time>2011-01-04T09:16:59Z</time>
      </trkpt>
      <trkpt lat="38.64710203371942" lon="-3.477028012275696">
        <ele>715.29999999999995</ele>
        <time>2011-01-04T09:17:00Z</time>
      </trkpt>
      <trkpt lat="38.647345025092363" lon="-3.476768005639315">
        <ele>715.39999999999998</ele>
        <time>2011-01-04T09:17:01Z</time>
      </trkpt>
      <trkpt lat="38.647791026160121" lon="-3.476183032616973">
        <ele>715.10000000000002</ele>
        <time>2011-01-04T09:17:03Z</time>
      </trkpt>
      <trkpt lat="38.647994035854936" lon="-3.475862005725503">
        <ele>715.20000000000005</ele>
        <time>2011-01-04T09:17:04Z</time>
      </trkpt>
      <trkpt lat="38.648356972262263" lon="-3.475172007456422">
        <ele>715.29999999999995</ele>
        <time>2011-01-04T09:17:06Z</time>
      </trkpt>
      <trkpt lat="38.648514971137047" lon="-3.474807981401682">
        <ele>715.60000000000002</ele>
        <time>2011-01-04T09:17:07Z</time>
      </trkpt>
      <trkpt lat="38.653147984296083" lon="-3.462167987599969">
        <ele>729.60000000000002</ele>
        <time>2011-01-04T09:17:42Z</time>
      </trkpt>
      <trkpt lat="38.653329033404589" lon="-3.461863975971937">
        <ele>730.70000000000005</ele>
        <time>2011-01-04T09:17:43Z</time>
      </trkpt>
      <trkpt lat="38.653520978987217" lon="-3.461571028456092">
        <ele>731.79999999999995</ele>
        <time>2011-01-04T09:17:44Z</time>
      </trkpt>
      <trkpt lat="38.653726000338793" lon="-3.461293000727892">
        <ele>732.60000000000002</ele>
        <time>2011-01-04T09:17:45Z</time>
      </trkpt>
      <trkpt lat="38.653944013640285" lon="-3.46103098243475">
        <ele>733.39999999999998</ele>
        <time>2011-01-04T09:17:46Z</time>
      </trkpt>
      <trkpt lat="38.654412981122732" lon="-3.460546005517244">
        <ele>734.89999999999998</ele>
        <time>2011-01-04T09:17:48Z</time>
      </trkpt>
      <trkpt lat="38.655187971889973" lon="-3.459891965612769">
        <ele>738.89999999999998</ele>
        <time>2011-01-04T09:17:51Z</time>
      </trkpt>
      <trkpt lat="38.709077993407845" lon="-3.419110989198089">
        <ele>705.79999999999995</ele>
        <time>2011-01-04T09:21:09Z</time>
      </trkpt>
      <trkpt lat="38.709358032792807" lon="-3.418946033343673">
        <ele>705.39999999999998</ele>
        <time>2011-01-04T09:21:10Z</time>
      </trkpt>
      <trkpt lat="38.709936970844865" lon="-3.418659036979079">
        <ele>704.60000000000002</ele>
        <time>2011-01-04T09:21:12Z</time>
      </trkpt>
      <trkpt lat="38.710532002151012" lon="-3.418423002585769">
        <ele>703.70000000000005</ele>
        <time>2011-01-04T09:21:14Z</time>
      </trkpt>
      <trkpt lat="38.711443031206727" lon="-3.418164001777768">
        <ele>702.79999999999995</ele>
        <time>2011-01-04T09:21:17Z</time>
      </trkpt>
      <trkpt lat="38.712060023099184" lon="-3.418049002066255">
        <ele>702.20000000000005</ele>
        <time>2011-01-04T09:21:19Z</time>
      </trkpt>
      <trkpt lat="38.728010030463338" lon="-3.416983997449279">
        <ele>702</ele>
        <time>2011-01-04T09:22:11Z</time>
      </trkpt>
      <trkpt lat="38.728312030434608" lon="-3.416972011327744">
        <ele>702.29999999999995</ele>
        <time>2011-01-04T09:22:12Z</time>
      </trkpt>
      <trkpt lat="38.728909995406866" lon="-3.416968993842602">
        <ele>702.89999999999998</ele>
        <time>2011-01-04T09:22:14Z</time>
      </trkpt>
      <trkpt lat="38.737794980406761" lon="-3.41840498149395">
        <ele>696.89999999999998</ele>
        <time>2011-01-04T09:22:44Z</time>
      </trkpt>
      <trkpt lat="38.749088002368808" lon="-3.420264003798366">
        <ele>693.39999999999998</ele>
        <time>2011-01-04T09:23:21Z</time>
      </trkpt>
      <trkpt lat="38.749398970976472" lon="-3.420261992141604">
        <ele>693.20000000000005</ele>
        <time>2011-01-04T09:23:22Z</time>
      </trkpt>
      <trkpt lat="38.750021997839212" lon="-3.420198038220406">
        <ele>693</ele>
        <time>2011-01-04T09:23:24Z</time>
      </trkpt>
      <trkpt lat="38.750330032780766" lon="-3.420129977166653">
        <ele>693.10000000000002</ele>
        <time>2011-01-04T09:23:25Z</time>
      </trkpt>
      <trkpt lat="38.750931015238166" lon="-3.419919004663825">
        <ele>692.79999999999995</ele>
        <time>2011-01-04T09:23:27Z</time>
      </trkpt>
      <trkpt lat="38.751514982432127" lon="-3.419632008299232">
        <ele>692.39999999999998</ele>
        <time>2011-01-04T09:23:29Z</time>
      </trkpt>
      <trkpt lat="38.75235996209085" lon="-3.419077964499593">
        <ele>691.70000000000005</ele>
        <time>2011-01-04T09:23:32Z</time>
      </trkpt>
      <trkpt lat="38.785286005586386" lon="-3.392240032553673">
        <ele>714.79999999999995</ele>
        <time>2011-01-04T09:25:39Z</time>
      </trkpt>
      <trkpt lat="38.785571996122599" lon="-3.392116986215115">
        <ele>715.79999999999995</ele>
        <time>2011-01-04T09:25:40Z</time>
      </trkpt>
      <trkpt lat="38.785864021629095" lon="-3.392019001767039">
        <ele>716.89999999999998</ele>
        <time>2011-01-04T09:25:41Z</time>
      </trkpt>
      <trkpt lat="38.786158980801702" lon="-3.391943983733654">
        <ele>717.79999999999995</ele>
        <time>2011-01-04T09:25:42Z</time>
      </trkpt>
      <trkpt lat="38.786457041278481" lon="-3.391894027590752">
        <ele>718.5</ele>
        <time>2011-01-04T09:25:43Z</time>
      </trkpt>
      <trkpt lat="38.786757029592991" lon="-3.391865026205778">
        <ele>719.20000000000005</ele>
        <time>2011-01-04T09:25:44Z</time>
      </trkpt>
      <trkpt lat="38.787058023735881" lon="-3.391857985407114">
        <ele>720</ele>
        <time>2011-01-04T09:25:45Z</time>
      </trkpt>
      <trkpt lat="38.787359017878771" lon="-3.391869971528649">
        <ele>720.79999999999995</ele>
        <time>2011-01-04T09:25:46Z</time>
      </trkpt>
      <trkpt lat="38.787957988679409" lon="-3.39195697568357">
        <ele>722.60000000000002</ele>
        <time>2011-01-04T09:25:48Z</time>
      </trkpt>
      <trkpt lat="38.807753026485443" lon="-3.396266028285027">
        <ele>700.79999999999995</ele>
        <time>2011-01-04T09:26:52Z</time>
      </trkpt>
      <trkpt lat="38.808075981214643" lon="-3.396266028285027">
        <ele>700.70000000000005</ele>
        <time>2011-01-04T09:26:53Z</time>
      </trkpt>
      <trkpt lat="38.808399019762874" lon="-3.396257981657982">
        <ele>700.5</ele>
        <time>2011-01-04T09:26:54Z</time>
      </trkpt>
      <trkpt lat="38.98205503821373" lon="-3.381295027211309">
        <ele>628.10000000000002</ele>
        <time>2011-01-04T09:36:11Z</time>
      </trkpt>
      <trkpt lat="38.982367012649775" lon="-3.381289998069406">
        <ele>628.39999999999998</ele>
        <time>2011-01-04T09:36:12Z</time>
      </trkpt>
      <trkpt lat="38.982677981257439" lon="-3.381297960877419">
        <ele>628.60000000000002</ele>
        <time>2011-01-04T09:36:13Z</time>
      </trkpt>
      <trkpt lat="38.983291033655405" lon="-3.381361998617649">
        <ele>629.70000000000005</ele>
        <time>2011-01-04T09:36:15Z</time>
      </trkpt>
      <trkpt lat="38.983891010284424" lon="-3.381487978622317">
        <ele>632</ele>
        <time>2011-01-04T09:36:17Z</time>
      </trkpt>
      <trkpt lat="38.984474977478385" lon="-3.381670033559203">
        <ele>633.89999999999998</ele>
        <time>2011-01-04T09:36:19Z</time>
      </trkpt>
      <trkpt lat="38.984759962186217" lon="-3.381785033270717">
        <ele>634.89999999999998</ele>
        <time>2011-01-04T09:36:20Z</time>
      </trkpt>
      <trkpt lat="38.985319035127759" lon="-3.382055014371872">
        <ele>636.70000000000005</ele>
        <time>2011-01-04T09:36:22Z</time>
      </trkpt>
      <trkpt lat="38.986127972602844" lon="-3.382548959925771">
        <ele>639.79999999999995</ele>
        <time>2011-01-04T09:36:25Z</time>
      </trkpt>
      <trkpt lat="38.986646980047226" lon="-3.382930001243949">
        <ele>641.39999999999998</ele>
        <time>2011-01-04T09:36:27Z</time>
      </trkpt>
      <trkpt lat="38.986898018047214" lon="-3.383139967918396">
        <ele>642.29999999999995</ele>
        <time>2011-01-04T09:36:28Z</time>
      </trkpt>
      <trkpt lat="38.987601008266211" lon="-3.38383499532938">
        <ele>645.60000000000002</ele>
        <time>2011-01-04T09:36:31Z</time>
      </trkpt>
      <trkpt lat="38.992006033658981" lon="-3.388280002400279">
        <ele>648.70000000000005</ele>
        <time>2011-01-04T09:36:50Z</time>
      </trkpt>
      <trkpt lat="38.992271991446614" lon="-3.388470020145178">
        <ele>648.39999999999998</ele>
        <time>2011-01-04T09:36:51Z</time>
      </trkpt>
      <trkpt lat="38.993100039660931" lon="-3.3889489620924">
        <ele>648</ele>
        <time>2011-01-04T09:36:54Z</time>
      </trkpt>
      <trkpt lat="38.993667997419834" lon="-3.389194970950484">
        <ele>647.89999999999998</ele>
        <time>2011-01-04T09:36:56Z</time>
      </trkpt>
      <trkpt lat="38.994835009798408" lon="-3.389555979520083">
        <ele>648.39999999999998</ele>
        <time>2011-01-04T09:37:00Z</time>
      </trkpt>
      <trkpt lat="38.995432974770665" lon="-3.389664022251964">
        <ele>648.79999999999995</ele>
        <time>2011-01-04T09:37:02Z</time>
      </trkpt>
      <trkpt lat="38.996648015454412" lon="-3.389738034456968">
        <ele>649</ele>
        <time>2011-01-04T09:37:06Z</time>
      </trkpt>
      <trkpt lat="38.996955966576934" lon="-3.389729987829924">
        <ele>649.39999999999998</ele>
        <time>2011-01-04T09:37:07Z</time>
      </trkpt>
      <trkpt lat="38.997879987582564" lon="-3.389606019482017">
        <ele>650.60000000000002</ele>
        <time>2011-01-04T09:37:10Z</time>
      </trkpt>
      <trkpt lat="38.998183999210596" lon="-3.389526978135109">
        <ele>651.60000000000002</ele>
        <time>2011-01-04T09:37:11Z</time>
      </trkpt>
      <trkpt lat="38.999077007174492" lon="-3.389192037284374">
        <ele>652.5</ele>
        <time>2011-01-04T09:37:14Z</time>
      </trkpt>
      <trkpt lat="38.999365009367466" lon="-3.38905499316752">
        <ele>652.89999999999998</ele>
        <time>2011-01-04T09:37:15Z</time>
      </trkpt>
      <trkpt lat="39.000747017562389" lon="-3.388214036822319">
        <ele>656.10000000000002</ele>
        <time>2011-01-04T09:37:20Z</time>
      </trkpt>
      <trkpt lat="39.001521002501249" lon="-3.387582041323185">
        <ele>659</ele>
        <time>2011-01-04T09:37:23Z</time>
      </trkpt>
      <trkpt lat="39.002487016841769" lon="-3.386605968698859">
        <ele>661.60000000000002</ele>
        <time>2011-01-04T09:37:27Z</time>
      </trkpt>
      <trkpt lat="39.013311993330717" lon="-3.374797040596604">
        <ele>658.20000000000005</ele>
        <time>2011-01-04T09:38:13Z</time>
      </trkpt>
      <trkpt lat="39.013577029109001" lon="-3.3745969645679">
        <ele>658.29999999999995</ele>
        <time>2011-01-04T09:38:14Z</time>
      </trkpt>
      <trkpt lat="39.014129983261228" lon="-3.374237967655063">
        <ele>658.70000000000005</ele>
        <time>2011-01-04T09:38:16Z</time>
      </trkpt>
      <trkpt lat="39.014415973797441" lon="-3.37408198043704">
        <ele>658.79999999999995</ele>
        <time>2011-01-04T09:38:17Z</time>
      </trkpt>
      <trkpt lat="39.014996001496911" lon="-3.373817028477788">
        <ele>657.60000000000002</ele>
        <time>2011-01-04T09:38:19Z</time>
      </trkpt>
      <trkpt lat="39.015604024752975" lon="-3.373612007126212">
        <ele>657.60000000000002</ele>
        <time>2011-01-04T09:38:21Z</time>
      </trkpt>
      <trkpt lat="39.016225961968303" lon="-3.373471023514867">
        <ele>657.79999999999995</ele>
        <time>2011-01-04T09:38:23Z</time>
      </trkpt>
      <trkpt lat="39.016541037708521" lon="-3.373425006866455">
        <ele>657.70000000000005</ele>
        <time>2011-01-04T09:38:24Z</time>
      </trkpt>
      <trkpt lat="39.017175966873765" lon="-3.373382007703185">
        <ele>657.60000000000002</ele>
        <time>2011-01-04T09:38:26Z</time>
      </trkpt>
      <trkpt lat="39.017493976280093" lon="-3.373382007703185">
        <ele>657.5</ele>
        <time>2011-01-04T09:38:27Z</time>
      </trkpt>
      <trkpt lat="39.026668975129724" lon="-3.373794984072447">
        <ele>659.70000000000005</ele>
        <time>2011-01-04T09:38:56Z</time>
      </trkpt>
      <trkpt lat="39.026987990364432" lon="-3.373795989900827">
        <ele>659.60000000000002</ele>
        <time>2011-01-04T09:38:57Z</time>
      </trkpt>
      <trkpt lat="39.125829990953207" lon="-3.377860961481929">
        <ele>655.10000000000002</ele>
        <time>2011-01-04T09:44:10Z</time>
      </trkpt>
      <trkpt lat="39.126140959560871" lon="-3.377904966473579">
        <ele>654.70000000000005</ele>
        <time>2011-01-04T09:44:11Z</time>
      </trkpt>
      <trkpt lat="39.12863097153604" lon="-3.378501003608108">
        <ele>652.10000000000002</ele>
        <time>2011-01-04T09:44:19Z</time>
      </trkpt>
      <trkpt lat="39.197294013574719" lon="-3.404365964233875">
        <ele>645.60000000000002</ele>
        <time>2011-01-04T09:48:04Z</time>
      </trkpt>
      <trkpt lat="39.197611017152667" lon="-3.404498985037208">
        <ele>645.39999999999998</ele>
        <time>2011-01-04T09:48:05Z</time>
      </trkpt>
      <trkpt lat="39.219274967908859" lon="-3.413562001660466">
        <ele>640</ele>
        <time>2011-01-04T09:49:20Z</time>
      </trkpt>
      <trkpt lat="39.22047802247107" lon="-3.4136569686234">
        <ele>639.5</ele>
        <time>2011-01-04T09:49:24Z</time>
      </trkpt>
      <trkpt lat="39.220782034099102" lon="-3.413651017472148">
        <ele>639.29999999999995</ele>
        <time>2011-01-04T09:49:25Z</time>
      </trkpt>
      <trkpt lat="39.222008977085352" lon="-3.413477009162307">
        <ele>636.79999999999995</ele>
        <time>2011-01-04T09:49:29Z</time>
      </trkpt>
      <trkpt lat="39.222614988684654" lon="-3.413308029994369">
        <ele>635.39999999999998</ele>
        <time>2011-01-04T09:49:31Z</time>
      </trkpt>
      <trkpt lat="39.223801027983427" lon="-3.412821963429451">
        <ele>633.89999999999998</ele>
        <time>2011-01-04T09:49:35Z</time>
      </trkpt>
      <trkpt lat="39.227614961564541" lon="-3.411041982471943">
        <ele>632.89999999999998</ele>
        <time>2011-01-04T09:49:48Z</time>
      </trkpt>
      <trkpt lat="39.227919979020953" lon="-3.410966964438558">
        <ele>632.89999999999998</ele>
        <time>2011-01-04T09:49:49Z</time>
      </trkpt>
      <trkpt lat="39.22853303141892" lon="-3.410866968333721">
        <ele>632.89999999999998</ele>
        <time>2011-01-04T09:49:51Z</time>
      </trkpt>
      <trkpt lat="39.229453029111028" lon="-3.410815000534058">
        <ele>632.89999999999998</ele>
        <time>2011-01-04T09:49:54Z</time>
      </trkpt>
      <trkpt lat="39.229758968576789" lon="-3.410820029675961">
        <ele>632.89999999999998</ele>
        <time>2011-01-04T09:49:55Z</time>
      </trkpt>
      <trkpt lat="39.238491989672184" lon="-3.411984024569392">
        <ele>631.20000000000005</ele>
        <time>2011-01-04T09:50:23Z</time>
      </trkpt>
      <trkpt lat="39.23880698159337" lon="-3.412044961005449">
        <ele>630.89999999999998</ele>
        <time>2011-01-04T09:50:24Z</time>
      </trkpt>
      <trkpt lat="39.239747012034059" lon="-3.412303039804101">
        <ele>629.29999999999995</ele>
        <time>2011-01-04T09:50:27Z</time>
      </trkpt>
      <trkpt lat="39.240356963127851" lon="-3.412553993985057">
        <ele>627.79999999999995</ele>
        <time>2011-01-04T09:50:29Z</time>
      </trkpt>
      <trkpt lat="39.240655023604631" lon="-3.412704030051827">
        <ele>627.39999999999998</ele>
        <time>2011-01-04T09:50:30Z</time>
      </trkpt>
      <trkpt lat="39.241229016333818" lon="-3.413051040843129">
        <ele>626.79999999999995</ele>
        <time>2011-01-04T09:50:32Z</time>
      </trkpt>
      <trkpt lat="39.241505032405257" lon="-3.41324700973928">
        <ele>626.70000000000005</ele>
        <time>2011-01-04T09:50:33Z</time>
      </trkpt>
      <trkpt lat="39.242034014314413" lon="-3.413684964179993">
        <ele>625.89999999999998</ele>
        <time>2011-01-04T09:50:35Z</time>
      </trkpt>
      <trkpt lat="39.242529971525073" lon="-3.414169019088149">
        <ele>625.29999999999995</ele>
        <time>2011-01-04T09:50:37Z</time>
      </trkpt>
      <trkpt lat="39.242996005341411" lon="-3.414690960198641">
        <ele>624.79999999999995</ele>
        <time>2011-01-04T09:50:39Z</time>
      </trkpt>
      <trkpt lat="39.243430020287633" lon="-3.415251038968563">
        <ele>623.89999999999998</ele>
        <time>2011-01-04T09:50:41Z</time>
      </trkpt>
      <trkpt lat="39.243822963908315" lon="-3.41584699228406">
        <ele>623.39999999999998</ele>
        <time>2011-01-04T09:50:43Z</time>
      </trkpt>
      <trkpt lat="39.244180032983422" lon="-3.416477981954813">
        <ele>622.89999999999998</ele>
        <time>2011-01-04T09:50:45Z</time>
      </trkpt>
      <trkpt lat="39.244501981884241" lon="-3.417141996324062">
        <ele>622.70000000000005</ele>
        <time>2011-01-04T09:50:47Z</time>
      </trkpt>
      <trkpt lat="39.244787972420454" lon="-3.417836017906666">
        <ele>622.5</ele>
        <time>2011-01-04T09:50:49Z</time>
      </trkpt>
      <trkpt lat="39.245032975450158" lon="-3.41855401173234">
        <ele>622.39999999999998</ele>
        <time>2011-01-04T09:50:51Z</time>
      </trkpt>
      <trkpt lat="39.245236990973353" lon="-3.419289020821452">
        <ele>622.5</ele>
        <time>2011-01-04T09:50:53Z</time>
      </trkpt>
      <trkpt lat="39.245406975969672" lon="-3.42003702186048">
        <ele>622.60000000000002</ele>
        <time>2011-01-04T09:50:55Z</time>
      </trkpt>
      <trkpt lat="39.245597999542952" lon="-3.42117796652019">
        <ele>622.70000000000005</ele>
        <time>2011-01-04T09:50:58Z</time>
      </trkpt>
      <trkpt lat="39.246263019740582" lon="-3.425414012745023">
        <ele>622.29999999999995</ele>
        <time>2011-01-04T09:51:09Z</time>
      </trkpt>
      <trkpt lat="39.246361004188657" lon="-3.425788013264537">
        <ele>622.39999999999998</ele>
        <time>2011-01-04T09:51:10Z</time>
      </trkpt>
      <trkpt lat="39.246727041900158" lon="-3.426872966811061">
        <ele>622.60000000000002</ele>
        <time>2011-01-04T09:51:13Z</time>
      </trkpt>
      <trkpt lat="39.247024012729526" lon="-3.427561037242413">
        <ele>622.60000000000002</ele>
        <time>2011-01-04T09:51:15Z</time>
      </trkpt>
      <trkpt lat="39.247538996860385" lon="-3.428535014390945">
        <ele>622.70000000000005</ele>
        <time>2011-01-04T09:51:18Z</time>
      </trkpt>
      <trkpt lat="39.247925989329815" lon="-3.429139014333487">
        <ele>622.60000000000002</ele>
        <time>2011-01-04T09:51:20Z</time>
      </trkpt>
      <trkpt lat="39.248562008142471" lon="-3.429974019527435">
        <ele>622.39999999999998</ele>
        <time>2011-01-04T09:51:23Z</time>
      </trkpt>
      <trkpt lat="39.249027036130428" lon="-3.430476011708379">
        <ele>622.29999999999995</ele>
        <time>2011-01-04T09:51:25Z</time>
      </trkpt>
      <trkpt lat="39.249272961169481" lon="-3.430707016959786">
        <ele>622.20000000000005</ele>
        <time>2011-01-04T09:51:26Z</time>
      </trkpt>
      <trkpt lat="39.250595960766077" lon="-3.431689040735364">
        <ele>621.89999999999998</ele>
        <time>2011-01-04T09:51:31Z</time>
      </trkpt>
      <trkpt lat="39.308162033557892" lon="-3.468797989189625">
        <ele>663.70000000000005</ele>
        <time>2011-01-04T09:54:56Z</time>
      </trkpt>
      <trkpt lat="39.308457998558879" lon="-3.468940984457731">
        <ele>663.79999999999995</ele>
        <time>2011-01-04T09:54:57Z</time>
      </trkpt>
      <trkpt lat="39.309067027643323" lon="-3.469164026901126">
        <ele>664.10000000000002</ele>
        <time>2011-01-04T09:54:59Z</time>
      </trkpt>
      <trkpt lat="39.309688964858651" lon="-3.469309033825994">
        <ele>664.29999999999995</ele>
        <time>2011-01-04T09:55:01Z</time>
      </trkpt>
      <trkpt lat="39.310318026691675" lon="-3.469396959990263">
        <ele>664.79999999999995</ele>
        <time>2011-01-04T09:55:03Z</time>
      </trkpt>
      <trkpt lat="39.310635030269623" lon="-3.46941196359694">
        <ele>665.10000000000002</ele>
        <time>2011-01-04T09:55:04Z</time>
      </trkpt>
      <trkpt lat="39.3109539616853" lon="-3.469400983303785">
        <ele>664.39999999999998</ele>
        <time>2011-01-04T09:55:05Z</time>
      </trkpt>
      <trkpt lat="39.311587968841195" lon="-3.469318002462387">
        <ele>663.39999999999998</ele>
        <time>2011-01-04T09:55:07Z</time>
      </trkpt>
      <trkpt lat="39.312527999281883" lon="-3.4690669644624">
        <ele>662.5</ele>
        <time>2011-01-04T09:55:10Z</time>
      </trkpt>
      <trkpt lat="39.314073035493493" lon="-3.468644013628364">
        <ele>661.89999999999998</ele>
        <time>2011-01-04T09:55:15Z</time>
      </trkpt>
      <trkpt lat="39.314375035464764" lon="-3.46861400641501">
        <ele>662</ele>
        <time>2011-01-04T09:55:16Z</time>
      </trkpt>
      <trkpt lat="39.314673012122512" lon="-3.468605037778616">
        <ele>662.20000000000005</ele>
        <time>2011-01-04T09:55:17Z</time>
      </trkpt>
      <trkpt lat="39.314967971295118" lon="-3.468619035556912">
        <ele>662.29999999999995</ele>
        <time>2011-01-04T09:55:18Z</time>
      </trkpt>
      <trkpt lat="39.315257985144854" lon="-3.46865700557828">
        <ele>662.39999999999998</ele>
        <time>2011-01-04T09:55:19Z</time>
      </trkpt>
      <trkpt lat="39.315541964024305" lon="-3.46872003749013">
        <ele>662.29999999999995</ele>
        <time>2011-01-04T09:55:20Z</time>
      </trkpt>
      <trkpt lat="39.315819991752505" lon="-3.46880704164505">
        <ele>662.29999999999995</ele>
        <time>2011-01-04T09:55:21Z</time>
      </trkpt>
      <trkpt lat="39.316090978682041" lon="-3.468919023871422">
        <ele>662.79999999999995</ele>
        <time>2011-01-04T09:55:22Z</time>
      </trkpt>
      <trkpt lat="39.316355008631945" lon="-3.469051960855722">
        <ele>663.39999999999998</ele>
        <time>2011-01-04T09:55:23Z</time>
      </trkpt>
      <trkpt lat="39.316611997783184" lon="-3.469207026064396">
        <ele>663.89999999999998</ele>
        <time>2011-01-04T09:55:24Z</time>
      </trkpt>
      <trkpt lat="39.31686102412641" lon="-3.469382040202618">
        <ele>664.5</ele>
        <time>2011-01-04T09:55:25Z</time>
      </trkpt>
      <trkpt lat="39.317106027156115" lon="-3.469571974128485">
        <ele>664.5</ele>
        <time>2011-01-04T09:55:26Z</time>
      </trkpt>
      <trkpt lat="39.317338038235903" lon="-3.469785964116454">
        <ele>665.10000000000002</ele>
        <time>2011-01-04T09:55:27Z</time>
      </trkpt>
      <trkpt lat="39.317557979375124" lon="-3.470014035701752">
        <ele>665.29999999999995</ele>
        <time>2011-01-04T09:55:28Z</time>
      </trkpt>
      <trkpt lat="39.317759983241558" lon="-3.47026901319623">
        <ele>666.39999999999998</ele>
        <time>2011-01-04T09:55:29Z</time>
      </trkpt>
      <trkpt lat="39.31795603595674" lon="-3.470535976812244">
        <ele>666.20000000000005</ele>
        <time>2011-01-04T09:55:30Z</time>
      </trkpt>
      <trkpt lat="39.318141024559736" lon="-3.470823979005218">
        <ele>666.20000000000005</ele>
        <time>2011-01-04T09:55:31Z</time>
      </trkpt>
      <trkpt lat="39.319616993889213" lon="-3.47319102846086">
        <ele>667.89999999999998</ele>
        <time>2011-01-04T09:55:39Z</time>
      </trkpt>
      <trkpt lat="39.319840958341956" lon="-3.473445000126958">
        <ele>668.20000000000005</ele>
        <time>2011-01-04T09:55:40Z</time>
      </trkpt>
      <trkpt lat="39.32031998410821" lon="-3.473907010629773">
        <ele>668.79999999999995</ele>
        <time>2011-01-04T09:55:42Z</time>
      </trkpt>
      <trkpt lat="39.324523005634546" lon="-3.477530004456639">
        <ele>673</ele>
        <time>2011-01-04T09:55:59Z</time>
      </trkpt>
      <trkpt lat="39.324784018099308" lon="-3.477699989452958">
        <ele>673.20000000000005</ele>
        <time>2011-01-04T09:56:00Z</time>
      </trkpt>
      <trkpt lat="39.325333032757044" lon="-3.47798204049468">
        <ele>673.39999999999998</ele>
        <time>2011-01-04T09:56:02Z</time>
      </trkpt>
      <trkpt lat="39.325616005808115" lon="-3.478094022721052">
        <ele>673.5</ele>
        <time>2011-01-04T09:56:03Z</time>
      </trkpt>
      <trkpt lat="39.326200978830457" lon="-3.478255961090326">
        <ele>673.70000000000005</ele>
        <time>2011-01-04T09:56:05Z</time>
      </trkpt>
      <trkpt lat="39.326797015964985" lon="-3.478343971073628">
        <ele>674.60000000000002</ele>
        <time>2011-01-04T09:56:07Z</time>
      </trkpt>
      <trkpt lat="39.327098010107875" lon="-3.478356041014195">
        <ele>675.20000000000005</ele>
        <time>2011-01-04T09:56:08Z</time>
      </trkpt>
      <trkpt lat="39.327403027564287" lon="-3.478341037407517">
        <ele>674.79999999999995</ele>
        <time>2011-01-04T09:56:09Z</time>
      </trkpt>
      <trkpt lat="39.329490959644318" lon="-3.478000983595848">
        <ele>678.10000000000002</ele>
        <time>2011-01-04T09:56:16Z</time>
      </trkpt>
      <trkpt lat="39.329786002635956" lon="-3.477999977767468">
        <ele>679.10000000000002</ele>
        <time>2011-01-04T09:56:17Z</time>
      </trkpt>
      <trkpt lat="39.330078028142452" lon="-3.478021016344428">
        <ele>680.10000000000002</ele>
        <time>2011-01-04T09:56:18Z</time>
      </trkpt>
      <trkpt lat="39.330368964001536" lon="-3.478066027164459">
        <ele>681</ele>
        <time>2011-01-04T09:56:19Z</time>
      </trkpt>
      <trkpt lat="39.330655038356781" lon="-3.47813400439918">
        <ele>681.70000000000005</ele>
        <time>2011-01-04T09:56:20Z</time>
      </trkpt>
      <trkpt lat="39.330937005579472" lon="-3.478226037696004">
        <ele>682.10000000000002</ele>
        <time>2011-01-04T09:56:21Z</time>
      </trkpt>
      <trkpt lat="39.33121302165091" lon="-3.478344976902008">
        <ele>682.29999999999995</ele>
        <time>2011-01-04T09:56:22Z</time>
      </trkpt>
      <trkpt lat="39.331480991095304" lon="-3.478490989655256">
        <ele>682.39999999999998</ele>
        <time>2011-01-04T09:56:23Z</time>
      </trkpt>
      <trkpt lat="39.331742003560066" lon="-3.478662986308336">
        <ele>682.20000000000005</ele>
        <time>2011-01-04T09:56:24Z</time>
      </trkpt>
      <trkpt lat="39.331993963569403" lon="-3.478859961032867">
        <ele>681.89999999999998</ele>
        <time>2011-01-04T09:56:25Z</time>
      </trkpt>
      <trkpt lat="39.332235027104616" lon="-3.47907998599112">
        <ele>681.79999999999995</ele>
        <time>2011-01-04T09:56:26Z</time>
      </trkpt>
      <trkpt lat="39.332467038184404" lon="-3.479318032041192">
        <ele>681.5</ele>
        <time>2011-01-04T09:56:27Z</time>
      </trkpt>
      <trkpt lat="39.332683961838484" lon="-3.479574015364051">
        <ele>681.29999999999995</ele>
        <time>2011-01-04T09:56:28Z</time>
      </trkpt>
      <trkpt lat="39.332887977361679" lon="-3.479846008121967">
        <ele>681.20000000000005</ele>
        <time>2011-01-04T09:56:29Z</time>
      </trkpt>
      <trkpt lat="39.33308101259172" lon="-3.48013199865818">
        <ele>681</ele>
        <time>2011-01-04T09:56:30Z</time>
      </trkpt>
      <trkpt lat="39.334814976900816" lon="-3.482768023386598">
        <ele>680.20000000000005</ele>
        <time>2011-01-04T09:56:39Z</time>
      </trkpt>
      <trkpt lat="39.335041958838701" lon="-3.483020989224315">
        <ele>680.29999999999995</ele>
        <time>2011-01-04T09:56:40Z</time>
      </trkpt>
      <trkpt lat="39.335769005119801" lon="-3.483706964179874">
        <ele>681.70000000000005</ele>
        <time>2011-01-04T09:56:43Z</time>
      </trkpt>
      <trkpt lat="39.336023982614279" lon="-3.483907040208578">
        <ele>682.5</ele>
        <time>2011-01-04T09:56:44Z</time>
      </trkpt>
      <trkpt lat="39.336830992251635" lon="-3.484420012682676">
        <ele>683.29999999999995</ele>
        <time>2011-01-04T09:56:47Z</time>
      </trkpt>
      <trkpt lat="39.337392998859286" lon="-3.484692005440593">
        <ele>683.70000000000005</ele>
        <time>2011-01-04T09:56:49Z</time>
      </trkpt>
      <trkpt lat="39.337975960224867" lon="-3.484897026792169">
        <ele>683.79999999999995</ele>
        <time>2011-01-04T09:56:51Z</time>
      </trkpt>
      <trkpt lat="39.338873997330666" lon="-3.485086960718036">
        <ele>684</ele>
        <time>2011-01-04T09:56:54Z</time>
      </trkpt>
      <trkpt lat="39.365961039438844" lon="-3.491408005356789">
        <ele>707.39999999999998</ele>
        <time>2011-01-04T09:58:26Z</time>
      </trkpt>
      <trkpt lat="39.366246024146676" lon="-3.491514958441258">
        <ele>707.5</ele>
        <time>2011-01-04T09:58:27Z</time>
      </trkpt>
      <trkpt lat="39.436294008046389" lon="-3.520043017342687">
        <ele>693.29999999999995</ele>
        <time>2011-01-04T10:02:20Z</time>
      </trkpt>
      <trkpt lat="39.436590978875756" lon="-3.52020001038909">
        <ele>694.10000000000002</ele>
        <time>2011-01-04T10:02:21Z</time>
      </trkpt>
      <trkpt lat="39.447750980034471" lon="-3.526427010074258">
        <ele>683.20000000000005</ele>
        <time>2011-01-04T10:02:59Z</time>
      </trkpt>
      <trkpt lat="39.448055997490883" lon="-3.526522982865572">
        <ele>683.79999999999995</ele>
        <time>2011-01-04T10:03:00Z</time>
      </trkpt>
      <trkpt lat="39.448671983554959" lon="-3.526650974527001">
        <ele>684.79999999999995</ele>
        <time>2011-01-04T10:03:02Z</time>
      </trkpt>
      <trkpt lat="39.449289981275797" lon="-3.526706965640187">
        <ele>685.60000000000002</ele>
        <time>2011-01-04T10:03:04Z</time>
      </trkpt>
      <trkpt lat="39.449604973196983" lon="-3.526704031974077">
        <ele>685.39999999999998</ele>
        <time>2011-01-04T10:03:05Z</time>
      </trkpt>
      <trkpt lat="39.450233029201627" lon="-3.526637982577086">
        <ele>684.5</ele>
        <time>2011-01-04T10:03:07Z</time>
      </trkpt>
      <trkpt lat="39.451151015236974" lon="-3.5264110006392">
        <ele>682.70000000000005</ele>
        <time>2011-01-04T10:03:10Z</time>
      </trkpt>
      <trkpt lat="39.451750991865993" lon="-3.526181001216173">
        <ele>681.29999999999995</ele>
        <time>2011-01-04T10:03:12Z</time>
      </trkpt>
      <trkpt lat="39.452338982373476" lon="-3.525888975709677">
        <ele>679.70000000000005</ele>
        <time>2011-01-04T10:03:14Z</time>
      </trkpt>
      <trkpt lat="39.453462995588779" lon="-3.525131000205874">
        <ele>676.79999999999995</ele>
        <time>2011-01-04T10:03:18Z</time>
      </trkpt>
      <trkpt lat="39.463694030418992" lon="-3.517571026459336">
        <ele>680.5</ele>
        <time>2011-01-04T10:03:55Z</time>
      </trkpt>
      <trkpt lat="39.463994018733501" lon="-3.517419984564185">
        <ele>680.89999999999998</ele>
        <time>2011-01-04T10:03:56Z</time>
      </trkpt>
      <trkpt lat="39.464602963998914" lon="-3.51717296987772">
        <ele>681.39999999999998</ele>
        <time>2011-01-04T10:03:58Z</time>
      </trkpt>
      <trkpt lat="39.464913010597229" lon="-3.517080014571548">
        <ele>681.70000000000005</ele>
        <time>2011-01-04T10:03:59Z</time>
      </trkpt>
      <trkpt lat="39.465545006096363" lon="-3.516953028738499">
        <ele>682.60000000000002</ele>
        <time>2011-01-04T10:04:01Z</time>
      </trkpt>
      <trkpt lat="39.466183036565781" lon="-3.516895025968552">
        <ele>683.39999999999998</ele>
        <time>2011-01-04T10:04:03Z</time>
      </trkpt>
      <trkpt lat="39.466502973809838" lon="-3.516891002655029">
        <ele>683.70000000000005</ele>
        <time>2011-01-04T10:04:04Z</time>
      </trkpt>
      <trkpt lat="39.466822994872928" lon="-3.516903994604945">
        <ele>684.10000000000002</ele>
        <time>2011-01-04T10:04:05Z</time>
      </trkpt>
      <trkpt lat="39.467463959008455" lon="-3.516986975446343">
        <ele>684.29999999999995</ele>
        <time>2011-01-04T10:04:07Z</time>
      </trkpt>
      <trkpt lat="39.467780962586403" lon="-3.517060987651348">
        <ele>684.39999999999998</ele>
        <time>2011-01-04T10:04:08Z</time>
      </trkpt>
      <trkpt lat="39.468092015013099" lon="-3.517160983756185">
        <ele>685</ele>
        <time>2011-01-04T10:04:09Z</time>
      </trkpt>
      <trkpt lat="39.469015030190349" lon="-3.517550993710756">
        <ele>685.70000000000005</ele>
        <time>2011-01-04T10:04:12Z</time>
      </trkpt>
      <trkpt lat="39.472598964348435" lon="-3.519558040425181">
        <ele>689</ele>
        <time>2011-01-04T10:04:24Z</time>
      </trkpt>
      <trkpt lat="39.482013015076518" lon="-3.524766974151135">
        <ele>697.39999999999998</ele>
        <time>2011-01-04T10:04:57Z</time>
      </trkpt>
      <trkpt lat="39.482307974249125" lon="-3.524867976084352">
        <ele>697.39999999999998</ele>
        <time>2011-01-04T10:04:58Z</time>
      </trkpt>
      <trkpt lat="39.483517985790968" lon="-3.525124965235591">
        <ele>697.89999999999998</ele>
        <time>2011-01-04T10:05:02Z</time>
      </trkpt>
      <trkpt lat="39.498035022988915" lon="-3.52757197804749">
        <ele>695.89999999999998</ele>
        <time>2011-01-04T10:05:48Z</time>
      </trkpt>
      <trkpt lat="39.498359989374876" lon="-3.527567032724619">
        <ele>696</ele>
        <time>2011-01-04T10:05:49Z</time>
      </trkpt>
      <trkpt lat="39.521929984912276" lon="-3.522936031222343">
        <ele>697.20000000000005</ele>
        <time>2011-01-04T10:07:03Z</time>
      </trkpt>
      <trkpt lat="39.522233996540308" lon="-3.522865958511829">
        <ele>697.39999999999998</ele>
        <time>2011-01-04T10:07:04Z</time>
      </trkpt>
      <trkpt lat="39.570418959483504" lon="-3.513964964076877">
        <ele>701.89999999999998</ele>
        <time>2011-01-04T10:09:40Z</time>
      </trkpt>
      <trkpt lat="39.570740992203355" lon="-3.513968987390399">
        <ele>701.89999999999998</ele>
        <time>2011-01-04T10:09:41Z</time>
      </trkpt>
      <trkpt lat="39.571382040157914" lon="-3.51401299238205">
        <ele>701.79999999999995</ele>
        <time>2011-01-04T10:09:43Z</time>
      </trkpt>
      <trkpt lat="39.572018980979919" lon="-3.514110976830125">
        <ele>701.60000000000002</ele>
        <time>2011-01-04T10:09:45Z</time>
      </trkpt>
      <trkpt lat="39.572945013642311" lon="-3.514363020658493">
        <ele>701.29999999999995</ele>
        <time>2011-01-04T10:09:48Z</time>
      </trkpt>
      <trkpt lat="39.60407498292625" lon="-3.525319006294012">
        <ele>707.70000000000005</ele>
        <time>2011-01-04T10:11:30Z</time>
      </trkpt>
      <trkpt lat="39.604383017867804" lon="-3.525353036820889">
        <ele>706.89999999999998</ele>
        <time>2011-01-04T10:11:31Z</time>
      </trkpt>
      <trkpt lat="39.604692980647087" lon="-3.525363011285663">
        <ele>706.29999999999995</ele>
        <time>2011-01-04T10:11:32Z</time>
      </trkpt>
      <trkpt lat="39.605005038902164" lon="-3.525349013507366">
        <ele>705.79999999999995</ele>
        <time>2011-01-04T10:11:33Z</time>
      </trkpt>
      <trkpt lat="39.605939034372568" lon="-3.525187997147441">
        <ele>704.79999999999995</ele>
        <time>2011-01-04T10:11:36Z</time>
      </trkpt>
      <trkpt lat="39.668575990945101" lon="-3.510871035978198">
        <ele>712.10000000000002</ele>
        <time>2011-01-04T10:14:55Z</time>
      </trkpt>
      <trkpt lat="39.668889977037907" lon="-3.51074899546802">
        <ele>710.79999999999995</ele>
        <time>2011-01-04T10:14:56Z</time>
      </trkpt>
      <trkpt lat="39.682360030710697" lon="-3.505549030378461">
        <ele>657.10000000000002</ele>
        <time>2011-01-04T10:15:41Z</time>
      </trkpt>
      <trkpt lat="39.682631017640233" lon="-3.505392037332058">
        <ele>656.60000000000002</ele>
        <time>2011-01-04T10:15:42Z</time>
      </trkpt>
      <trkpt lat="39.683156982064247" lon="-3.505020970478654">
        <ele>655.5</ele>
        <time>2011-01-04T10:15:44Z</time>
      </trkpt>
      <trkpt lat="39.685385981574655" lon="-3.502810997888446">
        <ele>647.89999999999998</ele>
        <time>2011-01-04T10:15:53Z</time>
      </trkpt>
      <trkpt lat="39.690076997503638" lon="-3.498163986951113">
        <ele>642.79999999999995</ele>
        <time>2011-01-04T10:16:11Z</time>
      </trkpt>
      <trkpt lat="39.690363993868232" lon="-3.497948991134763">
        <ele>642.70000000000005</ele>
        <time>2011-01-04T10:16:12Z</time>
      </trkpt>
      <trkpt lat="39.690658031031489" lon="-3.497756961733103">
        <ele>642.5</ele>
        <time>2011-01-04T10:16:13Z</time>
      </trkpt>
      <trkpt lat="39.69096003100276" lon="-3.497586976736784">
        <ele>642.29999999999995</ele>
        <time>2011-01-04T10:16:14Z</time>
      </trkpt>
      <trkpt lat="39.691582974046469" lon="-3.497307021170855">
        <ele>642</ele>
        <time>2011-01-04T10:16:16Z</time>
      </trkpt>
      <trkpt lat="39.692225027829409" lon="-3.497094037011266">
        <ele>642</ele>
        <time>2011-01-04T10:16:18Z</time>
      </trkpt>
      <trkpt lat="39.69255200587213" lon="-3.497019018977881">
        <ele>642</ele>
        <time>2011-01-04T10:16:19Z</time>
      </trkpt>
      <trkpt lat="39.692883007228374" lon="-3.496966967359185">
        <ele>641.89999999999998</ele>
        <time>2011-01-04T10:16:20Z</time>
      </trkpt>
      <trkpt lat="39.693537969142199" lon="-3.496923968195915">
        <ele>642.29999999999995</ele>
        <time>2011-01-04T10:16:22Z</time>
      </trkpt>
      <trkpt lat="39.693858996033669" lon="-3.496927991509438">
        <ele>642.29999999999995</ele>
        <time>2011-01-04T10:16:23Z</time>
      </trkpt>
      <trkpt lat="39.69478402286768" lon="-3.497032010927796">
        <ele>642.70000000000005</ele>
        <time>2011-01-04T10:16:26Z</time>
      </trkpt>
      <trkpt lat="39.695075964555144" lon="-3.497098982334137">
        <ele>642.79999999999995</ele>
        <time>2011-01-04T10:16:27Z</time>
      </trkpt>
      <trkpt lat="39.695643000304699" lon="-3.497281037271023">
        <ele>643.20000000000005</ele>
        <time>2011-01-04T10:16:29Z</time>
      </trkpt>
      <trkpt lat="39.698969023302197" lon="-3.498488031327725">
        <ele>643</ele>
        <time>2011-01-04T10:16:41Z</time>
      </trkpt>
      <trkpt lat="39.699265994131565" lon="-3.498531030490995">
        <ele>642.79999999999995</ele>
        <time>2011-01-04T10:16:42Z</time>
      </trkpt>
      <trkpt lat="39.699865970760584" lon="-3.498576041311026">
        <ele>642</ele>
        <time>2011-01-04T10:16:44Z</time>
      </trkpt>
      <trkpt lat="39.700168976560235" lon="-3.498576963320375">
        <ele>641.60000000000002</ele>
        <time>2011-01-04T10:16:45Z</time>
      </trkpt>
      <trkpt lat="39.700472988188267" lon="-3.49856598302722">
        <ele>641.29999999999995</ele>
        <time>2011-01-04T10:16:46Z</time>
      </trkpt>
      <trkpt lat="39.701692974194884" lon="-3.498392980545759">
        <ele>640.79999999999995</ele>
        <time>2011-01-04T10:16:50Z</time>
      </trkpt>
      <trkpt lat="39.740379983559251" lon="-3.488376019522548">
        <ele>669.60000000000002</ele>
        <time>2011-01-04T10:18:52Z</time>
      </trkpt>
      <trkpt lat="39.740680977702141" lon="-3.488276023417711">
        <ele>669.70000000000005</ele>
        <time>2011-01-04T10:18:53Z</time>
      </trkpt>
      <trkpt lat="39.775874996557832" lon="-3.478922992944717">
        <ele>698.5</ele>
        <time>2011-01-04T10:20:51Z</time>
      </trkpt>
      <trkpt lat="39.776470027863979" lon="-3.478894997388125">
        <ele>698.60000000000002</ele>
        <time>2011-01-04T10:20:53Z</time>
      </trkpt>
      <trkpt lat="39.776766998693347" lon="-3.478897009044886">
        <ele>698.70000000000005</ele>
        <time>2011-01-04T10:20:54Z</time>
      </trkpt>
      <trkpt lat="39.777359012514353" lon="-3.478941014036536">
        <ele>698.89999999999998</ele>
        <time>2011-01-04T10:20:56Z</time>
      </trkpt>
      <trkpt lat="39.777943985536695" lon="-3.479049978777766">
        <ele>699.10000000000002</ele>
        <time>2011-01-04T10:20:58Z</time>
      </trkpt>
      <trkpt lat="39.778231987729669" lon="-3.479123990982771">
        <ele>699.29999999999995</ele>
        <time>2011-01-04T10:20:59Z</time>
      </trkpt>
      <trkpt lat="39.778796005994081" lon="-3.479320965707302">
        <ele>699.5</ele>
        <time>2011-01-04T10:21:01Z</time>
      </trkpt>
      <trkpt lat="39.779348038136959" lon="-3.479583989828825">
        <ele>699.60000000000002</ele>
        <time>2011-01-04T10:21:03Z</time>
      </trkpt>
      <trkpt lat="39.779893029481173" lon="-3.479884983971715">
        <ele>699.5</ele>
        <time>2011-01-04T10:21:05Z</time>
      </trkpt>
      <trkpt lat="39.780684029683471" lon="-3.480418995022774">
        <ele>699.20000000000005</ele>
        <time>2011-01-04T10:21:08Z</time>
      </trkpt>
      <trkpt lat="39.784246003255248" lon="-3.482891991734505">
        <ele>691.70000000000005</ele>
        <time>2011-01-04T10:21:22Z</time>
      </trkpt>
      <trkpt lat="39.784526964649558" lon="-3.483007997274399">
        <ele>690.39999999999998</ele>
        <time>2011-01-04T10:21:23Z</time>
      </trkpt>
      <trkpt lat="39.785397006198764" lon="-3.483279990032315">
        <ele>685.29999999999995</ele>
        <time>2011-01-04T10:21:26Z</time>
      </trkpt>
      <trkpt lat="39.785996982827783" lon="-3.483401024714112">
        <ele>681.29999999999995</ele>
        <time>2011-01-04T10:21:28Z</time>
      </trkpt>
      <trkpt lat="39.786909017711878" lon="-3.483480988070369">
        <ele>674.70000000000005</ele>
        <time>2011-01-04T10:21:31Z</time>
      </trkpt>
      <trkpt lat="39.78721596300602" lon="-3.483480988070369">
        <ele>672.60000000000002</ele>
        <time>2011-01-04T10:21:32Z</time>
      </trkpt>
      <trkpt lat="39.787522992119193" lon="-3.483466990292072">
        <ele>670.70000000000005</ele>
        <time>2011-01-04T10:21:33Z</time>
      </trkpt>
      <trkpt lat="39.788443995639682" lon="-3.483335981145501">
        <ele>665.60000000000002</ele>
        <time>2011-01-04T10:21:36Z</time>
      </trkpt>
      <trkpt lat="39.789053024724126" lon="-3.483171025291085">
        <ele>662.60000000000002</ele>
        <time>2011-01-04T10:21:38Z</time>
      </trkpt>
      <trkpt lat="39.799937009811401" lon="-3.479198003187776">
        <ele>626.20000000000005</ele>
        <time>2011-01-04T10:22:15Z</time>
      </trkpt>
      <trkpt lat="39.800242027267814" lon="-3.479158021509647">
        <ele>625.10000000000002</ele>
        <time>2011-01-04T10:22:16Z</time>
      </trkpt>
      <trkpt lat="39.807533025741577" lon="-3.478506999090314">
        <ele>608.5</ele>
        <time>2011-01-04T10:22:40Z</time>
      </trkpt>
      <trkpt lat="39.807848017662764" lon="-3.478512028232217">
        <ele>607.39999999999998</ele>
        <time>2011-01-04T10:22:41Z</time>
      </trkpt>
      <trkpt lat="39.809127012267709" lon="-3.478675978258252">
        <ele>604.79999999999995</ele>
        <time>2011-01-04T10:22:45Z</time>
      </trkpt>
      <trkpt lat="39.818284995853901" lon="-3.480504993349314">
        <ele>618.60000000000002</ele>
        <time>2011-01-04T10:23:15Z</time>
      </trkpt>
      <trkpt lat="39.818849014118314" lon="-3.480673972517252">
        <ele>621.29999999999995</ele>
        <time>2011-01-04T10:23:17Z</time>
      </trkpt>
      <trkpt lat="39.819124024361372" lon="-3.480785032734275">
        <ele>622.5</ele>
        <time>2011-01-04T10:23:18Z</time>
      </trkpt>
      <trkpt lat="39.819392999634147" lon="-3.480914030224085">
        <ele>623.89999999999998</ele>
        <time>2011-01-04T10:23:19Z</time>
      </trkpt>
      <trkpt lat="39.81965702958405" lon="-3.481060964986682">
        <ele>625.29999999999995</ele>
        <time>2011-01-04T10:23:20Z</time>
      </trkpt>
      <trkpt lat="39.819916030392051" lon="-3.481224998831749">
        <ele>626.5</ele>
        <time>2011-01-04T10:23:21Z</time>
      </trkpt>
      <trkpt lat="39.820166984573007" lon="-3.481407975777984">
        <ele>627.60000000000002</ele>
        <time>2011-01-04T10:23:22Z</time>
      </trkpt>
      <trkpt lat="39.823593003675342" lon="-3.484190013259649">
        <ele>640.70000000000005</ele>
        <time>2011-01-04T10:23:36Z</time>
      </trkpt>
      <trkpt lat="39.823863990604877" lon="-3.484324039891362">
        <ele>641.5</ele>
        <time>2011-01-04T10:23:37Z</time>
      </trkpt>
      <trkpt lat="39.824425997212529" lon="-3.484523026272655">
        <ele>643.10000000000002</ele>
        <time>2011-01-04T10:23:39Z</time>
      </trkpt>
      <trkpt lat="39.824712993577123" lon="-3.484584968537092">
        <ele>643.89999999999998</ele>
        <time>2011-01-04T10:23:40Z</time>
      </trkpt>
      <trkpt lat="39.825298972427845" lon="-3.484630985185504">
        <ele>645.20000000000005</ele>
        <time>2011-01-04T10:23:42Z</time>
      </trkpt>
      <trkpt lat="39.825599966570735" lon="-3.484609024599195">
        <ele>644.60000000000002</ele>
        <time>2011-01-04T10:23:43Z</time>
      </trkpt>
      <trkpt lat="39.832425015047193" lon="-3.483391972258687">
        <ele>663.60000000000002</ele>
        <time>2011-01-04T10:24:06Z</time>
      </trkpt>
      <trkpt lat="39.832712011411786" lon="-3.483303040266037">
        <ele>664.60000000000002</ele>
        <time>2011-01-04T10:24:07Z</time>
      </trkpt>
      <trkpt lat="39.833266977220774" lon="-3.483069017529488">
        <ele>667.20000000000005</ele>
        <time>2011-01-04T10:24:09Z</time>
      </trkpt>
      <trkpt lat="39.833533018827438" lon="-3.482917975634337">
        <ele>668.29999999999995</ele>
        <time>2011-01-04T10:24:10Z</time>
      </trkpt>
      <trkpt lat="39.833789002150297" lon="-3.482741033658385">
        <ele>669.5</ele>
        <time>2011-01-04T10:24:11Z</time>
      </trkpt>
      <trkpt lat="39.83403199352324" lon="-3.482541041448712">
        <ele>670.60000000000002</ele>
        <time>2011-01-04T10:24:12Z</time>
      </trkpt>
      <trkpt lat="39.834265010431409" lon="-3.482321016490459">
        <ele>671.70000000000005</ele>
        <time>2011-01-04T10:24:13Z</time>
      </trkpt>
      <trkpt lat="39.834699025377631" lon="-3.481832016259432">
        <ele>673.79999999999995</ele>
        <time>2011-01-04T10:24:15Z</time>
      </trkpt>
      <trkpt lat="39.834899017587304" lon="-3.481563962996006">
        <ele>674.79999999999995</ele>
        <time>2011-01-04T10:24:16Z</time>
      </trkpt>
      <trkpt lat="39.8350840061903" lon="-3.481280989944935">
        <ele>675.79999999999995</ele>
        <time>2011-01-04T10:24:17Z</time>
      </trkpt>
      <trkpt lat="39.835251979529858" lon="-3.480981001630426">
        <ele>676.60000000000002</ele>
        <time>2011-01-04T10:24:18Z</time>
      </trkpt>
      <trkpt lat="39.835403021425009" lon="-3.480665003880858">
        <ele>677.5</ele>
        <time>2011-01-04T10:24:19Z</time>
      </trkpt>
      <trkpt lat="39.837678037583828" lon="-3.47596300765872">
        <ele>693.60000000000002</ele>
        <time>2011-01-04T10:24:34Z</time>
      </trkpt>
      <trkpt lat="39.837881969287992" lon="-3.475697971880436">
        <ele>694.5</ele>
        <time>2011-01-04T10:24:35Z</time>
      </trkpt>
      <trkpt lat="39.838095959275961" lon="-3.47544701769948">
        <ele>695.39999999999998</ele>
        <time>2011-01-04T10:24:36Z</time>
      </trkpt>
      <trkpt lat="39.838321013376117" lon="-3.475209977477789">
        <ele>696.29999999999995</ele>
        <time>2011-01-04T10:24:37Z</time>
      </trkpt>
      <trkpt lat="39.838555958122015" lon="-3.474991964176297">
        <ele>697.20000000000005</ele>
        <time>2011-01-04T10:24:38Z</time>
      </trkpt>
      <trkpt lat="39.839054010808468" lon="-3.47460899502039">
        <ele>699</ele>
        <time>2011-01-04T10:24:40Z</time>
      </trkpt>
      <trkpt lat="39.839310999959707" lon="-3.474440015852451">
        <ele>699.89999999999998</ele>
        <time>2011-01-04T10:24:41Z</time>
      </trkpt>
      <trkpt lat="39.839577963575721" lon="-3.47428796812892">
        <ele>700.79999999999995</ele>
        <time>2011-01-04T10:24:42Z</time>
      </trkpt>
      <trkpt lat="39.839851967990398" lon="-3.474156036973">
        <ele>701.79999999999995</ele>
        <time>2011-01-04T10:24:43Z</time>
      </trkpt>
      <trkpt lat="39.84013301320374" lon="-3.474044976755977">
        <ele>702.70000000000005</ele>
        <time>2011-01-04T10:24:44Z</time>
      </trkpt>
      <trkpt lat="39.840995008125901" lon="-3.473808020353317">
        <ele>704.5</ele>
        <time>2011-01-04T10:24:47Z</time>
      </trkpt>
      <trkpt lat="39.849240034818649" lon="-3.472001971676946">
        <ele>706.20000000000005</ele>
        <time>2011-01-04T10:25:14Z</time>
      </trkpt>
      <trkpt lat="39.849552009254694" lon="-3.47196601331234">
        <ele>706.5</ele>
        <time>2011-01-04T10:25:15Z</time>
      </trkpt>
      <trkpt lat="39.851097967475653" lon="-3.471887977793813">
        <ele>709.10000000000002</ele>
        <time>2011-01-04T10:25:20Z</time>
      </trkpt>
      <trkpt lat="39.851404996588826" lon="-3.471887977793813">
        <ele>709.5</ele>
        <time>2011-01-04T10:25:21Z</time>
      </trkpt>
      <trkpt lat="39.851710014045238" lon="-3.471897030249238">
        <ele>710</ele>
        <time>2011-01-04T10:25:22Z</time>
      </trkpt>
      <trkpt lat="39.852316025644541" lon="-3.471964001655579">
        <ele>710.89999999999998</ele>
        <time>2011-01-04T10:25:24Z</time>
      </trkpt>
      <trkpt lat="39.852618025615811" lon="-3.472026027739048">
        <ele>711.5</ele>
        <time>2011-01-04T10:25:25Z</time>
      </trkpt>
      <trkpt lat="39.853211967274547" lon="-3.472215961664915">
        <ele>712.60000000000002</ele>
        <time>2011-01-04T10:25:27Z</time>
      </trkpt>
      <trkpt lat="39.854076979681849" lon="-3.472599014639854">
        <ele>715.39999999999998</ele>
        <time>2011-01-04T10:25:30Z</time>
      </trkpt>
      <trkpt lat="39.854637980461121" lon="-3.472899002954364">
        <ele>716.29999999999995</ele>
        <time>2011-01-04T10:25:32Z</time>
      </trkpt>
      <trkpt lat="39.864108022302389" lon="-3.476960035040975">
        <ele>719</ele>
        <time>2011-01-04T10:26:05Z</time>
      </trkpt>
      <trkpt lat="39.864682015031576" lon="-3.477137982845306">
        <ele>720.60000000000002</ele>
        <time>2011-01-04T10:26:07Z</time>
      </trkpt>
      <trkpt lat="39.865559013560414" lon="-3.477289024740458">
        <ele>721.79999999999995</ele>
        <time>2011-01-04T10:26:10Z</time>
      </trkpt>
      <trkpt lat="39.86797702498734" lon="-3.477400001138449">
        <ele>722.20000000000005</ele>
        <time>2011-01-04T10:26:18Z</time>
      </trkpt>
      <trkpt lat="39.868279024958611" lon="-3.477401006966829">
        <ele>722.70000000000005</ele>
        <time>2011-01-04T10:26:19Z</time>
      </trkpt>
      <trkpt lat="39.86857901327312" lon="-3.477388015016913">
        <ele>723.29999999999995</ele>
        <time>2011-01-04T10:26:20Z</time>
      </trkpt>
      <trkpt lat="39.874025993049145" lon="-3.476323010399938">
        <ele>725</ele>
        <time>2011-01-04T10:26:38Z</time>
      </trkpt>
      <trkpt lat="39.874332016333938" lon="-3.476250004023314">
        <ele>724.39999999999998</ele>
        <time>2011-01-04T10:26:39Z</time>
      </trkpt>
      <trkpt lat="39.875237010419369" lon="-3.475912967696786">
        <ele>721.79999999999995</ele>
        <time>2011-01-04T10:26:42Z</time>
      </trkpt>
      <trkpt lat="39.884692970663309" lon="-3.470757007598877">
        <ele>716.60000000000002</ele>
        <time>2011-01-04T10:27:14Z</time>
      </trkpt>
      <trkpt lat="39.884983990341425" lon="-3.470671009272337">
        <ele>717</ele>
        <time>2011-01-04T10:27:15Z</time>
      </trkpt>
      <trkpt lat="39.885576004162431" lon="-3.470555003732443">
        <ele>718.29999999999995</ele>
        <time>2011-01-04T10:27:17Z</time>
      </trkpt>
      <trkpt lat="39.88587498664856" lon="-3.470526002347469">
        <ele>718.89999999999998</ele>
        <time>2011-01-04T10:27:18Z</time>
      </trkpt>
      <trkpt lat="39.88617598079145" lon="-3.470514016225934">
        <ele>719.39999999999998</ele>
        <time>2011-01-04T10:27:19Z</time>
      </trkpt>
      <trkpt lat="39.88647697493434" lon="-3.470518961548805">
        <ele>720</ele>
        <time>2011-01-04T10:27:20Z</time>
      </trkpt>
      <trkpt lat="39.887078963220119" lon="-3.470575958490372">
        <ele>721.10000000000002</ele>
        <time>2011-01-04T10:27:22Z</time>
      </trkpt>
      <trkpt lat="39.88737802952528" lon="-3.470630021765828">
        <ele>721.60000000000002</ele>
        <time>2011-01-04T10:27:23Z</time>
      </trkpt>
      <trkpt lat="39.887675000354648" lon="-3.470704033970833">
        <ele>722.20000000000005</ele>
        <time>2011-01-04T10:27:24Z</time>
      </trkpt>
      <trkpt lat="39.88826097920537" lon="-3.470908971503377">
        <ele>723.29999999999995</ele>
        <time>2011-01-04T10:27:26Z</time>
      </trkpt>
      <trkpt lat="39.888833966106176" lon="-3.471179036423564">
        <ele>724.10000000000002</ele>
        <time>2011-01-04T10:27:28Z</time>
      </trkpt>
      <trkpt lat="39.891364965587854" lon="-3.472460964694619">
        <ele>730.29999999999995</ele>
        <time>2011-01-04T10:27:37Z</time>
      </trkpt>
      <trkpt lat="39.891649028286338" lon="-3.472542017698288">
        <ele>731.10000000000002</ele>
        <time>2011-01-04T10:27:38Z</time>
      </trkpt>
      <trkpt lat="39.891937030479312" lon="-3.472598008811474">
        <ele>731.79999999999995</ele>
        <time>2011-01-04T10:27:39Z</time>
      </trkpt>
      <trkpt lat="39.892229977995157" lon="-3.472630027681589">
        <ele>732.39999999999998</ele>
        <time>2011-01-04T10:27:40Z</time>
      </trkpt>
      <trkpt lat="39.913354972377419" lon="-3.476272970438004">
        <ele>730.39999999999998</ele>
        <time>2011-01-04T10:28:48Z</time>
      </trkpt>
      <trkpt lat="39.920500963926315" lon="-3.479262040928006">
        <ele>736</ele>
        <time>2011-01-04T10:29:12Z</time>
      </trkpt>
      <trkpt lat="39.921078979969025" lon="-3.479550965130329">
        <ele>737.20000000000005</ele>
        <time>2011-01-04T10:29:14Z</time>
      </trkpt>
      <trkpt lat="39.921636963263154" lon="-3.479881966486573">
        <ele>737.89999999999998</ele>
        <time>2011-01-04T10:29:16Z</time>
      </trkpt>
      <trkpt lat="39.944059979170561" lon="-3.493850994855166">
        <ele>736.5</ele>
        <time>2011-01-04T10:30:38Z</time>
      </trkpt>
      <trkpt lat="39.944317974150181" lon="-3.494051992893219">
        <ele>736.79999999999995</ele>
        <time>2011-01-04T10:30:39Z</time>
      </trkpt>
      <trkpt lat="39.944816026836634" lon="-3.494491958990693">
        <ele>737.20000000000005</ele>
        <time>2011-01-04T10:30:41Z</time>
      </trkpt>
      <trkpt lat="39.945053989067674" lon="-3.494733022525907">
        <ele>737.10000000000002</ele>
        <time>2011-01-04T10:30:42Z</time>
      </trkpt>
      <trkpt lat="39.94528298266232" lon="-3.494990011677146">
        <ele>737</ele>
        <time>2011-01-04T10:30:43Z</time>
      </trkpt>
      <trkpt lat="39.9481419660151" lon="-3.49895004183054">
        <ele>738.10000000000002</ele>
        <time>2011-01-04T10:30:57Z</time>
      </trkpt>
      <trkpt lat="39.94850599206984" lon="-3.499510958790779">
        <ele>738.10000000000002</ele>
        <time>2011-01-04T10:30:59Z</time>
      </trkpt>
      <trkpt lat="39.948669020086527" lon="-3.49981002509594">
        <ele>738.10000000000002</ele>
        <time>2011-01-04T10:31:00Z</time>
      </trkpt>
      <trkpt lat="39.948954004794359" lon="-3.500443026423454">
        <ele>738.10000000000002</ele>
        <time>2011-01-04T10:31:02Z</time>
      </trkpt>
      <trkpt lat="39.950570035725832" lon="-3.505117027089">
        <ele>734.60000000000002</ele>
        <time>2011-01-04T10:31:16Z</time>
      </trkpt>
      <trkpt lat="39.951451979577541" lon="-3.507857993245125">
        <ele>733</ele>
        <time>2011-01-04T10:31:24Z</time>
      </trkpt>
      <trkpt lat="39.951531020924449" lon="-3.508219001814723">
        <ele>733</ele>
        <time>2011-01-04T10:31:25Z</time>
      </trkpt>
      <trkpt lat="39.951592041179538" lon="-3.508585039526224">
        <ele>733</ele>
        <time>2011-01-04T10:31:26Z</time>
      </trkpt>
      <trkpt lat="39.951633028686047" lon="-3.508956022560597">
        <ele>732.89999999999998</ele>
        <time>2011-01-04T10:31:27Z</time>
      </trkpt>
      <trkpt lat="39.951654989272356" lon="-3.50932901725173">
        <ele>732.89999999999998</ele>
        <time>2011-01-04T10:31:28Z</time>
      </trkpt>
      <trkpt lat="39.951735036447644" lon="-3.516041999682784">
        <ele>724.10000000000002</ele>
        <time>2011-01-04T10:31:46Z</time>
      </trkpt>
      <trkpt lat="39.95179002173245" lon="-3.516394039615989">
        <ele>723.10000000000002</ele>
        <time>2011-01-04T10:31:47Z</time>
      </trkpt>
      <trkpt lat="39.951934022828937" lon="-3.517081020399928">
        <ele>720.29999999999995</ele>
        <time>2011-01-04T10:31:49Z</time>
      </trkpt>
      <trkpt lat="39.952126974239945" lon="-3.517756015062332">
        <ele>717.20000000000005</ele>
        <time>2011-01-04T10:31:51Z</time>
      </trkpt>
      <trkpt lat="39.952374994754791" lon="-3.518422041088343">
        <ele>713.79999999999995</ele>
        <time>2011-01-04T10:31:53Z</time>
      </trkpt>
      <trkpt lat="39.95267397724092" lon="-3.519072979688644">
        <ele>710.5</ele>
        <time>2011-01-04T10:31:55Z</time>
      </trkpt>
      <trkpt lat="39.953213017433882" lon="-3.51998602040112">
        <ele>705.5</ele>
        <time>2011-01-04T10:31:58Z</time>
      </trkpt>
      <trkpt lat="39.96519897133112" lon="-3.537344019860029">
        <ele>633.79999999999995</ele>
        <time>2011-01-04T10:32:59Z</time>
      </trkpt>
      <trkpt lat="39.965356970205903" lon="-3.537670997902751">
        <ele>633.5</ele>
        <time>2011-01-04T10:33:00Z</time>
      </trkpt>
      <trkpt lat="39.994943998754025" lon="-3.602002020925283">
        <ele>598.29999999999995</ele>
        <time>2011-01-04T10:36:09Z</time>
      </trkpt>
      <trkpt lat="39.995134016498923" lon="-3.602304020896554">
        <ele>598.10000000000002</ele>
        <time>2011-01-04T10:36:10Z</time>
      </trkpt>
      <trkpt lat="39.995543975383043" lon="-3.602868961170316">
        <ele>598.10000000000002</ele>
        <time>2011-01-04T10:36:12Z</time>
      </trkpt>
      <trkpt lat="39.995762994512916" lon="-3.603125028312206">
        <ele>598</ele>
        <time>2011-01-04T10:36:13Z</time>
      </trkpt>
      <trkpt lat="39.996237996965647" lon="-3.603586032986641">
        <ele>598</ele>
        <time>2011-01-04T10:36:15Z</time>
      </trkpt>
      <trkpt lat="40.009089969098568" lon="-3.615675000473857">
        <ele>574.79999999999995</ele>
        <time>2011-01-04T10:37:05Z</time>
      </trkpt>
      <trkpt lat="40.009303037077188" lon="-3.615932995453477">
        <ele>572.89999999999998</ele>
        <time>2011-01-04T10:37:06Z</time>
      </trkpt>
      <trkpt lat="40.009692963212729" lon="-3.616487039253116">
        <ele>568.39999999999998</ele>
        <time>2011-01-04T10:37:08Z</time>
      </trkpt>
      <trkpt lat="40.009872000664473" lon="-3.616784010082483">
        <ele>566.10000000000002</ele>
        <time>2011-01-04T10:37:09Z</time>
      </trkpt>
      <trkpt lat="40.010198978707194" lon="-3.617413993924856">
        <ele>561.5</ele>
        <time>2011-01-04T10:37:11Z</time>
      </trkpt>
      <trkpt lat="40.010343985632062" lon="-3.617749018594623">
        <ele>559.89999999999998</ele>
        <time>2011-01-04T10:37:12Z</time>
      </trkpt>
      <trkpt lat="40.01059602946043" lon="-3.618438011035323">
        <ele>556.39999999999998</ele>
        <time>2011-01-04T10:37:14Z</time>
      </trkpt>
      <trkpt lat="40.010702982544899" lon="-3.61879600211978">
        <ele>555.10000000000002</ele>
        <time>2011-01-04T10:37:15Z</time>
      </trkpt>
      <trkpt lat="40.010873973369598" lon="-3.61952698789537">
        <ele>552.89999999999998</ele>
        <time>2011-01-04T10:37:17Z</time>
      </trkpt>
      <trkpt lat="40.010938011109829" lon="-3.619895959272981">
        <ele>552</ele>
        <time>2011-01-04T10:37:18Z</time>
      </trkpt>
      <trkpt lat="40.011839987710118" lon="-3.628600984811783">
        <ele>521.39999999999998</ele>
        <time>2011-01-04T10:37:42Z</time>
      </trkpt>
      <trkpt lat="40.011943001300097" lon="-3.628926035016775">
        <ele>521.29999999999995</ele>
        <time>2011-01-04T10:37:43Z</time>
      </trkpt>
      <trkpt lat="40.012062024325132" lon="-3.629243038594723">
        <ele>521.10000000000002</ele>
        <time>2011-01-04T10:37:44Z</time>
      </trkpt>
      <trkpt lat="40.012196972966194" lon="-3.629549983888865">
        <ele>521.10000000000002</ele>
        <time>2011-01-04T10:37:45Z</time>
      </trkpt>
      <trkpt lat="40.012347009032965" lon="-3.629845026880503">
        <ele>521</ele>
        <time>2011-01-04T10:37:46Z</time>
      </trkpt>
      <trkpt lat="40.012514982372522" lon="-3.630123976618052">
        <ele>520.70000000000005</ele>
        <time>2011-01-04T10:37:47Z</time>
      </trkpt>
      <trkpt lat="40.012697959318757" lon="-3.630384989082813">
        <ele>520.20000000000005</ele>
        <time>2011-01-04T10:37:48Z</time>
      </trkpt>
      <trkpt lat="40.012894012033939" lon="-3.630625968798995">
        <ele>519.70000000000005</ele>
        <time>2011-01-04T10:37:49Z</time>
      </trkpt>
      <trkpt lat="40.01332500949502" lon="-3.631058977916837">
        <ele>518.70000000000005</ele>
        <time>2011-01-04T10:37:51Z</time>
      </trkpt>
      <trkpt lat="40.013558026403189" lon="-3.631251007318497">
        <ele>518</ele>
        <time>2011-01-04T10:37:52Z</time>
      </trkpt>
      <trkpt lat="40.015208004042506" lon="-3.63250401802361">
        <ele>513.29999999999995</ele>
        <time>2011-01-04T10:37:59Z</time>
      </trkpt>
      <trkpt lat="40.015412019565701" lon="-3.632711973041296">
        <ele>512.79999999999995</ele>
        <time>2011-01-04T10:38:00Z</time>
      </trkpt>
      <trkpt lat="40.015791971236467" lon="-3.633156968280673">
        <ele>511.60000000000002</ele>
        <time>2011-01-04T10:38:02Z</time>
      </trkpt>
      <trkpt lat="40.01777496188879" lon="-3.6357700265944">
        <ele>504.89999999999998</ele>
        <time>2011-01-04T10:38:13Z</time>
      </trkpt>
      <trkpt lat="40.017952993512154" lon="-3.63602802157402">
        <ele>504.30000000000001</ele>
        <time>2011-01-04T10:38:14Z</time>
      </trkpt>
      <trkpt lat="40.018619019538164" lon="-3.637149017304182">
        <ele>502</ele>
        <time>2011-01-04T10:38:18Z</time>
      </trkpt>
      <trkpt lat="40.018914984539151" lon="-3.637755028903484">
        <ele>501.80000000000001</ele>
        <time>2011-01-04T10:38:20Z</time>
      </trkpt>
      <trkpt lat="40.019177002832294" lon="-3.638388030230999">
        <ele>502.10000000000002</ele>
        <time>2011-01-04T10:38:22Z</time>
      </trkpt>
      <trkpt lat="40.019931960850954" lon="-3.640703028067946">
        <ele>504.19999999999999</ele>
        <time>2011-01-04T10:38:29Z</time>
      </trkpt>
      <trkpt lat="40.021729962900281" lon="-3.646272970363498">
        <ele>489.80000000000001</ele>
        <time>2011-01-04T10:38:45Z</time>
      </trkpt>
      <trkpt lat="40.021886033937335" lon="-3.646601038053632">
        <ele>488.80000000000001</ele>
        <time>2011-01-04T10:38:46Z</time>
      </trkpt>
      <trkpt lat="40.025669038295746" lon="-3.653680980205536">
        <ele>487.19999999999999</ele>
        <time>2011-01-04T10:39:08Z</time>
      </trkpt>
      <trkpt lat="40.025868024677038" lon="-3.653975017368794">
        <ele>487.10000000000002</ele>
        <time>2011-01-04T10:39:09Z</time>
      </trkpt>
      <trkpt lat="40.026298016309738" lon="-3.654521014541388">
        <ele>487</ele>
        <time>2011-01-04T10:39:11Z</time>
      </trkpt>
      <trkpt lat="40.026530027389526" lon="-3.654770962893963">
        <ele>487</ele>
        <time>2011-01-04T10:39:12Z</time>
      </trkpt>
      <trkpt lat="40.027024978771806" lon="-3.655226016417146">
        <ele>487.10000000000002</ele>
        <time>2011-01-04T10:39:14Z</time>
      </trkpt>
      <trkpt lat="40.027284985408187" lon="-3.655432965606451">
        <ele>487.10000000000002</ele>
        <time>2011-01-04T10:39:15Z</time>
      </trkpt>
      <trkpt lat="40.035032965242863" lon="-3.661266015842557">
        <ele>488.10000000000002</ele>
        <time>2011-01-04T10:39:44Z</time>
      </trkpt>
      <trkpt lat="40.035592038184404" lon="-3.661519987508655">
        <ele>488.5</ele>
        <time>2011-01-04T10:39:46Z</time>
      </trkpt>
      <trkpt lat="40.039452994242311" lon="-3.662838963791728">
        <ele>491.69999999999999</ele>
        <time>2011-01-04T10:40:01Z</time>
      </trkpt>
      <trkpt lat="40.039706965908408" lon="-3.662895038723946">
        <ele>492.19999999999999</ele>
        <time>2011-01-04T10:40:02Z</time>
      </trkpt>
      <trkpt lat="40.039964038878679" lon="-3.662932002916932">
        <ele>492.80000000000001</ele>
        <time>2011-01-04T10:40:03Z</time>
      </trkpt>
      <trkpt lat="40.040223961696029" lon="-3.66294801235199">
        <ele>493.5</ele>
        <time>2011-01-04T10:40:04Z</time>
      </trkpt>
      <trkpt lat="40.040485979989171" lon="-3.662939965724945">
        <ele>494.30000000000001</ele>
        <time>2011-01-04T10:40:05Z</time>
      </trkpt>
      <trkpt lat="40.041010016575456" lon="-3.662860002368689">
        <ele>495.89999999999998</ele>
        <time>2011-01-04T10:40:07Z</time>
      </trkpt>
      <trkpt lat="40.041271029040217" lon="-3.662786995992065">
        <ele>496.80000000000001</ele>
        <time>2011-01-04T10:40:08Z</time>
      </trkpt>
      <trkpt lat="40.041786013171077" lon="-3.662581974640489">
        <ele>498.80000000000001</ele>
        <time>2011-01-04T10:40:10Z</time>
      </trkpt>
      <trkpt lat="40.046335961669683" lon="-3.660035971552134">
        <ele>506.60000000000002</ele>
        <time>2011-01-04T10:40:27Z</time>
      </trkpt>
      <trkpt lat="40.046604014933109" lon="-3.659869004040957">
        <ele>506.60000000000002</ele>
        <time>2011-01-04T10:40:28Z</time>
      </trkpt>
      <trkpt lat="40.04737900570035" lon="-3.659272966906428">
        <ele>506.5</ele>
        <time>2011-01-04T10:40:31Z</time>
      </trkpt>
      <trkpt lat="40.059006968513131" lon="-3.649967964738607">
        <ele>503.30000000000001</ele>
        <time>2011-01-04T10:41:15Z</time>
      </trkpt>
      <trkpt lat="40.059291031211615" lon="-3.649789011105895">
        <ele>503</ele>
        <time>2011-01-04T10:41:16Z</time>
      </trkpt>
      <trkpt lat="40.059870975092053" lon="-3.649469995871186">
        <ele>502.39999999999998</ele>
        <time>2011-01-04T10:41:18Z</time>
      </trkpt>
      <trkpt lat="40.06046399474144" lon="-3.649209989234805">
        <ele>502</ele>
        <time>2011-01-04T10:41:20Z</time>
      </trkpt>
      <trkpt lat="40.065588019788265" lon="-3.647171007469297">
        <ele>502.30000000000001</ele>
        <time>2011-01-04T10:41:37Z</time>
      </trkpt>
      <trkpt lat="40.065869987010956" lon="-3.646969003602862">
        <ele>502.5</ele>
        <time>2011-01-04T10:41:38Z</time>
      </trkpt>
      <trkpt lat="40.070781027898192" lon="-3.643063958734274">
        <ele>504.5</ele>
        <time>2011-01-04T10:41:56Z</time>
      </trkpt>
      <trkpt lat="40.071072969585657" lon="-3.642910989001393">
        <ele>504.69999999999999</ele>
        <time>2011-01-04T10:41:57Z</time>
      </trkpt>
      <trkpt lat="40.079600969329476" lon="-3.637899029999971">
        <ele>504.30000000000001</ele>
        <time>2011-01-04T10:42:27Z</time>
      </trkpt>
      <trkpt lat="40.079896012321115" lon="-3.637785958126187">
        <ele>504.30000000000001</ele>
        <time>2011-01-04T10:42:28Z</time>
      </trkpt>
      <trkpt lat="40.080196000635624" lon="-3.637694008648396">
        <ele>504.10000000000002</ele>
        <time>2011-01-04T10:42:29Z</time>
      </trkpt>
      <trkpt lat="40.080806035548449" lon="-3.637565011158586">
        <ele>503.5</ele>
        <time>2011-01-04T10:42:31Z</time>
      </trkpt>
      <trkpt lat="40.082364985719323" lon="-3.637443976476789">
        <ele>503.39999999999998</ele>
        <time>2011-01-04T10:42:36Z</time>
      </trkpt>
      <trkpt lat="40.084816021844745" lon="-3.637233003973961">
        <ele>507.5</ele>
        <time>2011-01-04T10:42:44Z</time>
      </trkpt>
      <trkpt lat="40.085107963532209" lon="-3.637148011475802">
        <ele>508</ele>
        <time>2011-01-04T10:42:45Z</time>
      </trkpt>
      <trkpt lat="40.085686985403299" lon="-3.636922035366297">
        <ele>509</ele>
        <time>2011-01-04T10:42:47Z</time>
      </trkpt>
      <trkpt lat="40.086531965062022" lon="-3.636456001549959">
        <ele>509.80000000000001</ele>
        <time>2011-01-04T10:42:50Z</time>
      </trkpt>
      <trkpt lat="40.090189995244145" lon="-3.634053999558091">
        <ele>510.39999999999998</ele>
        <time>2011-01-04T10:43:03Z</time>
      </trkpt>
      <trkpt lat="40.090484032407403" lon="-3.6339430231601">
        <ele>510.5</ele>
        <time>2011-01-04T10:43:04Z</time>
      </trkpt>
      <trkpt lat="40.090778991580009" lon="-3.633861970156431">
        <ele>510.5</ele>
        <time>2011-01-04T10:43:05Z</time>
      </trkpt>
      <trkpt lat="40.091076968237758" lon="-3.633812014013529">
        <ele>510.60000000000002</ele>
        <time>2011-01-04T10:43:06Z</time>
      </trkpt>
      <trkpt lat="40.091677028685808" lon="-3.633779995143414">
        <ele>511.19999999999999</ele>
        <time>2011-01-04T10:43:08Z</time>
      </trkpt>
      <trkpt lat="40.091978022828698" lon="-3.633787035942078">
        <ele>511.30000000000001</ele>
        <time>2011-01-04T10:43:09Z</time>
      </trkpt>
      <trkpt lat="40.09258302859962" lon="-3.633801033720374">
        <ele>512.20000000000005</ele>
        <time>2011-01-04T10:43:11Z</time>
      </trkpt>
      <trkpt lat="40.092886034399271" lon="-3.633806984871626">
        <ele>512.89999999999998</ele>
        <time>2011-01-04T10:43:12Z</time>
      </trkpt>
      <trkpt lat="40.093189962208271" lon="-3.633808996528387">
        <ele>513.60000000000002</ele>
        <time>2011-01-04T10:43:13Z</time>
      </trkpt>
      <trkpt lat="40.093493973836303" lon="-3.633808996528387">
        <ele>514.29999999999995</ele>
        <time>2011-01-04T10:43:14Z</time>
      </trkpt>
      <trkpt lat="40.094398967921734" lon="-3.633736995980144">
        <ele>516.5</ele>
        <time>2011-01-04T10:43:17Z</time>
      </trkpt>
      <trkpt lat="40.094697028398514" lon="-3.633670024573803">
        <ele>517.39999999999998</ele>
        <time>2011-01-04T10:43:18Z</time>
      </trkpt>
      <trkpt lat="40.097288964316249" lon="-3.632883969694376">
        <ele>532</ele>
        <time>2011-01-04T10:43:27Z</time>
      </trkpt>
      <trkpt lat="40.097567997872829" lon="-3.632861003279686">
        <ele>533.89999999999998</ele>
        <time>2011-01-04T10:43:28Z</time>
      </trkpt>
      <trkpt lat="40.097845019772649" lon="-3.632862009108067">
        <ele>535.5</ele>
        <time>2011-01-04T10:43:29Z</time>
      </trkpt>
      <trkpt lat="40.098118018358946" lon="-3.632892016321421">
        <ele>537.39999999999998</ele>
        <time>2011-01-04T10:43:30Z</time>
      </trkpt>
      <trkpt lat="40.098384981974959" lon="-3.632949013262987">
        <ele>539.29999999999995</ele>
        <time>2011-01-04T10:43:31Z</time>
      </trkpt>
      <trkpt lat="40.098645994439721" lon="-3.633028976619244">
        <ele>541.20000000000005</ele>
        <time>2011-01-04T10:43:32Z</time>
      </trkpt>
      <trkpt lat="40.098898960277438" lon="-3.63312897272408">
        <ele>543</ele>
        <time>2011-01-04T10:43:33Z</time>
      </trkpt>
      <trkpt lat="40.099144969135523" lon="-3.633251013234258">
        <ele>544.5</ele>
        <time>2011-01-04T10:43:34Z</time>
      </trkpt>
      <trkpt lat="40.099379997700453" lon="-3.633397025987506">
        <ele>546</ele>
        <time>2011-01-04T10:43:35Z</time>
      </trkpt>
      <trkpt lat="40.099604967981577" lon="-3.633568016812205">
        <ele>547.5</ele>
        <time>2011-01-04T10:43:36Z</time>
      </trkpt>
      <trkpt lat="40.100032025948167" lon="-3.633955009281635">
        <ele>550.60000000000002</ele>
        <time>2011-01-04T10:43:38Z</time>
      </trkpt>
      <trkpt lat="40.10042798705399" lon="-3.634389024227858">
        <ele>554</ele>
        <time>2011-01-04T10:43:40Z</time>
      </trkpt>
      <trkpt lat="40.100608030334115" lon="-3.634626986458898">
        <ele>555.70000000000005</ele>
        <time>2011-01-04T10:43:41Z</time>
      </trkpt>
      <trkpt lat="40.100779021158814" lon="-3.634878024458885">
        <ele>557</ele>
        <time>2011-01-04T10:43:42Z</time>
      </trkpt>
      <trkpt lat="40.100937020033598" lon="-3.635141970589757">
        <ele>558.5</ele>
        <time>2011-01-04T10:43:43Z</time>
      </trkpt>
      <trkpt lat="40.101083032786846" lon="-3.635415975004435">
        <ele>559.79999999999995</ele>
        <time>2011-01-04T10:43:44Z</time>
      </trkpt>
      <trkpt lat="40.101209012791514" lon="-3.63570598885417">
        <ele>561.60000000000002</ele>
        <time>2011-01-04T10:43:45Z</time>
      </trkpt>
      <trkpt lat="40.101319989189506" lon="-3.63600698299706">
        <ele>563.60000000000002</ele>
        <time>2011-01-04T10:43:46Z</time>
      </trkpt>
      <trkpt lat="40.1014169678092" lon="-3.636315017938614">
        <ele>565.60000000000002</ele>
        <time>2011-01-04T10:43:47Z</time>
      </trkpt>
      <trkpt lat="40.101575972512364" lon="-3.636945001780987">
        <ele>569.70000000000005</ele>
        <time>2011-01-04T10:43:49Z</time>
      </trkpt>
      <trkpt lat="40.102349035441875" lon="-3.640336990356445">
        <ele>589.70000000000005</ele>
        <time>2011-01-04T10:44:00Z</time>
      </trkpt>
      <trkpt lat="40.102451965212822" lon="-3.640619963407517">
        <ele>591.5</ele>
        <time>2011-01-04T10:44:01Z</time>
      </trkpt>
      <trkpt lat="40.103666000068188" lon="-3.64337501116097">
        <ele>602.20000000000005</ele>
        <time>2011-01-04T10:44:11Z</time>
      </trkpt>
      <trkpt lat="40.103958025574684" lon="-3.643917990848422">
        <ele>603.60000000000002</ele>
        <time>2011-01-04T10:44:13Z</time>
      </trkpt>
      <trkpt lat="40.104462029412389" lon="-3.644697004929185">
        <ele>605.5</ele>
        <time>2011-01-04T10:44:16Z</time>
      </trkpt>
      <trkpt lat="40.104837035760283" lon="-3.645189022645354">
        <ele>606.39999999999998</ele>
        <time>2011-01-04T10:44:18Z</time>
      </trkpt>
      <trkpt lat="40.10547598823905" lon="-3.645858988165855">
        <ele>607.5</ele>
        <time>2011-01-04T10:44:21Z</time>
      </trkpt>
      <trkpt lat="40.105943027883768" lon="-3.646267019212246">
        <ele>607.70000000000005</ele>
        <time>2011-01-04T10:44:23Z</time>
      </trkpt>
      <trkpt lat="40.106444014236331" lon="-3.646632973104715">
        <ele>607.79999999999995</ele>
        <time>2011-01-04T10:44:25Z</time>
      </trkpt>
      <trkpt lat="40.121418032795191" lon="-3.655202966183424">
        <ele>613.89999999999998</ele>
        <time>2011-01-04T10:45:20Z</time>
      </trkpt>
      <trkpt lat="40.121686002239585" lon="-3.655331963673234">
        <ele>614.20000000000005</ele>
        <time>2011-01-04T10:45:21Z</time>
      </trkpt>
      <trkpt lat="40.122487982735038" lon="-3.655631029978395">
        <ele>613.89999999999998</ele>
        <time>2011-01-04T10:45:24Z</time>
      </trkpt>
      <trkpt lat="40.123315025120974" lon="-3.65579598583281">
        <ele>612.70000000000005</ele>
        <time>2011-01-04T10:45:27Z</time>
      </trkpt>
      <trkpt lat="40.1573830191046" lon="-3.660041000694037">
        <ele>628.70000000000005</ele>
        <time>2011-01-04T10:47:22Z</time>
      </trkpt>
      <trkpt lat="40.157671021297574" lon="-3.660151977092028">
        <ele>628.20000000000005</ele>
        <time>2011-01-04T10:47:23Z</time>
      </trkpt>
      <trkpt lat="40.187394004315138" lon="-3.672183025628328">
        <ele>598.20000000000005</ele>
        <time>2011-01-04T10:49:09Z</time>
      </trkpt>
      <trkpt lat="40.187682006508112" lon="-3.672232981771231">
        <ele>597.29999999999995</ele>
        <time>2011-01-04T10:49:10Z</time>
      </trkpt>
      <trkpt lat="40.188264967873693" lon="-3.672287967056036">
        <ele>595.89999999999998</ele>
        <time>2011-01-04T10:49:12Z</time>
      </trkpt>
      <trkpt lat="40.18855799920857" lon="-3.672288972884417">
        <ele>595.5</ele>
        <time>2011-01-04T10:49:13Z</time>
      </trkpt>
      <trkpt lat="40.188852036371827" lon="-3.672275980934501">
        <ele>595.20000000000005</ele>
        <time>2011-01-04T10:49:14Z</time>
      </trkpt>
      <trkpt lat="40.190609972923994" lon="-3.672070037573576">
        <ele>597.39999999999998</ele>
        <time>2011-01-04T10:49:20Z</time>
      </trkpt>
      <trkpt lat="40.19090199843049" lon="-3.672071965411305">
        <ele>597.89999999999998</ele>
        <time>2011-01-04T10:49:21Z</time>
      </trkpt>
      <trkpt lat="40.191190000623465" lon="-3.672097027301788">
        <ele>598.5</ele>
        <time>2011-01-04T10:49:22Z</time>
      </trkpt>
      <trkpt lat="40.191474985331297" lon="-3.67214597761631">
        <ele>599</ele>
        <time>2011-01-04T10:49:23Z</time>
      </trkpt>
      <trkpt lat="40.191755024716258" lon="-3.672219989821315">
        <ele>599.70000000000005</ele>
        <time>2011-01-04T10:49:24Z</time>
      </trkpt>
      <trkpt lat="40.192030034959316" lon="-3.67231797426939">
        <ele>600.39999999999998</ele>
        <time>2011-01-04T10:49:25Z</time>
      </trkpt>
      <trkpt lat="40.192299010232091" lon="-3.672440014779568">
        <ele>601.20000000000005</ele>
        <time>2011-01-04T10:49:26Z</time>
      </trkpt>
      <trkpt lat="40.192561028525233" lon="-3.672584015876055">
        <ele>601.70000000000005</ele>
        <time>2011-01-04T10:49:27Z</time>
      </trkpt>
      <trkpt lat="40.19281399436295" lon="-3.672748971730471">
        <ele>602.39999999999998</ele>
        <time>2011-01-04T10:49:28Z</time>
      </trkpt>
      <trkpt lat="40.193056985735893" lon="-3.672935971990228">
        <ele>603.10000000000002</ele>
        <time>2011-01-04T10:49:29Z</time>
      </trkpt>
      <trkpt lat="40.193290002644062" lon="-3.673139987513423">
        <ele>603.70000000000005</ele>
        <time>2011-01-04T10:49:30Z</time>
      </trkpt>
      <trkpt lat="40.195856038480997" lon="-3.675602003931999">
        <ele>610.60000000000002</ele>
        <time>2011-01-04T10:49:42Z</time>
      </trkpt>
      <trkpt lat="40.196090983226895" lon="-3.675744999200106">
        <ele>611</ele>
        <time>2011-01-04T10:49:43Z</time>
      </trkpt>
      <trkpt lat="40.227909022942185" lon="-3.688735021278262">
        <ele>637.79999999999995</ele>
        <time>2011-01-04T10:51:45Z</time>
      </trkpt>
      <trkpt lat="40.228189984336495" lon="-3.688839040696621">
        <ele>637.89999999999998</ele>
        <time>2011-01-04T10:51:46Z</time>
      </trkpt>
      <trkpt lat="40.230214968323708" lon="-3.689357964321971">
        <ele>637.79999999999995</ele>
        <time>2011-01-04T10:51:53Z</time>
      </trkpt>
      <trkpt lat="40.245492998510599" lon="-3.689799020066857">
        <ele>613.10000000000002</ele>
        <time>2011-01-04T10:52:47Z</time>
      </trkpt>
      <trkpt lat="40.245750993490219" lon="-3.689798014238477">
        <ele>612.60000000000002</ele>
        <time>2011-01-04T10:52:48Z</time>
      </trkpt>
      <trkpt lat="40.246726982295513" lon="-3.689788961783052">
        <ele>611.5</ele>
        <time>2011-01-04T10:52:52Z</time>
      </trkpt>
      <trkpt lat="40.246953964233398" lon="-3.689788039773703">
        <ele>611.20000000000005</ele>
        <time>2011-01-04T10:52:53Z</time>
      </trkpt>
      <trkpt lat="40.247179018333554" lon="-3.689790973439813">
        <ele>610.70000000000005</ele>
        <time>2011-01-04T10:52:54Z</time>
      </trkpt>
      <trkpt lat="40.265594981610775" lon="-3.69040897116065">
        <ele>595.60000000000002</ele>
        <time>2011-01-04T10:54:23Z</time>
      </trkpt>
      <trkpt lat="40.265782987698913" lon="-3.690412994474173">
        <ele>596</ele>
        <time>2011-01-04T10:54:24Z</time>
      </trkpt>
      <trkpt lat="40.266497964039445" lon="-3.690425986424089">
        <ele>597.20000000000005</ele>
        <time>2011-01-04T10:54:28Z</time>
      </trkpt>
      <trkpt lat="40.268510039895773" lon="-3.690477032214403">
        <ele>595.29999999999995</ele>
        <time>2011-01-04T10:54:38Z</time>
      </trkpt>
      <trkpt lat="40.26872000657022" lon="-3.690478960052133">
        <ele>594.5</ele>
        <time>2011-01-04T10:54:39Z</time>
      </trkpt>
      <trkpt lat="40.268923016265035" lon="-3.690477032214403">
        <ele>593.89999999999998</ele>
        <time>2011-01-04T10:54:40Z</time>
      </trkpt>
      <trkpt lat="40.270866025239229" lon="-3.690421041101217">
        <ele>588.10000000000002</ele>
        <time>2011-01-04T10:54:52Z</time>
      </trkpt>
      <trkpt lat="40.271032992750406" lon="-3.690420035272837">
        <ele>588</ele>
        <time>2011-01-04T10:54:53Z</time>
      </trkpt>
      <trkpt lat="40.271203983575106" lon="-3.690421041101217">
        <ele>587.79999999999995</ele>
        <time>2011-01-04T10:54:54Z</time>
      </trkpt>
      <trkpt lat="40.271916026249528" lon="-3.69042799808085">
        <ele>587.70000000000005</ele>
        <time>2011-01-04T10:54:58Z</time>
      </trkpt>
      <trkpt lat="40.272434027865529" lon="-3.690431015565991">
        <ele>588.10000000000002</ele>
        <time>2011-01-04T10:55:01Z</time>
      </trkpt>
      <trkpt lat="40.272596972063184" lon="-3.690432021394372">
        <ele>588.20000000000005</ele>
        <time>2011-01-04T10:55:02Z</time>
      </trkpt>
      <trkpt lat="40.272913975641131" lon="-3.690432021394372">
        <ele>588.70000000000005</ele>
        <time>2011-01-04T10:55:04Z</time>
      </trkpt>
      <trkpt lat="40.273074992001057" lon="-3.690431015565991">
        <ele>589.20000000000005</ele>
        <time>2011-01-04T10:55:05Z</time>
      </trkpt>
      <trkpt lat="40.273405993357301" lon="-3.690402014181018">
        <ele>590.5</ele>
        <time>2011-01-04T10:55:07Z</time>
      </trkpt>
      <trkpt lat="40.273572960868478" lon="-3.690371001139283">
        <ele>591</ele>
        <time>2011-01-04T10:55:08Z</time>
      </trkpt>
      <trkpt lat="40.273739006370306" lon="-3.69032297283411">
        <ele>591.60000000000002</ele>
        <time>2011-01-04T10:55:09Z</time>
      </trkpt>
      <trkpt lat="40.273905973881483" lon="-3.690254995599389">
        <ele>592.20000000000005</ele>
        <time>2011-01-04T10:55:10Z</time>
      </trkpt>
      <trkpt lat="40.274072019383311" lon="-3.690164973959327">
        <ele>592.70000000000005</ele>
        <time>2011-01-04T10:55:11Z</time>
      </trkpt>
      <trkpt lat="40.274236975237727" lon="-3.690055003389716">
        <ele>593.10000000000002</ele>
        <time>2011-01-04T10:55:12Z</time>
      </trkpt>
      <trkpt lat="40.274397991597652" lon="-3.689925000071526">
        <ele>593.29999999999995</ele>
        <time>2011-01-04T10:55:13Z</time>
      </trkpt>
      <trkpt lat="40.278156017884612" lon="-3.686652034521103">
        <ele>592.60000000000002</ele>
        <time>2011-01-04T10:55:38Z</time>
      </trkpt>
      <trkpt lat="40.278307981789112" lon="-3.686486994847655">
        <ele>592.20000000000005</ele>
        <time>2011-01-04T10:55:39Z</time>
      </trkpt>
      <trkpt lat="40.281217005103827" lon="-3.683207994326949">
        <ele>591.29999999999995</ele>
        <time>2011-01-04T10:55:55Z</time>
      </trkpt>
      <trkpt lat="40.281451027840376" lon="-3.683003978803754">
        <ele>591.5</ele>
        <time>2011-01-04T10:55:56Z</time>
      </trkpt>
      <trkpt lat="40.282184025272727" lon="-3.682437026873231">
        <ele>592</ele>
        <time>2011-01-04T10:55:59Z</time>
      </trkpt>
      <trkpt lat="40.292282961308956" lon="-3.674694998189807">
        <ele>593.39999999999998</ele>
        <time>2011-01-04T10:56:38Z</time>
      </trkpt>
      <trkpt lat="40.292521007359028" lon="-3.674433985725045">
        <ele>593.29999999999995</ele>
        <time>2011-01-04T10:56:39Z</time>
      </trkpt>
      <trkpt lat="40.292757041752338" lon="-3.674165010452271">
        <ele>593.20000000000005</ele>
        <time>2011-01-04T10:56:40Z</time>
      </trkpt>
      <trkpt lat="40.309768030419946" lon="-3.651545019820333">
        <ele>566.20000000000005</ele>
        <time>2011-01-04T10:57:59Z</time>
      </trkpt>
      <trkpt lat="40.311184991151094" lon="-3.650438021868467">
        <ele>563.89999999999998</ele>
        <time>2011-01-04T10:58:04Z</time>
      </trkpt>
      <trkpt lat="40.312372036278248" lon="-3.64967199973762">
        <ele>562.20000000000005</ele>
        <time>2011-01-04T10:58:08Z</time>
      </trkpt>
      <trkpt lat="40.314822988584638" lon="-3.648419994860888">
        <ele>559.60000000000002</ele>
        <time>2011-01-04T10:58:16Z</time>
      </trkpt>
      <trkpt lat="40.322944968938828" lon="-3.6444509960711">
        <ele>555</ele>
        <time>2011-01-04T10:58:43Z</time>
      </trkpt>
      <trkpt lat="40.322784036397934" lon="-3.643212988972664">
        <ele>551.39999999999998</ele>
        <time>2011-01-04T10:58:44Z</time>
      </trkpt>
      <trkpt lat="40.322930971160531" lon="-3.643059013411403">
        <ele>547.39999999999998</ele>
        <time>2011-01-04T10:58:45Z</time>
      </trkpt>
      <trkpt lat="40.330355996266007" lon="-3.635725015774369">
        <ele>574.89999999999998</ele>
        <time>2011-01-04T10:59:15Z</time>
      </trkpt>
      <trkpt lat="40.330571997910738" lon="-3.635416980832815">
        <ele>575.5</ele>
        <time>2011-01-04T10:59:16Z</time>
      </trkpt>
      <trkpt lat="40.332364970818162" lon="-3.632473004981875">
        <ele>579.29999999999995</ele>
        <time>2011-01-04T10:59:25Z</time>
      </trkpt>
      <trkpt lat="40.333211962133646" lon="-3.630705010145903">
        <ele>581.79999999999995</ele>
        <time>2011-01-04T10:59:30Z</time>
      </trkpt>
      <trkpt lat="40.334218963980675" lon="-3.628091029822826">
        <ele>586.60000000000002</ele>
        <time>2011-01-04T10:59:37Z</time>
      </trkpt>
      <trkpt lat="40.33532596193254" lon="-3.624163018539548">
        <ele>591.89999999999998</ele>
        <time>2011-01-04T10:59:47Z</time>
      </trkpt>
      <trkpt lat="40.343352975323796" lon="-3.592726020142436">
        <ele>632.60000000000002</ele>
        <time>2011-01-04T11:01:08Z</time>
      </trkpt>
      <trkpt lat="40.343487001955509" lon="-3.592370040714741">
        <ele>632.29999999999995</ele>
        <time>2011-01-04T11:01:09Z</time>
      </trkpt>
      <trkpt lat="40.346265016123652" lon="-3.585918992757797">
        <ele>625.79999999999995</ele>
        <time>2011-01-04T11:01:28Z</time>
      </trkpt>
      <trkpt lat="40.348830968141556" lon="-3.580820029601455">
        <ele>615.60000000000002</ele>
        <time>2011-01-04T11:01:43Z</time>
      </trkpt>
      <trkpt lat="40.35102803260088" lon="-3.57720298692584">
        <ele>604.20000000000005</ele>
        <time>2011-01-04T11:01:55Z</time>
      </trkpt>
      <trkpt lat="40.359813021495938" lon="-3.565347958356142">
        <ele>600.39999999999998</ele>
        <time>2011-01-04T11:02:37Z</time>
      </trkpt>
      <trkpt lat="40.360034974291921" lon="-3.565066996961832">
        <ele>600.29999999999995</ele>
        <time>2011-01-04T11:02:38Z</time>
      </trkpt>
      <trkpt lat="40.36525396630168" lon="-3.559118025004864">
        <ele>597.60000000000002</ele>
        <time>2011-01-04T11:03:00Z</time>
      </trkpt>
      <trkpt lat="40.36613498814404" lon="-3.558333981782198">
        <ele>597.79999999999995</ele>
        <time>2011-01-04T11:03:04Z</time>
      </trkpt>
      <trkpt lat="40.368874026462436" lon="-3.556230962276459">
        <ele>599.10000000000002</ele>
        <time>2011-01-04T11:03:15Z</time>
      </trkpt>
      <trkpt lat="40.379596995189786" lon="-3.548272009938955">
        <ele>619.39999999999998</ele>
        <time>2011-01-04T11:03:56Z</time>
      </trkpt>
      <trkpt lat="40.37984199821949" lon="-3.547973027452827">
        <ele>622.39999999999998</ele>
        <time>2011-01-04T11:03:57Z</time>
      </trkpt>
      <trkpt lat="40.393714969977736" lon="-3.53100897744298">
        <ele>643.29999999999995</ele>
        <time>2011-01-04T11:04:59Z</time>
      </trkpt>
      <trkpt lat="40.393962990492582" lon="-3.530783001333475">
        <ele>642.79999999999995</ele>
        <time>2011-01-04T11:05:00Z</time>
      </trkpt>
      <trkpt lat="40.39522698149085" lon="-3.529760995879769">
        <ele>641.5</ele>
        <time>2011-01-04T11:05:05Z</time>
      </trkpt>
      <trkpt lat="40.395750012248755" lon="-3.529406022280455">
        <ele>641.5</ele>
        <time>2011-01-04T11:05:07Z</time>
      </trkpt>
      <trkpt lat="40.39683798328042" lon="-3.528781989589334">
        <ele>642.60000000000002</ele>
        <time>2011-01-04T11:05:11Z</time>
      </trkpt>
      <trkpt lat="40.397403007373214" lon="-3.528527012094855">
        <ele>643.5</ele>
        <time>2011-01-04T11:05:13Z</time>
      </trkpt>
      <trkpt lat="40.398562978953123" lon="-3.528113029897213">
        <ele>645.10000000000002</ele>
        <time>2011-01-04T11:05:17Z</time>
      </trkpt>
      <trkpt lat="40.399160021916032" lon="-3.527973974123597">
        <ele>645.39999999999998</ele>
        <time>2011-01-04T11:05:19Z</time>
      </trkpt>
      <trkpt lat="40.403244020417333" lon="-3.527153972536326">
        <ele>640.29999999999995</ele>
        <time>2011-01-04T11:05:33Z</time>
      </trkpt>
      <trkpt lat="40.403520036488771" lon="-3.527038972824812">
        <ele>639.70000000000005</ele>
        <time>2011-01-04T11:05:34Z</time>
      </trkpt>
      <trkpt lat="40.405189963057637" lon="-3.526167003437877">
        <ele>634.79999999999995</ele>
        <time>2011-01-04T11:05:40Z</time>
      </trkpt>
      <trkpt lat="40.405444018542767" lon="-3.525885036215186">
        <ele>633.29999999999995</ele>
        <time>2011-01-04T11:05:41Z</time>
      </trkpt>
      <trkpt lat="40.405704025179148" lon="-3.525642966851592">
        <ele>631.79999999999995</ele>
        <time>2011-01-04T11:05:42Z</time>
      </trkpt>
      <trkpt lat="40.407438995316625" lon="-3.523873966187239">
        <ele>619</ele>
        <time>2011-01-04T11:05:49Z</time>
      </trkpt>
      <trkpt lat="40.407660026103258" lon="-3.523583030328155">
        <ele>616.89999999999998</ele>
        <time>2011-01-04T11:05:50Z</time>
      </trkpt>
      <trkpt lat="40.408496959134936" lon="-3.522332031279802">
        <ele>608.10000000000002</ele>
        <time>2011-01-04T11:05:54Z</time>
      </trkpt>
      <trkpt lat="40.408856039866805" lon="-3.521635998040438">
        <ele>602.70000000000005</ele>
        <time>2011-01-04T11:05:56Z</time>
      </trkpt>
      <trkpt lat="40.409325007349253" lon="-3.520507961511612">
        <ele>594.89999999999998</ele>
        <time>2011-01-04T11:05:59Z</time>
      </trkpt>
      <trkpt lat="40.409589037299156" lon="-3.519708998501301">
        <ele>590</ele>
        <time>2011-01-04T11:06:01Z</time>
      </trkpt>
      <trkpt lat="40.409704959020019" lon="-3.51929702796042">
        <ele>587.60000000000002</ele>
        <time>2011-01-04T11:06:02Z</time>
      </trkpt>
      <trkpt lat="40.411879979074001" lon="-3.508797017857432">
        <ele>556.5</ele>
        <time>2011-01-04T11:06:29Z</time>
      </trkpt>
      <trkpt lat="40.412011994048953" lon="-3.508429974317551">
        <ele>556.39999999999998</ele>
        <time>2011-01-04T11:06:30Z</time>
      </trkpt>
      <trkpt lat="40.412475010380149" lon="-3.507357006892562">
        <ele>556</ele>
        <time>2011-01-04T11:06:33Z</time>
      </trkpt>
      <trkpt lat="40.413171965628862" lon="-3.505950020626187">
        <ele>556.29999999999995</ele>
        <time>2011-01-04T11:06:37Z</time>
      </trkpt>
      <trkpt lat="40.413759034126997" lon="-3.504935977980495">
        <ele>556.79999999999995</ele>
        <time>2011-01-04T11:06:40Z</time>
      </trkpt>
      <trkpt lat="40.414415001869202" lon="-3.503992008045316">
        <ele>557.60000000000002</ele>
        <time>2011-01-04T11:06:43Z</time>
      </trkpt>
      <trkpt lat="40.415113968774676" lon="-3.503120960667729">
        <ele>557.89999999999998</ele>
        <time>2011-01-04T11:06:46Z</time>
      </trkpt>
      <trkpt lat="40.416116025298834" lon="-3.502069031819701">
        <ele>558.5</ele>
        <time>2011-01-04T11:06:50Z</time>
      </trkpt>
      <trkpt lat="40.4169259686023" lon="-3.50135799497366">
        <ele>559.20000000000005</ele>
        <time>2011-01-04T11:06:53Z</time>
      </trkpt>
      <trkpt lat="40.417777989059687" lon="-3.500715019181371">
        <ele>559.79999999999995</ele>
        <time>2011-01-04T11:06:56Z</time>
      </trkpt>
      <trkpt lat="40.418663034215569" lon="-3.500138008967042">
        <ele>560.70000000000005</ele>
        <time>2011-01-04T11:06:59Z</time>
      </trkpt>
      <trkpt lat="40.419574985280633" lon="-3.499650014564395">
        <ele>560.79999999999995</ele>
        <time>2011-01-04T11:07:02Z</time>
      </trkpt>
      <trkpt lat="40.419882014393806" lon="-3.499506013467908">
        <ele>560.79999999999995</ele>
        <time>2011-01-04T11:07:03Z</time>
      </trkpt>
      <trkpt lat="40.421123960986733" lon="-3.499041991308332">
        <ele>560.89999999999998</ele>
        <time>2011-01-04T11:07:07Z</time>
      </trkpt>
      <trkpt lat="40.422066003084183" lon="-3.498829007148743">
        <ele>560.79999999999995</ele>
        <time>2011-01-04T11:07:10Z</time>
      </trkpt>
      <trkpt lat="40.42300402186811" lon="-3.498706966638565">
        <ele>560.79999999999995</ele>
        <time>2011-01-04T11:07:13Z</time>
      </trkpt>
      <trkpt lat="40.423615984618664" lon="-3.498677965253592">
        <ele>560.70000000000005</ele>
        <time>2011-01-04T11:07:15Z</time>
      </trkpt>
      <trkpt lat="40.423919996246696" lon="-3.498678971081972">
        <ele>560.60000000000002</ele>
        <time>2011-01-04T11:07:16Z</time>
      </trkpt>
      <trkpt lat="40.425113998353481" lon="-3.498775027692318">
        <ele>562.20000000000005</ele>
        <time>2011-01-04T11:07:20Z</time>
      </trkpt>
      <trkpt lat="40.425959983840585" lon="-3.498926991596818">
        <ele>562.5</ele>
        <time>2011-01-04T11:07:23Z</time>
      </trkpt>
      <trkpt lat="40.42678602039814" lon="-3.499152967706323">
        <ele>562.20000000000005</ele>
        <time>2011-01-04T11:07:26Z</time>
      </trkpt>
      <trkpt lat="40.427856976166368" lon="-3.499556975439191">
        <ele>561.60000000000002</ele>
        <time>2011-01-04T11:07:30Z</time>
      </trkpt>
      <trkpt lat="40.428626015782356" lon="-3.499916978180409">
        <ele>560.79999999999995</ele>
        <time>2011-01-04T11:07:33Z</time>
      </trkpt>
      <trkpt lat="40.42962103150785" lon="-3.500489965081215">
        <ele>559.70000000000005</ele>
        <time>2011-01-04T11:07:37Z</time>
      </trkpt>
      <trkpt lat="40.430558966472745" lon="-3.50114299915731">
        <ele>559.5</ele>
        <time>2011-01-04T11:07:41Z</time>
      </trkpt>
      <trkpt lat="40.431217029690742" lon="-3.501676004379988">
        <ele>559.29999999999995</ele>
        <time>2011-01-04T11:07:44Z</time>
      </trkpt>
      <trkpt lat="40.435021994635463" lon="-3.50516103208065">
        <ele>564.10000000000002</ele>
        <time>2011-01-04T11:08:05Z</time>
      </trkpt>
      <trkpt lat="40.435117967426777" lon="-3.505216017365456">
        <ele>564.79999999999995</ele>
        <time>2011-01-04T11:08:06Z</time>
      </trkpt>
      <trkpt lat="40.43518602848053" lon="-3.505210988223553">
        <ele>565.39999999999998</ele>
        <time>2011-01-04T11:08:07Z</time>
      </trkpt>
      <trkpt lat="40.435234978795052" lon="-3.505193972960115">
        <ele>566</ele>
        <time>2011-01-04T11:08:08Z</time>
      </trkpt>
      <trkpt lat="40.435274038463831" lon="-3.50516396574676">
        <ele>566.60000000000002</ele>
        <time>2011-01-04T11:08:09Z</time>
      </trkpt>
      <trkpt lat="40.435306979343295" lon="-3.50511996075511">
        <ele>566.89999999999998</ele>
        <time>2011-01-04T11:08:10Z</time>
      </trkpt>
      <trkpt lat="40.435336986556649" lon="-3.505057012662292">
        <ele>567</ele>
        <time>2011-01-04T11:08:11Z</time>
      </trkpt>
      <trkpt lat="40.435369005426764" lon="-3.504974031820893">
        <ele>567.20000000000005</ele>
        <time>2011-01-04T11:08:12Z</time>
      </trkpt>
      <trkpt lat="40.435409992933273" lon="-3.504889039322734">
        <ele>567.20000000000005</ele>
        <time>2011-01-04T11:08:13Z</time>
      </trkpt>
      <trkpt lat="40.435464978218079" lon="-3.50481603294611">
        <ele>567.29999999999995</ele>
        <time>2011-01-04T11:08:14Z</time>
      </trkpt>
      <trkpt lat="40.435536978766322" lon="-3.504762975499034">
        <ele>567.29999999999995</ele>
        <time>2011-01-04T11:08:15Z</time>
      </trkpt>
      <trkpt lat="40.435623982921243" lon="-3.504731962457299">
        <ele>567.29999999999995</ele>
        <time>2011-01-04T11:08:16Z</time>
      </trkpt>
      <trkpt lat="40.435714004561305" lon="-3.504703966900706">
        <ele>567.39999999999998</ele>
        <time>2011-01-04T11:08:17Z</time>
      </trkpt>
      <trkpt lat="40.435802014544606" lon="-3.504659961909056">
        <ele>567.5</ele>
        <time>2011-01-04T11:08:18Z</time>
      </trkpt>
      <trkpt lat="40.435884995386004" lon="-3.50458201020956">
        <ele>567.60000000000002</ele>
        <time>2011-01-04T11:08:19Z</time>
      </trkpt>
      <trkpt lat="40.435963030904531" lon="-3.504473967477679">
        <ele>567.89999999999998</ele>
        <time>2011-01-04T11:08:20Z</time>
      </trkpt>
      <trkpt lat="40.43684103526175" lon="-3.503101011738181">
        <ele>570.20000000000005</ele>
        <time>2011-01-04T11:08:29Z</time>
      </trkpt>
      <trkpt lat="40.436985958367586" lon="-3.502945024520159">
        <ele>570.29999999999995</ele>
        <time>2011-01-04T11:08:30Z</time>
      </trkpt>
      <trkpt lat="40.437144041061401" lon="-3.502801023423672">
        <ele>570.29999999999995</ele>
        <time>2011-01-04T11:08:31Z</time>
      </trkpt>
      <trkpt lat="40.438318010419607" lon="-3.501798966899514">
        <ele>571.60000000000002</ele>
        <time>2011-01-04T11:08:38Z</time>
      </trkpt>
      <trkpt lat="40.438469974324107" lon="-3.501610038802028">
        <ele>571.89999999999998</ele>
        <time>2011-01-04T11:08:39Z</time>
      </trkpt>
      <trkpt lat="40.438612969592214" lon="-3.50140099413693">
        <ele>572.29999999999995</ele>
        <time>2011-01-04T11:08:40Z</time>
      </trkpt>
      <trkpt lat="40.438742972910404" lon="-3.501175018027425">
        <ele>572.70000000000005</ele>
        <time>2011-01-04T11:08:41Z</time>
      </trkpt>
      <trkpt lat="40.438859984278679" lon="-3.500932026654482">
        <ele>573.20000000000005</ele>
        <time>2011-01-04T11:08:42Z</time>
      </trkpt>
      <trkpt lat="40.438964003697038" lon="-3.500676965340972">
        <ele>573.5</ele>
        <time>2011-01-04T11:08:43Z</time>
      </trkpt>
      <trkpt lat="40.4390540253371" lon="-3.5004130192101">
        <ele>573.70000000000005</ele>
        <time>2011-01-04T11:08:44Z</time>
      </trkpt>
      <trkpt lat="40.439194003120065" lon="-3.499870961531997">
        <ele>574.29999999999995</ele>
        <time>2011-01-04T11:08:46Z</time>
      </trkpt>
      <trkpt lat="40.439297016710043" lon="-3.499358994886279">
        <ele>575</ele>
        <time>2011-01-04T11:08:48Z</time>
      </trkpt>
      <trkpt lat="40.439348984509706" lon="-3.49891098216176">
        <ele>575.29999999999995</ele>
        <time>2011-01-04T11:08:50Z</time>
      </trkpt>
      <trkpt lat="40.439358036965132" lon="-3.498705038800836">
        <ele>575.5</ele>
        <time>2011-01-04T11:08:51Z</time>
      </trkpt>
      <trkpt lat="40.439354013651609" lon="-3.498130962252617">
        <ele>575.5</ele>
        <time>2011-01-04T11:08:54Z</time>
      </trkpt>
      <trkpt lat="40.439387960359454" lon="-3.497976986691356">
        <ele>575.79999999999995</ele>
        <time>2011-01-04T11:08:55Z</time>
      </trkpt>
      <trkpt lat="40.439461972564459" lon="-3.497853018343449">
        <ele>576</ele>
        <time>2011-01-04T11:08:56Z</time>
      </trkpt>
      <trkpt lat="40.439631035551429" lon="-3.497592005878687">
        <ele>576.70000000000005</ele>
        <time>2011-01-04T11:08:58Z</time>
      </trkpt>
      <trkpt lat="40.43969901278615" lon="-3.497431995347142">
        <ele>577</ele>
        <time>2011-01-04T11:08:59Z</time>
      </trkpt>
      <trkpt lat="40.439756009727716" lon="-3.497250024229288">
        <ele>577.29999999999995</ele>
        <time>2011-01-04T11:09:00Z</time>
      </trkpt>
      <trkpt lat="40.441274978220463" lon="-3.491011038422585">
        <ele>580.10000000000002</ele>
        <time>2011-01-04T11:09:25Z</time>
      </trkpt>
      <trkpt lat="40.441315965726972" lon="-3.490810040384531">
        <ele>580.10000000000002</ele>
        <time>2011-01-04T11:09:26Z</time>
      </trkpt>
      <trkpt lat="40.441366005688906" lon="-3.490454982966185">
        <ele>580.20000000000005</ele>
        <time>2011-01-04T11:09:28Z</time>
      </trkpt>
      <trkpt lat="40.441381009295583" lon="-3.490172009915113">
        <ele>580.29999999999995</ele>
        <time>2011-01-04T11:09:30Z</time>
      </trkpt>
      <trkpt lat="40.441370029002428" lon="-3.490041000768542">
        <ele>580.10000000000002</ele>
        <time>2011-01-04T11:09:31Z</time>
      </trkpt>
      <trkpt lat="40.441356031224132" lon="-3.489904040470719">
        <ele>580</ele>
        <time>2011-01-04T11:09:32Z</time>
      </trkpt>
      <trkpt lat="40.441357037052512" lon="-3.489760961383581">
        <ele>579.89999999999998</ele>
        <time>2011-01-04T11:09:33Z</time>
      </trkpt>
      <trkpt lat="40.441386960446835" lon="-3.489625006914139">
        <ele>579.89999999999998</ele>
        <time>2011-01-04T11:09:34Z</time>
      </trkpt>
      <trkpt lat="40.441445969045162" lon="-3.489510007202625">
        <ele>579.70000000000005</ele>
        <time>2011-01-04T11:09:35Z</time>
      </trkpt>
      <trkpt lat="40.441520987078547" lon="-3.489414034411311">
        <ele>579.39999999999998</ele>
        <time>2011-01-04T11:09:36Z</time>
      </trkpt>
      <trkpt lat="40.441598016768694" lon="-3.489312026649714">
        <ele>579.29999999999995</ele>
        <time>2011-01-04T11:09:37Z</time>
      </trkpt>
      <trkpt lat="40.441668005660176" lon="-3.489188980311155">
        <ele>579.29999999999995</ele>
        <time>2011-01-04T11:09:38Z</time>
      </trkpt>
      <trkpt lat="40.441725002601743" lon="-3.489043973386288">
        <ele>579.29999999999995</ele>
        <time>2011-01-04T11:09:39Z</time>
      </trkpt>
      <trkpt lat="40.441948967054486" lon="-3.488318016752601">
        <ele>579.39999999999998</ele>
        <time>2011-01-04T11:09:43Z</time>
      </trkpt>
      <trkpt lat="40.443341033533216" lon="-3.48268898203969">
        <ele>582.10000000000002</ele>
        <time>2011-01-04T11:10:05Z</time>
      </trkpt>
      <trkpt lat="40.443447986617684" lon="-3.482465017586947">
        <ele>582.10000000000002</ele>
        <time>2011-01-04T11:10:06Z</time>
      </trkpt>
      <trkpt lat="40.443569021299481" lon="-3.482256978750229">
        <ele>582.10000000000002</ele>
        <time>2011-01-04T11:10:07Z</time>
      </trkpt>
      <trkpt lat="40.443705981597304" lon="-3.48206696100533">
        <ele>582</ele>
        <time>2011-01-04T11:10:08Z</time>
      </trkpt>
      <trkpt lat="40.443856017664075" lon="-3.48189395852387">
        <ele>581.89999999999998</ele>
        <time>2011-01-04T11:10:09Z</time>
      </trkpt>
      <trkpt lat="40.444018039852381" lon="-3.481744006276131">
        <ele>581.60000000000002</ele>
        <time>2011-01-04T11:10:10Z</time>
      </trkpt>
      <trkpt lat="40.444190036505461" lon="-3.481619032099843">
        <ele>581.10000000000002</ele>
        <time>2011-01-04T11:10:11Z</time>
      </trkpt>
      <trkpt lat="40.444368990138173" lon="-3.481516018509865">
        <ele>580.79999999999995</ele>
        <time>2011-01-04T11:10:12Z</time>
      </trkpt>
      <trkpt lat="40.444553978741169" lon="-3.481435971334577">
        <ele>580.39999999999998</ele>
        <time>2011-01-04T11:10:13Z</time>
      </trkpt>
      <trkpt lat="40.444738967344165" lon="-3.48137897439301">
        <ele>579.89999999999998</ele>
        <time>2011-01-04T11:10:14Z</time>
      </trkpt>
      <trkpt lat="40.444921022281051" lon="-3.481346033513546">
        <ele>579.5</ele>
        <time>2011-01-04T11:10:15Z</time>
      </trkpt>
      <trkpt lat="40.445397030562162" lon="-3.481315020471811">
        <ele>578.60000000000002</ele>
        <time>2011-01-04T11:10:18Z</time>
      </trkpt>
      <trkpt lat="40.44582299888134" lon="-3.481298005208373">
        <ele>578.20000000000005</ele>
        <time>2011-01-04T11:10:22Z</time>
      </trkpt>
      <trkpt lat="40.445887036621571" lon="-3.481287024915218">
        <ele>578.29999999999995</ele>
        <time>2011-01-04T11:10:23Z</time>
      </trkpt>
      <trkpt lat="40.445922994986176" lon="-3.481277972459793">
        <ele>578.20000000000005</ele>
        <time>2011-01-04T11:10:24Z</time>
      </trkpt>
      <trkpt lat="40.445932969450951" lon="-3.481275038793683">
        <ele>578.20000000000005</ele>
        <time>2011-01-04T11:10:25Z</time>
      </trkpt>
      <trkpt lat="40.44593196362257" lon="-3.481275960803032">
        <ele>578.20000000000005</ele>
        <time>2011-01-04T11:10:26Z</time>
      </trkpt>
      <trkpt lat="40.445930035784841" lon="-3.481277972459793">
        <ele>578.29999999999995</ele>
        <time>2011-01-04T11:10:27Z</time>
      </trkpt>
      <trkpt lat="40.44592902995646" lon="-3.481279984116554">
        <ele>578.39999999999998</ele>
        <time>2011-01-04T11:10:28Z</time>
      </trkpt>
      <trkpt lat="40.445927018299699" lon="-3.481281995773315">
        <ele>578.5</ele>
        <time>2011-01-04T11:10:29Z</time>
      </trkpt>
      <trkpt lat="40.445928024128079" lon="-3.481280989944935">
        <ele>578.5</ele>
        <time>2011-01-04T11:10:30Z</time>
      </trkpt>
      <trkpt lat="40.445942021906376" lon="-3.481274032965303">
        <ele>578.5</ele>
        <time>2011-01-04T11:10:31Z</time>
      </trkpt>
      <trkpt lat="40.445968005806208" lon="-3.481255006045103">
        <ele>578.60000000000002</ele>
        <time>2011-01-04T11:10:32Z</time>
      </trkpt>
      <trkpt lat="40.446006981655955" lon="-3.481192979961634">
        <ele>578.60000000000002</ele>
        <time>2011-01-04T11:10:33Z</time>
      </trkpt>
      <trkpt lat="40.446065990254283" lon="-3.481118967756629">
        <ele>578.70000000000005</ele>
        <time>2011-01-04T11:10:34Z</time>
      </trkpt>
      <trkpt lat="40.446137990802526" lon="-3.481047973036766">
        <ele>578.70000000000005</ele>
        <time>2011-01-04T11:10:35Z</time>
      </trkpt>
      <trkpt lat="40.446304958313704" lon="-3.48090598359704">
        <ele>579</ele>
        <time>2011-01-04T11:10:37Z</time>
      </trkpt>
      <trkpt lat="40.446382993832231" lon="-3.480804981663823">
        <ele>579</ele>
        <time>2011-01-04T11:10:38Z</time>
      </trkpt>
      <trkpt lat="40.446446025744081" lon="-3.480673972517252">
        <ele>579.20000000000005</ele>
        <time>2011-01-04T11:10:39Z</time>
      </trkpt>
      <trkpt lat="40.446492964401841" lon="-3.480514967814088">
        <ele>579.39999999999998</ele>
        <time>2011-01-04T11:10:40Z</time>
      </trkpt>
      <trkpt lat="40.448540998622775" lon="-3.470600014552474">
        <ele>583.5</ele>
        <time>2011-01-04T11:11:36Z</time>
      </trkpt>
      <trkpt lat="40.448554996401072" lon="-3.470501024276018">
        <ele>583.60000000000002</ele>
        <time>2011-01-04T11:11:37Z</time>
      </trkpt>
      <trkpt lat="40.448568994179368" lon="-3.470303965732455">
        <ele>583.79999999999995</ele>
        <time>2011-01-04T11:11:39Z</time>
      </trkpt>
      <trkpt lat="40.448566982522607" lon="-3.470212016254664">
        <ele>583.89999999999998</ele>
        <time>2011-01-04T11:11:40Z</time>
      </trkpt>
      <trkpt lat="40.448558013886213" lon="-3.470128029584885">
        <ele>583.89999999999998</ele>
        <time>2011-01-04T11:11:41Z</time>
      </trkpt>
      <trkpt lat="40.448546027764678" lon="-3.470058040693402">
        <ele>584.10000000000002</ele>
        <time>2011-01-04T11:11:42Z</time>
      </trkpt>
      <trkpt lat="40.448499005287886" lon="-3.469919990748167">
        <ele>584</ele>
        <time>2011-01-04T11:11:53Z</time>
      </trkpt>
      <trkpt lat="40.448317034170032" lon="-3.469444988295436">
        <ele>583.5</ele>
        <time>2011-01-04T11:12:00Z</time>
      </trkpt>
      <trkpt lat="40.448292978107929" lon="-3.469336023554206">
        <ele>583.5</ele>
        <time>2011-01-04T11:12:01Z</time>
      </trkpt>
      <trkpt lat="40.448285015299916" lon="-3.469221023842692">
        <ele>583.39999999999998</ele>
        <time>2011-01-04T11:12:02Z</time>
      </trkpt>
      <trkpt lat="40.44829498976469" lon="-3.469106024131179">
        <ele>583.29999999999995</ele>
        <time>2011-01-04T11:12:03Z</time>
      </trkpt>
      <trkpt lat="40.448321979492903" lon="-3.468998987227678">
        <ele>583.20000000000005</ele>
        <time>2011-01-04T11:12:04Z</time>
      </trkpt>
      <trkpt lat="40.448366990312934" lon="-3.468906031921506">
        <ele>583.10000000000002</ele>
        <time>2011-01-04T11:12:05Z</time>
      </trkpt>
      <trkpt lat="40.448429016396403" lon="-3.468833025544882">
        <ele>582.79999999999995</ele>
        <time>2011-01-04T11:12:06Z</time>
      </trkpt>
      <trkpt lat="40.448506968095899" lon="-3.468784997239709">
        <ele>582.39999999999998</ele>
        <time>2011-01-04T11:12:07Z</time>
      </trkpt>
      <trkpt lat="40.448748031631112" lon="-3.468666980043054">
        <ele>582</ele>
        <time>2011-01-04T11:12:10Z</time>
      </trkpt>
      <trkpt lat="40.44881097972393" lon="-3.468602020293474">
        <ele>581.79999999999995</ele>
        <time>2011-01-04T11:12:11Z</time>
      </trkpt>
      <trkpt lat="40.448856996372342" lon="-3.468525996431708">
        <ele>582.20000000000005</ele>
        <time>2011-01-04T11:12:12Z</time>
      </trkpt>
      <trkpt lat="40.448887003585696" lon="-3.468447960913181">
        <ele>582.79999999999995</ele>
        <time>2011-01-04T11:12:13Z</time>
      </trkpt>
      <trkpt lat="40.448906030505896" lon="-3.468369003385305">
        <ele>582.89999999999998</ele>
        <time>2011-01-04T11:12:14Z</time>
      </trkpt>
      <trkpt lat="40.448919022455812" lon="-3.468286022543907">
        <ele>583.20000000000005</ele>
        <time>2011-01-04T11:12:15Z</time>
      </trkpt>
      <trkpt lat="40.448920028284192" lon="-3.468199018388987">
        <ele>583.39999999999998</ele>
        <time>2011-01-04T11:12:16Z</time>
      </trkpt>
      <trkpt lat="40.448909970000386" lon="-3.468104973435402">
        <ele>583.60000000000002</ele>
        <time>2011-01-04T11:12:17Z</time>
      </trkpt>
      <trkpt lat="40.448890021070838" lon="-3.468004977330566">
        <ele>583.89999999999998</ele>
        <time>2011-01-04T11:12:18Z</time>
      </trkpt>
      <trkpt lat="40.448825983330607" lon="-3.46779702231288">
        <ele>584.39999999999998</ele>
        <time>2011-01-04T11:12:20Z</time>
      </trkpt>
      <trkpt lat="40.448192982003093" lon="-3.466117037460208">
        <ele>583.89999999999998</ele>
        <time>2011-01-04T11:12:34Z</time>
      </trkpt>
      <trkpt lat="40.447964994236827" lon="-3.465625019744039">
        <ele>584.39999999999998</ele>
        <time>2011-01-04T11:12:38Z</time>
      </trkpt>
      <trkpt lat="40.447900034487247" lon="-3.465511025860906">
        <ele>584.39999999999998</ele>
        <time>2011-01-04T11:12:39Z</time>
      </trkpt>
      <trkpt lat="40.447062011808157" lon="-3.464352982118726">
        <ele>584.79999999999995</ele>
        <time>2011-01-04T11:12:51Z</time>
      </trkpt>
      <trkpt lat="40.446194987744093" lon="-3.463399037718773">
        <ele>583.60000000000002</ele>
        <time>2011-01-04T11:13:52Z</time>
      </trkpt>
      <trkpt lat="40.446170009672642" lon="-3.463356038555503">
        <ele>583.70000000000005</ele>
        <time>2011-01-04T11:13:53Z</time>
      </trkpt>
      <trkpt lat="40.446147965267301" lon="-3.463310021907091">
        <ele>583.79999999999995</ele>
        <time>2011-01-04T11:13:54Z</time>
      </trkpt>
      <trkpt lat="40.446131033822894" lon="-3.463269034400582">
        <ele>583.60000000000002</ele>
        <time>2011-01-04T11:13:55Z</time>
      </trkpt>
      <trkpt lat="40.446121981367469" lon="-3.463233998045325">
        <ele>583.60000000000002</ele>
        <time>2011-01-04T11:13:56Z</time>
      </trkpt>
      <trkpt lat="40.446118963882327" lon="-3.463207008317113">
        <ele>583.5</ele>
        <time>2011-01-04T11:13:57Z</time>
      </trkpt>
      <trkpt lat="40.446117036044598" lon="-3.463187981396914">
        <ele>583.10000000000002</ele>
        <time>2011-01-04T11:13:58Z</time>
      </trkpt>
      <trkpt lat="40.446117036044598" lon="-3.463181024417281">
        <ele>582.79999999999995</ele>
        <time>2011-01-04T11:13:59Z</time>
      </trkpt>
      <trkpt lat="40.446117036044598" lon="-3.463177001103759">
        <ele>582.70000000000005</ele>
        <time>2011-01-04T11:14:00Z</time>
      </trkpt>
      <trkpt lat="40.446116030216217" lon="-3.463168032467365">
        <ele>582.5</ele>
        <time>2011-01-04T11:14:01Z</time>
      </trkpt>
      <trkpt lat="40.446119969710708" lon="-3.463153028860688">
        <ele>582.29999999999995</ele>
        <time>2011-01-04T11:14:02Z</time>
      </trkpt>
      <trkpt lat="40.446129022166133" lon="-3.463124027475715">
        <ele>582.39999999999998</ele>
        <time>2011-01-04T11:14:03Z</time>
      </trkpt>
      <trkpt lat="40.446149976924062" lon="-3.463083039969206">
        <ele>582.39999999999998</ele>
        <time>2011-01-04T11:14:04Z</time>
      </trkpt>
      <trkpt lat="40.446185013279319" lon="-3.463031994178891">
        <ele>582.5</ele>
        <time>2011-01-04T11:14:05Z</time>
      </trkpt>
      <trkpt lat="40.44623002409935" lon="-3.462978014722467">
        <ele>582.5</ele>
        <time>2011-01-04T11:14:06Z</time>
      </trkpt>
      <trkpt lat="40.447199977934361" lon="-3.461897000670433">
        <ele>582.89999999999998</ele>
        <time>2011-01-04T11:14:26Z</time>
      </trkpt>
      <trkpt lat="40.447200983762741" lon="-3.46189096570015">
        <ele>582.70000000000005</ele>
        <time>2011-01-04T11:14:29Z</time>
      </trkpt>
      <trkpt lat="40.447197966277599" lon="-3.46189096570015">
        <ele>582.5</ele>
        <time>2011-01-04T11:14:30Z</time>
      </trkpt>
      <trkpt lat="40.44719603843987" lon="-3.46189096570015">
        <ele>582.39999999999998</ele>
        <time>2011-01-04T11:14:31Z</time>
      </trkpt>
      <trkpt lat="40.447193020954728" lon="-3.46189096570015">
        <ele>582.29999999999995</ele>
        <time>2011-01-04T11:14:32Z</time>
      </trkpt>
      <trkpt lat="40.447192015126348" lon="-3.46188803203404">
        <ele>582.39999999999998</ele>
        <time>2011-01-04T11:14:33Z</time>
      </trkpt>
      <trkpt lat="40.447187991812825" lon="-3.461884008720517">
        <ele>582.5</ele>
        <time>2011-01-04T11:14:38Z</time>
      </trkpt>
      <trkpt lat="40.447187991812825" lon="-3.461881997063756">
        <ele>582.39999999999998</ele>
        <time>2011-01-04T11:14:39Z</time>
      </trkpt>
      <trkpt lat="40.447190003469586" lon="-3.461877973750234">
        <ele>582</ele>
        <time>2011-01-04T11:14:40Z</time>
      </trkpt>
      <trkpt lat="40.447204001247883" lon="-3.461864981800318">
        <ele>581.79999999999995</ele>
        <time>2011-01-04T11:14:41Z</time>
      </trkpt>
      <trkpt lat="40.447288993746042" lon="-3.461765991523862">
        <ele>581.29999999999995</ele>
        <time>2011-01-04T11:14:44Z</time>
      </trkpt>
      <trkpt lat="40.447982009500265" lon="-3.460891004651785">
        <ele>580.89999999999998</ele>
        <time>2011-01-04T11:14:58Z</time>
      </trkpt>
      <trkpt lat="40.447999024763703" lon="-3.46085898578167">
        <ele>580.89999999999998</ele>
        <time>2011-01-04T11:14:59Z</time>
      </trkpt>
      <trkpt lat="40.448005981743336" lon="-3.460825039073825">
        <ele>580.89999999999998</ele>
        <time>2011-01-04T11:15:00Z</time>
      </trkpt>
      <trkpt lat="40.448003970086575" lon="-3.46079302020371">
        <ele>580.60000000000002</ele>
        <time>2011-01-04T11:15:01Z</time>
      </trkpt>
      <trkpt lat="40.447990978136659" lon="-3.460756978020072">
        <ele>580.5</ele>
        <time>2011-01-04T11:15:02Z</time>
      </trkpt>
      <trkpt lat="40.447968011721969" lon="-3.46071096137166">
        <ele>580.39999999999998</ele>
        <time>2011-01-04T11:15:03Z</time>
      </trkpt>
      <trkpt lat="40.4474120400846" lon="-3.459755005314946">
        <ele>579.79999999999995</ele>
        <time>2011-01-04T11:15:17Z</time>
      </trkpt>
      <trkpt lat="40.447397036477923" lon="-3.459713011980057">
        <ele>579.79999999999995</ele>
        <time>2011-01-04T11:15:18Z</time>
      </trkpt>
      <trkpt lat="40.447354037314653" lon="-3.459600023925304">
        <ele>579.89999999999998</ele>
        <time>2011-01-04T11:15:20Z</time>
      </trkpt>
      <trkpt lat="40.447316989302635" lon="-3.459530035033822">
        <ele>579.89999999999998</ele>
        <time>2011-01-04T11:15:21Z</time>
      </trkpt>
      <trkpt lat="40.446414006873965" lon="-3.458076026290655">
        <ele>590.89999999999998</ele>
        <time>2011-01-04T11:15:48Z</time>
      </trkpt>
      <trkpt lat="40.446409983560443" lon="-3.458070997148752">
        <ele>591</ele>
        <time>2011-01-04T11:15:49Z</time>
      </trkpt>
      <trkpt lat="40.446408977732062" lon="-3.458069991320372">
        <ele>590.70000000000005</ele>
        <time>2011-01-04T11:15:50Z</time>
      </trkpt>
      <trkpt lat="40.446406966075301" lon="-3.458076026290655">
        <ele>590.89999999999998</ele>
        <time>2011-01-04T11:15:51Z</time>
      </trkpt>
      <trkpt lat="40.446415012702346" lon="-3.458084994927049">
        <ele>590.5</ele>
        <time>2011-01-04T11:15:52Z</time>
      </trkpt>
      <trkpt lat="40.446430016309023" lon="-3.458118019625545">
        <ele>590.89999999999998</ele>
        <time>2011-01-04T11:15:55Z</time>
      </trkpt>
      <trkpt lat="40.446429010480642" lon="-3.458125982433558">
        <ele>591.29999999999995</ele>
        <time>2011-01-04T11:15:56Z</time>
      </trkpt>
      <trkpt lat="40.446431022137403" lon="-3.45813101157546">
        <ele>591.5</ele>
        <time>2011-01-04T11:15:57Z</time>
      </trkpt>
      <trkpt lat="40.446439990773797" lon="-3.458136040717363">
        <ele>591.10000000000002</ele>
        <time>2011-01-04T11:15:59Z</time>
      </trkpt>
      <trkpt lat="40.446457006037235" lon="-3.458136040717363">
        <ele>592.20000000000005</ele>
        <time>2011-01-04T11:16:00Z</time>
      </trkpt>
      <trkpt lat="40.446468992158771" lon="-3.458136962726712">
        <ele>593.10000000000002</ele>
        <time>2011-01-04T11:16:01Z</time>
      </trkpt>
      <trkpt lat="40.446468992158771" lon="-3.458139980211854">
        <ele>592.79999999999995</ele>
        <time>2011-01-04T11:16:02Z</time>
      </trkpt>
      <trkpt lat="40.446469997987151" lon="-3.458141991868615">
        <ele>592.20000000000005</ele>
        <time>2011-01-04T11:16:03Z</time>
      </trkpt>
      <trkpt lat="40.446468992158771" lon="-3.458144003525376">
        <ele>592.10000000000002</ele>
        <time>2011-01-04T11:16:04Z</time>
      </trkpt>
      <trkpt lat="40.446471003815532" lon="-3.458146015182138">
        <ele>591.70000000000005</ele>
        <time>2011-01-04T11:16:05Z</time>
      </trkpt>
      <trkpt lat="40.446472009643912" lon="-3.458146015182138">
        <ele>591.39999999999998</ele>
        <time>2011-01-04T11:16:06Z</time>
      </trkpt>
      <trkpt lat="40.446471003815532" lon="-3.458146015182138">
        <ele>590.89999999999998</ele>
        <time>2011-01-04T11:16:07Z</time>
      </trkpt>
      <trkpt lat="40.446461029350758" lon="-3.45815003849566">
        <ele>591.39999999999998</ele>
        <time>2011-01-04T11:16:08Z</time>
      </trkpt>
      <trkpt lat="40.446457006037235" lon="-3.458150960505009">
        <ele>591.70000000000005</ele>
        <time>2011-01-04T11:16:09Z</time>
      </trkpt>
      <trkpt lat="40.446454994380474" lon="-3.458151966333389">
        <ele>591.70000000000005</ele>
        <time>2011-01-04T11:16:10Z</time>
      </trkpt>
      <trkpt lat="40.446453988552094" lon="-3.458148026838899">
        <ele>589.70000000000005</ele>
        <time>2011-01-04T11:16:35Z</time>
      </trkpt>
    </trkseg>
  </trk>

</gpx>
